<?xml version="1.0" encoding="UTF-8"?>
<gpx xmlns:xsi="http://www.w3.org/2001/XMLSchema-instance" xmlns="http://www.topografix.com/GPX/1/1" xsi:schemaLocation="http://www.topografix.com/GPX/1/1 http://www.topografix.com/GPX/1/1/gpx.xsd http://www.garmin.com/xmlschemas/GpxExtensions/v3 http://www.garmin.com/xmlschemas/GpxExtensionsv3.xsd http://www.garmin.com/xmlschemas/TrackPointExtension/v1 http://www.garmin.com/xmlschemas/TrackPointExtensionv1.xsd http://www.topografix.com/GPX/gpx_style/0/2 http://www.topografix.com/GPX/gpx_style/0/2/gpx_style.xsd" xmlns:gpxtpx="http://www.garmin.com/xmlschemas/TrackPointExtension/v1" xmlns:gpxx="http://www.garmin.com/xmlschemas/GpxExtensions/v3" xmlns:gpx_style="http://www.topografix.com/GPX/gpx_style/0/2" version="1.1" creator="https://gpx.studio">
<metadata>
    <name>Финальный трек 2023_0</name>
    <author>
        <name>gpx.studio</name>
        <link href="https://gpx.studio"></link>
    </author>
</metadata>
<trk>
    <name>new</name>
    <type>Cycling</type>
    <trkseg>
    <trkpt lat="56.49402928547417" lon="60.80925144814864">
        <ele>229.9</ele>
        <time>1970-01-01T07:04:50.916Z</time>
    </trkpt>
    <trkpt lat="56.494027390334125" lon="60.809257859115434">
        <ele>234.4</ele>
        <time>1970-01-01T07:05:03.126Z</time>
    </trkpt>
    <trkpt lat="56.494026" lon="60.809268">
        <ele>234.4</ele>
        <time>1970-01-01T07:05:03.626Z</time>
    </trkpt>
    <trkpt lat="56.494024" lon="60.809296">
        <ele>234.4</ele>
        <time>1970-01-01T07:05:04.626Z</time>
    </trkpt>
    <trkpt lat="56.494023" lon="60.809311">
        <ele>234.4</ele>
        <time>1970-01-01T07:05:05.626Z</time>
    </trkpt>
    <trkpt lat="56.494013" lon="60.809363">
        <ele>234.4</ele>
        <time>1970-01-01T07:05:06.626Z</time>
    </trkpt>
    <trkpt lat="56.494004" lon="60.809378">
        <ele>234.4</ele>
        <time>1970-01-01T07:05:07.626Z</time>
    </trkpt>
    <trkpt lat="56.493973" lon="60.80941">
        <ele>234.4</ele>
        <time>1970-01-01T07:05:08.626Z</time>
    </trkpt>
    <trkpt lat="56.493962" lon="60.809412">
        <ele>234.4</ele>
        <time>1970-01-01T07:05:09.626Z</time>
    </trkpt>
    <trkpt lat="56.493932" lon="60.809412">
        <ele>234.4</ele>
        <time>1970-01-01T07:05:10.626Z</time>
    </trkpt>
    <trkpt lat="56.493923" lon="60.809413">
        <ele>234.4</ele>
        <time>1970-01-01T07:05:11.626Z</time>
    </trkpt>
    <trkpt lat="56.493896" lon="60.809413">
        <ele>234.4</ele>
        <time>1970-01-01T07:05:12.626Z</time>
    </trkpt>
    <trkpt lat="56.493885" lon="60.809411">
        <ele>234.4</ele>
        <time>1970-01-01T07:05:13.626Z</time>
    </trkpt>
    <trkpt lat="56.49385" lon="60.809408">
        <ele>234.3</ele>
        <time>1970-01-01T07:05:14.626Z</time>
    </trkpt>
    <trkpt lat="56.49384" lon="60.809405">
        <ele>234.3</ele>
        <time>1970-01-01T07:05:15.626Z</time>
    </trkpt>
    <trkpt lat="56.493809" lon="60.809399">
        <ele>234.3</ele>
        <time>1970-01-01T07:05:16.626Z</time>
    </trkpt>
    <trkpt lat="56.493797" lon="60.8094">
        <ele>234.3</ele>
        <time>1970-01-01T07:05:17.626Z</time>
    </trkpt>
    <trkpt lat="56.49376" lon="60.809403">
        <ele>234.3</ele>
        <time>1970-01-01T07:05:18.626Z</time>
    </trkpt>
    <trkpt lat="56.49375" lon="60.809402">
        <ele>234.3</ele>
        <time>1970-01-01T07:05:19.626Z</time>
    </trkpt>
    <trkpt lat="56.493717" lon="60.8094">
        <ele>234.3</ele>
        <time>1970-01-01T07:05:20.626Z</time>
    </trkpt>
    <trkpt lat="56.493704" lon="60.809399">
        <ele>234.3</ele>
        <time>1970-01-01T07:05:21.626Z</time>
    </trkpt>
    <trkpt lat="56.493666" lon="60.809398">
        <ele>234.3</ele>
        <time>1970-01-01T07:05:22.626Z</time>
    </trkpt>
    <trkpt lat="56.493639" lon="60.8094">
        <ele>234.3</ele>
        <time>1970-01-01T07:05:23.626Z</time>
    </trkpt>
    <trkpt lat="56.49361" lon="60.809393">
        <ele>234.3</ele>
        <time>1970-01-01T07:05:24.626Z</time>
    </trkpt>
    <trkpt lat="56.493579" lon="60.809389">
        <ele>234.3</ele>
        <time>1970-01-01T07:05:25.626Z</time>
    </trkpt>
    <trkpt lat="56.493551" lon="60.809393">
        <ele>234.2</ele>
        <time>1970-01-01T07:05:26.626Z</time>
    </trkpt>
    <trkpt lat="56.493522" lon="60.809394">
        <ele>234.2</ele>
        <time>1970-01-01T07:05:27.626Z</time>
    </trkpt>
    <trkpt lat="56.493493" lon="60.809392">
        <ele>234.2</ele>
        <time>1970-01-01T07:05:28.626Z</time>
    </trkpt>
    <trkpt lat="56.493466" lon="60.809389">
        <ele>234.2</ele>
        <time>1970-01-01T07:05:29.626Z</time>
    </trkpt>
    <trkpt lat="56.49345" lon="60.809387">
        <ele>234.2</ele>
        <time>1970-01-01T07:05:30.626Z</time>
    </trkpt>
    <trkpt lat="56.493408" lon="60.80939">
        <ele>234.2</ele>
        <time>1970-01-01T07:05:31.626Z</time>
    </trkpt>
    <trkpt lat="56.493378" lon="60.809386">
        <ele>234.2</ele>
        <time>1970-01-01T07:05:32.626Z</time>
    </trkpt>
    <trkpt lat="56.493347" lon="60.809384">
        <ele>234.2</ele>
        <time>1970-01-01T07:05:33.626Z</time>
    </trkpt>
    <trkpt lat="56.493316" lon="60.809381">
        <ele>234.2</ele>
        <time>1970-01-01T07:05:34.626Z</time>
    </trkpt>
    <trkpt lat="56.493286" lon="60.809378">
        <ele>234.2</ele>
        <time>1970-01-01T07:05:35.626Z</time>
    </trkpt>
    <trkpt lat="56.493256" lon="60.809376">
        <ele>234.2</ele>
        <time>1970-01-01T07:05:36.626Z</time>
    </trkpt>
    <trkpt lat="56.493224" lon="60.809378">
        <ele>234.2</ele>
        <time>1970-01-01T07:05:37.626Z</time>
    </trkpt>
    <trkpt lat="56.493194" lon="60.809375">
        <ele>234.2</ele>
        <time>1970-01-01T07:05:38.626Z</time>
    </trkpt>
    <trkpt lat="56.493167" lon="60.809379">
        <ele>234.2</ele>
        <time>1970-01-01T07:05:39.626Z</time>
    </trkpt>
    <trkpt lat="56.493136" lon="60.809379">
        <ele>234.2</ele>
        <time>1970-01-01T07:05:40.626Z</time>
    </trkpt>
    <trkpt lat="56.493107" lon="60.809376">
        <ele>234.2</ele>
        <time>1970-01-01T07:05:41.626Z</time>
    </trkpt>
    <trkpt lat="56.493078" lon="60.809372">
        <ele>234.2</ele>
        <time>1970-01-01T07:05:42.626Z</time>
    </trkpt>
    <trkpt lat="56.49305" lon="60.809369">
        <ele>234.2</ele>
        <time>1970-01-01T07:05:43.626Z</time>
    </trkpt>
    <trkpt lat="56.493019" lon="60.809365">
        <ele>234.2</ele>
        <time>1970-01-01T07:05:44.626Z</time>
    </trkpt>
    <trkpt lat="56.492983" lon="60.809357">
        <ele>234.2</ele>
        <time>1970-01-01T07:05:45.626Z</time>
    </trkpt>
    <trkpt lat="56.492952" lon="60.809338">
        <ele>234.2</ele>
        <time>1970-01-01T07:05:46.626Z</time>
    </trkpt>
    <trkpt lat="56.492922" lon="60.809308">
        <ele>234.2</ele>
        <time>1970-01-01T07:05:47.626Z</time>
    </trkpt>
    <trkpt lat="56.492898" lon="60.809273">
        <ele>234.2</ele>
        <time>1970-01-01T07:05:48.626Z</time>
    </trkpt>
    <trkpt lat="56.492876" lon="60.809243">
        <ele>234.2</ele>
        <time>1970-01-01T07:05:49.626Z</time>
    </trkpt>
    <trkpt lat="56.49285" lon="60.809214">
        <ele>234.2</ele>
        <time>1970-01-01T07:05:50.626Z</time>
    </trkpt>
    <trkpt lat="56.492822" lon="60.809179">
        <ele>234.2</ele>
        <time>1970-01-01T07:05:51.626Z</time>
    </trkpt>
    <trkpt lat="56.492795" lon="60.809148">
        <ele>234.2</ele>
        <time>1970-01-01T07:05:52.626Z</time>
    </trkpt>
    <trkpt lat="56.492769" lon="60.809117">
        <ele>234.2</ele>
        <time>1970-01-01T07:05:53.626Z</time>
    </trkpt>
    <trkpt lat="56.492743" lon="60.809095">
        <ele>234.2</ele>
        <time>1970-01-01T07:05:54.626Z</time>
    </trkpt>
    <trkpt lat="56.492718" lon="60.809074">
        <ele>234.2</ele>
        <time>1970-01-01T07:05:55.626Z</time>
    </trkpt>
    <trkpt lat="56.492695" lon="60.809046">
        <ele>234.2</ele>
        <time>1970-01-01T07:05:56.626Z</time>
    </trkpt>
    <trkpt lat="56.49267" lon="60.80902">
        <ele>234.2</ele>
        <time>1970-01-01T07:05:57.626Z</time>
    </trkpt>
    <trkpt lat="56.492643" lon="60.808992">
        <ele>234.2</ele>
        <time>1970-01-01T07:05:58.626Z</time>
    </trkpt>
    <trkpt lat="56.492617" lon="60.808966">
        <ele>234.2</ele>
        <time>1970-01-01T07:05:59.626Z</time>
    </trkpt>
    <trkpt lat="56.492586" lon="60.808942">
        <ele>234.2</ele>
        <time>1970-01-01T07:06:00.626Z</time>
    </trkpt>
    <trkpt lat="56.492561" lon="60.808912">
        <ele>234.2</ele>
        <time>1970-01-01T07:06:01.626Z</time>
    </trkpt>
    <trkpt lat="56.492528" lon="60.808888">
        <ele>234.2</ele>
        <time>1970-01-01T07:06:02.626Z</time>
    </trkpt>
    <trkpt lat="56.492501" lon="60.808859">
        <ele>234.2</ele>
        <time>1970-01-01T07:06:03.626Z</time>
    </trkpt>
    <trkpt lat="56.492471" lon="60.808817">
        <ele>234.2</ele>
        <time>1970-01-01T07:06:04.626Z</time>
    </trkpt>
    <trkpt lat="56.492444" lon="60.808785">
        <ele>234.2</ele>
        <time>1970-01-01T07:06:05.626Z</time>
    </trkpt>
    <trkpt lat="56.492416" lon="60.808752">
        <ele>234.2</ele>
        <time>1970-01-01T07:06:06.626Z</time>
    </trkpt>
    <trkpt lat="56.492385" lon="60.808714">
        <ele>234.3</ele>
        <time>1970-01-01T07:06:07.626Z</time>
    </trkpt>
    <trkpt lat="56.492357" lon="60.808676">
        <ele>234.3</ele>
        <time>1970-01-01T07:06:08.626Z</time>
    </trkpt>
    <trkpt lat="56.492328" lon="60.808641">
        <ele>234.3</ele>
        <time>1970-01-01T07:06:09.626Z</time>
    </trkpt>
    <trkpt lat="56.492298" lon="60.808608">
        <ele>234.3</ele>
        <time>1970-01-01T07:06:10.626Z</time>
    </trkpt>
    <trkpt lat="56.492268" lon="60.80857">
        <ele>234.3</ele>
        <time>1970-01-01T07:06:11.626Z</time>
    </trkpt>
    <trkpt lat="56.492238" lon="60.808536">
        <ele>234.3</ele>
        <time>1970-01-01T07:06:12.626Z</time>
    </trkpt>
    <trkpt lat="56.492209" lon="60.808498">
        <ele>234.4</ele>
        <time>1970-01-01T07:06:13.626Z</time>
    </trkpt>
    <trkpt lat="56.492176" lon="60.808465">
        <ele>234.5</ele>
        <time>1970-01-01T07:06:14.626Z</time>
    </trkpt>
    <trkpt lat="56.492145" lon="60.80843">
        <ele>234.5</ele>
        <time>1970-01-01T07:06:15.626Z</time>
    </trkpt>
    <trkpt lat="56.492116" lon="60.808393">
        <ele>234.6</ele>
        <time>1970-01-01T07:06:16.626Z</time>
    </trkpt>
    <trkpt lat="56.492088" lon="60.808345">
        <ele>234.7</ele>
        <time>1970-01-01T07:06:17.626Z</time>
    </trkpt>
    <trkpt lat="56.492061" lon="60.808307">
        <ele>234.8</ele>
        <time>1970-01-01T07:06:18.626Z</time>
    </trkpt>
    <trkpt lat="56.492034" lon="60.808264">
        <ele>235.0</ele>
        <time>1970-01-01T07:06:19.626Z</time>
    </trkpt>
    <trkpt lat="56.492004" lon="60.808225">
        <ele>235.1</ele>
        <time>1970-01-01T07:06:20.626Z</time>
    </trkpt>
    <trkpt lat="56.491977" lon="60.808188">
        <ele>235.1</ele>
        <time>1970-01-01T07:06:21.626Z</time>
    </trkpt>
    <trkpt lat="56.491948" lon="60.80816">
        <ele>235.2</ele>
        <time>1970-01-01T07:06:22.626Z</time>
    </trkpt>
    <trkpt lat="56.491918" lon="60.808134">
        <ele>235.3</ele>
        <time>1970-01-01T07:06:23.626Z</time>
    </trkpt>
    <trkpt lat="56.491886" lon="60.808111">
        <ele>235.4</ele>
        <time>1970-01-01T07:06:24.626Z</time>
    </trkpt>
    <trkpt lat="56.491857" lon="60.808082">
        <ele>235.4</ele>
        <time>1970-01-01T07:06:25.626Z</time>
    </trkpt>
    <trkpt lat="56.491846" lon="60.808073">
        <ele>235.5</ele>
        <time>1970-01-01T07:06:26.626Z</time>
    </trkpt>
    <trkpt lat="56.491815" lon="60.808052">
        <ele>235.5</ele>
        <time>1970-01-01T07:06:27.626Z</time>
    </trkpt>
    <trkpt lat="56.491785" lon="60.808029">
        <ele>235.6</ele>
        <time>1970-01-01T07:06:28.626Z</time>
    </trkpt>
    <trkpt lat="56.491759" lon="60.808008">
        <ele>235.6</ele>
        <time>1970-01-01T07:06:29.626Z</time>
    </trkpt>
    <trkpt lat="56.491744" lon="60.807998">
        <ele>235.7</ele>
        <time>1970-01-01T07:06:30.626Z</time>
    </trkpt>
    <trkpt lat="56.491708" lon="60.807975">
        <ele>235.7</ele>
        <time>1970-01-01T07:06:31.626Z</time>
    </trkpt>
    <trkpt lat="56.491679" lon="60.807971">
        <ele>235.8</ele>
        <time>1970-01-01T07:06:32.626Z</time>
    </trkpt>
    <trkpt lat="56.491666" lon="60.80796">
        <ele>235.8</ele>
        <time>1970-01-01T07:06:33.626Z</time>
    </trkpt>
    <trkpt lat="56.49163" lon="60.807933">
        <ele>235.9</ele>
        <time>1970-01-01T07:06:34.626Z</time>
    </trkpt>
    <trkpt lat="56.4916" lon="60.807919">
        <ele>235.9</ele>
        <time>1970-01-01T07:06:35.626Z</time>
    </trkpt>
    <trkpt lat="56.491572" lon="60.807915">
        <ele>236.0</ele>
        <time>1970-01-01T07:06:36.626Z</time>
    </trkpt>
    <trkpt lat="56.49154" lon="60.807894">
        <ele>236.0</ele>
        <time>1970-01-01T07:06:37.626Z</time>
    </trkpt>
    <trkpt lat="56.491506" lon="60.807873">
        <ele>236.1</ele>
        <time>1970-01-01T07:06:38.626Z</time>
    </trkpt>
    <trkpt lat="56.491448" lon="60.807843">
        <ele>236.2</ele>
        <time>1970-01-01T07:06:39.626Z</time>
    </trkpt>
    <trkpt lat="56.491418" lon="60.807827">
        <ele>236.2</ele>
        <time>1970-01-01T07:06:40.626Z</time>
    </trkpt>
    <trkpt lat="56.491384" lon="60.807809">
        <ele>236.2</ele>
        <time>1970-01-01T07:06:41.626Z</time>
    </trkpt>
    <trkpt lat="56.491348" lon="60.8078">
        <ele>236.3</ele>
        <time>1970-01-01T07:06:42.626Z</time>
    </trkpt>
    <trkpt lat="56.491317" lon="60.807784">
        <ele>236.3</ele>
        <time>1970-01-01T07:06:43.626Z</time>
    </trkpt>
    <trkpt lat="56.491287" lon="60.807772">
        <ele>236.4</ele>
        <time>1970-01-01T07:06:44.626Z</time>
    </trkpt>
    <trkpt lat="56.491273" lon="60.807768">
        <ele>236.4</ele>
        <time>1970-01-01T07:06:45.626Z</time>
    </trkpt>
    <trkpt lat="56.491233" lon="60.807753">
        <ele>236.4</ele>
        <time>1970-01-01T07:06:46.626Z</time>
    </trkpt>
    <trkpt lat="56.491206" lon="60.807736">
        <ele>236.5</ele>
        <time>1970-01-01T07:06:47.626Z</time>
    </trkpt>
    <trkpt lat="56.491176" lon="60.807724">
        <ele>236.5</ele>
        <time>1970-01-01T07:06:48.626Z</time>
    </trkpt>
    <trkpt lat="56.491145" lon="60.807713">
        <ele>236.5</ele>
        <time>1970-01-01T07:06:49.626Z</time>
    </trkpt>
    <trkpt lat="56.491113" lon="60.807706">
        <ele>236.6</ele>
        <time>1970-01-01T07:06:50.626Z</time>
    </trkpt>
    <trkpt lat="56.49108" lon="60.807696">
        <ele>236.6</ele>
        <time>1970-01-01T07:06:51.626Z</time>
    </trkpt>
    <trkpt lat="56.491047" lon="60.807688">
        <ele>236.6</ele>
        <time>1970-01-01T07:06:52.626Z</time>
    </trkpt>
    <trkpt lat="56.491013" lon="60.807685">
        <ele>236.7</ele>
        <time>1970-01-01T07:06:53.626Z</time>
    </trkpt>
    <trkpt lat="56.49098" lon="60.807678">
        <ele>236.7</ele>
        <time>1970-01-01T07:06:55.626Z</time>
    </trkpt>
    <trkpt lat="56.490944" lon="60.807671">
        <ele>236.7</ele>
        <time>1970-01-01T07:06:56.626Z</time>
    </trkpt>
    <trkpt lat="56.490909" lon="60.807671">
        <ele>236.8</ele>
        <time>1970-01-01T07:06:57.626Z</time>
    </trkpt>
    <trkpt lat="56.490894" lon="60.807672">
        <ele>236.8</ele>
        <time>1970-01-01T07:06:58.626Z</time>
    </trkpt>
    <trkpt lat="56.490851" lon="60.807671">
        <ele>236.8</ele>
        <time>1970-01-01T07:06:59.626Z</time>
    </trkpt>
    <trkpt lat="56.490821" lon="60.807674">
        <ele>236.8</ele>
        <time>1970-01-01T07:07:00.626Z</time>
    </trkpt>
    <trkpt lat="56.49079" lon="60.807674">
        <ele>236.8</ele>
        <time>1970-01-01T07:07:01.626Z</time>
    </trkpt>
    <trkpt lat="56.490751" lon="60.807673">
        <ele>236.9</ele>
        <time>1970-01-01T07:07:02.626Z</time>
    </trkpt>
    <trkpt lat="56.49072" lon="60.807655">
        <ele>236.9</ele>
        <time>1970-01-01T07:07:03.626Z</time>
    </trkpt>
    <trkpt lat="56.490685" lon="60.807655">
        <ele>236.9</ele>
        <time>1970-01-01T07:07:04.626Z</time>
    </trkpt>
    <trkpt lat="56.490657" lon="60.807646">
        <ele>236.9</ele>
        <time>1970-01-01T07:07:05.626Z</time>
    </trkpt>
    <trkpt lat="56.490628" lon="60.807639">
        <ele>237.0</ele>
        <time>1970-01-01T07:07:06.626Z</time>
    </trkpt>
    <trkpt lat="56.490597" lon="60.807635">
        <ele>237.0</ele>
        <time>1970-01-01T07:07:07.626Z</time>
    </trkpt>
    <trkpt lat="56.490567" lon="60.807625">
        <ele>237.0</ele>
        <time>1970-01-01T07:07:08.626Z</time>
    </trkpt>
    <trkpt lat="56.490531" lon="60.807618">
        <ele>237.0</ele>
        <time>1970-01-01T07:07:09.626Z</time>
    </trkpt>
    <trkpt lat="56.490498" lon="60.807624">
        <ele>237.0</ele>
        <time>1970-01-01T07:07:10.626Z</time>
    </trkpt>
    <trkpt lat="56.49046" lon="60.807633">
        <ele>237.0</ele>
        <time>1970-01-01T07:07:11.626Z</time>
    </trkpt>
    <trkpt lat="56.490425" lon="60.80763">
        <ele>237.0</ele>
        <time>1970-01-01T07:07:12.626Z</time>
    </trkpt>
    <trkpt lat="56.490391" lon="60.807632">
        <ele>237.0</ele>
        <time>1970-01-01T07:07:13.626Z</time>
    </trkpt>
    <trkpt lat="56.490356" lon="60.807631">
        <ele>237.0</ele>
        <time>1970-01-01T07:07:14.626Z</time>
    </trkpt>
    <trkpt lat="56.490322" lon="60.807629">
        <ele>237.0</ele>
        <time>1970-01-01T07:07:15.626Z</time>
    </trkpt>
    <trkpt lat="56.490293" lon="60.807626">
        <ele>236.9</ele>
        <time>1970-01-01T07:07:16.626Z</time>
    </trkpt>
    <trkpt lat="56.490262" lon="60.807624">
        <ele>236.9</ele>
        <time>1970-01-01T07:07:17.626Z</time>
    </trkpt>
    <trkpt lat="56.490231" lon="60.80762">
        <ele>236.9</ele>
        <time>1970-01-01T07:07:18.626Z</time>
    </trkpt>
    <trkpt lat="56.490214" lon="60.807619">
        <ele>236.9</ele>
        <time>1970-01-01T07:07:19.626Z</time>
    </trkpt>
    <trkpt lat="56.49017" lon="60.807616">
        <ele>236.9</ele>
        <time>1970-01-01T07:07:20.626Z</time>
    </trkpt>
    <trkpt lat="56.490138" lon="60.807615">
        <ele>236.8</ele>
        <time>1970-01-01T07:07:21.626Z</time>
    </trkpt>
    <trkpt lat="56.490111" lon="60.807612">
        <ele>236.8</ele>
        <time>1970-01-01T07:07:22.626Z</time>
    </trkpt>
    <trkpt lat="56.490081" lon="60.807612">
        <ele>236.8</ele>
        <time>1970-01-01T07:07:23.626Z</time>
    </trkpt>
    <trkpt lat="56.490048" lon="60.807614">
        <ele>236.8</ele>
        <time>1970-01-01T07:07:24.626Z</time>
    </trkpt>
    <trkpt lat="56.490021" lon="60.807601">
        <ele>236.8</ele>
        <time>1970-01-01T07:07:25.626Z</time>
    </trkpt>
    <trkpt lat="56.489985" lon="60.807601">
        <ele>236.8</ele>
        <time>1970-01-01T07:07:26.626Z</time>
    </trkpt>
    <trkpt lat="56.489952" lon="60.807597">
        <ele>236.8</ele>
        <time>1970-01-01T07:07:27.626Z</time>
    </trkpt>
    <trkpt lat="56.489919" lon="60.807592">
        <ele>236.8</ele>
        <time>1970-01-01T07:07:28.626Z</time>
    </trkpt>
    <trkpt lat="56.489887" lon="60.807589">
        <ele>236.9</ele>
        <time>1970-01-01T07:07:29.626Z</time>
    </trkpt>
    <trkpt lat="56.489849" lon="60.807584">
        <ele>236.9</ele>
        <time>1970-01-01T07:07:30.626Z</time>
    </trkpt>
    <trkpt lat="56.489832" lon="60.807586">
        <ele>236.9</ele>
        <time>1970-01-01T07:07:31.626Z</time>
    </trkpt>
    <trkpt lat="56.489791" lon="60.807572">
        <ele>237.0</ele>
        <time>1970-01-01T07:07:32.626Z</time>
    </trkpt>
    <trkpt lat="56.489755" lon="60.807568">
        <ele>237.0</ele>
        <time>1970-01-01T07:07:33.626Z</time>
    </trkpt>
    <trkpt lat="56.489738" lon="60.80756">
        <ele>237.0</ele>
        <time>1970-01-01T07:07:34.626Z</time>
    </trkpt>
    <trkpt lat="56.489697" lon="60.807533">
        <ele>236.9</ele>
        <time>1970-01-01T07:07:35.626Z</time>
    </trkpt>
    <trkpt lat="56.48966" lon="60.807519">
        <ele>236.9</ele>
        <time>1970-01-01T07:07:36.626Z</time>
    </trkpt>
    <trkpt lat="56.489624" lon="60.807507">
        <ele>236.8</ele>
        <time>1970-01-01T07:07:37.626Z</time>
    </trkpt>
    <trkpt lat="56.489597" lon="60.80749">
        <ele>236.8</ele>
        <time>1970-01-01T07:07:38.626Z</time>
    </trkpt>
    <trkpt lat="56.489577" lon="60.807478">
        <ele>236.7</ele>
        <time>1970-01-01T07:07:39.626Z</time>
    </trkpt>
    <trkpt lat="56.489532" lon="60.807462">
        <ele>236.6</ele>
        <time>1970-01-01T07:07:40.626Z</time>
    </trkpt>
    <trkpt lat="56.489502" lon="60.807434">
        <ele>236.6</ele>
        <time>1970-01-01T07:07:41.626Z</time>
    </trkpt>
    <trkpt lat="56.489477" lon="60.807405">
        <ele>236.5</ele>
        <time>1970-01-01T07:07:42.626Z</time>
    </trkpt>
    <trkpt lat="56.489451" lon="60.807378">
        <ele>236.5</ele>
        <time>1970-01-01T07:07:43.626Z</time>
    </trkpt>
    <trkpt lat="56.48942" lon="60.807353">
        <ele>236.4</ele>
        <time>1970-01-01T07:07:44.626Z</time>
    </trkpt>
    <trkpt lat="56.489394" lon="60.807333">
        <ele>236.4</ele>
        <time>1970-01-01T07:07:45.626Z</time>
    </trkpt>
    <trkpt lat="56.489365" lon="60.807299">
        <ele>236.3</ele>
        <time>1970-01-01T07:07:46.626Z</time>
    </trkpt>
    <trkpt lat="56.489335" lon="60.807272">
        <ele>236.3</ele>
        <time>1970-01-01T07:07:47.626Z</time>
    </trkpt>
    <trkpt lat="56.489304" lon="60.807249">
        <ele>236.2</ele>
        <time>1970-01-01T07:07:48.626Z</time>
    </trkpt>
    <trkpt lat="56.489277" lon="60.807219">
        <ele>236.2</ele>
        <time>1970-01-01T07:07:49.626Z</time>
    </trkpt>
    <trkpt lat="56.48925" lon="60.807192">
        <ele>236.2</ele>
        <time>1970-01-01T07:07:50.626Z</time>
    </trkpt>
    <trkpt lat="56.489225" lon="60.807174">
        <ele>236.2</ele>
        <time>1970-01-01T07:07:51.626Z</time>
    </trkpt>
    <trkpt lat="56.489196" lon="60.807155">
        <ele>236.2</ele>
        <time>1970-01-01T07:07:52.626Z</time>
    </trkpt>
    <trkpt lat="56.489166" lon="60.807136">
        <ele>236.2</ele>
        <time>1970-01-01T07:07:53.626Z</time>
    </trkpt>
    <trkpt lat="56.489135" lon="60.807113">
        <ele>236.2</ele>
        <time>1970-01-01T07:07:54.626Z</time>
    </trkpt>
    <trkpt lat="56.489107" lon="60.807076">
        <ele>236.2</ele>
        <time>1970-01-01T07:07:55.626Z</time>
    </trkpt>
    <trkpt lat="56.489074" lon="60.807041">
        <ele>236.2</ele>
        <time>1970-01-01T07:07:56.626Z</time>
    </trkpt>
    <trkpt lat="56.489041" lon="60.807011">
        <ele>236.2</ele>
        <time>1970-01-01T07:07:57.626Z</time>
    </trkpt>
    <trkpt lat="56.489003" lon="60.806978">
        <ele>236.2</ele>
        <time>1970-01-01T07:07:58.626Z</time>
    </trkpt>
    <trkpt lat="56.488973" lon="60.80695">
        <ele>236.3</ele>
        <time>1970-01-01T07:07:59.626Z</time>
    </trkpt>
    <trkpt lat="56.48894" lon="60.80692">
        <ele>236.3</ele>
        <time>1970-01-01T07:08:00.626Z</time>
    </trkpt>
    <trkpt lat="56.488908" lon="60.806888">
        <ele>236.4</ele>
        <time>1970-01-01T07:08:01.626Z</time>
    </trkpt>
    <trkpt lat="56.48888" lon="60.80687">
        <ele>236.4</ele>
        <time>1970-01-01T07:08:02.626Z</time>
    </trkpt>
    <trkpt lat="56.488845" lon="60.806833">
        <ele>236.4</ele>
        <time>1970-01-01T07:08:03.626Z</time>
    </trkpt>
    <trkpt lat="56.488813" lon="60.806794">
        <ele>236.5</ele>
        <time>1970-01-01T07:08:04.626Z</time>
    </trkpt>
    <trkpt lat="56.488777" lon="60.806761">
        <ele>236.5</ele>
        <time>1970-01-01T07:08:05.626Z</time>
    </trkpt>
    <trkpt lat="56.488741" lon="60.806734">
        <ele>236.6</ele>
        <time>1970-01-01T07:08:06.626Z</time>
    </trkpt>
    <trkpt lat="56.488707" lon="60.806708">
        <ele>236.6</ele>
        <time>1970-01-01T07:08:07.626Z</time>
    </trkpt>
    <trkpt lat="56.488675" lon="60.806677">
        <ele>236.7</ele>
        <time>1970-01-01T07:08:08.626Z</time>
    </trkpt>
    <trkpt lat="56.488646" lon="60.806645">
        <ele>236.7</ele>
        <time>1970-01-01T07:08:09.626Z</time>
    </trkpt>
    <trkpt lat="56.48862" lon="60.806622">
        <ele>236.7</ele>
        <time>1970-01-01T07:08:10.626Z</time>
    </trkpt>
    <trkpt lat="56.488591" lon="60.806599">
        <ele>236.8</ele>
        <time>1970-01-01T07:08:11.626Z</time>
    </trkpt>
    <trkpt lat="56.488558" lon="60.806575">
        <ele>236.8</ele>
        <time>1970-01-01T07:08:12.626Z</time>
    </trkpt>
    <trkpt lat="56.488528" lon="60.806546">
        <ele>236.8</ele>
        <time>1970-01-01T07:08:13.626Z</time>
    </trkpt>
    <trkpt lat="56.488493" lon="60.806517">
        <ele>236.9</ele>
        <time>1970-01-01T07:08:14.626Z</time>
    </trkpt>
    <trkpt lat="56.488462" lon="60.806485">
        <ele>236.9</ele>
        <time>1970-01-01T07:08:15.626Z</time>
    </trkpt>
    <trkpt lat="56.488429" lon="60.806457">
        <ele>236.9</ele>
        <time>1970-01-01T07:08:16.626Z</time>
    </trkpt>
    <trkpt lat="56.488395" lon="60.806436">
        <ele>236.9</ele>
        <time>1970-01-01T07:08:17.626Z</time>
    </trkpt>
    <trkpt lat="56.488366" lon="60.806415">
        <ele>236.9</ele>
        <time>1970-01-01T07:08:18.626Z</time>
    </trkpt>
    <trkpt lat="56.48834" lon="60.806391">
        <ele>237.0</ele>
        <time>1970-01-01T07:08:19.626Z</time>
    </trkpt>
    <trkpt lat="56.488312" lon="60.80636">
        <ele>237.0</ele>
        <time>1970-01-01T07:08:20.626Z</time>
    </trkpt>
    <trkpt lat="56.48828" lon="60.80634">
        <ele>237.0</ele>
        <time>1970-01-01T07:08:21.626Z</time>
    </trkpt>
    <trkpt lat="56.488248" lon="60.806313">
        <ele>237.0</ele>
        <time>1970-01-01T07:08:22.626Z</time>
    </trkpt>
    <trkpt lat="56.488215" lon="60.806275">
        <ele>237.1</ele>
        <time>1970-01-01T07:08:23.626Z</time>
    </trkpt>
    <trkpt lat="56.488176" lon="60.806251">
        <ele>237.1</ele>
        <time>1970-01-01T07:08:24.626Z</time>
    </trkpt>
    <trkpt lat="56.488143" lon="60.806212">
        <ele>237.1</ele>
        <time>1970-01-01T07:08:25.626Z</time>
    </trkpt>
    <trkpt lat="56.488109" lon="60.806189">
        <ele>237.1</ele>
        <time>1970-01-01T07:08:26.626Z</time>
    </trkpt>
    <trkpt lat="56.488075" lon="60.806154">
        <ele>237.2</ele>
        <time>1970-01-01T07:08:27.626Z</time>
    </trkpt>
    <trkpt lat="56.488052" lon="60.806121">
        <ele>237.2</ele>
        <time>1970-01-01T07:08:28.626Z</time>
    </trkpt>
    <trkpt lat="56.488023" lon="60.806082">
        <ele>237.2</ele>
        <time>1970-01-01T07:08:29.626Z</time>
    </trkpt>
    <trkpt lat="56.48799" lon="60.806055">
        <ele>237.3</ele>
        <time>1970-01-01T07:08:30.626Z</time>
    </trkpt>
    <trkpt lat="56.487958" lon="60.806018">
        <ele>237.3</ele>
        <time>1970-01-01T07:08:31.626Z</time>
    </trkpt>
    <trkpt lat="56.487926" lon="60.805982">
        <ele>237.3</ele>
        <time>1970-01-01T07:08:32.626Z</time>
    </trkpt>
    <trkpt lat="56.487897" lon="60.805939">
        <ele>237.3</ele>
        <time>1970-01-01T07:08:33.626Z</time>
    </trkpt>
    <trkpt lat="56.487865" lon="60.80589">
        <ele>237.4</ele>
        <time>1970-01-01T07:08:34.626Z</time>
    </trkpt>
    <trkpt lat="56.487832" lon="60.805849">
        <ele>237.4</ele>
        <time>1970-01-01T07:08:35.626Z</time>
    </trkpt>
    <trkpt lat="56.487798" lon="60.805803">
        <ele>237.4</ele>
        <time>1970-01-01T07:08:36.626Z</time>
    </trkpt>
    <trkpt lat="56.487772" lon="60.805765">
        <ele>237.5</ele>
        <time>1970-01-01T07:08:37.626Z</time>
    </trkpt>
    <trkpt lat="56.487743" lon="60.805737">
        <ele>237.5</ele>
        <time>1970-01-01T07:08:38.626Z</time>
    </trkpt>
    <trkpt lat="56.487729" lon="60.805719">
        <ele>237.5</ele>
        <time>1970-01-01T07:08:39.626Z</time>
    </trkpt>
    <trkpt lat="56.487696" lon="60.805672">
        <ele>237.6</ele>
        <time>1970-01-01T07:08:40.626Z</time>
    </trkpt>
    <trkpt lat="56.487671" lon="60.805636">
        <ele>237.7</ele>
        <time>1970-01-01T07:08:41.626Z</time>
    </trkpt>
    <trkpt lat="56.487647" lon="60.805598">
        <ele>237.7</ele>
        <time>1970-01-01T07:08:42.626Z</time>
    </trkpt>
    <trkpt lat="56.487623" lon="60.805556">
        <ele>237.8</ele>
        <time>1970-01-01T07:08:43.626Z</time>
    </trkpt>
    <trkpt lat="56.487591" lon="60.805523">
        <ele>237.9</ele>
        <time>1970-01-01T07:08:44.626Z</time>
    </trkpt>
    <trkpt lat="56.487561" lon="60.805495">
        <ele>238.0</ele>
        <time>1970-01-01T07:08:45.626Z</time>
    </trkpt>
    <trkpt lat="56.487533" lon="60.805459">
        <ele>238.0</ele>
        <time>1970-01-01T07:08:46.626Z</time>
    </trkpt>
    <trkpt lat="56.48751" lon="60.805427">
        <ele>238.1</ele>
        <time>1970-01-01T07:08:47.626Z</time>
    </trkpt>
    <trkpt lat="56.487499" lon="60.805411">
        <ele>238.1</ele>
        <time>1970-01-01T07:08:48.626Z</time>
    </trkpt>
    <trkpt lat="56.487467" lon="60.805369">
        <ele>238.2</ele>
        <time>1970-01-01T07:08:49.626Z</time>
    </trkpt>
    <trkpt lat="56.487444" lon="60.805334">
        <ele>238.2</ele>
        <time>1970-01-01T07:08:50.626Z</time>
    </trkpt>
    <trkpt lat="56.487389" lon="60.805273">
        <ele>238.3</ele>
        <time>1970-01-01T07:08:51.626Z</time>
    </trkpt>
    <trkpt lat="56.487364" lon="60.805243">
        <ele>238.3</ele>
        <time>1970-01-01T07:08:52.626Z</time>
    </trkpt>
    <trkpt lat="56.48735" lon="60.805227">
        <ele>238.4</ele>
        <time>1970-01-01T07:08:53.626Z</time>
    </trkpt>
    <trkpt lat="56.487314" lon="60.805184">
        <ele>238.4</ele>
        <time>1970-01-01T07:08:54.626Z</time>
    </trkpt>
    <trkpt lat="56.4873" lon="60.80517">
        <ele>238.4</ele>
        <time>1970-01-01T07:08:55.626Z</time>
    </trkpt>
    <trkpt lat="56.487267" lon="60.805131">
        <ele>238.4</ele>
        <time>1970-01-01T07:08:56.626Z</time>
    </trkpt>
    <trkpt lat="56.487256" lon="60.805117">
        <ele>238.4</ele>
        <time>1970-01-01T07:08:57.626Z</time>
    </trkpt>
    <trkpt lat="56.487228" lon="60.805072">
        <ele>238.4</ele>
        <time>1970-01-01T07:08:58.626Z</time>
    </trkpt>
    <trkpt lat="56.487206" lon="60.805039">
        <ele>238.3</ele>
        <time>1970-01-01T07:08:59.626Z</time>
    </trkpt>
    <trkpt lat="56.48718" lon="60.805019">
        <ele>238.3</ele>
        <time>1970-01-01T07:09:01.626Z</time>
    </trkpt>
    <trkpt lat="56.48716" lon="60.804996">
        <ele>238.3</ele>
        <time>1970-01-01T07:09:02.626Z</time>
    </trkpt>
    <trkpt lat="56.487131" lon="60.804981">
        <ele>238.3</ele>
        <time>1970-01-01T07:09:03.626Z</time>
    </trkpt>
    <trkpt lat="56.487098" lon="60.804966">
        <ele>238.3</ele>
        <time>1970-01-01T07:09:04.626Z</time>
    </trkpt>
    <trkpt lat="56.48707" lon="60.804962">
        <ele>238.3</ele>
        <time>1970-01-01T07:09:05.626Z</time>
    </trkpt>
    <trkpt lat="56.487059" lon="60.804964">
        <ele>238.2</ele>
        <time>1970-01-01T07:09:06.626Z</time>
    </trkpt>
    <trkpt lat="56.487022" lon="60.804978">
        <ele>238.2</ele>
        <time>1970-01-01T07:09:07.626Z</time>
    </trkpt>
    <trkpt lat="56.48701" lon="60.804987">
        <ele>238.2</ele>
        <time>1970-01-01T07:09:08.626Z</time>
    </trkpt>
    <trkpt lat="56.486972" lon="60.804999">
        <ele>238.2</ele>
        <time>1970-01-01T07:09:09.626Z</time>
    </trkpt>
    <trkpt lat="56.486945" lon="60.805007">
        <ele>238.2</ele>
        <time>1970-01-01T07:09:10.626Z</time>
    </trkpt>
    <trkpt lat="56.48691" lon="60.805012">
        <ele>238.2</ele>
        <time>1970-01-01T07:09:11.626Z</time>
    </trkpt>
    <trkpt lat="56.486891" lon="60.805019">
        <ele>238.2</ele>
        <time>1970-01-01T07:09:12.626Z</time>
    </trkpt>
    <trkpt lat="56.486854" lon="60.805019">
        <ele>238.2</ele>
        <time>1970-01-01T07:09:13.626Z</time>
    </trkpt>
    <trkpt lat="56.486824" lon="60.805004">
        <ele>238.2</ele>
        <time>1970-01-01T07:09:14.626Z</time>
    </trkpt>
    <trkpt lat="56.486795" lon="60.804987">
        <ele>238.2</ele>
        <time>1970-01-01T07:09:15.626Z</time>
    </trkpt>
    <trkpt lat="56.486757" lon="60.804965">
        <ele>238.2</ele>
        <time>1970-01-01T07:09:16.626Z</time>
    </trkpt>
    <trkpt lat="56.486727" lon="60.80495">
        <ele>238.3</ele>
        <time>1970-01-01T07:09:17.626Z</time>
    </trkpt>
    <trkpt lat="56.486689" lon="60.80492">
        <ele>238.3</ele>
        <time>1970-01-01T07:09:18.626Z</time>
    </trkpt>
    <trkpt lat="56.486647" lon="60.804893">
        <ele>238.4</ele>
        <time>1970-01-01T07:09:19.626Z</time>
    </trkpt>
    <trkpt lat="56.48661" lon="60.804874">
        <ele>238.4</ele>
        <time>1970-01-01T07:09:20.626Z</time>
    </trkpt>
    <trkpt lat="56.486564" lon="60.804833">
        <ele>238.5</ele>
        <time>1970-01-01T07:09:21.626Z</time>
    </trkpt>
    <trkpt lat="56.486525" lon="60.8048">
        <ele>238.6</ele>
        <time>1970-01-01T07:09:22.626Z</time>
    </trkpt>
    <trkpt lat="56.48648" lon="60.804775">
        <ele>238.7</ele>
        <time>1970-01-01T07:09:23.626Z</time>
    </trkpt>
    <trkpt lat="56.486441" lon="60.80475">
        <ele>238.8</ele>
        <time>1970-01-01T07:09:24.626Z</time>
    </trkpt>
    <trkpt lat="56.486403" lon="60.804725">
        <ele>238.9</ele>
        <time>1970-01-01T07:09:25.626Z</time>
    </trkpt>
    <trkpt lat="56.486362" lon="60.80469">
        <ele>239.0</ele>
        <time>1970-01-01T07:09:26.626Z</time>
    </trkpt>
    <trkpt lat="56.486317" lon="60.804652">
        <ele>239.1</ele>
        <time>1970-01-01T07:09:27.626Z</time>
    </trkpt>
    <trkpt lat="56.486278" lon="60.804613">
        <ele>239.2</ele>
        <time>1970-01-01T07:09:28.626Z</time>
    </trkpt>
    <trkpt lat="56.486231" lon="60.804576">
        <ele>239.3</ele>
        <time>1970-01-01T07:09:29.626Z</time>
    </trkpt>
    <trkpt lat="56.486184" lon="60.804545">
        <ele>239.5</ele>
        <time>1970-01-01T07:09:30.626Z</time>
    </trkpt>
    <trkpt lat="56.486138" lon="60.8045">
        <ele>239.6</ele>
        <time>1970-01-01T07:09:31.626Z</time>
    </trkpt>
    <trkpt lat="56.486091" lon="60.804472">
        <ele>239.8</ele>
        <time>1970-01-01T07:09:32.626Z</time>
    </trkpt>
    <trkpt lat="56.486038" lon="60.804428">
        <ele>239.9</ele>
        <time>1970-01-01T07:09:33.626Z</time>
    </trkpt>
    <trkpt lat="56.485988" lon="60.804392">
        <ele>240.1</ele>
        <time>1970-01-01T07:09:34.626Z</time>
    </trkpt>
    <trkpt lat="56.485936" lon="60.804357">
        <ele>240.3</ele>
        <time>1970-01-01T07:09:35.626Z</time>
    </trkpt>
    <trkpt lat="56.485882" lon="60.804318">
        <ele>240.5</ele>
        <time>1970-01-01T07:09:36.626Z</time>
    </trkpt>
    <trkpt lat="56.485833" lon="60.804289">
        <ele>240.7</ele>
        <time>1970-01-01T07:09:37.626Z</time>
    </trkpt>
    <trkpt lat="56.485783" lon="60.804254">
        <ele>240.9</ele>
        <time>1970-01-01T07:09:38.626Z</time>
    </trkpt>
    <trkpt lat="56.485731" lon="60.804211">
        <ele>241.1</ele>
        <time>1970-01-01T07:09:39.626Z</time>
    </trkpt>
    <trkpt lat="56.485633" lon="60.804127">
        <ele>241.5</ele>
        <time>1970-01-01T07:09:40.626Z</time>
    </trkpt>
    <trkpt lat="56.48558" lon="60.804086">
        <ele>241.7</ele>
        <time>1970-01-01T07:09:41.626Z</time>
    </trkpt>
    <trkpt lat="56.48553" lon="60.804053">
        <ele>242.0</ele>
        <time>1970-01-01T07:09:42.626Z</time>
    </trkpt>
    <trkpt lat="56.485479" lon="60.804002">
        <ele>242.2</ele>
        <time>1970-01-01T07:09:43.626Z</time>
    </trkpt>
    <trkpt lat="56.485424" lon="60.803957">
        <ele>242.5</ele>
        <time>1970-01-01T07:09:44.626Z</time>
    </trkpt>
    <trkpt lat="56.485367" lon="60.803914">
        <ele>242.8</ele>
        <time>1970-01-01T07:09:45.626Z</time>
    </trkpt>
    <trkpt lat="56.485328" lon="60.803876">
        <ele>243.0</ele>
        <time>1970-01-01T07:09:46.626Z</time>
    </trkpt>
    <trkpt lat="56.485283" lon="60.803825">
        <ele>243.3</ele>
        <time>1970-01-01T07:09:47.626Z</time>
    </trkpt>
    <trkpt lat="56.485232" lon="60.803769">
        <ele>243.6</ele>
        <time>1970-01-01T07:09:48.626Z</time>
    </trkpt>
    <trkpt lat="56.485182" lon="60.80372">
        <ele>244.0</ele>
        <time>1970-01-01T07:09:49.626Z</time>
    </trkpt>
    <trkpt lat="56.485129" lon="60.803684">
        <ele>244.6</ele>
        <time>1970-01-01T07:09:50.626Z</time>
    </trkpt>
    <trkpt lat="56.485073" lon="60.803649">
        <ele>245.3</ele>
        <time>1970-01-01T07:09:51.626Z</time>
    </trkpt>
    <trkpt lat="56.485014" lon="60.80361">
        <ele>246.1</ele>
        <time>1970-01-01T07:09:52.626Z</time>
    </trkpt>
    <trkpt lat="56.484962" lon="60.803544">
        <ele>246.9</ele>
        <time>1970-01-01T07:09:53.626Z</time>
    </trkpt>
    <trkpt lat="56.484904" lon="60.803498">
        <ele>247.7</ele>
        <time>1970-01-01T07:09:54.626Z</time>
    </trkpt>
    <trkpt lat="56.484851" lon="60.803466">
        <ele>248.5</ele>
        <time>1970-01-01T07:09:55.626Z</time>
    </trkpt>
    <trkpt lat="56.484792" lon="60.803414">
        <ele>249.3</ele>
        <time>1970-01-01T07:09:56.626Z</time>
    </trkpt>
    <trkpt lat="56.484737" lon="60.803363">
        <ele>250.2</ele>
        <time>1970-01-01T07:09:57.626Z</time>
    </trkpt>
    <trkpt lat="56.484686" lon="60.803313">
        <ele>251.0</ele>
        <time>1970-01-01T07:09:58.626Z</time>
    </trkpt>
    <trkpt lat="56.484636" lon="60.803274">
        <ele>251.7</ele>
        <time>1970-01-01T07:09:59.626Z</time>
    </trkpt>
    <trkpt lat="56.484578" lon="60.803233">
        <ele>252.7</ele>
        <time>1970-01-01T07:10:00.626Z</time>
    </trkpt>
    <trkpt lat="56.484523" lon="60.803192">
        <ele>253.6</ele>
        <time>1970-01-01T07:10:01.626Z</time>
    </trkpt>
    <trkpt lat="56.484471" lon="60.803146">
        <ele>254.6</ele>
        <time>1970-01-01T07:10:02.626Z</time>
    </trkpt>
    <trkpt lat="56.484425" lon="60.803108">
        <ele>255.4</ele>
        <time>1970-01-01T07:10:03.626Z</time>
    </trkpt>
    <trkpt lat="56.48439" lon="60.803065">
        <ele>256.1</ele>
        <time>1970-01-01T07:10:04.626Z</time>
    </trkpt>
    <trkpt lat="56.484334" lon="60.802997">
        <ele>257.3</ele>
        <time>1970-01-01T07:10:05.626Z</time>
    </trkpt>
    <trkpt lat="56.484279" lon="60.80295">
        <ele>258.3</ele>
        <time>1970-01-01T07:10:06.626Z</time>
    </trkpt>
    <trkpt lat="56.484222" lon="60.802909">
        <ele>259.3</ele>
        <time>1970-01-01T07:10:07.626Z</time>
    </trkpt>
    <trkpt lat="56.484165" lon="60.802857">
        <ele>260.3</ele>
        <time>1970-01-01T07:10:08.626Z</time>
    </trkpt>
    <trkpt lat="56.484129" lon="60.802818">
        <ele>260.8</ele>
        <time>1970-01-01T07:10:09.626Z</time>
    </trkpt>
    <trkpt lat="56.484084" lon="60.802769">
        <ele>261.4</ele>
        <time>1970-01-01T07:10:10.626Z</time>
    </trkpt>
    <trkpt lat="56.48405" lon="60.802725">
        <ele>261.8</ele>
        <time>1970-01-01T07:10:11.626Z</time>
    </trkpt>
    <trkpt lat="56.484018" lon="60.802682">
        <ele>262.2</ele>
        <time>1970-01-01T07:10:12.626Z</time>
    </trkpt>
    <trkpt lat="56.483988" lon="60.802653">
        <ele>262.4</ele>
        <time>1970-01-01T07:10:13.626Z</time>
    </trkpt>
    <trkpt lat="56.483941" lon="60.802619">
        <ele>262.7</ele>
        <time>1970-01-01T07:10:14.626Z</time>
    </trkpt>
    <trkpt lat="56.483915" lon="60.802599">
        <ele>262.8</ele>
        <time>1970-01-01T07:10:15.626Z</time>
    </trkpt>
    <trkpt lat="56.48389" lon="60.802593">
        <ele>262.9</ele>
        <time>1970-01-01T07:10:16.626Z</time>
    </trkpt>
    <trkpt lat="56.483881" lon="60.802583">
        <ele>262.9</ele>
        <time>1970-01-01T07:10:17.626Z</time>
    </trkpt>
    <trkpt lat="56.483854" lon="60.802572">
        <ele>262.9</ele>
        <time>1970-01-01T07:10:18.626Z</time>
    </trkpt>
    <trkpt lat="56.483839" lon="60.802566">
        <ele>263.0</ele>
        <time>1970-01-01T07:10:19.626Z</time>
    </trkpt>
    <trkpt lat="56.483814" lon="60.802561">
        <ele>263.0</ele>
        <time>1970-01-01T07:10:20.626Z</time>
    </trkpt>
    <trkpt lat="56.483778" lon="60.802551">
        <ele>262.9</ele>
        <time>1970-01-01T07:10:21.626Z</time>
    </trkpt>
    <trkpt lat="56.48377" lon="60.802546">
        <ele>262.9</ele>
        <time>1970-01-01T07:10:22.626Z</time>
    </trkpt>
    <trkpt lat="56.483736" lon="60.802538">
        <ele>262.8</ele>
        <time>1970-01-01T07:10:23.626Z</time>
    </trkpt>
    <trkpt lat="56.483725" lon="60.802536">
        <ele>262.7</ele>
        <time>1970-01-01T07:10:24.626Z</time>
    </trkpt>
    <trkpt lat="56.483699" lon="60.802525">
        <ele>262.6</ele>
        <time>1970-01-01T07:10:25.626Z</time>
    </trkpt>
    <trkpt lat="56.48368" lon="60.802526">
        <ele>262.5</ele>
        <time>1970-01-01T07:10:26.626Z</time>
    </trkpt>
    <trkpt lat="56.483666" lon="60.802532">
        <ele>262.5</ele>
        <time>1970-01-01T07:10:27.626Z</time>
    </trkpt>
    <trkpt lat="56.483653" lon="60.802533">
        <ele>262.4</ele>
        <time>1970-01-01T07:10:28.626Z</time>
    </trkpt>
    <trkpt lat="56.483626" lon="60.80253">
        <ele>262.2</ele>
        <time>1970-01-01T07:10:29.626Z</time>
    </trkpt>
    <trkpt lat="56.483602" lon="60.802533">
        <ele>262.1</ele>
        <time>1970-01-01T07:10:30.626Z</time>
    </trkpt>
    <trkpt lat="56.483591" lon="60.802534">
        <ele>262.0</ele>
        <time>1970-01-01T07:10:31.626Z</time>
    </trkpt>
    <trkpt lat="56.483577" lon="60.802534">
        <ele>261.9</ele>
        <time>1970-01-01T07:10:32.626Z</time>
    </trkpt>
    <trkpt lat="56.483548" lon="60.80254">
        <ele>261.7</ele>
        <time>1970-01-01T07:10:33.626Z</time>
    </trkpt>
    <trkpt lat="56.483523" lon="60.802537">
        <ele>261.5</ele>
        <time>1970-01-01T07:10:34.626Z</time>
    </trkpt>
    <trkpt lat="56.483514" lon="60.802537">
        <ele>261.5</ele>
        <time>1970-01-01T07:10:35.626Z</time>
    </trkpt>
    <trkpt lat="56.483502" lon="60.802544">
        <ele>261.4</ele>
        <time>1970-01-01T07:10:36.626Z</time>
    </trkpt>
    <trkpt lat="56.483466" lon="60.802553">
        <ele>261.1</ele>
        <time>1970-01-01T07:10:37.626Z</time>
    </trkpt>
    <trkpt lat="56.483436" lon="60.802564">
        <ele>260.9</ele>
        <time>1970-01-01T07:10:38.626Z</time>
    </trkpt>
    <trkpt lat="56.483424" lon="60.802562">
        <ele>260.8</ele>
        <time>1970-01-01T07:10:39.626Z</time>
    </trkpt>
    <trkpt lat="56.483392" lon="60.802549">
        <ele>260.5</ele>
        <time>1970-01-01T07:10:40.626Z</time>
    </trkpt>
    <trkpt lat="56.483378" lon="60.80255">
        <ele>260.4</ele>
        <time>1970-01-01T07:10:41.626Z</time>
    </trkpt>
    <trkpt lat="56.483347" lon="60.802548">
        <ele>260.2</ele>
        <time>1970-01-01T07:10:42.626Z</time>
    </trkpt>
    <trkpt lat="56.483337" lon="60.80255">
        <ele>260.2</ele>
        <time>1970-01-01T07:10:43.626Z</time>
    </trkpt>
    <trkpt lat="56.483305" lon="60.802551">
        <ele>260.0</ele>
        <time>1970-01-01T07:10:44.626Z</time>
    </trkpt>
    <trkpt lat="56.483292" lon="60.802549">
        <ele>259.9</ele>
        <time>1970-01-01T07:10:45.626Z</time>
    </trkpt>
    <trkpt lat="56.483256" lon="60.802553">
        <ele>259.7</ele>
        <time>1970-01-01T07:10:46.626Z</time>
    </trkpt>
    <trkpt lat="56.483245" lon="60.802558">
        <ele>259.6</ele>
        <time>1970-01-01T07:10:47.626Z</time>
    </trkpt>
    <trkpt lat="56.483214" lon="60.802565">
        <ele>259.5</ele>
        <time>1970-01-01T07:10:48.626Z</time>
    </trkpt>
    <trkpt lat="56.483195" lon="60.80256">
        <ele>259.5</ele>
        <time>1970-01-01T07:10:49.626Z</time>
    </trkpt>
    <trkpt lat="56.483183" lon="60.802569">
        <ele>259.4</ele>
        <time>1970-01-01T07:10:50.626Z</time>
    </trkpt>
    <trkpt lat="56.483173" lon="60.802578">
        <ele>259.4</ele>
        <time>1970-01-01T07:10:51.626Z</time>
    </trkpt>
    <trkpt lat="56.48314" lon="60.802592">
        <ele>259.3</ele>
        <time>1970-01-01T07:10:52.626Z</time>
    </trkpt>
    <trkpt lat="56.483121" lon="60.802591">
        <ele>259.3</ele>
        <time>1970-01-01T07:10:53.626Z</time>
    </trkpt>
    <trkpt lat="56.483107" lon="60.802595">
        <ele>259.3</ele>
        <time>1970-01-01T07:10:54.626Z</time>
    </trkpt>
    <trkpt lat="56.483097" lon="60.802601">
        <ele>259.3</ele>
        <time>1970-01-01T07:10:55.626Z</time>
    </trkpt>
    <trkpt lat="56.483067" lon="60.802608">
        <ele>259.2</ele>
        <time>1970-01-01T07:10:56.626Z</time>
    </trkpt>
    <trkpt lat="56.483056" lon="60.802609">
        <ele>259.2</ele>
        <time>1970-01-01T07:10:57.626Z</time>
    </trkpt>
    <trkpt lat="56.483026" lon="60.802627">
        <ele>259.3</ele>
        <time>1970-01-01T07:10:58.626Z</time>
    </trkpt>
    <trkpt lat="56.482997" lon="60.802634">
        <ele>259.3</ele>
        <time>1970-01-01T07:10:59.626Z</time>
    </trkpt>
    <trkpt lat="56.482979" lon="60.802633">
        <ele>259.3</ele>
        <time>1970-01-01T07:11:00.626Z</time>
    </trkpt>
    <trkpt lat="56.482965" lon="60.802642">
        <ele>259.3</ele>
        <time>1970-01-01T07:11:01.626Z</time>
    </trkpt>
    <trkpt lat="56.482954" lon="60.802644">
        <ele>259.3</ele>
        <time>1970-01-01T07:11:02.626Z</time>
    </trkpt>
    <trkpt lat="56.482917" lon="60.802647">
        <ele>259.4</ele>
        <time>1970-01-01T07:11:03.626Z</time>
    </trkpt>
    <trkpt lat="56.482888" lon="60.802658">
        <ele>259.4</ele>
        <time>1970-01-01T07:11:04.626Z</time>
    </trkpt>
    <trkpt lat="56.482847" lon="60.802672">
        <ele>259.5</ele>
        <time>1970-01-01T07:11:05.626Z</time>
    </trkpt>
    <trkpt lat="56.482812" lon="60.80268">
        <ele>259.5</ele>
        <time>1970-01-01T07:11:07.626Z</time>
    </trkpt>
    <trkpt lat="56.482799" lon="60.802679">
        <ele>259.5</ele>
        <time>1970-01-01T07:11:08.626Z</time>
    </trkpt>
    <trkpt lat="56.482782" lon="60.802686">
        <ele>259.5</ele>
        <time>1970-01-01T07:11:09.626Z</time>
    </trkpt>
    <trkpt lat="56.482753" lon="60.802695">
        <ele>259.5</ele>
        <time>1970-01-01T07:11:10.626Z</time>
    </trkpt>
    <trkpt lat="56.482727" lon="60.802714">
        <ele>259.5</ele>
        <time>1970-01-01T07:11:11.626Z</time>
    </trkpt>
    <trkpt lat="56.48272" lon="60.802716">
        <ele>259.4</ele>
        <time>1970-01-01T07:11:12.626Z</time>
    </trkpt>
    <trkpt lat="56.482692" lon="60.802738">
        <ele>259.4</ele>
        <time>1970-01-01T07:11:13.626Z</time>
    </trkpt>
    <trkpt lat="56.482683" lon="60.802741">
        <ele>259.4</ele>
        <time>1970-01-01T07:11:14.626Z</time>
    </trkpt>
    <trkpt lat="56.482656" lon="60.802752">
        <ele>259.3</ele>
        <time>1970-01-01T07:11:15.626Z</time>
    </trkpt>
    <trkpt lat="56.482647" lon="60.802758">
        <ele>259.3</ele>
        <time>1970-01-01T07:11:16.626Z</time>
    </trkpt>
    <trkpt lat="56.482639" lon="60.802765">
        <ele>259.3</ele>
        <time>1970-01-01T07:11:17.626Z</time>
    </trkpt>
    <trkpt lat="56.482622" lon="60.802783">
        <ele>259.2</ele>
        <time>1970-01-01T07:11:18.626Z</time>
    </trkpt>
    <trkpt lat="56.482607" lon="60.8028">
        <ele>259.1</ele>
        <time>1970-01-01T07:11:19.626Z</time>
    </trkpt>
    <trkpt lat="56.482596" lon="60.802816">
        <ele>259.1</ele>
        <time>1970-01-01T07:11:20.626Z</time>
    </trkpt>
    <trkpt lat="56.482583" lon="60.802834">
        <ele>259.0</ele>
        <time>1970-01-01T07:11:21.626Z</time>
    </trkpt>
    <trkpt lat="56.482573" lon="60.802845">
        <ele>259.0</ele>
        <time>1970-01-01T07:11:22.626Z</time>
    </trkpt>
    <trkpt lat="56.482561" lon="60.802864">
        <ele>258.9</ele>
        <time>1970-01-01T07:11:23.626Z</time>
    </trkpt>
    <trkpt lat="56.482548" lon="60.802882">
        <ele>258.8</ele>
        <time>1970-01-01T07:11:24.626Z</time>
    </trkpt>
    <trkpt lat="56.482537" lon="60.802902">
        <ele>258.8</ele>
        <time>1970-01-01T07:11:25.626Z</time>
    </trkpt>
    <trkpt lat="56.482529" lon="60.802912">
        <ele>258.7</ele>
        <time>1970-01-01T07:11:26.626Z</time>
    </trkpt>
    <trkpt lat="56.482519" lon="60.802914">
        <ele>258.7</ele>
        <time>1970-01-01T07:11:27.626Z</time>
    </trkpt>
    <trkpt lat="56.482509" lon="60.802919">
        <ele>258.6</ele>
        <time>1970-01-01T07:11:28.626Z</time>
    </trkpt>
    <trkpt lat="56.482483" lon="60.802938">
        <ele>258.5</ele>
        <time>1970-01-01T07:11:29.626Z</time>
    </trkpt>
    <trkpt lat="56.482476" lon="60.802944">
        <ele>258.4</ele>
        <time>1970-01-01T07:11:30.626Z</time>
    </trkpt>
    <trkpt lat="56.48247" lon="60.802951">
        <ele>258.4</ele>
        <time>1970-01-01T07:11:31.626Z</time>
    </trkpt>
    <trkpt lat="56.482451" lon="60.802974">
        <ele>258.3</ele>
        <time>1970-01-01T07:11:32.626Z</time>
    </trkpt>
    <trkpt lat="56.482437" lon="60.802994">
        <ele>258.2</ele>
        <time>1970-01-01T07:11:33.626Z</time>
    </trkpt>
    <trkpt lat="56.482425" lon="60.803007">
        <ele>258.1</ele>
        <time>1970-01-01T07:11:34.626Z</time>
    </trkpt>
    <trkpt lat="56.482419" lon="60.803021">
        <ele>258.0</ele>
        <time>1970-01-01T07:11:35.626Z</time>
    </trkpt>
    <trkpt lat="56.482399" lon="60.803039">
        <ele>257.9</ele>
        <time>1970-01-01T07:11:36.626Z</time>
    </trkpt>
    <trkpt lat="56.482388" lon="60.803051">
        <ele>257.8</ele>
        <time>1970-01-01T07:11:37.626Z</time>
    </trkpt>
    <trkpt lat="56.482372" lon="60.803062">
        <ele>257.7</ele>
        <time>1970-01-01T07:11:38.626Z</time>
    </trkpt>
    <trkpt lat="56.482364" lon="60.803071">
        <ele>257.7</ele>
        <time>1970-01-01T07:11:39.626Z</time>
    </trkpt>
    <trkpt lat="56.482355" lon="60.803081">
        <ele>257.6</ele>
        <time>1970-01-01T07:11:40.626Z</time>
    </trkpt>
    <trkpt lat="56.482344" lon="60.803102">
        <ele>257.5</ele>
        <time>1970-01-01T07:11:41.626Z</time>
    </trkpt>
    <trkpt lat="56.482325" lon="60.803115">
        <ele>257.4</ele>
        <time>1970-01-01T07:11:42.626Z</time>
    </trkpt>
    <trkpt lat="56.482315" lon="60.803116">
        <ele>257.3</ele>
        <time>1970-01-01T07:11:43.626Z</time>
    </trkpt>
    <trkpt lat="56.482302" lon="60.803133">
        <ele>257.2</ele>
        <time>1970-01-01T07:11:44.626Z</time>
    </trkpt>
    <trkpt lat="56.482286" lon="60.803153">
        <ele>257.1</ele>
        <time>1970-01-01T07:11:45.626Z</time>
    </trkpt>
    <trkpt lat="56.482279" lon="60.80316">
        <ele>257.1</ele>
        <time>1970-01-01T07:11:46.626Z</time>
    </trkpt>
    <trkpt lat="56.482272" lon="60.803173">
        <ele>257.0</ele>
        <time>1970-01-01T07:11:47.626Z</time>
    </trkpt>
    <trkpt lat="56.482256" lon="60.803184">
        <ele>256.9</ele>
        <time>1970-01-01T07:11:48.626Z</time>
    </trkpt>
    <trkpt lat="56.482244" lon="60.803199">
        <ele>256.8</ele>
        <time>1970-01-01T07:11:49.626Z</time>
    </trkpt>
    <trkpt lat="56.482235" lon="60.803206">
        <ele>256.8</ele>
        <time>1970-01-01T07:11:50.626Z</time>
    </trkpt>
    <trkpt lat="56.482229" lon="60.803217">
        <ele>256.7</ele>
        <time>1970-01-01T07:11:51.626Z</time>
    </trkpt>
    <trkpt lat="56.482213" lon="60.803229">
        <ele>256.6</ele>
        <time>1970-01-01T07:11:52.626Z</time>
    </trkpt>
    <trkpt lat="56.482198" lon="60.803244">
        <ele>256.5</ele>
        <time>1970-01-01T07:11:53.626Z</time>
    </trkpt>
    <trkpt lat="56.482188" lon="60.803253">
        <ele>256.4</ele>
        <time>1970-01-01T07:11:54.626Z</time>
    </trkpt>
    <trkpt lat="56.482178" lon="60.803262">
        <ele>256.4</ele>
        <time>1970-01-01T07:11:55.626Z</time>
    </trkpt>
    <trkpt lat="56.482157" lon="60.803286">
        <ele>256.2</ele>
        <time>1970-01-01T07:11:56.626Z</time>
    </trkpt>
    <trkpt lat="56.482143" lon="60.803306">
        <ele>256.1</ele>
        <time>1970-01-01T07:11:57.626Z</time>
    </trkpt>
    <trkpt lat="56.482132" lon="60.803321">
        <ele>256.0</ele>
        <time>1970-01-01T07:11:58.626Z</time>
    </trkpt>
    <trkpt lat="56.482122" lon="60.803329">
        <ele>256.0</ele>
        <time>1970-01-01T07:11:59.626Z</time>
    </trkpt>
    <trkpt lat="56.482113" lon="60.803337">
        <ele>255.9</ele>
        <time>1970-01-01T07:12:00.626Z</time>
    </trkpt>
    <trkpt lat="56.482095" lon="60.803357">
        <ele>255.8</ele>
        <time>1970-01-01T07:12:01.626Z</time>
    </trkpt>
    <trkpt lat="56.482081" lon="60.80337">
        <ele>255.7</ele>
        <time>1970-01-01T07:12:02.626Z</time>
    </trkpt>
    <trkpt lat="56.482068" lon="60.80339">
        <ele>255.6</ele>
        <time>1970-01-01T07:12:03.626Z</time>
    </trkpt>
    <trkpt lat="56.48206" lon="60.8034">
        <ele>255.6</ele>
        <time>1970-01-01T07:12:04.626Z</time>
    </trkpt>
    <trkpt lat="56.482053" lon="60.803409">
        <ele>255.5</ele>
        <time>1970-01-01T07:12:05.626Z</time>
    </trkpt>
    <trkpt lat="56.482032" lon="60.803441">
        <ele>255.4</ele>
        <time>1970-01-01T07:12:06.626Z</time>
    </trkpt>
    <trkpt lat="56.482016" lon="60.803456">
        <ele>255.3</ele>
        <time>1970-01-01T07:12:07.626Z</time>
    </trkpt>
    <trkpt lat="56.482001" lon="60.803469">
        <ele>255.2</ele>
        <time>1970-01-01T07:12:08.626Z</time>
    </trkpt>
    <trkpt lat="56.481989" lon="60.803476">
        <ele>255.2</ele>
        <time>1970-01-01T07:12:09.626Z</time>
    </trkpt>
    <trkpt lat="56.481978" lon="60.8035">
        <ele>255.1</ele>
        <time>1970-01-01T07:12:10.626Z</time>
    </trkpt>
    <trkpt lat="56.481964" lon="60.803525">
        <ele>255.0</ele>
        <time>1970-01-01T07:12:11.626Z</time>
    </trkpt>
    <trkpt lat="56.481953" lon="60.803544">
        <ele>254.9</ele>
        <time>1970-01-01T07:12:12.626Z</time>
    </trkpt>
    <trkpt lat="56.48194" lon="60.803559">
        <ele>254.9</ele>
        <time>1970-01-01T07:12:13.626Z</time>
    </trkpt>
    <trkpt lat="56.48192" lon="60.8036">
        <ele>254.7</ele>
        <time>1970-01-01T07:12:14.626Z</time>
    </trkpt>
    <trkpt lat="56.481912" lon="60.803615">
        <ele>254.7</ele>
        <time>1970-01-01T07:12:15.626Z</time>
    </trkpt>
    <trkpt lat="56.481888" lon="60.803656">
        <ele>254.5</ele>
        <time>1970-01-01T07:12:16.626Z</time>
    </trkpt>
    <trkpt lat="56.481878" lon="60.80367">
        <ele>254.4</ele>
        <time>1970-01-01T07:12:17.626Z</time>
    </trkpt>
    <trkpt lat="56.481849" lon="60.803707">
        <ele>254.3</ele>
        <time>1970-01-01T07:12:18.626Z</time>
    </trkpt>
    <trkpt lat="56.481846" lon="60.803718">
        <ele>254.2</ele>
        <time>1970-01-01T07:12:19.626Z</time>
    </trkpt>
    <trkpt lat="56.481824" lon="60.803762">
        <ele>254.1</ele>
        <time>1970-01-01T07:12:20.626Z</time>
    </trkpt>
    <trkpt lat="56.481799" lon="60.803785">
        <ele>254.0</ele>
        <time>1970-01-01T07:12:21.626Z</time>
    </trkpt>
    <trkpt lat="56.481792" lon="60.803795">
        <ele>253.9</ele>
        <time>1970-01-01T07:12:22.626Z</time>
    </trkpt>
    <trkpt lat="56.481769" lon="60.803832">
        <ele>253.8</ele>
        <time>1970-01-01T07:12:23.626Z</time>
    </trkpt>
    <trkpt lat="56.481762" lon="60.803839">
        <ele>253.7</ele>
        <time>1970-01-01T07:12:24.626Z</time>
    </trkpt>
    <trkpt lat="56.481735" lon="60.803867">
        <ele>253.6</ele>
        <time>1970-01-01T07:12:25.626Z</time>
    </trkpt>
    <trkpt lat="56.481726" lon="60.80388">
        <ele>253.5</ele>
        <time>1970-01-01T07:12:26.626Z</time>
    </trkpt>
    <trkpt lat="56.481717" lon="60.803893">
        <ele>253.5</ele>
        <time>1970-01-01T07:12:27.626Z</time>
    </trkpt>
    <trkpt lat="56.481701" lon="60.803921">
        <ele>253.4</ele>
        <time>1970-01-01T07:12:28.626Z</time>
    </trkpt>
    <trkpt lat="56.481692" lon="60.803932">
        <ele>253.4</ele>
        <time>1970-01-01T07:12:29.626Z</time>
    </trkpt>
    <trkpt lat="56.481674" lon="60.803965">
        <ele>253.3</ele>
        <time>1970-01-01T07:12:30.626Z</time>
    </trkpt>
    <trkpt lat="56.481658" lon="60.803986">
        <ele>253.2</ele>
        <time>1970-01-01T07:12:31.626Z</time>
    </trkpt>
    <trkpt lat="56.481649" lon="60.804009">
        <ele>253.1</ele>
        <time>1970-01-01T07:12:32.626Z</time>
    </trkpt>
    <trkpt lat="56.481643" lon="60.804025">
        <ele>253.1</ele>
        <time>1970-01-01T07:12:33.626Z</time>
    </trkpt>
    <trkpt lat="56.481622" lon="60.804047">
        <ele>253.0</ele>
        <time>1970-01-01T07:12:34.626Z</time>
    </trkpt>
    <trkpt lat="56.481614" lon="60.804067">
        <ele>252.9</ele>
        <time>1970-01-01T07:12:35.626Z</time>
    </trkpt>
    <trkpt lat="56.4816" lon="60.80409">
        <ele>252.8</ele>
        <time>1970-01-01T07:12:36.626Z</time>
    </trkpt>
    <trkpt lat="56.48158" lon="60.804127">
        <ele>252.7</ele>
        <time>1970-01-01T07:12:37.626Z</time>
    </trkpt>
    <trkpt lat="56.481574" lon="60.804139">
        <ele>252.7</ele>
        <time>1970-01-01T07:12:38.626Z</time>
    </trkpt>
    <trkpt lat="56.481567" lon="60.804151">
        <ele>252.6</ele>
        <time>1970-01-01T07:12:39.626Z</time>
    </trkpt>
    <trkpt lat="56.48155" lon="60.804171">
        <ele>252.5</ele>
        <time>1970-01-01T07:12:40.626Z</time>
    </trkpt>
    <trkpt lat="56.48154" lon="60.804193">
        <ele>252.5</ele>
        <time>1970-01-01T07:12:41.626Z</time>
    </trkpt>
    <trkpt lat="56.481526" lon="60.804217">
        <ele>252.4</ele>
        <time>1970-01-01T07:12:42.626Z</time>
    </trkpt>
    <trkpt lat="56.481519" lon="60.804229">
        <ele>252.3</ele>
        <time>1970-01-01T07:12:43.626Z</time>
    </trkpt>
    <trkpt lat="56.4815" lon="60.804252">
        <ele>252.2</ele>
        <time>1970-01-01T07:12:44.626Z</time>
    </trkpt>
    <trkpt lat="56.481487" lon="60.804275">
        <ele>252.1</ele>
        <time>1970-01-01T07:12:45.626Z</time>
    </trkpt>
    <trkpt lat="56.481478" lon="60.804285">
        <ele>252.0</ele>
        <time>1970-01-01T07:12:46.626Z</time>
    </trkpt>
    <trkpt lat="56.481472" lon="60.804294">
        <ele>252.0</ele>
        <time>1970-01-01T07:12:47.626Z</time>
    </trkpt>
    <trkpt lat="56.481466" lon="60.804303">
        <ele>252.0</ele>
        <time>1970-01-01T07:12:48.626Z</time>
    </trkpt>
    <trkpt lat="56.481446" lon="60.804323">
        <ele>251.8</ele>
        <time>1970-01-01T07:12:49.626Z</time>
    </trkpt>
    <trkpt lat="56.48144" lon="60.804334">
        <ele>251.8</ele>
        <time>1970-01-01T07:12:50.626Z</time>
    </trkpt>
    <trkpt lat="56.481435" lon="60.804335">
        <ele>251.8</ele>
        <time>1970-01-01T07:12:51.626Z</time>
    </trkpt>
    <trkpt lat="56.481428" lon="60.804329">
        <ele>251.7</ele>
        <time>1970-01-01T07:12:52.626Z</time>
    </trkpt>
    <trkpt lat="56.481424" lon="60.804334">
        <ele>251.7</ele>
        <time>1970-01-01T07:12:53.626Z</time>
    </trkpt>
    <trkpt lat="56.481419" lon="60.804338">
        <ele>251.6</ele>
        <time>1970-01-01T07:12:54.626Z</time>
    </trkpt>
    <trkpt lat="56.481414" lon="60.804347">
        <ele>251.6</ele>
        <time>1970-01-01T07:12:55.626Z</time>
    </trkpt>
    <trkpt lat="56.481406" lon="60.804354">
        <ele>251.6</ele>
        <time>1970-01-01T07:12:56.626Z</time>
    </trkpt>
    <trkpt lat="56.481398" lon="60.804361">
        <ele>251.5</ele>
        <time>1970-01-01T07:12:57.626Z</time>
    </trkpt>
    <trkpt lat="56.481383" lon="60.804384">
        <ele>251.4</ele>
        <time>1970-01-01T07:12:58.626Z</time>
    </trkpt>
    <trkpt lat="56.481378" lon="60.8044">
        <ele>251.4</ele>
        <time>1970-01-01T07:12:59.626Z</time>
    </trkpt>
    <trkpt lat="56.481361" lon="60.80441">
        <ele>251.3</ele>
        <time>1970-01-01T07:13:00.626Z</time>
    </trkpt>
    <trkpt lat="56.481358" lon="60.804423">
        <ele>251.3</ele>
        <time>1970-01-01T07:13:01.626Z</time>
    </trkpt>
    <trkpt lat="56.481342" lon="60.804434">
        <ele>251.2</ele>
        <time>1970-01-01T07:13:02.626Z</time>
    </trkpt>
    <trkpt lat="56.481335" lon="60.804436">
        <ele>251.2</ele>
        <time>1970-01-01T07:13:03.626Z</time>
    </trkpt>
    <trkpt lat="56.481328" lon="60.804439">
        <ele>251.1</ele>
        <time>1970-01-01T07:13:04.626Z</time>
    </trkpt>
    <trkpt lat="56.481036" lon="60.8045">
        <ele>251.5</ele>
        <time>1970-01-01T07:14:21.626Z</time>
    </trkpt>
    <trkpt lat="56.481028" lon="60.804515">
        <ele>251.6</ele>
        <time>1970-01-01T07:14:22.626Z</time>
    </trkpt>
    <trkpt lat="56.481018" lon="60.804526">
        <ele>251.7</ele>
        <time>1970-01-01T07:14:23.626Z</time>
    </trkpt>
    <trkpt lat="56.481008" lon="60.804534">
        <ele>251.7</ele>
        <time>1970-01-01T07:14:24.626Z</time>
    </trkpt>
    <trkpt lat="56.48098" lon="60.804511">
        <ele>251.9</ele>
        <time>1970-01-01T07:14:25.626Z</time>
    </trkpt>
    <trkpt lat="56.48098" lon="60.804511">
        <ele>251.9</ele>
        <time>1970-01-01T07:14:26.626Z</time>
    </trkpt>
    <trkpt lat="56.48098" lon="60.804512">
        <ele>251.9</ele>
        <time>1970-01-01T07:14:27.626Z</time>
    </trkpt>
    <trkpt lat="56.480964" lon="60.804523">
        <ele>252.0</ele>
        <time>1970-01-01T07:14:28.626Z</time>
    </trkpt>
    <trkpt lat="56.480964" lon="60.804523">
        <ele>252.0</ele>
        <time>1970-01-01T07:14:29.626Z</time>
    </trkpt>
    <trkpt lat="56.480964" lon="60.804523">
        <ele>252.0</ele>
        <time>1970-01-01T07:14:30.626Z</time>
    </trkpt>
    <trkpt lat="56.480958" lon="60.804521">
        <ele>252.1</ele>
        <time>1970-01-01T07:14:31.626Z</time>
    </trkpt>
    <trkpt lat="56.480958" lon="60.804514">
        <ele>252.1</ele>
        <time>1970-01-01T07:14:32.626Z</time>
    </trkpt>
    <trkpt lat="56.48095" lon="60.804524">
        <ele>252.2</ele>
        <time>1970-01-01T07:14:33.626Z</time>
    </trkpt>
    <trkpt lat="56.48093" lon="60.804537">
        <ele>252.3</ele>
        <time>1970-01-01T07:14:34.626Z</time>
    </trkpt>
    <trkpt lat="56.480923" lon="60.804545">
        <ele>252.4</ele>
        <time>1970-01-01T07:14:35.626Z</time>
    </trkpt>
    <trkpt lat="56.4809" lon="60.804576">
        <ele>252.6</ele>
        <time>1970-01-01T07:14:36.626Z</time>
    </trkpt>
    <trkpt lat="56.480882" lon="60.804597">
        <ele>252.8</ele>
        <time>1970-01-01T07:14:37.626Z</time>
    </trkpt>
    <trkpt lat="56.480862" lon="60.804613">
        <ele>252.9</ele>
        <time>1970-01-01T07:14:38.626Z</time>
    </trkpt>
    <trkpt lat="56.480842" lon="60.80463">
        <ele>253.1</ele>
        <time>1970-01-01T07:14:39.626Z</time>
    </trkpt>
    <trkpt lat="56.480817" lon="60.804666">
        <ele>253.3</ele>
        <time>1970-01-01T07:14:40.626Z</time>
    </trkpt>
    <trkpt lat="56.480806" lon="60.804676">
        <ele>253.4</ele>
        <time>1970-01-01T07:14:41.626Z</time>
    </trkpt>
    <trkpt lat="56.480781" lon="60.804708">
        <ele>253.6</ele>
        <time>1970-01-01T07:14:42.626Z</time>
    </trkpt>
    <trkpt lat="56.480773" lon="60.804709">
        <ele>253.7</ele>
        <time>1970-01-01T07:14:43.626Z</time>
    </trkpt>
    <trkpt lat="56.480742" lon="60.804725">
        <ele>253.9</ele>
        <time>1970-01-01T07:14:44.626Z</time>
    </trkpt>
    <trkpt lat="56.480706" lon="60.804721">
        <ele>254.1</ele>
        <time>1970-01-01T07:14:45.626Z</time>
    </trkpt>
    <trkpt lat="56.48067" lon="60.804704">
        <ele>254.3</ele>
        <time>1970-01-01T07:14:46.626Z</time>
    </trkpt>
    <trkpt lat="56.480644" lon="60.804688">
        <ele>254.5</ele>
        <time>1970-01-01T07:14:47.626Z</time>
    </trkpt>
    <trkpt lat="56.480616" lon="60.804672">
        <ele>254.7</ele>
        <time>1970-01-01T07:14:48.626Z</time>
    </trkpt>
    <trkpt lat="56.480597" lon="60.804668">
        <ele>254.7</ele>
        <time>1970-01-01T07:14:49.626Z</time>
    </trkpt>
    <trkpt lat="56.480559" lon="60.804643">
        <ele>254.9</ele>
        <time>1970-01-01T07:14:50.626Z</time>
    </trkpt>
    <trkpt lat="56.480529" lon="60.804621">
        <ele>255.0</ele>
        <time>1970-01-01T07:14:51.626Z</time>
    </trkpt>
    <trkpt lat="56.480491" lon="60.804591">
        <ele>255.2</ele>
        <time>1970-01-01T07:14:52.626Z</time>
    </trkpt>
    <trkpt lat="56.480454" lon="60.804562">
        <ele>255.3</ele>
        <time>1970-01-01T07:14:53.626Z</time>
    </trkpt>
    <trkpt lat="56.48042" lon="60.804545">
        <ele>255.4</ele>
        <time>1970-01-01T07:14:54.626Z</time>
    </trkpt>
    <trkpt lat="56.480389" lon="60.804529">
        <ele>255.5</ele>
        <time>1970-01-01T07:14:55.626Z</time>
    </trkpt>
    <trkpt lat="56.480362" lon="60.80452">
        <ele>255.6</ele>
        <time>1970-01-01T07:14:56.626Z</time>
    </trkpt>
    <trkpt lat="56.48035" lon="60.804508">
        <ele>255.6</ele>
        <time>1970-01-01T07:14:57.626Z</time>
    </trkpt>
    <trkpt lat="56.480315" lon="60.804481">
        <ele>255.6</ele>
        <time>1970-01-01T07:14:58.626Z</time>
    </trkpt>
    <trkpt lat="56.480289" lon="60.804453">
        <ele>255.7</ele>
        <time>1970-01-01T07:14:59.626Z</time>
    </trkpt>
    <trkpt lat="56.480263" lon="60.804431">
        <ele>255.7</ele>
        <time>1970-01-01T07:15:00.626Z</time>
    </trkpt>
    <trkpt lat="56.480235" lon="60.804402">
        <ele>255.7</ele>
        <time>1970-01-01T07:15:01.626Z</time>
    </trkpt>
    <trkpt lat="56.480199" lon="60.804388">
        <ele>255.7</ele>
        <time>1970-01-01T07:15:02.626Z</time>
    </trkpt>
    <trkpt lat="56.480171" lon="60.804364">
        <ele>255.7</ele>
        <time>1970-01-01T07:15:03.626Z</time>
    </trkpt>
    <trkpt lat="56.480145" lon="60.804351">
        <ele>255.7</ele>
        <time>1970-01-01T07:15:04.626Z</time>
    </trkpt>
    <trkpt lat="56.480115" lon="60.80434">
        <ele>255.7</ele>
        <time>1970-01-01T07:15:05.626Z</time>
    </trkpt>
    <trkpt lat="56.480088" lon="60.804321">
        <ele>255.7</ele>
        <time>1970-01-01T07:15:06.626Z</time>
    </trkpt>
    <trkpt lat="56.480059" lon="60.804298">
        <ele>255.7</ele>
        <time>1970-01-01T07:15:07.626Z</time>
    </trkpt>
    <trkpt lat="56.480026" lon="60.804281">
        <ele>255.7</ele>
        <time>1970-01-01T07:15:08.626Z</time>
    </trkpt>
    <trkpt lat="56.480011" lon="60.80427">
        <ele>255.6</ele>
        <time>1970-01-01T07:15:09.626Z</time>
    </trkpt>
    <trkpt lat="56.479975" lon="60.804245">
        <ele>255.6</ele>
        <time>1970-01-01T07:15:10.626Z</time>
    </trkpt>
    <trkpt lat="56.479946" lon="60.804232">
        <ele>255.5</ele>
        <time>1970-01-01T07:15:11.626Z</time>
    </trkpt>
    <trkpt lat="56.479913" lon="60.8042">
        <ele>255.4</ele>
        <time>1970-01-01T07:15:12.626Z</time>
    </trkpt>
    <trkpt lat="56.479902" lon="60.804195">
        <ele>255.3</ele>
        <time>1970-01-01T07:15:13.626Z</time>
    </trkpt>
    <trkpt lat="56.479871" lon="60.804187">
        <ele>255.2</ele>
        <time>1970-01-01T07:15:14.626Z</time>
    </trkpt>
    <trkpt lat="56.479856" lon="60.80418">
        <ele>255.1</ele>
        <time>1970-01-01T07:15:15.626Z</time>
    </trkpt>
    <trkpt lat="56.47982" lon="60.80417">
        <ele>254.9</ele>
        <time>1970-01-01T07:15:16.626Z</time>
    </trkpt>
    <trkpt lat="56.479793" lon="60.804163">
        <ele>254.8</ele>
        <time>1970-01-01T07:15:17.626Z</time>
    </trkpt>
    <trkpt lat="56.47976" lon="60.804151">
        <ele>254.6</ele>
        <time>1970-01-01T07:15:19.626Z</time>
    </trkpt>
    <trkpt lat="56.479735" lon="60.804146">
        <ele>254.5</ele>
        <time>1970-01-01T07:15:20.626Z</time>
    </trkpt>
    <trkpt lat="56.479705" lon="60.804131">
        <ele>254.3</ele>
        <time>1970-01-01T07:15:21.626Z</time>
    </trkpt>
    <trkpt lat="56.47969" lon="60.804128">
        <ele>254.2</ele>
        <time>1970-01-01T07:15:22.626Z</time>
    </trkpt>
    <trkpt lat="56.479648" lon="60.804123">
        <ele>254.0</ele>
        <time>1970-01-01T07:15:23.626Z</time>
    </trkpt>
    <trkpt lat="56.479635" lon="60.804119">
        <ele>253.9</ele>
        <time>1970-01-01T07:15:24.626Z</time>
    </trkpt>
    <trkpt lat="56.479597" lon="60.804102">
        <ele>253.8</ele>
        <time>1970-01-01T07:15:25.626Z</time>
    </trkpt>
    <trkpt lat="56.479582" lon="60.804097">
        <ele>253.7</ele>
        <time>1970-01-01T07:15:26.626Z</time>
    </trkpt>
    <trkpt lat="56.479552" lon="60.804086">
        <ele>253.6</ele>
        <time>1970-01-01T07:15:27.626Z</time>
    </trkpt>
    <trkpt lat="56.479501" lon="60.804074">
        <ele>253.5</ele>
        <time>1970-01-01T07:15:28.626Z</time>
    </trkpt>
    <trkpt lat="56.479471" lon="60.804057">
        <ele>253.4</ele>
        <time>1970-01-01T07:15:29.626Z</time>
    </trkpt>
    <trkpt lat="56.479441" lon="60.804045">
        <ele>253.3</ele>
        <time>1970-01-01T07:15:30.626Z</time>
    </trkpt>
    <trkpt lat="56.479427" lon="60.804042">
        <ele>253.3</ele>
        <time>1970-01-01T07:15:31.626Z</time>
    </trkpt>
    <trkpt lat="56.479388" lon="60.804034">
        <ele>253.3</ele>
        <time>1970-01-01T07:15:32.626Z</time>
    </trkpt>
    <trkpt lat="56.479349" lon="60.804028">
        <ele>253.2</ele>
        <time>1970-01-01T07:15:33.626Z</time>
    </trkpt>
    <trkpt lat="56.479313" lon="60.804025">
        <ele>253.1</ele>
        <time>1970-01-01T07:15:34.626Z</time>
    </trkpt>
    <trkpt lat="56.479304" lon="60.804024">
        <ele>253.1</ele>
        <time>1970-01-01T07:15:35.626Z</time>
    </trkpt>
    <trkpt lat="56.47927" lon="60.804023">
        <ele>253.1</ele>
        <time>1970-01-01T07:15:36.626Z</time>
    </trkpt>
    <trkpt lat="56.479237" lon="60.804013">
        <ele>253.0</ele>
        <time>1970-01-01T07:15:37.626Z</time>
    </trkpt>
    <trkpt lat="56.479209" lon="60.804004">
        <ele>253.0</ele>
        <time>1970-01-01T07:15:38.626Z</time>
    </trkpt>
    <trkpt lat="56.479194" lon="60.804002">
        <ele>253.0</ele>
        <time>1970-01-01T07:15:39.626Z</time>
    </trkpt>
    <trkpt lat="56.479156" lon="60.803977">
        <ele>252.9</ele>
        <time>1970-01-01T07:15:40.626Z</time>
    </trkpt>
    <trkpt lat="56.479121" lon="60.803974">
        <ele>252.9</ele>
        <time>1970-01-01T07:15:41.626Z</time>
    </trkpt>
    <trkpt lat="56.479093" lon="60.803963">
        <ele>253.0</ele>
        <time>1970-01-01T07:15:42.626Z</time>
    </trkpt>
    <trkpt lat="56.479079" lon="60.803963">
        <ele>253.0</ele>
        <time>1970-01-01T07:15:43.626Z</time>
    </trkpt>
    <trkpt lat="56.479045" lon="60.803948">
        <ele>253.0</ele>
        <time>1970-01-01T07:15:44.626Z</time>
    </trkpt>
    <trkpt lat="56.479017" lon="60.803952">
        <ele>253.0</ele>
        <time>1970-01-01T07:15:45.626Z</time>
    </trkpt>
    <trkpt lat="56.478978" lon="60.803945">
        <ele>253.0</ele>
        <time>1970-01-01T07:15:46.626Z</time>
    </trkpt>
    <trkpt lat="56.478964" lon="60.80394">
        <ele>253.0</ele>
        <time>1970-01-01T07:15:47.626Z</time>
    </trkpt>
    <trkpt lat="56.478924" lon="60.803929">
        <ele>253.1</ele>
        <time>1970-01-01T07:15:48.626Z</time>
    </trkpt>
    <trkpt lat="56.478896" lon="60.803938">
        <ele>253.1</ele>
        <time>1970-01-01T07:15:49.626Z</time>
    </trkpt>
    <trkpt lat="56.478858" lon="60.803934">
        <ele>253.1</ele>
        <time>1970-01-01T07:15:50.626Z</time>
    </trkpt>
    <trkpt lat="56.478824" lon="60.803937">
        <ele>253.1</ele>
        <time>1970-01-01T07:15:51.626Z</time>
    </trkpt>
    <trkpt lat="56.478815" lon="60.803935">
        <ele>253.1</ele>
        <time>1970-01-01T07:15:52.626Z</time>
    </trkpt>
    <trkpt lat="56.478784" lon="60.803947">
        <ele>253.1</ele>
        <time>1970-01-01T07:15:53.626Z</time>
    </trkpt>
    <trkpt lat="56.47877" lon="60.803953">
        <ele>253.1</ele>
        <time>1970-01-01T07:15:54.626Z</time>
    </trkpt>
    <trkpt lat="56.478736" lon="60.803971">
        <ele>253.2</ele>
        <time>1970-01-01T07:15:55.626Z</time>
    </trkpt>
    <trkpt lat="56.478717" lon="60.803971">
        <ele>253.2</ele>
        <time>1970-01-01T07:15:56.626Z</time>
    </trkpt>
    <trkpt lat="56.478675" lon="60.803976">
        <ele>253.2</ele>
        <time>1970-01-01T07:15:57.626Z</time>
    </trkpt>
    <trkpt lat="56.478664" lon="60.803974">
        <ele>253.2</ele>
        <time>1970-01-01T07:15:58.626Z</time>
    </trkpt>
    <trkpt lat="56.478628" lon="60.803987">
        <ele>253.1</ele>
        <time>1970-01-01T07:15:59.626Z</time>
    </trkpt>
    <trkpt lat="56.478601" lon="60.803986">
        <ele>253.1</ele>
        <time>1970-01-01T07:16:00.626Z</time>
    </trkpt>
    <trkpt lat="56.478582" lon="60.80399">
        <ele>253.1</ele>
        <time>1970-01-01T07:16:01.626Z</time>
    </trkpt>
    <trkpt lat="56.478545" lon="60.803991">
        <ele>253.1</ele>
        <time>1970-01-01T07:16:02.626Z</time>
    </trkpt>
    <trkpt lat="56.478515" lon="60.803989">
        <ele>253.1</ele>
        <time>1970-01-01T07:16:03.626Z</time>
    </trkpt>
    <trkpt lat="56.478485" lon="60.803996">
        <ele>253.0</ele>
        <time>1970-01-01T07:16:04.626Z</time>
    </trkpt>
    <trkpt lat="56.478457" lon="60.804005">
        <ele>253.0</ele>
        <time>1970-01-01T07:16:05.626Z</time>
    </trkpt>
    <trkpt lat="56.47843" lon="60.80402">
        <ele>253.0</ele>
        <time>1970-01-01T07:16:06.626Z</time>
    </trkpt>
    <trkpt lat="56.478416" lon="60.804033">
        <ele>252.9</ele>
        <time>1970-01-01T07:16:07.626Z</time>
    </trkpt>
    <trkpt lat="56.478397" lon="60.804034">
        <ele>252.9</ele>
        <time>1970-01-01T07:16:08.626Z</time>
    </trkpt>
    <trkpt lat="56.478387" lon="60.804036">
        <ele>252.9</ele>
        <time>1970-01-01T07:16:09.626Z</time>
    </trkpt>
    <trkpt lat="56.478355" lon="60.804039">
        <ele>252.9</ele>
        <time>1970-01-01T07:16:10.626Z</time>
    </trkpt>
    <trkpt lat="56.478341" lon="60.804044">
        <ele>252.8</ele>
        <time>1970-01-01T07:16:11.626Z</time>
    </trkpt>
    <trkpt lat="56.478303" lon="60.804064">
        <ele>252.8</ele>
        <time>1970-01-01T07:16:12.626Z</time>
    </trkpt>
    <trkpt lat="56.478286" lon="60.804071">
        <ele>252.8</ele>
        <time>1970-01-01T07:16:13.626Z</time>
    </trkpt>
    <trkpt lat="56.478244" lon="60.804081">
        <ele>252.7</ele>
        <time>1970-01-01T07:16:14.626Z</time>
    </trkpt>
    <trkpt lat="56.478232" lon="60.804086">
        <ele>252.7</ele>
        <time>1970-01-01T07:16:15.626Z</time>
    </trkpt>
    <trkpt lat="56.4782" lon="60.804108">
        <ele>252.6</ele>
        <time>1970-01-01T07:16:16.626Z</time>
    </trkpt>
    <trkpt lat="56.478191" lon="60.804116">
        <ele>252.6</ele>
        <time>1970-01-01T07:16:17.626Z</time>
    </trkpt>
    <trkpt lat="56.478157" lon="60.80413">
        <ele>252.6</ele>
        <time>1970-01-01T07:16:18.626Z</time>
    </trkpt>
    <trkpt lat="56.47813" lon="60.804129">
        <ele>252.6</ele>
        <time>1970-01-01T07:16:19.626Z</time>
    </trkpt>
    <trkpt lat="56.478098" lon="60.804132">
        <ele>252.5</ele>
        <time>1970-01-01T07:16:20.626Z</time>
    </trkpt>
    <trkpt lat="56.478064" lon="60.804153">
        <ele>252.5</ele>
        <time>1970-01-01T07:16:21.626Z</time>
    </trkpt>
    <trkpt lat="56.478035" lon="60.804161">
        <ele>252.5</ele>
        <time>1970-01-01T07:16:22.626Z</time>
    </trkpt>
    <trkpt lat="56.478002" lon="60.804161">
        <ele>252.5</ele>
        <time>1970-01-01T07:16:23.626Z</time>
    </trkpt>
    <trkpt lat="56.477969" lon="60.804181">
        <ele>252.6</ele>
        <time>1970-01-01T07:16:24.626Z</time>
    </trkpt>
    <trkpt lat="56.477931" lon="60.80419">
        <ele>252.6</ele>
        <time>1970-01-01T07:16:25.626Z</time>
    </trkpt>
    <trkpt lat="56.477904" lon="60.80422">
        <ele>252.6</ele>
        <time>1970-01-01T07:16:26.626Z</time>
    </trkpt>
    <trkpt lat="56.477876" lon="60.80421">
        <ele>252.7</ele>
        <time>1970-01-01T07:16:27.626Z</time>
    </trkpt>
    <trkpt lat="56.477844" lon="60.804228">
        <ele>252.7</ele>
        <time>1970-01-01T07:16:28.626Z</time>
    </trkpt>
    <trkpt lat="56.477815" lon="60.804243">
        <ele>252.7</ele>
        <time>1970-01-01T07:16:29.626Z</time>
    </trkpt>
    <trkpt lat="56.477804" lon="60.80425">
        <ele>252.7</ele>
        <time>1970-01-01T07:16:30.626Z</time>
    </trkpt>
    <trkpt lat="56.477773" lon="60.804268">
        <ele>252.8</ele>
        <time>1970-01-01T07:16:31.626Z</time>
    </trkpt>
    <trkpt lat="56.47776" lon="60.80428">
        <ele>252.8</ele>
        <time>1970-01-01T07:16:32.626Z</time>
    </trkpt>
    <trkpt lat="56.477747" lon="60.8043">
        <ele>252.8</ele>
        <time>1970-01-01T07:16:33.626Z</time>
    </trkpt>
    <trkpt lat="56.477736" lon="60.804308">
        <ele>252.8</ele>
        <time>1970-01-01T07:16:34.626Z</time>
    </trkpt>
    <trkpt lat="56.47772" lon="60.804321">
        <ele>252.7</ele>
        <time>1970-01-01T07:16:35.626Z</time>
    </trkpt>
    <trkpt lat="56.477718" lon="60.804335">
        <ele>252.7</ele>
        <time>1970-01-01T07:16:36.626Z</time>
    </trkpt>
    <trkpt lat="56.477708" lon="60.804338">
        <ele>252.7</ele>
        <time>1970-01-01T07:16:37.626Z</time>
    </trkpt>
    <trkpt lat="56.477697" lon="60.80434">
        <ele>252.7</ele>
        <time>1970-01-01T07:16:38.626Z</time>
    </trkpt>
    <trkpt lat="56.477686" lon="60.804343">
        <ele>252.7</ele>
        <time>1970-01-01T07:16:39.626Z</time>
    </trkpt>
    <trkpt lat="56.477675" lon="60.804345">
        <ele>252.7</ele>
        <time>1970-01-01T07:17:09.626Z</time>
    </trkpt>
    <trkpt lat="56.477664" lon="60.804348">
        <ele>252.7</ele>
        <time>1970-01-01T07:17:10.626Z</time>
    </trkpt>
    <trkpt lat="56.477653" lon="60.804351">
        <ele>252.7</ele>
        <time>1970-01-01T07:17:11.626Z</time>
    </trkpt>
    <trkpt lat="56.477642" lon="60.804353">
        <ele>252.6</ele>
        <time>1970-01-01T07:17:12.626Z</time>
    </trkpt>
    <trkpt lat="56.477631" lon="60.804356">
        <ele>252.6</ele>
        <time>1970-01-01T07:17:13.626Z</time>
    </trkpt>
    <trkpt lat="56.47762" lon="60.804359">
        <ele>252.6</ele>
        <time>1970-01-01T07:17:14.626Z</time>
    </trkpt>
    <trkpt lat="56.477609" lon="60.804361">
        <ele>252.5</ele>
        <time>1970-01-01T07:17:15.626Z</time>
    </trkpt>
    <trkpt lat="56.477598" lon="60.804364">
        <ele>252.5</ele>
        <time>1970-01-01T07:17:16.626Z</time>
    </trkpt>
    <trkpt lat="56.477588" lon="60.804366">
        <ele>252.5</ele>
        <time>1970-01-01T07:17:17.626Z</time>
    </trkpt>
    <trkpt lat="56.477577" lon="60.804369">
        <ele>252.5</ele>
        <time>1970-01-01T07:17:18.626Z</time>
    </trkpt>
    <trkpt lat="56.477566" lon="60.804372">
        <ele>252.4</ele>
        <time>1970-01-01T07:17:19.626Z</time>
    </trkpt>
    <trkpt lat="56.477555" lon="60.804374">
        <ele>252.4</ele>
        <time>1970-01-01T07:17:20.626Z</time>
    </trkpt>
    <trkpt lat="56.477534" lon="60.804384">
        <ele>252.3</ele>
        <time>1970-01-01T07:17:21.626Z</time>
    </trkpt>
    <trkpt lat="56.477506" lon="60.804376">
        <ele>252.2</ele>
        <time>1970-01-01T07:17:22.626Z</time>
    </trkpt>
    <trkpt lat="56.47749" lon="60.80438">
        <ele>252.1</ele>
        <time>1970-01-01T07:17:23.626Z</time>
    </trkpt>
    <trkpt lat="56.47746" lon="60.804383">
        <ele>252.0</ele>
        <time>1970-01-01T07:17:25.626Z</time>
    </trkpt>
    <trkpt lat="56.477449" lon="60.804386">
        <ele>251.9</ele>
        <time>1970-01-01T07:17:26.626Z</time>
    </trkpt>
    <trkpt lat="56.477414" lon="60.804397">
        <ele>251.8</ele>
        <time>1970-01-01T07:17:27.626Z</time>
    </trkpt>
    <trkpt lat="56.477402" lon="60.804396">
        <ele>251.8</ele>
        <time>1970-01-01T07:17:28.626Z</time>
    </trkpt>
    <trkpt lat="56.477366" lon="60.804392">
        <ele>251.6</ele>
        <time>1970-01-01T07:17:29.626Z</time>
    </trkpt>
    <trkpt lat="56.477357" lon="60.804392">
        <ele>251.6</ele>
        <time>1970-01-01T07:17:30.626Z</time>
    </trkpt>
    <trkpt lat="56.477324" lon="60.804395">
        <ele>251.4</ele>
        <time>1970-01-01T07:17:31.626Z</time>
    </trkpt>
    <trkpt lat="56.477296" lon="60.804397">
        <ele>251.3</ele>
        <time>1970-01-01T07:17:32.626Z</time>
    </trkpt>
    <trkpt lat="56.47729" lon="60.804403">
        <ele>251.3</ele>
        <time>1970-01-01T07:17:33.626Z</time>
    </trkpt>
    <trkpt lat="56.477259" lon="60.804418">
        <ele>251.1</ele>
        <time>1970-01-01T07:17:34.626Z</time>
    </trkpt>
    <trkpt lat="56.477248" lon="60.804422">
        <ele>251.1</ele>
        <time>1970-01-01T07:17:35.626Z</time>
    </trkpt>
    <trkpt lat="56.47722" lon="60.804427">
        <ele>250.9</ele>
        <time>1970-01-01T07:17:36.626Z</time>
    </trkpt>
    <trkpt lat="56.477209" lon="60.804426">
        <ele>250.9</ele>
        <time>1970-01-01T07:17:37.626Z</time>
    </trkpt>
    <trkpt lat="56.477174" lon="60.804423">
        <ele>250.7</ele>
        <time>1970-01-01T07:17:38.626Z</time>
    </trkpt>
    <trkpt lat="56.477162" lon="60.804441">
        <ele>250.7</ele>
        <time>1970-01-01T07:17:39.626Z</time>
    </trkpt>
    <trkpt lat="56.477145" lon="60.804448">
        <ele>250.6</ele>
        <time>1970-01-01T07:17:40.626Z</time>
    </trkpt>
    <trkpt lat="56.477136" lon="60.804453">
        <ele>250.6</ele>
        <time>1970-01-01T07:17:41.626Z</time>
    </trkpt>
    <trkpt lat="56.477116" lon="60.804462">
        <ele>250.5</ele>
        <time>1970-01-01T07:17:42.626Z</time>
    </trkpt>
    <trkpt lat="56.477088" lon="60.804471">
        <ele>250.4</ele>
        <time>1970-01-01T07:17:43.626Z</time>
    </trkpt>
    <trkpt lat="56.477058" lon="60.804467">
        <ele>250.3</ele>
        <time>1970-01-01T07:17:44.626Z</time>
    </trkpt>
    <trkpt lat="56.477048" lon="60.804487">
        <ele>250.3</ele>
        <time>1970-01-01T07:17:45.626Z</time>
    </trkpt>
    <trkpt lat="56.477032" lon="60.804495">
        <ele>250.2</ele>
        <time>1970-01-01T07:17:46.626Z</time>
    </trkpt>
    <trkpt lat="56.477016" lon="60.804501">
        <ele>250.2</ele>
        <time>1970-01-01T07:17:47.626Z</time>
    </trkpt>
    <trkpt lat="56.477003" lon="60.804516">
        <ele>250.1</ele>
        <time>1970-01-01T07:17:48.626Z</time>
    </trkpt>
    <trkpt lat="56.476992" lon="60.804518">
        <ele>250.1</ele>
        <time>1970-01-01T07:17:49.626Z</time>
    </trkpt>
    <trkpt lat="56.47698" lon="60.80452">
        <ele>250.1</ele>
        <time>1970-01-01T07:17:50.626Z</time>
    </trkpt>
    <trkpt lat="56.476969" lon="60.804521">
        <ele>250.0</ele>
        <time>1970-01-01T07:17:51.626Z</time>
    </trkpt>
    <trkpt lat="56.476958" lon="60.804523">
        <ele>250.0</ele>
        <time>1970-01-01T07:18:34.626Z</time>
    </trkpt>
    <trkpt lat="56.476947" lon="60.804525">
        <ele>250.0</ele>
        <time>1970-01-01T07:18:35.626Z</time>
    </trkpt>
    <trkpt lat="56.476936" lon="60.804526">
        <ele>249.9</ele>
        <time>1970-01-01T07:18:36.626Z</time>
    </trkpt>
    <trkpt lat="56.476925" lon="60.804528">
        <ele>249.9</ele>
        <time>1970-01-01T07:18:37.626Z</time>
    </trkpt>
    <trkpt lat="56.476914" lon="60.80453">
        <ele>249.9</ele>
        <time>1970-01-01T07:18:38.626Z</time>
    </trkpt>
    <trkpt lat="56.476902" lon="60.804532">
        <ele>249.9</ele>
        <time>1970-01-01T07:18:39.626Z</time>
    </trkpt>
    <trkpt lat="56.476894" lon="60.804526">
        <ele>249.8</ele>
        <time>1970-01-01T07:18:40.626Z</time>
    </trkpt>
    <trkpt lat="56.476891" lon="60.804524">
        <ele>249.8</ele>
        <time>1970-01-01T07:18:41.626Z</time>
    </trkpt>
    <trkpt lat="56.476883" lon="60.804523">
        <ele>249.8</ele>
        <time>1970-01-01T07:18:42.626Z</time>
    </trkpt>
    <trkpt lat="56.476883" lon="60.804523">
        <ele>249.8</ele>
        <time>1970-01-01T07:18:43.626Z</time>
    </trkpt>
    <trkpt lat="56.476875" lon="60.804523">
        <ele>249.8</ele>
        <time>1970-01-01T07:18:44.626Z</time>
    </trkpt>
    <trkpt lat="56.476865" lon="60.804532">
        <ele>249.8</ele>
        <time>1970-01-01T07:18:45.626Z</time>
    </trkpt>
    <trkpt lat="56.47685" lon="60.804547">
        <ele>249.7</ele>
        <time>1970-01-01T07:18:46.626Z</time>
    </trkpt>
    <trkpt lat="56.476839" lon="60.804562">
        <ele>249.7</ele>
        <time>1970-01-01T07:18:47.626Z</time>
    </trkpt>
    <trkpt lat="56.476817" lon="60.804564">
        <ele>249.7</ele>
        <time>1970-01-01T07:18:48.626Z</time>
    </trkpt>
    <trkpt lat="56.476806" lon="60.804575">
        <ele>249.6</ele>
        <time>1970-01-01T07:18:49.626Z</time>
    </trkpt>
    <trkpt lat="56.47679" lon="60.804575">
        <ele>249.6</ele>
        <time>1970-01-01T07:18:50.626Z</time>
    </trkpt>
    <trkpt lat="56.476757" lon="60.804565">
        <ele>249.6</ele>
        <time>1970-01-01T07:18:51.626Z</time>
    </trkpt>
    <trkpt lat="56.476742" lon="60.804573">
        <ele>249.5</ele>
        <time>1970-01-01T07:18:52.626Z</time>
    </trkpt>
    <trkpt lat="56.476705" lon="60.804607">
        <ele>249.5</ele>
        <time>1970-01-01T07:18:53.626Z</time>
    </trkpt>
    <trkpt lat="56.476696" lon="60.804617">
        <ele>249.5</ele>
        <time>1970-01-01T07:18:54.626Z</time>
    </trkpt>
    <trkpt lat="56.476666" lon="60.804646">
        <ele>249.4</ele>
        <time>1970-01-01T07:18:55.626Z</time>
    </trkpt>
    <trkpt lat="56.47665" lon="60.804651">
        <ele>249.4</ele>
        <time>1970-01-01T07:18:56.626Z</time>
    </trkpt>
    <trkpt lat="56.476639" lon="60.804646">
        <ele>249.4</ele>
        <time>1970-01-01T07:18:57.626Z</time>
    </trkpt>
    <trkpt lat="56.476623" lon="60.80465">
        <ele>249.4</ele>
        <time>1970-01-01T07:18:58.626Z</time>
    </trkpt>
    <trkpt lat="56.476587" lon="60.804664">
        <ele>249.4</ele>
        <time>1970-01-01T07:18:59.626Z</time>
    </trkpt>
    <trkpt lat="56.476578" lon="60.804662">
        <ele>249.4</ele>
        <time>1970-01-01T07:19:00.626Z</time>
    </trkpt>
    <trkpt lat="56.476549" lon="60.804652">
        <ele>249.3</ele>
        <time>1970-01-01T07:19:01.626Z</time>
    </trkpt>
    <trkpt lat="56.476536" lon="60.804652">
        <ele>249.3</ele>
        <time>1970-01-01T07:19:02.626Z</time>
    </trkpt>
    <trkpt lat="56.476505" lon="60.804656">
        <ele>249.3</ele>
        <time>1970-01-01T07:19:03.626Z</time>
    </trkpt>
    <trkpt lat="56.476495" lon="60.804655">
        <ele>249.3</ele>
        <time>1970-01-01T07:19:04.626Z</time>
    </trkpt>
    <trkpt lat="56.476467" lon="60.80466">
        <ele>249.3</ele>
        <time>1970-01-01T07:19:05.626Z</time>
    </trkpt>
    <trkpt lat="56.476451" lon="60.804673">
        <ele>249.3</ele>
        <time>1970-01-01T07:19:06.626Z</time>
    </trkpt>
    <trkpt lat="56.476416" lon="60.804692">
        <ele>249.3</ele>
        <time>1970-01-01T07:19:07.626Z</time>
    </trkpt>
    <trkpt lat="56.476407" lon="60.804691">
        <ele>249.3</ele>
        <time>1970-01-01T07:19:08.626Z</time>
    </trkpt>
    <trkpt lat="56.476375" lon="60.804683">
        <ele>249.3</ele>
        <time>1970-01-01T07:19:09.626Z</time>
    </trkpt>
    <trkpt lat="56.476366" lon="60.804679">
        <ele>249.3</ele>
        <time>1970-01-01T07:19:10.626Z</time>
    </trkpt>
    <trkpt lat="56.476336" lon="60.804664">
        <ele>249.3</ele>
        <time>1970-01-01T07:19:11.626Z</time>
    </trkpt>
    <trkpt lat="56.476323" lon="60.804673">
        <ele>249.3</ele>
        <time>1970-01-01T07:19:12.626Z</time>
    </trkpt>
    <trkpt lat="56.47629" lon="60.804693">
        <ele>249.3</ele>
        <time>1970-01-01T07:19:13.626Z</time>
    </trkpt>
    <trkpt lat="56.476258" lon="60.804709">
        <ele>249.3</ele>
        <time>1970-01-01T07:19:14.626Z</time>
    </trkpt>
    <trkpt lat="56.476254" lon="60.804712">
        <ele>249.3</ele>
        <time>1970-01-01T07:19:15.626Z</time>
    </trkpt>
    <trkpt lat="56.476229" lon="60.804708">
        <ele>249.3</ele>
        <time>1970-01-01T07:19:16.626Z</time>
    </trkpt>
    <trkpt lat="56.476219" lon="60.804709">
        <ele>249.3</ele>
        <time>1970-01-01T07:19:17.626Z</time>
    </trkpt>
    <trkpt lat="56.476191" lon="60.804723">
        <ele>249.3</ele>
        <time>1970-01-01T07:19:18.626Z</time>
    </trkpt>
    <trkpt lat="56.476184" lon="60.804731">
        <ele>249.3</ele>
        <time>1970-01-01T07:19:19.626Z</time>
    </trkpt>
    <trkpt lat="56.476156" lon="60.804745">
        <ele>249.2</ele>
        <time>1970-01-01T07:19:20.626Z</time>
    </trkpt>
    <trkpt lat="56.476141" lon="60.804745">
        <ele>249.2</ele>
        <time>1970-01-01T07:19:21.626Z</time>
    </trkpt>
    <trkpt lat="56.476121" lon="60.804737">
        <ele>249.2</ele>
        <time>1970-01-01T07:19:22.626Z</time>
    </trkpt>
    <trkpt lat="56.47611" lon="60.804739">
        <ele>249.2</ele>
        <time>1970-01-01T07:19:23.626Z</time>
    </trkpt>
    <trkpt lat="56.476085" lon="60.804753">
        <ele>249.2</ele>
        <time>1970-01-01T07:19:24.626Z</time>
    </trkpt>
    <trkpt lat="56.476066" lon="60.804747">
        <ele>249.2</ele>
        <time>1970-01-01T07:19:25.626Z</time>
    </trkpt>
    <trkpt lat="56.476054" lon="60.804746">
        <ele>249.2</ele>
        <time>1970-01-01T07:19:26.626Z</time>
    </trkpt>
    <trkpt lat="56.476041" lon="60.80475">
        <ele>249.1</ele>
        <time>1970-01-01T07:19:27.626Z</time>
    </trkpt>
    <trkpt lat="56.476017" lon="60.804757">
        <ele>249.1</ele>
        <time>1970-01-01T07:19:28.626Z</time>
    </trkpt>
    <trkpt lat="56.476008" lon="60.804763">
        <ele>249.1</ele>
        <time>1970-01-01T07:19:29.626Z</time>
    </trkpt>
    <trkpt lat="56.475973" lon="60.804771">
        <ele>249.0</ele>
        <time>1970-01-01T07:19:30.626Z</time>
    </trkpt>
    <trkpt lat="56.475967" lon="60.804774">
        <ele>249.0</ele>
        <time>1970-01-01T07:19:31.626Z</time>
    </trkpt>
    <trkpt lat="56.475937" lon="60.804788">
        <ele>249.0</ele>
        <time>1970-01-01T07:19:32.626Z</time>
    </trkpt>
    <trkpt lat="56.475911" lon="60.804802">
        <ele>248.9</ele>
        <time>1970-01-01T07:19:33.626Z</time>
    </trkpt>
    <trkpt lat="56.4759" lon="60.804815">
        <ele>248.9</ele>
        <time>1970-01-01T07:19:34.626Z</time>
    </trkpt>
    <trkpt lat="56.475881" lon="60.804834">
        <ele>248.9</ele>
        <time>1970-01-01T07:19:35.626Z</time>
    </trkpt>
    <trkpt lat="56.475869" lon="60.80483">
        <ele>248.8</ele>
        <time>1970-01-01T07:19:36.626Z</time>
    </trkpt>
    <trkpt lat="56.475852" lon="60.804828">
        <ele>248.8</ele>
        <time>1970-01-01T07:19:37.626Z</time>
    </trkpt>
    <trkpt lat="56.475832" lon="60.804838">
        <ele>248.8</ele>
        <time>1970-01-01T07:19:38.626Z</time>
    </trkpt>
    <trkpt lat="56.475819" lon="60.80483">
        <ele>248.7</ele>
        <time>1970-01-01T07:19:39.626Z</time>
    </trkpt>
    <trkpt lat="56.475818" lon="60.804843">
        <ele>248.7</ele>
        <time>1970-01-01T07:19:40.626Z</time>
    </trkpt>
    <trkpt lat="56.475804" lon="60.804862">
        <ele>248.7</ele>
        <time>1970-01-01T07:19:41.626Z</time>
    </trkpt>
    <trkpt lat="56.475798" lon="60.804873">
        <ele>248.7</ele>
        <time>1970-01-01T07:19:42.626Z</time>
    </trkpt>
    <trkpt lat="56.475789" lon="60.804885">
        <ele>248.7</ele>
        <time>1970-01-01T07:19:43.626Z</time>
    </trkpt>
    <trkpt lat="56.475776" lon="60.8049">
        <ele>248.6</ele>
        <time>1970-01-01T07:19:44.626Z</time>
    </trkpt>
    <trkpt lat="56.475769" lon="60.804907">
        <ele>248.6</ele>
        <time>1970-01-01T07:19:45.626Z</time>
    </trkpt>
    <trkpt lat="56.475762" lon="60.804897">
        <ele>248.6</ele>
        <time>1970-01-01T07:19:46.626Z</time>
    </trkpt>
    <trkpt lat="56.475755" lon="60.804886">
        <ele>248.6</ele>
        <time>1970-01-01T07:19:47.626Z</time>
    </trkpt>
    <trkpt lat="56.475747" lon="60.804876">
        <ele>248.6</ele>
        <time>1970-01-01T07:19:48.626Z</time>
    </trkpt>
    <trkpt lat="56.47574" lon="60.804865">
        <ele>248.6</ele>
        <time>1970-01-01T07:19:49.626Z</time>
    </trkpt>
    <trkpt lat="56.475733" lon="60.804855">
        <ele>248.5</ele>
        <time>1970-01-01T07:21:15.626Z</time>
    </trkpt>
    <trkpt lat="56.475726" lon="60.804844">
        <ele>248.5</ele>
        <time>1970-01-01T07:21:16.626Z</time>
    </trkpt>
    <trkpt lat="56.475718" lon="60.804834">
        <ele>248.5</ele>
        <time>1970-01-01T07:21:17.626Z</time>
    </trkpt>
    <trkpt lat="56.475711" lon="60.804824">
        <ele>248.5</ele>
        <time>1970-01-01T07:21:18.626Z</time>
    </trkpt>
    <trkpt lat="56.475704" lon="60.804813">
        <ele>248.5</ele>
        <time>1970-01-01T07:21:19.626Z</time>
    </trkpt>
    <trkpt lat="56.475697" lon="60.804803">
        <ele>248.5</ele>
        <time>1970-01-01T07:21:20.626Z</time>
    </trkpt>
    <trkpt lat="56.475689" lon="60.804792">
        <ele>248.5</ele>
        <time>1970-01-01T07:21:21.626Z</time>
    </trkpt>
    <trkpt lat="56.475682" lon="60.804782">
        <ele>248.5</ele>
        <time>1970-01-01T07:21:22.626Z</time>
    </trkpt>
    <trkpt lat="56.475675" lon="60.804771">
        <ele>248.5</ele>
        <time>1970-01-01T07:21:23.626Z</time>
    </trkpt>
    <trkpt lat="56.475668" lon="60.804761">
        <ele>248.5</ele>
        <time>1970-01-01T07:21:24.626Z</time>
    </trkpt>
    <trkpt lat="56.47566" lon="60.80475">
        <ele>248.5</ele>
        <time>1970-01-01T07:21:25.626Z</time>
    </trkpt>
    <trkpt lat="56.475639" lon="60.804745">
        <ele>248.5</ele>
        <time>1970-01-01T07:21:26.626Z</time>
    </trkpt>
    <trkpt lat="56.475632" lon="60.804737">
        <ele>248.5</ele>
        <time>1970-01-01T07:21:27.626Z</time>
    </trkpt>
    <trkpt lat="56.475602" lon="60.804713">
        <ele>248.5</ele>
        <time>1970-01-01T07:21:28.626Z</time>
    </trkpt>
    <trkpt lat="56.475575" lon="60.804685">
        <ele>248.5</ele>
        <time>1970-01-01T07:21:29.626Z</time>
    </trkpt>
    <trkpt lat="56.475568" lon="60.804675">
        <ele>248.5</ele>
        <time>1970-01-01T07:21:30.626Z</time>
    </trkpt>
    <trkpt lat="56.47556" lon="60.804664">
        <ele>248.5</ele>
        <time>1970-01-01T07:21:31.626Z</time>
    </trkpt>
    <trkpt lat="56.475537" lon="60.804632">
        <ele>248.5</ele>
        <time>1970-01-01T07:21:32.626Z</time>
    </trkpt>
    <trkpt lat="56.475522" lon="60.804624">
        <ele>248.5</ele>
        <time>1970-01-01T07:21:33.626Z</time>
    </trkpt>
    <trkpt lat="56.475495" lon="60.804606">
        <ele>248.5</ele>
        <time>1970-01-01T07:21:34.626Z</time>
    </trkpt>
    <trkpt lat="56.475471" lon="60.804581">
        <ele>248.6</ele>
        <time>1970-01-01T07:21:35.626Z</time>
    </trkpt>
    <trkpt lat="56.475463" lon="60.804576">
        <ele>248.6</ele>
        <time>1970-01-01T07:21:36.626Z</time>
    </trkpt>
    <trkpt lat="56.47544" lon="60.804546">
        <ele>248.6</ele>
        <time>1970-01-01T07:21:37.626Z</time>
    </trkpt>
    <trkpt lat="56.47543" lon="60.804534">
        <ele>248.6</ele>
        <time>1970-01-01T07:21:38.626Z</time>
    </trkpt>
    <trkpt lat="56.47542" lon="60.804522">
        <ele>248.6</ele>
        <time>1970-01-01T07:21:39.626Z</time>
    </trkpt>
    <trkpt lat="56.475393" lon="60.804499">
        <ele>248.6</ele>
        <time>1970-01-01T07:21:40.626Z</time>
    </trkpt>
    <trkpt lat="56.475385" lon="60.804472">
        <ele>248.6</ele>
        <time>1970-01-01T07:21:41.626Z</time>
    </trkpt>
    <trkpt lat="56.47536" lon="60.804422">
        <ele>248.6</ele>
        <time>1970-01-01T07:21:42.626Z</time>
    </trkpt>
    <trkpt lat="56.475356" lon="60.804399">
        <ele>248.7</ele>
        <time>1970-01-01T07:21:43.626Z</time>
    </trkpt>
    <trkpt lat="56.475346" lon="60.804368">
        <ele>248.7</ele>
        <time>1970-01-01T07:21:44.626Z</time>
    </trkpt>
    <trkpt lat="56.475341" lon="60.804353">
        <ele>248.7</ele>
        <time>1970-01-01T07:21:45.626Z</time>
    </trkpt>
    <trkpt lat="56.475326" lon="60.804313">
        <ele>248.7</ele>
        <time>1970-01-01T07:21:46.626Z</time>
    </trkpt>
    <trkpt lat="56.475325" lon="60.804284">
        <ele>248.7</ele>
        <time>1970-01-01T07:21:47.626Z</time>
    </trkpt>
    <trkpt lat="56.475316" lon="60.804255">
        <ele>248.7</ele>
        <time>1970-01-01T07:21:48.626Z</time>
    </trkpt>
    <trkpt lat="56.475297" lon="60.804212">
        <ele>248.7</ele>
        <time>1970-01-01T07:21:49.626Z</time>
    </trkpt>
    <trkpt lat="56.475275" lon="60.804161">
        <ele>248.8</ele>
        <time>1970-01-01T07:21:50.626Z</time>
    </trkpt>
    <trkpt lat="56.475249" lon="60.804129">
        <ele>248.8</ele>
        <time>1970-01-01T07:21:51.626Z</time>
    </trkpt>
    <trkpt lat="56.47522" lon="60.804096">
        <ele>248.9</ele>
        <time>1970-01-01T07:21:52.626Z</time>
    </trkpt>
    <trkpt lat="56.475184" lon="60.804067">
        <ele>248.9</ele>
        <time>1970-01-01T07:21:53.626Z</time>
    </trkpt>
    <trkpt lat="56.475163" lon="60.804021">
        <ele>249.0</ele>
        <time>1970-01-01T07:21:54.626Z</time>
    </trkpt>
    <trkpt lat="56.475154" lon="60.804011">
        <ele>249.0</ele>
        <time>1970-01-01T07:21:55.626Z</time>
    </trkpt>
    <trkpt lat="56.475133" lon="60.80397">
        <ele>249.0</ele>
        <time>1970-01-01T07:21:56.626Z</time>
    </trkpt>
    <trkpt lat="56.475122" lon="60.80395">
        <ele>249.1</ele>
        <time>1970-01-01T07:21:57.626Z</time>
    </trkpt>
    <trkpt lat="56.475095" lon="60.803897">
        <ele>249.1</ele>
        <time>1970-01-01T07:21:58.626Z</time>
    </trkpt>
    <trkpt lat="56.475086" lon="60.803877">
        <ele>249.1</ele>
        <time>1970-01-01T07:21:59.626Z</time>
    </trkpt>
    <trkpt lat="56.475069" lon="60.80387">
        <ele>249.1</ele>
        <time>1970-01-01T07:22:00.626Z</time>
    </trkpt>
    <trkpt lat="56.47506" lon="60.803851">
        <ele>249.1</ele>
        <time>1970-01-01T07:22:01.626Z</time>
    </trkpt>
    <trkpt lat="56.47505" lon="60.803825">
        <ele>249.0</ele>
        <time>1970-01-01T07:22:02.626Z</time>
    </trkpt>
    <trkpt lat="56.475041" lon="60.803812">
        <ele>249.0</ele>
        <time>1970-01-01T07:22:03.626Z</time>
    </trkpt>
    <trkpt lat="56.475021" lon="60.803783">
        <ele>249.0</ele>
        <time>1970-01-01T07:22:04.626Z</time>
    </trkpt>
    <trkpt lat="56.475012" lon="60.803769">
        <ele>249.0</ele>
        <time>1970-01-01T07:22:05.626Z</time>
    </trkpt>
    <trkpt lat="56.474987" lon="60.803728">
        <ele>248.9</ele>
        <time>1970-01-01T07:22:06.626Z</time>
    </trkpt>
    <trkpt lat="56.474972" lon="60.803714">
        <ele>248.8</ele>
        <time>1970-01-01T07:22:07.626Z</time>
    </trkpt>
    <trkpt lat="56.474955" lon="60.803697">
        <ele>248.8</ele>
        <time>1970-01-01T07:22:08.626Z</time>
    </trkpt>
    <trkpt lat="56.474948" lon="60.803689">
        <ele>248.7</ele>
        <time>1970-01-01T07:22:09.626Z</time>
    </trkpt>
    <trkpt lat="56.474918" lon="60.80366">
        <ele>248.6</ele>
        <time>1970-01-01T07:22:10.626Z</time>
    </trkpt>
    <trkpt lat="56.474907" lon="60.803651">
        <ele>248.6</ele>
        <time>1970-01-01T07:22:11.626Z</time>
    </trkpt>
    <trkpt lat="56.474886" lon="60.803615">
        <ele>248.4</ele>
        <time>1970-01-01T07:22:12.626Z</time>
    </trkpt>
    <trkpt lat="56.474865" lon="60.803579">
        <ele>248.3</ele>
        <time>1970-01-01T07:22:13.626Z</time>
    </trkpt>
    <trkpt lat="56.474858" lon="60.803559">
        <ele>248.3</ele>
        <time>1970-01-01T07:22:14.626Z</time>
    </trkpt>
    <trkpt lat="56.47484" lon="60.803515">
        <ele>248.2</ele>
        <time>1970-01-01T07:22:15.626Z</time>
    </trkpt>
    <trkpt lat="56.474835" lon="60.803499">
        <ele>248.1</ele>
        <time>1970-01-01T07:22:16.626Z</time>
    </trkpt>
    <trkpt lat="56.474814" lon="60.803453">
        <ele>248.0</ele>
        <time>1970-01-01T07:22:17.626Z</time>
    </trkpt>
    <trkpt lat="56.474794" lon="60.80342">
        <ele>247.9</ele>
        <time>1970-01-01T07:22:18.626Z</time>
    </trkpt>
    <trkpt lat="56.474783" lon="60.803406">
        <ele>247.8</ele>
        <time>1970-01-01T07:22:19.626Z</time>
    </trkpt>
    <trkpt lat="56.474758" lon="60.803366">
        <ele>247.7</ele>
        <time>1970-01-01T07:22:20.626Z</time>
    </trkpt>
    <trkpt lat="56.474746" lon="60.803351">
        <ele>247.6</ele>
        <time>1970-01-01T07:22:21.626Z</time>
    </trkpt>
    <trkpt lat="56.474724" lon="60.803297">
        <ele>247.5</ele>
        <time>1970-01-01T07:22:22.626Z</time>
    </trkpt>
    <trkpt lat="56.474714" lon="60.803271">
        <ele>247.4</ele>
        <time>1970-01-01T07:22:23.626Z</time>
    </trkpt>
    <trkpt lat="56.474704" lon="60.803251">
        <ele>247.4</ele>
        <time>1970-01-01T07:22:24.626Z</time>
    </trkpt>
    <trkpt lat="56.474704" lon="60.803226">
        <ele>247.3</ele>
        <time>1970-01-01T07:22:25.626Z</time>
    </trkpt>
    <trkpt lat="56.4747" lon="60.803201">
        <ele>247.2</ele>
        <time>1970-01-01T07:22:26.626Z</time>
    </trkpt>
    <trkpt lat="56.474693" lon="60.803185">
        <ele>247.2</ele>
        <time>1970-01-01T07:22:27.626Z</time>
    </trkpt>
    <trkpt lat="56.474675" lon="60.803135">
        <ele>247.0</ele>
        <time>1970-01-01T07:22:28.626Z</time>
    </trkpt>
    <trkpt lat="56.474671" lon="60.803085">
        <ele>246.9</ele>
        <time>1970-01-01T07:22:29.626Z</time>
    </trkpt>
    <trkpt lat="56.474653" lon="60.803046">
        <ele>246.8</ele>
        <time>1970-01-01T07:22:30.626Z</time>
    </trkpt>
    <trkpt lat="56.47462" lon="60.80302">
        <ele>246.7</ele>
        <time>1970-01-01T07:22:31.626Z</time>
    </trkpt>
    <trkpt lat="56.474609" lon="60.803023">
        <ele>246.7</ele>
        <time>1970-01-01T07:22:32.626Z</time>
    </trkpt>
    <trkpt lat="56.474574" lon="60.803036">
        <ele>246.6</ele>
        <time>1970-01-01T07:22:33.626Z</time>
    </trkpt>
    <trkpt lat="56.474564" lon="60.803041">
        <ele>246.6</ele>
        <time>1970-01-01T07:22:34.626Z</time>
    </trkpt>
    <trkpt lat="56.474534" lon="60.803046">
        <ele>246.5</ele>
        <time>1970-01-01T07:22:35.626Z</time>
    </trkpt>
    <trkpt lat="56.474518" lon="60.80305">
        <ele>246.5</ele>
        <time>1970-01-01T07:22:36.626Z</time>
    </trkpt>
    <trkpt lat="56.474509" lon="60.803068">
        <ele>246.5</ele>
        <time>1970-01-01T07:22:37.626Z</time>
    </trkpt>
    <trkpt lat="56.474498" lon="60.803062">
        <ele>246.5</ele>
        <time>1970-01-01T07:22:38.626Z</time>
    </trkpt>
    <trkpt lat="56.474467" lon="60.803048">
        <ele>246.4</ele>
        <time>1970-01-01T07:22:39.626Z</time>
    </trkpt>
    <trkpt lat="56.474458" lon="60.80304">
        <ele>246.4</ele>
        <time>1970-01-01T07:22:40.626Z</time>
    </trkpt>
    <trkpt lat="56.474428" lon="60.803025">
        <ele>246.4</ele>
        <time>1970-01-01T07:22:41.626Z</time>
    </trkpt>
    <trkpt lat="56.474398" lon="60.803011">
        <ele>246.4</ele>
        <time>1970-01-01T07:22:42.626Z</time>
    </trkpt>
    <trkpt lat="56.474377" lon="60.802967">
        <ele>246.4</ele>
        <time>1970-01-01T07:22:43.626Z</time>
    </trkpt>
    <trkpt lat="56.474367" lon="60.802956">
        <ele>246.3</ele>
        <time>1970-01-01T07:22:44.626Z</time>
    </trkpt>
    <trkpt lat="56.474339" lon="60.802918">
        <ele>246.3</ele>
        <time>1970-01-01T07:22:45.626Z</time>
    </trkpt>
    <trkpt lat="56.47433" lon="60.802886">
        <ele>246.3</ele>
        <time>1970-01-01T07:22:46.626Z</time>
    </trkpt>
    <trkpt lat="56.474317" lon="60.802869">
        <ele>246.3</ele>
        <time>1970-01-01T07:22:47.626Z</time>
    </trkpt>
    <trkpt lat="56.474306" lon="60.802856">
        <ele>246.3</ele>
        <time>1970-01-01T07:22:48.626Z</time>
    </trkpt>
    <trkpt lat="56.474274" lon="60.802813">
        <ele>246.2</ele>
        <time>1970-01-01T07:22:49.626Z</time>
    </trkpt>
    <trkpt lat="56.47426" lon="60.802791">
        <ele>246.2</ele>
        <time>1970-01-01T07:22:50.626Z</time>
    </trkpt>
    <trkpt lat="56.474233" lon="60.802736">
        <ele>246.2</ele>
        <time>1970-01-01T07:22:51.626Z</time>
    </trkpt>
    <trkpt lat="56.474217" lon="60.802696">
        <ele>246.2</ele>
        <time>1970-01-01T07:22:52.626Z</time>
    </trkpt>
    <trkpt lat="56.474204" lon="60.802648">
        <ele>246.1</ele>
        <time>1970-01-01T07:22:53.626Z</time>
    </trkpt>
    <trkpt lat="56.474192" lon="60.802598">
        <ele>246.1</ele>
        <time>1970-01-01T07:22:54.626Z</time>
    </trkpt>
    <trkpt lat="56.474166" lon="60.802567">
        <ele>246.1</ele>
        <time>1970-01-01T07:22:55.626Z</time>
    </trkpt>
    <trkpt lat="56.474147" lon="60.802526">
        <ele>246.0</ele>
        <time>1970-01-01T07:22:56.626Z</time>
    </trkpt>
    <trkpt lat="56.474141" lon="60.802499">
        <ele>246.0</ele>
        <time>1970-01-01T07:22:57.626Z</time>
    </trkpt>
    <trkpt lat="56.474131" lon="60.802425">
        <ele>245.9</ele>
        <time>1970-01-01T07:22:58.626Z</time>
    </trkpt>
    <trkpt lat="56.474122" lon="60.802376">
        <ele>245.8</ele>
        <time>1970-01-01T07:22:59.626Z</time>
    </trkpt>
    <trkpt lat="56.474115" lon="60.802333">
        <ele>245.8</ele>
        <time>1970-01-01T07:23:00.626Z</time>
    </trkpt>
    <trkpt lat="56.474112" lon="60.802255">
        <ele>245.7</ele>
        <time>1970-01-01T07:23:01.626Z</time>
    </trkpt>
    <trkpt lat="56.474111" lon="60.802235">
        <ele>245.7</ele>
        <time>1970-01-01T07:23:02.626Z</time>
    </trkpt>
    <trkpt lat="56.474098" lon="60.802194">
        <ele>245.6</ele>
        <time>1970-01-01T07:23:03.626Z</time>
    </trkpt>
    <trkpt lat="56.47407" lon="60.802147">
        <ele>245.5</ele>
        <time>1970-01-01T07:23:04.626Z</time>
    </trkpt>
    <trkpt lat="56.474055" lon="60.802104">
        <ele>245.4</ele>
        <time>1970-01-01T07:23:05.626Z</time>
    </trkpt>
    <trkpt lat="56.474045" lon="60.802082">
        <ele>245.4</ele>
        <time>1970-01-01T07:23:06.626Z</time>
    </trkpt>
    <trkpt lat="56.474036" lon="60.802035">
        <ele>245.3</ele>
        <time>1970-01-01T07:23:07.626Z</time>
    </trkpt>
    <trkpt lat="56.474028" lon="60.801981">
        <ele>245.2</ele>
        <time>1970-01-01T07:23:08.626Z</time>
    </trkpt>
    <trkpt lat="56.474016" lon="60.801931">
        <ele>245.1</ele>
        <time>1970-01-01T07:23:09.626Z</time>
    </trkpt>
    <trkpt lat="56.473994" lon="60.801884">
        <ele>245.0</ele>
        <time>1970-01-01T07:23:10.626Z</time>
    </trkpt>
    <trkpt lat="56.473986" lon="60.801859">
        <ele>245.0</ele>
        <time>1970-01-01T07:23:11.626Z</time>
    </trkpt>
    <trkpt lat="56.473972" lon="60.801794">
        <ele>244.9</ele>
        <time>1970-01-01T07:23:12.626Z</time>
    </trkpt>
    <trkpt lat="56.473974" lon="60.801775">
        <ele>244.9</ele>
        <time>1970-01-01T07:23:13.626Z</time>
    </trkpt>
    <trkpt lat="56.473968" lon="60.801709">
        <ele>244.8</ele>
        <time>1970-01-01T07:23:14.626Z</time>
    </trkpt>
    <trkpt lat="56.473959" lon="60.801692">
        <ele>244.8</ele>
        <time>1970-01-01T07:23:15.626Z</time>
    </trkpt>
    <trkpt lat="56.473955" lon="60.80164">
        <ele>244.8</ele>
        <time>1970-01-01T07:23:16.626Z</time>
    </trkpt>
    <trkpt lat="56.473952" lon="60.801589">
        <ele>244.7</ele>
        <time>1970-01-01T07:23:17.626Z</time>
    </trkpt>
    <trkpt lat="56.473932" lon="60.801535">
        <ele>244.7</ele>
        <time>1970-01-01T07:23:18.626Z</time>
    </trkpt>
    <trkpt lat="56.473929" lon="60.80152">
        <ele>244.7</ele>
        <time>1970-01-01T07:23:19.626Z</time>
    </trkpt>
    <trkpt lat="56.473916" lon="60.801463">
        <ele>244.6</ele>
        <time>1970-01-01T07:23:20.626Z</time>
    </trkpt>
    <trkpt lat="56.473898" lon="60.801423">
        <ele>244.6</ele>
        <time>1970-01-01T07:23:21.626Z</time>
    </trkpt>
    <trkpt lat="56.473897" lon="60.801403">
        <ele>244.6</ele>
        <time>1970-01-01T07:23:22.626Z</time>
    </trkpt>
    <trkpt lat="56.473882" lon="60.801344">
        <ele>244.6</ele>
        <time>1970-01-01T07:23:23.626Z</time>
    </trkpt>
    <trkpt lat="56.473871" lon="60.801291">
        <ele>244.6</ele>
        <time>1970-01-01T07:23:24.626Z</time>
    </trkpt>
    <trkpt lat="56.473867" lon="60.801275">
        <ele>244.6</ele>
        <time>1970-01-01T07:23:25.626Z</time>
    </trkpt>
    <trkpt lat="56.473859" lon="60.801229">
        <ele>244.5</ele>
        <time>1970-01-01T07:23:26.626Z</time>
    </trkpt>
    <trkpt lat="56.47385" lon="60.801173">
        <ele>244.5</ele>
        <time>1970-01-01T07:23:27.626Z</time>
    </trkpt>
    <trkpt lat="56.473829" lon="60.801107">
        <ele>244.6</ele>
        <time>1970-01-01T07:23:28.626Z</time>
    </trkpt>
    <trkpt lat="56.473808" lon="60.801058">
        <ele>244.6</ele>
        <time>1970-01-01T07:23:29.626Z</time>
    </trkpt>
    <trkpt lat="56.473785" lon="60.800979">
        <ele>244.7</ele>
        <time>1970-01-01T07:23:30.626Z</time>
    </trkpt>
    <trkpt lat="56.473763" lon="60.800916">
        <ele>244.7</ele>
        <time>1970-01-01T07:23:31.626Z</time>
    </trkpt>
    <trkpt lat="56.473746" lon="60.800866">
        <ele>244.7</ele>
        <time>1970-01-01T07:23:32.626Z</time>
    </trkpt>
    <trkpt lat="56.473712" lon="60.800795">
        <ele>244.8</ele>
        <time>1970-01-01T07:23:33.626Z</time>
    </trkpt>
    <trkpt lat="56.473694" lon="60.800749">
        <ele>244.8</ele>
        <time>1970-01-01T07:23:34.626Z</time>
    </trkpt>
    <trkpt lat="56.473685" lon="60.800679">
        <ele>244.8</ele>
        <time>1970-01-01T07:23:35.626Z</time>
    </trkpt>
    <trkpt lat="56.473681" lon="60.800607">
        <ele>244.8</ele>
        <time>1970-01-01T07:23:36.626Z</time>
    </trkpt>
    <trkpt lat="56.473686" lon="60.800546">
        <ele>244.8</ele>
        <time>1970-01-01T07:23:37.626Z</time>
    </trkpt>
    <trkpt lat="56.473707" lon="60.800476">
        <ele>244.8</ele>
        <time>1970-01-01T07:23:38.626Z</time>
    </trkpt>
    <trkpt lat="56.473719" lon="60.800426">
        <ele>244.7</ele>
        <time>1970-01-01T07:23:39.626Z</time>
    </trkpt>
    <trkpt lat="56.473723" lon="60.800393">
        <ele>244.7</ele>
        <time>1970-01-01T07:23:40.626Z</time>
    </trkpt>
    <trkpt lat="56.473732" lon="60.800322">
        <ele>244.6</ele>
        <time>1970-01-01T07:23:41.626Z</time>
    </trkpt>
    <trkpt lat="56.473738" lon="60.80029">
        <ele>244.5</ele>
        <time>1970-01-01T07:23:43.626Z</time>
    </trkpt>
    <trkpt lat="56.473731" lon="60.80025">
        <ele>244.5</ele>
        <time>1970-01-01T07:23:44.626Z</time>
    </trkpt>
    <trkpt lat="56.473729" lon="60.800194">
        <ele>244.4</ele>
        <time>1970-01-01T07:23:45.626Z</time>
    </trkpt>
    <trkpt lat="56.473724" lon="60.800173">
        <ele>244.3</ele>
        <time>1970-01-01T07:23:46.626Z</time>
    </trkpt>
    <trkpt lat="56.473708" lon="60.800115">
        <ele>244.2</ele>
        <time>1970-01-01T07:23:47.626Z</time>
    </trkpt>
    <trkpt lat="56.473703" lon="60.800058">
        <ele>244.0</ele>
        <time>1970-01-01T07:23:48.626Z</time>
    </trkpt>
    <trkpt lat="56.473696" lon="60.800033">
        <ele>244.0</ele>
        <time>1970-01-01T07:23:49.626Z</time>
    </trkpt>
    <trkpt lat="56.473681" lon="60.799969">
        <ele>243.8</ele>
        <time>1970-01-01T07:23:50.626Z</time>
    </trkpt>
    <trkpt lat="56.473661" lon="60.799922">
        <ele>243.7</ele>
        <time>1970-01-01T07:23:51.626Z</time>
    </trkpt>
    <trkpt lat="56.473652" lon="60.799875">
        <ele>243.5</ele>
        <time>1970-01-01T07:23:52.626Z</time>
    </trkpt>
    <trkpt lat="56.473639" lon="60.799809">
        <ele>243.4</ele>
        <time>1970-01-01T07:23:53.626Z</time>
    </trkpt>
    <trkpt lat="56.473636" lon="60.799787">
        <ele>243.3</ele>
        <time>1970-01-01T07:23:54.626Z</time>
    </trkpt>
    <trkpt lat="56.473628" lon="60.79973">
        <ele>243.2</ele>
        <time>1970-01-01T07:23:55.626Z</time>
    </trkpt>
    <trkpt lat="56.473624" lon="60.799714">
        <ele>243.2</ele>
        <time>1970-01-01T07:23:56.626Z</time>
    </trkpt>
    <trkpt lat="56.47362" lon="60.799651">
        <ele>243.0</ele>
        <time>1970-01-01T07:23:57.626Z</time>
    </trkpt>
    <trkpt lat="56.473619" lon="60.799599">
        <ele>242.9</ele>
        <time>1970-01-01T07:23:58.626Z</time>
    </trkpt>
    <trkpt lat="56.473616" lon="60.799583">
        <ele>242.9</ele>
        <time>1970-01-01T07:23:59.626Z</time>
    </trkpt>
    <trkpt lat="56.473601" lon="60.799533">
        <ele>242.8</ele>
        <time>1970-01-01T07:24:00.626Z</time>
    </trkpt>
    <trkpt lat="56.473597" lon="60.799506">
        <ele>242.7</ele>
        <time>1970-01-01T07:24:01.626Z</time>
    </trkpt>
    <trkpt lat="56.473594" lon="60.799445">
        <ele>242.6</ele>
        <time>1970-01-01T07:24:02.626Z</time>
    </trkpt>
    <trkpt lat="56.473585" lon="60.799423">
        <ele>242.6</ele>
        <time>1970-01-01T07:24:03.626Z</time>
    </trkpt>
    <trkpt lat="56.473566" lon="60.799366">
        <ele>242.5</ele>
        <time>1970-01-01T07:24:04.626Z</time>
    </trkpt>
    <trkpt lat="56.473566" lon="60.799351">
        <ele>242.5</ele>
        <time>1970-01-01T07:24:05.626Z</time>
    </trkpt>
    <trkpt lat="56.473569" lon="60.799294">
        <ele>242.4</ele>
        <time>1970-01-01T07:24:06.626Z</time>
    </trkpt>
    <trkpt lat="56.473568" lon="60.799279">
        <ele>242.4</ele>
        <time>1970-01-01T07:24:07.626Z</time>
    </trkpt>
    <trkpt lat="56.473576" lon="60.799228">
        <ele>242.4</ele>
        <time>1970-01-01T07:24:08.626Z</time>
    </trkpt>
    <trkpt lat="56.473579" lon="60.799208">
        <ele>242.4</ele>
        <time>1970-01-01T07:24:09.626Z</time>
    </trkpt>
    <trkpt lat="56.473581" lon="60.799148">
        <ele>242.4</ele>
        <time>1970-01-01T07:24:10.626Z</time>
    </trkpt>
    <trkpt lat="56.473587" lon="60.799096">
        <ele>242.4</ele>
        <time>1970-01-01T07:24:11.626Z</time>
    </trkpt>
    <trkpt lat="56.473577" lon="60.799069">
        <ele>242.4</ele>
        <time>1970-01-01T07:24:12.626Z</time>
    </trkpt>
    <trkpt lat="56.473553" lon="60.799022">
        <ele>242.4</ele>
        <time>1970-01-01T07:24:13.626Z</time>
    </trkpt>
    <trkpt lat="56.473538" lon="60.799001">
        <ele>242.4</ele>
        <time>1970-01-01T07:24:14.626Z</time>
    </trkpt>
    <trkpt lat="56.473512" lon="60.798965">
        <ele>242.5</ele>
        <time>1970-01-01T07:24:15.626Z</time>
    </trkpt>
    <trkpt lat="56.473496" lon="60.798926">
        <ele>242.5</ele>
        <time>1970-01-01T07:24:16.626Z</time>
    </trkpt>
    <trkpt lat="56.473488" lon="60.7989">
        <ele>242.5</ele>
        <time>1970-01-01T07:24:17.626Z</time>
    </trkpt>
    <trkpt lat="56.473467" lon="60.798832">
        <ele>242.5</ele>
        <time>1970-01-01T07:24:18.626Z</time>
    </trkpt>
    <trkpt lat="56.473453" lon="60.798785">
        <ele>242.5</ele>
        <time>1970-01-01T07:24:19.626Z</time>
    </trkpt>
    <trkpt lat="56.47344" lon="60.798734">
        <ele>242.5</ele>
        <time>1970-01-01T07:24:20.626Z</time>
    </trkpt>
    <trkpt lat="56.473416" lon="60.798686">
        <ele>242.5</ele>
        <time>1970-01-01T07:24:21.626Z</time>
    </trkpt>
    <trkpt lat="56.473405" lon="60.798658">
        <ele>242.5</ele>
        <time>1970-01-01T07:24:22.626Z</time>
    </trkpt>
    <trkpt lat="56.473385" lon="60.798586">
        <ele>242.5</ele>
        <time>1970-01-01T07:24:23.626Z</time>
    </trkpt>
    <trkpt lat="56.473372" lon="60.798528">
        <ele>242.5</ele>
        <time>1970-01-01T07:24:24.626Z</time>
    </trkpt>
    <trkpt lat="56.473364" lon="60.798467">
        <ele>242.6</ele>
        <time>1970-01-01T07:24:25.626Z</time>
    </trkpt>
    <trkpt lat="56.473354" lon="60.798403">
        <ele>242.6</ele>
        <time>1970-01-01T07:24:26.626Z</time>
    </trkpt>
    <trkpt lat="56.473331" lon="60.798343">
        <ele>242.7</ele>
        <time>1970-01-01T07:24:27.626Z</time>
    </trkpt>
    <trkpt lat="56.473308" lon="60.798311">
        <ele>242.8</ele>
        <time>1970-01-01T07:24:28.626Z</time>
    </trkpt>
    <trkpt lat="56.473293" lon="60.798249">
        <ele>242.9</ele>
        <time>1970-01-01T07:24:29.626Z</time>
    </trkpt>
    <trkpt lat="56.473276" lon="60.798196">
        <ele>242.9</ele>
        <time>1970-01-01T07:24:30.626Z</time>
    </trkpt>
    <trkpt lat="56.473272" lon="60.798147">
        <ele>243.0</ele>
        <time>1970-01-01T07:24:31.626Z</time>
    </trkpt>
    <trkpt lat="56.473267" lon="60.798122">
        <ele>243.0</ele>
        <time>1970-01-01T07:24:32.626Z</time>
    </trkpt>
    <trkpt lat="56.473252" lon="60.798057">
        <ele>243.2</ele>
        <time>1970-01-01T07:24:33.626Z</time>
    </trkpt>
    <trkpt lat="56.473248" lon="60.798035">
        <ele>243.2</ele>
        <time>1970-01-01T07:24:34.626Z</time>
    </trkpt>
    <trkpt lat="56.473235" lon="60.797998">
        <ele>243.3</ele>
        <time>1970-01-01T07:24:35.626Z</time>
    </trkpt>
    <trkpt lat="56.473231" lon="60.797974">
        <ele>243.3</ele>
        <time>1970-01-01T07:24:36.626Z</time>
    </trkpt>
    <trkpt lat="56.473208" lon="60.797922">
        <ele>243.4</ele>
        <time>1970-01-01T07:24:37.626Z</time>
    </trkpt>
    <trkpt lat="56.473204" lon="60.797864">
        <ele>243.6</ele>
        <time>1970-01-01T07:24:38.626Z</time>
    </trkpt>
    <trkpt lat="56.473203" lon="60.797846">
        <ele>243.6</ele>
        <time>1970-01-01T07:24:39.626Z</time>
    </trkpt>
    <trkpt lat="56.473187" lon="60.797792">
        <ele>243.7</ele>
        <time>1970-01-01T07:24:40.626Z</time>
    </trkpt>
    <trkpt lat="56.473169" lon="60.797754">
        <ele>243.9</ele>
        <time>1970-01-01T07:24:41.626Z</time>
    </trkpt>
    <trkpt lat="56.473159" lon="60.797707">
        <ele>244.0</ele>
        <time>1970-01-01T07:24:42.626Z</time>
    </trkpt>
    <trkpt lat="56.473151" lon="60.797684">
        <ele>244.0</ele>
        <time>1970-01-01T07:24:43.626Z</time>
    </trkpt>
    <trkpt lat="56.473133" lon="60.797635">
        <ele>244.2</ele>
        <time>1970-01-01T07:24:44.626Z</time>
    </trkpt>
    <trkpt lat="56.473126" lon="60.797619">
        <ele>244.2</ele>
        <time>1970-01-01T07:24:45.626Z</time>
    </trkpt>
    <trkpt lat="56.473104" lon="60.79757">
        <ele>244.4</ele>
        <time>1970-01-01T07:24:46.626Z</time>
    </trkpt>
    <trkpt lat="56.473101" lon="60.797552">
        <ele>244.4</ele>
        <time>1970-01-01T07:24:47.626Z</time>
    </trkpt>
    <trkpt lat="56.473088" lon="60.797496">
        <ele>244.6</ele>
        <time>1970-01-01T07:24:48.626Z</time>
    </trkpt>
    <trkpt lat="56.473091" lon="60.797472">
        <ele>244.7</ele>
        <time>1970-01-01T07:24:49.626Z</time>
    </trkpt>
    <trkpt lat="56.473086" lon="60.797435">
        <ele>244.8</ele>
        <time>1970-01-01T07:24:50.626Z</time>
    </trkpt>
    <trkpt lat="56.473063" lon="60.797364">
        <ele>244.9</ele>
        <time>1970-01-01T07:24:51.626Z</time>
    </trkpt>
    <trkpt lat="56.473054" lon="60.797351">
        <ele>245.0</ele>
        <time>1970-01-01T07:24:52.626Z</time>
    </trkpt>
    <trkpt lat="56.473034" lon="60.797306">
        <ele>245.1</ele>
        <time>1970-01-01T07:24:53.626Z</time>
    </trkpt>
    <trkpt lat="56.473023" lon="60.797283">
        <ele>245.1</ele>
        <time>1970-01-01T07:24:54.626Z</time>
    </trkpt>
    <trkpt lat="56.473016" lon="60.797256">
        <ele>245.2</ele>
        <time>1970-01-01T07:24:55.626Z</time>
    </trkpt>
    <trkpt lat="56.473021" lon="60.797224">
        <ele>245.2</ele>
        <time>1970-01-01T07:24:56.626Z</time>
    </trkpt>
    <trkpt lat="56.473019" lon="60.797193">
        <ele>245.3</ele>
        <time>1970-01-01T07:24:57.626Z</time>
    </trkpt>
    <trkpt lat="56.472999" lon="60.797159">
        <ele>245.3</ele>
        <time>1970-01-01T07:24:58.626Z</time>
    </trkpt>
    <trkpt lat="56.472988" lon="60.797145">
        <ele>245.3</ele>
        <time>1970-01-01T07:24:59.626Z</time>
    </trkpt>
    <trkpt lat="56.472979" lon="60.797111">
        <ele>245.4</ele>
        <time>1970-01-01T07:25:00.626Z</time>
    </trkpt>
    <trkpt lat="56.472975" lon="60.797099">
        <ele>245.4</ele>
        <time>1970-01-01T07:25:01.626Z</time>
    </trkpt>
    <trkpt lat="56.472957" lon="60.797055">
        <ele>245.4</ele>
        <time>1970-01-01T07:25:02.626Z</time>
    </trkpt>
    <trkpt lat="56.472944" lon="60.797035">
        <ele>245.4</ele>
        <time>1970-01-01T07:25:03.626Z</time>
    </trkpt>
    <trkpt lat="56.472931" lon="60.797015">
        <ele>245.4</ele>
        <time>1970-01-01T07:25:04.626Z</time>
    </trkpt>
    <trkpt lat="56.472924" lon="60.797005">
        <ele>245.4</ele>
        <time>1970-01-01T07:25:05.626Z</time>
    </trkpt>
    <trkpt lat="56.472917" lon="60.796996">
        <ele>245.4</ele>
        <time>1970-01-01T07:25:06.626Z</time>
    </trkpt>
    <trkpt lat="56.472901" lon="60.796975">
        <ele>245.4</ele>
        <time>1970-01-01T07:25:07.626Z</time>
    </trkpt>
    <trkpt lat="56.472897" lon="60.796967">
        <ele>245.4</ele>
        <time>1970-01-01T07:25:08.626Z</time>
    </trkpt>
    <trkpt lat="56.472893" lon="60.796958">
        <ele>245.4</ele>
        <time>1970-01-01T07:25:09.626Z</time>
    </trkpt>
    <trkpt lat="56.472889" lon="60.796949">
        <ele>245.4</ele>
        <time>1970-01-01T07:25:10.626Z</time>
    </trkpt>
    <trkpt lat="56.47287" lon="60.796922">
        <ele>245.4</ele>
        <time>1970-01-01T07:25:11.626Z</time>
    </trkpt>
    <trkpt lat="56.472865" lon="60.796912">
        <ele>245.4</ele>
        <time>1970-01-01T07:25:12.626Z</time>
    </trkpt>
    <trkpt lat="56.472859" lon="60.796909">
        <ele>245.4</ele>
        <time>1970-01-01T07:25:13.626Z</time>
    </trkpt>
    <trkpt lat="56.47285" lon="60.796895">
        <ele>245.4</ele>
        <time>1970-01-01T07:25:14.626Z</time>
    </trkpt>
    <trkpt lat="56.472846" lon="60.796885">
        <ele>245.4</ele>
        <time>1970-01-01T07:25:15.626Z</time>
    </trkpt>
    <trkpt lat="56.472842" lon="60.796869">
        <ele>245.4</ele>
        <time>1970-01-01T07:25:16.626Z</time>
    </trkpt>
    <trkpt lat="56.472834" lon="60.796853">
        <ele>245.4</ele>
        <time>1970-01-01T07:25:17.626Z</time>
    </trkpt>
    <trkpt lat="56.472823" lon="60.796844">
        <ele>245.3</ele>
        <time>1970-01-01T07:25:18.626Z</time>
    </trkpt>
    <trkpt lat="56.472815" lon="60.79684">
        <ele>245.3</ele>
        <time>1970-01-01T07:25:19.626Z</time>
    </trkpt>
    <trkpt lat="56.47281" lon="60.796834">
        <ele>245.3</ele>
        <time>1970-01-01T07:25:20.626Z</time>
    </trkpt>
    <trkpt lat="56.472804" lon="60.796819">
        <ele>245.3</ele>
        <time>1970-01-01T07:25:21.626Z</time>
    </trkpt>
    <trkpt lat="56.472797" lon="60.796811">
        <ele>245.3</ele>
        <time>1970-01-01T07:25:22.626Z</time>
    </trkpt>
    <trkpt lat="56.472789" lon="60.796802">
        <ele>245.2</ele>
        <time>1970-01-01T07:25:23.626Z</time>
    </trkpt>
    <trkpt lat="56.47278" lon="60.796793">
        <ele>245.2</ele>
        <time>1970-01-01T07:25:24.626Z</time>
    </trkpt>
    <trkpt lat="56.472775" lon="60.796794">
        <ele>245.2</ele>
        <time>1970-01-01T07:25:25.626Z</time>
    </trkpt>
    <trkpt lat="56.472768" lon="60.796789">
        <ele>245.2</ele>
        <time>1970-01-01T07:25:26.626Z</time>
    </trkpt>
    <trkpt lat="56.472763" lon="60.796781">
        <ele>245.2</ele>
        <time>1970-01-01T07:25:27.626Z</time>
    </trkpt>
    <trkpt lat="56.472755" lon="60.796772">
        <ele>245.1</ele>
        <time>1970-01-01T07:25:28.626Z</time>
    </trkpt>
    <trkpt lat="56.472754" lon="60.796767">
        <ele>245.1</ele>
        <time>1970-01-01T07:25:29.626Z</time>
    </trkpt>
    <trkpt lat="56.472744" lon="60.796746">
        <ele>245.1</ele>
        <time>1970-01-01T07:25:30.626Z</time>
    </trkpt>
    <trkpt lat="56.472738" lon="60.796734">
        <ele>245.0</ele>
        <time>1970-01-01T07:25:31.626Z</time>
    </trkpt>
    <trkpt lat="56.472731" lon="60.796711">
        <ele>245.0</ele>
        <time>1970-01-01T07:25:32.626Z</time>
    </trkpt>
    <trkpt lat="56.472721" lon="60.796699">
        <ele>245.0</ele>
        <time>1970-01-01T07:25:33.626Z</time>
    </trkpt>
    <trkpt lat="56.472718" lon="60.796682">
        <ele>244.9</ele>
        <time>1970-01-01T07:25:34.626Z</time>
    </trkpt>
    <trkpt lat="56.472711" lon="60.796664">
        <ele>244.9</ele>
        <time>1970-01-01T07:25:35.626Z</time>
    </trkpt>
    <trkpt lat="56.472702" lon="60.796651">
        <ele>244.8</ele>
        <time>1970-01-01T07:25:36.626Z</time>
    </trkpt>
    <trkpt lat="56.472693" lon="60.796645">
        <ele>244.8</ele>
        <time>1970-01-01T07:25:37.626Z</time>
    </trkpt>
    <trkpt lat="56.472683" lon="60.79664">
        <ele>244.8</ele>
        <time>1970-01-01T07:25:38.626Z</time>
    </trkpt>
    <trkpt lat="56.472667" lon="60.796634">
        <ele>244.7</ele>
        <time>1970-01-01T07:25:39.626Z</time>
    </trkpt>
    <trkpt lat="56.472661" lon="60.796623">
        <ele>244.6</ele>
        <time>1970-01-01T07:25:40.626Z</time>
    </trkpt>
    <trkpt lat="56.472655" lon="60.796613">
        <ele>244.6</ele>
        <time>1970-01-01T07:25:41.626Z</time>
    </trkpt>
    <trkpt lat="56.472649" lon="60.796602">
        <ele>244.6</ele>
        <time>1970-01-01T07:25:42.626Z</time>
    </trkpt>
    <trkpt lat="56.472636" lon="60.79659">
        <ele>244.5</ele>
        <time>1970-01-01T07:25:43.626Z</time>
    </trkpt>
    <trkpt lat="56.47263" lon="60.796591">
        <ele>244.5</ele>
        <time>1970-01-01T07:25:44.626Z</time>
    </trkpt>
    <trkpt lat="56.472616" lon="60.796584">
        <ele>244.4</ele>
        <time>1970-01-01T07:25:45.626Z</time>
    </trkpt>
    <trkpt lat="56.472617" lon="60.796572">
        <ele>244.3</ele>
        <time>1970-01-01T07:25:46.626Z</time>
    </trkpt>
    <trkpt lat="56.472612" lon="60.796567">
        <ele>244.3</ele>
        <time>1970-01-01T07:25:47.626Z</time>
    </trkpt>
    <trkpt lat="56.472611" lon="60.796558">
        <ele>244.3</ele>
        <time>1970-01-01T07:25:49.626Z</time>
    </trkpt>
    <trkpt lat="56.472615" lon="60.796553">
        <ele>244.3</ele>
        <time>1970-01-01T07:25:50.626Z</time>
    </trkpt>
    <trkpt lat="56.472622" lon="60.796546">
        <ele>244.2</ele>
        <time>1970-01-01T07:25:51.626Z</time>
    </trkpt>
    <trkpt lat="56.472627" lon="60.79654">
        <ele>244.2</ele>
        <time>1970-01-01T07:25:52.626Z</time>
    </trkpt>
    <trkpt lat="56.472634" lon="60.796532">
        <ele>244.2</ele>
        <time>1970-01-01T07:25:53.626Z</time>
    </trkpt>
    <trkpt lat="56.472637" lon="60.796522">
        <ele>244.1</ele>
        <time>1970-01-01T07:25:54.626Z</time>
    </trkpt>
    <trkpt lat="56.472637" lon="60.796507">
        <ele>244.0</ele>
        <time>1970-01-01T07:25:55.626Z</time>
    </trkpt>
    <trkpt lat="56.472647" lon="60.796498">
        <ele>243.9</ele>
        <time>1970-01-01T07:25:56.626Z</time>
    </trkpt>
    <trkpt lat="56.472652" lon="60.796483">
        <ele>243.9</ele>
        <time>1970-01-01T07:25:57.626Z</time>
    </trkpt>
    <trkpt lat="56.472652" lon="60.796482">
        <ele>243.9</ele>
        <time>1970-01-01T07:25:58.626Z</time>
    </trkpt>
    <trkpt lat="56.472654" lon="60.796487">
        <ele>243.8</ele>
        <time>1970-01-01T07:25:59.626Z</time>
    </trkpt>
    <trkpt lat="56.472652" lon="60.796477">
        <ele>243.8</ele>
        <time>1970-01-01T07:26:00.626Z</time>
    </trkpt>
    <trkpt lat="56.472656" lon="60.796461">
        <ele>243.7</ele>
        <time>1970-01-01T07:26:01.626Z</time>
    </trkpt>
    <trkpt lat="56.472665" lon="60.796442">
        <ele>243.6</ele>
        <time>1970-01-01T07:26:02.626Z</time>
    </trkpt>
    <trkpt lat="56.472671" lon="60.796408">
        <ele>243.4</ele>
        <time>1970-01-01T07:26:03.626Z</time>
    </trkpt>
    <trkpt lat="56.472676" lon="60.796391">
        <ele>243.4</ele>
        <time>1970-01-01T07:26:04.626Z</time>
    </trkpt>
    <trkpt lat="56.472694" lon="60.79634">
        <ele>243.1</ele>
        <time>1970-01-01T07:26:05.626Z</time>
    </trkpt>
    <trkpt lat="56.472701" lon="60.796321">
        <ele>243.1</ele>
        <time>1970-01-01T07:26:06.626Z</time>
    </trkpt>
    <trkpt lat="56.472713" lon="60.79626">
        <ele>242.8</ele>
        <time>1970-01-01T07:26:07.626Z</time>
    </trkpt>
    <trkpt lat="56.472719" lon="60.796239">
        <ele>242.8</ele>
        <time>1970-01-01T07:26:08.626Z</time>
    </trkpt>
    <trkpt lat="56.472738" lon="60.796182">
        <ele>242.6</ele>
        <time>1970-01-01T07:26:09.626Z</time>
    </trkpt>
    <trkpt lat="56.472743" lon="60.796162">
        <ele>242.5</ele>
        <time>1970-01-01T07:26:10.626Z</time>
    </trkpt>
    <trkpt lat="56.472759" lon="60.7961">
        <ele>242.3</ele>
        <time>1970-01-01T07:26:11.626Z</time>
    </trkpt>
    <trkpt lat="56.472775" lon="60.796055">
        <ele>242.2</ele>
        <time>1970-01-01T07:26:12.626Z</time>
    </trkpt>
    <trkpt lat="56.472779" lon="60.796041">
        <ele>242.2</ele>
        <time>1970-01-01T07:26:13.626Z</time>
    </trkpt>
    <trkpt lat="56.472793" lon="60.795992">
        <ele>242.0</ele>
        <time>1970-01-01T07:26:14.626Z</time>
    </trkpt>
    <trkpt lat="56.472799" lon="60.79597">
        <ele>241.9</ele>
        <time>1970-01-01T07:26:15.626Z</time>
    </trkpt>
    <trkpt lat="56.472815" lon="60.795912">
        <ele>241.7</ele>
        <time>1970-01-01T07:26:16.626Z</time>
    </trkpt>
    <trkpt lat="56.472821" lon="60.795898">
        <ele>241.7</ele>
        <time>1970-01-01T07:26:17.626Z</time>
    </trkpt>
    <trkpt lat="56.472836" lon="60.795853">
        <ele>241.5</ele>
        <time>1970-01-01T07:26:18.626Z</time>
    </trkpt>
    <trkpt lat="56.472839" lon="60.795839">
        <ele>241.5</ele>
        <time>1970-01-01T07:26:19.626Z</time>
    </trkpt>
    <trkpt lat="56.472851" lon="60.795791">
        <ele>241.3</ele>
        <time>1970-01-01T07:26:20.626Z</time>
    </trkpt>
    <trkpt lat="56.472858" lon="60.795766">
        <ele>241.2</ele>
        <time>1970-01-01T07:26:21.626Z</time>
    </trkpt>
    <trkpt lat="56.472868" lon="60.795734">
        <ele>241.0</ele>
        <time>1970-01-01T07:26:22.626Z</time>
    </trkpt>
    <trkpt lat="56.472873" lon="60.795719">
        <ele>241.0</ele>
        <time>1970-01-01T07:26:23.626Z</time>
    </trkpt>
    <trkpt lat="56.472888" lon="60.795672">
        <ele>240.8</ele>
        <time>1970-01-01T07:26:24.626Z</time>
    </trkpt>
    <trkpt lat="56.472893" lon="60.795656">
        <ele>240.7</ele>
        <time>1970-01-01T07:26:25.626Z</time>
    </trkpt>
    <trkpt lat="56.472908" lon="60.795606">
        <ele>240.5</ele>
        <time>1970-01-01T07:26:26.626Z</time>
    </trkpt>
    <trkpt lat="56.472916" lon="60.79556">
        <ele>240.3</ele>
        <time>1970-01-01T07:26:27.626Z</time>
    </trkpt>
    <trkpt lat="56.472922" lon="60.795542">
        <ele>240.3</ele>
        <time>1970-01-01T07:26:28.626Z</time>
    </trkpt>
    <trkpt lat="56.472941" lon="60.795483">
        <ele>240.1</ele>
        <time>1970-01-01T07:26:29.626Z</time>
    </trkpt>
    <trkpt lat="56.472947" lon="60.795467">
        <ele>240.0</ele>
        <time>1970-01-01T07:26:30.626Z</time>
    </trkpt>
    <trkpt lat="56.472963" lon="60.795418">
        <ele>239.8</ele>
        <time>1970-01-01T07:26:31.626Z</time>
    </trkpt>
    <trkpt lat="56.472968" lon="60.7954">
        <ele>239.8</ele>
        <time>1970-01-01T07:26:32.626Z</time>
    </trkpt>
    <trkpt lat="56.472981" lon="60.795351">
        <ele>239.6</ele>
        <time>1970-01-01T07:26:33.626Z</time>
    </trkpt>
    <trkpt lat="56.472987" lon="60.795332">
        <ele>239.6</ele>
        <time>1970-01-01T07:26:34.626Z</time>
    </trkpt>
    <trkpt lat="56.473006" lon="60.795288">
        <ele>239.4</ele>
        <time>1970-01-01T07:26:35.626Z</time>
    </trkpt>
    <trkpt lat="56.473011" lon="60.795269">
        <ele>239.3</ele>
        <time>1970-01-01T07:26:36.626Z</time>
    </trkpt>
    <trkpt lat="56.473025" lon="60.79521">
        <ele>239.2</ele>
        <time>1970-01-01T07:26:37.626Z</time>
    </trkpt>
    <trkpt lat="56.473029" lon="60.795194">
        <ele>239.1</ele>
        <time>1970-01-01T07:26:38.626Z</time>
    </trkpt>
    <trkpt lat="56.473046" lon="60.795151">
        <ele>239.0</ele>
        <time>1970-01-01T07:26:39.626Z</time>
    </trkpt>
    <trkpt lat="56.473059" lon="60.795126">
        <ele>238.9</ele>
        <time>1970-01-01T07:26:40.626Z</time>
    </trkpt>
    <trkpt lat="56.473062" lon="60.795104">
        <ele>238.9</ele>
        <time>1970-01-01T07:26:41.626Z</time>
    </trkpt>
    <trkpt lat="56.473071" lon="60.795075">
        <ele>238.8</ele>
        <time>1970-01-01T07:26:42.626Z</time>
    </trkpt>
    <trkpt lat="56.473114" lon="60.795004">
        <ele>238.5</ele>
        <time>1970-01-01T07:28:23.626Z</time>
    </trkpt>
    <trkpt lat="56.473114" lon="60.795004">
        <ele>238.5</ele>
        <time>1970-01-01T07:28:24.626Z</time>
    </trkpt>
    <trkpt lat="56.473114" lon="60.795004">
        <ele>238.5</ele>
        <time>1970-01-01T07:28:25.626Z</time>
    </trkpt>
    <trkpt lat="56.473114" lon="60.795004">
        <ele>238.5</ele>
        <time>1970-01-01T07:28:26.626Z</time>
    </trkpt>
    <trkpt lat="56.473113" lon="60.795004">
        <ele>238.5</ele>
        <time>1970-01-01T07:28:27.626Z</time>
    </trkpt>
    <trkpt lat="56.473113" lon="60.795003">
        <ele>238.5</ele>
        <time>1970-01-01T07:28:28.626Z</time>
    </trkpt>
    <trkpt lat="56.473114" lon="60.795003">
        <ele>238.5</ele>
        <time>1970-01-01T07:28:29.626Z</time>
    </trkpt>
    <trkpt lat="56.473114" lon="60.795003">
        <ele>238.5</ele>
        <time>1970-01-01T07:28:30.626Z</time>
    </trkpt>
    <trkpt lat="56.473115" lon="60.794999">
        <ele>238.5</ele>
        <time>1970-01-01T07:28:31.626Z</time>
    </trkpt>
    <trkpt lat="56.473116" lon="60.795002">
        <ele>238.5</ele>
        <time>1970-01-01T07:28:32.626Z</time>
    </trkpt>
    <trkpt lat="56.473116" lon="60.795007">
        <ele>238.5</ele>
        <time>1970-01-01T07:28:33.626Z</time>
    </trkpt>
    <trkpt lat="56.473115" lon="60.795001">
        <ele>238.5</ele>
        <time>1970-01-01T07:28:34.626Z</time>
    </trkpt>
    <trkpt lat="56.473114" lon="60.794977">
        <ele>238.4</ele>
        <time>1970-01-01T07:28:35.626Z</time>
    </trkpt>
    <trkpt lat="56.473117" lon="60.794964">
        <ele>238.4</ele>
        <time>1970-01-01T07:28:36.626Z</time>
    </trkpt>
    <trkpt lat="56.473129" lon="60.794917">
        <ele>238.2</ele>
        <time>1970-01-01T07:28:37.626Z</time>
    </trkpt>
    <trkpt lat="56.473134" lon="60.794905">
        <ele>238.2</ele>
        <time>1970-01-01T07:28:38.626Z</time>
    </trkpt>
    <trkpt lat="56.473149" lon="60.794859">
        <ele>238.0</ele>
        <time>1970-01-01T07:28:39.626Z</time>
    </trkpt>
    <trkpt lat="56.473151" lon="60.794846">
        <ele>238.0</ele>
        <time>1970-01-01T07:28:40.626Z</time>
    </trkpt>
    <trkpt lat="56.473165" lon="60.794799">
        <ele>237.9</ele>
        <time>1970-01-01T07:28:41.626Z</time>
    </trkpt>
    <trkpt lat="56.473172" lon="60.794778">
        <ele>237.8</ele>
        <time>1970-01-01T07:28:42.626Z</time>
    </trkpt>
    <trkpt lat="56.473191" lon="60.794718">
        <ele>237.6</ele>
        <time>1970-01-01T07:28:43.626Z</time>
    </trkpt>
    <trkpt lat="56.473196" lon="60.794701">
        <ele>237.6</ele>
        <time>1970-01-01T07:28:44.626Z</time>
    </trkpt>
    <trkpt lat="56.473213" lon="60.794653">
        <ele>237.4</ele>
        <time>1970-01-01T07:28:45.626Z</time>
    </trkpt>
    <trkpt lat="56.473217" lon="60.79462">
        <ele>237.4</ele>
        <time>1970-01-01T07:28:46.626Z</time>
    </trkpt>
    <trkpt lat="56.473228" lon="60.7946">
        <ele>237.3</ele>
        <time>1970-01-01T07:28:47.626Z</time>
    </trkpt>
    <trkpt lat="56.473234" lon="60.794581">
        <ele>237.3</ele>
        <time>1970-01-01T07:28:48.626Z</time>
    </trkpt>
    <trkpt lat="56.473256" lon="60.794531">
        <ele>237.1</ele>
        <time>1970-01-01T07:28:49.626Z</time>
    </trkpt>
    <trkpt lat="56.473262" lon="60.79451">
        <ele>237.1</ele>
        <time>1970-01-01T07:28:50.626Z</time>
    </trkpt>
    <trkpt lat="56.473283" lon="60.79445">
        <ele>236.9</ele>
        <time>1970-01-01T07:28:51.626Z</time>
    </trkpt>
    <trkpt lat="56.47329" lon="60.794433">
        <ele>236.9</ele>
        <time>1970-01-01T07:28:52.626Z</time>
    </trkpt>
    <trkpt lat="56.473307" lon="60.794379">
        <ele>236.7</ele>
        <time>1970-01-01T07:28:53.626Z</time>
    </trkpt>
    <trkpt lat="56.473318" lon="60.794333">
        <ele>236.6</ele>
        <time>1970-01-01T07:28:54.626Z</time>
    </trkpt>
    <trkpt lat="56.473374" lon="60.794105">
        <ele>236.1</ele>
        <time>1970-01-01T07:29:53.626Z</time>
    </trkpt>
    <trkpt lat="56.473372" lon="60.7941">
        <ele>236.1</ele>
        <time>1970-01-01T07:29:54.626Z</time>
    </trkpt>
    <trkpt lat="56.473373" lon="60.794097">
        <ele>236.1</ele>
        <time>1970-01-01T07:29:55.626Z</time>
    </trkpt>
    <trkpt lat="56.473376" lon="60.7941">
        <ele>236.1</ele>
        <time>1970-01-01T07:29:56.626Z</time>
    </trkpt>
    <trkpt lat="56.473377" lon="60.7941">
        <ele>236.0</ele>
        <time>1970-01-01T07:29:57.626Z</time>
    </trkpt>
    <trkpt lat="56.473376" lon="60.794098">
        <ele>236.0</ele>
        <time>1970-01-01T07:29:58.626Z</time>
    </trkpt>
    <trkpt lat="56.473377" lon="60.794096">
        <ele>236.0</ele>
        <time>1970-01-01T07:29:59.626Z</time>
    </trkpt>
    <trkpt lat="56.473378" lon="60.794101">
        <ele>236.0</ele>
        <time>1970-01-01T07:30:01.626Z</time>
    </trkpt>
    <trkpt lat="56.473379" lon="60.794099">
        <ele>236.0</ele>
        <time>1970-01-01T07:30:02.626Z</time>
    </trkpt>
    <trkpt lat="56.473377" lon="60.79411">
        <ele>236.0</ele>
        <time>1970-01-01T07:30:03.626Z</time>
    </trkpt>
    <trkpt lat="56.473382" lon="60.794108">
        <ele>236.0</ele>
        <time>1970-01-01T07:30:04.626Z</time>
    </trkpt>
    <trkpt lat="56.473386" lon="60.794097">
        <ele>236.0</ele>
        <time>1970-01-01T07:30:05.626Z</time>
    </trkpt>
    <trkpt lat="56.473389" lon="60.794059">
        <ele>235.9</ele>
        <time>1970-01-01T07:30:06.626Z</time>
    </trkpt>
    <trkpt lat="56.47339" lon="60.794034">
        <ele>235.9</ele>
        <time>1970-01-01T07:30:07.626Z</time>
    </trkpt>
    <trkpt lat="56.473389" lon="60.794007">
        <ele>235.8</ele>
        <time>1970-01-01T07:30:08.626Z</time>
    </trkpt>
    <trkpt lat="56.47338" lon="60.793973">
        <ele>235.7</ele>
        <time>1970-01-01T07:30:09.626Z</time>
    </trkpt>
    <trkpt lat="56.473373" lon="60.793946">
        <ele>235.7</ele>
        <time>1970-01-01T07:30:10.626Z</time>
    </trkpt>
    <trkpt lat="56.473365" lon="60.793918">
        <ele>235.6</ele>
        <time>1970-01-01T07:30:11.626Z</time>
    </trkpt>
    <trkpt lat="56.47336" lon="60.793902">
        <ele>235.6</ele>
        <time>1970-01-01T07:30:12.626Z</time>
    </trkpt>
    <trkpt lat="56.473343" lon="60.793851">
        <ele>235.5</ele>
        <time>1970-01-01T07:30:13.626Z</time>
    </trkpt>
    <trkpt lat="56.473332" lon="60.793803">
        <ele>235.4</ele>
        <time>1970-01-01T07:30:14.626Z</time>
    </trkpt>
    <trkpt lat="56.473328" lon="60.79379">
        <ele>235.3</ele>
        <time>1970-01-01T07:30:15.626Z</time>
    </trkpt>
    <trkpt lat="56.473314" lon="60.793742">
        <ele>235.4</ele>
        <time>1970-01-01T07:30:16.626Z</time>
    </trkpt>
    <trkpt lat="56.473305" lon="60.793721">
        <ele>235.4</ele>
        <time>1970-01-01T07:30:17.626Z</time>
    </trkpt>
    <trkpt lat="56.473288" lon="60.793671">
        <ele>235.4</ele>
        <time>1970-01-01T07:30:18.626Z</time>
    </trkpt>
    <trkpt lat="56.473288" lon="60.793614">
        <ele>235.4</ele>
        <time>1970-01-01T07:30:19.626Z</time>
    </trkpt>
    <trkpt lat="56.473293" lon="60.79355">
        <ele>235.4</ele>
        <time>1970-01-01T07:30:20.626Z</time>
    </trkpt>
    <trkpt lat="56.473296" lon="60.793487">
        <ele>235.5</ele>
        <time>1970-01-01T07:30:21.626Z</time>
    </trkpt>
    <trkpt lat="56.473306" lon="60.793428">
        <ele>235.5</ele>
        <time>1970-01-01T07:30:22.626Z</time>
    </trkpt>
    <trkpt lat="56.473318" lon="60.793362">
        <ele>235.6</ele>
        <time>1970-01-01T07:30:23.626Z</time>
    </trkpt>
    <trkpt lat="56.473329" lon="60.793277">
        <ele>235.7</ele>
        <time>1970-01-01T07:30:24.626Z</time>
    </trkpt>
    <trkpt lat="56.47335" lon="60.793157">
        <ele>235.9</ele>
        <time>1970-01-01T07:30:25.626Z</time>
    </trkpt>
    <trkpt lat="56.473367" lon="60.793049">
        <ele>236.1</ele>
        <time>1970-01-01T07:30:26.626Z</time>
    </trkpt>
    <trkpt lat="56.473384" lon="60.792932">
        <ele>236.4</ele>
        <time>1970-01-01T07:30:27.626Z</time>
    </trkpt>
    <trkpt lat="56.473392" lon="60.792812">
        <ele>236.7</ele>
        <time>1970-01-01T07:30:28.626Z</time>
    </trkpt>
    <trkpt lat="56.47341" lon="60.79269">
        <ele>237.1</ele>
        <time>1970-01-01T07:30:29.626Z</time>
    </trkpt>
    <trkpt lat="56.473428" lon="60.792571">
        <ele>237.5</ele>
        <time>1970-01-01T07:30:30.626Z</time>
    </trkpt>
    <trkpt lat="56.473452" lon="60.79246">
        <ele>237.8</ele>
        <time>1970-01-01T07:30:31.626Z</time>
    </trkpt>
    <trkpt lat="56.473457" lon="60.792355">
        <ele>238.1</ele>
        <time>1970-01-01T07:30:32.626Z</time>
    </trkpt>
    <trkpt lat="56.473465" lon="60.792241">
        <ele>238.4</ele>
        <time>1970-01-01T07:30:33.626Z</time>
    </trkpt>
    <trkpt lat="56.47348" lon="60.792122">
        <ele>238.7</ele>
        <time>1970-01-01T07:30:34.626Z</time>
    </trkpt>
    <trkpt lat="56.473496" lon="60.792004">
        <ele>239.0</ele>
        <time>1970-01-01T07:30:35.626Z</time>
    </trkpt>
    <trkpt lat="56.473512" lon="60.791896">
        <ele>239.3</ele>
        <time>1970-01-01T07:30:36.626Z</time>
    </trkpt>
    <trkpt lat="56.473518" lon="60.791788">
        <ele>239.6</ele>
        <time>1970-01-01T07:30:37.626Z</time>
    </trkpt>
    <trkpt lat="56.473526" lon="60.791671">
        <ele>240.0</ele>
        <time>1970-01-01T07:30:38.626Z</time>
    </trkpt>
    <trkpt lat="56.473535" lon="60.79155">
        <ele>240.3</ele>
        <time>1970-01-01T07:30:39.626Z</time>
    </trkpt>
    <trkpt lat="56.473553" lon="60.791453">
        <ele>240.6</ele>
        <time>1970-01-01T07:30:40.626Z</time>
    </trkpt>
    <trkpt lat="56.473566" lon="60.791348">
        <ele>240.9</ele>
        <time>1970-01-01T07:30:41.626Z</time>
    </trkpt>
    <trkpt lat="56.473586" lon="60.791254">
        <ele>241.2</ele>
        <time>1970-01-01T07:30:42.626Z</time>
    </trkpt>
    <trkpt lat="56.473598" lon="60.791141">
        <ele>241.5</ele>
        <time>1970-01-01T07:30:43.626Z</time>
    </trkpt>
    <trkpt lat="56.473613" lon="60.791028">
        <ele>241.9</ele>
        <time>1970-01-01T07:30:44.626Z</time>
    </trkpt>
    <trkpt lat="56.473616" lon="60.79092">
        <ele>242.3</ele>
        <time>1970-01-01T07:30:45.626Z</time>
    </trkpt>
    <trkpt lat="56.473615" lon="60.790824">
        <ele>242.7</ele>
        <time>1970-01-01T07:30:46.626Z</time>
    </trkpt>
    <trkpt lat="56.473612" lon="60.790721">
        <ele>243.1</ele>
        <time>1970-01-01T07:30:47.626Z</time>
    </trkpt>
    <trkpt lat="56.473628" lon="60.79061">
        <ele>243.5</ele>
        <time>1970-01-01T07:30:48.626Z</time>
    </trkpt>
    <trkpt lat="56.473622" lon="60.790492">
        <ele>244.0</ele>
        <time>1970-01-01T07:30:49.626Z</time>
    </trkpt>
    <trkpt lat="56.47362" lon="60.790385">
        <ele>244.4</ele>
        <time>1970-01-01T07:30:50.626Z</time>
    </trkpt>
    <trkpt lat="56.47361" lon="60.790257">
        <ele>244.9</ele>
        <time>1970-01-01T07:30:51.626Z</time>
    </trkpt>
    <trkpt lat="56.473599" lon="60.790141">
        <ele>245.3</ele>
        <time>1970-01-01T07:30:52.626Z</time>
    </trkpt>
    <trkpt lat="56.473592" lon="60.790014">
        <ele>245.9</ele>
        <time>1970-01-01T07:30:53.626Z</time>
    </trkpt>
    <trkpt lat="56.473598" lon="60.789898">
        <ele>246.4</ele>
        <time>1970-01-01T07:30:54.626Z</time>
    </trkpt>
    <trkpt lat="56.473589" lon="60.789786">
        <ele>246.9</ele>
        <time>1970-01-01T07:30:55.626Z</time>
    </trkpt>
    <trkpt lat="56.473575" lon="60.789674">
        <ele>247.4</ele>
        <time>1970-01-01T07:30:56.626Z</time>
    </trkpt>
    <trkpt lat="56.473558" lon="60.789566">
        <ele>247.9</ele>
        <time>1970-01-01T07:30:57.626Z</time>
    </trkpt>
    <trkpt lat="56.473544" lon="60.789457">
        <ele>248.4</ele>
        <time>1970-01-01T07:30:58.626Z</time>
    </trkpt>
    <trkpt lat="56.473529" lon="60.78935">
        <ele>248.8</ele>
        <time>1970-01-01T07:30:59.626Z</time>
    </trkpt>
    <trkpt lat="56.473516" lon="60.789253">
        <ele>249.3</ele>
        <time>1970-01-01T07:31:00.626Z</time>
    </trkpt>
    <trkpt lat="56.473499" lon="60.789142">
        <ele>249.8</ele>
        <time>1970-01-01T07:31:01.626Z</time>
    </trkpt>
    <trkpt lat="56.473487" lon="60.789052">
        <ele>250.2</ele>
        <time>1970-01-01T07:31:02.626Z</time>
    </trkpt>
    <trkpt lat="56.473469" lon="60.78896">
        <ele>250.6</ele>
        <time>1970-01-01T07:31:03.626Z</time>
    </trkpt>
    <trkpt lat="56.473456" lon="60.788869">
        <ele>251.1</ele>
        <time>1970-01-01T07:31:04.626Z</time>
    </trkpt>
    <trkpt lat="56.473443" lon="60.788809">
        <ele>251.3</ele>
        <time>1970-01-01T07:31:05.626Z</time>
    </trkpt>
    <trkpt lat="56.473434" lon="60.788773">
        <ele>251.4</ele>
        <time>1970-01-01T07:31:06.626Z</time>
    </trkpt>
    <trkpt lat="56.473411" lon="60.788698">
        <ele>252.4</ele>
        <time>1970-01-01T07:31:07.626Z</time>
    </trkpt>
    <trkpt lat="56.473385" lon="60.788652">
        <ele>253.4</ele>
        <time>1970-01-01T07:31:08.626Z</time>
    </trkpt>
    <trkpt lat="56.47336" lon="60.788617">
        <ele>253.4</ele>
        <time>1970-01-01T07:31:09.626Z</time>
    </trkpt>
    <trkpt lat="56.47333" lon="60.788583">
        <ele>253.4</ele>
        <time>1970-01-01T07:31:10.626Z</time>
    </trkpt>
    <trkpt lat="56.473294" lon="60.788567">
        <ele>254.4</ele>
        <time>1970-01-01T07:31:11.626Z</time>
    </trkpt>
    <trkpt lat="56.473259" lon="60.788534">
        <ele>255.4</ele>
        <time>1970-01-01T07:31:12.626Z</time>
    </trkpt>
    <trkpt lat="56.473231" lon="60.788508">
        <ele>255.4</ele>
        <time>1970-01-01T07:31:13.626Z</time>
    </trkpt>
    <trkpt lat="56.473203" lon="60.788491">
        <ele>256.4</ele>
        <time>1970-01-01T07:31:14.626Z</time>
    </trkpt>
    <trkpt lat="56.473174" lon="60.78846">
        <ele>256.4</ele>
        <time>1970-01-01T07:31:15.626Z</time>
    </trkpt>
    <trkpt lat="56.473157" lon="60.788443">
        <ele>256.4</ele>
        <time>1970-01-01T07:31:16.626Z</time>
    </trkpt>
    <trkpt lat="56.473115" lon="60.788405">
        <ele>256.4</ele>
        <time>1970-01-01T07:31:17.626Z</time>
    </trkpt>
    <trkpt lat="56.473103" lon="60.7884">
        <ele>256.4</ele>
        <time>1970-01-01T07:31:18.626Z</time>
    </trkpt>
    <trkpt lat="56.473066" lon="60.788386">
        <ele>256.4</ele>
        <time>1970-01-01T07:31:19.626Z</time>
    </trkpt>
    <trkpt lat="56.473037" lon="60.788367">
        <ele>257.4</ele>
        <time>1970-01-01T07:31:20.626Z</time>
    </trkpt>
    <trkpt lat="56.473009" lon="60.788348">
        <ele>257.4</ele>
        <time>1970-01-01T07:31:21.626Z</time>
    </trkpt>
    <trkpt lat="56.472982" lon="60.788339">
        <ele>257.4</ele>
        <time>1970-01-01T07:31:22.626Z</time>
    </trkpt>
    <trkpt lat="56.472954" lon="60.78833">
        <ele>257.4</ele>
        <time>1970-01-01T07:31:23.626Z</time>
    </trkpt>
    <trkpt lat="56.472922" lon="60.788318">
        <ele>257.4</ele>
        <time>1970-01-01T07:31:24.626Z</time>
    </trkpt>
    <trkpt lat="56.472907" lon="60.788319">
        <ele>257.4</ele>
        <time>1970-01-01T07:31:25.626Z</time>
    </trkpt>
    <trkpt lat="56.472867" lon="60.788313">
        <ele>257.4</ele>
        <time>1970-01-01T07:31:26.626Z</time>
    </trkpt>
    <trkpt lat="56.472833" lon="60.788306">
        <ele>257.4</ele>
        <time>1970-01-01T07:31:27.626Z</time>
    </trkpt>
    <trkpt lat="56.472803" lon="60.788301">
        <ele>257.4</ele>
        <time>1970-01-01T07:31:28.626Z</time>
    </trkpt>
    <trkpt lat="56.472771" lon="60.788282">
        <ele>257.4</ele>
        <time>1970-01-01T07:31:29.626Z</time>
    </trkpt>
    <trkpt lat="56.472736" lon="60.788272">
        <ele>257.4</ele>
        <time>1970-01-01T07:31:30.626Z</time>
    </trkpt>
    <trkpt lat="56.472726" lon="60.788269">
        <ele>257.4</ele>
        <time>1970-01-01T07:31:31.626Z</time>
    </trkpt>
    <trkpt lat="56.47269" lon="60.788264">
        <ele>257.4</ele>
        <time>1970-01-01T07:31:32.626Z</time>
    </trkpt>
    <trkpt lat="56.472655" lon="60.788255">
        <ele>257.4</ele>
        <time>1970-01-01T07:31:33.626Z</time>
    </trkpt>
    <trkpt lat="56.47264" lon="60.788253">
        <ele>257.4</ele>
        <time>1970-01-01T07:31:34.626Z</time>
    </trkpt>
    <trkpt lat="56.472601" lon="60.788242">
        <ele>258.5</ele>
        <time>1970-01-01T07:31:35.626Z</time>
    </trkpt>
    <trkpt lat="56.472573" lon="60.78823">
        <ele>258.5</ele>
        <time>1970-01-01T07:31:36.626Z</time>
    </trkpt>
    <trkpt lat="56.472563" lon="60.788228">
        <ele>258.5</ele>
        <time>1970-01-01T07:31:37.626Z</time>
    </trkpt>
    <trkpt lat="56.472534" lon="60.788217">
        <ele>258.5</ele>
        <time>1970-01-01T07:31:38.626Z</time>
    </trkpt>
    <trkpt lat="56.4725" lon="60.788206">
        <ele>258.5</ele>
        <time>1970-01-01T07:31:39.626Z</time>
    </trkpt>
    <trkpt lat="56.47249" lon="60.788203">
        <ele>258.5</ele>
        <time>1970-01-01T07:31:40.626Z</time>
    </trkpt>
    <trkpt lat="56.472454" lon="60.788192">
        <ele>258.5</ele>
        <time>1970-01-01T07:31:41.626Z</time>
    </trkpt>
    <trkpt lat="56.472414" lon="60.788158">
        <ele>259.5</ele>
        <time>1970-01-01T07:31:42.626Z</time>
    </trkpt>
    <trkpt lat="56.472402" lon="60.788142">
        <ele>259.5</ele>
        <time>1970-01-01T07:31:43.626Z</time>
    </trkpt>
    <trkpt lat="56.472367" lon="60.788101">
        <ele>259.5</ele>
        <time>1970-01-01T07:31:44.626Z</time>
    </trkpt>
    <trkpt lat="56.472341" lon="60.788072">
        <ele>259.5</ele>
        <time>1970-01-01T07:31:45.626Z</time>
    </trkpt>
    <trkpt lat="56.472318" lon="60.788045">
        <ele>259.5</ele>
        <time>1970-01-01T07:31:46.626Z</time>
    </trkpt>
    <trkpt lat="56.472311" lon="60.78803">
        <ele>259.5</ele>
        <time>1970-01-01T07:31:47.626Z</time>
    </trkpt>
    <trkpt lat="56.472285" lon="60.787988">
        <ele>259.5</ele>
        <time>1970-01-01T07:31:48.626Z</time>
    </trkpt>
    <trkpt lat="56.472279" lon="60.787971">
        <ele>259.5</ele>
        <time>1970-01-01T07:31:49.626Z</time>
    </trkpt>
    <trkpt lat="56.472259" lon="60.787917">
        <ele>259.5</ele>
        <time>1970-01-01T07:31:50.626Z</time>
    </trkpt>
    <trkpt lat="56.472244" lon="60.787869">
        <ele>259.5</ele>
        <time>1970-01-01T07:31:51.626Z</time>
    </trkpt>
    <trkpt lat="56.472228" lon="60.787825">
        <ele>259.5</ele>
        <time>1970-01-01T07:31:52.626Z</time>
    </trkpt>
    <trkpt lat="56.472222" lon="60.787807">
        <ele>259.6</ele>
        <time>1970-01-01T07:31:53.626Z</time>
    </trkpt>
    <trkpt lat="56.472204" lon="60.78776">
        <ele>259.8</ele>
        <time>1970-01-01T07:31:54.626Z</time>
    </trkpt>
    <trkpt lat="56.472199" lon="60.787746">
        <ele>259.8</ele>
        <time>1970-01-01T07:31:55.626Z</time>
    </trkpt>
    <trkpt lat="56.472181" lon="60.787693">
        <ele>260.0</ele>
        <time>1970-01-01T07:31:56.626Z</time>
    </trkpt>
    <trkpt lat="56.472179" lon="60.787671">
        <ele>260.1</ele>
        <time>1970-01-01T07:31:57.626Z</time>
    </trkpt>
    <trkpt lat="56.472169" lon="60.787611">
        <ele>260.3</ele>
        <time>1970-01-01T07:31:58.626Z</time>
    </trkpt>
    <trkpt lat="56.47216" lon="60.78759">
        <ele>260.4</ele>
        <time>1970-01-01T07:31:59.626Z</time>
    </trkpt>
    <trkpt lat="56.472151" lon="60.78756">
        <ele>260.5</ele>
        <time>1970-01-01T07:32:00.626Z</time>
    </trkpt>
    <trkpt lat="56.472149" lon="60.787539">
        <ele>260.6</ele>
        <time>1970-01-01T07:32:01.626Z</time>
    </trkpt>
    <trkpt lat="56.472144" lon="60.787483">
        <ele>260.7</ele>
        <time>1970-01-01T07:32:02.626Z</time>
    </trkpt>
    <trkpt lat="56.472144" lon="60.787467">
        <ele>260.8</ele>
        <time>1970-01-01T07:32:03.626Z</time>
    </trkpt>
    <trkpt lat="56.472146" lon="60.787417">
        <ele>261.0</ele>
        <time>1970-01-01T07:32:04.626Z</time>
    </trkpt>
    <trkpt lat="56.472149" lon="60.787382">
        <ele>261.1</ele>
        <time>1970-01-01T07:32:05.626Z</time>
    </trkpt>
    <trkpt lat="56.472143" lon="60.78736">
        <ele>261.2</ele>
        <time>1970-01-01T07:32:07.626Z</time>
    </trkpt>
    <trkpt lat="56.472138" lon="60.787332">
        <ele>261.3</ele>
        <time>1970-01-01T07:32:08.626Z</time>
    </trkpt>
    <trkpt lat="56.472127" lon="60.787305">
        <ele>261.4</ele>
        <time>1970-01-01T07:32:09.626Z</time>
    </trkpt>
    <trkpt lat="56.472118" lon="60.787296">
        <ele>261.4</ele>
        <time>1970-01-01T07:32:10.626Z</time>
    </trkpt>
    <trkpt lat="56.472092" lon="60.787263">
        <ele>261.6</ele>
        <time>1970-01-01T07:32:11.626Z</time>
    </trkpt>
    <trkpt lat="56.47208" lon="60.787256">
        <ele>261.7</ele>
        <time>1970-01-01T07:32:12.626Z</time>
    </trkpt>
    <trkpt lat="56.472049" lon="60.787247">
        <ele>261.9</ele>
        <time>1970-01-01T07:32:13.626Z</time>
    </trkpt>
    <trkpt lat="56.472039" lon="60.787244">
        <ele>261.9</ele>
        <time>1970-01-01T07:32:14.626Z</time>
    </trkpt>
    <trkpt lat="56.472005" lon="60.787243">
        <ele>264.0</ele>
        <time>1970-01-01T07:32:15.626Z</time>
    </trkpt>
    <trkpt lat="56.471994" lon="60.78724">
        <ele>264.0</ele>
        <time>1970-01-01T07:32:16.626Z</time>
    </trkpt>
    <trkpt lat="56.47196" lon="60.787229">
        <ele>263.9</ele>
        <time>1970-01-01T07:32:17.626Z</time>
    </trkpt>
    <trkpt lat="56.471933" lon="60.787219">
        <ele>263.8</ele>
        <time>1970-01-01T07:32:18.626Z</time>
    </trkpt>
    <trkpt lat="56.471909" lon="60.787206">
        <ele>263.8</ele>
        <time>1970-01-01T07:32:19.626Z</time>
    </trkpt>
    <trkpt lat="56.471883" lon="60.787192">
        <ele>263.7</ele>
        <time>1970-01-01T07:32:20.626Z</time>
    </trkpt>
    <trkpt lat="56.471831" lon="60.787164">
        <ele>263.6</ele>
        <time>1970-01-01T07:32:21.626Z</time>
    </trkpt>
    <trkpt lat="56.471802" lon="60.787149">
        <ele>263.6</ele>
        <time>1970-01-01T07:32:22.626Z</time>
    </trkpt>
    <trkpt lat="56.47179" lon="60.787145">
        <ele>263.5</ele>
        <time>1970-01-01T07:32:23.626Z</time>
    </trkpt>
    <trkpt lat="56.471753" lon="60.787127">
        <ele>263.4</ele>
        <time>1970-01-01T07:32:24.626Z</time>
    </trkpt>
    <trkpt lat="56.471727" lon="60.787109">
        <ele>263.4</ele>
        <time>1970-01-01T07:32:25.626Z</time>
    </trkpt>
    <trkpt lat="56.471712" lon="60.787109">
        <ele>263.4</ele>
        <time>1970-01-01T07:32:26.626Z</time>
    </trkpt>
    <trkpt lat="56.471678" lon="60.787096">
        <ele>263.3</ele>
        <time>1970-01-01T07:32:27.626Z</time>
    </trkpt>
    <trkpt lat="56.471651" lon="60.787076">
        <ele>263.2</ele>
        <time>1970-01-01T07:32:28.626Z</time>
    </trkpt>
    <trkpt lat="56.471641" lon="60.787073">
        <ele>263.2</ele>
        <time>1970-01-01T07:32:29.626Z</time>
    </trkpt>
    <trkpt lat="56.471606" lon="60.787055">
        <ele>263.1</ele>
        <time>1970-01-01T07:32:30.626Z</time>
    </trkpt>
    <trkpt lat="56.47158" lon="60.787045">
        <ele>263.0</ele>
        <time>1970-01-01T07:32:31.626Z</time>
    </trkpt>
    <trkpt lat="56.471549" lon="60.787036">
        <ele>262.9</ele>
        <time>1970-01-01T07:32:32.626Z</time>
    </trkpt>
    <trkpt lat="56.471517" lon="60.787024">
        <ele>262.9</ele>
        <time>1970-01-01T07:32:33.626Z</time>
    </trkpt>
    <trkpt lat="56.471489" lon="60.787025">
        <ele>262.8</ele>
        <time>1970-01-01T07:32:34.626Z</time>
    </trkpt>
    <trkpt lat="56.471457" lon="60.78702">
        <ele>262.7</ele>
        <time>1970-01-01T07:32:35.626Z</time>
    </trkpt>
    <trkpt lat="56.471444" lon="60.787012">
        <ele>262.7</ele>
        <time>1970-01-01T07:32:36.626Z</time>
    </trkpt>
    <trkpt lat="56.47141" lon="60.786991">
        <ele>262.6</ele>
        <time>1970-01-01T07:32:37.626Z</time>
    </trkpt>
    <trkpt lat="56.471382" lon="60.786986">
        <ele>262.5</ele>
        <time>1970-01-01T07:32:38.626Z</time>
    </trkpt>
    <trkpt lat="56.471354" lon="60.786975">
        <ele>262.5</ele>
        <time>1970-01-01T07:32:39.626Z</time>
    </trkpt>
    <trkpt lat="56.471325" lon="60.786967">
        <ele>262.4</ele>
        <time>1970-01-01T07:32:40.626Z</time>
    </trkpt>
    <trkpt lat="56.471309" lon="60.786962">
        <ele>262.4</ele>
        <time>1970-01-01T07:32:41.626Z</time>
    </trkpt>
    <trkpt lat="56.471271" lon="60.786949">
        <ele>262.3</ele>
        <time>1970-01-01T07:32:42.626Z</time>
    </trkpt>
    <trkpt lat="56.471241" lon="60.786942">
        <ele>262.3</ele>
        <time>1970-01-01T07:32:43.626Z</time>
    </trkpt>
    <trkpt lat="56.471213" lon="60.786929">
        <ele>262.2</ele>
        <time>1970-01-01T07:32:44.626Z</time>
    </trkpt>
    <trkpt lat="56.471184" lon="60.786919">
        <ele>262.2</ele>
        <time>1970-01-01T07:32:45.626Z</time>
    </trkpt>
    <trkpt lat="56.471153" lon="60.78691">
        <ele>262.1</ele>
        <time>1970-01-01T07:32:46.626Z</time>
    </trkpt>
    <trkpt lat="56.471125" lon="60.786898">
        <ele>262.1</ele>
        <time>1970-01-01T07:32:47.626Z</time>
    </trkpt>
    <trkpt lat="56.471098" lon="60.786893">
        <ele>262.1</ele>
        <time>1970-01-01T07:32:48.626Z</time>
    </trkpt>
    <trkpt lat="56.471071" lon="60.78689">
        <ele>262.1</ele>
        <time>1970-01-01T07:32:49.626Z</time>
    </trkpt>
    <trkpt lat="56.471043" lon="60.786891">
        <ele>262.1</ele>
        <time>1970-01-01T07:32:50.626Z</time>
    </trkpt>
    <trkpt lat="56.471014" lon="60.786886">
        <ele>262.1</ele>
        <time>1970-01-01T07:32:51.626Z</time>
    </trkpt>
    <trkpt lat="56.47098" lon="60.786889">
        <ele>262.1</ele>
        <time>1970-01-01T07:32:52.626Z</time>
    </trkpt>
    <trkpt lat="56.47095" lon="60.78689">
        <ele>262.1</ele>
        <time>1970-01-01T07:32:53.626Z</time>
    </trkpt>
    <trkpt lat="56.470918" lon="60.786885">
        <ele>262.1</ele>
        <time>1970-01-01T07:32:54.626Z</time>
    </trkpt>
    <trkpt lat="56.470885" lon="60.786882">
        <ele>262.1</ele>
        <time>1970-01-01T07:32:55.626Z</time>
    </trkpt>
    <trkpt lat="56.470851" lon="60.786879">
        <ele>262.1</ele>
        <time>1970-01-01T07:32:56.626Z</time>
    </trkpt>
    <trkpt lat="56.470816" lon="60.786873">
        <ele>262.2</ele>
        <time>1970-01-01T07:32:57.626Z</time>
    </trkpt>
    <trkpt lat="56.470781" lon="60.786868">
        <ele>262.3</ele>
        <time>1970-01-01T07:32:58.626Z</time>
    </trkpt>
    <trkpt lat="56.470751" lon="60.786865">
        <ele>262.3</ele>
        <time>1970-01-01T07:32:59.626Z</time>
    </trkpt>
    <trkpt lat="56.47072" lon="60.786866">
        <ele>262.4</ele>
        <time>1970-01-01T07:33:00.626Z</time>
    </trkpt>
    <trkpt lat="56.470687" lon="60.786854">
        <ele>262.5</ele>
        <time>1970-01-01T07:33:01.626Z</time>
    </trkpt>
    <trkpt lat="56.470673" lon="60.786852">
        <ele>262.5</ele>
        <time>1970-01-01T07:33:02.626Z</time>
    </trkpt>
    <trkpt lat="56.470635" lon="60.786848">
        <ele>262.6</ele>
        <time>1970-01-01T07:33:03.626Z</time>
    </trkpt>
    <trkpt lat="56.470605" lon="60.786841">
        <ele>262.6</ele>
        <time>1970-01-01T07:33:04.626Z</time>
    </trkpt>
    <trkpt lat="56.47059" lon="60.786839">
        <ele>262.7</ele>
        <time>1970-01-01T07:33:05.626Z</time>
    </trkpt>
    <trkpt lat="56.47055" lon="60.786832">
        <ele>262.7</ele>
        <time>1970-01-01T07:33:06.626Z</time>
    </trkpt>
    <trkpt lat="56.470519" lon="60.786819">
        <ele>262.8</ele>
        <time>1970-01-01T07:33:07.626Z</time>
    </trkpt>
    <trkpt lat="56.470486" lon="60.786816">
        <ele>262.8</ele>
        <time>1970-01-01T07:33:08.626Z</time>
    </trkpt>
    <trkpt lat="56.470455" lon="60.786806">
        <ele>262.8</ele>
        <time>1970-01-01T07:33:09.626Z</time>
    </trkpt>
    <trkpt lat="56.470426" lon="60.786797">
        <ele>262.9</ele>
        <time>1970-01-01T07:33:10.626Z</time>
    </trkpt>
    <trkpt lat="56.470413" lon="60.7868">
        <ele>262.9</ele>
        <time>1970-01-01T07:33:11.626Z</time>
    </trkpt>
    <trkpt lat="56.470375" lon="60.786793">
        <ele>262.9</ele>
        <time>1970-01-01T07:33:12.626Z</time>
    </trkpt>
    <trkpt lat="56.470364" lon="60.78679">
        <ele>262.9</ele>
        <time>1970-01-01T07:33:13.626Z</time>
    </trkpt>
    <trkpt lat="56.470325" lon="60.786783">
        <ele>263.0</ele>
        <time>1970-01-01T07:33:14.626Z</time>
    </trkpt>
    <trkpt lat="56.470293" lon="60.786779">
        <ele>263.0</ele>
        <time>1970-01-01T07:33:15.626Z</time>
    </trkpt>
    <trkpt lat="56.470263" lon="60.786774">
        <ele>263.1</ele>
        <time>1970-01-01T07:33:16.626Z</time>
    </trkpt>
    <trkpt lat="56.470252" lon="60.786768">
        <ele>263.1</ele>
        <time>1970-01-01T07:33:17.626Z</time>
    </trkpt>
    <trkpt lat="56.470217" lon="60.786754">
        <ele>263.1</ele>
        <time>1970-01-01T07:33:18.626Z</time>
    </trkpt>
    <trkpt lat="56.470207" lon="60.786753">
        <ele>263.1</ele>
        <time>1970-01-01T07:33:19.626Z</time>
    </trkpt>
    <trkpt lat="56.470177" lon="60.786735">
        <ele>263.2</ele>
        <time>1970-01-01T07:33:20.626Z</time>
    </trkpt>
    <trkpt lat="56.470147" lon="60.786724">
        <ele>263.2</ele>
        <time>1970-01-01T07:33:21.626Z</time>
    </trkpt>
    <trkpt lat="56.470136" lon="60.786716">
        <ele>263.2</ele>
        <time>1970-01-01T07:33:22.626Z</time>
    </trkpt>
    <trkpt lat="56.4701" lon="60.786704">
        <ele>263.2</ele>
        <time>1970-01-01T07:33:23.626Z</time>
    </trkpt>
    <trkpt lat="56.470088" lon="60.7867">
        <ele>263.2</ele>
        <time>1970-01-01T07:33:24.626Z</time>
    </trkpt>
    <trkpt lat="56.470051" lon="60.786691">
        <ele>263.2</ele>
        <time>1970-01-01T07:33:25.626Z</time>
    </trkpt>
    <trkpt lat="56.47004" lon="60.786691">
        <ele>263.3</ele>
        <time>1970-01-01T07:33:26.626Z</time>
    </trkpt>
    <trkpt lat="56.470012" lon="60.786688">
        <ele>263.3</ele>
        <time>1970-01-01T07:33:27.626Z</time>
    </trkpt>
    <trkpt lat="56.469998" lon="60.786682">
        <ele>263.3</ele>
        <time>1970-01-01T07:33:28.626Z</time>
    </trkpt>
    <trkpt lat="56.469978" lon="60.786681">
        <ele>263.3</ele>
        <time>1970-01-01T07:33:29.626Z</time>
    </trkpt>
    <trkpt lat="56.469967" lon="60.786679">
        <ele>263.3</ele>
        <time>1970-01-01T07:33:30.626Z</time>
    </trkpt>
    <trkpt lat="56.469936" lon="60.786663">
        <ele>263.3</ele>
        <time>1970-01-01T07:33:31.626Z</time>
    </trkpt>
    <trkpt lat="56.469926" lon="60.786661">
        <ele>263.3</ele>
        <time>1970-01-01T07:33:32.626Z</time>
    </trkpt>
    <trkpt lat="56.469895" lon="60.78666">
        <ele>263.3</ele>
        <time>1970-01-01T07:33:33.626Z</time>
    </trkpt>
    <trkpt lat="56.469865" lon="60.786649">
        <ele>263.3</ele>
        <time>1970-01-01T07:33:34.626Z</time>
    </trkpt>
    <trkpt lat="56.469838" lon="60.786639">
        <ele>263.3</ele>
        <time>1970-01-01T07:33:35.626Z</time>
    </trkpt>
    <trkpt lat="56.46981" lon="60.786631">
        <ele>263.3</ele>
        <time>1970-01-01T07:33:36.626Z</time>
    </trkpt>
    <trkpt lat="56.469782" lon="60.786622">
        <ele>263.3</ele>
        <time>1970-01-01T07:33:37.626Z</time>
    </trkpt>
    <trkpt lat="56.469769" lon="60.786616">
        <ele>263.3</ele>
        <time>1970-01-01T07:33:38.626Z</time>
    </trkpt>
    <trkpt lat="56.469729" lon="60.786607">
        <ele>263.3</ele>
        <time>1970-01-01T07:33:39.626Z</time>
    </trkpt>
    <trkpt lat="56.469701" lon="60.786597">
        <ele>263.3</ele>
        <time>1970-01-01T07:33:40.626Z</time>
    </trkpt>
    <trkpt lat="56.469687" lon="60.786594">
        <ele>263.3</ele>
        <time>1970-01-01T07:33:41.626Z</time>
    </trkpt>
    <trkpt lat="56.469648" lon="60.786581">
        <ele>263.2</ele>
        <time>1970-01-01T07:33:42.626Z</time>
    </trkpt>
    <trkpt lat="56.469634" lon="60.786573">
        <ele>263.2</ele>
        <time>1970-01-01T07:33:43.626Z</time>
    </trkpt>
    <trkpt lat="56.469595" lon="60.786565">
        <ele>263.2</ele>
        <time>1970-01-01T07:33:44.626Z</time>
    </trkpt>
    <trkpt lat="56.469567" lon="60.786566">
        <ele>263.2</ele>
        <time>1970-01-01T07:33:45.626Z</time>
    </trkpt>
    <trkpt lat="56.469553" lon="60.786563">
        <ele>263.2</ele>
        <time>1970-01-01T07:33:46.626Z</time>
    </trkpt>
    <trkpt lat="56.469514" lon="60.786551">
        <ele>263.1</ele>
        <time>1970-01-01T07:33:47.626Z</time>
    </trkpt>
    <trkpt lat="56.469487" lon="60.786547">
        <ele>263.1</ele>
        <time>1970-01-01T07:33:48.626Z</time>
    </trkpt>
    <trkpt lat="56.469461" lon="60.786534">
        <ele>263.1</ele>
        <time>1970-01-01T07:33:49.626Z</time>
    </trkpt>
    <trkpt lat="56.469433" lon="60.786532">
        <ele>263.1</ele>
        <time>1970-01-01T07:33:50.626Z</time>
    </trkpt>
    <trkpt lat="56.469399" lon="60.786517">
        <ele>263.0</ele>
        <time>1970-01-01T07:33:51.626Z</time>
    </trkpt>
    <trkpt lat="56.469369" lon="60.786515">
        <ele>263.0</ele>
        <time>1970-01-01T07:33:52.626Z</time>
    </trkpt>
    <trkpt lat="56.469336" lon="60.786506">
        <ele>263.0</ele>
        <time>1970-01-01T07:33:53.626Z</time>
    </trkpt>
    <trkpt lat="56.469306" lon="60.786492">
        <ele>262.9</ele>
        <time>1970-01-01T07:33:54.626Z</time>
    </trkpt>
    <trkpt lat="56.469291" lon="60.786489">
        <ele>262.9</ele>
        <time>1970-01-01T07:33:55.626Z</time>
    </trkpt>
    <trkpt lat="56.469256" lon="60.786481">
        <ele>262.9</ele>
        <time>1970-01-01T07:33:56.626Z</time>
    </trkpt>
    <trkpt lat="56.469224" lon="60.786468">
        <ele>262.9</ele>
        <time>1970-01-01T07:33:57.626Z</time>
    </trkpt>
    <trkpt lat="56.469196" lon="60.786464">
        <ele>262.8</ele>
        <time>1970-01-01T07:33:58.626Z</time>
    </trkpt>
    <trkpt lat="56.469182" lon="60.786459">
        <ele>262.8</ele>
        <time>1970-01-01T07:33:59.626Z</time>
    </trkpt>
    <trkpt lat="56.469154" lon="60.786456">
        <ele>262.8</ele>
        <time>1970-01-01T07:34:00.626Z</time>
    </trkpt>
    <trkpt lat="56.469144" lon="60.786455">
        <ele>262.8</ele>
        <time>1970-01-01T07:34:01.626Z</time>
    </trkpt>
    <trkpt lat="56.469112" lon="60.786448">
        <ele>262.8</ele>
        <time>1970-01-01T07:34:02.626Z</time>
    </trkpt>
    <trkpt lat="56.469102" lon="60.786445">
        <ele>262.8</ele>
        <time>1970-01-01T07:34:03.626Z</time>
    </trkpt>
    <trkpt lat="56.469067" lon="60.786439">
        <ele>262.8</ele>
        <time>1970-01-01T07:34:04.626Z</time>
    </trkpt>
    <trkpt lat="56.46904" lon="60.786433">
        <ele>262.8</ele>
        <time>1970-01-01T07:34:05.626Z</time>
    </trkpt>
    <trkpt lat="56.469028" lon="60.786431">
        <ele>262.8</ele>
        <time>1970-01-01T07:34:06.626Z</time>
    </trkpt>
    <trkpt lat="56.468997" lon="60.786424">
        <ele>262.8</ele>
        <time>1970-01-01T07:34:07.626Z</time>
    </trkpt>
    <trkpt lat="56.468984" lon="60.786422">
        <ele>262.8</ele>
        <time>1970-01-01T07:34:08.626Z</time>
    </trkpt>
    <trkpt lat="56.468952" lon="60.786417">
        <ele>262.8</ele>
        <time>1970-01-01T07:34:09.626Z</time>
    </trkpt>
    <trkpt lat="56.468941" lon="60.786414">
        <ele>262.8</ele>
        <time>1970-01-01T07:34:10.626Z</time>
    </trkpt>
    <trkpt lat="56.468908" lon="60.78641">
        <ele>262.8</ele>
        <time>1970-01-01T07:34:11.626Z</time>
    </trkpt>
    <trkpt lat="56.468897" lon="60.786405">
        <ele>262.8</ele>
        <time>1970-01-01T07:34:12.626Z</time>
    </trkpt>
    <trkpt lat="56.468868" lon="60.786398">
        <ele>262.7</ele>
        <time>1970-01-01T07:34:13.626Z</time>
    </trkpt>
    <trkpt lat="56.468851" lon="60.786384">
        <ele>262.7</ele>
        <time>1970-01-01T07:34:14.626Z</time>
    </trkpt>
    <trkpt lat="56.468835" lon="60.786374">
        <ele>262.7</ele>
        <time>1970-01-01T07:34:15.626Z</time>
    </trkpt>
    <trkpt lat="56.468806" lon="60.786368">
        <ele>262.7</ele>
        <time>1970-01-01T07:34:16.626Z</time>
    </trkpt>
    <trkpt lat="56.468777" lon="60.786354">
        <ele>262.6</ele>
        <time>1970-01-01T07:34:17.626Z</time>
    </trkpt>
    <trkpt lat="56.468766" lon="60.78635">
        <ele>262.6</ele>
        <time>1970-01-01T07:34:18.626Z</time>
    </trkpt>
    <trkpt lat="56.468732" lon="60.786338">
        <ele>262.5</ele>
        <time>1970-01-01T07:34:19.626Z</time>
    </trkpt>
    <trkpt lat="56.468722" lon="60.786336">
        <ele>262.5</ele>
        <time>1970-01-01T07:34:20.626Z</time>
    </trkpt>
    <trkpt lat="56.468691" lon="60.786327">
        <ele>262.5</ele>
        <time>1970-01-01T07:34:21.626Z</time>
    </trkpt>
    <trkpt lat="56.468679" lon="60.786325">
        <ele>262.4</ele>
        <time>1970-01-01T07:34:22.626Z</time>
    </trkpt>
    <trkpt lat="56.46865" lon="60.786316">
        <ele>262.4</ele>
        <time>1970-01-01T07:34:23.626Z</time>
    </trkpt>
    <trkpt lat="56.46864" lon="60.786314">
        <ele>262.4</ele>
        <time>1970-01-01T07:34:24.626Z</time>
    </trkpt>
    <trkpt lat="56.468613" lon="60.786307">
        <ele>262.3</ele>
        <time>1970-01-01T07:34:25.626Z</time>
    </trkpt>
    <trkpt lat="56.468601" lon="60.786304">
        <ele>262.3</ele>
        <time>1970-01-01T07:34:26.626Z</time>
    </trkpt>
    <trkpt lat="56.468571" lon="60.786294">
        <ele>262.2</ele>
        <time>1970-01-01T07:34:27.626Z</time>
    </trkpt>
    <trkpt lat="56.46856" lon="60.786291">
        <ele>262.2</ele>
        <time>1970-01-01T07:34:28.626Z</time>
    </trkpt>
    <trkpt lat="56.468531" lon="60.786284">
        <ele>262.1</ele>
        <time>1970-01-01T07:34:29.626Z</time>
    </trkpt>
    <trkpt lat="56.46852" lon="60.786278">
        <ele>262.1</ele>
        <time>1970-01-01T07:34:30.626Z</time>
    </trkpt>
    <trkpt lat="56.468488" lon="60.786275">
        <ele>262.0</ele>
        <time>1970-01-01T07:34:31.626Z</time>
    </trkpt>
    <trkpt lat="56.468478" lon="60.786273">
        <ele>262.0</ele>
        <time>1970-01-01T07:34:32.626Z</time>
    </trkpt>
    <trkpt lat="56.468448" lon="60.786267">
        <ele>261.9</ele>
        <time>1970-01-01T07:34:33.626Z</time>
    </trkpt>
    <trkpt lat="56.468437" lon="60.786264">
        <ele>261.9</ele>
        <time>1970-01-01T07:34:34.626Z</time>
    </trkpt>
    <trkpt lat="56.468402" lon="60.786257">
        <ele>261.8</ele>
        <time>1970-01-01T07:34:35.626Z</time>
    </trkpt>
    <trkpt lat="56.468391" lon="60.786255">
        <ele>261.7</ele>
        <time>1970-01-01T07:34:36.626Z</time>
    </trkpt>
    <trkpt lat="56.468365" lon="60.786245">
        <ele>261.6</ele>
        <time>1970-01-01T07:34:37.626Z</time>
    </trkpt>
    <trkpt lat="56.468355" lon="60.786245">
        <ele>261.6</ele>
        <time>1970-01-01T07:34:38.626Z</time>
    </trkpt>
    <trkpt lat="56.468326" lon="60.786238">
        <ele>261.5</ele>
        <time>1970-01-01T07:34:39.626Z</time>
    </trkpt>
    <trkpt lat="56.468316" lon="60.786237">
        <ele>261.5</ele>
        <time>1970-01-01T07:34:40.626Z</time>
    </trkpt>
    <trkpt lat="56.468287" lon="60.786229">
        <ele>261.4</ele>
        <time>1970-01-01T07:34:41.626Z</time>
    </trkpt>
    <trkpt lat="56.468277" lon="60.786225">
        <ele>261.4</ele>
        <time>1970-01-01T07:34:42.626Z</time>
    </trkpt>
    <trkpt lat="56.468245" lon="60.786224">
        <ele>261.3</ele>
        <time>1970-01-01T07:34:43.626Z</time>
    </trkpt>
    <trkpt lat="56.468236" lon="60.786219">
        <ele>261.3</ele>
        <time>1970-01-01T07:34:44.626Z</time>
    </trkpt>
    <trkpt lat="56.468201" lon="60.786216">
        <ele>261.2</ele>
        <time>1970-01-01T07:34:45.626Z</time>
    </trkpt>
    <trkpt lat="56.46819" lon="60.786213">
        <ele>261.2</ele>
        <time>1970-01-01T07:34:46.626Z</time>
    </trkpt>
    <trkpt lat="56.468157" lon="60.786207">
        <ele>261.1</ele>
        <time>1970-01-01T07:34:47.626Z</time>
    </trkpt>
    <trkpt lat="56.468147" lon="60.786201">
        <ele>261.1</ele>
        <time>1970-01-01T07:34:48.626Z</time>
    </trkpt>
    <trkpt lat="56.46812" lon="60.786189">
        <ele>261.0</ele>
        <time>1970-01-01T07:34:49.626Z</time>
    </trkpt>
    <trkpt lat="56.46811" lon="60.786191">
        <ele>261.0</ele>
        <time>1970-01-01T07:34:50.626Z</time>
    </trkpt>
    <trkpt lat="56.468081" lon="60.786182">
        <ele>260.9</ele>
        <time>1970-01-01T07:34:51.626Z</time>
    </trkpt>
    <trkpt lat="56.468071" lon="60.786178">
        <ele>260.9</ele>
        <time>1970-01-01T07:34:52.626Z</time>
    </trkpt>
    <trkpt lat="56.468041" lon="60.78617">
        <ele>260.8</ele>
        <time>1970-01-01T07:34:53.626Z</time>
    </trkpt>
    <trkpt lat="56.468032" lon="60.786168">
        <ele>260.7</ele>
        <time>1970-01-01T07:34:54.626Z</time>
    </trkpt>
    <trkpt lat="56.468003" lon="60.786163">
        <ele>260.7</ele>
        <time>1970-01-01T07:34:55.626Z</time>
    </trkpt>
    <trkpt lat="56.467989" lon="60.786161">
        <ele>260.6</ele>
        <time>1970-01-01T07:34:56.626Z</time>
    </trkpt>
    <trkpt lat="56.467971" lon="60.786169">
        <ele>260.6</ele>
        <time>1970-01-01T07:34:57.626Z</time>
    </trkpt>
    <trkpt lat="56.467943" lon="60.786174">
        <ele>260.5</ele>
        <time>1970-01-01T07:34:58.626Z</time>
    </trkpt>
    <trkpt lat="56.467922" lon="60.786167">
        <ele>260.4</ele>
        <time>1970-01-01T07:34:59.626Z</time>
    </trkpt>
    <trkpt lat="56.467911" lon="60.786163">
        <ele>260.4</ele>
        <time>1970-01-01T07:35:00.626Z</time>
    </trkpt>
    <trkpt lat="56.467895" lon="60.786166">
        <ele>260.3</ele>
        <time>1970-01-01T07:35:01.626Z</time>
    </trkpt>
    <trkpt lat="56.46788" lon="60.786165">
        <ele>260.3</ele>
        <time>1970-01-01T07:35:02.626Z</time>
    </trkpt>
    <trkpt lat="56.467863" lon="60.786163">
        <ele>260.3</ele>
        <time>1970-01-01T07:35:03.626Z</time>
    </trkpt>
    <trkpt lat="56.467858" lon="60.786148">
        <ele>257.4</ele>
        <time>1970-01-01T07:39:57.626Z</time>
    </trkpt>
    <trkpt lat="56.467844" lon="60.786142">
        <ele>260.0</ele>
        <time>1970-01-01T07:39:58.626Z</time>
    </trkpt>
    <trkpt lat="56.467824" lon="60.786143">
        <ele>260.0</ele>
        <time>1970-01-01T07:39:59.626Z</time>
    </trkpt>
    <trkpt lat="56.467817" lon="60.786141">
        <ele>260.0</ele>
        <time>1970-01-01T07:40:00.626Z</time>
    </trkpt>
    <trkpt lat="56.467788" lon="60.786132">
        <ele>259.9</ele>
        <time>1970-01-01T07:40:01.626Z</time>
    </trkpt>
    <trkpt lat="56.467774" lon="60.786118">
        <ele>259.9</ele>
        <time>1970-01-01T07:40:02.626Z</time>
    </trkpt>
    <trkpt lat="56.467761" lon="60.786112">
        <ele>259.8</ele>
        <time>1970-01-01T07:40:03.626Z</time>
    </trkpt>
    <trkpt lat="56.46775" lon="60.786112">
        <ele>259.8</ele>
        <time>1970-01-01T07:40:04.626Z</time>
    </trkpt>
    <trkpt lat="56.467713" lon="60.786096">
        <ele>259.8</ele>
        <time>1970-01-01T07:40:05.626Z</time>
    </trkpt>
    <trkpt lat="56.467702" lon="60.786084">
        <ele>259.7</ele>
        <time>1970-01-01T07:40:06.626Z</time>
    </trkpt>
    <trkpt lat="56.467667" lon="60.786061">
        <ele>259.7</ele>
        <time>1970-01-01T07:40:07.626Z</time>
    </trkpt>
    <trkpt lat="56.467656" lon="60.786057">
        <ele>259.6</ele>
        <time>1970-01-01T07:40:08.626Z</time>
    </trkpt>
    <trkpt lat="56.467619" lon="60.786046">
        <ele>259.5</ele>
        <time>1970-01-01T07:40:09.626Z</time>
    </trkpt>
    <trkpt lat="56.467607" lon="60.786048">
        <ele>259.5</ele>
        <time>1970-01-01T07:40:10.626Z</time>
    </trkpt>
    <trkpt lat="56.46757" lon="60.786042">
        <ele>259.4</ele>
        <time>1970-01-01T07:40:11.626Z</time>
    </trkpt>
    <trkpt lat="56.46756" lon="60.786038">
        <ele>259.4</ele>
        <time>1970-01-01T07:40:12.626Z</time>
    </trkpt>
    <trkpt lat="56.467527" lon="60.786023">
        <ele>259.3</ele>
        <time>1970-01-01T07:40:13.626Z</time>
    </trkpt>
    <trkpt lat="56.467498" lon="60.786024">
        <ele>259.2</ele>
        <time>1970-01-01T07:40:14.626Z</time>
    </trkpt>
    <trkpt lat="56.467471" lon="60.786007">
        <ele>259.1</ele>
        <time>1970-01-01T07:40:15.626Z</time>
    </trkpt>
    <trkpt lat="56.467459" lon="60.786002">
        <ele>259.1</ele>
        <time>1970-01-01T07:40:16.626Z</time>
    </trkpt>
    <trkpt lat="56.467422" lon="60.785986">
        <ele>259.0</ele>
        <time>1970-01-01T07:40:17.626Z</time>
    </trkpt>
    <trkpt lat="56.467408" lon="60.785978">
        <ele>259.0</ele>
        <time>1970-01-01T07:40:18.626Z</time>
    </trkpt>
    <trkpt lat="56.46737" lon="60.785963">
        <ele>258.8</ele>
        <time>1970-01-01T07:40:19.626Z</time>
    </trkpt>
    <trkpt lat="56.467342" lon="60.785958">
        <ele>258.7</ele>
        <time>1970-01-01T07:40:20.626Z</time>
    </trkpt>
    <trkpt lat="56.467314" lon="60.785952">
        <ele>258.7</ele>
        <time>1970-01-01T07:40:21.626Z</time>
    </trkpt>
    <trkpt lat="56.467288" lon="60.785941">
        <ele>258.6</ele>
        <time>1970-01-01T07:40:22.626Z</time>
    </trkpt>
    <trkpt lat="56.467275" lon="60.78594">
        <ele>258.5</ele>
        <time>1970-01-01T07:40:23.626Z</time>
    </trkpt>
    <trkpt lat="56.467239" lon="60.785929">
        <ele>258.4</ele>
        <time>1970-01-01T07:40:24.626Z</time>
    </trkpt>
    <trkpt lat="56.467213" lon="60.785917">
        <ele>258.3</ele>
        <time>1970-01-01T07:40:25.626Z</time>
    </trkpt>
    <trkpt lat="56.467199" lon="60.785913">
        <ele>258.3</ele>
        <time>1970-01-01T07:40:26.626Z</time>
    </trkpt>
    <trkpt lat="56.467166" lon="60.785899">
        <ele>258.2</ele>
        <time>1970-01-01T07:40:27.626Z</time>
    </trkpt>
    <trkpt lat="56.467156" lon="60.785895">
        <ele>258.2</ele>
        <time>1970-01-01T07:40:28.626Z</time>
    </trkpt>
    <trkpt lat="56.467122" lon="60.785882">
        <ele>258.1</ele>
        <time>1970-01-01T07:40:29.626Z</time>
    </trkpt>
    <trkpt lat="56.467098" lon="60.785879">
        <ele>258.0</ele>
        <time>1970-01-01T07:40:31.626Z</time>
    </trkpt>
    <trkpt lat="56.467074" lon="60.785867">
        <ele>257.9</ele>
        <time>1970-01-01T07:40:32.626Z</time>
    </trkpt>
    <trkpt lat="56.467062" lon="60.785862">
        <ele>257.9</ele>
        <time>1970-01-01T07:40:33.626Z</time>
    </trkpt>
    <trkpt lat="56.467026" lon="60.785855">
        <ele>257.8</ele>
        <time>1970-01-01T07:40:34.626Z</time>
    </trkpt>
    <trkpt lat="56.467006" lon="60.785848">
        <ele>257.7</ele>
        <time>1970-01-01T07:40:35.626Z</time>
    </trkpt>
    <trkpt lat="56.466954" lon="60.785839">
        <ele>257.5</ele>
        <time>1970-01-01T07:40:36.626Z</time>
    </trkpt>
    <trkpt lat="56.46694" lon="60.785833">
        <ele>257.5</ele>
        <time>1970-01-01T07:40:37.626Z</time>
    </trkpt>
    <trkpt lat="56.466899" lon="60.785823">
        <ele>257.3</ele>
        <time>1970-01-01T07:40:38.626Z</time>
    </trkpt>
    <trkpt lat="56.466886" lon="60.785823">
        <ele>257.3</ele>
        <time>1970-01-01T07:40:39.626Z</time>
    </trkpt>
    <trkpt lat="56.466848" lon="60.785811">
        <ele>257.2</ele>
        <time>1970-01-01T07:40:40.626Z</time>
    </trkpt>
    <trkpt lat="56.466836" lon="60.78581">
        <ele>257.1</ele>
        <time>1970-01-01T07:40:41.626Z</time>
    </trkpt>
    <trkpt lat="56.466798" lon="60.785805">
        <ele>257.0</ele>
        <time>1970-01-01T07:40:42.626Z</time>
    </trkpt>
    <trkpt lat="56.466787" lon="60.785804">
        <ele>257.0</ele>
        <time>1970-01-01T07:40:43.626Z</time>
    </trkpt>
    <trkpt lat="56.466755" lon="60.785798">
        <ele>256.8</ele>
        <time>1970-01-01T07:40:44.626Z</time>
    </trkpt>
    <trkpt lat="56.466727" lon="60.785791">
        <ele>256.7</ele>
        <time>1970-01-01T07:40:45.626Z</time>
    </trkpt>
    <trkpt lat="56.466715" lon="60.785786">
        <ele>256.7</ele>
        <time>1970-01-01T07:40:46.626Z</time>
    </trkpt>
    <trkpt lat="56.466679" lon="60.785772">
        <ele>256.6</ele>
        <time>1970-01-01T07:40:47.626Z</time>
    </trkpt>
    <trkpt lat="56.466652" lon="60.78577">
        <ele>256.4</ele>
        <time>1970-01-01T07:40:48.626Z</time>
    </trkpt>
    <trkpt lat="56.46664" lon="60.78577">
        <ele>256.4</ele>
        <time>1970-01-01T07:40:49.626Z</time>
    </trkpt>
    <trkpt lat="56.466602" lon="60.785761">
        <ele>256.2</ele>
        <time>1970-01-01T07:40:50.626Z</time>
    </trkpt>
    <trkpt lat="56.466592" lon="60.785754">
        <ele>256.2</ele>
        <time>1970-01-01T07:40:51.626Z</time>
    </trkpt>
    <trkpt lat="56.466557" lon="60.785743">
        <ele>256.1</ele>
        <time>1970-01-01T07:40:52.626Z</time>
    </trkpt>
    <trkpt lat="56.466544" lon="60.785738">
        <ele>256.0</ele>
        <time>1970-01-01T07:40:53.626Z</time>
    </trkpt>
    <trkpt lat="56.46651" lon="60.785727">
        <ele>255.9</ele>
        <time>1970-01-01T07:40:54.626Z</time>
    </trkpt>
    <trkpt lat="56.466483" lon="60.785718">
        <ele>255.8</ele>
        <time>1970-01-01T07:40:55.626Z</time>
    </trkpt>
    <trkpt lat="56.466471" lon="60.785715">
        <ele>255.7</ele>
        <time>1970-01-01T07:40:56.626Z</time>
    </trkpt>
    <trkpt lat="56.466434" lon="60.785707">
        <ele>255.6</ele>
        <time>1970-01-01T07:40:57.626Z</time>
    </trkpt>
    <trkpt lat="56.466421" lon="60.785702">
        <ele>255.5</ele>
        <time>1970-01-01T07:40:58.626Z</time>
    </trkpt>
    <trkpt lat="56.466382" lon="60.785691">
        <ele>255.3</ele>
        <time>1970-01-01T07:40:59.626Z</time>
    </trkpt>
    <trkpt lat="56.46637" lon="60.785687">
        <ele>255.3</ele>
        <time>1970-01-01T07:41:00.626Z</time>
    </trkpt>
    <trkpt lat="56.466333" lon="60.785673">
        <ele>255.1</ele>
        <time>1970-01-01T07:41:01.626Z</time>
    </trkpt>
    <trkpt lat="56.466304" lon="60.785667">
        <ele>255.0</ele>
        <time>1970-01-01T07:41:02.626Z</time>
    </trkpt>
    <trkpt lat="56.466294" lon="60.785664">
        <ele>254.9</ele>
        <time>1970-01-01T07:41:03.626Z</time>
    </trkpt>
    <trkpt lat="56.466261" lon="60.785657">
        <ele>254.8</ele>
        <time>1970-01-01T07:41:04.626Z</time>
    </trkpt>
    <trkpt lat="56.466251" lon="60.785656">
        <ele>254.7</ele>
        <time>1970-01-01T07:41:05.626Z</time>
    </trkpt>
    <trkpt lat="56.466221" lon="60.785646">
        <ele>254.6</ele>
        <time>1970-01-01T07:41:06.626Z</time>
    </trkpt>
    <trkpt lat="56.466208" lon="60.785641">
        <ele>254.5</ele>
        <time>1970-01-01T07:41:07.626Z</time>
    </trkpt>
    <trkpt lat="56.466171" lon="60.785638">
        <ele>254.4</ele>
        <time>1970-01-01T07:41:08.626Z</time>
    </trkpt>
    <trkpt lat="56.466155" lon="60.785634">
        <ele>254.3</ele>
        <time>1970-01-01T07:41:09.626Z</time>
    </trkpt>
    <trkpt lat="56.466118" lon="60.785622">
        <ele>254.2</ele>
        <time>1970-01-01T07:41:10.626Z</time>
    </trkpt>
    <trkpt lat="56.466107" lon="60.785617">
        <ele>254.1</ele>
        <time>1970-01-01T07:41:11.626Z</time>
    </trkpt>
    <trkpt lat="56.466072" lon="60.785613">
        <ele>254.0</ele>
        <time>1970-01-01T07:41:12.626Z</time>
    </trkpt>
    <trkpt lat="56.466059" lon="60.78561">
        <ele>254.0</ele>
        <time>1970-01-01T07:41:13.626Z</time>
    </trkpt>
    <trkpt lat="56.466022" lon="60.7856">
        <ele>253.9</ele>
        <time>1970-01-01T07:41:14.626Z</time>
    </trkpt>
    <trkpt lat="56.466012" lon="60.785595">
        <ele>253.8</ele>
        <time>1970-01-01T07:41:15.626Z</time>
    </trkpt>
    <trkpt lat="56.465976" lon="60.785588">
        <ele>253.7</ele>
        <time>1970-01-01T07:41:16.626Z</time>
    </trkpt>
    <trkpt lat="56.465966" lon="60.785586">
        <ele>253.7</ele>
        <time>1970-01-01T07:41:17.626Z</time>
    </trkpt>
    <trkpt lat="56.465932" lon="60.785579">
        <ele>253.6</ele>
        <time>1970-01-01T07:41:18.626Z</time>
    </trkpt>
    <trkpt lat="56.46592" lon="60.785575">
        <ele>253.6</ele>
        <time>1970-01-01T07:41:19.626Z</time>
    </trkpt>
    <trkpt lat="56.465884" lon="60.785562">
        <ele>253.5</ele>
        <time>1970-01-01T07:41:20.626Z</time>
    </trkpt>
    <trkpt lat="56.465872" lon="60.785559">
        <ele>253.4</ele>
        <time>1970-01-01T07:41:21.626Z</time>
    </trkpt>
    <trkpt lat="56.465838" lon="60.785547">
        <ele>253.3</ele>
        <time>1970-01-01T07:41:22.626Z</time>
    </trkpt>
    <trkpt lat="56.465825" lon="60.785537">
        <ele>253.3</ele>
        <time>1970-01-01T07:41:23.626Z</time>
    </trkpt>
    <trkpt lat="56.465792" lon="60.78552">
        <ele>253.2</ele>
        <time>1970-01-01T07:41:24.626Z</time>
    </trkpt>
    <trkpt lat="56.465781" lon="60.785514">
        <ele>253.2</ele>
        <time>1970-01-01T07:41:25.626Z</time>
    </trkpt>
    <trkpt lat="56.465754" lon="60.785504">
        <ele>253.1</ele>
        <time>1970-01-01T07:41:26.626Z</time>
    </trkpt>
    <trkpt lat="56.465743" lon="60.785501">
        <ele>253.1</ele>
        <time>1970-01-01T07:41:27.626Z</time>
    </trkpt>
    <trkpt lat="56.465708" lon="60.785497">
        <ele>253.1</ele>
        <time>1970-01-01T07:41:28.626Z</time>
    </trkpt>
    <trkpt lat="56.465695" lon="60.785492">
        <ele>253.1</ele>
        <time>1970-01-01T07:41:29.626Z</time>
    </trkpt>
    <trkpt lat="56.465658" lon="60.785472">
        <ele>253.0</ele>
        <time>1970-01-01T07:41:30.626Z</time>
    </trkpt>
    <trkpt lat="56.465631" lon="60.785456">
        <ele>253.0</ele>
        <time>1970-01-01T07:41:31.626Z</time>
    </trkpt>
    <trkpt lat="56.465603" lon="60.785458">
        <ele>253.0</ele>
        <time>1970-01-01T07:41:32.626Z</time>
    </trkpt>
    <trkpt lat="56.465576" lon="60.785449">
        <ele>252.9</ele>
        <time>1970-01-01T07:41:33.626Z</time>
    </trkpt>
    <trkpt lat="56.465564" lon="60.78544">
        <ele>252.9</ele>
        <time>1970-01-01T07:41:34.626Z</time>
    </trkpt>
    <trkpt lat="56.465526" lon="60.785428">
        <ele>252.9</ele>
        <time>1970-01-01T07:41:35.626Z</time>
    </trkpt>
    <trkpt lat="56.465515" lon="60.785427">
        <ele>252.8</ele>
        <time>1970-01-01T07:41:36.626Z</time>
    </trkpt>
    <trkpt lat="56.465479" lon="60.785422">
        <ele>252.8</ele>
        <time>1970-01-01T07:41:37.626Z</time>
    </trkpt>
    <trkpt lat="56.465471" lon="60.785414">
        <ele>252.8</ele>
        <time>1970-01-01T07:41:38.626Z</time>
    </trkpt>
    <trkpt lat="56.465439" lon="60.785403">
        <ele>252.7</ele>
        <time>1970-01-01T07:41:39.626Z</time>
    </trkpt>
    <trkpt lat="56.46543" lon="60.7854">
        <ele>252.7</ele>
        <time>1970-01-01T07:41:40.626Z</time>
    </trkpt>
    <trkpt lat="56.465397" lon="60.785387">
        <ele>252.6</ele>
        <time>1970-01-01T07:41:41.626Z</time>
    </trkpt>
    <trkpt lat="56.465386" lon="60.785383">
        <ele>252.5</ele>
        <time>1970-01-01T07:41:42.626Z</time>
    </trkpt>
    <trkpt lat="56.465351" lon="60.78537">
        <ele>252.4</ele>
        <time>1970-01-01T07:41:43.626Z</time>
    </trkpt>
    <trkpt lat="56.46534" lon="60.785365">
        <ele>252.4</ele>
        <time>1970-01-01T07:41:44.626Z</time>
    </trkpt>
    <trkpt lat="56.465303" lon="60.785353">
        <ele>252.2</ele>
        <time>1970-01-01T07:41:45.626Z</time>
    </trkpt>
    <trkpt lat="56.465289" lon="60.78535">
        <ele>252.2</ele>
        <time>1970-01-01T07:41:46.626Z</time>
    </trkpt>
    <trkpt lat="56.465257" lon="60.785347">
        <ele>252.1</ele>
        <time>1970-01-01T07:41:47.626Z</time>
    </trkpt>
    <trkpt lat="56.465244" lon="60.785347">
        <ele>252.0</ele>
        <time>1970-01-01T07:41:48.626Z</time>
    </trkpt>
    <trkpt lat="56.465207" lon="60.785334">
        <ele>251.9</ele>
        <time>1970-01-01T07:41:49.626Z</time>
    </trkpt>
    <trkpt lat="56.465197" lon="60.785333">
        <ele>251.9</ele>
        <time>1970-01-01T07:41:50.626Z</time>
    </trkpt>
    <trkpt lat="56.465162" lon="60.785329">
        <ele>251.8</ele>
        <time>1970-01-01T07:41:51.626Z</time>
    </trkpt>
    <trkpt lat="56.46515" lon="60.785322">
        <ele>251.7</ele>
        <time>1970-01-01T07:41:52.626Z</time>
    </trkpt>
    <trkpt lat="56.465113" lon="60.785301">
        <ele>251.6</ele>
        <time>1970-01-01T07:41:53.626Z</time>
    </trkpt>
    <trkpt lat="56.465085" lon="60.785298">
        <ele>251.5</ele>
        <time>1970-01-01T07:41:54.626Z</time>
    </trkpt>
    <trkpt lat="56.46507" lon="60.785297">
        <ele>251.5</ele>
        <time>1970-01-01T07:41:55.626Z</time>
    </trkpt>
    <trkpt lat="56.465034" lon="60.785283">
        <ele>251.4</ele>
        <time>1970-01-01T07:41:56.626Z</time>
    </trkpt>
    <trkpt lat="56.465021" lon="60.785277">
        <ele>251.3</ele>
        <time>1970-01-01T07:41:57.626Z</time>
    </trkpt>
    <trkpt lat="56.464983" lon="60.785268">
        <ele>251.2</ele>
        <time>1970-01-01T07:41:58.626Z</time>
    </trkpt>
    <trkpt lat="56.464955" lon="60.785251">
        <ele>251.2</ele>
        <time>1970-01-01T07:41:59.626Z</time>
    </trkpt>
    <trkpt lat="56.464943" lon="60.785248">
        <ele>251.2</ele>
        <time>1970-01-01T07:42:00.626Z</time>
    </trkpt>
    <trkpt lat="56.464906" lon="60.785233">
        <ele>251.1</ele>
        <time>1970-01-01T07:42:01.626Z</time>
    </trkpt>
    <trkpt lat="56.464892" lon="60.785227">
        <ele>251.1</ele>
        <time>1970-01-01T07:42:02.626Z</time>
    </trkpt>
    <trkpt lat="56.464857" lon="60.785207">
        <ele>251.0</ele>
        <time>1970-01-01T07:42:03.626Z</time>
    </trkpt>
    <trkpt lat="56.464844" lon="60.785201">
        <ele>251.0</ele>
        <time>1970-01-01T07:42:04.626Z</time>
    </trkpt>
    <trkpt lat="56.464814" lon="60.785192">
        <ele>251.0</ele>
        <time>1970-01-01T07:42:05.626Z</time>
    </trkpt>
    <trkpt lat="56.464804" lon="60.785189">
        <ele>251.0</ele>
        <time>1970-01-01T07:42:06.626Z</time>
    </trkpt>
    <trkpt lat="56.464769" lon="60.785185">
        <ele>250.9</ele>
        <time>1970-01-01T07:42:07.626Z</time>
    </trkpt>
    <trkpt lat="56.464741" lon="60.785174">
        <ele>250.9</ele>
        <time>1970-01-01T07:42:08.626Z</time>
    </trkpt>
    <trkpt lat="56.464709" lon="60.785167">
        <ele>250.9</ele>
        <time>1970-01-01T07:42:09.626Z</time>
    </trkpt>
    <trkpt lat="56.464695" lon="60.785164">
        <ele>250.9</ele>
        <time>1970-01-01T07:42:10.626Z</time>
    </trkpt>
    <trkpt lat="56.464655" lon="60.785148">
        <ele>250.8</ele>
        <time>1970-01-01T07:42:11.626Z</time>
    </trkpt>
    <trkpt lat="56.464645" lon="60.785147">
        <ele>250.8</ele>
        <time>1970-01-01T07:42:12.626Z</time>
    </trkpt>
    <trkpt lat="56.464619" lon="60.785146">
        <ele>250.8</ele>
        <time>1970-01-01T07:42:13.626Z</time>
    </trkpt>
    <trkpt lat="56.464597" lon="60.785144">
        <ele>250.8</ele>
        <time>1970-01-01T07:42:14.626Z</time>
    </trkpt>
    <trkpt lat="56.464584" lon="60.785137">
        <ele>250.7</ele>
        <time>1970-01-01T07:42:15.626Z</time>
    </trkpt>
    <trkpt lat="56.464575" lon="60.785131">
        <ele>250.7</ele>
        <time>1970-01-01T07:42:16.626Z</time>
    </trkpt>
    <trkpt lat="56.464566" lon="60.785125">
        <ele>250.7</ele>
        <time>1970-01-01T07:42:17.626Z</time>
    </trkpt>
    <trkpt lat="56.464558" lon="60.785119">
        <ele>250.7</ele>
        <time>1970-01-01T07:42:18.626Z</time>
    </trkpt>
    <trkpt lat="56.464549" lon="60.785114">
        <ele>250.7</ele>
        <time>1970-01-01T07:42:19.626Z</time>
    </trkpt>
    <trkpt lat="56.46454" lon="60.785108">
        <ele>250.7</ele>
        <time>1970-01-01T07:43:57.626Z</time>
    </trkpt>
    <trkpt lat="56.464531" lon="60.785102">
        <ele>250.7</ele>
        <time>1970-01-01T07:43:58.626Z</time>
    </trkpt>
    <trkpt lat="56.464523" lon="60.785097">
        <ele>250.7</ele>
        <time>1970-01-01T07:43:59.626Z</time>
    </trkpt>
    <trkpt lat="56.464514" lon="60.785091">
        <ele>250.6</ele>
        <time>1970-01-01T07:44:00.626Z</time>
    </trkpt>
    <trkpt lat="56.464505" lon="60.785085">
        <ele>250.6</ele>
        <time>1970-01-01T07:44:01.626Z</time>
    </trkpt>
    <trkpt lat="56.464496" lon="60.785079">
        <ele>250.6</ele>
        <time>1970-01-01T07:44:02.626Z</time>
    </trkpt>
    <trkpt lat="56.464488" lon="60.785074">
        <ele>250.6</ele>
        <time>1970-01-01T07:44:03.626Z</time>
    </trkpt>
    <trkpt lat="56.464479" lon="60.785068">
        <ele>250.6</ele>
        <time>1970-01-01T07:44:04.626Z</time>
    </trkpt>
    <trkpt lat="56.46447" lon="60.785062">
        <ele>250.6</ele>
        <time>1970-01-01T07:44:05.626Z</time>
    </trkpt>
    <trkpt lat="56.464461" lon="60.785057">
        <ele>250.6</ele>
        <time>1970-01-01T07:44:06.626Z</time>
    </trkpt>
    <trkpt lat="56.464453" lon="60.785051">
        <ele>250.5</ele>
        <time>1970-01-01T07:44:07.626Z</time>
    </trkpt>
    <trkpt lat="56.464437" lon="60.785042">
        <ele>250.5</ele>
        <time>1970-01-01T07:44:08.626Z</time>
    </trkpt>
    <trkpt lat="56.464424" lon="60.785042">
        <ele>250.5</ele>
        <time>1970-01-01T07:44:09.626Z</time>
    </trkpt>
    <trkpt lat="56.4644" lon="60.78503">
        <ele>250.5</ele>
        <time>1970-01-01T07:44:10.626Z</time>
    </trkpt>
    <trkpt lat="56.464391" lon="60.785026">
        <ele>250.4</ele>
        <time>1970-01-01T07:44:11.626Z</time>
    </trkpt>
    <trkpt lat="56.464372" lon="60.785024">
        <ele>250.4</ele>
        <time>1970-01-01T07:44:12.626Z</time>
    </trkpt>
    <trkpt lat="56.46436" lon="60.78502">
        <ele>250.4</ele>
        <time>1970-01-01T07:44:13.626Z</time>
    </trkpt>
    <trkpt lat="56.464329" lon="60.785011">
        <ele>250.3</ele>
        <time>1970-01-01T07:44:14.626Z</time>
    </trkpt>
    <trkpt lat="56.464299" lon="60.785008">
        <ele>250.3</ele>
        <time>1970-01-01T07:44:15.626Z</time>
    </trkpt>
    <trkpt lat="56.464272" lon="60.785">
        <ele>250.3</ele>
        <time>1970-01-01T07:44:16.626Z</time>
    </trkpt>
    <trkpt lat="56.464259" lon="60.784994">
        <ele>250.3</ele>
        <time>1970-01-01T07:44:17.626Z</time>
    </trkpt>
    <trkpt lat="56.464229" lon="60.784976">
        <ele>250.2</ele>
        <time>1970-01-01T07:44:18.626Z</time>
    </trkpt>
    <trkpt lat="56.464201" lon="60.784962">
        <ele>250.2</ele>
        <time>1970-01-01T07:44:19.626Z</time>
    </trkpt>
    <trkpt lat="56.464173" lon="60.784951">
        <ele>250.2</ele>
        <time>1970-01-01T07:44:20.626Z</time>
    </trkpt>
    <trkpt lat="56.464144" lon="60.784936">
        <ele>250.2</ele>
        <time>1970-01-01T07:44:21.626Z</time>
    </trkpt>
    <trkpt lat="56.464131" lon="60.784927">
        <ele>250.2</ele>
        <time>1970-01-01T07:44:22.626Z</time>
    </trkpt>
    <trkpt lat="56.464094" lon="60.784908">
        <ele>250.2</ele>
        <time>1970-01-01T07:44:23.626Z</time>
    </trkpt>
    <trkpt lat="56.464068" lon="60.784887">
        <ele>250.2</ele>
        <time>1970-01-01T07:44:24.626Z</time>
    </trkpt>
    <trkpt lat="56.464053" lon="60.784881">
        <ele>250.2</ele>
        <time>1970-01-01T07:44:25.626Z</time>
    </trkpt>
    <trkpt lat="56.464013" lon="60.784862">
        <ele>250.2</ele>
        <time>1970-01-01T07:44:26.626Z</time>
    </trkpt>
    <trkpt lat="56.463981" lon="60.784849">
        <ele>250.2</ele>
        <time>1970-01-01T07:44:27.626Z</time>
    </trkpt>
    <trkpt lat="56.46397" lon="60.784847">
        <ele>250.2</ele>
        <time>1970-01-01T07:44:28.626Z</time>
    </trkpt>
    <trkpt lat="56.463933" lon="60.784849">
        <ele>250.2</ele>
        <time>1970-01-01T07:44:29.626Z</time>
    </trkpt>
    <trkpt lat="56.46392" lon="60.78485">
        <ele>250.2</ele>
        <time>1970-01-01T07:44:30.626Z</time>
    </trkpt>
    <trkpt lat="56.463882" lon="60.784858">
        <ele>250.2</ele>
        <time>1970-01-01T07:44:31.626Z</time>
    </trkpt>
    <trkpt lat="56.463854" lon="60.784853">
        <ele>250.2</ele>
        <time>1970-01-01T07:44:32.626Z</time>
    </trkpt>
    <trkpt lat="56.463821" lon="60.784849">
        <ele>250.2</ele>
        <time>1970-01-01T07:44:33.626Z</time>
    </trkpt>
    <trkpt lat="56.463809" lon="60.784845">
        <ele>250.2</ele>
        <time>1970-01-01T07:44:34.626Z</time>
    </trkpt>
    <trkpt lat="56.463775" lon="60.784839">
        <ele>250.2</ele>
        <time>1970-01-01T07:44:35.626Z</time>
    </trkpt>
    <trkpt lat="56.463766" lon="60.78484">
        <ele>250.2</ele>
        <time>1970-01-01T07:44:36.626Z</time>
    </trkpt>
    <trkpt lat="56.463733" lon="60.78484">
        <ele>250.2</ele>
        <time>1970-01-01T07:44:37.626Z</time>
    </trkpt>
    <trkpt lat="56.46372" lon="60.784838">
        <ele>250.2</ele>
        <time>1970-01-01T07:44:38.626Z</time>
    </trkpt>
    <trkpt lat="56.463683" lon="60.784834">
        <ele>250.3</ele>
        <time>1970-01-01T07:44:39.626Z</time>
    </trkpt>
    <trkpt lat="56.463666" lon="60.784826">
        <ele>250.3</ele>
        <time>1970-01-01T07:44:40.626Z</time>
    </trkpt>
    <trkpt lat="56.463649" lon="60.784818">
        <ele>250.3</ele>
        <time>1970-01-01T07:44:41.626Z</time>
    </trkpt>
    <trkpt lat="56.463602" lon="60.784796">
        <ele>250.3</ele>
        <time>1970-01-01T07:44:43.626Z</time>
    </trkpt>
    <trkpt lat="56.46357" lon="60.784791">
        <ele>250.4</ele>
        <time>1970-01-01T07:44:44.626Z</time>
    </trkpt>
    <trkpt lat="56.463557" lon="60.784785">
        <ele>250.4</ele>
        <time>1970-01-01T07:44:45.626Z</time>
    </trkpt>
    <trkpt lat="56.463518" lon="60.784773">
        <ele>250.4</ele>
        <time>1970-01-01T07:44:46.626Z</time>
    </trkpt>
    <trkpt lat="56.463505" lon="60.78477">
        <ele>250.4</ele>
        <time>1970-01-01T07:44:47.626Z</time>
    </trkpt>
    <trkpt lat="56.463467" lon="60.784755">
        <ele>250.5</ele>
        <time>1970-01-01T07:44:48.626Z</time>
    </trkpt>
    <trkpt lat="56.46344" lon="60.784746">
        <ele>250.5</ele>
        <time>1970-01-01T07:44:49.626Z</time>
    </trkpt>
    <trkpt lat="56.463424" lon="60.784738">
        <ele>250.5</ele>
        <time>1970-01-01T07:44:50.626Z</time>
    </trkpt>
    <trkpt lat="56.463385" lon="60.784718">
        <ele>250.5</ele>
        <time>1970-01-01T07:44:51.626Z</time>
    </trkpt>
    <trkpt lat="56.46337" lon="60.784708">
        <ele>250.5</ele>
        <time>1970-01-01T07:44:52.626Z</time>
    </trkpt>
    <trkpt lat="56.463332" lon="60.784694">
        <ele>250.5</ele>
        <time>1970-01-01T07:44:53.626Z</time>
    </trkpt>
    <trkpt lat="56.4633" lon="60.784692">
        <ele>250.6</ele>
        <time>1970-01-01T07:44:54.626Z</time>
    </trkpt>
    <trkpt lat="56.463289" lon="60.784693">
        <ele>250.6</ele>
        <time>1970-01-01T07:44:55.626Z</time>
    </trkpt>
    <trkpt lat="56.463253" lon="60.784689">
        <ele>250.6</ele>
        <time>1970-01-01T07:44:56.626Z</time>
    </trkpt>
    <trkpt lat="56.463244" lon="60.784694">
        <ele>250.6</ele>
        <time>1970-01-01T07:44:57.626Z</time>
    </trkpt>
    <trkpt lat="56.463217" lon="60.784707">
        <ele>250.7</ele>
        <time>1970-01-01T07:44:58.626Z</time>
    </trkpt>
    <trkpt lat="56.463205" lon="60.784711">
        <ele>250.7</ele>
        <time>1970-01-01T07:44:59.626Z</time>
    </trkpt>
    <trkpt lat="56.46317" lon="60.784718">
        <ele>250.7</ele>
        <time>1970-01-01T07:45:00.626Z</time>
    </trkpt>
    <trkpt lat="56.463154" lon="60.784718">
        <ele>250.8</ele>
        <time>1970-01-01T07:45:01.626Z</time>
    </trkpt>
    <trkpt lat="56.463116" lon="60.784723">
        <ele>250.8</ele>
        <time>1970-01-01T07:45:02.626Z</time>
    </trkpt>
    <trkpt lat="56.463085" lon="60.784705">
        <ele>250.9</ele>
        <time>1970-01-01T07:45:03.626Z</time>
    </trkpt>
    <trkpt lat="56.463053" lon="60.784698">
        <ele>251.0</ele>
        <time>1970-01-01T07:45:04.626Z</time>
    </trkpt>
    <trkpt lat="56.463023" lon="60.784716">
        <ele>251.1</ele>
        <time>1970-01-01T07:45:05.626Z</time>
    </trkpt>
    <trkpt lat="56.462991" lon="60.784712">
        <ele>251.2</ele>
        <time>1970-01-01T07:45:06.626Z</time>
    </trkpt>
    <trkpt lat="56.462959" lon="60.784709">
        <ele>251.3</ele>
        <time>1970-01-01T07:45:07.626Z</time>
    </trkpt>
    <trkpt lat="56.462931" lon="60.784698">
        <ele>251.4</ele>
        <time>1970-01-01T07:45:08.626Z</time>
    </trkpt>
    <trkpt lat="56.4629" lon="60.784696">
        <ele>251.5</ele>
        <time>1970-01-01T07:45:09.626Z</time>
    </trkpt>
    <trkpt lat="56.462865" lon="60.784691">
        <ele>251.6</ele>
        <time>1970-01-01T07:45:10.626Z</time>
    </trkpt>
    <trkpt lat="56.462834" lon="60.784685">
        <ele>251.7</ele>
        <time>1970-01-01T07:45:11.626Z</time>
    </trkpt>
    <trkpt lat="56.462801" lon="60.784681">
        <ele>251.8</ele>
        <time>1970-01-01T07:45:12.626Z</time>
    </trkpt>
    <trkpt lat="56.462771" lon="60.784668">
        <ele>251.8</ele>
        <time>1970-01-01T07:45:13.626Z</time>
    </trkpt>
    <trkpt lat="56.462735" lon="60.784653">
        <ele>252.0</ele>
        <time>1970-01-01T07:45:14.626Z</time>
    </trkpt>
    <trkpt lat="56.462697" lon="60.784649">
        <ele>252.1</ele>
        <time>1970-01-01T07:45:15.626Z</time>
    </trkpt>
    <trkpt lat="56.462664" lon="60.784639">
        <ele>252.2</ele>
        <time>1970-01-01T07:45:16.626Z</time>
    </trkpt>
    <trkpt lat="56.462626" lon="60.784625">
        <ele>252.4</ele>
        <time>1970-01-01T07:45:17.626Z</time>
    </trkpt>
    <trkpt lat="56.46259" lon="60.784609">
        <ele>252.6</ele>
        <time>1970-01-01T07:45:18.626Z</time>
    </trkpt>
    <trkpt lat="56.462552" lon="60.784606">
        <ele>252.8</ele>
        <time>1970-01-01T07:45:19.626Z</time>
    </trkpt>
    <trkpt lat="56.462518" lon="60.784601">
        <ele>252.9</ele>
        <time>1970-01-01T07:45:20.626Z</time>
    </trkpt>
    <trkpt lat="56.462486" lon="60.784592">
        <ele>253.1</ele>
        <time>1970-01-01T07:45:21.626Z</time>
    </trkpt>
    <trkpt lat="56.462455" lon="60.784584">
        <ele>253.2</ele>
        <time>1970-01-01T07:45:22.626Z</time>
    </trkpt>
    <trkpt lat="56.462428" lon="60.784577">
        <ele>253.3</ele>
        <time>1970-01-01T07:45:23.626Z</time>
    </trkpt>
    <trkpt lat="56.462417" lon="60.784573">
        <ele>253.4</ele>
        <time>1970-01-01T07:45:24.626Z</time>
    </trkpt>
    <trkpt lat="56.462384" lon="60.784565">
        <ele>253.5</ele>
        <time>1970-01-01T07:45:25.626Z</time>
    </trkpt>
    <trkpt lat="56.462371" lon="60.784563">
        <ele>253.6</ele>
        <time>1970-01-01T07:45:26.626Z</time>
    </trkpt>
    <trkpt lat="56.462333" lon="60.784556">
        <ele>253.7</ele>
        <time>1970-01-01T07:45:27.626Z</time>
    </trkpt>
    <trkpt lat="56.462318" lon="60.784551">
        <ele>253.7</ele>
        <time>1970-01-01T07:45:28.626Z</time>
    </trkpt>
    <trkpt lat="56.462282" lon="60.784539">
        <ele>253.9</ele>
        <time>1970-01-01T07:45:29.626Z</time>
    </trkpt>
    <trkpt lat="56.46227" lon="60.784537">
        <ele>253.9</ele>
        <time>1970-01-01T07:45:30.626Z</time>
    </trkpt>
    <trkpt lat="56.462232" lon="60.784531">
        <ele>254.0</ele>
        <time>1970-01-01T07:45:31.626Z</time>
    </trkpt>
    <trkpt lat="56.462218" lon="60.784524">
        <ele>254.0</ele>
        <time>1970-01-01T07:45:32.626Z</time>
    </trkpt>
    <trkpt lat="56.462178" lon="60.78451">
        <ele>254.1</ele>
        <time>1970-01-01T07:45:33.626Z</time>
    </trkpt>
    <trkpt lat="56.462149" lon="60.7845">
        <ele>254.2</ele>
        <time>1970-01-01T07:45:34.626Z</time>
    </trkpt>
    <trkpt lat="56.462121" lon="60.784492">
        <ele>254.3</ele>
        <time>1970-01-01T07:45:35.626Z</time>
    </trkpt>
    <trkpt lat="56.462092" lon="60.784483">
        <ele>254.4</ele>
        <time>1970-01-01T07:45:36.626Z</time>
    </trkpt>
    <trkpt lat="56.462062" lon="60.784476">
        <ele>254.4</ele>
        <time>1970-01-01T07:45:37.626Z</time>
    </trkpt>
    <trkpt lat="56.462036" lon="60.784462">
        <ele>254.5</ele>
        <time>1970-01-01T07:45:38.626Z</time>
    </trkpt>
    <trkpt lat="56.462023" lon="60.784455">
        <ele>254.5</ele>
        <time>1970-01-01T07:45:39.626Z</time>
    </trkpt>
    <trkpt lat="56.461985" lon="60.784447">
        <ele>254.6</ele>
        <time>1970-01-01T07:45:40.626Z</time>
    </trkpt>
    <trkpt lat="56.461961" lon="60.784422">
        <ele>254.7</ele>
        <time>1970-01-01T07:45:41.626Z</time>
    </trkpt>
    <trkpt lat="56.46195" lon="60.784418">
        <ele>254.7</ele>
        <time>1970-01-01T07:45:42.626Z</time>
    </trkpt>
    <trkpt lat="56.461919" lon="60.784407">
        <ele>254.8</ele>
        <time>1970-01-01T07:45:43.626Z</time>
    </trkpt>
    <trkpt lat="56.461908" lon="60.784402">
        <ele>254.8</ele>
        <time>1970-01-01T07:45:44.626Z</time>
    </trkpt>
    <trkpt lat="56.461874" lon="60.784385">
        <ele>254.9</ele>
        <time>1970-01-01T07:45:45.626Z</time>
    </trkpt>
    <trkpt lat="56.461863" lon="60.784385">
        <ele>254.9</ele>
        <time>1970-01-01T07:45:46.626Z</time>
    </trkpt>
    <trkpt lat="56.461831" lon="60.784377">
        <ele>255.0</ele>
        <time>1970-01-01T07:45:47.626Z</time>
    </trkpt>
    <trkpt lat="56.461819" lon="60.784372">
        <ele>255.0</ele>
        <time>1970-01-01T07:45:48.626Z</time>
    </trkpt>
    <trkpt lat="56.461781" lon="60.784361">
        <ele>255.1</ele>
        <time>1970-01-01T07:45:49.626Z</time>
    </trkpt>
    <trkpt lat="56.461766" lon="60.78436">
        <ele>255.1</ele>
        <time>1970-01-01T07:45:50.626Z</time>
    </trkpt>
    <trkpt lat="56.46173" lon="60.784351">
        <ele>255.2</ele>
        <time>1970-01-01T07:45:51.626Z</time>
    </trkpt>
    <trkpt lat="56.461703" lon="60.784349">
        <ele>255.2</ele>
        <time>1970-01-01T07:45:52.626Z</time>
    </trkpt>
    <trkpt lat="56.46169" lon="60.784346">
        <ele>255.2</ele>
        <time>1970-01-01T07:45:53.626Z</time>
    </trkpt>
    <trkpt lat="56.461655" lon="60.784344">
        <ele>255.2</ele>
        <time>1970-01-01T07:45:54.626Z</time>
    </trkpt>
    <trkpt lat="56.461638" lon="60.784345">
        <ele>255.2</ele>
        <time>1970-01-01T07:45:55.626Z</time>
    </trkpt>
    <trkpt lat="56.46162" lon="60.784342">
        <ele>255.3</ele>
        <time>1970-01-01T07:45:56.626Z</time>
    </trkpt>
    <trkpt lat="56.461609" lon="60.784339">
        <ele>255.3</ele>
        <time>1970-01-01T07:45:57.626Z</time>
    </trkpt>
    <trkpt lat="56.461577" lon="60.784333">
        <ele>255.3</ele>
        <time>1970-01-01T07:45:58.626Z</time>
    </trkpt>
    <trkpt lat="56.461562" lon="60.784327">
        <ele>255.3</ele>
        <time>1970-01-01T07:45:59.626Z</time>
    </trkpt>
    <trkpt lat="56.46152" lon="60.784321">
        <ele>255.2</ele>
        <time>1970-01-01T07:46:00.626Z</time>
    </trkpt>
    <trkpt lat="56.461495" lon="60.784316">
        <ele>255.2</ele>
        <time>1970-01-01T07:46:01.626Z</time>
    </trkpt>
    <trkpt lat="56.461472" lon="60.784309">
        <ele>255.1</ele>
        <time>1970-01-01T07:46:02.626Z</time>
    </trkpt>
    <trkpt lat="56.461428" lon="60.7843">
        <ele>255.0</ele>
        <time>1970-01-01T07:46:03.626Z</time>
    </trkpt>
    <trkpt lat="56.461418" lon="60.784298">
        <ele>255.0</ele>
        <time>1970-01-01T07:46:04.626Z</time>
    </trkpt>
    <trkpt lat="56.461386" lon="60.78429">
        <ele>254.8</ele>
        <time>1970-01-01T07:46:05.626Z</time>
    </trkpt>
    <trkpt lat="56.461376" lon="60.784288">
        <ele>254.8</ele>
        <time>1970-01-01T07:46:06.626Z</time>
    </trkpt>
    <trkpt lat="56.46135" lon="60.784283">
        <ele>254.7</ele>
        <time>1970-01-01T07:46:07.626Z</time>
    </trkpt>
    <trkpt lat="56.461341" lon="60.784282">
        <ele>254.7</ele>
        <time>1970-01-01T07:46:08.626Z</time>
    </trkpt>
    <trkpt lat="56.461313" lon="60.784278">
        <ele>254.6</ele>
        <time>1970-01-01T07:46:09.626Z</time>
    </trkpt>
    <trkpt lat="56.461301" lon="60.784278">
        <ele>254.6</ele>
        <time>1970-01-01T07:46:10.626Z</time>
    </trkpt>
    <trkpt lat="56.461272" lon="60.78427">
        <ele>254.4</ele>
        <time>1970-01-01T07:46:11.626Z</time>
    </trkpt>
    <trkpt lat="56.461261" lon="60.784268">
        <ele>254.4</ele>
        <time>1970-01-01T07:46:12.626Z</time>
    </trkpt>
    <trkpt lat="56.461231" lon="60.784262">
        <ele>254.3</ele>
        <time>1970-01-01T07:46:13.626Z</time>
    </trkpt>
    <trkpt lat="56.461213" lon="60.78426">
        <ele>254.2</ele>
        <time>1970-01-01T07:46:14.626Z</time>
    </trkpt>
    <trkpt lat="56.461201" lon="60.784255">
        <ele>254.2</ele>
        <time>1970-01-01T07:46:15.626Z</time>
    </trkpt>
    <trkpt lat="56.46119" lon="60.784252">
        <ele>254.1</ele>
        <time>1970-01-01T07:46:16.626Z</time>
    </trkpt>
    <trkpt lat="56.461187" lon="60.784251">
        <ele>254.1</ele>
        <time>1970-01-01T07:46:17.626Z</time>
    </trkpt>
    <trkpt lat="56.461181" lon="60.78425">
        <ele>254.1</ele>
        <time>1970-01-01T07:46:18.626Z</time>
    </trkpt>
    <trkpt lat="56.461168" lon="60.784247">
        <ele>254.0</ele>
        <time>1970-01-01T07:46:19.626Z</time>
    </trkpt>
    <trkpt lat="56.461158" lon="60.784247">
        <ele>253.9</ele>
        <time>1970-01-01T07:46:20.626Z</time>
    </trkpt>
    <trkpt lat="56.461146" lon="60.784243">
        <ele>253.9</ele>
        <time>1970-01-01T07:46:21.626Z</time>
    </trkpt>
    <trkpt lat="56.461133" lon="60.784237">
        <ele>253.8</ele>
        <time>1970-01-01T07:46:22.626Z</time>
    </trkpt>
    <trkpt lat="56.461123" lon="60.784236">
        <ele>253.7</ele>
        <time>1970-01-01T07:46:23.626Z</time>
    </trkpt>
    <trkpt lat="56.461111" lon="60.784233">
        <ele>253.7</ele>
        <time>1970-01-01T07:46:24.626Z</time>
    </trkpt>
    <trkpt lat="56.461098" lon="60.784226">
        <ele>253.6</ele>
        <time>1970-01-01T07:46:25.626Z</time>
    </trkpt>
    <trkpt lat="56.461087" lon="60.784223">
        <ele>253.5</ele>
        <time>1970-01-01T07:46:26.626Z</time>
    </trkpt>
    <trkpt lat="56.461077" lon="60.784223">
        <ele>253.5</ele>
        <time>1970-01-01T07:46:27.626Z</time>
    </trkpt>
    <trkpt lat="56.461067" lon="60.784219">
        <ele>253.4</ele>
        <time>1970-01-01T07:46:28.626Z</time>
    </trkpt>
    <trkpt lat="56.461058" lon="60.784218">
        <ele>253.4</ele>
        <time>1970-01-01T07:46:29.626Z</time>
    </trkpt>
    <trkpt lat="56.46105" lon="60.784216">
        <ele>253.3</ele>
        <time>1970-01-01T07:46:30.626Z</time>
    </trkpt>
    <trkpt lat="56.46103" lon="60.784214">
        <ele>253.2</ele>
        <time>1970-01-01T07:46:31.626Z</time>
    </trkpt>
    <trkpt lat="56.461021" lon="60.784212">
        <ele>253.1</ele>
        <time>1970-01-01T07:46:32.626Z</time>
    </trkpt>
    <trkpt lat="56.461013" lon="60.784211">
        <ele>253.1</ele>
        <time>1970-01-01T07:46:33.626Z</time>
    </trkpt>
    <trkpt lat="56.460992" lon="60.784206">
        <ele>252.9</ele>
        <time>1970-01-01T07:46:34.626Z</time>
    </trkpt>
    <trkpt lat="56.460979" lon="60.784204">
        <ele>252.9</ele>
        <time>1970-01-01T07:46:35.626Z</time>
    </trkpt>
    <trkpt lat="56.460965" lon="60.7842">
        <ele>252.8</ele>
        <time>1970-01-01T07:46:36.626Z</time>
    </trkpt>
    <trkpt lat="56.460955" lon="60.784195">
        <ele>252.7</ele>
        <time>1970-01-01T07:46:37.626Z</time>
    </trkpt>
    <trkpt lat="56.460946" lon="60.784191">
        <ele>252.6</ele>
        <time>1970-01-01T07:46:38.626Z</time>
    </trkpt>
    <trkpt lat="56.460935" lon="60.784187">
        <ele>252.6</ele>
        <time>1970-01-01T07:46:39.626Z</time>
    </trkpt>
    <trkpt lat="56.460926" lon="60.784187">
        <ele>252.5</ele>
        <time>1970-01-01T07:46:40.626Z</time>
    </trkpt>
    <trkpt lat="56.460913" lon="60.784187">
        <ele>252.4</ele>
        <time>1970-01-01T07:46:41.626Z</time>
    </trkpt>
    <trkpt lat="56.460904" lon="60.784183">
        <ele>252.4</ele>
        <time>1970-01-01T07:46:42.626Z</time>
    </trkpt>
    <trkpt lat="56.460895" lon="60.784178">
        <ele>252.3</ele>
        <time>1970-01-01T07:46:43.626Z</time>
    </trkpt>
    <trkpt lat="56.460882" lon="60.784179">
        <ele>252.2</ele>
        <time>1970-01-01T07:46:44.626Z</time>
    </trkpt>
    <trkpt lat="56.46087" lon="60.784179">
        <ele>252.1</ele>
        <time>1970-01-01T07:46:45.626Z</time>
    </trkpt>
    <trkpt lat="56.460858" lon="60.784168">
        <ele>252.0</ele>
        <time>1970-01-01T07:46:46.626Z</time>
    </trkpt>
    <trkpt lat="56.460844" lon="60.784158">
        <ele>251.9</ele>
        <time>1970-01-01T07:46:47.626Z</time>
    </trkpt>
    <trkpt lat="56.460831" lon="60.784154">
        <ele>251.8</ele>
        <time>1970-01-01T07:46:49.626Z</time>
    </trkpt>
    <trkpt lat="56.460818" lon="60.784149">
        <ele>251.7</ele>
        <time>1970-01-01T07:46:50.626Z</time>
    </trkpt>
    <trkpt lat="56.460807" lon="60.784146">
        <ele>251.7</ele>
        <time>1970-01-01T07:46:51.626Z</time>
    </trkpt>
    <trkpt lat="56.460796" lon="60.78414">
        <ele>251.6</ele>
        <time>1970-01-01T07:46:52.626Z</time>
    </trkpt>
    <trkpt lat="56.460788" lon="60.78414">
        <ele>251.5</ele>
        <time>1970-01-01T07:46:53.626Z</time>
    </trkpt>
    <trkpt lat="56.460777" lon="60.784133">
        <ele>251.4</ele>
        <time>1970-01-01T07:46:54.626Z</time>
    </trkpt>
    <trkpt lat="56.460761" lon="60.784132">
        <ele>251.3</ele>
        <time>1970-01-01T07:46:55.626Z</time>
    </trkpt>
    <trkpt lat="56.460747" lon="60.784127">
        <ele>251.2</ele>
        <time>1970-01-01T07:46:56.626Z</time>
    </trkpt>
    <trkpt lat="56.460741" lon="60.784123">
        <ele>251.2</ele>
        <time>1970-01-01T07:46:57.626Z</time>
    </trkpt>
    <trkpt lat="56.460727" lon="60.784123">
        <ele>251.1</ele>
        <time>1970-01-01T07:46:58.626Z</time>
    </trkpt>
    <trkpt lat="56.460718" lon="60.784122">
        <ele>251.0</ele>
        <time>1970-01-01T07:46:59.626Z</time>
    </trkpt>
    <trkpt lat="56.460706" lon="60.784123">
        <ele>250.9</ele>
        <time>1970-01-01T07:47:00.626Z</time>
    </trkpt>
    <trkpt lat="56.460696" lon="60.784119">
        <ele>250.8</ele>
        <time>1970-01-01T07:47:01.626Z</time>
    </trkpt>
    <trkpt lat="56.460642" lon="60.784062">
        <ele>250.4</ele>
        <time>1970-01-01T07:47:11.626Z</time>
    </trkpt>
    <trkpt lat="56.460642" lon="60.784062">
        <ele>250.4</ele>
        <time>1970-01-01T07:47:12.626Z</time>
    </trkpt>
    <trkpt lat="56.460642" lon="60.784062">
        <ele>250.4</ele>
        <time>1970-01-01T07:47:13.626Z</time>
    </trkpt>
    <trkpt lat="56.460642" lon="60.784062">
        <ele>250.4</ele>
        <time>1970-01-01T07:47:14.626Z</time>
    </trkpt>
    <trkpt lat="56.460642" lon="60.784062">
        <ele>250.4</ele>
        <time>1970-01-01T07:47:15.626Z</time>
    </trkpt>
    <trkpt lat="56.460642" lon="60.784062">
        <ele>250.4</ele>
        <time>1970-01-01T07:47:16.626Z</time>
    </trkpt>
    <trkpt lat="56.460642" lon="60.784062">
        <ele>250.4</ele>
        <time>1970-01-01T07:47:17.626Z</time>
    </trkpt>
    <trkpt lat="56.460635" lon="60.784061">
        <ele>250.3</ele>
        <time>1970-01-01T07:47:18.626Z</time>
    </trkpt>
    <trkpt lat="56.460635" lon="60.784061">
        <ele>250.3</ele>
        <time>1970-01-01T07:47:19.626Z</time>
    </trkpt>
    <trkpt lat="56.460636" lon="60.784061">
        <ele>250.3</ele>
        <time>1970-01-01T07:47:20.626Z</time>
    </trkpt>
    <trkpt lat="56.460639" lon="60.784069">
        <ele>250.3</ele>
        <time>1970-01-01T07:47:21.626Z</time>
    </trkpt>
    <trkpt lat="56.460639" lon="60.784069">
        <ele>250.3</ele>
        <time>1970-01-01T07:47:22.626Z</time>
    </trkpt>
    <trkpt lat="56.460629" lon="60.784071">
        <ele>250.2</ele>
        <time>1970-01-01T07:47:23.626Z</time>
    </trkpt>
    <trkpt lat="56.460619" lon="60.784068">
        <ele>250.1</ele>
        <time>1970-01-01T07:47:24.626Z</time>
    </trkpt>
    <trkpt lat="56.460603" lon="60.784067">
        <ele>250.0</ele>
        <time>1970-01-01T07:47:25.626Z</time>
    </trkpt>
    <trkpt lat="56.460592" lon="60.784068">
        <ele>249.9</ele>
        <time>1970-01-01T07:47:26.626Z</time>
    </trkpt>
    <trkpt lat="56.460584" lon="60.784062">
        <ele>249.8</ele>
        <time>1970-01-01T07:47:27.626Z</time>
    </trkpt>
    <trkpt lat="56.460576" lon="60.784056">
        <ele>249.8</ele>
        <time>1970-01-01T07:47:28.626Z</time>
    </trkpt>
    <trkpt lat="56.460552" lon="60.784051">
        <ele>249.6</ele>
        <time>1970-01-01T07:47:29.626Z</time>
    </trkpt>
    <trkpt lat="56.46054" lon="60.784047">
        <ele>249.5</ele>
        <time>1970-01-01T07:47:30.626Z</time>
    </trkpt>
    <trkpt lat="56.460525" lon="60.784047">
        <ele>249.4</ele>
        <time>1970-01-01T07:47:31.626Z</time>
    </trkpt>
    <trkpt lat="56.460517" lon="60.784046">
        <ele>249.3</ele>
        <time>1970-01-01T07:47:32.626Z</time>
    </trkpt>
    <trkpt lat="56.460506" lon="60.784039">
        <ele>249.2</ele>
        <time>1970-01-01T07:47:33.626Z</time>
    </trkpt>
    <trkpt lat="56.460494" lon="60.784041">
        <ele>249.1</ele>
        <time>1970-01-01T07:47:34.626Z</time>
    </trkpt>
    <trkpt lat="56.460481" lon="60.784035">
        <ele>249.0</ele>
        <time>1970-01-01T07:47:35.626Z</time>
    </trkpt>
    <trkpt lat="56.460473" lon="60.784031">
        <ele>249.0</ele>
        <time>1970-01-01T07:47:36.626Z</time>
    </trkpt>
    <trkpt lat="56.460459" lon="60.784033">
        <ele>248.9</ele>
        <time>1970-01-01T07:47:37.626Z</time>
    </trkpt>
    <trkpt lat="56.460451" lon="60.784031">
        <ele>248.8</ele>
        <time>1970-01-01T07:47:38.626Z</time>
    </trkpt>
    <trkpt lat="56.460439" lon="60.784029">
        <ele>248.8</ele>
        <time>1970-01-01T07:47:39.626Z</time>
    </trkpt>
    <trkpt lat="56.460429" lon="60.784029">
        <ele>248.7</ele>
        <time>1970-01-01T07:47:40.626Z</time>
    </trkpt>
    <trkpt lat="56.460419" lon="60.784027">
        <ele>248.6</ele>
        <time>1970-01-01T07:47:41.626Z</time>
    </trkpt>
    <trkpt lat="56.460405" lon="60.784025">
        <ele>248.5</ele>
        <time>1970-01-01T07:47:42.626Z</time>
    </trkpt>
    <trkpt lat="56.460397" lon="60.784024">
        <ele>248.5</ele>
        <time>1970-01-01T07:47:43.626Z</time>
    </trkpt>
    <trkpt lat="56.460386" lon="60.784018">
        <ele>248.4</ele>
        <time>1970-01-01T07:47:44.626Z</time>
    </trkpt>
    <trkpt lat="56.460377" lon="60.784014">
        <ele>248.3</ele>
        <time>1970-01-01T07:47:45.626Z</time>
    </trkpt>
    <trkpt lat="56.460365" lon="60.78401">
        <ele>248.2</ele>
        <time>1970-01-01T07:47:46.626Z</time>
    </trkpt>
    <trkpt lat="56.460355" lon="60.784005">
        <ele>248.2</ele>
        <time>1970-01-01T07:47:47.626Z</time>
    </trkpt>
    <trkpt lat="56.460343" lon="60.784004">
        <ele>248.1</ele>
        <time>1970-01-01T07:47:48.626Z</time>
    </trkpt>
    <trkpt lat="56.460335" lon="60.784004">
        <ele>248.0</ele>
        <time>1970-01-01T07:47:49.626Z</time>
    </trkpt>
    <trkpt lat="56.460326" lon="60.783998">
        <ele>247.9</ele>
        <time>1970-01-01T07:47:50.626Z</time>
    </trkpt>
    <trkpt lat="56.460314" lon="60.783991">
        <ele>247.9</ele>
        <time>1970-01-01T07:47:51.626Z</time>
    </trkpt>
    <trkpt lat="56.460306" lon="60.783986">
        <ele>247.8</ele>
        <time>1970-01-01T07:47:52.626Z</time>
    </trkpt>
    <trkpt lat="56.460295" lon="60.783983">
        <ele>247.7</ele>
        <time>1970-01-01T07:47:53.626Z</time>
    </trkpt>
    <trkpt lat="56.460287" lon="60.783974">
        <ele>247.7</ele>
        <time>1970-01-01T07:47:54.626Z</time>
    </trkpt>
    <trkpt lat="56.460277" lon="60.783972">
        <ele>247.6</ele>
        <time>1970-01-01T07:47:55.626Z</time>
    </trkpt>
    <trkpt lat="56.460269" lon="60.783969">
        <ele>247.5</ele>
        <time>1970-01-01T07:47:56.626Z</time>
    </trkpt>
    <trkpt lat="56.46026" lon="60.78396">
        <ele>247.5</ele>
        <time>1970-01-01T07:47:57.626Z</time>
    </trkpt>
    <trkpt lat="56.460248" lon="60.783951">
        <ele>247.4</ele>
        <time>1970-01-01T07:47:58.626Z</time>
    </trkpt>
    <trkpt lat="56.460237" lon="60.783949">
        <ele>247.3</ele>
        <time>1970-01-01T07:47:59.626Z</time>
    </trkpt>
    <trkpt lat="56.460226" lon="60.783943">
        <ele>247.2</ele>
        <time>1970-01-01T07:48:00.626Z</time>
    </trkpt>
    <trkpt lat="56.460217" lon="60.78393">
        <ele>247.1</ele>
        <time>1970-01-01T07:48:01.626Z</time>
    </trkpt>
    <trkpt lat="56.460208" lon="60.783925">
        <ele>247.1</ele>
        <time>1970-01-01T07:48:02.626Z</time>
    </trkpt>
    <trkpt lat="56.460197" lon="60.783914">
        <ele>247.0</ele>
        <time>1970-01-01T07:48:03.626Z</time>
    </trkpt>
    <trkpt lat="56.460187" lon="60.783909">
        <ele>246.9</ele>
        <time>1970-01-01T07:48:04.626Z</time>
    </trkpt>
    <trkpt lat="56.460178" lon="60.783906">
        <ele>246.9</ele>
        <time>1970-01-01T07:48:05.626Z</time>
    </trkpt>
    <trkpt lat="56.460168" lon="60.783896">
        <ele>246.8</ele>
        <time>1970-01-01T07:48:06.626Z</time>
    </trkpt>
    <trkpt lat="56.46016" lon="60.783889">
        <ele>246.7</ele>
        <time>1970-01-01T07:48:07.626Z</time>
    </trkpt>
    <trkpt lat="56.46015" lon="60.783873">
        <ele>246.7</ele>
        <time>1970-01-01T07:48:08.626Z</time>
    </trkpt>
    <trkpt lat="56.46014" lon="60.783871">
        <ele>246.6</ele>
        <time>1970-01-01T07:48:09.626Z</time>
    </trkpt>
    <trkpt lat="56.460097" lon="60.783809">
        <ele>246.3</ele>
        <time>1970-01-01T07:49:24.626Z</time>
    </trkpt>
    <trkpt lat="56.460097" lon="60.783809">
        <ele>246.3</ele>
        <time>1970-01-01T07:49:25.626Z</time>
    </trkpt>
    <trkpt lat="56.460099" lon="60.783805">
        <ele>246.3</ele>
        <time>1970-01-01T07:49:26.626Z</time>
    </trkpt>
    <trkpt lat="56.460101" lon="60.783804">
        <ele>246.3</ele>
        <time>1970-01-01T07:49:27.626Z</time>
    </trkpt>
    <trkpt lat="56.460113" lon="60.783793">
        <ele>246.2</ele>
        <time>1970-01-01T07:49:28.626Z</time>
    </trkpt>
    <trkpt lat="56.460113" lon="60.783793">
        <ele>246.2</ele>
        <time>1970-01-01T07:49:29.626Z</time>
    </trkpt>
    <trkpt lat="56.460113" lon="60.783793">
        <ele>246.2</ele>
        <time>1970-01-01T07:49:30.626Z</time>
    </trkpt>
    <trkpt lat="56.460113" lon="60.783793">
        <ele>246.2</ele>
        <time>1970-01-01T07:49:31.626Z</time>
    </trkpt>
    <trkpt lat="56.460116" lon="60.783795">
        <ele>246.2</ele>
        <time>1970-01-01T07:49:32.626Z</time>
    </trkpt>
    <trkpt lat="56.460119" lon="60.783794">
        <ele>246.2</ele>
        <time>1970-01-01T07:49:33.626Z</time>
    </trkpt>
    <trkpt lat="56.460115" lon="60.783795">
        <ele>246.2</ele>
        <time>1970-01-01T07:49:34.626Z</time>
    </trkpt>
    <trkpt lat="56.460114" lon="60.783798">
        <ele>246.2</ele>
        <time>1970-01-01T07:49:35.626Z</time>
    </trkpt>
    <trkpt lat="56.460111" lon="60.783785">
        <ele>246.1</ele>
        <time>1970-01-01T07:49:36.626Z</time>
    </trkpt>
    <trkpt lat="56.46011" lon="60.783782">
        <ele>246.1</ele>
        <time>1970-01-01T07:49:37.626Z</time>
    </trkpt>
    <trkpt lat="56.460115" lon="60.783783">
        <ele>246.1</ele>
        <time>1970-01-01T07:49:38.626Z</time>
    </trkpt>
    <trkpt lat="56.460121" lon="60.783787">
        <ele>246.1</ele>
        <time>1970-01-01T07:49:39.626Z</time>
    </trkpt>
    <trkpt lat="56.460116" lon="60.783788">
        <ele>246.0</ele>
        <time>1970-01-01T07:49:40.626Z</time>
    </trkpt>
    <trkpt lat="56.460108" lon="60.783778">
        <ele>246.0</ele>
        <time>1970-01-01T07:49:41.626Z</time>
    </trkpt>
    <trkpt lat="56.460085" lon="60.783751">
        <ele>245.9</ele>
        <time>1970-01-01T07:49:42.626Z</time>
    </trkpt>
    <trkpt lat="56.460079" lon="60.783738">
        <ele>245.8</ele>
        <time>1970-01-01T07:49:43.626Z</time>
    </trkpt>
    <trkpt lat="56.460061" lon="60.783693">
        <ele>245.7</ele>
        <time>1970-01-01T07:49:44.626Z</time>
    </trkpt>
    <trkpt lat="56.460053" lon="60.783665">
        <ele>245.7</ele>
        <time>1970-01-01T07:49:45.626Z</time>
    </trkpt>
    <trkpt lat="56.46004" lon="60.783648">
        <ele>245.6</ele>
        <time>1970-01-01T07:49:46.626Z</time>
    </trkpt>
    <trkpt lat="56.46003" lon="60.783628">
        <ele>245.5</ele>
        <time>1970-01-01T07:49:47.626Z</time>
    </trkpt>
    <trkpt lat="56.460024" lon="60.783608">
        <ele>245.5</ele>
        <time>1970-01-01T07:49:48.626Z</time>
    </trkpt>
    <trkpt lat="56.46002" lon="60.783588">
        <ele>245.4</ele>
        <time>1970-01-01T07:49:49.626Z</time>
    </trkpt>
    <trkpt lat="56.460002" lon="60.783532">
        <ele>245.3</ele>
        <time>1970-01-01T07:49:50.626Z</time>
    </trkpt>
    <trkpt lat="56.459992" lon="60.783511">
        <ele>245.3</ele>
        <time>1970-01-01T07:49:51.626Z</time>
    </trkpt>
    <trkpt lat="56.459961" lon="60.783477">
        <ele>245.2</ele>
        <time>1970-01-01T07:49:52.626Z</time>
    </trkpt>
    <trkpt lat="56.459951" lon="60.783479">
        <ele>245.1</ele>
        <time>1970-01-01T07:49:53.626Z</time>
    </trkpt>
    <trkpt lat="56.459922" lon="60.783476">
        <ele>245.1</ele>
        <time>1970-01-01T07:49:54.626Z</time>
    </trkpt>
    <trkpt lat="56.459908" lon="60.783483">
        <ele>245.0</ele>
        <time>1970-01-01T07:49:55.626Z</time>
    </trkpt>
    <trkpt lat="56.45989" lon="60.783482">
        <ele>245.0</ele>
        <time>1970-01-01T07:49:56.626Z</time>
    </trkpt>
    <trkpt lat="56.459881" lon="60.783489">
        <ele>245.0</ele>
        <time>1970-01-01T07:49:57.626Z</time>
    </trkpt>
    <trkpt lat="56.459852" lon="60.783503">
        <ele>244.8</ele>
        <time>1970-01-01T07:49:58.626Z</time>
    </trkpt>
    <trkpt lat="56.459844" lon="60.783512">
        <ele>244.8</ele>
        <time>1970-01-01T07:49:59.626Z</time>
    </trkpt>
    <trkpt lat="56.459815" lon="60.78354">
        <ele>244.7</ele>
        <time>1970-01-01T07:50:00.626Z</time>
    </trkpt>
    <trkpt lat="56.459805" lon="60.78355">
        <ele>244.6</ele>
        <time>1970-01-01T07:50:01.626Z</time>
    </trkpt>
    <trkpt lat="56.459775" lon="60.783583">
        <ele>244.5</ele>
        <time>1970-01-01T07:50:02.626Z</time>
    </trkpt>
    <trkpt lat="56.459763" lon="60.78359">
        <ele>244.5</ele>
        <time>1970-01-01T07:50:03.626Z</time>
    </trkpt>
    <trkpt lat="56.459726" lon="60.783615">
        <ele>244.3</ele>
        <time>1970-01-01T07:50:04.626Z</time>
    </trkpt>
    <trkpt lat="56.459713" lon="60.783633">
        <ele>244.3</ele>
        <time>1970-01-01T07:50:05.626Z</time>
    </trkpt>
    <trkpt lat="56.45968" lon="60.783676">
        <ele>244.1</ele>
        <time>1970-01-01T07:50:06.626Z</time>
    </trkpt>
    <trkpt lat="56.459648" lon="60.783705">
        <ele>244.0</ele>
        <time>1970-01-01T07:50:07.626Z</time>
    </trkpt>
    <trkpt lat="56.459622" lon="60.783743">
        <ele>243.8</ele>
        <time>1970-01-01T07:50:08.626Z</time>
    </trkpt>
    <trkpt lat="56.459597" lon="60.783779">
        <ele>243.7</ele>
        <time>1970-01-01T07:50:09.626Z</time>
    </trkpt>
    <trkpt lat="56.459575" lon="60.78382">
        <ele>243.5</ele>
        <time>1970-01-01T07:50:10.626Z</time>
    </trkpt>
    <trkpt lat="56.459565" lon="60.783837">
        <ele>243.5</ele>
        <time>1970-01-01T07:50:11.626Z</time>
    </trkpt>
    <trkpt lat="56.459541" lon="60.783884">
        <ele>243.3</ele>
        <time>1970-01-01T07:50:12.626Z</time>
    </trkpt>
    <trkpt lat="56.459522" lon="60.78392">
        <ele>243.2</ele>
        <time>1970-01-01T07:50:13.626Z</time>
    </trkpt>
    <trkpt lat="56.459498" lon="60.78396">
        <ele>243.1</ele>
        <time>1970-01-01T07:50:14.626Z</time>
    </trkpt>
    <trkpt lat="56.459477" lon="60.784005">
        <ele>242.9</ele>
        <time>1970-01-01T07:50:15.626Z</time>
    </trkpt>
    <trkpt lat="56.459459" lon="60.784042">
        <ele>242.8</ele>
        <time>1970-01-01T07:50:16.626Z</time>
    </trkpt>
    <trkpt lat="56.459437" lon="60.784081">
        <ele>242.7</ele>
        <time>1970-01-01T07:50:17.626Z</time>
    </trkpt>
    <trkpt lat="56.459418" lon="60.784124">
        <ele>242.5</ele>
        <time>1970-01-01T07:50:18.626Z</time>
    </trkpt>
    <trkpt lat="56.459394" lon="60.784162">
        <ele>242.4</ele>
        <time>1970-01-01T07:50:19.626Z</time>
    </trkpt>
    <trkpt lat="56.45935" lon="60.784222">
        <ele>242.1</ele>
        <time>1970-01-01T07:50:20.626Z</time>
    </trkpt>
    <trkpt lat="56.459331" lon="60.784259">
        <ele>242.0</ele>
        <time>1970-01-01T07:50:21.626Z</time>
    </trkpt>
    <trkpt lat="56.459305" lon="60.784277">
        <ele>241.9</ele>
        <time>1970-01-01T07:50:22.626Z</time>
    </trkpt>
    <trkpt lat="56.459289" lon="60.784287">
        <ele>241.8</ele>
        <time>1970-01-01T07:50:23.626Z</time>
    </trkpt>
    <trkpt lat="56.45925" lon="60.784301">
        <ele>241.6</ele>
        <time>1970-01-01T07:50:24.626Z</time>
    </trkpt>
    <trkpt lat="56.45922" lon="60.784308">
        <ele>241.4</ele>
        <time>1970-01-01T07:50:25.626Z</time>
    </trkpt>
    <trkpt lat="56.459192" lon="60.784317">
        <ele>241.3</ele>
        <time>1970-01-01T07:50:26.626Z</time>
    </trkpt>
    <trkpt lat="56.459165" lon="60.784308">
        <ele>241.2</ele>
        <time>1970-01-01T07:50:27.626Z</time>
    </trkpt>
    <trkpt lat="56.459134" lon="60.784286">
        <ele>241.0</ele>
        <time>1970-01-01T07:50:28.626Z</time>
    </trkpt>
    <trkpt lat="56.459101" lon="60.78427">
        <ele>241.0</ele>
        <time>1970-01-01T07:50:29.626Z</time>
    </trkpt>
    <trkpt lat="56.459075" lon="60.784236">
        <ele>241.0</ele>
        <time>1970-01-01T07:50:30.626Z</time>
    </trkpt>
    <trkpt lat="56.459049" lon="60.784203">
        <ele>240.9</ele>
        <time>1970-01-01T07:50:31.626Z</time>
    </trkpt>
    <trkpt lat="56.459024" lon="60.784166">
        <ele>240.9</ele>
        <time>1970-01-01T07:50:32.626Z</time>
    </trkpt>
    <trkpt lat="56.458999" lon="60.78413">
        <ele>240.9</ele>
        <time>1970-01-01T07:50:33.626Z</time>
    </trkpt>
    <trkpt lat="56.458971" lon="60.784092">
        <ele>240.8</ele>
        <time>1970-01-01T07:50:34.626Z</time>
    </trkpt>
    <trkpt lat="56.45895" lon="60.78405">
        <ele>240.8</ele>
        <time>1970-01-01T07:50:35.626Z</time>
    </trkpt>
    <trkpt lat="56.458924" lon="60.784004">
        <ele>240.8</ele>
        <time>1970-01-01T07:50:36.626Z</time>
    </trkpt>
    <trkpt lat="56.458898" lon="60.783967">
        <ele>240.8</ele>
        <time>1970-01-01T07:50:37.626Z</time>
    </trkpt>
    <trkpt lat="56.45887" lon="60.783935">
        <ele>240.8</ele>
        <time>1970-01-01T07:50:38.626Z</time>
    </trkpt>
    <trkpt lat="56.458842" lon="60.783903">
        <ele>240.8</ele>
        <time>1970-01-01T07:50:39.626Z</time>
    </trkpt>
    <trkpt lat="56.458812" lon="60.783864">
        <ele>240.7</ele>
        <time>1970-01-01T07:50:40.626Z</time>
    </trkpt>
    <trkpt lat="56.458783" lon="60.783836">
        <ele>240.7</ele>
        <time>1970-01-01T07:50:41.626Z</time>
    </trkpt>
    <trkpt lat="56.45875" lon="60.783807">
        <ele>240.7</ele>
        <time>1970-01-01T07:50:42.626Z</time>
    </trkpt>
    <trkpt lat="56.458721" lon="60.783781">
        <ele>240.6</ele>
        <time>1970-01-01T07:50:43.626Z</time>
    </trkpt>
    <trkpt lat="56.458687" lon="60.783751">
        <ele>240.6</ele>
        <time>1970-01-01T07:50:44.626Z</time>
    </trkpt>
    <trkpt lat="56.458655" lon="60.783735">
        <ele>240.5</ele>
        <time>1970-01-01T07:50:45.626Z</time>
    </trkpt>
    <trkpt lat="56.45863" lon="60.783714">
        <ele>240.5</ele>
        <time>1970-01-01T07:50:46.626Z</time>
    </trkpt>
    <trkpt lat="56.458599" lon="60.783695">
        <ele>240.5</ele>
        <time>1970-01-01T07:50:47.626Z</time>
    </trkpt>
    <trkpt lat="56.458563" lon="60.783677">
        <ele>240.4</ele>
        <time>1970-01-01T07:50:48.626Z</time>
    </trkpt>
    <trkpt lat="56.458533" lon="60.783666">
        <ele>240.4</ele>
        <time>1970-01-01T07:50:49.626Z</time>
    </trkpt>
    <trkpt lat="56.458501" lon="60.783644">
        <ele>240.4</ele>
        <time>1970-01-01T07:50:50.626Z</time>
    </trkpt>
    <trkpt lat="56.458465" lon="60.783628">
        <ele>240.4</ele>
        <time>1970-01-01T07:50:51.626Z</time>
    </trkpt>
    <trkpt lat="56.458434" lon="60.783607">
        <ele>240.4</ele>
        <time>1970-01-01T07:50:52.626Z</time>
    </trkpt>
    <trkpt lat="56.4584" lon="60.783585">
        <ele>240.4</ele>
        <time>1970-01-01T07:50:53.626Z</time>
    </trkpt>
    <trkpt lat="56.458366" lon="60.783581">
        <ele>240.4</ele>
        <time>1970-01-01T07:50:54.626Z</time>
    </trkpt>
    <trkpt lat="56.45833" lon="60.783564">
        <ele>240.5</ele>
        <time>1970-01-01T07:50:55.626Z</time>
    </trkpt>
    <trkpt lat="56.458294" lon="60.783545">
        <ele>240.5</ele>
        <time>1970-01-01T07:50:56.626Z</time>
    </trkpt>
    <trkpt lat="56.458259" lon="60.783524">
        <ele>240.5</ele>
        <time>1970-01-01T07:50:57.626Z</time>
    </trkpt>
    <trkpt lat="56.458224" lon="60.783498">
        <ele>240.5</ele>
        <time>1970-01-01T07:50:58.626Z</time>
    </trkpt>
    <trkpt lat="56.45819" lon="60.783471">
        <ele>240.5</ele>
        <time>1970-01-01T07:50:59.626Z</time>
    </trkpt>
    <trkpt lat="56.458158" lon="60.783455">
        <ele>240.5</ele>
        <time>1970-01-01T07:51:01.626Z</time>
    </trkpt>
    <trkpt lat="56.458128" lon="60.783431">
        <ele>240.5</ele>
        <time>1970-01-01T07:51:02.626Z</time>
    </trkpt>
    <trkpt lat="56.458099" lon="60.783399">
        <ele>240.5</ele>
        <time>1970-01-01T07:51:03.626Z</time>
    </trkpt>
    <trkpt lat="56.458064" lon="60.783363">
        <ele>240.6</ele>
        <time>1970-01-01T07:51:04.626Z</time>
    </trkpt>
    <trkpt lat="56.458025" lon="60.783341">
        <ele>240.6</ele>
        <time>1970-01-01T07:51:05.626Z</time>
    </trkpt>
    <trkpt lat="56.457985" lon="60.783313">
        <ele>240.6</ele>
        <time>1970-01-01T07:51:06.626Z</time>
    </trkpt>
    <trkpt lat="56.457942" lon="60.783301">
        <ele>240.7</ele>
        <time>1970-01-01T07:51:07.626Z</time>
    </trkpt>
    <trkpt lat="56.4579" lon="60.783288">
        <ele>240.7</ele>
        <time>1970-01-01T07:51:08.626Z</time>
    </trkpt>
    <trkpt lat="56.457863" lon="60.783285">
        <ele>240.8</ele>
        <time>1970-01-01T07:51:09.626Z</time>
    </trkpt>
    <trkpt lat="56.457827" lon="60.783283">
        <ele>240.8</ele>
        <time>1970-01-01T07:51:10.626Z</time>
    </trkpt>
    <trkpt lat="56.457791" lon="60.783282">
        <ele>240.8</ele>
        <time>1970-01-01T07:51:11.626Z</time>
    </trkpt>
    <trkpt lat="56.457754" lon="60.783286">
        <ele>240.8</ele>
        <time>1970-01-01T07:51:12.626Z</time>
    </trkpt>
    <trkpt lat="56.457717" lon="60.783292">
        <ele>240.9</ele>
        <time>1970-01-01T07:51:13.626Z</time>
    </trkpt>
    <trkpt lat="56.457679" lon="60.783298">
        <ele>240.9</ele>
        <time>1970-01-01T07:51:14.626Z</time>
    </trkpt>
    <trkpt lat="56.457643" lon="60.783303">
        <ele>240.9</ele>
        <time>1970-01-01T07:51:15.626Z</time>
    </trkpt>
    <trkpt lat="56.457604" lon="60.783305">
        <ele>241.0</ele>
        <time>1970-01-01T07:51:16.626Z</time>
    </trkpt>
    <trkpt lat="56.457567" lon="60.783302">
        <ele>241.0</ele>
        <time>1970-01-01T07:51:17.626Z</time>
    </trkpt>
    <trkpt lat="56.457528" lon="60.783301">
        <ele>241.1</ele>
        <time>1970-01-01T07:51:18.626Z</time>
    </trkpt>
    <trkpt lat="56.457494" lon="60.783297">
        <ele>241.1</ele>
        <time>1970-01-01T07:51:19.626Z</time>
    </trkpt>
    <trkpt lat="56.457456" lon="60.783284">
        <ele>241.1</ele>
        <time>1970-01-01T07:51:20.626Z</time>
    </trkpt>
    <trkpt lat="56.457419" lon="60.783275">
        <ele>241.2</ele>
        <time>1970-01-01T07:51:21.626Z</time>
    </trkpt>
    <trkpt lat="56.457385" lon="60.783262">
        <ele>241.2</ele>
        <time>1970-01-01T07:51:22.626Z</time>
    </trkpt>
    <trkpt lat="56.457347" lon="60.783247">
        <ele>241.2</ele>
        <time>1970-01-01T07:51:23.626Z</time>
    </trkpt>
    <trkpt lat="56.457306" lon="60.783223">
        <ele>241.2</ele>
        <time>1970-01-01T07:51:24.626Z</time>
    </trkpt>
    <trkpt lat="56.457265" lon="60.783201">
        <ele>241.3</ele>
        <time>1970-01-01T07:51:25.626Z</time>
    </trkpt>
    <trkpt lat="56.457225" lon="60.783187">
        <ele>241.3</ele>
        <time>1970-01-01T07:51:26.626Z</time>
    </trkpt>
    <trkpt lat="56.457186" lon="60.783155">
        <ele>241.3</ele>
        <time>1970-01-01T07:51:27.626Z</time>
    </trkpt>
    <trkpt lat="56.457142" lon="60.783137">
        <ele>241.4</ele>
        <time>1970-01-01T07:51:28.626Z</time>
    </trkpt>
    <trkpt lat="56.457103" lon="60.783102">
        <ele>241.5</ele>
        <time>1970-01-01T07:51:29.626Z</time>
    </trkpt>
    <trkpt lat="56.457068" lon="60.783071">
        <ele>241.5</ele>
        <time>1970-01-01T07:51:30.626Z</time>
    </trkpt>
    <trkpt lat="56.457031" lon="60.783046">
        <ele>241.6</ele>
        <time>1970-01-01T07:51:31.626Z</time>
    </trkpt>
    <trkpt lat="56.456993" lon="60.783015">
        <ele>241.7</ele>
        <time>1970-01-01T07:51:32.626Z</time>
    </trkpt>
    <trkpt lat="56.456955" lon="60.782991">
        <ele>241.8</ele>
        <time>1970-01-01T07:51:33.626Z</time>
    </trkpt>
    <trkpt lat="56.456916" lon="60.782958">
        <ele>241.8</ele>
        <time>1970-01-01T07:51:34.626Z</time>
    </trkpt>
    <trkpt lat="56.456882" lon="60.782928">
        <ele>241.9</ele>
        <time>1970-01-01T07:51:35.626Z</time>
    </trkpt>
    <trkpt lat="56.456847" lon="60.782906">
        <ele>241.9</ele>
        <time>1970-01-01T07:51:36.626Z</time>
    </trkpt>
    <trkpt lat="56.456812" lon="60.782867">
        <ele>241.9</ele>
        <time>1970-01-01T07:51:37.626Z</time>
    </trkpt>
    <trkpt lat="56.456779" lon="60.782839">
        <ele>242.0</ele>
        <time>1970-01-01T07:51:38.626Z</time>
    </trkpt>
    <trkpt lat="56.456746" lon="60.782819">
        <ele>242.0</ele>
        <time>1970-01-01T07:51:39.626Z</time>
    </trkpt>
    <trkpt lat="56.456712" lon="60.782785">
        <ele>242.0</ele>
        <time>1970-01-01T07:51:40.626Z</time>
    </trkpt>
    <trkpt lat="56.456681" lon="60.782762">
        <ele>242.1</ele>
        <time>1970-01-01T07:51:41.626Z</time>
    </trkpt>
    <trkpt lat="56.45665" lon="60.782731">
        <ele>242.1</ele>
        <time>1970-01-01T07:51:42.626Z</time>
    </trkpt>
    <trkpt lat="56.456615" lon="60.782695">
        <ele>242.1</ele>
        <time>1970-01-01T07:51:43.626Z</time>
    </trkpt>
    <trkpt lat="56.456581" lon="60.782661">
        <ele>242.2</ele>
        <time>1970-01-01T07:51:44.626Z</time>
    </trkpt>
    <trkpt lat="56.456546" lon="60.782627">
        <ele>242.2</ele>
        <time>1970-01-01T07:51:45.626Z</time>
    </trkpt>
    <trkpt lat="56.456511" lon="60.782597">
        <ele>242.3</ele>
        <time>1970-01-01T07:51:46.626Z</time>
    </trkpt>
    <trkpt lat="56.456479" lon="60.782561">
        <ele>242.3</ele>
        <time>1970-01-01T07:51:47.626Z</time>
    </trkpt>
    <trkpt lat="56.456445" lon="60.782532">
        <ele>242.4</ele>
        <time>1970-01-01T07:51:48.626Z</time>
    </trkpt>
    <trkpt lat="56.456408" lon="60.782508">
        <ele>242.4</ele>
        <time>1970-01-01T07:51:49.626Z</time>
    </trkpt>
    <trkpt lat="56.456386" lon="60.782474">
        <ele>242.4</ele>
        <time>1970-01-01T07:51:50.626Z</time>
    </trkpt>
    <trkpt lat="56.456363" lon="60.782445">
        <ele>242.5</ele>
        <time>1970-01-01T07:51:51.626Z</time>
    </trkpt>
    <trkpt lat="56.456336" lon="60.782426">
        <ele>242.5</ele>
        <time>1970-01-01T07:51:52.626Z</time>
    </trkpt>
    <trkpt lat="56.456326" lon="60.782413">
        <ele>242.5</ele>
        <time>1970-01-01T07:51:53.626Z</time>
    </trkpt>
    <trkpt lat="56.456292" lon="60.782377">
        <ele>242.5</ele>
        <time>1970-01-01T07:51:54.626Z</time>
    </trkpt>
    <trkpt lat="56.456263" lon="60.782353">
        <ele>242.6</ele>
        <time>1970-01-01T07:51:55.626Z</time>
    </trkpt>
    <trkpt lat="56.456236" lon="60.78234">
        <ele>242.6</ele>
        <time>1970-01-01T07:51:56.626Z</time>
    </trkpt>
    <trkpt lat="56.456213" lon="60.782301">
        <ele>242.6</ele>
        <time>1970-01-01T07:51:57.626Z</time>
    </trkpt>
    <trkpt lat="56.456186" lon="60.782279">
        <ele>242.6</ele>
        <time>1970-01-01T07:51:58.626Z</time>
    </trkpt>
    <trkpt lat="56.456176" lon="60.782266">
        <ele>242.7</ele>
        <time>1970-01-01T07:51:59.626Z</time>
    </trkpt>
    <trkpt lat="56.45614" lon="60.782238">
        <ele>242.7</ele>
        <time>1970-01-01T07:52:00.626Z</time>
    </trkpt>
    <trkpt lat="56.456127" lon="60.782231">
        <ele>242.7</ele>
        <time>1970-01-01T07:52:01.626Z</time>
    </trkpt>
    <trkpt lat="56.456094" lon="60.782195">
        <ele>242.7</ele>
        <time>1970-01-01T07:52:02.626Z</time>
    </trkpt>
    <trkpt lat="56.456085" lon="60.782178">
        <ele>242.7</ele>
        <time>1970-01-01T07:52:03.626Z</time>
    </trkpt>
    <trkpt lat="56.456066" lon="60.782165">
        <ele>242.8</ele>
        <time>1970-01-01T07:52:04.626Z</time>
    </trkpt>
    <trkpt lat="56.456053" lon="60.782155">
        <ele>242.8</ele>
        <time>1970-01-01T07:52:05.626Z</time>
    </trkpt>
    <trkpt lat="56.45602" lon="60.782121">
        <ele>242.8</ele>
        <time>1970-01-01T07:52:06.626Z</time>
    </trkpt>
    <trkpt lat="56.456011" lon="60.782112">
        <ele>242.8</ele>
        <time>1970-01-01T07:52:07.626Z</time>
    </trkpt>
    <trkpt lat="56.455979" lon="60.782084">
        <ele>242.8</ele>
        <time>1970-01-01T07:52:08.626Z</time>
    </trkpt>
    <trkpt lat="56.455949" lon="60.782015">
        <ele>242.9</ele>
        <time>1970-01-01T07:52:09.626Z</time>
    </trkpt>
    <trkpt lat="56.455946" lon="60.781993">
        <ele>242.9</ele>
        <time>1970-01-01T07:52:10.626Z</time>
    </trkpt>
    <trkpt lat="56.455929" lon="60.781943">
        <ele>243.0</ele>
        <time>1970-01-01T07:52:11.626Z</time>
    </trkpt>
    <trkpt lat="56.455925" lon="60.78192">
        <ele>243.0</ele>
        <time>1970-01-01T07:52:12.626Z</time>
    </trkpt>
    <trkpt lat="56.455927" lon="60.78186">
        <ele>243.0</ele>
        <time>1970-01-01T07:52:13.626Z</time>
    </trkpt>
    <trkpt lat="56.455933" lon="60.781832">
        <ele>243.0</ele>
        <time>1970-01-01T07:52:14.626Z</time>
    </trkpt>
    <trkpt lat="56.455944" lon="60.781803">
        <ele>243.0</ele>
        <time>1970-01-01T07:52:15.626Z</time>
    </trkpt>
    <trkpt lat="56.455952" lon="60.781789">
        <ele>243.0</ele>
        <time>1970-01-01T07:52:16.626Z</time>
    </trkpt>
    <trkpt lat="56.455967" lon="60.781743">
        <ele>243.0</ele>
        <time>1970-01-01T07:52:17.626Z</time>
    </trkpt>
    <trkpt lat="56.455986" lon="60.781705">
        <ele>243.0</ele>
        <time>1970-01-01T07:52:18.626Z</time>
    </trkpt>
    <trkpt lat="56.455992" lon="60.781689">
        <ele>243.0</ele>
        <time>1970-01-01T07:52:19.626Z</time>
    </trkpt>
    <trkpt lat="56.456016" lon="60.781643">
        <ele>243.0</ele>
        <time>1970-01-01T07:52:20.626Z</time>
    </trkpt>
    <trkpt lat="56.456034" lon="60.781605">
        <ele>243.0</ele>
        <time>1970-01-01T07:52:21.626Z</time>
    </trkpt>
    <trkpt lat="56.456044" lon="60.781555">
        <ele>243.0</ele>
        <time>1970-01-01T07:52:22.626Z</time>
    </trkpt>
    <trkpt lat="56.456054" lon="60.781539">
        <ele>243.0</ele>
        <time>1970-01-01T07:52:23.626Z</time>
    </trkpt>
    <trkpt lat="56.456084" lon="60.781489">
        <ele>243.0</ele>
        <time>1970-01-01T07:52:24.626Z</time>
    </trkpt>
    <trkpt lat="56.456116" lon="60.781451">
        <ele>243.0</ele>
        <time>1970-01-01T07:52:25.626Z</time>
    </trkpt>
    <trkpt lat="56.456137" lon="60.781404">
        <ele>243.0</ele>
        <time>1970-01-01T07:52:26.626Z</time>
    </trkpt>
    <trkpt lat="56.456149" lon="60.781385">
        <ele>243.0</ele>
        <time>1970-01-01T07:52:27.626Z</time>
    </trkpt>
    <trkpt lat="56.456178" lon="60.781337">
        <ele>243.0</ele>
        <time>1970-01-01T07:52:28.626Z</time>
    </trkpt>
    <trkpt lat="56.456209" lon="60.781305">
        <ele>243.0</ele>
        <time>1970-01-01T07:52:29.626Z</time>
    </trkpt>
    <trkpt lat="56.456238" lon="60.781264">
        <ele>243.0</ele>
        <time>1970-01-01T07:52:30.626Z</time>
    </trkpt>
    <trkpt lat="56.456252" lon="60.781246">
        <ele>243.0</ele>
        <time>1970-01-01T07:52:31.626Z</time>
    </trkpt>
    <trkpt lat="56.456284" lon="60.781192">
        <ele>243.0</ele>
        <time>1970-01-01T07:52:32.626Z</time>
    </trkpt>
    <trkpt lat="56.45629" lon="60.781176">
        <ele>243.0</ele>
        <time>1970-01-01T07:52:33.626Z</time>
    </trkpt>
    <trkpt lat="56.456314" lon="60.781126">
        <ele>243.0</ele>
        <time>1970-01-01T07:52:34.626Z</time>
    </trkpt>
    <trkpt lat="56.456335" lon="60.781077">
        <ele>243.0</ele>
        <time>1970-01-01T07:52:35.626Z</time>
    </trkpt>
    <trkpt lat="56.45637" lon="60.781023">
        <ele>243.0</ele>
        <time>1970-01-01T07:52:36.626Z</time>
    </trkpt>
    <trkpt lat="56.456393" lon="60.780993">
        <ele>243.0</ele>
        <time>1970-01-01T07:52:37.626Z</time>
    </trkpt>
    <trkpt lat="56.456402" lon="60.780974">
        <ele>243.0</ele>
        <time>1970-01-01T07:52:38.626Z</time>
    </trkpt>
    <trkpt lat="56.456431" lon="60.780929">
        <ele>243.0</ele>
        <time>1970-01-01T07:52:39.626Z</time>
    </trkpt>
    <trkpt lat="56.456443" lon="60.78091">
        <ele>243.0</ele>
        <time>1970-01-01T07:52:40.626Z</time>
    </trkpt>
    <trkpt lat="56.456456" lon="60.780875">
        <ele>243.0</ele>
        <time>1970-01-01T07:52:41.626Z</time>
    </trkpt>
    <trkpt lat="56.456459" lon="60.780851">
        <ele>243.0</ele>
        <time>1970-01-01T07:52:42.626Z</time>
    </trkpt>
    <trkpt lat="56.456462" lon="60.780792">
        <ele>243.0</ele>
        <time>1970-01-01T07:52:43.626Z</time>
    </trkpt>
    <trkpt lat="56.456465" lon="60.780778">
        <ele>243.0</ele>
        <time>1970-01-01T07:52:44.626Z</time>
    </trkpt>
    <trkpt lat="56.456471" lon="60.780725">
        <ele>243.0</ele>
        <time>1970-01-01T07:52:45.626Z</time>
    </trkpt>
    <trkpt lat="56.45647" lon="60.780701">
        <ele>243.0</ele>
        <time>1970-01-01T07:52:46.626Z</time>
    </trkpt>
    <trkpt lat="56.456464" lon="60.780635">
        <ele>243.0</ele>
        <time>1970-01-01T07:52:47.626Z</time>
    </trkpt>
    <trkpt lat="56.456456" lon="60.780588">
        <ele>243.0</ele>
        <time>1970-01-01T07:52:48.626Z</time>
    </trkpt>
    <trkpt lat="56.456457" lon="60.780571">
        <ele>243.0</ele>
        <time>1970-01-01T07:52:49.626Z</time>
    </trkpt>
    <trkpt lat="56.456452" lon="60.780519">
        <ele>243.0</ele>
        <time>1970-01-01T07:52:50.626Z</time>
    </trkpt>
    <trkpt lat="56.456448" lon="60.780499">
        <ele>243.0</ele>
        <time>1970-01-01T07:52:51.626Z</time>
    </trkpt>
    <trkpt lat="56.456437" lon="60.780471">
        <ele>243.0</ele>
        <time>1970-01-01T07:52:52.626Z</time>
    </trkpt>
    <trkpt lat="56.456429" lon="60.780444">
        <ele>243.0</ele>
        <time>1970-01-01T07:52:53.626Z</time>
    </trkpt>
    <trkpt lat="56.456419" lon="60.78042">
        <ele>243.0</ele>
        <time>1970-01-01T07:52:54.626Z</time>
    </trkpt>
    <trkpt lat="56.456419" lon="60.780403">
        <ele>243.0</ele>
        <time>1970-01-01T07:52:55.626Z</time>
    </trkpt>
    <trkpt lat="56.456412" lon="60.78035">
        <ele>243.0</ele>
        <time>1970-01-01T07:52:56.626Z</time>
    </trkpt>
    <trkpt lat="56.456408" lon="60.780328">
        <ele>243.0</ele>
        <time>1970-01-01T07:52:57.626Z</time>
    </trkpt>
    <trkpt lat="56.456398" lon="60.780268">
        <ele>243.0</ele>
        <time>1970-01-01T07:52:58.626Z</time>
    </trkpt>
    <trkpt lat="56.4564" lon="60.780246">
        <ele>243.0</ele>
        <time>1970-01-01T07:52:59.626Z</time>
    </trkpt>
    <trkpt lat="56.456408" lon="60.780184">
        <ele>243.0</ele>
        <time>1970-01-01T07:53:00.626Z</time>
    </trkpt>
    <trkpt lat="56.456412" lon="60.780117">
        <ele>243.0</ele>
        <time>1970-01-01T07:53:01.626Z</time>
    </trkpt>
    <trkpt lat="56.456418" lon="60.780066">
        <ele>243.0</ele>
        <time>1970-01-01T07:53:02.626Z</time>
    </trkpt>
    <trkpt lat="56.456433" lon="60.780011">
        <ele>243.0</ele>
        <time>1970-01-01T07:53:03.626Z</time>
    </trkpt>
    <trkpt lat="56.456441" lon="60.779984">
        <ele>243.0</ele>
        <time>1970-01-01T07:53:04.626Z</time>
    </trkpt>
    <trkpt lat="56.45645" lon="60.779957">
        <ele>243.0</ele>
        <time>1970-01-01T07:53:05.626Z</time>
    </trkpt>
    <trkpt lat="56.456469" lon="60.779874">
        <ele>243.0</ele>
        <time>1970-01-01T07:53:07.626Z</time>
    </trkpt>
    <trkpt lat="56.456478" lon="60.779817">
        <ele>243.0</ele>
        <time>1970-01-01T07:53:08.626Z</time>
    </trkpt>
    <trkpt lat="56.456488" lon="60.779771">
        <ele>243.0</ele>
        <time>1970-01-01T07:53:09.626Z</time>
    </trkpt>
    <trkpt lat="56.456491" lon="60.779748">
        <ele>243.0</ele>
        <time>1970-01-01T07:53:10.626Z</time>
    </trkpt>
    <trkpt lat="56.456507" lon="60.779687">
        <ele>243.0</ele>
        <time>1970-01-01T07:53:11.626Z</time>
    </trkpt>
    <trkpt lat="56.456509" lon="60.779665">
        <ele>243.0</ele>
        <time>1970-01-01T07:53:12.626Z</time>
    </trkpt>
    <trkpt lat="56.456521" lon="60.779597">
        <ele>243.0</ele>
        <time>1970-01-01T07:53:13.626Z</time>
    </trkpt>
    <trkpt lat="56.456533" lon="60.779549">
        <ele>243.0</ele>
        <time>1970-01-01T07:53:14.626Z</time>
    </trkpt>
    <trkpt lat="56.45654" lon="60.77952">
        <ele>243.0</ele>
        <time>1970-01-01T07:53:15.626Z</time>
    </trkpt>
    <trkpt lat="56.456555" lon="60.779452">
        <ele>243.0</ele>
        <time>1970-01-01T07:53:16.626Z</time>
    </trkpt>
    <trkpt lat="56.456555" lon="60.779398">
        <ele>243.0</ele>
        <time>1970-01-01T07:53:17.626Z</time>
    </trkpt>
    <trkpt lat="56.456554" lon="60.779372">
        <ele>243.0</ele>
        <time>1970-01-01T07:53:18.626Z</time>
    </trkpt>
    <trkpt lat="56.456558" lon="60.779311">
        <ele>243.0</ele>
        <time>1970-01-01T07:53:19.626Z</time>
    </trkpt>
    <trkpt lat="56.456559" lon="60.779257">
        <ele>243.0</ele>
        <time>1970-01-01T07:53:20.626Z</time>
    </trkpt>
    <trkpt lat="56.45656" lon="60.779241">
        <ele>243.0</ele>
        <time>1970-01-01T07:53:21.626Z</time>
    </trkpt>
    <trkpt lat="56.45657" lon="60.779188">
        <ele>243.0</ele>
        <time>1970-01-01T07:53:22.626Z</time>
    </trkpt>
    <trkpt lat="56.456572" lon="60.77917">
        <ele>243.0</ele>
        <time>1970-01-01T07:53:23.626Z</time>
    </trkpt>
    <trkpt lat="56.456575" lon="60.77911">
        <ele>243.0</ele>
        <time>1970-01-01T07:53:24.626Z</time>
    </trkpt>
    <trkpt lat="56.456576" lon="60.779093">
        <ele>243.0</ele>
        <time>1970-01-01T07:53:25.626Z</time>
    </trkpt>
    <trkpt lat="56.456572" lon="60.779042">
        <ele>243.0</ele>
        <time>1970-01-01T07:53:26.626Z</time>
    </trkpt>
    <trkpt lat="56.456573" lon="60.778991">
        <ele>243.0</ele>
        <time>1970-01-01T07:53:27.626Z</time>
    </trkpt>
    <trkpt lat="56.456576" lon="60.778973">
        <ele>243.0</ele>
        <time>1970-01-01T07:53:28.626Z</time>
    </trkpt>
    <trkpt lat="56.456574" lon="60.778915">
        <ele>243.0</ele>
        <time>1970-01-01T07:53:29.626Z</time>
    </trkpt>
    <trkpt lat="56.456585" lon="60.778862">
        <ele>243.0</ele>
        <time>1970-01-01T07:53:30.626Z</time>
    </trkpt>
    <trkpt lat="56.456583" lon="60.778804">
        <ele>243.0</ele>
        <time>1970-01-01T07:53:31.626Z</time>
    </trkpt>
    <trkpt lat="56.456587" lon="60.778753">
        <ele>243.0</ele>
        <time>1970-01-01T07:53:32.626Z</time>
    </trkpt>
    <trkpt lat="56.456588" lon="60.778701">
        <ele>243.0</ele>
        <time>1970-01-01T07:53:33.626Z</time>
    </trkpt>
    <trkpt lat="56.456587" lon="60.778674">
        <ele>243.0</ele>
        <time>1970-01-01T07:53:34.626Z</time>
    </trkpt>
    <trkpt lat="56.456588" lon="60.7786">
        <ele>243.0</ele>
        <time>1970-01-01T07:53:35.626Z</time>
    </trkpt>
    <trkpt lat="56.456595" lon="60.77858">
        <ele>243.0</ele>
        <time>1970-01-01T07:53:36.626Z</time>
    </trkpt>
    <trkpt lat="56.456613" lon="60.778524">
        <ele>243.0</ele>
        <time>1970-01-01T07:53:37.626Z</time>
    </trkpt>
    <trkpt lat="56.456631" lon="60.778481">
        <ele>243.0</ele>
        <time>1970-01-01T07:53:38.626Z</time>
    </trkpt>
    <trkpt lat="56.456653" lon="60.778434">
        <ele>243.0</ele>
        <time>1970-01-01T07:53:39.626Z</time>
    </trkpt>
    <trkpt lat="56.456661" lon="60.778422">
        <ele>243.0</ele>
        <time>1970-01-01T07:53:40.626Z</time>
    </trkpt>
    <trkpt lat="56.456678" lon="60.778374">
        <ele>243.0</ele>
        <time>1970-01-01T07:53:41.626Z</time>
    </trkpt>
    <trkpt lat="56.456685" lon="60.77835">
        <ele>243.0</ele>
        <time>1970-01-01T07:53:42.626Z</time>
    </trkpt>
    <trkpt lat="56.456698" lon="60.778315">
        <ele>243.0</ele>
        <time>1970-01-01T07:53:43.626Z</time>
    </trkpt>
    <trkpt lat="56.456698" lon="60.778285">
        <ele>243.0</ele>
        <time>1970-01-01T07:53:44.626Z</time>
    </trkpt>
    <trkpt lat="56.456702" lon="60.778225">
        <ele>243.0</ele>
        <time>1970-01-01T07:53:45.626Z</time>
    </trkpt>
    <trkpt lat="56.4567" lon="60.778206">
        <ele>243.0</ele>
        <time>1970-01-01T07:53:46.626Z</time>
    </trkpt>
    <trkpt lat="56.456704" lon="60.778142">
        <ele>243.0</ele>
        <time>1970-01-01T07:53:47.626Z</time>
    </trkpt>
    <trkpt lat="56.456707" lon="60.778084">
        <ele>243.0</ele>
        <time>1970-01-01T07:53:48.626Z</time>
    </trkpt>
    <trkpt lat="56.456705" lon="60.778031">
        <ele>243.0</ele>
        <time>1970-01-01T07:53:49.626Z</time>
    </trkpt>
    <trkpt lat="56.456711" lon="60.777982">
        <ele>243.0</ele>
        <time>1970-01-01T07:53:50.626Z</time>
    </trkpt>
    <trkpt lat="56.456715" lon="60.777917">
        <ele>243.0</ele>
        <time>1970-01-01T07:53:51.626Z</time>
    </trkpt>
    <trkpt lat="56.45672" lon="60.777898">
        <ele>243.0</ele>
        <time>1970-01-01T07:53:52.626Z</time>
    </trkpt>
    <trkpt lat="56.456731" lon="60.777841">
        <ele>243.0</ele>
        <time>1970-01-01T07:53:53.626Z</time>
    </trkpt>
    <trkpt lat="56.456738" lon="60.777815">
        <ele>243.0</ele>
        <time>1970-01-01T07:53:54.626Z</time>
    </trkpt>
    <trkpt lat="56.456749" lon="60.77775">
        <ele>243.0</ele>
        <time>1970-01-01T07:53:55.626Z</time>
    </trkpt>
    <trkpt lat="56.456758" lon="60.777689">
        <ele>243.0</ele>
        <time>1970-01-01T07:53:56.626Z</time>
    </trkpt>
    <trkpt lat="56.456762" lon="60.777638">
        <ele>243.0</ele>
        <time>1970-01-01T07:53:57.626Z</time>
    </trkpt>
    <trkpt lat="56.456766" lon="60.777576">
        <ele>243.0</ele>
        <time>1970-01-01T07:53:58.626Z</time>
    </trkpt>
    <trkpt lat="56.456766" lon="60.777553">
        <ele>243.0</ele>
        <time>1970-01-01T07:53:59.626Z</time>
    </trkpt>
    <trkpt lat="56.456767" lon="60.777483">
        <ele>243.0</ele>
        <time>1970-01-01T07:54:00.626Z</time>
    </trkpt>
    <trkpt lat="56.456776" lon="60.777429">
        <ele>243.0</ele>
        <time>1970-01-01T07:54:01.626Z</time>
    </trkpt>
    <trkpt lat="56.456781" lon="60.777411">
        <ele>243.0</ele>
        <time>1970-01-01T07:54:02.626Z</time>
    </trkpt>
    <trkpt lat="56.456781" lon="60.777348">
        <ele>243.0</ele>
        <time>1970-01-01T07:54:03.626Z</time>
    </trkpt>
    <trkpt lat="56.456785" lon="60.777324">
        <ele>243.0</ele>
        <time>1970-01-01T07:54:04.626Z</time>
    </trkpt>
    <trkpt lat="56.456785" lon="60.777255">
        <ele>243.0</ele>
        <time>1970-01-01T07:54:05.626Z</time>
    </trkpt>
    <trkpt lat="56.45679" lon="60.777202">
        <ele>243.0</ele>
        <time>1970-01-01T07:54:06.626Z</time>
    </trkpt>
    <trkpt lat="56.456793" lon="60.777145">
        <ele>243.0</ele>
        <time>1970-01-01T07:54:07.626Z</time>
    </trkpt>
    <trkpt lat="56.456804" lon="60.777081">
        <ele>243.0</ele>
        <time>1970-01-01T07:54:08.626Z</time>
    </trkpt>
    <trkpt lat="56.456813" lon="60.777034">
        <ele>243.0</ele>
        <time>1970-01-01T07:54:09.626Z</time>
    </trkpt>
    <trkpt lat="56.456816" lon="60.777007">
        <ele>243.0</ele>
        <time>1970-01-01T07:54:10.626Z</time>
    </trkpt>
    <trkpt lat="56.456822" lon="60.776945">
        <ele>243.0</ele>
        <time>1970-01-01T07:54:11.626Z</time>
    </trkpt>
    <trkpt lat="56.456826" lon="60.776862">
        <ele>243.0</ele>
        <time>1970-01-01T07:54:12.626Z</time>
    </trkpt>
    <trkpt lat="56.45684" lon="60.776812">
        <ele>243.0</ele>
        <time>1970-01-01T07:54:13.626Z</time>
    </trkpt>
    <trkpt lat="56.456847" lon="60.77675">
        <ele>243.0</ele>
        <time>1970-01-01T07:54:14.626Z</time>
    </trkpt>
    <trkpt lat="56.456845" lon="60.776722">
        <ele>243.0</ele>
        <time>1970-01-01T07:54:15.626Z</time>
    </trkpt>
    <trkpt lat="56.456839" lon="60.776649">
        <ele>243.0</ele>
        <time>1970-01-01T07:54:16.626Z</time>
    </trkpt>
    <trkpt lat="56.456845" lon="60.776589">
        <ele>243.0</ele>
        <time>1970-01-01T07:54:17.626Z</time>
    </trkpt>
    <trkpt lat="56.456847" lon="60.776535">
        <ele>243.0</ele>
        <time>1970-01-01T07:54:18.626Z</time>
    </trkpt>
    <trkpt lat="56.45685" lon="60.776505">
        <ele>243.0</ele>
        <time>1970-01-01T07:54:19.626Z</time>
    </trkpt>
    <trkpt lat="56.456854" lon="60.776428">
        <ele>243.0</ele>
        <time>1970-01-01T07:54:20.626Z</time>
    </trkpt>
    <trkpt lat="56.456848" lon="60.776402">
        <ele>243.0</ele>
        <time>1970-01-01T07:54:21.626Z</time>
    </trkpt>
    <trkpt lat="56.456827" lon="60.776341">
        <ele>243.0</ele>
        <time>1970-01-01T07:54:22.626Z</time>
    </trkpt>
    <trkpt lat="56.456813" lon="60.776285">
        <ele>243.0</ele>
        <time>1970-01-01T07:54:23.626Z</time>
    </trkpt>
    <trkpt lat="56.456802" lon="60.776222">
        <ele>243.0</ele>
        <time>1970-01-01T07:54:24.626Z</time>
    </trkpt>
    <trkpt lat="56.456794" lon="60.776198">
        <ele>243.0</ele>
        <time>1970-01-01T07:54:25.626Z</time>
    </trkpt>
    <trkpt lat="56.456785" lon="60.776138">
        <ele>243.0</ele>
        <time>1970-01-01T07:54:26.626Z</time>
    </trkpt>
    <trkpt lat="56.456784" lon="60.776086">
        <ele>243.0</ele>
        <time>1970-01-01T07:54:27.626Z</time>
    </trkpt>
    <trkpt lat="56.456783" lon="60.776034">
        <ele>243.0</ele>
        <time>1970-01-01T07:54:28.626Z</time>
    </trkpt>
    <trkpt lat="56.456775" lon="60.775985">
        <ele>243.0</ele>
        <time>1970-01-01T07:54:29.626Z</time>
    </trkpt>
    <trkpt lat="56.456773" lon="60.775914">
        <ele>243.0</ele>
        <time>1970-01-01T07:54:30.626Z</time>
    </trkpt>
    <trkpt lat="56.456764" lon="60.775847">
        <ele>243.0</ele>
        <time>1970-01-01T07:54:31.626Z</time>
    </trkpt>
    <trkpt lat="56.456759" lon="60.775814">
        <ele>243.0</ele>
        <time>1970-01-01T07:54:32.626Z</time>
    </trkpt>
    <trkpt lat="56.456747" lon="60.775742">
        <ele>243.0</ele>
        <time>1970-01-01T07:54:33.626Z</time>
    </trkpt>
    <trkpt lat="56.456742" lon="60.775723">
        <ele>243.0</ele>
        <time>1970-01-01T07:54:34.626Z</time>
    </trkpt>
    <trkpt lat="56.456721" lon="60.775667">
        <ele>243.0</ele>
        <time>1970-01-01T07:54:35.626Z</time>
    </trkpt>
    <trkpt lat="56.456704" lon="60.775629">
        <ele>243.0</ele>
        <time>1970-01-01T07:54:36.626Z</time>
    </trkpt>
    <trkpt lat="56.456684" lon="60.775588">
        <ele>243.0</ele>
        <time>1970-01-01T07:54:37.626Z</time>
    </trkpt>
    <trkpt lat="56.456657" lon="60.775543">
        <ele>243.0</ele>
        <time>1970-01-01T07:54:38.626Z</time>
    </trkpt>
    <trkpt lat="56.456646" lon="60.77552">
        <ele>243.0</ele>
        <time>1970-01-01T07:54:39.626Z</time>
    </trkpt>
    <trkpt lat="56.456626" lon="60.775476">
        <ele>243.0</ele>
        <time>1970-01-01T07:54:40.626Z</time>
    </trkpt>
    <trkpt lat="56.456621" lon="60.775463">
        <ele>243.0</ele>
        <time>1970-01-01T07:54:41.626Z</time>
    </trkpt>
    <trkpt lat="56.456594" lon="60.77542">
        <ele>243.0</ele>
        <time>1970-01-01T07:54:42.626Z</time>
    </trkpt>
    <trkpt lat="56.45657" lon="60.775366">
        <ele>243.0</ele>
        <time>1970-01-01T07:54:43.626Z</time>
    </trkpt>
    <trkpt lat="56.456562" lon="60.775349">
        <ele>243.0</ele>
        <time>1970-01-01T07:54:44.626Z</time>
    </trkpt>
    <trkpt lat="56.456552" lon="60.775308">
        <ele>243.0</ele>
        <time>1970-01-01T07:54:45.626Z</time>
    </trkpt>
    <trkpt lat="56.456552" lon="60.775286">
        <ele>243.0</ele>
        <time>1970-01-01T07:54:46.626Z</time>
    </trkpt>
    <trkpt lat="56.456541" lon="60.775231">
        <ele>243.0</ele>
        <time>1970-01-01T07:54:47.626Z</time>
    </trkpt>
    <trkpt lat="56.456531" lon="60.775202">
        <ele>243.0</ele>
        <time>1970-01-01T07:54:48.626Z</time>
    </trkpt>
    <trkpt lat="56.456532" lon="60.775178">
        <ele>243.0</ele>
        <time>1970-01-01T07:54:49.626Z</time>
    </trkpt>
    <trkpt lat="56.456533" lon="60.775147">
        <ele>243.0</ele>
        <time>1970-01-01T07:54:50.626Z</time>
    </trkpt>
    <trkpt lat="56.456532" lon="60.775115">
        <ele>243.0</ele>
        <time>1970-01-01T07:54:51.626Z</time>
    </trkpt>
    <trkpt lat="56.456539" lon="60.775062">
        <ele>243.0</ele>
        <time>1970-01-01T07:54:52.626Z</time>
    </trkpt>
    <trkpt lat="56.456542" lon="60.775011">
        <ele>243.0</ele>
        <time>1970-01-01T07:54:53.626Z</time>
    </trkpt>
    <trkpt lat="56.456548" lon="60.774994">
        <ele>243.0</ele>
        <time>1970-01-01T07:54:54.626Z</time>
    </trkpt>
    <trkpt lat="56.456555" lon="60.774938">
        <ele>243.0</ele>
        <time>1970-01-01T07:54:55.626Z</time>
    </trkpt>
    <trkpt lat="56.456556" lon="60.774913">
        <ele>243.0</ele>
        <time>1970-01-01T07:54:56.626Z</time>
    </trkpt>
    <trkpt lat="56.456557" lon="60.774889">
        <ele>243.0</ele>
        <time>1970-01-01T07:54:57.626Z</time>
    </trkpt>
    <trkpt lat="56.456555" lon="60.774847">
        <ele>243.0</ele>
        <time>1970-01-01T07:54:58.626Z</time>
    </trkpt>
    <trkpt lat="56.456551" lon="60.774822">
        <ele>243.0</ele>
        <time>1970-01-01T07:54:59.626Z</time>
    </trkpt>
    <trkpt lat="56.456542" lon="60.774762">
        <ele>243.0</ele>
        <time>1970-01-01T07:55:00.626Z</time>
    </trkpt>
    <trkpt lat="56.456542" lon="60.774733">
        <ele>243.0</ele>
        <time>1970-01-01T07:55:01.626Z</time>
    </trkpt>
    <trkpt lat="56.456543" lon="60.774702">
        <ele>243.0</ele>
        <time>1970-01-01T07:55:02.626Z</time>
    </trkpt>
    <trkpt lat="56.456548" lon="60.774683">
        <ele>243.0</ele>
        <time>1970-01-01T07:55:03.626Z</time>
    </trkpt>
    <trkpt lat="56.456559" lon="60.77462">
        <ele>242.0</ele>
        <time>1970-01-01T07:55:04.626Z</time>
    </trkpt>
    <trkpt lat="56.456558" lon="60.774601">
        <ele>242.0</ele>
        <time>1970-01-01T07:55:05.626Z</time>
    </trkpt>
    <trkpt lat="56.456544" lon="60.77454">
        <ele>242.0</ele>
        <time>1970-01-01T07:55:06.626Z</time>
    </trkpt>
    <trkpt lat="56.45654" lon="60.774474">
        <ele>242.0</ele>
        <time>1970-01-01T07:55:07.626Z</time>
    </trkpt>
    <trkpt lat="56.456538" lon="60.774423">
        <ele>242.0</ele>
        <time>1970-01-01T07:55:08.626Z</time>
    </trkpt>
    <trkpt lat="56.456529" lon="60.774366">
        <ele>242.0</ele>
        <time>1970-01-01T07:55:09.626Z</time>
    </trkpt>
    <trkpt lat="56.456521" lon="60.774316">
        <ele>242.0</ele>
        <time>1970-01-01T07:55:10.626Z</time>
    </trkpt>
    <trkpt lat="56.456519" lon="60.774294">
        <ele>242.0</ele>
        <time>1970-01-01T07:55:11.626Z</time>
    </trkpt>
    <trkpt lat="56.456514" lon="60.774246">
        <ele>245.0</ele>
        <time>1970-01-01T07:55:13.626Z</time>
    </trkpt>
    <trkpt lat="56.456506" lon="60.774192">
        <ele>245.0</ele>
        <time>1970-01-01T07:55:14.626Z</time>
    </trkpt>
    <trkpt lat="56.456504" lon="60.774175">
        <ele>245.0</ele>
        <time>1970-01-01T07:55:15.626Z</time>
    </trkpt>
    <trkpt lat="56.456495" lon="60.774112">
        <ele>245.0</ele>
        <time>1970-01-01T07:55:16.626Z</time>
    </trkpt>
    <trkpt lat="56.456497" lon="60.774061">
        <ele>245.0</ele>
        <time>1970-01-01T07:55:17.626Z</time>
    </trkpt>
    <trkpt lat="56.456495" lon="60.774035">
        <ele>245.0</ele>
        <time>1970-01-01T07:55:18.626Z</time>
    </trkpt>
    <trkpt lat="56.456491" lon="60.773963">
        <ele>245.0</ele>
        <time>1970-01-01T07:55:19.626Z</time>
    </trkpt>
    <trkpt lat="56.456493" lon="60.773946">
        <ele>245.0</ele>
        <time>1970-01-01T07:55:20.626Z</time>
    </trkpt>
    <trkpt lat="56.456503" lon="60.773894">
        <ele>245.0</ele>
        <time>1970-01-01T07:55:21.626Z</time>
    </trkpt>
    <trkpt lat="56.456517" lon="60.773844">
        <ele>243.0</ele>
        <time>1970-01-01T07:55:22.626Z</time>
    </trkpt>
    <trkpt lat="56.456521" lon="60.773824">
        <ele>243.0</ele>
        <time>1970-01-01T07:55:23.626Z</time>
    </trkpt>
    <trkpt lat="56.456534" lon="60.773772">
        <ele>242.0</ele>
        <time>1970-01-01T07:55:24.626Z</time>
    </trkpt>
    <trkpt lat="56.456546" lon="60.773726">
        <ele>242.0</ele>
        <time>1970-01-01T07:55:25.626Z</time>
    </trkpt>
    <trkpt lat="56.456547" lon="60.773702">
        <ele>242.0</ele>
        <time>1970-01-01T07:55:26.626Z</time>
    </trkpt>
    <trkpt lat="56.45655" lon="60.77364">
        <ele>242.0</ele>
        <time>1970-01-01T07:55:27.626Z</time>
    </trkpt>
    <trkpt lat="56.456554" lon="60.773616">
        <ele>242.0</ele>
        <time>1970-01-01T07:55:28.626Z</time>
    </trkpt>
    <trkpt lat="56.45656" lon="60.773547">
        <ele>242.0</ele>
        <time>1970-01-01T07:55:29.626Z</time>
    </trkpt>
    <trkpt lat="56.456571" lon="60.773494">
        <ele>242.0</ele>
        <time>1970-01-01T07:55:30.626Z</time>
    </trkpt>
    <trkpt lat="56.456575" lon="60.773441">
        <ele>242.0</ele>
        <time>1970-01-01T07:55:31.626Z</time>
    </trkpt>
    <trkpt lat="56.456575" lon="60.77339">
        <ele>242.0</ele>
        <time>1970-01-01T07:55:32.626Z</time>
    </trkpt>
    <trkpt lat="56.456575" lon="60.773366">
        <ele>242.0</ele>
        <time>1970-01-01T07:55:33.626Z</time>
    </trkpt>
    <trkpt lat="56.456581" lon="60.773305">
        <ele>242.0</ele>
        <time>1970-01-01T07:55:34.626Z</time>
    </trkpt>
    <trkpt lat="56.456582" lon="60.77328">
        <ele>242.0</ele>
        <time>1970-01-01T07:55:35.626Z</time>
    </trkpt>
    <trkpt lat="56.456591" lon="60.773224">
        <ele>242.0</ele>
        <time>1970-01-01T07:55:36.626Z</time>
    </trkpt>
    <trkpt lat="56.456591" lon="60.773207">
        <ele>242.0</ele>
        <time>1970-01-01T07:55:37.626Z</time>
    </trkpt>
    <trkpt lat="56.456599" lon="60.77315">
        <ele>242.0</ele>
        <time>1970-01-01T07:55:38.626Z</time>
    </trkpt>
    <trkpt lat="56.456602" lon="60.773087">
        <ele>243.0</ele>
        <time>1970-01-01T07:55:39.626Z</time>
    </trkpt>
    <trkpt lat="56.4566" lon="60.773033">
        <ele>243.0</ele>
        <time>1970-01-01T07:55:40.626Z</time>
    </trkpt>
    <trkpt lat="56.456605" lon="60.772973">
        <ele>243.0</ele>
        <time>1970-01-01T07:55:41.626Z</time>
    </trkpt>
    <trkpt lat="56.45661" lon="60.772916">
        <ele>242.0</ele>
        <time>1970-01-01T07:55:42.626Z</time>
    </trkpt>
    <trkpt lat="56.456612" lon="60.772858">
        <ele>242.0</ele>
        <time>1970-01-01T07:55:43.626Z</time>
    </trkpt>
    <trkpt lat="56.456596" lon="60.772805">
        <ele>243.0</ele>
        <time>1970-01-01T07:55:44.626Z</time>
    </trkpt>
    <trkpt lat="56.456592" lon="60.772774">
        <ele>243.0</ele>
        <time>1970-01-01T07:55:45.626Z</time>
    </trkpt>
    <trkpt lat="56.456596" lon="60.772709">
        <ele>243.0</ele>
        <time>1970-01-01T07:55:46.626Z</time>
    </trkpt>
    <trkpt lat="56.456602" lon="60.772653">
        <ele>243.0</ele>
        <time>1970-01-01T07:55:47.626Z</time>
    </trkpt>
    <trkpt lat="56.456604" lon="60.772632">
        <ele>243.1</ele>
        <time>1970-01-01T07:55:48.626Z</time>
    </trkpt>
    <trkpt lat="56.456608" lon="60.772564">
        <ele>244.1</ele>
        <time>1970-01-01T07:55:49.626Z</time>
    </trkpt>
    <trkpt lat="56.456614" lon="60.77251">
        <ele>242.1</ele>
        <time>1970-01-01T07:55:50.626Z</time>
    </trkpt>
    <trkpt lat="56.456616" lon="60.772453">
        <ele>242.1</ele>
        <time>1970-01-01T07:55:51.626Z</time>
    </trkpt>
    <trkpt lat="56.456618" lon="60.772381">
        <ele>242.1</ele>
        <time>1970-01-01T07:55:52.626Z</time>
    </trkpt>
    <trkpt lat="56.456622" lon="60.772319">
        <ele>242.1</ele>
        <time>1970-01-01T07:55:53.626Z</time>
    </trkpt>
    <trkpt lat="56.456627" lon="60.77229">
        <ele>242.1</ele>
        <time>1970-01-01T07:55:54.626Z</time>
    </trkpt>
    <trkpt lat="56.456634" lon="60.772226">
        <ele>243.1</ele>
        <time>1970-01-01T07:55:55.626Z</time>
    </trkpt>
    <trkpt lat="56.456639" lon="60.772204">
        <ele>243.1</ele>
        <time>1970-01-01T07:55:56.626Z</time>
    </trkpt>
    <trkpt lat="56.456651" lon="60.772143">
        <ele>243.1</ele>
        <time>1970-01-01T07:55:57.626Z</time>
    </trkpt>
    <trkpt lat="56.456654" lon="60.772119">
        <ele>243.1</ele>
        <time>1970-01-01T07:55:58.626Z</time>
    </trkpt>
    <trkpt lat="56.456665" lon="60.772049">
        <ele>243.1</ele>
        <time>1970-01-01T07:55:59.626Z</time>
    </trkpt>
    <trkpt lat="56.456675" lon="60.771991">
        <ele>243.1</ele>
        <time>1970-01-01T07:56:00.626Z</time>
    </trkpt>
    <trkpt lat="56.456682" lon="60.771941">
        <ele>243.1</ele>
        <time>1970-01-01T07:56:01.626Z</time>
    </trkpt>
    <trkpt lat="56.456686" lon="60.771887">
        <ele>244.1</ele>
        <time>1970-01-01T07:56:02.626Z</time>
    </trkpt>
    <trkpt lat="56.456683" lon="60.771827">
        <ele>244.1</ele>
        <time>1970-01-01T07:56:03.626Z</time>
    </trkpt>
    <trkpt lat="56.456693" lon="60.771781">
        <ele>244.1</ele>
        <time>1970-01-01T07:56:04.626Z</time>
    </trkpt>
    <trkpt lat="56.456698" lon="60.77175">
        <ele>244.1</ele>
        <time>1970-01-01T07:56:05.626Z</time>
    </trkpt>
    <trkpt lat="56.456706" lon="60.771671">
        <ele>243.1</ele>
        <time>1970-01-01T07:56:06.626Z</time>
    </trkpt>
    <trkpt lat="56.456707" lon="60.771649">
        <ele>243.1</ele>
        <time>1970-01-01T07:56:07.626Z</time>
    </trkpt>
    <trkpt lat="56.456719" lon="60.771585">
        <ele>243.1</ele>
        <time>1970-01-01T07:56:08.626Z</time>
    </trkpt>
    <trkpt lat="56.456737" lon="60.771544">
        <ele>243.1</ele>
        <time>1970-01-01T07:56:09.626Z</time>
    </trkpt>
    <trkpt lat="56.456746" lon="60.771494">
        <ele>243.1</ele>
        <time>1970-01-01T07:56:10.626Z</time>
    </trkpt>
    <trkpt lat="56.456763" lon="60.771446">
        <ele>243.1</ele>
        <time>1970-01-01T07:56:11.626Z</time>
    </trkpt>
    <trkpt lat="56.456764" lon="60.771428">
        <ele>243.1</ele>
        <time>1970-01-01T07:56:12.626Z</time>
    </trkpt>
    <trkpt lat="56.456767" lon="60.771361">
        <ele>244.1</ele>
        <time>1970-01-01T07:56:13.626Z</time>
    </trkpt>
    <trkpt lat="56.456765" lon="60.771341">
        <ele>244.1</ele>
        <time>1970-01-01T07:56:14.626Z</time>
    </trkpt>
    <trkpt lat="56.456774" lon="60.771287">
        <ele>244.1</ele>
        <time>1970-01-01T07:56:15.626Z</time>
    </trkpt>
    <trkpt lat="56.456776" lon="60.771229">
        <ele>244.1</ele>
        <time>1970-01-01T07:56:16.626Z</time>
    </trkpt>
    <trkpt lat="56.456784" lon="60.771179">
        <ele>244.2</ele>
        <time>1970-01-01T07:56:17.626Z</time>
    </trkpt>
    <trkpt lat="56.456787" lon="60.771159">
        <ele>244.2</ele>
        <time>1970-01-01T07:56:18.626Z</time>
    </trkpt>
    <trkpt lat="56.456799" lon="60.771094">
        <ele>244.2</ele>
        <time>1970-01-01T07:56:19.626Z</time>
    </trkpt>
    <trkpt lat="56.456798" lon="60.771033">
        <ele>244.2</ele>
        <time>1970-01-01T07:56:20.626Z</time>
    </trkpt>
    <trkpt lat="56.456806" lon="60.770985">
        <ele>242.2</ele>
        <time>1970-01-01T07:56:21.626Z</time>
    </trkpt>
    <trkpt lat="56.456796" lon="60.770931">
        <ele>244.2</ele>
        <time>1970-01-01T07:56:22.626Z</time>
    </trkpt>
    <trkpt lat="56.456796" lon="60.770869">
        <ele>244.2</ele>
        <time>1970-01-01T07:56:23.626Z</time>
    </trkpt>
    <trkpt lat="56.456801" lon="60.77082">
        <ele>242.2</ele>
        <time>1970-01-01T07:56:24.626Z</time>
    </trkpt>
    <trkpt lat="56.456801" lon="60.770803">
        <ele>242.2</ele>
        <time>1970-01-01T07:56:25.626Z</time>
    </trkpt>
    <trkpt lat="56.456798" lon="60.770752">
        <ele>244.2</ele>
        <time>1970-01-01T07:56:26.626Z</time>
    </trkpt>
    <trkpt lat="56.4568" lon="60.770723">
        <ele>242.2</ele>
        <time>1970-01-01T07:56:27.626Z</time>
    </trkpt>
    <trkpt lat="56.456802" lon="60.770648">
        <ele>242.2</ele>
        <time>1970-01-01T07:56:28.626Z</time>
    </trkpt>
    <trkpt lat="56.456813" lon="60.770592">
        <ele>242.2</ele>
        <time>1970-01-01T07:56:29.626Z</time>
    </trkpt>
    <trkpt lat="56.45683" lon="60.770466">
        <ele>242.2</ele>
        <time>1970-01-01T07:56:30.626Z</time>
    </trkpt>
    <trkpt lat="56.456835" lon="60.770416">
        <ele>242.2</ele>
        <time>1970-01-01T07:56:31.626Z</time>
    </trkpt>
    <trkpt lat="56.45685" lon="60.77036">
        <ele>242.2</ele>
        <time>1970-01-01T07:56:32.626Z</time>
    </trkpt>
    <trkpt lat="56.456852" lon="60.770308">
        <ele>241.2</ele>
        <time>1970-01-01T07:56:33.626Z</time>
    </trkpt>
    <trkpt lat="56.456848" lon="60.770245">
        <ele>241.2</ele>
        <time>1970-01-01T07:56:34.626Z</time>
    </trkpt>
    <trkpt lat="56.45685" lon="60.770188">
        <ele>241.3</ele>
        <time>1970-01-01T07:56:35.626Z</time>
    </trkpt>
    <trkpt lat="56.456849" lon="60.770168">
        <ele>241.3</ele>
        <time>1970-01-01T07:56:36.626Z</time>
    </trkpt>
    <trkpt lat="56.456851" lon="60.770101">
        <ele>241.3</ele>
        <time>1970-01-01T07:56:37.626Z</time>
    </trkpt>
    <trkpt lat="56.456861" lon="60.770051">
        <ele>241.3</ele>
        <time>1970-01-01T07:56:38.626Z</time>
    </trkpt>
    <trkpt lat="56.456863" lon="60.769995">
        <ele>241.3</ele>
        <time>1970-01-01T07:56:39.626Z</time>
    </trkpt>
    <trkpt lat="56.456874" lon="60.76994">
        <ele>241.3</ele>
        <time>1970-01-01T07:56:40.626Z</time>
    </trkpt>
    <trkpt lat="56.456875" lon="60.769918">
        <ele>241.3</ele>
        <time>1970-01-01T07:56:41.626Z</time>
    </trkpt>
    <trkpt lat="56.456883" lon="60.76985">
        <ele>241.3</ele>
        <time>1970-01-01T07:56:42.626Z</time>
    </trkpt>
    <trkpt lat="56.456886" lon="60.769793">
        <ele>241.3</ele>
        <time>1970-01-01T07:56:43.626Z</time>
    </trkpt>
    <trkpt lat="56.456892" lon="60.769736">
        <ele>241.3</ele>
        <time>1970-01-01T07:56:44.626Z</time>
    </trkpt>
    <trkpt lat="56.456896" lon="60.769711">
        <ele>239.3</ele>
        <time>1970-01-01T07:56:45.626Z</time>
    </trkpt>
    <trkpt lat="56.456893" lon="60.769648">
        <ele>240.4</ele>
        <time>1970-01-01T07:56:46.626Z</time>
    </trkpt>
    <trkpt lat="56.456902" lon="60.769584">
        <ele>239.4</ele>
        <time>1970-01-01T07:56:47.626Z</time>
    </trkpt>
    <trkpt lat="56.456917" lon="60.76951">
        <ele>239.4</ele>
        <time>1970-01-01T07:56:48.626Z</time>
    </trkpt>
    <trkpt lat="56.456916" lon="60.769448">
        <ele>239.4</ele>
        <time>1970-01-01T07:56:49.626Z</time>
    </trkpt>
    <trkpt lat="56.456931" lon="60.769401">
        <ele>239.4</ele>
        <time>1970-01-01T07:56:50.626Z</time>
    </trkpt>
    <trkpt lat="56.456929" lon="60.769374">
        <ele>239.4</ele>
        <time>1970-01-01T07:56:51.626Z</time>
    </trkpt>
    <trkpt lat="56.456926" lon="60.769306">
        <ele>240.4</ele>
        <time>1970-01-01T07:56:52.626Z</time>
    </trkpt>
    <trkpt lat="56.456927" lon="60.769282">
        <ele>240.4</ele>
        <time>1970-01-01T07:56:53.626Z</time>
    </trkpt>
    <trkpt lat="56.45693" lon="60.769216">
        <ele>240.4</ele>
        <time>1970-01-01T07:56:54.626Z</time>
    </trkpt>
    <trkpt lat="56.456934" lon="60.769188">
        <ele>240.4</ele>
        <time>1970-01-01T07:56:55.626Z</time>
    </trkpt>
    <trkpt lat="56.456948" lon="60.769122">
        <ele>240.4</ele>
        <time>1970-01-01T07:56:56.626Z</time>
    </trkpt>
    <trkpt lat="56.456943" lon="60.769061">
        <ele>240.4</ele>
        <time>1970-01-01T07:56:57.626Z</time>
    </trkpt>
    <trkpt lat="56.456941" lon="60.768995">
        <ele>240.4</ele>
        <time>1970-01-01T07:56:58.626Z</time>
    </trkpt>
    <trkpt lat="56.45694" lon="60.76897">
        <ele>240.4</ele>
        <time>1970-01-01T07:56:59.626Z</time>
    </trkpt>
    <trkpt lat="56.456933" lon="60.768903">
        <ele>240.4</ele>
        <time>1970-01-01T07:57:00.626Z</time>
    </trkpt>
    <trkpt lat="56.456933" lon="60.768883">
        <ele>240.4</ele>
        <time>1970-01-01T07:57:01.626Z</time>
    </trkpt>
    <trkpt lat="56.456935" lon="60.768826">
        <ele>240.4</ele>
        <time>1970-01-01T07:57:02.626Z</time>
    </trkpt>
    <trkpt lat="56.456929" lon="60.768766">
        <ele>240.4</ele>
        <time>1970-01-01T07:57:03.626Z</time>
    </trkpt>
    <trkpt lat="56.456931" lon="60.768741">
        <ele>240.4</ele>
        <time>1970-01-01T07:57:04.626Z</time>
    </trkpt>
    <trkpt lat="56.456935" lon="60.768671">
        <ele>240.4</ele>
        <time>1970-01-01T07:57:05.626Z</time>
    </trkpt>
    <trkpt lat="56.456927" lon="60.768623">
        <ele>240.4</ele>
        <time>1970-01-01T07:57:06.626Z</time>
    </trkpt>
    <trkpt lat="56.456929" lon="60.768556">
        <ele>240.4</ele>
        <time>1970-01-01T07:57:07.626Z</time>
    </trkpt>
    <trkpt lat="56.456921" lon="60.768506">
        <ele>240.4</ele>
        <time>1970-01-01T07:57:08.626Z</time>
    </trkpt>
    <trkpt lat="56.456921" lon="60.76848">
        <ele>240.4</ele>
        <time>1970-01-01T07:57:09.626Z</time>
    </trkpt>
    <trkpt lat="56.456925" lon="60.768406">
        <ele>240.4</ele>
        <time>1970-01-01T07:57:10.626Z</time>
    </trkpt>
    <trkpt lat="56.456927" lon="60.76838">
        <ele>240.4</ele>
        <time>1970-01-01T07:57:11.626Z</time>
    </trkpt>
    <trkpt lat="56.456924" lon="60.768308">
        <ele>240.4</ele>
        <time>1970-01-01T07:57:12.626Z</time>
    </trkpt>
    <trkpt lat="56.456922" lon="60.768248">
        <ele>240.4</ele>
        <time>1970-01-01T07:57:13.626Z</time>
    </trkpt>
    <trkpt lat="56.456924" lon="60.768195">
        <ele>240.4</ele>
        <time>1970-01-01T07:57:14.626Z</time>
    </trkpt>
    <trkpt lat="56.456926" lon="60.768177">
        <ele>240.5</ele>
        <time>1970-01-01T07:57:15.626Z</time>
    </trkpt>
    <trkpt lat="56.456924" lon="60.768128">
        <ele>240.5</ele>
        <time>1970-01-01T07:57:16.626Z</time>
    </trkpt>
    <trkpt lat="56.456923" lon="60.768107">
        <ele>239.5</ele>
        <time>1970-01-01T07:57:17.626Z</time>
    </trkpt>
    <trkpt lat="56.456924" lon="60.768044">
        <ele>239.5</ele>
        <time>1970-01-01T07:57:19.626Z</time>
    </trkpt>
    <trkpt lat="56.456928" lon="60.768025">
        <ele>239.5</ele>
        <time>1970-01-01T07:57:20.626Z</time>
    </trkpt>
    <trkpt lat="56.456934" lon="60.767963">
        <ele>239.5</ele>
        <time>1970-01-01T07:57:21.626Z</time>
    </trkpt>
    <trkpt lat="56.456941" lon="60.767936">
        <ele>239.5</ele>
        <time>1970-01-01T07:57:22.626Z</time>
    </trkpt>
    <trkpt lat="56.456966" lon="60.767885">
        <ele>239.5</ele>
        <time>1970-01-01T07:57:23.626Z</time>
    </trkpt>
    <trkpt lat="56.456968" lon="60.767864">
        <ele>239.5</ele>
        <time>1970-01-01T07:57:24.626Z</time>
    </trkpt>
    <trkpt lat="56.456975" lon="60.767801">
        <ele>239.5</ele>
        <time>1970-01-01T07:57:25.626Z</time>
    </trkpt>
    <trkpt lat="56.456982" lon="60.767778">
        <ele>239.5</ele>
        <time>1970-01-01T07:57:26.626Z</time>
    </trkpt>
    <trkpt lat="56.456999" lon="60.767716">
        <ele>239.5</ele>
        <time>1970-01-01T07:57:27.626Z</time>
    </trkpt>
    <trkpt lat="56.457017" lon="60.767674">
        <ele>239.5</ele>
        <time>1970-01-01T07:57:28.626Z</time>
    </trkpt>
    <trkpt lat="56.457037" lon="60.767628">
        <ele>239.5</ele>
        <time>1970-01-01T07:57:29.626Z</time>
    </trkpt>
    <trkpt lat="56.457042" lon="60.76758">
        <ele>240.5</ele>
        <time>1970-01-01T07:57:30.626Z</time>
    </trkpt>
    <trkpt lat="56.457057" lon="60.767551">
        <ele>240.5</ele>
        <time>1970-01-01T07:57:31.626Z</time>
    </trkpt>
    <trkpt lat="56.457063" lon="60.767528">
        <ele>240.5</ele>
        <time>1970-01-01T07:57:32.626Z</time>
    </trkpt>
    <trkpt lat="56.45707" lon="60.767505">
        <ele>240.5</ele>
        <time>1970-01-01T07:57:33.626Z</time>
    </trkpt>
    <trkpt lat="56.457087" lon="60.767442">
        <ele>240.5</ele>
        <time>1970-01-01T07:57:34.626Z</time>
    </trkpt>
    <trkpt lat="56.4571" lon="60.767398">
        <ele>240.5</ele>
        <time>1970-01-01T07:57:35.626Z</time>
    </trkpt>
    <trkpt lat="56.457106" lon="60.767377">
        <ele>240.5</ele>
        <time>1970-01-01T07:57:36.626Z</time>
    </trkpt>
    <trkpt lat="56.457121" lon="60.767325">
        <ele>240.5</ele>
        <time>1970-01-01T07:57:37.626Z</time>
    </trkpt>
    <trkpt lat="56.457132" lon="60.767268">
        <ele>240.5</ele>
        <time>1970-01-01T07:57:38.626Z</time>
    </trkpt>
    <trkpt lat="56.457144" lon="60.767246">
        <ele>240.5</ele>
        <time>1970-01-01T07:57:39.626Z</time>
    </trkpt>
    <trkpt lat="56.457163" lon="60.767191">
        <ele>240.5</ele>
        <time>1970-01-01T07:57:40.626Z</time>
    </trkpt>
    <trkpt lat="56.457167" lon="60.767172">
        <ele>240.5</ele>
        <time>1970-01-01T07:57:41.626Z</time>
    </trkpt>
    <trkpt lat="56.457177" lon="60.767121">
        <ele>240.5</ele>
        <time>1970-01-01T07:57:42.626Z</time>
    </trkpt>
    <trkpt lat="56.457185" lon="60.767101">
        <ele>240.5</ele>
        <time>1970-01-01T07:57:43.626Z</time>
    </trkpt>
    <trkpt lat="56.457198" lon="60.767052">
        <ele>241.6</ele>
        <time>1970-01-01T07:57:44.626Z</time>
    </trkpt>
    <trkpt lat="56.457207" lon="60.767032">
        <ele>241.6</ele>
        <time>1970-01-01T07:57:45.626Z</time>
    </trkpt>
    <trkpt lat="56.457225" lon="60.766976">
        <ele>241.6</ele>
        <time>1970-01-01T07:57:46.626Z</time>
    </trkpt>
    <trkpt lat="56.457231" lon="60.766957">
        <ele>241.6</ele>
        <time>1970-01-01T07:57:47.626Z</time>
    </trkpt>
    <trkpt lat="56.457244" lon="60.766898">
        <ele>241.6</ele>
        <time>1970-01-01T07:57:48.626Z</time>
    </trkpt>
    <trkpt lat="56.457252" lon="60.76685">
        <ele>241.6</ele>
        <time>1970-01-01T07:57:49.626Z</time>
    </trkpt>
    <trkpt lat="56.457257" lon="60.76683">
        <ele>241.6</ele>
        <time>1970-01-01T07:57:50.626Z</time>
    </trkpt>
    <trkpt lat="56.457273" lon="60.766774">
        <ele>241.6</ele>
        <time>1970-01-01T07:57:51.626Z</time>
    </trkpt>
    <trkpt lat="56.457278" lon="60.76676">
        <ele>241.6</ele>
        <time>1970-01-01T07:57:52.626Z</time>
    </trkpt>
    <trkpt lat="56.45729" lon="60.766713">
        <ele>241.6</ele>
        <time>1970-01-01T07:57:53.626Z</time>
    </trkpt>
    <trkpt lat="56.457293" lon="60.766692">
        <ele>241.6</ele>
        <time>1970-01-01T07:57:54.626Z</time>
    </trkpt>
    <trkpt lat="56.457298" lon="60.766634">
        <ele>241.6</ele>
        <time>1970-01-01T07:57:55.626Z</time>
    </trkpt>
    <trkpt lat="56.457301" lon="60.766605">
        <ele>241.6</ele>
        <time>1970-01-01T07:57:56.626Z</time>
    </trkpt>
    <trkpt lat="56.457319" lon="60.766551">
        <ele>240.6</ele>
        <time>1970-01-01T07:57:57.626Z</time>
    </trkpt>
    <trkpt lat="56.457325" lon="60.766533">
        <ele>240.6</ele>
        <time>1970-01-01T07:57:58.626Z</time>
    </trkpt>
    <trkpt lat="56.457343" lon="60.766479">
        <ele>240.6</ele>
        <time>1970-01-01T07:57:59.626Z</time>
    </trkpt>
    <trkpt lat="56.457349" lon="60.766461">
        <ele>240.6</ele>
        <time>1970-01-01T07:58:00.626Z</time>
    </trkpt>
    <trkpt lat="56.457355" lon="60.766444">
        <ele>240.6</ele>
        <time>1970-01-01T07:58:01.626Z</time>
    </trkpt>
    <trkpt lat="56.457375" lon="60.76641">
        <ele>240.6</ele>
        <time>1970-01-01T07:58:02.626Z</time>
    </trkpt>
    <trkpt lat="56.457377" lon="60.766397">
        <ele>240.6</ele>
        <time>1970-01-01T07:58:03.626Z</time>
    </trkpt>
    <trkpt lat="56.457398" lon="60.766353">
        <ele>240.6</ele>
        <time>1970-01-01T07:58:04.626Z</time>
    </trkpt>
    <trkpt lat="56.457412" lon="60.76631">
        <ele>240.6</ele>
        <time>1970-01-01T07:58:05.626Z</time>
    </trkpt>
    <trkpt lat="56.457423" lon="60.766282">
        <ele>240.6</ele>
        <time>1970-01-01T07:58:06.626Z</time>
    </trkpt>
    <trkpt lat="56.457431" lon="60.766257">
        <ele>240.6</ele>
        <time>1970-01-01T07:58:07.626Z</time>
    </trkpt>
    <trkpt lat="56.457435" lon="60.766242">
        <ele>240.6</ele>
        <time>1970-01-01T07:58:08.626Z</time>
    </trkpt>
    <trkpt lat="56.457442" lon="60.766221">
        <ele>240.6</ele>
        <time>1970-01-01T07:58:09.626Z</time>
    </trkpt>
    <trkpt lat="56.457443" lon="60.766206">
        <ele>240.6</ele>
        <time>1970-01-01T07:58:10.626Z</time>
    </trkpt>
    <trkpt lat="56.457448" lon="60.766188">
        <ele>240.6</ele>
        <time>1970-01-01T07:58:11.626Z</time>
    </trkpt>
    <trkpt lat="56.457445" lon="60.766167">
        <ele>240.6</ele>
        <time>1970-01-01T07:58:12.626Z</time>
    </trkpt>
    <trkpt lat="56.457445" lon="60.766167">
        <ele>240.7</ele>
        <time>1970-01-01T07:58:13.626Z</time>
    </trkpt>
    <trkpt lat="56.457445" lon="60.766161">
        <ele>240.7</ele>
        <time>1970-01-01T07:58:14.626Z</time>
    </trkpt>
    <trkpt lat="56.457457" lon="60.766152">
        <ele>240.7</ele>
        <time>1970-01-01T07:58:15.626Z</time>
    </trkpt>
    <trkpt lat="56.457459" lon="60.766134">
        <ele>240.7</ele>
        <time>1970-01-01T07:58:16.626Z</time>
    </trkpt>
    <trkpt lat="56.457467" lon="60.766099">
        <ele>240.7</ele>
        <time>1970-01-01T07:58:17.626Z</time>
    </trkpt>
    <trkpt lat="56.457471" lon="60.76607">
        <ele>240.7</ele>
        <time>1970-01-01T07:58:18.626Z</time>
    </trkpt>
    <trkpt lat="56.457488" lon="60.766006">
        <ele>240.7</ele>
        <time>1970-01-01T07:58:19.626Z</time>
    </trkpt>
    <trkpt lat="56.457492" lon="60.765971">
        <ele>240.7</ele>
        <time>1970-01-01T07:58:20.626Z</time>
    </trkpt>
    <trkpt lat="56.457512" lon="60.765896">
        <ele>240.7</ele>
        <time>1970-01-01T07:58:21.626Z</time>
    </trkpt>
    <trkpt lat="56.457515" lon="60.765885">
        <ele>239.7</ele>
        <time>1970-01-01T07:58:22.626Z</time>
    </trkpt>
    <trkpt lat="56.457521" lon="60.765831">
        <ele>239.7</ele>
        <time>1970-01-01T07:58:23.626Z</time>
    </trkpt>
    <trkpt lat="56.457524" lon="60.76581">
        <ele>239.7</ele>
        <time>1970-01-01T07:58:24.626Z</time>
    </trkpt>
    <trkpt lat="56.457531" lon="60.765748">
        <ele>239.7</ele>
        <time>1970-01-01T07:58:25.626Z</time>
    </trkpt>
    <trkpt lat="56.457532" lon="60.765726">
        <ele>239.7</ele>
        <time>1970-01-01T07:58:26.626Z</time>
    </trkpt>
    <trkpt lat="56.457539" lon="60.76566">
        <ele>239.7</ele>
        <time>1970-01-01T07:58:27.626Z</time>
    </trkpt>
    <trkpt lat="56.45754" lon="60.765633">
        <ele>239.7</ele>
        <time>1970-01-01T07:58:28.626Z</time>
    </trkpt>
    <trkpt lat="56.457538" lon="60.765598">
        <ele>239.7</ele>
        <time>1970-01-01T07:58:29.626Z</time>
    </trkpt>
    <trkpt lat="56.457538" lon="60.765579">
        <ele>239.7</ele>
        <time>1970-01-01T07:58:30.626Z</time>
    </trkpt>
    <trkpt lat="56.457539" lon="60.765532">
        <ele>239.7</ele>
        <time>1970-01-01T07:58:31.626Z</time>
    </trkpt>
    <trkpt lat="56.457538" lon="60.765505">
        <ele>239.7</ele>
        <time>1970-01-01T07:58:32.626Z</time>
    </trkpt>
    <trkpt lat="56.457536" lon="60.765476">
        <ele>239.7</ele>
        <time>1970-01-01T07:58:33.626Z</time>
    </trkpt>
    <trkpt lat="56.457543" lon="60.765473">
        <ele>239.7</ele>
        <time>1970-01-01T07:58:34.626Z</time>
    </trkpt>
    <trkpt lat="56.457599" lon="60.765344">
        <ele>239.7</ele>
        <time>1970-01-01T07:58:48.626Z</time>
    </trkpt>
    <trkpt lat="56.457599" lon="60.765346">
        <ele>239.7</ele>
        <time>1970-01-01T07:58:49.626Z</time>
    </trkpt>
    <trkpt lat="56.457605" lon="60.765344">
        <ele>239.7</ele>
        <time>1970-01-01T07:58:50.626Z</time>
    </trkpt>
    <trkpt lat="56.457611" lon="60.765339">
        <ele>239.7</ele>
        <time>1970-01-01T07:58:51.626Z</time>
    </trkpt>
    <trkpt lat="56.457617" lon="60.765333">
        <ele>239.7</ele>
        <time>1970-01-01T07:58:52.626Z</time>
    </trkpt>
    <trkpt lat="56.457623" lon="60.765327">
        <ele>239.7</ele>
        <time>1970-01-01T07:58:53.626Z</time>
    </trkpt>
    <trkpt lat="56.457629" lon="60.76532">
        <ele>239.7</ele>
        <time>1970-01-01T07:58:54.626Z</time>
    </trkpt>
    <trkpt lat="56.457635" lon="60.765314">
        <ele>239.8</ele>
        <time>1970-01-01T07:58:55.626Z</time>
    </trkpt>
    <trkpt lat="56.457641" lon="60.765307">
        <ele>239.8</ele>
        <time>1970-01-01T07:58:56.626Z</time>
    </trkpt>
    <trkpt lat="56.457648" lon="60.765301">
        <ele>239.8</ele>
        <time>1970-01-01T07:58:57.626Z</time>
    </trkpt>
    <trkpt lat="56.457661" lon="60.765279">
        <ele>240.8</ele>
        <time>1970-01-01T07:58:58.626Z</time>
    </trkpt>
    <trkpt lat="56.457667" lon="60.765265">
        <ele>240.8</ele>
        <time>1970-01-01T07:58:59.626Z</time>
    </trkpt>
    <trkpt lat="56.457673" lon="60.765251">
        <ele>240.8</ele>
        <time>1970-01-01T07:59:00.626Z</time>
    </trkpt>
    <trkpt lat="56.457683" lon="60.765217">
        <ele>240.8</ele>
        <time>1970-01-01T07:59:01.626Z</time>
    </trkpt>
    <trkpt lat="56.457688" lon="60.765203">
        <ele>240.8</ele>
        <time>1970-01-01T07:59:02.626Z</time>
    </trkpt>
    <trkpt lat="56.457688" lon="60.765203">
        <ele>240.8</ele>
        <time>1970-01-01T07:59:03.626Z</time>
    </trkpt>
    <trkpt lat="56.457693" lon="60.765205">
        <ele>240.8</ele>
        <time>1970-01-01T07:59:04.626Z</time>
    </trkpt>
    <trkpt lat="56.457694" lon="60.7652">
        <ele>240.8</ele>
        <time>1970-01-01T07:59:05.626Z</time>
    </trkpt>
    <trkpt lat="56.457701" lon="60.765178">
        <ele>240.8</ele>
        <time>1970-01-01T07:59:06.626Z</time>
    </trkpt>
    <trkpt lat="56.457711" lon="60.765131">
        <ele>240.8</ele>
        <time>1970-01-01T07:59:07.626Z</time>
    </trkpt>
    <trkpt lat="56.457717" lon="60.765112">
        <ele>240.8</ele>
        <time>1970-01-01T07:59:08.626Z</time>
    </trkpt>
    <trkpt lat="56.457722" lon="60.765055">
        <ele>240.8</ele>
        <time>1970-01-01T07:59:09.626Z</time>
    </trkpt>
    <trkpt lat="56.457726" lon="60.765033">
        <ele>240.8</ele>
        <time>1970-01-01T07:59:10.626Z</time>
    </trkpt>
    <trkpt lat="56.457732" lon="60.764984">
        <ele>240.8</ele>
        <time>1970-01-01T07:59:11.626Z</time>
    </trkpt>
    <trkpt lat="56.457736" lon="60.764963">
        <ele>240.8</ele>
        <time>1970-01-01T07:59:12.626Z</time>
    </trkpt>
    <trkpt lat="56.457743" lon="60.764907">
        <ele>240.8</ele>
        <time>1970-01-01T07:59:13.626Z</time>
    </trkpt>
    <trkpt lat="56.457745" lon="60.764888">
        <ele>240.8</ele>
        <time>1970-01-01T07:59:14.626Z</time>
    </trkpt>
    <trkpt lat="56.457757" lon="60.764834">
        <ele>240.8</ele>
        <time>1970-01-01T07:59:15.626Z</time>
    </trkpt>
    <trkpt lat="56.45776" lon="60.764808">
        <ele>240.8</ele>
        <time>1970-01-01T07:59:16.626Z</time>
    </trkpt>
    <trkpt lat="56.457766" lon="60.764745">
        <ele>240.8</ele>
        <time>1970-01-01T07:59:17.626Z</time>
    </trkpt>
    <trkpt lat="56.457766" lon="60.76472">
        <ele>240.8</ele>
        <time>1970-01-01T07:59:18.626Z</time>
    </trkpt>
    <trkpt lat="56.457773" lon="60.764659">
        <ele>240.8</ele>
        <time>1970-01-01T07:59:19.626Z</time>
    </trkpt>
    <trkpt lat="56.457779" lon="60.76464">
        <ele>240.8</ele>
        <time>1970-01-01T07:59:20.626Z</time>
    </trkpt>
    <trkpt lat="56.457783" lon="60.764576">
        <ele>240.8</ele>
        <time>1970-01-01T07:59:21.626Z</time>
    </trkpt>
    <trkpt lat="56.457789" lon="60.764554">
        <ele>240.8</ele>
        <time>1970-01-01T07:59:22.626Z</time>
    </trkpt>
    <trkpt lat="56.4578" lon="60.764493">
        <ele>240.8</ele>
        <time>1970-01-01T07:59:23.626Z</time>
    </trkpt>
    <trkpt lat="56.457811" lon="60.764455">
        <ele>240.9</ele>
        <time>1970-01-01T07:59:25.626Z</time>
    </trkpt>
    <trkpt lat="56.457817" lon="60.76441">
        <ele>240.9</ele>
        <time>1970-01-01T07:59:26.626Z</time>
    </trkpt>
    <trkpt lat="56.45782" lon="60.764389">
        <ele>240.9</ele>
        <time>1970-01-01T07:59:27.626Z</time>
    </trkpt>
    <trkpt lat="56.457828" lon="60.764327">
        <ele>240.9</ele>
        <time>1970-01-01T07:59:28.626Z</time>
    </trkpt>
    <trkpt lat="56.457834" lon="60.764308">
        <ele>240.9</ele>
        <time>1970-01-01T07:59:29.626Z</time>
    </trkpt>
    <trkpt lat="56.457841" lon="60.764256">
        <ele>240.9</ele>
        <time>1970-01-01T07:59:30.626Z</time>
    </trkpt>
    <trkpt lat="56.457842" lon="60.764232">
        <ele>240.9</ele>
        <time>1970-01-01T07:59:31.626Z</time>
    </trkpt>
    <trkpt lat="56.457844" lon="60.764171">
        <ele>239.9</ele>
        <time>1970-01-01T07:59:32.626Z</time>
    </trkpt>
    <trkpt lat="56.457848" lon="60.764157">
        <ele>239.9</ele>
        <time>1970-01-01T07:59:33.626Z</time>
    </trkpt>
    <trkpt lat="56.457861" lon="60.764101">
        <ele>239.9</ele>
        <time>1970-01-01T07:59:34.626Z</time>
    </trkpt>
    <trkpt lat="56.45787" lon="60.764052">
        <ele>239.9</ele>
        <time>1970-01-01T07:59:35.626Z</time>
    </trkpt>
    <trkpt lat="56.457874" lon="60.764035">
        <ele>239.9</ele>
        <time>1970-01-01T07:59:36.626Z</time>
    </trkpt>
    <trkpt lat="56.457886" lon="60.763984">
        <ele>239.9</ele>
        <time>1970-01-01T07:59:37.626Z</time>
    </trkpt>
    <trkpt lat="56.457892" lon="60.763964">
        <ele>239.9</ele>
        <time>1970-01-01T07:59:38.626Z</time>
    </trkpt>
    <trkpt lat="56.45791" lon="60.763902">
        <ele>239.9</ele>
        <time>1970-01-01T07:59:39.626Z</time>
    </trkpt>
    <trkpt lat="56.457912" lon="60.763878">
        <ele>239.9</ele>
        <time>1970-01-01T07:59:40.626Z</time>
    </trkpt>
    <trkpt lat="56.457918" lon="60.763813">
        <ele>239.9</ele>
        <time>1970-01-01T07:59:41.626Z</time>
    </trkpt>
    <trkpt lat="56.457918" lon="60.763795">
        <ele>239.9</ele>
        <time>1970-01-01T07:59:42.626Z</time>
    </trkpt>
    <trkpt lat="56.457916" lon="60.763747">
        <ele>239.9</ele>
        <time>1970-01-01T07:59:43.626Z</time>
    </trkpt>
    <trkpt lat="56.457918" lon="60.76371">
        <ele>239.9</ele>
        <time>1970-01-01T07:59:44.626Z</time>
    </trkpt>
    <trkpt lat="56.457927" lon="60.763696">
        <ele>239.9</ele>
        <time>1970-01-01T07:59:45.626Z</time>
    </trkpt>
    <trkpt lat="56.457929" lon="60.76367">
        <ele>239.9</ele>
        <time>1970-01-01T07:59:46.626Z</time>
    </trkpt>
    <trkpt lat="56.457938" lon="60.763601">
        <ele>239.9</ele>
        <time>1970-01-01T07:59:47.626Z</time>
    </trkpt>
    <trkpt lat="56.457937" lon="60.763577">
        <ele>240.9</ele>
        <time>1970-01-01T07:59:48.626Z</time>
    </trkpt>
    <trkpt lat="56.457931" lon="60.763516">
        <ele>240.9</ele>
        <time>1970-01-01T07:59:49.626Z</time>
    </trkpt>
    <trkpt lat="56.45793" lon="60.763497">
        <ele>240.9</ele>
        <time>1970-01-01T07:59:50.626Z</time>
    </trkpt>
    <trkpt lat="56.45793" lon="60.76344">
        <ele>240.9</ele>
        <time>1970-01-01T07:59:51.626Z</time>
    </trkpt>
    <trkpt lat="56.457927" lon="60.763419">
        <ele>240.9</ele>
        <time>1970-01-01T07:59:52.626Z</time>
    </trkpt>
    <trkpt lat="56.457927" lon="60.763369">
        <ele>240.9</ele>
        <time>1970-01-01T07:59:53.626Z</time>
    </trkpt>
    <trkpt lat="56.457929" lon="60.763341">
        <ele>241.0</ele>
        <time>1970-01-01T07:59:54.626Z</time>
    </trkpt>
    <trkpt lat="56.457939" lon="60.763314">
        <ele>241.0</ele>
        <time>1970-01-01T07:59:55.626Z</time>
    </trkpt>
    <trkpt lat="56.457949" lon="60.763292">
        <ele>241.0</ele>
        <time>1970-01-01T07:59:56.626Z</time>
    </trkpt>
    <trkpt lat="56.457956" lon="60.763268">
        <ele>241.0</ele>
        <time>1970-01-01T07:59:57.626Z</time>
    </trkpt>
    <trkpt lat="56.457963" lon="60.763254">
        <ele>241.0</ele>
        <time>1970-01-01T07:59:58.626Z</time>
    </trkpt>
    <trkpt lat="56.457992" lon="60.763213">
        <ele>241.0</ele>
        <time>1970-01-01T07:59:59.626Z</time>
    </trkpt>
    <trkpt lat="56.458016" lon="60.763168">
        <ele>241.0</ele>
        <time>1970-01-01T08:00:00.626Z</time>
    </trkpt>
    <trkpt lat="56.458026" lon="60.763144">
        <ele>242.0</ele>
        <time>1970-01-01T08:00:01.626Z</time>
    </trkpt>
    <trkpt lat="56.458052" lon="60.763083">
        <ele>241.0</ele>
        <time>1970-01-01T08:00:02.626Z</time>
    </trkpt>
    <trkpt lat="56.458068" lon="60.763041">
        <ele>241.0</ele>
        <time>1970-01-01T08:00:03.626Z</time>
    </trkpt>
    <trkpt lat="56.458087" lon="60.762994">
        <ele>241.0</ele>
        <time>1970-01-01T08:00:04.626Z</time>
    </trkpt>
    <trkpt lat="56.458094" lon="60.762973">
        <ele>241.0</ele>
        <time>1970-01-01T08:00:05.626Z</time>
    </trkpt>
    <trkpt lat="56.458112" lon="60.762922">
        <ele>241.0</ele>
        <time>1970-01-01T08:00:06.626Z</time>
    </trkpt>
    <trkpt lat="56.458129" lon="60.762884">
        <ele>240.0</ele>
        <time>1970-01-01T08:00:07.626Z</time>
    </trkpt>
    <trkpt lat="56.458137" lon="60.762865">
        <ele>240.0</ele>
        <time>1970-01-01T08:00:08.626Z</time>
    </trkpt>
    <trkpt lat="56.458155" lon="60.762807">
        <ele>240.0</ele>
        <time>1970-01-01T08:00:09.626Z</time>
    </trkpt>
    <trkpt lat="56.45818" lon="60.762766">
        <ele>240.0</ele>
        <time>1970-01-01T08:00:10.626Z</time>
    </trkpt>
    <trkpt lat="56.458199" lon="60.762731">
        <ele>240.0</ele>
        <time>1970-01-01T08:00:11.626Z</time>
    </trkpt>
    <trkpt lat="56.458218" lon="60.762695">
        <ele>240.0</ele>
        <time>1970-01-01T08:00:12.626Z</time>
    </trkpt>
    <trkpt lat="56.458235" lon="60.762653">
        <ele>239.0</ele>
        <time>1970-01-01T08:00:13.626Z</time>
    </trkpt>
    <trkpt lat="56.458256" lon="60.762607">
        <ele>239.0</ele>
        <time>1970-01-01T08:00:14.626Z</time>
    </trkpt>
    <trkpt lat="56.458263" lon="60.762583">
        <ele>239.0</ele>
        <time>1970-01-01T08:00:15.626Z</time>
    </trkpt>
    <trkpt lat="56.458274" lon="60.762531">
        <ele>239.0</ele>
        <time>1970-01-01T08:00:16.626Z</time>
    </trkpt>
    <trkpt lat="56.458283" lon="60.762512">
        <ele>239.0</ele>
        <time>1970-01-01T08:00:17.626Z</time>
    </trkpt>
    <trkpt lat="56.458303" lon="60.762459">
        <ele>239.0</ele>
        <time>1970-01-01T08:00:18.626Z</time>
    </trkpt>
    <trkpt lat="56.458319" lon="60.76239">
        <ele>238.0</ele>
        <time>1970-01-01T08:00:19.626Z</time>
    </trkpt>
    <trkpt lat="56.458323" lon="60.762373">
        <ele>238.0</ele>
        <time>1970-01-01T08:00:20.626Z</time>
    </trkpt>
    <trkpt lat="56.458343" lon="60.762328">
        <ele>238.0</ele>
        <time>1970-01-01T08:00:21.626Z</time>
    </trkpt>
    <trkpt lat="56.458356" lon="60.762284">
        <ele>238.0</ele>
        <time>1970-01-01T08:00:22.626Z</time>
    </trkpt>
    <trkpt lat="56.458364" lon="60.762267">
        <ele>238.1</ele>
        <time>1970-01-01T08:00:23.626Z</time>
    </trkpt>
    <trkpt lat="56.458388" lon="60.762216">
        <ele>238.1</ele>
        <time>1970-01-01T08:00:24.626Z</time>
    </trkpt>
    <trkpt lat="56.458393" lon="60.762197">
        <ele>238.1</ele>
        <time>1970-01-01T08:00:25.626Z</time>
    </trkpt>
    <trkpt lat="56.458407" lon="60.762146">
        <ele>238.1</ele>
        <time>1970-01-01T08:00:26.626Z</time>
    </trkpt>
    <trkpt lat="56.458409" lon="60.762113">
        <ele>237.1</ele>
        <time>1970-01-01T08:00:27.626Z</time>
    </trkpt>
    <trkpt lat="56.45842" lon="60.762086">
        <ele>237.1</ele>
        <time>1970-01-01T08:00:28.626Z</time>
    </trkpt>
    <trkpt lat="56.458424" lon="60.762065">
        <ele>237.1</ele>
        <time>1970-01-01T08:00:29.626Z</time>
    </trkpt>
    <trkpt lat="56.458439" lon="60.76202">
        <ele>237.1</ele>
        <time>1970-01-01T08:00:30.626Z</time>
    </trkpt>
    <trkpt lat="56.458447" lon="60.762005">
        <ele>237.1</ele>
        <time>1970-01-01T08:00:31.626Z</time>
    </trkpt>
    <trkpt lat="56.458461" lon="60.761964">
        <ele>237.1</ele>
        <time>1970-01-01T08:00:32.626Z</time>
    </trkpt>
    <trkpt lat="56.458469" lon="60.761947">
        <ele>237.1</ele>
        <time>1970-01-01T08:00:33.626Z</time>
    </trkpt>
    <trkpt lat="56.458488" lon="60.761902">
        <ele>237.1</ele>
        <time>1970-01-01T08:00:34.626Z</time>
    </trkpt>
    <trkpt lat="56.458494" lon="60.761889">
        <ele>237.1</ele>
        <time>1970-01-01T08:00:35.626Z</time>
    </trkpt>
    <trkpt lat="56.45851" lon="60.76185">
        <ele>236.1</ele>
        <time>1970-01-01T08:00:36.626Z</time>
    </trkpt>
    <trkpt lat="56.458519" lon="60.761819">
        <ele>236.1</ele>
        <time>1970-01-01T08:00:37.626Z</time>
    </trkpt>
    <trkpt lat="56.458525" lon="60.761801">
        <ele>236.1</ele>
        <time>1970-01-01T08:00:38.626Z</time>
    </trkpt>
    <trkpt lat="56.458521" lon="60.761765">
        <ele>236.1</ele>
        <time>1970-01-01T08:00:53.626Z</time>
    </trkpt>
    <trkpt lat="56.458532" lon="60.761753">
        <ele>236.1</ele>
        <time>1970-01-01T08:00:54.626Z</time>
    </trkpt>
    <trkpt lat="56.458531" lon="60.761756">
        <ele>236.1</ele>
        <time>1970-01-01T08:00:55.626Z</time>
    </trkpt>
    <trkpt lat="56.458533" lon="60.761749">
        <ele>236.1</ele>
        <time>1970-01-01T08:00:56.626Z</time>
    </trkpt>
    <trkpt lat="56.458534" lon="60.76174">
        <ele>236.1</ele>
        <time>1970-01-01T08:00:57.626Z</time>
    </trkpt>
    <trkpt lat="56.458529" lon="60.761735">
        <ele>236.1</ele>
        <time>1970-01-01T08:00:58.626Z</time>
    </trkpt>
    <trkpt lat="56.45853" lon="60.761731">
        <ele>236.1</ele>
        <time>1970-01-01T08:00:59.626Z</time>
    </trkpt>
    <trkpt lat="56.45853" lon="60.761723">
        <ele>236.1</ele>
        <time>1970-01-01T08:01:00.626Z</time>
    </trkpt>
    <trkpt lat="56.458529" lon="60.76172">
        <ele>236.1</ele>
        <time>1970-01-01T08:01:01.626Z</time>
    </trkpt>
    <trkpt lat="56.458529" lon="60.761717">
        <ele>236.1</ele>
        <time>1970-01-01T08:01:02.626Z</time>
    </trkpt>
    <trkpt lat="56.458527" lon="60.761721">
        <ele>236.1</ele>
        <time>1970-01-01T08:01:03.626Z</time>
    </trkpt>
    <trkpt lat="56.458532" lon="60.761714">
        <ele>236.1</ele>
        <time>1970-01-01T08:01:04.626Z</time>
    </trkpt>
    <trkpt lat="56.458532" lon="60.761699">
        <ele>236.1</ele>
        <time>1970-01-01T08:01:05.626Z</time>
    </trkpt>
    <trkpt lat="56.458533" lon="60.761678">
        <ele>236.2</ele>
        <time>1970-01-01T08:01:06.626Z</time>
    </trkpt>
    <trkpt lat="56.458537" lon="60.761665">
        <ele>236.2</ele>
        <time>1970-01-01T08:01:07.626Z</time>
    </trkpt>
    <trkpt lat="56.458553" lon="60.761611">
        <ele>236.2</ele>
        <time>1970-01-01T08:01:08.626Z</time>
    </trkpt>
    <trkpt lat="56.458559" lon="60.76159">
        <ele>236.2</ele>
        <time>1970-01-01T08:01:09.626Z</time>
    </trkpt>
    <trkpt lat="56.458566" lon="60.761522">
        <ele>236.2</ele>
        <time>1970-01-01T08:01:10.626Z</time>
    </trkpt>
    <trkpt lat="56.458571" lon="60.761502">
        <ele>236.2</ele>
        <time>1970-01-01T08:01:11.626Z</time>
    </trkpt>
    <trkpt lat="56.458584" lon="60.76144">
        <ele>236.2</ele>
        <time>1970-01-01T08:01:12.626Z</time>
    </trkpt>
    <trkpt lat="56.458587" lon="60.761421">
        <ele>236.2</ele>
        <time>1970-01-01T08:01:13.626Z</time>
    </trkpt>
    <trkpt lat="56.458594" lon="60.761377">
        <ele>236.2</ele>
        <time>1970-01-01T08:01:14.626Z</time>
    </trkpt>
    <trkpt lat="56.458595" lon="60.761362">
        <ele>236.2</ele>
        <time>1970-01-01T08:01:15.626Z</time>
    </trkpt>
    <trkpt lat="56.458601" lon="60.761311">
        <ele>236.2</ele>
        <time>1970-01-01T08:01:16.626Z</time>
    </trkpt>
    <trkpt lat="56.458602" lon="60.761285">
        <ele>236.2</ele>
        <time>1970-01-01T08:01:17.626Z</time>
    </trkpt>
    <trkpt lat="56.458607" lon="60.761216">
        <ele>236.2</ele>
        <time>1970-01-01T08:01:18.626Z</time>
    </trkpt>
    <trkpt lat="56.458608" lon="60.761166">
        <ele>236.2</ele>
        <time>1970-01-01T08:01:19.626Z</time>
    </trkpt>
    <trkpt lat="56.458606" lon="60.761109">
        <ele>236.2</ele>
        <time>1970-01-01T08:01:20.626Z</time>
    </trkpt>
    <trkpt lat="56.458607" lon="60.761084">
        <ele>236.2</ele>
        <time>1970-01-01T08:01:21.626Z</time>
    </trkpt>
    <trkpt lat="56.458605" lon="60.761014">
        <ele>236.2</ele>
        <time>1970-01-01T08:01:22.626Z</time>
    </trkpt>
    <trkpt lat="56.458602" lon="60.760998">
        <ele>236.2</ele>
        <time>1970-01-01T08:01:23.626Z</time>
    </trkpt>
    <trkpt lat="56.458591" lon="60.76095">
        <ele>236.2</ele>
        <time>1970-01-01T08:01:24.626Z</time>
    </trkpt>
    <trkpt lat="56.458589" lon="60.760931">
        <ele>236.2</ele>
        <time>1970-01-01T08:01:25.626Z</time>
    </trkpt>
    <trkpt lat="56.458585" lon="60.760876">
        <ele>237.2</ele>
        <time>1970-01-01T08:01:26.626Z</time>
    </trkpt>
    <trkpt lat="56.458583" lon="60.760859">
        <ele>237.2</ele>
        <time>1970-01-01T08:01:27.626Z</time>
    </trkpt>
    <trkpt lat="56.458576" lon="60.7608">
        <ele>237.2</ele>
        <time>1970-01-01T08:01:28.626Z</time>
    </trkpt>
    <trkpt lat="56.458573" lon="60.760773">
        <ele>237.2</ele>
        <time>1970-01-01T08:01:29.626Z</time>
    </trkpt>
    <trkpt lat="56.458571" lon="60.760707">
        <ele>237.2</ele>
        <time>1970-01-01T08:01:31.626Z</time>
    </trkpt>
    <trkpt lat="56.458572" lon="60.76069">
        <ele>237.2</ele>
        <time>1970-01-01T08:01:32.626Z</time>
    </trkpt>
    <trkpt lat="56.458574" lon="60.760628">
        <ele>237.2</ele>
        <time>1970-01-01T08:01:33.626Z</time>
    </trkpt>
    <trkpt lat="56.458573" lon="60.760609">
        <ele>237.2</ele>
        <time>1970-01-01T08:01:34.626Z</time>
    </trkpt>
    <trkpt lat="56.458571" lon="60.760556">
        <ele>238.2</ele>
        <time>1970-01-01T08:01:35.626Z</time>
    </trkpt>
    <trkpt lat="56.45857" lon="60.760537">
        <ele>238.3</ele>
        <time>1970-01-01T08:01:36.626Z</time>
    </trkpt>
    <trkpt lat="56.458566" lon="60.76048">
        <ele>238.3</ele>
        <time>1970-01-01T08:01:37.626Z</time>
    </trkpt>
    <trkpt lat="56.458565" lon="60.760445">
        <ele>238.3</ele>
        <time>1970-01-01T08:01:38.626Z</time>
    </trkpt>
    <trkpt lat="56.458562" lon="60.760416">
        <ele>238.3</ele>
        <time>1970-01-01T08:01:39.626Z</time>
    </trkpt>
    <trkpt lat="56.458554" lon="60.760365">
        <ele>239.3</ele>
        <time>1970-01-01T08:01:40.626Z</time>
    </trkpt>
    <trkpt lat="56.458546" lon="60.760316">
        <ele>239.3</ele>
        <time>1970-01-01T08:01:41.626Z</time>
    </trkpt>
    <trkpt lat="56.458543" lon="60.760292">
        <ele>239.3</ele>
        <time>1970-01-01T08:01:42.626Z</time>
    </trkpt>
    <trkpt lat="56.458529" lon="60.760226">
        <ele>241.3</ele>
        <time>1970-01-01T08:01:43.626Z</time>
    </trkpt>
    <trkpt lat="56.458527" lon="60.76021">
        <ele>241.3</ele>
        <time>1970-01-01T08:01:44.626Z</time>
    </trkpt>
    <trkpt lat="56.458516" lon="60.760153">
        <ele>241.3</ele>
        <time>1970-01-01T08:01:45.626Z</time>
    </trkpt>
    <trkpt lat="56.458513" lon="60.760132">
        <ele>241.3</ele>
        <time>1970-01-01T08:01:46.626Z</time>
    </trkpt>
    <trkpt lat="56.458505" lon="60.760064">
        <ele>242.3</ele>
        <time>1970-01-01T08:01:47.626Z</time>
    </trkpt>
    <trkpt lat="56.458505" lon="60.760046">
        <ele>244.3</ele>
        <time>1970-01-01T08:01:48.626Z</time>
    </trkpt>
    <trkpt lat="56.458508" lon="60.759997">
        <ele>242.3</ele>
        <time>1970-01-01T08:01:49.626Z</time>
    </trkpt>
    <trkpt lat="56.458509" lon="60.759973">
        <ele>242.3</ele>
        <time>1970-01-01T08:01:50.626Z</time>
    </trkpt>
    <trkpt lat="56.458511" lon="60.759906">
        <ele>242.3</ele>
        <time>1970-01-01T08:01:51.626Z</time>
    </trkpt>
    <trkpt lat="56.458507" lon="60.759856">
        <ele>243.3</ele>
        <time>1970-01-01T08:01:52.626Z</time>
    </trkpt>
    <trkpt lat="56.458502" lon="60.759788">
        <ele>246.3</ele>
        <time>1970-01-01T08:01:53.626Z</time>
    </trkpt>
    <trkpt lat="56.458499" lon="60.759725">
        <ele>246.3</ele>
        <time>1970-01-01T08:01:54.626Z</time>
    </trkpt>
    <trkpt lat="56.4585" lon="60.759674">
        <ele>247.3</ele>
        <time>1970-01-01T08:01:55.626Z</time>
    </trkpt>
    <trkpt lat="56.4585" lon="60.759621">
        <ele>247.3</ele>
        <time>1970-01-01T08:01:56.626Z</time>
    </trkpt>
    <trkpt lat="56.458495" lon="60.759573">
        <ele>247.3</ele>
        <time>1970-01-01T08:01:57.626Z</time>
    </trkpt>
    <trkpt lat="56.458487" lon="60.759518">
        <ele>248.3</ele>
        <time>1970-01-01T08:01:58.626Z</time>
    </trkpt>
    <trkpt lat="56.458481" lon="60.759468">
        <ele>248.3</ele>
        <time>1970-01-01T08:01:59.626Z</time>
    </trkpt>
    <trkpt lat="56.458484" lon="60.759409">
        <ele>248.3</ele>
        <time>1970-01-01T08:02:00.626Z</time>
    </trkpt>
    <trkpt lat="56.458484" lon="60.759381">
        <ele>248.3</ele>
        <time>1970-01-01T08:02:01.626Z</time>
    </trkpt>
    <trkpt lat="56.458488" lon="60.759312">
        <ele>249.3</ele>
        <time>1970-01-01T08:02:02.626Z</time>
    </trkpt>
    <trkpt lat="56.458495" lon="60.759263">
        <ele>249.3</ele>
        <time>1970-01-01T08:02:03.626Z</time>
    </trkpt>
    <trkpt lat="56.458497" lon="60.759242">
        <ele>249.3</ele>
        <time>1970-01-01T08:02:04.626Z</time>
    </trkpt>
    <trkpt lat="56.458498" lon="60.759193">
        <ele>249.4</ele>
        <time>1970-01-01T08:02:05.626Z</time>
    </trkpt>
    <trkpt lat="56.458506" lon="60.759139">
        <ele>249.4</ele>
        <time>1970-01-01T08:02:06.626Z</time>
    </trkpt>
    <trkpt lat="56.458515" lon="60.759092">
        <ele>247.4</ele>
        <time>1970-01-01T08:02:07.626Z</time>
    </trkpt>
    <trkpt lat="56.458522" lon="60.759023">
        <ele>248.4</ele>
        <time>1970-01-01T08:02:08.626Z</time>
    </trkpt>
    <trkpt lat="56.458527" lon="60.758996">
        <ele>248.4</ele>
        <time>1970-01-01T08:02:09.626Z</time>
    </trkpt>
    <trkpt lat="56.458532" lon="60.758929">
        <ele>248.4</ele>
        <time>1970-01-01T08:02:10.626Z</time>
    </trkpt>
    <trkpt lat="56.458537" lon="60.758874">
        <ele>248.4</ele>
        <time>1970-01-01T08:02:11.626Z</time>
    </trkpt>
    <trkpt lat="56.458544" lon="60.75881">
        <ele>248.4</ele>
        <time>1970-01-01T08:02:12.626Z</time>
    </trkpt>
    <trkpt lat="56.45854" lon="60.758754">
        <ele>248.4</ele>
        <time>1970-01-01T08:02:13.626Z</time>
    </trkpt>
    <trkpt lat="56.458533" lon="60.758702">
        <ele>248.4</ele>
        <time>1970-01-01T08:02:14.626Z</time>
    </trkpt>
    <trkpt lat="56.458532" lon="60.758631">
        <ele>248.4</ele>
        <time>1970-01-01T08:02:15.626Z</time>
    </trkpt>
    <trkpt lat="56.458525" lon="60.75858">
        <ele>248.4</ele>
        <time>1970-01-01T08:02:16.626Z</time>
    </trkpt>
    <trkpt lat="56.458511" lon="60.758526">
        <ele>248.4</ele>
        <time>1970-01-01T08:02:17.626Z</time>
    </trkpt>
    <trkpt lat="56.458509" lon="60.758499">
        <ele>248.4</ele>
        <time>1970-01-01T08:02:18.626Z</time>
    </trkpt>
    <trkpt lat="56.458495" lon="60.758442">
        <ele>250.4</ele>
        <time>1970-01-01T08:02:19.626Z</time>
    </trkpt>
    <trkpt lat="56.458487" lon="60.758386">
        <ele>250.4</ele>
        <time>1970-01-01T08:02:20.626Z</time>
    </trkpt>
    <trkpt lat="56.458481" lon="60.75836">
        <ele>250.4</ele>
        <time>1970-01-01T08:02:21.626Z</time>
    </trkpt>
    <trkpt lat="56.458475" lon="60.758303">
        <ele>250.4</ele>
        <time>1970-01-01T08:02:22.626Z</time>
    </trkpt>
    <trkpt lat="56.458476" lon="60.75828">
        <ele>250.4</ele>
        <time>1970-01-01T08:02:23.626Z</time>
    </trkpt>
    <trkpt lat="56.458471" lon="60.758213">
        <ele>250.4</ele>
        <time>1970-01-01T08:02:24.626Z</time>
    </trkpt>
    <trkpt lat="56.45847" lon="60.758195">
        <ele>250.4</ele>
        <time>1970-01-01T08:02:25.626Z</time>
    </trkpt>
    <trkpt lat="56.458474" lon="60.758144">
        <ele>250.4</ele>
        <time>1970-01-01T08:02:26.626Z</time>
    </trkpt>
    <trkpt lat="56.458476" lon="60.758113">
        <ele>250.4</ele>
        <time>1970-01-01T08:02:27.626Z</time>
    </trkpt>
    <trkpt lat="56.458468" lon="60.75804">
        <ele>250.4</ele>
        <time>1970-01-01T08:02:28.626Z</time>
    </trkpt>
    <trkpt lat="56.458473" lon="60.75802">
        <ele>250.4</ele>
        <time>1970-01-01T08:02:29.626Z</time>
    </trkpt>
    <trkpt lat="56.458466" lon="60.757964">
        <ele>250.4</ele>
        <time>1970-01-01T08:02:30.626Z</time>
    </trkpt>
    <trkpt lat="56.458465" lon="60.757903">
        <ele>250.4</ele>
        <time>1970-01-01T08:02:31.626Z</time>
    </trkpt>
    <trkpt lat="56.458463" lon="60.757876">
        <ele>250.4</ele>
        <time>1970-01-01T08:02:32.626Z</time>
    </trkpt>
    <trkpt lat="56.458454" lon="60.757808">
        <ele>250.4</ele>
        <time>1970-01-01T08:02:33.626Z</time>
    </trkpt>
    <trkpt lat="56.458457" lon="60.757786">
        <ele>250.5</ele>
        <time>1970-01-01T08:02:34.626Z</time>
    </trkpt>
    <trkpt lat="56.458463" lon="60.75773">
        <ele>250.5</ele>
        <time>1970-01-01T08:02:35.626Z</time>
    </trkpt>
    <trkpt lat="56.458462" lon="60.757714">
        <ele>250.5</ele>
        <time>1970-01-01T08:02:36.626Z</time>
    </trkpt>
    <trkpt lat="56.458455" lon="60.757653">
        <ele>249.5</ele>
        <time>1970-01-01T08:02:37.626Z</time>
    </trkpt>
    <trkpt lat="56.45846" lon="60.75759">
        <ele>249.5</ele>
        <time>1970-01-01T08:02:38.626Z</time>
    </trkpt>
    <trkpt lat="56.458455" lon="60.757571">
        <ele>249.5</ele>
        <time>1970-01-01T08:02:39.626Z</time>
    </trkpt>
    <trkpt lat="56.458448" lon="60.757507">
        <ele>249.5</ele>
        <time>1970-01-01T08:02:40.626Z</time>
    </trkpt>
    <trkpt lat="56.458444" lon="60.757487">
        <ele>249.5</ele>
        <time>1970-01-01T08:02:41.626Z</time>
    </trkpt>
    <trkpt lat="56.458437" lon="60.757432">
        <ele>249.5</ele>
        <time>1970-01-01T08:02:42.626Z</time>
    </trkpt>
    <trkpt lat="56.458432" lon="60.75741">
        <ele>249.5</ele>
        <time>1970-01-01T08:02:43.626Z</time>
    </trkpt>
    <trkpt lat="56.458417" lon="60.757364">
        <ele>249.5</ele>
        <time>1970-01-01T08:02:44.626Z</time>
    </trkpt>
    <trkpt lat="56.458407" lon="60.757316">
        <ele>251.5</ele>
        <time>1970-01-01T08:02:45.626Z</time>
    </trkpt>
    <trkpt lat="56.45841" lon="60.757288">
        <ele>250.5</ele>
        <time>1970-01-01T08:02:46.626Z</time>
    </trkpt>
    <trkpt lat="56.458412" lon="60.757213">
        <ele>250.5</ele>
        <time>1970-01-01T08:02:47.626Z</time>
    </trkpt>
    <trkpt lat="56.458413" lon="60.757162">
        <ele>248.5</ele>
        <time>1970-01-01T08:02:48.626Z</time>
    </trkpt>
    <trkpt lat="56.45841" lon="60.757104">
        <ele>249.5</ele>
        <time>1970-01-01T08:02:49.626Z</time>
    </trkpt>
    <trkpt lat="56.458407" lon="60.757077">
        <ele>249.5</ele>
        <time>1970-01-01T08:02:50.626Z</time>
    </trkpt>
    <trkpt lat="56.458401" lon="60.757013">
        <ele>249.5</ele>
        <time>1970-01-01T08:02:51.626Z</time>
    </trkpt>
    <trkpt lat="56.458396" lon="60.756956">
        <ele>248.5</ele>
        <time>1970-01-01T08:02:52.626Z</time>
    </trkpt>
    <trkpt lat="56.458391" lon="60.756926">
        <ele>248.5</ele>
        <time>1970-01-01T08:02:53.626Z</time>
    </trkpt>
    <trkpt lat="56.458371" lon="60.756857">
        <ele>248.5</ele>
        <time>1970-01-01T08:02:54.626Z</time>
    </trkpt>
    <trkpt lat="56.458364" lon="60.756837">
        <ele>248.5</ele>
        <time>1970-01-01T08:02:55.626Z</time>
    </trkpt>
    <trkpt lat="56.458344" lon="60.756785">
        <ele>247.5</ele>
        <time>1970-01-01T08:02:56.626Z</time>
    </trkpt>
    <trkpt lat="56.458335" lon="60.75677">
        <ele>247.5</ele>
        <time>1970-01-01T08:02:57.626Z</time>
    </trkpt>
    <trkpt lat="56.458306" lon="60.756722">
        <ele>249.5</ele>
        <time>1970-01-01T08:02:58.626Z</time>
    </trkpt>
    <trkpt lat="56.458296" lon="60.756711">
        <ele>249.5</ele>
        <time>1970-01-01T08:02:59.626Z</time>
    </trkpt>
    <trkpt lat="56.458271" lon="60.756677">
        <ele>249.5</ele>
        <time>1970-01-01T08:03:00.626Z</time>
    </trkpt>
    <trkpt lat="56.458251" lon="60.756632">
        <ele>249.5</ele>
        <time>1970-01-01T08:03:01.626Z</time>
    </trkpt>
    <trkpt lat="56.458235" lon="60.756581">
        <ele>248.5</ele>
        <time>1970-01-01T08:03:02.626Z</time>
    </trkpt>
    <trkpt lat="56.458236" lon="60.756518">
        <ele>248.6</ele>
        <time>1970-01-01T08:03:03.626Z</time>
    </trkpt>
    <trkpt lat="56.458218" lon="60.756418">
        <ele>248.6</ele>
        <time>1970-01-01T08:03:04.626Z</time>
    </trkpt>
    <trkpt lat="56.458215" lon="60.756402">
        <ele>248.6</ele>
        <time>1970-01-01T08:03:05.626Z</time>
    </trkpt>
    <trkpt lat="56.458208" lon="60.756344">
        <ele>248.6</ele>
        <time>1970-01-01T08:03:06.626Z</time>
    </trkpt>
    <trkpt lat="56.458213" lon="60.75629">
        <ele>248.6</ele>
        <time>1970-01-01T08:03:07.626Z</time>
    </trkpt>
    <trkpt lat="56.458211" lon="60.756269">
        <ele>247.6</ele>
        <time>1970-01-01T08:03:08.626Z</time>
    </trkpt>
    <trkpt lat="56.458214" lon="60.756211">
        <ele>247.6</ele>
        <time>1970-01-01T08:03:09.626Z</time>
    </trkpt>
    <trkpt lat="56.458214" lon="60.756162">
        <ele>247.6</ele>
        <time>1970-01-01T08:03:10.626Z</time>
    </trkpt>
    <trkpt lat="56.458213" lon="60.756145">
        <ele>247.6</ele>
        <time>1970-01-01T08:03:11.626Z</time>
    </trkpt>
    <trkpt lat="56.458215" lon="60.756084">
        <ele>245.6</ele>
        <time>1970-01-01T08:03:12.626Z</time>
    </trkpt>
    <trkpt lat="56.458218" lon="60.756063">
        <ele>245.6</ele>
        <time>1970-01-01T08:03:13.626Z</time>
    </trkpt>
    <trkpt lat="56.458216" lon="60.756009">
        <ele>245.6</ele>
        <time>1970-01-01T08:03:14.626Z</time>
    </trkpt>
    <trkpt lat="56.458215" lon="60.755987">
        <ele>245.6</ele>
        <time>1970-01-01T08:03:15.626Z</time>
    </trkpt>
    <trkpt lat="56.458221" lon="60.75592">
        <ele>244.6</ele>
        <time>1970-01-01T08:03:16.626Z</time>
    </trkpt>
    <trkpt lat="56.458223" lon="60.755867">
        <ele>243.6</ele>
        <time>1970-01-01T08:03:17.626Z</time>
    </trkpt>
    <trkpt lat="56.458218" lon="60.755844">
        <ele>244.6</ele>
        <time>1970-01-01T08:03:18.626Z</time>
    </trkpt>
    <trkpt lat="56.458204" lon="60.755787">
        <ele>244.6</ele>
        <time>1970-01-01T08:03:19.626Z</time>
    </trkpt>
    <trkpt lat="56.458202" lon="60.755763">
        <ele>243.6</ele>
        <time>1970-01-01T08:03:20.626Z</time>
    </trkpt>
    <trkpt lat="56.458193" lon="60.755699">
        <ele>243.6</ele>
        <time>1970-01-01T08:03:21.626Z</time>
    </trkpt>
    <trkpt lat="56.458192" lon="60.755681">
        <ele>243.6</ele>
        <time>1970-01-01T08:03:22.626Z</time>
    </trkpt>
    <trkpt lat="56.458191" lon="60.755616">
        <ele>243.6</ele>
        <time>1970-01-01T08:03:23.626Z</time>
    </trkpt>
    <trkpt lat="56.458191" lon="60.755563">
        <ele>242.6</ele>
        <time>1970-01-01T08:03:24.626Z</time>
    </trkpt>
    <trkpt lat="56.45819" lon="60.755539">
        <ele>242.6</ele>
        <time>1970-01-01T08:03:25.626Z</time>
    </trkpt>
    <trkpt lat="56.458188" lon="60.755469">
        <ele>242.6</ele>
        <time>1970-01-01T08:03:26.626Z</time>
    </trkpt>
    <trkpt lat="56.458183" lon="60.755448">
        <ele>242.6</ele>
        <time>1970-01-01T08:03:27.626Z</time>
    </trkpt>
    <trkpt lat="56.458177" lon="60.755381">
        <ele>242.6</ele>
        <time>1970-01-01T08:03:28.626Z</time>
    </trkpt>
    <trkpt lat="56.458176" lon="60.755329">
        <ele>242.6</ele>
        <time>1970-01-01T08:03:29.626Z</time>
    </trkpt>
    <trkpt lat="56.458177" lon="60.755274">
        <ele>242.6</ele>
        <time>1970-01-01T08:03:30.626Z</time>
    </trkpt>
    <trkpt lat="56.458171" lon="60.75522">
        <ele>242.7</ele>
        <time>1970-01-01T08:03:31.626Z</time>
    </trkpt>
    <trkpt lat="56.45817" lon="60.755169">
        <ele>242.7</ele>
        <time>1970-01-01T08:03:32.626Z</time>
    </trkpt>
    <trkpt lat="56.458166" lon="60.755148">
        <ele>242.7</ele>
        <time>1970-01-01T08:03:33.626Z</time>
    </trkpt>
    <trkpt lat="56.458156" lon="60.755095">
        <ele>242.7</ele>
        <time>1970-01-01T08:03:34.626Z</time>
    </trkpt>
    <trkpt lat="56.458154" lon="60.755072">
        <ele>241.7</ele>
        <time>1970-01-01T08:03:35.626Z</time>
    </trkpt>
    <trkpt lat="56.45815" lon="60.755004">
        <ele>241.7</ele>
        <time>1970-01-01T08:03:37.626Z</time>
    </trkpt>
    <trkpt lat="56.458144" lon="60.754951">
        <ele>241.7</ele>
        <time>1970-01-01T08:03:38.626Z</time>
    </trkpt>
    <trkpt lat="56.458139" lon="60.754897">
        <ele>242.7</ele>
        <time>1970-01-01T08:03:39.626Z</time>
    </trkpt>
    <trkpt lat="56.458139" lon="60.75487">
        <ele>242.7</ele>
        <time>1970-01-01T08:03:40.626Z</time>
    </trkpt>
    <trkpt lat="56.458137" lon="60.754802">
        <ele>242.7</ele>
        <time>1970-01-01T08:03:41.626Z</time>
    </trkpt>
    <trkpt lat="56.458138" lon="60.754779">
        <ele>242.7</ele>
        <time>1970-01-01T08:03:42.626Z</time>
    </trkpt>
    <trkpt lat="56.458135" lon="60.754711">
        <ele>242.7</ele>
        <time>1970-01-01T08:03:43.626Z</time>
    </trkpt>
    <trkpt lat="56.458136" lon="60.754658">
        <ele>242.7</ele>
        <time>1970-01-01T08:03:44.626Z</time>
    </trkpt>
    <trkpt lat="56.458136" lon="60.754602">
        <ele>242.7</ele>
        <time>1970-01-01T08:03:45.626Z</time>
    </trkpt>
    <trkpt lat="56.458144" lon="60.754547">
        <ele>243.7</ele>
        <time>1970-01-01T08:03:46.626Z</time>
    </trkpt>
    <trkpt lat="56.458147" lon="60.754486">
        <ele>243.7</ele>
        <time>1970-01-01T08:03:47.626Z</time>
    </trkpt>
    <trkpt lat="56.458144" lon="60.754431">
        <ele>243.7</ele>
        <time>1970-01-01T08:03:48.626Z</time>
    </trkpt>
    <trkpt lat="56.458146" lon="60.754375">
        <ele>244.7</ele>
        <time>1970-01-01T08:03:49.626Z</time>
    </trkpt>
    <trkpt lat="56.458143" lon="60.754355">
        <ele>244.7</ele>
        <time>1970-01-01T08:03:50.626Z</time>
    </trkpt>
    <trkpt lat="56.458136" lon="60.754296">
        <ele>244.7</ele>
        <time>1970-01-01T08:03:51.626Z</time>
    </trkpt>
    <trkpt lat="56.458134" lon="60.75424">
        <ele>244.7</ele>
        <time>1970-01-01T08:03:52.626Z</time>
    </trkpt>
    <trkpt lat="56.458136" lon="60.754181">
        <ele>245.7</ele>
        <time>1970-01-01T08:03:53.626Z</time>
    </trkpt>
    <trkpt lat="56.458139" lon="60.754126">
        <ele>245.7</ele>
        <time>1970-01-01T08:03:54.626Z</time>
    </trkpt>
    <trkpt lat="56.458137" lon="60.754059">
        <ele>245.7</ele>
        <time>1970-01-01T08:03:55.626Z</time>
    </trkpt>
    <trkpt lat="56.458125" lon="60.754001">
        <ele>246.7</ele>
        <time>1970-01-01T08:03:56.626Z</time>
    </trkpt>
    <trkpt lat="56.458127" lon="60.753951">
        <ele>246.7</ele>
        <time>1970-01-01T08:03:57.626Z</time>
    </trkpt>
    <trkpt lat="56.458122" lon="60.753894">
        <ele>246.7</ele>
        <time>1970-01-01T08:03:58.626Z</time>
    </trkpt>
    <trkpt lat="56.458126" lon="60.753841">
        <ele>247.7</ele>
        <time>1970-01-01T08:03:59.626Z</time>
    </trkpt>
    <trkpt lat="56.458123" lon="60.753786">
        <ele>247.7</ele>
        <time>1970-01-01T08:04:00.626Z</time>
    </trkpt>
    <trkpt lat="56.458129" lon="60.75372">
        <ele>246.8</ele>
        <time>1970-01-01T08:04:01.626Z</time>
    </trkpt>
    <trkpt lat="56.458129" lon="60.753663">
        <ele>247.8</ele>
        <time>1970-01-01T08:04:02.626Z</time>
    </trkpt>
    <trkpt lat="56.458128" lon="60.75361">
        <ele>247.8</ele>
        <time>1970-01-01T08:04:03.626Z</time>
    </trkpt>
    <trkpt lat="56.458129" lon="60.753586">
        <ele>247.8</ele>
        <time>1970-01-01T08:04:04.626Z</time>
    </trkpt>
    <trkpt lat="56.458138" lon="60.753521">
        <ele>248.8</ele>
        <time>1970-01-01T08:04:05.626Z</time>
    </trkpt>
    <trkpt lat="56.458144" lon="60.753455">
        <ele>248.8</ele>
        <time>1970-01-01T08:04:06.626Z</time>
    </trkpt>
    <trkpt lat="56.458147" lon="60.753388">
        <ele>248.8</ele>
        <time>1970-01-01T08:04:07.626Z</time>
    </trkpt>
    <trkpt lat="56.458153" lon="60.753324">
        <ele>248.8</ele>
        <time>1970-01-01T08:04:08.626Z</time>
    </trkpt>
    <trkpt lat="56.458158" lon="60.753296">
        <ele>248.8</ele>
        <time>1970-01-01T08:04:09.626Z</time>
    </trkpt>
    <trkpt lat="56.458155" lon="60.753226">
        <ele>248.8</ele>
        <time>1970-01-01T08:04:10.626Z</time>
    </trkpt>
    <trkpt lat="56.458156" lon="60.753204">
        <ele>248.8</ele>
        <time>1970-01-01T08:04:11.626Z</time>
    </trkpt>
    <trkpt lat="56.458155" lon="60.753135">
        <ele>248.8</ele>
        <time>1970-01-01T08:04:12.626Z</time>
    </trkpt>
    <trkpt lat="56.458154" lon="60.753077">
        <ele>248.8</ele>
        <time>1970-01-01T08:04:13.626Z</time>
    </trkpt>
    <trkpt lat="56.458159" lon="60.753022">
        <ele>248.8</ele>
        <time>1970-01-01T08:04:14.626Z</time>
    </trkpt>
    <trkpt lat="56.45816" lon="60.752969">
        <ele>249.8</ele>
        <time>1970-01-01T08:04:15.626Z</time>
    </trkpt>
    <trkpt lat="56.458154" lon="60.752946">
        <ele>249.8</ele>
        <time>1970-01-01T08:04:16.626Z</time>
    </trkpt>
    <trkpt lat="56.458153" lon="60.752878">
        <ele>249.8</ele>
        <time>1970-01-01T08:04:17.626Z</time>
    </trkpt>
    <trkpt lat="56.458145" lon="60.752825">
        <ele>249.8</ele>
        <time>1970-01-01T08:04:18.626Z</time>
    </trkpt>
    <trkpt lat="56.45814" lon="60.752804">
        <ele>249.8</ele>
        <time>1970-01-01T08:04:19.626Z</time>
    </trkpt>
    <trkpt lat="56.458128" lon="60.752736">
        <ele>249.8</ele>
        <time>1970-01-01T08:04:20.626Z</time>
    </trkpt>
    <trkpt lat="56.458126" lon="60.752717">
        <ele>251.8</ele>
        <time>1970-01-01T08:04:21.626Z</time>
    </trkpt>
    <trkpt lat="56.458129" lon="60.752654">
        <ele>250.8</ele>
        <time>1970-01-01T08:04:22.626Z</time>
    </trkpt>
    <trkpt lat="56.458123" lon="60.752634">
        <ele>251.8</ele>
        <time>1970-01-01T08:04:23.626Z</time>
    </trkpt>
    <trkpt lat="56.458114" lon="60.752575">
        <ele>251.8</ele>
        <time>1970-01-01T08:04:24.626Z</time>
    </trkpt>
    <trkpt lat="56.458113" lon="60.752554">
        <ele>251.8</ele>
        <time>1970-01-01T08:04:25.626Z</time>
    </trkpt>
    <trkpt lat="56.458109" lon="60.752495">
        <ele>251.8</ele>
        <time>1970-01-01T08:04:26.626Z</time>
    </trkpt>
    <trkpt lat="56.458108" lon="60.75247">
        <ele>251.8</ele>
        <time>1970-01-01T08:04:27.626Z</time>
    </trkpt>
    <trkpt lat="56.458101" lon="60.752402">
        <ele>251.8</ele>
        <time>1970-01-01T08:04:28.626Z</time>
    </trkpt>
    <trkpt lat="56.458103" lon="60.752351">
        <ele>251.8</ele>
        <time>1970-01-01T08:04:29.626Z</time>
    </trkpt>
    <trkpt lat="56.458104" lon="60.752299">
        <ele>252.9</ele>
        <time>1970-01-01T08:04:30.626Z</time>
    </trkpt>
    <trkpt lat="56.458103" lon="60.752265">
        <ele>252.9</ele>
        <time>1970-01-01T08:04:31.626Z</time>
    </trkpt>
    <trkpt lat="56.458092" lon="60.752186">
        <ele>252.9</ele>
        <time>1970-01-01T08:04:32.626Z</time>
    </trkpt>
    <trkpt lat="56.458081" lon="60.752138">
        <ele>252.9</ele>
        <time>1970-01-01T08:04:33.626Z</time>
    </trkpt>
    <trkpt lat="56.458082" lon="60.752072">
        <ele>252.9</ele>
        <time>1970-01-01T08:04:34.626Z</time>
    </trkpt>
    <trkpt lat="56.458079" lon="60.752051">
        <ele>252.9</ele>
        <time>1970-01-01T08:04:35.626Z</time>
    </trkpt>
    <trkpt lat="56.458072" lon="60.751991">
        <ele>252.9</ele>
        <time>1970-01-01T08:04:36.626Z</time>
    </trkpt>
    <trkpt lat="56.458067" lon="60.75194">
        <ele>252.9</ele>
        <time>1970-01-01T08:04:37.626Z</time>
    </trkpt>
    <trkpt lat="56.458059" lon="60.75189">
        <ele>252.9</ele>
        <time>1970-01-01T08:04:38.626Z</time>
    </trkpt>
    <trkpt lat="56.458041" lon="60.751835">
        <ele>252.9</ele>
        <time>1970-01-01T08:04:39.626Z</time>
    </trkpt>
    <trkpt lat="56.458031" lon="60.751779">
        <ele>253.9</ele>
        <time>1970-01-01T08:04:40.626Z</time>
    </trkpt>
    <trkpt lat="56.45802" lon="60.751682">
        <ele>253.9</ele>
        <time>1970-01-01T08:04:41.626Z</time>
    </trkpt>
    <trkpt lat="56.458015" lon="60.751609">
        <ele>252.9</ele>
        <time>1970-01-01T08:04:42.626Z</time>
    </trkpt>
    <trkpt lat="56.458018" lon="60.751541">
        <ele>252.9</ele>
        <time>1970-01-01T08:04:43.626Z</time>
    </trkpt>
    <trkpt lat="56.458016" lon="60.751489">
        <ele>252.9</ele>
        <time>1970-01-01T08:04:44.626Z</time>
    </trkpt>
    <trkpt lat="56.458015" lon="60.751431">
        <ele>251.9</ele>
        <time>1970-01-01T08:04:45.626Z</time>
    </trkpt>
    <trkpt lat="56.458002" lon="60.751366">
        <ele>251.9</ele>
        <time>1970-01-01T08:04:46.626Z</time>
    </trkpt>
    <trkpt lat="56.457989" lon="60.751303">
        <ele>250.9</ele>
        <time>1970-01-01T08:04:47.626Z</time>
    </trkpt>
    <trkpt lat="56.457977" lon="60.75126">
        <ele>250.9</ele>
        <time>1970-01-01T08:04:48.626Z</time>
    </trkpt>
    <trkpt lat="56.457968" lon="60.7512">
        <ele>250.9</ele>
        <time>1970-01-01T08:04:49.626Z</time>
    </trkpt>
    <trkpt lat="56.45795" lon="60.751153">
        <ele>250.9</ele>
        <time>1970-01-01T08:04:50.626Z</time>
    </trkpt>
    <trkpt lat="56.45794" lon="60.751128">
        <ele>250.9</ele>
        <time>1970-01-01T08:04:51.626Z</time>
    </trkpt>
    <trkpt lat="56.457921" lon="60.751065">
        <ele>250.9</ele>
        <time>1970-01-01T08:04:52.626Z</time>
    </trkpt>
    <trkpt lat="56.457911" lon="60.751018">
        <ele>250.9</ele>
        <time>1970-01-01T08:04:53.626Z</time>
    </trkpt>
    <trkpt lat="56.457899" lon="60.750973">
        <ele>250.9</ele>
        <time>1970-01-01T08:04:54.626Z</time>
    </trkpt>
    <trkpt lat="56.457892" lon="60.750949">
        <ele>250.9</ele>
        <time>1970-01-01T08:04:55.626Z</time>
    </trkpt>
    <trkpt lat="56.457881" lon="60.750886">
        <ele>250.9</ele>
        <time>1970-01-01T08:04:56.626Z</time>
    </trkpt>
    <trkpt lat="56.457874" lon="60.750863">
        <ele>250.9</ele>
        <time>1970-01-01T08:04:57.626Z</time>
    </trkpt>
    <trkpt lat="56.457861" lon="60.750833">
        <ele>250.9</ele>
        <time>1970-01-01T08:04:58.626Z</time>
    </trkpt>
    <trkpt lat="56.457844" lon="60.750788">
        <ele>251.0</ele>
        <time>1970-01-01T08:04:59.626Z</time>
    </trkpt>
    <trkpt lat="56.45784" lon="60.750773">
        <ele>251.0</ele>
        <time>1970-01-01T08:05:00.626Z</time>
    </trkpt>
    <trkpt lat="56.457819" lon="60.750727">
        <ele>251.0</ele>
        <time>1970-01-01T08:05:01.626Z</time>
    </trkpt>
    <trkpt lat="56.457813" lon="60.750707">
        <ele>251.0</ele>
        <time>1970-01-01T08:05:02.626Z</time>
    </trkpt>
    <trkpt lat="56.457799" lon="60.750657">
        <ele>251.0</ele>
        <time>1970-01-01T08:05:03.626Z</time>
    </trkpt>
    <trkpt lat="56.457792" lon="60.750641">
        <ele>251.0</ele>
        <time>1970-01-01T08:05:04.626Z</time>
    </trkpt>
    <trkpt lat="56.457777" lon="60.750591">
        <ele>251.0</ele>
        <time>1970-01-01T08:05:05.626Z</time>
    </trkpt>
    <trkpt lat="56.45777" lon="60.750576">
        <ele>251.0</ele>
        <time>1970-01-01T08:05:06.626Z</time>
    </trkpt>
    <trkpt lat="56.457755" lon="60.750525">
        <ele>251.0</ele>
        <time>1970-01-01T08:05:07.626Z</time>
    </trkpt>
    <trkpt lat="56.457743" lon="60.750502">
        <ele>251.0</ele>
        <time>1970-01-01T08:05:08.626Z</time>
    </trkpt>
    <trkpt lat="56.457736" lon="60.750469">
        <ele>251.0</ele>
        <time>1970-01-01T08:05:09.626Z</time>
    </trkpt>
    <trkpt lat="56.457725" lon="60.750418">
        <ele>252.0</ele>
        <time>1970-01-01T08:05:10.626Z</time>
    </trkpt>
    <trkpt lat="56.457713" lon="60.75037">
        <ele>252.0</ele>
        <time>1970-01-01T08:05:11.626Z</time>
    </trkpt>
    <trkpt lat="56.457703" lon="60.750324">
        <ele>252.0</ele>
        <time>1970-01-01T08:05:12.626Z</time>
    </trkpt>
    <trkpt lat="56.457701" lon="60.750298">
        <ele>252.0</ele>
        <time>1970-01-01T08:05:13.626Z</time>
    </trkpt>
    <trkpt lat="56.4577" lon="60.75023">
        <ele>253.0</ele>
        <time>1970-01-01T08:05:14.626Z</time>
    </trkpt>
    <trkpt lat="56.457702" lon="60.750177">
        <ele>253.0</ele>
        <time>1970-01-01T08:05:15.626Z</time>
    </trkpt>
    <trkpt lat="56.457697" lon="60.750113">
        <ele>253.0</ele>
        <time>1970-01-01T08:05:16.626Z</time>
    </trkpt>
    <trkpt lat="56.457691" lon="60.75006">
        <ele>253.0</ele>
        <time>1970-01-01T08:05:17.626Z</time>
    </trkpt>
    <trkpt lat="56.45769" lon="60.750034">
        <ele>253.0</ele>
        <time>1970-01-01T08:05:18.626Z</time>
    </trkpt>
    <trkpt lat="56.457692" lon="60.74996">
        <ele>253.0</ele>
        <time>1970-01-01T08:05:19.626Z</time>
    </trkpt>
    <trkpt lat="56.45769" lon="60.749936">
        <ele>253.0</ele>
        <time>1970-01-01T08:05:20.626Z</time>
    </trkpt>
    <trkpt lat="56.457683" lon="60.749866">
        <ele>254.0</ele>
        <time>1970-01-01T08:05:21.626Z</time>
    </trkpt>
    <trkpt lat="56.457685" lon="60.74981">
        <ele>254.0</ele>
        <time>1970-01-01T08:05:22.626Z</time>
    </trkpt>
    <trkpt lat="56.457678" lon="60.749752">
        <ele>254.0</ele>
        <time>1970-01-01T08:05:23.626Z</time>
    </trkpt>
    <trkpt lat="56.457681" lon="60.749733">
        <ele>254.0</ele>
        <time>1970-01-01T08:05:24.626Z</time>
    </trkpt>
    <trkpt lat="56.45768" lon="60.749676">
        <ele>254.0</ele>
        <time>1970-01-01T08:05:25.626Z</time>
    </trkpt>
    <trkpt lat="56.457681" lon="60.749634">
        <ele>254.0</ele>
        <time>1970-01-01T08:05:27.626Z</time>
    </trkpt>
    <trkpt lat="56.457674" lon="60.749593">
        <ele>254.0</ele>
        <time>1970-01-01T08:05:28.626Z</time>
    </trkpt>
    <trkpt lat="56.457673" lon="60.74957">
        <ele>255.1</ele>
        <time>1970-01-01T08:05:29.626Z</time>
    </trkpt>
    <trkpt lat="56.457662" lon="60.749505">
        <ele>255.1</ele>
        <time>1970-01-01T08:05:30.626Z</time>
    </trkpt>
    <trkpt lat="56.457661" lon="60.749449">
        <ele>255.1</ele>
        <time>1970-01-01T08:05:31.626Z</time>
    </trkpt>
    <trkpt lat="56.457659" lon="60.749426">
        <ele>255.1</ele>
        <time>1970-01-01T08:05:32.626Z</time>
    </trkpt>
    <trkpt lat="56.457651" lon="60.749368">
        <ele>256.1</ele>
        <time>1970-01-01T08:05:33.626Z</time>
    </trkpt>
    <trkpt lat="56.457648" lon="60.749341">
        <ele>256.1</ele>
        <time>1970-01-01T08:05:34.626Z</time>
    </trkpt>
    <trkpt lat="56.457644" lon="60.749295">
        <ele>256.1</ele>
        <time>1970-01-01T08:05:35.626Z</time>
    </trkpt>
    <trkpt lat="56.457633" lon="60.749207">
        <ele>257.1</ele>
        <time>1970-01-01T08:05:36.626Z</time>
    </trkpt>
    <trkpt lat="56.457632" lon="60.749186">
        <ele>257.1</ele>
        <time>1970-01-01T08:05:37.626Z</time>
    </trkpt>
    <trkpt lat="56.457628" lon="60.749123">
        <ele>257.1</ele>
        <time>1970-01-01T08:05:38.626Z</time>
    </trkpt>
    <trkpt lat="56.457624" lon="60.749103">
        <ele>257.1</ele>
        <time>1970-01-01T08:05:39.626Z</time>
    </trkpt>
    <trkpt lat="56.457623" lon="60.749038">
        <ele>257.1</ele>
        <time>1970-01-01T08:05:40.626Z</time>
    </trkpt>
    <trkpt lat="56.457615" lon="60.74899">
        <ele>257.1</ele>
        <time>1970-01-01T08:05:41.626Z</time>
    </trkpt>
    <trkpt lat="56.457605" lon="60.748942">
        <ele>257.1</ele>
        <time>1970-01-01T08:05:43.626Z</time>
    </trkpt>
    <trkpt lat="56.457599" lon="60.748878">
        <ele>257.1</ele>
        <time>1970-01-01T08:05:44.626Z</time>
    </trkpt>
    <trkpt lat="56.457589" lon="60.748825">
        <ele>257.1</ele>
        <time>1970-01-01T08:05:45.626Z</time>
    </trkpt>
    <trkpt lat="56.457588" lon="60.748763">
        <ele>257.1</ele>
        <time>1970-01-01T08:05:46.626Z</time>
    </trkpt>
    <trkpt lat="56.457571" lon="60.748692">
        <ele>256.1</ele>
        <time>1970-01-01T08:05:47.626Z</time>
    </trkpt>
    <trkpt lat="56.457549" lon="60.748656">
        <ele>258.1</ele>
        <time>1970-01-01T08:05:48.626Z</time>
    </trkpt>
    <trkpt lat="56.457536" lon="60.748604">
        <ele>258.1</ele>
        <time>1970-01-01T08:05:49.626Z</time>
    </trkpt>
    <trkpt lat="56.457523" lon="60.748553">
        <ele>257.1</ele>
        <time>1970-01-01T08:05:50.626Z</time>
    </trkpt>
    <trkpt lat="56.45752" lon="60.748532">
        <ele>257.1</ele>
        <time>1970-01-01T08:05:51.626Z</time>
    </trkpt>
    <trkpt lat="56.45751" lon="60.748465">
        <ele>257.1</ele>
        <time>1970-01-01T08:05:52.626Z</time>
    </trkpt>
    <trkpt lat="56.457501" lon="60.748439">
        <ele>257.1</ele>
        <time>1970-01-01T08:05:53.626Z</time>
    </trkpt>
    <trkpt lat="56.457501" lon="60.748409">
        <ele>257.1</ele>
        <time>1970-01-01T08:05:54.626Z</time>
    </trkpt>
    <trkpt lat="56.457489" lon="60.748365">
        <ele>257.1</ele>
        <time>1970-01-01T08:05:55.626Z</time>
    </trkpt>
    <trkpt lat="56.457473" lon="60.748321">
        <ele>257.1</ele>
        <time>1970-01-01T08:05:56.626Z</time>
    </trkpt>
    <trkpt lat="56.457472" lon="60.748292">
        <ele>257.1</ele>
        <time>1970-01-01T08:05:57.626Z</time>
    </trkpt>
    <trkpt lat="56.457466" lon="60.748221">
        <ele>257.1</ele>
        <time>1970-01-01T08:05:58.626Z</time>
    </trkpt>
    <trkpt lat="56.457463" lon="60.748195">
        <ele>258.2</ele>
        <time>1970-01-01T08:05:59.626Z</time>
    </trkpt>
    <trkpt lat="56.457454" lon="60.748128">
        <ele>258.2</ele>
        <time>1970-01-01T08:06:00.626Z</time>
    </trkpt>
    <trkpt lat="56.457452" lon="60.74808">
        <ele>258.2</ele>
        <time>1970-01-01T08:06:01.626Z</time>
    </trkpt>
    <trkpt lat="56.45745" lon="60.748066">
        <ele>258.2</ele>
        <time>1970-01-01T08:06:02.626Z</time>
    </trkpt>
    <trkpt lat="56.457448" lon="60.748004">
        <ele>257.2</ele>
        <time>1970-01-01T08:06:03.626Z</time>
    </trkpt>
    <trkpt lat="56.457439" lon="60.747951">
        <ele>257.2</ele>
        <time>1970-01-01T08:06:04.626Z</time>
    </trkpt>
    <trkpt lat="56.457432" lon="60.74792">
        <ele>257.2</ele>
        <time>1970-01-01T08:06:05.626Z</time>
    </trkpt>
    <trkpt lat="56.45742" lon="60.747846">
        <ele>257.2</ele>
        <time>1970-01-01T08:06:06.626Z</time>
    </trkpt>
    <trkpt lat="56.457419" lon="60.74779">
        <ele>257.2</ele>
        <time>1970-01-01T08:06:07.626Z</time>
    </trkpt>
    <trkpt lat="56.457418" lon="60.747764">
        <ele>257.2</ele>
        <time>1970-01-01T08:06:08.626Z</time>
    </trkpt>
    <trkpt lat="56.457414" lon="60.747698">
        <ele>257.2</ele>
        <time>1970-01-01T08:06:09.626Z</time>
    </trkpt>
    <trkpt lat="56.457408" lon="60.747647">
        <ele>257.2</ele>
        <time>1970-01-01T08:06:10.626Z</time>
    </trkpt>
    <trkpt lat="56.457407" lon="60.747626">
        <ele>257.2</ele>
        <time>1970-01-01T08:06:11.626Z</time>
    </trkpt>
    <trkpt lat="56.457409" lon="60.74757">
        <ele>257.2</ele>
        <time>1970-01-01T08:06:12.626Z</time>
    </trkpt>
    <trkpt lat="56.457417" lon="60.747519">
        <ele>257.2</ele>
        <time>1970-01-01T08:06:13.626Z</time>
    </trkpt>
    <trkpt lat="56.457416" lon="60.747459">
        <ele>257.2</ele>
        <time>1970-01-01T08:06:14.626Z</time>
    </trkpt>
    <trkpt lat="56.457411" lon="60.747434">
        <ele>257.2</ele>
        <time>1970-01-01T08:06:15.626Z</time>
    </trkpt>
    <trkpt lat="56.457398" lon="60.747368">
        <ele>257.2</ele>
        <time>1970-01-01T08:06:16.626Z</time>
    </trkpt>
    <trkpt lat="56.457396" lon="60.747317">
        <ele>257.2</ele>
        <time>1970-01-01T08:06:17.626Z</time>
    </trkpt>
    <trkpt lat="56.457384" lon="60.747255">
        <ele>257.2</ele>
        <time>1970-01-01T08:06:18.626Z</time>
    </trkpt>
    <trkpt lat="56.457364" lon="60.747217">
        <ele>257.2</ele>
        <time>1970-01-01T08:06:19.626Z</time>
    </trkpt>
    <trkpt lat="56.457356" lon="60.747191">
        <ele>257.2</ele>
        <time>1970-01-01T08:06:20.626Z</time>
    </trkpt>
    <trkpt lat="56.45734" lon="60.747124">
        <ele>257.2</ele>
        <time>1970-01-01T08:06:21.626Z</time>
    </trkpt>
    <trkpt lat="56.457321" lon="60.747083">
        <ele>257.2</ele>
        <time>1970-01-01T08:06:22.626Z</time>
    </trkpt>
    <trkpt lat="56.457306" lon="60.747021">
        <ele>257.2</ele>
        <time>1970-01-01T08:06:23.626Z</time>
    </trkpt>
    <trkpt lat="56.45729" lon="60.746966">
        <ele>257.2</ele>
        <time>1970-01-01T08:06:24.626Z</time>
    </trkpt>
    <trkpt lat="56.457273" lon="60.746921">
        <ele>258.2</ele>
        <time>1970-01-01T08:06:25.626Z</time>
    </trkpt>
    <trkpt lat="56.457267" lon="60.746899">
        <ele>258.2</ele>
        <time>1970-01-01T08:06:26.626Z</time>
    </trkpt>
    <trkpt lat="56.457251" lon="60.746838">
        <ele>257.2</ele>
        <time>1970-01-01T08:06:27.626Z</time>
    </trkpt>
    <trkpt lat="56.457232" lon="60.746794">
        <ele>257.3</ele>
        <time>1970-01-01T08:06:28.626Z</time>
    </trkpt>
    <trkpt lat="56.457217" lon="60.74674">
        <ele>257.3</ele>
        <time>1970-01-01T08:06:29.626Z</time>
    </trkpt>
    <trkpt lat="56.457196" lon="60.746683">
        <ele>257.3</ele>
        <time>1970-01-01T08:06:30.626Z</time>
    </trkpt>
    <trkpt lat="56.457189" lon="60.746658">
        <ele>257.3</ele>
        <time>1970-01-01T08:06:31.626Z</time>
    </trkpt>
    <trkpt lat="56.457174" lon="60.746586">
        <ele>259.3</ele>
        <time>1970-01-01T08:06:32.626Z</time>
    </trkpt>
    <trkpt lat="56.45717" lon="60.746561">
        <ele>259.3</ele>
        <time>1970-01-01T08:06:33.626Z</time>
    </trkpt>
    <trkpt lat="56.457158" lon="60.746504">
        <ele>259.3</ele>
        <time>1970-01-01T08:06:34.626Z</time>
    </trkpt>
    <trkpt lat="56.457153" lon="60.746482">
        <ele>258.3</ele>
        <time>1970-01-01T08:06:35.626Z</time>
    </trkpt>
    <trkpt lat="56.457136" lon="60.746426">
        <ele>258.3</ele>
        <time>1970-01-01T08:06:36.626Z</time>
    </trkpt>
    <trkpt lat="56.457132" lon="60.7464">
        <ele>258.3</ele>
        <time>1970-01-01T08:06:37.626Z</time>
    </trkpt>
    <trkpt lat="56.457116" lon="60.746341">
        <ele>258.3</ele>
        <time>1970-01-01T08:06:38.626Z</time>
    </trkpt>
    <trkpt lat="56.457104" lon="60.746297">
        <ele>258.3</ele>
        <time>1970-01-01T08:06:39.626Z</time>
    </trkpt>
    <trkpt lat="56.457093" lon="60.74625">
        <ele>258.3</ele>
        <time>1970-01-01T08:06:40.626Z</time>
    </trkpt>
    <trkpt lat="56.457082" lon="60.746197">
        <ele>260.3</ele>
        <time>1970-01-01T08:06:41.626Z</time>
    </trkpt>
    <trkpt lat="56.45708" lon="60.746177">
        <ele>260.3</ele>
        <time>1970-01-01T08:06:42.626Z</time>
    </trkpt>
    <trkpt lat="56.457066" lon="60.746115">
        <ele>260.3</ele>
        <time>1970-01-01T08:06:43.626Z</time>
    </trkpt>
    <trkpt lat="56.457054" lon="60.74606">
        <ele>260.3</ele>
        <time>1970-01-01T08:06:44.626Z</time>
    </trkpt>
    <trkpt lat="56.45705" lon="60.746039">
        <ele>260.3</ele>
        <time>1970-01-01T08:06:45.626Z</time>
    </trkpt>
    <trkpt lat="56.457048" lon="60.745971">
        <ele>259.3</ele>
        <time>1970-01-01T08:06:46.626Z</time>
    </trkpt>
    <trkpt lat="56.45705" lon="60.745917">
        <ele>259.3</ele>
        <time>1970-01-01T08:06:47.626Z</time>
    </trkpt>
    <trkpt lat="56.457047" lon="60.745891">
        <ele>259.3</ele>
        <time>1970-01-01T08:06:48.626Z</time>
    </trkpt>
    <trkpt lat="56.45704" lon="60.74583">
        <ele>259.3</ele>
        <time>1970-01-01T08:06:49.626Z</time>
    </trkpt>
    <trkpt lat="56.457045" lon="60.745767">
        <ele>258.3</ele>
        <time>1970-01-01T08:06:50.626Z</time>
    </trkpt>
    <trkpt lat="56.457038" lon="60.745705">
        <ele>258.3</ele>
        <time>1970-01-01T08:06:51.626Z</time>
    </trkpt>
    <trkpt lat="56.457038" lon="60.745651">
        <ele>258.3</ele>
        <time>1970-01-01T08:06:52.626Z</time>
    </trkpt>
    <trkpt lat="56.457032" lon="60.745623">
        <ele>257.3</ele>
        <time>1970-01-01T08:06:53.626Z</time>
    </trkpt>
    <trkpt lat="56.457019" lon="60.745553">
        <ele>257.3</ele>
        <time>1970-01-01T08:06:54.626Z</time>
    </trkpt>
    <trkpt lat="56.457006" lon="60.745504">
        <ele>257.3</ele>
        <time>1970-01-01T08:06:55.626Z</time>
    </trkpt>
    <trkpt lat="56.456996" lon="60.745449">
        <ele>257.3</ele>
        <time>1970-01-01T08:06:56.626Z</time>
    </trkpt>
    <trkpt lat="56.45698" lon="60.745397">
        <ele>258.4</ele>
        <time>1970-01-01T08:06:57.626Z</time>
    </trkpt>
    <trkpt lat="56.456963" lon="60.745345">
        <ele>258.4</ele>
        <time>1970-01-01T08:06:58.626Z</time>
    </trkpt>
    <trkpt lat="56.456957" lon="60.745324">
        <ele>258.4</ele>
        <time>1970-01-01T08:06:59.626Z</time>
    </trkpt>
    <trkpt lat="56.45694" lon="60.745271">
        <ele>258.4</ele>
        <time>1970-01-01T08:07:00.626Z</time>
    </trkpt>
    <trkpt lat="56.456929" lon="60.745226">
        <ele>258.4</ele>
        <time>1970-01-01T08:07:01.626Z</time>
    </trkpt>
    <trkpt lat="56.456915" lon="60.745181">
        <ele>258.4</ele>
        <time>1970-01-01T08:07:02.626Z</time>
    </trkpt>
    <trkpt lat="56.456896" lon="60.74514">
        <ele>258.4</ele>
        <time>1970-01-01T08:07:03.626Z</time>
    </trkpt>
    <trkpt lat="56.456879" lon="60.745094">
        <ele>258.4</ele>
        <time>1970-01-01T08:07:04.626Z</time>
    </trkpt>
    <trkpt lat="56.456862" lon="60.745057">
        <ele>258.4</ele>
        <time>1970-01-01T08:07:05.626Z</time>
    </trkpt>
    <trkpt lat="56.456842" lon="60.745017">
        <ele>258.4</ele>
        <time>1970-01-01T08:07:06.626Z</time>
    </trkpt>
    <trkpt lat="56.45682" lon="60.744972">
        <ele>258.4</ele>
        <time>1970-01-01T08:07:07.626Z</time>
    </trkpt>
    <trkpt lat="56.456808" lon="60.744954">
        <ele>258.4</ele>
        <time>1970-01-01T08:07:08.626Z</time>
    </trkpt>
    <trkpt lat="56.456785" lon="60.744903">
        <ele>259.4</ele>
        <time>1970-01-01T08:07:09.626Z</time>
    </trkpt>
    <trkpt lat="56.456766" lon="60.744862">
        <ele>259.4</ele>
        <time>1970-01-01T08:07:10.626Z</time>
    </trkpt>
    <trkpt lat="56.45674" lon="60.744828">
        <ele>259.4</ele>
        <time>1970-01-01T08:07:11.626Z</time>
    </trkpt>
    <trkpt lat="56.456733" lon="60.744808">
        <ele>259.4</ele>
        <time>1970-01-01T08:07:12.626Z</time>
    </trkpt>
    <trkpt lat="56.456708" lon="60.744751">
        <ele>258.4</ele>
        <time>1970-01-01T08:07:13.626Z</time>
    </trkpt>
    <trkpt lat="56.456691" lon="60.74471">
        <ele>259.4</ele>
        <time>1970-01-01T08:07:14.626Z</time>
    </trkpt>
    <trkpt lat="56.456669" lon="60.744654">
        <ele>259.4</ele>
        <time>1970-01-01T08:07:15.626Z</time>
    </trkpt>
    <trkpt lat="56.456661" lon="60.744628">
        <ele>259.4</ele>
        <time>1970-01-01T08:07:16.626Z</time>
    </trkpt>
    <trkpt lat="56.456637" lon="60.744572">
        <ele>258.4</ele>
        <time>1970-01-01T08:07:17.626Z</time>
    </trkpt>
    <trkpt lat="56.456618" lon="60.744535">
        <ele>258.4</ele>
        <time>1970-01-01T08:07:18.626Z</time>
    </trkpt>
    <trkpt lat="56.456607" lon="60.744517">
        <ele>260.4</ele>
        <time>1970-01-01T08:07:19.626Z</time>
    </trkpt>
    <trkpt lat="56.456586" lon="60.744462">
        <ele>260.4</ele>
        <time>1970-01-01T08:07:20.626Z</time>
    </trkpt>
    <trkpt lat="56.45657" lon="60.744422">
        <ele>259.4</ele>
        <time>1970-01-01T08:07:21.626Z</time>
    </trkpt>
    <trkpt lat="56.456553" lon="60.744374">
        <ele>259.4</ele>
        <time>1970-01-01T08:07:22.626Z</time>
    </trkpt>
    <trkpt lat="56.456545" lon="60.744355">
        <ele>259.4</ele>
        <time>1970-01-01T08:07:23.626Z</time>
    </trkpt>
    <trkpt lat="56.456523" lon="60.744301">
        <ele>259.4</ele>
        <time>1970-01-01T08:07:24.626Z</time>
    </trkpt>
    <trkpt lat="56.456503" lon="60.744249">
        <ele>259.4</ele>
        <time>1970-01-01T08:07:25.626Z</time>
    </trkpt>
    <trkpt lat="56.456469" lon="60.744171">
        <ele>259.5</ele>
        <time>1970-01-01T08:07:27.626Z</time>
    </trkpt>
    <trkpt lat="56.456439" lon="60.744096">
        <ele>259.5</ele>
        <time>1970-01-01T08:07:28.626Z</time>
    </trkpt>
    <trkpt lat="56.456432" lon="60.744064">
        <ele>259.5</ele>
        <time>1970-01-01T08:07:29.626Z</time>
    </trkpt>
    <trkpt lat="56.456424" lon="60.744039">
        <ele>259.5</ele>
        <time>1970-01-01T08:07:30.626Z</time>
    </trkpt>
    <trkpt lat="56.456414" lon="60.744017">
        <ele>259.5</ele>
        <time>1970-01-01T08:07:31.626Z</time>
    </trkpt>
    <trkpt lat="56.456389" lon="60.743956">
        <ele>259.5</ele>
        <time>1970-01-01T08:07:32.626Z</time>
    </trkpt>
    <trkpt lat="56.456375" lon="60.743904">
        <ele>259.5</ele>
        <time>1970-01-01T08:07:33.626Z</time>
    </trkpt>
    <trkpt lat="56.456362" lon="60.743858">
        <ele>259.5</ele>
        <time>1970-01-01T08:07:34.626Z</time>
    </trkpt>
    <trkpt lat="56.456357" lon="60.743833">
        <ele>259.5</ele>
        <time>1970-01-01T08:07:35.626Z</time>
    </trkpt>
    <trkpt lat="56.456342" lon="60.74377">
        <ele>259.5</ele>
        <time>1970-01-01T08:07:36.626Z</time>
    </trkpt>
    <trkpt lat="56.456323" lon="60.743715">
        <ele>259.5</ele>
        <time>1970-01-01T08:07:37.626Z</time>
    </trkpt>
    <trkpt lat="56.456318" lon="60.74369">
        <ele>259.5</ele>
        <time>1970-01-01T08:07:38.626Z</time>
    </trkpt>
    <trkpt lat="56.456304" lon="60.743623">
        <ele>259.5</ele>
        <time>1970-01-01T08:07:39.626Z</time>
    </trkpt>
    <trkpt lat="56.456288" lon="60.743575">
        <ele>259.5</ele>
        <time>1970-01-01T08:07:40.626Z</time>
    </trkpt>
    <trkpt lat="56.456276" lon="60.743548">
        <ele>259.5</ele>
        <time>1970-01-01T08:07:41.626Z</time>
    </trkpt>
    <trkpt lat="56.456259" lon="60.743475">
        <ele>259.5</ele>
        <time>1970-01-01T08:07:42.626Z</time>
    </trkpt>
    <trkpt lat="56.45624" lon="60.743415">
        <ele>259.5</ele>
        <time>1970-01-01T08:07:43.626Z</time>
    </trkpt>
    <trkpt lat="56.456229" lon="60.743364">
        <ele>259.5</ele>
        <time>1970-01-01T08:07:44.626Z</time>
    </trkpt>
    <trkpt lat="56.456227" lon="60.743345">
        <ele>259.5</ele>
        <time>1970-01-01T08:07:45.626Z</time>
    </trkpt>
    <trkpt lat="56.456217" lon="60.743282">
        <ele>259.5</ele>
        <time>1970-01-01T08:07:46.626Z</time>
    </trkpt>
    <trkpt lat="56.456209" lon="60.743218">
        <ele>259.5</ele>
        <time>1970-01-01T08:07:47.626Z</time>
    </trkpt>
    <trkpt lat="56.456191" lon="60.743164">
        <ele>259.5</ele>
        <time>1970-01-01T08:07:49.626Z</time>
    </trkpt>
    <trkpt lat="56.456186" lon="60.743137">
        <ele>259.5</ele>
        <time>1970-01-01T08:07:50.626Z</time>
    </trkpt>
    <trkpt lat="56.456175" lon="60.743072">
        <ele>259.5</ele>
        <time>1970-01-01T08:07:51.626Z</time>
    </trkpt>
    <trkpt lat="56.45617" lon="60.743011">
        <ele>259.5</ele>
        <time>1970-01-01T08:07:52.626Z</time>
    </trkpt>
    <trkpt lat="56.456148" lon="60.742962">
        <ele>259.5</ele>
        <time>1970-01-01T08:07:53.626Z</time>
    </trkpt>
    <trkpt lat="56.456135" lon="60.742899">
        <ele>260.5</ele>
        <time>1970-01-01T08:07:54.626Z</time>
    </trkpt>
    <trkpt lat="56.456129" lon="60.742872">
        <ele>260.5</ele>
        <time>1970-01-01T08:07:55.626Z</time>
    </trkpt>
    <trkpt lat="56.456119" lon="60.742806">
        <ele>260.5</ele>
        <time>1970-01-01T08:07:56.626Z</time>
    </trkpt>
    <trkpt lat="56.456113" lon="60.742781">
        <ele>260.6</ele>
        <time>1970-01-01T08:07:57.626Z</time>
    </trkpt>
    <trkpt lat="56.456099" lon="60.742712">
        <ele>259.6</ele>
        <time>1970-01-01T08:07:58.626Z</time>
    </trkpt>
    <trkpt lat="56.456092" lon="60.742654">
        <ele>259.6</ele>
        <time>1970-01-01T08:07:59.626Z</time>
    </trkpt>
    <trkpt lat="56.456085" lon="60.742588">
        <ele>259.6</ele>
        <time>1970-01-01T08:08:00.626Z</time>
    </trkpt>
    <trkpt lat="56.456085" lon="60.742536">
        <ele>259.6</ele>
        <time>1970-01-01T08:08:01.626Z</time>
    </trkpt>
    <trkpt lat="56.456071" lon="60.742471">
        <ele>259.6</ele>
        <time>1970-01-01T08:08:02.626Z</time>
    </trkpt>
    <trkpt lat="56.456062" lon="60.742412">
        <ele>259.6</ele>
        <time>1970-01-01T08:08:03.626Z</time>
    </trkpt>
    <trkpt lat="56.456051" lon="60.742366">
        <ele>259.6</ele>
        <time>1970-01-01T08:08:04.626Z</time>
    </trkpt>
    <trkpt lat="56.456045" lon="60.742345">
        <ele>259.6</ele>
        <time>1970-01-01T08:08:05.626Z</time>
    </trkpt>
    <trkpt lat="56.45603" lon="60.742291">
        <ele>260.6</ele>
        <time>1970-01-01T08:08:06.626Z</time>
    </trkpt>
    <trkpt lat="56.456023" lon="60.742267">
        <ele>260.6</ele>
        <time>1970-01-01T08:08:07.626Z</time>
    </trkpt>
    <trkpt lat="56.456005" lon="60.742203">
        <ele>259.6</ele>
        <time>1970-01-01T08:08:08.626Z</time>
    </trkpt>
    <trkpt lat="56.455992" lon="60.742142">
        <ele>259.6</ele>
        <time>1970-01-01T08:08:09.626Z</time>
    </trkpt>
    <trkpt lat="56.455984" lon="60.742087">
        <ele>259.6</ele>
        <time>1970-01-01T08:08:10.626Z</time>
    </trkpt>
    <trkpt lat="56.455973" lon="60.74202">
        <ele>258.6</ele>
        <time>1970-01-01T08:08:11.626Z</time>
    </trkpt>
    <trkpt lat="56.455959" lon="60.741966">
        <ele>258.6</ele>
        <time>1970-01-01T08:08:12.626Z</time>
    </trkpt>
    <trkpt lat="56.455944" lon="60.741907">
        <ele>259.6</ele>
        <time>1970-01-01T08:08:13.626Z</time>
    </trkpt>
    <trkpt lat="56.455926" lon="60.741856">
        <ele>259.6</ele>
        <time>1970-01-01T08:08:14.626Z</time>
    </trkpt>
    <trkpt lat="56.455919" lon="60.741835">
        <ele>259.6</ele>
        <time>1970-01-01T08:08:15.626Z</time>
    </trkpt>
    <trkpt lat="56.455908" lon="60.741767">
        <ele>259.6</ele>
        <time>1970-01-01T08:08:16.626Z</time>
    </trkpt>
    <trkpt lat="56.455893" lon="60.7417">
        <ele>259.6</ele>
        <time>1970-01-01T08:08:17.626Z</time>
    </trkpt>
    <trkpt lat="56.455872" lon="60.741653">
        <ele>258.6</ele>
        <time>1970-01-01T08:08:18.626Z</time>
    </trkpt>
    <trkpt lat="56.455848" lon="60.741592">
        <ele>259.6</ele>
        <time>1970-01-01T08:08:19.626Z</time>
    </trkpt>
    <trkpt lat="56.455831" lon="60.741537">
        <ele>259.6</ele>
        <time>1970-01-01T08:08:20.626Z</time>
    </trkpt>
    <trkpt lat="56.455817" lon="60.741486">
        <ele>259.6</ele>
        <time>1970-01-01T08:08:21.626Z</time>
    </trkpt>
    <trkpt lat="56.455802" lon="60.741437">
        <ele>259.6</ele>
        <time>1970-01-01T08:08:22.626Z</time>
    </trkpt>
    <trkpt lat="56.455794" lon="60.741381">
        <ele>259.6</ele>
        <time>1970-01-01T08:08:23.626Z</time>
    </trkpt>
    <trkpt lat="56.455772" lon="60.741331">
        <ele>259.6</ele>
        <time>1970-01-01T08:08:24.626Z</time>
    </trkpt>
    <trkpt lat="56.45575" lon="60.741276">
        <ele>259.6</ele>
        <time>1970-01-01T08:08:25.626Z</time>
    </trkpt>
    <trkpt lat="56.455735" lon="60.741221">
        <ele>259.7</ele>
        <time>1970-01-01T08:08:26.626Z</time>
    </trkpt>
    <trkpt lat="56.455722" lon="60.741161">
        <ele>259.7</ele>
        <time>1970-01-01T08:08:27.626Z</time>
    </trkpt>
    <trkpt lat="56.455708" lon="60.741107">
        <ele>259.7</ele>
        <time>1970-01-01T08:08:28.626Z</time>
    </trkpt>
    <trkpt lat="56.455695" lon="60.74106">
        <ele>259.7</ele>
        <time>1970-01-01T08:08:29.626Z</time>
    </trkpt>
    <trkpt lat="56.455684" lon="60.741031">
        <ele>259.7</ele>
        <time>1970-01-01T08:08:30.626Z</time>
    </trkpt>
    <trkpt lat="56.455664" lon="60.740957">
        <ele>259.7</ele>
        <time>1970-01-01T08:08:31.626Z</time>
    </trkpt>
    <trkpt lat="56.455652" lon="60.740913">
        <ele>260.7</ele>
        <time>1970-01-01T08:08:32.626Z</time>
    </trkpt>
    <trkpt lat="56.455647" lon="60.74086">
        <ele>260.7</ele>
        <time>1970-01-01T08:08:33.626Z</time>
    </trkpt>
    <trkpt lat="56.455635" lon="60.7408">
        <ele>260.7</ele>
        <time>1970-01-01T08:08:34.626Z</time>
    </trkpt>
    <trkpt lat="56.455617" lon="60.740747">
        <ele>260.7</ele>
        <time>1970-01-01T08:08:35.626Z</time>
    </trkpt>
    <trkpt lat="56.455603" lon="60.740702">
        <ele>260.7</ele>
        <time>1970-01-01T08:08:36.626Z</time>
    </trkpt>
    <trkpt lat="56.455595" lon="60.740632">
        <ele>260.7</ele>
        <time>1970-01-01T08:08:37.626Z</time>
    </trkpt>
    <trkpt lat="56.455574" lon="60.740567">
        <ele>260.7</ele>
        <time>1970-01-01T08:08:38.626Z</time>
    </trkpt>
    <trkpt lat="56.455559" lon="60.740506">
        <ele>261.7</ele>
        <time>1970-01-01T08:08:39.626Z</time>
    </trkpt>
    <trkpt lat="56.455536" lon="60.740446">
        <ele>261.7</ele>
        <time>1970-01-01T08:08:40.626Z</time>
    </trkpt>
    <trkpt lat="56.45553" lon="60.740395">
        <ele>261.7</ele>
        <time>1970-01-01T08:08:41.626Z</time>
    </trkpt>
    <trkpt lat="56.455529" lon="60.740376">
        <ele>261.7</ele>
        <time>1970-01-01T08:08:42.626Z</time>
    </trkpt>
    <trkpt lat="56.45553" lon="60.740316">
        <ele>261.7</ele>
        <time>1970-01-01T08:08:43.626Z</time>
    </trkpt>
    <trkpt lat="56.455525" lon="60.740265">
        <ele>261.7</ele>
        <time>1970-01-01T08:08:44.626Z</time>
    </trkpt>
    <trkpt lat="56.455506" lon="60.740227">
        <ele>261.7</ele>
        <time>1970-01-01T08:08:45.626Z</time>
    </trkpt>
    <trkpt lat="56.455499" lon="60.740178">
        <ele>261.7</ele>
        <time>1970-01-01T08:08:46.626Z</time>
    </trkpt>
    <trkpt lat="56.455487" lon="60.740114">
        <ele>261.7</ele>
        <time>1970-01-01T08:08:47.626Z</time>
    </trkpt>
    <trkpt lat="56.455485" lon="60.740063">
        <ele>261.7</ele>
        <time>1970-01-01T08:08:48.626Z</time>
    </trkpt>
    <trkpt lat="56.455463" lon="60.740011">
        <ele>262.7</ele>
        <time>1970-01-01T08:08:49.626Z</time>
    </trkpt>
    <trkpt lat="56.45545" lon="60.739962">
        <ele>262.7</ele>
        <time>1970-01-01T08:08:50.626Z</time>
    </trkpt>
    <trkpt lat="56.455435" lon="60.739913">
        <ele>262.7</ele>
        <time>1970-01-01T08:08:51.626Z</time>
    </trkpt>
    <trkpt lat="56.455424" lon="60.739862">
        <ele>262.7</ele>
        <time>1970-01-01T08:08:52.626Z</time>
    </trkpt>
    <trkpt lat="56.45542" lon="60.739837">
        <ele>262.7</ele>
        <time>1970-01-01T08:08:53.626Z</time>
    </trkpt>
    <trkpt lat="56.455403" lon="60.739774">
        <ele>261.7</ele>
        <time>1970-01-01T08:08:54.626Z</time>
    </trkpt>
    <trkpt lat="56.455389" lon="60.739713">
        <ele>261.8</ele>
        <time>1970-01-01T08:08:55.626Z</time>
    </trkpt>
    <trkpt lat="56.455386" lon="60.739658">
        <ele>261.8</ele>
        <time>1970-01-01T08:08:56.626Z</time>
    </trkpt>
    <trkpt lat="56.455374" lon="60.739636">
        <ele>262.8</ele>
        <time>1970-01-01T08:08:57.626Z</time>
    </trkpt>
    <trkpt lat="56.455349" lon="60.739584">
        <ele>262.8</ele>
        <time>1970-01-01T08:08:58.626Z</time>
    </trkpt>
    <trkpt lat="56.455324" lon="60.739556">
        <ele>262.8</ele>
        <time>1970-01-01T08:08:59.626Z</time>
    </trkpt>
    <trkpt lat="56.455314" lon="60.739504">
        <ele>262.8</ele>
        <time>1970-01-01T08:09:00.626Z</time>
    </trkpt>
    <trkpt lat="56.455311" lon="60.73947">
        <ele>262.8</ele>
        <time>1970-01-01T08:09:01.626Z</time>
    </trkpt>
    <trkpt lat="56.455308" lon="60.739388">
        <ele>262.8</ele>
        <time>1970-01-01T08:09:02.626Z</time>
    </trkpt>
    <trkpt lat="56.455308" lon="60.739327">
        <ele>262.8</ele>
        <time>1970-01-01T08:09:03.626Z</time>
    </trkpt>
    <trkpt lat="56.455304" lon="60.739291">
        <ele>262.8</ele>
        <time>1970-01-01T08:09:04.626Z</time>
    </trkpt>
    <trkpt lat="56.455295" lon="60.739208">
        <ele>261.8</ele>
        <time>1970-01-01T08:09:05.626Z</time>
    </trkpt>
    <trkpt lat="56.455284" lon="60.739141">
        <ele>261.8</ele>
        <time>1970-01-01T08:09:06.626Z</time>
    </trkpt>
    <trkpt lat="56.45528" lon="60.739115">
        <ele>261.8</ele>
        <time>1970-01-01T08:09:07.626Z</time>
    </trkpt>
    <trkpt lat="56.455264" lon="60.73905">
        <ele>261.8</ele>
        <time>1970-01-01T08:09:08.626Z</time>
    </trkpt>
    <trkpt lat="56.455245" lon="60.739001">
        <ele>261.8</ele>
        <time>1970-01-01T08:09:09.626Z</time>
    </trkpt>
    <trkpt lat="56.455244" lon="60.738982">
        <ele>261.8</ele>
        <time>1970-01-01T08:09:10.626Z</time>
    </trkpt>
    <trkpt lat="56.455235" lon="60.738924">
        <ele>260.8</ele>
        <time>1970-01-01T08:09:11.626Z</time>
    </trkpt>
    <trkpt lat="56.455229" lon="60.738897">
        <ele>260.8</ele>
        <time>1970-01-01T08:09:12.626Z</time>
    </trkpt>
    <trkpt lat="56.455222" lon="60.738824">
        <ele>260.8</ele>
        <time>1970-01-01T08:09:13.626Z</time>
    </trkpt>
    <trkpt lat="56.455218" lon="60.738774">
        <ele>260.8</ele>
        <time>1970-01-01T08:09:14.626Z</time>
    </trkpt>
    <trkpt lat="56.455214" lon="60.738753">
        <ele>259.8</ele>
        <time>1970-01-01T08:09:15.626Z</time>
    </trkpt>
    <trkpt lat="56.455205" lon="60.738698">
        <ele>259.8</ele>
        <time>1970-01-01T08:09:16.626Z</time>
    </trkpt>
    <trkpt lat="56.455204" lon="60.738677">
        <ele>259.8</ele>
        <time>1970-01-01T08:09:17.626Z</time>
    </trkpt>
    <trkpt lat="56.455196" lon="60.738614">
        <ele>259.8</ele>
        <time>1970-01-01T08:09:18.626Z</time>
    </trkpt>
    <trkpt lat="56.455199" lon="60.738563">
        <ele>257.8</ele>
        <time>1970-01-01T08:09:19.626Z</time>
    </trkpt>
    <trkpt lat="56.45521" lon="60.738519">
        <ele>257.8</ele>
        <time>1970-01-01T08:09:20.626Z</time>
    </trkpt>
    <trkpt lat="56.455213" lon="60.738495">
        <ele>257.8</ele>
        <time>1970-01-01T08:09:21.626Z</time>
    </trkpt>
    <trkpt lat="56.455217" lon="60.738432">
        <ele>257.8</ele>
        <time>1970-01-01T08:09:22.626Z</time>
    </trkpt>
    <trkpt lat="56.455217" lon="60.738411">
        <ele>256.9</ele>
        <time>1970-01-01T08:09:23.626Z</time>
    </trkpt>
    <trkpt lat="56.455218" lon="60.738348">
        <ele>256.9</ele>
        <time>1970-01-01T08:09:24.626Z</time>
    </trkpt>
    <trkpt lat="56.455222" lon="60.73831">
        <ele>256.9</ele>
        <time>1970-01-01T08:09:25.626Z</time>
    </trkpt>
    <trkpt lat="56.455221" lon="60.738273">
        <ele>256.9</ele>
        <time>1970-01-01T08:09:26.626Z</time>
    </trkpt>
    <trkpt lat="56.455222" lon="60.7382">
        <ele>256.9</ele>
        <time>1970-01-01T08:09:27.626Z</time>
    </trkpt>
    <trkpt lat="56.455221" lon="60.738155">
        <ele>256.9</ele>
        <time>1970-01-01T08:09:28.626Z</time>
    </trkpt>
    <trkpt lat="56.455222" lon="60.738136">
        <ele>256.9</ele>
        <time>1970-01-01T08:09:29.626Z</time>
    </trkpt>
    <trkpt lat="56.455219" lon="60.738118">
        <ele>256.9</ele>
        <time>1970-01-01T08:09:30.626Z</time>
    </trkpt>
    <trkpt lat="56.455213" lon="60.738059">
        <ele>255.9</ele>
        <time>1970-01-01T08:09:31.626Z</time>
    </trkpt>
    <trkpt lat="56.45521" lon="60.738044">
        <ele>255.9</ele>
        <time>1970-01-01T08:09:32.626Z</time>
    </trkpt>
    <trkpt lat="56.455211" lon="60.737983">
        <ele>255.9</ele>
        <time>1970-01-01T08:09:33.626Z</time>
    </trkpt>
    <trkpt lat="56.455211" lon="60.737959">
        <ele>255.9</ele>
        <time>1970-01-01T08:09:34.626Z</time>
    </trkpt>
    <trkpt lat="56.455209" lon="60.737895">
        <ele>255.9</ele>
        <time>1970-01-01T08:09:35.626Z</time>
    </trkpt>
    <trkpt lat="56.455209" lon="60.737875">
        <ele>255.9</ele>
        <time>1970-01-01T08:09:36.626Z</time>
    </trkpt>
    <trkpt lat="56.455207" lon="60.737821">
        <ele>255.9</ele>
        <time>1970-01-01T08:09:37.626Z</time>
    </trkpt>
    <trkpt lat="56.455214" lon="60.737791">
        <ele>255.9</ele>
        <time>1970-01-01T08:09:38.626Z</time>
    </trkpt>
    <trkpt lat="56.455224" lon="60.737722">
        <ele>254.9</ele>
        <time>1970-01-01T08:09:39.626Z</time>
    </trkpt>
    <trkpt lat="56.455219" lon="60.737673">
        <ele>254.9</ele>
        <time>1970-01-01T08:09:40.626Z</time>
    </trkpt>
    <trkpt lat="56.455211" lon="60.737658">
        <ele>254.9</ele>
        <time>1970-01-01T08:09:41.626Z</time>
    </trkpt>
    <trkpt lat="56.455186" lon="60.737627">
        <ele>257.9</ele>
        <time>1970-01-01T08:09:42.626Z</time>
    </trkpt>
    <trkpt lat="56.45515" lon="60.73761">
        <ele>257.9</ele>
        <time>1970-01-01T08:09:43.626Z</time>
    </trkpt>
    <trkpt lat="56.455107" lon="60.737591">
        <ele>257.9</ele>
        <time>1970-01-01T08:09:44.626Z</time>
    </trkpt>
    <trkpt lat="56.455079" lon="60.737563">
        <ele>260.9</ele>
        <time>1970-01-01T08:09:45.626Z</time>
    </trkpt>
    <trkpt lat="56.455039" lon="60.737527">
        <ele>260.9</ele>
        <time>1970-01-01T08:09:46.626Z</time>
    </trkpt>
    <trkpt lat="56.455002" lon="60.737495">
        <ele>260.9</ele>
        <time>1970-01-01T08:09:47.626Z</time>
    </trkpt>
    <trkpt lat="56.454975" lon="60.737479">
        <ele>262.9</ele>
        <time>1970-01-01T08:09:48.626Z</time>
    </trkpt>
    <trkpt lat="56.454939" lon="60.737438">
        <ele>262.9</ele>
        <time>1970-01-01T08:09:49.626Z</time>
    </trkpt>
    <trkpt lat="56.45491" lon="60.737393">
        <ele>262.9</ele>
        <time>1970-01-01T08:09:50.626Z</time>
    </trkpt>
    <trkpt lat="56.45487" lon="60.737327">
        <ele>264.9</ele>
        <time>1970-01-01T08:09:51.626Z</time>
    </trkpt>
    <trkpt lat="56.454832" lon="60.737298">
        <ele>265.0</ele>
        <time>1970-01-01T08:09:52.626Z</time>
    </trkpt>
    <trkpt lat="56.4548" lon="60.737277">
        <ele>266.0</ele>
        <time>1970-01-01T08:09:53.626Z</time>
    </trkpt>
    <trkpt lat="56.454765" lon="60.737243">
        <ele>266.0</ele>
        <time>1970-01-01T08:09:55.626Z</time>
    </trkpt>
    <trkpt lat="56.45469" lon="60.737183">
        <ele>267.0</ele>
        <time>1970-01-01T08:09:56.626Z</time>
    </trkpt>
    <trkpt lat="56.454644" lon="60.73715">
        <ele>267.0</ele>
        <time>1970-01-01T08:09:57.626Z</time>
    </trkpt>
    <trkpt lat="56.454604" lon="60.737131">
        <ele>267.0</ele>
        <time>1970-01-01T08:09:58.626Z</time>
    </trkpt>
    <trkpt lat="56.454565" lon="60.737107">
        <ele>267.0</ele>
        <time>1970-01-01T08:09:59.626Z</time>
    </trkpt>
    <trkpt lat="56.454524" lon="60.737076">
        <ele>267.0</ele>
        <time>1970-01-01T08:10:00.626Z</time>
    </trkpt>
    <trkpt lat="56.454482" lon="60.737047">
        <ele>267.0</ele>
        <time>1970-01-01T08:10:01.626Z</time>
    </trkpt>
    <trkpt lat="56.454431" lon="60.737029">
        <ele>267.0</ele>
        <time>1970-01-01T08:10:02.626Z</time>
    </trkpt>
    <trkpt lat="56.454401" lon="60.737019">
        <ele>267.0</ele>
        <time>1970-01-01T08:10:03.626Z</time>
    </trkpt>
    <trkpt lat="56.454357" lon="60.73701">
        <ele>267.0</ele>
        <time>1970-01-01T08:10:04.626Z</time>
    </trkpt>
    <trkpt lat="56.454308" lon="60.737008">
        <ele>267.0</ele>
        <time>1970-01-01T08:10:05.626Z</time>
    </trkpt>
    <trkpt lat="56.454248" lon="60.737034">
        <ele>267.0</ele>
        <time>1970-01-01T08:10:06.626Z</time>
    </trkpt>
    <trkpt lat="56.45422" lon="60.737035">
        <ele>267.0</ele>
        <time>1970-01-01T08:10:07.626Z</time>
    </trkpt>
    <trkpt lat="56.454186" lon="60.737042">
        <ele>267.0</ele>
        <time>1970-01-01T08:10:08.626Z</time>
    </trkpt>
    <trkpt lat="56.454137" lon="60.737047">
        <ele>267.0</ele>
        <time>1970-01-01T08:10:09.626Z</time>
    </trkpt>
    <trkpt lat="56.454101" lon="60.737035">
        <ele>267.0</ele>
        <time>1970-01-01T08:10:10.626Z</time>
    </trkpt>
    <trkpt lat="56.454064" lon="60.737025">
        <ele>267.0</ele>
        <time>1970-01-01T08:10:11.626Z</time>
    </trkpt>
    <trkpt lat="56.454022" lon="60.736998">
        <ele>267.0</ele>
        <time>1970-01-01T08:10:12.626Z</time>
    </trkpt>
    <trkpt lat="56.45398" lon="60.736973">
        <ele>267.0</ele>
        <time>1970-01-01T08:10:13.626Z</time>
    </trkpt>
    <trkpt lat="56.45395" lon="60.736952">
        <ele>267.0</ele>
        <time>1970-01-01T08:10:14.626Z</time>
    </trkpt>
    <trkpt lat="56.453911" lon="60.736929">
        <ele>267.0</ele>
        <time>1970-01-01T08:10:15.626Z</time>
    </trkpt>
    <trkpt lat="56.453856" lon="60.736903">
        <ele>268.0</ele>
        <time>1970-01-01T08:10:16.626Z</time>
    </trkpt>
    <trkpt lat="56.453805" lon="60.736899">
        <ele>268.0</ele>
        <time>1970-01-01T08:10:17.626Z</time>
    </trkpt>
    <trkpt lat="56.453762" lon="60.736887">
        <ele>268.0</ele>
        <time>1970-01-01T08:10:18.626Z</time>
    </trkpt>
    <trkpt lat="56.453714" lon="60.736872">
        <ele>268.0</ele>
        <time>1970-01-01T08:10:19.626Z</time>
    </trkpt>
    <trkpt lat="56.453667" lon="60.73685">
        <ele>269.0</ele>
        <time>1970-01-01T08:10:20.626Z</time>
    </trkpt>
    <trkpt lat="56.453624" lon="60.736843">
        <ele>269.0</ele>
        <time>1970-01-01T08:10:21.626Z</time>
    </trkpt>
    <trkpt lat="56.453584" lon="60.736851">
        <ele>269.1</ele>
        <time>1970-01-01T08:10:22.626Z</time>
    </trkpt>
    <trkpt lat="56.453532" lon="60.736861">
        <ele>270.1</ele>
        <time>1970-01-01T08:10:23.626Z</time>
    </trkpt>
    <trkpt lat="56.453485" lon="60.736869">
        <ele>270.1</ele>
        <time>1970-01-01T08:10:24.626Z</time>
    </trkpt>
    <trkpt lat="56.453432" lon="60.736859">
        <ele>270.1</ele>
        <time>1970-01-01T08:10:25.626Z</time>
    </trkpt>
    <trkpt lat="56.453389" lon="60.736854">
        <ele>270.1</ele>
        <time>1970-01-01T08:10:26.626Z</time>
    </trkpt>
    <trkpt lat="56.453335" lon="60.736854">
        <ele>271.1</ele>
        <time>1970-01-01T08:10:27.626Z</time>
    </trkpt>
    <trkpt lat="56.453297" lon="60.736849">
        <ele>271.1</ele>
        <time>1970-01-01T08:10:28.626Z</time>
    </trkpt>
    <trkpt lat="56.453257" lon="60.736844">
        <ele>272.1</ele>
        <time>1970-01-01T08:10:29.626Z</time>
    </trkpt>
    <trkpt lat="56.453207" lon="60.736853">
        <ele>272.1</ele>
        <time>1970-01-01T08:10:30.626Z</time>
    </trkpt>
    <trkpt lat="56.453156" lon="60.736846">
        <ele>273.1</ele>
        <time>1970-01-01T08:10:31.626Z</time>
    </trkpt>
    <trkpt lat="56.453092" lon="60.736827">
        <ele>274.1</ele>
        <time>1970-01-01T08:10:32.626Z</time>
    </trkpt>
    <trkpt lat="56.453019" lon="60.73682">
        <ele>274.1</ele>
        <time>1970-01-01T08:10:33.626Z</time>
    </trkpt>
    <trkpt lat="56.452959" lon="60.736819">
        <ele>275.1</ele>
        <time>1970-01-01T08:10:34.626Z</time>
    </trkpt>
    <trkpt lat="56.452918" lon="60.736793">
        <ele>275.1</ele>
        <time>1970-01-01T08:10:35.626Z</time>
    </trkpt>
    <trkpt lat="56.452863" lon="60.736783">
        <ele>276.1</ele>
        <time>1970-01-01T08:10:36.626Z</time>
    </trkpt>
    <trkpt lat="56.452811" lon="60.736768">
        <ele>277.1</ele>
        <time>1970-01-01T08:10:37.626Z</time>
    </trkpt>
    <trkpt lat="56.452767" lon="60.736726">
        <ele>277.1</ele>
        <time>1970-01-01T08:10:38.626Z</time>
    </trkpt>
    <trkpt lat="56.452713" lon="60.7367">
        <ele>278.1</ele>
        <time>1970-01-01T08:10:39.626Z</time>
    </trkpt>
    <trkpt lat="56.452672" lon="60.736681">
        <ele>278.1</ele>
        <time>1970-01-01T08:10:40.626Z</time>
    </trkpt>
    <trkpt lat="56.452625" lon="60.736661">
        <ele>279.1</ele>
        <time>1970-01-01T08:10:41.626Z</time>
    </trkpt>
    <trkpt lat="56.452561" lon="60.73663">
        <ele>279.1</ele>
        <time>1970-01-01T08:10:42.626Z</time>
    </trkpt>
    <trkpt lat="56.452512" lon="60.73661">
        <ele>280.1</ele>
        <time>1970-01-01T08:10:43.626Z</time>
    </trkpt>
    <trkpt lat="56.452451" lon="60.73658">
        <ele>280.1</ele>
        <time>1970-01-01T08:10:44.626Z</time>
    </trkpt>
    <trkpt lat="56.452396" lon="60.736571">
        <ele>281.1</ele>
        <time>1970-01-01T08:10:45.626Z</time>
    </trkpt>
    <trkpt lat="56.452331" lon="60.736541">
        <ele>282.1</ele>
        <time>1970-01-01T08:10:46.626Z</time>
    </trkpt>
    <trkpt lat="56.452259" lon="60.736496">
        <ele>282.1</ele>
        <time>1970-01-01T08:10:47.626Z</time>
    </trkpt>
    <trkpt lat="56.452198" lon="60.73646">
        <ele>283.1</ele>
        <time>1970-01-01T08:10:48.626Z</time>
    </trkpt>
    <trkpt lat="56.452138" lon="60.736439">
        <ele>283.1</ele>
        <time>1970-01-01T08:10:49.626Z</time>
    </trkpt>
    <trkpt lat="56.452099" lon="60.736429">
        <ele>283.1</ele>
        <time>1970-01-01T08:10:50.626Z</time>
    </trkpt>
    <trkpt lat="56.452043" lon="60.736384">
        <ele>284.2</ele>
        <time>1970-01-01T08:10:51.626Z</time>
    </trkpt>
    <trkpt lat="56.451979" lon="60.736349">
        <ele>285.2</ele>
        <time>1970-01-01T08:10:52.626Z</time>
    </trkpt>
    <trkpt lat="56.45192" lon="60.73633">
        <ele>285.2</ele>
        <time>1970-01-01T08:10:53.626Z</time>
    </trkpt>
    <trkpt lat="56.451865" lon="60.736293">
        <ele>286.2</ele>
        <time>1970-01-01T08:10:54.626Z</time>
    </trkpt>
    <trkpt lat="56.451812" lon="60.736254">
        <ele>286.2</ele>
        <time>1970-01-01T08:10:55.626Z</time>
    </trkpt>
    <trkpt lat="56.451746" lon="60.736219">
        <ele>286.2</ele>
        <time>1970-01-01T08:10:56.626Z</time>
    </trkpt>
    <trkpt lat="56.451704" lon="60.736179">
        <ele>287.2</ele>
        <time>1970-01-01T08:10:57.626Z</time>
    </trkpt>
    <trkpt lat="56.451649" lon="60.736132">
        <ele>287.2</ele>
        <time>1970-01-01T08:10:58.626Z</time>
    </trkpt>
    <trkpt lat="56.451582" lon="60.736076">
        <ele>288.2</ele>
        <time>1970-01-01T08:10:59.626Z</time>
    </trkpt>
    <trkpt lat="56.451513" lon="60.736032">
        <ele>288.2</ele>
        <time>1970-01-01T08:11:00.626Z</time>
    </trkpt>
    <trkpt lat="56.451457" lon="60.735995">
        <ele>289.2</ele>
        <time>1970-01-01T08:11:01.626Z</time>
    </trkpt>
    <trkpt lat="56.451424" lon="60.735962">
        <ele>289.2</ele>
        <time>1970-01-01T08:11:02.626Z</time>
    </trkpt>
    <trkpt lat="56.451386" lon="60.735925">
        <ele>290.2</ele>
        <time>1970-01-01T08:11:03.626Z</time>
    </trkpt>
    <trkpt lat="56.451331" lon="60.735881">
        <ele>290.2</ele>
        <time>1970-01-01T08:11:04.626Z</time>
    </trkpt>
    <trkpt lat="56.451269" lon="60.735846">
        <ele>291.2</ele>
        <time>1970-01-01T08:11:05.626Z</time>
    </trkpt>
    <trkpt lat="56.45123" lon="60.735817">
        <ele>291.2</ele>
        <time>1970-01-01T08:11:06.626Z</time>
    </trkpt>
    <trkpt lat="56.451182" lon="60.735801">
        <ele>293.2</ele>
        <time>1970-01-01T08:11:07.626Z</time>
    </trkpt>
    <trkpt lat="56.451133" lon="60.735766">
        <ele>293.2</ele>
        <time>1970-01-01T08:11:08.626Z</time>
    </trkpt>
    <trkpt lat="56.451079" lon="60.735752">
        <ele>294.2</ele>
        <time>1970-01-01T08:11:09.626Z</time>
    </trkpt>
    <trkpt lat="56.451026" lon="60.735717">
        <ele>294.2</ele>
        <time>1970-01-01T08:11:10.626Z</time>
    </trkpt>
    <trkpt lat="56.450986" lon="60.735712">
        <ele>295.2</ele>
        <time>1970-01-01T08:11:11.626Z</time>
    </trkpt>
    <trkpt lat="56.450929" lon="60.735685">
        <ele>295.2</ele>
        <time>1970-01-01T08:11:12.626Z</time>
    </trkpt>
    <trkpt lat="56.450873" lon="60.735654">
        <ele>297.2</ele>
        <time>1970-01-01T08:11:13.626Z</time>
    </trkpt>
    <trkpt lat="56.450811" lon="60.735631">
        <ele>298.2</ele>
        <time>1970-01-01T08:11:14.626Z</time>
    </trkpt>
    <trkpt lat="56.45076" lon="60.735605">
        <ele>298.2</ele>
        <time>1970-01-01T08:11:15.626Z</time>
    </trkpt>
    <trkpt lat="56.450702" lon="60.735578">
        <ele>298.2</ele>
        <time>1970-01-01T08:11:16.626Z</time>
    </trkpt>
    <trkpt lat="56.450652" lon="60.735548">
        <ele>298.2</ele>
        <time>1970-01-01T08:11:17.626Z</time>
    </trkpt>
    <trkpt lat="56.450587" lon="60.735514">
        <ele>299.2</ele>
        <time>1970-01-01T08:11:18.626Z</time>
    </trkpt>
    <trkpt lat="56.450516" lon="60.735473">
        <ele>299.2</ele>
        <time>1970-01-01T08:11:19.626Z</time>
    </trkpt>
    <trkpt lat="56.450457" lon="60.735428">
        <ele>299.3</ele>
        <time>1970-01-01T08:11:20.626Z</time>
    </trkpt>
    <trkpt lat="56.4504" lon="60.735376">
        <ele>300.3</ele>
        <time>1970-01-01T08:11:21.626Z</time>
    </trkpt>
    <trkpt lat="56.450346" lon="60.735293">
        <ele>300.3</ele>
        <time>1970-01-01T08:11:22.626Z</time>
    </trkpt>
    <trkpt lat="56.45029" lon="60.73522">
        <ele>300.3</ele>
        <time>1970-01-01T08:11:23.626Z</time>
    </trkpt>
    <trkpt lat="56.450239" lon="60.73515">
        <ele>301.3</ele>
        <time>1970-01-01T08:11:24.626Z</time>
    </trkpt>
    <trkpt lat="56.450184" lon="60.735103">
        <ele>301.3</ele>
        <time>1970-01-01T08:11:25.626Z</time>
    </trkpt>
    <trkpt lat="56.450131" lon="60.735062">
        <ele>301.3</ele>
        <time>1970-01-01T08:11:26.626Z</time>
    </trkpt>
    <trkpt lat="56.450059" lon="60.735033">
        <ele>302.3</ele>
        <time>1970-01-01T08:11:27.626Z</time>
    </trkpt>
    <trkpt lat="56.450004" lon="60.735005">
        <ele>302.3</ele>
        <time>1970-01-01T08:11:28.626Z</time>
    </trkpt>
    <trkpt lat="56.449952" lon="60.734964">
        <ele>302.3</ele>
        <time>1970-01-01T08:11:29.626Z</time>
    </trkpt>
    <trkpt lat="56.449892" lon="60.734927">
        <ele>302.3</ele>
        <time>1970-01-01T08:11:30.626Z</time>
    </trkpt>
    <trkpt lat="56.449845" lon="60.734878">
        <ele>303.3</ele>
        <time>1970-01-01T08:11:31.626Z</time>
    </trkpt>
    <trkpt lat="56.44981" lon="60.734811">
        <ele>302.3</ele>
        <time>1970-01-01T08:11:32.626Z</time>
    </trkpt>
    <trkpt lat="56.449775" lon="60.734774">
        <ele>302.3</ele>
        <time>1970-01-01T08:11:33.626Z</time>
    </trkpt>
    <trkpt lat="56.449726" lon="60.734737">
        <ele>302.3</ele>
        <time>1970-01-01T08:11:34.626Z</time>
    </trkpt>
    <trkpt lat="56.449686" lon="60.734673">
        <ele>302.3</ele>
        <time>1970-01-01T08:11:35.626Z</time>
    </trkpt>
    <trkpt lat="56.44963" lon="60.734638">
        <ele>301.3</ele>
        <time>1970-01-01T08:11:36.626Z</time>
    </trkpt>
    <trkpt lat="56.449581" lon="60.734582">
        <ele>300.3</ele>
        <time>1970-01-01T08:11:37.626Z</time>
    </trkpt>
    <trkpt lat="56.449528" lon="60.73454">
        <ele>300.3</ele>
        <time>1970-01-01T08:11:38.626Z</time>
    </trkpt>
    <trkpt lat="56.449488" lon="60.734487">
        <ele>300.3</ele>
        <time>1970-01-01T08:11:39.626Z</time>
    </trkpt>
    <trkpt lat="56.44945" lon="60.734447">
        <ele>298.3</ele>
        <time>1970-01-01T08:11:40.626Z</time>
    </trkpt>
    <trkpt lat="56.449411" lon="60.734394">
        <ele>298.3</ele>
        <time>1970-01-01T08:11:41.626Z</time>
    </trkpt>
    <trkpt lat="56.449372" lon="60.734349">
        <ele>297.3</ele>
        <time>1970-01-01T08:11:43.626Z</time>
    </trkpt>
    <trkpt lat="56.449324" lon="60.734322">
        <ele>297.3</ele>
        <time>1970-01-01T08:11:44.626Z</time>
    </trkpt>
    <trkpt lat="56.449277" lon="60.734293">
        <ele>294.3</ele>
        <time>1970-01-01T08:11:45.626Z</time>
    </trkpt>
    <trkpt lat="56.449232" lon="60.734288">
        <ele>294.3</ele>
        <time>1970-01-01T08:11:46.626Z</time>
    </trkpt>
    <trkpt lat="56.449187" lon="60.734288">
        <ele>293.3</ele>
        <time>1970-01-01T08:11:47.626Z</time>
    </trkpt>
    <trkpt lat="56.449133" lon="60.734303">
        <ele>293.3</ele>
        <time>1970-01-01T08:11:48.626Z</time>
    </trkpt>
    <trkpt lat="56.449094" lon="60.734314">
        <ele>293.3</ele>
        <time>1970-01-01T08:11:49.626Z</time>
    </trkpt>
    <trkpt lat="56.449051" lon="60.734333">
        <ele>293.4</ele>
        <time>1970-01-01T08:11:50.626Z</time>
    </trkpt>
    <trkpt lat="56.449035" lon="60.734346">
        <ele>293.4</ele>
        <time>1970-01-01T08:11:51.626Z</time>
    </trkpt>
    <trkpt lat="56.448999" lon="60.734385">
        <ele>296.7</ele>
        <time>1970-01-01T08:11:54.378Z</time>
    </trkpt>
    <trkpt lat="56.44884758794988" lon="60.734713696603784">
        <ele>297.3</ele>
        <time>1970-01-01T08:12:09.890Z</time>
    </trkpt>
    <trkpt lat="56.448696175296384" lon="60.73504239320756">
        <ele>298.7</ele>
        <time>1970-01-01T08:12:25.402Z</time>
    </trkpt>
    <trkpt lat="56.44837058904312" lon="60.73508369660379">
        <ele>296.1</ele>
        <time>1970-01-01T08:12:46.811Z</time>
    </trkpt>
    <trkpt lat="56.44804500000001" lon="60.735125000000004">
        <ele>296.9</ele>
        <time>1970-01-01T08:13:08.220Z</time>
    </trkpt>
    <trkpt lat="56.448046" lon="60.73513">
        <ele>297.7</ele>
        <time>1970-01-01T08:13:08.412Z</time>
    </trkpt>
    <trkpt lat="56.448035" lon="60.735142">
        <ele>297.7</ele>
        <time>1970-01-01T08:13:09.412Z</time>
    </trkpt>
    <trkpt lat="56.448025" lon="60.735152">
        <ele>297.8</ele>
        <time>1970-01-01T08:13:10.412Z</time>
    </trkpt>
    <trkpt lat="56.448013" lon="60.735166">
        <ele>297.8</ele>
        <time>1970-01-01T08:13:11.412Z</time>
    </trkpt>
    <trkpt lat="56.447994" lon="60.735181">
        <ele>297.9</ele>
        <time>1970-01-01T08:13:12.412Z</time>
    </trkpt>
    <trkpt lat="56.447983" lon="60.735188">
        <ele>297.9</ele>
        <time>1970-01-01T08:13:13.412Z</time>
    </trkpt>
    <trkpt lat="56.447952" lon="60.735224">
        <ele>298.0</ele>
        <time>1970-01-01T08:13:14.412Z</time>
    </trkpt>
    <trkpt lat="56.447924" lon="60.735242">
        <ele>298.1</ele>
        <time>1970-01-01T08:13:15.412Z</time>
    </trkpt>
    <trkpt lat="56.447895" lon="60.735255">
        <ele>298.2</ele>
        <time>1970-01-01T08:13:16.412Z</time>
    </trkpt>
    <trkpt lat="56.44788" lon="60.735259">
        <ele>298.2</ele>
        <time>1970-01-01T08:13:17.412Z</time>
    </trkpt>
    <trkpt lat="56.447843" lon="60.73528">
        <ele>298.3</ele>
        <time>1970-01-01T08:13:18.412Z</time>
    </trkpt>
    <trkpt lat="56.447812" lon="60.735287">
        <ele>298.4</ele>
        <time>1970-01-01T08:13:19.412Z</time>
    </trkpt>
    <trkpt lat="56.4478" lon="60.735295">
        <ele>298.5</ele>
        <time>1970-01-01T08:13:20.412Z</time>
    </trkpt>
    <trkpt lat="56.447766" lon="60.735318">
        <ele>298.6</ele>
        <time>1970-01-01T08:13:21.412Z</time>
    </trkpt>
    <trkpt lat="56.447754" lon="60.735323">
        <ele>298.6</ele>
        <time>1970-01-01T08:13:22.412Z</time>
    </trkpt>
    <trkpt lat="56.447717" lon="60.735329">
        <ele>298.7</ele>
        <time>1970-01-01T08:13:23.412Z</time>
    </trkpt>
    <trkpt lat="56.447702" lon="60.735334">
        <ele>298.7</ele>
        <time>1970-01-01T08:13:24.412Z</time>
    </trkpt>
    <trkpt lat="56.447664" lon="60.735357">
        <ele>298.7</ele>
        <time>1970-01-01T08:13:25.412Z</time>
    </trkpt>
    <trkpt lat="56.447652" lon="60.735366">
        <ele>298.8</ele>
        <time>1970-01-01T08:13:26.412Z</time>
    </trkpt>
    <trkpt lat="56.447617" lon="60.735381">
        <ele>298.8</ele>
        <time>1970-01-01T08:13:27.412Z</time>
    </trkpt>
    <trkpt lat="56.447607" lon="60.735387">
        <ele>298.8</ele>
        <time>1970-01-01T08:13:28.412Z</time>
    </trkpt>
    <trkpt lat="56.447579" lon="60.73541">
        <ele>298.8</ele>
        <time>1970-01-01T08:13:29.412Z</time>
    </trkpt>
    <trkpt lat="56.44755" lon="60.735425">
        <ele>298.9</ele>
        <time>1970-01-01T08:13:30.412Z</time>
    </trkpt>
    <trkpt lat="56.447537" lon="60.735433">
        <ele>298.9</ele>
        <time>1970-01-01T08:13:31.412Z</time>
    </trkpt>
    <trkpt lat="56.447505" lon="60.735457">
        <ele>298.9</ele>
        <time>1970-01-01T08:13:32.412Z</time>
    </trkpt>
    <trkpt lat="56.447487" lon="60.735463">
        <ele>298.9</ele>
        <time>1970-01-01T08:13:33.412Z</time>
    </trkpt>
    <trkpt lat="56.447473" lon="60.735486">
        <ele>298.8</ele>
        <time>1970-01-01T08:13:34.412Z</time>
    </trkpt>
    <trkpt lat="56.447462" lon="60.735494">
        <ele>298.8</ele>
        <time>1970-01-01T08:13:35.412Z</time>
    </trkpt>
    <trkpt lat="56.447431" lon="60.735515">
        <ele>298.8</ele>
        <time>1970-01-01T08:13:36.412Z</time>
    </trkpt>
    <trkpt lat="56.447386" lon="60.735525">
        <ele>298.7</ele>
        <time>1970-01-01T08:13:37.412Z</time>
    </trkpt>
    <trkpt lat="56.447368" lon="60.735542">
        <ele>298.7</ele>
        <time>1970-01-01T08:13:38.412Z</time>
    </trkpt>
    <trkpt lat="56.447354" lon="60.735548">
        <ele>298.7</ele>
        <time>1970-01-01T08:13:39.412Z</time>
    </trkpt>
    <trkpt lat="56.447346" lon="60.735552">
        <ele>298.6</ele>
        <time>1970-01-01T08:13:40.412Z</time>
    </trkpt>
    <trkpt lat="56.44732" lon="60.73557">
        <ele>298.6</ele>
        <time>1970-01-01T08:13:41.412Z</time>
    </trkpt>
    <trkpt lat="56.447309" lon="60.735575">
        <ele>298.6</ele>
        <time>1970-01-01T08:13:42.412Z</time>
    </trkpt>
    <trkpt lat="56.447283" lon="60.735582">
        <ele>298.5</ele>
        <time>1970-01-01T08:13:43.412Z</time>
    </trkpt>
    <trkpt lat="56.447272" lon="60.735594">
        <ele>298.5</ele>
        <time>1970-01-01T08:13:44.412Z</time>
    </trkpt>
    <trkpt lat="56.447254" lon="60.735594">
        <ele>298.5</ele>
        <time>1970-01-01T08:13:45.412Z</time>
    </trkpt>
    <trkpt lat="56.447262" lon="60.735584">
        <ele>298.5</ele>
        <time>1970-01-01T08:13:46.412Z</time>
    </trkpt>
    <trkpt lat="56.447252" lon="60.735589">
        <ele>298.4</ele>
        <time>1970-01-01T08:13:47.412Z</time>
    </trkpt>
    <trkpt lat="56.44724" lon="60.735596">
        <ele>298.4</ele>
        <time>1970-01-01T08:13:48.412Z</time>
    </trkpt>
    <trkpt lat="56.447225" lon="60.735606">
        <ele>298.4</ele>
        <time>1970-01-01T08:13:49.412Z</time>
    </trkpt>
    <trkpt lat="56.447212" lon="60.73561">
        <ele>298.4</ele>
        <time>1970-01-01T08:13:51.412Z</time>
    </trkpt>
    <trkpt lat="56.447201" lon="60.735614">
        <ele>298.3</ele>
        <time>1970-01-01T08:13:52.412Z</time>
    </trkpt>
    <trkpt lat="56.44719" lon="60.735623">
        <ele>298.3</ele>
        <time>1970-01-01T08:13:53.412Z</time>
    </trkpt>
    <trkpt lat="56.447182" lon="60.735628">
        <ele>298.3</ele>
        <time>1970-01-01T08:13:54.412Z</time>
    </trkpt>
    <trkpt lat="56.447174" lon="60.735633">
        <ele>298.3</ele>
        <time>1970-01-01T08:13:55.412Z</time>
    </trkpt>
    <trkpt lat="56.447155" lon="60.735645">
        <ele>298.2</ele>
        <time>1970-01-01T08:13:56.412Z</time>
    </trkpt>
    <trkpt lat="56.447143" lon="60.735655">
        <ele>298.2</ele>
        <time>1970-01-01T08:13:57.412Z</time>
    </trkpt>
    <trkpt lat="56.447135" lon="60.735661">
        <ele>298.2</ele>
        <time>1970-01-01T08:13:58.412Z</time>
    </trkpt>
    <trkpt lat="56.447123" lon="60.735673">
        <ele>298.1</ele>
        <time>1970-01-01T08:13:59.412Z</time>
    </trkpt>
    <trkpt lat="56.447116" lon="60.735679">
        <ele>298.1</ele>
        <time>1970-01-01T08:14:00.412Z</time>
    </trkpt>
    <trkpt lat="56.447109" lon="60.735684">
        <ele>298.1</ele>
        <time>1970-01-01T08:14:01.412Z</time>
    </trkpt>
    <trkpt lat="56.447089" lon="60.735701">
        <ele>298.0</ele>
        <time>1970-01-01T08:14:02.412Z</time>
    </trkpt>
    <trkpt lat="56.447079" lon="60.735713">
        <ele>298.0</ele>
        <time>1970-01-01T08:14:03.412Z</time>
    </trkpt>
    <trkpt lat="56.447069" lon="60.735716">
        <ele>297.9</ele>
        <time>1970-01-01T08:14:04.412Z</time>
    </trkpt>
    <trkpt lat="56.447057" lon="60.735721">
        <ele>297.9</ele>
        <time>1970-01-01T08:14:05.412Z</time>
    </trkpt>
    <trkpt lat="56.447051" lon="60.735728">
        <ele>297.9</ele>
        <time>1970-01-01T08:14:06.412Z</time>
    </trkpt>
    <trkpt lat="56.447044" lon="60.735734">
        <ele>297.8</ele>
        <time>1970-01-01T08:14:07.412Z</time>
    </trkpt>
    <trkpt lat="56.447026" lon="60.735755">
        <ele>297.7</ele>
        <time>1970-01-01T08:14:08.412Z</time>
    </trkpt>
    <trkpt lat="56.447018" lon="60.735759">
        <ele>297.7</ele>
        <time>1970-01-01T08:14:09.412Z</time>
    </trkpt>
    <trkpt lat="56.44701" lon="60.735764">
        <ele>297.7</ele>
        <time>1970-01-01T08:14:10.412Z</time>
    </trkpt>
    <trkpt lat="56.447002" lon="60.735764">
        <ele>297.6</ele>
        <time>1970-01-01T08:14:11.412Z</time>
    </trkpt>
    <trkpt lat="56.446994" lon="60.735774">
        <ele>297.6</ele>
        <time>1970-01-01T08:14:12.412Z</time>
    </trkpt>
    <trkpt lat="56.446986" lon="60.73578">
        <ele>297.5</ele>
        <time>1970-01-01T08:14:13.412Z</time>
    </trkpt>
    <trkpt lat="56.446977" lon="60.735791">
        <ele>297.5</ele>
        <time>1970-01-01T08:14:14.412Z</time>
    </trkpt>
    <trkpt lat="56.446968" lon="60.735802">
        <ele>297.4</ele>
        <time>1970-01-01T08:14:15.412Z</time>
    </trkpt>
    <trkpt lat="56.44696" lon="60.735811">
        <ele>297.4</ele>
        <time>1970-01-01T08:14:16.412Z</time>
    </trkpt>
    <trkpt lat="56.446946" lon="60.735817">
        <ele>297.3</ele>
        <time>1970-01-01T08:14:17.412Z</time>
    </trkpt>
    <trkpt lat="56.446935" lon="60.735816">
        <ele>297.2</ele>
        <time>1970-01-01T08:14:18.412Z</time>
    </trkpt>
    <trkpt lat="56.446927" lon="60.735821">
        <ele>297.1</ele>
        <time>1970-01-01T08:14:19.412Z</time>
    </trkpt>
    <trkpt lat="56.446918" lon="60.735827">
        <ele>297.1</ele>
        <time>1970-01-01T08:14:20.412Z</time>
    </trkpt>
    <trkpt lat="56.446898" lon="60.735845">
        <ele>296.9</ele>
        <time>1970-01-01T08:14:21.412Z</time>
    </trkpt>
    <trkpt lat="56.446885" lon="60.735849">
        <ele>296.8</ele>
        <time>1970-01-01T08:14:22.412Z</time>
    </trkpt>
    <trkpt lat="56.446875" lon="60.735859">
        <ele>296.7</ele>
        <time>1970-01-01T08:14:23.412Z</time>
    </trkpt>
    <trkpt lat="56.446864" lon="60.735866">
        <ele>296.6</ele>
        <time>1970-01-01T08:14:24.412Z</time>
    </trkpt>
    <trkpt lat="56.446857" lon="60.735869">
        <ele>296.6</ele>
        <time>1970-01-01T08:14:25.412Z</time>
    </trkpt>
    <trkpt lat="56.446824" lon="60.735883">
        <ele>296.3</ele>
        <time>1970-01-01T08:14:26.412Z</time>
    </trkpt>
    <trkpt lat="56.446814" lon="60.735885">
        <ele>296.2</ele>
        <time>1970-01-01T08:14:27.412Z</time>
    </trkpt>
    <trkpt lat="56.446804" lon="60.735888">
        <ele>296.1</ele>
        <time>1970-01-01T08:14:28.412Z</time>
    </trkpt>
    <trkpt lat="56.44678" lon="60.735894">
        <ele>295.9</ele>
        <time>1970-01-01T08:14:29.412Z</time>
    </trkpt>
    <trkpt lat="56.446769" lon="60.735911">
        <ele>295.7</ele>
        <time>1970-01-01T08:14:30.412Z</time>
    </trkpt>
    <trkpt lat="56.446758" lon="60.735915">
        <ele>295.6</ele>
        <time>1970-01-01T08:14:31.412Z</time>
    </trkpt>
    <trkpt lat="56.446749" lon="60.735915">
        <ele>295.5</ele>
        <time>1970-01-01T08:14:32.412Z</time>
    </trkpt>
    <trkpt lat="56.446732" lon="60.735915">
        <ele>295.4</ele>
        <time>1970-01-01T08:14:33.412Z</time>
    </trkpt>
    <trkpt lat="56.44672" lon="60.735932">
        <ele>295.2</ele>
        <time>1970-01-01T08:14:34.412Z</time>
    </trkpt>
    <trkpt lat="56.446712" lon="60.735936">
        <ele>295.1</ele>
        <time>1970-01-01T08:14:35.412Z</time>
    </trkpt>
    <trkpt lat="56.446704" lon="60.735941">
        <ele>295.0</ele>
        <time>1970-01-01T08:14:36.412Z</time>
    </trkpt>
    <trkpt lat="56.446685" lon="60.735953">
        <ele>294.8</ele>
        <time>1970-01-01T08:14:37.412Z</time>
    </trkpt>
    <trkpt lat="56.446677" lon="60.735959">
        <ele>294.7</ele>
        <time>1970-01-01T08:14:38.412Z</time>
    </trkpt>
    <trkpt lat="56.446669" lon="60.735965">
        <ele>294.7</ele>
        <time>1970-01-01T08:14:39.412Z</time>
    </trkpt>
    <trkpt lat="56.446649" lon="60.735974">
        <ele>294.4</ele>
        <time>1970-01-01T08:14:40.412Z</time>
    </trkpt>
    <trkpt lat="56.446636" lon="60.735973">
        <ele>294.3</ele>
        <time>1970-01-01T08:14:41.412Z</time>
    </trkpt>
    <trkpt lat="56.446629" lon="60.735983">
        <ele>294.2</ele>
        <time>1970-01-01T08:14:42.412Z</time>
    </trkpt>
    <trkpt lat="56.446621" lon="60.735993">
        <ele>294.1</ele>
        <time>1970-01-01T08:14:43.412Z</time>
    </trkpt>
    <trkpt lat="56.446613" lon="60.736015">
        <ele>294.0</ele>
        <time>1970-01-01T08:14:44.412Z</time>
    </trkpt>
    <trkpt lat="56.446603" lon="60.736033">
        <ele>293.9</ele>
        <time>1970-01-01T08:14:45.412Z</time>
    </trkpt>
    <trkpt lat="56.446595" lon="60.736035">
        <ele>293.8</ele>
        <time>1970-01-01T08:14:46.412Z</time>
    </trkpt>
    <trkpt lat="56.446587" lon="60.736036">
        <ele>293.8</ele>
        <time>1970-01-01T08:14:47.412Z</time>
    </trkpt>
    <trkpt lat="56.446568" lon="60.736047">
        <ele>293.6</ele>
        <time>1970-01-01T08:14:48.412Z</time>
    </trkpt>
    <trkpt lat="56.446557" lon="60.736057">
        <ele>293.5</ele>
        <time>1970-01-01T08:14:49.412Z</time>
    </trkpt>
    <trkpt lat="56.446542" lon="60.736067">
        <ele>293.4</ele>
        <time>1970-01-01T08:14:50.412Z</time>
    </trkpt>
    <trkpt lat="56.446524" lon="60.736081">
        <ele>293.2</ele>
        <time>1970-01-01T08:14:51.412Z</time>
    </trkpt>
    <trkpt lat="56.446515" lon="60.736094">
        <ele>293.2</ele>
        <time>1970-01-01T08:14:52.412Z</time>
    </trkpt>
    <trkpt lat="56.446502" lon="60.736107">
        <ele>293.1</ele>
        <time>1970-01-01T08:14:53.412Z</time>
    </trkpt>
    <trkpt lat="56.446492" lon="60.736121">
        <ele>293.0</ele>
        <time>1970-01-01T08:14:54.412Z</time>
    </trkpt>
    <trkpt lat="56.446485" lon="60.736126">
        <ele>292.9</ele>
        <time>1970-01-01T08:14:55.412Z</time>
    </trkpt>
    <trkpt lat="56.446478" lon="60.736131">
        <ele>292.9</ele>
        <time>1970-01-01T08:14:56.412Z</time>
    </trkpt>
    <trkpt lat="56.446457" lon="60.736148">
        <ele>292.8</ele>
        <time>1970-01-01T08:14:57.412Z</time>
    </trkpt>
    <trkpt lat="56.446448" lon="60.736157">
        <ele>292.7</ele>
        <time>1970-01-01T08:14:58.412Z</time>
    </trkpt>
    <trkpt lat="56.44644" lon="60.736168">
        <ele>292.7</ele>
        <time>1970-01-01T08:14:59.412Z</time>
    </trkpt>
    <trkpt lat="56.446427" lon="60.736178">
        <ele>292.6</ele>
        <time>1970-01-01T08:15:00.412Z</time>
    </trkpt>
    <trkpt lat="56.446419" lon="60.736182">
        <ele>292.5</ele>
        <time>1970-01-01T08:15:01.412Z</time>
    </trkpt>
    <trkpt lat="56.446411" lon="60.736187">
        <ele>292.5</ele>
        <time>1970-01-01T08:15:02.412Z</time>
    </trkpt>
    <trkpt lat="56.446389" lon="60.736195">
        <ele>292.4</ele>
        <time>1970-01-01T08:15:03.412Z</time>
    </trkpt>
    <trkpt lat="56.446382" lon="60.736203">
        <ele>292.4</ele>
        <time>1970-01-01T08:15:04.412Z</time>
    </trkpt>
    <trkpt lat="56.446374" lon="60.736212">
        <ele>292.3</ele>
        <time>1970-01-01T08:15:05.412Z</time>
    </trkpt>
    <trkpt lat="56.446354" lon="60.736223">
        <ele>292.2</ele>
        <time>1970-01-01T08:15:06.412Z</time>
    </trkpt>
    <trkpt lat="56.446346" lon="60.73623">
        <ele>292.2</ele>
        <time>1970-01-01T08:15:07.412Z</time>
    </trkpt>
    <trkpt lat="56.446336" lon="60.736238">
        <ele>292.1</ele>
        <time>1970-01-01T08:15:08.412Z</time>
    </trkpt>
    <trkpt lat="56.446324" lon="60.736247">
        <ele>292.1</ele>
        <time>1970-01-01T08:15:09.412Z</time>
    </trkpt>
    <trkpt lat="56.446311" lon="60.736251">
        <ele>292.0</ele>
        <time>1970-01-01T08:15:10.412Z</time>
    </trkpt>
    <trkpt lat="56.446297" lon="60.736259">
        <ele>291.9</ele>
        <time>1970-01-01T08:15:11.412Z</time>
    </trkpt>
    <trkpt lat="56.446284" lon="60.736273">
        <ele>291.9</ele>
        <time>1970-01-01T08:15:12.412Z</time>
    </trkpt>
    <trkpt lat="56.44627" lon="60.736281">
        <ele>291.8</ele>
        <time>1970-01-01T08:15:13.412Z</time>
    </trkpt>
    <trkpt lat="56.44626" lon="60.736291">
        <ele>291.7</ele>
        <time>1970-01-01T08:15:14.412Z</time>
    </trkpt>
    <trkpt lat="56.446253" lon="60.736302">
        <ele>291.7</ele>
        <time>1970-01-01T08:15:15.412Z</time>
    </trkpt>
    <trkpt lat="56.446244" lon="60.736304">
        <ele>291.6</ele>
        <time>1970-01-01T08:15:16.412Z</time>
    </trkpt>
    <trkpt lat="56.446236" lon="60.736309">
        <ele>291.6</ele>
        <time>1970-01-01T08:15:17.412Z</time>
    </trkpt>
    <trkpt lat="56.446227" lon="60.736315">
        <ele>291.5</ele>
        <time>1970-01-01T08:15:18.412Z</time>
    </trkpt>
    <trkpt lat="56.446209" lon="60.736331">
        <ele>291.4</ele>
        <time>1970-01-01T08:15:19.412Z</time>
    </trkpt>
    <trkpt lat="56.446202" lon="60.736336">
        <ele>291.3</ele>
        <time>1970-01-01T08:15:20.412Z</time>
    </trkpt>
    <trkpt lat="56.446195" lon="60.73634">
        <ele>291.3</ele>
        <time>1970-01-01T08:15:21.412Z</time>
    </trkpt>
    <trkpt lat="56.446174" lon="60.736356">
        <ele>291.1</ele>
        <time>1970-01-01T08:15:22.412Z</time>
    </trkpt>
    <trkpt lat="56.446169" lon="60.736363">
        <ele>291.1</ele>
        <time>1970-01-01T08:15:23.412Z</time>
    </trkpt>
    <trkpt lat="56.446161" lon="60.736375">
        <ele>291.0</ele>
        <time>1970-01-01T08:15:24.412Z</time>
    </trkpt>
    <trkpt lat="56.44615" lon="60.736379">
        <ele>290.9</ele>
        <time>1970-01-01T08:15:25.412Z</time>
    </trkpt>
    <trkpt lat="56.446136" lon="60.736382">
        <ele>290.8</ele>
        <time>1970-01-01T08:15:26.412Z</time>
    </trkpt>
    <trkpt lat="56.446127" lon="60.736386">
        <ele>290.7</ele>
        <time>1970-01-01T08:15:27.412Z</time>
    </trkpt>
    <trkpt lat="56.446118" lon="60.736388">
        <ele>290.7</ele>
        <time>1970-01-01T08:15:28.412Z</time>
    </trkpt>
    <trkpt lat="56.446104" lon="60.736386">
        <ele>290.6</ele>
        <time>1970-01-01T08:15:29.412Z</time>
    </trkpt>
    <trkpt lat="56.44609" lon="60.736386">
        <ele>290.5</ele>
        <time>1970-01-01T08:15:30.412Z</time>
    </trkpt>
    <trkpt lat="56.446083" lon="60.736391">
        <ele>290.4</ele>
        <time>1970-01-01T08:15:31.412Z</time>
    </trkpt>
    <trkpt lat="56.446072" lon="60.736394">
        <ele>290.3</ele>
        <time>1970-01-01T08:15:32.412Z</time>
    </trkpt>
    <trkpt lat="56.446057" lon="60.736395">
        <ele>290.2</ele>
        <time>1970-01-01T08:15:33.412Z</time>
    </trkpt>
    <trkpt lat="56.44605" lon="60.736394">
        <ele>290.2</ele>
        <time>1970-01-01T08:15:34.412Z</time>
    </trkpt>
    <trkpt lat="56.446042" lon="60.736392">
        <ele>290.1</ele>
        <time>1970-01-01T08:15:35.412Z</time>
    </trkpt>
    <trkpt lat="56.44602" lon="60.736399">
        <ele>290.0</ele>
        <time>1970-01-01T08:15:36.412Z</time>
    </trkpt>
    <trkpt lat="56.446008" lon="60.736399">
        <ele>289.9</ele>
        <time>1970-01-01T08:15:37.412Z</time>
    </trkpt>
    <trkpt lat="56.445993" lon="60.736404">
        <ele>289.7</ele>
        <time>1970-01-01T08:15:38.412Z</time>
    </trkpt>
    <trkpt lat="56.445983" lon="60.736404">
        <ele>289.7</ele>
        <time>1970-01-01T08:15:39.412Z</time>
    </trkpt>
    <trkpt lat="56.445973" lon="60.736404">
        <ele>289.6</ele>
        <time>1970-01-01T08:15:40.412Z</time>
    </trkpt>
    <trkpt lat="56.445951" lon="60.736411">
        <ele>289.4</ele>
        <time>1970-01-01T08:15:41.412Z</time>
    </trkpt>
    <trkpt lat="56.44594" lon="60.736425">
        <ele>289.3</ele>
        <time>1970-01-01T08:15:42.412Z</time>
    </trkpt>
    <trkpt lat="56.445927" lon="60.736431">
        <ele>289.2</ele>
        <time>1970-01-01T08:15:43.412Z</time>
    </trkpt>
    <trkpt lat="56.445916" lon="60.73642">
        <ele>289.1</ele>
        <time>1970-01-01T08:15:44.412Z</time>
    </trkpt>
    <trkpt lat="56.445903" lon="60.736421">
        <ele>289.0</ele>
        <time>1970-01-01T08:15:45.412Z</time>
    </trkpt>
    <trkpt lat="56.445888" lon="60.736428">
        <ele>288.9</ele>
        <time>1970-01-01T08:15:46.412Z</time>
    </trkpt>
    <trkpt lat="56.44588" lon="60.736433">
        <ele>288.8</ele>
        <time>1970-01-01T08:15:47.412Z</time>
    </trkpt>
    <trkpt lat="56.445867" lon="60.736437">
        <ele>288.7</ele>
        <time>1970-01-01T08:15:48.412Z</time>
    </trkpt>
    <trkpt lat="56.445854" lon="60.73643">
        <ele>288.6</ele>
        <time>1970-01-01T08:15:49.412Z</time>
    </trkpt>
    <trkpt lat="56.445842" lon="60.736435">
        <ele>288.5</ele>
        <time>1970-01-01T08:15:50.412Z</time>
    </trkpt>
    <trkpt lat="56.445832" lon="60.736443">
        <ele>288.4</ele>
        <time>1970-01-01T08:15:51.412Z</time>
    </trkpt>
    <trkpt lat="56.445823" lon="60.736452">
        <ele>288.3</ele>
        <time>1970-01-01T08:15:52.412Z</time>
    </trkpt>
    <trkpt lat="56.445813" lon="60.736461">
        <ele>288.2</ele>
        <time>1970-01-01T08:15:53.412Z</time>
    </trkpt>
    <trkpt lat="56.445801" lon="60.736479">
        <ele>288.1</ele>
        <time>1970-01-01T08:15:54.412Z</time>
    </trkpt>
    <trkpt lat="56.445795" lon="60.736484">
        <ele>288.0</ele>
        <time>1970-01-01T08:15:55.412Z</time>
    </trkpt>
    <trkpt lat="56.445782" lon="60.736495">
        <ele>287.9</ele>
        <time>1970-01-01T08:15:57.412Z</time>
    </trkpt>
    <trkpt lat="56.445769" lon="60.736509">
        <ele>287.7</ele>
        <time>1970-01-01T08:15:58.412Z</time>
    </trkpt>
    <trkpt lat="56.445762" lon="60.73652">
        <ele>287.7</ele>
        <time>1970-01-01T08:15:59.412Z</time>
    </trkpt>
    <trkpt lat="56.445749" lon="60.736523">
        <ele>287.6</ele>
        <time>1970-01-01T08:16:00.412Z</time>
    </trkpt>
    <trkpt lat="56.445733" lon="60.736523">
        <ele>287.4</ele>
        <time>1970-01-01T08:16:01.412Z</time>
    </trkpt>
    <trkpt lat="56.445724" lon="60.736529">
        <ele>287.3</ele>
        <time>1970-01-01T08:16:02.412Z</time>
    </trkpt>
    <trkpt lat="56.445715" lon="60.736534">
        <ele>287.3</ele>
        <time>1970-01-01T08:16:03.412Z</time>
    </trkpt>
    <trkpt lat="56.445696" lon="60.736547">
        <ele>287.1</ele>
        <time>1970-01-01T08:16:04.412Z</time>
    </trkpt>
    <trkpt lat="56.445685" lon="60.736559">
        <ele>287.0</ele>
        <time>1970-01-01T08:16:05.412Z</time>
    </trkpt>
    <trkpt lat="56.44568" lon="60.736563">
        <ele>286.9</ele>
        <time>1970-01-01T08:16:06.412Z</time>
    </trkpt>
    <trkpt lat="56.445668" lon="60.736571">
        <ele>286.8</ele>
        <time>1970-01-01T08:16:07.412Z</time>
    </trkpt>
    <trkpt lat="56.445661" lon="60.736579">
        <ele>286.8</ele>
        <time>1970-01-01T08:16:08.412Z</time>
    </trkpt>
    <trkpt lat="56.445654" lon="60.736583">
        <ele>286.7</ele>
        <time>1970-01-01T08:16:09.412Z</time>
    </trkpt>
    <trkpt lat="56.445643" lon="60.736593">
        <ele>286.6</ele>
        <time>1970-01-01T08:16:10.412Z</time>
    </trkpt>
    <trkpt lat="56.445636" lon="60.736597">
        <ele>286.5</ele>
        <time>1970-01-01T08:16:11.412Z</time>
    </trkpt>
    <trkpt lat="56.445626" lon="60.736608">
        <ele>286.5</ele>
        <time>1970-01-01T08:16:12.412Z</time>
    </trkpt>
    <trkpt lat="56.445613" lon="60.736616">
        <ele>286.3</ele>
        <time>1970-01-01T08:16:13.412Z</time>
    </trkpt>
    <trkpt lat="56.445608" lon="60.736632">
        <ele>286.3</ele>
        <time>1970-01-01T08:16:14.412Z</time>
    </trkpt>
    <trkpt lat="56.445599" lon="60.736637">
        <ele>286.2</ele>
        <time>1970-01-01T08:16:15.412Z</time>
    </trkpt>
    <trkpt lat="56.445591" lon="60.736644">
        <ele>286.1</ele>
        <time>1970-01-01T08:16:16.412Z</time>
    </trkpt>
    <trkpt lat="56.445583" lon="60.736653">
        <ele>286.0</ele>
        <time>1970-01-01T08:16:17.412Z</time>
    </trkpt>
    <trkpt lat="56.445578" lon="60.736654">
        <ele>286.0</ele>
        <time>1970-01-01T08:16:18.412Z</time>
    </trkpt>
    <trkpt lat="56.44557" lon="60.736664">
        <ele>285.9</ele>
        <time>1970-01-01T08:16:19.412Z</time>
    </trkpt>
    <trkpt lat="56.445559" lon="60.736666">
        <ele>285.8</ele>
        <time>1970-01-01T08:16:20.412Z</time>
    </trkpt>
    <trkpt lat="56.445551" lon="60.736668">
        <ele>285.8</ele>
        <time>1970-01-01T08:16:21.412Z</time>
    </trkpt>
    <trkpt lat="56.445541" lon="60.736673">
        <ele>285.7</ele>
        <time>1970-01-01T08:16:22.412Z</time>
    </trkpt>
    <trkpt lat="56.445531" lon="60.736674">
        <ele>285.6</ele>
        <time>1970-01-01T08:16:23.412Z</time>
    </trkpt>
    <trkpt lat="56.445521" lon="60.736674">
        <ele>285.5</ele>
        <time>1970-01-01T08:16:24.412Z</time>
    </trkpt>
    <trkpt lat="56.445512" lon="60.736685">
        <ele>285.4</ele>
        <time>1970-01-01T08:16:25.412Z</time>
    </trkpt>
    <trkpt lat="56.445503" lon="60.736696">
        <ele>285.3</ele>
        <time>1970-01-01T08:16:26.412Z</time>
    </trkpt>
    <trkpt lat="56.445494" lon="60.736701">
        <ele>285.3</ele>
        <time>1970-01-01T08:16:27.412Z</time>
    </trkpt>
    <trkpt lat="56.445485" lon="60.736706">
        <ele>285.2</ele>
        <time>1970-01-01T08:16:28.412Z</time>
    </trkpt>
    <trkpt lat="56.44548" lon="60.736711">
        <ele>285.1</ele>
        <time>1970-01-01T08:16:29.412Z</time>
    </trkpt>
    <trkpt lat="56.44547" lon="60.736721">
        <ele>285.0</ele>
        <time>1970-01-01T08:16:30.412Z</time>
    </trkpt>
    <trkpt lat="56.445465" lon="60.736735">
        <ele>285.0</ele>
        <time>1970-01-01T08:16:31.412Z</time>
    </trkpt>
    <trkpt lat="56.445455" lon="60.736732">
        <ele>284.9</ele>
        <time>1970-01-01T08:16:32.412Z</time>
    </trkpt>
    <trkpt lat="56.445451" lon="60.736736">
        <ele>284.8</ele>
        <time>1970-01-01T08:16:33.412Z</time>
    </trkpt>
    <trkpt lat="56.445441" lon="60.73674">
        <ele>284.8</ele>
        <time>1970-01-01T08:16:34.412Z</time>
    </trkpt>
    <trkpt lat="56.445429" lon="60.736747">
        <ele>284.6</ele>
        <time>1970-01-01T08:16:35.412Z</time>
    </trkpt>
    <trkpt lat="56.445417" lon="60.73677">
        <ele>284.5</ele>
        <time>1970-01-01T08:16:36.412Z</time>
    </trkpt>
    <trkpt lat="56.445413" lon="60.736776">
        <ele>284.5</ele>
        <time>1970-01-01T08:16:37.412Z</time>
    </trkpt>
    <trkpt lat="56.445408" lon="60.73678">
        <ele>284.4</ele>
        <time>1970-01-01T08:16:38.412Z</time>
    </trkpt>
    <trkpt lat="56.445402" lon="60.736785">
        <ele>284.4</ele>
        <time>1970-01-01T08:16:39.412Z</time>
    </trkpt>
    <trkpt lat="56.445396" lon="60.736789">
        <ele>284.3</ele>
        <time>1970-01-01T08:16:40.412Z</time>
    </trkpt>
    <trkpt lat="56.445379" lon="60.736797">
        <ele>284.2</ele>
        <time>1970-01-01T08:16:41.412Z</time>
    </trkpt>
    <trkpt lat="56.445371" lon="60.736803">
        <ele>284.1</ele>
        <time>1970-01-01T08:16:42.412Z</time>
    </trkpt>
    <trkpt lat="56.445363" lon="60.73681">
        <ele>284.0</ele>
        <time>1970-01-01T08:16:43.412Z</time>
    </trkpt>
    <trkpt lat="56.445356" lon="60.736817">
        <ele>284.0</ele>
        <time>1970-01-01T08:16:44.412Z</time>
    </trkpt>
    <trkpt lat="56.445345" lon="60.736833">
        <ele>283.9</ele>
        <time>1970-01-01T08:16:45.412Z</time>
    </trkpt>
    <trkpt lat="56.445338" lon="60.736839">
        <ele>283.8</ele>
        <time>1970-01-01T08:16:46.412Z</time>
    </trkpt>
    <trkpt lat="56.44533" lon="60.736845">
        <ele>283.8</ele>
        <time>1970-01-01T08:16:47.412Z</time>
    </trkpt>
    <trkpt lat="56.445323" lon="60.73685">
        <ele>283.7</ele>
        <time>1970-01-01T08:16:48.412Z</time>
    </trkpt>
    <trkpt lat="56.445312" lon="60.736865">
        <ele>283.6</ele>
        <time>1970-01-01T08:16:49.412Z</time>
    </trkpt>
    <trkpt lat="56.445296" lon="60.736877">
        <ele>283.5</ele>
        <time>1970-01-01T08:16:50.412Z</time>
    </trkpt>
    <trkpt lat="56.445289" lon="60.736883">
        <ele>283.4</ele>
        <time>1970-01-01T08:16:51.412Z</time>
    </trkpt>
    <trkpt lat="56.445284" lon="60.736888">
        <ele>283.4</ele>
        <time>1970-01-01T08:16:52.412Z</time>
    </trkpt>
    <trkpt lat="56.445273" lon="60.736904">
        <ele>283.3</ele>
        <time>1970-01-01T08:16:53.412Z</time>
    </trkpt>
    <trkpt lat="56.445252" lon="60.736914">
        <ele>283.2</ele>
        <time>1970-01-01T08:16:54.412Z</time>
    </trkpt>
    <trkpt lat="56.445245" lon="60.736925">
        <ele>283.1</ele>
        <time>1970-01-01T08:16:55.412Z</time>
    </trkpt>
    <trkpt lat="56.445241" lon="60.736935">
        <ele>283.1</ele>
        <time>1970-01-01T08:16:56.412Z</time>
    </trkpt>
    <trkpt lat="56.445229" lon="60.73695">
        <ele>283.0</ele>
        <time>1970-01-01T08:16:57.412Z</time>
    </trkpt>
    <trkpt lat="56.445219" lon="60.736957">
        <ele>282.9</ele>
        <time>1970-01-01T08:16:58.412Z</time>
    </trkpt>
    <trkpt lat="56.445209" lon="60.73696">
        <ele>282.8</ele>
        <time>1970-01-01T08:16:59.412Z</time>
    </trkpt>
    <trkpt lat="56.445201" lon="60.736973">
        <ele>282.7</ele>
        <time>1970-01-01T08:17:00.412Z</time>
    </trkpt>
    <trkpt lat="56.445195" lon="60.736981">
        <ele>282.7</ele>
        <time>1970-01-01T08:17:01.412Z</time>
    </trkpt>
    <trkpt lat="56.445189" lon="60.736988">
        <ele>282.6</ele>
        <time>1970-01-01T08:17:02.412Z</time>
    </trkpt>
    <trkpt lat="56.445184" lon="60.736995">
        <ele>282.6</ele>
        <time>1970-01-01T08:17:03.412Z</time>
    </trkpt>
    <trkpt lat="56.445168" lon="60.737006">
        <ele>282.5</ele>
        <time>1970-01-01T08:17:04.412Z</time>
    </trkpt>
    <trkpt lat="56.445165" lon="60.737009">
        <ele>282.5</ele>
        <time>1970-01-01T08:17:05.412Z</time>
    </trkpt>
    <trkpt lat="56.445155" lon="60.737024">
        <ele>282.4</ele>
        <time>1970-01-01T08:17:06.412Z</time>
    </trkpt>
    <trkpt lat="56.445145" lon="60.737033">
        <ele>282.3</ele>
        <time>1970-01-01T08:17:07.412Z</time>
    </trkpt>
    <trkpt lat="56.445125" lon="60.737049">
        <ele>282.1</ele>
        <time>1970-01-01T08:17:08.412Z</time>
    </trkpt>
    <trkpt lat="56.445115" lon="60.737065">
        <ele>282.0</ele>
        <time>1970-01-01T08:17:09.412Z</time>
    </trkpt>
    <trkpt lat="56.445117" lon="60.737056">
        <ele>282.0</ele>
        <time>1970-01-01T08:17:10.412Z</time>
    </trkpt>
    <trkpt lat="56.445109" lon="60.737065">
        <ele>281.9</ele>
        <time>1970-01-01T08:17:11.412Z</time>
    </trkpt>
    <trkpt lat="56.445087" lon="60.737079">
        <ele>281.7</ele>
        <time>1970-01-01T08:17:12.412Z</time>
    </trkpt>
    <trkpt lat="56.44508" lon="60.737084">
        <ele>281.6</ele>
        <time>1970-01-01T08:17:13.412Z</time>
    </trkpt>
    <trkpt lat="56.445073" lon="60.73709">
        <ele>281.6</ele>
        <time>1970-01-01T08:17:14.412Z</time>
    </trkpt>
    <trkpt lat="56.445053" lon="60.737106">
        <ele>281.4</ele>
        <time>1970-01-01T08:17:15.412Z</time>
    </trkpt>
    <trkpt lat="56.445048" lon="60.737111">
        <ele>281.3</ele>
        <time>1970-01-01T08:17:16.412Z</time>
    </trkpt>
    <trkpt lat="56.445043" lon="60.737125">
        <ele>281.3</ele>
        <time>1970-01-01T08:17:17.412Z</time>
    </trkpt>
    <trkpt lat="56.445028" lon="60.737136">
        <ele>281.1</ele>
        <time>1970-01-01T08:17:18.412Z</time>
    </trkpt>
    <trkpt lat="56.445004" lon="60.737154">
        <ele>280.9</ele>
        <time>1970-01-01T08:17:19.412Z</time>
    </trkpt>
    <trkpt lat="56.444999" lon="60.737158">
        <ele>280.9</ele>
        <time>1970-01-01T08:17:20.412Z</time>
    </trkpt>
    <trkpt lat="56.44499" lon="60.73717">
        <ele>280.8</ele>
        <time>1970-01-01T08:17:21.412Z</time>
    </trkpt>
    <trkpt lat="56.44498" lon="60.737178">
        <ele>280.7</ele>
        <time>1970-01-01T08:17:22.412Z</time>
    </trkpt>
    <trkpt lat="56.444969" lon="60.737186">
        <ele>280.6</ele>
        <time>1970-01-01T08:17:23.412Z</time>
    </trkpt>
    <trkpt lat="56.444956" lon="60.737202">
        <ele>280.4</ele>
        <time>1970-01-01T08:17:24.412Z</time>
    </trkpt>
    <trkpt lat="56.444945" lon="60.737208">
        <ele>280.3</ele>
        <time>1970-01-01T08:17:25.412Z</time>
    </trkpt>
    <trkpt lat="56.444938" lon="60.737216">
        <ele>280.3</ele>
        <time>1970-01-01T08:17:26.412Z</time>
    </trkpt>
    <trkpt lat="56.444928" lon="60.737223">
        <ele>280.2</ele>
        <time>1970-01-01T08:17:27.412Z</time>
    </trkpt>
    <trkpt lat="56.444919" lon="60.73723">
        <ele>280.1</ele>
        <time>1970-01-01T08:17:28.412Z</time>
    </trkpt>
    <trkpt lat="56.444903" lon="60.737253">
        <ele>279.9</ele>
        <time>1970-01-01T08:17:29.412Z</time>
    </trkpt>
    <trkpt lat="56.444894" lon="60.737262">
        <ele>279.8</ele>
        <time>1970-01-01T08:17:30.412Z</time>
    </trkpt>
    <trkpt lat="56.444891" lon="60.737277">
        <ele>279.8</ele>
        <time>1970-01-01T08:17:31.412Z</time>
    </trkpt>
    <trkpt lat="56.444878" lon="60.737285">
        <ele>279.6</ele>
        <time>1970-01-01T08:17:32.412Z</time>
    </trkpt>
    <trkpt lat="56.444865" lon="60.7373">
        <ele>279.5</ele>
        <time>1970-01-01T08:17:33.412Z</time>
    </trkpt>
    <trkpt lat="56.444852" lon="60.737313">
        <ele>279.4</ele>
        <time>1970-01-01T08:17:34.412Z</time>
    </trkpt>
    <trkpt lat="56.444839" lon="60.737317">
        <ele>279.3</ele>
        <time>1970-01-01T08:17:35.412Z</time>
    </trkpt>
    <trkpt lat="56.444835" lon="60.737328">
        <ele>279.2</ele>
        <time>1970-01-01T08:17:36.412Z</time>
    </trkpt>
    <trkpt lat="56.444819" lon="60.737333">
        <ele>279.1</ele>
        <time>1970-01-01T08:17:37.412Z</time>
    </trkpt>
    <trkpt lat="56.44481" lon="60.737338">
        <ele>279.0</ele>
        <time>1970-01-01T08:17:38.412Z</time>
    </trkpt>
    <trkpt lat="56.444801" lon="60.737342">
        <ele>278.9</ele>
        <time>1970-01-01T08:17:39.412Z</time>
    </trkpt>
    <trkpt lat="56.444783" lon="60.737364">
        <ele>278.8</ele>
        <time>1970-01-01T08:17:40.412Z</time>
    </trkpt>
    <trkpt lat="56.444771" lon="60.737382">
        <ele>278.7</ele>
        <time>1970-01-01T08:17:41.412Z</time>
    </trkpt>
    <trkpt lat="56.44477" lon="60.737399">
        <ele>278.6</ele>
        <time>1970-01-01T08:17:42.412Z</time>
    </trkpt>
    <trkpt lat="56.444756" lon="60.737404">
        <ele>278.5</ele>
        <time>1970-01-01T08:17:43.412Z</time>
    </trkpt>
    <trkpt lat="56.444748" lon="60.737415">
        <ele>278.5</ele>
        <time>1970-01-01T08:17:44.412Z</time>
    </trkpt>
    <trkpt lat="56.444737" lon="60.737426">
        <ele>278.4</ele>
        <time>1970-01-01T08:17:45.412Z</time>
    </trkpt>
    <trkpt lat="56.44473" lon="60.737434">
        <ele>278.4</ele>
        <time>1970-01-01T08:17:46.412Z</time>
    </trkpt>
    <trkpt lat="56.444723" lon="60.737447">
        <ele>278.3</ele>
        <time>1970-01-01T08:17:47.412Z</time>
    </trkpt>
    <trkpt lat="56.444701" lon="60.737446">
        <ele>278.2</ele>
        <time>1970-01-01T08:17:48.412Z</time>
    </trkpt>
    <trkpt lat="56.444694" lon="60.73746">
        <ele>278.1</ele>
        <time>1970-01-01T08:17:49.412Z</time>
    </trkpt>
    <trkpt lat="56.444682" lon="60.737457">
        <ele>278.0</ele>
        <time>1970-01-01T08:17:50.412Z</time>
    </trkpt>
    <trkpt lat="56.444672" lon="60.737469">
        <ele>278.0</ele>
        <time>1970-01-01T08:17:51.412Z</time>
    </trkpt>
    <trkpt lat="56.444664" lon="60.737486">
        <ele>277.9</ele>
        <time>1970-01-01T08:17:52.412Z</time>
    </trkpt>
    <trkpt lat="56.444654" lon="60.737491">
        <ele>277.8</ele>
        <time>1970-01-01T08:17:53.412Z</time>
    </trkpt>
    <trkpt lat="56.444643" lon="60.737498">
        <ele>277.8</ele>
        <time>1970-01-01T08:17:54.412Z</time>
    </trkpt>
    <trkpt lat="56.444633" lon="60.737511">
        <ele>277.7</ele>
        <time>1970-01-01T08:17:55.412Z</time>
    </trkpt>
    <trkpt lat="56.444627" lon="60.737514">
        <ele>277.7</ele>
        <time>1970-01-01T08:17:56.412Z</time>
    </trkpt>
    <trkpt lat="56.444618" lon="60.737532">
        <ele>277.6</ele>
        <time>1970-01-01T08:17:57.412Z</time>
    </trkpt>
    <trkpt lat="56.444605" lon="60.737542">
        <ele>277.5</ele>
        <time>1970-01-01T08:17:58.412Z</time>
    </trkpt>
    <trkpt lat="56.444597" lon="60.737542">
        <ele>277.5</ele>
        <time>1970-01-01T08:17:59.412Z</time>
    </trkpt>
    <trkpt lat="56.444587" lon="60.737546">
        <ele>277.4</ele>
        <time>1970-01-01T08:18:00.412Z</time>
    </trkpt>
    <trkpt lat="56.444581" lon="60.737559">
        <ele>277.4</ele>
        <time>1970-01-01T08:18:01.412Z</time>
    </trkpt>
    <trkpt lat="56.444575" lon="60.737572">
        <ele>277.3</ele>
        <time>1970-01-01T08:18:03.412Z</time>
    </trkpt>
    <trkpt lat="56.444561" lon="60.737597">
        <ele>277.2</ele>
        <time>1970-01-01T08:18:04.412Z</time>
    </trkpt>
    <trkpt lat="56.444547" lon="60.737604">
        <ele>277.1</ele>
        <time>1970-01-01T08:18:05.412Z</time>
    </trkpt>
    <trkpt lat="56.44454" lon="60.737608">
        <ele>277.1</ele>
        <time>1970-01-01T08:18:06.412Z</time>
    </trkpt>
    <trkpt lat="56.444532" lon="60.737621">
        <ele>277.0</ele>
        <time>1970-01-01T08:18:07.412Z</time>
    </trkpt>
    <trkpt lat="56.444523" lon="60.737632">
        <ele>276.9</ele>
        <time>1970-01-01T08:18:08.412Z</time>
    </trkpt>
    <trkpt lat="56.444516" lon="60.737644">
        <ele>276.9</ele>
        <time>1970-01-01T08:18:09.412Z</time>
    </trkpt>
    <trkpt lat="56.444509" lon="60.737659">
        <ele>276.8</ele>
        <time>1970-01-01T08:18:10.412Z</time>
    </trkpt>
    <trkpt lat="56.444498" lon="60.737676">
        <ele>276.7</ele>
        <time>1970-01-01T08:18:11.412Z</time>
    </trkpt>
    <trkpt lat="56.444492" lon="60.737688">
        <ele>276.6</ele>
        <time>1970-01-01T08:18:12.412Z</time>
    </trkpt>
    <trkpt lat="56.444485" lon="60.737699">
        <ele>276.6</ele>
        <time>1970-01-01T08:18:13.412Z</time>
    </trkpt>
    <trkpt lat="56.444477" lon="60.737714">
        <ele>276.5</ele>
        <time>1970-01-01T08:18:14.412Z</time>
    </trkpt>
    <trkpt lat="56.444473" lon="60.737728">
        <ele>276.4</ele>
        <time>1970-01-01T08:18:15.412Z</time>
    </trkpt>
    <trkpt lat="56.444467" lon="60.737742">
        <ele>276.3</ele>
        <time>1970-01-01T08:18:16.412Z</time>
    </trkpt>
    <trkpt lat="56.444459" lon="60.737761">
        <ele>276.2</ele>
        <time>1970-01-01T08:18:17.412Z</time>
    </trkpt>
    <trkpt lat="56.44445" lon="60.737775">
        <ele>276.1</ele>
        <time>1970-01-01T08:18:18.412Z</time>
    </trkpt>
    <trkpt lat="56.444445" lon="60.737772">
        <ele>276.1</ele>
        <time>1970-01-01T08:18:19.412Z</time>
    </trkpt>
    <trkpt lat="56.444436" lon="60.737779">
        <ele>276.0</ele>
        <time>1970-01-01T08:18:20.412Z</time>
    </trkpt>
    <trkpt lat="56.444426" lon="60.737786">
        <ele>275.9</ele>
        <time>1970-01-01T08:18:21.412Z</time>
    </trkpt>
    <trkpt lat="56.444417" lon="60.737793">
        <ele>275.9</ele>
        <time>1970-01-01T08:18:22.412Z</time>
    </trkpt>
    <trkpt lat="56.444403" lon="60.737802">
        <ele>275.8</ele>
        <time>1970-01-01T08:18:23.412Z</time>
    </trkpt>
    <trkpt lat="56.444391" lon="60.737834">
        <ele>275.7</ele>
        <time>1970-01-01T08:18:24.412Z</time>
    </trkpt>
    <trkpt lat="56.444383" lon="60.737849">
        <ele>275.6</ele>
        <time>1970-01-01T08:18:25.412Z</time>
    </trkpt>
    <trkpt lat="56.444374" lon="60.737856">
        <ele>275.5</ele>
        <time>1970-01-01T08:18:26.412Z</time>
    </trkpt>
    <trkpt lat="56.444365" lon="60.737869">
        <ele>275.5</ele>
        <time>1970-01-01T08:18:27.412Z</time>
    </trkpt>
    <trkpt lat="56.444357" lon="60.737879">
        <ele>275.4</ele>
        <time>1970-01-01T08:18:28.412Z</time>
    </trkpt>
    <trkpt lat="56.444348" lon="60.737887">
        <ele>275.3</ele>
        <time>1970-01-01T08:18:29.412Z</time>
    </trkpt>
    <trkpt lat="56.44434" lon="60.737901">
        <ele>275.3</ele>
        <time>1970-01-01T08:18:30.412Z</time>
    </trkpt>
    <trkpt lat="56.444334" lon="60.737909">
        <ele>275.2</ele>
        <time>1970-01-01T08:18:31.412Z</time>
    </trkpt>
    <trkpt lat="56.444321" lon="60.737918">
        <ele>275.1</ele>
        <time>1970-01-01T08:18:32.412Z</time>
    </trkpt>
    <trkpt lat="56.444316" lon="60.737928">
        <ele>275.0</ele>
        <time>1970-01-01T08:18:33.412Z</time>
    </trkpt>
    <trkpt lat="56.444306" lon="60.737935">
        <ele>275.0</ele>
        <time>1970-01-01T08:18:34.412Z</time>
    </trkpt>
    <trkpt lat="56.444291" lon="60.737942">
        <ele>274.8</ele>
        <time>1970-01-01T08:18:35.412Z</time>
    </trkpt>
    <trkpt lat="56.44428" lon="60.73795">
        <ele>274.8</ele>
        <time>1970-01-01T08:18:36.412Z</time>
    </trkpt>
    <trkpt lat="56.444273" lon="60.737948">
        <ele>274.7</ele>
        <time>1970-01-01T08:18:37.412Z</time>
    </trkpt>
    <trkpt lat="56.44426" lon="60.737965">
        <ele>274.6</ele>
        <time>1970-01-01T08:18:38.412Z</time>
    </trkpt>
    <trkpt lat="56.44425" lon="60.737971">
        <ele>274.5</ele>
        <time>1970-01-01T08:18:39.412Z</time>
    </trkpt>
    <trkpt lat="56.444241" lon="60.737975">
        <ele>274.4</ele>
        <time>1970-01-01T08:18:40.412Z</time>
    </trkpt>
    <trkpt lat="56.444226" lon="60.737988">
        <ele>274.3</ele>
        <time>1970-01-01T08:18:41.412Z</time>
    </trkpt>
    <trkpt lat="56.444214" lon="60.737998">
        <ele>274.2</ele>
        <time>1970-01-01T08:18:42.412Z</time>
    </trkpt>
    <trkpt lat="56.4442" lon="60.738006">
        <ele>274.1</ele>
        <time>1970-01-01T08:18:43.412Z</time>
    </trkpt>
    <trkpt lat="56.444186" lon="60.73801">
        <ele>274.0</ele>
        <time>1970-01-01T08:18:44.412Z</time>
    </trkpt>
    <trkpt lat="56.444176" lon="60.738017">
        <ele>274.0</ele>
        <time>1970-01-01T08:18:45.412Z</time>
    </trkpt>
    <trkpt lat="56.444166" lon="60.738024">
        <ele>273.9</ele>
        <time>1970-01-01T08:18:46.412Z</time>
    </trkpt>
    <trkpt lat="56.444146" lon="60.738041">
        <ele>273.7</ele>
        <time>1970-01-01T08:18:47.412Z</time>
    </trkpt>
    <trkpt lat="56.444129" lon="60.738054">
        <ele>273.6</ele>
        <time>1970-01-01T08:18:48.412Z</time>
    </trkpt>
    <trkpt lat="56.444119" lon="60.738059">
        <ele>273.5</ele>
        <time>1970-01-01T08:18:49.412Z</time>
    </trkpt>
    <trkpt lat="56.444107" lon="60.738066">
        <ele>273.4</ele>
        <time>1970-01-01T08:18:50.412Z</time>
    </trkpt>
    <trkpt lat="56.444095" lon="60.738072">
        <ele>273.4</ele>
        <time>1970-01-01T08:18:51.412Z</time>
    </trkpt>
    <trkpt lat="56.444076" lon="60.738089">
        <ele>273.2</ele>
        <time>1970-01-01T08:18:52.412Z</time>
    </trkpt>
    <trkpt lat="56.444067" lon="60.738088">
        <ele>273.2</ele>
        <time>1970-01-01T08:18:53.412Z</time>
    </trkpt>
    <trkpt lat="56.444059" lon="60.738087">
        <ele>273.1</ele>
        <time>1970-01-01T08:18:54.412Z</time>
    </trkpt>
    <trkpt lat="56.444036" lon="60.738096">
        <ele>273.0</ele>
        <time>1970-01-01T08:18:55.412Z</time>
    </trkpt>
    <trkpt lat="56.444019" lon="60.738107">
        <ele>272.8</ele>
        <time>1970-01-01T08:18:56.412Z</time>
    </trkpt>
    <trkpt lat="56.444011" lon="60.738114">
        <ele>272.8</ele>
        <time>1970-01-01T08:18:57.412Z</time>
    </trkpt>
    <trkpt lat="56.444003" lon="60.738114">
        <ele>272.7</ele>
        <time>1970-01-01T08:18:58.412Z</time>
    </trkpt>
    <trkpt lat="56.443994" lon="60.738123">
        <ele>272.7</ele>
        <time>1970-01-01T08:18:59.412Z</time>
    </trkpt>
    <trkpt lat="56.443969" lon="60.738142">
        <ele>272.5</ele>
        <time>1970-01-01T08:19:01.412Z</time>
    </trkpt>
    <trkpt lat="56.443958" lon="60.738156">
        <ele>272.4</ele>
        <time>1970-01-01T08:19:02.412Z</time>
    </trkpt>
    <trkpt lat="56.443945" lon="60.738169">
        <ele>272.3</ele>
        <time>1970-01-01T08:19:03.412Z</time>
    </trkpt>
    <trkpt lat="56.443933" lon="60.738178">
        <ele>272.3</ele>
        <time>1970-01-01T08:19:04.412Z</time>
    </trkpt>
    <trkpt lat="56.44392" lon="60.738183">
        <ele>272.2</ele>
        <time>1970-01-01T08:19:05.412Z</time>
    </trkpt>
    <trkpt lat="56.443911" lon="60.738186">
        <ele>272.1</ele>
        <time>1970-01-01T08:19:06.412Z</time>
    </trkpt>
    <trkpt lat="56.443904" lon="60.73819">
        <ele>272.1</ele>
        <time>1970-01-01T08:19:07.412Z</time>
    </trkpt>
    <trkpt lat="56.443885" lon="60.7382">
        <ele>272.0</ele>
        <time>1970-01-01T08:19:08.412Z</time>
    </trkpt>
    <trkpt lat="56.443861" lon="60.738221">
        <ele>271.8</ele>
        <time>1970-01-01T08:19:09.412Z</time>
    </trkpt>
    <trkpt lat="56.443851" lon="60.738227">
        <ele>271.7</ele>
        <time>1970-01-01T08:19:10.412Z</time>
    </trkpt>
    <trkpt lat="56.443842" lon="60.738235">
        <ele>271.7</ele>
        <time>1970-01-01T08:19:11.412Z</time>
    </trkpt>
    <trkpt lat="56.443824" lon="60.738248">
        <ele>271.6</ele>
        <time>1970-01-01T08:19:12.412Z</time>
    </trkpt>
    <trkpt lat="56.443816" lon="60.738252">
        <ele>271.5</ele>
        <time>1970-01-01T08:19:13.412Z</time>
    </trkpt>
    <trkpt lat="56.443809" lon="60.738253">
        <ele>271.5</ele>
        <time>1970-01-01T08:19:14.412Z</time>
    </trkpt>
    <trkpt lat="56.443801" lon="60.738257">
        <ele>271.4</ele>
        <time>1970-01-01T08:19:15.412Z</time>
    </trkpt>
    <trkpt lat="56.443793" lon="60.738261">
        <ele>271.4</ele>
        <time>1970-01-01T08:19:16.412Z</time>
    </trkpt>
    <trkpt lat="56.443771" lon="60.738274">
        <ele>271.3</ele>
        <time>1970-01-01T08:19:17.412Z</time>
    </trkpt>
    <trkpt lat="56.443763" lon="60.738279">
        <ele>271.2</ele>
        <time>1970-01-01T08:19:18.412Z</time>
    </trkpt>
    <trkpt lat="56.443754" lon="60.738284">
        <ele>271.2</ele>
        <time>1970-01-01T08:19:19.412Z</time>
    </trkpt>
    <trkpt lat="56.443734" lon="60.738299">
        <ele>271.0</ele>
        <time>1970-01-01T08:19:20.412Z</time>
    </trkpt>
    <trkpt lat="56.443726" lon="60.738305">
        <ele>271.0</ele>
        <time>1970-01-01T08:19:21.412Z</time>
    </trkpt>
    <trkpt lat="56.443719" lon="60.73831">
        <ele>270.9</ele>
        <time>1970-01-01T08:19:22.412Z</time>
    </trkpt>
    <trkpt lat="56.443699" lon="60.738321">
        <ele>270.8</ele>
        <time>1970-01-01T08:19:23.412Z</time>
    </trkpt>
    <trkpt lat="56.443685" lon="60.738327">
        <ele>270.7</ele>
        <time>1970-01-01T08:19:24.412Z</time>
    </trkpt>
    <trkpt lat="56.443671" lon="60.738337">
        <ele>270.7</ele>
        <time>1970-01-01T08:19:25.412Z</time>
    </trkpt>
    <trkpt lat="56.443657" lon="60.738344">
        <ele>270.6</ele>
        <time>1970-01-01T08:19:26.412Z</time>
    </trkpt>
    <trkpt lat="56.443645" lon="60.738346">
        <ele>270.5</ele>
        <time>1970-01-01T08:19:27.412Z</time>
    </trkpt>
    <trkpt lat="56.443637" lon="60.738349">
        <ele>270.5</ele>
        <time>1970-01-01T08:19:28.412Z</time>
    </trkpt>
    <trkpt lat="56.443629" lon="60.738351">
        <ele>270.4</ele>
        <time>1970-01-01T08:19:29.412Z</time>
    </trkpt>
    <trkpt lat="56.443609" lon="60.738355">
        <ele>270.3</ele>
        <time>1970-01-01T08:19:30.412Z</time>
    </trkpt>
    <trkpt lat="56.443601" lon="60.738371">
        <ele>270.2</ele>
        <time>1970-01-01T08:19:31.412Z</time>
    </trkpt>
    <trkpt lat="56.443591" lon="60.738372">
        <ele>270.2</ele>
        <time>1970-01-01T08:19:32.412Z</time>
    </trkpt>
    <trkpt lat="56.443579" lon="60.738386">
        <ele>270.1</ele>
        <time>1970-01-01T08:19:33.412Z</time>
    </trkpt>
    <trkpt lat="56.443569" lon="60.738399">
        <ele>270.0</ele>
        <time>1970-01-01T08:19:34.412Z</time>
    </trkpt>
    <trkpt lat="56.443555" lon="60.738415">
        <ele>269.9</ele>
        <time>1970-01-01T08:19:35.412Z</time>
    </trkpt>
    <trkpt lat="56.443544" lon="60.738422">
        <ele>269.8</ele>
        <time>1970-01-01T08:19:36.412Z</time>
    </trkpt>
    <trkpt lat="56.44353" lon="60.738435">
        <ele>269.7</ele>
        <time>1970-01-01T08:19:37.412Z</time>
    </trkpt>
    <trkpt lat="56.443519" lon="60.738446">
        <ele>269.7</ele>
        <time>1970-01-01T08:19:38.412Z</time>
    </trkpt>
    <trkpt lat="56.443503" lon="60.738456">
        <ele>269.5</ele>
        <time>1970-01-01T08:19:39.412Z</time>
    </trkpt>
    <trkpt lat="56.443491" lon="60.738471">
        <ele>269.5</ele>
        <time>1970-01-01T08:19:40.412Z</time>
    </trkpt>
    <trkpt lat="56.443482" lon="60.738475">
        <ele>269.4</ele>
        <time>1970-01-01T08:19:41.412Z</time>
    </trkpt>
    <trkpt lat="56.44347" lon="60.738479">
        <ele>269.3</ele>
        <time>1970-01-01T08:19:42.412Z</time>
    </trkpt>
    <trkpt lat="56.44346" lon="60.738488">
        <ele>269.3</ele>
        <time>1970-01-01T08:19:43.412Z</time>
    </trkpt>
    <trkpt lat="56.443449" lon="60.738496">
        <ele>269.2</ele>
        <time>1970-01-01T08:19:44.412Z</time>
    </trkpt>
    <trkpt lat="56.443425" lon="60.738517">
        <ele>269.0</ele>
        <time>1970-01-01T08:19:45.412Z</time>
    </trkpt>
    <trkpt lat="56.443413" lon="60.738523">
        <ele>268.9</ele>
        <time>1970-01-01T08:19:46.412Z</time>
    </trkpt>
    <trkpt lat="56.443402" lon="60.738527">
        <ele>268.9</ele>
        <time>1970-01-01T08:19:47.412Z</time>
    </trkpt>
    <trkpt lat="56.443394" lon="60.738532">
        <ele>268.8</ele>
        <time>1970-01-01T08:19:48.412Z</time>
    </trkpt>
    <trkpt lat="56.443384" lon="60.738542">
        <ele>268.7</ele>
        <time>1970-01-01T08:19:49.412Z</time>
    </trkpt>
    <trkpt lat="56.443375" lon="60.738551">
        <ele>268.7</ele>
        <time>1970-01-01T08:19:50.412Z</time>
    </trkpt>
    <trkpt lat="56.443364" lon="60.738561">
        <ele>268.6</ele>
        <time>1970-01-01T08:19:51.412Z</time>
    </trkpt>
    <trkpt lat="56.443355" lon="60.738567">
        <ele>268.5</ele>
        <time>1970-01-01T08:19:52.412Z</time>
    </trkpt>
    <trkpt lat="56.443346" lon="60.738574">
        <ele>268.5</ele>
        <time>1970-01-01T08:19:53.412Z</time>
    </trkpt>
    <trkpt lat="56.443328" lon="60.738589">
        <ele>268.3</ele>
        <time>1970-01-01T08:19:54.412Z</time>
    </trkpt>
    <trkpt lat="56.443314" lon="60.738601">
        <ele>268.3</ele>
        <time>1970-01-01T08:19:55.412Z</time>
    </trkpt>
    <trkpt lat="56.443303" lon="60.738612">
        <ele>268.2</ele>
        <time>1970-01-01T08:19:56.412Z</time>
    </trkpt>
    <trkpt lat="56.443293" lon="60.738612">
        <ele>268.1</ele>
        <time>1970-01-01T08:19:57.412Z</time>
    </trkpt>
    <trkpt lat="56.44328" lon="60.738624">
        <ele>268.0</ele>
        <time>1970-01-01T08:19:58.412Z</time>
    </trkpt>
    <trkpt lat="56.443272" lon="60.738635">
        <ele>267.9</ele>
        <time>1970-01-01T08:19:59.412Z</time>
    </trkpt>
    <trkpt lat="56.443261" lon="60.738641">
        <ele>267.9</ele>
        <time>1970-01-01T08:20:00.412Z</time>
    </trkpt>
    <trkpt lat="56.443244" lon="60.738649">
        <ele>267.7</ele>
        <time>1970-01-01T08:20:01.412Z</time>
    </trkpt>
    <trkpt lat="56.44323" lon="60.738652">
        <ele>267.6</ele>
        <time>1970-01-01T08:20:02.412Z</time>
    </trkpt>
    <trkpt lat="56.443216" lon="60.738659">
        <ele>267.5</ele>
        <time>1970-01-01T08:20:03.412Z</time>
    </trkpt>
    <trkpt lat="56.443206" lon="60.738663">
        <ele>267.5</ele>
        <time>1970-01-01T08:20:04.412Z</time>
    </trkpt>
    <trkpt lat="56.443197" lon="60.738668">
        <ele>267.4</ele>
        <time>1970-01-01T08:20:05.412Z</time>
    </trkpt>
    <trkpt lat="56.443176" lon="60.738677">
        <ele>267.3</ele>
        <time>1970-01-01T08:20:06.412Z</time>
    </trkpt>
    <trkpt lat="56.443164" lon="60.738689">
        <ele>267.2</ele>
        <time>1970-01-01T08:20:07.412Z</time>
    </trkpt>
    <trkpt lat="56.443151" lon="60.738694">
        <ele>267.1</ele>
        <time>1970-01-01T08:20:09.412Z</time>
    </trkpt>
    <trkpt lat="56.44314" lon="60.7387">
        <ele>267.0</ele>
        <time>1970-01-01T08:20:10.412Z</time>
    </trkpt>
    <trkpt lat="56.443128" lon="60.738701">
        <ele>266.9</ele>
        <time>1970-01-01T08:20:11.412Z</time>
    </trkpt>
    <trkpt lat="56.443116" lon="60.738703">
        <ele>266.8</ele>
        <time>1970-01-01T08:20:12.412Z</time>
    </trkpt>
    <trkpt lat="56.443093" lon="60.738715">
        <ele>266.6</ele>
        <time>1970-01-01T08:20:13.412Z</time>
    </trkpt>
    <trkpt lat="56.443085" lon="60.738718">
        <ele>266.6</ele>
        <time>1970-01-01T08:20:14.412Z</time>
    </trkpt>
    <trkpt lat="56.44307" lon="60.738725">
        <ele>266.5</ele>
        <time>1970-01-01T08:20:15.412Z</time>
    </trkpt>
    <trkpt lat="56.44305" lon="60.738731">
        <ele>266.3</ele>
        <time>1970-01-01T08:20:16.412Z</time>
    </trkpt>
    <trkpt lat="56.443039" lon="60.738736">
        <ele>266.2</ele>
        <time>1970-01-01T08:20:17.412Z</time>
    </trkpt>
    <trkpt lat="56.44302" lon="60.738742">
        <ele>266.1</ele>
        <time>1970-01-01T08:20:18.412Z</time>
    </trkpt>
    <trkpt lat="56.443011" lon="60.738744">
        <ele>266.0</ele>
        <time>1970-01-01T08:20:19.412Z</time>
    </trkpt>
    <trkpt lat="56.443001" lon="60.738747">
        <ele>266.0</ele>
        <time>1970-01-01T08:20:20.412Z</time>
    </trkpt>
    <trkpt lat="56.442976" lon="60.738752">
        <ele>265.8</ele>
        <time>1970-01-01T08:20:21.412Z</time>
    </trkpt>
    <trkpt lat="56.442968" lon="60.738751">
        <ele>265.7</ele>
        <time>1970-01-01T08:20:22.412Z</time>
    </trkpt>
    <trkpt lat="56.44296" lon="60.738749">
        <ele>265.7</ele>
        <time>1970-01-01T08:20:23.412Z</time>
    </trkpt>
    <trkpt lat="56.442938" lon="60.738746">
        <ele>265.5</ele>
        <time>1970-01-01T08:20:24.412Z</time>
    </trkpt>
    <trkpt lat="56.442927" lon="60.738749">
        <ele>265.4</ele>
        <time>1970-01-01T08:20:25.412Z</time>
    </trkpt>
    <trkpt lat="56.442911" lon="60.738751">
        <ele>265.3</ele>
        <time>1970-01-01T08:20:26.412Z</time>
    </trkpt>
    <trkpt lat="56.442896" lon="60.738757">
        <ele>265.2</ele>
        <time>1970-01-01T08:20:27.412Z</time>
    </trkpt>
    <trkpt lat="56.442881" lon="60.73876">
        <ele>265.1</ele>
        <time>1970-01-01T08:20:28.412Z</time>
    </trkpt>
    <trkpt lat="56.442873" lon="60.738754">
        <ele>265.1</ele>
        <time>1970-01-01T08:20:29.412Z</time>
    </trkpt>
    <trkpt lat="56.442864" lon="60.738749">
        <ele>265.1</ele>
        <time>1970-01-01T08:20:30.412Z</time>
    </trkpt>
    <trkpt lat="56.442847" lon="60.738733">
        <ele>265.2</ele>
        <time>1970-01-01T08:20:31.412Z</time>
    </trkpt>
    <trkpt lat="56.442832" lon="60.738728">
        <ele>265.3</ele>
        <time>1970-01-01T08:20:32.412Z</time>
    </trkpt>
    <trkpt lat="56.442821" lon="60.738726">
        <ele>265.3</ele>
        <time>1970-01-01T08:20:33.412Z</time>
    </trkpt>
    <trkpt lat="56.442813" lon="60.738725">
        <ele>265.4</ele>
        <time>1970-01-01T08:20:34.412Z</time>
    </trkpt>
    <trkpt lat="56.442797" lon="60.738716">
        <ele>265.5</ele>
        <time>1970-01-01T08:20:35.412Z</time>
    </trkpt>
    <trkpt lat="56.442762" lon="60.738696">
        <ele>265.6</ele>
        <time>1970-01-01T08:20:36.412Z</time>
    </trkpt>
    <trkpt lat="56.44275" lon="60.738684">
        <ele>265.7</ele>
        <time>1970-01-01T08:20:37.412Z</time>
    </trkpt>
    <trkpt lat="56.442723" lon="60.738653">
        <ele>265.9</ele>
        <time>1970-01-01T08:20:38.412Z</time>
    </trkpt>
    <trkpt lat="56.442713" lon="60.738639">
        <ele>265.9</ele>
        <time>1970-01-01T08:20:39.412Z</time>
    </trkpt>
    <trkpt lat="56.442693" lon="60.738612">
        <ele>266.1</ele>
        <time>1970-01-01T08:20:40.412Z</time>
    </trkpt>
    <trkpt lat="56.442681" lon="60.738596">
        <ele>266.2</ele>
        <time>1970-01-01T08:20:41.412Z</time>
    </trkpt>
    <trkpt lat="56.442657" lon="60.738565">
        <ele>266.3</ele>
        <time>1970-01-01T08:20:42.412Z</time>
    </trkpt>
    <trkpt lat="56.442644" lon="60.738549">
        <ele>266.5</ele>
        <time>1970-01-01T08:20:43.412Z</time>
    </trkpt>
    <trkpt lat="56.442616" lon="60.73851">
        <ele>266.7</ele>
        <time>1970-01-01T08:20:44.412Z</time>
    </trkpt>
    <trkpt lat="56.442606" lon="60.738503">
        <ele>266.8</ele>
        <time>1970-01-01T08:20:45.412Z</time>
    </trkpt>
    <trkpt lat="56.442579" lon="60.738483">
        <ele>267.0</ele>
        <time>1970-01-01T08:20:46.412Z</time>
    </trkpt>
    <trkpt lat="56.442569" lon="60.738477">
        <ele>267.1</ele>
        <time>1970-01-01T08:20:47.412Z</time>
    </trkpt>
    <trkpt lat="56.442544" lon="60.738454">
        <ele>267.3</ele>
        <time>1970-01-01T08:20:48.412Z</time>
    </trkpt>
    <trkpt lat="56.442537" lon="60.738454">
        <ele>267.4</ele>
        <time>1970-01-01T08:20:49.412Z</time>
    </trkpt>
    <trkpt lat="56.442503" lon="60.738446">
        <ele>267.7</ele>
        <time>1970-01-01T08:20:50.412Z</time>
    </trkpt>
    <trkpt lat="56.44249" lon="60.738443">
        <ele>267.8</ele>
        <time>1970-01-01T08:20:51.412Z</time>
    </trkpt>
    <trkpt lat="56.442476" lon="60.738431">
        <ele>267.9</ele>
        <time>1970-01-01T08:20:52.412Z</time>
    </trkpt>
    <trkpt lat="56.442467" lon="60.738425">
        <ele>268.0</ele>
        <time>1970-01-01T08:20:53.412Z</time>
    </trkpt>
    <trkpt lat="56.442435" lon="60.738401">
        <ele>268.0</ele>
        <time>1970-01-01T08:20:54.412Z</time>
    </trkpt>
    <trkpt lat="56.44242" lon="60.738382">
        <ele>268.0</ele>
        <time>1970-01-01T08:20:55.412Z</time>
    </trkpt>
    <trkpt lat="56.442406" lon="60.738373">
        <ele>268.0</ele>
        <time>1970-01-01T08:20:56.412Z</time>
    </trkpt>
    <trkpt lat="56.442394" lon="60.738367">
        <ele>268.0</ele>
        <time>1970-01-01T08:20:57.412Z</time>
    </trkpt>
    <trkpt lat="56.442369" lon="60.738348">
        <ele>267.9</ele>
        <time>1970-01-01T08:20:58.412Z</time>
    </trkpt>
    <trkpt lat="56.44236" lon="60.738345">
        <ele>267.9</ele>
        <time>1970-01-01T08:20:59.412Z</time>
    </trkpt>
    <trkpt lat="56.442332" lon="60.738332">
        <ele>267.9</ele>
        <time>1970-01-01T08:21:00.412Z</time>
    </trkpt>
    <trkpt lat="56.44231" lon="60.738316">
        <ele>267.9</ele>
        <time>1970-01-01T08:21:01.412Z</time>
    </trkpt>
    <trkpt lat="56.442298" lon="60.738311">
        <ele>267.9</ele>
        <time>1970-01-01T08:21:02.412Z</time>
    </trkpt>
    <trkpt lat="56.442291" lon="60.738307">
        <ele>267.9</ele>
        <time>1970-01-01T08:21:03.412Z</time>
    </trkpt>
    <trkpt lat="56.442263" lon="60.738291">
        <ele>267.9</ele>
        <time>1970-01-01T08:21:04.412Z</time>
    </trkpt>
    <trkpt lat="56.442251" lon="60.738288">
        <ele>267.9</ele>
        <time>1970-01-01T08:21:05.412Z</time>
    </trkpt>
    <trkpt lat="56.442222" lon="60.738282">
        <ele>267.9</ele>
        <time>1970-01-01T08:21:06.412Z</time>
    </trkpt>
    <trkpt lat="56.442193" lon="60.738274">
        <ele>267.9</ele>
        <time>1970-01-01T08:21:07.412Z</time>
    </trkpt>
    <trkpt lat="56.442183" lon="60.738275">
        <ele>268.9</ele>
        <time>1970-01-01T08:21:08.412Z</time>
    </trkpt>
    <trkpt lat="56.442154" lon="60.738272">
        <ele>268.9</ele>
        <time>1970-01-01T08:21:09.412Z</time>
    </trkpt>
    <trkpt lat="56.442141" lon="60.738266">
        <ele>268.9</ele>
        <time>1970-01-01T08:21:10.412Z</time>
    </trkpt>
    <trkpt lat="56.442113" lon="60.738249">
        <ele>267.9</ele>
        <time>1970-01-01T08:21:11.412Z</time>
    </trkpt>
    <trkpt lat="56.442099" lon="60.738245">
        <ele>267.9</ele>
        <time>1970-01-01T08:21:12.412Z</time>
    </trkpt>
    <trkpt lat="56.442078" lon="60.738224">
        <ele>267.9</ele>
        <time>1970-01-01T08:21:13.412Z</time>
    </trkpt>
    <trkpt lat="56.442067" lon="60.738213">
        <ele>267.9</ele>
        <time>1970-01-01T08:21:14.412Z</time>
    </trkpt>
    <trkpt lat="56.442037" lon="60.73818">
        <ele>267.9</ele>
        <time>1970-01-01T08:21:15.412Z</time>
    </trkpt>
    <trkpt lat="56.442025" lon="60.738172">
        <ele>267.9</ele>
        <time>1970-01-01T08:21:16.412Z</time>
    </trkpt>
    <trkpt lat="56.441991" lon="60.738147">
        <ele>267.9</ele>
        <time>1970-01-01T08:21:17.412Z</time>
    </trkpt>
    <trkpt lat="56.441978" lon="60.738132">
        <ele>267.9</ele>
        <time>1970-01-01T08:21:18.412Z</time>
    </trkpt>
    <trkpt lat="56.441966" lon="60.738118">
        <ele>267.9</ele>
        <time>1970-01-01T08:21:19.412Z</time>
    </trkpt>
    <trkpt lat="56.441941" lon="60.738099">
        <ele>267.9</ele>
        <time>1970-01-01T08:21:20.412Z</time>
    </trkpt>
    <trkpt lat="56.441932" lon="60.738088">
        <ele>267.9</ele>
        <time>1970-01-01T08:21:21.412Z</time>
    </trkpt>
    <trkpt lat="56.441904" lon="60.738058">
        <ele>265.9</ele>
        <time>1970-01-01T08:21:22.412Z</time>
    </trkpt>
    <trkpt lat="56.441886" lon="60.738056">
        <ele>265.9</ele>
        <time>1970-01-01T08:21:23.412Z</time>
    </trkpt>
    <trkpt lat="56.441873" lon="60.738031">
        <ele>265.9</ele>
        <time>1970-01-01T08:21:24.412Z</time>
    </trkpt>
    <trkpt lat="56.441833" lon="60.738003">
        <ele>265.9</ele>
        <time>1970-01-01T08:21:25.412Z</time>
    </trkpt>
    <trkpt lat="56.441823" lon="60.737994">
        <ele>265.9</ele>
        <time>1970-01-01T08:21:26.412Z</time>
    </trkpt>
    <trkpt lat="56.441795" lon="60.737959">
        <ele>265.9</ele>
        <time>1970-01-01T08:21:27.412Z</time>
    </trkpt>
    <trkpt lat="56.441769" lon="60.737946">
        <ele>265.9</ele>
        <time>1970-01-01T08:21:28.412Z</time>
    </trkpt>
    <trkpt lat="56.441756" lon="60.737937">
        <ele>265.9</ele>
        <time>1970-01-01T08:21:29.412Z</time>
    </trkpt>
    <trkpt lat="56.441728" lon="60.737924">
        <ele>265.9</ele>
        <time>1970-01-01T08:21:30.412Z</time>
    </trkpt>
    <trkpt lat="56.441716" lon="60.73792">
        <ele>265.9</ele>
        <time>1970-01-01T08:21:31.412Z</time>
    </trkpt>
    <trkpt lat="56.441689" lon="60.737908">
        <ele>263.9</ele>
        <time>1970-01-01T08:21:32.412Z</time>
    </trkpt>
    <trkpt lat="56.441681" lon="60.737903">
        <ele>263.9</ele>
        <time>1970-01-01T08:21:33.412Z</time>
    </trkpt>
    <trkpt lat="56.441651" lon="60.737883">
        <ele>263.9</ele>
        <time>1970-01-01T08:21:34.412Z</time>
    </trkpt>
    <trkpt lat="56.441622" lon="60.737877">
        <ele>263.9</ele>
        <time>1970-01-01T08:21:35.412Z</time>
    </trkpt>
    <trkpt lat="56.441608" lon="60.737872">
        <ele>262.9</ele>
        <time>1970-01-01T08:21:36.412Z</time>
    </trkpt>
    <trkpt lat="56.441576" lon="60.737858">
        <ele>262.9</ele>
        <time>1970-01-01T08:21:37.412Z</time>
    </trkpt>
    <trkpt lat="56.441565" lon="60.737852">
        <ele>262.9</ele>
        <time>1970-01-01T08:21:38.412Z</time>
    </trkpt>
    <trkpt lat="56.441532" lon="60.737831">
        <ele>262.9</ele>
        <time>1970-01-01T08:21:39.412Z</time>
    </trkpt>
    <trkpt lat="56.441522" lon="60.737829">
        <ele>261.8</ele>
        <time>1970-01-01T08:21:40.412Z</time>
    </trkpt>
    <trkpt lat="56.441499" lon="60.7378">
        <ele>261.8</ele>
        <time>1970-01-01T08:21:41.412Z</time>
    </trkpt>
    <trkpt lat="56.441486" lon="60.737794">
        <ele>261.8</ele>
        <time>1970-01-01T08:21:42.412Z</time>
    </trkpt>
    <trkpt lat="56.441457" lon="60.737774">
        <ele>261.8</ele>
        <time>1970-01-01T08:21:43.412Z</time>
    </trkpt>
    <trkpt lat="56.441439" lon="60.737762">
        <ele>261.8</ele>
        <time>1970-01-01T08:21:44.412Z</time>
    </trkpt>
    <trkpt lat="56.441429" lon="60.737753">
        <ele>260.8</ele>
        <time>1970-01-01T08:21:45.412Z</time>
    </trkpt>
    <trkpt lat="56.441419" lon="60.73776">
        <ele>260.8</ele>
        <time>1970-01-01T08:21:46.412Z</time>
    </trkpt>
    <trkpt lat="56.441389" lon="60.737765">
        <ele>260.8</ele>
        <time>1970-01-01T08:21:47.412Z</time>
    </trkpt>
    <trkpt lat="56.441379" lon="60.737764">
        <ele>260.8</ele>
        <time>1970-01-01T08:21:48.412Z</time>
    </trkpt>
    <trkpt lat="56.441342" lon="60.737757">
        <ele>260.8</ele>
        <time>1970-01-01T08:21:49.412Z</time>
    </trkpt>
    <trkpt lat="56.44133" lon="60.737748">
        <ele>259.8</ele>
        <time>1970-01-01T08:21:50.412Z</time>
    </trkpt>
    <trkpt lat="56.441297" lon="60.737733">
        <ele>258.8</ele>
        <time>1970-01-01T08:21:51.412Z</time>
    </trkpt>
    <trkpt lat="56.441263" lon="60.737751">
        <ele>259.8</ele>
        <time>1970-01-01T08:21:52.412Z</time>
    </trkpt>
    <trkpt lat="56.441246" lon="60.737752">
        <ele>259.8</ele>
        <time>1970-01-01T08:21:53.412Z</time>
    </trkpt>
    <trkpt lat="56.441205" lon="60.737773">
        <ele>258.8</ele>
        <time>1970-01-01T08:21:54.412Z</time>
    </trkpt>
    <trkpt lat="56.441185" lon="60.737805">
        <ele>258.8</ele>
        <time>1970-01-01T08:21:55.412Z</time>
    </trkpt>
    <trkpt lat="56.441176" lon="60.737824">
        <ele>258.8</ele>
        <time>1970-01-01T08:21:56.412Z</time>
    </trkpt>
    <trkpt lat="56.441154" lon="60.737876">
        <ele>258.8</ele>
        <time>1970-01-01T08:21:57.412Z</time>
    </trkpt>
    <trkpt lat="56.441149" lon="60.737892">
        <ele>258.8</ele>
        <time>1970-01-01T08:21:58.412Z</time>
    </trkpt>
    <trkpt lat="56.441126" lon="60.737937">
        <ele>257.8</ele>
        <time>1970-01-01T08:21:59.412Z</time>
    </trkpt>
    <trkpt lat="56.441119" lon="60.737949">
        <ele>257.8</ele>
        <time>1970-01-01T08:22:00.412Z</time>
    </trkpt>
    <trkpt lat="56.441092" lon="60.737984">
        <ele>257.8</ele>
        <time>1970-01-01T08:22:01.412Z</time>
    </trkpt>
    <trkpt lat="56.441068" lon="60.738014">
        <ele>257.8</ele>
        <time>1970-01-01T08:22:02.412Z</time>
    </trkpt>
    <trkpt lat="56.441064" lon="60.738017">
        <ele>257.8</ele>
        <time>1970-01-01T08:22:03.412Z</time>
    </trkpt>
    <trkpt lat="56.441043" lon="60.738039">
        <ele>256.8</ele>
        <time>1970-01-01T08:22:04.412Z</time>
    </trkpt>
    <trkpt lat="56.441017" lon="60.738065">
        <ele>256.8</ele>
        <time>1970-01-01T08:22:05.412Z</time>
    </trkpt>
    <trkpt lat="56.441003" lon="60.738108">
        <ele>257.8</ele>
        <time>1970-01-01T08:22:06.412Z</time>
    </trkpt>
    <trkpt lat="56.440989" lon="60.738156">
        <ele>257.8</ele>
        <time>1970-01-01T08:22:07.412Z</time>
    </trkpt>
    <trkpt lat="56.440979" lon="60.738207">
        <ele>257.8</ele>
        <time>1970-01-01T08:22:08.412Z</time>
    </trkpt>
    <trkpt lat="56.44098" lon="60.738222">
        <ele>257.8</ele>
        <time>1970-01-01T08:22:09.412Z</time>
    </trkpt>
    <trkpt lat="56.440985" lon="60.738282">
        <ele>258.8</ele>
        <time>1970-01-01T08:22:10.412Z</time>
    </trkpt>
    <trkpt lat="56.440983" lon="60.7383">
        <ele>258.8</ele>
        <time>1970-01-01T08:22:11.412Z</time>
    </trkpt>
    <trkpt lat="56.440981" lon="60.738349">
        <ele>258.8</ele>
        <time>1970-01-01T08:22:12.412Z</time>
    </trkpt>
    <trkpt lat="56.440982" lon="60.738371">
        <ele>258.8</ele>
        <time>1970-01-01T08:22:13.412Z</time>
    </trkpt>
    <trkpt lat="56.440995" lon="60.738425">
        <ele>258.8</ele>
        <time>1970-01-01T08:22:15.412Z</time>
    </trkpt>
    <trkpt lat="56.440996" lon="60.738444">
        <ele>258.8</ele>
        <time>1970-01-01T08:22:16.412Z</time>
    </trkpt>
    <trkpt lat="56.440998" lon="60.738495">
        <ele>258.8</ele>
        <time>1970-01-01T08:22:17.412Z</time>
    </trkpt>
    <trkpt lat="56.440988" lon="60.738554">
        <ele>258.8</ele>
        <time>1970-01-01T08:22:18.412Z</time>
    </trkpt>
    <trkpt lat="56.440986" lon="60.738574">
        <ele>258.8</ele>
        <time>1970-01-01T08:22:19.412Z</time>
    </trkpt>
    <trkpt lat="56.440987" lon="60.73862">
        <ele>259.8</ele>
        <time>1970-01-01T08:22:20.412Z</time>
    </trkpt>
    <trkpt lat="56.44099" lon="60.738638">
        <ele>259.8</ele>
        <time>1970-01-01T08:22:21.412Z</time>
    </trkpt>
    <trkpt lat="56.44099" lon="60.738687">
        <ele>259.8</ele>
        <time>1970-01-01T08:22:22.412Z</time>
    </trkpt>
    <trkpt lat="56.440986" lon="60.738711">
        <ele>259.7</ele>
        <time>1970-01-01T08:22:23.412Z</time>
    </trkpt>
    <trkpt lat="56.440972" lon="60.738759">
        <ele>259.7</ele>
        <time>1970-01-01T08:22:24.412Z</time>
    </trkpt>
    <trkpt lat="56.440959" lon="60.738791">
        <ele>260.7</ele>
        <time>1970-01-01T08:22:25.412Z</time>
    </trkpt>
    <trkpt lat="56.440951" lon="60.738806">
        <ele>258.7</ele>
        <time>1970-01-01T08:22:26.412Z</time>
    </trkpt>
    <trkpt lat="56.440952" lon="60.738828">
        <ele>258.7</ele>
        <time>1970-01-01T08:22:27.412Z</time>
    </trkpt>
    <trkpt lat="56.440951" lon="60.738871">
        <ele>258.7</ele>
        <time>1970-01-01T08:22:28.412Z</time>
    </trkpt>
    <trkpt lat="56.440954" lon="60.738887">
        <ele>258.7</ele>
        <time>1970-01-01T08:22:29.412Z</time>
    </trkpt>
    <trkpt lat="56.440953" lon="60.738937">
        <ele>258.7</ele>
        <time>1970-01-01T08:22:30.412Z</time>
    </trkpt>
    <trkpt lat="56.440951" lon="60.738961">
        <ele>258.7</ele>
        <time>1970-01-01T08:22:31.412Z</time>
    </trkpt>
    <trkpt lat="56.440941" lon="60.73902">
        <ele>258.7</ele>
        <time>1970-01-01T08:22:32.412Z</time>
    </trkpt>
    <trkpt lat="56.440939" lon="60.739037">
        <ele>258.7</ele>
        <time>1970-01-01T08:22:33.412Z</time>
    </trkpt>
    <trkpt lat="56.440944" lon="60.739087">
        <ele>258.7</ele>
        <time>1970-01-01T08:22:34.412Z</time>
    </trkpt>
    <trkpt lat="56.440941" lon="60.739106">
        <ele>258.7</ele>
        <time>1970-01-01T08:22:35.412Z</time>
    </trkpt>
    <trkpt lat="56.440932" lon="60.739171">
        <ele>258.7</ele>
        <time>1970-01-01T08:22:36.412Z</time>
    </trkpt>
    <trkpt lat="56.440933" lon="60.739189">
        <ele>258.7</ele>
        <time>1970-01-01T08:22:37.412Z</time>
    </trkpt>
    <trkpt lat="56.440927" lon="60.739242">
        <ele>258.7</ele>
        <time>1970-01-01T08:22:38.412Z</time>
    </trkpt>
    <trkpt lat="56.440923" lon="60.739253">
        <ele>258.7</ele>
        <time>1970-01-01T08:22:39.412Z</time>
    </trkpt>
    <trkpt lat="56.440906" lon="60.739301">
        <ele>258.7</ele>
        <time>1970-01-01T08:22:40.412Z</time>
    </trkpt>
    <trkpt lat="56.4409" lon="60.739326">
        <ele>258.7</ele>
        <time>1970-01-01T08:22:41.412Z</time>
    </trkpt>
    <trkpt lat="56.440887" lon="60.739376">
        <ele>258.7</ele>
        <time>1970-01-01T08:22:42.412Z</time>
    </trkpt>
    <trkpt lat="56.440884" lon="60.739397">
        <ele>258.7</ele>
        <time>1970-01-01T08:22:43.412Z</time>
    </trkpt>
    <trkpt lat="56.440888" lon="60.739436">
        <ele>258.7</ele>
        <time>1970-01-01T08:22:44.412Z</time>
    </trkpt>
    <trkpt lat="56.44089" lon="60.739453">
        <ele>258.7</ele>
        <time>1970-01-01T08:22:45.412Z</time>
    </trkpt>
    <trkpt lat="56.440881" lon="60.739499">
        <ele>257.7</ele>
        <time>1970-01-01T08:22:46.412Z</time>
    </trkpt>
    <trkpt lat="56.440877" lon="60.739535">
        <ele>257.7</ele>
        <time>1970-01-01T08:22:47.412Z</time>
    </trkpt>
    <trkpt lat="56.440864" lon="60.739615">
        <ele>257.7</ele>
        <time>1970-01-01T08:22:48.412Z</time>
    </trkpt>
    <trkpt lat="56.440866" lon="60.739657">
        <ele>257.7</ele>
        <time>1970-01-01T08:22:49.412Z</time>
    </trkpt>
    <trkpt lat="56.440873" lon="60.739673">
        <ele>257.7</ele>
        <time>1970-01-01T08:22:50.412Z</time>
    </trkpt>
    <trkpt lat="56.440878" lon="60.739698">
        <ele>257.7</ele>
        <time>1970-01-01T08:22:51.412Z</time>
    </trkpt>
    <trkpt lat="56.440887" lon="60.73972">
        <ele>257.7</ele>
        <time>1970-01-01T08:22:52.412Z</time>
    </trkpt>
    <trkpt lat="56.440884" lon="60.739769">
        <ele>257.7</ele>
        <time>1970-01-01T08:22:53.412Z</time>
    </trkpt>
    <trkpt lat="56.440884" lon="60.739799">
        <ele>257.7</ele>
        <time>1970-01-01T08:22:54.412Z</time>
    </trkpt>
    <trkpt lat="56.440881" lon="60.739833">
        <ele>256.7</ele>
        <time>1970-01-01T08:22:55.412Z</time>
    </trkpt>
    <trkpt lat="56.440882" lon="60.739849">
        <ele>256.7</ele>
        <time>1970-01-01T08:22:56.412Z</time>
    </trkpt>
    <trkpt lat="56.440879" lon="60.739899">
        <ele>256.7</ele>
        <time>1970-01-01T08:22:57.412Z</time>
    </trkpt>
    <trkpt lat="56.440873" lon="60.739932">
        <ele>256.7</ele>
        <time>1970-01-01T08:22:58.412Z</time>
    </trkpt>
    <trkpt lat="56.440864" lon="60.739942">
        <ele>256.7</ele>
        <time>1970-01-01T08:22:59.412Z</time>
    </trkpt>
    <trkpt lat="56.440863" lon="60.739946">
        <ele>256.7</ele>
        <time>1970-01-01T08:23:00.412Z</time>
    </trkpt>
    <trkpt lat="56.440851" lon="60.739986">
        <ele>254.7</ele>
        <time>1970-01-01T08:23:01.412Z</time>
    </trkpt>
    <trkpt lat="56.440848" lon="60.740044">
        <ele>254.7</ele>
        <time>1970-01-01T08:23:02.412Z</time>
    </trkpt>
    <trkpt lat="56.440837" lon="60.740098">
        <ele>254.7</ele>
        <time>1970-01-01T08:23:03.412Z</time>
    </trkpt>
    <trkpt lat="56.440834" lon="60.740123">
        <ele>254.7</ele>
        <time>1970-01-01T08:23:04.412Z</time>
    </trkpt>
    <trkpt lat="56.440831" lon="60.740148">
        <ele>253.7</ele>
        <time>1970-01-01T08:23:05.412Z</time>
    </trkpt>
    <trkpt lat="56.440824" lon="60.740191">
        <ele>253.6</ele>
        <time>1970-01-01T08:23:06.412Z</time>
    </trkpt>
    <trkpt lat="56.440823" lon="60.740208">
        <ele>253.6</ele>
        <time>1970-01-01T08:23:07.412Z</time>
    </trkpt>
    <trkpt lat="56.440823" lon="60.740262">
        <ele>253.6</ele>
        <time>1970-01-01T08:23:08.412Z</time>
    </trkpt>
    <trkpt lat="56.440809" lon="60.74031">
        <ele>253.5</ele>
        <time>1970-01-01T08:23:09.412Z</time>
    </trkpt>
    <trkpt lat="56.440798" lon="60.740363">
        <ele>253.3</ele>
        <time>1970-01-01T08:23:10.412Z</time>
    </trkpt>
    <trkpt lat="56.440782" lon="60.740404">
        <ele>253.2</ele>
        <time>1970-01-01T08:23:11.412Z</time>
    </trkpt>
    <trkpt lat="56.440771" lon="60.740413">
        <ele>253.1</ele>
        <time>1970-01-01T08:23:12.412Z</time>
    </trkpt>
    <trkpt lat="56.440744" lon="60.740441">
        <ele>253.0</ele>
        <time>1970-01-01T08:23:13.412Z</time>
    </trkpt>
    <trkpt lat="56.440734" lon="60.740447">
        <ele>252.9</ele>
        <time>1970-01-01T08:23:14.412Z</time>
    </trkpt>
    <trkpt lat="56.440706" lon="60.74047">
        <ele>252.8</ele>
        <time>1970-01-01T08:23:15.412Z</time>
    </trkpt>
    <trkpt lat="56.440677" lon="60.740489">
        <ele>252.6</ele>
        <time>1970-01-01T08:23:16.412Z</time>
    </trkpt>
    <trkpt lat="56.440649" lon="60.740512">
        <ele>252.5</ele>
        <time>1970-01-01T08:23:17.412Z</time>
    </trkpt>
    <trkpt lat="56.44062" lon="60.740531">
        <ele>252.3</ele>
        <time>1970-01-01T08:23:18.412Z</time>
    </trkpt>
    <trkpt lat="56.440591" lon="60.740555">
        <ele>252.2</ele>
        <time>1970-01-01T08:23:19.412Z</time>
    </trkpt>
    <trkpt lat="56.440567" lon="60.74058">
        <ele>252.1</ele>
        <time>1970-01-01T08:23:20.412Z</time>
    </trkpt>
    <trkpt lat="56.440555" lon="60.740588">
        <ele>252.0</ele>
        <time>1970-01-01T08:23:21.412Z</time>
    </trkpt>
    <trkpt lat="56.440519" lon="60.74061">
        <ele>251.8</ele>
        <time>1970-01-01T08:23:22.412Z</time>
    </trkpt>
    <trkpt lat="56.440489" lon="60.740631">
        <ele>251.7</ele>
        <time>1970-01-01T08:23:23.412Z</time>
    </trkpt>
    <trkpt lat="56.440456" lon="60.740653">
        <ele>251.5</ele>
        <time>1970-01-01T08:23:24.412Z</time>
    </trkpt>
    <trkpt lat="56.44042" lon="60.74068">
        <ele>251.4</ele>
        <time>1970-01-01T08:23:25.412Z</time>
    </trkpt>
    <trkpt lat="56.44039" lon="60.740695">
        <ele>251.2</ele>
        <time>1970-01-01T08:23:26.412Z</time>
    </trkpt>
    <trkpt lat="56.440353" lon="60.740723">
        <ele>251.1</ele>
        <time>1970-01-01T08:23:27.412Z</time>
    </trkpt>
    <trkpt lat="56.440319" lon="60.740744">
        <ele>251.0</ele>
        <time>1970-01-01T08:23:28.412Z</time>
    </trkpt>
    <trkpt lat="56.440289" lon="60.740767">
        <ele>250.9</ele>
        <time>1970-01-01T08:23:29.412Z</time>
    </trkpt>
    <trkpt lat="56.440275" lon="60.740771">
        <ele>250.8</ele>
        <time>1970-01-01T08:23:30.412Z</time>
    </trkpt>
    <trkpt lat="56.440237" lon="60.740794">
        <ele>250.7</ele>
        <time>1970-01-01T08:23:31.412Z</time>
    </trkpt>
    <trkpt lat="56.440208" lon="60.740812">
        <ele>250.6</ele>
        <time>1970-01-01T08:23:32.412Z</time>
    </trkpt>
    <trkpt lat="56.440197" lon="60.740823">
        <ele>250.6</ele>
        <time>1970-01-01T08:23:33.412Z</time>
    </trkpt>
    <trkpt lat="56.440164" lon="60.740854">
        <ele>250.5</ele>
        <time>1970-01-01T08:23:34.412Z</time>
    </trkpt>
    <trkpt lat="56.440151" lon="60.740864">
        <ele>251.7</ele>
        <time>1970-01-01T08:23:35.282Z</time>
    </trkpt>
    <trkpt lat="56.4396459160719" lon="60.740794997055055">
        <ele>249.4</ele>
        <time>1970-01-01T08:24:06.504Z</time>
    </trkpt>
    <trkpt lat="56.43914082543211" lon="60.740725994110115">
        <ele>248.1</ele>
        <time>1970-01-01T08:24:37.726Z</time>
    </trkpt>
    <trkpt lat="56.43857236139096" lon="60.74082835746446">
        <ele>246.7</ele>
        <time>1970-01-01T08:25:12.939Z</time>
    </trkpt>
    <trkpt lat="56.43787348776777" lon="60.74095420158227">
        <ele>246.1</ele>
        <time>1970-01-01T08:25:56.231Z</time>
    </trkpt>
    <trkpt lat="56.43717460129533" lon="60.74108004570008">
        <ele>246.0</ele>
        <time>1970-01-01T08:26:39.523Z</time>
    </trkpt>
    <trkpt lat="56.43704330087443" lon="60.741126522850045">
        <ele>246.0</ele>
        <time>1970-01-01T08:26:47.769Z</time>
    </trkpt>
    <trkpt lat="56.43691200000001" lon="60.741173">
        <ele>246.0</ele>
        <time>1970-01-01T08:26:56.023Z</time>
    </trkpt>
    <trkpt lat="56.436895" lon="60.741168">
        <ele>255.1</ele>
        <time>1970-01-01T08:26:57.085Z</time>
    </trkpt>
    <trkpt lat="56.436877" lon="60.741158">
        <ele>255.1</ele>
        <time>1970-01-01T08:26:58.085Z</time>
    </trkpt>
    <trkpt lat="56.436862" lon="60.741158">
        <ele>255.1</ele>
        <time>1970-01-01T08:26:59.085Z</time>
    </trkpt>
    <trkpt lat="56.436846" lon="60.741153">
        <ele>255.2</ele>
        <time>1970-01-01T08:27:00.085Z</time>
    </trkpt>
    <trkpt lat="56.436827" lon="60.741155">
        <ele>255.2</ele>
        <time>1970-01-01T08:27:01.085Z</time>
    </trkpt>
    <trkpt lat="56.436815" lon="60.741157">
        <ele>255.2</ele>
        <time>1970-01-01T08:27:02.085Z</time>
    </trkpt>
    <trkpt lat="56.436782" lon="60.741147">
        <ele>255.2</ele>
        <time>1970-01-01T08:27:03.085Z</time>
    </trkpt>
    <trkpt lat="56.436771" lon="60.741132">
        <ele>255.3</ele>
        <time>1970-01-01T08:27:04.085Z</time>
    </trkpt>
    <trkpt lat="56.43676" lon="60.741126">
        <ele>255.3</ele>
        <time>1970-01-01T08:27:05.085Z</time>
    </trkpt>
    <trkpt lat="56.436748" lon="60.741138">
        <ele>255.3</ele>
        <time>1970-01-01T08:27:06.085Z</time>
    </trkpt>
    <trkpt lat="56.436738" lon="60.741138">
        <ele>255.3</ele>
        <time>1970-01-01T08:27:07.085Z</time>
    </trkpt>
    <trkpt lat="56.436706" lon="60.741139">
        <ele>255.3</ele>
        <time>1970-01-01T08:27:08.085Z</time>
    </trkpt>
    <trkpt lat="56.436695" lon="60.741144">
        <ele>255.3</ele>
        <time>1970-01-01T08:27:09.085Z</time>
    </trkpt>
    <trkpt lat="56.436661" lon="60.741151">
        <ele>255.3</ele>
        <time>1970-01-01T08:27:10.085Z</time>
    </trkpt>
    <trkpt lat="56.43665" lon="60.741152">
        <ele>255.3</ele>
        <time>1970-01-01T08:27:11.085Z</time>
    </trkpt>
    <trkpt lat="56.436618" lon="60.74115">
        <ele>255.3</ele>
        <time>1970-01-01T08:27:12.085Z</time>
    </trkpt>
    <trkpt lat="56.436607" lon="60.741148">
        <ele>255.3</ele>
        <time>1970-01-01T08:27:13.085Z</time>
    </trkpt>
    <trkpt lat="56.436572" lon="60.741144">
        <ele>255.3</ele>
        <time>1970-01-01T08:27:14.085Z</time>
    </trkpt>
    <trkpt lat="56.43656" lon="60.741144">
        <ele>255.3</ele>
        <time>1970-01-01T08:27:15.085Z</time>
    </trkpt>
    <trkpt lat="56.436525" lon="60.741147">
        <ele>255.3</ele>
        <time>1970-01-01T08:27:16.085Z</time>
    </trkpt>
    <trkpt lat="56.436513" lon="60.741147">
        <ele>255.3</ele>
        <time>1970-01-01T08:27:17.085Z</time>
    </trkpt>
    <trkpt lat="56.436478" lon="60.74114">
        <ele>255.3</ele>
        <time>1970-01-01T08:27:18.085Z</time>
    </trkpt>
    <trkpt lat="56.436468" lon="60.741133">
        <ele>255.3</ele>
        <time>1970-01-01T08:27:19.085Z</time>
    </trkpt>
    <trkpt lat="56.436433" lon="60.741128">
        <ele>255.3</ele>
        <time>1970-01-01T08:27:20.085Z</time>
    </trkpt>
    <trkpt lat="56.436425" lon="60.741132">
        <ele>255.3</ele>
        <time>1970-01-01T08:27:21.085Z</time>
    </trkpt>
    <trkpt lat="56.436396" lon="60.741147">
        <ele>255.3</ele>
        <time>1970-01-01T08:27:22.085Z</time>
    </trkpt>
    <trkpt lat="56.436385" lon="60.741152">
        <ele>255.3</ele>
        <time>1970-01-01T08:27:23.085Z</time>
    </trkpt>
    <trkpt lat="56.43635" lon="60.741161">
        <ele>255.3</ele>
        <time>1970-01-01T08:27:24.085Z</time>
    </trkpt>
    <trkpt lat="56.436338" lon="60.741158">
        <ele>255.3</ele>
        <time>1970-01-01T08:27:25.085Z</time>
    </trkpt>
    <trkpt lat="56.436304" lon="60.741159">
        <ele>255.3</ele>
        <time>1970-01-01T08:27:26.085Z</time>
    </trkpt>
    <trkpt lat="56.436293" lon="60.741162">
        <ele>255.3</ele>
        <time>1970-01-01T08:27:27.085Z</time>
    </trkpt>
    <trkpt lat="56.43626" lon="60.741171">
        <ele>255.3</ele>
        <time>1970-01-01T08:27:28.085Z</time>
    </trkpt>
    <trkpt lat="56.436249" lon="60.74117">
        <ele>255.3</ele>
        <time>1970-01-01T08:27:29.085Z</time>
    </trkpt>
    <trkpt lat="56.43622" lon="60.741159">
        <ele>255.3</ele>
        <time>1970-01-01T08:27:30.085Z</time>
    </trkpt>
    <trkpt lat="56.436203" lon="60.741152">
        <ele>255.3</ele>
        <time>1970-01-01T08:27:31.085Z</time>
    </trkpt>
    <trkpt lat="56.436188" lon="60.741149">
        <ele>255.3</ele>
        <time>1970-01-01T08:27:32.085Z</time>
    </trkpt>
    <trkpt lat="56.436177" lon="60.741147">
        <ele>255.4</ele>
        <time>1970-01-01T08:27:33.085Z</time>
    </trkpt>
    <trkpt lat="56.436142" lon="60.741142">
        <ele>255.4</ele>
        <time>1970-01-01T08:27:34.085Z</time>
    </trkpt>
    <trkpt lat="56.436131" lon="60.741143">
        <ele>255.4</ele>
        <time>1970-01-01T08:27:35.085Z</time>
    </trkpt>
    <trkpt lat="56.436096" lon="60.741148">
        <ele>255.4</ele>
        <time>1970-01-01T08:27:37.085Z</time>
    </trkpt>
    <trkpt lat="56.436085" lon="60.741147">
        <ele>255.4</ele>
        <time>1970-01-01T08:27:38.085Z</time>
    </trkpt>
    <trkpt lat="56.436055" lon="60.741139">
        <ele>255.4</ele>
        <time>1970-01-01T08:27:39.085Z</time>
    </trkpt>
    <trkpt lat="56.436038" lon="60.741146">
        <ele>255.4</ele>
        <time>1970-01-01T08:27:40.085Z</time>
    </trkpt>
    <trkpt lat="56.43602" lon="60.741142">
        <ele>255.5</ele>
        <time>1970-01-01T08:27:41.085Z</time>
    </trkpt>
    <trkpt lat="56.43601" lon="60.741135">
        <ele>255.5</ele>
        <time>1970-01-01T08:27:42.085Z</time>
    </trkpt>
    <trkpt lat="56.435979" lon="60.741121">
        <ele>255.5</ele>
        <time>1970-01-01T08:27:43.085Z</time>
    </trkpt>
    <trkpt lat="56.435969" lon="60.741115">
        <ele>255.5</ele>
        <time>1970-01-01T08:27:44.085Z</time>
    </trkpt>
    <trkpt lat="56.435941" lon="60.741101">
        <ele>255.5</ele>
        <time>1970-01-01T08:27:45.085Z</time>
    </trkpt>
    <trkpt lat="56.43593" lon="60.741098">
        <ele>255.5</ele>
        <time>1970-01-01T08:27:46.085Z</time>
    </trkpt>
    <trkpt lat="56.435897" lon="60.741088">
        <ele>255.6</ele>
        <time>1970-01-01T08:27:47.085Z</time>
    </trkpt>
    <trkpt lat="56.435888" lon="60.741083">
        <ele>255.6</ele>
        <time>1970-01-01T08:27:48.085Z</time>
    </trkpt>
    <trkpt lat="56.435859" lon="60.741073">
        <ele>255.6</ele>
        <time>1970-01-01T08:27:49.085Z</time>
    </trkpt>
    <trkpt lat="56.435848" lon="60.741072">
        <ele>255.6</ele>
        <time>1970-01-01T08:27:50.085Z</time>
    </trkpt>
    <trkpt lat="56.435819" lon="60.741076">
        <ele>255.7</ele>
        <time>1970-01-01T08:27:51.085Z</time>
    </trkpt>
    <trkpt lat="56.435809" lon="60.741073">
        <ele>255.7</ele>
        <time>1970-01-01T08:27:52.085Z</time>
    </trkpt>
    <trkpt lat="56.435776" lon="60.741078">
        <ele>255.8</ele>
        <time>1970-01-01T08:27:53.085Z</time>
    </trkpt>
    <trkpt lat="56.435757" lon="60.741081">
        <ele>255.8</ele>
        <time>1970-01-01T08:27:54.085Z</time>
    </trkpt>
    <trkpt lat="56.435743" lon="60.741093">
        <ele>255.9</ele>
        <time>1970-01-01T08:27:55.085Z</time>
    </trkpt>
    <trkpt lat="56.43573" lon="60.741104">
        <ele>255.9</ele>
        <time>1970-01-01T08:27:56.085Z</time>
    </trkpt>
    <trkpt lat="56.435713" lon="60.741116">
        <ele>256.0</ele>
        <time>1970-01-01T08:27:57.085Z</time>
    </trkpt>
    <trkpt lat="56.4357" lon="60.741127">
        <ele>256.0</ele>
        <time>1970-01-01T08:27:58.085Z</time>
    </trkpt>
    <trkpt lat="56.435689" lon="60.741142">
        <ele>256.0</ele>
        <time>1970-01-01T08:27:59.085Z</time>
    </trkpt>
    <trkpt lat="56.435681" lon="60.741152">
        <ele>256.1</ele>
        <time>1970-01-01T08:28:00.085Z</time>
    </trkpt>
    <trkpt lat="56.435673" lon="60.741162">
        <ele>256.1</ele>
        <time>1970-01-01T08:28:01.085Z</time>
    </trkpt>
    <trkpt lat="56.435654" lon="60.741187">
        <ele>256.2</ele>
        <time>1970-01-01T08:28:02.085Z</time>
    </trkpt>
    <trkpt lat="56.435646" lon="60.741203">
        <ele>256.2</ele>
        <time>1970-01-01T08:28:03.085Z</time>
    </trkpt>
    <trkpt lat="56.435621" lon="60.741235">
        <ele>256.3</ele>
        <time>1970-01-01T08:28:04.085Z</time>
    </trkpt>
    <trkpt lat="56.435598" lon="60.74125">
        <ele>256.4</ele>
        <time>1970-01-01T08:28:05.085Z</time>
    </trkpt>
    <trkpt lat="56.435594" lon="60.741267">
        <ele>256.5</ele>
        <time>1970-01-01T08:28:06.085Z</time>
    </trkpt>
    <trkpt lat="56.435589" lon="60.741282">
        <ele>256.5</ele>
        <time>1970-01-01T08:28:07.085Z</time>
    </trkpt>
    <trkpt lat="56.435584" lon="60.741297">
        <ele>256.6</ele>
        <time>1970-01-01T08:28:08.085Z</time>
    </trkpt>
    <trkpt lat="56.435578" lon="60.741329">
        <ele>256.7</ele>
        <time>1970-01-01T08:28:09.085Z</time>
    </trkpt>
    <trkpt lat="56.435572" lon="60.741348">
        <ele>256.7</ele>
        <time>1970-01-01T08:28:10.085Z</time>
    </trkpt>
    <trkpt lat="56.43555" lon="60.741347">
        <ele>256.7</ele>
        <time>1970-01-01T08:28:11.085Z</time>
    </trkpt>
    <trkpt lat="56.43554" lon="60.741352">
        <ele>257.2</ele>
        <time>1970-01-01T08:28:12.085Z</time>
    </trkpt>
    <trkpt lat="56.435531" lon="60.741357">
        <ele>257.2</ele>
        <time>1970-01-01T08:28:13.085Z</time>
    </trkpt>
    <trkpt lat="56.435519" lon="60.741381">
        <ele>257.2</ele>
        <time>1970-01-01T08:28:14.085Z</time>
    </trkpt>
    <trkpt lat="56.435505" lon="60.741403">
        <ele>257.2</ele>
        <time>1970-01-01T08:28:15.085Z</time>
    </trkpt>
    <trkpt lat="56.435495" lon="60.741411">
        <ele>257.2</ele>
        <time>1970-01-01T08:28:16.085Z</time>
    </trkpt>
    <trkpt lat="56.435481" lon="60.741421">
        <ele>257.2</ele>
        <time>1970-01-01T08:28:17.085Z</time>
    </trkpt>
    <trkpt lat="56.435467" lon="60.741432">
        <ele>257.2</ele>
        <time>1970-01-01T08:28:18.085Z</time>
    </trkpt>
    <trkpt lat="56.435457" lon="60.741452">
        <ele>257.2</ele>
        <time>1970-01-01T08:28:19.085Z</time>
    </trkpt>
    <trkpt lat="56.435441" lon="60.741461">
        <ele>265.8</ele>
        <time>1970-01-01T08:28:20.085Z</time>
    </trkpt>
    <trkpt lat="56.435426" lon="60.741471">
        <ele>265.8</ele>
        <time>1970-01-01T08:28:21.085Z</time>
    </trkpt>
    <trkpt lat="56.435411" lon="60.741475">
        <ele>265.8</ele>
        <time>1970-01-01T08:28:22.085Z</time>
    </trkpt>
    <trkpt lat="56.435399" lon="60.741477">
        <ele>265.8</ele>
        <time>1970-01-01T08:28:23.085Z</time>
    </trkpt>
    <trkpt lat="56.435365" lon="60.741479">
        <ele>265.8</ele>
        <time>1970-01-01T08:28:24.085Z</time>
    </trkpt>
    <trkpt lat="56.435355" lon="60.741479">
        <ele>267.8</ele>
        <time>1970-01-01T08:28:25.085Z</time>
    </trkpt>
    <trkpt lat="56.435325" lon="60.741473">
        <ele>267.8</ele>
        <time>1970-01-01T08:28:26.085Z</time>
    </trkpt>
    <trkpt lat="56.435314" lon="60.741469">
        <ele>267.8</ele>
        <time>1970-01-01T08:28:27.085Z</time>
    </trkpt>
    <trkpt lat="56.435304" lon="60.741473">
        <ele>267.8</ele>
        <time>1970-01-01T08:28:28.085Z</time>
    </trkpt>
    <trkpt lat="56.435291" lon="60.741473">
        <ele>267.8</ele>
        <time>1970-01-01T08:28:29.085Z</time>
    </trkpt>
    <trkpt lat="56.435279" lon="60.741469">
        <ele>267.8</ele>
        <time>1970-01-01T08:28:30.085Z</time>
    </trkpt>
    <trkpt lat="56.435267" lon="60.741465">
        <ele>267.8</ele>
        <time>1970-01-01T08:28:31.085Z</time>
    </trkpt>
    <trkpt lat="56.435244" lon="60.741455">
        <ele>269.8</ele>
        <time>1970-01-01T08:28:32.085Z</time>
    </trkpt>
    <trkpt lat="56.43523" lon="60.741447">
        <ele>269.8</ele>
        <time>1970-01-01T08:28:33.085Z</time>
    </trkpt>
    <trkpt lat="56.435212" lon="60.741439">
        <ele>269.8</ele>
        <time>1970-01-01T08:28:34.085Z</time>
    </trkpt>
    <trkpt lat="56.435195" lon="60.741434">
        <ele>269.8</ele>
        <time>1970-01-01T08:28:35.085Z</time>
    </trkpt>
    <trkpt lat="56.435181" lon="60.741437">
        <ele>269.8</ele>
        <time>1970-01-01T08:28:36.085Z</time>
    </trkpt>
    <trkpt lat="56.435173" lon="60.741434">
        <ele>269.8</ele>
        <time>1970-01-01T08:28:37.085Z</time>
    </trkpt>
    <trkpt lat="56.435143" lon="60.741421">
        <ele>271.8</ele>
        <time>1970-01-01T08:28:38.085Z</time>
    </trkpt>
    <trkpt lat="56.435124" lon="60.741421">
        <ele>271.8</ele>
        <time>1970-01-01T08:28:39.085Z</time>
    </trkpt>
    <trkpt lat="56.435115" lon="60.741429">
        <ele>271.8</ele>
        <time>1970-01-01T08:28:40.085Z</time>
    </trkpt>
    <trkpt lat="56.435094" lon="60.741428">
        <ele>271.8</ele>
        <time>1970-01-01T08:28:41.085Z</time>
    </trkpt>
    <trkpt lat="56.435084" lon="60.741433">
        <ele>271.8</ele>
        <time>1970-01-01T08:28:42.085Z</time>
    </trkpt>
    <trkpt lat="56.435074" lon="60.741433">
        <ele>271.8</ele>
        <time>1970-01-01T08:28:43.085Z</time>
    </trkpt>
    <trkpt lat="56.435044" lon="60.741435">
        <ele>273.8</ele>
        <time>1970-01-01T08:28:44.085Z</time>
    </trkpt>
    <trkpt lat="56.43503" lon="60.741436">
        <ele>273.8</ele>
        <time>1970-01-01T08:28:45.085Z</time>
    </trkpt>
    <trkpt lat="56.435009" lon="60.741437">
        <ele>273.8</ele>
        <time>1970-01-01T08:28:46.085Z</time>
    </trkpt>
    <trkpt lat="56.434993" lon="60.741439">
        <ele>273.8</ele>
        <time>1970-01-01T08:28:47.085Z</time>
    </trkpt>
    <trkpt lat="56.434945" lon="60.741391">
        <ele>274.8</ele>
        <time>1970-01-01T08:28:52.085Z</time>
    </trkpt>
    <trkpt lat="56.434939" lon="60.741389">
        <ele>274.8</ele>
        <time>1970-01-01T08:28:53.085Z</time>
    </trkpt>
    <trkpt lat="56.434935" lon="60.741387">
        <ele>274.8</ele>
        <time>1970-01-01T08:28:54.085Z</time>
    </trkpt>
    <trkpt lat="56.434929" lon="60.741391">
        <ele>274.8</ele>
        <time>1970-01-01T08:28:55.085Z</time>
    </trkpt>
    <trkpt lat="56.434929" lon="60.741391">
        <ele>274.8</ele>
        <time>1970-01-01T08:28:56.085Z</time>
    </trkpt>
    <trkpt lat="56.434927" lon="60.741393">
        <ele>274.8</ele>
        <time>1970-01-01T08:28:57.085Z</time>
    </trkpt>
    <trkpt lat="56.434924" lon="60.74139">
        <ele>274.8</ele>
        <time>1970-01-01T08:28:58.085Z</time>
    </trkpt>
    <trkpt lat="56.43492" lon="60.741387">
        <ele>274.8</ele>
        <time>1970-01-01T08:28:59.085Z</time>
    </trkpt>
    <trkpt lat="56.434912" lon="60.741384">
        <ele>274.8</ele>
        <time>1970-01-01T08:29:00.085Z</time>
    </trkpt>
    <trkpt lat="56.434903" lon="60.741379">
        <ele>274.8</ele>
        <time>1970-01-01T08:29:01.085Z</time>
    </trkpt>
    <trkpt lat="56.434898" lon="60.74138">
        <ele>274.8</ele>
        <time>1970-01-01T08:29:02.085Z</time>
    </trkpt>
    <trkpt lat="56.434891" lon="60.741377">
        <ele>274.8</ele>
        <time>1970-01-01T08:29:03.085Z</time>
    </trkpt>
    <trkpt lat="56.434875" lon="60.741374">
        <ele>275.8</ele>
        <time>1970-01-01T08:29:04.085Z</time>
    </trkpt>
    <trkpt lat="56.434865" lon="60.741374">
        <ele>275.8</ele>
        <time>1970-01-01T08:29:05.085Z</time>
    </trkpt>
    <trkpt lat="56.434854" lon="60.741373">
        <ele>275.8</ele>
        <time>1970-01-01T08:29:06.085Z</time>
    </trkpt>
    <trkpt lat="56.434848" lon="60.741374">
        <ele>275.8</ele>
        <time>1970-01-01T08:29:07.085Z</time>
    </trkpt>
    <trkpt lat="56.434836" lon="60.741379">
        <ele>275.8</ele>
        <time>1970-01-01T08:29:08.085Z</time>
    </trkpt>
    <trkpt lat="56.434824" lon="60.741379">
        <ele>275.8</ele>
        <time>1970-01-01T08:29:09.085Z</time>
    </trkpt>
    <trkpt lat="56.434813" lon="60.741385">
        <ele>275.8</ele>
        <time>1970-01-01T08:29:10.085Z</time>
    </trkpt>
    <trkpt lat="56.434801" lon="60.741386">
        <ele>275.8</ele>
        <time>1970-01-01T08:29:11.085Z</time>
    </trkpt>
    <trkpt lat="56.434789" lon="60.741383">
        <ele>275.8</ele>
        <time>1970-01-01T08:29:12.085Z</time>
    </trkpt>
    <trkpt lat="56.43478" lon="60.74138">
        <ele>275.8</ele>
        <time>1970-01-01T08:29:13.085Z</time>
    </trkpt>
    <trkpt lat="56.434769" lon="60.741383">
        <ele>275.8</ele>
        <time>1970-01-01T08:29:14.085Z</time>
    </trkpt>
    <trkpt lat="56.434755" lon="60.741383">
        <ele>275.8</ele>
        <time>1970-01-01T08:29:15.085Z</time>
    </trkpt>
    <trkpt lat="56.434741" lon="60.741384">
        <ele>275.8</ele>
        <time>1970-01-01T08:29:16.085Z</time>
    </trkpt>
    <trkpt lat="56.434734" lon="60.741382">
        <ele>275.8</ele>
        <time>1970-01-01T08:29:17.085Z</time>
    </trkpt>
    <trkpt lat="56.434721" lon="60.741381">
        <ele>275.8</ele>
        <time>1970-01-01T08:29:18.085Z</time>
    </trkpt>
    <trkpt lat="56.434712" lon="60.741385">
        <ele>275.8</ele>
        <time>1970-01-01T08:29:19.085Z</time>
    </trkpt>
    <trkpt lat="56.434705" lon="60.741385">
        <ele>275.8</ele>
        <time>1970-01-01T08:29:20.085Z</time>
    </trkpt>
    <trkpt lat="56.434691" lon="60.741386">
        <ele>274.8</ele>
        <time>1970-01-01T08:29:21.085Z</time>
    </trkpt>
    <trkpt lat="56.434685" lon="60.741386">
        <ele>274.8</ele>
        <time>1970-01-01T08:29:22.085Z</time>
    </trkpt>
    <trkpt lat="56.434678" lon="60.741381">
        <ele>274.8</ele>
        <time>1970-01-01T08:29:23.085Z</time>
    </trkpt>
    <trkpt lat="56.434672" lon="60.741378">
        <ele>274.8</ele>
        <time>1970-01-01T08:29:24.085Z</time>
    </trkpt>
    <trkpt lat="56.434664" lon="60.741374">
        <ele>274.8</ele>
        <time>1970-01-01T08:29:25.085Z</time>
    </trkpt>
    <trkpt lat="56.434655" lon="60.741371">
        <ele>274.8</ele>
        <time>1970-01-01T08:29:26.085Z</time>
    </trkpt>
    <trkpt lat="56.434635" lon="60.741365">
        <ele>274.8</ele>
        <time>1970-01-01T08:29:27.085Z</time>
    </trkpt>
    <trkpt lat="56.434624" lon="60.741362">
        <ele>274.8</ele>
        <time>1970-01-01T08:29:28.085Z</time>
    </trkpt>
    <trkpt lat="56.434606" lon="60.741361">
        <ele>274.8</ele>
        <time>1970-01-01T08:29:29.085Z</time>
    </trkpt>
    <trkpt lat="56.434599" lon="60.741359">
        <ele>274.8</ele>
        <time>1970-01-01T08:29:30.085Z</time>
    </trkpt>
    <trkpt lat="56.43459" lon="60.741356">
        <ele>274.8</ele>
        <time>1970-01-01T08:29:31.085Z</time>
    </trkpt>
    <trkpt lat="56.434582" lon="60.741353">
        <ele>274.8</ele>
        <time>1970-01-01T08:29:32.085Z</time>
    </trkpt>
    <trkpt lat="56.434574" lon="60.741349">
        <ele>274.8</ele>
        <time>1970-01-01T08:29:33.085Z</time>
    </trkpt>
    <trkpt lat="56.434562" lon="60.74134">
        <ele>274.8</ele>
        <time>1970-01-01T08:29:34.085Z</time>
    </trkpt>
    <trkpt lat="56.434549" lon="60.741332">
        <ele>274.8</ele>
        <time>1970-01-01T08:29:35.085Z</time>
    </trkpt>
    <trkpt lat="56.434533" lon="60.741332">
        <ele>274.8</ele>
        <time>1970-01-01T08:29:36.085Z</time>
    </trkpt>
    <trkpt lat="56.434519" lon="60.741338">
        <ele>274.8</ele>
        <time>1970-01-01T08:29:37.085Z</time>
    </trkpt>
    <trkpt lat="56.434511" lon="60.741341">
        <ele>274.8</ele>
        <time>1970-01-01T08:29:38.085Z</time>
    </trkpt>
    <trkpt lat="56.434503" lon="60.74134">
        <ele>274.8</ele>
        <time>1970-01-01T08:29:39.085Z</time>
    </trkpt>
    <trkpt lat="56.434497" lon="60.741338">
        <ele>274.8</ele>
        <time>1970-01-01T08:29:40.085Z</time>
    </trkpt>
    <trkpt lat="56.43449" lon="60.741337">
        <ele>274.8</ele>
        <time>1970-01-01T08:29:41.085Z</time>
    </trkpt>
    <trkpt lat="56.434483" lon="60.741336">
        <ele>274.8</ele>
        <time>1970-01-01T08:29:43.085Z</time>
    </trkpt>
    <trkpt lat="56.434476" lon="60.741334">
        <ele>274.8</ele>
        <time>1970-01-01T08:29:44.085Z</time>
    </trkpt>
    <trkpt lat="56.434467" lon="60.741338">
        <ele>274.8</ele>
        <time>1970-01-01T08:29:45.085Z</time>
    </trkpt>
    <trkpt lat="56.43446" lon="60.741339">
        <ele>274.8</ele>
        <time>1970-01-01T08:29:46.085Z</time>
    </trkpt>
    <trkpt lat="56.434453" lon="60.741341">
        <ele>274.8</ele>
        <time>1970-01-01T08:29:47.085Z</time>
    </trkpt>
    <trkpt lat="56.434431" lon="60.741342">
        <ele>274.8</ele>
        <time>1970-01-01T08:29:48.085Z</time>
    </trkpt>
    <trkpt lat="56.434423" lon="60.741339">
        <ele>274.8</ele>
        <time>1970-01-01T08:29:49.085Z</time>
    </trkpt>
    <trkpt lat="56.434409" lon="60.741341">
        <ele>274.8</ele>
        <time>1970-01-01T08:29:50.085Z</time>
    </trkpt>
    <trkpt lat="56.4344" lon="60.741344">
        <ele>273.8</ele>
        <time>1970-01-01T08:29:51.085Z</time>
    </trkpt>
    <trkpt lat="56.434384" lon="60.741344">
        <ele>273.8</ele>
        <time>1970-01-01T08:29:52.085Z</time>
    </trkpt>
    <trkpt lat="56.434369" lon="60.741346">
        <ele>273.8</ele>
        <time>1970-01-01T08:29:53.085Z</time>
    </trkpt>
    <trkpt lat="56.434351" lon="60.741342">
        <ele>273.8</ele>
        <time>1970-01-01T08:29:54.085Z</time>
    </trkpt>
    <trkpt lat="56.434338" lon="60.741341">
        <ele>273.8</ele>
        <time>1970-01-01T08:29:55.085Z</time>
    </trkpt>
    <trkpt lat="56.434324" lon="60.741342">
        <ele>273.8</ele>
        <time>1970-01-01T08:29:56.085Z</time>
    </trkpt>
    <trkpt lat="56.434306" lon="60.741344">
        <ele>273.8</ele>
        <time>1970-01-01T08:29:57.085Z</time>
    </trkpt>
    <trkpt lat="56.434296" lon="60.741344">
        <ele>273.8</ele>
        <time>1970-01-01T08:29:58.085Z</time>
    </trkpt>
    <trkpt lat="56.434285" lon="60.741344">
        <ele>273.8</ele>
        <time>1970-01-01T08:29:59.085Z</time>
    </trkpt>
    <trkpt lat="56.434265" lon="60.741344">
        <ele>273.8</ele>
        <time>1970-01-01T08:30:00.085Z</time>
    </trkpt>
    <trkpt lat="56.434248" lon="60.741344">
        <ele>273.8</ele>
        <time>1970-01-01T08:30:01.085Z</time>
    </trkpt>
    <trkpt lat="56.434233" lon="60.741349">
        <ele>273.8</ele>
        <time>1970-01-01T08:30:02.085Z</time>
    </trkpt>
    <trkpt lat="56.434212" lon="60.741345">
        <ele>272.8</ele>
        <time>1970-01-01T08:30:03.085Z</time>
    </trkpt>
    <trkpt lat="56.434197" lon="60.741349">
        <ele>272.8</ele>
        <time>1970-01-01T08:30:04.085Z</time>
    </trkpt>
    <trkpt lat="56.434188" lon="60.741352">
        <ele>272.8</ele>
        <time>1970-01-01T08:30:05.085Z</time>
    </trkpt>
    <trkpt lat="56.43418" lon="60.741355">
        <ele>272.8</ele>
        <time>1970-01-01T08:30:06.085Z</time>
    </trkpt>
    <trkpt lat="56.434159" lon="60.741356">
        <ele>272.8</ele>
        <time>1970-01-01T08:30:07.085Z</time>
    </trkpt>
    <trkpt lat="56.434142" lon="60.741363">
        <ele>272.8</ele>
        <time>1970-01-01T08:30:08.085Z</time>
    </trkpt>
    <trkpt lat="56.434131" lon="60.741363">
        <ele>272.8</ele>
        <time>1970-01-01T08:30:09.085Z</time>
    </trkpt>
    <trkpt lat="56.434114" lon="60.741365">
        <ele>272.8</ele>
        <time>1970-01-01T08:30:10.085Z</time>
    </trkpt>
    <trkpt lat="56.434096" lon="60.741369">
        <ele>272.8</ele>
        <time>1970-01-01T08:30:11.085Z</time>
    </trkpt>
    <trkpt lat="56.434084" lon="60.741372">
        <ele>272.8</ele>
        <time>1970-01-01T08:30:12.085Z</time>
    </trkpt>
    <trkpt lat="56.434067" lon="60.74138">
        <ele>272.8</ele>
        <time>1970-01-01T08:30:13.085Z</time>
    </trkpt>
    <trkpt lat="56.434051" lon="60.741367">
        <ele>272.8</ele>
        <time>1970-01-01T08:30:14.085Z</time>
    </trkpt>
    <trkpt lat="56.434034" lon="60.741371">
        <ele>272.8</ele>
        <time>1970-01-01T08:30:15.085Z</time>
    </trkpt>
    <trkpt lat="56.434011" lon="60.741376">
        <ele>271.8</ele>
        <time>1970-01-01T08:30:16.085Z</time>
    </trkpt>
    <trkpt lat="56.434004" lon="60.741376">
        <ele>271.8</ele>
        <time>1970-01-01T08:30:17.085Z</time>
    </trkpt>
    <trkpt lat="56.433996" lon="60.741375">
        <ele>271.8</ele>
        <time>1970-01-01T08:30:18.085Z</time>
    </trkpt>
    <trkpt lat="56.433981" lon="60.741377">
        <ele>271.8</ele>
        <time>1970-01-01T08:30:19.085Z</time>
    </trkpt>
    <trkpt lat="56.43397" lon="60.741373">
        <ele>271.8</ele>
        <time>1970-01-01T08:30:20.085Z</time>
    </trkpt>
    <trkpt lat="56.43396" lon="60.741376">
        <ele>271.8</ele>
        <time>1970-01-01T08:30:21.085Z</time>
    </trkpt>
    <trkpt lat="56.43395" lon="60.741379">
        <ele>271.8</ele>
        <time>1970-01-01T08:30:22.085Z</time>
    </trkpt>
    <trkpt lat="56.433925" lon="60.741376">
        <ele>271.8</ele>
        <time>1970-01-01T08:30:23.085Z</time>
    </trkpt>
    <trkpt lat="56.433915" lon="60.741377">
        <ele>271.8</ele>
        <time>1970-01-01T08:30:24.085Z</time>
    </trkpt>
    <trkpt lat="56.433906" lon="60.741379">
        <ele>271.8</ele>
        <time>1970-01-01T08:30:25.085Z</time>
    </trkpt>
    <trkpt lat="56.433882" lon="60.741384">
        <ele>271.8</ele>
        <time>1970-01-01T08:30:26.085Z</time>
    </trkpt>
    <trkpt lat="56.433865" lon="60.741385">
        <ele>271.8</ele>
        <time>1970-01-01T08:30:27.085Z</time>
    </trkpt>
    <trkpt lat="56.43386" lon="60.741379">
        <ele>271.8</ele>
        <time>1970-01-01T08:30:28.085Z</time>
    </trkpt>
    <trkpt lat="56.43385" lon="60.741386">
        <ele>271.8</ele>
        <time>1970-01-01T08:30:29.085Z</time>
    </trkpt>
    <trkpt lat="56.433839" lon="60.741388">
        <ele>271.8</ele>
        <time>1970-01-01T08:30:30.085Z</time>
    </trkpt>
    <trkpt lat="56.433811" lon="60.7414">
        <ele>270.8</ele>
        <time>1970-01-01T08:30:31.085Z</time>
    </trkpt>
    <trkpt lat="56.433801" lon="60.741403">
        <ele>270.8</ele>
        <time>1970-01-01T08:30:32.085Z</time>
    </trkpt>
    <trkpt lat="56.433774" lon="60.741417">
        <ele>270.8</ele>
        <time>1970-01-01T08:30:33.085Z</time>
    </trkpt>
    <trkpt lat="56.433762" lon="60.741426">
        <ele>270.8</ele>
        <time>1970-01-01T08:30:34.085Z</time>
    </trkpt>
    <trkpt lat="56.433734" lon="60.741449">
        <ele>270.8</ele>
        <time>1970-01-01T08:30:35.085Z</time>
    </trkpt>
    <trkpt lat="56.433725" lon="60.741462">
        <ele>270.8</ele>
        <time>1970-01-01T08:30:36.085Z</time>
    </trkpt>
    <trkpt lat="56.433706" lon="60.741474">
        <ele>270.8</ele>
        <time>1970-01-01T08:30:37.085Z</time>
    </trkpt>
    <trkpt lat="56.433698" lon="60.741482">
        <ele>270.8</ele>
        <time>1970-01-01T08:30:38.085Z</time>
    </trkpt>
    <trkpt lat="56.43369" lon="60.74149">
        <ele>270.8</ele>
        <time>1970-01-01T08:30:39.085Z</time>
    </trkpt>
    <trkpt lat="56.433674" lon="60.741516">
        <ele>270.8</ele>
        <time>1970-01-01T08:30:40.085Z</time>
    </trkpt>
    <trkpt lat="56.433668" lon="60.74153">
        <ele>269.8</ele>
        <time>1970-01-01T08:30:41.085Z</time>
    </trkpt>
    <trkpt lat="56.433648" lon="60.741565">
        <ele>269.8</ele>
        <time>1970-01-01T08:30:42.085Z</time>
    </trkpt>
    <trkpt lat="56.433641" lon="60.741578">
        <ele>269.8</ele>
        <time>1970-01-01T08:30:43.085Z</time>
    </trkpt>
    <trkpt lat="56.43362" lon="60.741619">
        <ele>269.8</ele>
        <time>1970-01-01T08:30:44.085Z</time>
    </trkpt>
    <trkpt lat="56.433611" lon="60.741644">
        <ele>269.8</ele>
        <time>1970-01-01T08:30:45.085Z</time>
    </trkpt>
    <trkpt lat="56.433604" lon="60.741674">
        <ele>269.8</ele>
        <time>1970-01-01T08:30:46.085Z</time>
    </trkpt>
    <trkpt lat="56.433603" lon="60.741692">
        <ele>268.8</ele>
        <time>1970-01-01T08:30:47.085Z</time>
    </trkpt>
    <trkpt lat="56.433596" lon="60.741723">
        <ele>268.8</ele>
        <time>1970-01-01T08:30:48.085Z</time>
    </trkpt>
    <trkpt lat="56.433592" lon="60.741742">
        <ele>268.8</ele>
        <time>1970-01-01T08:30:49.085Z</time>
    </trkpt>
    <trkpt lat="56.433582" lon="60.741784">
        <ele>268.8</ele>
        <time>1970-01-01T08:30:50.085Z</time>
    </trkpt>
    <trkpt lat="56.433583" lon="60.741805">
        <ele>268.8</ele>
        <time>1970-01-01T08:30:51.085Z</time>
    </trkpt>
    <trkpt lat="56.433584" lon="60.741826">
        <ele>268.8</ele>
        <time>1970-01-01T08:30:52.085Z</time>
    </trkpt>
    <trkpt lat="56.433591" lon="60.741875">
        <ele>267.8</ele>
        <time>1970-01-01T08:30:53.085Z</time>
    </trkpt>
    <trkpt lat="56.433595" lon="60.741902">
        <ele>267.8</ele>
        <time>1970-01-01T08:30:54.085Z</time>
    </trkpt>
    <trkpt lat="56.433585" lon="60.741937">
        <ele>267.8</ele>
        <time>1970-01-01T08:30:55.085Z</time>
    </trkpt>
    <trkpt lat="56.433583" lon="60.741958">
        <ele>267.8</ele>
        <time>1970-01-01T08:30:56.085Z</time>
    </trkpt>
    <trkpt lat="56.433576" lon="60.742007">
        <ele>267.8</ele>
        <time>1970-01-01T08:30:57.085Z</time>
    </trkpt>
    <trkpt lat="56.433569" lon="60.74203">
        <ele>267.8</ele>
        <time>1970-01-01T08:30:58.085Z</time>
    </trkpt>
    <trkpt lat="56.433566" lon="60.742054">
        <ele>267.8</ele>
        <time>1970-01-01T08:30:59.085Z</time>
    </trkpt>
    <trkpt lat="56.433563" lon="60.742071">
        <ele>267.8</ele>
        <time>1970-01-01T08:31:00.085Z</time>
    </trkpt>
    <trkpt lat="56.433549" lon="60.742114">
        <ele>266.8</ele>
        <time>1970-01-01T08:31:01.085Z</time>
    </trkpt>
    <trkpt lat="56.433545" lon="60.74213">
        <ele>266.8</ele>
        <time>1970-01-01T08:31:02.085Z</time>
    </trkpt>
    <trkpt lat="56.433541" lon="60.742146">
        <ele>266.8</ele>
        <time>1970-01-01T08:31:03.085Z</time>
    </trkpt>
    <trkpt lat="56.433528" lon="60.742183">
        <ele>266.8</ele>
        <time>1970-01-01T08:31:04.085Z</time>
    </trkpt>
    <trkpt lat="56.433523" lon="60.74219">
        <ele>266.8</ele>
        <time>1970-01-01T08:31:05.085Z</time>
    </trkpt>
    <trkpt lat="56.433496" lon="60.74222">
        <ele>265.8</ele>
        <time>1970-01-01T08:31:06.085Z</time>
    </trkpt>
    <trkpt lat="56.433482" lon="60.742238">
        <ele>265.8</ele>
        <time>1970-01-01T08:31:07.085Z</time>
    </trkpt>
    <trkpt lat="56.433472" lon="60.742264">
        <ele>265.8</ele>
        <time>1970-01-01T08:31:08.085Z</time>
    </trkpt>
    <trkpt lat="56.433465" lon="60.742274">
        <ele>265.8</ele>
        <time>1970-01-01T08:31:09.085Z</time>
    </trkpt>
    <trkpt lat="56.433442" lon="60.742305">
        <ele>265.8</ele>
        <time>1970-01-01T08:31:10.085Z</time>
    </trkpt>
    <trkpt lat="56.433429" lon="60.742315">
        <ele>265.8</ele>
        <time>1970-01-01T08:31:11.085Z</time>
    </trkpt>
    <trkpt lat="56.433405" lon="60.742337">
        <ele>265.8</ele>
        <time>1970-01-01T08:31:12.085Z</time>
    </trkpt>
    <trkpt lat="56.433391" lon="60.742344">
        <ele>265.8</ele>
        <time>1970-01-01T08:31:13.085Z</time>
    </trkpt>
    <trkpt lat="56.433371" lon="60.74235">
        <ele>265.8</ele>
        <time>1970-01-01T08:31:14.085Z</time>
    </trkpt>
    <trkpt lat="56.433327" lon="60.742382">
        <ele>264.8</ele>
        <time>1970-01-01T08:31:15.085Z</time>
    </trkpt>
    <trkpt lat="56.433303" lon="60.742409">
        <ele>264.8</ele>
        <time>1970-01-01T08:31:16.085Z</time>
    </trkpt>
    <trkpt lat="56.433275" lon="60.742413">
        <ele>264.8</ele>
        <time>1970-01-01T08:31:17.085Z</time>
    </trkpt>
    <trkpt lat="56.433263" lon="60.742413">
        <ele>263.8</ele>
        <time>1970-01-01T08:31:18.085Z</time>
    </trkpt>
    <trkpt lat="56.433231" lon="60.74242">
        <ele>263.8</ele>
        <time>1970-01-01T08:31:19.085Z</time>
    </trkpt>
    <trkpt lat="56.433207" lon="60.742443">
        <ele>263.8</ele>
        <time>1970-01-01T08:31:20.085Z</time>
    </trkpt>
    <trkpt lat="56.433193" lon="60.742451">
        <ele>263.8</ele>
        <time>1970-01-01T08:31:21.085Z</time>
    </trkpt>
    <trkpt lat="56.433156" lon="60.742472">
        <ele>263.8</ele>
        <time>1970-01-01T08:31:22.085Z</time>
    </trkpt>
    <trkpt lat="56.43313" lon="60.742493">
        <ele>263.8</ele>
        <time>1970-01-01T08:31:23.085Z</time>
    </trkpt>
    <trkpt lat="56.433116" lon="60.742505">
        <ele>263.8</ele>
        <time>1970-01-01T08:31:24.085Z</time>
    </trkpt>
    <trkpt lat="56.433095" lon="60.742535">
        <ele>263.8</ele>
        <time>1970-01-01T08:31:25.085Z</time>
    </trkpt>
    <trkpt lat="56.433067" lon="60.742541">
        <ele>263.8</ele>
        <time>1970-01-01T08:31:26.085Z</time>
    </trkpt>
    <trkpt lat="56.433059" lon="60.742544">
        <ele>263.8</ele>
        <time>1970-01-01T08:31:27.085Z</time>
    </trkpt>
    <trkpt lat="56.433028" lon="60.742552">
        <ele>262.8</ele>
        <time>1970-01-01T08:31:28.085Z</time>
    </trkpt>
    <trkpt lat="56.432988" lon="60.74255">
        <ele>262.8</ele>
        <time>1970-01-01T08:31:29.085Z</time>
    </trkpt>
    <trkpt lat="56.432956" lon="60.742556">
        <ele>262.8</ele>
        <time>1970-01-01T08:31:30.085Z</time>
    </trkpt>
    <trkpt lat="56.432924" lon="60.742574">
        <ele>262.8</ele>
        <time>1970-01-01T08:31:31.085Z</time>
    </trkpt>
    <trkpt lat="56.432889" lon="60.742546">
        <ele>263.8</ele>
        <time>1970-01-01T08:31:32.085Z</time>
    </trkpt>
    <trkpt lat="56.432858" lon="60.742536">
        <ele>263.8</ele>
        <time>1970-01-01T08:31:33.085Z</time>
    </trkpt>
    <trkpt lat="56.432831" lon="60.742519">
        <ele>263.8</ele>
        <time>1970-01-01T08:31:34.085Z</time>
    </trkpt>
    <trkpt lat="56.432815" lon="60.742514">
        <ele>263.8</ele>
        <time>1970-01-01T08:31:35.085Z</time>
    </trkpt>
    <trkpt lat="56.432777" lon="60.742502">
        <ele>263.8</ele>
        <time>1970-01-01T08:31:36.085Z</time>
    </trkpt>
    <trkpt lat="56.432763" lon="60.742497">
        <ele>263.8</ele>
        <time>1970-01-01T08:31:37.085Z</time>
    </trkpt>
    <trkpt lat="56.432726" lon="60.742484">
        <ele>263.8</ele>
        <time>1970-01-01T08:31:38.085Z</time>
    </trkpt>
    <trkpt lat="56.432697" lon="60.74248">
        <ele>263.8</ele>
        <time>1970-01-01T08:31:39.085Z</time>
    </trkpt>
    <trkpt lat="56.432683" lon="60.742483">
        <ele>263.8</ele>
        <time>1970-01-01T08:31:40.085Z</time>
    </trkpt>
    <trkpt lat="56.432645" lon="60.742485">
        <ele>263.8</ele>
        <time>1970-01-01T08:31:41.085Z</time>
    </trkpt>
    <trkpt lat="56.432622" lon="60.742481">
        <ele>263.8</ele>
        <time>1970-01-01T08:31:42.085Z</time>
    </trkpt>
    <trkpt lat="56.432611" lon="60.742469">
        <ele>263.8</ele>
        <time>1970-01-01T08:31:43.085Z</time>
    </trkpt>
    <trkpt lat="56.432574" lon="60.742449">
        <ele>263.8</ele>
        <time>1970-01-01T08:31:44.085Z</time>
    </trkpt>
    <trkpt lat="56.432538" lon="60.742438">
        <ele>263.8</ele>
        <time>1970-01-01T08:31:45.085Z</time>
    </trkpt>
    <trkpt lat="56.432503" lon="60.742447">
        <ele>263.8</ele>
        <time>1970-01-01T08:31:46.085Z</time>
    </trkpt>
    <trkpt lat="56.43249" lon="60.742441">
        <ele>263.8</ele>
        <time>1970-01-01T08:31:47.085Z</time>
    </trkpt>
    <trkpt lat="56.432454" lon="60.742439">
        <ele>263.8</ele>
        <time>1970-01-01T08:31:49.085Z</time>
    </trkpt>
    <trkpt lat="56.432438" lon="60.742435">
        <ele>263.8</ele>
        <time>1970-01-01T08:31:50.085Z</time>
    </trkpt>
    <trkpt lat="56.432398" lon="60.74242">
        <ele>263.8</ele>
        <time>1970-01-01T08:31:51.085Z</time>
    </trkpt>
    <trkpt lat="56.432383" lon="60.742409">
        <ele>263.8</ele>
        <time>1970-01-01T08:31:52.085Z</time>
    </trkpt>
    <trkpt lat="56.432348" lon="60.742386">
        <ele>263.8</ele>
        <time>1970-01-01T08:31:53.085Z</time>
    </trkpt>
    <trkpt lat="56.432337" lon="60.742378">
        <ele>264.8</ele>
        <time>1970-01-01T08:31:54.085Z</time>
    </trkpt>
    <trkpt lat="56.432301" lon="60.742356">
        <ele>264.8</ele>
        <time>1970-01-01T08:31:55.085Z</time>
    </trkpt>
    <trkpt lat="56.43229" lon="60.742345">
        <ele>264.8</ele>
        <time>1970-01-01T08:31:56.085Z</time>
    </trkpt>
    <trkpt lat="56.43226" lon="60.742324">
        <ele>264.8</ele>
        <time>1970-01-01T08:31:57.085Z</time>
    </trkpt>
    <trkpt lat="56.432228" lon="60.742324">
        <ele>264.8</ele>
        <time>1970-01-01T08:31:58.085Z</time>
    </trkpt>
    <trkpt lat="56.432216" lon="60.74233">
        <ele>264.8</ele>
        <time>1970-01-01T08:31:59.085Z</time>
    </trkpt>
    <trkpt lat="56.432182" lon="60.74235">
        <ele>264.8</ele>
        <time>1970-01-01T08:32:00.085Z</time>
    </trkpt>
    <trkpt lat="56.432165" lon="60.742352">
        <ele>264.8</ele>
        <time>1970-01-01T08:32:01.085Z</time>
    </trkpt>
    <trkpt lat="56.432148" lon="60.742355">
        <ele>264.8</ele>
        <time>1970-01-01T08:32:02.085Z</time>
    </trkpt>
    <trkpt lat="56.432137" lon="60.742359">
        <ele>264.8</ele>
        <time>1970-01-01T08:32:03.085Z</time>
    </trkpt>
    <trkpt lat="56.432104" lon="60.742377">
        <ele>263.8</ele>
        <time>1970-01-01T08:32:04.085Z</time>
    </trkpt>
    <trkpt lat="56.432077" lon="60.742383">
        <ele>263.8</ele>
        <time>1970-01-01T08:32:05.085Z</time>
    </trkpt>
    <trkpt lat="56.43205" lon="60.742395">
        <ele>263.8</ele>
        <time>1970-01-01T08:32:06.085Z</time>
    </trkpt>
    <trkpt lat="56.432018" lon="60.742392">
        <ele>263.8</ele>
        <time>1970-01-01T08:32:07.085Z</time>
    </trkpt>
    <trkpt lat="56.43199" lon="60.742394">
        <ele>263.8</ele>
        <time>1970-01-01T08:32:08.085Z</time>
    </trkpt>
    <trkpt lat="56.431957" lon="60.742396">
        <ele>263.8</ele>
        <time>1970-01-01T08:32:09.085Z</time>
    </trkpt>
    <trkpt lat="56.43192" lon="60.742385">
        <ele>263.8</ele>
        <time>1970-01-01T08:32:10.085Z</time>
    </trkpt>
    <trkpt lat="56.431905" lon="60.742383">
        <ele>263.8</ele>
        <time>1970-01-01T08:32:11.085Z</time>
    </trkpt>
    <trkpt lat="56.43187" lon="60.742375">
        <ele>263.8</ele>
        <time>1970-01-01T08:32:12.085Z</time>
    </trkpt>
    <trkpt lat="56.431835" lon="60.742362">
        <ele>263.8</ele>
        <time>1970-01-01T08:32:13.085Z</time>
    </trkpt>
    <trkpt lat="56.431776" lon="60.742353">
        <ele>263.8</ele>
        <time>1970-01-01T08:32:14.085Z</time>
    </trkpt>
    <trkpt lat="56.43176" lon="60.742352">
        <ele>263.8</ele>
        <time>1970-01-01T08:32:15.085Z</time>
    </trkpt>
    <trkpt lat="56.431717" lon="60.74235">
        <ele>263.8</ele>
        <time>1970-01-01T08:32:16.085Z</time>
    </trkpt>
    <trkpt lat="56.431684" lon="60.742347">
        <ele>263.8</ele>
        <time>1970-01-01T08:32:17.085Z</time>
    </trkpt>
    <trkpt lat="56.431647" lon="60.742344">
        <ele>263.8</ele>
        <time>1970-01-01T08:32:18.085Z</time>
    </trkpt>
    <trkpt lat="56.431637" lon="60.742344">
        <ele>263.8</ele>
        <time>1970-01-01T08:32:19.085Z</time>
    </trkpt>
    <trkpt lat="56.431604" lon="60.742335">
        <ele>263.8</ele>
        <time>1970-01-01T08:32:20.085Z</time>
    </trkpt>
    <trkpt lat="56.431592" lon="60.742335">
        <ele>263.8</ele>
        <time>1970-01-01T08:32:21.085Z</time>
    </trkpt>
    <trkpt lat="56.431564" lon="60.742329">
        <ele>263.8</ele>
        <time>1970-01-01T08:32:22.085Z</time>
    </trkpt>
    <trkpt lat="56.431539" lon="60.742326">
        <ele>263.8</ele>
        <time>1970-01-01T08:32:23.085Z</time>
    </trkpt>
    <trkpt lat="56.431533" lon="60.742315">
        <ele>263.8</ele>
        <time>1970-01-01T08:32:24.085Z</time>
    </trkpt>
    <trkpt lat="56.431528" lon="60.742315">
        <ele>263.8</ele>
        <time>1970-01-01T08:32:25.085Z</time>
    </trkpt>
    <trkpt lat="56.431503" lon="60.742305">
        <ele>263.8</ele>
        <time>1970-01-01T08:32:26.085Z</time>
    </trkpt>
    <trkpt lat="56.431489" lon="60.742303">
        <ele>263.8</ele>
        <time>1970-01-01T08:32:27.085Z</time>
    </trkpt>
    <trkpt lat="56.431451" lon="60.742296">
        <ele>264.8</ele>
        <time>1970-01-01T08:32:28.085Z</time>
    </trkpt>
    <trkpt lat="56.43144" lon="60.742289">
        <ele>264.8</ele>
        <time>1970-01-01T08:32:29.085Z</time>
    </trkpt>
    <trkpt lat="56.431411" lon="60.742261">
        <ele>264.8</ele>
        <time>1970-01-01T08:32:30.085Z</time>
    </trkpt>
    <trkpt lat="56.431397" lon="60.742249">
        <ele>264.8</ele>
        <time>1970-01-01T08:32:31.085Z</time>
    </trkpt>
    <trkpt lat="56.431364" lon="60.742234">
        <ele>265.8</ele>
        <time>1970-01-01T08:32:32.085Z</time>
    </trkpt>
    <trkpt lat="56.431351" lon="60.742227">
        <ele>265.8</ele>
        <time>1970-01-01T08:32:33.085Z</time>
    </trkpt>
    <trkpt lat="56.431314" lon="60.742213">
        <ele>265.8</ele>
        <time>1970-01-01T08:32:34.085Z</time>
    </trkpt>
    <trkpt lat="56.431303" lon="60.742209">
        <ele>265.8</ele>
        <time>1970-01-01T08:32:35.085Z</time>
    </trkpt>
    <trkpt lat="56.431269" lon="60.742196">
        <ele>265.8</ele>
        <time>1970-01-01T08:32:36.085Z</time>
    </trkpt>
    <trkpt lat="56.431233" lon="60.742192">
        <ele>265.8</ele>
        <time>1970-01-01T08:32:37.085Z</time>
    </trkpt>
    <trkpt lat="56.431224" lon="60.742176">
        <ele>265.8</ele>
        <time>1970-01-01T08:32:38.085Z</time>
    </trkpt>
    <trkpt lat="56.431207" lon="60.742156">
        <ele>265.8</ele>
        <time>1970-01-01T08:32:39.085Z</time>
    </trkpt>
    <trkpt lat="56.431197" lon="60.742136">
        <ele>265.8</ele>
        <time>1970-01-01T08:32:40.085Z</time>
    </trkpt>
    <trkpt lat="56.431171" lon="60.742099">
        <ele>266.8</ele>
        <time>1970-01-01T08:32:41.085Z</time>
    </trkpt>
    <trkpt lat="56.43116" lon="60.742098">
        <ele>266.8</ele>
        <time>1970-01-01T08:32:42.085Z</time>
    </trkpt>
    <trkpt lat="56.431128" lon="60.742097">
        <ele>266.8</ele>
        <time>1970-01-01T08:32:43.085Z</time>
    </trkpt>
    <trkpt lat="56.431098" lon="60.742096">
        <ele>266.8</ele>
        <time>1970-01-01T08:32:44.085Z</time>
    </trkpt>
    <trkpt lat="56.431068" lon="60.742103">
        <ele>266.8</ele>
        <time>1970-01-01T08:32:45.085Z</time>
    </trkpt>
    <trkpt lat="56.431035" lon="60.742094">
        <ele>266.8</ele>
        <time>1970-01-01T08:32:46.085Z</time>
    </trkpt>
    <trkpt lat="56.431004" lon="60.742101">
        <ele>266.8</ele>
        <time>1970-01-01T08:32:47.085Z</time>
    </trkpt>
    <trkpt lat="56.430973" lon="60.742091">
        <ele>267.8</ele>
        <time>1970-01-01T08:32:48.085Z</time>
    </trkpt>
    <trkpt lat="56.430944" lon="60.742072">
        <ele>267.8</ele>
        <time>1970-01-01T08:32:49.085Z</time>
    </trkpt>
    <trkpt lat="56.430933" lon="60.742055">
        <ele>267.8</ele>
        <time>1970-01-01T08:32:50.085Z</time>
    </trkpt>
    <trkpt lat="56.430902" lon="60.742017">
        <ele>267.8</ele>
        <time>1970-01-01T08:32:51.085Z</time>
    </trkpt>
    <trkpt lat="56.43089" lon="60.742005">
        <ele>268.8</ele>
        <time>1970-01-01T08:32:52.085Z</time>
    </trkpt>
    <trkpt lat="56.430861" lon="60.741972">
        <ele>268.8</ele>
        <time>1970-01-01T08:32:53.085Z</time>
    </trkpt>
    <trkpt lat="56.43085" lon="60.741959">
        <ele>268.8</ele>
        <time>1970-01-01T08:32:54.085Z</time>
    </trkpt>
    <trkpt lat="56.430822" lon="60.741927">
        <ele>268.8</ele>
        <time>1970-01-01T08:32:55.085Z</time>
    </trkpt>
    <trkpt lat="56.430818" lon="60.741913">
        <ele>268.8</ele>
        <time>1970-01-01T08:32:56.085Z</time>
    </trkpt>
    <trkpt lat="56.430801" lon="60.741897">
        <ele>268.8</ele>
        <time>1970-01-01T08:32:57.085Z</time>
    </trkpt>
    <trkpt lat="56.430776" lon="60.741862">
        <ele>269.8</ele>
        <time>1970-01-01T08:32:58.085Z</time>
    </trkpt>
    <trkpt lat="56.430768" lon="60.741848">
        <ele>269.8</ele>
        <time>1970-01-01T08:32:59.085Z</time>
    </trkpt>
    <trkpt lat="56.43074" lon="60.741808">
        <ele>269.8</ele>
        <time>1970-01-01T08:33:00.085Z</time>
    </trkpt>
    <trkpt lat="56.430716" lon="60.741777">
        <ele>269.8</ele>
        <time>1970-01-01T08:33:01.085Z</time>
    </trkpt>
    <trkpt lat="56.430706" lon="60.741768">
        <ele>269.8</ele>
        <time>1970-01-01T08:33:02.085Z</time>
    </trkpt>
    <trkpt lat="56.430681" lon="60.74174">
        <ele>269.8</ele>
        <time>1970-01-01T08:33:03.085Z</time>
    </trkpt>
    <trkpt lat="56.430672" lon="60.741729">
        <ele>269.8</ele>
        <time>1970-01-01T08:33:04.085Z</time>
    </trkpt>
    <trkpt lat="56.430638" lon="60.741711">
        <ele>269.8</ele>
        <time>1970-01-01T08:33:05.085Z</time>
    </trkpt>
    <trkpt lat="56.430628" lon="60.741713">
        <ele>269.8</ele>
        <time>1970-01-01T08:33:06.085Z</time>
    </trkpt>
    <trkpt lat="56.430596" lon="60.741717">
        <ele>270.8</ele>
        <time>1970-01-01T08:33:07.085Z</time>
    </trkpt>
    <trkpt lat="56.430567" lon="60.741701">
        <ele>270.8</ele>
        <time>1970-01-01T08:33:08.085Z</time>
    </trkpt>
    <trkpt lat="56.430557" lon="60.741703">
        <ele>270.8</ele>
        <time>1970-01-01T08:33:09.085Z</time>
    </trkpt>
    <trkpt lat="56.430523" lon="60.741704">
        <ele>270.8</ele>
        <time>1970-01-01T08:33:10.085Z</time>
    </trkpt>
    <trkpt lat="56.430508" lon="60.741704">
        <ele>270.8</ele>
        <time>1970-01-01T08:33:11.085Z</time>
    </trkpt>
    <trkpt lat="56.430469" lon="60.741704">
        <ele>270.8</ele>
        <time>1970-01-01T08:33:12.085Z</time>
    </trkpt>
    <trkpt lat="56.430443" lon="60.741693">
        <ele>270.8</ele>
        <time>1970-01-01T08:33:13.085Z</time>
    </trkpt>
    <trkpt lat="56.430411" lon="60.74168">
        <ele>271.8</ele>
        <time>1970-01-01T08:33:14.085Z</time>
    </trkpt>
    <trkpt lat="56.430382" lon="60.74168">
        <ele>271.8</ele>
        <time>1970-01-01T08:33:15.085Z</time>
    </trkpt>
    <trkpt lat="56.430371" lon="60.74167">
        <ele>271.8</ele>
        <time>1970-01-01T08:33:16.085Z</time>
    </trkpt>
    <trkpt lat="56.430341" lon="60.74165">
        <ele>271.8</ele>
        <time>1970-01-01T08:33:17.085Z</time>
    </trkpt>
    <trkpt lat="56.430317" lon="60.74165">
        <ele>271.8</ele>
        <time>1970-01-01T08:33:18.085Z</time>
    </trkpt>
    <trkpt lat="56.430308" lon="60.741647">
        <ele>271.8</ele>
        <time>1970-01-01T08:33:19.085Z</time>
    </trkpt>
    <trkpt lat="56.430291" lon="60.741652">
        <ele>271.8</ele>
        <time>1970-01-01T08:33:20.085Z</time>
    </trkpt>
    <trkpt lat="56.430258" lon="60.741656">
        <ele>271.8</ele>
        <time>1970-01-01T08:33:21.085Z</time>
    </trkpt>
    <trkpt lat="56.430247" lon="60.741661">
        <ele>271.8</ele>
        <time>1970-01-01T08:33:22.085Z</time>
    </trkpt>
    <trkpt lat="56.430214" lon="60.741675">
        <ele>271.8</ele>
        <time>1970-01-01T08:33:23.085Z</time>
    </trkpt>
    <trkpt lat="56.4302" lon="60.741687">
        <ele>271.8</ele>
        <time>1970-01-01T08:33:24.085Z</time>
    </trkpt>
    <trkpt lat="56.430181" lon="60.741687">
        <ele>271.8</ele>
        <time>1970-01-01T08:33:25.085Z</time>
    </trkpt>
    <trkpt lat="56.430162" lon="60.741689">
        <ele>271.8</ele>
        <time>1970-01-01T08:33:26.085Z</time>
    </trkpt>
    <trkpt lat="56.430143" lon="60.741691">
        <ele>271.8</ele>
        <time>1970-01-01T08:33:27.085Z</time>
    </trkpt>
    <trkpt lat="56.430124" lon="60.741693">
        <ele>271.8</ele>
        <time>1970-01-01T08:33:28.085Z</time>
    </trkpt>
    <trkpt lat="56.430105" lon="60.741695">
        <ele>271.8</ele>
        <time>1970-01-01T08:33:39.085Z</time>
    </trkpt>
    <trkpt lat="56.430087" lon="60.741697">
        <ele>271.8</ele>
        <time>1970-01-01T08:33:40.085Z</time>
    </trkpt>
    <trkpt lat="56.430067" lon="60.741699">
        <ele>271.8</ele>
        <time>1970-01-01T08:33:41.085Z</time>
    </trkpt>
    <trkpt lat="56.430066" lon="60.74171">
        <ele>271.8</ele>
        <time>1970-01-01T08:33:42.085Z</time>
    </trkpt>
    <trkpt lat="56.430049" lon="60.741717">
        <ele>271.8</ele>
        <time>1970-01-01T08:33:43.085Z</time>
    </trkpt>
    <trkpt lat="56.430049" lon="60.741717">
        <ele>271.8</ele>
        <time>1970-01-01T08:33:44.085Z</time>
    </trkpt>
    <trkpt lat="56.430049" lon="60.741717">
        <ele>271.8</ele>
        <time>1970-01-01T08:33:45.085Z</time>
    </trkpt>
    <trkpt lat="56.430049" lon="60.741717">
        <ele>271.8</ele>
        <time>1970-01-01T08:33:46.085Z</time>
    </trkpt>
    <trkpt lat="56.430043" lon="60.741719">
        <ele>271.8</ele>
        <time>1970-01-01T08:33:47.085Z</time>
    </trkpt>
    <trkpt lat="56.430041" lon="60.74172">
        <ele>271.8</ele>
        <time>1970-01-01T08:33:48.085Z</time>
    </trkpt>
    <trkpt lat="56.430035" lon="60.741719">
        <ele>271.8</ele>
        <time>1970-01-01T08:33:49.085Z</time>
    </trkpt>
    <trkpt lat="56.43003" lon="60.741719">
        <ele>271.8</ele>
        <time>1970-01-01T08:33:50.085Z</time>
    </trkpt>
    <trkpt lat="56.430013" lon="60.741717">
        <ele>271.8</ele>
        <time>1970-01-01T08:33:51.085Z</time>
    </trkpt>
    <trkpt lat="56.430004" lon="60.741716">
        <ele>271.8</ele>
        <time>1970-01-01T08:33:52.085Z</time>
    </trkpt>
    <trkpt lat="56.429977" lon="60.741726">
        <ele>271.8</ele>
        <time>1970-01-01T08:33:53.085Z</time>
    </trkpt>
    <trkpt lat="56.429968" lon="60.741723">
        <ele>271.8</ele>
        <time>1970-01-01T08:33:54.085Z</time>
    </trkpt>
    <trkpt lat="56.42994" lon="60.74172">
        <ele>271.8</ele>
        <time>1970-01-01T08:33:55.085Z</time>
    </trkpt>
    <trkpt lat="56.429933" lon="60.741723">
        <ele>271.8</ele>
        <time>1970-01-01T08:33:56.085Z</time>
    </trkpt>
    <trkpt lat="56.429901" lon="60.741729">
        <ele>271.8</ele>
        <time>1970-01-01T08:33:57.085Z</time>
    </trkpt>
    <trkpt lat="56.429869" lon="60.741726">
        <ele>271.8</ele>
        <time>1970-01-01T08:33:58.085Z</time>
    </trkpt>
    <trkpt lat="56.42984" lon="60.741716">
        <ele>271.8</ele>
        <time>1970-01-01T08:33:59.085Z</time>
    </trkpt>
    <trkpt lat="56.429829" lon="60.741722">
        <ele>271.8</ele>
        <time>1970-01-01T08:34:00.085Z</time>
    </trkpt>
    <trkpt lat="56.429794" lon="60.741733">
        <ele>271.8</ele>
        <time>1970-01-01T08:34:01.085Z</time>
    </trkpt>
    <trkpt lat="56.429784" lon="60.741735">
        <ele>271.8</ele>
        <time>1970-01-01T08:34:02.085Z</time>
    </trkpt>
    <trkpt lat="56.429751" lon="60.741733">
        <ele>271.8</ele>
        <time>1970-01-01T08:34:03.085Z</time>
    </trkpt>
    <trkpt lat="56.429721" lon="60.741737">
        <ele>271.8</ele>
        <time>1970-01-01T08:34:04.085Z</time>
    </trkpt>
    <trkpt lat="56.429713" lon="60.741739">
        <ele>271.8</ele>
        <time>1970-01-01T08:34:05.085Z</time>
    </trkpt>
    <trkpt lat="56.42968" lon="60.741754">
        <ele>271.8</ele>
        <time>1970-01-01T08:34:06.085Z</time>
    </trkpt>
    <trkpt lat="56.429652" lon="60.741772">
        <ele>271.8</ele>
        <time>1970-01-01T08:34:07.085Z</time>
    </trkpt>
    <trkpt lat="56.429638" lon="60.741784">
        <ele>271.8</ele>
        <time>1970-01-01T08:34:08.085Z</time>
    </trkpt>
    <trkpt lat="56.429614" lon="60.741796">
        <ele>271.8</ele>
        <time>1970-01-01T08:34:09.085Z</time>
    </trkpt>
    <trkpt lat="56.429604" lon="60.741801">
        <ele>271.8</ele>
        <time>1970-01-01T08:34:10.085Z</time>
    </trkpt>
    <trkpt lat="56.429578" lon="60.741802">
        <ele>271.8</ele>
        <time>1970-01-01T08:34:11.085Z</time>
    </trkpt>
    <trkpt lat="56.429552" lon="60.741802">
        <ele>271.8</ele>
        <time>1970-01-01T08:34:12.085Z</time>
    </trkpt>
    <trkpt lat="56.429548" lon="60.741803">
        <ele>271.8</ele>
        <time>1970-01-01T08:34:13.085Z</time>
    </trkpt>
    <trkpt lat="56.429533" lon="60.741806">
        <ele>271.8</ele>
        <time>1970-01-01T08:34:14.085Z</time>
    </trkpt>
    <trkpt lat="56.429518" lon="60.741809">
        <ele>271.8</ele>
        <time>1970-01-01T08:34:15.085Z</time>
    </trkpt>
    <trkpt lat="56.429503" lon="60.741812">
        <ele>271.8</ele>
        <time>1970-01-01T08:34:22.085Z</time>
    </trkpt>
    <trkpt lat="56.429482" lon="60.741817">
        <ele>271.8</ele>
        <time>1970-01-01T08:34:23.085Z</time>
    </trkpt>
    <trkpt lat="56.429477" lon="60.741816">
        <ele>271.8</ele>
        <time>1970-01-01T08:34:24.085Z</time>
    </trkpt>
    <trkpt lat="56.429471" lon="60.741816">
        <ele>272.8</ele>
        <time>1970-01-01T08:34:25.085Z</time>
    </trkpt>
    <trkpt lat="56.429466" lon="60.741815">
        <ele>272.8</ele>
        <time>1970-01-01T08:34:26.085Z</time>
    </trkpt>
    <trkpt lat="56.429461" lon="60.741815">
        <ele>272.8</ele>
        <time>1970-01-01T08:34:27.085Z</time>
    </trkpt>
    <trkpt lat="56.429456" lon="60.741814">
        <ele>272.8</ele>
        <time>1970-01-01T08:34:28.085Z</time>
    </trkpt>
    <trkpt lat="56.429444" lon="60.741809">
        <ele>272.8</ele>
        <time>1970-01-01T08:34:29.085Z</time>
    </trkpt>
    <trkpt lat="56.429438" lon="60.741811">
        <ele>272.8</ele>
        <time>1970-01-01T08:34:30.085Z</time>
    </trkpt>
    <trkpt lat="56.429437" lon="60.741811">
        <ele>272.8</ele>
        <time>1970-01-01T08:34:31.085Z</time>
    </trkpt>
    <trkpt lat="56.429436" lon="60.741815">
        <ele>272.8</ele>
        <time>1970-01-01T08:34:32.085Z</time>
    </trkpt>
    <trkpt lat="56.42943" lon="60.74182">
        <ele>272.8</ele>
        <time>1970-01-01T08:34:33.085Z</time>
    </trkpt>
    <trkpt lat="56.429416" lon="60.741833">
        <ele>272.8</ele>
        <time>1970-01-01T08:34:34.085Z</time>
    </trkpt>
    <trkpt lat="56.429388" lon="60.741845">
        <ele>272.8</ele>
        <time>1970-01-01T08:34:35.085Z</time>
    </trkpt>
    <trkpt lat="56.429383" lon="60.741849">
        <ele>272.8</ele>
        <time>1970-01-01T08:34:36.085Z</time>
    </trkpt>
    <trkpt lat="56.429356" lon="60.741851">
        <ele>272.8</ele>
        <time>1970-01-01T08:34:37.085Z</time>
    </trkpt>
    <trkpt lat="56.429341" lon="60.741847">
        <ele>272.8</ele>
        <time>1970-01-01T08:34:38.085Z</time>
    </trkpt>
    <trkpt lat="56.42931" lon="60.741843">
        <ele>272.8</ele>
        <time>1970-01-01T08:34:39.085Z</time>
    </trkpt>
    <trkpt lat="56.4293" lon="60.741845">
        <ele>272.8</ele>
        <time>1970-01-01T08:34:40.085Z</time>
    </trkpt>
    <trkpt lat="56.429267" lon="60.741859000000005">
        <ele>272.6</ele>
        <time>1970-01-01T08:34:41.643Z</time>
    </trkpt>
    <trkpt lat="56.42914398464131" lon="60.74310977990279">
        <ele>275.5</ele>
        <time>1970-01-01T08:35:13.937Z</time>
    </trkpt>
    <trkpt lat="56.42902096888466" lon="60.74436055980556">
        <ele>275.5</ele>
        <time>1970-01-01T08:35:46.231Z</time>
    </trkpt>
    <trkpt lat="56.428897952730004" lon="60.74561133970833">
        <ele>271.6</ele>
        <time>1970-01-01T08:36:18.525Z</time>
    </trkpt>
    <trkpt lat="56.42877493617743" lon="60.74686211961111">
        <ele>266.8</ele>
        <time>1970-01-01T08:36:50.819Z</time>
    </trkpt>
    <trkpt lat="56.42865191922685" lon="60.748112899513885">
        <ele>256.5</ele>
        <time>1970-01-01T08:37:23.113Z</time>
    </trkpt>
    <trkpt lat="56.42852890187832" lon="60.74936367941667">
        <ele>254.3</ele>
        <time>1970-01-01T08:37:55.407Z</time>
    </trkpt>
    <trkpt lat="56.42840588413179" lon="60.750614459319436">
        <ele>251.9</ele>
        <time>1970-01-01T08:38:27.701Z</time>
    </trkpt>
    <trkpt lat="56.42838021264454" lon="60.75087547302247">
        <ele>252.0</ele>
        <time>1970-01-01T08:38:34.440Z</time>
    </trkpt>
    <trkpt lat="56.42828086263306" lon="60.75213311442024">
        <ele>253.5</ele>
        <time>1970-01-01T08:39:06.734Z</time>
    </trkpt>
    <trkpt lat="56.42818151236202" lon="60.753390755818">
        <ele>252.2</ele>
        <time>1970-01-01T08:39:39.028Z</time>
    </trkpt>
    <trkpt lat="56.428082161831405" lon="60.75464839721577">
        <ele>251.7</ele>
        <time>1970-01-01T08:40:11.323Z</time>
    </trkpt>
    <trkpt lat="56.427982811041225" lon="60.75590603861354">
        <ele>251.1</ele>
        <time>1970-01-01T08:40:43.618Z</time>
    </trkpt>
    <trkpt lat="56.42788345999149" lon="60.7571636800113">
        <ele>251.3</ele>
        <time>1970-01-01T08:41:15.913Z</time>
    </trkpt>
    <trkpt lat="56.42778410868214" lon="60.75842132140907">
        <ele>252.1</ele>
        <time>1970-01-01T08:41:48.208Z</time>
    </trkpt>
    <trkpt lat="56.42768475711328" lon="60.759678962806845">
        <ele>251.6</ele>
        <time>1970-01-01T08:42:20.503Z</time>
    </trkpt>
    <trkpt lat="56.42766826756899" lon="60.75988769531251">
        <ele>251.7</ele>
        <time>1970-01-01T08:42:25.863Z</time>
    </trkpt>
    <trkpt lat="56.427191942200636" lon="60.76082150527498">
        <ele>252.5</ele>
        <time>1970-01-01T08:42:58.158Z</time>
    </trkpt>
    <trkpt lat="56.42671561086595" lon="60.761755315237444">
        <ele>263.0</ele>
        <time>1970-01-01T08:43:30.135Z</time>
    </trkpt>
    <trkpt lat="56.42623927356484" lon="60.76268912519992">
        <ele>267.6</ele>
        <time>1970-01-01T08:44:02.112Z</time>
    </trkpt>
    <trkpt lat="56.425762930297296" lon="60.76362293516238">
        <ele>266.6</ele>
        <time>1970-01-01T08:44:34.090Z</time>
    </trkpt>
    <trkpt lat="56.42528658106328" lon="60.76455674512485">
        <ele>266.8</ele>
        <time>1970-01-01T08:45:06.068Z</time>
    </trkpt>
    <trkpt lat="56.42481022586273" lon="60.76549055508731">
        <ele>267.4</ele>
        <time>1970-01-01T08:45:38.046Z</time>
    </trkpt>
    <trkpt lat="56.42433386469563" lon="60.76642436504979">
        <ele>266.4</ele>
        <time>1970-01-01T08:46:10.025Z</time>
    </trkpt>
    <trkpt lat="56.42385749756194" lon="60.767358175012255">
        <ele>260.7</ele>
        <time>1970-01-01T08:46:42.004Z</time>
    </trkpt>
    <trkpt lat="56.423381124461606" lon="60.768291984974724">
        <ele>261.1</ele>
        <time>1970-01-01T08:47:13.984Z</time>
    </trkpt>
    <trkpt lat="56.422904745394575" lon="60.769225794937185">
        <ele>260.4</ele>
        <time>1970-01-01T08:47:45.964Z</time>
    </trkpt>
    <trkpt lat="56.42258933935565" lon="60.76984405517579">
        <ele>258.7</ele>
        <time>1970-01-01T08:48:07.138Z</time>
    </trkpt>
    <trkpt lat="56.42190121374611" lon="60.76958731614589">
        <ele>267.5</ele>
        <time>1970-01-01T08:48:39.119Z</time>
    </trkpt>
    <trkpt lat="56.421213075687064" lon="60.769330577115966">
        <ele>270.2</ele>
        <time>1970-01-01T08:49:11.127Z</time>
    </trkpt>
    <trkpt lat="56.420524925178356" lon="60.76907383808605">
        <ele>271.0</ele>
        <time>1970-01-01T08:49:43.136Z</time>
    </trkpt>
    <trkpt lat="56.419836762219916" lon="60.76881709905614">
        <ele>271.6</ele>
        <time>1970-01-01T08:50:15.146Z</time>
    </trkpt>
    <trkpt lat="56.41959862511415" lon="60.76872825622559">
        <ele>271.9</ele>
        <time>1970-01-01T08:50:26.223Z</time>
    </trkpt>
    <trkpt lat="56.418974692203726" lon="60.768143909854295">
        <ele>275.3</ele>
        <time>1970-01-01T08:50:58.233Z</time>
    </trkpt>
    <trkpt lat="56.41835074905932" lon="60.767559563483005">
        <ele>276.2</ele>
        <time>1970-01-01T08:51:30.244Z</time>
    </trkpt>
    <trkpt lat="56.417726795680856" lon="60.76697521711171">
        <ele>277.7</ele>
        <time>1970-01-01T08:52:02.255Z</time>
    </trkpt>
    <trkpt lat="56.41710283206826" lon="60.766390870740416">
        <ele>279.5</ele>
        <time>1970-01-01T08:52:34.267Z</time>
    </trkpt>
    <trkpt lat="56.41647885822143" lon="60.76580652436911">
        <ele>280.5</ele>
        <time>1970-01-01T08:53:06.279Z</time>
    </trkpt>
    <trkpt lat="56.41585487414026" lon="60.76522217799782">
        <ele>279.6</ele>
        <time>1970-01-01T08:53:38.292Z</time>
    </trkpt>
    <trkpt lat="56.41523087982465" lon="60.76463783162653">
        <ele>281.8</ele>
        <time>1970-01-01T08:54:10.305Z</time>
    </trkpt>
    <trkpt lat="56.4146068752745" lon="60.76405348525523">
        <ele>285.2</ele>
        <time>1970-01-01T08:54:42.319Z</time>
    </trkpt>
    <trkpt lat="56.414328699285804" lon="60.76379299163819">
        <ele>285.7</ele>
        <time>1970-01-01T08:54:56.590Z</time>
    </trkpt>
    <trkpt lat="56.41387321867003" lon="60.76282552464251">
        <ele>289.1</ele>
        <time>1970-01-01T08:55:28.605Z</time>
    </trkpt>
    <trkpt lat="56.41341773260139" lon="60.761858057646826">
        <ele>291.9</ele>
        <time>1970-01-01T08:56:00.613Z</time>
    </trkpt>
    <trkpt lat="56.4133790854812" lon="60.76177597045899">
        <ele>291.7</ele>
        <time>1970-01-01T08:56:03.328Z</time>
    </trkpt>
    <trkpt lat="56.41319681946988" lon="60.76054902883195">
        <ele>292.8</ele>
        <time>1970-01-01T08:56:35.336Z</time>
    </trkpt>
    <trkpt lat="56.41301455258541" lon="60.75932208720491">
        <ele>293.7</ele>
        <time>1970-01-01T08:57:07.330Z</time>
    </trkpt>
    <trkpt lat="56.412832284827815" lon="60.75809514557786">
        <ele>291.2</ele>
        <time>1970-01-01T08:57:39.324Z</time>
    </trkpt>
    <trkpt lat="56.41265001619706" lon="60.75686820395082">
        <ele>288.3</ele>
        <time>1970-01-01T08:58:11.318Z</time>
    </trkpt>
    <trkpt lat="56.41246774669319" lon="60.75564126232379">
        <ele>285.8</ele>
        <time>1970-01-01T08:58:43.313Z</time>
    </trkpt>
    <trkpt lat="56.412345" lon="60.754815">
        <ele>286.1</ele>
        <time>1970-01-01T08:59:04.859Z</time>
    </trkpt>
    <trkpt lat="56.412317" lon="60.754822">
        <ele>285.4</ele>
        <time>1970-01-01T08:59:06.145Z</time>
    </trkpt>
    <trkpt lat="56.412303" lon="60.754815">
        <ele>285.4</ele>
        <time>1970-01-01T08:59:07.145Z</time>
    </trkpt>
    <trkpt lat="56.412294" lon="60.754817">
        <ele>285.4</ele>
        <time>1970-01-01T08:59:08.145Z</time>
    </trkpt>
    <trkpt lat="56.412288" lon="60.754814">
        <ele>285.4</ele>
        <time>1970-01-01T08:59:09.145Z</time>
    </trkpt>
    <trkpt lat="56.412273" lon="60.754798">
        <ele>285.4</ele>
        <time>1970-01-01T08:59:10.145Z</time>
    </trkpt>
    <trkpt lat="56.412263" lon="60.754787">
        <ele>285.4</ele>
        <time>1970-01-01T08:59:11.145Z</time>
    </trkpt>
    <trkpt lat="56.412247" lon="60.754773">
        <ele>285.4</ele>
        <time>1970-01-01T08:59:12.145Z</time>
    </trkpt>
    <trkpt lat="56.412233" lon="60.754778">
        <ele>285.4</ele>
        <time>1970-01-01T08:59:13.145Z</time>
    </trkpt>
    <trkpt lat="56.412223" lon="60.754776">
        <ele>285.4</ele>
        <time>1970-01-01T08:59:14.145Z</time>
    </trkpt>
    <trkpt lat="56.412196" lon="60.754763">
        <ele>285.4</ele>
        <time>1970-01-01T08:59:15.145Z</time>
    </trkpt>
    <trkpt lat="56.412182" lon="60.754761">
        <ele>285.4</ele>
        <time>1970-01-01T08:59:16.145Z</time>
    </trkpt>
    <trkpt lat="56.412168" lon="60.754759">
        <ele>285.4</ele>
        <time>1970-01-01T08:59:17.145Z</time>
    </trkpt>
    <trkpt lat="56.412155" lon="60.754757">
        <ele>285.4</ele>
        <time>1970-01-01T08:59:18.145Z</time>
    </trkpt>
    <trkpt lat="56.412141" lon="60.754755">
        <ele>285.4</ele>
        <time>1970-01-01T08:59:52.145Z</time>
    </trkpt>
    <trkpt lat="56.412127" lon="60.754752">
        <ele>285.4</ele>
        <time>1970-01-01T08:59:53.145Z</time>
    </trkpt>
    <trkpt lat="56.412113" lon="60.75475">
        <ele>285.4</ele>
        <time>1970-01-01T08:59:54.145Z</time>
    </trkpt>
    <trkpt lat="56.412099" lon="60.754748">
        <ele>285.4</ele>
        <time>1970-01-01T08:59:55.145Z</time>
    </trkpt>
    <trkpt lat="56.412085" lon="60.754746">
        <ele>285.4</ele>
        <time>1970-01-01T08:59:56.145Z</time>
    </trkpt>
    <trkpt lat="56.412064" lon="60.754743">
        <ele>285.4</ele>
        <time>1970-01-01T08:59:57.145Z</time>
    </trkpt>
    <trkpt lat="56.412062" lon="60.754739">
        <ele>285.4</ele>
        <time>1970-01-01T08:59:58.145Z</time>
    </trkpt>
    <trkpt lat="56.41206" lon="60.75474">
        <ele>285.4</ele>
        <time>1970-01-01T08:59:59.145Z</time>
    </trkpt>
    <trkpt lat="56.412061" lon="60.754739">
        <ele>285.4</ele>
        <time>1970-01-01T09:00:00.145Z</time>
    </trkpt>
    <trkpt lat="56.412061" lon="60.754736">
        <ele>285.4</ele>
        <time>1970-01-01T09:00:01.145Z</time>
    </trkpt>
    <trkpt lat="56.412055" lon="60.754738">
        <ele>285.4</ele>
        <time>1970-01-01T09:00:02.145Z</time>
    </trkpt>
    <trkpt lat="56.412047" lon="60.754739">
        <ele>285.4</ele>
        <time>1970-01-01T09:00:03.145Z</time>
    </trkpt>
    <trkpt lat="56.412038" lon="60.754727">
        <ele>285.4</ele>
        <time>1970-01-01T09:00:04.145Z</time>
    </trkpt>
    <trkpt lat="56.412026" lon="60.754697">
        <ele>285.4</ele>
        <time>1970-01-01T09:00:05.145Z</time>
    </trkpt>
    <trkpt lat="56.412011" lon="60.754685">
        <ele>285.4</ele>
        <time>1970-01-01T09:00:06.145Z</time>
    </trkpt>
    <trkpt lat="56.411991" lon="60.75467">
        <ele>286.4</ele>
        <time>1970-01-01T09:00:07.145Z</time>
    </trkpt>
    <trkpt lat="56.411986" lon="60.754662">
        <ele>286.4</ele>
        <time>1970-01-01T09:00:08.145Z</time>
    </trkpt>
    <trkpt lat="56.411974" lon="60.754648">
        <ele>286.4</ele>
        <time>1970-01-01T09:00:09.145Z</time>
    </trkpt>
    <trkpt lat="56.411962" lon="60.754632">
        <ele>286.4</ele>
        <time>1970-01-01T09:00:10.145Z</time>
    </trkpt>
    <trkpt lat="56.411948" lon="60.75463">
        <ele>286.4</ele>
        <time>1970-01-01T09:00:11.145Z</time>
    </trkpt>
    <trkpt lat="56.411915" lon="60.754625">
        <ele>286.4</ele>
        <time>1970-01-01T09:00:12.145Z</time>
    </trkpt>
    <trkpt lat="56.411892" lon="60.754622">
        <ele>286.4</ele>
        <time>1970-01-01T09:00:13.145Z</time>
    </trkpt>
    <trkpt lat="56.411884" lon="60.754612">
        <ele>286.4</ele>
        <time>1970-01-01T09:00:14.145Z</time>
    </trkpt>
    <trkpt lat="56.411874" lon="60.754609">
        <ele>286.4</ele>
        <time>1970-01-01T09:00:15.145Z</time>
    </trkpt>
    <trkpt lat="56.411848" lon="60.754598">
        <ele>286.4</ele>
        <time>1970-01-01T09:00:16.145Z</time>
    </trkpt>
    <trkpt lat="56.411831" lon="60.754598">
        <ele>286.4</ele>
        <time>1970-01-01T09:00:17.145Z</time>
    </trkpt>
    <trkpt lat="56.411816" lon="60.754599">
        <ele>286.4</ele>
        <time>1970-01-01T09:00:18.145Z</time>
    </trkpt>
    <trkpt lat="56.411809" lon="60.754591">
        <ele>286.4</ele>
        <time>1970-01-01T09:00:19.145Z</time>
    </trkpt>
    <trkpt lat="56.411781" lon="60.754572">
        <ele>286.4</ele>
        <time>1970-01-01T09:00:20.145Z</time>
    </trkpt>
    <trkpt lat="56.411773" lon="60.754561">
        <ele>287.4</ele>
        <time>1970-01-01T09:00:21.145Z</time>
    </trkpt>
    <trkpt lat="56.411751" lon="60.754532">
        <ele>287.4</ele>
        <time>1970-01-01T09:00:22.145Z</time>
    </trkpt>
    <trkpt lat="56.411737" lon="60.754527">
        <ele>287.4</ele>
        <time>1970-01-01T09:00:23.145Z</time>
    </trkpt>
    <trkpt lat="56.411705" lon="60.754518">
        <ele>287.4</ele>
        <time>1970-01-01T09:00:24.145Z</time>
    </trkpt>
    <trkpt lat="56.411685" lon="60.754485">
        <ele>287.4</ele>
        <time>1970-01-01T09:00:25.145Z</time>
    </trkpt>
    <trkpt lat="56.41167" lon="60.754466">
        <ele>287.4</ele>
        <time>1970-01-01T09:00:26.145Z</time>
    </trkpt>
    <trkpt lat="56.411662" lon="60.754446">
        <ele>287.4</ele>
        <time>1970-01-01T09:00:27.145Z</time>
    </trkpt>
    <trkpt lat="56.41165" lon="60.754443">
        <ele>287.4</ele>
        <time>1970-01-01T09:00:28.145Z</time>
    </trkpt>
    <trkpt lat="56.411622" lon="60.754437">
        <ele>287.4</ele>
        <time>1970-01-01T09:00:29.145Z</time>
    </trkpt>
    <trkpt lat="56.411612" lon="60.754437">
        <ele>287.4</ele>
        <time>1970-01-01T09:00:30.145Z</time>
    </trkpt>
    <trkpt lat="56.411578" lon="60.754433">
        <ele>287.4</ele>
        <time>1970-01-01T09:00:31.145Z</time>
    </trkpt>
    <trkpt lat="56.411562" lon="60.754419">
        <ele>287.4</ele>
        <time>1970-01-01T09:00:32.145Z</time>
    </trkpt>
    <trkpt lat="56.411547" lon="60.754424">
        <ele>287.4</ele>
        <time>1970-01-01T09:00:33.145Z</time>
    </trkpt>
    <trkpt lat="56.411533" lon="60.75442">
        <ele>287.4</ele>
        <time>1970-01-01T09:00:34.145Z</time>
    </trkpt>
    <trkpt lat="56.411498" lon="60.754405">
        <ele>287.4</ele>
        <time>1970-01-01T09:00:35.145Z</time>
    </trkpt>
    <trkpt lat="56.411463" lon="60.754396">
        <ele>287.4</ele>
        <time>1970-01-01T09:00:36.145Z</time>
    </trkpt>
    <trkpt lat="56.411418" lon="60.754404">
        <ele>287.4</ele>
        <time>1970-01-01T09:00:37.145Z</time>
    </trkpt>
    <trkpt lat="56.411395" lon="60.754375">
        <ele>287.4</ele>
        <time>1970-01-01T09:00:38.145Z</time>
    </trkpt>
    <trkpt lat="56.411382" lon="60.75437">
        <ele>287.4</ele>
        <time>1970-01-01T09:00:39.145Z</time>
    </trkpt>
    <trkpt lat="56.411361" lon="60.754359">
        <ele>287.4</ele>
        <time>1970-01-01T09:00:40.145Z</time>
    </trkpt>
    <trkpt lat="56.41134" lon="60.754356">
        <ele>287.4</ele>
        <time>1970-01-01T09:00:41.145Z</time>
    </trkpt>
    <trkpt lat="56.411298" lon="60.754352">
        <ele>287.4</ele>
        <time>1970-01-01T09:00:42.145Z</time>
    </trkpt>
    <trkpt lat="56.411287" lon="60.754346">
        <ele>287.4</ele>
        <time>1970-01-01T09:00:43.145Z</time>
    </trkpt>
    <trkpt lat="56.411258" lon="60.754333">
        <ele>287.4</ele>
        <time>1970-01-01T09:00:44.145Z</time>
    </trkpt>
    <trkpt lat="56.411247" lon="60.754335">
        <ele>287.4</ele>
        <time>1970-01-01T09:00:45.145Z</time>
    </trkpt>
    <trkpt lat="56.411217" lon="60.754332">
        <ele>287.4</ele>
        <time>1970-01-01T09:00:46.145Z</time>
    </trkpt>
    <trkpt lat="56.411175" lon="60.754331">
        <ele>287.4</ele>
        <time>1970-01-01T09:00:47.145Z</time>
    </trkpt>
    <trkpt lat="56.411161" lon="60.754335">
        <ele>287.4</ele>
        <time>1970-01-01T09:00:48.145Z</time>
    </trkpt>
    <trkpt lat="56.411125" lon="60.754356">
        <ele>287.4</ele>
        <time>1970-01-01T09:00:49.145Z</time>
    </trkpt>
    <trkpt lat="56.411116" lon="60.754352">
        <ele>287.4</ele>
        <time>1970-01-01T09:00:50.145Z</time>
    </trkpt>
    <trkpt lat="56.411085" lon="60.754359">
        <ele>287.4</ele>
        <time>1970-01-01T09:00:51.145Z</time>
    </trkpt>
    <trkpt lat="56.411072" lon="60.754361">
        <ele>287.4</ele>
        <time>1970-01-01T09:00:52.145Z</time>
    </trkpt>
    <trkpt lat="56.411037" lon="60.754362">
        <ele>287.4</ele>
        <time>1970-01-01T09:00:53.145Z</time>
    </trkpt>
    <trkpt lat="56.411031" lon="60.75436">
        <ele>287.4</ele>
        <time>1970-01-01T09:00:54.145Z</time>
    </trkpt>
    <trkpt lat="56.410998" lon="60.754344">
        <ele>287.4</ele>
        <time>1970-01-01T09:00:55.145Z</time>
    </trkpt>
    <trkpt lat="56.410965" lon="60.754338">
        <ele>287.4</ele>
        <time>1970-01-01T09:00:56.145Z</time>
    </trkpt>
    <trkpt lat="56.410937" lon="60.754324">
        <ele>286.4</ele>
        <time>1970-01-01T09:00:57.145Z</time>
    </trkpt>
    <trkpt lat="56.410925" lon="60.754318">
        <ele>286.4</ele>
        <time>1970-01-01T09:00:58.145Z</time>
    </trkpt>
    <trkpt lat="56.410891" lon="60.75432">
        <ele>286.4</ele>
        <time>1970-01-01T09:00:59.145Z</time>
    </trkpt>
    <trkpt lat="56.410878" lon="60.754318">
        <ele>286.4</ele>
        <time>1970-01-01T09:01:00.145Z</time>
    </trkpt>
    <trkpt lat="56.410842" lon="60.754324">
        <ele>286.4</ele>
        <time>1970-01-01T09:01:01.145Z</time>
    </trkpt>
    <trkpt lat="56.410827" lon="60.754321">
        <ele>286.4</ele>
        <time>1970-01-01T09:01:02.145Z</time>
    </trkpt>
    <trkpt lat="56.410788" lon="60.754316">
        <ele>286.4</ele>
        <time>1970-01-01T09:01:03.145Z</time>
    </trkpt>
    <trkpt lat="56.410776" lon="60.75431">
        <ele>286.4</ele>
        <time>1970-01-01T09:01:04.145Z</time>
    </trkpt>
    <trkpt lat="56.410747" lon="60.754276">
        <ele>286.4</ele>
        <time>1970-01-01T09:01:05.145Z</time>
    </trkpt>
    <trkpt lat="56.410736" lon="60.75427">
        <ele>286.4</ele>
        <time>1970-01-01T09:01:06.145Z</time>
    </trkpt>
    <trkpt lat="56.410707" lon="60.754254">
        <ele>286.4</ele>
        <time>1970-01-01T09:01:07.145Z</time>
    </trkpt>
    <trkpt lat="56.410694" lon="60.754228">
        <ele>286.4</ele>
        <time>1970-01-01T09:01:08.145Z</time>
    </trkpt>
    <trkpt lat="56.410678" lon="60.754223">
        <ele>286.4</ele>
        <time>1970-01-01T09:01:09.145Z</time>
    </trkpt>
    <trkpt lat="56.410668" lon="60.754207">
        <ele>286.4</ele>
        <time>1970-01-01T09:01:10.145Z</time>
    </trkpt>
    <trkpt lat="56.410638" lon="60.754183">
        <ele>286.4</ele>
        <time>1970-01-01T09:01:11.145Z</time>
    </trkpt>
    <trkpt lat="56.410622" lon="60.754186">
        <ele>286.4</ele>
        <time>1970-01-01T09:01:12.145Z</time>
    </trkpt>
    <trkpt lat="56.41061" lon="60.754192">
        <ele>286.4</ele>
        <time>1970-01-01T09:01:13.145Z</time>
    </trkpt>
    <trkpt lat="56.410598" lon="60.754191">
        <ele>286.4</ele>
        <time>1970-01-01T09:01:14.145Z</time>
    </trkpt>
    <trkpt lat="56.410572" lon="60.754203">
        <ele>286.4</ele>
        <time>1970-01-01T09:01:15.145Z</time>
    </trkpt>
    <trkpt lat="56.410563" lon="60.754211">
        <ele>286.4</ele>
        <time>1970-01-01T09:01:16.145Z</time>
    </trkpt>
    <trkpt lat="56.410532" lon="60.754213">
        <ele>286.4</ele>
        <time>1970-01-01T09:01:17.145Z</time>
    </trkpt>
    <trkpt lat="56.410521" lon="60.754205">
        <ele>286.4</ele>
        <time>1970-01-01T09:01:18.145Z</time>
    </trkpt>
    <trkpt lat="56.410492" lon="60.754196">
        <ele>286.4</ele>
        <time>1970-01-01T09:01:19.145Z</time>
    </trkpt>
    <trkpt lat="56.410484" lon="60.754195">
        <ele>286.4</ele>
        <time>1970-01-01T09:01:20.145Z</time>
    </trkpt>
    <trkpt lat="56.410453" lon="60.754191">
        <ele>286.4</ele>
        <time>1970-01-01T09:01:21.145Z</time>
    </trkpt>
    <trkpt lat="56.410434" lon="60.754189">
        <ele>286.4</ele>
        <time>1970-01-01T09:01:22.145Z</time>
    </trkpt>
    <trkpt lat="56.410424" lon="60.754175">
        <ele>286.4</ele>
        <time>1970-01-01T09:01:23.145Z</time>
    </trkpt>
    <trkpt lat="56.410416" lon="60.754164">
        <ele>286.4</ele>
        <time>1970-01-01T09:01:24.145Z</time>
    </trkpt>
    <trkpt lat="56.410388" lon="60.75414">
        <ele>286.4</ele>
        <time>1970-01-01T09:01:25.145Z</time>
    </trkpt>
    <trkpt lat="56.410364" lon="60.754127">
        <ele>285.4</ele>
        <time>1970-01-01T09:01:26.145Z</time>
    </trkpt>
    <trkpt lat="56.410356" lon="60.754132">
        <ele>285.4</ele>
        <time>1970-01-01T09:01:27.145Z</time>
    </trkpt>
    <trkpt lat="56.410342" lon="60.754132">
        <ele>285.4</ele>
        <time>1970-01-01T09:01:28.145Z</time>
    </trkpt>
    <trkpt lat="56.410308" lon="60.754126">
        <ele>285.4</ele>
        <time>1970-01-01T09:01:29.145Z</time>
    </trkpt>
    <trkpt lat="56.410297" lon="60.75412">
        <ele>285.4</ele>
        <time>1970-01-01T09:01:30.145Z</time>
    </trkpt>
    <trkpt lat="56.410266" lon="60.754103">
        <ele>285.4</ele>
        <time>1970-01-01T09:01:31.145Z</time>
    </trkpt>
    <trkpt lat="56.410255" lon="60.754087">
        <ele>285.4</ele>
        <time>1970-01-01T09:01:32.145Z</time>
    </trkpt>
    <trkpt lat="56.410239" lon="60.754068">
        <ele>285.4</ele>
        <time>1970-01-01T09:01:33.145Z</time>
    </trkpt>
    <trkpt lat="56.410223" lon="60.754069">
        <ele>285.4</ele>
        <time>1970-01-01T09:01:34.145Z</time>
    </trkpt>
    <trkpt lat="56.410194" lon="60.754075">
        <ele>285.4</ele>
        <time>1970-01-01T09:01:35.145Z</time>
    </trkpt>
    <trkpt lat="56.410189" lon="60.75408">
        <ele>285.4</ele>
        <time>1970-01-01T09:01:36.145Z</time>
    </trkpt>
    <trkpt lat="56.410158" lon="60.754091">
        <ele>285.4</ele>
        <time>1970-01-01T09:01:37.145Z</time>
    </trkpt>
    <trkpt lat="56.410151" lon="60.754089">
        <ele>285.4</ele>
        <time>1970-01-01T09:01:38.145Z</time>
    </trkpt>
    <trkpt lat="56.410144" lon="60.754086">
        <ele>285.4</ele>
        <time>1970-01-01T09:01:39.145Z</time>
    </trkpt>
    <trkpt lat="56.410136" lon="60.754083">
        <ele>285.4</ele>
        <time>1970-01-01T09:01:40.145Z</time>
    </trkpt>
    <trkpt lat="56.410129" lon="60.754081">
        <ele>285.4</ele>
        <time>1970-01-01T09:01:41.145Z</time>
    </trkpt>
    <trkpt lat="56.410119" lon="60.754082">
        <ele>285.4</ele>
        <time>1970-01-01T09:01:42.145Z</time>
    </trkpt>
    <trkpt lat="56.410107" lon="60.75409">
        <ele>285.4</ele>
        <time>1970-01-01T09:01:43.145Z</time>
    </trkpt>
    <trkpt lat="56.410092" lon="60.754097">
        <ele>285.4</ele>
        <time>1970-01-01T09:01:45.145Z</time>
    </trkpt>
    <trkpt lat="56.410083" lon="60.754098">
        <ele>285.4</ele>
        <time>1970-01-01T09:01:46.145Z</time>
    </trkpt>
    <trkpt lat="56.410051" lon="60.754104">
        <ele>285.4</ele>
        <time>1970-01-01T09:01:47.145Z</time>
    </trkpt>
    <trkpt lat="56.410041" lon="60.754106">
        <ele>285.4</ele>
        <time>1970-01-01T09:01:48.145Z</time>
    </trkpt>
    <trkpt lat="56.410012" lon="60.754102">
        <ele>285.4</ele>
        <time>1970-01-01T09:01:49.145Z</time>
    </trkpt>
    <trkpt lat="56.410004" lon="60.754103">
        <ele>285.4</ele>
        <time>1970-01-01T09:01:50.145Z</time>
    </trkpt>
    <trkpt lat="56.409972" lon="60.754091">
        <ele>285.4</ele>
        <time>1970-01-01T09:01:51.145Z</time>
    </trkpt>
    <trkpt lat="56.409959" lon="60.754084">
        <ele>285.4</ele>
        <time>1970-01-01T09:01:52.145Z</time>
    </trkpt>
    <trkpt lat="56.40993" lon="60.754061">
        <ele>285.4</ele>
        <time>1970-01-01T09:01:53.145Z</time>
    </trkpt>
    <trkpt lat="56.409903" lon="60.754049">
        <ele>285.4</ele>
        <time>1970-01-01T09:01:54.145Z</time>
    </trkpt>
    <trkpt lat="56.409893" lon="60.754048">
        <ele>285.4</ele>
        <time>1970-01-01T09:01:55.145Z</time>
    </trkpt>
    <trkpt lat="56.40986" lon="60.754042">
        <ele>285.4</ele>
        <time>1970-01-01T09:01:56.145Z</time>
    </trkpt>
    <trkpt lat="56.40985" lon="60.754034">
        <ele>285.4</ele>
        <time>1970-01-01T09:01:57.145Z</time>
    </trkpt>
    <trkpt lat="56.409817" lon="60.75401">
        <ele>285.4</ele>
        <time>1970-01-01T09:01:58.145Z</time>
    </trkpt>
    <trkpt lat="56.409802" lon="60.753998">
        <ele>285.4</ele>
        <time>1970-01-01T09:01:59.145Z</time>
    </trkpt>
    <trkpt lat="56.409762" lon="60.753975">
        <ele>285.4</ele>
        <time>1970-01-01T09:02:00.145Z</time>
    </trkpt>
    <trkpt lat="56.409754" lon="60.75397">
        <ele>285.4</ele>
        <time>1970-01-01T09:02:01.145Z</time>
    </trkpt>
    <trkpt lat="56.409724" lon="60.753948">
        <ele>285.4</ele>
        <time>1970-01-01T09:02:02.145Z</time>
    </trkpt>
    <trkpt lat="56.409711" lon="60.753937">
        <ele>285.4</ele>
        <time>1970-01-01T09:02:03.145Z</time>
    </trkpt>
    <trkpt lat="56.409681" lon="60.753933">
        <ele>285.4</ele>
        <time>1970-01-01T09:02:04.145Z</time>
    </trkpt>
    <trkpt lat="56.409654" lon="60.753944">
        <ele>285.4</ele>
        <time>1970-01-01T09:02:05.145Z</time>
    </trkpt>
    <trkpt lat="56.409647" lon="60.753943">
        <ele>285.4</ele>
        <time>1970-01-01T09:02:06.145Z</time>
    </trkpt>
    <trkpt lat="56.409614" lon="60.753954">
        <ele>286.4</ele>
        <time>1970-01-01T09:02:07.145Z</time>
    </trkpt>
    <trkpt lat="56.409605" lon="60.753965">
        <ele>286.4</ele>
        <time>1970-01-01T09:02:08.145Z</time>
    </trkpt>
    <trkpt lat="56.409581" lon="60.753991">
        <ele>286.4</ele>
        <time>1970-01-01T09:02:09.145Z</time>
    </trkpt>
    <trkpt lat="56.409574" lon="60.753997">
        <ele>286.4</ele>
        <time>1970-01-01T09:02:10.145Z</time>
    </trkpt>
    <trkpt lat="56.409549" lon="60.754008">
        <ele>286.4</ele>
        <time>1970-01-01T09:02:11.145Z</time>
    </trkpt>
    <trkpt lat="56.40953" lon="60.754017">
        <ele>286.4</ele>
        <time>1970-01-01T09:02:12.145Z</time>
    </trkpt>
    <trkpt lat="56.40952" lon="60.754027">
        <ele>286.4</ele>
        <time>1970-01-01T09:02:13.145Z</time>
    </trkpt>
    <trkpt lat="56.4095" lon="60.754017">
        <ele>286.4</ele>
        <time>1970-01-01T09:02:14.145Z</time>
    </trkpt>
    <trkpt lat="56.409454" lon="60.753996">
        <ele>286.4</ele>
        <time>1970-01-01T09:02:15.145Z</time>
    </trkpt>
    <trkpt lat="56.409424" lon="60.753977">
        <ele>286.4</ele>
        <time>1970-01-01T09:02:16.145Z</time>
    </trkpt>
    <trkpt lat="56.409406" lon="60.753965">
        <ele>286.4</ele>
        <time>1970-01-01T09:02:17.145Z</time>
    </trkpt>
    <trkpt lat="56.409365" lon="60.753951">
        <ele>286.4</ele>
        <time>1970-01-01T09:02:18.145Z</time>
    </trkpt>
    <trkpt lat="56.409352" lon="60.753945">
        <ele>286.4</ele>
        <time>1970-01-01T09:02:19.145Z</time>
    </trkpt>
    <trkpt lat="56.409316" lon="60.753932">
        <ele>286.4</ele>
        <time>1970-01-01T09:02:20.145Z</time>
    </trkpt>
    <trkpt lat="56.409298" lon="60.753926">
        <ele>286.4</ele>
        <time>1970-01-01T09:02:21.145Z</time>
    </trkpt>
    <trkpt lat="56.409255" lon="60.753919">
        <ele>286.4</ele>
        <time>1970-01-01T09:02:22.145Z</time>
    </trkpt>
    <trkpt lat="56.409222" lon="60.753916">
        <ele>285.4</ele>
        <time>1970-01-01T09:02:23.145Z</time>
    </trkpt>
    <trkpt lat="56.409189" lon="60.753914">
        <ele>285.4</ele>
        <time>1970-01-01T09:02:24.145Z</time>
    </trkpt>
    <trkpt lat="56.409174" lon="60.753913">
        <ele>285.4</ele>
        <time>1970-01-01T09:02:25.145Z</time>
    </trkpt>
    <trkpt lat="56.409154" lon="60.753917">
        <ele>285.4</ele>
        <time>1970-01-01T09:02:26.145Z</time>
    </trkpt>
    <trkpt lat="56.409136" lon="60.753911">
        <ele>285.4</ele>
        <time>1970-01-01T09:02:27.145Z</time>
    </trkpt>
    <trkpt lat="56.409094" lon="60.753905">
        <ele>285.4</ele>
        <time>1970-01-01T09:02:28.145Z</time>
    </trkpt>
    <trkpt lat="56.40906" lon="60.753908">
        <ele>285.4</ele>
        <time>1970-01-01T09:02:29.145Z</time>
    </trkpt>
    <trkpt lat="56.409007" lon="60.753929">
        <ele>285.4</ele>
        <time>1970-01-01T09:02:30.145Z</time>
    </trkpt>
    <trkpt lat="56.408993" lon="60.753925">
        <ele>285.4</ele>
        <time>1970-01-01T09:02:31.145Z</time>
    </trkpt>
    <trkpt lat="56.408954" lon="60.753906">
        <ele>285.4</ele>
        <time>1970-01-01T09:02:32.145Z</time>
    </trkpt>
    <trkpt lat="56.408918" lon="60.753888">
        <ele>285.4</ele>
        <time>1970-01-01T09:02:33.145Z</time>
    </trkpt>
    <trkpt lat="56.408889" lon="60.753868">
        <ele>285.4</ele>
        <time>1970-01-01T09:02:34.145Z</time>
    </trkpt>
    <trkpt lat="56.408876" lon="60.753856">
        <ele>285.4</ele>
        <time>1970-01-01T09:02:35.145Z</time>
    </trkpt>
    <trkpt lat="56.408841" lon="60.753836">
        <ele>285.4</ele>
        <time>1970-01-01T09:02:36.145Z</time>
    </trkpt>
    <trkpt lat="56.408828" lon="60.753841">
        <ele>285.4</ele>
        <time>1970-01-01T09:02:37.145Z</time>
    </trkpt>
    <trkpt lat="56.408794" lon="60.753852">
        <ele>285.4</ele>
        <time>1970-01-01T09:02:38.145Z</time>
    </trkpt>
    <trkpt lat="56.40877" lon="60.753852">
        <ele>285.4</ele>
        <time>1970-01-01T09:02:39.145Z</time>
    </trkpt>
    <trkpt lat="56.408761" lon="60.753859">
        <ele>285.4</ele>
        <time>1970-01-01T09:02:40.145Z</time>
    </trkpt>
    <trkpt lat="56.408755" lon="60.753857">
        <ele>285.4</ele>
        <time>1970-01-01T09:02:41.145Z</time>
    </trkpt>
    <trkpt lat="56.408725" lon="60.75384">
        <ele>285.4</ele>
        <time>1970-01-01T09:02:42.145Z</time>
    </trkpt>
    <trkpt lat="56.408696" lon="60.753837">
        <ele>285.4</ele>
        <time>1970-01-01T09:02:43.145Z</time>
    </trkpt>
    <trkpt lat="56.408668" lon="60.753833">
        <ele>286.4</ele>
        <time>1970-01-01T09:02:44.145Z</time>
    </trkpt>
    <trkpt lat="56.408638" lon="60.753831">
        <ele>286.4</ele>
        <time>1970-01-01T09:02:45.145Z</time>
    </trkpt>
    <trkpt lat="56.408623" lon="60.753825">
        <ele>286.4</ele>
        <time>1970-01-01T09:02:46.145Z</time>
    </trkpt>
    <trkpt lat="56.408609" lon="60.753825">
        <ele>286.4</ele>
        <time>1970-01-01T09:02:47.145Z</time>
    </trkpt>
    <trkpt lat="56.408597" lon="60.753832">
        <ele>286.4</ele>
        <time>1970-01-01T09:02:48.145Z</time>
    </trkpt>
    <trkpt lat="56.408561" lon="60.753852">
        <ele>286.4</ele>
        <time>1970-01-01T09:02:49.145Z</time>
    </trkpt>
    <trkpt lat="56.408543" lon="60.753856">
        <ele>286.4</ele>
        <time>1970-01-01T09:02:50.145Z</time>
    </trkpt>
    <trkpt lat="56.408502" lon="60.753868">
        <ele>286.4</ele>
        <time>1970-01-01T09:02:51.145Z</time>
    </trkpt>
    <trkpt lat="56.40847" lon="60.753869">
        <ele>286.4</ele>
        <time>1970-01-01T09:02:52.145Z</time>
    </trkpt>
    <trkpt lat="56.408456" lon="60.753867">
        <ele>286.4</ele>
        <time>1970-01-01T09:02:53.145Z</time>
    </trkpt>
    <trkpt lat="56.408419" lon="60.753863">
        <ele>286.4</ele>
        <time>1970-01-01T09:02:54.145Z</time>
    </trkpt>
    <trkpt lat="56.408405" lon="60.753864">
        <ele>286.4</ele>
        <time>1970-01-01T09:02:55.145Z</time>
    </trkpt>
    <trkpt lat="56.408369" lon="60.753866">
        <ele>286.4</ele>
        <time>1970-01-01T09:02:56.145Z</time>
    </trkpt>
    <trkpt lat="56.408336" lon="60.753858">
        <ele>286.4</ele>
        <time>1970-01-01T09:02:57.145Z</time>
    </trkpt>
    <trkpt lat="56.408325" lon="60.753855">
        <ele>286.4</ele>
        <time>1970-01-01T09:02:58.145Z</time>
    </trkpt>
    <trkpt lat="56.408297" lon="60.753857">
        <ele>286.4</ele>
        <time>1970-01-01T09:02:59.145Z</time>
    </trkpt>
    <trkpt lat="56.408267" lon="60.753859">
        <ele>286.4</ele>
        <time>1970-01-01T09:03:00.145Z</time>
    </trkpt>
    <trkpt lat="56.408255" lon="60.753855">
        <ele>286.4</ele>
        <time>1970-01-01T09:03:01.145Z</time>
    </trkpt>
    <trkpt lat="56.408243" lon="60.75385">
        <ele>286.4</ele>
        <time>1970-01-01T09:03:02.145Z</time>
    </trkpt>
    <trkpt lat="56.408214" lon="60.75385">
        <ele>286.4</ele>
        <time>1970-01-01T09:03:03.145Z</time>
    </trkpt>
    <trkpt lat="56.4082" lon="60.75385">
        <ele>286.4</ele>
        <time>1970-01-01T09:03:04.145Z</time>
    </trkpt>
    <trkpt lat="56.408182" lon="60.753849">
        <ele>286.4</ele>
        <time>1970-01-01T09:03:05.145Z</time>
    </trkpt>
    <trkpt lat="56.40817" lon="60.753852">
        <ele>286.4</ele>
        <time>1970-01-01T09:03:06.145Z</time>
    </trkpt>
    <trkpt lat="56.408136" lon="60.75386">
        <ele>286.4</ele>
        <time>1970-01-01T09:03:07.145Z</time>
    </trkpt>
    <trkpt lat="56.408126" lon="60.753863">
        <ele>286.4</ele>
        <time>1970-01-01T09:03:08.145Z</time>
    </trkpt>
    <trkpt lat="56.408097" lon="60.753868">
        <ele>287.4</ele>
        <time>1970-01-01T09:03:09.145Z</time>
    </trkpt>
    <trkpt lat="56.408088" lon="60.75387">
        <ele>287.4</ele>
        <time>1970-01-01T09:03:10.145Z</time>
    </trkpt>
    <trkpt lat="56.408058" lon="60.75387">
        <ele>287.4</ele>
        <time>1970-01-01T09:03:11.145Z</time>
    </trkpt>
    <trkpt lat="56.408048" lon="60.753874">
        <ele>287.4</ele>
        <time>1970-01-01T09:03:12.145Z</time>
    </trkpt>
    <trkpt lat="56.408015" lon="60.753888">
        <ele>286.4</ele>
        <time>1970-01-01T09:03:13.145Z</time>
    </trkpt>
    <trkpt lat="56.408" lon="60.753889">
        <ele>286.4</ele>
        <time>1970-01-01T09:03:14.145Z</time>
    </trkpt>
    <trkpt lat="56.407968" lon="60.75388">
        <ele>286.4</ele>
        <time>1970-01-01T09:03:15.145Z</time>
    </trkpt>
    <trkpt lat="56.407957" lon="60.753881">
        <ele>286.4</ele>
        <time>1970-01-01T09:03:16.145Z</time>
    </trkpt>
    <trkpt lat="56.407927" lon="60.75388">
        <ele>286.4</ele>
        <time>1970-01-01T09:03:17.145Z</time>
    </trkpt>
    <trkpt lat="56.407916" lon="60.753877">
        <ele>287.4</ele>
        <time>1970-01-01T09:03:18.145Z</time>
    </trkpt>
    <trkpt lat="56.407885" lon="60.753868">
        <ele>287.4</ele>
        <time>1970-01-01T09:03:19.145Z</time>
    </trkpt>
    <trkpt lat="56.407872" lon="60.75386">
        <ele>287.4</ele>
        <time>1970-01-01T09:03:20.145Z</time>
    </trkpt>
    <trkpt lat="56.407849" lon="60.75386">
        <ele>287.4</ele>
        <time>1970-01-01T09:03:21.145Z</time>
    </trkpt>
    <trkpt lat="56.407837" lon="60.753852">
        <ele>287.4</ele>
        <time>1970-01-01T09:03:22.145Z</time>
    </trkpt>
    <trkpt lat="56.4078" lon="60.753845">
        <ele>287.4</ele>
        <time>1970-01-01T09:03:23.145Z</time>
    </trkpt>
    <trkpt lat="56.407772" lon="60.753821">
        <ele>287.4</ele>
        <time>1970-01-01T09:03:24.145Z</time>
    </trkpt>
    <trkpt lat="56.407754" lon="60.753814">
        <ele>287.4</ele>
        <time>1970-01-01T09:03:25.145Z</time>
    </trkpt>
    <trkpt lat="56.407711" lon="60.753803">
        <ele>287.4</ele>
        <time>1970-01-01T09:03:26.145Z</time>
    </trkpt>
    <trkpt lat="56.407696" lon="60.7538">
        <ele>287.4</ele>
        <time>1970-01-01T09:03:27.145Z</time>
    </trkpt>
    <trkpt lat="56.407656" lon="60.753789">
        <ele>287.4</ele>
        <time>1970-01-01T09:03:28.145Z</time>
    </trkpt>
    <trkpt lat="56.40764" lon="60.753782">
        <ele>287.4</ele>
        <time>1970-01-01T09:03:29.145Z</time>
    </trkpt>
    <trkpt lat="56.407599" lon="60.753768">
        <ele>287.4</ele>
        <time>1970-01-01T09:03:30.145Z</time>
    </trkpt>
    <trkpt lat="56.407588" lon="60.753766">
        <ele>287.4</ele>
        <time>1970-01-01T09:03:31.145Z</time>
    </trkpt>
    <trkpt lat="56.407559" lon="60.753758">
        <ele>287.4</ele>
        <time>1970-01-01T09:03:32.145Z</time>
    </trkpt>
    <trkpt lat="56.407529" lon="60.753745">
        <ele>287.4</ele>
        <time>1970-01-01T09:03:33.145Z</time>
    </trkpt>
    <trkpt lat="56.407498" lon="60.753739">
        <ele>287.4</ele>
        <time>1970-01-01T09:03:34.145Z</time>
    </trkpt>
    <trkpt lat="56.407485" lon="60.753725">
        <ele>287.4</ele>
        <time>1970-01-01T09:03:35.145Z</time>
    </trkpt>
    <trkpt lat="56.407472" lon="60.753723">
        <ele>287.4</ele>
        <time>1970-01-01T09:03:36.145Z</time>
    </trkpt>
    <trkpt lat="56.407442" lon="60.753735">
        <ele>287.4</ele>
        <time>1970-01-01T09:03:37.145Z</time>
    </trkpt>
    <trkpt lat="56.407432" lon="60.753737">
        <ele>287.4</ele>
        <time>1970-01-01T09:03:38.145Z</time>
    </trkpt>
    <trkpt lat="56.407398" lon="60.753738">
        <ele>287.4</ele>
        <time>1970-01-01T09:03:39.145Z</time>
    </trkpt>
    <trkpt lat="56.407385" lon="60.75374">
        <ele>287.4</ele>
        <time>1970-01-01T09:03:40.145Z</time>
    </trkpt>
    <trkpt lat="56.40735" lon="60.753742">
        <ele>287.4</ele>
        <time>1970-01-01T09:03:41.145Z</time>
    </trkpt>
    <trkpt lat="56.407317" lon="60.753734">
        <ele>287.4</ele>
        <time>1970-01-01T09:03:42.145Z</time>
    </trkpt>
    <trkpt lat="56.407303" lon="60.753727">
        <ele>287.4</ele>
        <time>1970-01-01T09:03:43.145Z</time>
    </trkpt>
    <trkpt lat="56.407266" lon="60.753714">
        <ele>287.4</ele>
        <time>1970-01-01T09:03:44.145Z</time>
    </trkpt>
    <trkpt lat="56.407254" lon="60.753707">
        <ele>287.4</ele>
        <time>1970-01-01T09:03:45.145Z</time>
    </trkpt>
    <trkpt lat="56.407219" lon="60.753698">
        <ele>287.4</ele>
        <time>1970-01-01T09:03:46.145Z</time>
    </trkpt>
    <trkpt lat="56.407205" lon="60.753693">
        <ele>287.4</ele>
        <time>1970-01-01T09:03:47.145Z</time>
    </trkpt>
    <trkpt lat="56.407169" lon="60.753669">
        <ele>287.4</ele>
        <time>1970-01-01T09:03:48.145Z</time>
    </trkpt>
    <trkpt lat="56.407143" lon="60.753652">
        <ele>287.4</ele>
        <time>1970-01-01T09:03:49.145Z</time>
    </trkpt>
    <trkpt lat="56.407114" lon="60.753641">
        <ele>287.4</ele>
        <time>1970-01-01T09:03:51.145Z</time>
    </trkpt>
    <trkpt lat="56.4071" lon="60.753633">
        <ele>287.4</ele>
        <time>1970-01-01T09:03:52.145Z</time>
    </trkpt>
    <trkpt lat="56.40706" lon="60.753623">
        <ele>287.4</ele>
        <time>1970-01-01T09:03:53.145Z</time>
    </trkpt>
    <trkpt lat="56.407046" lon="60.753616">
        <ele>287.4</ele>
        <time>1970-01-01T09:03:54.145Z</time>
    </trkpt>
    <trkpt lat="56.407022" lon="60.753609">
        <ele>287.4</ele>
        <time>1970-01-01T09:03:55.145Z</time>
    </trkpt>
    <trkpt lat="56.406987" lon="60.753601">
        <ele>287.4</ele>
        <time>1970-01-01T09:03:56.145Z</time>
    </trkpt>
    <trkpt lat="56.406975" lon="60.753603">
        <ele>287.4</ele>
        <time>1970-01-01T09:03:57.145Z</time>
    </trkpt>
    <trkpt lat="56.406938" lon="60.753598">
        <ele>287.4</ele>
        <time>1970-01-01T09:03:58.145Z</time>
    </trkpt>
    <trkpt lat="56.406926" lon="60.753602">
        <ele>287.4</ele>
        <time>1970-01-01T09:03:59.145Z</time>
    </trkpt>
    <trkpt lat="56.406891" lon="60.753599">
        <ele>287.4</ele>
        <time>1970-01-01T09:04:00.145Z</time>
    </trkpt>
    <trkpt lat="56.406878" lon="60.753591">
        <ele>287.4</ele>
        <time>1970-01-01T09:04:01.145Z</time>
    </trkpt>
    <trkpt lat="56.40684" lon="60.753575">
        <ele>287.4</ele>
        <time>1970-01-01T09:04:02.145Z</time>
    </trkpt>
    <trkpt lat="56.406832" lon="60.753575">
        <ele>287.4</ele>
        <time>1970-01-01T09:04:03.145Z</time>
    </trkpt>
    <trkpt lat="56.406801" lon="60.753576">
        <ele>287.4</ele>
        <time>1970-01-01T09:04:04.145Z</time>
    </trkpt>
    <trkpt lat="56.406763" lon="60.753575">
        <ele>287.4</ele>
        <time>1970-01-01T09:04:05.145Z</time>
    </trkpt>
    <trkpt lat="56.406744" lon="60.753577">
        <ele>287.4</ele>
        <time>1970-01-01T09:04:06.145Z</time>
    </trkpt>
    <trkpt lat="56.406731" lon="60.753576">
        <ele>287.4</ele>
        <time>1970-01-01T09:04:07.145Z</time>
    </trkpt>
    <trkpt lat="56.406719" lon="60.75358">
        <ele>287.4</ele>
        <time>1970-01-01T09:04:08.145Z</time>
    </trkpt>
    <trkpt lat="56.406684" lon="60.753586">
        <ele>287.4</ele>
        <time>1970-01-01T09:04:09.145Z</time>
    </trkpt>
    <trkpt lat="56.406672" lon="60.753588">
        <ele>287.4</ele>
        <time>1970-01-01T09:04:10.145Z</time>
    </trkpt>
    <trkpt lat="56.406641" lon="60.753591">
        <ele>287.4</ele>
        <time>1970-01-01T09:04:11.145Z</time>
    </trkpt>
    <trkpt lat="56.406624" lon="60.753585">
        <ele>287.4</ele>
        <time>1970-01-01T09:04:12.145Z</time>
    </trkpt>
    <trkpt lat="56.406587" lon="60.753577">
        <ele>287.4</ele>
        <time>1970-01-01T09:04:13.145Z</time>
    </trkpt>
    <trkpt lat="56.406573" lon="60.753574">
        <ele>287.4</ele>
        <time>1970-01-01T09:04:14.145Z</time>
    </trkpt>
    <trkpt lat="56.406559" lon="60.753571">
        <ele>287.4</ele>
        <time>1970-01-01T09:04:15.145Z</time>
    </trkpt>
    <trkpt lat="56.406537" lon="60.753555">
        <ele>287.4</ele>
        <time>1970-01-01T09:04:16.145Z</time>
    </trkpt>
    <trkpt lat="56.406509" lon="60.753553">
        <ele>287.4</ele>
        <time>1970-01-01T09:04:17.145Z</time>
    </trkpt>
    <trkpt lat="56.406495" lon="60.753552">
        <ele>287.4</ele>
        <time>1970-01-01T09:04:18.145Z</time>
    </trkpt>
    <trkpt lat="56.406461" lon="60.753551">
        <ele>286.4</ele>
        <time>1970-01-01T09:04:19.145Z</time>
    </trkpt>
    <trkpt lat="56.406441" lon="60.75353">
        <ele>286.4</ele>
        <time>1970-01-01T09:04:20.145Z</time>
    </trkpt>
    <trkpt lat="56.406422" lon="60.753515">
        <ele>286.4</ele>
        <time>1970-01-01T09:04:21.145Z</time>
    </trkpt>
    <trkpt lat="56.406378" lon="60.753494">
        <ele>286.4</ele>
        <time>1970-01-01T09:04:22.145Z</time>
    </trkpt>
    <trkpt lat="56.406365" lon="60.753491">
        <ele>286.4</ele>
        <time>1970-01-01T09:04:23.145Z</time>
    </trkpt>
    <trkpt lat="56.406328" lon="60.753491">
        <ele>286.4</ele>
        <time>1970-01-01T09:04:24.145Z</time>
    </trkpt>
    <trkpt lat="56.406313" lon="60.753486">
        <ele>286.4</ele>
        <time>1970-01-01T09:04:25.145Z</time>
    </trkpt>
    <trkpt lat="56.406272" lon="60.753476">
        <ele>286.4</ele>
        <time>1970-01-01T09:04:26.145Z</time>
    </trkpt>
    <trkpt lat="56.406244" lon="60.753471">
        <ele>286.4</ele>
        <time>1970-01-01T09:04:27.145Z</time>
    </trkpt>
    <trkpt lat="56.406214" lon="60.753458">
        <ele>286.4</ele>
        <time>1970-01-01T09:04:28.145Z</time>
    </trkpt>
    <trkpt lat="56.406186" lon="60.753458">
        <ele>285.4</ele>
        <time>1970-01-01T09:04:29.145Z</time>
    </trkpt>
    <trkpt lat="56.406159" lon="60.75345">
        <ele>285.4</ele>
        <time>1970-01-01T09:04:30.145Z</time>
    </trkpt>
    <trkpt lat="56.406142" lon="60.753438">
        <ele>285.4</ele>
        <time>1970-01-01T09:04:31.145Z</time>
    </trkpt>
    <trkpt lat="56.406125" lon="60.753434">
        <ele>285.4</ele>
        <time>1970-01-01T09:04:32.145Z</time>
    </trkpt>
    <trkpt lat="56.40609" lon="60.753419">
        <ele>285.4</ele>
        <time>1970-01-01T09:04:33.145Z</time>
    </trkpt>
    <trkpt lat="56.40606" lon="60.753409">
        <ele>285.4</ele>
        <time>1970-01-01T09:04:34.145Z</time>
    </trkpt>
    <trkpt lat="56.406031" lon="60.753406">
        <ele>285.4</ele>
        <time>1970-01-01T09:04:35.145Z</time>
    </trkpt>
    <trkpt lat="56.406018" lon="60.753401">
        <ele>285.4</ele>
        <time>1970-01-01T09:04:36.145Z</time>
    </trkpt>
    <trkpt lat="56.405979" lon="60.753391">
        <ele>285.4</ele>
        <time>1970-01-01T09:04:37.145Z</time>
    </trkpt>
    <trkpt lat="56.405952" lon="60.753378">
        <ele>285.4</ele>
        <time>1970-01-01T09:04:38.145Z</time>
    </trkpt>
    <trkpt lat="56.405942" lon="60.753371">
        <ele>285.4</ele>
        <time>1970-01-01T09:04:39.145Z</time>
    </trkpt>
    <trkpt lat="56.405907" lon="60.753364">
        <ele>285.4</ele>
        <time>1970-01-01T09:04:40.145Z</time>
    </trkpt>
    <trkpt lat="56.405892" lon="60.753361">
        <ele>285.4</ele>
        <time>1970-01-01T09:04:41.145Z</time>
    </trkpt>
    <trkpt lat="56.405853" lon="60.753346">
        <ele>285.4</ele>
        <time>1970-01-01T09:04:42.145Z</time>
    </trkpt>
    <trkpt lat="56.40584" lon="60.753344">
        <ele>285.4</ele>
        <time>1970-01-01T09:04:43.145Z</time>
    </trkpt>
    <trkpt lat="56.405805" lon="60.753339">
        <ele>285.4</ele>
        <time>1970-01-01T09:04:44.145Z</time>
    </trkpt>
    <trkpt lat="56.405777" lon="60.753347">
        <ele>285.4</ele>
        <time>1970-01-01T09:04:45.145Z</time>
    </trkpt>
    <trkpt lat="56.405766" lon="60.753343">
        <ele>285.4</ele>
        <time>1970-01-01T09:04:46.145Z</time>
    </trkpt>
    <trkpt lat="56.405729" lon="60.753335">
        <ele>285.4</ele>
        <time>1970-01-01T09:04:47.145Z</time>
    </trkpt>
    <trkpt lat="56.405716" lon="60.753329">
        <ele>285.4</ele>
        <time>1970-01-01T09:04:48.145Z</time>
    </trkpt>
    <trkpt lat="56.405685" lon="60.753325">
        <ele>285.4</ele>
        <time>1970-01-01T09:04:49.145Z</time>
    </trkpt>
    <trkpt lat="56.405654" lon="60.753317">
        <ele>285.4</ele>
        <time>1970-01-01T09:04:50.145Z</time>
    </trkpt>
    <trkpt lat="56.405641" lon="60.753311">
        <ele>285.4</ele>
        <time>1970-01-01T09:04:51.145Z</time>
    </trkpt>
    <trkpt lat="56.405605" lon="60.753299">
        <ele>285.4</ele>
        <time>1970-01-01T09:04:52.145Z</time>
    </trkpt>
    <trkpt lat="56.40559" lon="60.753297">
        <ele>285.4</ele>
        <time>1970-01-01T09:04:53.145Z</time>
    </trkpt>
    <trkpt lat="56.405549" lon="60.753295">
        <ele>285.4</ele>
        <time>1970-01-01T09:04:54.145Z</time>
    </trkpt>
    <trkpt lat="56.405533" lon="60.753287">
        <ele>285.4</ele>
        <time>1970-01-01T09:04:55.145Z</time>
    </trkpt>
    <trkpt lat="56.405495" lon="60.753271">
        <ele>285.4</ele>
        <time>1970-01-01T09:04:56.145Z</time>
    </trkpt>
    <trkpt lat="56.405481" lon="60.75327">
        <ele>285.4</ele>
        <time>1970-01-01T09:04:57.145Z</time>
    </trkpt>
    <trkpt lat="56.405447" lon="60.753266">
        <ele>286.4</ele>
        <time>1970-01-01T09:04:58.145Z</time>
    </trkpt>
    <trkpt lat="56.405435" lon="60.753264">
        <ele>286.4</ele>
        <time>1970-01-01T09:04:59.145Z</time>
    </trkpt>
    <trkpt lat="56.4054" lon="60.753257">
        <ele>286.4</ele>
        <time>1970-01-01T09:05:00.145Z</time>
    </trkpt>
    <trkpt lat="56.405388" lon="60.753252">
        <ele>286.4</ele>
        <time>1970-01-01T09:05:01.145Z</time>
    </trkpt>
    <trkpt lat="56.405355" lon="60.753246">
        <ele>286.4</ele>
        <time>1970-01-01T09:05:02.145Z</time>
    </trkpt>
    <trkpt lat="56.405329" lon="60.753237">
        <ele>286.4</ele>
        <time>1970-01-01T09:05:03.145Z</time>
    </trkpt>
    <trkpt lat="56.405317" lon="60.753234">
        <ele>286.4</ele>
        <time>1970-01-01T09:05:04.145Z</time>
    </trkpt>
    <trkpt lat="56.40529" lon="60.75323">
        <ele>286.4</ele>
        <time>1970-01-01T09:05:05.145Z</time>
    </trkpt>
    <trkpt lat="56.405276" lon="60.753228">
        <ele>286.4</ele>
        <time>1970-01-01T09:05:06.145Z</time>
    </trkpt>
    <trkpt lat="56.405238" lon="60.753224">
        <ele>286.4</ele>
        <time>1970-01-01T09:05:07.145Z</time>
    </trkpt>
    <trkpt lat="56.40521" lon="60.753218">
        <ele>286.4</ele>
        <time>1970-01-01T09:05:08.145Z</time>
    </trkpt>
    <trkpt lat="56.405198" lon="60.753209">
        <ele>286.4</ele>
        <time>1970-01-01T09:05:09.145Z</time>
    </trkpt>
    <trkpt lat="56.405161" lon="60.753199">
        <ele>286.4</ele>
        <time>1970-01-01T09:05:10.145Z</time>
    </trkpt>
    <trkpt lat="56.405151" lon="60.753202">
        <ele>286.4</ele>
        <time>1970-01-01T09:05:11.145Z</time>
    </trkpt>
    <trkpt lat="56.405116" lon="60.7532">
        <ele>286.4</ele>
        <time>1970-01-01T09:05:12.145Z</time>
    </trkpt>
    <trkpt lat="56.405108" lon="60.753195">
        <ele>286.4</ele>
        <time>1970-01-01T09:05:13.145Z</time>
    </trkpt>
    <trkpt lat="56.405079" lon="60.753186">
        <ele>286.4</ele>
        <time>1970-01-01T09:05:14.145Z</time>
    </trkpt>
    <trkpt lat="56.405064" lon="60.753184">
        <ele>285.4</ele>
        <time>1970-01-01T09:05:15.145Z</time>
    </trkpt>
    <trkpt lat="56.405026" lon="60.753167">
        <ele>285.4</ele>
        <time>1970-01-01T09:05:16.145Z</time>
    </trkpt>
    <trkpt lat="56.405014" lon="60.753161">
        <ele>285.4</ele>
        <time>1970-01-01T09:05:17.145Z</time>
    </trkpt>
    <trkpt lat="56.404986" lon="60.753155">
        <ele>285.4</ele>
        <time>1970-01-01T09:05:18.145Z</time>
    </trkpt>
    <trkpt lat="56.404975" lon="60.753158">
        <ele>285.4</ele>
        <time>1970-01-01T09:05:19.145Z</time>
    </trkpt>
    <trkpt lat="56.404948" lon="60.75316">
        <ele>285.4</ele>
        <time>1970-01-01T09:05:20.145Z</time>
    </trkpt>
    <trkpt lat="56.404936" lon="60.753155">
        <ele>285.4</ele>
        <time>1970-01-01T09:05:21.145Z</time>
    </trkpt>
    <trkpt lat="56.404901" lon="60.753144">
        <ele>285.4</ele>
        <time>1970-01-01T09:05:22.145Z</time>
    </trkpt>
    <trkpt lat="56.404888" lon="60.753141">
        <ele>285.4</ele>
        <time>1970-01-01T09:05:23.145Z</time>
    </trkpt>
    <trkpt lat="56.40486" lon="60.753126">
        <ele>285.4</ele>
        <time>1970-01-01T09:05:24.145Z</time>
    </trkpt>
    <trkpt lat="56.404847" lon="60.753125">
        <ele>285.4</ele>
        <time>1970-01-01T09:05:25.145Z</time>
    </trkpt>
    <trkpt lat="56.404814" lon="60.753113">
        <ele>285.4</ele>
        <time>1970-01-01T09:05:26.145Z</time>
    </trkpt>
    <trkpt lat="56.404802" lon="60.753112">
        <ele>285.4</ele>
        <time>1970-01-01T09:05:27.145Z</time>
    </trkpt>
    <trkpt lat="56.404767" lon="60.753103">
        <ele>285.4</ele>
        <time>1970-01-01T09:05:28.145Z</time>
    </trkpt>
    <trkpt lat="56.40474" lon="60.753098">
        <ele>285.4</ele>
        <time>1970-01-01T09:05:29.145Z</time>
    </trkpt>
    <trkpt lat="56.404713" lon="60.753092">
        <ele>285.4</ele>
        <time>1970-01-01T09:05:30.145Z</time>
    </trkpt>
    <trkpt lat="56.404682" lon="60.753087">
        <ele>285.4</ele>
        <time>1970-01-01T09:05:31.145Z</time>
    </trkpt>
    <trkpt lat="56.404649" lon="60.753085">
        <ele>285.4</ele>
        <time>1970-01-01T09:05:32.145Z</time>
    </trkpt>
    <trkpt lat="56.404638" lon="60.753081">
        <ele>285.4</ele>
        <time>1970-01-01T09:05:33.145Z</time>
    </trkpt>
    <trkpt lat="56.404606" lon="60.753085">
        <ele>285.4</ele>
        <time>1970-01-01T09:05:34.145Z</time>
    </trkpt>
    <trkpt lat="56.404594" lon="60.753078">
        <ele>285.4</ele>
        <time>1970-01-01T09:05:35.145Z</time>
    </trkpt>
    <trkpt lat="56.404556" lon="60.753071">
        <ele>285.4</ele>
        <time>1970-01-01T09:05:36.145Z</time>
    </trkpt>
    <trkpt lat="56.404541" lon="60.753063">
        <ele>285.4</ele>
        <time>1970-01-01T09:05:37.145Z</time>
    </trkpt>
    <trkpt lat="56.404504" lon="60.753051">
        <ele>285.4</ele>
        <time>1970-01-01T09:05:38.145Z</time>
    </trkpt>
    <trkpt lat="56.404493" lon="60.753053">
        <ele>284.4</ele>
        <time>1970-01-01T09:05:39.145Z</time>
    </trkpt>
    <trkpt lat="56.404461" lon="60.753047">
        <ele>284.4</ele>
        <time>1970-01-01T09:05:40.145Z</time>
    </trkpt>
    <trkpt lat="56.40443" lon="60.753043">
        <ele>284.4</ele>
        <time>1970-01-01T09:05:41.145Z</time>
    </trkpt>
    <trkpt lat="56.404394" lon="60.753042">
        <ele>284.4</ele>
        <time>1970-01-01T09:05:42.145Z</time>
    </trkpt>
    <trkpt lat="56.404384" lon="60.753043">
        <ele>284.4</ele>
        <time>1970-01-01T09:05:43.145Z</time>
    </trkpt>
    <trkpt lat="56.404353" lon="60.753034">
        <ele>284.4</ele>
        <time>1970-01-01T09:05:44.145Z</time>
    </trkpt>
    <trkpt lat="56.40434" lon="60.753033">
        <ele>284.4</ele>
        <time>1970-01-01T09:05:45.145Z</time>
    </trkpt>
    <trkpt lat="56.404306" lon="60.753024">
        <ele>284.4</ele>
        <time>1970-01-01T09:05:46.145Z</time>
    </trkpt>
    <trkpt lat="56.404277" lon="60.753028">
        <ele>284.4</ele>
        <time>1970-01-01T09:05:47.145Z</time>
    </trkpt>
    <trkpt lat="56.40425" lon="60.753019">
        <ele>283.4</ele>
        <time>1970-01-01T09:05:48.145Z</time>
    </trkpt>
    <trkpt lat="56.404239" lon="60.753018">
        <ele>283.4</ele>
        <time>1970-01-01T09:05:49.145Z</time>
    </trkpt>
    <trkpt lat="56.404214" lon="60.753011">
        <ele>283.4</ele>
        <time>1970-01-01T09:05:50.145Z</time>
    </trkpt>
    <trkpt lat="56.404187" lon="60.753">
        <ele>283.4</ele>
        <time>1970-01-01T09:05:51.145Z</time>
    </trkpt>
    <trkpt lat="56.404156" lon="60.752991">
        <ele>283.4</ele>
        <time>1970-01-01T09:05:52.145Z</time>
    </trkpt>
    <trkpt lat="56.404139" lon="60.752992">
        <ele>283.4</ele>
        <time>1970-01-01T09:05:53.145Z</time>
    </trkpt>
    <trkpt lat="56.404126" lon="60.753001">
        <ele>283.4</ele>
        <time>1970-01-01T09:05:54.145Z</time>
    </trkpt>
    <trkpt lat="56.404115" lon="60.752992">
        <ele>283.4</ele>
        <time>1970-01-01T09:05:55.145Z</time>
    </trkpt>
    <trkpt lat="56.404085" lon="60.752977">
        <ele>283.4</ele>
        <time>1970-01-01T09:05:57.145Z</time>
    </trkpt>
    <trkpt lat="56.404076" lon="60.752976">
        <ele>283.4</ele>
        <time>1970-01-01T09:05:58.145Z</time>
    </trkpt>
    <trkpt lat="56.404043" lon="60.752966">
        <ele>283.4</ele>
        <time>1970-01-01T09:05:59.145Z</time>
    </trkpt>
    <trkpt lat="56.404028" lon="60.752965">
        <ele>283.4</ele>
        <time>1970-01-01T09:06:00.145Z</time>
    </trkpt>
    <trkpt lat="56.403999" lon="60.752961">
        <ele>282.4</ele>
        <time>1970-01-01T09:06:01.145Z</time>
    </trkpt>
    <trkpt lat="56.403983" lon="60.752959">
        <ele>282.4</ele>
        <time>1970-01-01T09:06:02.145Z</time>
    </trkpt>
    <trkpt lat="56.403966" lon="60.752949">
        <ele>282.4</ele>
        <time>1970-01-01T09:06:03.145Z</time>
    </trkpt>
    <trkpt lat="56.403954" lon="60.752946">
        <ele>282.4</ele>
        <time>1970-01-01T09:06:04.145Z</time>
    </trkpt>
    <trkpt lat="56.403923" lon="60.752937">
        <ele>282.4</ele>
        <time>1970-01-01T09:06:05.145Z</time>
    </trkpt>
    <trkpt lat="56.403912" lon="60.752933">
        <ele>282.4</ele>
        <time>1970-01-01T09:06:06.145Z</time>
    </trkpt>
    <trkpt lat="56.403885" lon="60.752938">
        <ele>282.4</ele>
        <time>1970-01-01T09:06:07.145Z</time>
    </trkpt>
    <trkpt lat="56.403875" lon="60.752938">
        <ele>282.4</ele>
        <time>1970-01-01T09:06:08.145Z</time>
    </trkpt>
    <trkpt lat="56.403848" lon="60.752933">
        <ele>282.4</ele>
        <time>1970-01-01T09:06:09.145Z</time>
    </trkpt>
    <trkpt lat="56.403834" lon="60.752932">
        <ele>282.4</ele>
        <time>1970-01-01T09:06:10.145Z</time>
    </trkpt>
    <trkpt lat="56.403799" lon="60.752931">
        <ele>282.4</ele>
        <time>1970-01-01T09:06:11.145Z</time>
    </trkpt>
    <trkpt lat="56.403788" lon="60.752928">
        <ele>282.4</ele>
        <time>1970-01-01T09:06:12.145Z</time>
    </trkpt>
    <trkpt lat="56.403753" lon="60.752909">
        <ele>282.4</ele>
        <time>1970-01-01T09:06:13.145Z</time>
    </trkpt>
    <trkpt lat="56.403742" lon="60.752903">
        <ele>282.4</ele>
        <time>1970-01-01T09:06:14.145Z</time>
    </trkpt>
    <trkpt lat="56.403705" lon="60.752895">
        <ele>281.4</ele>
        <time>1970-01-01T09:06:15.145Z</time>
    </trkpt>
    <trkpt lat="56.403692" lon="60.75289">
        <ele>281.4</ele>
        <time>1970-01-01T09:06:16.145Z</time>
    </trkpt>
    <trkpt lat="56.403678" lon="60.752896">
        <ele>281.4</ele>
        <time>1970-01-01T09:06:17.145Z</time>
    </trkpt>
    <trkpt lat="56.403665" lon="60.752893">
        <ele>281.4</ele>
        <time>1970-01-01T09:06:18.145Z</time>
    </trkpt>
    <trkpt lat="56.403632" lon="60.752878">
        <ele>281.4</ele>
        <time>1970-01-01T09:06:19.145Z</time>
    </trkpt>
    <trkpt lat="56.40361" lon="60.75288">
        <ele>281.4</ele>
        <time>1970-01-01T09:06:20.145Z</time>
    </trkpt>
    <trkpt lat="56.403599" lon="60.752883">
        <ele>281.4</ele>
        <time>1970-01-01T09:06:21.145Z</time>
    </trkpt>
    <trkpt lat="56.403583" lon="60.752876">
        <ele>281.4</ele>
        <time>1970-01-01T09:06:22.145Z</time>
    </trkpt>
    <trkpt lat="56.403551" lon="60.752862">
        <ele>281.4</ele>
        <time>1970-01-01T09:06:23.145Z</time>
    </trkpt>
    <trkpt lat="56.403542" lon="60.752858">
        <ele>281.4</ele>
        <time>1970-01-01T09:06:24.145Z</time>
    </trkpt>
    <trkpt lat="56.403513" lon="60.752841">
        <ele>280.4</ele>
        <time>1970-01-01T09:06:25.145Z</time>
    </trkpt>
    <trkpt lat="56.403504" lon="60.752841">
        <ele>280.4</ele>
        <time>1970-01-01T09:06:26.145Z</time>
    </trkpt>
    <trkpt lat="56.403471" lon="60.75284">
        <ele>280.4</ele>
        <time>1970-01-01T09:06:27.145Z</time>
    </trkpt>
    <trkpt lat="56.403463" lon="60.752839">
        <ele>280.4</ele>
        <time>1970-01-01T09:06:28.145Z</time>
    </trkpt>
    <trkpt lat="56.403435" lon="60.752841">
        <ele>280.4</ele>
        <time>1970-01-01T09:06:29.145Z</time>
    </trkpt>
    <trkpt lat="56.40341" lon="60.752834">
        <ele>280.4</ele>
        <time>1970-01-01T09:06:30.145Z</time>
    </trkpt>
    <trkpt lat="56.403399" lon="60.752839">
        <ele>280.4</ele>
        <time>1970-01-01T09:06:31.145Z</time>
    </trkpt>
    <trkpt lat="56.403391" lon="60.752834">
        <ele>280.4</ele>
        <time>1970-01-01T09:06:32.145Z</time>
    </trkpt>
    <trkpt lat="56.403362" lon="60.752822">
        <ele>280.4</ele>
        <time>1970-01-01T09:06:33.145Z</time>
    </trkpt>
    <trkpt lat="56.403353" lon="60.752818">
        <ele>280.4</ele>
        <time>1970-01-01T09:06:34.145Z</time>
    </trkpt>
    <trkpt lat="56.403321" lon="60.752813">
        <ele>280.4</ele>
        <time>1970-01-01T09:06:35.145Z</time>
    </trkpt>
    <trkpt lat="56.403307" lon="60.752814">
        <ele>280.4</ele>
        <time>1970-01-01T09:06:36.145Z</time>
    </trkpt>
    <trkpt lat="56.403276" lon="60.752813">
        <ele>280.4</ele>
        <time>1970-01-01T09:06:37.145Z</time>
    </trkpt>
    <trkpt lat="56.403229" lon="60.752802">
        <ele>280.4</ele>
        <time>1970-01-01T09:06:38.145Z</time>
    </trkpt>
    <trkpt lat="56.403218" lon="60.752794">
        <ele>280.4</ele>
        <time>1970-01-01T09:06:39.145Z</time>
    </trkpt>
    <trkpt lat="56.403183" lon="60.752778">
        <ele>280.4</ele>
        <time>1970-01-01T09:06:40.145Z</time>
    </trkpt>
    <trkpt lat="56.403172" lon="60.752775">
        <ele>280.4</ele>
        <time>1970-01-01T09:06:41.145Z</time>
    </trkpt>
    <trkpt lat="56.403147" lon="60.752768">
        <ele>280.4</ele>
        <time>1970-01-01T09:06:42.145Z</time>
    </trkpt>
    <trkpt lat="56.403136" lon="60.752761">
        <ele>280.4</ele>
        <time>1970-01-01T09:06:43.145Z</time>
    </trkpt>
    <trkpt lat="56.403108" lon="60.752737">
        <ele>280.4</ele>
        <time>1970-01-01T09:06:44.145Z</time>
    </trkpt>
    <trkpt lat="56.403099" lon="60.752728">
        <ele>280.4</ele>
        <time>1970-01-01T09:06:45.145Z</time>
    </trkpt>
    <trkpt lat="56.403065" lon="60.752704">
        <ele>280.4</ele>
        <time>1970-01-01T09:06:46.145Z</time>
    </trkpt>
    <trkpt lat="56.40306" lon="60.752698">
        <ele>280.4</ele>
        <time>1970-01-01T09:06:47.145Z</time>
    </trkpt>
    <trkpt lat="56.403031" lon="60.752682">
        <ele>280.4</ele>
        <time>1970-01-01T09:06:48.145Z</time>
    </trkpt>
    <trkpt lat="56.403021" lon="60.752677">
        <ele>280.4</ele>
        <time>1970-01-01T09:06:49.145Z</time>
    </trkpt>
    <trkpt lat="56.402993" lon="60.752662">
        <ele>280.4</ele>
        <time>1970-01-01T09:06:50.145Z</time>
    </trkpt>
    <trkpt lat="56.402983" lon="60.752665">
        <ele>280.4</ele>
        <time>1970-01-01T09:06:51.145Z</time>
    </trkpt>
    <trkpt lat="56.402949" lon="60.75266">
        <ele>280.4</ele>
        <time>1970-01-01T09:06:52.145Z</time>
    </trkpt>
    <trkpt lat="56.402938" lon="60.752656">
        <ele>280.4</ele>
        <time>1970-01-01T09:06:53.145Z</time>
    </trkpt>
    <trkpt lat="56.402907" lon="60.752647">
        <ele>280.4</ele>
        <time>1970-01-01T09:06:54.145Z</time>
    </trkpt>
    <trkpt lat="56.402898" lon="60.752643">
        <ele>280.4</ele>
        <time>1970-01-01T09:06:55.145Z</time>
    </trkpt>
    <trkpt lat="56.402865" lon="60.75263">
        <ele>280.4</ele>
        <time>1970-01-01T09:06:56.145Z</time>
    </trkpt>
    <trkpt lat="56.402857" lon="60.752621">
        <ele>280.4</ele>
        <time>1970-01-01T09:06:57.145Z</time>
    </trkpt>
    <trkpt lat="56.402833" lon="60.7526">
        <ele>280.4</ele>
        <time>1970-01-01T09:06:58.145Z</time>
    </trkpt>
    <trkpt lat="56.402819" lon="60.752591">
        <ele>280.4</ele>
        <time>1970-01-01T09:06:59.145Z</time>
    </trkpt>
    <trkpt lat="56.402807" lon="60.752578">
        <ele>280.4</ele>
        <time>1970-01-01T09:07:00.145Z</time>
    </trkpt>
    <trkpt lat="56.402798" lon="60.752571">
        <ele>280.4</ele>
        <time>1970-01-01T09:07:01.145Z</time>
    </trkpt>
    <trkpt lat="56.402766" lon="60.752566">
        <ele>279.4</ele>
        <time>1970-01-01T09:07:02.145Z</time>
    </trkpt>
    <trkpt lat="56.402752" lon="60.752566">
        <ele>279.4</ele>
        <time>1970-01-01T09:07:03.145Z</time>
    </trkpt>
    <trkpt lat="56.402737" lon="60.752566">
        <ele>279.4</ele>
        <time>1970-01-01T09:07:04.145Z</time>
    </trkpt>
    <trkpt lat="56.402716" lon="60.752559">
        <ele>279.4</ele>
        <time>1970-01-01T09:07:05.145Z</time>
    </trkpt>
    <trkpt lat="56.402701" lon="60.752554">
        <ele>279.4</ele>
        <time>1970-01-01T09:07:06.145Z</time>
    </trkpt>
    <trkpt lat="56.402661" lon="60.752544">
        <ele>279.4</ele>
        <time>1970-01-01T09:07:07.145Z</time>
    </trkpt>
    <trkpt lat="56.40265" lon="60.752542">
        <ele>279.4</ele>
        <time>1970-01-01T09:07:08.145Z</time>
    </trkpt>
    <trkpt lat="56.402621" lon="60.75255">
        <ele>279.4</ele>
        <time>1970-01-01T09:07:09.145Z</time>
    </trkpt>
    <trkpt lat="56.402607" lon="60.752555">
        <ele>279.4</ele>
        <time>1970-01-01T09:07:10.145Z</time>
    </trkpt>
    <trkpt lat="56.402594" lon="60.752551">
        <ele>278.4</ele>
        <time>1970-01-01T09:07:11.145Z</time>
    </trkpt>
    <trkpt lat="56.402573" lon="60.752562">
        <ele>278.4</ele>
        <time>1970-01-01T09:07:12.145Z</time>
    </trkpt>
    <trkpt lat="56.40256" lon="60.752563">
        <ele>278.4</ele>
        <time>1970-01-01T09:07:13.145Z</time>
    </trkpt>
    <trkpt lat="56.402545" lon="60.752562">
        <ele>278.4</ele>
        <time>1970-01-01T09:07:14.145Z</time>
    </trkpt>
    <trkpt lat="56.40253" lon="60.752564">
        <ele>278.4</ele>
        <time>1970-01-01T09:07:15.145Z</time>
    </trkpt>
    <trkpt lat="56.402516" lon="60.752567">
        <ele>278.4</ele>
        <time>1970-01-01T09:07:16.145Z</time>
    </trkpt>
    <trkpt lat="56.402501" lon="60.75257">
        <ele>277.4</ele>
        <time>1970-01-01T09:07:17.145Z</time>
    </trkpt>
    <trkpt lat="56.402476" lon="60.752571">
        <ele>277.4</ele>
        <time>1970-01-01T09:07:18.145Z</time>
    </trkpt>
    <trkpt lat="56.402467" lon="60.75257">
        <ele>277.4</ele>
        <time>1970-01-01T09:07:19.145Z</time>
    </trkpt>
    <trkpt lat="56.40244" lon="60.752564">
        <ele>277.4</ele>
        <time>1970-01-01T09:07:20.145Z</time>
    </trkpt>
    <trkpt lat="56.402427" lon="60.752565">
        <ele>277.4</ele>
        <time>1970-01-01T09:07:21.145Z</time>
    </trkpt>
    <trkpt lat="56.402397" lon="60.752558">
        <ele>276.4</ele>
        <time>1970-01-01T09:07:22.145Z</time>
    </trkpt>
    <trkpt lat="56.402389" lon="60.752556">
        <ele>276.4</ele>
        <time>1970-01-01T09:07:23.145Z</time>
    </trkpt>
    <trkpt lat="56.402359" lon="60.752548">
        <ele>276.4</ele>
        <time>1970-01-01T09:07:24.145Z</time>
    </trkpt>
    <trkpt lat="56.402351" lon="60.752547">
        <ele>276.4</ele>
        <time>1970-01-01T09:07:25.145Z</time>
    </trkpt>
    <trkpt lat="56.402321" lon="60.75254">
        <ele>276.4</ele>
        <time>1970-01-01T09:07:26.145Z</time>
    </trkpt>
    <trkpt lat="56.402311" lon="60.75254">
        <ele>275.4</ele>
        <time>1970-01-01T09:07:27.145Z</time>
    </trkpt>
    <trkpt lat="56.402279" lon="60.752534">
        <ele>275.4</ele>
        <time>1970-01-01T09:07:28.145Z</time>
    </trkpt>
    <trkpt lat="56.40226" lon="60.752537">
        <ele>275.4</ele>
        <time>1970-01-01T09:07:29.145Z</time>
    </trkpt>
    <trkpt lat="56.402244" lon="60.752542">
        <ele>275.4</ele>
        <time>1970-01-01T09:07:30.145Z</time>
    </trkpt>
    <trkpt lat="56.402231" lon="60.752552">
        <ele>275.4</ele>
        <time>1970-01-01T09:07:31.145Z</time>
    </trkpt>
    <trkpt lat="56.402214" lon="60.752569">
        <ele>274.4</ele>
        <time>1970-01-01T09:07:32.145Z</time>
    </trkpt>
    <trkpt lat="56.40226" lon="60.752815">
        <ele>275.4</ele>
        <time>1970-01-01T09:08:57.145Z</time>
    </trkpt>
    <trkpt lat="56.402258" lon="60.752828">
        <ele>275.4</ele>
        <time>1970-01-01T09:08:58.145Z</time>
    </trkpt>
    <trkpt lat="56.402256" lon="60.752842">
        <ele>275.4</ele>
        <time>1970-01-01T09:08:59.145Z</time>
    </trkpt>
    <trkpt lat="56.402251" lon="60.752854">
        <ele>275.4</ele>
        <time>1970-01-01T09:09:00.145Z</time>
    </trkpt>
    <trkpt lat="56.402247" lon="60.752865">
        <ele>275.4</ele>
        <time>1970-01-01T09:09:01.145Z</time>
    </trkpt>
    <trkpt lat="56.402243" lon="60.752877">
        <ele>275.4</ele>
        <time>1970-01-01T09:09:02.145Z</time>
    </trkpt>
    <trkpt lat="56.402238" lon="60.752889">
        <ele>275.4</ele>
        <time>1970-01-01T09:09:03.145Z</time>
    </trkpt>
    <trkpt lat="56.402233" lon="60.752915">
        <ele>275.4</ele>
        <time>1970-01-01T09:09:04.145Z</time>
    </trkpt>
    <trkpt lat="56.40223" lon="60.75293">
        <ele>275.4</ele>
        <time>1970-01-01T09:09:05.145Z</time>
    </trkpt>
    <trkpt lat="56.402223" lon="60.752945">
        <ele>275.4</ele>
        <time>1970-01-01T09:09:06.145Z</time>
    </trkpt>
    <trkpt lat="56.40222" lon="60.752967">
        <ele>275.4</ele>
        <time>1970-01-01T09:09:07.145Z</time>
    </trkpt>
    <trkpt lat="56.402214" lon="60.752979">
        <ele>274.4</ele>
        <time>1970-01-01T09:09:08.145Z</time>
    </trkpt>
    <trkpt lat="56.402206" lon="60.75301">
        <ele>274.4</ele>
        <time>1970-01-01T09:09:09.145Z</time>
    </trkpt>
    <trkpt lat="56.402202" lon="60.753032">
        <ele>274.4</ele>
        <time>1970-01-01T09:09:10.145Z</time>
    </trkpt>
    <trkpt lat="56.402195" lon="60.753083">
        <ele>274.4</ele>
        <time>1970-01-01T09:09:11.145Z</time>
    </trkpt>
    <trkpt lat="56.402189" lon="60.753115">
        <ele>274.4</ele>
        <time>1970-01-01T09:09:12.145Z</time>
    </trkpt>
    <trkpt lat="56.402186" lon="60.753144">
        <ele>274.4</ele>
        <time>1970-01-01T09:09:13.145Z</time>
    </trkpt>
    <trkpt lat="56.402181" lon="60.75316">
        <ele>274.4</ele>
        <time>1970-01-01T09:09:14.145Z</time>
    </trkpt>
    <trkpt lat="56.402161" lon="60.753206">
        <ele>274.4</ele>
        <time>1970-01-01T09:09:15.145Z</time>
    </trkpt>
    <trkpt lat="56.402159" lon="60.753225">
        <ele>274.4</ele>
        <time>1970-01-01T09:09:16.145Z</time>
    </trkpt>
    <trkpt lat="56.402149" lon="60.753279">
        <ele>274.4</ele>
        <time>1970-01-01T09:09:17.145Z</time>
    </trkpt>
    <trkpt lat="56.402146" lon="60.753303">
        <ele>274.4</ele>
        <time>1970-01-01T09:09:18.145Z</time>
    </trkpt>
    <trkpt lat="56.402133" lon="60.753359">
        <ele>274.4</ele>
        <time>1970-01-01T09:09:19.145Z</time>
    </trkpt>
    <trkpt lat="56.402128" lon="60.753372">
        <ele>274.4</ele>
        <time>1970-01-01T09:09:20.145Z</time>
    </trkpt>
    <trkpt lat="56.402114" lon="60.75343">
        <ele>273.4</ele>
        <time>1970-01-01T09:09:21.145Z</time>
    </trkpt>
    <trkpt lat="56.402107" lon="60.753451">
        <ele>273.4</ele>
        <time>1970-01-01T09:09:22.145Z</time>
    </trkpt>
    <trkpt lat="56.402097" lon="60.753503">
        <ele>273.4</ele>
        <time>1970-01-01T09:09:23.145Z</time>
    </trkpt>
    <trkpt lat="56.402099" lon="60.753516">
        <ele>273.4</ele>
        <time>1970-01-01T09:09:24.145Z</time>
    </trkpt>
    <trkpt lat="56.402101" lon="60.753571">
        <ele>273.4</ele>
        <time>1970-01-01T09:09:25.145Z</time>
    </trkpt>
    <trkpt lat="56.402103" lon="60.753587">
        <ele>273.4</ele>
        <time>1970-01-01T09:09:26.145Z</time>
    </trkpt>
    <trkpt lat="56.402105" lon="60.753648">
        <ele>273.4</ele>
        <time>1970-01-01T09:09:27.145Z</time>
    </trkpt>
    <trkpt lat="56.402108" lon="60.753668">
        <ele>273.4</ele>
        <time>1970-01-01T09:09:28.145Z</time>
    </trkpt>
    <trkpt lat="56.402098" lon="60.753728">
        <ele>272.4</ele>
        <time>1970-01-01T09:09:29.145Z</time>
    </trkpt>
    <trkpt lat="56.402099" lon="60.753777">
        <ele>272.4</ele>
        <time>1970-01-01T09:09:30.145Z</time>
    </trkpt>
    <trkpt lat="56.4021" lon="60.753795">
        <ele>272.4</ele>
        <time>1970-01-01T09:09:31.145Z</time>
    </trkpt>
    <trkpt lat="56.402105" lon="60.753854">
        <ele>272.4</ele>
        <time>1970-01-01T09:09:32.145Z</time>
    </trkpt>
    <trkpt lat="56.402111" lon="60.753913">
        <ele>272.4</ele>
        <time>1970-01-01T09:09:33.145Z</time>
    </trkpt>
    <trkpt lat="56.402109" lon="60.753933">
        <ele>272.4</ele>
        <time>1970-01-01T09:09:34.145Z</time>
    </trkpt>
    <trkpt lat="56.402103" lon="60.753988">
        <ele>272.4</ele>
        <time>1970-01-01T09:09:35.145Z</time>
    </trkpt>
    <trkpt lat="56.402113" lon="60.754016">
        <ele>272.4</ele>
        <time>1970-01-01T09:09:36.145Z</time>
    </trkpt>
    <trkpt lat="56.402108" lon="60.754047">
        <ele>272.4</ele>
        <time>1970-01-01T09:09:37.145Z</time>
    </trkpt>
    <trkpt lat="56.4021" lon="60.754102">
        <ele>271.4</ele>
        <time>1970-01-01T09:09:38.145Z</time>
    </trkpt>
    <trkpt lat="56.402096" lon="60.754139">
        <ele>271.4</ele>
        <time>1970-01-01T09:09:39.145Z</time>
    </trkpt>
    <trkpt lat="56.402094" lon="60.754165">
        <ele>271.4</ele>
        <time>1970-01-01T09:09:40.145Z</time>
    </trkpt>
    <trkpt lat="56.402091" lon="60.754185">
        <ele>271.4</ele>
        <time>1970-01-01T09:09:41.145Z</time>
    </trkpt>
    <trkpt lat="56.402084" lon="60.754229">
        <ele>271.4</ele>
        <time>1970-01-01T09:09:42.145Z</time>
    </trkpt>
    <trkpt lat="56.402083" lon="60.754247">
        <ele>271.4</ele>
        <time>1970-01-01T09:09:43.145Z</time>
    </trkpt>
    <trkpt lat="56.402081" lon="60.754296">
        <ele>271.4</ele>
        <time>1970-01-01T09:09:44.145Z</time>
    </trkpt>
    <trkpt lat="56.402075" lon="60.754327">
        <ele>271.4</ele>
        <time>1970-01-01T09:09:45.145Z</time>
    </trkpt>
    <trkpt lat="56.402075" lon="60.754355">
        <ele>271.4</ele>
        <time>1970-01-01T09:09:46.145Z</time>
    </trkpt>
    <trkpt lat="56.402073" lon="60.754378">
        <ele>271.4</ele>
        <time>1970-01-01T09:09:47.145Z</time>
    </trkpt>
    <trkpt lat="56.402065" lon="60.75441">
        <ele>271.4</ele>
        <time>1970-01-01T09:09:48.145Z</time>
    </trkpt>
    <trkpt lat="56.402061" lon="60.754425">
        <ele>271.4</ele>
        <time>1970-01-01T09:09:49.145Z</time>
    </trkpt>
    <trkpt lat="56.402048" lon="60.754468">
        <ele>271.4</ele>
        <time>1970-01-01T09:09:50.145Z</time>
    </trkpt>
    <trkpt lat="56.402045" lon="60.754486">
        <ele>271.4</ele>
        <time>1970-01-01T09:09:51.145Z</time>
    </trkpt>
    <trkpt lat="56.402036" lon="60.754531">
        <ele>271.4</ele>
        <time>1970-01-01T09:09:52.145Z</time>
    </trkpt>
    <trkpt lat="56.402031" lon="60.754554">
        <ele>271.4</ele>
        <time>1970-01-01T09:09:53.145Z</time>
    </trkpt>
    <trkpt lat="56.402023" lon="60.754585">
        <ele>270.4</ele>
        <time>1970-01-01T09:09:54.145Z</time>
    </trkpt>
    <trkpt lat="56.402018" lon="60.754598">
        <ele>270.4</ele>
        <time>1970-01-01T09:09:55.145Z</time>
    </trkpt>
    <trkpt lat="56.402008" lon="60.754649">
        <ele>270.4</ele>
        <time>1970-01-01T09:09:56.145Z</time>
    </trkpt>
    <trkpt lat="56.402006" lon="60.754699">
        <ele>270.4</ele>
        <time>1970-01-01T09:09:57.145Z</time>
    </trkpt>
    <trkpt lat="56.402006" lon="60.754719">
        <ele>270.4</ele>
        <time>1970-01-01T09:09:58.145Z</time>
    </trkpt>
    <trkpt lat="56.402015" lon="60.754767">
        <ele>270.4</ele>
        <time>1970-01-01T09:09:59.145Z</time>
    </trkpt>
    <trkpt lat="56.402016" lon="60.754799">
        <ele>270.4</ele>
        <time>1970-01-01T09:10:00.145Z</time>
    </trkpt>
    <trkpt lat="56.402012" lon="60.754827">
        <ele>270.4</ele>
        <time>1970-01-01T09:10:01.145Z</time>
    </trkpt>
    <trkpt lat="56.402009" lon="60.754847">
        <ele>270.4</ele>
        <time>1970-01-01T09:10:02.145Z</time>
    </trkpt>
    <trkpt lat="56.402005" lon="60.754905">
        <ele>270.4</ele>
        <time>1970-01-01T09:10:03.145Z</time>
    </trkpt>
    <trkpt lat="56.402008" lon="60.754938">
        <ele>270.4</ele>
        <time>1970-01-01T09:10:04.145Z</time>
    </trkpt>
    <trkpt lat="56.402004" lon="60.754969">
        <ele>270.4</ele>
        <time>1970-01-01T09:10:05.145Z</time>
    </trkpt>
    <trkpt lat="56.402003" lon="60.754994">
        <ele>270.4</ele>
        <time>1970-01-01T09:10:06.145Z</time>
    </trkpt>
    <trkpt lat="56.401998" lon="60.755023">
        <ele>270.4</ele>
        <time>1970-01-01T09:10:07.145Z</time>
    </trkpt>
    <trkpt lat="56.402" lon="60.755061">
        <ele>270.4</ele>
        <time>1970-01-01T09:10:09.145Z</time>
    </trkpt>
    <trkpt lat="56.402007" lon="60.75509">
        <ele>270.4</ele>
        <time>1970-01-01T09:10:10.145Z</time>
    </trkpt>
    <trkpt lat="56.402004" lon="60.75511">
        <ele>270.4</ele>
        <time>1970-01-01T09:10:11.145Z</time>
    </trkpt>
    <trkpt lat="56.402003" lon="60.755164">
        <ele>270.4</ele>
        <time>1970-01-01T09:10:12.145Z</time>
    </trkpt>
    <trkpt lat="56.402002" lon="60.755187">
        <ele>270.4</ele>
        <time>1970-01-01T09:10:13.145Z</time>
    </trkpt>
    <trkpt lat="56.401998" lon="60.75524">
        <ele>270.4</ele>
        <time>1970-01-01T09:10:14.145Z</time>
    </trkpt>
    <trkpt lat="56.401994" lon="60.755251">
        <ele>270.4</ele>
        <time>1970-01-01T09:10:15.145Z</time>
    </trkpt>
    <trkpt lat="56.401986" lon="60.755301">
        <ele>270.4</ele>
        <time>1970-01-01T09:10:16.145Z</time>
    </trkpt>
    <trkpt lat="56.401987" lon="60.755327">
        <ele>270.4</ele>
        <time>1970-01-01T09:10:17.145Z</time>
    </trkpt>
    <trkpt lat="56.401984" lon="60.755392">
        <ele>270.4</ele>
        <time>1970-01-01T09:10:18.145Z</time>
    </trkpt>
    <trkpt lat="56.401983" lon="60.755416">
        <ele>270.4</ele>
        <time>1970-01-01T09:10:19.145Z</time>
    </trkpt>
    <trkpt lat="56.401979" lon="60.755464">
        <ele>270.4</ele>
        <time>1970-01-01T09:10:20.145Z</time>
    </trkpt>
    <trkpt lat="56.401973" lon="60.75549">
        <ele>270.4</ele>
        <time>1970-01-01T09:10:21.145Z</time>
    </trkpt>
    <trkpt lat="56.40197" lon="60.755515">
        <ele>270.4</ele>
        <time>1970-01-01T09:10:22.145Z</time>
    </trkpt>
    <trkpt lat="56.401965" lon="60.755548">
        <ele>270.4</ele>
        <time>1970-01-01T09:10:23.145Z</time>
    </trkpt>
    <trkpt lat="56.401967" lon="60.755563">
        <ele>270.4</ele>
        <time>1970-01-01T09:10:24.145Z</time>
    </trkpt>
    <trkpt lat="56.401962" lon="60.755595">
        <ele>270.4</ele>
        <time>1970-01-01T09:10:25.145Z</time>
    </trkpt>
    <trkpt lat="56.401954" lon="60.75562">
        <ele>270.4</ele>
        <time>1970-01-01T09:10:26.145Z</time>
    </trkpt>
    <trkpt lat="56.401951" lon="60.755639">
        <ele>270.4</ele>
        <time>1970-01-01T09:10:27.145Z</time>
    </trkpt>
    <trkpt lat="56.401945" lon="60.755686">
        <ele>270.4</ele>
        <time>1970-01-01T09:10:28.145Z</time>
    </trkpt>
    <trkpt lat="56.401938" lon="60.755718">
        <ele>270.4</ele>
        <time>1970-01-01T09:10:29.145Z</time>
    </trkpt>
    <trkpt lat="56.40193" lon="60.755741">
        <ele>270.4</ele>
        <time>1970-01-01T09:10:30.145Z</time>
    </trkpt>
    <trkpt lat="56.401926" lon="60.755759">
        <ele>270.4</ele>
        <time>1970-01-01T09:10:31.145Z</time>
    </trkpt>
    <trkpt lat="56.401916" lon="60.755791">
        <ele>270.4</ele>
        <time>1970-01-01T09:10:32.145Z</time>
    </trkpt>
    <trkpt lat="56.401913" lon="60.755812">
        <ele>270.4</ele>
        <time>1970-01-01T09:10:33.145Z</time>
    </trkpt>
    <trkpt lat="56.401908" lon="60.755859">
        <ele>270.4</ele>
        <time>1970-01-01T09:10:34.145Z</time>
    </trkpt>
    <trkpt lat="56.401903" lon="60.755883">
        <ele>270.4</ele>
        <time>1970-01-01T09:10:35.145Z</time>
    </trkpt>
    <trkpt lat="56.401909" lon="60.755918">
        <ele>270.4</ele>
        <time>1970-01-01T09:10:36.145Z</time>
    </trkpt>
    <trkpt lat="56.401911" lon="60.755937">
        <ele>270.4</ele>
        <time>1970-01-01T09:10:37.145Z</time>
    </trkpt>
    <trkpt lat="56.401923" lon="60.755987">
        <ele>269.4</ele>
        <time>1970-01-01T09:10:38.145Z</time>
    </trkpt>
    <trkpt lat="56.40193" lon="60.756001">
        <ele>269.4</ele>
        <time>1970-01-01T09:10:39.145Z</time>
    </trkpt>
    <trkpt lat="56.401944" lon="60.756047">
        <ele>270.4</ele>
        <time>1970-01-01T09:10:40.145Z</time>
    </trkpt>
    <trkpt lat="56.40195" lon="60.756076">
        <ele>270.4</ele>
        <time>1970-01-01T09:10:41.145Z</time>
    </trkpt>
    <trkpt lat="56.401954" lon="60.756108">
        <ele>270.4</ele>
        <time>1970-01-01T09:10:42.145Z</time>
    </trkpt>
    <trkpt lat="56.401957" lon="60.756124">
        <ele>270.4</ele>
        <time>1970-01-01T09:10:43.145Z</time>
    </trkpt>
    <trkpt lat="56.401969" lon="60.75617">
        <ele>270.4</ele>
        <time>1970-01-01T09:10:44.145Z</time>
    </trkpt>
    <trkpt lat="56.401971" lon="60.756198">
        <ele>270.4</ele>
        <time>1970-01-01T09:10:45.145Z</time>
    </trkpt>
    <trkpt lat="56.401978" lon="60.756228">
        <ele>270.4</ele>
        <time>1970-01-01T09:10:46.145Z</time>
    </trkpt>
    <trkpt lat="56.401979" lon="60.756249">
        <ele>270.4</ele>
        <time>1970-01-01T09:10:47.145Z</time>
    </trkpt>
    <trkpt lat="56.40198" lon="60.75627">
        <ele>270.4</ele>
        <time>1970-01-01T09:10:48.145Z</time>
    </trkpt>
    <trkpt lat="56.401979" lon="60.756302">
        <ele>270.4</ele>
        <time>1970-01-01T09:10:49.145Z</time>
    </trkpt>
    <trkpt lat="56.401974" lon="60.756323">
        <ele>270.4</ele>
        <time>1970-01-01T09:10:50.145Z</time>
    </trkpt>
    <trkpt lat="56.401968" lon="60.756366">
        <ele>270.4</ele>
        <time>1970-01-01T09:10:51.145Z</time>
    </trkpt>
    <trkpt lat="56.401968" lon="60.756383">
        <ele>270.4</ele>
        <time>1970-01-01T09:10:52.145Z</time>
    </trkpt>
    <trkpt lat="56.401968" lon="60.7564">
        <ele>270.4</ele>
        <time>1970-01-01T09:10:53.145Z</time>
    </trkpt>
    <trkpt lat="56.401972" lon="60.756431">
        <ele>270.4</ele>
        <time>1970-01-01T09:10:54.145Z</time>
    </trkpt>
    <trkpt lat="56.401979" lon="60.756441">
        <ele>270.4</ele>
        <time>1970-01-01T09:10:55.145Z</time>
    </trkpt>
    <trkpt lat="56.401986" lon="60.756451">
        <ele>270.4</ele>
        <time>1970-01-01T09:10:56.145Z</time>
    </trkpt>
    <trkpt lat="56.401997" lon="60.75648">
        <ele>270.4</ele>
        <time>1970-01-01T09:10:57.145Z</time>
    </trkpt>
    <trkpt lat="56.402" lon="60.7565">
        <ele>270.4</ele>
        <time>1970-01-01T09:10:58.145Z</time>
    </trkpt>
    <trkpt lat="56.402004" lon="60.756519">
        <ele>270.4</ele>
        <time>1970-01-01T09:10:59.145Z</time>
    </trkpt>
    <trkpt lat="56.402014" lon="60.756549">
        <ele>270.4</ele>
        <time>1970-01-01T09:11:00.145Z</time>
    </trkpt>
    <trkpt lat="56.402028" lon="60.756563">
        <ele>270.4</ele>
        <time>1970-01-01T09:11:01.145Z</time>
    </trkpt>
    <trkpt lat="56.402038" lon="60.756578">
        <ele>271.4</ele>
        <time>1970-01-01T09:11:02.145Z</time>
    </trkpt>
    <trkpt lat="56.402047" lon="60.756584">
        <ele>271.4</ele>
        <time>1970-01-01T09:11:03.145Z</time>
    </trkpt>
    <trkpt lat="56.402068" lon="60.75659">
        <ele>271.4</ele>
        <time>1970-01-01T09:11:04.145Z</time>
    </trkpt>
    <trkpt lat="56.402071" lon="60.7566">
        <ele>271.4</ele>
        <time>1970-01-01T09:11:05.145Z</time>
    </trkpt>
    <trkpt lat="56.402074" lon="60.756611">
        <ele>271.4</ele>
        <time>1970-01-01T09:11:06.145Z</time>
    </trkpt>
    <trkpt lat="56.402077" lon="60.756621">
        <ele>271.4</ele>
        <time>1970-01-01T09:11:07.145Z</time>
    </trkpt>
    <trkpt lat="56.402081" lon="60.756632">
        <ele>271.4</ele>
        <time>1970-01-01T09:11:08.145Z</time>
    </trkpt>
    <trkpt lat="56.402084" lon="60.756642">
        <ele>271.4</ele>
        <time>1970-01-01T09:11:09.145Z</time>
    </trkpt>
    <trkpt lat="56.402087" lon="60.756653">
        <ele>271.4</ele>
        <time>1970-01-01T09:11:10.145Z</time>
    </trkpt>
    <trkpt lat="56.402091" lon="60.756663">
        <ele>271.4</ele>
        <time>1970-01-01T09:11:11.145Z</time>
    </trkpt>
    <trkpt lat="56.402094" lon="60.756674">
        <ele>271.4</ele>
        <time>1970-01-01T09:11:12.145Z</time>
    </trkpt>
    <trkpt lat="56.402097" lon="60.756684">
        <ele>271.4</ele>
        <time>1970-01-01T09:11:13.145Z</time>
    </trkpt>
    <trkpt lat="56.4021" lon="60.756695">
        <ele>271.4</ele>
        <time>1970-01-01T09:11:14.145Z</time>
    </trkpt>
    <trkpt lat="56.402104" lon="60.756705">
        <ele>271.4</ele>
        <time>1970-01-01T09:12:18.145Z</time>
    </trkpt>
    <trkpt lat="56.402107" lon="60.756716">
        <ele>271.4</ele>
        <time>1970-01-01T09:12:19.145Z</time>
    </trkpt>
    <trkpt lat="56.40211" lon="60.756726">
        <ele>271.4</ele>
        <time>1970-01-01T09:12:20.145Z</time>
    </trkpt>
    <trkpt lat="56.402114" lon="60.756737">
        <ele>271.4</ele>
        <time>1970-01-01T09:12:21.145Z</time>
    </trkpt>
    <trkpt lat="56.402117" lon="60.756747">
        <ele>271.4</ele>
        <time>1970-01-01T09:12:22.145Z</time>
    </trkpt>
    <trkpt lat="56.40212" lon="60.756758">
        <ele>271.4</ele>
        <time>1970-01-01T09:12:23.145Z</time>
    </trkpt>
    <trkpt lat="56.402119" lon="60.756779">
        <ele>271.4</ele>
        <time>1970-01-01T09:12:24.145Z</time>
    </trkpt>
    <trkpt lat="56.402116" lon="60.756787">
        <ele>271.4</ele>
        <time>1970-01-01T09:12:25.145Z</time>
    </trkpt>
    <trkpt lat="56.402114" lon="60.7568">
        <ele>271.4</ele>
        <time>1970-01-01T09:12:26.145Z</time>
    </trkpt>
    <trkpt lat="56.402112" lon="60.756814">
        <ele>271.4</ele>
        <time>1970-01-01T09:12:27.145Z</time>
    </trkpt>
    <trkpt lat="56.402111" lon="60.756834">
        <ele>271.4</ele>
        <time>1970-01-01T09:12:28.145Z</time>
    </trkpt>
    <trkpt lat="56.40211" lon="60.756851">
        <ele>271.4</ele>
        <time>1970-01-01T09:12:29.145Z</time>
    </trkpt>
    <trkpt lat="56.402111" lon="60.756882">
        <ele>271.4</ele>
        <time>1970-01-01T09:12:30.145Z</time>
    </trkpt>
    <trkpt lat="56.402112" lon="60.756909">
        <ele>271.4</ele>
        <time>1970-01-01T09:12:31.145Z</time>
    </trkpt>
    <trkpt lat="56.402113" lon="60.756946">
        <ele>271.4</ele>
        <time>1970-01-01T09:12:32.145Z</time>
    </trkpt>
    <trkpt lat="56.402107" lon="60.756964">
        <ele>271.4</ele>
        <time>1970-01-01T09:12:33.145Z</time>
    </trkpt>
    <trkpt lat="56.402102" lon="60.757024">
        <ele>270.4</ele>
        <time>1970-01-01T09:12:34.145Z</time>
    </trkpt>
    <trkpt lat="56.4021" lon="60.757045">
        <ele>270.4</ele>
        <time>1970-01-01T09:12:35.145Z</time>
    </trkpt>
    <trkpt lat="56.402093" lon="60.757111">
        <ele>270.4</ele>
        <time>1970-01-01T09:12:36.145Z</time>
    </trkpt>
    <trkpt lat="56.402101" lon="60.757159">
        <ele>270.4</ele>
        <time>1970-01-01T09:12:37.145Z</time>
    </trkpt>
    <trkpt lat="56.402113" lon="60.757206">
        <ele>270.4</ele>
        <time>1970-01-01T09:12:38.145Z</time>
    </trkpt>
    <trkpt lat="56.402113" lon="60.757235">
        <ele>270.4</ele>
        <time>1970-01-01T09:12:39.145Z</time>
    </trkpt>
    <trkpt lat="56.402115" lon="60.757299">
        <ele>270.4</ele>
        <time>1970-01-01T09:12:40.145Z</time>
    </trkpt>
    <trkpt lat="56.402116" lon="60.757317">
        <ele>269.4</ele>
        <time>1970-01-01T09:12:41.145Z</time>
    </trkpt>
    <trkpt lat="56.402114" lon="60.757372">
        <ele>269.4</ele>
        <time>1970-01-01T09:12:42.145Z</time>
    </trkpt>
    <trkpt lat="56.402112" lon="60.757399">
        <ele>269.4</ele>
        <time>1970-01-01T09:12:43.145Z</time>
    </trkpt>
    <trkpt lat="56.402105" lon="60.757424">
        <ele>269.4</ele>
        <time>1970-01-01T09:12:44.145Z</time>
    </trkpt>
    <trkpt lat="56.402102" lon="60.757441">
        <ele>269.4</ele>
        <time>1970-01-01T09:12:45.145Z</time>
    </trkpt>
    <trkpt lat="56.402089" lon="60.757489">
        <ele>269.4</ele>
        <time>1970-01-01T09:12:46.145Z</time>
    </trkpt>
    <trkpt lat="56.402087" lon="60.757508">
        <ele>269.4</ele>
        <time>1970-01-01T09:12:47.145Z</time>
    </trkpt>
    <trkpt lat="56.402088" lon="60.757571">
        <ele>269.4</ele>
        <time>1970-01-01T09:12:48.145Z</time>
    </trkpt>
    <trkpt lat="56.402081" lon="60.757594">
        <ele>269.4</ele>
        <time>1970-01-01T09:12:49.145Z</time>
    </trkpt>
    <trkpt lat="56.40207" lon="60.75766">
        <ele>269.4</ele>
        <time>1970-01-01T09:12:50.145Z</time>
    </trkpt>
    <trkpt lat="56.402071" lon="60.757681">
        <ele>269.4</ele>
        <time>1970-01-01T09:12:51.145Z</time>
    </trkpt>
    <trkpt lat="56.402072" lon="60.757725">
        <ele>269.4</ele>
        <time>1970-01-01T09:12:52.145Z</time>
    </trkpt>
    <trkpt lat="56.402072" lon="60.757745">
        <ele>269.4</ele>
        <time>1970-01-01T09:12:53.145Z</time>
    </trkpt>
    <trkpt lat="56.402075" lon="60.757808">
        <ele>269.4</ele>
        <time>1970-01-01T09:12:54.145Z</time>
    </trkpt>
    <trkpt lat="56.402072" lon="60.757825">
        <ele>269.4</ele>
        <time>1970-01-01T09:12:55.145Z</time>
    </trkpt>
    <trkpt lat="56.402063" lon="60.757875">
        <ele>269.4</ele>
        <time>1970-01-01T09:12:56.145Z</time>
    </trkpt>
    <trkpt lat="56.402062" lon="60.757893">
        <ele>269.4</ele>
        <time>1970-01-01T09:12:57.145Z</time>
    </trkpt>
    <trkpt lat="56.402056" lon="60.75795">
        <ele>269.4</ele>
        <time>1970-01-01T09:12:58.145Z</time>
    </trkpt>
    <trkpt lat="56.402054" lon="60.757968">
        <ele>269.4</ele>
        <time>1970-01-01T09:12:59.145Z</time>
    </trkpt>
    <trkpt lat="56.402044" lon="60.758024">
        <ele>269.4</ele>
        <time>1970-01-01T09:13:00.145Z</time>
    </trkpt>
    <trkpt lat="56.40204" lon="60.758039">
        <ele>269.4</ele>
        <time>1970-01-01T09:13:01.145Z</time>
    </trkpt>
    <trkpt lat="56.402029" lon="60.75809">
        <ele>268.4</ele>
        <time>1970-01-01T09:13:02.145Z</time>
    </trkpt>
    <trkpt lat="56.402028" lon="60.758118">
        <ele>268.4</ele>
        <time>1970-01-01T09:13:03.145Z</time>
    </trkpt>
    <trkpt lat="56.402016" lon="60.758146">
        <ele>268.4</ele>
        <time>1970-01-01T09:13:04.145Z</time>
    </trkpt>
    <trkpt lat="56.402009" lon="60.758161">
        <ele>268.4</ele>
        <time>1970-01-01T09:13:05.145Z</time>
    </trkpt>
    <trkpt lat="56.40199" lon="60.758206">
        <ele>268.4</ele>
        <time>1970-01-01T09:13:06.145Z</time>
    </trkpt>
    <trkpt lat="56.401985" lon="60.758221">
        <ele>268.4</ele>
        <time>1970-01-01T09:13:07.145Z</time>
    </trkpt>
    <trkpt lat="56.401966" lon="60.758268">
        <ele>268.4</ele>
        <time>1970-01-01T09:13:08.145Z</time>
    </trkpt>
    <trkpt lat="56.401962" lon="60.758297">
        <ele>268.4</ele>
        <time>1970-01-01T09:13:09.145Z</time>
    </trkpt>
    <trkpt lat="56.401958" lon="60.758325">
        <ele>268.4</ele>
        <time>1970-01-01T09:13:10.145Z</time>
    </trkpt>
    <trkpt lat="56.401955" lon="60.758358">
        <ele>268.4</ele>
        <time>1970-01-01T09:13:11.145Z</time>
    </trkpt>
    <trkpt lat="56.401952" lon="60.758386">
        <ele>268.4</ele>
        <time>1970-01-01T09:13:12.145Z</time>
    </trkpt>
    <trkpt lat="56.401948" lon="60.758403">
        <ele>268.4</ele>
        <time>1970-01-01T09:13:13.145Z</time>
    </trkpt>
    <trkpt lat="56.401936" lon="60.758447">
        <ele>268.4</ele>
        <time>1970-01-01T09:13:14.145Z</time>
    </trkpt>
    <trkpt lat="56.401925" lon="60.758473">
        <ele>267.4</ele>
        <time>1970-01-01T09:13:15.145Z</time>
    </trkpt>
    <trkpt lat="56.40192" lon="60.758493">
        <ele>267.4</ele>
        <time>1970-01-01T09:13:16.145Z</time>
    </trkpt>
    <trkpt lat="56.40191" lon="60.758518">
        <ele>267.4</ele>
        <time>1970-01-01T09:13:18.145Z</time>
    </trkpt>
    <trkpt lat="56.401901" lon="60.758533">
        <ele>267.4</ele>
        <time>1970-01-01T09:13:19.145Z</time>
    </trkpt>
    <trkpt lat="56.401897" lon="60.758525">
        <ele>267.4</ele>
        <time>1970-01-01T09:13:20.145Z</time>
    </trkpt>
    <trkpt lat="56.401899" lon="60.758529">
        <ele>267.4</ele>
        <time>1970-01-01T09:13:21.145Z</time>
    </trkpt>
    <trkpt lat="56.401899" lon="60.758529">
        <ele>267.4</ele>
        <time>1970-01-01T09:13:22.145Z</time>
    </trkpt>
    <trkpt lat="56.401899" lon="60.758529">
        <ele>267.4</ele>
        <time>1970-01-01T09:13:23.145Z</time>
    </trkpt>
    <trkpt lat="56.401899" lon="60.758529">
        <ele>267.4</ele>
        <time>1970-01-01T09:13:24.145Z</time>
    </trkpt>
    <trkpt lat="56.401893" lon="60.758535">
        <ele>267.4</ele>
        <time>1970-01-01T09:13:25.145Z</time>
    </trkpt>
    <trkpt lat="56.401888" lon="60.758543">
        <ele>267.4</ele>
        <time>1970-01-01T09:13:26.145Z</time>
    </trkpt>
    <trkpt lat="56.401888" lon="60.758542">
        <ele>267.4</ele>
        <time>1970-01-01T09:13:27.145Z</time>
    </trkpt>
    <trkpt lat="56.401895" lon="60.758536">
        <ele>267.4</ele>
        <time>1970-01-01T09:13:28.145Z</time>
    </trkpt>
    <trkpt lat="56.40185" lon="60.758647">
        <ele>267.4</ele>
        <time>1970-01-01T09:14:36.145Z</time>
    </trkpt>
    <trkpt lat="56.40185" lon="60.758647">
        <ele>267.4</ele>
        <time>1970-01-01T09:14:37.145Z</time>
    </trkpt>
    <trkpt lat="56.401841" lon="60.758644">
        <ele>267.4</ele>
        <time>1970-01-01T09:14:38.145Z</time>
    </trkpt>
    <trkpt lat="56.401838" lon="60.758647">
        <ele>266.4</ele>
        <time>1970-01-01T09:14:39.145Z</time>
    </trkpt>
    <trkpt lat="56.401833" lon="60.758647">
        <ele>266.4</ele>
        <time>1970-01-01T09:14:40.145Z</time>
    </trkpt>
    <trkpt lat="56.40183" lon="60.758653">
        <ele>266.4</ele>
        <time>1970-01-01T09:14:41.145Z</time>
    </trkpt>
    <trkpt lat="56.401827" lon="60.758656">
        <ele>266.4</ele>
        <time>1970-01-01T09:14:42.145Z</time>
    </trkpt>
    <trkpt lat="56.401819" lon="60.758657">
        <ele>266.4</ele>
        <time>1970-01-01T09:14:43.145Z</time>
    </trkpt>
    <trkpt lat="56.401811" lon="60.758659">
        <ele>266.4</ele>
        <time>1970-01-01T09:14:44.145Z</time>
    </trkpt>
    <trkpt lat="56.401804" lon="60.758662">
        <ele>266.4</ele>
        <time>1970-01-01T09:14:45.145Z</time>
    </trkpt>
    <trkpt lat="56.401802" lon="60.758662">
        <ele>266.4</ele>
        <time>1970-01-01T09:14:46.145Z</time>
    </trkpt>
    <trkpt lat="56.401804" lon="60.758659">
        <ele>266.4</ele>
        <time>1970-01-01T09:14:47.145Z</time>
    </trkpt>
    <trkpt lat="56.401798" lon="60.758668">
        <ele>266.4</ele>
        <time>1970-01-01T09:14:48.145Z</time>
    </trkpt>
    <trkpt lat="56.401791" lon="60.758677">
        <ele>266.4</ele>
        <time>1970-01-01T09:14:49.145Z</time>
    </trkpt>
    <trkpt lat="56.401775" lon="60.758698">
        <ele>266.4</ele>
        <time>1970-01-01T09:14:50.145Z</time>
    </trkpt>
    <trkpt lat="56.401759" lon="60.758713">
        <ele>266.4</ele>
        <time>1970-01-01T09:14:51.145Z</time>
    </trkpt>
    <trkpt lat="56.401749" lon="60.758738">
        <ele>266.4</ele>
        <time>1970-01-01T09:14:52.145Z</time>
    </trkpt>
    <trkpt lat="56.40174" lon="60.758752">
        <ele>265.4</ele>
        <time>1970-01-01T09:14:53.145Z</time>
    </trkpt>
    <trkpt lat="56.401726" lon="60.758777">
        <ele>265.4</ele>
        <time>1970-01-01T09:14:54.145Z</time>
    </trkpt>
    <trkpt lat="56.401713" lon="60.758784">
        <ele>265.4</ele>
        <time>1970-01-01T09:14:55.145Z</time>
    </trkpt>
    <trkpt lat="56.401691" lon="60.758814">
        <ele>265.4</ele>
        <time>1970-01-01T09:14:56.145Z</time>
    </trkpt>
    <trkpt lat="56.40168" lon="60.758838">
        <ele>265.4</ele>
        <time>1970-01-01T09:14:57.145Z</time>
    </trkpt>
    <trkpt lat="56.40167" lon="60.758853">
        <ele>265.4</ele>
        <time>1970-01-01T09:14:58.145Z</time>
    </trkpt>
    <trkpt lat="56.401662" lon="60.758872">
        <ele>266.4</ele>
        <time>1970-01-01T09:14:59.145Z</time>
    </trkpt>
    <trkpt lat="56.401639" lon="60.758917">
        <ele>265.4</ele>
        <time>1970-01-01T09:15:00.145Z</time>
    </trkpt>
    <trkpt lat="56.401634" lon="60.758927">
        <ele>265.4</ele>
        <time>1970-01-01T09:15:01.145Z</time>
    </trkpt>
    <trkpt lat="56.401613" lon="60.758962">
        <ele>265.4</ele>
        <time>1970-01-01T09:15:02.145Z</time>
    </trkpt>
    <trkpt lat="56.401601" lon="60.758988">
        <ele>265.4</ele>
        <time>1970-01-01T09:15:03.145Z</time>
    </trkpt>
    <trkpt lat="56.401587" lon="60.759021">
        <ele>265.4</ele>
        <time>1970-01-01T09:15:04.145Z</time>
    </trkpt>
    <trkpt lat="56.401566" lon="60.759084">
        <ele>265.4</ele>
        <time>1970-01-01T09:15:05.145Z</time>
    </trkpt>
    <trkpt lat="56.401559" lon="60.7591">
        <ele>265.4</ele>
        <time>1970-01-01T09:15:06.145Z</time>
    </trkpt>
    <trkpt lat="56.401542" lon="60.759144">
        <ele>264.4</ele>
        <time>1970-01-01T09:15:07.145Z</time>
    </trkpt>
    <trkpt lat="56.401533" lon="60.759155">
        <ele>264.4</ele>
        <time>1970-01-01T09:15:08.145Z</time>
    </trkpt>
    <trkpt lat="56.401507" lon="60.759196">
        <ele>264.4</ele>
        <time>1970-01-01T09:15:09.145Z</time>
    </trkpt>
    <trkpt lat="56.401494" lon="60.759206">
        <ele>265.4</ele>
        <time>1970-01-01T09:15:10.145Z</time>
    </trkpt>
    <trkpt lat="56.401466" lon="60.759253">
        <ele>265.4</ele>
        <time>1970-01-01T09:15:11.145Z</time>
    </trkpt>
    <trkpt lat="56.401441" lon="60.759275">
        <ele>264.4</ele>
        <time>1970-01-01T09:15:12.145Z</time>
    </trkpt>
    <trkpt lat="56.401416" lon="60.759313">
        <ele>264.4</ele>
        <time>1970-01-01T09:15:13.145Z</time>
    </trkpt>
    <trkpt lat="56.401403" lon="60.759328">
        <ele>264.4</ele>
        <time>1970-01-01T09:15:14.145Z</time>
    </trkpt>
    <trkpt lat="56.401369" lon="60.759366">
        <ele>264.4</ele>
        <time>1970-01-01T09:15:15.145Z</time>
    </trkpt>
    <trkpt lat="56.401359" lon="60.759383">
        <ele>263.4</ele>
        <time>1970-01-01T09:15:16.145Z</time>
    </trkpt>
    <trkpt lat="56.401334" lon="60.75942">
        <ele>263.4</ele>
        <time>1970-01-01T09:15:17.145Z</time>
    </trkpt>
    <trkpt lat="56.401329" lon="60.759436">
        <ele>263.4</ele>
        <time>1970-01-01T09:15:18.145Z</time>
    </trkpt>
    <trkpt lat="56.401308" lon="60.759481">
        <ele>263.4</ele>
        <time>1970-01-01T09:15:19.145Z</time>
    </trkpt>
    <trkpt lat="56.401302" lon="60.759493">
        <ele>263.4</ele>
        <time>1970-01-01T09:15:20.145Z</time>
    </trkpt>
    <trkpt lat="56.401282" lon="60.759541">
        <ele>263.4</ele>
        <time>1970-01-01T09:15:21.145Z</time>
    </trkpt>
    <trkpt lat="56.401274" lon="60.759555">
        <ele>263.4</ele>
        <time>1970-01-01T09:15:22.145Z</time>
    </trkpt>
    <trkpt lat="56.401259" lon="60.7596">
        <ele>262.4</ele>
        <time>1970-01-01T09:15:23.145Z</time>
    </trkpt>
    <trkpt lat="56.401252" lon="60.759613">
        <ele>262.4</ele>
        <time>1970-01-01T09:15:24.145Z</time>
    </trkpt>
    <trkpt lat="56.401228" lon="60.75965">
        <ele>262.4</ele>
        <time>1970-01-01T09:15:25.145Z</time>
    </trkpt>
    <trkpt lat="56.401223" lon="60.759666">
        <ele>262.4</ele>
        <time>1970-01-01T09:15:26.145Z</time>
    </trkpt>
    <trkpt lat="56.401206" lon="60.759711">
        <ele>262.4</ele>
        <time>1970-01-01T09:15:27.145Z</time>
    </trkpt>
    <trkpt lat="56.401199" lon="60.759734">
        <ele>263.4</ele>
        <time>1970-01-01T09:15:28.145Z</time>
    </trkpt>
    <trkpt lat="56.401183" lon="60.759785">
        <ele>263.4</ele>
        <time>1970-01-01T09:15:29.145Z</time>
    </trkpt>
    <trkpt lat="56.401177" lon="60.759798">
        <ele>263.4</ele>
        <time>1970-01-01T09:15:30.145Z</time>
    </trkpt>
    <trkpt lat="56.401159" lon="60.759839">
        <ele>262.4</ele>
        <time>1970-01-01T09:15:31.145Z</time>
    </trkpt>
    <trkpt lat="56.401154" lon="60.759857">
        <ele>262.4</ele>
        <time>1970-01-01T09:15:32.145Z</time>
    </trkpt>
    <trkpt lat="56.401141" lon="60.759908">
        <ele>262.4</ele>
        <time>1970-01-01T09:15:33.145Z</time>
    </trkpt>
    <trkpt lat="56.401135" lon="60.75994">
        <ele>262.4</ele>
        <time>1970-01-01T09:15:34.145Z</time>
    </trkpt>
    <trkpt lat="56.401132" lon="60.75997">
        <ele>262.4</ele>
        <time>1970-01-01T09:15:35.145Z</time>
    </trkpt>
    <trkpt lat="56.401129" lon="60.759985">
        <ele>262.4</ele>
        <time>1970-01-01T09:15:36.145Z</time>
    </trkpt>
    <trkpt lat="56.401118" lon="60.760037">
        <ele>262.4</ele>
        <time>1970-01-01T09:15:37.145Z</time>
    </trkpt>
    <trkpt lat="56.401115" lon="60.760049">
        <ele>262.4</ele>
        <time>1970-01-01T09:15:38.145Z</time>
    </trkpt>
    <trkpt lat="56.401109" lon="60.760101">
        <ele>262.4</ele>
        <time>1970-01-01T09:15:39.145Z</time>
    </trkpt>
    <trkpt lat="56.4011" lon="60.760149">
        <ele>262.4</ele>
        <time>1970-01-01T09:15:40.145Z</time>
    </trkpt>
    <trkpt lat="56.401094" lon="60.76017">
        <ele>262.4</ele>
        <time>1970-01-01T09:15:41.145Z</time>
    </trkpt>
    <trkpt lat="56.401085" lon="60.760233">
        <ele>263.4</ele>
        <time>1970-01-01T09:15:42.145Z</time>
    </trkpt>
    <trkpt lat="56.40108" lon="60.760252">
        <ele>263.4</ele>
        <time>1970-01-01T09:15:43.145Z</time>
    </trkpt>
    <trkpt lat="56.401082" lon="60.760308">
        <ele>263.4</ele>
        <time>1970-01-01T09:15:44.145Z</time>
    </trkpt>
    <trkpt lat="56.401079" lon="60.760328">
        <ele>261.4</ele>
        <time>1970-01-01T09:15:45.145Z</time>
    </trkpt>
    <trkpt lat="56.401064" lon="60.76038">
        <ele>261.4</ele>
        <time>1970-01-01T09:15:46.145Z</time>
    </trkpt>
    <trkpt lat="56.40106" lon="60.76041">
        <ele>262.4</ele>
        <time>1970-01-01T09:15:47.145Z</time>
    </trkpt>
    <trkpt lat="56.401058" lon="60.76046">
        <ele>262.4</ele>
        <time>1970-01-01T09:15:48.145Z</time>
    </trkpt>
    <trkpt lat="56.401056" lon="60.760487">
        <ele>262.4</ele>
        <time>1970-01-01T09:15:49.145Z</time>
    </trkpt>
    <trkpt lat="56.401045" lon="60.760534">
        <ele>262.4</ele>
        <time>1970-01-01T09:15:50.145Z</time>
    </trkpt>
    <trkpt lat="56.401046" lon="60.760554">
        <ele>262.4</ele>
        <time>1970-01-01T09:15:51.145Z</time>
    </trkpt>
    <trkpt lat="56.401045" lon="60.76061">
        <ele>262.4</ele>
        <time>1970-01-01T09:15:52.145Z</time>
    </trkpt>
    <trkpt lat="56.401041" lon="60.760636">
        <ele>262.4</ele>
        <time>1970-01-01T09:15:53.145Z</time>
    </trkpt>
    <trkpt lat="56.401027" lon="60.760706">
        <ele>262.4</ele>
        <time>1970-01-01T09:15:54.145Z</time>
    </trkpt>
    <trkpt lat="56.401022" lon="60.760727">
        <ele>262.4</ele>
        <time>1970-01-01T09:15:55.145Z</time>
    </trkpt>
    <trkpt lat="56.401008" lon="60.760786">
        <ele>262.4</ele>
        <time>1970-01-01T09:15:56.145Z</time>
    </trkpt>
    <trkpt lat="56.401005" lon="60.760805">
        <ele>262.4</ele>
        <time>1970-01-01T09:15:57.145Z</time>
    </trkpt>
    <trkpt lat="56.400994" lon="60.760867">
        <ele>262.4</ele>
        <time>1970-01-01T09:15:58.145Z</time>
    </trkpt>
    <trkpt lat="56.400987" lon="60.760885">
        <ele>262.4</ele>
        <time>1970-01-01T09:15:59.145Z</time>
    </trkpt>
    <trkpt lat="56.400974" lon="60.760948">
        <ele>261.4</ele>
        <time>1970-01-01T09:16:00.145Z</time>
    </trkpt>
    <trkpt lat="56.400973" lon="60.760966">
        <ele>261.4</ele>
        <time>1970-01-01T09:16:01.145Z</time>
    </trkpt>
    <trkpt lat="56.400967" lon="60.761027">
        <ele>261.4</ele>
        <time>1970-01-01T09:16:02.145Z</time>
    </trkpt>
    <trkpt lat="56.400944" lon="60.761073">
        <ele>261.4</ele>
        <time>1970-01-01T09:16:03.145Z</time>
    </trkpt>
    <trkpt lat="56.400946" lon="60.761089">
        <ele>261.4</ele>
        <time>1970-01-01T09:16:04.145Z</time>
    </trkpt>
    <trkpt lat="56.400945" lon="60.761145">
        <ele>262.4</ele>
        <time>1970-01-01T09:16:05.145Z</time>
    </trkpt>
    <trkpt lat="56.400943" lon="60.76117">
        <ele>262.4</ele>
        <time>1970-01-01T09:16:06.145Z</time>
    </trkpt>
    <trkpt lat="56.40094" lon="60.761228">
        <ele>262.4</ele>
        <time>1970-01-01T09:16:07.145Z</time>
    </trkpt>
    <trkpt lat="56.40094" lon="60.761244">
        <ele>262.4</ele>
        <time>1970-01-01T09:16:08.145Z</time>
    </trkpt>
    <trkpt lat="56.400932" lon="60.761292">
        <ele>262.4</ele>
        <time>1970-01-01T09:16:09.145Z</time>
    </trkpt>
    <trkpt lat="56.400929" lon="60.761308">
        <ele>262.4</ele>
        <time>1970-01-01T09:16:10.145Z</time>
    </trkpt>
    <trkpt lat="56.400926" lon="60.761371">
        <ele>262.4</ele>
        <time>1970-01-01T09:16:11.145Z</time>
    </trkpt>
    <trkpt lat="56.400926" lon="60.761392">
        <ele>262.4</ele>
        <time>1970-01-01T09:16:12.145Z</time>
    </trkpt>
    <trkpt lat="56.400924" lon="60.761451">
        <ele>262.4</ele>
        <time>1970-01-01T09:16:13.145Z</time>
    </trkpt>
    <trkpt lat="56.400925" lon="60.761473">
        <ele>262.4</ele>
        <time>1970-01-01T09:16:14.145Z</time>
    </trkpt>
    <trkpt lat="56.400938" lon="60.761532">
        <ele>262.4</ele>
        <time>1970-01-01T09:16:15.145Z</time>
    </trkpt>
    <trkpt lat="56.40095" lon="60.761581">
        <ele>262.4</ele>
        <time>1970-01-01T09:16:16.145Z</time>
    </trkpt>
    <trkpt lat="56.40095" lon="60.761603">
        <ele>262.4</ele>
        <time>1970-01-01T09:16:17.145Z</time>
    </trkpt>
    <trkpt lat="56.400957" lon="60.761659">
        <ele>262.4</ele>
        <time>1970-01-01T09:16:18.145Z</time>
    </trkpt>
    <trkpt lat="56.400958" lon="60.761682">
        <ele>262.4</ele>
        <time>1970-01-01T09:16:19.145Z</time>
    </trkpt>
    <trkpt lat="56.40096" lon="60.761752">
        <ele>262.4</ele>
        <time>1970-01-01T09:16:20.145Z</time>
    </trkpt>
    <trkpt lat="56.400964" lon="60.761776">
        <ele>262.4</ele>
        <time>1970-01-01T09:16:21.145Z</time>
    </trkpt>
    <trkpt lat="56.40097" lon="60.761839">
        <ele>262.4</ele>
        <time>1970-01-01T09:16:22.145Z</time>
    </trkpt>
    <trkpt lat="56.400969" lon="60.761859">
        <ele>262.4</ele>
        <time>1970-01-01T09:16:23.145Z</time>
    </trkpt>
    <trkpt lat="56.400974" lon="60.761922">
        <ele>262.4</ele>
        <time>1970-01-01T09:16:24.145Z</time>
    </trkpt>
    <trkpt lat="56.400975" lon="60.761947">
        <ele>262.4</ele>
        <time>1970-01-01T09:16:25.145Z</time>
    </trkpt>
    <trkpt lat="56.400979" lon="60.762016">
        <ele>263.4</ele>
        <time>1970-01-01T09:16:27.145Z</time>
    </trkpt>
    <trkpt lat="56.400978" lon="60.762042">
        <ele>263.4</ele>
        <time>1970-01-01T09:16:28.145Z</time>
    </trkpt>
    <trkpt lat="56.40097" lon="60.762108">
        <ele>263.4</ele>
        <time>1970-01-01T09:16:29.145Z</time>
    </trkpt>
    <trkpt lat="56.400971" lon="60.762129">
        <ele>263.4</ele>
        <time>1970-01-01T09:16:30.145Z</time>
    </trkpt>
    <trkpt lat="56.400969" lon="60.762187">
        <ele>263.4</ele>
        <time>1970-01-01T09:16:31.145Z</time>
    </trkpt>
    <trkpt lat="56.400957" lon="60.762237">
        <ele>263.4</ele>
        <time>1970-01-01T09:16:32.145Z</time>
    </trkpt>
    <trkpt lat="56.400967" lon="60.762283">
        <ele>263.4</ele>
        <time>1970-01-01T09:16:33.145Z</time>
    </trkpt>
    <trkpt lat="56.400957" lon="60.762346">
        <ele>264.4</ele>
        <time>1970-01-01T09:16:34.145Z</time>
    </trkpt>
    <trkpt lat="56.400948" lon="60.762401">
        <ele>264.4</ele>
        <time>1970-01-01T09:16:35.145Z</time>
    </trkpt>
    <trkpt lat="56.400944" lon="60.762455">
        <ele>264.4</ele>
        <time>1970-01-01T09:16:36.145Z</time>
    </trkpt>
    <trkpt lat="56.40094" lon="60.762513">
        <ele>264.4</ele>
        <time>1970-01-01T09:16:37.145Z</time>
    </trkpt>
    <trkpt lat="56.400935" lon="60.762534">
        <ele>264.4</ele>
        <time>1970-01-01T09:16:38.145Z</time>
    </trkpt>
    <trkpt lat="56.400929" lon="60.762603">
        <ele>264.4</ele>
        <time>1970-01-01T09:16:39.145Z</time>
    </trkpt>
    <trkpt lat="56.40093" lon="60.762631">
        <ele>264.4</ele>
        <time>1970-01-01T09:16:40.145Z</time>
    </trkpt>
    <trkpt lat="56.400925" lon="60.762704">
        <ele>264.4</ele>
        <time>1970-01-01T09:16:41.145Z</time>
    </trkpt>
    <trkpt lat="56.400923" lon="60.762727">
        <ele>264.4</ele>
        <time>1970-01-01T09:16:42.145Z</time>
    </trkpt>
    <trkpt lat="56.400913" lon="60.762792">
        <ele>264.4</ele>
        <time>1970-01-01T09:16:43.145Z</time>
    </trkpt>
    <trkpt lat="56.400908" lon="60.762862">
        <ele>265.4</ele>
        <time>1970-01-01T09:16:44.145Z</time>
    </trkpt>
    <trkpt lat="56.400909" lon="60.762913">
        <ele>265.4</ele>
        <time>1970-01-01T09:16:45.145Z</time>
    </trkpt>
    <trkpt lat="56.400918" lon="60.762966">
        <ele>265.4</ele>
        <time>1970-01-01T09:16:46.145Z</time>
    </trkpt>
    <trkpt lat="56.400915" lon="60.763017">
        <ele>265.4</ele>
        <time>1970-01-01T09:16:47.145Z</time>
    </trkpt>
    <trkpt lat="56.400911" lon="60.763047">
        <ele>265.4</ele>
        <time>1970-01-01T09:16:48.145Z</time>
    </trkpt>
    <trkpt lat="56.400898" lon="60.76311">
        <ele>265.4</ele>
        <time>1970-01-01T09:16:49.145Z</time>
    </trkpt>
    <trkpt lat="56.400895" lon="60.763138">
        <ele>265.4</ele>
        <time>1970-01-01T09:16:50.145Z</time>
    </trkpt>
    <trkpt lat="56.400891" lon="60.763203">
        <ele>265.4</ele>
        <time>1970-01-01T09:16:51.145Z</time>
    </trkpt>
    <trkpt lat="56.400889" lon="60.76327">
        <ele>264.4</ele>
        <time>1970-01-01T09:16:52.145Z</time>
    </trkpt>
    <trkpt lat="56.400889" lon="60.763337">
        <ele>264.4</ele>
        <time>1970-01-01T09:16:53.145Z</time>
    </trkpt>
    <trkpt lat="56.400877" lon="60.763384">
        <ele>264.4</ele>
        <time>1970-01-01T09:16:54.145Z</time>
    </trkpt>
    <trkpt lat="56.400871" lon="60.763433">
        <ele>264.4</ele>
        <time>1970-01-01T09:16:55.145Z</time>
    </trkpt>
    <trkpt lat="56.400868" lon="60.763465">
        <ele>264.4</ele>
        <time>1970-01-01T09:16:56.145Z</time>
    </trkpt>
    <trkpt lat="56.40087" lon="60.763537">
        <ele>265.4</ele>
        <time>1970-01-01T09:16:57.145Z</time>
    </trkpt>
    <trkpt lat="56.40087" lon="60.763559">
        <ele>265.4</ele>
        <time>1970-01-01T09:16:58.145Z</time>
    </trkpt>
    <trkpt lat="56.400869" lon="60.763615">
        <ele>265.4</ele>
        <time>1970-01-01T09:16:59.145Z</time>
    </trkpt>
    <trkpt lat="56.400868" lon="60.763679">
        <ele>265.4</ele>
        <time>1970-01-01T09:17:00.145Z</time>
    </trkpt>
    <trkpt lat="56.400871" lon="60.76371">
        <ele>265.4</ele>
        <time>1970-01-01T09:17:01.145Z</time>
    </trkpt>
    <trkpt lat="56.400871" lon="60.763782">
        <ele>265.4</ele>
        <time>1970-01-01T09:17:02.145Z</time>
    </trkpt>
    <trkpt lat="56.400865" lon="60.763834">
        <ele>265.4</ele>
        <time>1970-01-01T09:17:03.145Z</time>
    </trkpt>
    <trkpt lat="56.400863" lon="60.763848">
        <ele>265.4</ele>
        <time>1970-01-01T09:17:04.145Z</time>
    </trkpt>
    <trkpt lat="56.400858" lon="60.763908">
        <ele>265.4</ele>
        <time>1970-01-01T09:17:05.145Z</time>
    </trkpt>
    <trkpt lat="56.400856" lon="60.763932">
        <ele>265.4</ele>
        <time>1970-01-01T09:17:06.145Z</time>
    </trkpt>
    <trkpt lat="56.400852" lon="60.763996">
        <ele>265.4</ele>
        <time>1970-01-01T09:17:07.145Z</time>
    </trkpt>
    <trkpt lat="56.400853" lon="60.76402">
        <ele>265.4</ele>
        <time>1970-01-01T09:17:08.145Z</time>
    </trkpt>
    <trkpt lat="56.400856" lon="60.764084">
        <ele>265.4</ele>
        <time>1970-01-01T09:17:09.145Z</time>
    </trkpt>
    <trkpt lat="56.400853" lon="60.764136">
        <ele>265.4</ele>
        <time>1970-01-01T09:17:10.145Z</time>
    </trkpt>
    <trkpt lat="56.400854" lon="60.764187">
        <ele>266.4</ele>
        <time>1970-01-01T09:17:11.145Z</time>
    </trkpt>
    <trkpt lat="56.400852" lon="60.764204">
        <ele>266.4</ele>
        <time>1970-01-01T09:17:12.145Z</time>
    </trkpt>
    <trkpt lat="56.400846" lon="60.764257">
        <ele>266.4</ele>
        <time>1970-01-01T09:17:13.145Z</time>
    </trkpt>
    <trkpt lat="56.400846" lon="60.764273">
        <ele>266.4</ele>
        <time>1970-01-01T09:17:14.145Z</time>
    </trkpt>
    <trkpt lat="56.40085" lon="60.764327">
        <ele>266.4</ele>
        <time>1970-01-01T09:17:15.145Z</time>
    </trkpt>
    <trkpt lat="56.400848" lon="60.764346">
        <ele>266.4</ele>
        <time>1970-01-01T09:17:16.145Z</time>
    </trkpt>
    <trkpt lat="56.400843" lon="60.764397">
        <ele>266.4</ele>
        <time>1970-01-01T09:17:17.145Z</time>
    </trkpt>
    <trkpt lat="56.400842" lon="60.764409">
        <ele>266.4</ele>
        <time>1970-01-01T09:17:18.145Z</time>
    </trkpt>
    <trkpt lat="56.400838" lon="60.764463">
        <ele>266.4</ele>
        <time>1970-01-01T09:17:19.145Z</time>
    </trkpt>
    <trkpt lat="56.400837" lon="60.764481">
        <ele>266.4</ele>
        <time>1970-01-01T09:17:20.145Z</time>
    </trkpt>
    <trkpt lat="56.400831" lon="60.764541">
        <ele>267.4</ele>
        <time>1970-01-01T09:17:21.145Z</time>
    </trkpt>
    <trkpt lat="56.40083" lon="60.764554">
        <ele>267.4</ele>
        <time>1970-01-01T09:17:22.145Z</time>
    </trkpt>
    <trkpt lat="56.400818" lon="60.764605">
        <ele>267.4</ele>
        <time>1970-01-01T09:17:23.145Z</time>
    </trkpt>
    <trkpt lat="56.400819" lon="60.764628">
        <ele>267.4</ele>
        <time>1970-01-01T09:17:24.145Z</time>
    </trkpt>
    <trkpt lat="56.40082" lon="60.764673">
        <ele>267.4</ele>
        <time>1970-01-01T09:17:25.145Z</time>
    </trkpt>
    <trkpt lat="56.400815" lon="60.764754">
        <ele>267.4</ele>
        <time>1970-01-01T09:17:26.145Z</time>
    </trkpt>
    <trkpt lat="56.400813" lon="60.764787">
        <ele>267.4</ele>
        <time>1970-01-01T09:17:27.145Z</time>
    </trkpt>
    <trkpt lat="56.400818" lon="60.76481">
        <ele>267.4</ele>
        <time>1970-01-01T09:17:28.145Z</time>
    </trkpt>
    <trkpt lat="56.400824" lon="60.764834">
        <ele>267.4</ele>
        <time>1970-01-01T09:17:29.145Z</time>
    </trkpt>
    <trkpt lat="56.400831" lon="60.764869">
        <ele>268.4</ele>
        <time>1970-01-01T09:17:30.145Z</time>
    </trkpt>
    <trkpt lat="56.400836" lon="60.764896">
        <ele>268.4</ele>
        <time>1970-01-01T09:17:31.145Z</time>
    </trkpt>
    <trkpt lat="56.400836" lon="60.764927">
        <ele>268.4</ele>
        <time>1970-01-01T09:17:32.145Z</time>
    </trkpt>
    <trkpt lat="56.400826" lon="60.764944">
        <ele>268.4</ele>
        <time>1970-01-01T09:17:33.145Z</time>
    </trkpt>
    <trkpt lat="56.4008" lon="60.764983">
        <ele>268.4</ele>
        <time>1970-01-01T09:17:34.145Z</time>
    </trkpt>
    <trkpt lat="56.400796" lon="60.765">
        <ele>268.4</ele>
        <time>1970-01-01T09:17:35.145Z</time>
    </trkpt>
    <trkpt lat="56.400792" lon="60.765017">
        <ele>266.4</ele>
        <time>1970-01-01T09:17:36.145Z</time>
    </trkpt>
    <trkpt lat="56.400786" lon="60.765046">
        <ele>267.4</ele>
        <time>1970-01-01T09:17:37.145Z</time>
    </trkpt>
    <trkpt lat="56.400786" lon="60.765061">
        <ele>267.4</ele>
        <time>1970-01-01T09:17:38.145Z</time>
    </trkpt>
    <trkpt lat="56.400775" lon="60.765114">
        <ele>267.4</ele>
        <time>1970-01-01T09:17:39.145Z</time>
    </trkpt>
    <trkpt lat="56.400771" lon="60.765135">
        <ele>267.4</ele>
        <time>1970-01-01T09:17:40.145Z</time>
    </trkpt>
    <trkpt lat="56.400763" lon="60.765199">
        <ele>267.4</ele>
        <time>1970-01-01T09:17:41.145Z</time>
    </trkpt>
    <trkpt lat="56.400758" lon="60.765223">
        <ele>267.4</ele>
        <time>1970-01-01T09:17:42.145Z</time>
    </trkpt>
    <trkpt lat="56.400752" lon="60.765252">
        <ele>267.4</ele>
        <time>1970-01-01T09:17:43.145Z</time>
    </trkpt>
    <trkpt lat="56.400754" lon="60.765272">
        <ele>267.4</ele>
        <time>1970-01-01T09:17:44.145Z</time>
    </trkpt>
    <trkpt lat="56.400746" lon="60.765329">
        <ele>267.4</ele>
        <time>1970-01-01T09:17:45.145Z</time>
    </trkpt>
    <trkpt lat="56.400744" lon="60.765348">
        <ele>267.4</ele>
        <time>1970-01-01T09:17:46.145Z</time>
    </trkpt>
    <trkpt lat="56.400734" lon="60.7654">
        <ele>267.4</ele>
        <time>1970-01-01T09:17:47.145Z</time>
    </trkpt>
    <trkpt lat="56.40073" lon="60.765429">
        <ele>267.4</ele>
        <time>1970-01-01T09:17:48.145Z</time>
    </trkpt>
    <trkpt lat="56.400729" lon="60.765493">
        <ele>267.4</ele>
        <time>1970-01-01T09:17:49.145Z</time>
    </trkpt>
    <trkpt lat="56.40073" lon="60.765547">
        <ele>267.4</ele>
        <time>1970-01-01T09:17:50.145Z</time>
    </trkpt>
    <trkpt lat="56.400725" lon="60.765596">
        <ele>267.4</ele>
        <time>1970-01-01T09:17:51.145Z</time>
    </trkpt>
    <trkpt lat="56.400728" lon="60.765647">
        <ele>267.4</ele>
        <time>1970-01-01T09:17:52.145Z</time>
    </trkpt>
    <trkpt lat="56.400726" lon="60.765666">
        <ele>267.4</ele>
        <time>1970-01-01T09:17:53.145Z</time>
    </trkpt>
    <trkpt lat="56.400721" lon="60.765722">
        <ele>267.4</ele>
        <time>1970-01-01T09:17:54.145Z</time>
    </trkpt>
    <trkpt lat="56.400721" lon="60.76575">
        <ele>267.4</ele>
        <time>1970-01-01T09:17:55.145Z</time>
    </trkpt>
    <trkpt lat="56.400718" lon="60.765818">
        <ele>267.4</ele>
        <time>1970-01-01T09:17:56.145Z</time>
    </trkpt>
    <trkpt lat="56.400709" lon="60.765839">
        <ele>267.4</ele>
        <time>1970-01-01T09:17:57.145Z</time>
    </trkpt>
    <trkpt lat="56.400696" lon="60.765895">
        <ele>266.4</ele>
        <time>1970-01-01T09:17:58.145Z</time>
    </trkpt>
    <trkpt lat="56.400695" lon="60.765917">
        <ele>266.4</ele>
        <time>1970-01-01T09:17:59.145Z</time>
    </trkpt>
    <trkpt lat="56.400688" lon="60.765972">
        <ele>266.4</ele>
        <time>1970-01-01T09:18:00.145Z</time>
    </trkpt>
    <trkpt lat="56.400688" lon="60.765994">
        <ele>266.4</ele>
        <time>1970-01-01T09:18:01.145Z</time>
    </trkpt>
    <trkpt lat="56.400682" lon="60.766058">
        <ele>266.4</ele>
        <time>1970-01-01T09:18:02.145Z</time>
    </trkpt>
    <trkpt lat="56.400671" lon="60.766102">
        <ele>265.4</ele>
        <time>1970-01-01T09:18:03.145Z</time>
    </trkpt>
    <trkpt lat="56.400666" lon="60.766156">
        <ele>265.4</ele>
        <time>1970-01-01T09:18:04.145Z</time>
    </trkpt>
    <trkpt lat="56.400658" lon="60.766203">
        <ele>265.4</ele>
        <time>1970-01-01T09:18:05.145Z</time>
    </trkpt>
    <trkpt lat="56.400641" lon="60.766249">
        <ele>265.4</ele>
        <time>1970-01-01T09:18:06.145Z</time>
    </trkpt>
    <trkpt lat="56.400629" lon="60.766299">
        <ele>265.4</ele>
        <time>1970-01-01T09:18:07.145Z</time>
    </trkpt>
    <trkpt lat="56.400619" lon="60.766354">
        <ele>265.4</ele>
        <time>1970-01-01T09:18:08.145Z</time>
    </trkpt>
    <trkpt lat="56.400617" lon="60.766384">
        <ele>265.4</ele>
        <time>1970-01-01T09:18:09.145Z</time>
    </trkpt>
    <trkpt lat="56.400612" lon="60.766456">
        <ele>265.4</ele>
        <time>1970-01-01T09:18:10.145Z</time>
    </trkpt>
    <trkpt lat="56.400611" lon="60.766479">
        <ele>265.4</ele>
        <time>1970-01-01T09:18:11.145Z</time>
    </trkpt>
    <trkpt lat="56.400603" lon="60.766537">
        <ele>264.4</ele>
        <time>1970-01-01T09:18:12.145Z</time>
    </trkpt>
    <trkpt lat="56.400602" lon="60.766562">
        <ele>264.4</ele>
        <time>1970-01-01T09:18:13.145Z</time>
    </trkpt>
    <trkpt lat="56.400601" lon="60.766623">
        <ele>264.4</ele>
        <time>1970-01-01T09:18:14.145Z</time>
    </trkpt>
    <trkpt lat="56.400597" lon="60.766653">
        <ele>264.4</ele>
        <time>1970-01-01T09:18:15.145Z</time>
    </trkpt>
    <trkpt lat="56.400598" lon="60.766721">
        <ele>264.4</ele>
        <time>1970-01-01T09:18:16.145Z</time>
    </trkpt>
    <trkpt lat="56.400603" lon="60.766744">
        <ele>264.4</ele>
        <time>1970-01-01T09:18:17.145Z</time>
    </trkpt>
    <trkpt lat="56.400603" lon="60.766809">
        <ele>264.4</ele>
        <time>1970-01-01T09:18:18.145Z</time>
    </trkpt>
    <trkpt lat="56.40059" lon="60.76686">
        <ele>264.4</ele>
        <time>1970-01-01T09:18:19.145Z</time>
    </trkpt>
    <trkpt lat="56.400603" lon="60.766909">
        <ele>264.4</ele>
        <time>1970-01-01T09:18:20.145Z</time>
    </trkpt>
    <trkpt lat="56.400591" lon="60.766959">
        <ele>264.4</ele>
        <time>1970-01-01T09:18:21.145Z</time>
    </trkpt>
    <trkpt lat="56.400591" lon="60.766981">
        <ele>264.4</ele>
        <time>1970-01-01T09:18:22.145Z</time>
    </trkpt>
    <trkpt lat="56.400596" lon="60.767037">
        <ele>264.4</ele>
        <time>1970-01-01T09:18:23.145Z</time>
    </trkpt>
    <trkpt lat="56.400593" lon="60.767094">
        <ele>264.4</ele>
        <time>1970-01-01T09:18:24.145Z</time>
    </trkpt>
    <trkpt lat="56.400595" lon="60.767125">
        <ele>264.4</ele>
        <time>1970-01-01T09:18:25.145Z</time>
    </trkpt>
    <trkpt lat="56.400592" lon="60.767196">
        <ele>264.4</ele>
        <time>1970-01-01T09:18:26.145Z</time>
    </trkpt>
    <trkpt lat="56.400594" lon="60.767215">
        <ele>264.4</ele>
        <time>1970-01-01T09:18:27.145Z</time>
    </trkpt>
    <trkpt lat="56.400594" lon="60.76728">
        <ele>264.4</ele>
        <time>1970-01-01T09:18:28.145Z</time>
    </trkpt>
    <trkpt lat="56.40059" lon="60.767303">
        <ele>264.4</ele>
        <time>1970-01-01T09:18:29.145Z</time>
    </trkpt>
    <trkpt lat="56.400581" lon="60.767354">
        <ele>264.4</ele>
        <time>1970-01-01T09:18:30.145Z</time>
    </trkpt>
    <trkpt lat="56.400582" lon="60.767375">
        <ele>264.4</ele>
        <time>1970-01-01T09:18:31.145Z</time>
    </trkpt>
    <trkpt lat="56.400581" lon="60.767438">
        <ele>264.4</ele>
        <time>1970-01-01T09:18:33.145Z</time>
    </trkpt>
    <trkpt lat="56.400575" lon="60.767487">
        <ele>264.4</ele>
        <time>1970-01-01T09:18:34.145Z</time>
    </trkpt>
    <trkpt lat="56.400573" lon="60.76751">
        <ele>264.4</ele>
        <time>1970-01-01T09:18:35.145Z</time>
    </trkpt>
    <trkpt lat="56.400569" lon="60.767566">
        <ele>264.4</ele>
        <time>1970-01-01T09:18:36.145Z</time>
    </trkpt>
    <trkpt lat="56.400566" lon="60.767616">
        <ele>264.4</ele>
        <time>1970-01-01T09:18:37.145Z</time>
    </trkpt>
    <trkpt lat="56.400562" lon="60.767639">
        <ele>264.4</ele>
        <time>1970-01-01T09:18:38.145Z</time>
    </trkpt>
    <trkpt lat="56.400565" lon="60.76768">
        <ele>264.4</ele>
        <time>1970-01-01T09:18:39.145Z</time>
    </trkpt>
    <trkpt lat="56.400574" lon="60.767727">
        <ele>264.4</ele>
        <time>1970-01-01T09:18:40.145Z</time>
    </trkpt>
    <trkpt lat="56.40057" lon="60.767755">
        <ele>264.4</ele>
        <time>1970-01-01T09:18:41.145Z</time>
    </trkpt>
    <trkpt lat="56.400563" lon="60.767805">
        <ele>264.4</ele>
        <time>1970-01-01T09:18:42.145Z</time>
    </trkpt>
    <trkpt lat="56.400546" lon="60.767849">
        <ele>264.4</ele>
        <time>1970-01-01T09:18:43.145Z</time>
    </trkpt>
    <trkpt lat="56.400541" lon="60.7679">
        <ele>264.4</ele>
        <time>1970-01-01T09:18:44.145Z</time>
    </trkpt>
    <trkpt lat="56.400541" lon="60.767923">
        <ele>264.4</ele>
        <time>1970-01-01T09:18:45.145Z</time>
    </trkpt>
    <trkpt lat="56.400539" lon="60.76798">
        <ele>265.4</ele>
        <time>1970-01-01T09:18:46.145Z</time>
    </trkpt>
    <trkpt lat="56.400536" lon="60.768039">
        <ele>265.4</ele>
        <time>1970-01-01T09:18:47.145Z</time>
    </trkpt>
    <trkpt lat="56.400533" lon="60.768064">
        <ele>265.4</ele>
        <time>1970-01-01T09:18:48.145Z</time>
    </trkpt>
    <trkpt lat="56.400525" lon="60.768131">
        <ele>265.4</ele>
        <time>1970-01-01T09:18:49.145Z</time>
    </trkpt>
    <trkpt lat="56.400521" lon="60.768153">
        <ele>265.4</ele>
        <time>1970-01-01T09:18:50.145Z</time>
    </trkpt>
    <trkpt lat="56.400514" lon="60.768222">
        <ele>265.4</ele>
        <time>1970-01-01T09:18:51.145Z</time>
    </trkpt>
    <trkpt lat="56.400514" lon="60.768247">
        <ele>265.4</ele>
        <time>1970-01-01T09:18:52.145Z</time>
    </trkpt>
    <trkpt lat="56.40051" lon="60.768318">
        <ele>266.4</ele>
        <time>1970-01-01T09:18:53.145Z</time>
    </trkpt>
    <trkpt lat="56.400506" lon="60.76834">
        <ele>264.4</ele>
        <time>1970-01-01T09:18:54.145Z</time>
    </trkpt>
    <trkpt lat="56.400498" lon="60.768407">
        <ele>264.4</ele>
        <time>1970-01-01T09:18:55.145Z</time>
    </trkpt>
    <trkpt lat="56.400496" lon="60.768426">
        <ele>264.4</ele>
        <time>1970-01-01T09:18:56.145Z</time>
    </trkpt>
    <trkpt lat="56.400488" lon="60.768491">
        <ele>264.4</ele>
        <time>1970-01-01T09:18:57.145Z</time>
    </trkpt>
    <trkpt lat="56.400484" lon="60.768553">
        <ele>264.4</ele>
        <time>1970-01-01T09:18:58.145Z</time>
    </trkpt>
    <trkpt lat="56.400483" lon="60.768607">
        <ele>264.4</ele>
        <time>1970-01-01T09:18:59.145Z</time>
    </trkpt>
    <trkpt lat="56.400484" lon="60.768626">
        <ele>264.4</ele>
        <time>1970-01-01T09:19:00.145Z</time>
    </trkpt>
    <trkpt lat="56.400484" lon="60.76868">
        <ele>264.4</ele>
        <time>1970-01-01T09:19:01.145Z</time>
    </trkpt>
    <trkpt lat="56.400479" lon="60.768706">
        <ele>264.4</ele>
        <time>1970-01-01T09:19:02.145Z</time>
    </trkpt>
    <trkpt lat="56.400474" lon="60.76878">
        <ele>264.4</ele>
        <time>1970-01-01T09:19:03.145Z</time>
    </trkpt>
    <trkpt lat="56.400462" lon="60.768851">
        <ele>264.4</ele>
        <time>1970-01-01T09:19:04.145Z</time>
    </trkpt>
    <trkpt lat="56.400457" lon="60.768901">
        <ele>264.4</ele>
        <time>1970-01-01T09:19:05.145Z</time>
    </trkpt>
    <trkpt lat="56.400455" lon="60.768917">
        <ele>264.4</ele>
        <time>1970-01-01T09:19:06.145Z</time>
    </trkpt>
    <trkpt lat="56.400457" lon="60.768966">
        <ele>264.4</ele>
        <time>1970-01-01T09:19:07.145Z</time>
    </trkpt>
    <trkpt lat="56.400455" lon="60.768992">
        <ele>264.4</ele>
        <time>1970-01-01T09:19:08.145Z</time>
    </trkpt>
    <trkpt lat="56.400448" lon="60.769052">
        <ele>264.4</ele>
        <time>1970-01-01T09:19:09.145Z</time>
    </trkpt>
    <trkpt lat="56.40045" lon="60.769071">
        <ele>264.4</ele>
        <time>1970-01-01T09:19:10.145Z</time>
    </trkpt>
    <trkpt lat="56.400449" lon="60.769129">
        <ele>264.4</ele>
        <time>1970-01-01T09:19:11.145Z</time>
    </trkpt>
    <trkpt lat="56.40045" lon="60.769143">
        <ele>264.4</ele>
        <time>1970-01-01T09:19:12.145Z</time>
    </trkpt>
    <trkpt lat="56.400446" lon="60.769194">
        <ele>263.4</ele>
        <time>1970-01-01T09:19:13.145Z</time>
    </trkpt>
    <trkpt lat="56.400451" lon="60.769244">
        <ele>263.4</ele>
        <time>1970-01-01T09:19:14.145Z</time>
    </trkpt>
    <trkpt lat="56.400454" lon="60.769269">
        <ele>263.4</ele>
        <time>1970-01-01T09:19:15.145Z</time>
    </trkpt>
    <trkpt lat="56.40046" lon="60.769327">
        <ele>263.4</ele>
        <time>1970-01-01T09:19:16.145Z</time>
    </trkpt>
    <trkpt lat="56.400461" lon="60.769349">
        <ele>263.4</ele>
        <time>1970-01-01T09:19:17.145Z</time>
    </trkpt>
    <trkpt lat="56.400453" lon="60.769397">
        <ele>263.4</ele>
        <time>1970-01-01T09:19:18.145Z</time>
    </trkpt>
    <trkpt lat="56.400452" lon="60.769415">
        <ele>263.4</ele>
        <time>1970-01-01T09:19:19.145Z</time>
    </trkpt>
    <trkpt lat="56.400454" lon="60.769467">
        <ele>263.4</ele>
        <time>1970-01-01T09:19:20.145Z</time>
    </trkpt>
    <trkpt lat="56.40045" lon="60.769483">
        <ele>263.4</ele>
        <time>1970-01-01T09:19:21.145Z</time>
    </trkpt>
    <trkpt lat="56.400448" lon="60.769547">
        <ele>263.4</ele>
        <time>1970-01-01T09:19:22.145Z</time>
    </trkpt>
    <trkpt lat="56.40045" lon="60.769566">
        <ele>263.4</ele>
        <time>1970-01-01T09:19:23.145Z</time>
    </trkpt>
    <trkpt lat="56.40046" lon="60.769616">
        <ele>263.4</ele>
        <time>1970-01-01T09:19:24.145Z</time>
    </trkpt>
    <trkpt lat="56.40046" lon="60.769634">
        <ele>263.4</ele>
        <time>1970-01-01T09:19:25.145Z</time>
    </trkpt>
    <trkpt lat="56.400464" lon="60.769689">
        <ele>263.4</ele>
        <time>1970-01-01T09:19:26.145Z</time>
    </trkpt>
    <trkpt lat="56.400453" lon="60.769721">
        <ele>263.4</ele>
        <time>1970-01-01T09:19:27.145Z</time>
    </trkpt>
    <trkpt lat="56.400449" lon="60.769745">
        <ele>263.4</ele>
        <time>1970-01-01T09:19:28.145Z</time>
    </trkpt>
    <trkpt lat="56.400442" lon="60.769767">
        <ele>263.4</ele>
        <time>1970-01-01T09:19:29.145Z</time>
    </trkpt>
    <trkpt lat="56.40044" lon="60.769806">
        <ele>263.4</ele>
        <time>1970-01-01T09:19:30.145Z</time>
    </trkpt>
    <trkpt lat="56.400432" lon="60.769837">
        <ele>263.4</ele>
        <time>1970-01-01T09:19:31.145Z</time>
    </trkpt>
    <trkpt lat="56.400432" lon="60.769861">
        <ele>263.4</ele>
        <time>1970-01-01T09:19:32.145Z</time>
    </trkpt>
    <trkpt lat="56.400424" lon="60.769883">
        <ele>263.4</ele>
        <time>1970-01-01T09:19:33.145Z</time>
    </trkpt>
    <trkpt lat="56.400415" lon="60.769911">
        <ele>263.4</ele>
        <time>1970-01-01T09:19:34.145Z</time>
    </trkpt>
    <trkpt lat="56.400409" lon="60.769931">
        <ele>261.4</ele>
        <time>1970-01-01T09:19:35.145Z</time>
    </trkpt>
    <trkpt lat="56.400408" lon="60.769973">
        <ele>261.4</ele>
        <time>1970-01-01T09:19:36.145Z</time>
    </trkpt>
    <trkpt lat="56.400404" lon="60.770004">
        <ele>261.4</ele>
        <time>1970-01-01T09:19:37.145Z</time>
    </trkpt>
    <trkpt lat="56.400394" lon="60.770082">
        <ele>261.4</ele>
        <time>1970-01-01T09:19:38.145Z</time>
    </trkpt>
    <trkpt lat="56.400391" lon="60.770102">
        <ele>261.4</ele>
        <time>1970-01-01T09:19:39.145Z</time>
    </trkpt>
    <trkpt lat="56.40039" lon="60.770158">
        <ele>261.4</ele>
        <time>1970-01-01T09:19:40.145Z</time>
    </trkpt>
    <trkpt lat="56.400389" lon="60.770176">
        <ele>261.4</ele>
        <time>1970-01-01T09:19:41.145Z</time>
    </trkpt>
    <trkpt lat="56.400381" lon="60.770223">
        <ele>261.4</ele>
        <time>1970-01-01T09:19:42.145Z</time>
    </trkpt>
    <trkpt lat="56.400378" lon="60.770278">
        <ele>261.4</ele>
        <time>1970-01-01T09:19:43.145Z</time>
    </trkpt>
    <trkpt lat="56.400377" lon="60.770294">
        <ele>261.4</ele>
        <time>1970-01-01T09:19:44.145Z</time>
    </trkpt>
    <trkpt lat="56.400375" lon="60.770358">
        <ele>261.4</ele>
        <time>1970-01-01T09:19:45.145Z</time>
    </trkpt>
    <trkpt lat="56.400381" lon="60.770406">
        <ele>262.4</ele>
        <time>1970-01-01T09:19:46.145Z</time>
    </trkpt>
    <trkpt lat="56.400379" lon="60.770458">
        <ele>262.4</ele>
        <time>1970-01-01T09:19:47.145Z</time>
    </trkpt>
    <trkpt lat="56.400377" lon="60.770479">
        <ele>262.4</ele>
        <time>1970-01-01T09:19:48.145Z</time>
    </trkpt>
    <trkpt lat="56.400372" lon="60.770538">
        <ele>262.4</ele>
        <time>1970-01-01T09:19:49.145Z</time>
    </trkpt>
    <trkpt lat="56.400363" lon="60.770616">
        <ele>262.4</ele>
        <time>1970-01-01T09:19:50.145Z</time>
    </trkpt>
    <trkpt lat="56.400362" lon="60.770635">
        <ele>262.4</ele>
        <time>1970-01-01T09:19:51.145Z</time>
    </trkpt>
    <trkpt lat="56.400358" lon="60.770692">
        <ele>262.4</ele>
        <time>1970-01-01T09:19:52.145Z</time>
    </trkpt>
    <trkpt lat="56.400355" lon="60.77071">
        <ele>263.4</ele>
        <time>1970-01-01T09:19:53.145Z</time>
    </trkpt>
    <trkpt lat="56.400353" lon="60.770768">
        <ele>263.4</ele>
        <time>1970-01-01T09:19:54.145Z</time>
    </trkpt>
    <trkpt lat="56.40035" lon="60.770789">
        <ele>263.4</ele>
        <time>1970-01-01T09:19:55.145Z</time>
    </trkpt>
    <trkpt lat="56.400343" lon="60.770845">
        <ele>263.4</ele>
        <time>1970-01-01T09:19:56.145Z</time>
    </trkpt>
    <trkpt lat="56.400342" lon="60.770858">
        <ele>263.4</ele>
        <time>1970-01-01T09:19:57.145Z</time>
    </trkpt>
    <trkpt lat="56.400339" lon="60.770912">
        <ele>264.4</ele>
        <time>1970-01-01T09:19:58.145Z</time>
    </trkpt>
    <trkpt lat="56.400338" lon="60.770947">
        <ele>264.4</ele>
        <time>1970-01-01T09:19:59.145Z</time>
    </trkpt>
    <trkpt lat="56.40034" lon="60.770974">
        <ele>264.4</ele>
        <time>1970-01-01T09:20:00.145Z</time>
    </trkpt>
    <trkpt lat="56.400341" lon="60.770991">
        <ele>264.4</ele>
        <time>1970-01-01T09:20:01.145Z</time>
    </trkpt>
    <trkpt lat="56.400333" lon="60.77105">
        <ele>264.4</ele>
        <time>1970-01-01T09:20:02.145Z</time>
    </trkpt>
    <trkpt lat="56.400333" lon="60.771067">
        <ele>264.4</ele>
        <time>1970-01-01T09:20:03.145Z</time>
    </trkpt>
    <trkpt lat="56.400328" lon="60.771122">
        <ele>264.4</ele>
        <time>1970-01-01T09:20:04.145Z</time>
    </trkpt>
    <trkpt lat="56.400318" lon="60.771169">
        <ele>262.4</ele>
        <time>1970-01-01T09:20:05.145Z</time>
    </trkpt>
    <trkpt lat="56.400322" lon="60.771188">
        <ele>264.4</ele>
        <time>1970-01-01T09:20:06.145Z</time>
    </trkpt>
    <trkpt lat="56.400332" lon="60.771253">
        <ele>264.4</ele>
        <time>1970-01-01T09:20:07.145Z</time>
    </trkpt>
    <trkpt lat="56.40033" lon="60.77127">
        <ele>264.4</ele>
        <time>1970-01-01T09:20:08.145Z</time>
    </trkpt>
    <trkpt lat="56.400331" lon="60.771334">
        <ele>264.4</ele>
        <time>1970-01-01T09:20:09.145Z</time>
    </trkpt>
    <trkpt lat="56.400332" lon="60.771357">
        <ele>264.4</ele>
        <time>1970-01-01T09:20:10.145Z</time>
    </trkpt>
    <trkpt lat="56.400337" lon="60.771425">
        <ele>265.4</ele>
        <time>1970-01-01T09:20:11.145Z</time>
    </trkpt>
    <trkpt lat="56.400337" lon="60.771444">
        <ele>265.4</ele>
        <time>1970-01-01T09:20:12.145Z</time>
    </trkpt>
    <trkpt lat="56.400335" lon="60.771509">
        <ele>265.4</ele>
        <time>1970-01-01T09:20:13.145Z</time>
    </trkpt>
    <trkpt lat="56.400334" lon="60.771561">
        <ele>265.4</ele>
        <time>1970-01-01T09:20:14.145Z</time>
    </trkpt>
    <trkpt lat="56.400335" lon="60.771615">
        <ele>265.4</ele>
        <time>1970-01-01T09:20:15.145Z</time>
    </trkpt>
    <trkpt lat="56.400335" lon="60.771669">
        <ele>265.4</ele>
        <time>1970-01-01T09:20:16.145Z</time>
    </trkpt>
    <trkpt lat="56.40033" lon="60.771707">
        <ele>265.4</ele>
        <time>1970-01-01T09:20:17.145Z</time>
    </trkpt>
    <trkpt lat="56.400333" lon="60.771733">
        <ele>265.4</ele>
        <time>1970-01-01T09:20:18.145Z</time>
    </trkpt>
    <trkpt lat="56.400332" lon="60.771759">
        <ele>265.4</ele>
        <time>1970-01-01T09:20:19.145Z</time>
    </trkpt>
    <trkpt lat="56.400332" lon="60.771824">
        <ele>265.4</ele>
        <time>1970-01-01T09:20:20.145Z</time>
    </trkpt>
    <trkpt lat="56.400332" lon="60.771846">
        <ele>265.4</ele>
        <time>1970-01-01T09:20:21.145Z</time>
    </trkpt>
    <trkpt lat="56.400322" lon="60.771898">
        <ele>265.4</ele>
        <time>1970-01-01T09:20:22.145Z</time>
    </trkpt>
    <trkpt lat="56.400316" lon="60.771916">
        <ele>263.4</ele>
        <time>1970-01-01T09:20:23.145Z</time>
    </trkpt>
    <trkpt lat="56.4003" lon="60.771974">
        <ele>263.4</ele>
        <time>1970-01-01T09:20:24.145Z</time>
    </trkpt>
    <trkpt lat="56.400288" lon="60.772007">
        <ele>263.4</ele>
        <time>1970-01-01T09:20:25.145Z</time>
    </trkpt>
    <trkpt lat="56.400284" lon="60.772029">
        <ele>263.4</ele>
        <time>1970-01-01T09:20:26.145Z</time>
    </trkpt>
    <trkpt lat="56.400276" lon="60.772062">
        <ele>263.4</ele>
        <time>1970-01-01T09:20:27.145Z</time>
    </trkpt>
    <trkpt lat="56.40027" lon="60.772082">
        <ele>263.4</ele>
        <time>1970-01-01T09:20:28.145Z</time>
    </trkpt>
    <trkpt lat="56.400263" lon="60.772098">
        <ele>263.4</ele>
        <time>1970-01-01T09:20:29.145Z</time>
    </trkpt>
    <trkpt lat="56.400256" lon="60.772114">
        <ele>263.4</ele>
        <time>1970-01-01T09:20:30.145Z</time>
    </trkpt>
    <trkpt lat="56.400246" lon="60.772146">
        <ele>263.4</ele>
        <time>1970-01-01T09:20:31.145Z</time>
    </trkpt>
    <trkpt lat="56.400241" lon="60.772161">
        <ele>263.4</ele>
        <time>1970-01-01T09:20:32.145Z</time>
    </trkpt>
    <trkpt lat="56.400235" lon="60.772176">
        <ele>263.4</ele>
        <time>1970-01-01T09:20:33.145Z</time>
    </trkpt>
    <trkpt lat="56.400224" lon="60.772214">
        <ele>261.4</ele>
        <time>1970-01-01T09:20:34.145Z</time>
    </trkpt>
    <trkpt lat="56.40022" lon="60.772244">
        <ele>261.4</ele>
        <time>1970-01-01T09:20:35.145Z</time>
    </trkpt>
    <trkpt lat="56.400216" lon="60.772266">
        <ele>261.4</ele>
        <time>1970-01-01T09:20:36.145Z</time>
    </trkpt>
    <trkpt lat="56.400213" lon="60.772282">
        <ele>261.4</ele>
        <time>1970-01-01T09:20:37.145Z</time>
    </trkpt>
    <trkpt lat="56.4002" lon="60.772326">
        <ele>261.4</ele>
        <time>1970-01-01T09:20:39.145Z</time>
    </trkpt>
    <trkpt lat="56.400192" lon="60.77235">
        <ele>261.4</ele>
        <time>1970-01-01T09:20:40.145Z</time>
    </trkpt>
    <trkpt lat="56.400174" lon="60.772415">
        <ele>261.4</ele>
        <time>1970-01-01T09:20:41.145Z</time>
    </trkpt>
    <trkpt lat="56.400171" lon="60.772433">
        <ele>261.4</ele>
        <time>1970-01-01T09:20:42.145Z</time>
    </trkpt>
    <trkpt lat="56.400169" lon="60.772489">
        <ele>261.4</ele>
        <time>1970-01-01T09:20:43.145Z</time>
    </trkpt>
    <trkpt lat="56.400172" lon="60.772506">
        <ele>261.4</ele>
        <time>1970-01-01T09:20:44.145Z</time>
    </trkpt>
    <trkpt lat="56.400186" lon="60.772558">
        <ele>261.4</ele>
        <time>1970-01-01T09:20:45.145Z</time>
    </trkpt>
    <trkpt lat="56.400188" lon="60.772573">
        <ele>261.4</ele>
        <time>1970-01-01T09:20:46.145Z</time>
    </trkpt>
    <trkpt lat="56.400207" lon="60.772612">
        <ele>261.4</ele>
        <time>1970-01-01T09:20:47.145Z</time>
    </trkpt>
    <trkpt lat="56.400215" lon="60.772672">
        <ele>261.4</ele>
        <time>1970-01-01T09:20:48.145Z</time>
    </trkpt>
    <trkpt lat="56.400224" lon="60.772724">
        <ele>261.4</ele>
        <time>1970-01-01T09:20:49.145Z</time>
    </trkpt>
    <trkpt lat="56.400231" lon="60.772778">
        <ele>262.4</ele>
        <time>1970-01-01T09:20:50.145Z</time>
    </trkpt>
    <trkpt lat="56.400235" lon="60.772797">
        <ele>262.4</ele>
        <time>1970-01-01T09:20:51.145Z</time>
    </trkpt>
    <trkpt lat="56.400244" lon="60.772862">
        <ele>262.4</ele>
        <time>1970-01-01T09:20:52.145Z</time>
    </trkpt>
    <trkpt lat="56.400247" lon="60.77289">
        <ele>262.4</ele>
        <time>1970-01-01T09:20:53.145Z</time>
    </trkpt>
    <trkpt lat="56.400259" lon="60.772959">
        <ele>261.4</ele>
        <time>1970-01-01T09:20:54.145Z</time>
    </trkpt>
    <trkpt lat="56.400261" lon="60.772987">
        <ele>261.4</ele>
        <time>1970-01-01T09:20:55.145Z</time>
    </trkpt>
    <trkpt lat="56.40027" lon="60.773049">
        <ele>261.4</ele>
        <time>1970-01-01T09:20:56.145Z</time>
    </trkpt>
    <trkpt lat="56.400276" lon="60.773068">
        <ele>261.4</ele>
        <time>1970-01-01T09:20:57.145Z</time>
    </trkpt>
    <trkpt lat="56.400284" lon="60.773122">
        <ele>260.4</ele>
        <time>1970-01-01T09:20:58.145Z</time>
    </trkpt>
    <trkpt lat="56.400293" lon="60.773179">
        <ele>260.4</ele>
        <time>1970-01-01T09:20:59.145Z</time>
    </trkpt>
    <trkpt lat="56.400311" lon="60.773249">
        <ele>260.4</ele>
        <time>1970-01-01T09:21:00.145Z</time>
    </trkpt>
    <trkpt lat="56.400315" lon="60.77327">
        <ele>260.4</ele>
        <time>1970-01-01T09:21:01.145Z</time>
    </trkpt>
    <trkpt lat="56.40033" lon="60.773314">
        <ele>261.4</ele>
        <time>1970-01-01T09:21:02.145Z</time>
    </trkpt>
    <trkpt lat="56.400336" lon="60.773336">
        <ele>261.4</ele>
        <time>1970-01-01T09:21:03.145Z</time>
    </trkpt>
    <trkpt lat="56.400345" lon="60.773404">
        <ele>261.4</ele>
        <time>1970-01-01T09:21:04.145Z</time>
    </trkpt>
    <trkpt lat="56.400358" lon="60.773456">
        <ele>260.4</ele>
        <time>1970-01-01T09:21:05.145Z</time>
    </trkpt>
    <trkpt lat="56.400369" lon="60.773504">
        <ele>260.4</ele>
        <time>1970-01-01T09:21:06.145Z</time>
    </trkpt>
    <trkpt lat="56.400377" lon="60.773527">
        <ele>260.4</ele>
        <time>1970-01-01T09:21:07.145Z</time>
    </trkpt>
    <trkpt lat="56.400389" lon="60.773577">
        <ele>260.4</ele>
        <time>1970-01-01T09:21:08.145Z</time>
    </trkpt>
    <trkpt lat="56.400395" lon="60.773597">
        <ele>260.4</ele>
        <time>1970-01-01T09:21:09.145Z</time>
    </trkpt>
    <trkpt lat="56.400408" lon="60.773628">
        <ele>260.4</ele>
        <time>1970-01-01T09:21:10.145Z</time>
    </trkpt>
    <trkpt lat="56.400427" lon="60.773672">
        <ele>261.4</ele>
        <time>1970-01-01T09:21:11.145Z</time>
    </trkpt>
    <trkpt lat="56.40044" lon="60.773697">
        <ele>261.4</ele>
        <time>1970-01-01T09:21:12.145Z</time>
    </trkpt>
    <trkpt lat="56.400448" lon="60.773719">
        <ele>261.4</ele>
        <time>1970-01-01T09:21:13.145Z</time>
    </trkpt>
    <trkpt lat="56.400453" lon="60.773739">
        <ele>261.4</ele>
        <time>1970-01-01T09:21:14.145Z</time>
    </trkpt>
    <trkpt lat="56.400465" lon="60.773796">
        <ele>261.4</ele>
        <time>1970-01-01T09:21:15.145Z</time>
    </trkpt>
    <trkpt lat="56.400477" lon="60.773824">
        <ele>261.4</ele>
        <time>1970-01-01T09:21:16.145Z</time>
    </trkpt>
    <trkpt lat="56.400482" lon="60.77385">
        <ele>261.4</ele>
        <time>1970-01-01T09:21:17.145Z</time>
    </trkpt>
    <trkpt lat="56.400486" lon="60.773867">
        <ele>261.4</ele>
        <time>1970-01-01T09:21:18.145Z</time>
    </trkpt>
    <trkpt lat="56.400491" lon="60.773929">
        <ele>261.4</ele>
        <time>1970-01-01T09:21:19.145Z</time>
    </trkpt>
    <trkpt lat="56.400494" lon="60.773948">
        <ele>261.4</ele>
        <time>1970-01-01T09:21:20.145Z</time>
    </trkpt>
    <trkpt lat="56.400494" lon="60.774004">
        <ele>261.4</ele>
        <time>1970-01-01T09:21:21.145Z</time>
    </trkpt>
    <trkpt lat="56.400498" lon="60.774024">
        <ele>261.4</ele>
        <time>1970-01-01T09:21:22.145Z</time>
    </trkpt>
    <trkpt lat="56.400498" lon="60.774074">
        <ele>261.4</ele>
        <time>1970-01-01T09:21:23.145Z</time>
    </trkpt>
    <trkpt lat="56.400499" lon="60.774099">
        <ele>261.4</ele>
        <time>1970-01-01T09:21:24.145Z</time>
    </trkpt>
    <trkpt lat="56.400494" lon="60.774137">
        <ele>261.4</ele>
        <time>1970-01-01T09:21:25.145Z</time>
    </trkpt>
    <trkpt lat="56.400495" lon="60.774156">
        <ele>261.4</ele>
        <time>1970-01-01T09:21:26.145Z</time>
    </trkpt>
    <trkpt lat="56.400491" lon="60.774211">
        <ele>261.4</ele>
        <time>1970-01-01T09:21:27.145Z</time>
    </trkpt>
    <trkpt lat="56.400495" lon="60.77424">
        <ele>261.4</ele>
        <time>1970-01-01T09:21:28.145Z</time>
    </trkpt>
    <trkpt lat="56.400495" lon="60.774271">
        <ele>261.4</ele>
        <time>1970-01-01T09:21:29.145Z</time>
    </trkpt>
    <trkpt lat="56.400495" lon="60.774289">
        <ele>261.4</ele>
        <time>1970-01-01T09:21:30.145Z</time>
    </trkpt>
    <trkpt lat="56.400496" lon="60.774341">
        <ele>261.4</ele>
        <time>1970-01-01T09:21:31.145Z</time>
    </trkpt>
    <trkpt lat="56.400496" lon="60.77436">
        <ele>261.4</ele>
        <time>1970-01-01T09:21:32.145Z</time>
    </trkpt>
    <trkpt lat="56.400494" lon="60.774424">
        <ele>261.4</ele>
        <time>1970-01-01T09:21:33.145Z</time>
    </trkpt>
    <trkpt lat="56.400495" lon="60.774444">
        <ele>261.4</ele>
        <time>1970-01-01T09:21:34.145Z</time>
    </trkpt>
    <trkpt lat="56.400495" lon="60.774489">
        <ele>262.4</ele>
        <time>1970-01-01T09:21:35.145Z</time>
    </trkpt>
    <trkpt lat="56.400496" lon="60.774506">
        <ele>262.4</ele>
        <time>1970-01-01T09:21:36.145Z</time>
    </trkpt>
    <trkpt lat="56.4005" lon="60.77457">
        <ele>262.4</ele>
        <time>1970-01-01T09:21:37.145Z</time>
    </trkpt>
    <trkpt lat="56.4005" lon="60.774598">
        <ele>262.4</ele>
        <time>1970-01-01T09:21:38.145Z</time>
    </trkpt>
    <trkpt lat="56.400504" lon="60.774632">
        <ele>262.4</ele>
        <time>1970-01-01T09:21:39.145Z</time>
    </trkpt>
    <trkpt lat="56.400506" lon="60.774649">
        <ele>262.4</ele>
        <time>1970-01-01T09:21:40.145Z</time>
    </trkpt>
    <trkpt lat="56.400517" lon="60.774703">
        <ele>263.4</ele>
        <time>1970-01-01T09:21:41.145Z</time>
    </trkpt>
    <trkpt lat="56.400521" lon="60.77472">
        <ele>263.4</ele>
        <time>1970-01-01T09:21:42.145Z</time>
    </trkpt>
    <trkpt lat="56.400521" lon="60.774769">
        <ele>263.4</ele>
        <time>1970-01-01T09:21:43.145Z</time>
    </trkpt>
    <trkpt lat="56.40052" lon="60.774793">
        <ele>263.4</ele>
        <time>1970-01-01T09:21:44.145Z</time>
    </trkpt>
    <trkpt lat="56.40051" lon="60.774859">
        <ele>262.4</ele>
        <time>1970-01-01T09:21:45.145Z</time>
    </trkpt>
    <trkpt lat="56.400516" lon="60.774881">
        <ele>262.4</ele>
        <time>1970-01-01T09:21:46.145Z</time>
    </trkpt>
    <trkpt lat="56.400521" lon="60.774904">
        <ele>262.4</ele>
        <time>1970-01-01T09:21:47.145Z</time>
    </trkpt>
    <trkpt lat="56.400527" lon="60.774946">
        <ele>262.4</ele>
        <time>1970-01-01T09:21:48.145Z</time>
    </trkpt>
    <trkpt lat="56.400536" lon="60.774995">
        <ele>262.4</ele>
        <time>1970-01-01T09:21:49.145Z</time>
    </trkpt>
    <trkpt lat="56.400542" lon="60.775016">
        <ele>262.4</ele>
        <time>1970-01-01T09:21:50.145Z</time>
    </trkpt>
    <trkpt lat="56.400563" lon="60.775065">
        <ele>262.4</ele>
        <time>1970-01-01T09:21:51.145Z</time>
    </trkpt>
    <trkpt lat="56.40057" lon="60.775077">
        <ele>262.4</ele>
        <time>1970-01-01T09:21:52.145Z</time>
    </trkpt>
    <trkpt lat="56.400593" lon="60.775122">
        <ele>262.4</ele>
        <time>1970-01-01T09:21:53.145Z</time>
    </trkpt>
    <trkpt lat="56.400601" lon="60.775127">
        <ele>262.4</ele>
        <time>1970-01-01T09:21:54.145Z</time>
    </trkpt>
    <trkpt lat="56.400634" lon="60.775135">
        <ele>263.4</ele>
        <time>1970-01-01T09:21:55.145Z</time>
    </trkpt>
    <trkpt lat="56.400651" lon="60.775137">
        <ele>263.4</ele>
        <time>1970-01-01T09:21:56.145Z</time>
    </trkpt>
    <trkpt lat="56.400664" lon="60.775159">
        <ele>263.4</ele>
        <time>1970-01-01T09:21:57.145Z</time>
    </trkpt>
    <trkpt lat="56.400671" lon="60.775172">
        <ele>262.4</ele>
        <time>1970-01-01T09:21:58.145Z</time>
    </trkpt>
    <trkpt lat="56.400693" lon="60.77522">
        <ele>262.4</ele>
        <time>1970-01-01T09:21:59.145Z</time>
    </trkpt>
    <trkpt lat="56.400696" lon="60.775232">
        <ele>262.4</ele>
        <time>1970-01-01T09:22:00.145Z</time>
    </trkpt>
    <trkpt lat="56.400712" lon="60.775275">
        <ele>263.4</ele>
        <time>1970-01-01T09:22:01.145Z</time>
    </trkpt>
    <trkpt lat="56.400722" lon="60.77529">
        <ele>263.4</ele>
        <time>1970-01-01T09:22:02.145Z</time>
    </trkpt>
    <trkpt lat="56.400739" lon="60.775335">
        <ele>263.4</ele>
        <time>1970-01-01T09:22:03.145Z</time>
    </trkpt>
    <trkpt lat="56.400752" lon="60.775354">
        <ele>262.4</ele>
        <time>1970-01-01T09:22:04.145Z</time>
    </trkpt>
    <trkpt lat="56.400779" lon="60.775411">
        <ele>262.4</ele>
        <time>1970-01-01T09:22:05.145Z</time>
    </trkpt>
    <trkpt lat="56.40079" lon="60.775427">
        <ele>262.4</ele>
        <time>1970-01-01T09:22:06.145Z</time>
    </trkpt>
    <trkpt lat="56.400811" lon="60.77547">
        <ele>264.4</ele>
        <time>1970-01-01T09:22:07.145Z</time>
    </trkpt>
    <trkpt lat="56.40082" lon="60.77549">
        <ele>264.4</ele>
        <time>1970-01-01T09:22:08.145Z</time>
    </trkpt>
    <trkpt lat="56.400844" lon="60.775534">
        <ele>263.4</ele>
        <time>1970-01-01T09:22:09.145Z</time>
    </trkpt>
    <trkpt lat="56.400859" lon="60.77555">
        <ele>263.4</ele>
        <time>1970-01-01T09:22:10.145Z</time>
    </trkpt>
    <trkpt lat="56.400894" lon="60.775596">
        <ele>265.4</ele>
        <time>1970-01-01T09:22:11.145Z</time>
    </trkpt>
    <trkpt lat="56.4009" lon="60.775607">
        <ele>265.4</ele>
        <time>1970-01-01T09:22:12.145Z</time>
    </trkpt>
    <trkpt lat="56.400922" lon="60.775655">
        <ele>265.4</ele>
        <time>1970-01-01T09:22:13.145Z</time>
    </trkpt>
    <trkpt lat="56.400927" lon="60.775671">
        <ele>265.4</ele>
        <time>1970-01-01T09:22:14.145Z</time>
    </trkpt>
    <trkpt lat="56.40094" lon="60.775725">
        <ele>265.4</ele>
        <time>1970-01-01T09:22:15.145Z</time>
    </trkpt>
    <trkpt lat="56.400943" lon="60.775746">
        <ele>265.4</ele>
        <time>1970-01-01T09:22:16.145Z</time>
    </trkpt>
    <trkpt lat="56.400946" lon="60.775809">
        <ele>265.4</ele>
        <time>1970-01-01T09:22:17.145Z</time>
    </trkpt>
    <trkpt lat="56.400949" lon="60.775825">
        <ele>265.4</ele>
        <time>1970-01-01T09:22:18.145Z</time>
    </trkpt>
    <trkpt lat="56.400957" lon="60.775882">
        <ele>265.4</ele>
        <time>1970-01-01T09:22:19.145Z</time>
    </trkpt>
    <trkpt lat="56.400956" lon="60.775936">
        <ele>265.4</ele>
        <time>1970-01-01T09:22:20.145Z</time>
    </trkpt>
    <trkpt lat="56.400958" lon="60.775951">
        <ele>265.4</ele>
        <time>1970-01-01T09:22:21.145Z</time>
    </trkpt>
    <trkpt lat="56.400965" lon="60.775999">
        <ele>265.3</ele>
        <time>1970-01-01T09:22:22.145Z</time>
    </trkpt>
    <trkpt lat="56.400968" lon="60.776025">
        <ele>265.3</ele>
        <time>1970-01-01T09:22:23.145Z</time>
    </trkpt>
    <trkpt lat="56.400974" lon="60.776089">
        <ele>265.3</ele>
        <time>1970-01-01T09:22:24.145Z</time>
    </trkpt>
    <trkpt lat="56.400977" lon="60.776121">
        <ele>265.3</ele>
        <time>1970-01-01T09:22:25.145Z</time>
    </trkpt>
    <trkpt lat="56.400979" lon="60.776151">
        <ele>265.3</ele>
        <time>1970-01-01T09:22:26.145Z</time>
    </trkpt>
    <trkpt lat="56.400982" lon="60.776169">
        <ele>265.3</ele>
        <time>1970-01-01T09:22:27.145Z</time>
    </trkpt>
    <trkpt lat="56.400992" lon="60.77622">
        <ele>267.3</ele>
        <time>1970-01-01T09:22:28.145Z</time>
    </trkpt>
    <trkpt lat="56.400994" lon="60.776238">
        <ele>267.3</ele>
        <time>1970-01-01T09:22:29.145Z</time>
    </trkpt>
    <trkpt lat="56.401002" lon="60.77629">
        <ele>267.3</ele>
        <time>1970-01-01T09:22:30.145Z</time>
    </trkpt>
    <trkpt lat="56.401004" lon="60.776308">
        <ele>267.3</ele>
        <time>1970-01-01T09:22:31.145Z</time>
    </trkpt>
    <trkpt lat="56.40101" lon="60.776354">
        <ele>267.3</ele>
        <time>1970-01-01T09:22:32.145Z</time>
    </trkpt>
    <trkpt lat="56.401012" lon="60.776373">
        <ele>266.3</ele>
        <time>1970-01-01T09:22:33.145Z</time>
    </trkpt>
    <trkpt lat="56.401021" lon="60.776428">
        <ele>266.3</ele>
        <time>1970-01-01T09:22:34.145Z</time>
    </trkpt>
    <trkpt lat="56.401026" lon="60.776446">
        <ele>266.3</ele>
        <time>1970-01-01T09:22:35.145Z</time>
    </trkpt>
    <trkpt lat="56.401032" lon="60.776504">
        <ele>266.3</ele>
        <time>1970-01-01T09:22:36.145Z</time>
    </trkpt>
    <trkpt lat="56.401034" lon="60.776521">
        <ele>266.3</ele>
        <time>1970-01-01T09:22:37.145Z</time>
    </trkpt>
    <trkpt lat="56.401042" lon="60.776576">
        <ele>265.3</ele>
        <time>1970-01-01T09:22:38.145Z</time>
    </trkpt>
    <trkpt lat="56.401047" lon="60.776601">
        <ele>265.3</ele>
        <time>1970-01-01T09:22:39.145Z</time>
    </trkpt>
    <trkpt lat="56.401061" lon="60.776658">
        <ele>265.3</ele>
        <time>1970-01-01T09:22:40.145Z</time>
    </trkpt>
    <trkpt lat="56.401062" lon="60.776673">
        <ele>265.3</ele>
        <time>1970-01-01T09:22:41.145Z</time>
    </trkpt>
    <trkpt lat="56.401069" lon="60.776723">
        <ele>265.3</ele>
        <time>1970-01-01T09:22:42.145Z</time>
    </trkpt>
    <trkpt lat="56.401071" lon="60.776742">
        <ele>265.3</ele>
        <time>1970-01-01T09:22:43.145Z</time>
    </trkpt>
    <trkpt lat="56.401083" lon="60.776791">
        <ele>266.3</ele>
        <time>1970-01-01T09:22:45.145Z</time>
    </trkpt>
    <trkpt lat="56.401088" lon="60.776806">
        <ele>266.3</ele>
        <time>1970-01-01T09:22:46.145Z</time>
    </trkpt>
    <trkpt lat="56.401102" lon="60.77686">
        <ele>266.3</ele>
        <time>1970-01-01T09:22:47.145Z</time>
    </trkpt>
    <trkpt lat="56.401107" lon="60.776875">
        <ele>266.2</ele>
        <time>1970-01-01T09:22:48.145Z</time>
    </trkpt>
    <trkpt lat="56.401122" lon="60.77692">
        <ele>265.2</ele>
        <time>1970-01-01T09:22:49.145Z</time>
    </trkpt>
    <trkpt lat="56.401127" lon="60.776931">
        <ele>265.2</ele>
        <time>1970-01-01T09:22:50.145Z</time>
    </trkpt>
    <trkpt lat="56.401146" lon="60.77697">
        <ele>265.2</ele>
        <time>1970-01-01T09:22:51.145Z</time>
    </trkpt>
    <trkpt lat="56.401155" lon="60.776994">
        <ele>265.2</ele>
        <time>1970-01-01T09:22:52.145Z</time>
    </trkpt>
    <trkpt lat="56.401162" lon="60.77703">
        <ele>265.2</ele>
        <time>1970-01-01T09:22:53.145Z</time>
    </trkpt>
    <trkpt lat="56.401176" lon="60.777099">
        <ele>265.2</ele>
        <time>1970-01-01T09:22:54.145Z</time>
    </trkpt>
    <trkpt lat="56.401178" lon="60.777118">
        <ele>265.2</ele>
        <time>1970-01-01T09:22:55.145Z</time>
    </trkpt>
    <trkpt lat="56.401183" lon="60.777171">
        <ele>265.2</ele>
        <time>1970-01-01T09:22:56.145Z</time>
    </trkpt>
    <trkpt lat="56.401185" lon="60.777204">
        <ele>265.2</ele>
        <time>1970-01-01T09:22:57.145Z</time>
    </trkpt>
    <trkpt lat="56.401188" lon="60.777228">
        <ele>264.2</ele>
        <time>1970-01-01T09:22:58.145Z</time>
    </trkpt>
    <trkpt lat="56.401184" lon="60.777247">
        <ele>264.2</ele>
        <time>1970-01-01T09:22:59.145Z</time>
    </trkpt>
    <trkpt lat="56.401177" lon="60.777298">
        <ele>264.2</ele>
        <time>1970-01-01T09:23:00.145Z</time>
    </trkpt>
    <trkpt lat="56.40118" lon="60.777318">
        <ele>264.2</ele>
        <time>1970-01-01T09:23:01.145Z</time>
    </trkpt>
    <trkpt lat="56.401179" lon="60.777364">
        <ele>264.2</ele>
        <time>1970-01-01T09:23:02.145Z</time>
    </trkpt>
    <trkpt lat="56.401179" lon="60.777386">
        <ele>264.2</ele>
        <time>1970-01-01T09:23:03.145Z</time>
    </trkpt>
    <trkpt lat="56.401177" lon="60.777438">
        <ele>263.2</ele>
        <time>1970-01-01T09:23:04.145Z</time>
    </trkpt>
    <trkpt lat="56.401175" lon="60.777454">
        <ele>263.2</ele>
        <time>1970-01-01T09:23:05.145Z</time>
    </trkpt>
    <trkpt lat="56.401169" lon="60.777503">
        <ele>263.2</ele>
        <time>1970-01-01T09:23:06.145Z</time>
    </trkpt>
    <trkpt lat="56.401169" lon="60.777526">
        <ele>263.2</ele>
        <time>1970-01-01T09:23:07.145Z</time>
    </trkpt>
    <trkpt lat="56.401172" lon="60.777584">
        <ele>262.2</ele>
        <time>1970-01-01T09:23:08.145Z</time>
    </trkpt>
    <trkpt lat="56.401176" lon="60.777607">
        <ele>261.2</ele>
        <time>1970-01-01T09:23:09.145Z</time>
    </trkpt>
    <trkpt lat="56.401178" lon="60.777641">
        <ele>261.2</ele>
        <time>1970-01-01T09:23:10.145Z</time>
    </trkpt>
    <trkpt lat="56.401182" lon="60.777659">
        <ele>261.2</ele>
        <time>1970-01-01T09:23:11.145Z</time>
    </trkpt>
    <trkpt lat="56.401195" lon="60.777711">
        <ele>261.2</ele>
        <time>1970-01-01T09:23:12.145Z</time>
    </trkpt>
    <trkpt lat="56.4012" lon="60.777726">
        <ele>261.1</ele>
        <time>1970-01-01T09:23:13.145Z</time>
    </trkpt>
    <trkpt lat="56.401205" lon="60.777781">
        <ele>260.1</ele>
        <time>1970-01-01T09:23:14.145Z</time>
    </trkpt>
    <trkpt lat="56.401209" lon="60.777798">
        <ele>260.1</ele>
        <time>1970-01-01T09:23:15.145Z</time>
    </trkpt>
    <trkpt lat="56.40121" lon="60.777855">
        <ele>260.1</ele>
        <time>1970-01-01T09:23:16.145Z</time>
    </trkpt>
    <trkpt lat="56.401211" lon="60.777878">
        <ele>260.1</ele>
        <time>1970-01-01T09:23:17.145Z</time>
    </trkpt>
    <trkpt lat="56.401217" lon="60.777906">
        <ele>260.1</ele>
        <time>1970-01-01T09:23:18.145Z</time>
    </trkpt>
    <trkpt lat="56.401224" lon="60.777936">
        <ele>259.1</ele>
        <time>1970-01-01T09:23:19.145Z</time>
    </trkpt>
    <trkpt lat="56.401231" lon="60.77796">
        <ele>259.1</ele>
        <time>1970-01-01T09:23:20.145Z</time>
    </trkpt>
    <trkpt lat="56.401233" lon="60.777991">
        <ele>259.1</ele>
        <time>1970-01-01T09:23:21.145Z</time>
    </trkpt>
    <trkpt lat="56.401235" lon="60.778021">
        <ele>259.1</ele>
        <time>1970-01-01T09:23:22.145Z</time>
    </trkpt>
    <trkpt lat="56.401235" lon="60.778041">
        <ele>259.1</ele>
        <time>1970-01-01T09:23:23.145Z</time>
    </trkpt>
    <trkpt lat="56.401236" lon="60.778091">
        <ele>257.1</ele>
        <time>1970-01-01T09:23:24.145Z</time>
    </trkpt>
    <trkpt lat="56.40124" lon="60.778122">
        <ele>257.1</ele>
        <time>1970-01-01T09:23:25.145Z</time>
    </trkpt>
    <trkpt lat="56.401242" lon="60.778151">
        <ele>257.1</ele>
        <time>1970-01-01T09:23:26.145Z</time>
    </trkpt>
    <trkpt lat="56.401248" lon="60.778173">
        <ele>257.1</ele>
        <time>1970-01-01T09:23:27.145Z</time>
    </trkpt>
    <trkpt lat="56.40125" lon="60.778206">
        <ele>257.1</ele>
        <time>1970-01-01T09:23:28.145Z</time>
    </trkpt>
    <trkpt lat="56.401255" lon="60.778233">
        <ele>257.1</ele>
        <time>1970-01-01T09:23:29.145Z</time>
    </trkpt>
    <trkpt lat="56.401259" lon="60.778257">
        <ele>256.1</ele>
        <time>1970-01-01T09:23:30.145Z</time>
    </trkpt>
    <trkpt lat="56.401264" lon="60.778285">
        <ele>256.1</ele>
        <time>1970-01-01T09:23:31.145Z</time>
    </trkpt>
    <trkpt lat="56.401272" lon="60.778316">
        <ele>256.1</ele>
        <time>1970-01-01T09:23:32.145Z</time>
    </trkpt>
    <trkpt lat="56.401279" lon="60.778341">
        <ele>256.1</ele>
        <time>1970-01-01T09:23:33.145Z</time>
    </trkpt>
    <trkpt lat="56.401279" lon="60.778373">
        <ele>256.1</ele>
        <time>1970-01-01T09:23:34.145Z</time>
    </trkpt>
    <trkpt lat="56.401281" lon="60.778387">
        <ele>256.1</ele>
        <time>1970-01-01T09:23:35.145Z</time>
    </trkpt>
    <trkpt lat="56.401288" lon="60.77844">
        <ele>255.1</ele>
        <time>1970-01-01T09:23:36.145Z</time>
    </trkpt>
    <trkpt lat="56.401289" lon="60.778469">
        <ele>255.1</ele>
        <time>1970-01-01T09:23:37.145Z</time>
    </trkpt>
    <trkpt lat="56.401293" lon="60.778491">
        <ele>255.0</ele>
        <time>1970-01-01T09:23:38.145Z</time>
    </trkpt>
    <trkpt lat="56.401293" lon="60.778509">
        <ele>255.0</ele>
        <time>1970-01-01T09:23:39.145Z</time>
    </trkpt>
    <trkpt lat="56.401292" lon="60.778541">
        <ele>255.0</ele>
        <time>1970-01-01T09:23:40.145Z</time>
    </trkpt>
    <trkpt lat="56.401294" lon="60.778559">
        <ele>255.0</ele>
        <time>1970-01-01T09:23:41.145Z</time>
    </trkpt>
    <trkpt lat="56.401295" lon="60.778576">
        <ele>255.0</ele>
        <time>1970-01-01T09:23:42.145Z</time>
    </trkpt>
    <trkpt lat="56.401288" lon="60.778619">
        <ele>255.0</ele>
        <time>1970-01-01T09:23:43.145Z</time>
    </trkpt>
    <trkpt lat="56.401286" lon="60.778636">
        <ele>255.0</ele>
        <time>1970-01-01T09:23:44.145Z</time>
    </trkpt>
    <trkpt lat="56.401282" lon="60.778683">
        <ele>255.0</ele>
        <time>1970-01-01T09:23:45.145Z</time>
    </trkpt>
    <trkpt lat="56.401281" lon="60.778709">
        <ele>255.0</ele>
        <time>1970-01-01T09:23:46.145Z</time>
    </trkpt>
    <trkpt lat="56.401279" lon="60.778741">
        <ele>255.0</ele>
        <time>1970-01-01T09:23:47.145Z</time>
    </trkpt>
    <trkpt lat="56.40128" lon="60.778774">
        <ele>254.0</ele>
        <time>1970-01-01T09:23:48.145Z</time>
    </trkpt>
    <trkpt lat="56.401277" lon="60.778802">
        <ele>254.0</ele>
        <time>1970-01-01T09:23:49.145Z</time>
    </trkpt>
    <trkpt lat="56.401276" lon="60.77883">
        <ele>254.0</ele>
        <time>1970-01-01T09:23:50.145Z</time>
    </trkpt>
    <trkpt lat="56.401277" lon="60.778864">
        <ele>254.0</ele>
        <time>1970-01-01T09:23:51.145Z</time>
    </trkpt>
    <trkpt lat="56.401275" lon="60.778889">
        <ele>254.0</ele>
        <time>1970-01-01T09:23:52.145Z</time>
    </trkpt>
    <trkpt lat="56.401271" lon="60.778916">
        <ele>254.0</ele>
        <time>1970-01-01T09:23:53.145Z</time>
    </trkpt>
    <trkpt lat="56.40127" lon="60.778927">
        <ele>254.0</ele>
        <time>1970-01-01T09:23:54.145Z</time>
    </trkpt>
    <trkpt lat="56.401268" lon="60.778938">
        <ele>254.0</ele>
        <time>1970-01-01T09:23:55.145Z</time>
    </trkpt>
    <trkpt lat="56.401267" lon="60.778948">
        <ele>253.0</ele>
        <time>1970-01-01T09:23:56.145Z</time>
    </trkpt>
    <trkpt lat="56.401266" lon="60.778959">
        <ele>253.0</ele>
        <time>1970-01-01T09:24:54.145Z</time>
    </trkpt>
    <trkpt lat="56.401265" lon="60.778969">
        <ele>253.0</ele>
        <time>1970-01-01T09:24:55.145Z</time>
    </trkpt>
    <trkpt lat="56.401264" lon="60.77898">
        <ele>253.0</ele>
        <time>1970-01-01T09:24:56.145Z</time>
    </trkpt>
    <trkpt lat="56.401263" lon="60.77899">
        <ele>253.0</ele>
        <time>1970-01-01T09:24:57.145Z</time>
    </trkpt>
    <trkpt lat="56.401262" lon="60.779001">
        <ele>253.0</ele>
        <time>1970-01-01T09:24:58.145Z</time>
    </trkpt>
    <trkpt lat="56.401261" lon="60.779012">
        <ele>253.0</ele>
        <time>1970-01-01T09:24:59.145Z</time>
    </trkpt>
    <trkpt lat="56.401259" lon="60.779022">
        <ele>253.0</ele>
        <time>1970-01-01T09:25:00.145Z</time>
    </trkpt>
    <trkpt lat="56.401258" lon="60.779033">
        <ele>253.0</ele>
        <time>1970-01-01T09:25:01.145Z</time>
    </trkpt>
    <trkpt lat="56.401257" lon="60.779043">
        <ele>253.0</ele>
        <time>1970-01-01T09:25:02.145Z</time>
    </trkpt>
    <trkpt lat="56.401252" lon="60.779061">
        <ele>253.0</ele>
        <time>1970-01-01T09:25:03.145Z</time>
    </trkpt>
    <trkpt lat="56.401248" lon="60.779062">
        <ele>253.0</ele>
        <time>1970-01-01T09:25:04.145Z</time>
    </trkpt>
    <trkpt lat="56.401242" lon="60.779069">
        <ele>253.0</ele>
        <time>1970-01-01T09:25:05.145Z</time>
    </trkpt>
    <trkpt lat="56.401236" lon="60.779079">
        <ele>253.0</ele>
        <time>1970-01-01T09:25:06.145Z</time>
    </trkpt>
    <trkpt lat="56.401231" lon="60.779098">
        <ele>253.0</ele>
        <time>1970-01-01T09:25:07.145Z</time>
    </trkpt>
    <trkpt lat="56.401227" lon="60.779109">
        <ele>253.0</ele>
        <time>1970-01-01T09:25:08.145Z</time>
    </trkpt>
    <trkpt lat="56.401224" lon="60.779121">
        <ele>253.0</ele>
        <time>1970-01-01T09:25:09.145Z</time>
    </trkpt>
    <trkpt lat="56.401212" lon="60.779153">
        <ele>253.0</ele>
        <time>1970-01-01T09:25:10.145Z</time>
    </trkpt>
    <trkpt lat="56.401208" lon="60.779165">
        <ele>253.0</ele>
        <time>1970-01-01T09:25:11.145Z</time>
    </trkpt>
    <trkpt lat="56.401203" lon="60.779178">
        <ele>253.0</ele>
        <time>1970-01-01T09:25:12.145Z</time>
    </trkpt>
    <trkpt lat="56.401193" lon="60.779212">
        <ele>253.0</ele>
        <time>1970-01-01T09:25:13.145Z</time>
    </trkpt>
    <trkpt lat="56.401189" lon="60.779224">
        <ele>253.0</ele>
        <time>1970-01-01T09:25:14.145Z</time>
    </trkpt>
    <trkpt lat="56.401185" lon="60.779236">
        <ele>253.0</ele>
        <time>1970-01-01T09:25:15.145Z</time>
    </trkpt>
    <trkpt lat="56.401175" lon="60.779268">
        <ele>253.0</ele>
        <time>1970-01-01T09:25:16.145Z</time>
    </trkpt>
    <trkpt lat="56.401169" lon="60.779289">
        <ele>253.0</ele>
        <time>1970-01-01T09:25:17.145Z</time>
    </trkpt>
    <trkpt lat="56.401163" lon="60.779308">
        <ele>253.0</ele>
        <time>1970-01-01T09:25:18.145Z</time>
    </trkpt>
    <trkpt lat="56.401158" lon="60.779325">
        <ele>253.0</ele>
        <time>1970-01-01T09:25:19.145Z</time>
    </trkpt>
    <trkpt lat="56.401156" lon="60.779342">
        <ele>253.0</ele>
        <time>1970-01-01T09:25:20.145Z</time>
    </trkpt>
    <trkpt lat="56.401153" lon="60.77936">
        <ele>253.0</ele>
        <time>1970-01-01T09:25:21.145Z</time>
    </trkpt>
    <trkpt lat="56.401145" lon="60.779397">
        <ele>253.0</ele>
        <time>1970-01-01T09:25:22.145Z</time>
    </trkpt>
    <trkpt lat="56.401137" lon="60.779417">
        <ele>253.0</ele>
        <time>1970-01-01T09:25:23.145Z</time>
    </trkpt>
    <trkpt lat="56.401134" lon="60.779429">
        <ele>253.0</ele>
        <time>1970-01-01T09:25:24.145Z</time>
    </trkpt>
    <trkpt lat="56.401136" lon="60.779429">
        <ele>253.0</ele>
        <time>1970-01-01T09:25:25.145Z</time>
    </trkpt>
    <trkpt lat="56.401136" lon="60.77943">
        <ele>253.0</ele>
        <time>1970-01-01T09:25:26.145Z</time>
    </trkpt>
    <trkpt lat="56.401132" lon="60.779445">
        <ele>253.0</ele>
        <time>1970-01-01T09:25:27.145Z</time>
    </trkpt>
    <trkpt lat="56.401126" lon="60.779459">
        <ele>253.0</ele>
        <time>1970-01-01T09:25:28.145Z</time>
    </trkpt>
    <trkpt lat="56.401122" lon="60.779481">
        <ele>253.0</ele>
        <time>1970-01-01T09:25:29.145Z</time>
    </trkpt>
    <trkpt lat="56.401114" lon="60.7795">
        <ele>253.0</ele>
        <time>1970-01-01T09:25:30.145Z</time>
    </trkpt>
    <trkpt lat="56.40111" lon="60.779515">
        <ele>253.0</ele>
        <time>1970-01-01T09:25:31.145Z</time>
    </trkpt>
    <trkpt lat="56.401106" lon="60.779531">
        <ele>253.0</ele>
        <time>1970-01-01T09:25:32.145Z</time>
    </trkpt>
    <trkpt lat="56.401097" lon="60.779571">
        <ele>253.0</ele>
        <time>1970-01-01T09:25:33.145Z</time>
    </trkpt>
    <trkpt lat="56.401093" lon="60.779587">
        <ele>253.0</ele>
        <time>1970-01-01T09:25:34.145Z</time>
    </trkpt>
    <trkpt lat="56.401091" lon="60.779612">
        <ele>253.0</ele>
        <time>1970-01-01T09:25:35.145Z</time>
    </trkpt>
    <trkpt lat="56.401088" lon="60.779633">
        <ele>253.0</ele>
        <time>1970-01-01T09:25:36.145Z</time>
    </trkpt>
    <trkpt lat="56.401087" lon="60.779648">
        <ele>253.0</ele>
        <time>1970-01-01T09:25:37.145Z</time>
    </trkpt>
    <trkpt lat="56.401085" lon="60.779662">
        <ele>253.0</ele>
        <time>1970-01-01T09:25:38.145Z</time>
    </trkpt>
    <trkpt lat="56.401081" lon="60.779698">
        <ele>253.0</ele>
        <time>1970-01-01T09:25:39.145Z</time>
    </trkpt>
    <trkpt lat="56.401075" lon="60.779725">
        <ele>253.0</ele>
        <time>1970-01-01T09:25:40.145Z</time>
    </trkpt>
    <trkpt lat="56.401073" lon="60.779747">
        <ele>253.0</ele>
        <time>1970-01-01T09:25:41.145Z</time>
    </trkpt>
    <trkpt lat="56.401071" lon="60.779762">
        <ele>253.0</ele>
        <time>1970-01-01T09:25:42.145Z</time>
    </trkpt>
    <trkpt lat="56.401062" lon="60.779781">
        <ele>253.0</ele>
        <time>1970-01-01T09:25:43.145Z</time>
    </trkpt>
    <trkpt lat="56.40106" lon="60.779802">
        <ele>253.0</ele>
        <time>1970-01-01T09:25:44.145Z</time>
    </trkpt>
    <trkpt lat="56.401059" lon="60.779817">
        <ele>253.0</ele>
        <time>1970-01-01T09:25:45.145Z</time>
    </trkpt>
    <trkpt lat="56.401057" lon="60.779842">
        <ele>253.0</ele>
        <time>1970-01-01T09:25:46.145Z</time>
    </trkpt>
    <trkpt lat="56.401053" lon="60.779857">
        <ele>253.0</ele>
        <time>1970-01-01T09:25:47.145Z</time>
    </trkpt>
    <trkpt lat="56.401052" lon="60.779882">
        <ele>253.0</ele>
        <time>1970-01-01T09:25:48.145Z</time>
    </trkpt>
    <trkpt lat="56.401044" lon="60.779897">
        <ele>253.0</ele>
        <time>1970-01-01T09:25:49.145Z</time>
    </trkpt>
    <trkpt lat="56.40104" lon="60.779917">
        <ele>253.0</ele>
        <time>1970-01-01T09:25:50.145Z</time>
    </trkpt>
    <trkpt lat="56.401037" lon="60.779938">
        <ele>253.0</ele>
        <time>1970-01-01T09:25:51.145Z</time>
    </trkpt>
    <trkpt lat="56.401038" lon="60.779958">
        <ele>253.0</ele>
        <time>1970-01-01T09:25:52.145Z</time>
    </trkpt>
    <trkpt lat="56.401037" lon="60.779978">
        <ele>253.0</ele>
        <time>1970-01-01T09:25:53.145Z</time>
    </trkpt>
    <trkpt lat="56.401036" lon="60.779994">
        <ele>253.0</ele>
        <time>1970-01-01T09:25:54.145Z</time>
    </trkpt>
    <trkpt lat="56.401035" lon="60.78001">
        <ele>253.0</ele>
        <time>1970-01-01T09:25:55.145Z</time>
    </trkpt>
    <trkpt lat="56.401031" lon="60.780043">
        <ele>253.0</ele>
        <time>1970-01-01T09:25:56.145Z</time>
    </trkpt>
    <trkpt lat="56.40103" lon="60.780071">
        <ele>253.0</ele>
        <time>1970-01-01T09:25:57.145Z</time>
    </trkpt>
    <trkpt lat="56.401029" lon="60.780093">
        <ele>253.0</ele>
        <time>1970-01-01T09:25:58.145Z</time>
    </trkpt>
    <trkpt lat="56.401023" lon="60.780107">
        <ele>253.0</ele>
        <time>1970-01-01T09:25:59.145Z</time>
    </trkpt>
    <trkpt lat="56.401017" lon="60.780121">
        <ele>253.0</ele>
        <time>1970-01-01T09:26:00.145Z</time>
    </trkpt>
    <trkpt lat="56.401007" lon="60.780152">
        <ele>253.0</ele>
        <time>1970-01-01T09:26:01.145Z</time>
    </trkpt>
    <trkpt lat="56.401001" lon="60.780171">
        <ele>253.0</ele>
        <time>1970-01-01T09:26:02.145Z</time>
    </trkpt>
    <trkpt lat="56.400997" lon="60.780187">
        <ele>253.0</ele>
        <time>1970-01-01T09:26:03.145Z</time>
    </trkpt>
    <trkpt lat="56.400989" lon="60.780203">
        <ele>253.0</ele>
        <time>1970-01-01T09:26:04.145Z</time>
    </trkpt>
    <trkpt lat="56.400987" lon="60.780217">
        <ele>253.0</ele>
        <time>1970-01-01T09:26:05.145Z</time>
    </trkpt>
    <trkpt lat="56.400985" lon="60.78023">
        <ele>253.0</ele>
        <time>1970-01-01T09:26:06.145Z</time>
    </trkpt>
    <trkpt lat="56.400977" lon="60.780266">
        <ele>253.0</ele>
        <time>1970-01-01T09:26:07.145Z</time>
    </trkpt>
    <trkpt lat="56.40098" lon="60.780287">
        <ele>253.0</ele>
        <time>1970-01-01T09:26:08.145Z</time>
    </trkpt>
    <trkpt lat="56.400977" lon="60.780305">
        <ele>253.0</ele>
        <time>1970-01-01T09:26:09.145Z</time>
    </trkpt>
    <trkpt lat="56.400975" lon="60.780327">
        <ele>253.0</ele>
        <time>1970-01-01T09:26:10.145Z</time>
    </trkpt>
    <trkpt lat="56.400971" lon="60.780347">
        <ele>253.0</ele>
        <time>1970-01-01T09:26:11.145Z</time>
    </trkpt>
    <trkpt lat="56.40097" lon="60.780366">
        <ele>253.0</ele>
        <time>1970-01-01T09:26:12.145Z</time>
    </trkpt>
    <trkpt lat="56.40097" lon="60.780384">
        <ele>253.0</ele>
        <time>1970-01-01T09:26:13.145Z</time>
    </trkpt>
    <trkpt lat="56.400967" lon="60.780402">
        <ele>253.0</ele>
        <time>1970-01-01T09:26:14.145Z</time>
    </trkpt>
    <trkpt lat="56.400974" lon="60.780415">
        <ele>253.0</ele>
        <time>1970-01-01T09:26:15.145Z</time>
    </trkpt>
    <trkpt lat="56.400978" lon="60.780439">
        <ele>253.0</ele>
        <time>1970-01-01T09:26:16.145Z</time>
    </trkpt>
    <trkpt lat="56.400979" lon="60.780469">
        <ele>253.0</ele>
        <time>1970-01-01T09:26:17.145Z</time>
    </trkpt>
    <trkpt lat="56.400978" lon="60.780497">
        <ele>253.0</ele>
        <time>1970-01-01T09:26:18.145Z</time>
    </trkpt>
    <trkpt lat="56.400976" lon="60.780503">
        <ele>253.0</ele>
        <time>1970-01-01T09:26:19.145Z</time>
    </trkpt>
    <trkpt lat="56.400974" lon="60.780519">
        <ele>253.0</ele>
        <time>1970-01-01T09:26:20.145Z</time>
    </trkpt>
    <trkpt lat="56.40097" lon="60.78054">
        <ele>253.0</ele>
        <time>1970-01-01T09:26:21.145Z</time>
    </trkpt>
    <trkpt lat="56.400971" lon="60.780556">
        <ele>253.0</ele>
        <time>1970-01-01T09:26:22.145Z</time>
    </trkpt>
    <trkpt lat="56.40097" lon="60.78057">
        <ele>253.0</ele>
        <time>1970-01-01T09:26:23.145Z</time>
    </trkpt>
    <trkpt lat="56.400969" lon="60.780584">
        <ele>253.0</ele>
        <time>1970-01-01T09:26:24.145Z</time>
    </trkpt>
    <trkpt lat="56.400968" lon="60.780598">
        <ele>253.0</ele>
        <time>1970-01-01T09:26:25.145Z</time>
    </trkpt>
    <trkpt lat="56.400968" lon="60.780631">
        <ele>253.0</ele>
        <time>1970-01-01T09:26:26.145Z</time>
    </trkpt>
    <trkpt lat="56.400965" lon="60.780648">
        <ele>253.0</ele>
        <time>1970-01-01T09:26:27.145Z</time>
    </trkpt>
    <trkpt lat="56.400969" lon="60.780672">
        <ele>253.0</ele>
        <time>1970-01-01T09:26:28.145Z</time>
    </trkpt>
    <trkpt lat="56.400968" lon="60.78069">
        <ele>253.0</ele>
        <time>1970-01-01T09:26:29.145Z</time>
    </trkpt>
    <trkpt lat="56.400964" lon="60.780712">
        <ele>253.0</ele>
        <time>1970-01-01T09:26:30.145Z</time>
    </trkpt>
    <trkpt lat="56.400961" lon="60.780727">
        <ele>253.0</ele>
        <time>1970-01-01T09:26:31.145Z</time>
    </trkpt>
    <trkpt lat="56.400959" lon="60.780739">
        <ele>253.0</ele>
        <time>1970-01-01T09:26:32.145Z</time>
    </trkpt>
    <trkpt lat="56.400953" lon="60.780759">
        <ele>253.0</ele>
        <time>1970-01-01T09:26:33.145Z</time>
    </trkpt>
    <trkpt lat="56.400949" lon="60.78079">
        <ele>253.0</ele>
        <time>1970-01-01T09:26:34.145Z</time>
    </trkpt>
    <trkpt lat="56.400949" lon="60.780808">
        <ele>253.0</ele>
        <time>1970-01-01T09:26:35.145Z</time>
    </trkpt>
    <trkpt lat="56.400936" lon="60.78082">
        <ele>253.0</ele>
        <time>1970-01-01T09:26:36.145Z</time>
    </trkpt>
    <trkpt lat="56.400936" lon="60.780837">
        <ele>254.0</ele>
        <time>1970-01-01T09:26:37.145Z</time>
    </trkpt>
    <trkpt lat="56.400934" lon="60.780853">
        <ele>254.0</ele>
        <time>1970-01-01T09:26:38.145Z</time>
    </trkpt>
    <trkpt lat="56.400935" lon="60.780869">
        <ele>254.0</ele>
        <time>1970-01-01T09:26:39.145Z</time>
    </trkpt>
    <trkpt lat="56.400936" lon="60.780895">
        <ele>254.0</ele>
        <time>1970-01-01T09:26:40.145Z</time>
    </trkpt>
    <trkpt lat="56.400936" lon="60.780912">
        <ele>254.0</ele>
        <time>1970-01-01T09:26:41.145Z</time>
    </trkpt>
    <trkpt lat="56.400938" lon="60.780925">
        <ele>254.0</ele>
        <time>1970-01-01T09:26:42.145Z</time>
    </trkpt>
    <trkpt lat="56.400936" lon="60.780949">
        <ele>254.0</ele>
        <time>1970-01-01T09:26:43.145Z</time>
    </trkpt>
    <trkpt lat="56.400933" lon="60.780965">
        <ele>254.0</ele>
        <time>1970-01-01T09:26:44.145Z</time>
    </trkpt>
    <trkpt lat="56.40093" lon="60.780981">
        <ele>254.0</ele>
        <time>1970-01-01T09:26:45.145Z</time>
    </trkpt>
    <trkpt lat="56.400925" lon="60.781014">
        <ele>254.0</ele>
        <time>1970-01-01T09:26:46.145Z</time>
    </trkpt>
    <trkpt lat="56.400921" lon="60.781025">
        <ele>254.0</ele>
        <time>1970-01-01T09:26:47.145Z</time>
    </trkpt>
    <trkpt lat="56.400916" lon="60.781037">
        <ele>254.0</ele>
        <time>1970-01-01T09:26:48.145Z</time>
    </trkpt>
    <trkpt lat="56.40091" lon="60.781055">
        <ele>254.0</ele>
        <time>1970-01-01T09:26:49.145Z</time>
    </trkpt>
    <trkpt lat="56.400909" lon="60.781076">
        <ele>254.0</ele>
        <time>1970-01-01T09:26:50.145Z</time>
    </trkpt>
    <trkpt lat="56.400906" lon="60.781088">
        <ele>254.0</ele>
        <time>1970-01-01T09:26:51.145Z</time>
    </trkpt>
    <trkpt lat="56.400909" lon="60.781098">
        <ele>254.0</ele>
        <time>1970-01-01T09:26:52.145Z</time>
    </trkpt>
    <trkpt lat="56.400911" lon="60.7811">
        <ele>254.0</ele>
        <time>1970-01-01T09:26:53.145Z</time>
    </trkpt>
    <trkpt lat="56.400918" lon="60.781112">
        <ele>254.0</ele>
        <time>1970-01-01T09:26:54.145Z</time>
    </trkpt>
    <trkpt lat="56.400922" lon="60.781127">
        <ele>254.0</ele>
        <time>1970-01-01T09:26:55.145Z</time>
    </trkpt>
    <trkpt lat="56.400923" lon="60.781133">
        <ele>254.0</ele>
        <time>1970-01-01T09:26:56.145Z</time>
    </trkpt>
    <trkpt lat="56.400924" lon="60.781133">
        <ele>254.0</ele>
        <time>1970-01-01T09:26:57.145Z</time>
    </trkpt>
    <trkpt lat="56.400926" lon="60.781145">
        <ele>254.0</ele>
        <time>1970-01-01T09:26:58.145Z</time>
    </trkpt>
    <trkpt lat="56.400926" lon="60.781149">
        <ele>254.0</ele>
        <time>1970-01-01T09:26:59.145Z</time>
    </trkpt>
    <trkpt lat="56.400929" lon="60.781144">
        <ele>254.0</ele>
        <time>1970-01-01T09:27:00.145Z</time>
    </trkpt>
    <trkpt lat="56.400929" lon="60.781149">
        <ele>254.0</ele>
        <time>1970-01-01T09:27:01.145Z</time>
    </trkpt>
    <trkpt lat="56.400922" lon="60.781169">
        <ele>254.0</ele>
        <time>1970-01-01T09:27:02.145Z</time>
    </trkpt>
    <trkpt lat="56.400916" lon="60.781171">
        <ele>254.0</ele>
        <time>1970-01-01T09:27:03.145Z</time>
    </trkpt>
    <trkpt lat="56.400905" lon="60.781185">
        <ele>255.0</ele>
        <time>1970-01-01T09:27:05.145Z</time>
    </trkpt>
    <trkpt lat="56.400905" lon="60.781188">
        <ele>255.0</ele>
        <time>1970-01-01T09:27:06.145Z</time>
    </trkpt>
    <trkpt lat="56.400901" lon="60.78119">
        <ele>255.0</ele>
        <time>1970-01-01T09:27:07.145Z</time>
    </trkpt>
    <trkpt lat="56.400894" lon="60.781193">
        <ele>255.0</ele>
        <time>1970-01-01T09:27:08.145Z</time>
    </trkpt>
    <trkpt lat="56.400888" lon="60.781201">
        <ele>256.0</ele>
        <time>1970-01-01T09:27:09.145Z</time>
    </trkpt>
    <trkpt lat="56.400873" lon="60.781196">
        <ele>256.0</ele>
        <time>1970-01-01T09:27:10.145Z</time>
    </trkpt>
    <trkpt lat="56.400873" lon="60.781197">
        <ele>256.0</ele>
        <time>1970-01-01T09:27:11.145Z</time>
    </trkpt>
    <trkpt lat="56.400871" lon="60.781192">
        <ele>256.0</ele>
        <time>1970-01-01T09:27:12.145Z</time>
    </trkpt>
    <trkpt lat="56.40087" lon="60.781191">
        <ele>256.0</ele>
        <time>1970-01-01T09:27:13.145Z</time>
    </trkpt>
    <trkpt lat="56.400869" lon="60.781191">
        <ele>256.0</ele>
        <time>1970-01-01T09:27:14.145Z</time>
    </trkpt>
    <trkpt lat="56.400872" lon="60.781187">
        <ele>256.0</ele>
        <time>1970-01-01T09:27:15.145Z</time>
    </trkpt>
    <trkpt lat="56.400864" lon="60.78119">
        <ele>256.0</ele>
        <time>1970-01-01T09:27:16.145Z</time>
    </trkpt>
    <trkpt lat="56.400856" lon="60.781186">
        <ele>256.0</ele>
        <time>1970-01-01T09:27:17.145Z</time>
    </trkpt>
    <trkpt lat="56.400844" lon="60.781184">
        <ele>256.0</ele>
        <time>1970-01-01T09:27:18.145Z</time>
    </trkpt>
    <trkpt lat="56.400835" lon="60.781183">
        <ele>256.0</ele>
        <time>1970-01-01T09:27:19.145Z</time>
    </trkpt>
    <trkpt lat="56.400827" lon="60.781181">
        <ele>256.0</ele>
        <time>1970-01-01T09:27:20.145Z</time>
    </trkpt>
    <trkpt lat="56.40081" lon="60.781169">
        <ele>255.0</ele>
        <time>1970-01-01T09:27:21.145Z</time>
    </trkpt>
    <trkpt lat="56.4008" lon="60.781159">
        <ele>255.0</ele>
        <time>1970-01-01T09:27:22.145Z</time>
    </trkpt>
    <trkpt lat="56.400796" lon="60.781149">
        <ele>255.0</ele>
        <time>1970-01-01T09:27:23.145Z</time>
    </trkpt>
    <trkpt lat="56.400769" lon="60.781125">
        <ele>256.0</ele>
        <time>1970-01-01T09:27:25.145Z</time>
    </trkpt>
    <trkpt lat="56.40076" lon="60.781119">
        <ele>256.0</ele>
        <time>1970-01-01T09:27:26.145Z</time>
    </trkpt>
    <trkpt lat="56.400757" lon="60.781115">
        <ele>256.0</ele>
        <time>1970-01-01T09:27:27.145Z</time>
    </trkpt>
    <trkpt lat="56.400754" lon="60.781111">
        <ele>256.0</ele>
        <time>1970-01-01T09:27:28.145Z</time>
    </trkpt>
    <trkpt lat="56.400752" lon="60.781108">
        <ele>256.0</ele>
        <time>1970-01-01T09:27:29.145Z</time>
    </trkpt>
    <trkpt lat="56.400749" lon="60.781104">
        <ele>256.0</ele>
        <time>1970-01-01T09:27:30.145Z</time>
    </trkpt>
    <trkpt lat="56.400746" lon="60.7811">
        <ele>256.0</ele>
        <time>1970-01-01T09:27:31.145Z</time>
    </trkpt>
    <trkpt lat="56.400744" lon="60.781096">
        <ele>256.0</ele>
        <time>1970-01-01T09:27:32.145Z</time>
    </trkpt>
    <trkpt lat="56.400741" lon="60.781092">
        <ele>256.0</ele>
        <time>1970-01-01T09:27:33.145Z</time>
    </trkpt>
    <trkpt lat="56.400738" lon="60.781089">
        <ele>256.0</ele>
        <time>1970-01-01T09:27:34.145Z</time>
    </trkpt>
    <trkpt lat="56.400736" lon="60.781085">
        <ele>256.0</ele>
        <time>1970-01-01T09:27:35.145Z</time>
    </trkpt>
    <trkpt lat="56.400733" lon="60.781081">
        <ele>256.0</ele>
        <time>1970-01-01T09:27:36.145Z</time>
    </trkpt>
    <trkpt lat="56.400719" lon="60.78108">
        <ele>256.0</ele>
        <time>1970-01-01T09:27:37.145Z</time>
    </trkpt>
    <trkpt lat="56.400712" lon="60.781079">
        <ele>256.0</ele>
        <time>1970-01-01T09:27:38.145Z</time>
    </trkpt>
    <trkpt lat="56.400701" lon="60.781074">
        <ele>256.0</ele>
        <time>1970-01-01T09:27:39.145Z</time>
    </trkpt>
    <trkpt lat="56.400688" lon="60.781077">
        <ele>257.0</ele>
        <time>1970-01-01T09:27:40.145Z</time>
    </trkpt>
    <trkpt lat="56.400679" lon="60.781078">
        <ele>257.0</ele>
        <time>1970-01-01T09:27:41.145Z</time>
    </trkpt>
    <trkpt lat="56.400671" lon="60.781079">
        <ele>257.0</ele>
        <time>1970-01-01T09:27:42.145Z</time>
    </trkpt>
    <trkpt lat="56.400662" lon="60.781081">
        <ele>257.0</ele>
        <time>1970-01-01T09:27:43.145Z</time>
    </trkpt>
    <trkpt lat="56.400649" lon="60.78108">
        <ele>257.1</ele>
        <time>1970-01-01T09:27:44.145Z</time>
    </trkpt>
    <trkpt lat="56.400641" lon="60.781075">
        <ele>257.1</ele>
        <time>1970-01-01T09:27:45.145Z</time>
    </trkpt>
    <trkpt lat="56.400636" lon="60.781072">
        <ele>257.2</ele>
        <time>1970-01-01T09:27:46.145Z</time>
    </trkpt>
    <trkpt lat="56.400629" lon="60.781066">
        <ele>257.2</ele>
        <time>1970-01-01T09:27:47.145Z</time>
    </trkpt>
    <trkpt lat="56.400632" lon="60.781073">
        <ele>257.2</ele>
        <time>1970-01-01T09:27:48.145Z</time>
    </trkpt>
    <trkpt lat="56.400623" lon="60.78108">
        <ele>257.3</ele>
        <time>1970-01-01T09:27:49.145Z</time>
    </trkpt>
    <trkpt lat="56.400616" lon="60.781083">
        <ele>257.4</ele>
        <time>1970-01-01T09:27:50.145Z</time>
    </trkpt>
    <trkpt lat="56.400603" lon="60.781072">
        <ele>257.5</ele>
        <time>1970-01-01T09:27:51.145Z</time>
    </trkpt>
    <trkpt lat="56.400593" lon="60.781065">
        <ele>257.5</ele>
        <time>1970-01-01T09:27:52.145Z</time>
    </trkpt>
    <trkpt lat="56.400585" lon="60.781064">
        <ele>257.6</ele>
        <time>1970-01-01T09:27:53.145Z</time>
    </trkpt>
    <trkpt lat="56.40057" lon="60.781064">
        <ele>257.7</ele>
        <time>1970-01-01T09:27:54.145Z</time>
    </trkpt>
    <trkpt lat="56.400554" lon="60.781054">
        <ele>257.8</ele>
        <time>1970-01-01T09:27:55.145Z</time>
    </trkpt>
    <trkpt lat="56.400547" lon="60.781055">
        <ele>257.8</ele>
        <time>1970-01-01T09:27:56.145Z</time>
    </trkpt>
    <trkpt lat="56.400539" lon="60.781056">
        <ele>257.9</ele>
        <time>1970-01-01T09:27:57.145Z</time>
    </trkpt>
    <trkpt lat="56.400532" lon="60.781053">
        <ele>257.9</ele>
        <time>1970-01-01T09:27:58.145Z</time>
    </trkpt>
    <trkpt lat="56.400527" lon="60.781053">
        <ele>258.0</ele>
        <time>1970-01-01T09:27:59.145Z</time>
    </trkpt>
    <trkpt lat="56.400519" lon="60.781053">
        <ele>258.0</ele>
        <time>1970-01-01T09:28:00.145Z</time>
    </trkpt>
    <trkpt lat="56.400512" lon="60.781052">
        <ele>258.1</ele>
        <time>1970-01-01T09:28:01.145Z</time>
    </trkpt>
    <trkpt lat="56.400504" lon="60.781051">
        <ele>258.1</ele>
        <time>1970-01-01T09:28:02.145Z</time>
    </trkpt>
    <trkpt lat="56.400491" lon="60.781049">
        <ele>258.2</ele>
        <time>1970-01-01T09:28:03.145Z</time>
    </trkpt>
    <trkpt lat="56.400477" lon="60.78104">
        <ele>258.3</ele>
        <time>1970-01-01T09:28:04.145Z</time>
    </trkpt>
    <trkpt lat="56.400473" lon="60.781031">
        <ele>258.3</ele>
        <time>1970-01-01T09:28:05.145Z</time>
    </trkpt>
    <trkpt lat="56.400466" lon="60.781035">
        <ele>258.4</ele>
        <time>1970-01-01T09:28:06.145Z</time>
    </trkpt>
    <trkpt lat="56.400457" lon="60.781044">
        <ele>258.4</ele>
        <time>1970-01-01T09:28:07.145Z</time>
    </trkpt>
    <trkpt lat="56.400443" lon="60.781042">
        <ele>258.5</ele>
        <time>1970-01-01T09:28:08.145Z</time>
    </trkpt>
    <trkpt lat="56.400439" lon="60.78105">
        <ele>258.6</ele>
        <time>1970-01-01T09:28:09.145Z</time>
    </trkpt>
    <trkpt lat="56.40043" lon="60.781058">
        <ele>258.6</ele>
        <time>1970-01-01T09:28:10.145Z</time>
    </trkpt>
    <trkpt lat="56.400424" lon="60.781063">
        <ele>258.7</ele>
        <time>1970-01-01T09:28:11.145Z</time>
    </trkpt>
    <trkpt lat="56.400418" lon="60.781068">
        <ele>258.7</ele>
        <time>1970-01-01T09:28:12.145Z</time>
    </trkpt>
    <trkpt lat="56.400412" lon="60.781072">
        <ele>258.8</ele>
        <time>1970-01-01T09:28:13.145Z</time>
    </trkpt>
    <trkpt lat="56.400406" lon="60.781077">
        <ele>258.8</ele>
        <time>1970-01-01T09:28:14.145Z</time>
    </trkpt>
    <trkpt lat="56.40039" lon="60.78109">
        <ele>258.9</ele>
        <time>1970-01-01T09:28:15.145Z</time>
    </trkpt>
    <trkpt lat="56.400386" lon="60.781105">
        <ele>259.0</ele>
        <time>1970-01-01T09:28:16.145Z</time>
    </trkpt>
    <trkpt lat="56.40038" lon="60.781114">
        <ele>259.0</ele>
        <time>1970-01-01T09:28:17.145Z</time>
    </trkpt>
    <trkpt lat="56.400373" lon="60.781135">
        <ele>259.1</ele>
        <time>1970-01-01T09:28:18.145Z</time>
    </trkpt>
    <trkpt lat="56.40037" lon="60.781143">
        <ele>259.2</ele>
        <time>1970-01-01T09:28:19.145Z</time>
    </trkpt>
    <trkpt lat="56.40037" lon="60.781157">
        <ele>259.2</ele>
        <time>1970-01-01T09:28:20.145Z</time>
    </trkpt>
    <trkpt lat="56.400368" lon="60.781171">
        <ele>259.3</ele>
        <time>1970-01-01T09:28:21.145Z</time>
    </trkpt>
    <trkpt lat="56.400367" lon="60.781183">
        <ele>259.3</ele>
        <time>1970-01-01T09:28:22.145Z</time>
    </trkpt>
    <trkpt lat="56.400369" lon="60.781197">
        <ele>259.4</ele>
        <time>1970-01-01T09:28:23.145Z</time>
    </trkpt>
    <trkpt lat="56.400365" lon="60.781203">
        <ele>259.4</ele>
        <time>1970-01-01T09:28:24.145Z</time>
    </trkpt>
    <trkpt lat="56.400363" lon="60.781213">
        <ele>259.4</ele>
        <time>1970-01-01T09:28:25.145Z</time>
    </trkpt>
    <trkpt lat="56.400352" lon="60.78121">
        <ele>259.5</ele>
        <time>1970-01-01T09:28:26.145Z</time>
    </trkpt>
    <trkpt lat="56.400352" lon="60.78121">
        <ele>259.5</ele>
        <time>1970-01-01T09:28:27.145Z</time>
    </trkpt>
    <trkpt lat="56.400347" lon="60.781198">
        <ele>259.5</ele>
        <time>1970-01-01T09:28:28.145Z</time>
    </trkpt>
    <trkpt lat="56.400343" lon="60.781209">
        <ele>259.6</ele>
        <time>1970-01-01T09:28:29.145Z</time>
    </trkpt>
    <trkpt lat="56.400332" lon="60.781217">
        <ele>259.7</ele>
        <time>1970-01-01T09:28:30.145Z</time>
    </trkpt>
    <trkpt lat="56.400328" lon="60.781232">
        <ele>259.7</ele>
        <time>1970-01-01T09:28:31.145Z</time>
    </trkpt>
    <trkpt lat="56.400328" lon="60.781247">
        <ele>259.8</ele>
        <time>1970-01-01T09:28:32.145Z</time>
    </trkpt>
    <trkpt lat="56.400323" lon="60.781252">
        <ele>259.8</ele>
        <time>1970-01-01T09:28:33.145Z</time>
    </trkpt>
    <trkpt lat="56.400338" lon="60.781253">
        <ele>259.9</ele>
        <time>1970-01-01T09:28:34.145Z</time>
    </trkpt>
    <trkpt lat="56.400354" lon="60.781253">
        <ele>260.0</ele>
        <time>1970-01-01T09:28:35.145Z</time>
    </trkpt>
    <trkpt lat="56.400367" lon="60.78127">
        <ele>260.1</ele>
        <time>1970-01-01T09:28:36.145Z</time>
    </trkpt>
    <trkpt lat="56.400351" lon="60.781283">
        <ele>260.2</ele>
        <time>1970-01-01T09:28:37.145Z</time>
    </trkpt>
    <trkpt lat="56.400335" lon="60.781296">
        <ele>260.4</ele>
        <time>1970-01-01T09:28:38.145Z</time>
    </trkpt>
    <trkpt lat="56.400319" lon="60.78131">
        <ele>260.5</ele>
        <time>1970-01-01T09:28:39.145Z</time>
    </trkpt>
    <trkpt lat="56.400299" lon="60.781337">
        <ele>260.6</ele>
        <time>1970-01-01T09:28:40.145Z</time>
    </trkpt>
    <trkpt lat="56.400295" lon="60.781358">
        <ele>260.7</ele>
        <time>1970-01-01T09:28:41.145Z</time>
    </trkpt>
    <trkpt lat="56.400289" lon="60.78137">
        <ele>260.8</ele>
        <time>1970-01-01T09:28:42.145Z</time>
    </trkpt>
    <trkpt lat="56.400286" lon="60.781385">
        <ele>260.8</ele>
        <time>1970-01-01T09:28:43.145Z</time>
    </trkpt>
    <trkpt lat="56.400285" lon="60.781399">
        <ele>260.9</ele>
        <time>1970-01-01T09:28:44.145Z</time>
    </trkpt>
    <trkpt lat="56.400285" lon="60.781418">
        <ele>260.9</ele>
        <time>1970-01-01T09:28:45.145Z</time>
    </trkpt>
    <trkpt lat="56.400282" lon="60.781424">
        <ele>261.0</ele>
        <time>1970-01-01T09:28:46.145Z</time>
    </trkpt>
    <trkpt lat="56.400281" lon="60.781441">
        <ele>261.0</ele>
        <time>1970-01-01T09:28:47.145Z</time>
    </trkpt>
    <trkpt lat="56.40028" lon="60.781531">
        <ele>261.4</ele>
        <time>1970-01-01T09:35:29.145Z</time>
    </trkpt>
    <trkpt lat="56.40028" lon="60.781531">
        <ele>261.4</ele>
        <time>1970-01-01T09:35:30.145Z</time>
    </trkpt>
    <trkpt lat="56.40028" lon="60.781531">
        <ele>261.4</ele>
        <time>1970-01-01T09:35:31.145Z</time>
    </trkpt>
    <trkpt lat="56.40028" lon="60.781531">
        <ele>261.4</ele>
        <time>1970-01-01T09:35:32.145Z</time>
    </trkpt>
    <trkpt lat="56.40028" lon="60.781531">
        <ele>261.4</ele>
        <time>1970-01-01T09:35:33.145Z</time>
    </trkpt>
    <trkpt lat="56.400281" lon="60.781525">
        <ele>261.4</ele>
        <time>1970-01-01T09:35:34.145Z</time>
    </trkpt>
    <trkpt lat="56.400277" lon="60.781521">
        <ele>261.4</ele>
        <time>1970-01-01T09:35:35.145Z</time>
    </trkpt>
    <trkpt lat="56.40028" lon="60.781525">
        <ele>261.4</ele>
        <time>1970-01-01T09:35:36.145Z</time>
    </trkpt>
    <trkpt lat="56.400279" lon="60.781527">
        <ele>261.4</ele>
        <time>1970-01-01T09:35:37.145Z</time>
    </trkpt>
    <trkpt lat="56.400278" lon="60.781531">
        <ele>261.5</ele>
        <time>1970-01-01T09:35:38.145Z</time>
    </trkpt>
    <trkpt lat="56.400276" lon="60.781537">
        <ele>261.5</ele>
        <time>1970-01-01T09:35:39.145Z</time>
    </trkpt>
    <trkpt lat="56.400268" lon="60.781538">
        <ele>261.5</ele>
        <time>1970-01-01T09:35:40.145Z</time>
    </trkpt>
    <trkpt lat="56.400264" lon="60.781537">
        <ele>261.6</ele>
        <time>1970-01-01T09:35:41.145Z</time>
    </trkpt>
    <trkpt lat="56.400257" lon="60.781534">
        <ele>261.6</ele>
        <time>1970-01-01T09:35:42.145Z</time>
    </trkpt>
    <trkpt lat="56.400254" lon="60.781533">
        <ele>261.6</ele>
        <time>1970-01-01T09:35:43.145Z</time>
    </trkpt>
    <trkpt lat="56.400248" lon="60.781526">
        <ele>261.7</ele>
        <time>1970-01-01T09:35:44.145Z</time>
    </trkpt>
    <trkpt lat="56.400239" lon="60.781519">
        <ele>261.7</ele>
        <time>1970-01-01T09:35:45.145Z</time>
    </trkpt>
    <trkpt lat="56.400232" lon="60.781517">
        <ele>261.8</ele>
        <time>1970-01-01T09:35:46.145Z</time>
    </trkpt>
    <trkpt lat="56.400227" lon="60.781505">
        <ele>261.8</ele>
        <time>1970-01-01T09:35:47.145Z</time>
    </trkpt>
    <trkpt lat="56.400224" lon="60.781491">
        <ele>261.9</ele>
        <time>1970-01-01T09:35:48.145Z</time>
    </trkpt>
    <trkpt lat="56.400215" lon="60.781489">
        <ele>262.0</ele>
        <time>1970-01-01T09:35:49.145Z</time>
    </trkpt>
    <trkpt lat="56.400216" lon="60.781486">
        <ele>262.0</ele>
        <time>1970-01-01T09:35:50.145Z</time>
    </trkpt>
    <trkpt lat="56.400204" lon="60.781479">
        <ele>262.1</ele>
        <time>1970-01-01T09:35:51.145Z</time>
    </trkpt>
    <trkpt lat="56.400188" lon="60.781474">
        <ele>262.2</ele>
        <time>1970-01-01T09:35:52.145Z</time>
    </trkpt>
    <trkpt lat="56.400176" lon="60.781468">
        <ele>262.2</ele>
        <time>1970-01-01T09:35:53.145Z</time>
    </trkpt>
    <trkpt lat="56.400144" lon="60.781447">
        <ele>262.5</ele>
        <time>1970-01-01T09:35:54.145Z</time>
    </trkpt>
    <trkpt lat="56.400134" lon="60.781436">
        <ele>262.5</ele>
        <time>1970-01-01T09:35:55.145Z</time>
    </trkpt>
    <trkpt lat="56.400113" lon="60.781408">
        <ele>262.7</ele>
        <time>1970-01-01T09:35:56.145Z</time>
    </trkpt>
    <trkpt lat="56.400107" lon="60.781397">
        <ele>262.8</ele>
        <time>1970-01-01T09:35:57.145Z</time>
    </trkpt>
    <trkpt lat="56.400082" lon="60.781374">
        <ele>262.9</ele>
        <time>1970-01-01T09:35:58.145Z</time>
    </trkpt>
    <trkpt lat="56.400075" lon="60.781361">
        <ele>263.0</ele>
        <time>1970-01-01T09:35:59.145Z</time>
    </trkpt>
    <trkpt lat="56.400054" lon="60.781339">
        <ele>263.2</ele>
        <time>1970-01-01T09:36:00.145Z</time>
    </trkpt>
    <trkpt lat="56.400022" lon="60.78132">
        <ele>263.4</ele>
        <time>1970-01-01T09:36:01.145Z</time>
    </trkpt>
    <trkpt lat="56.400009" lon="60.781321">
        <ele>263.5</ele>
        <time>1970-01-01T09:36:02.145Z</time>
    </trkpt>
    <trkpt lat="56.399978" lon="60.781318">
        <ele>263.7</ele>
        <time>1970-01-01T09:36:03.145Z</time>
    </trkpt>
    <trkpt lat="56.399965" lon="60.781313">
        <ele>263.8</ele>
        <time>1970-01-01T09:36:04.145Z</time>
    </trkpt>
    <trkpt lat="56.399928" lon="60.781315">
        <ele>264.0</ele>
        <time>1970-01-01T09:36:05.145Z</time>
    </trkpt>
    <trkpt lat="56.399911" lon="60.781314">
        <ele>264.1</ele>
        <time>1970-01-01T09:36:06.145Z</time>
    </trkpt>
    <trkpt lat="56.399868" lon="60.781318">
        <ele>264.4</ele>
        <time>1970-01-01T09:36:07.145Z</time>
    </trkpt>
    <trkpt lat="56.399856" lon="60.781316">
        <ele>264.5</ele>
        <time>1970-01-01T09:36:08.145Z</time>
    </trkpt>
    <trkpt lat="56.399822" lon="60.781332">
        <ele>264.7</ele>
        <time>1970-01-01T09:36:09.145Z</time>
    </trkpt>
    <trkpt lat="56.39981" lon="60.781335">
        <ele>264.8</ele>
        <time>1970-01-01T09:36:10.145Z</time>
    </trkpt>
    <trkpt lat="56.399774" lon="60.781346">
        <ele>265.0</ele>
        <time>1970-01-01T09:36:11.145Z</time>
    </trkpt>
    <trkpt lat="56.399746" lon="60.78135">
        <ele>265.2</ele>
        <time>1970-01-01T09:36:12.145Z</time>
    </trkpt>
    <trkpt lat="56.399713" lon="60.781343">
        <ele>266.0</ele>
        <time>1970-01-01T09:36:13.145Z</time>
    </trkpt>
    <trkpt lat="56.399704" lon="60.781335">
        <ele>266.0</ele>
        <time>1970-01-01T09:36:14.145Z</time>
    </trkpt>
    <trkpt lat="56.399671" lon="60.781312">
        <ele>266.0</ele>
        <time>1970-01-01T09:36:15.145Z</time>
    </trkpt>
    <trkpt lat="56.399661" lon="60.781301">
        <ele>266.0</ele>
        <time>1970-01-01T09:36:16.145Z</time>
    </trkpt>
    <trkpt lat="56.399632" lon="60.781273">
        <ele>266.0</ele>
        <time>1970-01-01T09:36:17.145Z</time>
    </trkpt>
    <trkpt lat="56.399629" lon="60.78126">
        <ele>266.0</ele>
        <time>1970-01-01T09:36:18.145Z</time>
    </trkpt>
    <trkpt lat="56.399605" lon="60.781224">
        <ele>265.9</ele>
        <time>1970-01-01T09:36:19.145Z</time>
    </trkpt>
    <trkpt lat="56.399597" lon="60.781213">
        <ele>265.9</ele>
        <time>1970-01-01T09:36:20.145Z</time>
    </trkpt>
    <trkpt lat="56.399588" lon="60.781202">
        <ele>265.9</ele>
        <time>1970-01-01T09:36:21.145Z</time>
    </trkpt>
    <trkpt lat="56.399572" lon="60.781183">
        <ele>265.9</ele>
        <time>1970-01-01T09:36:22.145Z</time>
    </trkpt>
    <trkpt lat="56.399566" lon="60.781177">
        <ele>265.9</ele>
        <time>1970-01-01T09:36:23.145Z</time>
    </trkpt>
    <trkpt lat="56.399559" lon="60.781171">
        <ele>265.9</ele>
        <time>1970-01-01T09:36:24.145Z</time>
    </trkpt>
    <trkpt lat="56.399553" lon="60.781165">
        <ele>265.9</ele>
        <time>1970-01-01T09:36:25.145Z</time>
    </trkpt>
    <trkpt lat="56.399547" lon="60.78116">
        <ele>265.9</ele>
        <time>1970-01-01T09:36:39.145Z</time>
    </trkpt>
    <trkpt lat="56.399541" lon="60.781154">
        <ele>265.9</ele>
        <time>1970-01-01T09:36:40.145Z</time>
    </trkpt>
    <trkpt lat="56.399534" lon="60.781148">
        <ele>265.9</ele>
        <time>1970-01-01T09:36:41.145Z</time>
    </trkpt>
    <trkpt lat="56.399528" lon="60.781142">
        <ele>265.9</ele>
        <time>1970-01-01T09:36:42.145Z</time>
    </trkpt>
    <trkpt lat="56.399522" lon="60.781137">
        <ele>265.9</ele>
        <time>1970-01-01T09:36:43.145Z</time>
    </trkpt>
    <trkpt lat="56.399515" lon="60.781131">
        <ele>265.9</ele>
        <time>1970-01-01T09:36:44.145Z</time>
    </trkpt>
    <trkpt lat="56.399509" lon="60.781125">
        <ele>265.9</ele>
        <time>1970-01-01T09:36:45.145Z</time>
    </trkpt>
    <trkpt lat="56.399503" lon="60.781119">
        <ele>265.9</ele>
        <time>1970-01-01T09:36:46.145Z</time>
    </trkpt>
    <trkpt lat="56.399497" lon="60.781113">
        <ele>265.9</ele>
        <time>1970-01-01T09:36:47.145Z</time>
    </trkpt>
    <trkpt lat="56.39949" lon="60.781108">
        <ele>265.9</ele>
        <time>1970-01-01T09:36:48.145Z</time>
    </trkpt>
    <trkpt lat="56.399484" lon="60.781102">
        <ele>265.9</ele>
        <time>1970-01-01T09:36:49.145Z</time>
    </trkpt>
    <trkpt lat="56.399472" lon="60.781083">
        <ele>265.9</ele>
        <time>1970-01-01T09:36:50.145Z</time>
    </trkpt>
    <trkpt lat="56.399464" lon="60.781068">
        <ele>265.9</ele>
        <time>1970-01-01T09:36:51.145Z</time>
    </trkpt>
    <trkpt lat="56.399437" lon="60.781031">
        <ele>265.9</ele>
        <time>1970-01-01T09:36:52.145Z</time>
    </trkpt>
    <trkpt lat="56.399428" lon="60.781019">
        <ele>265.9</ele>
        <time>1970-01-01T09:36:53.145Z</time>
    </trkpt>
    <trkpt lat="56.399401" lon="60.780984">
        <ele>265.9</ele>
        <time>1970-01-01T09:36:54.145Z</time>
    </trkpt>
    <trkpt lat="56.399391" lon="60.780968">
        <ele>265.9</ele>
        <time>1970-01-01T09:36:55.145Z</time>
    </trkpt>
    <trkpt lat="56.399367" lon="60.780917">
        <ele>265.9</ele>
        <time>1970-01-01T09:36:56.145Z</time>
    </trkpt>
    <trkpt lat="56.39936" lon="60.780899">
        <ele>265.9</ele>
        <time>1970-01-01T09:36:57.145Z</time>
    </trkpt>
    <trkpt lat="56.399331" lon="60.780856">
        <ele>265.9</ele>
        <time>1970-01-01T09:36:58.145Z</time>
    </trkpt>
    <trkpt lat="56.399312" lon="60.780818">
        <ele>265.9</ele>
        <time>1970-01-01T09:36:59.145Z</time>
    </trkpt>
    <trkpt lat="56.399287" lon="60.780772">
        <ele>265.9</ele>
        <time>1970-01-01T09:37:00.145Z</time>
    </trkpt>
    <trkpt lat="56.399275" lon="60.780756">
        <ele>265.9</ele>
        <time>1970-01-01T09:37:01.145Z</time>
    </trkpt>
    <trkpt lat="56.399254" lon="60.780705">
        <ele>265.8</ele>
        <time>1970-01-01T09:37:02.145Z</time>
    </trkpt>
    <trkpt lat="56.399227" lon="60.780658">
        <ele>265.8</ele>
        <time>1970-01-01T09:37:03.145Z</time>
    </trkpt>
    <trkpt lat="56.399206" lon="60.780618">
        <ele>265.8</ele>
        <time>1970-01-01T09:37:04.145Z</time>
    </trkpt>
    <trkpt lat="56.399186" lon="60.780561">
        <ele>265.8</ele>
        <time>1970-01-01T09:37:05.145Z</time>
    </trkpt>
    <trkpt lat="56.399166" lon="60.780515">
        <ele>265.8</ele>
        <time>1970-01-01T09:37:06.145Z</time>
    </trkpt>
    <trkpt lat="56.39914" lon="60.78047">
        <ele>265.8</ele>
        <time>1970-01-01T09:37:07.145Z</time>
    </trkpt>
    <trkpt lat="56.399129" lon="60.780454">
        <ele>265.8</ele>
        <time>1970-01-01T09:37:08.145Z</time>
    </trkpt>
    <trkpt lat="56.399097" lon="60.780409">
        <ele>265.8</ele>
        <time>1970-01-01T09:37:09.145Z</time>
    </trkpt>
    <trkpt lat="56.399079" lon="60.780366">
        <ele>265.8</ele>
        <time>1970-01-01T09:37:10.145Z</time>
    </trkpt>
    <trkpt lat="56.399057" lon="60.78032">
        <ele>265.8</ele>
        <time>1970-01-01T09:37:11.145Z</time>
    </trkpt>
    <trkpt lat="56.399049" lon="60.780294">
        <ele>265.8</ele>
        <time>1970-01-01T09:37:12.145Z</time>
    </trkpt>
    <trkpt lat="56.399021" lon="60.780238">
        <ele>265.8</ele>
        <time>1970-01-01T09:37:13.145Z</time>
    </trkpt>
    <trkpt lat="56.398993" lon="60.78021">
        <ele>265.8</ele>
        <time>1970-01-01T09:37:14.145Z</time>
    </trkpt>
    <trkpt lat="56.398983" lon="60.780192">
        <ele>265.8</ele>
        <time>1970-01-01T09:37:15.145Z</time>
    </trkpt>
    <trkpt lat="56.398956" lon="60.780139">
        <ele>265.8</ele>
        <time>1970-01-01T09:37:16.145Z</time>
    </trkpt>
    <trkpt lat="56.398927" lon="60.780113">
        <ele>265.7</ele>
        <time>1970-01-01T09:37:17.145Z</time>
    </trkpt>
    <trkpt lat="56.398917" lon="60.780095">
        <ele>265.7</ele>
        <time>1970-01-01T09:37:18.145Z</time>
    </trkpt>
    <trkpt lat="56.398891" lon="60.780055">
        <ele>265.7</ele>
        <time>1970-01-01T09:37:19.145Z</time>
    </trkpt>
    <trkpt lat="56.398866" lon="60.780019">
        <ele>265.7</ele>
        <time>1970-01-01T09:37:20.145Z</time>
    </trkpt>
    <trkpt lat="56.398841" lon="60.779971">
        <ele>265.7</ele>
        <time>1970-01-01T09:37:21.145Z</time>
    </trkpt>
    <trkpt lat="56.398826" lon="60.779954">
        <ele>265.7</ele>
        <time>1970-01-01T09:37:22.145Z</time>
    </trkpt>
    <trkpt lat="56.398815" lon="60.77993">
        <ele>265.7</ele>
        <time>1970-01-01T09:37:23.145Z</time>
    </trkpt>
    <trkpt lat="56.398796" lon="60.779892">
        <ele>265.7</ele>
        <time>1970-01-01T09:37:24.145Z</time>
    </trkpt>
    <trkpt lat="56.398785" lon="60.779871">
        <ele>265.7</ele>
        <time>1970-01-01T09:37:25.145Z</time>
    </trkpt>
    <trkpt lat="56.398762" lon="60.779822">
        <ele>265.7</ele>
        <time>1970-01-01T09:37:27.145Z</time>
    </trkpt>
    <trkpt lat="56.398735" lon="60.779793">
        <ele>265.7</ele>
        <time>1970-01-01T09:37:28.145Z</time>
    </trkpt>
    <trkpt lat="56.39871" lon="60.779753">
        <ele>265.7</ele>
        <time>1970-01-01T09:37:29.145Z</time>
    </trkpt>
    <trkpt lat="56.398704" lon="60.779737">
        <ele>265.7</ele>
        <time>1970-01-01T09:37:30.145Z</time>
    </trkpt>
    <trkpt lat="56.398693" lon="60.779679">
        <ele>265.7</ele>
        <time>1970-01-01T09:37:31.145Z</time>
    </trkpt>
    <trkpt lat="56.398681" lon="60.779635">
        <ele>265.7</ele>
        <time>1970-01-01T09:37:32.145Z</time>
    </trkpt>
    <trkpt lat="56.398674" lon="60.779616">
        <ele>265.7</ele>
        <time>1970-01-01T09:37:33.145Z</time>
    </trkpt>
    <trkpt lat="56.398655" lon="60.779558">
        <ele>265.7</ele>
        <time>1970-01-01T09:37:34.145Z</time>
    </trkpt>
    <trkpt lat="56.398646" lon="60.779537">
        <ele>265.7</ele>
        <time>1970-01-01T09:37:35.145Z</time>
    </trkpt>
    <trkpt lat="56.398629" lon="60.779476">
        <ele>265.6</ele>
        <time>1970-01-01T09:37:36.145Z</time>
    </trkpt>
    <trkpt lat="56.398606" lon="60.779449">
        <ele>265.6</ele>
        <time>1970-01-01T09:37:37.145Z</time>
    </trkpt>
    <trkpt lat="56.398596" lon="60.779435">
        <ele>265.6</ele>
        <time>1970-01-01T09:37:38.145Z</time>
    </trkpt>
    <trkpt lat="56.398578" lon="60.779409">
        <ele>265.6</ele>
        <time>1970-01-01T09:37:39.145Z</time>
    </trkpt>
    <trkpt lat="56.398554" lon="60.779388">
        <ele>265.6</ele>
        <time>1970-01-01T09:37:40.145Z</time>
    </trkpt>
    <trkpt lat="56.398545" lon="60.779374">
        <ele>265.6</ele>
        <time>1970-01-01T09:37:41.145Z</time>
    </trkpt>
    <trkpt lat="56.398519" lon="60.779338">
        <ele>265.6</ele>
        <time>1970-01-01T09:37:42.145Z</time>
    </trkpt>
    <trkpt lat="56.398509" lon="60.779328">
        <ele>265.6</ele>
        <time>1970-01-01T09:37:43.145Z</time>
    </trkpt>
    <trkpt lat="56.398482" lon="60.779289">
        <ele>265.6</ele>
        <time>1970-01-01T09:37:44.145Z</time>
    </trkpt>
    <trkpt lat="56.39846" lon="60.779254">
        <ele>265.6</ele>
        <time>1970-01-01T09:37:45.145Z</time>
    </trkpt>
    <trkpt lat="56.398452" lon="60.779243">
        <ele>265.6</ele>
        <time>1970-01-01T09:37:46.145Z</time>
    </trkpt>
    <trkpt lat="56.398426" lon="60.779207">
        <ele>265.6</ele>
        <time>1970-01-01T09:37:47.145Z</time>
    </trkpt>
    <trkpt lat="56.398419" lon="60.779195">
        <ele>265.6</ele>
        <time>1970-01-01T09:37:48.145Z</time>
    </trkpt>
    <trkpt lat="56.398395" lon="60.779156">
        <ele>265.6</ele>
        <time>1970-01-01T09:37:49.145Z</time>
    </trkpt>
    <trkpt lat="56.398389" lon="60.779142">
        <ele>265.6</ele>
        <time>1970-01-01T09:37:50.145Z</time>
    </trkpt>
    <trkpt lat="56.398366" lon="60.779096">
        <ele>265.6</ele>
        <time>1970-01-01T09:37:51.145Z</time>
    </trkpt>
    <trkpt lat="56.398358" lon="60.779085">
        <ele>265.6</ele>
        <time>1970-01-01T09:37:52.145Z</time>
    </trkpt>
    <trkpt lat="56.398337" lon="60.779048">
        <ele>265.6</ele>
        <time>1970-01-01T09:37:53.145Z</time>
    </trkpt>
    <trkpt lat="56.398326" lon="60.779035">
        <ele>265.6</ele>
        <time>1970-01-01T09:37:54.145Z</time>
    </trkpt>
    <trkpt lat="56.3983" lon="60.778992">
        <ele>265.5</ele>
        <time>1970-01-01T09:37:55.145Z</time>
    </trkpt>
    <trkpt lat="56.398295" lon="60.778973">
        <ele>265.5</ele>
        <time>1970-01-01T09:37:56.145Z</time>
    </trkpt>
    <trkpt lat="56.39828" lon="60.778929">
        <ele>265.5</ele>
        <time>1970-01-01T09:37:57.145Z</time>
    </trkpt>
    <trkpt lat="56.398273" lon="60.778915">
        <ele>265.5</ele>
        <time>1970-01-01T09:37:58.145Z</time>
    </trkpt>
    <trkpt lat="56.398254" lon="60.778877">
        <ele>265.5</ele>
        <time>1970-01-01T09:37:59.145Z</time>
    </trkpt>
    <trkpt lat="56.398234" lon="60.778857">
        <ele>265.5</ele>
        <time>1970-01-01T09:38:00.145Z</time>
    </trkpt>
    <trkpt lat="56.398227" lon="60.778844">
        <ele>265.5</ele>
        <time>1970-01-01T09:38:01.145Z</time>
    </trkpt>
    <trkpt lat="56.39822" lon="60.778834">
        <ele>265.5</ele>
        <time>1970-01-01T09:38:02.145Z</time>
    </trkpt>
    <trkpt lat="56.398208" lon="60.778805">
        <ele>265.5</ele>
        <time>1970-01-01T09:38:03.145Z</time>
    </trkpt>
    <trkpt lat="56.398207" lon="60.778798">
        <ele>265.5</ele>
        <time>1970-01-01T09:38:04.145Z</time>
    </trkpt>
    <trkpt lat="56.398205" lon="60.778794">
        <ele>265.5</ele>
        <time>1970-01-01T09:38:05.145Z</time>
    </trkpt>
    <trkpt lat="56.398204" lon="60.778795">
        <ele>265.5</ele>
        <time>1970-01-01T09:38:06.145Z</time>
    </trkpt>
    <trkpt lat="56.398198" lon="60.778786">
        <ele>265.5</ele>
        <time>1970-01-01T09:38:07.145Z</time>
    </trkpt>
    <trkpt lat="56.398191" lon="60.778777">
        <ele>265.5</ele>
        <time>1970-01-01T09:38:08.145Z</time>
    </trkpt>
    <trkpt lat="56.398185" lon="60.778769">
        <ele>265.5</ele>
        <time>1970-01-01T09:38:09.145Z</time>
    </trkpt>
    <trkpt lat="56.398178" lon="60.77876">
        <ele>265.5</ele>
        <time>1970-01-01T09:38:10.145Z</time>
    </trkpt>
    <trkpt lat="56.398173" lon="60.778739">
        <ele>265.5</ele>
        <time>1970-01-01T09:38:11.145Z</time>
    </trkpt>
    <trkpt lat="56.398165" lon="60.778728">
        <ele>265.5</ele>
        <time>1970-01-01T09:38:12.145Z</time>
    </trkpt>
    <trkpt lat="56.398158" lon="60.778712">
        <ele>265.5</ele>
        <time>1970-01-01T09:38:13.145Z</time>
    </trkpt>
    <trkpt lat="56.398158" lon="60.778698">
        <ele>265.5</ele>
        <time>1970-01-01T09:38:14.145Z</time>
    </trkpt>
    <trkpt lat="56.39816" lon="60.778695">
        <ele>265.5</ele>
        <time>1970-01-01T09:38:15.145Z</time>
    </trkpt>
    <trkpt lat="56.398152" lon="60.778665">
        <ele>265.5</ele>
        <time>1970-01-01T09:38:16.145Z</time>
    </trkpt>
    <trkpt lat="56.398149" lon="60.778647">
        <ele>265.5</ele>
        <time>1970-01-01T09:38:17.145Z</time>
    </trkpt>
    <trkpt lat="56.398142" lon="60.77862">
        <ele>265.5</ele>
        <time>1970-01-01T09:38:18.145Z</time>
    </trkpt>
    <trkpt lat="56.398135" lon="60.778593">
        <ele>265.5</ele>
        <time>1970-01-01T09:38:19.145Z</time>
    </trkpt>
    <trkpt lat="56.398127" lon="60.778566">
        <ele>265.5</ele>
        <time>1970-01-01T09:38:20.145Z</time>
    </trkpt>
    <trkpt lat="56.39812" lon="60.778539">
        <ele>265.5</ele>
        <time>1970-01-01T09:38:33.145Z</time>
    </trkpt>
    <trkpt lat="56.398113" lon="60.778512">
        <ele>265.5</ele>
        <time>1970-01-01T09:38:34.145Z</time>
    </trkpt>
    <trkpt lat="56.398106" lon="60.778481">
        <ele>265.5</ele>
        <time>1970-01-01T09:38:35.145Z</time>
    </trkpt>
    <trkpt lat="56.398113" lon="60.778472">
        <ele>265.5</ele>
        <time>1970-01-01T09:38:36.145Z</time>
    </trkpt>
    <trkpt lat="56.398119" lon="60.778467">
        <ele>265.5</ele>
        <time>1970-01-01T09:38:37.145Z</time>
    </trkpt>
    <trkpt lat="56.398119" lon="60.778458">
        <ele>265.5</ele>
        <time>1970-01-01T09:38:38.145Z</time>
    </trkpt>
    <trkpt lat="56.398121" lon="60.778447">
        <ele>265.5</ele>
        <time>1970-01-01T09:38:39.145Z</time>
    </trkpt>
    <trkpt lat="56.398122" lon="60.778437">
        <ele>265.5</ele>
        <time>1970-01-01T09:38:40.145Z</time>
    </trkpt>
    <trkpt lat="56.398127" lon="60.778423">
        <ele>265.5</ele>
        <time>1970-01-01T09:38:41.145Z</time>
    </trkpt>
    <trkpt lat="56.398131" lon="60.778419">
        <ele>265.5</ele>
        <time>1970-01-01T09:38:42.145Z</time>
    </trkpt>
    <trkpt lat="56.398134" lon="60.778406">
        <ele>265.5</ele>
        <time>1970-01-01T09:38:43.145Z</time>
    </trkpt>
    <trkpt lat="56.398129" lon="60.778381">
        <ele>265.5</ele>
        <time>1970-01-01T09:38:44.145Z</time>
    </trkpt>
    <trkpt lat="56.398125" lon="60.77836">
        <ele>265.5</ele>
        <time>1970-01-01T09:38:45.145Z</time>
    </trkpt>
    <trkpt lat="56.398106" lon="60.778312">
        <ele>265.4</ele>
        <time>1970-01-01T09:38:46.145Z</time>
    </trkpt>
    <trkpt lat="56.398101" lon="60.778295">
        <ele>265.4</ele>
        <time>1970-01-01T09:38:47.145Z</time>
    </trkpt>
    <trkpt lat="56.398097" lon="60.778262">
        <ele>265.4</ele>
        <time>1970-01-01T09:38:48.145Z</time>
    </trkpt>
    <trkpt lat="56.398085" lon="60.778212">
        <ele>265.4</ele>
        <time>1970-01-01T09:38:49.145Z</time>
    </trkpt>
    <trkpt lat="56.398077" lon="60.778199">
        <ele>265.4</ele>
        <time>1970-01-01T09:38:50.145Z</time>
    </trkpt>
    <trkpt lat="56.398053" lon="60.778155">
        <ele>265.4</ele>
        <time>1970-01-01T09:38:51.145Z</time>
    </trkpt>
    <trkpt lat="56.398046" lon="60.778139">
        <ele>265.4</ele>
        <time>1970-01-01T09:38:52.145Z</time>
    </trkpt>
    <trkpt lat="56.398032" lon="60.7781">
        <ele>265.4</ele>
        <time>1970-01-01T09:38:53.145Z</time>
    </trkpt>
    <trkpt lat="56.398025" lon="60.778085">
        <ele>265.4</ele>
        <time>1970-01-01T09:38:54.145Z</time>
    </trkpt>
    <trkpt lat="56.398009" lon="60.778032">
        <ele>265.4</ele>
        <time>1970-01-01T09:38:55.145Z</time>
    </trkpt>
    <trkpt lat="56.397983" lon="60.77799">
        <ele>265.4</ele>
        <time>1970-01-01T09:38:56.145Z</time>
    </trkpt>
    <trkpt lat="56.397973" lon="60.777977">
        <ele>265.4</ele>
        <time>1970-01-01T09:38:57.145Z</time>
    </trkpt>
    <trkpt lat="56.397952" lon="60.777935">
        <ele>265.4</ele>
        <time>1970-01-01T09:38:58.145Z</time>
    </trkpt>
    <trkpt lat="56.397933" lon="60.777899">
        <ele>265.4</ele>
        <time>1970-01-01T09:38:59.145Z</time>
    </trkpt>
    <trkpt lat="56.397929" lon="60.777885">
        <ele>265.4</ele>
        <time>1970-01-01T09:39:00.145Z</time>
    </trkpt>
    <trkpt lat="56.397911" lon="60.77784">
        <ele>265.4</ele>
        <time>1970-01-01T09:39:01.145Z</time>
    </trkpt>
    <trkpt lat="56.397899" lon="60.777788">
        <ele>265.4</ele>
        <time>1970-01-01T09:39:02.145Z</time>
    </trkpt>
    <trkpt lat="56.397881" lon="60.777746">
        <ele>265.4</ele>
        <time>1970-01-01T09:39:03.145Z</time>
    </trkpt>
    <trkpt lat="56.397856" lon="60.777696">
        <ele>265.4</ele>
        <time>1970-01-01T09:39:04.145Z</time>
    </trkpt>
    <trkpt lat="56.397831" lon="60.777637">
        <ele>265.3</ele>
        <time>1970-01-01T09:39:05.145Z</time>
    </trkpt>
    <trkpt lat="56.397805" lon="60.777587">
        <ele>265.3</ele>
        <time>1970-01-01T09:39:06.145Z</time>
    </trkpt>
    <trkpt lat="56.397777" lon="60.777527">
        <ele>265.3</ele>
        <time>1970-01-01T09:39:07.145Z</time>
    </trkpt>
    <trkpt lat="56.397757" lon="60.777481">
        <ele>265.3</ele>
        <time>1970-01-01T09:39:08.145Z</time>
    </trkpt>
    <trkpt lat="56.397737" lon="60.777445">
        <ele>265.3</ele>
        <time>1970-01-01T09:39:09.145Z</time>
    </trkpt>
    <trkpt lat="56.397717" lon="60.7774">
        <ele>265.3</ele>
        <time>1970-01-01T09:39:10.145Z</time>
    </trkpt>
    <trkpt lat="56.397698" lon="60.777353">
        <ele>265.3</ele>
        <time>1970-01-01T09:39:11.145Z</time>
    </trkpt>
    <trkpt lat="56.397676" lon="60.7773">
        <ele>265.3</ele>
        <time>1970-01-01T09:39:12.145Z</time>
    </trkpt>
    <trkpt lat="56.397664" lon="60.777246">
        <ele>265.3</ele>
        <time>1970-01-01T09:39:13.145Z</time>
    </trkpt>
    <trkpt lat="56.397635" lon="60.777187">
        <ele>265.3</ele>
        <time>1970-01-01T09:39:14.145Z</time>
    </trkpt>
    <trkpt lat="56.397616" lon="60.777137">
        <ele>265.3</ele>
        <time>1970-01-01T09:39:15.145Z</time>
    </trkpt>
    <trkpt lat="56.397601" lon="60.777089">
        <ele>265.3</ele>
        <time>1970-01-01T09:39:16.145Z</time>
    </trkpt>
    <trkpt lat="56.397582" lon="60.777051">
        <ele>265.3</ele>
        <time>1970-01-01T09:39:17.145Z</time>
    </trkpt>
    <trkpt lat="56.397565" lon="60.777006">
        <ele>265.2</ele>
        <time>1970-01-01T09:39:18.145Z</time>
    </trkpt>
    <trkpt lat="56.397556" lon="60.776955">
        <ele>265.2</ele>
        <time>1970-01-01T09:39:19.145Z</time>
    </trkpt>
    <trkpt lat="56.39754" lon="60.776897">
        <ele>265.2</ele>
        <time>1970-01-01T09:39:20.145Z</time>
    </trkpt>
    <trkpt lat="56.39751" lon="60.77685">
        <ele>265.2</ele>
        <time>1970-01-01T09:39:21.145Z</time>
    </trkpt>
    <trkpt lat="56.397487" lon="60.776794">
        <ele>265.2</ele>
        <time>1970-01-01T09:39:22.145Z</time>
    </trkpt>
    <trkpt lat="56.397478" lon="60.776773">
        <ele>265.2</ele>
        <time>1970-01-01T09:39:23.145Z</time>
    </trkpt>
    <trkpt lat="56.397453" lon="60.776726">
        <ele>265.2</ele>
        <time>1970-01-01T09:39:24.145Z</time>
    </trkpt>
    <trkpt lat="56.397428" lon="60.776681">
        <ele>265.2</ele>
        <time>1970-01-01T09:39:25.145Z</time>
    </trkpt>
    <trkpt lat="56.397416" lon="60.77662">
        <ele>265.2</ele>
        <time>1970-01-01T09:39:26.145Z</time>
    </trkpt>
    <trkpt lat="56.397395" lon="60.776575">
        <ele>265.2</ele>
        <time>1970-01-01T09:39:27.145Z</time>
    </trkpt>
    <trkpt lat="56.397368" lon="60.776522">
        <ele>265.2</ele>
        <time>1970-01-01T09:39:28.145Z</time>
    </trkpt>
    <trkpt lat="56.397348" lon="60.776489">
        <ele>265.2</ele>
        <time>1970-01-01T09:39:29.145Z</time>
    </trkpt>
    <trkpt lat="56.397339" lon="60.776465">
        <ele>265.2</ele>
        <time>1970-01-01T09:39:30.145Z</time>
    </trkpt>
    <trkpt lat="56.397329" lon="60.776441">
        <ele>265.2</ele>
        <time>1970-01-01T09:39:31.145Z</time>
    </trkpt>
    <trkpt lat="56.397298" lon="60.776369">
        <ele>265.1</ele>
        <time>1970-01-01T09:39:33.145Z</time>
    </trkpt>
    <trkpt lat="56.397285" lon="60.776349">
        <ele>265.1</ele>
        <time>1970-01-01T09:39:34.145Z</time>
    </trkpt>
    <trkpt lat="56.397255" lon="60.776294">
        <ele>265.1</ele>
        <time>1970-01-01T09:39:35.145Z</time>
    </trkpt>
    <trkpt lat="56.397242" lon="60.776276">
        <ele>265.1</ele>
        <time>1970-01-01T09:39:36.145Z</time>
    </trkpt>
    <trkpt lat="56.397212" lon="60.776224">
        <ele>265.1</ele>
        <time>1970-01-01T09:39:37.145Z</time>
    </trkpt>
    <trkpt lat="56.397195" lon="60.776183">
        <ele>265.1</ele>
        <time>1970-01-01T09:39:38.145Z</time>
    </trkpt>
    <trkpt lat="56.397175" lon="60.776149">
        <ele>265.1</ele>
        <time>1970-01-01T09:39:39.145Z</time>
    </trkpt>
    <trkpt lat="56.397157" lon="60.77611">
        <ele>265.1</ele>
        <time>1970-01-01T09:39:40.145Z</time>
    </trkpt>
    <trkpt lat="56.397149" lon="60.776089">
        <ele>265.1</ele>
        <time>1970-01-01T09:39:41.145Z</time>
    </trkpt>
    <trkpt lat="56.397121" lon="60.77604">
        <ele>265.1</ele>
        <time>1970-01-01T09:39:42.145Z</time>
    </trkpt>
    <trkpt lat="56.397104" lon="60.776002">
        <ele>265.1</ele>
        <time>1970-01-01T09:39:43.145Z</time>
    </trkpt>
    <trkpt lat="56.397083" lon="60.77596">
        <ele>265.1</ele>
        <time>1970-01-01T09:39:44.145Z</time>
    </trkpt>
    <trkpt lat="56.397073" lon="60.775941">
        <ele>265.1</ele>
        <time>1970-01-01T09:39:45.145Z</time>
    </trkpt>
    <trkpt lat="56.397046" lon="60.77589">
        <ele>265.1</ele>
        <time>1970-01-01T09:39:46.145Z</time>
    </trkpt>
    <trkpt lat="56.397018" lon="60.775859">
        <ele>265.1</ele>
        <time>1970-01-01T09:39:47.145Z</time>
    </trkpt>
    <trkpt lat="56.396997" lon="60.775824">
        <ele>265.1</ele>
        <time>1970-01-01T09:39:48.145Z</time>
    </trkpt>
    <trkpt lat="56.396987" lon="60.775809">
        <ele>265.1</ele>
        <time>1970-01-01T09:39:49.145Z</time>
    </trkpt>
    <trkpt lat="56.396957" lon="60.77577">
        <ele>265.0</ele>
        <time>1970-01-01T09:39:50.145Z</time>
    </trkpt>
    <trkpt lat="56.396938" lon="60.775732">
        <ele>265.0</ele>
        <time>1970-01-01T09:39:51.145Z</time>
    </trkpt>
    <trkpt lat="56.39693" lon="60.775714">
        <ele>265.0</ele>
        <time>1970-01-01T09:39:52.145Z</time>
    </trkpt>
    <trkpt lat="56.396902" lon="60.775664">
        <ele>265.0</ele>
        <time>1970-01-01T09:39:53.145Z</time>
    </trkpt>
    <trkpt lat="56.39688" lon="60.775627">
        <ele>265.0</ele>
        <time>1970-01-01T09:39:54.145Z</time>
    </trkpt>
    <trkpt lat="56.396854" lon="60.775588">
        <ele>265.0</ele>
        <time>1970-01-01T09:39:55.145Z</time>
    </trkpt>
    <trkpt lat="56.396825" lon="60.775556">
        <ele>265.0</ele>
        <time>1970-01-01T09:39:56.145Z</time>
    </trkpt>
    <trkpt lat="56.396801" lon="60.775503">
        <ele>265.0</ele>
        <time>1970-01-01T09:39:57.145Z</time>
    </trkpt>
    <trkpt lat="56.396792" lon="60.775482">
        <ele>265.0</ele>
        <time>1970-01-01T09:39:58.145Z</time>
    </trkpt>
    <trkpt lat="56.396765" lon="60.775423">
        <ele>265.0</ele>
        <time>1970-01-01T09:39:59.145Z</time>
    </trkpt>
    <trkpt lat="56.396742" lon="60.775387">
        <ele>265.0</ele>
        <time>1970-01-01T09:40:00.145Z</time>
    </trkpt>
    <trkpt lat="56.396735" lon="60.775369">
        <ele>265.0</ele>
        <time>1970-01-01T09:40:01.145Z</time>
    </trkpt>
    <trkpt lat="56.396713" lon="60.775311">
        <ele>265.0</ele>
        <time>1970-01-01T09:40:02.145Z</time>
    </trkpt>
    <trkpt lat="56.396689" lon="60.775277">
        <ele>265.0</ele>
        <time>1970-01-01T09:40:03.145Z</time>
    </trkpt>
    <trkpt lat="56.396681" lon="60.775261">
        <ele>265.0</ele>
        <time>1970-01-01T09:40:04.145Z</time>
    </trkpt>
    <trkpt lat="56.396658" lon="60.775229">
        <ele>264.9</ele>
        <time>1970-01-01T09:40:05.145Z</time>
    </trkpt>
    <trkpt lat="56.396638" lon="60.775195">
        <ele>264.9</ele>
        <time>1970-01-01T09:40:06.145Z</time>
    </trkpt>
    <trkpt lat="56.396615" lon="60.775166">
        <ele>264.9</ele>
        <time>1970-01-01T09:40:07.145Z</time>
    </trkpt>
    <trkpt lat="56.396598" lon="60.775123">
        <ele>264.9</ele>
        <time>1970-01-01T09:40:08.145Z</time>
    </trkpt>
    <trkpt lat="56.396565" lon="60.775068">
        <ele>264.9</ele>
        <time>1970-01-01T09:40:09.145Z</time>
    </trkpt>
    <trkpt lat="56.396536" lon="60.775025">
        <ele>264.9</ele>
        <time>1970-01-01T09:40:10.145Z</time>
    </trkpt>
    <trkpt lat="56.396523" lon="60.77501">
        <ele>264.9</ele>
        <time>1970-01-01T09:40:11.145Z</time>
    </trkpt>
    <trkpt lat="56.396493" lon="60.774963">
        <ele>264.9</ele>
        <time>1970-01-01T09:40:12.145Z</time>
    </trkpt>
    <trkpt lat="56.396469" lon="60.774934">
        <ele>264.9</ele>
        <time>1970-01-01T09:40:13.145Z</time>
    </trkpt>
    <trkpt lat="56.396435" lon="60.774892">
        <ele>264.9</ele>
        <time>1970-01-01T09:40:14.145Z</time>
    </trkpt>
    <trkpt lat="56.396423" lon="60.774884">
        <ele>264.9</ele>
        <time>1970-01-01T09:40:15.145Z</time>
    </trkpt>
    <trkpt lat="56.39639" lon="60.774849">
        <ele>264.9</ele>
        <time>1970-01-01T09:40:16.145Z</time>
    </trkpt>
    <trkpt lat="56.396363" lon="60.774784">
        <ele>264.9</ele>
        <time>1970-01-01T09:40:17.145Z</time>
    </trkpt>
    <trkpt lat="56.396336" lon="60.774745">
        <ele>264.9</ele>
        <time>1970-01-01T09:40:18.145Z</time>
    </trkpt>
    <trkpt lat="56.396315" lon="60.774709">
        <ele>264.9</ele>
        <time>1970-01-01T09:40:19.145Z</time>
    </trkpt>
    <trkpt lat="56.396289" lon="60.774677">
        <ele>264.8</ele>
        <time>1970-01-01T09:40:20.145Z</time>
    </trkpt>
    <trkpt lat="56.396266" lon="60.774636">
        <ele>264.8</ele>
        <time>1970-01-01T09:40:21.145Z</time>
    </trkpt>
    <trkpt lat="56.396241" lon="60.774596">
        <ele>264.8</ele>
        <time>1970-01-01T09:40:22.145Z</time>
    </trkpt>
    <trkpt lat="56.396231" lon="60.774579">
        <ele>264.8</ele>
        <time>1970-01-01T09:40:23.145Z</time>
    </trkpt>
    <trkpt lat="56.396205" lon="60.774536">
        <ele>264.8</ele>
        <time>1970-01-01T09:40:24.145Z</time>
    </trkpt>
    <trkpt lat="56.39619" lon="60.774523">
        <ele>264.8</ele>
        <time>1970-01-01T09:40:25.145Z</time>
    </trkpt>
    <trkpt lat="56.396161" lon="60.774493">
        <ele>264.8</ele>
        <time>1970-01-01T09:40:26.145Z</time>
    </trkpt>
    <trkpt lat="56.396146" lon="60.774473">
        <ele>264.8</ele>
        <time>1970-01-01T09:40:27.145Z</time>
    </trkpt>
    <trkpt lat="56.396139" lon="60.774442">
        <ele>264.8</ele>
        <time>1970-01-01T09:40:28.145Z</time>
    </trkpt>
    <trkpt lat="56.396122" lon="60.774399">
        <ele>264.8</ele>
        <time>1970-01-01T09:40:29.145Z</time>
    </trkpt>
    <trkpt lat="56.396113" lon="60.77437">
        <ele>264.8</ele>
        <time>1970-01-01T09:40:30.145Z</time>
    </trkpt>
    <trkpt lat="56.39609" lon="60.774301">
        <ele>264.8</ele>
        <time>1970-01-01T09:40:31.145Z</time>
    </trkpt>
    <trkpt lat="56.39607" lon="60.774257">
        <ele>264.8</ele>
        <time>1970-01-01T09:40:32.145Z</time>
    </trkpt>
    <trkpt lat="56.396055" lon="60.774211">
        <ele>264.8</ele>
        <time>1970-01-01T09:40:33.145Z</time>
    </trkpt>
    <trkpt lat="56.396048" lon="60.774191">
        <ele>264.8</ele>
        <time>1970-01-01T09:40:34.145Z</time>
    </trkpt>
    <trkpt lat="56.396024" lon="60.774142">
        <ele>264.8</ele>
        <time>1970-01-01T09:40:35.145Z</time>
    </trkpt>
    <trkpt lat="56.395996" lon="60.774102">
        <ele>264.7</ele>
        <time>1970-01-01T09:40:36.145Z</time>
    </trkpt>
    <trkpt lat="56.39598" lon="60.774057">
        <ele>264.7</ele>
        <time>1970-01-01T09:40:37.145Z</time>
    </trkpt>
    <trkpt lat="56.395955" lon="60.774003">
        <ele>264.7</ele>
        <time>1970-01-01T09:40:38.145Z</time>
    </trkpt>
    <trkpt lat="56.395944" lon="60.773989">
        <ele>264.7</ele>
        <time>1970-01-01T09:40:39.145Z</time>
    </trkpt>
    <trkpt lat="56.395916" lon="60.773947">
        <ele>264.7</ele>
        <time>1970-01-01T09:40:40.145Z</time>
    </trkpt>
    <trkpt lat="56.395895" lon="60.773912">
        <ele>264.7</ele>
        <time>1970-01-01T09:40:41.145Z</time>
    </trkpt>
    <trkpt lat="56.395868" lon="60.773871">
        <ele>264.7</ele>
        <time>1970-01-01T09:40:42.145Z</time>
    </trkpt>
    <trkpt lat="56.395841" lon="60.773838">
        <ele>264.7</ele>
        <time>1970-01-01T09:40:43.145Z</time>
    </trkpt>
    <trkpt lat="56.395811" lon="60.773796">
        <ele>264.7</ele>
        <time>1970-01-01T09:40:44.145Z</time>
    </trkpt>
    <trkpt lat="56.395783" lon="60.773761">
        <ele>264.7</ele>
        <time>1970-01-01T09:40:45.145Z</time>
    </trkpt>
    <trkpt lat="56.395752" lon="60.773715">
        <ele>264.7</ele>
        <time>1970-01-01T09:40:46.145Z</time>
    </trkpt>
    <trkpt lat="56.395733" lon="60.773672">
        <ele>264.7</ele>
        <time>1970-01-01T09:40:47.145Z</time>
    </trkpt>
    <trkpt lat="56.395689" lon="60.77359">
        <ele>264.7</ele>
        <time>1970-01-01T09:40:48.145Z</time>
    </trkpt>
    <trkpt lat="56.395657" lon="60.773559">
        <ele>264.6</ele>
        <time>1970-01-01T09:40:49.145Z</time>
    </trkpt>
    <trkpt lat="56.395629" lon="60.773521">
        <ele>264.6</ele>
        <time>1970-01-01T09:40:50.145Z</time>
    </trkpt>
    <trkpt lat="56.395604" lon="60.773485">
        <ele>264.6</ele>
        <time>1970-01-01T09:40:51.145Z</time>
    </trkpt>
    <trkpt lat="56.39559" lon="60.77347">
        <ele>264.6</ele>
        <time>1970-01-01T09:40:52.145Z</time>
    </trkpt>
    <trkpt lat="56.395565" lon="60.773425">
        <ele>264.6</ele>
        <time>1970-01-01T09:40:53.145Z</time>
    </trkpt>
    <trkpt lat="56.395535" lon="60.773394">
        <ele>264.6</ele>
        <time>1970-01-01T09:40:54.145Z</time>
    </trkpt>
    <trkpt lat="56.395519" lon="60.773382">
        <ele>264.6</ele>
        <time>1970-01-01T09:40:55.145Z</time>
    </trkpt>
    <trkpt lat="56.395484" lon="60.773337">
        <ele>264.6</ele>
        <time>1970-01-01T09:40:56.145Z</time>
    </trkpt>
    <trkpt lat="56.395459" lon="60.773292">
        <ele>264.6</ele>
        <time>1970-01-01T09:40:57.145Z</time>
    </trkpt>
    <trkpt lat="56.395432" lon="60.773258">
        <ele>264.6</ele>
        <time>1970-01-01T09:40:58.145Z</time>
    </trkpt>
    <trkpt lat="56.395407" lon="60.77323">
        <ele>264.6</ele>
        <time>1970-01-01T09:40:59.145Z</time>
    </trkpt>
    <trkpt lat="56.395395" lon="60.773216">
        <ele>264.6</ele>
        <time>1970-01-01T09:41:00.145Z</time>
    </trkpt>
    <trkpt lat="56.395364" lon="60.773174">
        <ele>264.6</ele>
        <time>1970-01-01T09:41:01.145Z</time>
    </trkpt>
    <trkpt lat="56.395335" lon="60.773146">
        <ele>264.6</ele>
        <time>1970-01-01T09:41:02.145Z</time>
    </trkpt>
    <trkpt lat="56.395304" lon="60.773112">
        <ele>264.6</ele>
        <time>1970-01-01T09:41:03.145Z</time>
    </trkpt>
    <trkpt lat="56.395276" lon="60.773082">
        <ele>264.5</ele>
        <time>1970-01-01T09:41:04.145Z</time>
    </trkpt>
    <trkpt lat="56.395246" lon="60.773051">
        <ele>264.5</ele>
        <time>1970-01-01T09:41:05.145Z</time>
    </trkpt>
    <trkpt lat="56.395217" lon="60.773018">
        <ele>264.5</ele>
        <time>1970-01-01T09:41:06.145Z</time>
    </trkpt>
    <trkpt lat="56.395186" lon="60.772976">
        <ele>264.5</ele>
        <time>1970-01-01T09:41:07.145Z</time>
    </trkpt>
    <trkpt lat="56.395156" lon="60.772924">
        <ele>264.5</ele>
        <time>1970-01-01T09:41:08.145Z</time>
    </trkpt>
    <trkpt lat="56.395132" lon="60.772887">
        <ele>264.5</ele>
        <time>1970-01-01T09:41:09.145Z</time>
    </trkpt>
    <trkpt lat="56.395103" lon="60.772839">
        <ele>264.5</ele>
        <time>1970-01-01T09:41:10.145Z</time>
    </trkpt>
    <trkpt lat="56.395075" lon="60.772802">
        <ele>264.5</ele>
        <time>1970-01-01T09:41:11.145Z</time>
    </trkpt>
    <trkpt lat="56.395069" lon="60.772787">
        <ele>264.5</ele>
        <time>1970-01-01T09:41:12.145Z</time>
    </trkpt>
    <trkpt lat="56.395043" lon="60.772743">
        <ele>264.5</ele>
        <time>1970-01-01T09:41:13.145Z</time>
    </trkpt>
    <trkpt lat="56.395017" lon="60.772707">
        <ele>264.5</ele>
        <time>1970-01-01T09:41:14.145Z</time>
    </trkpt>
    <trkpt lat="56.395008" lon="60.772689">
        <ele>264.5</ele>
        <time>1970-01-01T09:41:15.145Z</time>
    </trkpt>
    <trkpt lat="56.394977" lon="60.772646">
        <ele>264.5</ele>
        <time>1970-01-01T09:41:16.145Z</time>
    </trkpt>
    <trkpt lat="56.394953" lon="60.772599">
        <ele>264.5</ele>
        <time>1970-01-01T09:41:17.145Z</time>
    </trkpt>
    <trkpt lat="56.394925" lon="60.772563">
        <ele>264.4</ele>
        <time>1970-01-01T09:41:18.145Z</time>
    </trkpt>
    <trkpt lat="56.394912" lon="60.772551">
        <ele>264.4</ele>
        <time>1970-01-01T09:41:19.145Z</time>
    </trkpt>
    <trkpt lat="56.394879" lon="60.772509">
        <ele>264.4</ele>
        <time>1970-01-01T09:41:20.145Z</time>
    </trkpt>
    <trkpt lat="56.394867" lon="60.772493">
        <ele>264.4</ele>
        <time>1970-01-01T09:41:21.145Z</time>
    </trkpt>
    <trkpt lat="56.394834" lon="60.772447">
        <ele>264.4</ele>
        <time>1970-01-01T09:41:22.145Z</time>
    </trkpt>
    <trkpt lat="56.394823" lon="60.772434">
        <ele>264.4</ele>
        <time>1970-01-01T09:41:23.145Z</time>
    </trkpt>
    <trkpt lat="56.394792" lon="60.772398">
        <ele>264.4</ele>
        <time>1970-01-01T09:41:24.145Z</time>
    </trkpt>
    <trkpt lat="56.394759" lon="60.772362">
        <ele>264.4</ele>
        <time>1970-01-01T09:41:25.145Z</time>
    </trkpt>
    <trkpt lat="56.394726" lon="60.772334">
        <ele>264.4</ele>
        <time>1970-01-01T09:41:26.145Z</time>
    </trkpt>
    <trkpt lat="56.394704" lon="60.772303">
        <ele>264.4</ele>
        <time>1970-01-01T09:41:27.145Z</time>
    </trkpt>
    <trkpt lat="56.394672" lon="60.772259">
        <ele>264.4</ele>
        <time>1970-01-01T09:41:28.145Z</time>
    </trkpt>
    <trkpt lat="56.39465" lon="60.77223">
        <ele>264.4</ele>
        <time>1970-01-01T09:41:29.145Z</time>
    </trkpt>
    <trkpt lat="56.394626" lon="60.772191">
        <ele>264.4</ele>
        <time>1970-01-01T09:41:30.145Z</time>
    </trkpt>
    <trkpt lat="56.394602" lon="60.772167">
        <ele>264.4</ele>
        <time>1970-01-01T09:41:31.145Z</time>
    </trkpt>
    <trkpt lat="56.394594" lon="60.772154">
        <ele>264.4</ele>
        <time>1970-01-01T09:41:32.145Z</time>
    </trkpt>
    <trkpt lat="56.394563" lon="60.772115">
        <ele>264.3</ele>
        <time>1970-01-01T09:41:33.145Z</time>
    </trkpt>
    <trkpt lat="56.394549" lon="60.772099">
        <ele>264.3</ele>
        <time>1970-01-01T09:41:34.145Z</time>
    </trkpt>
    <trkpt lat="56.394518" lon="60.772062">
        <ele>264.3</ele>
        <time>1970-01-01T09:41:35.145Z</time>
    </trkpt>
    <trkpt lat="56.394502" lon="60.772038">
        <ele>264.3</ele>
        <time>1970-01-01T09:41:36.145Z</time>
    </trkpt>
    <trkpt lat="56.39449" lon="60.772025">
        <ele>264.3</ele>
        <time>1970-01-01T09:41:37.145Z</time>
    </trkpt>
    <trkpt lat="56.394474" lon="60.771997">
        <ele>264.3</ele>
        <time>1970-01-01T09:41:39.145Z</time>
    </trkpt>
    <trkpt lat="56.39447" lon="60.771993">
        <ele>264.3</ele>
        <time>1970-01-01T09:41:40.145Z</time>
    </trkpt>
    <trkpt lat="56.394463" lon="60.771995">
        <ele>264.3</ele>
        <time>1970-01-01T09:41:41.145Z</time>
    </trkpt>
    <trkpt lat="56.394458" lon="60.771986">
        <ele>264.3</ele>
        <time>1970-01-01T09:41:42.145Z</time>
    </trkpt>
    <trkpt lat="56.394452" lon="60.771976">
        <ele>264.3</ele>
        <time>1970-01-01T09:41:43.145Z</time>
    </trkpt>
    <trkpt lat="56.394424" lon="60.771951">
        <ele>264.3</ele>
        <time>1970-01-01T09:41:44.145Z</time>
    </trkpt>
    <trkpt lat="56.394397" lon="60.771925">
        <ele>264.3</ele>
        <time>1970-01-01T09:41:45.145Z</time>
    </trkpt>
    <trkpt lat="56.394385" lon="60.771907">
        <ele>264.3</ele>
        <time>1970-01-01T09:41:46.145Z</time>
    </trkpt>
    <trkpt lat="56.394351" lon="60.771864">
        <ele>264.3</ele>
        <time>1970-01-01T09:41:47.145Z</time>
    </trkpt>
    <trkpt lat="56.39432" lon="60.771844">
        <ele>264.3</ele>
        <time>1970-01-01T09:41:48.145Z</time>
    </trkpt>
    <trkpt lat="56.394309" lon="60.771832">
        <ele>264.3</ele>
        <time>1970-01-01T09:41:49.145Z</time>
    </trkpt>
    <trkpt lat="56.394277" lon="60.771806">
        <ele>264.3</ele>
        <time>1970-01-01T09:41:50.145Z</time>
    </trkpt>
    <trkpt lat="56.394252" lon="60.771784">
        <ele>264.3</ele>
        <time>1970-01-01T09:41:51.145Z</time>
    </trkpt>
    <trkpt lat="56.394222" lon="60.771771">
        <ele>264.3</ele>
        <time>1970-01-01T09:41:52.145Z</time>
    </trkpt>
    <trkpt lat="56.394172" lon="60.771738">
        <ele>264.3</ele>
        <time>1970-01-01T09:41:53.145Z</time>
    </trkpt>
    <trkpt lat="56.394158" lon="60.771734">
        <ele>264.2</ele>
        <time>1970-01-01T09:41:54.145Z</time>
    </trkpt>
    <trkpt lat="56.39412" lon="60.771717">
        <ele>264.2</ele>
        <time>1970-01-01T09:41:55.145Z</time>
    </trkpt>
    <trkpt lat="56.394095" lon="60.771689">
        <ele>264.2</ele>
        <time>1970-01-01T09:41:56.145Z</time>
    </trkpt>
    <trkpt lat="56.394071" lon="60.771669">
        <ele>264.2</ele>
        <time>1970-01-01T09:41:57.145Z</time>
    </trkpt>
    <trkpt lat="56.39406" lon="60.771661">
        <ele>264.2</ele>
        <time>1970-01-01T09:41:58.145Z</time>
    </trkpt>
    <trkpt lat="56.394027" lon="60.771632">
        <ele>264.2</ele>
        <time>1970-01-01T09:41:59.145Z</time>
    </trkpt>
    <trkpt lat="56.393999" lon="60.771608">
        <ele>264.2</ele>
        <time>1970-01-01T09:42:00.145Z</time>
    </trkpt>
    <trkpt lat="56.393976" lon="60.771578">
        <ele>264.2</ele>
        <time>1970-01-01T09:42:01.145Z</time>
    </trkpt>
    <trkpt lat="56.39396" lon="60.771566">
        <ele>264.2</ele>
        <time>1970-01-01T09:42:02.145Z</time>
    </trkpt>
    <trkpt lat="56.393929" lon="60.771538">
        <ele>264.2</ele>
        <time>1970-01-01T09:42:03.145Z</time>
    </trkpt>
    <trkpt lat="56.393896" lon="60.771519">
        <ele>264.2</ele>
        <time>1970-01-01T09:42:04.145Z</time>
    </trkpt>
    <trkpt lat="56.393851" lon="60.771488">
        <ele>264.2</ele>
        <time>1970-01-01T09:42:05.145Z</time>
    </trkpt>
    <trkpt lat="56.393819" lon="60.771488">
        <ele>264.2</ele>
        <time>1970-01-01T09:42:06.145Z</time>
    </trkpt>
    <trkpt lat="56.39378" lon="60.771473">
        <ele>264.2</ele>
        <time>1970-01-01T09:42:07.145Z</time>
    </trkpt>
    <trkpt lat="56.393748" lon="60.771475">
        <ele>264.2</ele>
        <time>1970-01-01T09:42:08.145Z</time>
    </trkpt>
    <trkpt lat="56.393731" lon="60.77147">
        <ele>264.1</ele>
        <time>1970-01-01T09:42:09.145Z</time>
    </trkpt>
    <trkpt lat="56.393694" lon="60.771455">
        <ele>264.1</ele>
        <time>1970-01-01T09:42:10.145Z</time>
    </trkpt>
    <trkpt lat="56.393667" lon="60.771448">
        <ele>264.1</ele>
        <time>1970-01-01T09:42:11.145Z</time>
    </trkpt>
    <trkpt lat="56.393634" lon="60.771437">
        <ele>264.1</ele>
        <time>1970-01-01T09:42:12.145Z</time>
    </trkpt>
    <trkpt lat="56.393602" lon="60.77143">
        <ele>264.1</ele>
        <time>1970-01-01T09:42:13.145Z</time>
    </trkpt>
    <trkpt lat="56.393575" lon="60.771418">
        <ele>264.1</ele>
        <time>1970-01-01T09:42:14.145Z</time>
    </trkpt>
    <trkpt lat="56.393564" lon="60.771405">
        <ele>264.1</ele>
        <time>1970-01-01T09:42:15.145Z</time>
    </trkpt>
    <trkpt lat="56.39353" lon="60.77137">
        <ele>264.1</ele>
        <time>1970-01-01T09:42:16.145Z</time>
    </trkpt>
    <trkpt lat="56.393518" lon="60.771362">
        <ele>264.1</ele>
        <time>1970-01-01T09:42:17.145Z</time>
    </trkpt>
    <trkpt lat="56.393484" lon="60.771346">
        <ele>264.1</ele>
        <time>1970-01-01T09:42:18.145Z</time>
    </trkpt>
    <trkpt lat="56.393477" lon="60.771334">
        <ele>264.1</ele>
        <time>1970-01-01T09:42:19.145Z</time>
    </trkpt>
    <trkpt lat="56.393449" lon="60.771308">
        <ele>264.1</ele>
        <time>1970-01-01T09:42:20.145Z</time>
    </trkpt>
    <trkpt lat="56.393421" lon="60.771297">
        <ele>264.1</ele>
        <time>1970-01-01T09:42:21.145Z</time>
    </trkpt>
    <trkpt lat="56.393387" lon="60.771288">
        <ele>264.1</ele>
        <time>1970-01-01T09:42:22.145Z</time>
    </trkpt>
    <trkpt lat="56.393378" lon="60.771286">
        <ele>264.1</ele>
        <time>1970-01-01T09:42:23.145Z</time>
    </trkpt>
    <trkpt lat="56.393353" lon="60.771257">
        <ele>264.1</ele>
        <time>1970-01-01T09:42:24.145Z</time>
    </trkpt>
    <trkpt lat="56.393321" lon="60.771236">
        <ele>264.1</ele>
        <time>1970-01-01T09:42:25.145Z</time>
    </trkpt>
    <trkpt lat="56.393291" lon="60.771218">
        <ele>264.0</ele>
        <time>1970-01-01T09:42:26.145Z</time>
    </trkpt>
    <trkpt lat="56.393283" lon="60.771212">
        <ele>264.0</ele>
        <time>1970-01-01T09:42:27.145Z</time>
    </trkpt>
    <trkpt lat="56.393256" lon="60.771187">
        <ele>264.0</ele>
        <time>1970-01-01T09:42:28.145Z</time>
    </trkpt>
    <trkpt lat="56.393231" lon="60.771162">
        <ele>264.0</ele>
        <time>1970-01-01T09:42:29.145Z</time>
    </trkpt>
    <trkpt lat="56.393207" lon="60.771131">
        <ele>264.0</ele>
        <time>1970-01-01T09:42:30.145Z</time>
    </trkpt>
    <trkpt lat="56.393185" lon="60.771077">
        <ele>264.0</ele>
        <time>1970-01-01T09:42:31.145Z</time>
    </trkpt>
    <trkpt lat="56.393162" lon="60.771049">
        <ele>264.0</ele>
        <time>1970-01-01T09:42:32.145Z</time>
    </trkpt>
    <trkpt lat="56.393149" lon="60.771043">
        <ele>264.0</ele>
        <time>1970-01-01T09:42:33.145Z</time>
    </trkpt>
    <trkpt lat="56.39311" lon="60.771026">
        <ele>263.9</ele>
        <time>1970-01-01T09:42:34.145Z</time>
    </trkpt>
    <trkpt lat="56.393097" lon="60.771024">
        <ele>263.9</ele>
        <time>1970-01-01T09:42:35.145Z</time>
    </trkpt>
    <trkpt lat="56.393057" lon="60.771019">
        <ele>263.9</ele>
        <time>1970-01-01T09:42:36.145Z</time>
    </trkpt>
    <trkpt lat="56.393046" lon="60.771023">
        <ele>263.9</ele>
        <time>1970-01-01T09:42:37.145Z</time>
    </trkpt>
    <trkpt lat="56.393017" lon="60.771026">
        <ele>263.9</ele>
        <time>1970-01-01T09:42:38.145Z</time>
    </trkpt>
    <trkpt lat="56.39299" lon="60.77101">
        <ele>263.9</ele>
        <time>1970-01-01T09:42:39.145Z</time>
    </trkpt>
    <trkpt lat="56.392977" lon="60.77101">
        <ele>263.9</ele>
        <time>1970-01-01T09:42:40.145Z</time>
    </trkpt>
    <trkpt lat="56.392944" lon="60.771">
        <ele>263.8</ele>
        <time>1970-01-01T09:42:41.145Z</time>
    </trkpt>
    <trkpt lat="56.392917" lon="60.770976">
        <ele>263.8</ele>
        <time>1970-01-01T09:42:42.145Z</time>
    </trkpt>
    <trkpt lat="56.392888" lon="60.770971">
        <ele>263.8</ele>
        <time>1970-01-01T09:42:43.145Z</time>
    </trkpt>
    <trkpt lat="56.392871" lon="60.770961">
        <ele>263.8</ele>
        <time>1970-01-01T09:42:44.145Z</time>
    </trkpt>
    <trkpt lat="56.392835" lon="60.770932">
        <ele>263.8</ele>
        <time>1970-01-01T09:42:45.145Z</time>
    </trkpt>
    <trkpt lat="56.392821" lon="60.77092">
        <ele>263.7</ele>
        <time>1970-01-01T09:42:46.145Z</time>
    </trkpt>
    <trkpt lat="56.392785" lon="60.770888">
        <ele>263.7</ele>
        <time>1970-01-01T09:42:47.145Z</time>
    </trkpt>
    <trkpt lat="56.392754" lon="60.770874">
        <ele>263.7</ele>
        <time>1970-01-01T09:42:48.145Z</time>
    </trkpt>
    <trkpt lat="56.392723" lon="60.770853">
        <ele>263.7</ele>
        <time>1970-01-01T09:42:49.145Z</time>
    </trkpt>
    <trkpt lat="56.392687" lon="60.770825">
        <ele>263.6</ele>
        <time>1970-01-01T09:42:50.145Z</time>
    </trkpt>
    <trkpt lat="56.392657" lon="60.770801">
        <ele>263.6</ele>
        <time>1970-01-01T09:42:51.145Z</time>
    </trkpt>
    <trkpt lat="56.392627" lon="60.770776">
        <ele>263.6</ele>
        <time>1970-01-01T09:42:52.145Z</time>
    </trkpt>
    <trkpt lat="56.39261" lon="60.770768">
        <ele>263.6</ele>
        <time>1970-01-01T09:42:53.145Z</time>
    </trkpt>
    <trkpt lat="56.392571" lon="60.770744">
        <ele>263.6</ele>
        <time>1970-01-01T09:42:54.145Z</time>
    </trkpt>
    <trkpt lat="56.392532" lon="60.770731">
        <ele>263.5</ele>
        <time>1970-01-01T09:42:55.145Z</time>
    </trkpt>
    <trkpt lat="56.3925" lon="60.770731">
        <ele>263.5</ele>
        <time>1970-01-01T09:42:56.145Z</time>
    </trkpt>
    <trkpt lat="56.392467" lon="60.770716">
        <ele>263.5</ele>
        <time>1970-01-01T09:42:57.145Z</time>
    </trkpt>
    <trkpt lat="56.392423" lon="60.770702">
        <ele>263.5</ele>
        <time>1970-01-01T09:42:58.145Z</time>
    </trkpt>
    <trkpt lat="56.392393" lon="60.770704">
        <ele>263.4</ele>
        <time>1970-01-01T09:42:59.145Z</time>
    </trkpt>
    <trkpt lat="56.392373" lon="60.770704">
        <ele>263.4</ele>
        <time>1970-01-01T09:43:00.145Z</time>
    </trkpt>
    <trkpt lat="56.392328" lon="60.770707">
        <ele>263.4</ele>
        <time>1970-01-01T09:43:01.145Z</time>
    </trkpt>
    <trkpt lat="56.39231" lon="60.770705">
        <ele>263.4</ele>
        <time>1970-01-01T09:43:02.145Z</time>
    </trkpt>
    <trkpt lat="56.392275" lon="60.770687">
        <ele>263.4</ele>
        <time>1970-01-01T09:43:03.145Z</time>
    </trkpt>
    <trkpt lat="56.39224" lon="60.770679">
        <ele>263.3</ele>
        <time>1970-01-01T09:43:04.145Z</time>
    </trkpt>
    <trkpt lat="56.392221" lon="60.770671">
        <ele>263.3</ele>
        <time>1970-01-01T09:43:05.145Z</time>
    </trkpt>
    <trkpt lat="56.392177" lon="60.770667">
        <ele>263.3</ele>
        <time>1970-01-01T09:43:06.145Z</time>
    </trkpt>
    <trkpt lat="56.39215" lon="60.770665">
        <ele>263.3</ele>
        <time>1970-01-01T09:43:07.145Z</time>
    </trkpt>
    <trkpt lat="56.392117" lon="60.770659">
        <ele>263.3</ele>
        <time>1970-01-01T09:43:08.145Z</time>
    </trkpt>
    <trkpt lat="56.392103" lon="60.770654">
        <ele>263.2</ele>
        <time>1970-01-01T09:43:09.145Z</time>
    </trkpt>
    <trkpt lat="56.392066" lon="60.770646">
        <ele>263.2</ele>
        <time>1970-01-01T09:43:10.145Z</time>
    </trkpt>
    <trkpt lat="56.392038" lon="60.770658">
        <ele>263.2</ele>
        <time>1970-01-01T09:43:11.145Z</time>
    </trkpt>
    <trkpt lat="56.392008" lon="60.770635">
        <ele>263.2</ele>
        <time>1970-01-01T09:43:12.145Z</time>
    </trkpt>
    <trkpt lat="56.391977" lon="60.770646">
        <ele>263.2</ele>
        <time>1970-01-01T09:43:13.145Z</time>
    </trkpt>
    <trkpt lat="56.391936" lon="60.770642">
        <ele>263.1</ele>
        <time>1970-01-01T09:43:14.145Z</time>
    </trkpt>
    <trkpt lat="56.391908" lon="60.770628">
        <ele>263.1</ele>
        <time>1970-01-01T09:43:15.145Z</time>
    </trkpt>
    <trkpt lat="56.39188" lon="60.770624">
        <ele>263.1</ele>
        <time>1970-01-01T09:43:16.145Z</time>
    </trkpt>
    <trkpt lat="56.391841" lon="60.770619">
        <ele>263.1</ele>
        <time>1970-01-01T09:43:17.145Z</time>
    </trkpt>
    <trkpt lat="56.3918" lon="60.770608">
        <ele>263.0</ele>
        <time>1970-01-01T09:43:18.145Z</time>
    </trkpt>
    <trkpt lat="56.39177" lon="60.770601">
        <ele>263.0</ele>
        <time>1970-01-01T09:43:19.145Z</time>
    </trkpt>
    <trkpt lat="56.391737" lon="60.770602">
        <ele>263.0</ele>
        <time>1970-01-01T09:43:20.145Z</time>
    </trkpt>
    <trkpt lat="56.391699" lon="60.770611">
        <ele>263.0</ele>
        <time>1970-01-01T09:43:21.145Z</time>
    </trkpt>
    <trkpt lat="56.391687" lon="60.770614">
        <ele>263.0</ele>
        <time>1970-01-01T09:43:22.145Z</time>
    </trkpt>
    <trkpt lat="56.391657" lon="60.770622">
        <ele>262.9</ele>
        <time>1970-01-01T09:43:23.145Z</time>
    </trkpt>
    <trkpt lat="56.391627" lon="60.770616">
        <ele>262.9</ele>
        <time>1970-01-01T09:43:24.145Z</time>
    </trkpt>
    <trkpt lat="56.391614" lon="60.770615">
        <ele>262.9</ele>
        <time>1970-01-01T09:43:25.145Z</time>
    </trkpt>
    <trkpt lat="56.391588" lon="60.770605">
        <ele>262.9</ele>
        <time>1970-01-01T09:43:26.145Z</time>
    </trkpt>
    <trkpt lat="56.391571" lon="60.7706">
        <ele>262.9</ele>
        <time>1970-01-01T09:43:27.145Z</time>
    </trkpt>
    <trkpt lat="56.39156" lon="60.770593">
        <ele>262.9</ele>
        <time>1970-01-01T09:43:28.145Z</time>
    </trkpt>
    <trkpt lat="56.391546" lon="60.770588">
        <ele>262.9</ele>
        <time>1970-01-01T09:43:29.145Z</time>
    </trkpt>
    <trkpt lat="56.391509" lon="60.770569">
        <ele>262.8</ele>
        <time>1970-01-01T09:43:30.145Z</time>
    </trkpt>
    <trkpt lat="56.391497" lon="60.770566">
        <ele>262.8</ele>
        <time>1970-01-01T09:43:31.145Z</time>
    </trkpt>
    <trkpt lat="56.391466" lon="60.770558">
        <ele>262.8</ele>
        <time>1970-01-01T09:43:32.145Z</time>
    </trkpt>
    <trkpt lat="56.391453" lon="60.770558">
        <ele>262.8</ele>
        <time>1970-01-01T09:43:33.145Z</time>
    </trkpt>
    <trkpt lat="56.391415" lon="60.770553">
        <ele>262.8</ele>
        <time>1970-01-01T09:43:34.145Z</time>
    </trkpt>
    <trkpt lat="56.391374" lon="60.77055">
        <ele>262.8</ele>
        <time>1970-01-01T09:43:35.145Z</time>
    </trkpt>
    <trkpt lat="56.391338" lon="60.770553">
        <ele>262.7</ele>
        <time>1970-01-01T09:43:36.145Z</time>
    </trkpt>
    <trkpt lat="56.391308" lon="60.770571">
        <ele>262.7</ele>
        <time>1970-01-01T09:43:37.145Z</time>
    </trkpt>
    <trkpt lat="56.391279" lon="60.770583">
        <ele>262.7</ele>
        <time>1970-01-01T09:43:38.145Z</time>
    </trkpt>
    <trkpt lat="56.391264" lon="60.770587">
        <ele>262.7</ele>
        <time>1970-01-01T09:43:39.145Z</time>
    </trkpt>
    <trkpt lat="56.391225" lon="60.770589">
        <ele>262.7</ele>
        <time>1970-01-01T09:43:40.145Z</time>
    </trkpt>
    <trkpt lat="56.391194" lon="60.770597">
        <ele>262.6</ele>
        <time>1970-01-01T09:43:41.145Z</time>
    </trkpt>
    <trkpt lat="56.391162" lon="60.770595">
        <ele>262.6</ele>
        <time>1970-01-01T09:43:42.145Z</time>
    </trkpt>
    <trkpt lat="56.39115" lon="60.770599">
        <ele>262.6</ele>
        <time>1970-01-01T09:43:43.145Z</time>
    </trkpt>
    <trkpt lat="56.391115" lon="60.770609">
        <ele>262.6</ele>
        <time>1970-01-01T09:43:45.145Z</time>
    </trkpt>
    <trkpt lat="56.391086" lon="60.770619">
        <ele>262.6</ele>
        <time>1970-01-01T09:43:46.145Z</time>
    </trkpt>
    <trkpt lat="56.391073" lon="60.77063">
        <ele>262.5</ele>
        <time>1970-01-01T09:43:47.145Z</time>
    </trkpt>
    <trkpt lat="56.391039" lon="60.770668">
        <ele>262.5</ele>
        <time>1970-01-01T09:43:48.145Z</time>
    </trkpt>
    <trkpt lat="56.391027" lon="60.770677">
        <ele>262.5</ele>
        <time>1970-01-01T09:43:49.145Z</time>
    </trkpt>
    <trkpt lat="56.39099" lon="60.770696">
        <ele>262.5</ele>
        <time>1970-01-01T09:43:50.145Z</time>
    </trkpt>
    <trkpt lat="56.390979" lon="60.77071">
        <ele>262.5</ele>
        <time>1970-01-01T09:43:51.145Z</time>
    </trkpt>
    <trkpt lat="56.390951" lon="60.770743">
        <ele>262.5</ele>
        <time>1970-01-01T09:43:52.145Z</time>
    </trkpt>
    <trkpt lat="56.390916" lon="60.770776">
        <ele>262.4</ele>
        <time>1970-01-01T09:43:53.145Z</time>
    </trkpt>
    <trkpt lat="56.390884" lon="60.770813">
        <ele>262.4</ele>
        <time>1970-01-01T09:43:54.145Z</time>
    </trkpt>
    <trkpt lat="56.390873" lon="60.770833">
        <ele>262.4</ele>
        <time>1970-01-01T09:43:55.145Z</time>
    </trkpt>
    <trkpt lat="56.390852" lon="60.770883">
        <ele>264.4</ele>
        <time>1970-01-01T09:43:56.145Z</time>
    </trkpt>
    <trkpt lat="56.390842" lon="60.770929">
        <ele>264.4</ele>
        <time>1970-01-01T09:43:57.145Z</time>
    </trkpt>
    <trkpt lat="56.390824" lon="60.770975">
        <ele>264.4</ele>
        <time>1970-01-01T09:43:58.145Z</time>
    </trkpt>
    <trkpt lat="56.390813" lon="60.771027">
        <ele>264.4</ele>
        <time>1970-01-01T09:43:59.145Z</time>
    </trkpt>
    <trkpt lat="56.390801" lon="60.771072">
        <ele>265.4</ele>
        <time>1970-01-01T09:44:00.145Z</time>
    </trkpt>
    <trkpt lat="56.390798" lon="60.771094">
        <ele>265.4</ele>
        <time>1970-01-01T09:44:01.145Z</time>
    </trkpt>
    <trkpt lat="56.39079" lon="60.771161">
        <ele>265.4</ele>
        <time>1970-01-01T09:44:02.145Z</time>
    </trkpt>
    <trkpt lat="56.390782" lon="60.771178">
        <ele>265.4</ele>
        <time>1970-01-01T09:44:03.145Z</time>
    </trkpt>
    <trkpt lat="56.390767" lon="60.771239">
        <ele>265.4</ele>
        <time>1970-01-01T09:44:04.145Z</time>
    </trkpt>
    <trkpt lat="56.390752" lon="60.771291">
        <ele>265.4</ele>
        <time>1970-01-01T09:44:05.145Z</time>
    </trkpt>
    <trkpt lat="56.390745" lon="60.771315">
        <ele>265.4</ele>
        <time>1970-01-01T09:44:06.145Z</time>
    </trkpt>
    <trkpt lat="56.390721" lon="60.771374">
        <ele>266.4</ele>
        <time>1970-01-01T09:44:07.145Z</time>
    </trkpt>
    <trkpt lat="56.390714" lon="60.771391">
        <ele>266.4</ele>
        <time>1970-01-01T09:44:08.145Z</time>
    </trkpt>
    <trkpt lat="56.390692" lon="60.771442">
        <ele>266.4</ele>
        <time>1970-01-01T09:44:09.145Z</time>
    </trkpt>
    <trkpt lat="56.39066" lon="60.771469">
        <ele>266.4</ele>
        <time>1970-01-01T09:44:10.145Z</time>
    </trkpt>
    <trkpt lat="56.390642" lon="60.771526">
        <ele>266.4</ele>
        <time>1970-01-01T09:44:11.145Z</time>
    </trkpt>
    <trkpt lat="56.39062" lon="60.771564">
        <ele>266.4</ele>
        <time>1970-01-01T09:44:12.145Z</time>
    </trkpt>
    <trkpt lat="56.390619" lon="60.771585">
        <ele>266.4</ele>
        <time>1970-01-01T09:44:13.145Z</time>
    </trkpt>
    <trkpt lat="56.390613" lon="60.771649">
        <ele>266.4</ele>
        <time>1970-01-01T09:44:14.145Z</time>
    </trkpt>
    <trkpt lat="56.390602" lon="60.771699">
        <ele>266.4</ele>
        <time>1970-01-01T09:44:15.145Z</time>
    </trkpt>
    <trkpt lat="56.390585" lon="60.77175">
        <ele>266.4</ele>
        <time>1970-01-01T09:44:16.145Z</time>
    </trkpt>
    <trkpt lat="56.390575" lon="60.771777">
        <ele>266.4</ele>
        <time>1970-01-01T09:44:17.145Z</time>
    </trkpt>
    <trkpt lat="56.390553" lon="60.771841">
        <ele>266.4</ele>
        <time>1970-01-01T09:44:18.145Z</time>
    </trkpt>
    <trkpt lat="56.390549" lon="60.771864">
        <ele>266.4</ele>
        <time>1970-01-01T09:44:19.145Z</time>
    </trkpt>
    <trkpt lat="56.390541" lon="60.771926">
        <ele>265.4</ele>
        <time>1970-01-01T09:44:20.145Z</time>
    </trkpt>
    <trkpt lat="56.390524" lon="60.771971">
        <ele>265.4</ele>
        <time>1970-01-01T09:44:21.145Z</time>
    </trkpt>
    <trkpt lat="56.390506" lon="60.772011">
        <ele>265.4</ele>
        <time>1970-01-01T09:44:22.145Z</time>
    </trkpt>
    <trkpt lat="56.390484" lon="60.772076">
        <ele>264.4</ele>
        <time>1970-01-01T09:44:23.145Z</time>
    </trkpt>
    <trkpt lat="56.390457" lon="60.77212">
        <ele>264.4</ele>
        <time>1970-01-01T09:44:24.145Z</time>
    </trkpt>
    <trkpt lat="56.390436" lon="60.772167">
        <ele>264.4</ele>
        <time>1970-01-01T09:44:25.145Z</time>
    </trkpt>
    <trkpt lat="56.390413" lon="60.772203">
        <ele>264.4</ele>
        <time>1970-01-01T09:44:26.145Z</time>
    </trkpt>
    <trkpt lat="56.390383" lon="60.77224">
        <ele>264.4</ele>
        <time>1970-01-01T09:44:27.145Z</time>
    </trkpt>
    <trkpt lat="56.390366" lon="60.772283">
        <ele>263.4</ele>
        <time>1970-01-01T09:44:28.145Z</time>
    </trkpt>
    <trkpt lat="56.390346" lon="60.772316">
        <ele>263.4</ele>
        <time>1970-01-01T09:44:29.145Z</time>
    </trkpt>
    <trkpt lat="56.390331" lon="60.772357">
        <ele>263.4</ele>
        <time>1970-01-01T09:44:30.145Z</time>
    </trkpt>
    <trkpt lat="56.390308" lon="60.772397">
        <ele>263.4</ele>
        <time>1970-01-01T09:44:31.145Z</time>
    </trkpt>
    <trkpt lat="56.390288" lon="60.772438">
        <ele>262.4</ele>
        <time>1970-01-01T09:44:32.145Z</time>
    </trkpt>
    <trkpt lat="56.390257" lon="60.772481">
        <ele>262.4</ele>
        <time>1970-01-01T09:44:33.145Z</time>
    </trkpt>
    <trkpt lat="56.390227" lon="60.77253">
        <ele>262.4</ele>
        <time>1970-01-01T09:44:34.145Z</time>
    </trkpt>
    <trkpt lat="56.390203" lon="60.772569">
        <ele>262.4</ele>
        <time>1970-01-01T09:44:35.145Z</time>
    </trkpt>
    <trkpt lat="56.390182" lon="60.77261">
        <ele>260.4</ele>
        <time>1970-01-01T09:44:36.145Z</time>
    </trkpt>
    <trkpt lat="56.39016" lon="60.772652">
        <ele>260.4</ele>
        <time>1970-01-01T09:44:37.145Z</time>
    </trkpt>
    <trkpt lat="56.390149" lon="60.772668">
        <ele>260.4</ele>
        <time>1970-01-01T09:44:38.145Z</time>
    </trkpt>
    <trkpt lat="56.390122" lon="60.7727">
        <ele>260.4</ele>
        <time>1970-01-01T09:44:39.145Z</time>
    </trkpt>
    <trkpt lat="56.390091" lon="60.772737">
        <ele>260.4</ele>
        <time>1970-01-01T09:44:40.145Z</time>
    </trkpt>
    <trkpt lat="56.390064" lon="60.772765">
        <ele>259.4</ele>
        <time>1970-01-01T09:44:41.145Z</time>
    </trkpt>
    <trkpt lat="56.390021" lon="60.77282">
        <ele>259.4</ele>
        <time>1970-01-01T09:44:42.145Z</time>
    </trkpt>
    <trkpt lat="56.390007" lon="60.772834">
        <ele>259.4</ele>
        <time>1970-01-01T09:44:43.145Z</time>
    </trkpt>
    <trkpt lat="56.389976" lon="60.772882">
        <ele>259.4</ele>
        <time>1970-01-01T09:44:44.145Z</time>
    </trkpt>
    <trkpt lat="56.389947" lon="60.772929">
        <ele>259.4</ele>
        <time>1970-01-01T09:44:45.145Z</time>
    </trkpt>
    <trkpt lat="56.389921" lon="60.772956">
        <ele>258.4</ele>
        <time>1970-01-01T09:44:46.145Z</time>
    </trkpt>
    <trkpt lat="56.389912" lon="60.772963">
        <ele>258.4</ele>
        <time>1970-01-01T09:44:47.145Z</time>
    </trkpt>
    <trkpt lat="56.389884" lon="60.772972">
        <ele>258.4</ele>
        <time>1970-01-01T09:44:48.145Z</time>
    </trkpt>
    <trkpt lat="56.389857" lon="60.772979">
        <ele>258.4</ele>
        <time>1970-01-01T09:44:49.145Z</time>
    </trkpt>
    <trkpt lat="56.389828" lon="60.772985">
        <ele>258.4</ele>
        <time>1970-01-01T09:44:50.145Z</time>
    </trkpt>
    <trkpt lat="56.389812" lon="60.772989">
        <ele>258.4</ele>
        <time>1970-01-01T09:44:51.145Z</time>
    </trkpt>
    <trkpt lat="56.38977" lon="60.772993">
        <ele>258.4</ele>
        <time>1970-01-01T09:44:52.145Z</time>
    </trkpt>
    <trkpt lat="56.389738" lon="60.773011">
        <ele>258.4</ele>
        <time>1970-01-01T09:44:53.145Z</time>
    </trkpt>
    <trkpt lat="56.389722" lon="60.773018">
        <ele>258.4</ele>
        <time>1970-01-01T09:44:54.145Z</time>
    </trkpt>
    <trkpt lat="56.389684" lon="60.773048">
        <ele>258.4</ele>
        <time>1970-01-01T09:44:55.145Z</time>
    </trkpt>
    <trkpt lat="56.389646" lon="60.773071">
        <ele>259.4</ele>
        <time>1970-01-01T09:44:56.145Z</time>
    </trkpt>
    <trkpt lat="56.389612" lon="60.77311">
        <ele>258.4</ele>
        <time>1970-01-01T09:44:57.145Z</time>
    </trkpt>
    <trkpt lat="56.389605" lon="60.773124">
        <ele>258.4</ele>
        <time>1970-01-01T09:44:58.145Z</time>
    </trkpt>
    <trkpt lat="56.389579" lon="60.773172">
        <ele>259.4</ele>
        <time>1970-01-01T09:44:59.145Z</time>
    </trkpt>
    <trkpt lat="56.389569" lon="60.773178">
        <ele>259.4</ele>
        <time>1970-01-01T09:45:00.145Z</time>
    </trkpt>
    <trkpt lat="56.389547" lon="60.773211">
        <ele>259.4</ele>
        <time>1970-01-01T09:45:01.145Z</time>
    </trkpt>
    <trkpt lat="56.38954" lon="60.773231">
        <ele>259.4</ele>
        <time>1970-01-01T09:45:02.145Z</time>
    </trkpt>
    <trkpt lat="56.389518" lon="60.77329">
        <ele>259.4</ele>
        <time>1970-01-01T09:45:03.145Z</time>
    </trkpt>
    <trkpt lat="56.389505" lon="60.773314">
        <ele>259.4</ele>
        <time>1970-01-01T09:45:04.145Z</time>
    </trkpt>
    <trkpt lat="56.389487" lon="60.773348">
        <ele>259.4</ele>
        <time>1970-01-01T09:45:05.145Z</time>
    </trkpt>
    <trkpt lat="56.389468" lon="60.773391">
        <ele>259.4</ele>
        <time>1970-01-01T09:45:06.145Z</time>
    </trkpt>
    <trkpt lat="56.389461" lon="60.77345">
        <ele>260.4</ele>
        <time>1970-01-01T09:45:07.145Z</time>
    </trkpt>
    <trkpt lat="56.389449" lon="60.773499">
        <ele>260.4</ele>
        <time>1970-01-01T09:45:08.145Z</time>
    </trkpt>
    <trkpt lat="56.389439" lon="60.773547">
        <ele>260.4</ele>
        <time>1970-01-01T09:45:09.145Z</time>
    </trkpt>
    <trkpt lat="56.389429" lon="60.773601">
        <ele>260.4</ele>
        <time>1970-01-01T09:45:10.145Z</time>
    </trkpt>
    <trkpt lat="56.389428" lon="60.773661">
        <ele>261.4</ele>
        <time>1970-01-01T09:45:11.145Z</time>
    </trkpt>
    <trkpt lat="56.389424" lon="60.773716">
        <ele>261.4</ele>
        <time>1970-01-01T09:45:12.145Z</time>
    </trkpt>
    <trkpt lat="56.389414" lon="60.773769">
        <ele>261.4</ele>
        <time>1970-01-01T09:45:13.145Z</time>
    </trkpt>
    <trkpt lat="56.389406" lon="60.773827">
        <ele>262.4</ele>
        <time>1970-01-01T09:45:14.145Z</time>
    </trkpt>
    <trkpt lat="56.389399" lon="60.773875">
        <ele>262.4</ele>
        <time>1970-01-01T09:45:15.145Z</time>
    </trkpt>
    <trkpt lat="56.389388" lon="60.773922">
        <ele>262.4</ele>
        <time>1970-01-01T09:45:16.145Z</time>
    </trkpt>
    <trkpt lat="56.389372" lon="60.773965">
        <ele>263.4</ele>
        <time>1970-01-01T09:45:17.145Z</time>
    </trkpt>
    <trkpt lat="56.389354" lon="60.774009">
        <ele>263.4</ele>
        <time>1970-01-01T09:45:18.145Z</time>
    </trkpt>
    <trkpt lat="56.389338" lon="60.774056">
        <ele>263.4</ele>
        <time>1970-01-01T09:45:19.145Z</time>
    </trkpt>
    <trkpt lat="56.389334" lon="60.774074">
        <ele>263.4</ele>
        <time>1970-01-01T09:45:20.145Z</time>
    </trkpt>
    <trkpt lat="56.389318" lon="60.774114">
        <ele>263.4</ele>
        <time>1970-01-01T09:45:21.145Z</time>
    </trkpt>
    <trkpt lat="56.389303" lon="60.774174">
        <ele>264.4</ele>
        <time>1970-01-01T09:45:22.145Z</time>
    </trkpt>
    <trkpt lat="56.389288" lon="60.774215">
        <ele>264.4</ele>
        <time>1970-01-01T09:45:23.145Z</time>
    </trkpt>
    <trkpt lat="56.389279" lon="60.774232">
        <ele>264.4</ele>
        <time>1970-01-01T09:45:24.145Z</time>
    </trkpt>
    <trkpt lat="56.389254" lon="60.774278">
        <ele>264.4</ele>
        <time>1970-01-01T09:45:25.145Z</time>
    </trkpt>
    <trkpt lat="56.389244" lon="60.774297">
        <ele>264.4</ele>
        <time>1970-01-01T09:45:26.145Z</time>
    </trkpt>
    <trkpt lat="56.389215" lon="60.774347">
        <ele>265.4</ele>
        <time>1970-01-01T09:45:27.145Z</time>
    </trkpt>
    <trkpt lat="56.389181" lon="60.774366">
        <ele>265.4</ele>
        <time>1970-01-01T09:45:28.145Z</time>
    </trkpt>
    <trkpt lat="56.389149" lon="60.774378">
        <ele>265.4</ele>
        <time>1970-01-01T09:45:29.145Z</time>
    </trkpt>
    <trkpt lat="56.38912" lon="60.774371">
        <ele>265.4</ele>
        <time>1970-01-01T09:45:30.145Z</time>
    </trkpt>
    <trkpt lat="56.389087" lon="60.77437">
        <ele>264.4</ele>
        <time>1970-01-01T09:45:31.145Z</time>
    </trkpt>
    <trkpt lat="56.389079" lon="60.774368">
        <ele>264.4</ele>
        <time>1970-01-01T09:45:32.145Z</time>
    </trkpt>
    <trkpt lat="56.389047" lon="60.774356">
        <ele>264.4</ele>
        <time>1970-01-01T09:45:33.145Z</time>
    </trkpt>
    <trkpt lat="56.38902" lon="60.774346">
        <ele>264.4</ele>
        <time>1970-01-01T09:45:34.145Z</time>
    </trkpt>
    <trkpt lat="56.388987" lon="60.774331">
        <ele>264.4</ele>
        <time>1970-01-01T09:45:35.145Z</time>
    </trkpt>
    <trkpt lat="56.388958" lon="60.774309">
        <ele>264.4</ele>
        <time>1970-01-01T09:45:36.145Z</time>
    </trkpt>
    <trkpt lat="56.388946" lon="60.774307">
        <ele>263.4</ele>
        <time>1970-01-01T09:45:37.145Z</time>
    </trkpt>
    <trkpt lat="56.388913" lon="60.7743">
        <ele>263.4</ele>
        <time>1970-01-01T09:45:38.145Z</time>
    </trkpt>
    <trkpt lat="56.388884" lon="60.774292">
        <ele>263.4</ele>
        <time>1970-01-01T09:45:39.145Z</time>
    </trkpt>
    <trkpt lat="56.388848" lon="60.774294">
        <ele>263.4</ele>
        <time>1970-01-01T09:45:40.145Z</time>
    </trkpt>
    <trkpt lat="56.388834" lon="60.774296">
        <ele>263.4</ele>
        <time>1970-01-01T09:45:41.145Z</time>
    </trkpt>
    <trkpt lat="56.388797" lon="60.774312">
        <ele>263.4</ele>
        <time>1970-01-01T09:45:42.145Z</time>
    </trkpt>
    <trkpt lat="56.388781" lon="60.774314">
        <ele>263.4</ele>
        <time>1970-01-01T09:45:43.145Z</time>
    </trkpt>
    <trkpt lat="56.388739" lon="60.774324">
        <ele>263.4</ele>
        <time>1970-01-01T09:45:44.145Z</time>
    </trkpt>
    <trkpt lat="56.388711" lon="60.774346">
        <ele>263.4</ele>
        <time>1970-01-01T09:45:45.145Z</time>
    </trkpt>
    <trkpt lat="56.388697" lon="60.774354">
        <ele>263.4</ele>
        <time>1970-01-01T09:45:46.145Z</time>
    </trkpt>
    <trkpt lat="56.38866" lon="60.77438">
        <ele>263.4</ele>
        <time>1970-01-01T09:45:47.145Z</time>
    </trkpt>
    <trkpt lat="56.388647" lon="60.774394">
        <ele>263.4</ele>
        <time>1970-01-01T09:45:48.145Z</time>
    </trkpt>
    <trkpt lat="56.388634" lon="60.774408">
        <ele>263.4</ele>
        <time>1970-01-01T09:45:49.145Z</time>
    </trkpt>
    <trkpt lat="56.388593" lon="60.774453">
        <ele>264.4</ele>
        <time>1970-01-01T09:45:51.145Z</time>
    </trkpt>
    <trkpt lat="56.388572" lon="60.774489">
        <ele>264.4</ele>
        <time>1970-01-01T09:45:52.145Z</time>
    </trkpt>
    <trkpt lat="56.388553" lon="60.774539">
        <ele>264.4</ele>
        <time>1970-01-01T09:45:53.145Z</time>
    </trkpt>
    <trkpt lat="56.388531" lon="60.774583">
        <ele>264.4</ele>
        <time>1970-01-01T09:45:54.145Z</time>
    </trkpt>
    <trkpt lat="56.388504" lon="60.774631">
        <ele>264.4</ele>
        <time>1970-01-01T09:45:55.145Z</time>
    </trkpt>
    <trkpt lat="56.388486" lon="60.774684">
        <ele>264.4</ele>
        <time>1970-01-01T09:45:56.145Z</time>
    </trkpt>
    <trkpt lat="56.388458" lon="60.774731">
        <ele>264.4</ele>
        <time>1970-01-01T09:45:57.145Z</time>
    </trkpt>
    <trkpt lat="56.388446" lon="60.774778">
        <ele>264.4</ele>
        <time>1970-01-01T09:45:58.145Z</time>
    </trkpt>
    <trkpt lat="56.38843" lon="60.774825">
        <ele>265.4</ele>
        <time>1970-01-01T09:45:59.145Z</time>
    </trkpt>
    <trkpt lat="56.388421" lon="60.774844">
        <ele>265.4</ele>
        <time>1970-01-01T09:46:00.145Z</time>
    </trkpt>
    <trkpt lat="56.388407" lon="60.774898">
        <ele>265.4</ele>
        <time>1970-01-01T09:46:01.145Z</time>
    </trkpt>
    <trkpt lat="56.388388" lon="60.774963">
        <ele>265.4</ele>
        <time>1970-01-01T09:46:02.145Z</time>
    </trkpt>
    <trkpt lat="56.388366" lon="60.775033">
        <ele>265.4</ele>
        <time>1970-01-01T09:46:03.145Z</time>
    </trkpt>
    <trkpt lat="56.388347" lon="60.775072">
        <ele>265.4</ele>
        <time>1970-01-01T09:46:04.145Z</time>
    </trkpt>
    <trkpt lat="56.38834" lon="60.775094">
        <ele>265.4</ele>
        <time>1970-01-01T09:46:05.145Z</time>
    </trkpt>
    <trkpt lat="56.388326" lon="60.775157">
        <ele>265.4</ele>
        <time>1970-01-01T09:46:06.145Z</time>
    </trkpt>
    <trkpt lat="56.388325" lon="60.775178">
        <ele>265.4</ele>
        <time>1970-01-01T09:46:07.145Z</time>
    </trkpt>
    <trkpt lat="56.388314" lon="60.775244">
        <ele>265.4</ele>
        <time>1970-01-01T09:46:08.145Z</time>
    </trkpt>
    <trkpt lat="56.388309" lon="60.775269">
        <ele>265.4</ele>
        <time>1970-01-01T09:46:09.145Z</time>
    </trkpt>
    <trkpt lat="56.388301" lon="60.77534">
        <ele>265.4</ele>
        <time>1970-01-01T09:46:10.145Z</time>
    </trkpt>
    <trkpt lat="56.388279" lon="60.775401">
        <ele>265.4</ele>
        <time>1970-01-01T09:46:11.145Z</time>
    </trkpt>
    <trkpt lat="56.388272" lon="60.77542">
        <ele>265.4</ele>
        <time>1970-01-01T09:46:12.145Z</time>
    </trkpt>
    <trkpt lat="56.388249" lon="60.775477">
        <ele>265.4</ele>
        <time>1970-01-01T09:46:13.145Z</time>
    </trkpt>
    <trkpt lat="56.388241" lon="60.775499">
        <ele>265.4</ele>
        <time>1970-01-01T09:46:14.145Z</time>
    </trkpt>
    <trkpt lat="56.388219" lon="60.775558">
        <ele>266.4</ele>
        <time>1970-01-01T09:46:15.145Z</time>
    </trkpt>
    <trkpt lat="56.388195" lon="60.775597">
        <ele>266.4</ele>
        <time>1970-01-01T09:46:16.145Z</time>
    </trkpt>
    <trkpt lat="56.388175" lon="60.775633">
        <ele>266.4</ele>
        <time>1970-01-01T09:46:17.145Z</time>
    </trkpt>
    <trkpt lat="56.388155" lon="60.775668">
        <ele>265.4</ele>
        <time>1970-01-01T09:46:18.145Z</time>
    </trkpt>
    <trkpt lat="56.388146" lon="60.77568">
        <ele>265.4</ele>
        <time>1970-01-01T09:46:19.145Z</time>
    </trkpt>
    <trkpt lat="56.388117" lon="60.775724">
        <ele>265.4</ele>
        <time>1970-01-01T09:46:20.145Z</time>
    </trkpt>
    <trkpt lat="56.388107" lon="60.775732">
        <ele>265.4</ele>
        <time>1970-01-01T09:46:21.145Z</time>
    </trkpt>
    <trkpt lat="56.388082" lon="60.77577">
        <ele>265.4</ele>
        <time>1970-01-01T09:46:22.145Z</time>
    </trkpt>
    <trkpt lat="56.388056" lon="60.775794">
        <ele>265.4</ele>
        <time>1970-01-01T09:46:23.145Z</time>
    </trkpt>
    <trkpt lat="56.388033" lon="60.775826">
        <ele>265.4</ele>
        <time>1970-01-01T09:46:24.145Z</time>
    </trkpt>
    <trkpt lat="56.388025" lon="60.775843">
        <ele>265.4</ele>
        <time>1970-01-01T09:46:25.145Z</time>
    </trkpt>
    <trkpt lat="56.387997" lon="60.775892">
        <ele>265.4</ele>
        <time>1970-01-01T09:46:26.145Z</time>
    </trkpt>
    <trkpt lat="56.387988" lon="60.775907">
        <ele>265.4</ele>
        <time>1970-01-01T09:46:27.145Z</time>
    </trkpt>
    <trkpt lat="56.387967" lon="60.775945">
        <ele>265.4</ele>
        <time>1970-01-01T09:46:28.145Z</time>
    </trkpt>
    <trkpt lat="56.387935" lon="60.775985">
        <ele>265.4</ele>
        <time>1970-01-01T09:46:29.145Z</time>
    </trkpt>
    <trkpt lat="56.387909" lon="60.776018">
        <ele>265.4</ele>
        <time>1970-01-01T09:46:30.145Z</time>
    </trkpt>
    <trkpt lat="56.387888" lon="60.776057">
        <ele>265.4</ele>
        <time>1970-01-01T09:46:31.145Z</time>
    </trkpt>
    <trkpt lat="56.387881" lon="60.776069">
        <ele>265.4</ele>
        <time>1970-01-01T09:46:32.145Z</time>
    </trkpt>
    <trkpt lat="56.387862" lon="60.776109">
        <ele>265.4</ele>
        <time>1970-01-01T09:46:33.145Z</time>
    </trkpt>
    <trkpt lat="56.387837" lon="60.776133">
        <ele>265.4</ele>
        <time>1970-01-01T09:46:34.145Z</time>
    </trkpt>
    <trkpt lat="56.387825" lon="60.776149">
        <ele>265.4</ele>
        <time>1970-01-01T09:46:35.145Z</time>
    </trkpt>
    <trkpt lat="56.387794" lon="60.776193">
        <ele>265.4</ele>
        <time>1970-01-01T09:46:36.145Z</time>
    </trkpt>
    <trkpt lat="56.387781" lon="60.776211">
        <ele>265.4</ele>
        <time>1970-01-01T09:46:37.145Z</time>
    </trkpt>
    <trkpt lat="56.387753" lon="60.776267">
        <ele>265.4</ele>
        <time>1970-01-01T09:46:38.145Z</time>
    </trkpt>
    <trkpt lat="56.387744" lon="60.776288">
        <ele>265.4</ele>
        <time>1970-01-01T09:46:39.145Z</time>
    </trkpt>
    <trkpt lat="56.387719" lon="60.776336">
        <ele>265.4</ele>
        <time>1970-01-01T09:46:40.145Z</time>
    </trkpt>
    <trkpt lat="56.387704" lon="60.776383">
        <ele>265.4</ele>
        <time>1970-01-01T09:46:41.145Z</time>
    </trkpt>
    <trkpt lat="56.387698" lon="60.776412">
        <ele>265.4</ele>
        <time>1970-01-01T09:46:42.145Z</time>
    </trkpt>
    <trkpt lat="56.387682" lon="60.77648">
        <ele>265.4</ele>
        <time>1970-01-01T09:46:43.145Z</time>
    </trkpt>
    <trkpt lat="56.387673" lon="60.776498">
        <ele>265.4</ele>
        <time>1970-01-01T09:46:44.145Z</time>
    </trkpt>
    <trkpt lat="56.387643" lon="60.776547">
        <ele>265.4</ele>
        <time>1970-01-01T09:46:45.145Z</time>
    </trkpt>
    <trkpt lat="56.387631" lon="60.776568">
        <ele>265.4</ele>
        <time>1970-01-01T09:46:46.145Z</time>
    </trkpt>
    <trkpt lat="56.387603" lon="60.776621">
        <ele>265.4</ele>
        <time>1970-01-01T09:46:47.145Z</time>
    </trkpt>
    <trkpt lat="56.387596" lon="60.776641">
        <ele>265.4</ele>
        <time>1970-01-01T09:46:48.145Z</time>
    </trkpt>
    <trkpt lat="56.387574" lon="60.776692">
        <ele>265.4</ele>
        <time>1970-01-01T09:46:49.145Z</time>
    </trkpt>
    <trkpt lat="56.387565" lon="60.776704">
        <ele>265.4</ele>
        <time>1970-01-01T09:46:50.145Z</time>
    </trkpt>
    <trkpt lat="56.387543" lon="60.776745">
        <ele>265.4</ele>
        <time>1970-01-01T09:46:51.145Z</time>
    </trkpt>
    <trkpt lat="56.387522" lon="60.77678">
        <ele>265.4</ele>
        <time>1970-01-01T09:46:52.145Z</time>
    </trkpt>
    <trkpt lat="56.387501" lon="60.776825">
        <ele>265.4</ele>
        <time>1970-01-01T09:46:53.145Z</time>
    </trkpt>
    <trkpt lat="56.387491" lon="60.776849">
        <ele>265.4</ele>
        <time>1970-01-01T09:46:54.145Z</time>
    </trkpt>
    <trkpt lat="56.387467" lon="60.776903">
        <ele>265.4</ele>
        <time>1970-01-01T09:46:55.145Z</time>
    </trkpt>
    <trkpt lat="56.387439" lon="60.776951">
        <ele>265.4</ele>
        <time>1970-01-01T09:46:56.145Z</time>
    </trkpt>
    <trkpt lat="56.387414" lon="60.776986">
        <ele>265.4</ele>
        <time>1970-01-01T09:46:57.145Z</time>
    </trkpt>
    <trkpt lat="56.387388" lon="60.777021">
        <ele>265.4</ele>
        <time>1970-01-01T09:46:58.145Z</time>
    </trkpt>
    <trkpt lat="56.38736" lon="60.777054">
        <ele>266.4</ele>
        <time>1970-01-01T09:46:59.145Z</time>
    </trkpt>
    <trkpt lat="56.387346" lon="60.777072">
        <ele>266.4</ele>
        <time>1970-01-01T09:47:00.145Z</time>
    </trkpt>
    <trkpt lat="56.387313" lon="60.777123">
        <ele>266.4</ele>
        <time>1970-01-01T09:47:01.145Z</time>
    </trkpt>
    <trkpt lat="56.38726" lon="60.777163">
        <ele>266.4</ele>
        <time>1970-01-01T09:47:02.145Z</time>
    </trkpt>
    <trkpt lat="56.387231" lon="60.777178">
        <ele>266.4</ele>
        <time>1970-01-01T09:47:03.145Z</time>
    </trkpt>
    <trkpt lat="56.387219" lon="60.777191">
        <ele>266.4</ele>
        <time>1970-01-01T09:47:04.145Z</time>
    </trkpt>
    <trkpt lat="56.387182" lon="60.777217">
        <ele>266.4</ele>
        <time>1970-01-01T09:47:05.145Z</time>
    </trkpt>
    <trkpt lat="56.38717" lon="60.777223">
        <ele>266.4</ele>
        <time>1970-01-01T09:47:06.145Z</time>
    </trkpt>
    <trkpt lat="56.387133" lon="60.777246">
        <ele>266.4</ele>
        <time>1970-01-01T09:47:07.145Z</time>
    </trkpt>
    <trkpt lat="56.387106" lon="60.77726">
        <ele>266.4</ele>
        <time>1970-01-01T09:47:08.145Z</time>
    </trkpt>
    <trkpt lat="56.387077" lon="60.777263">
        <ele>266.4</ele>
        <time>1970-01-01T09:47:09.145Z</time>
    </trkpt>
    <trkpt lat="56.387061" lon="60.777263">
        <ele>266.4</ele>
        <time>1970-01-01T09:47:10.145Z</time>
    </trkpt>
    <trkpt lat="56.387019" lon="60.777267">
        <ele>266.4</ele>
        <time>1970-01-01T09:47:11.145Z</time>
    </trkpt>
    <trkpt lat="56.386988" lon="60.77728">
        <ele>266.4</ele>
        <time>1970-01-01T09:47:12.145Z</time>
    </trkpt>
    <trkpt lat="56.386953" lon="60.777277">
        <ele>266.4</ele>
        <time>1970-01-01T09:47:13.145Z</time>
    </trkpt>
    <trkpt lat="56.386909" lon="60.777281">
        <ele>266.4</ele>
        <time>1970-01-01T09:47:14.145Z</time>
    </trkpt>
    <trkpt lat="56.38686" lon="60.777285">
        <ele>266.4</ele>
        <time>1970-01-01T09:47:15.145Z</time>
    </trkpt>
    <trkpt lat="56.386808" lon="60.777317">
        <ele>266.4</ele>
        <time>1970-01-01T09:47:16.145Z</time>
    </trkpt>
    <trkpt lat="56.386773" lon="60.77734">
        <ele>266.4</ele>
        <time>1970-01-01T09:47:17.145Z</time>
    </trkpt>
    <trkpt lat="56.386736" lon="60.777367">
        <ele>266.4</ele>
        <time>1970-01-01T09:47:18.145Z</time>
    </trkpt>
    <trkpt lat="56.386722" lon="60.777377">
        <ele>266.4</ele>
        <time>1970-01-01T09:47:19.145Z</time>
    </trkpt>
    <trkpt lat="56.386688" lon="60.777411">
        <ele>266.4</ele>
        <time>1970-01-01T09:47:20.145Z</time>
    </trkpt>
    <trkpt lat="56.386661" lon="60.777447">
        <ele>266.4</ele>
        <time>1970-01-01T09:47:21.145Z</time>
    </trkpt>
    <trkpt lat="56.386649" lon="60.777461">
        <ele>266.4</ele>
        <time>1970-01-01T09:47:22.145Z</time>
    </trkpt>
    <trkpt lat="56.386629" lon="60.777484">
        <ele>266.4</ele>
        <time>1970-01-01T09:47:23.145Z</time>
    </trkpt>
    <trkpt lat="56.386601" lon="60.77752">
        <ele>266.4</ele>
        <time>1970-01-01T09:47:24.145Z</time>
    </trkpt>
    <trkpt lat="56.38657" lon="60.777551">
        <ele>266.4</ele>
        <time>1970-01-01T09:47:25.145Z</time>
    </trkpt>
    <trkpt lat="56.386559" lon="60.777561">
        <ele>266.4</ele>
        <time>1970-01-01T09:47:26.145Z</time>
    </trkpt>
    <trkpt lat="56.386524" lon="60.777594">
        <ele>266.4</ele>
        <time>1970-01-01T09:47:27.145Z</time>
    </trkpt>
    <trkpt lat="56.386499" lon="60.777619">
        <ele>266.4</ele>
        <time>1970-01-01T09:47:28.145Z</time>
    </trkpt>
    <trkpt lat="56.386471" lon="60.77765">
        <ele>266.4</ele>
        <time>1970-01-01T09:47:29.145Z</time>
    </trkpt>
    <trkpt lat="56.38646" lon="60.777659">
        <ele>266.4</ele>
        <time>1970-01-01T09:47:30.145Z</time>
    </trkpt>
    <trkpt lat="56.386428" lon="60.777692">
        <ele>267.4</ele>
        <time>1970-01-01T09:47:31.145Z</time>
    </trkpt>
    <trkpt lat="56.386405" lon="60.777722">
        <ele>267.4</ele>
        <time>1970-01-01T09:47:32.145Z</time>
    </trkpt>
    <trkpt lat="56.386393" lon="60.777737">
        <ele>267.4</ele>
        <time>1970-01-01T09:47:33.145Z</time>
    </trkpt>
    <trkpt lat="56.386367" lon="60.777785">
        <ele>266.4</ele>
        <time>1970-01-01T09:47:34.145Z</time>
    </trkpt>
    <trkpt lat="56.386358" lon="60.777797">
        <ele>266.4</ele>
        <time>1970-01-01T09:47:35.145Z</time>
    </trkpt>
    <trkpt lat="56.38633" lon="60.777824">
        <ele>266.4</ele>
        <time>1970-01-01T09:47:36.145Z</time>
    </trkpt>
    <trkpt lat="56.386319" lon="60.77784">
        <ele>266.4</ele>
        <time>1970-01-01T09:47:37.145Z</time>
    </trkpt>
    <trkpt lat="56.386289" lon="60.777886">
        <ele>266.4</ele>
        <time>1970-01-01T09:47:38.145Z</time>
    </trkpt>
    <trkpt lat="56.386263" lon="60.777912">
        <ele>266.4</ele>
        <time>1970-01-01T09:47:39.145Z</time>
    </trkpt>
    <trkpt lat="56.386254" lon="60.777923">
        <ele>267.4</ele>
        <time>1970-01-01T09:47:40.145Z</time>
    </trkpt>
    <trkpt lat="56.386234" lon="60.777973">
        <ele>267.4</ele>
        <time>1970-01-01T09:47:41.145Z</time>
    </trkpt>
    <trkpt lat="56.386222" lon="60.777988">
        <ele>267.4</ele>
        <time>1970-01-01T09:47:42.145Z</time>
    </trkpt>
    <trkpt lat="56.386192" lon="60.77803">
        <ele>267.4</ele>
        <time>1970-01-01T09:47:43.145Z</time>
    </trkpt>
    <trkpt lat="56.386184" lon="60.778043">
        <ele>267.4</ele>
        <time>1970-01-01T09:47:44.145Z</time>
    </trkpt>
    <trkpt lat="56.386156" lon="60.778073">
        <ele>267.4</ele>
        <time>1970-01-01T09:47:45.145Z</time>
    </trkpt>
    <trkpt lat="56.386124" lon="60.778099">
        <ele>267.4</ele>
        <time>1970-01-01T09:47:46.145Z</time>
    </trkpt>
    <trkpt lat="56.386096" lon="60.778123">
        <ele>267.4</ele>
        <time>1970-01-01T09:47:47.145Z</time>
    </trkpt>
    <trkpt lat="56.386065" lon="60.77816">
        <ele>267.4</ele>
        <time>1970-01-01T09:47:48.145Z</time>
    </trkpt>
    <trkpt lat="56.386036" lon="60.778191">
        <ele>267.4</ele>
        <time>1970-01-01T09:47:49.145Z</time>
    </trkpt>
    <trkpt lat="56.386025" lon="60.778207">
        <ele>267.4</ele>
        <time>1970-01-01T09:47:50.145Z</time>
    </trkpt>
    <trkpt lat="56.385995" lon="60.778252">
        <ele>267.4</ele>
        <time>1970-01-01T09:47:51.145Z</time>
    </trkpt>
    <trkpt lat="56.385988" lon="60.778274">
        <ele>267.4</ele>
        <time>1970-01-01T09:47:52.145Z</time>
    </trkpt>
    <trkpt lat="56.385968" lon="60.778327">
        <ele>267.4</ele>
        <time>1970-01-01T09:47:53.145Z</time>
    </trkpt>
    <trkpt lat="56.385959" lon="60.778343">
        <ele>267.4</ele>
        <time>1970-01-01T09:47:54.145Z</time>
    </trkpt>
    <trkpt lat="56.385946" lon="60.778399">
        <ele>267.4</ele>
        <time>1970-01-01T09:47:55.145Z</time>
    </trkpt>
    <trkpt lat="56.385931" lon="60.778427">
        <ele>267.4</ele>
        <time>1970-01-01T09:47:57.145Z</time>
    </trkpt>
    <trkpt lat="56.385915" lon="60.77846">
        <ele>267.4</ele>
        <time>1970-01-01T09:47:58.145Z</time>
    </trkpt>
    <trkpt lat="56.385903" lon="60.778476">
        <ele>267.4</ele>
        <time>1970-01-01T09:47:59.145Z</time>
    </trkpt>
    <trkpt lat="56.385869" lon="60.778514">
        <ele>267.4</ele>
        <time>1970-01-01T09:48:00.145Z</time>
    </trkpt>
    <trkpt lat="56.38586" lon="60.778522">
        <ele>267.4</ele>
        <time>1970-01-01T09:48:01.145Z</time>
    </trkpt>
    <trkpt lat="56.385836" lon="60.778542">
        <ele>267.4</ele>
        <time>1970-01-01T09:48:02.145Z</time>
    </trkpt>
    <trkpt lat="56.385825" lon="60.778544">
        <ele>267.4</ele>
        <time>1970-01-01T09:48:03.145Z</time>
    </trkpt>
    <trkpt lat="56.385794" lon="60.778575">
        <ele>267.4</ele>
        <time>1970-01-01T09:48:04.145Z</time>
    </trkpt>
    <trkpt lat="56.385785" lon="60.7786">
        <ele>267.4</ele>
        <time>1970-01-01T09:48:05.145Z</time>
    </trkpt>
    <trkpt lat="56.385764" lon="60.778604">
        <ele>267.4</ele>
        <time>1970-01-01T09:48:06.145Z</time>
    </trkpt>
    <trkpt lat="56.385753" lon="60.778612">
        <ele>267.4</ele>
        <time>1970-01-01T09:48:07.145Z</time>
    </trkpt>
    <trkpt lat="56.385722" lon="60.778633">
        <ele>267.4</ele>
        <time>1970-01-01T09:48:08.145Z</time>
    </trkpt>
    <trkpt lat="56.385695" lon="60.778643">
        <ele>267.4</ele>
        <time>1970-01-01T09:48:09.145Z</time>
    </trkpt>
    <trkpt lat="56.385684" lon="60.778646">
        <ele>266.4</ele>
        <time>1970-01-01T09:48:10.145Z</time>
    </trkpt>
    <trkpt lat="56.385652" lon="60.778665">
        <ele>266.4</ele>
        <time>1970-01-01T09:48:11.145Z</time>
    </trkpt>
    <trkpt lat="56.385642" lon="60.778671">
        <ele>266.4</ele>
        <time>1970-01-01T09:48:12.145Z</time>
    </trkpt>
    <trkpt lat="56.385607" lon="60.778693">
        <ele>266.4</ele>
        <time>1970-01-01T09:48:13.145Z</time>
    </trkpt>
    <trkpt lat="56.385597" lon="60.778702">
        <ele>266.4</ele>
        <time>1970-01-01T09:48:14.145Z</time>
    </trkpt>
    <trkpt lat="56.38557" lon="60.778724">
        <ele>266.4</ele>
        <time>1970-01-01T09:48:15.145Z</time>
    </trkpt>
    <trkpt lat="56.385546" lon="60.778745">
        <ele>266.4</ele>
        <time>1970-01-01T09:48:16.145Z</time>
    </trkpt>
    <trkpt lat="56.385532" lon="60.778759">
        <ele>266.4</ele>
        <time>1970-01-01T09:48:17.145Z</time>
    </trkpt>
    <trkpt lat="56.385505" lon="60.778782">
        <ele>266.4</ele>
        <time>1970-01-01T09:48:18.145Z</time>
    </trkpt>
    <trkpt lat="56.385493" lon="60.778788">
        <ele>266.4</ele>
        <time>1970-01-01T09:48:19.145Z</time>
    </trkpt>
    <trkpt lat="56.38546" lon="60.778817">
        <ele>266.4</ele>
        <time>1970-01-01T09:48:20.145Z</time>
    </trkpt>
    <trkpt lat="56.385452" lon="60.778826">
        <ele>266.4</ele>
        <time>1970-01-01T09:48:21.145Z</time>
    </trkpt>
    <trkpt lat="56.385425" lon="60.778855">
        <ele>266.4</ele>
        <time>1970-01-01T09:48:22.145Z</time>
    </trkpt>
    <trkpt lat="56.385414" lon="60.778866">
        <ele>266.4</ele>
        <time>1970-01-01T09:48:23.145Z</time>
    </trkpt>
    <trkpt lat="56.385385" lon="60.7789">
        <ele>266.4</ele>
        <time>1970-01-01T09:48:24.145Z</time>
    </trkpt>
    <trkpt lat="56.385376" lon="60.778912">
        <ele>266.4</ele>
        <time>1970-01-01T09:48:25.145Z</time>
    </trkpt>
    <trkpt lat="56.385342" lon="60.778941">
        <ele>266.4</ele>
        <time>1970-01-01T09:48:26.145Z</time>
    </trkpt>
    <trkpt lat="56.385331" lon="60.778947">
        <ele>266.4</ele>
        <time>1970-01-01T09:48:27.145Z</time>
    </trkpt>
    <trkpt lat="56.385297" lon="60.778954">
        <ele>266.4</ele>
        <time>1970-01-01T09:48:28.145Z</time>
    </trkpt>
    <trkpt lat="56.385288" lon="60.778958">
        <ele>266.4</ele>
        <time>1970-01-01T09:48:29.145Z</time>
    </trkpt>
    <trkpt lat="56.385256" lon="60.778973">
        <ele>266.4</ele>
        <time>1970-01-01T09:48:30.145Z</time>
    </trkpt>
    <trkpt lat="56.385245" lon="60.778983">
        <ele>266.4</ele>
        <time>1970-01-01T09:48:31.145Z</time>
    </trkpt>
    <trkpt lat="56.385214" lon="60.778996">
        <ele>266.4</ele>
        <time>1970-01-01T09:48:32.145Z</time>
    </trkpt>
    <trkpt lat="56.3852" lon="60.779005">
        <ele>266.4</ele>
        <time>1970-01-01T09:48:33.145Z</time>
    </trkpt>
    <trkpt lat="56.385164" lon="60.779025">
        <ele>266.4</ele>
        <time>1970-01-01T09:48:34.145Z</time>
    </trkpt>
    <trkpt lat="56.385149" lon="60.779035">
        <ele>266.4</ele>
        <time>1970-01-01T09:48:35.145Z</time>
    </trkpt>
    <trkpt lat="56.385111" lon="60.779056">
        <ele>266.4</ele>
        <time>1970-01-01T09:48:36.145Z</time>
    </trkpt>
    <trkpt lat="56.385102" lon="60.779065">
        <ele>266.4</ele>
        <time>1970-01-01T09:48:37.145Z</time>
    </trkpt>
    <trkpt lat="56.385073" lon="60.779088">
        <ele>266.4</ele>
        <time>1970-01-01T09:48:38.145Z</time>
    </trkpt>
    <trkpt lat="56.385049" lon="60.779101">
        <ele>266.4</ele>
        <time>1970-01-01T09:48:39.145Z</time>
    </trkpt>
    <trkpt lat="56.38501" lon="60.779138">
        <ele>267.4</ele>
        <time>1970-01-01T09:48:40.145Z</time>
    </trkpt>
    <trkpt lat="56.38498" lon="60.779147">
        <ele>267.4</ele>
        <time>1970-01-01T09:48:41.145Z</time>
    </trkpt>
    <trkpt lat="56.384964" lon="60.779152">
        <ele>267.4</ele>
        <time>1970-01-01T09:48:42.145Z</time>
    </trkpt>
    <trkpt lat="56.384923" lon="60.779169">
        <ele>268.4</ele>
        <time>1970-01-01T09:48:43.145Z</time>
    </trkpt>
    <trkpt lat="56.384894" lon="60.779173">
        <ele>268.4</ele>
        <time>1970-01-01T09:48:44.145Z</time>
    </trkpt>
    <trkpt lat="56.384867" lon="60.779168">
        <ele>268.4</ele>
        <time>1970-01-01T09:48:45.145Z</time>
    </trkpt>
    <trkpt lat="56.384838" lon="60.77917">
        <ele>268.4</ele>
        <time>1970-01-01T09:48:46.145Z</time>
    </trkpt>
    <trkpt lat="56.384828" lon="60.779165">
        <ele>268.4</ele>
        <time>1970-01-01T09:48:47.145Z</time>
    </trkpt>
    <trkpt lat="56.384796" lon="60.779159">
        <ele>268.4</ele>
        <time>1970-01-01T09:48:48.145Z</time>
    </trkpt>
    <trkpt lat="56.384757" lon="60.779151">
        <ele>268.4</ele>
        <time>1970-01-01T09:48:49.145Z</time>
    </trkpt>
    <trkpt lat="56.384729" lon="60.779142">
        <ele>268.4</ele>
        <time>1970-01-01T09:48:50.145Z</time>
    </trkpt>
    <trkpt lat="56.384719" lon="60.779138">
        <ele>268.4</ele>
        <time>1970-01-01T09:48:51.145Z</time>
    </trkpt>
    <trkpt lat="56.384691" lon="60.779131">
        <ele>268.4</ele>
        <time>1970-01-01T09:48:52.145Z</time>
    </trkpt>
    <trkpt lat="56.38468" lon="60.779127">
        <ele>268.4</ele>
        <time>1970-01-01T09:48:53.145Z</time>
    </trkpt>
    <trkpt lat="56.384653" lon="60.779113">
        <ele>268.4</ele>
        <time>1970-01-01T09:48:54.145Z</time>
    </trkpt>
    <trkpt lat="56.384643" lon="60.779109">
        <ele>268.4</ele>
        <time>1970-01-01T09:48:55.145Z</time>
    </trkpt>
    <trkpt lat="56.384613" lon="60.779097">
        <ele>268.4</ele>
        <time>1970-01-01T09:48:56.145Z</time>
    </trkpt>
    <trkpt lat="56.384603" lon="60.779092">
        <ele>268.4</ele>
        <time>1970-01-01T09:48:57.145Z</time>
    </trkpt>
    <trkpt lat="56.384573" lon="60.779067">
        <ele>268.4</ele>
        <time>1970-01-01T09:48:58.145Z</time>
    </trkpt>
    <trkpt lat="56.38456" lon="60.779063">
        <ele>268.4</ele>
        <time>1970-01-01T09:48:59.145Z</time>
    </trkpt>
    <trkpt lat="56.384528" lon="60.779035">
        <ele>269.4</ele>
        <time>1970-01-01T09:49:00.145Z</time>
    </trkpt>
    <trkpt lat="56.384518" lon="60.77902">
        <ele>269.4</ele>
        <time>1970-01-01T09:49:01.145Z</time>
    </trkpt>
    <trkpt lat="56.384493" lon="60.778974">
        <ele>269.4</ele>
        <time>1970-01-01T09:49:02.145Z</time>
    </trkpt>
    <trkpt lat="56.384471" lon="60.778933">
        <ele>268.4</ele>
        <time>1970-01-01T09:49:03.145Z</time>
    </trkpt>
    <trkpt lat="56.384436" lon="60.778897">
        <ele>268.4</ele>
        <time>1970-01-01T09:49:04.145Z</time>
    </trkpt>
    <trkpt lat="56.384425" lon="60.778882">
        <ele>268.4</ele>
        <time>1970-01-01T09:49:05.145Z</time>
    </trkpt>
    <trkpt lat="56.384394" lon="60.77885">
        <ele>268.4</ele>
        <time>1970-01-01T09:49:06.145Z</time>
    </trkpt>
    <trkpt lat="56.384385" lon="60.778843">
        <ele>268.4</ele>
        <time>1970-01-01T09:49:07.145Z</time>
    </trkpt>
    <trkpt lat="56.384355" lon="60.778836">
        <ele>269.4</ele>
        <time>1970-01-01T09:49:08.145Z</time>
    </trkpt>
    <trkpt lat="56.384345" lon="60.778836">
        <ele>269.4</ele>
        <time>1970-01-01T09:49:09.145Z</time>
    </trkpt>
    <trkpt lat="56.38432" lon="60.778817">
        <ele>269.4</ele>
        <time>1970-01-01T09:49:10.145Z</time>
    </trkpt>
    <trkpt lat="56.384295" lon="60.778792">
        <ele>269.4</ele>
        <time>1970-01-01T09:49:11.145Z</time>
    </trkpt>
    <trkpt lat="56.384286" lon="60.778782">
        <ele>269.4</ele>
        <time>1970-01-01T09:49:12.145Z</time>
    </trkpt>
    <trkpt lat="56.384254" lon="60.778752">
        <ele>268.4</ele>
        <time>1970-01-01T09:49:13.145Z</time>
    </trkpt>
    <trkpt lat="56.38423" lon="60.778723">
        <ele>268.4</ele>
        <time>1970-01-01T09:49:14.145Z</time>
    </trkpt>
    <trkpt lat="56.384221" lon="60.778713">
        <ele>268.4</ele>
        <time>1970-01-01T09:49:15.145Z</time>
    </trkpt>
    <trkpt lat="56.384193" lon="60.778676">
        <ele>268.4</ele>
        <time>1970-01-01T09:49:16.145Z</time>
    </trkpt>
    <trkpt lat="56.384185" lon="60.778652">
        <ele>268.4</ele>
        <time>1970-01-01T09:49:17.145Z</time>
    </trkpt>
    <trkpt lat="56.384174" lon="60.778631">
        <ele>268.4</ele>
        <time>1970-01-01T09:49:18.145Z</time>
    </trkpt>
    <trkpt lat="56.384146" lon="60.778592">
        <ele>266.4</ele>
        <time>1970-01-01T09:49:19.145Z</time>
    </trkpt>
    <trkpt lat="56.384123" lon="60.778552">
        <ele>266.4</ele>
        <time>1970-01-01T09:49:20.145Z</time>
    </trkpt>
    <trkpt lat="56.384095" lon="60.778516">
        <ele>266.4</ele>
        <time>1970-01-01T09:49:21.145Z</time>
    </trkpt>
    <trkpt lat="56.384084" lon="60.778505">
        <ele>266.4</ele>
        <time>1970-01-01T09:49:22.145Z</time>
    </trkpt>
    <trkpt lat="56.384053" lon="60.778476">
        <ele>266.4</ele>
        <time>1970-01-01T09:49:23.145Z</time>
    </trkpt>
    <trkpt lat="56.384048" lon="60.778467">
        <ele>266.4</ele>
        <time>1970-01-01T09:49:24.145Z</time>
    </trkpt>
    <trkpt lat="56.384021" lon="60.778429">
        <ele>266.4</ele>
        <time>1970-01-01T09:49:25.145Z</time>
    </trkpt>
    <trkpt lat="56.384009" lon="60.77841">
        <ele>265.4</ele>
        <time>1970-01-01T09:49:26.145Z</time>
    </trkpt>
    <trkpt lat="56.383978" lon="60.778364">
        <ele>265.4</ele>
        <time>1970-01-01T09:49:27.145Z</time>
    </trkpt>
    <trkpt lat="56.383955" lon="60.778337">
        <ele>265.4</ele>
        <time>1970-01-01T09:49:28.145Z</time>
    </trkpt>
    <trkpt lat="56.383946" lon="60.778327">
        <ele>265.4</ele>
        <time>1970-01-01T09:49:29.145Z</time>
    </trkpt>
    <trkpt lat="56.383918" lon="60.778298">
        <ele>265.4</ele>
        <time>1970-01-01T09:49:30.145Z</time>
    </trkpt>
    <trkpt lat="56.383888" lon="60.778275">
        <ele>265.4</ele>
        <time>1970-01-01T09:49:31.145Z</time>
    </trkpt>
    <trkpt lat="56.383861" lon="60.778258">
        <ele>266.4</ele>
        <time>1970-01-01T09:49:32.145Z</time>
    </trkpt>
    <trkpt lat="56.383841" lon="60.778251">
        <ele>265.4</ele>
        <time>1970-01-01T09:49:33.145Z</time>
    </trkpt>
    <trkpt lat="56.383826" lon="60.778252">
        <ele>265.4</ele>
        <time>1970-01-01T09:49:34.145Z</time>
    </trkpt>
    <trkpt lat="56.383816" lon="60.77825">
        <ele>265.4</ele>
        <time>1970-01-01T09:49:35.145Z</time>
    </trkpt>
    <trkpt lat="56.38378" lon="60.778239">
        <ele>265.4</ele>
        <time>1970-01-01T09:49:36.145Z</time>
    </trkpt>
    <trkpt lat="56.38377" lon="60.778234">
        <ele>265.4</ele>
        <time>1970-01-01T09:49:37.145Z</time>
    </trkpt>
    <trkpt lat="56.383741" lon="60.778215">
        <ele>265.4</ele>
        <time>1970-01-01T09:49:38.145Z</time>
    </trkpt>
    <trkpt lat="56.383731" lon="60.778207">
        <ele>265.4</ele>
        <time>1970-01-01T09:49:39.145Z</time>
    </trkpt>
    <trkpt lat="56.383701" lon="60.778183">
        <ele>265.4</ele>
        <time>1970-01-01T09:49:40.145Z</time>
    </trkpt>
    <trkpt lat="56.383679" lon="60.778143">
        <ele>266.4</ele>
        <time>1970-01-01T09:49:41.145Z</time>
    </trkpt>
    <trkpt lat="56.383652" lon="60.778129">
        <ele>266.4</ele>
        <time>1970-01-01T09:49:42.145Z</time>
    </trkpt>
    <trkpt lat="56.383641" lon="60.778124">
        <ele>266.4</ele>
        <time>1970-01-01T09:49:43.145Z</time>
    </trkpt>
    <trkpt lat="56.38361" lon="60.778109">
        <ele>266.4</ele>
        <time>1970-01-01T09:49:44.145Z</time>
    </trkpt>
    <trkpt lat="56.383595" lon="60.778106">
        <ele>266.4</ele>
        <time>1970-01-01T09:49:45.145Z</time>
    </trkpt>
    <trkpt lat="56.38356" lon="60.778101">
        <ele>266.4</ele>
        <time>1970-01-01T09:49:46.145Z</time>
    </trkpt>
    <trkpt lat="56.383529" lon="60.778088">
        <ele>266.4</ele>
        <time>1970-01-01T09:49:47.145Z</time>
    </trkpt>
    <trkpt lat="56.383502" lon="60.778062">
        <ele>266.4</ele>
        <time>1970-01-01T09:49:48.145Z</time>
    </trkpt>
    <trkpt lat="56.383487" lon="60.778045">
        <ele>266.4</ele>
        <time>1970-01-01T09:49:49.145Z</time>
    </trkpt>
    <trkpt lat="56.383454" lon="60.778006">
        <ele>266.4</ele>
        <time>1970-01-01T09:49:50.145Z</time>
    </trkpt>
    <trkpt lat="56.383435" lon="60.777992">
        <ele>266.4</ele>
        <time>1970-01-01T09:49:51.145Z</time>
    </trkpt>
    <trkpt lat="56.383424" lon="60.777977">
        <ele>266.4</ele>
        <time>1970-01-01T09:49:52.145Z</time>
    </trkpt>
    <trkpt lat="56.383416" lon="60.777964">
        <ele>266.4</ele>
        <time>1970-01-01T09:49:53.145Z</time>
    </trkpt>
    <trkpt lat="56.383386" lon="60.777931">
        <ele>266.4</ele>
        <time>1970-01-01T09:49:54.145Z</time>
    </trkpt>
    <trkpt lat="56.38338" lon="60.777918">
        <ele>266.4</ele>
        <time>1970-01-01T09:49:55.145Z</time>
    </trkpt>
    <trkpt lat="56.383353" lon="60.777886">
        <ele>266.4</ele>
        <time>1970-01-01T09:49:56.145Z</time>
    </trkpt>
    <trkpt lat="56.383341" lon="60.77787">
        <ele>266.4</ele>
        <time>1970-01-01T09:49:57.145Z</time>
    </trkpt>
    <trkpt lat="56.383307" lon="60.777835">
        <ele>266.4</ele>
        <time>1970-01-01T09:49:58.145Z</time>
    </trkpt>
    <trkpt lat="56.383295" lon="60.777827">
        <ele>266.4</ele>
        <time>1970-01-01T09:49:59.145Z</time>
    </trkpt>
    <trkpt lat="56.383267" lon="60.777798">
        <ele>266.4</ele>
        <time>1970-01-01T09:50:00.145Z</time>
    </trkpt>
    <trkpt lat="56.383259" lon="60.777789">
        <ele>266.4</ele>
        <time>1970-01-01T09:50:01.145Z</time>
    </trkpt>
    <trkpt lat="56.383226" lon="60.777758">
        <ele>266.4</ele>
        <time>1970-01-01T09:50:03.145Z</time>
    </trkpt>
    <trkpt lat="56.383217" lon="60.777744">
        <ele>266.4</ele>
        <time>1970-01-01T09:50:04.145Z</time>
    </trkpt>
    <trkpt lat="56.383193" lon="60.777709">
        <ele>265.4</ele>
        <time>1970-01-01T09:50:05.145Z</time>
    </trkpt>
    <trkpt lat="56.383173" lon="60.777675">
        <ele>265.4</ele>
        <time>1970-01-01T09:50:06.145Z</time>
    </trkpt>
    <trkpt lat="56.383157" lon="60.777639">
        <ele>265.4</ele>
        <time>1970-01-01T09:50:07.145Z</time>
    </trkpt>
    <trkpt lat="56.383121" lon="60.777577">
        <ele>265.4</ele>
        <time>1970-01-01T09:50:08.145Z</time>
    </trkpt>
    <trkpt lat="56.383112" lon="60.777567">
        <ele>264.4</ele>
        <time>1970-01-01T09:50:09.145Z</time>
    </trkpt>
    <trkpt lat="56.383088" lon="60.77754">
        <ele>264.4</ele>
        <time>1970-01-01T09:50:10.145Z</time>
    </trkpt>
    <trkpt lat="56.383075" lon="60.777527">
        <ele>264.4</ele>
        <time>1970-01-01T09:50:11.145Z</time>
    </trkpt>
    <trkpt lat="56.38304" lon="60.777492">
        <ele>264.4</ele>
        <time>1970-01-01T09:50:12.145Z</time>
    </trkpt>
    <trkpt lat="56.383025" lon="60.777479">
        <ele>264.4</ele>
        <time>1970-01-01T09:50:13.145Z</time>
    </trkpt>
    <trkpt lat="56.382989" lon="60.777449">
        <ele>264.4</ele>
        <time>1970-01-01T09:50:14.145Z</time>
    </trkpt>
    <trkpt lat="56.382979" lon="60.77744">
        <ele>264.4</ele>
        <time>1970-01-01T09:50:15.145Z</time>
    </trkpt>
    <trkpt lat="56.382948" lon="60.777405">
        <ele>264.4</ele>
        <time>1970-01-01T09:50:16.145Z</time>
    </trkpt>
    <trkpt lat="56.382938" lon="60.777394">
        <ele>263.4</ele>
        <time>1970-01-01T09:50:17.145Z</time>
    </trkpt>
    <trkpt lat="56.382909" lon="60.777357">
        <ele>263.4</ele>
        <time>1970-01-01T09:50:18.145Z</time>
    </trkpt>
    <trkpt lat="56.382888" lon="60.777315">
        <ele>263.4</ele>
        <time>1970-01-01T09:50:19.145Z</time>
    </trkpt>
    <trkpt lat="56.382878" lon="60.777293">
        <ele>263.4</ele>
        <time>1970-01-01T09:50:20.145Z</time>
    </trkpt>
    <trkpt lat="56.382848" lon="60.777245">
        <ele>263.4</ele>
        <time>1970-01-01T09:50:21.145Z</time>
    </trkpt>
    <trkpt lat="56.382839" lon="60.777231">
        <ele>263.4</ele>
        <time>1970-01-01T09:50:22.145Z</time>
    </trkpt>
    <trkpt lat="56.382815" lon="60.777185">
        <ele>262.4</ele>
        <time>1970-01-01T09:50:23.145Z</time>
    </trkpt>
    <trkpt lat="56.38281" lon="60.777173">
        <ele>262.4</ele>
        <time>1970-01-01T09:50:24.145Z</time>
    </trkpt>
    <trkpt lat="56.382796" lon="60.777116">
        <ele>262.4</ele>
        <time>1970-01-01T09:50:25.145Z</time>
    </trkpt>
    <trkpt lat="56.382775" lon="60.777078">
        <ele>262.4</ele>
        <time>1970-01-01T09:50:26.145Z</time>
    </trkpt>
    <trkpt lat="56.382767" lon="60.777064">
        <ele>262.4</ele>
        <time>1970-01-01T09:50:27.145Z</time>
    </trkpt>
    <trkpt lat="56.382741" lon="60.777016">
        <ele>262.4</ele>
        <time>1970-01-01T09:50:28.145Z</time>
    </trkpt>
    <trkpt lat="56.382734" lon="60.776998">
        <ele>262.4</ele>
        <time>1970-01-01T09:50:29.145Z</time>
    </trkpt>
    <trkpt lat="56.382705" lon="60.776957">
        <ele>262.4</ele>
        <time>1970-01-01T09:50:30.145Z</time>
    </trkpt>
    <trkpt lat="56.382696" lon="60.776946">
        <ele>262.4</ele>
        <time>1970-01-01T09:50:31.145Z</time>
    </trkpt>
    <trkpt lat="56.38267" lon="60.776903">
        <ele>262.5</ele>
        <time>1970-01-01T09:50:32.145Z</time>
    </trkpt>
    <trkpt lat="56.382663" lon="60.776895">
        <ele>262.6</ele>
        <time>1970-01-01T09:50:33.145Z</time>
    </trkpt>
    <trkpt lat="56.382641" lon="60.776862">
        <ele>263.7</ele>
        <time>1970-01-01T09:50:34.145Z</time>
    </trkpt>
    <trkpt lat="56.382617" lon="60.776822">
        <ele>263.8</ele>
        <time>1970-01-01T09:50:35.145Z</time>
    </trkpt>
    <trkpt lat="56.382608" lon="60.776808">
        <ele>263.9</ele>
        <time>1970-01-01T09:50:36.145Z</time>
    </trkpt>
    <trkpt lat="56.382586" lon="60.776771">
        <ele>264.0</ele>
        <time>1970-01-01T09:50:37.145Z</time>
    </trkpt>
    <trkpt lat="56.382565" lon="60.776738">
        <ele>264.1</ele>
        <time>1970-01-01T09:50:38.145Z</time>
    </trkpt>
    <trkpt lat="56.38254" lon="60.776707">
        <ele>264.2</ele>
        <time>1970-01-01T09:50:39.145Z</time>
    </trkpt>
    <trkpt lat="56.38251" lon="60.776678">
        <ele>264.3</ele>
        <time>1970-01-01T09:50:40.145Z</time>
    </trkpt>
    <trkpt lat="56.382497" lon="60.776671">
        <ele>264.4</ele>
        <time>1970-01-01T09:50:41.145Z</time>
    </trkpt>
    <trkpt lat="56.382465" lon="60.776639">
        <ele>264.5</ele>
        <time>1970-01-01T09:50:42.145Z</time>
    </trkpt>
    <trkpt lat="56.382451" lon="60.776626">
        <ele>264.6</ele>
        <time>1970-01-01T09:50:43.145Z</time>
    </trkpt>
    <trkpt lat="56.382415" lon="60.776616">
        <ele>264.6</ele>
        <time>1970-01-01T09:50:44.145Z</time>
    </trkpt>
    <trkpt lat="56.382405" lon="60.776614">
        <ele>264.7</ele>
        <time>1970-01-01T09:50:45.145Z</time>
    </trkpt>
    <trkpt lat="56.382372" lon="60.776609">
        <ele>264.8</ele>
        <time>1970-01-01T09:50:46.145Z</time>
    </trkpt>
    <trkpt lat="56.382361" lon="60.776607">
        <ele>264.9</ele>
        <time>1970-01-01T09:50:47.145Z</time>
    </trkpt>
    <trkpt lat="56.382329" lon="60.776614">
        <ele>265.0</ele>
        <time>1970-01-01T09:50:48.145Z</time>
    </trkpt>
    <trkpt lat="56.382317" lon="60.776622">
        <ele>265.1</ele>
        <time>1970-01-01T09:50:49.145Z</time>
    </trkpt>
    <trkpt lat="56.382282" lon="60.776637">
        <ele>265.2</ele>
        <time>1970-01-01T09:50:50.145Z</time>
    </trkpt>
    <trkpt lat="56.382275" lon="60.776643">
        <ele>265.3</ele>
        <time>1970-01-01T09:50:51.145Z</time>
    </trkpt>
    <trkpt lat="56.382245" lon="60.776658">
        <ele>265.4</ele>
        <time>1970-01-01T09:50:52.145Z</time>
    </trkpt>
    <trkpt lat="56.382233" lon="60.776667">
        <ele>265.5</ele>
        <time>1970-01-01T09:50:53.145Z</time>
    </trkpt>
    <trkpt lat="56.382197" lon="60.77669">
        <ele>265.6</ele>
        <time>1970-01-01T09:50:54.145Z</time>
    </trkpt>
    <trkpt lat="56.382168" lon="60.776711">
        <ele>265.7</ele>
        <time>1970-01-01T09:50:55.145Z</time>
    </trkpt>
    <trkpt lat="56.382137" lon="60.776717">
        <ele>265.8</ele>
        <time>1970-01-01T09:50:56.145Z</time>
    </trkpt>
    <trkpt lat="56.382128" lon="60.776724">
        <ele>265.9</ele>
        <time>1970-01-01T09:50:57.145Z</time>
    </trkpt>
    <trkpt lat="56.382095" lon="60.776745">
        <ele>266.0</ele>
        <time>1970-01-01T09:50:58.145Z</time>
    </trkpt>
    <trkpt lat="56.382067" lon="60.776761">
        <ele>265.1</ele>
        <time>1970-01-01T09:50:59.145Z</time>
    </trkpt>
    <trkpt lat="56.382055" lon="60.776763">
        <ele>265.2</ele>
        <time>1970-01-01T09:51:00.145Z</time>
    </trkpt>
    <trkpt lat="56.382024" lon="60.77678">
        <ele>265.3</ele>
        <time>1970-01-01T09:51:01.145Z</time>
    </trkpt>
    <trkpt lat="56.381995" lon="60.776784">
        <ele>265.4</ele>
        <time>1970-01-01T09:51:02.145Z</time>
    </trkpt>
    <trkpt lat="56.381983" lon="60.776782">
        <ele>265.5</ele>
        <time>1970-01-01T09:51:03.145Z</time>
    </trkpt>
    <trkpt lat="56.381945" lon="60.776777">
        <ele>265.6</ele>
        <time>1970-01-01T09:51:04.145Z</time>
    </trkpt>
    <trkpt lat="56.381919" lon="60.776763">
        <ele>265.7</ele>
        <time>1970-01-01T09:51:05.145Z</time>
    </trkpt>
    <trkpt lat="56.381907" lon="60.776762">
        <ele>265.8</ele>
        <time>1970-01-01T09:51:06.145Z</time>
    </trkpt>
    <trkpt lat="56.381871" lon="60.776759">
        <ele>265.9</ele>
        <time>1970-01-01T09:51:07.145Z</time>
    </trkpt>
    <trkpt lat="56.381844" lon="60.776756">
        <ele>266.0</ele>
        <time>1970-01-01T09:51:08.145Z</time>
    </trkpt>
    <trkpt lat="56.381831" lon="60.776754">
        <ele>266.0</ele>
        <time>1970-01-01T09:51:09.145Z</time>
    </trkpt>
    <trkpt lat="56.381796" lon="60.776746">
        <ele>266.1</ele>
        <time>1970-01-01T09:51:10.145Z</time>
    </trkpt>
    <trkpt lat="56.38178" lon="60.776746">
        <ele>266.2</ele>
        <time>1970-01-01T09:51:11.145Z</time>
    </trkpt>
    <trkpt lat="56.381742" lon="60.776735">
        <ele>266.3</ele>
        <time>1970-01-01T09:51:12.145Z</time>
    </trkpt>
    <trkpt lat="56.381709" lon="60.776738">
        <ele>266.4</ele>
        <time>1970-01-01T09:51:13.145Z</time>
    </trkpt>
    <trkpt lat="56.38168" lon="60.776735">
        <ele>265.5</ele>
        <time>1970-01-01T09:51:14.145Z</time>
    </trkpt>
    <trkpt lat="56.381669" lon="60.776738">
        <ele>265.6</ele>
        <time>1970-01-01T09:51:15.145Z</time>
    </trkpt>
    <trkpt lat="56.381643" lon="60.776741">
        <ele>265.7</ele>
        <time>1970-01-01T09:51:16.145Z</time>
    </trkpt>
    <trkpt lat="56.381631" lon="60.776745">
        <ele>265.8</ele>
        <time>1970-01-01T09:51:17.145Z</time>
    </trkpt>
    <trkpt lat="56.381601" lon="60.776755">
        <ele>265.9</ele>
        <time>1970-01-01T09:51:18.145Z</time>
    </trkpt>
    <trkpt lat="56.381586" lon="60.776757">
        <ele>266.0</ele>
        <time>1970-01-01T09:51:19.145Z</time>
    </trkpt>
    <trkpt lat="56.381552" lon="60.77676">
        <ele>266.1</ele>
        <time>1970-01-01T09:51:20.145Z</time>
    </trkpt>
    <trkpt lat="56.381541" lon="60.776762">
        <ele>266.2</ele>
        <time>1970-01-01T09:51:21.145Z</time>
    </trkpt>
    <trkpt lat="56.381505" lon="60.77677">
        <ele>266.3</ele>
        <time>1970-01-01T09:51:22.145Z</time>
    </trkpt>
    <trkpt lat="56.381496" lon="60.776773">
        <ele>266.4</ele>
        <time>1970-01-01T09:51:23.145Z</time>
    </trkpt>
    <trkpt lat="56.381467" lon="60.77679">
        <ele>266.5</ele>
        <time>1970-01-01T09:51:24.145Z</time>
    </trkpt>
    <trkpt lat="56.38146" lon="60.776788">
        <ele>266.6</ele>
        <time>1970-01-01T09:51:25.145Z</time>
    </trkpt>
    <trkpt lat="56.381427" lon="60.77678">
        <ele>266.7</ele>
        <time>1970-01-01T09:51:26.145Z</time>
    </trkpt>
    <trkpt lat="56.381397" lon="60.776779">
        <ele>266.8</ele>
        <time>1970-01-01T09:51:27.145Z</time>
    </trkpt>
    <trkpt lat="56.381368" lon="60.776777">
        <ele>266.9</ele>
        <time>1970-01-01T09:51:28.145Z</time>
    </trkpt>
    <trkpt lat="56.381354" lon="60.776787">
        <ele>267.0</ele>
        <time>1970-01-01T09:51:29.145Z</time>
    </trkpt>
    <trkpt lat="56.381315" lon="60.776815">
        <ele>267.1</ele>
        <time>1970-01-01T09:51:30.145Z</time>
    </trkpt>
    <trkpt lat="56.381301" lon="60.776825">
        <ele>267.2</ele>
        <time>1970-01-01T09:51:31.145Z</time>
    </trkpt>
    <trkpt lat="56.381276" lon="60.776842">
        <ele>267.3</ele>
        <time>1970-01-01T09:51:32.145Z</time>
    </trkpt>
    <trkpt lat="56.381266" lon="60.776841">
        <ele>267.4</ele>
        <time>1970-01-01T09:51:33.145Z</time>
    </trkpt>
    <trkpt lat="56.381238" lon="60.776857">
        <ele>267.4</ele>
        <time>1970-01-01T09:51:34.145Z</time>
    </trkpt>
    <trkpt lat="56.381223" lon="60.776862">
        <ele>267.5</ele>
        <time>1970-01-01T09:51:35.145Z</time>
    </trkpt>
    <trkpt lat="56.381187" lon="60.776874">
        <ele>266.6</ele>
        <time>1970-01-01T09:51:36.145Z</time>
    </trkpt>
    <trkpt lat="56.381177" lon="60.776875">
        <ele>266.7</ele>
        <time>1970-01-01T09:51:37.145Z</time>
    </trkpt>
    <trkpt lat="56.381153" lon="60.7769">
        <ele>267.8</ele>
        <time>1970-01-01T09:51:38.145Z</time>
    </trkpt>
    <trkpt lat="56.381125" lon="60.776919">
        <ele>266.9</ele>
        <time>1970-01-01T09:51:39.145Z</time>
    </trkpt>
    <trkpt lat="56.381115" lon="60.776928">
        <ele>267.0</ele>
        <time>1970-01-01T09:51:40.145Z</time>
    </trkpt>
    <trkpt lat="56.381088" lon="60.776945">
        <ele>267.1</ele>
        <time>1970-01-01T09:51:41.145Z</time>
    </trkpt>
    <trkpt lat="56.381072" lon="60.776951">
        <ele>267.2</ele>
        <time>1970-01-01T09:51:42.145Z</time>
    </trkpt>
    <trkpt lat="56.381031" lon="60.776969">
        <ele>267.3</ele>
        <time>1970-01-01T09:51:43.145Z</time>
    </trkpt>
    <trkpt lat="56.381003" lon="60.77698">
        <ele>267.4</ele>
        <time>1970-01-01T09:51:44.145Z</time>
    </trkpt>
    <trkpt lat="56.380991" lon="60.776989">
        <ele>267.5</ele>
        <time>1970-01-01T09:51:45.145Z</time>
    </trkpt>
    <trkpt lat="56.380964" lon="60.777017">
        <ele>267.6</ele>
        <time>1970-01-01T09:51:46.145Z</time>
    </trkpt>
    <trkpt lat="56.38094" lon="60.77705">
        <ele>267.7</ele>
        <time>1970-01-01T09:51:47.145Z</time>
    </trkpt>
    <trkpt lat="56.380931" lon="60.77706">
        <ele>267.8</ele>
        <time>1970-01-01T09:51:48.145Z</time>
    </trkpt>
    <trkpt lat="56.380898" lon="60.777096">
        <ele>267.9</ele>
        <time>1970-01-01T09:51:49.145Z</time>
    </trkpt>
    <trkpt lat="56.38089" lon="60.7771">
        <ele>268.0</ele>
        <time>1970-01-01T09:51:50.145Z</time>
    </trkpt>
    <trkpt lat="56.38086" lon="60.777116">
        <ele>268.1</ele>
        <time>1970-01-01T09:51:51.145Z</time>
    </trkpt>
    <trkpt lat="56.380832" lon="60.77713">
        <ele>268.2</ele>
        <time>1970-01-01T09:51:52.145Z</time>
    </trkpt>
    <trkpt lat="56.380804" lon="60.777146">
        <ele>268.3</ele>
        <time>1970-01-01T09:51:53.145Z</time>
    </trkpt>
    <trkpt lat="56.380777" lon="60.777165">
        <ele>268.4</ele>
        <time>1970-01-01T09:51:54.145Z</time>
    </trkpt>
    <trkpt lat="56.380764" lon="60.777172">
        <ele>268.5</ele>
        <time>1970-01-01T09:51:55.145Z</time>
    </trkpt>
    <trkpt lat="56.380726" lon="60.777181">
        <ele>268.6</ele>
        <time>1970-01-01T09:51:56.145Z</time>
    </trkpt>
    <trkpt lat="56.380715" lon="60.777185">
        <ele>268.7</ele>
        <time>1970-01-01T09:51:57.145Z</time>
    </trkpt>
    <trkpt lat="56.380678" lon="60.777193">
        <ele>268.8</ele>
        <time>1970-01-01T09:51:58.145Z</time>
    </trkpt>
    <trkpt lat="56.380647" lon="60.7772">
        <ele>267.8</ele>
        <time>1970-01-01T09:51:59.145Z</time>
    </trkpt>
    <trkpt lat="56.380633" lon="60.777205">
        <ele>267.9</ele>
        <time>1970-01-01T09:52:00.145Z</time>
    </trkpt>
    <trkpt lat="56.380602" lon="60.777226">
        <ele>268.0</ele>
        <time>1970-01-01T09:52:01.145Z</time>
    </trkpt>
    <trkpt lat="56.380589" lon="60.77723">
        <ele>268.1</ele>
        <time>1970-01-01T09:52:02.145Z</time>
    </trkpt>
    <trkpt lat="56.380558" lon="60.777245">
        <ele>268.2</ele>
        <time>1970-01-01T09:52:03.145Z</time>
    </trkpt>
    <trkpt lat="56.380541" lon="60.777245">
        <ele>267.3</ele>
        <time>1970-01-01T09:52:04.145Z</time>
    </trkpt>
    <trkpt lat="56.380503" lon="60.777272">
        <ele>267.4</ele>
        <time>1970-01-01T09:52:05.145Z</time>
    </trkpt>
    <trkpt lat="56.380494" lon="60.777278">
        <ele>267.5</ele>
        <time>1970-01-01T09:52:06.145Z</time>
    </trkpt>
    <trkpt lat="56.380467" lon="60.777306">
        <ele>267.6</ele>
        <time>1970-01-01T09:52:07.145Z</time>
    </trkpt>
    <trkpt lat="56.380454" lon="60.777319">
        <ele>267.7</ele>
        <time>1970-01-01T09:52:08.145Z</time>
    </trkpt>
    <trkpt lat="56.380424" lon="60.777352">
        <ele>267.8</ele>
        <time>1970-01-01T09:52:09.145Z</time>
    </trkpt>
    <trkpt lat="56.380398" lon="60.777383">
        <ele>267.9</ele>
        <time>1970-01-01T09:52:10.145Z</time>
    </trkpt>
    <trkpt lat="56.380365" lon="60.777408">
        <ele>267.0</ele>
        <time>1970-01-01T09:52:11.145Z</time>
    </trkpt>
    <trkpt lat="56.380336" lon="60.777432">
        <ele>267.0</ele>
        <time>1970-01-01T09:52:12.145Z</time>
    </trkpt>
    <trkpt lat="56.380307" lon="60.777461">
        <ele>267.0</ele>
        <time>1970-01-01T09:52:13.145Z</time>
    </trkpt>
    <trkpt lat="56.380277" lon="60.777497">
        <ele>267.0</ele>
        <time>1970-01-01T09:52:14.145Z</time>
    </trkpt>
    <trkpt lat="56.380264" lon="60.777513">
        <ele>267.0</ele>
        <time>1970-01-01T09:52:15.145Z</time>
    </trkpt>
    <trkpt lat="56.38023" lon="60.77756">
        <ele>267.0</ele>
        <time>1970-01-01T09:52:16.145Z</time>
    </trkpt>
    <trkpt lat="56.380219" lon="60.777577">
        <ele>267.0</ele>
        <time>1970-01-01T09:52:17.145Z</time>
    </trkpt>
    <trkpt lat="56.380192" lon="60.777623">
        <ele>267.0</ele>
        <time>1970-01-01T09:52:18.145Z</time>
    </trkpt>
    <trkpt lat="56.380176" lon="60.777636">
        <ele>267.0</ele>
        <time>1970-01-01T09:52:19.145Z</time>
    </trkpt>
    <trkpt lat="56.380137" lon="60.777671">
        <ele>267.0</ele>
        <time>1970-01-01T09:52:20.145Z</time>
    </trkpt>
    <trkpt lat="56.38012" lon="60.777685">
        <ele>267.0</ele>
        <time>1970-01-01T09:52:21.145Z</time>
    </trkpt>
    <trkpt lat="56.380111" lon="60.777694">
        <ele>267.0</ele>
        <time>1970-01-01T09:52:22.145Z</time>
    </trkpt>
    <trkpt lat="56.3801" lon="60.777695">
        <ele>267.0</ele>
        <time>1970-01-01T09:52:23.145Z</time>
    </trkpt>
    <trkpt lat="56.380066" lon="60.777714">
        <ele>267.0</ele>
        <time>1970-01-01T09:52:24.145Z</time>
    </trkpt>
    <trkpt lat="56.380053" lon="60.777728">
        <ele>267.0</ele>
        <time>1970-01-01T09:52:25.145Z</time>
    </trkpt>
    <trkpt lat="56.380019" lon="60.777758">
        <ele>267.0</ele>
        <time>1970-01-01T09:52:26.145Z</time>
    </trkpt>
    <trkpt lat="56.38001" lon="60.777769">
        <ele>267.0</ele>
        <time>1970-01-01T09:52:27.145Z</time>
    </trkpt>
    <trkpt lat="56.379978" lon="60.777796">
        <ele>267.0</ele>
        <time>1970-01-01T09:52:28.145Z</time>
    </trkpt>
    <trkpt lat="56.379949" lon="60.777817">
        <ele>267.0</ele>
        <time>1970-01-01T09:52:29.145Z</time>
    </trkpt>
    <trkpt lat="56.379941" lon="60.777827">
        <ele>267.0</ele>
        <time>1970-01-01T09:52:30.145Z</time>
    </trkpt>
    <trkpt lat="56.379914" lon="60.77786">
        <ele>267.0</ele>
        <time>1970-01-01T09:52:31.145Z</time>
    </trkpt>
    <trkpt lat="56.379888" lon="60.777888">
        <ele>268.0</ele>
        <time>1970-01-01T09:52:32.145Z</time>
    </trkpt>
    <trkpt lat="56.379858" lon="60.777923">
        <ele>268.0</ele>
        <time>1970-01-01T09:52:33.145Z</time>
    </trkpt>
    <trkpt lat="56.379829" lon="60.777965">
        <ele>268.0</ele>
        <time>1970-01-01T09:52:34.145Z</time>
    </trkpt>
    <trkpt lat="56.379803" lon="60.778001">
        <ele>268.0</ele>
        <time>1970-01-01T09:52:35.145Z</time>
    </trkpt>
    <trkpt lat="56.379791" lon="60.77803">
        <ele>269.0</ele>
        <time>1970-01-01T09:52:36.145Z</time>
    </trkpt>
    <trkpt lat="56.37977" lon="60.77809">
        <ele>270.0</ele>
        <time>1970-01-01T09:52:37.145Z</time>
    </trkpt>
    <trkpt lat="56.379767" lon="60.778099">
        <ele>270.0</ele>
        <time>1970-01-01T09:52:38.145Z</time>
    </trkpt>
    <trkpt lat="56.379752" lon="60.778152">
        <ele>270.0</ele>
        <time>1970-01-01T09:52:39.145Z</time>
    </trkpt>
    <trkpt lat="56.379725" lon="60.77817">
        <ele>270.0</ele>
        <time>1970-01-01T09:52:40.145Z</time>
    </trkpt>
    <trkpt lat="56.379702" lon="60.778203">
        <ele>270.0</ele>
        <time>1970-01-01T09:52:41.145Z</time>
    </trkpt>
    <trkpt lat="56.379692" lon="60.778223">
        <ele>270.0</ele>
        <time>1970-01-01T09:52:42.145Z</time>
    </trkpt>
    <trkpt lat="56.379669" lon="60.778257">
        <ele>271.0</ele>
        <time>1970-01-01T09:52:43.145Z</time>
    </trkpt>
    <trkpt lat="56.379661" lon="60.778266">
        <ele>271.0</ele>
        <time>1970-01-01T09:52:44.145Z</time>
    </trkpt>
    <trkpt lat="56.379642" lon="60.778305">
        <ele>271.0</ele>
        <time>1970-01-01T09:52:45.145Z</time>
    </trkpt>
    <trkpt lat="56.379622" lon="60.778339">
        <ele>271.0</ele>
        <time>1970-01-01T09:52:46.145Z</time>
    </trkpt>
    <trkpt lat="56.379614" lon="60.778346">
        <ele>271.0</ele>
        <time>1970-01-01T09:52:47.145Z</time>
    </trkpt>
    <trkpt lat="56.379585" lon="60.778371">
        <ele>271.0</ele>
        <time>1970-01-01T09:52:48.145Z</time>
    </trkpt>
    <trkpt lat="56.379573" lon="60.778375">
        <ele>271.0</ele>
        <time>1970-01-01T09:52:49.145Z</time>
    </trkpt>
    <trkpt lat="56.379544" lon="60.778416">
        <ele>271.0</ele>
        <time>1970-01-01T09:52:50.145Z</time>
    </trkpt>
    <trkpt lat="56.379518" lon="60.778436">
        <ele>272.0</ele>
        <time>1970-01-01T09:52:51.145Z</time>
    </trkpt>
    <trkpt lat="56.379503" lon="60.77845">
        <ele>272.0</ele>
        <time>1970-01-01T09:52:52.145Z</time>
    </trkpt>
    <trkpt lat="56.379465" lon="60.778485">
        <ele>272.0</ele>
        <time>1970-01-01T09:52:53.145Z</time>
    </trkpt>
    <trkpt lat="56.37945" lon="60.77849">
        <ele>272.0</ele>
        <time>1970-01-01T09:52:54.145Z</time>
    </trkpt>
    <trkpt lat="56.379424" lon="60.7785">
        <ele>272.0</ele>
        <time>1970-01-01T09:52:55.145Z</time>
    </trkpt>
    <trkpt lat="56.379395" lon="60.778504">
        <ele>272.0</ele>
        <time>1970-01-01T09:52:56.145Z</time>
    </trkpt>
    <trkpt lat="56.379366" lon="60.778515">
        <ele>272.0</ele>
        <time>1970-01-01T09:52:57.145Z</time>
    </trkpt>
    <trkpt lat="56.379327" lon="60.778537">
        <ele>272.0</ele>
        <time>1970-01-01T09:52:58.145Z</time>
    </trkpt>
    <trkpt lat="56.3793" lon="60.778544">
        <ele>272.0</ele>
        <time>1970-01-01T09:52:59.145Z</time>
    </trkpt>
    <trkpt lat="56.379293" lon="60.778553">
        <ele>272.0</ele>
        <time>1970-01-01T09:53:00.145Z</time>
    </trkpt>
    <trkpt lat="56.379261" lon="60.778575">
        <ele>272.0</ele>
        <time>1970-01-01T09:53:01.145Z</time>
    </trkpt>
    <trkpt lat="56.379228" lon="60.778588">
        <ele>272.0</ele>
        <time>1970-01-01T09:53:02.145Z</time>
    </trkpt>
    <trkpt lat="56.379196" lon="60.778619">
        <ele>272.0</ele>
        <time>1970-01-01T09:53:03.145Z</time>
    </trkpt>
    <trkpt lat="56.379169" lon="60.778644">
        <ele>272.0</ele>
        <time>1970-01-01T09:53:04.145Z</time>
    </trkpt>
    <trkpt lat="56.379155" lon="60.778655">
        <ele>272.0</ele>
        <time>1970-01-01T09:53:05.145Z</time>
    </trkpt>
    <trkpt lat="56.379121" lon="60.778692">
        <ele>272.0</ele>
        <time>1970-01-01T09:53:06.145Z</time>
    </trkpt>
    <trkpt lat="56.379116" lon="60.778705">
        <ele>272.0</ele>
        <time>1970-01-01T09:53:07.145Z</time>
    </trkpt>
    <trkpt lat="56.379094" lon="60.778753">
        <ele>272.0</ele>
        <time>1970-01-01T09:53:08.145Z</time>
    </trkpt>
    <trkpt lat="56.379082" lon="60.778764">
        <ele>272.0</ele>
        <time>1970-01-01T09:53:09.145Z</time>
    </trkpt>
    <trkpt lat="56.379058" lon="60.778805">
        <ele>272.0</ele>
        <time>1970-01-01T09:53:10.145Z</time>
    </trkpt>
    <trkpt lat="56.379053" lon="60.778814">
        <ele>272.0</ele>
        <time>1970-01-01T09:53:11.145Z</time>
    </trkpt>
    <trkpt lat="56.37903" lon="60.778856">
        <ele>272.0</ele>
        <time>1970-01-01T09:53:12.145Z</time>
    </trkpt>
    <trkpt lat="56.379021" lon="60.77886">
        <ele>272.0</ele>
        <time>1970-01-01T09:53:13.145Z</time>
    </trkpt>
    <trkpt lat="56.37899" lon="60.778888">
        <ele>272.0</ele>
        <time>1970-01-01T09:53:14.145Z</time>
    </trkpt>
    <trkpt lat="56.37898" lon="60.77891">
        <ele>272.0</ele>
        <time>1970-01-01T09:53:15.145Z</time>
    </trkpt>
    <trkpt lat="56.378971" lon="60.778925">
        <ele>272.0</ele>
        <time>1970-01-01T09:53:16.145Z</time>
    </trkpt>
    <trkpt lat="56.378966" lon="60.778953">
        <ele>273.0</ele>
        <time>1970-01-01T09:53:17.145Z</time>
    </trkpt>
    <trkpt lat="56.378951" lon="60.778966">
        <ele>273.0</ele>
        <time>1970-01-01T09:53:18.145Z</time>
    </trkpt>
    <trkpt lat="56.378922" lon="60.778974">
        <ele>272.0</ele>
        <time>1970-01-01T09:53:19.145Z</time>
    </trkpt>
    <trkpt lat="56.378913" lon="60.778972">
        <ele>272.0</ele>
        <time>1970-01-01T09:53:20.145Z</time>
    </trkpt>
    <trkpt lat="56.378882" lon="60.778974">
        <ele>272.0</ele>
        <time>1970-01-01T09:53:21.145Z</time>
    </trkpt>
    <trkpt lat="56.378848" lon="60.778977">
        <ele>272.0</ele>
        <time>1970-01-01T09:53:22.145Z</time>
    </trkpt>
    <trkpt lat="56.378818" lon="60.778978">
        <ele>272.0</ele>
        <time>1970-01-01T09:53:23.145Z</time>
    </trkpt>
    <trkpt lat="56.378791" lon="60.778972">
        <ele>272.0</ele>
        <time>1970-01-01T09:53:24.145Z</time>
    </trkpt>
    <trkpt lat="56.378778" lon="60.77896">
        <ele>272.0</ele>
        <time>1970-01-01T09:53:25.145Z</time>
    </trkpt>
    <trkpt lat="56.378764" lon="60.77895">
        <ele>272.0</ele>
        <time>1970-01-01T09:53:26.145Z</time>
    </trkpt>
    <trkpt lat="56.37875" lon="60.778947">
        <ele>272.0</ele>
        <time>1970-01-01T09:53:27.145Z</time>
    </trkpt>
    <trkpt lat="56.37871" lon="60.778935">
        <ele>271.0</ele>
        <time>1970-01-01T09:53:28.145Z</time>
    </trkpt>
    <trkpt lat="56.378697" lon="60.77893">
        <ele>271.0</ele>
        <time>1970-01-01T09:53:29.145Z</time>
    </trkpt>
    <trkpt lat="56.378661" lon="60.778925">
        <ele>271.0</ele>
        <time>1970-01-01T09:53:30.145Z</time>
    </trkpt>
    <trkpt lat="56.378652" lon="60.778927">
        <ele>270.0</ele>
        <time>1970-01-01T09:53:31.145Z</time>
    </trkpt>
    <trkpt lat="56.378623" lon="60.77893">
        <ele>270.0</ele>
        <time>1970-01-01T09:53:32.145Z</time>
    </trkpt>
    <trkpt lat="56.378614" lon="60.778933">
        <ele>270.0</ele>
        <time>1970-01-01T09:53:33.145Z</time>
    </trkpt>
    <trkpt lat="56.378583" lon="60.778936">
        <ele>270.0</ele>
        <time>1970-01-01T09:53:34.145Z</time>
    </trkpt>
    <trkpt lat="56.378555" lon="60.778933">
        <ele>270.0</ele>
        <time>1970-01-01T09:53:35.145Z</time>
    </trkpt>
    <trkpt lat="56.378538" lon="60.778931">
        <ele>270.0</ele>
        <time>1970-01-01T09:53:36.145Z</time>
    </trkpt>
    <trkpt lat="56.37852" lon="60.778931">
        <ele>270.0</ele>
        <time>1970-01-01T09:53:37.145Z</time>
    </trkpt>
    <trkpt lat="56.378507" lon="60.778931">
        <ele>270.0</ele>
        <time>1970-01-01T09:53:38.145Z</time>
    </trkpt>
    <trkpt lat="56.378472" lon="60.778935">
        <ele>270.0</ele>
        <time>1970-01-01T09:53:39.145Z</time>
    </trkpt>
    <trkpt lat="56.378464" lon="60.778938">
        <ele>269.0</ele>
        <time>1970-01-01T09:53:40.145Z</time>
    </trkpt>
    <trkpt lat="56.378437" lon="60.778946">
        <ele>270.0</ele>
        <time>1970-01-01T09:53:41.145Z</time>
    </trkpt>
    <trkpt lat="56.378399" lon="60.778946">
        <ele>270.0</ele>
        <time>1970-01-01T09:53:42.145Z</time>
    </trkpt>
    <trkpt lat="56.378371" lon="60.778953">
        <ele>270.0</ele>
        <time>1970-01-01T09:53:43.145Z</time>
    </trkpt>
    <trkpt lat="56.378362" lon="60.778947">
        <ele>269.0</ele>
        <time>1970-01-01T09:53:44.145Z</time>
    </trkpt>
    <trkpt lat="56.378334" lon="60.77893">
        <ele>269.0</ele>
        <time>1970-01-01T09:53:45.145Z</time>
    </trkpt>
    <trkpt lat="56.378314" lon="60.778924">
        <ele>269.0</ele>
        <time>1970-01-01T09:53:46.145Z</time>
    </trkpt>
    <trkpt lat="56.378304" lon="60.778924">
        <ele>269.0</ele>
        <time>1970-01-01T09:53:47.145Z</time>
    </trkpt>
    <trkpt lat="56.378279" lon="60.778903">
        <ele>269.0</ele>
        <time>1970-01-01T09:53:48.145Z</time>
    </trkpt>
    <trkpt lat="56.37825" lon="60.778891">
        <ele>268.0</ele>
        <time>1970-01-01T09:53:49.145Z</time>
    </trkpt>
    <trkpt lat="56.378241" lon="60.778886">
        <ele>268.0</ele>
        <time>1970-01-01T09:53:50.145Z</time>
    </trkpt>
    <trkpt lat="56.37821" lon="60.778867">
        <ele>268.0</ele>
        <time>1970-01-01T09:53:51.145Z</time>
    </trkpt>
    <trkpt lat="56.378197" lon="60.778856">
        <ele>268.0</ele>
        <time>1970-01-01T09:53:52.145Z</time>
    </trkpt>
    <trkpt lat="56.378164" lon="60.77883">
        <ele>267.0</ele>
        <time>1970-01-01T09:53:53.145Z</time>
    </trkpt>
    <trkpt lat="56.378154" lon="60.77882">
        <ele>267.0</ele>
        <time>1970-01-01T09:53:54.145Z</time>
    </trkpt>
    <trkpt lat="56.378143" lon="60.778809">
        <ele>267.0</ele>
        <time>1970-01-01T09:53:55.145Z</time>
    </trkpt>
    <trkpt lat="56.378123" lon="60.778792">
        <ele>267.0</ele>
        <time>1970-01-01T09:53:56.145Z</time>
    </trkpt>
    <trkpt lat="56.378114" lon="60.778781">
        <ele>267.0</ele>
        <time>1970-01-01T09:53:57.145Z</time>
    </trkpt>
    <trkpt lat="56.378087" lon="60.778753">
        <ele>267.0</ele>
        <time>1970-01-01T09:53:58.145Z</time>
    </trkpt>
    <trkpt lat="56.378079" lon="60.778741">
        <ele>267.0</ele>
        <time>1970-01-01T09:53:59.145Z</time>
    </trkpt>
    <trkpt lat="56.378059" lon="60.778711">
        <ele>267.0</ele>
        <time>1970-01-01T09:54:00.145Z</time>
    </trkpt>
    <trkpt lat="56.378046" lon="60.778693">
        <ele>267.0</ele>
        <time>1970-01-01T09:54:01.145Z</time>
    </trkpt>
    <trkpt lat="56.378029" lon="60.778677">
        <ele>267.0</ele>
        <time>1970-01-01T09:54:02.145Z</time>
    </trkpt>
    <trkpt lat="56.378021" lon="60.778669">
        <ele>267.0</ele>
        <time>1970-01-01T09:54:03.145Z</time>
    </trkpt>
    <trkpt lat="56.377996" lon="60.778635">
        <ele>267.0</ele>
        <time>1970-01-01T09:54:04.145Z</time>
    </trkpt>
    <trkpt lat="56.37798" lon="60.778617">
        <ele>267.0</ele>
        <time>1970-01-01T09:54:05.145Z</time>
    </trkpt>
    <trkpt lat="56.377943" lon="60.778574">
        <ele>267.0</ele>
        <time>1970-01-01T09:54:06.145Z</time>
    </trkpt>
    <trkpt lat="56.377927" lon="60.778556">
        <ele>267.0</ele>
        <time>1970-01-01T09:54:07.145Z</time>
    </trkpt>
    <trkpt lat="56.377914" lon="60.778545">
        <ele>267.0</ele>
        <time>1970-01-01T09:54:08.145Z</time>
    </trkpt>
    <trkpt lat="56.377906" lon="60.778531">
        <ele>267.0</ele>
        <time>1970-01-01T09:54:09.145Z</time>
    </trkpt>
    <trkpt lat="56.377878" lon="60.778509">
        <ele>267.0</ele>
        <time>1970-01-01T09:54:10.145Z</time>
    </trkpt>
    <trkpt lat="56.377872" lon="60.778498">
        <ele>267.0</ele>
        <time>1970-01-01T09:54:11.145Z</time>
    </trkpt>
    <trkpt lat="56.377853" lon="60.778487">
        <ele>267.0</ele>
        <time>1970-01-01T09:54:12.145Z</time>
    </trkpt>
    <trkpt lat="56.377842" lon="60.778476">
        <ele>267.0</ele>
        <time>1970-01-01T09:54:13.145Z</time>
    </trkpt>
    <trkpt lat="56.377815" lon="60.778449">
        <ele>267.0</ele>
        <time>1970-01-01T09:54:15.145Z</time>
    </trkpt>
    <trkpt lat="56.377803" lon="60.778427">
        <ele>267.0</ele>
        <time>1970-01-01T09:54:16.145Z</time>
    </trkpt>
    <trkpt lat="56.377792" lon="60.778416">
        <ele>268.0</ele>
        <time>1970-01-01T09:54:17.145Z</time>
    </trkpt>
    <trkpt lat="56.377781" lon="60.778399">
        <ele>268.0</ele>
        <time>1970-01-01T09:54:18.145Z</time>
    </trkpt>
    <trkpt lat="56.377768" lon="60.778379">
        <ele>268.0</ele>
        <time>1970-01-01T09:54:19.145Z</time>
    </trkpt>
    <trkpt lat="56.37776" lon="60.778357">
        <ele>268.0</ele>
        <time>1970-01-01T09:54:20.145Z</time>
    </trkpt>
    <trkpt lat="56.377748" lon="60.778338">
        <ele>268.0</ele>
        <time>1970-01-01T09:54:21.145Z</time>
    </trkpt>
    <trkpt lat="56.377743" lon="60.778325">
        <ele>268.0</ele>
        <time>1970-01-01T09:54:22.145Z</time>
    </trkpt>
    <trkpt lat="56.377738" lon="60.778312">
        <ele>268.0</ele>
        <time>1970-01-01T09:54:23.145Z</time>
    </trkpt>
    <trkpt lat="56.377728" lon="60.778282">
        <ele>268.0</ele>
        <time>1970-01-01T09:54:24.145Z</time>
    </trkpt>
    <trkpt lat="56.377722" lon="60.778271">
        <ele>268.0</ele>
        <time>1970-01-01T09:54:25.145Z</time>
    </trkpt>
    <trkpt lat="56.377697" lon="60.778229">
        <ele>270.0</ele>
        <time>1970-01-01T09:54:26.145Z</time>
    </trkpt>
    <trkpt lat="56.377686" lon="60.778208">
        <ele>270.0</ele>
        <time>1970-01-01T09:54:27.145Z</time>
    </trkpt>
    <trkpt lat="56.37763" lon="60.778157">
        <ele>270.0</ele>
        <time>1970-01-01T09:55:27.145Z</time>
    </trkpt>
    <trkpt lat="56.377627" lon="60.778152">
        <ele>270.0</ele>
        <time>1970-01-01T09:55:28.145Z</time>
    </trkpt>
    <trkpt lat="56.377625" lon="60.778139">
        <ele>270.0</ele>
        <time>1970-01-01T09:55:29.145Z</time>
    </trkpt>
    <trkpt lat="56.377623" lon="60.778131">
        <ele>270.0</ele>
        <time>1970-01-01T09:55:30.145Z</time>
    </trkpt>
    <trkpt lat="56.377623" lon="60.778124">
        <ele>270.0</ele>
        <time>1970-01-01T09:55:31.145Z</time>
    </trkpt>
    <trkpt lat="56.377624" lon="60.778114">
        <ele>270.0</ele>
        <time>1970-01-01T09:55:32.145Z</time>
    </trkpt>
    <trkpt lat="56.377625" lon="60.778103">
        <ele>270.0</ele>
        <time>1970-01-01T09:55:33.145Z</time>
    </trkpt>
    <trkpt lat="56.377627" lon="60.778099">
        <ele>270.0</ele>
        <time>1970-01-01T09:55:34.145Z</time>
    </trkpt>
    <trkpt lat="56.377622" lon="60.778099">
        <ele>270.0</ele>
        <time>1970-01-01T09:55:35.145Z</time>
    </trkpt>
    <trkpt lat="56.377616" lon="60.778092">
        <ele>270.0</ele>
        <time>1970-01-01T09:55:36.145Z</time>
    </trkpt>
    <trkpt lat="56.37762" lon="60.778094">
        <ele>270.0</ele>
        <time>1970-01-01T09:55:37.145Z</time>
    </trkpt>
    <trkpt lat="56.377613" lon="60.778076">
        <ele>271.0</ele>
        <time>1970-01-01T09:55:38.145Z</time>
    </trkpt>
    <trkpt lat="56.377589" lon="60.778046">
        <ele>272.0</ele>
        <time>1970-01-01T09:55:39.145Z</time>
    </trkpt>
    <trkpt lat="56.377566" lon="60.777986">
        <ele>272.0</ele>
        <time>1970-01-01T09:55:40.145Z</time>
    </trkpt>
    <trkpt lat="56.377544" lon="60.777946">
        <ele>272.0</ele>
        <time>1970-01-01T09:55:41.145Z</time>
    </trkpt>
    <trkpt lat="56.377515" lon="60.777902">
        <ele>273.0</ele>
        <time>1970-01-01T09:55:42.145Z</time>
    </trkpt>
    <trkpt lat="56.377494" lon="60.777817">
        <ele>274.0</ele>
        <time>1970-01-01T09:55:43.145Z</time>
    </trkpt>
    <trkpt lat="56.377479" lon="60.777787">
        <ele>274.0</ele>
        <time>1970-01-01T09:55:44.145Z</time>
    </trkpt>
    <trkpt lat="56.377447" lon="60.777728">
        <ele>274.0</ele>
        <time>1970-01-01T09:55:45.145Z</time>
    </trkpt>
    <trkpt lat="56.377419" lon="60.777678">
        <ele>274.0</ele>
        <time>1970-01-01T09:55:46.145Z</time>
    </trkpt>
    <trkpt lat="56.377406" lon="60.777657">
        <ele>275.0</ele>
        <time>1970-01-01T09:55:47.145Z</time>
    </trkpt>
    <trkpt lat="56.377378" lon="60.777602">
        <ele>275.0</ele>
        <time>1970-01-01T09:55:48.145Z</time>
    </trkpt>
    <trkpt lat="56.377349" lon="60.777566">
        <ele>275.0</ele>
        <time>1970-01-01T09:55:49.145Z</time>
    </trkpt>
    <trkpt lat="56.377321" lon="60.777541">
        <ele>276.0</ele>
        <time>1970-01-01T09:55:50.145Z</time>
    </trkpt>
    <trkpt lat="56.377311" lon="60.777527">
        <ele>276.0</ele>
        <time>1970-01-01T09:55:51.145Z</time>
    </trkpt>
    <trkpt lat="56.377283" lon="60.777495">
        <ele>276.0</ele>
        <time>1970-01-01T09:55:52.145Z</time>
    </trkpt>
    <trkpt lat="56.377269" lon="60.777486">
        <ele>276.0</ele>
        <time>1970-01-01T09:55:53.145Z</time>
    </trkpt>
    <trkpt lat="56.377239" lon="60.777466">
        <ele>276.0</ele>
        <time>1970-01-01T09:55:54.145Z</time>
    </trkpt>
    <trkpt lat="56.377215" lon="60.777432">
        <ele>276.0</ele>
        <time>1970-01-01T09:55:55.145Z</time>
    </trkpt>
    <trkpt lat="56.377201" lon="60.777421">
        <ele>276.0</ele>
        <time>1970-01-01T09:55:56.145Z</time>
    </trkpt>
    <trkpt lat="56.377166" lon="60.777387">
        <ele>276.0</ele>
        <time>1970-01-01T09:55:57.145Z</time>
    </trkpt>
    <trkpt lat="56.377144" lon="60.777327">
        <ele>276.0</ele>
        <time>1970-01-01T09:55:58.145Z</time>
    </trkpt>
    <trkpt lat="56.377134" lon="60.777301">
        <ele>276.0</ele>
        <time>1970-01-01T09:55:59.145Z</time>
    </trkpt>
    <trkpt lat="56.377102" lon="60.777249">
        <ele>276.0</ele>
        <time>1970-01-01T09:56:00.145Z</time>
    </trkpt>
    <trkpt lat="56.377073" lon="60.777204">
        <ele>276.0</ele>
        <time>1970-01-01T09:56:01.145Z</time>
    </trkpt>
    <trkpt lat="56.377052" lon="60.777129">
        <ele>276.0</ele>
        <time>1970-01-01T09:56:02.145Z</time>
    </trkpt>
    <trkpt lat="56.377021" lon="60.777108">
        <ele>277.0</ele>
        <time>1970-01-01T09:56:03.145Z</time>
    </trkpt>
    <trkpt lat="56.377013" lon="60.777078">
        <ele>277.0</ele>
        <time>1970-01-01T09:56:04.145Z</time>
    </trkpt>
    <trkpt lat="56.376988" lon="60.777012">
        <ele>277.0</ele>
        <time>1970-01-01T09:56:05.145Z</time>
    </trkpt>
    <trkpt lat="56.376976" lon="60.776951">
        <ele>277.0</ele>
        <time>1970-01-01T09:56:06.145Z</time>
    </trkpt>
    <trkpt lat="56.376963" lon="60.776899">
        <ele>277.0</ele>
        <time>1970-01-01T09:56:07.145Z</time>
    </trkpt>
    <trkpt lat="56.376938" lon="60.776828">
        <ele>277.0</ele>
        <time>1970-01-01T09:56:08.145Z</time>
    </trkpt>
    <trkpt lat="56.376907" lon="60.776778">
        <ele>277.0</ele>
        <time>1970-01-01T09:56:09.145Z</time>
    </trkpt>
    <trkpt lat="56.376879" lon="60.776725">
        <ele>277.0</ele>
        <time>1970-01-01T09:56:10.145Z</time>
    </trkpt>
    <trkpt lat="56.376863" lon="60.776669">
        <ele>277.0</ele>
        <time>1970-01-01T09:56:11.145Z</time>
    </trkpt>
    <trkpt lat="56.376855" lon="60.77665">
        <ele>277.0</ele>
        <time>1970-01-01T09:56:12.145Z</time>
    </trkpt>
    <trkpt lat="56.376823" lon="60.776611">
        <ele>278.0</ele>
        <time>1970-01-01T09:56:13.145Z</time>
    </trkpt>
    <trkpt lat="56.3768" lon="60.776563">
        <ele>278.0</ele>
        <time>1970-01-01T09:56:14.145Z</time>
    </trkpt>
    <trkpt lat="56.376788" lon="60.776538">
        <ele>278.0</ele>
        <time>1970-01-01T09:56:15.145Z</time>
    </trkpt>
    <trkpt lat="56.376755" lon="60.776483">
        <ele>278.0</ele>
        <time>1970-01-01T09:56:16.145Z</time>
    </trkpt>
    <trkpt lat="56.376745" lon="60.776467">
        <ele>278.0</ele>
        <time>1970-01-01T09:56:17.145Z</time>
    </trkpt>
    <trkpt lat="56.376721" lon="60.776422">
        <ele>278.0</ele>
        <time>1970-01-01T09:56:18.145Z</time>
    </trkpt>
    <trkpt lat="56.37671" lon="60.776377">
        <ele>278.0</ele>
        <time>1970-01-01T09:56:19.145Z</time>
    </trkpt>
    <trkpt lat="56.376691" lon="60.776317">
        <ele>278.0</ele>
        <time>1970-01-01T09:56:20.145Z</time>
    </trkpt>
    <trkpt lat="56.37666" lon="60.776252">
        <ele>278.0</ele>
        <time>1970-01-01T09:56:21.145Z</time>
    </trkpt>
    <trkpt lat="56.376643" lon="60.776205">
        <ele>278.0</ele>
        <time>1970-01-01T09:56:22.145Z</time>
    </trkpt>
    <trkpt lat="56.37661" lon="60.77617">
        <ele>278.0</ele>
        <time>1970-01-01T09:56:23.145Z</time>
    </trkpt>
    <trkpt lat="56.376577" lon="60.776111">
        <ele>278.0</ele>
        <time>1970-01-01T09:56:24.145Z</time>
    </trkpt>
    <trkpt lat="56.376552" lon="60.776028">
        <ele>278.0</ele>
        <time>1970-01-01T09:56:25.145Z</time>
    </trkpt>
    <trkpt lat="56.376522" lon="60.775967">
        <ele>278.0</ele>
        <time>1970-01-01T09:56:26.145Z</time>
    </trkpt>
    <trkpt lat="56.376495" lon="60.775903">
        <ele>278.0</ele>
        <time>1970-01-01T09:56:27.145Z</time>
    </trkpt>
    <trkpt lat="56.376464" lon="60.775819">
        <ele>279.0</ele>
        <time>1970-01-01T09:56:28.145Z</time>
    </trkpt>
    <trkpt lat="56.376435" lon="60.775747">
        <ele>279.0</ele>
        <time>1970-01-01T09:56:29.145Z</time>
    </trkpt>
    <trkpt lat="56.376412" lon="60.775649">
        <ele>279.0</ele>
        <time>1970-01-01T09:56:30.145Z</time>
    </trkpt>
    <trkpt lat="56.376386" lon="60.775578">
        <ele>279.0</ele>
        <time>1970-01-01T09:56:31.145Z</time>
    </trkpt>
    <trkpt lat="56.376363" lon="60.775511">
        <ele>279.0</ele>
        <time>1970-01-01T09:56:32.145Z</time>
    </trkpt>
    <trkpt lat="56.376351" lon="60.775428">
        <ele>280.0</ele>
        <time>1970-01-01T09:56:33.145Z</time>
    </trkpt>
    <trkpt lat="56.37633" lon="60.775345">
        <ele>280.0</ele>
        <time>1970-01-01T09:56:34.145Z</time>
    </trkpt>
    <trkpt lat="56.376303" lon="60.775273">
        <ele>280.0</ele>
        <time>1970-01-01T09:56:35.145Z</time>
    </trkpt>
    <trkpt lat="56.376282" lon="60.775202">
        <ele>280.0</ele>
        <time>1970-01-01T09:56:36.145Z</time>
    </trkpt>
    <trkpt lat="56.376252" lon="60.775126">
        <ele>281.0</ele>
        <time>1970-01-01T09:56:37.145Z</time>
    </trkpt>
    <trkpt lat="56.376226" lon="60.775062">
        <ele>281.0</ele>
        <time>1970-01-01T09:56:38.145Z</time>
    </trkpt>
    <trkpt lat="56.376186" lon="60.775012">
        <ele>281.0</ele>
        <time>1970-01-01T09:56:39.145Z</time>
    </trkpt>
    <trkpt lat="56.376165" lon="60.774971">
        <ele>282.0</ele>
        <time>1970-01-01T09:56:40.145Z</time>
    </trkpt>
    <trkpt lat="56.376135" lon="60.774922">
        <ele>282.0</ele>
        <time>1970-01-01T09:56:41.145Z</time>
    </trkpt>
    <trkpt lat="56.376111" lon="60.774898">
        <ele>282.0</ele>
        <time>1970-01-01T09:56:42.145Z</time>
    </trkpt>
    <trkpt lat="56.376082" lon="60.774843">
        <ele>283.0</ele>
        <time>1970-01-01T09:56:43.145Z</time>
    </trkpt>
    <trkpt lat="56.376055" lon="60.774778">
        <ele>283.0</ele>
        <time>1970-01-01T09:56:44.145Z</time>
    </trkpt>
    <trkpt lat="56.376027" lon="60.774712">
        <ele>283.0</ele>
        <time>1970-01-01T09:56:45.145Z</time>
    </trkpt>
    <trkpt lat="56.375997" lon="60.774658">
        <ele>283.0</ele>
        <time>1970-01-01T09:56:46.145Z</time>
    </trkpt>
    <trkpt lat="56.375981" lon="60.774636">
        <ele>284.0</ele>
        <time>1970-01-01T09:56:47.145Z</time>
    </trkpt>
    <trkpt lat="56.375946" lon="60.774584">
        <ele>284.0</ele>
        <time>1970-01-01T09:56:48.145Z</time>
    </trkpt>
    <trkpt lat="56.375941" lon="60.774573">
        <ele>284.0</ele>
        <time>1970-01-01T09:56:49.145Z</time>
    </trkpt>
    <trkpt lat="56.375914" lon="60.774553">
        <ele>284.0</ele>
        <time>1970-01-01T09:56:50.145Z</time>
    </trkpt>
    <trkpt lat="56.375889" lon="60.774534">
        <ele>284.0</ele>
        <time>1970-01-01T09:56:51.145Z</time>
    </trkpt>
    <trkpt lat="56.375876" lon="60.774533">
        <ele>284.0</ele>
        <time>1970-01-01T09:56:52.145Z</time>
    </trkpt>
    <trkpt lat="56.375842" lon="60.77454">
        <ele>284.0</ele>
        <time>1970-01-01T09:56:53.145Z</time>
    </trkpt>
    <trkpt lat="56.375832" lon="60.774538">
        <ele>284.0</ele>
        <time>1970-01-01T09:56:54.145Z</time>
    </trkpt>
    <trkpt lat="56.375797" lon="60.774529">
        <ele>284.0</ele>
        <time>1970-01-01T09:56:55.145Z</time>
    </trkpt>
    <trkpt lat="56.375762" lon="60.774512">
        <ele>284.0</ele>
        <time>1970-01-01T09:56:56.145Z</time>
    </trkpt>
    <trkpt lat="56.375732" lon="60.774488">
        <ele>284.0</ele>
        <time>1970-01-01T09:56:57.145Z</time>
    </trkpt>
    <trkpt lat="56.375698" lon="60.774464">
        <ele>284.0</ele>
        <time>1970-01-01T09:56:58.145Z</time>
    </trkpt>
    <trkpt lat="56.375689" lon="60.774451">
        <ele>284.0</ele>
        <time>1970-01-01T09:56:59.145Z</time>
    </trkpt>
    <trkpt lat="56.37566" lon="60.774407">
        <ele>284.0</ele>
        <time>1970-01-01T09:57:00.145Z</time>
    </trkpt>
    <trkpt lat="56.375651" lon="60.774398">
        <ele>284.0</ele>
        <time>1970-01-01T09:57:01.145Z</time>
    </trkpt>
    <trkpt lat="56.375617" lon="60.774375">
        <ele>284.0</ele>
        <time>1970-01-01T09:57:02.145Z</time>
    </trkpt>
    <trkpt lat="56.375582" lon="60.774352">
        <ele>283.0</ele>
        <time>1970-01-01T09:57:03.145Z</time>
    </trkpt>
    <trkpt lat="56.375573" lon="60.774345">
        <ele>283.0</ele>
        <time>1970-01-01T09:57:04.145Z</time>
    </trkpt>
    <trkpt lat="56.37554" lon="60.774322">
        <ele>283.0</ele>
        <time>1970-01-01T09:57:05.145Z</time>
    </trkpt>
    <trkpt lat="56.375513" lon="60.774307">
        <ele>283.0</ele>
        <time>1970-01-01T09:57:06.145Z</time>
    </trkpt>
    <trkpt lat="56.375501" lon="60.774307">
        <ele>283.0</ele>
        <time>1970-01-01T09:57:07.145Z</time>
    </trkpt>
    <trkpt lat="56.375466" lon="60.774305">
        <ele>283.0</ele>
        <time>1970-01-01T09:57:08.145Z</time>
    </trkpt>
    <trkpt lat="56.37543" lon="60.774301">
        <ele>283.0</ele>
        <time>1970-01-01T09:57:09.145Z</time>
    </trkpt>
    <trkpt lat="56.375391" lon="60.774297">
        <ele>283.0</ele>
        <time>1970-01-01T09:57:10.145Z</time>
    </trkpt>
    <trkpt lat="56.37536" lon="60.774302">
        <ele>283.0</ele>
        <time>1970-01-01T09:57:11.145Z</time>
    </trkpt>
    <trkpt lat="56.375345" lon="60.774305">
        <ele>283.0</ele>
        <time>1970-01-01T09:57:12.145Z</time>
    </trkpt>
    <trkpt lat="56.375312" lon="60.774304">
        <ele>283.0</ele>
        <time>1970-01-01T09:57:13.145Z</time>
    </trkpt>
    <trkpt lat="56.3753" lon="60.7743">
        <ele>283.0</ele>
        <time>1970-01-01T09:57:14.145Z</time>
    </trkpt>
    <trkpt lat="56.375265" lon="60.774283">
        <ele>283.0</ele>
        <time>1970-01-01T09:57:15.145Z</time>
    </trkpt>
    <trkpt lat="56.375235" lon="60.774277">
        <ele>283.0</ele>
        <time>1970-01-01T09:57:16.145Z</time>
    </trkpt>
    <trkpt lat="56.375227" lon="60.774273">
        <ele>283.0</ele>
        <time>1970-01-01T09:57:17.145Z</time>
    </trkpt>
    <trkpt lat="56.375196" lon="60.774262">
        <ele>283.0</ele>
        <time>1970-01-01T09:57:18.145Z</time>
    </trkpt>
    <trkpt lat="56.375185" lon="60.77426">
        <ele>283.0</ele>
        <time>1970-01-01T09:57:19.145Z</time>
    </trkpt>
    <trkpt lat="56.375153" lon="60.774249">
        <ele>283.0</ele>
        <time>1970-01-01T09:57:20.145Z</time>
    </trkpt>
    <trkpt lat="56.375142" lon="60.774244">
        <ele>283.0</ele>
        <time>1970-01-01T09:57:21.145Z</time>
    </trkpt>
    <trkpt lat="56.37511" lon="60.774215">
        <ele>283.0</ele>
        <time>1970-01-01T09:57:22.145Z</time>
    </trkpt>
    <trkpt lat="56.375085" lon="60.774188">
        <ele>283.0</ele>
        <time>1970-01-01T09:57:23.145Z</time>
    </trkpt>
    <trkpt lat="56.375054" lon="60.774149">
        <ele>283.0</ele>
        <time>1970-01-01T09:57:24.145Z</time>
    </trkpt>
    <trkpt lat="56.375032" lon="60.774117">
        <ele>284.0</ele>
        <time>1970-01-01T09:57:25.145Z</time>
    </trkpt>
    <trkpt lat="56.375015" lon="60.774067">
        <ele>284.0</ele>
        <time>1970-01-01T09:57:26.145Z</time>
    </trkpt>
    <trkpt lat="56.374992" lon="60.774023">
        <ele>284.0</ele>
        <time>1970-01-01T09:57:27.145Z</time>
    </trkpt>
    <trkpt lat="56.37496" lon="60.773965">
        <ele>284.0</ele>
        <time>1970-01-01T09:57:28.145Z</time>
    </trkpt>
    <trkpt lat="56.374936" lon="60.773914">
        <ele>285.0</ele>
        <time>1970-01-01T09:57:29.145Z</time>
    </trkpt>
    <trkpt lat="56.374911" lon="60.773858">
        <ele>285.0</ele>
        <time>1970-01-01T09:57:30.145Z</time>
    </trkpt>
    <trkpt lat="56.374886" lon="60.773816">
        <ele>285.0</ele>
        <time>1970-01-01T09:57:31.145Z</time>
    </trkpt>
    <trkpt lat="56.374862" lon="60.773746">
        <ele>285.0</ele>
        <time>1970-01-01T09:57:32.145Z</time>
    </trkpt>
    <trkpt lat="56.374837" lon="60.77369">
        <ele>285.0</ele>
        <time>1970-01-01T09:57:33.145Z</time>
    </trkpt>
    <trkpt lat="56.374813" lon="60.773648">
        <ele>285.0</ele>
        <time>1970-01-01T09:57:34.145Z</time>
    </trkpt>
    <trkpt lat="56.374795" lon="60.773571">
        <ele>286.0</ele>
        <time>1970-01-01T09:57:35.145Z</time>
    </trkpt>
    <trkpt lat="56.374775" lon="60.773473">
        <ele>286.0</ele>
        <time>1970-01-01T09:57:36.145Z</time>
    </trkpt>
    <trkpt lat="56.374737" lon="60.773379">
        <ele>287.0</ele>
        <time>1970-01-01T09:57:37.145Z</time>
    </trkpt>
    <trkpt lat="56.37471" lon="60.773316">
        <ele>287.0</ele>
        <time>1970-01-01T09:57:38.145Z</time>
    </trkpt>
    <trkpt lat="56.374682" lon="60.773245">
        <ele>288.0</ele>
        <time>1970-01-01T09:57:39.145Z</time>
    </trkpt>
    <trkpt lat="56.374651" lon="60.773146">
        <ele>288.0</ele>
        <time>1970-01-01T09:57:40.145Z</time>
    </trkpt>
    <trkpt lat="56.374633" lon="60.773069">
        <ele>288.0</ele>
        <time>1970-01-01T09:57:41.145Z</time>
    </trkpt>
    <trkpt lat="56.374606" lon="60.773014">
        <ele>288.0</ele>
        <time>1970-01-01T09:57:42.145Z</time>
    </trkpt>
    <trkpt lat="56.374582" lon="60.772959">
        <ele>288.0</ele>
        <time>1970-01-01T09:57:43.145Z</time>
    </trkpt>
    <trkpt lat="56.37454" lon="60.772883">
        <ele>289.0</ele>
        <time>1970-01-01T09:57:44.145Z</time>
    </trkpt>
    <trkpt lat="56.37451" lon="60.772826">
        <ele>289.0</ele>
        <time>1970-01-01T09:57:45.145Z</time>
    </trkpt>
    <trkpt lat="56.374477" lon="60.772764">
        <ele>289.0</ele>
        <time>1970-01-01T09:57:46.145Z</time>
    </trkpt>
    <trkpt lat="56.374448" lon="60.772683">
        <ele>290.0</ele>
        <time>1970-01-01T09:57:47.145Z</time>
    </trkpt>
    <trkpt lat="56.374423" lon="60.772595">
        <ele>290.0</ele>
        <time>1970-01-01T09:57:48.145Z</time>
    </trkpt>
    <trkpt lat="56.374408" lon="60.772519">
        <ele>291.0</ele>
        <time>1970-01-01T09:57:49.145Z</time>
    </trkpt>
    <trkpt lat="56.374383" lon="60.772453">
        <ele>291.0</ele>
        <time>1970-01-01T09:57:50.145Z</time>
    </trkpt>
    <trkpt lat="56.374354" lon="60.772369">
        <ele>291.0</ele>
        <time>1970-01-01T09:57:51.145Z</time>
    </trkpt>
    <trkpt lat="56.374315" lon="60.772292">
        <ele>291.0</ele>
        <time>1970-01-01T09:57:52.145Z</time>
    </trkpt>
    <trkpt lat="56.374286" lon="60.772239">
        <ele>291.0</ele>
        <time>1970-01-01T09:57:53.145Z</time>
    </trkpt>
    <trkpt lat="56.374264" lon="60.772168">
        <ele>291.0</ele>
        <time>1970-01-01T09:57:54.145Z</time>
    </trkpt>
    <trkpt lat="56.37424" lon="60.772127">
        <ele>291.0</ele>
        <time>1970-01-01T09:57:55.145Z</time>
    </trkpt>
    <trkpt lat="56.374227" lon="60.772055">
        <ele>290.0</ele>
        <time>1970-01-01T09:57:56.145Z</time>
    </trkpt>
    <trkpt lat="56.374198" lon="60.771989">
        <ele>290.0</ele>
        <time>1970-01-01T09:57:57.145Z</time>
    </trkpt>
    <trkpt lat="56.37418" lon="60.771919">
        <ele>290.0</ele>
        <time>1970-01-01T09:57:58.145Z</time>
    </trkpt>
    <trkpt lat="56.374175" lon="60.771851">
        <ele>290.0</ele>
        <time>1970-01-01T09:57:59.145Z</time>
    </trkpt>
    <trkpt lat="56.374159" lon="60.771795">
        <ele>290.0</ele>
        <time>1970-01-01T09:58:00.145Z</time>
    </trkpt>
    <trkpt lat="56.374153" lon="60.771737">
        <ele>290.0</ele>
        <time>1970-01-01T09:58:01.145Z</time>
    </trkpt>
    <trkpt lat="56.374148" lon="60.771711">
        <ele>290.0</ele>
        <time>1970-01-01T09:58:02.145Z</time>
    </trkpt>
    <trkpt lat="56.374139" lon="60.77164">
        <ele>290.0</ele>
        <time>1970-01-01T09:58:03.145Z</time>
    </trkpt>
    <trkpt lat="56.374126" lon="60.771571">
        <ele>290.0</ele>
        <time>1970-01-01T09:58:04.145Z</time>
    </trkpt>
    <trkpt lat="56.374116" lon="60.771509">
        <ele>290.0</ele>
        <time>1970-01-01T09:58:05.145Z</time>
    </trkpt>
    <trkpt lat="56.374105" lon="60.771442">
        <ele>290.0</ele>
        <time>1970-01-01T09:58:06.145Z</time>
    </trkpt>
    <trkpt lat="56.374102" lon="60.771386">
        <ele>290.0</ele>
        <time>1970-01-01T09:58:07.145Z</time>
    </trkpt>
    <trkpt lat="56.374105" lon="60.771353">
        <ele>290.0</ele>
        <time>1970-01-01T09:58:08.145Z</time>
    </trkpt>
    <trkpt lat="56.374112" lon="60.77128">
        <ele>290.0</ele>
        <time>1970-01-01T09:58:09.145Z</time>
    </trkpt>
    <trkpt lat="56.374106" lon="60.77123">
        <ele>290.0</ele>
        <time>1970-01-01T09:58:10.145Z</time>
    </trkpt>
    <trkpt lat="56.374099" lon="60.771203">
        <ele>290.0</ele>
        <time>1970-01-01T09:58:11.145Z</time>
    </trkpt>
    <trkpt lat="56.374097" lon="60.77115">
        <ele>290.0</ele>
        <time>1970-01-01T09:58:12.145Z</time>
    </trkpt>
    <trkpt lat="56.3741" lon="60.771101">
        <ele>290.0</ele>
        <time>1970-01-01T09:58:13.145Z</time>
    </trkpt>
    <trkpt lat="56.374095" lon="60.771048">
        <ele>290.0</ele>
        <time>1970-01-01T09:58:14.145Z</time>
    </trkpt>
    <trkpt lat="56.374088" lon="60.770989">
        <ele>290.0</ele>
        <time>1970-01-01T09:58:15.145Z</time>
    </trkpt>
    <trkpt lat="56.374076" lon="60.770927">
        <ele>290.0</ele>
        <time>1970-01-01T09:58:16.145Z</time>
    </trkpt>
    <trkpt lat="56.374066" lon="60.770869">
        <ele>290.0</ele>
        <time>1970-01-01T09:58:17.145Z</time>
    </trkpt>
    <trkpt lat="56.374048" lon="60.770804">
        <ele>290.0</ele>
        <time>1970-01-01T09:58:18.145Z</time>
    </trkpt>
    <trkpt lat="56.374032" lon="60.770762">
        <ele>290.0</ele>
        <time>1970-01-01T09:58:19.145Z</time>
    </trkpt>
    <trkpt lat="56.374014" lon="60.770725">
        <ele>290.0</ele>
        <time>1970-01-01T09:58:20.145Z</time>
    </trkpt>
    <trkpt lat="56.373999" lon="60.770666">
        <ele>291.0</ele>
        <time>1970-01-01T09:58:21.145Z</time>
    </trkpt>
    <trkpt lat="56.373989" lon="60.770638">
        <ele>290.0</ele>
        <time>1970-01-01T09:58:22.145Z</time>
    </trkpt>
    <trkpt lat="56.373972" lon="60.77058">
        <ele>290.0</ele>
        <time>1970-01-01T09:58:23.145Z</time>
    </trkpt>
    <trkpt lat="56.373967" lon="60.770568">
        <ele>290.0</ele>
        <time>1970-01-01T09:58:24.145Z</time>
    </trkpt>
    <trkpt lat="56.373945" lon="60.770521">
        <ele>290.0</ele>
        <time>1970-01-01T09:58:25.145Z</time>
    </trkpt>
    <trkpt lat="56.373939" lon="60.770511">
        <ele>290.0</ele>
        <time>1970-01-01T09:58:26.145Z</time>
    </trkpt>
    <trkpt lat="56.373914" lon="60.770475">
        <ele>290.0</ele>
        <time>1970-01-01T09:58:27.145Z</time>
    </trkpt>
    <trkpt lat="56.373907" lon="60.77045">
        <ele>290.0</ele>
        <time>1970-01-01T09:58:28.145Z</time>
    </trkpt>
    <trkpt lat="56.373892" lon="60.770428">
        <ele>290.0</ele>
        <time>1970-01-01T09:58:29.145Z</time>
    </trkpt>
    <trkpt lat="56.373885" lon="60.770412">
        <ele>290.0</ele>
        <time>1970-01-01T09:58:30.145Z</time>
    </trkpt>
    <trkpt lat="56.373867" lon="60.770382">
        <ele>290.0</ele>
        <time>1970-01-01T09:58:31.145Z</time>
    </trkpt>
    <trkpt lat="56.373859" lon="60.770372">
        <ele>290.0</ele>
        <time>1970-01-01T09:58:32.145Z</time>
    </trkpt>
    <trkpt lat="56.373836" lon="60.770337">
        <ele>290.0</ele>
        <time>1970-01-01T09:58:33.145Z</time>
    </trkpt>
    <trkpt lat="56.373827" lon="60.770327">
        <ele>290.0</ele>
        <time>1970-01-01T09:58:34.145Z</time>
    </trkpt>
    <trkpt lat="56.373799" lon="60.7703">
        <ele>290.0</ele>
        <time>1970-01-01T09:58:35.145Z</time>
    </trkpt>
    <trkpt lat="56.373792" lon="60.770287">
        <ele>290.0</ele>
        <time>1970-01-01T09:58:36.145Z</time>
    </trkpt>
    <trkpt lat="56.373771" lon="60.770247">
        <ele>290.0</ele>
        <time>1970-01-01T09:58:37.145Z</time>
    </trkpt>
    <trkpt lat="56.373761" lon="60.770222">
        <ele>290.0</ele>
        <time>1970-01-01T09:58:38.145Z</time>
    </trkpt>
    <trkpt lat="56.373753" lon="60.770206">
        <ele>290.0</ele>
        <time>1970-01-01T09:58:39.145Z</time>
    </trkpt>
    <trkpt lat="56.373741" lon="60.770181">
        <ele>289.0</ele>
        <time>1970-01-01T09:58:40.145Z</time>
    </trkpt>
    <trkpt lat="56.37373" lon="60.770164">
        <ele>289.0</ele>
        <time>1970-01-01T09:58:41.145Z</time>
    </trkpt>
    <trkpt lat="56.373719" lon="60.770139">
        <ele>289.0</ele>
        <time>1970-01-01T09:58:42.145Z</time>
    </trkpt>
    <trkpt lat="56.373712" lon="60.770121">
        <ele>289.0</ele>
        <time>1970-01-01T09:58:43.145Z</time>
    </trkpt>
    <trkpt lat="56.373706" lon="60.770107">
        <ele>289.0</ele>
        <time>1970-01-01T09:58:44.145Z</time>
    </trkpt>
    <trkpt lat="56.373689" lon="60.770067">
        <ele>289.0</ele>
        <time>1970-01-01T09:58:45.145Z</time>
    </trkpt>
    <trkpt lat="56.373682" lon="60.770053">
        <ele>289.0</ele>
        <time>1970-01-01T09:58:46.145Z</time>
    </trkpt>
    <trkpt lat="56.373668" lon="60.77003">
        <ele>289.0</ele>
        <time>1970-01-01T09:58:47.145Z</time>
    </trkpt>
    <trkpt lat="56.373663" lon="60.77002">
        <ele>289.0</ele>
        <time>1970-01-01T09:58:48.145Z</time>
    </trkpt>
    <trkpt lat="56.373659" lon="60.770011">
        <ele>288.0</ele>
        <time>1970-01-01T09:58:49.145Z</time>
    </trkpt>
    <trkpt lat="56.373643" lon="60.769982">
        <ele>288.0</ele>
        <time>1970-01-01T09:58:50.145Z</time>
    </trkpt>
    <trkpt lat="56.373626" lon="60.76996">
        <ele>288.0</ele>
        <time>1970-01-01T09:58:51.145Z</time>
    </trkpt>
    <trkpt lat="56.373617" lon="60.769941">
        <ele>288.0</ele>
        <time>1970-01-01T09:58:52.145Z</time>
    </trkpt>
    <trkpt lat="56.373608" lon="60.76992">
        <ele>288.0</ele>
        <time>1970-01-01T09:58:53.145Z</time>
    </trkpt>
    <trkpt lat="56.373592" lon="60.769896">
        <ele>288.0</ele>
        <time>1970-01-01T09:58:54.145Z</time>
    </trkpt>
    <trkpt lat="56.373584" lon="60.769884">
        <ele>288.0</ele>
        <time>1970-01-01T09:58:55.145Z</time>
    </trkpt>
    <trkpt lat="56.37357" lon="60.769861">
        <ele>288.0</ele>
        <time>1970-01-01T09:58:56.145Z</time>
    </trkpt>
    <trkpt lat="56.37356" lon="60.769844">
        <ele>287.0</ele>
        <time>1970-01-01T09:58:57.145Z</time>
    </trkpt>
    <trkpt lat="56.373553" lon="60.769814">
        <ele>287.0</ele>
        <time>1970-01-01T09:58:58.145Z</time>
    </trkpt>
    <trkpt lat="56.373537" lon="60.769793">
        <ele>287.0</ele>
        <time>1970-01-01T09:58:59.145Z</time>
    </trkpt>
    <trkpt lat="56.373535" lon="60.769768">
        <ele>287.0</ele>
        <time>1970-01-01T09:59:00.145Z</time>
    </trkpt>
    <trkpt lat="56.373527" lon="60.769752">
        <ele>287.0</ele>
        <time>1970-01-01T09:59:01.145Z</time>
    </trkpt>
    <trkpt lat="56.373506" lon="60.769715">
        <ele>287.0</ele>
        <time>1970-01-01T09:59:02.145Z</time>
    </trkpt>
    <trkpt lat="56.373498" lon="60.769706">
        <ele>287.0</ele>
        <time>1970-01-01T09:59:03.145Z</time>
    </trkpt>
    <trkpt lat="56.373479" lon="60.769663">
        <ele>286.0</ele>
        <time>1970-01-01T09:59:04.145Z</time>
    </trkpt>
    <trkpt lat="56.373471" lon="60.769654">
        <ele>286.0</ele>
        <time>1970-01-01T09:59:05.145Z</time>
    </trkpt>
    <trkpt lat="56.373455" lon="60.769614">
        <ele>286.0</ele>
        <time>1970-01-01T09:59:06.145Z</time>
    </trkpt>
    <trkpt lat="56.373448" lon="60.769606">
        <ele>286.0</ele>
        <time>1970-01-01T09:59:07.145Z</time>
    </trkpt>
    <trkpt lat="56.373425" lon="60.769571">
        <ele>286.0</ele>
        <time>1970-01-01T09:59:08.145Z</time>
    </trkpt>
    <trkpt lat="56.373418" lon="60.769563">
        <ele>286.0</ele>
        <time>1970-01-01T09:59:09.145Z</time>
    </trkpt>
    <trkpt lat="56.373393" lon="60.769534">
        <ele>286.0</ele>
        <time>1970-01-01T09:59:10.145Z</time>
    </trkpt>
    <trkpt lat="56.373382" lon="60.769524">
        <ele>286.0</ele>
        <time>1970-01-01T09:59:11.145Z</time>
    </trkpt>
    <trkpt lat="56.373348" lon="60.769496">
        <ele>285.0</ele>
        <time>1970-01-01T09:59:12.145Z</time>
    </trkpt>
    <trkpt lat="56.37334" lon="60.769484">
        <ele>285.0</ele>
        <time>1970-01-01T09:59:13.145Z</time>
    </trkpt>
    <trkpt lat="56.37331" lon="60.769459">
        <ele>284.0</ele>
        <time>1970-01-01T09:59:14.145Z</time>
    </trkpt>
    <trkpt lat="56.373304" lon="60.769447">
        <ele>284.0</ele>
        <time>1970-01-01T09:59:15.145Z</time>
    </trkpt>
    <trkpt lat="56.373273" lon="60.769419">
        <ele>284.0</ele>
        <time>1970-01-01T09:59:16.145Z</time>
    </trkpt>
    <trkpt lat="56.373262" lon="60.769412">
        <ele>284.0</ele>
        <time>1970-01-01T09:59:17.145Z</time>
    </trkpt>
    <trkpt lat="56.373231" lon="60.769386">
        <ele>283.0</ele>
        <time>1970-01-01T09:59:18.145Z</time>
    </trkpt>
    <trkpt lat="56.373205" lon="60.76935">
        <ele>283.0</ele>
        <time>1970-01-01T09:59:19.145Z</time>
    </trkpt>
    <trkpt lat="56.373191" lon="60.769342">
        <ele>283.0</ele>
        <time>1970-01-01T09:59:20.145Z</time>
    </trkpt>
    <trkpt lat="56.373165" lon="60.769315">
        <ele>283.0</ele>
        <time>1970-01-01T09:59:21.145Z</time>
    </trkpt>
    <trkpt lat="56.373137" lon="60.769289">
        <ele>282.0</ele>
        <time>1970-01-01T09:59:22.145Z</time>
    </trkpt>
    <trkpt lat="56.373106" lon="60.769244">
        <ele>282.0</ele>
        <time>1970-01-01T09:59:23.145Z</time>
    </trkpt>
    <trkpt lat="56.373093" lon="60.769229">
        <ele>282.0</ele>
        <time>1970-01-01T09:59:24.145Z</time>
    </trkpt>
    <trkpt lat="56.373057" lon="60.769191">
        <ele>282.0</ele>
        <time>1970-01-01T09:59:25.145Z</time>
    </trkpt>
    <trkpt lat="56.373035" lon="60.769156">
        <ele>281.0</ele>
        <time>1970-01-01T09:59:26.145Z</time>
    </trkpt>
    <trkpt lat="56.373008" lon="60.769126">
        <ele>281.0</ele>
        <time>1970-01-01T09:59:27.145Z</time>
    </trkpt>
    <trkpt lat="56.372981" lon="60.76911">
        <ele>281.0</ele>
        <time>1970-01-01T09:59:28.145Z</time>
    </trkpt>
    <trkpt lat="56.372956" lon="60.769086">
        <ele>281.0</ele>
        <time>1970-01-01T09:59:29.145Z</time>
    </trkpt>
    <trkpt lat="56.372947" lon="60.769079">
        <ele>280.0</ele>
        <time>1970-01-01T09:59:30.145Z</time>
    </trkpt>
    <trkpt lat="56.372919" lon="60.769051">
        <ele>280.0</ele>
        <time>1970-01-01T09:59:31.145Z</time>
    </trkpt>
    <trkpt lat="56.372908" lon="60.769042">
        <ele>280.0</ele>
        <time>1970-01-01T09:59:32.145Z</time>
    </trkpt>
    <trkpt lat="56.372875" lon="60.769014">
        <ele>280.0</ele>
        <time>1970-01-01T09:59:33.145Z</time>
    </trkpt>
    <trkpt lat="56.372865" lon="60.769003">
        <ele>280.0</ele>
        <time>1970-01-01T09:59:34.145Z</time>
    </trkpt>
    <trkpt lat="56.372834" lon="60.768969">
        <ele>279.0</ele>
        <time>1970-01-01T09:59:35.145Z</time>
    </trkpt>
    <trkpt lat="56.372811" lon="60.768938">
        <ele>279.0</ele>
        <time>1970-01-01T09:59:36.145Z</time>
    </trkpt>
    <trkpt lat="56.372798" lon="60.768927">
        <ele>279.0</ele>
        <time>1970-01-01T09:59:37.145Z</time>
    </trkpt>
    <trkpt lat="56.372784" lon="60.768915">
        <ele>279.0</ele>
        <time>1970-01-01T09:59:38.145Z</time>
    </trkpt>
    <trkpt lat="56.372747" lon="60.768875">
        <ele>279.0</ele>
        <time>1970-01-01T10:01:00.145Z</time>
    </trkpt>
    <trkpt lat="56.372747" lon="60.768875">
        <ele>279.0</ele>
        <time>1970-01-01T10:01:01.145Z</time>
    </trkpt>
    <trkpt lat="56.372747" lon="60.768875">
        <ele>279.0</ele>
        <time>1970-01-01T10:01:02.145Z</time>
    </trkpt>
    <trkpt lat="56.372747" lon="60.768875">
        <ele>279.0</ele>
        <time>1970-01-01T10:01:03.145Z</time>
    </trkpt>
    <trkpt lat="56.372747" lon="60.768875">
        <ele>279.0</ele>
        <time>1970-01-01T10:01:04.145Z</time>
    </trkpt>
    <trkpt lat="56.372746" lon="60.768873">
        <ele>279.0</ele>
        <time>1970-01-01T10:01:05.145Z</time>
    </trkpt>
    <trkpt lat="56.372743" lon="60.768869">
        <ele>279.0</ele>
        <time>1970-01-01T10:01:06.145Z</time>
    </trkpt>
    <trkpt lat="56.372744" lon="60.768869">
        <ele>279.0</ele>
        <time>1970-01-01T10:01:07.145Z</time>
    </trkpt>
    <trkpt lat="56.372742" lon="60.768868">
        <ele>279.0</ele>
        <time>1970-01-01T10:01:08.145Z</time>
    </trkpt>
    <trkpt lat="56.372738" lon="60.768863">
        <ele>279.0</ele>
        <time>1970-01-01T10:01:09.145Z</time>
    </trkpt>
    <trkpt lat="56.372738" lon="60.76887">
        <ele>279.0</ele>
        <time>1970-01-01T10:01:10.145Z</time>
    </trkpt>
    <trkpt lat="56.37273" lon="60.768865">
        <ele>279.0</ele>
        <time>1970-01-01T10:01:11.145Z</time>
    </trkpt>
    <trkpt lat="56.372719" lon="60.768859">
        <ele>279.0</ele>
        <time>1970-01-01T10:01:12.145Z</time>
    </trkpt>
    <trkpt lat="56.372706" lon="60.768838">
        <ele>279.0</ele>
        <time>1970-01-01T10:01:13.145Z</time>
    </trkpt>
    <trkpt lat="56.372669" lon="60.768797">
        <ele>278.0</ele>
        <time>1970-01-01T10:01:14.145Z</time>
    </trkpt>
    <trkpt lat="56.372637" lon="60.768767">
        <ele>278.0</ele>
        <time>1970-01-01T10:01:15.145Z</time>
    </trkpt>
    <trkpt lat="56.372594" lon="60.76871">
        <ele>278.0</ele>
        <time>1970-01-01T10:01:16.145Z</time>
    </trkpt>
    <trkpt lat="56.372576" lon="60.768667">
        <ele>278.0</ele>
        <time>1970-01-01T10:01:17.145Z</time>
    </trkpt>
    <trkpt lat="56.372561" lon="60.768654">
        <ele>278.0</ele>
        <time>1970-01-01T10:01:18.145Z</time>
    </trkpt>
    <trkpt lat="56.37253" lon="60.768616">
        <ele>277.0</ele>
        <time>1970-01-01T10:01:19.145Z</time>
    </trkpt>
    <trkpt lat="56.372501" lon="60.768593">
        <ele>277.0</ele>
        <time>1970-01-01T10:01:20.145Z</time>
    </trkpt>
    <trkpt lat="56.372469" lon="60.768565">
        <ele>277.0</ele>
        <time>1970-01-01T10:01:21.145Z</time>
    </trkpt>
    <trkpt lat="56.372433" lon="60.768532">
        <ele>277.0</ele>
        <time>1970-01-01T10:01:22.145Z</time>
    </trkpt>
    <trkpt lat="56.372399" lon="60.768513">
        <ele>277.0</ele>
        <time>1970-01-01T10:01:23.145Z</time>
    </trkpt>
    <trkpt lat="56.372372" lon="60.768488">
        <ele>278.0</ele>
        <time>1970-01-01T10:01:24.145Z</time>
    </trkpt>
    <trkpt lat="56.372343" lon="60.768466">
        <ele>277.0</ele>
        <time>1970-01-01T10:01:25.145Z</time>
    </trkpt>
    <trkpt lat="56.372313" lon="60.768439">
        <ele>277.0</ele>
        <time>1970-01-01T10:01:26.145Z</time>
    </trkpt>
    <trkpt lat="56.372299" lon="60.768427">
        <ele>277.0</ele>
        <time>1970-01-01T10:01:27.145Z</time>
    </trkpt>
    <trkpt lat="56.372261" lon="60.768405">
        <ele>277.0</ele>
        <time>1970-01-01T10:01:28.145Z</time>
    </trkpt>
    <trkpt lat="56.372235" lon="60.768387">
        <ele>277.0</ele>
        <time>1970-01-01T10:01:29.145Z</time>
    </trkpt>
    <trkpt lat="56.372206" lon="60.76837">
        <ele>277.0</ele>
        <time>1970-01-01T10:01:30.145Z</time>
    </trkpt>
    <trkpt lat="56.372173" lon="60.768362">
        <ele>278.0</ele>
        <time>1970-01-01T10:01:31.145Z</time>
    </trkpt>
    <trkpt lat="56.372145" lon="60.768347">
        <ele>278.0</ele>
        <time>1970-01-01T10:01:32.145Z</time>
    </trkpt>
    <trkpt lat="56.372136" lon="60.76834">
        <ele>278.0</ele>
        <time>1970-01-01T10:01:33.145Z</time>
    </trkpt>
    <trkpt lat="56.372107" lon="60.768312">
        <ele>278.0</ele>
        <time>1970-01-01T10:01:34.145Z</time>
    </trkpt>
    <trkpt lat="56.372096" lon="60.768307">
        <ele>278.0</ele>
        <time>1970-01-01T10:01:35.145Z</time>
    </trkpt>
    <trkpt lat="56.372071" lon="60.768301">
        <ele>278.0</ele>
        <time>1970-01-01T10:01:36.145Z</time>
    </trkpt>
    <trkpt lat="56.372045" lon="60.768289">
        <ele>277.0</ele>
        <time>1970-01-01T10:01:37.145Z</time>
    </trkpt>
    <trkpt lat="56.37203" lon="60.76828">
        <ele>277.0</ele>
        <time>1970-01-01T10:01:38.145Z</time>
    </trkpt>
    <trkpt lat="56.371995" lon="60.768275">
        <ele>278.0</ele>
        <time>1970-01-01T10:01:39.145Z</time>
    </trkpt>
    <trkpt lat="56.371975" lon="60.768274">
        <ele>278.0</ele>
        <time>1970-01-01T10:01:40.145Z</time>
    </trkpt>
    <trkpt lat="56.371963" lon="60.768272">
        <ele>278.0</ele>
        <time>1970-01-01T10:01:41.145Z</time>
    </trkpt>
    <trkpt lat="56.371955" lon="60.76827">
        <ele>278.0</ele>
        <time>1970-01-01T10:01:42.145Z</time>
    </trkpt>
    <trkpt lat="56.371925" lon="60.768256">
        <ele>278.0</ele>
        <time>1970-01-01T10:01:43.145Z</time>
    </trkpt>
    <trkpt lat="56.371909" lon="60.76825">
        <ele>278.0</ele>
        <time>1970-01-01T10:01:44.145Z</time>
    </trkpt>
    <trkpt lat="56.371881" lon="60.768241">
        <ele>279.0</ele>
        <time>1970-01-01T10:01:45.145Z</time>
    </trkpt>
    <trkpt lat="56.37187" lon="60.768239">
        <ele>279.0</ele>
        <time>1970-01-01T10:01:46.145Z</time>
    </trkpt>
    <trkpt lat="56.371838" lon="60.768235">
        <ele>279.0</ele>
        <time>1970-01-01T10:01:47.145Z</time>
    </trkpt>
    <trkpt lat="56.371826" lon="60.768234">
        <ele>279.0</ele>
        <time>1970-01-01T10:01:48.145Z</time>
    </trkpt>
    <trkpt lat="56.371793" lon="60.768224">
        <ele>279.0</ele>
        <time>1970-01-01T10:01:49.145Z</time>
    </trkpt>
    <trkpt lat="56.371778" lon="60.768225">
        <ele>279.0</ele>
        <time>1970-01-01T10:01:50.145Z</time>
    </trkpt>
    <trkpt lat="56.371746" lon="60.768238">
        <ele>279.0</ele>
        <time>1970-01-01T10:01:51.145Z</time>
    </trkpt>
    <trkpt lat="56.371707" lon="60.768242">
        <ele>279.0</ele>
        <time>1970-01-01T10:01:52.145Z</time>
    </trkpt>
    <trkpt lat="56.371679" lon="60.768247">
        <ele>279.0</ele>
        <time>1970-01-01T10:01:53.145Z</time>
    </trkpt>
    <trkpt lat="56.371662" lon="60.768244">
        <ele>279.0</ele>
        <time>1970-01-01T10:01:54.145Z</time>
    </trkpt>
    <trkpt lat="56.371623" lon="60.76826">
        <ele>279.0</ele>
        <time>1970-01-01T10:01:55.145Z</time>
    </trkpt>
    <trkpt lat="56.37161" lon="60.768267">
        <ele>279.0</ele>
        <time>1970-01-01T10:01:56.145Z</time>
    </trkpt>
    <trkpt lat="56.37158" lon="60.768289">
        <ele>279.0</ele>
        <time>1970-01-01T10:01:57.145Z</time>
    </trkpt>
    <trkpt lat="56.371573" lon="60.768298">
        <ele>279.0</ele>
        <time>1970-01-01T10:01:58.145Z</time>
    </trkpt>
    <trkpt lat="56.371553" lon="60.768341">
        <ele>280.0</ele>
        <time>1970-01-01T10:01:59.145Z</time>
    </trkpt>
    <trkpt lat="56.371544" lon="60.768352">
        <ele>280.0</ele>
        <time>1970-01-01T10:02:00.145Z</time>
    </trkpt>
    <trkpt lat="56.371514" lon="60.768393">
        <ele>280.0</ele>
        <time>1970-01-01T10:02:01.145Z</time>
    </trkpt>
    <trkpt lat="56.371497" lon="60.768432">
        <ele>280.0</ele>
        <time>1970-01-01T10:02:02.145Z</time>
    </trkpt>
    <trkpt lat="56.371484" lon="60.76844">
        <ele>280.0</ele>
        <time>1970-01-01T10:02:03.145Z</time>
    </trkpt>
    <trkpt lat="56.371466" lon="60.76845">
        <ele>280.0</ele>
        <time>1970-01-01T10:02:04.145Z</time>
    </trkpt>
    <trkpt lat="56.371455" lon="60.768467">
        <ele>280.0</ele>
        <time>1970-01-01T10:02:05.145Z</time>
    </trkpt>
    <trkpt lat="56.371438" lon="60.768485">
        <ele>281.0</ele>
        <time>1970-01-01T10:02:06.145Z</time>
    </trkpt>
    <trkpt lat="56.371425" lon="60.768491">
        <ele>281.0</ele>
        <time>1970-01-01T10:02:07.145Z</time>
    </trkpt>
    <trkpt lat="56.371391" lon="60.768513">
        <ele>281.0</ele>
        <time>1970-01-01T10:02:08.145Z</time>
    </trkpt>
    <trkpt lat="56.371383" lon="60.768519">
        <ele>281.0</ele>
        <time>1970-01-01T10:02:09.145Z</time>
    </trkpt>
    <trkpt lat="56.371375" lon="60.768525">
        <ele>281.0</ele>
        <time>1970-01-01T10:02:10.145Z</time>
    </trkpt>
    <trkpt lat="56.371354" lon="60.768552">
        <ele>281.0</ele>
        <time>1970-01-01T10:02:11.145Z</time>
    </trkpt>
    <trkpt lat="56.371341" lon="60.768584">
        <ele>281.0</ele>
        <time>1970-01-01T10:02:12.145Z</time>
    </trkpt>
    <trkpt lat="56.37133" lon="60.768596">
        <ele>280.0</ele>
        <time>1970-01-01T10:02:13.145Z</time>
    </trkpt>
    <trkpt lat="56.371319" lon="60.768595">
        <ele>280.0</ele>
        <time>1970-01-01T10:02:14.145Z</time>
    </trkpt>
    <trkpt lat="56.371309" lon="60.768596">
        <ele>280.0</ele>
        <time>1970-01-01T10:02:15.145Z</time>
    </trkpt>
    <trkpt lat="56.371298" lon="60.768591">
        <ele>280.0</ele>
        <time>1970-01-01T10:02:16.145Z</time>
    </trkpt>
    <trkpt lat="56.371287" lon="60.768597">
        <ele>280.0</ele>
        <time>1970-01-01T10:02:17.145Z</time>
    </trkpt>
    <trkpt lat="56.371252" lon="60.768612">
        <ele>280.0</ele>
        <time>1970-01-01T10:02:18.145Z</time>
    </trkpt>
    <trkpt lat="56.371226" lon="60.768638">
        <ele>280.0</ele>
        <time>1970-01-01T10:02:19.145Z</time>
    </trkpt>
    <trkpt lat="56.371212" lon="60.768651">
        <ele>281.0</ele>
        <time>1970-01-01T10:02:20.145Z</time>
    </trkpt>
    <trkpt lat="56.371179" lon="60.768686">
        <ele>281.0</ele>
        <time>1970-01-01T10:02:21.145Z</time>
    </trkpt>
    <trkpt lat="56.371153" lon="60.768704">
        <ele>281.0</ele>
        <time>1970-01-01T10:02:22.145Z</time>
    </trkpt>
    <trkpt lat="56.37112" lon="60.768729">
        <ele>281.0</ele>
        <time>1970-01-01T10:02:23.145Z</time>
    </trkpt>
    <trkpt lat="56.37109" lon="60.76875">
        <ele>281.0</ele>
        <time>1970-01-01T10:02:24.145Z</time>
    </trkpt>
    <trkpt lat="56.371063" lon="60.768773">
        <ele>281.0</ele>
        <time>1970-01-01T10:02:25.145Z</time>
    </trkpt>
    <trkpt lat="56.371042" lon="60.768802">
        <ele>280.0</ele>
        <time>1970-01-01T10:02:26.145Z</time>
    </trkpt>
    <trkpt lat="56.371033" lon="60.768814">
        <ele>280.0</ele>
        <time>1970-01-01T10:02:27.145Z</time>
    </trkpt>
    <trkpt lat="56.371008" lon="60.768857">
        <ele>282.0</ele>
        <time>1970-01-01T10:02:28.145Z</time>
    </trkpt>
    <trkpt lat="56.370978" lon="60.768895">
        <ele>282.0</ele>
        <time>1970-01-01T10:02:29.145Z</time>
    </trkpt>
    <trkpt lat="56.370954" lon="60.768921">
        <ele>281.0</ele>
        <time>1970-01-01T10:02:30.145Z</time>
    </trkpt>
    <trkpt lat="56.370943" lon="60.768936">
        <ele>281.0</ele>
        <time>1970-01-01T10:02:31.145Z</time>
    </trkpt>
    <trkpt lat="56.370913" lon="60.768983">
        <ele>281.0</ele>
        <time>1970-01-01T10:02:32.145Z</time>
    </trkpt>
    <trkpt lat="56.370893" lon="60.769018">
        <ele>282.0</ele>
        <time>1970-01-01T10:02:33.145Z</time>
    </trkpt>
    <trkpt lat="56.370869" lon="60.769038">
        <ele>282.0</ele>
        <time>1970-01-01T10:02:34.145Z</time>
    </trkpt>
    <trkpt lat="56.370858" lon="60.769051">
        <ele>281.0</ele>
        <time>1970-01-01T10:02:35.145Z</time>
    </trkpt>
    <trkpt lat="56.370824" lon="60.76908">
        <ele>281.0</ele>
        <time>1970-01-01T10:02:36.145Z</time>
    </trkpt>
    <trkpt lat="56.370791" lon="60.76909">
        <ele>281.0</ele>
        <time>1970-01-01T10:02:37.145Z</time>
    </trkpt>
    <trkpt lat="56.370762" lon="60.769112">
        <ele>281.0</ele>
        <time>1970-01-01T10:02:39.145Z</time>
    </trkpt>
    <trkpt lat="56.370731" lon="60.769129">
        <ele>281.0</ele>
        <time>1970-01-01T10:02:40.145Z</time>
    </trkpt>
    <trkpt lat="56.370704" lon="60.769141">
        <ele>281.0</ele>
        <time>1970-01-01T10:02:41.145Z</time>
    </trkpt>
    <trkpt lat="56.370672" lon="60.769146">
        <ele>281.0</ele>
        <time>1970-01-01T10:02:42.145Z</time>
    </trkpt>
    <trkpt lat="56.370657" lon="60.769151">
        <ele>280.0</ele>
        <time>1970-01-01T10:02:43.145Z</time>
    </trkpt>
    <trkpt lat="56.370619" lon="60.769165">
        <ele>281.0</ele>
        <time>1970-01-01T10:02:44.145Z</time>
    </trkpt>
    <trkpt lat="56.370589" lon="60.769179">
        <ele>281.0</ele>
        <time>1970-01-01T10:02:45.145Z</time>
    </trkpt>
    <trkpt lat="56.370548" lon="60.769187">
        <ele>281.0</ele>
        <time>1970-01-01T10:02:46.145Z</time>
    </trkpt>
    <trkpt lat="56.370508" lon="60.769198">
        <ele>281.0</ele>
        <time>1970-01-01T10:02:47.145Z</time>
    </trkpt>
    <trkpt lat="56.370489" lon="60.769206">
        <ele>281.0</ele>
        <time>1970-01-01T10:02:48.145Z</time>
    </trkpt>
    <trkpt lat="56.370447" lon="60.769222">
        <ele>281.0</ele>
        <time>1970-01-01T10:02:49.145Z</time>
    </trkpt>
    <trkpt lat="56.370417" lon="60.769222">
        <ele>281.0</ele>
        <time>1970-01-01T10:02:50.145Z</time>
    </trkpt>
    <trkpt lat="56.370377" lon="60.769239">
        <ele>280.0</ele>
        <time>1970-01-01T10:02:51.145Z</time>
    </trkpt>
    <trkpt lat="56.370342" lon="60.769236">
        <ele>280.0</ele>
        <time>1970-01-01T10:02:52.145Z</time>
    </trkpt>
    <trkpt lat="56.370308" lon="60.769235">
        <ele>280.0</ele>
        <time>1970-01-01T10:02:53.145Z</time>
    </trkpt>
    <trkpt lat="56.370268" lon="60.769244">
        <ele>280.0</ele>
        <time>1970-01-01T10:02:54.145Z</time>
    </trkpt>
    <trkpt lat="56.370258" lon="60.769249">
        <ele>280.0</ele>
        <time>1970-01-01T10:02:55.145Z</time>
    </trkpt>
    <trkpt lat="56.37023" lon="60.769257">
        <ele>280.0</ele>
        <time>1970-01-01T10:02:56.145Z</time>
    </trkpt>
    <trkpt lat="56.370202" lon="60.769249">
        <ele>280.0</ele>
        <time>1970-01-01T10:02:57.145Z</time>
    </trkpt>
    <trkpt lat="56.370169" lon="60.769249">
        <ele>280.0</ele>
        <time>1970-01-01T10:02:58.145Z</time>
    </trkpt>
    <trkpt lat="56.370133" lon="60.76925">
        <ele>280.0</ele>
        <time>1970-01-01T10:02:59.145Z</time>
    </trkpt>
    <trkpt lat="56.370104" lon="60.769255">
        <ele>280.0</ele>
        <time>1970-01-01T10:03:00.145Z</time>
    </trkpt>
    <trkpt lat="56.370075" lon="60.769261">
        <ele>280.0</ele>
        <time>1970-01-01T10:03:01.145Z</time>
    </trkpt>
    <trkpt lat="56.370062" lon="60.769259">
        <ele>280.0</ele>
        <time>1970-01-01T10:03:02.145Z</time>
    </trkpt>
    <trkpt lat="56.370027" lon="60.76925">
        <ele>280.0</ele>
        <time>1970-01-01T10:03:03.145Z</time>
    </trkpt>
    <trkpt lat="56.369995" lon="60.769249">
        <ele>281.0</ele>
        <time>1970-01-01T10:03:04.145Z</time>
    </trkpt>
    <trkpt lat="56.369963" lon="60.769247">
        <ele>281.0</ele>
        <time>1970-01-01T10:03:05.145Z</time>
    </trkpt>
    <trkpt lat="56.369927" lon="60.769237">
        <ele>281.0</ele>
        <time>1970-01-01T10:03:06.145Z</time>
    </trkpt>
    <trkpt lat="56.369902" lon="60.769215">
        <ele>281.0</ele>
        <time>1970-01-01T10:03:07.145Z</time>
    </trkpt>
    <trkpt lat="56.369875" lon="60.769206">
        <ele>281.0</ele>
        <time>1970-01-01T10:03:08.145Z</time>
    </trkpt>
    <trkpt lat="56.369844" lon="60.769188">
        <ele>281.0</ele>
        <time>1970-01-01T10:03:09.145Z</time>
    </trkpt>
    <trkpt lat="56.369812" lon="60.769171">
        <ele>282.0</ele>
        <time>1970-01-01T10:03:10.145Z</time>
    </trkpt>
    <trkpt lat="56.369773" lon="60.769161">
        <ele>282.0</ele>
        <time>1970-01-01T10:03:11.145Z</time>
    </trkpt>
    <trkpt lat="56.369736" lon="60.769146">
        <ele>282.0</ele>
        <time>1970-01-01T10:03:12.145Z</time>
    </trkpt>
    <trkpt lat="56.369703" lon="60.769143">
        <ele>283.0</ele>
        <time>1970-01-01T10:03:13.145Z</time>
    </trkpt>
    <trkpt lat="56.369676" lon="60.769125">
        <ele>283.0</ele>
        <time>1970-01-01T10:03:14.145Z</time>
    </trkpt>
    <trkpt lat="56.369648" lon="60.769119">
        <ele>283.0</ele>
        <time>1970-01-01T10:03:15.145Z</time>
    </trkpt>
    <trkpt lat="56.369611" lon="60.769123">
        <ele>284.0</ele>
        <time>1970-01-01T10:03:16.145Z</time>
    </trkpt>
    <trkpt lat="56.36958" lon="60.769124">
        <ele>284.0</ele>
        <time>1970-01-01T10:03:17.145Z</time>
    </trkpt>
    <trkpt lat="56.369565" lon="60.76912">
        <ele>284.0</ele>
        <time>1970-01-01T10:03:18.145Z</time>
    </trkpt>
    <trkpt lat="56.369524" lon="60.769109">
        <ele>284.0</ele>
        <time>1970-01-01T10:03:19.145Z</time>
    </trkpt>
    <trkpt lat="56.369487" lon="60.769086">
        <ele>284.0</ele>
        <time>1970-01-01T10:03:20.145Z</time>
    </trkpt>
    <trkpt lat="56.369471" lon="60.769074">
        <ele>284.0</ele>
        <time>1970-01-01T10:03:21.145Z</time>
    </trkpt>
    <trkpt lat="56.369432" lon="60.769053">
        <ele>285.0</ele>
        <time>1970-01-01T10:03:22.145Z</time>
    </trkpt>
    <trkpt lat="56.369409" lon="60.769028">
        <ele>285.0</ele>
        <time>1970-01-01T10:03:23.145Z</time>
    </trkpt>
    <trkpt lat="56.369392" lon="60.769021">
        <ele>285.0</ele>
        <time>1970-01-01T10:03:24.145Z</time>
    </trkpt>
    <trkpt lat="56.369354" lon="60.768996">
        <ele>285.0</ele>
        <time>1970-01-01T10:03:25.145Z</time>
    </trkpt>
    <trkpt lat="56.369315" lon="60.768976">
        <ele>286.0</ele>
        <time>1970-01-01T10:03:26.145Z</time>
    </trkpt>
    <trkpt lat="56.369286" lon="60.768937">
        <ele>286.0</ele>
        <time>1970-01-01T10:03:27.145Z</time>
    </trkpt>
    <trkpt lat="56.369254" lon="60.768895">
        <ele>286.0</ele>
        <time>1970-01-01T10:03:28.145Z</time>
    </trkpt>
    <trkpt lat="56.36924" lon="60.768879">
        <ele>287.0</ele>
        <time>1970-01-01T10:03:29.145Z</time>
    </trkpt>
    <trkpt lat="56.369212" lon="60.768844">
        <ele>287.0</ele>
        <time>1970-01-01T10:03:30.145Z</time>
    </trkpt>
    <trkpt lat="56.369201" lon="60.768826">
        <ele>287.0</ele>
        <time>1970-01-01T10:03:31.145Z</time>
    </trkpt>
    <trkpt lat="56.369177" lon="60.768769">
        <ele>287.0</ele>
        <time>1970-01-01T10:03:32.145Z</time>
    </trkpt>
    <trkpt lat="56.369151" lon="60.768743">
        <ele>287.0</ele>
        <time>1970-01-01T10:03:33.145Z</time>
    </trkpt>
    <trkpt lat="56.36914" lon="60.768718">
        <ele>288.0</ele>
        <time>1970-01-01T10:03:34.145Z</time>
    </trkpt>
    <trkpt lat="56.369119" lon="60.768661">
        <ele>288.0</ele>
        <time>1970-01-01T10:03:35.145Z</time>
    </trkpt>
    <trkpt lat="56.369112" lon="60.768646">
        <ele>288.0</ele>
        <time>1970-01-01T10:03:36.145Z</time>
    </trkpt>
    <trkpt lat="56.369095" lon="60.768592">
        <ele>288.0</ele>
        <time>1970-01-01T10:03:37.145Z</time>
    </trkpt>
    <trkpt lat="56.36907" lon="60.768564">
        <ele>288.0</ele>
        <time>1970-01-01T10:03:38.145Z</time>
    </trkpt>
    <trkpt lat="56.369058" lon="60.768543">
        <ele>288.0</ele>
        <time>1970-01-01T10:03:39.145Z</time>
    </trkpt>
    <trkpt lat="56.369026" lon="60.768504">
        <ele>289.0</ele>
        <time>1970-01-01T10:03:40.145Z</time>
    </trkpt>
    <trkpt lat="56.369002" lon="60.768472">
        <ele>289.0</ele>
        <time>1970-01-01T10:03:41.145Z</time>
    </trkpt>
    <trkpt lat="56.368957" lon="60.768415">
        <ele>290.0</ele>
        <time>1970-01-01T10:03:42.145Z</time>
    </trkpt>
    <trkpt lat="56.368932" lon="60.768391">
        <ele>290.0</ele>
        <time>1970-01-01T10:03:43.145Z</time>
    </trkpt>
    <trkpt lat="56.368913" lon="60.768346">
        <ele>290.0</ele>
        <time>1970-01-01T10:03:44.145Z</time>
    </trkpt>
    <trkpt lat="56.36888" lon="60.768322">
        <ele>290.0</ele>
        <time>1970-01-01T10:03:45.145Z</time>
    </trkpt>
    <trkpt lat="56.368862" lon="60.768303">
        <ele>291.0</ele>
        <time>1970-01-01T10:03:46.145Z</time>
    </trkpt>
    <trkpt lat="56.368824" lon="60.768255">
        <ele>291.0</ele>
        <time>1970-01-01T10:03:47.145Z</time>
    </trkpt>
    <trkpt lat="56.368796" lon="60.768212">
        <ele>291.0</ele>
        <time>1970-01-01T10:03:48.145Z</time>
    </trkpt>
    <trkpt lat="56.368782" lon="60.768198">
        <ele>291.0</ele>
        <time>1970-01-01T10:03:49.145Z</time>
    </trkpt>
    <trkpt lat="56.368756" lon="60.768149">
        <ele>292.0</ele>
        <time>1970-01-01T10:03:50.145Z</time>
    </trkpt>
    <trkpt lat="56.368725" lon="60.768103">
        <ele>293.0</ele>
        <time>1970-01-01T10:03:51.145Z</time>
    </trkpt>
    <trkpt lat="56.368712" lon="60.768087">
        <ele>293.0</ele>
        <time>1970-01-01T10:03:52.145Z</time>
    </trkpt>
    <trkpt lat="56.368682" lon="60.768045">
        <ele>293.0</ele>
        <time>1970-01-01T10:03:53.145Z</time>
    </trkpt>
    <trkpt lat="56.368639" lon="60.768013">
        <ele>294.0</ele>
        <time>1970-01-01T10:03:54.145Z</time>
    </trkpt>
    <trkpt lat="56.368611" lon="60.767995">
        <ele>294.0</ele>
        <time>1970-01-01T10:03:55.145Z</time>
    </trkpt>
    <trkpt lat="56.368575" lon="60.767957">
        <ele>295.0</ele>
        <time>1970-01-01T10:03:56.145Z</time>
    </trkpt>
    <trkpt lat="56.368547" lon="60.767934">
        <ele>295.0</ele>
        <time>1970-01-01T10:03:57.145Z</time>
    </trkpt>
    <trkpt lat="56.368521" lon="60.767907">
        <ele>295.0</ele>
        <time>1970-01-01T10:03:58.145Z</time>
    </trkpt>
    <trkpt lat="56.368495" lon="60.767884">
        <ele>295.0</ele>
        <time>1970-01-01T10:03:59.145Z</time>
    </trkpt>
    <trkpt lat="56.368461" lon="60.767861">
        <ele>296.0</ele>
        <time>1970-01-01T10:04:00.145Z</time>
    </trkpt>
    <trkpt lat="56.368446" lon="60.767854">
        <ele>296.0</ele>
        <time>1970-01-01T10:04:01.145Z</time>
    </trkpt>
    <trkpt lat="56.368406" lon="60.767834">
        <ele>296.0</ele>
        <time>1970-01-01T10:04:02.145Z</time>
    </trkpt>
    <trkpt lat="56.368379" lon="60.767812">
        <ele>297.0</ele>
        <time>1970-01-01T10:04:03.145Z</time>
    </trkpt>
    <trkpt lat="56.368351" lon="60.767803">
        <ele>297.0</ele>
        <time>1970-01-01T10:04:04.145Z</time>
    </trkpt>
    <trkpt lat="56.368343" lon="60.767796">
        <ele>297.0</ele>
        <time>1970-01-01T10:04:05.145Z</time>
    </trkpt>
    <trkpt lat="56.368313" lon="60.76779">
        <ele>297.0</ele>
        <time>1970-01-01T10:04:06.145Z</time>
    </trkpt>
    <trkpt lat="56.368279" lon="60.767775">
        <ele>297.0</ele>
        <time>1970-01-01T10:04:07.145Z</time>
    </trkpt>
    <trkpt lat="56.368248" lon="60.767771">
        <ele>297.0</ele>
        <time>1970-01-01T10:04:08.145Z</time>
    </trkpt>
    <trkpt lat="56.368202" lon="60.767767">
        <ele>297.0</ele>
        <time>1970-01-01T10:04:09.145Z</time>
    </trkpt>
    <trkpt lat="56.368157" lon="60.76777">
        <ele>298.0</ele>
        <time>1970-01-01T10:04:10.145Z</time>
    </trkpt>
    <trkpt lat="56.368142" lon="60.76777">
        <ele>298.0</ele>
        <time>1970-01-01T10:04:11.145Z</time>
    </trkpt>
    <trkpt lat="56.368104" lon="60.767766">
        <ele>298.0</ele>
        <time>1970-01-01T10:04:12.145Z</time>
    </trkpt>
    <trkpt lat="56.368095" lon="60.767764">
        <ele>299.0</ele>
        <time>1970-01-01T10:04:13.145Z</time>
    </trkpt>
    <trkpt lat="56.368061" lon="60.767753">
        <ele>299.0</ele>
        <time>1970-01-01T10:04:14.145Z</time>
    </trkpt>
    <trkpt lat="56.368026" lon="60.767736">
        <ele>299.0</ele>
        <time>1970-01-01T10:04:15.145Z</time>
    </trkpt>
    <trkpt lat="56.367986" lon="60.767712">
        <ele>300.0</ele>
        <time>1970-01-01T10:04:16.145Z</time>
    </trkpt>
    <trkpt lat="56.367949" lon="60.767682">
        <ele>300.0</ele>
        <time>1970-01-01T10:04:17.145Z</time>
    </trkpt>
    <trkpt lat="56.367936" lon="60.767673">
        <ele>300.0</ele>
        <time>1970-01-01T10:04:18.145Z</time>
    </trkpt>
    <trkpt lat="56.367902" lon="60.76764">
        <ele>301.0</ele>
        <time>1970-01-01T10:04:19.145Z</time>
    </trkpt>
    <trkpt lat="56.367869" lon="60.767608">
        <ele>300.0</ele>
        <time>1970-01-01T10:04:20.145Z</time>
    </trkpt>
    <trkpt lat="56.36786" lon="60.767591">
        <ele>300.0</ele>
        <time>1970-01-01T10:04:21.145Z</time>
    </trkpt>
    <trkpt lat="56.367829" lon="60.767552">
        <ele>300.0</ele>
        <time>1970-01-01T10:04:22.145Z</time>
    </trkpt>
    <trkpt lat="56.367807" lon="60.767519">
        <ele>301.0</ele>
        <time>1970-01-01T10:04:23.145Z</time>
    </trkpt>
    <trkpt lat="56.367792" lon="60.767511">
        <ele>301.0</ele>
        <time>1970-01-01T10:04:24.145Z</time>
    </trkpt>
    <trkpt lat="56.367756" lon="60.767483">
        <ele>301.0</ele>
        <time>1970-01-01T10:04:25.145Z</time>
    </trkpt>
    <trkpt lat="56.367746" lon="60.767472">
        <ele>301.0</ele>
        <time>1970-01-01T10:04:26.145Z</time>
    </trkpt>
    <trkpt lat="56.36772" lon="60.767454">
        <ele>301.0</ele>
        <time>1970-01-01T10:04:27.145Z</time>
    </trkpt>
    <trkpt lat="56.367709" lon="60.767442">
        <ele>301.0</ele>
        <time>1970-01-01T10:04:28.145Z</time>
    </trkpt>
    <trkpt lat="56.367676" lon="60.767425">
        <ele>301.0</ele>
        <time>1970-01-01T10:04:29.145Z</time>
    </trkpt>
    <trkpt lat="56.367662" lon="60.767407">
        <ele>301.0</ele>
        <time>1970-01-01T10:04:30.145Z</time>
    </trkpt>
    <trkpt lat="56.367626" lon="60.767369">
        <ele>301.0</ele>
        <time>1970-01-01T10:04:31.145Z</time>
    </trkpt>
    <trkpt lat="56.367617" lon="60.767359">
        <ele>301.0</ele>
        <time>1970-01-01T10:04:32.145Z</time>
    </trkpt>
    <trkpt lat="56.36759" lon="60.767318">
        <ele>301.0</ele>
        <time>1970-01-01T10:04:33.145Z</time>
    </trkpt>
    <trkpt lat="56.367579" lon="60.767311">
        <ele>301.0</ele>
        <time>1970-01-01T10:04:34.145Z</time>
    </trkpt>
    <trkpt lat="56.367558" lon="60.767279">
        <ele>301.0</ele>
        <time>1970-01-01T10:04:35.145Z</time>
    </trkpt>
    <trkpt lat="56.367531" lon="60.767263">
        <ele>300.0</ele>
        <time>1970-01-01T10:04:36.145Z</time>
    </trkpt>
    <trkpt lat="56.367519" lon="60.767251">
        <ele>300.0</ele>
        <time>1970-01-01T10:04:37.145Z</time>
    </trkpt>
    <trkpt lat="56.36749" lon="60.767227">
        <ele>300.0</ele>
        <time>1970-01-01T10:04:38.145Z</time>
    </trkpt>
    <trkpt lat="56.36748" lon="60.76722">
        <ele>300.0</ele>
        <time>1970-01-01T10:04:39.145Z</time>
    </trkpt>
    <trkpt lat="56.367446" lon="60.767194">
        <ele>300.0</ele>
        <time>1970-01-01T10:04:40.145Z</time>
    </trkpt>
    <trkpt lat="56.367437" lon="60.767185">
        <ele>300.0</ele>
        <time>1970-01-01T10:04:41.145Z</time>
    </trkpt>
    <trkpt lat="56.36741" lon="60.767162">
        <ele>300.0</ele>
        <time>1970-01-01T10:04:42.145Z</time>
    </trkpt>
    <trkpt lat="56.367384" lon="60.767146">
        <ele>300.0</ele>
        <time>1970-01-01T10:04:43.145Z</time>
    </trkpt>
    <trkpt lat="56.367375" lon="60.767132">
        <ele>300.0</ele>
        <time>1970-01-01T10:04:44.145Z</time>
    </trkpt>
    <trkpt lat="56.367342" lon="60.767102">
        <ele>300.0</ele>
        <time>1970-01-01T10:04:45.145Z</time>
    </trkpt>
    <trkpt lat="56.367316" lon="60.767076">
        <ele>298.0</ele>
        <time>1970-01-01T10:04:46.145Z</time>
    </trkpt>
    <trkpt lat="56.367306" lon="60.767067">
        <ele>298.0</ele>
        <time>1970-01-01T10:04:47.145Z</time>
    </trkpt>
    <trkpt lat="56.367278" lon="60.767045">
        <ele>298.0</ele>
        <time>1970-01-01T10:04:48.145Z</time>
    </trkpt>
    <trkpt lat="56.367266" lon="60.767035">
        <ele>298.0</ele>
        <time>1970-01-01T10:04:49.145Z</time>
    </trkpt>
    <trkpt lat="56.36724" lon="60.767007">
        <ele>297.0</ele>
        <time>1970-01-01T10:04:50.145Z</time>
    </trkpt>
    <trkpt lat="56.367214" lon="60.766993">
        <ele>297.0</ele>
        <time>1970-01-01T10:04:51.145Z</time>
    </trkpt>
    <trkpt lat="56.367199" lon="60.766982">
        <ele>297.0</ele>
        <time>1970-01-01T10:04:52.145Z</time>
    </trkpt>
    <trkpt lat="56.367169" lon="60.766954">
        <ele>297.0</ele>
        <time>1970-01-01T10:04:53.145Z</time>
    </trkpt>
    <trkpt lat="56.367141" lon="60.766937">
        <ele>296.0</ele>
        <time>1970-01-01T10:04:54.145Z</time>
    </trkpt>
    <trkpt lat="56.367103" lon="60.76693">
        <ele>296.0</ele>
        <time>1970-01-01T10:04:55.145Z</time>
    </trkpt>
    <trkpt lat="56.367069" lon="60.766915">
        <ele>295.0</ele>
        <time>1970-01-01T10:04:56.145Z</time>
    </trkpt>
    <trkpt lat="56.36705" lon="60.766916">
        <ele>294.0</ele>
        <time>1970-01-01T10:04:57.145Z</time>
    </trkpt>
    <trkpt lat="56.367005" lon="60.766905">
        <ele>294.0</ele>
        <time>1970-01-01T10:04:58.145Z</time>
    </trkpt>
    <trkpt lat="56.366966" lon="60.766888">
        <ele>294.0</ele>
        <time>1970-01-01T10:04:59.145Z</time>
    </trkpt>
    <trkpt lat="56.366931" lon="60.766886">
        <ele>293.0</ele>
        <time>1970-01-01T10:05:00.145Z</time>
    </trkpt>
    <trkpt lat="56.366901" lon="60.766872">
        <ele>293.0</ele>
        <time>1970-01-01T10:05:01.145Z</time>
    </trkpt>
    <trkpt lat="56.366869" lon="60.766859">
        <ele>293.0</ele>
        <time>1970-01-01T10:05:02.145Z</time>
    </trkpt>
    <trkpt lat="56.366829" lon="60.766839">
        <ele>292.0</ele>
        <time>1970-01-01T10:05:03.145Z</time>
    </trkpt>
    <trkpt lat="56.36679" lon="60.766831">
        <ele>292.0</ele>
        <time>1970-01-01T10:05:04.145Z</time>
    </trkpt>
    <trkpt lat="56.366751" lon="60.766815">
        <ele>291.0</ele>
        <time>1970-01-01T10:05:05.145Z</time>
    </trkpt>
    <trkpt lat="56.366716" lon="60.766809">
        <ele>291.0</ele>
        <time>1970-01-01T10:05:06.145Z</time>
    </trkpt>
    <trkpt lat="56.366677" lon="60.766815">
        <ele>291.0</ele>
        <time>1970-01-01T10:05:07.145Z</time>
    </trkpt>
    <trkpt lat="56.366643" lon="60.766796">
        <ele>290.0</ele>
        <time>1970-01-01T10:05:08.145Z</time>
    </trkpt>
    <trkpt lat="56.366623" lon="60.766793">
        <ele>290.0</ele>
        <time>1970-01-01T10:05:09.145Z</time>
    </trkpt>
    <trkpt lat="56.366577" lon="60.766788">
        <ele>290.0</ele>
        <time>1970-01-01T10:05:10.145Z</time>
    </trkpt>
    <trkpt lat="56.366547" lon="60.766779">
        <ele>290.0</ele>
        <time>1970-01-01T10:05:11.145Z</time>
    </trkpt>
    <trkpt lat="56.366515" lon="60.766765">
        <ele>290.0</ele>
        <time>1970-01-01T10:05:12.145Z</time>
    </trkpt>
    <trkpt lat="56.366486" lon="60.766763">
        <ele>289.0</ele>
        <time>1970-01-01T10:05:13.145Z</time>
    </trkpt>
    <trkpt lat="56.366447" lon="60.766753">
        <ele>288.0</ele>
        <time>1970-01-01T10:05:14.145Z</time>
    </trkpt>
    <trkpt lat="56.366414" lon="60.766742">
        <ele>288.0</ele>
        <time>1970-01-01T10:05:15.145Z</time>
    </trkpt>
    <trkpt lat="56.3664" lon="60.76674">
        <ele>288.0</ele>
        <time>1970-01-01T10:05:16.145Z</time>
    </trkpt>
    <trkpt lat="56.366369" lon="60.76673">
        <ele>288.0</ele>
        <time>1970-01-01T10:05:17.145Z</time>
    </trkpt>
    <trkpt lat="56.366358" lon="60.766722">
        <ele>288.0</ele>
        <time>1970-01-01T10:05:18.145Z</time>
    </trkpt>
    <trkpt lat="56.366331" lon="60.766707">
        <ele>288.0</ele>
        <time>1970-01-01T10:05:19.145Z</time>
    </trkpt>
    <trkpt lat="56.366319" lon="60.766699">
        <ele>288.0</ele>
        <time>1970-01-01T10:05:20.145Z</time>
    </trkpt>
    <trkpt lat="56.366284" lon="60.766677">
        <ele>287.0</ele>
        <time>1970-01-01T10:05:21.145Z</time>
    </trkpt>
    <trkpt lat="56.366271" lon="60.766668">
        <ele>287.0</ele>
        <time>1970-01-01T10:05:22.145Z</time>
    </trkpt>
    <trkpt lat="56.366236" lon="60.76665">
        <ele>287.0</ele>
        <time>1970-01-01T10:05:23.145Z</time>
    </trkpt>
    <trkpt lat="56.366201" lon="60.766662">
        <ele>287.0</ele>
        <time>1970-01-01T10:05:24.145Z</time>
    </trkpt>
    <trkpt lat="56.366193" lon="60.766657">
        <ele>287.0</ele>
        <time>1970-01-01T10:05:25.145Z</time>
    </trkpt>
    <trkpt lat="56.366159" lon="60.766645">
        <ele>287.0</ele>
        <time>1970-01-01T10:05:26.145Z</time>
    </trkpt>
    <trkpt lat="56.36613" lon="60.766632">
        <ele>287.0</ele>
        <time>1970-01-01T10:05:27.145Z</time>
    </trkpt>
    <trkpt lat="56.366113" lon="60.766629">
        <ele>287.0</ele>
        <time>1970-01-01T10:05:28.145Z</time>
    </trkpt>
    <trkpt lat="56.366075" lon="60.766622">
        <ele>288.0</ele>
        <time>1970-01-01T10:05:29.145Z</time>
    </trkpt>
    <trkpt lat="56.366048" lon="60.766616">
        <ele>288.0</ele>
        <time>1970-01-01T10:05:30.145Z</time>
    </trkpt>
    <trkpt lat="56.366018" lon="60.766602">
        <ele>288.0</ele>
        <time>1970-01-01T10:05:31.145Z</time>
    </trkpt>
    <trkpt lat="56.365989" lon="60.766594">
        <ele>289.0</ele>
        <time>1970-01-01T10:05:32.145Z</time>
    </trkpt>
    <trkpt lat="56.365958" lon="60.766588">
        <ele>289.0</ele>
        <time>1970-01-01T10:05:33.145Z</time>
    </trkpt>
    <trkpt lat="56.365946" lon="60.766585">
        <ele>289.0</ele>
        <time>1970-01-01T10:05:34.145Z</time>
    </trkpt>
    <trkpt lat="56.36591" lon="60.766573">
        <ele>288.0</ele>
        <time>1970-01-01T10:05:35.145Z</time>
    </trkpt>
    <trkpt lat="56.365898" lon="60.766569">
        <ele>288.0</ele>
        <time>1970-01-01T10:05:36.145Z</time>
    </trkpt>
    <trkpt lat="56.365866" lon="60.76656">
        <ele>288.0</ele>
        <time>1970-01-01T10:05:37.145Z</time>
    </trkpt>
    <trkpt lat="56.365839" lon="60.766547">
        <ele>288.0</ele>
        <time>1970-01-01T10:05:38.145Z</time>
    </trkpt>
    <trkpt lat="56.365827" lon="60.766546">
        <ele>288.0</ele>
        <time>1970-01-01T10:05:39.145Z</time>
    </trkpt>
    <trkpt lat="56.36579" lon="60.766552">
        <ele>289.0</ele>
        <time>1970-01-01T10:05:40.145Z</time>
    </trkpt>
    <trkpt lat="56.36576" lon="60.766553">
        <ele>289.0</ele>
        <time>1970-01-01T10:05:41.145Z</time>
    </trkpt>
    <trkpt lat="56.365729" lon="60.766552">
        <ele>289.0</ele>
        <time>1970-01-01T10:05:42.145Z</time>
    </trkpt>
    <trkpt lat="56.36571" lon="60.766553">
        <ele>289.0</ele>
        <time>1970-01-01T10:05:43.145Z</time>
    </trkpt>
    <trkpt lat="56.365666" lon="60.766556">
        <ele>289.0</ele>
        <time>1970-01-01T10:05:44.145Z</time>
    </trkpt>
    <trkpt lat="56.365637" lon="60.766539">
        <ele>289.0</ele>
        <time>1970-01-01T10:05:45.145Z</time>
    </trkpt>
    <trkpt lat="56.365603" lon="60.766524">
        <ele>289.0</ele>
        <time>1970-01-01T10:05:46.145Z</time>
    </trkpt>
    <trkpt lat="56.365589" lon="60.766526">
        <ele>289.0</ele>
        <time>1970-01-01T10:05:47.145Z</time>
    </trkpt>
    <trkpt lat="56.365551" lon="60.766531">
        <ele>289.0</ele>
        <time>1970-01-01T10:05:48.145Z</time>
    </trkpt>
    <trkpt lat="56.365541" lon="60.766533">
        <ele>289.0</ele>
        <time>1970-01-01T10:05:49.145Z</time>
    </trkpt>
    <trkpt lat="56.365512" lon="60.766526">
        <ele>289.0</ele>
        <time>1970-01-01T10:05:50.145Z</time>
    </trkpt>
    <trkpt lat="56.365501" lon="60.76653">
        <ele>289.0</ele>
        <time>1970-01-01T10:05:51.145Z</time>
    </trkpt>
    <trkpt lat="56.365468" lon="60.766522">
        <ele>289.0</ele>
        <time>1970-01-01T10:05:52.145Z</time>
    </trkpt>
    <trkpt lat="56.365454" lon="60.766519">
        <ele>289.0</ele>
        <time>1970-01-01T10:05:53.145Z</time>
    </trkpt>
    <trkpt lat="56.365423" lon="60.766506">
        <ele>289.0</ele>
        <time>1970-01-01T10:05:54.145Z</time>
    </trkpt>
    <trkpt lat="56.365411" lon="60.7665">
        <ele>289.0</ele>
        <time>1970-01-01T10:05:55.145Z</time>
    </trkpt>
    <trkpt lat="56.365379" lon="60.766487">
        <ele>289.0</ele>
        <time>1970-01-01T10:05:56.145Z</time>
    </trkpt>
    <trkpt lat="56.365347" lon="60.766475">
        <ele>289.0</ele>
        <time>1970-01-01T10:05:57.145Z</time>
    </trkpt>
    <trkpt lat="56.365336" lon="60.766472">
        <ele>288.0</ele>
        <time>1970-01-01T10:05:58.145Z</time>
    </trkpt>
    <trkpt lat="56.365304" lon="60.766465">
        <ele>288.0</ele>
        <time>1970-01-01T10:05:59.145Z</time>
    </trkpt>
    <trkpt lat="56.365272" lon="60.766453">
        <ele>288.0</ele>
        <time>1970-01-01T10:06:00.145Z</time>
    </trkpt>
    <trkpt lat="56.365237" lon="60.766452">
        <ele>288.0</ele>
        <time>1970-01-01T10:06:01.145Z</time>
    </trkpt>
    <trkpt lat="56.365206" lon="60.76644">
        <ele>288.0</ele>
        <time>1970-01-01T10:06:02.145Z</time>
    </trkpt>
    <trkpt lat="56.365178" lon="60.766438">
        <ele>288.0</ele>
        <time>1970-01-01T10:06:03.145Z</time>
    </trkpt>
    <trkpt lat="56.365145" lon="60.766413">
        <ele>288.0</ele>
        <time>1970-01-01T10:06:04.145Z</time>
    </trkpt>
    <trkpt lat="56.365113" lon="60.766402">
        <ele>287.0</ele>
        <time>1970-01-01T10:06:05.145Z</time>
    </trkpt>
    <trkpt lat="56.365081" lon="60.76639">
        <ele>287.0</ele>
        <time>1970-01-01T10:06:06.145Z</time>
    </trkpt>
    <trkpt lat="56.365064" lon="60.766388">
        <ele>287.0</ele>
        <time>1970-01-01T10:06:07.145Z</time>
    </trkpt>
    <trkpt lat="56.365024" lon="60.766377">
        <ele>287.0</ele>
        <time>1970-01-01T10:06:08.145Z</time>
    </trkpt>
    <trkpt lat="56.36498" lon="60.766374">
        <ele>287.0</ele>
        <time>1970-01-01T10:06:09.145Z</time>
    </trkpt>
    <trkpt lat="56.364967" lon="60.766374">
        <ele>287.0</ele>
        <time>1970-01-01T10:06:10.145Z</time>
    </trkpt>
    <trkpt lat="56.364933" lon="60.76638">
        <ele>287.0</ele>
        <time>1970-01-01T10:06:11.145Z</time>
    </trkpt>
    <trkpt lat="56.364902" lon="60.766386">
        <ele>287.0</ele>
        <time>1970-01-01T10:06:12.145Z</time>
    </trkpt>
    <trkpt lat="56.364856" lon="60.766387">
        <ele>286.0</ele>
        <time>1970-01-01T10:06:13.145Z</time>
    </trkpt>
    <trkpt lat="56.364814" lon="60.766377">
        <ele>286.0</ele>
        <time>1970-01-01T10:06:14.145Z</time>
    </trkpt>
    <trkpt lat="56.364781" lon="60.766383">
        <ele>286.0</ele>
        <time>1970-01-01T10:06:15.145Z</time>
    </trkpt>
    <trkpt lat="56.364764" lon="60.766375">
        <ele>286.0</ele>
        <time>1970-01-01T10:06:16.145Z</time>
    </trkpt>
    <trkpt lat="56.364726" lon="60.766367">
        <ele>286.0</ele>
        <time>1970-01-01T10:06:17.145Z</time>
    </trkpt>
    <trkpt lat="56.364697" lon="60.766378">
        <ele>286.0</ele>
        <time>1970-01-01T10:06:18.145Z</time>
    </trkpt>
    <trkpt lat="56.364669" lon="60.766368">
        <ele>286.0</ele>
        <time>1970-01-01T10:06:19.145Z</time>
    </trkpt>
    <trkpt lat="56.364638" lon="60.766369">
        <ele>286.0</ele>
        <time>1970-01-01T10:06:20.145Z</time>
    </trkpt>
    <trkpt lat="56.364619" lon="60.766366">
        <ele>286.0</ele>
        <time>1970-01-01T10:06:21.145Z</time>
    </trkpt>
    <trkpt lat="56.364574" lon="60.766366">
        <ele>286.0</ele>
        <time>1970-01-01T10:06:22.145Z</time>
    </trkpt>
    <trkpt lat="56.364546" lon="60.766365">
        <ele>286.0</ele>
        <time>1970-01-01T10:06:23.145Z</time>
    </trkpt>
    <trkpt lat="56.364532" lon="60.766364">
        <ele>286.0</ele>
        <time>1970-01-01T10:06:24.145Z</time>
    </trkpt>
    <trkpt lat="56.364493" lon="60.766353">
        <ele>286.0</ele>
        <time>1970-01-01T10:06:25.145Z</time>
    </trkpt>
    <trkpt lat="56.364459" lon="60.766339">
        <ele>286.0</ele>
        <time>1970-01-01T10:06:26.145Z</time>
    </trkpt>
    <trkpt lat="56.364423" lon="60.766332">
        <ele>286.0</ele>
        <time>1970-01-01T10:06:27.145Z</time>
    </trkpt>
    <trkpt lat="56.364408" lon="60.766326">
        <ele>286.0</ele>
        <time>1970-01-01T10:06:28.145Z</time>
    </trkpt>
    <trkpt lat="56.36437" lon="60.76631">
        <ele>286.0</ele>
        <time>1970-01-01T10:06:29.145Z</time>
    </trkpt>
    <trkpt lat="56.364338" lon="60.766296">
        <ele>286.0</ele>
        <time>1970-01-01T10:06:30.145Z</time>
    </trkpt>
    <trkpt lat="56.364324" lon="60.766285">
        <ele>286.0</ele>
        <time>1970-01-01T10:06:31.145Z</time>
    </trkpt>
    <trkpt lat="56.364307" lon="60.766278">
        <ele>286.0</ele>
        <time>1970-01-01T10:06:32.145Z</time>
    </trkpt>
    <trkpt lat="56.364277" lon="60.766263">
        <ele>287.0</ele>
        <time>1970-01-01T10:06:33.145Z</time>
    </trkpt>
    <trkpt lat="56.364265" lon="60.76626">
        <ele>287.0</ele>
        <time>1970-01-01T10:06:34.145Z</time>
    </trkpt>
    <trkpt lat="56.364233" lon="60.766247">
        <ele>287.0</ele>
        <time>1970-01-01T10:06:35.145Z</time>
    </trkpt>
    <trkpt lat="56.364205" lon="60.76625">
        <ele>287.0</ele>
        <time>1970-01-01T10:06:36.145Z</time>
    </trkpt>
    <trkpt lat="56.36419" lon="60.766244">
        <ele>287.0</ele>
        <time>1970-01-01T10:06:37.145Z</time>
    </trkpt>
    <trkpt lat="56.36415" lon="60.766235">
        <ele>287.0</ele>
        <time>1970-01-01T10:06:38.145Z</time>
    </trkpt>
    <trkpt lat="56.36414" lon="60.766228">
        <ele>287.0</ele>
        <time>1970-01-01T10:06:39.145Z</time>
    </trkpt>
    <trkpt lat="56.364113" lon="60.766223">
        <ele>287.0</ele>
        <time>1970-01-01T10:06:40.145Z</time>
    </trkpt>
    <trkpt lat="56.364104" lon="60.766223">
        <ele>287.0</ele>
        <time>1970-01-01T10:06:41.145Z</time>
    </trkpt>
    <trkpt lat="56.364071" lon="60.766227">
        <ele>287.0</ele>
        <time>1970-01-01T10:06:42.145Z</time>
    </trkpt>
    <trkpt lat="56.364042" lon="60.766221">
        <ele>287.0</ele>
        <time>1970-01-01T10:06:43.145Z</time>
    </trkpt>
    <trkpt lat="56.364011" lon="60.766217">
        <ele>287.0</ele>
        <time>1970-01-01T10:06:44.145Z</time>
    </trkpt>
    <trkpt lat="56.36399" lon="60.76622">
        <ele>287.0</ele>
        <time>1970-01-01T10:06:45.145Z</time>
    </trkpt>
    <trkpt lat="56.363979" lon="60.766232">
        <ele>287.0</ele>
        <time>1970-01-01T10:06:46.145Z</time>
    </trkpt>
    <trkpt lat="56.363964" lon="60.766234">
        <ele>287.0</ele>
        <time>1970-01-01T10:06:47.145Z</time>
    </trkpt>
    <trkpt lat="56.363925" lon="60.766241">
        <ele>288.0</ele>
        <time>1970-01-01T10:06:48.145Z</time>
    </trkpt>
    <trkpt lat="56.36391" lon="60.766241">
        <ele>288.0</ele>
        <time>1970-01-01T10:06:49.145Z</time>
    </trkpt>
    <trkpt lat="56.36387" lon="60.766252">
        <ele>288.0</ele>
        <time>1970-01-01T10:06:50.145Z</time>
    </trkpt>
    <trkpt lat="56.363834" lon="60.766252">
        <ele>288.0</ele>
        <time>1970-01-01T10:06:51.145Z</time>
    </trkpt>
    <trkpt lat="56.363796" lon="60.766268">
        <ele>288.0</ele>
        <time>1970-01-01T10:06:52.145Z</time>
    </trkpt>
    <trkpt lat="56.363767" lon="60.76628">
        <ele>288.0</ele>
        <time>1970-01-01T10:06:53.145Z</time>
    </trkpt>
    <trkpt lat="56.363742" lon="60.7663">
        <ele>288.0</ele>
        <time>1970-01-01T10:06:54.145Z</time>
    </trkpt>
    <trkpt lat="56.363714" lon="60.766318">
        <ele>288.0</ele>
        <time>1970-01-01T10:06:55.145Z</time>
    </trkpt>
    <trkpt lat="56.363683" lon="60.766323">
        <ele>288.0</ele>
        <time>1970-01-01T10:06:56.145Z</time>
    </trkpt>
    <trkpt lat="56.363651" lon="60.766339">
        <ele>288.0</ele>
        <time>1970-01-01T10:06:57.145Z</time>
    </trkpt>
    <trkpt lat="56.363614" lon="60.766362">
        <ele>288.0</ele>
        <time>1970-01-01T10:06:58.145Z</time>
    </trkpt>
    <trkpt lat="56.363587" lon="60.766383">
        <ele>288.0</ele>
        <time>1970-01-01T10:06:59.145Z</time>
    </trkpt>
    <trkpt lat="56.363555" lon="60.766395">
        <ele>288.0</ele>
        <time>1970-01-01T10:07:00.145Z</time>
    </trkpt>
    <trkpt lat="56.36353" lon="60.766422">
        <ele>288.0</ele>
        <time>1970-01-01T10:07:01.145Z</time>
    </trkpt>
    <trkpt lat="56.363507" lon="60.766454">
        <ele>288.0</ele>
        <time>1970-01-01T10:07:02.145Z</time>
    </trkpt>
    <trkpt lat="56.363496" lon="60.766463">
        <ele>288.0</ele>
        <time>1970-01-01T10:07:03.145Z</time>
    </trkpt>
    <trkpt lat="56.363463" lon="60.766496">
        <ele>288.0</ele>
        <time>1970-01-01T10:07:04.145Z</time>
    </trkpt>
    <trkpt lat="56.36345" lon="60.766514">
        <ele>288.0</ele>
        <time>1970-01-01T10:07:05.145Z</time>
    </trkpt>
    <trkpt lat="56.363415" lon="60.766557">
        <ele>288.0</ele>
        <time>1970-01-01T10:07:06.145Z</time>
    </trkpt>
    <trkpt lat="56.363401" lon="60.766568">
        <ele>288.0</ele>
        <time>1970-01-01T10:07:07.145Z</time>
    </trkpt>
    <trkpt lat="56.363372" lon="60.766587">
        <ele>288.0</ele>
        <time>1970-01-01T10:07:08.145Z</time>
    </trkpt>
    <trkpt lat="56.363339" lon="60.766621">
        <ele>288.0</ele>
        <time>1970-01-01T10:07:09.145Z</time>
    </trkpt>
    <trkpt lat="56.363312" lon="60.766638">
        <ele>288.0</ele>
        <time>1970-01-01T10:07:10.145Z</time>
    </trkpt>
    <trkpt lat="56.36328" lon="60.766654">
        <ele>288.0</ele>
        <time>1970-01-01T10:07:11.145Z</time>
    </trkpt>
    <trkpt lat="56.363255" lon="60.766673">
        <ele>288.0</ele>
        <time>1970-01-01T10:07:12.145Z</time>
    </trkpt>
    <trkpt lat="56.36322" lon="60.766686">
        <ele>287.0</ele>
        <time>1970-01-01T10:07:13.145Z</time>
    </trkpt>
    <trkpt lat="56.363192" lon="60.766703">
        <ele>287.0</ele>
        <time>1970-01-01T10:07:14.145Z</time>
    </trkpt>
    <trkpt lat="56.363157" lon="60.766712">
        <ele>287.0</ele>
        <time>1970-01-01T10:07:15.145Z</time>
    </trkpt>
    <trkpt lat="56.363117" lon="60.766725">
        <ele>287.0</ele>
        <time>1970-01-01T10:07:16.145Z</time>
    </trkpt>
    <trkpt lat="56.363103" lon="60.766737">
        <ele>287.0</ele>
        <time>1970-01-01T10:07:17.145Z</time>
    </trkpt>
    <trkpt lat="56.363064" lon="60.766748">
        <ele>287.0</ele>
        <time>1970-01-01T10:07:18.145Z</time>
    </trkpt>
    <trkpt lat="56.363026" lon="60.766767">
        <ele>287.0</ele>
        <time>1970-01-01T10:07:19.145Z</time>
    </trkpt>
    <trkpt lat="56.362993" lon="60.766787">
        <ele>287.0</ele>
        <time>1970-01-01T10:07:20.145Z</time>
    </trkpt>
    <trkpt lat="56.362963" lon="60.766819">
        <ele>287.0</ele>
        <time>1970-01-01T10:07:21.145Z</time>
    </trkpt>
    <trkpt lat="56.362925" lon="60.766848">
        <ele>287.0</ele>
        <time>1970-01-01T10:07:22.145Z</time>
    </trkpt>
    <trkpt lat="56.362899" lon="60.766872">
        <ele>287.0</ele>
        <time>1970-01-01T10:07:23.145Z</time>
    </trkpt>
    <trkpt lat="56.362888" lon="60.76688">
        <ele>287.0</ele>
        <time>1970-01-01T10:07:24.145Z</time>
    </trkpt>
    <trkpt lat="56.362856" lon="60.766913">
        <ele>286.0</ele>
        <time>1970-01-01T10:07:25.145Z</time>
    </trkpt>
    <trkpt lat="56.362833" lon="60.766945">
        <ele>287.0</ele>
        <time>1970-01-01T10:07:26.145Z</time>
    </trkpt>
    <trkpt lat="56.362806" lon="60.766967">
        <ele>287.0</ele>
        <time>1970-01-01T10:07:27.145Z</time>
    </trkpt>
    <trkpt lat="56.362781" lon="60.766985">
        <ele>287.0</ele>
        <time>1970-01-01T10:07:28.145Z</time>
    </trkpt>
    <trkpt lat="56.362748" lon="60.767003">
        <ele>286.0</ele>
        <time>1970-01-01T10:07:29.145Z</time>
    </trkpt>
    <trkpt lat="56.362714" lon="60.767015">
        <ele>286.0</ele>
        <time>1970-01-01T10:07:30.145Z</time>
    </trkpt>
    <trkpt lat="56.362704" lon="60.767023">
        <ele>286.0</ele>
        <time>1970-01-01T10:07:31.145Z</time>
    </trkpt>
    <trkpt lat="56.362668" lon="60.767028">
        <ele>286.0</ele>
        <time>1970-01-01T10:07:32.145Z</time>
    </trkpt>
    <trkpt lat="56.362638" lon="60.767047">
        <ele>286.0</ele>
        <time>1970-01-01T10:07:33.145Z</time>
    </trkpt>
    <trkpt lat="56.36261" lon="60.767059">
        <ele>286.0</ele>
        <time>1970-01-01T10:07:34.145Z</time>
    </trkpt>
    <trkpt lat="56.362601" lon="60.76706">
        <ele>286.0</ele>
        <time>1970-01-01T10:07:35.145Z</time>
    </trkpt>
    <trkpt lat="56.362573" lon="60.767061">
        <ele>286.0</ele>
        <time>1970-01-01T10:07:36.145Z</time>
    </trkpt>
    <trkpt lat="56.362555" lon="60.76706">
        <ele>286.0</ele>
        <time>1970-01-01T10:07:37.145Z</time>
    </trkpt>
    <trkpt lat="56.362518" lon="60.767064">
        <ele>286.0</ele>
        <time>1970-01-01T10:07:38.145Z</time>
    </trkpt>
    <trkpt lat="56.362507" lon="60.767067">
        <ele>286.0</ele>
        <time>1970-01-01T10:07:39.145Z</time>
    </trkpt>
    <trkpt lat="56.362469" lon="60.767066">
        <ele>286.0</ele>
        <time>1970-01-01T10:07:40.145Z</time>
    </trkpt>
    <trkpt lat="56.362455" lon="60.767061">
        <ele>286.0</ele>
        <time>1970-01-01T10:07:41.145Z</time>
    </trkpt>
    <trkpt lat="56.362419" lon="60.767051">
        <ele>286.0</ele>
        <time>1970-01-01T10:07:42.145Z</time>
    </trkpt>
    <trkpt lat="56.362384" lon="60.767042">
        <ele>286.0</ele>
        <time>1970-01-01T10:07:43.145Z</time>
    </trkpt>
    <trkpt lat="56.362344" lon="60.76703">
        <ele>286.0</ele>
        <time>1970-01-01T10:07:44.145Z</time>
    </trkpt>
    <trkpt lat="56.362315" lon="60.767024">
        <ele>286.0</ele>
        <time>1970-01-01T10:07:45.145Z</time>
    </trkpt>
    <trkpt lat="56.362283" lon="60.767022">
        <ele>285.0</ele>
        <time>1970-01-01T10:07:46.145Z</time>
    </trkpt>
    <trkpt lat="56.362263" lon="60.767011">
        <ele>285.0</ele>
        <time>1970-01-01T10:07:47.145Z</time>
    </trkpt>
    <trkpt lat="56.362219" lon="60.767005">
        <ele>285.0</ele>
        <time>1970-01-01T10:07:48.145Z</time>
    </trkpt>
    <trkpt lat="56.362182" lon="60.766993">
        <ele>285.0</ele>
        <time>1970-01-01T10:07:49.145Z</time>
    </trkpt>
    <trkpt lat="56.362153" lon="60.766998">
        <ele>285.0</ele>
        <time>1970-01-01T10:07:50.145Z</time>
    </trkpt>
    <trkpt lat="56.36212" lon="60.766986">
        <ele>285.0</ele>
        <time>1970-01-01T10:07:51.145Z</time>
    </trkpt>
    <trkpt lat="56.362096" lon="60.766982">
        <ele>285.0</ele>
        <time>1970-01-01T10:07:52.145Z</time>
    </trkpt>
    <trkpt lat="56.362047" lon="60.766972">
        <ele>285.0</ele>
        <time>1970-01-01T10:07:53.145Z</time>
    </trkpt>
    <trkpt lat="56.362017" lon="60.766968">
        <ele>285.0</ele>
        <time>1970-01-01T10:07:54.145Z</time>
    </trkpt>
    <trkpt lat="56.362006" lon="60.766965">
        <ele>285.0</ele>
        <time>1970-01-01T10:07:55.145Z</time>
    </trkpt>
    <trkpt lat="56.361973" lon="60.766956">
        <ele>285.0</ele>
        <time>1970-01-01T10:07:56.145Z</time>
    </trkpt>
    <trkpt lat="56.361943" lon="60.766953">
        <ele>285.0</ele>
        <time>1970-01-01T10:07:57.145Z</time>
    </trkpt>
    <trkpt lat="56.361905" lon="60.766952">
        <ele>285.0</ele>
        <time>1970-01-01T10:07:58.145Z</time>
    </trkpt>
    <trkpt lat="56.361871" lon="60.766959">
        <ele>285.0</ele>
        <time>1970-01-01T10:07:59.145Z</time>
    </trkpt>
    <trkpt lat="56.361838" lon="60.766959">
        <ele>285.0</ele>
        <time>1970-01-01T10:08:00.145Z</time>
    </trkpt>
    <trkpt lat="56.36183" lon="60.766958">
        <ele>285.0</ele>
        <time>1970-01-01T10:08:01.145Z</time>
    </trkpt>
    <trkpt lat="56.361798" lon="60.766964">
        <ele>285.0</ele>
        <time>1970-01-01T10:08:02.145Z</time>
    </trkpt>
    <trkpt lat="56.361771" lon="60.766956">
        <ele>285.0</ele>
        <time>1970-01-01T10:08:03.145Z</time>
    </trkpt>
    <trkpt lat="56.361742" lon="60.766942">
        <ele>285.0</ele>
        <time>1970-01-01T10:08:04.145Z</time>
    </trkpt>
    <trkpt lat="56.36173" lon="60.766927">
        <ele>285.0</ele>
        <time>1970-01-01T10:08:05.145Z</time>
    </trkpt>
    <trkpt lat="56.361697" lon="60.766901">
        <ele>284.0</ele>
        <time>1970-01-01T10:08:06.145Z</time>
    </trkpt>
    <trkpt lat="56.361686" lon="60.766893">
        <ele>284.0</ele>
        <time>1970-01-01T10:08:07.145Z</time>
    </trkpt>
    <trkpt lat="56.361653" lon="60.766865">
        <ele>284.0</ele>
        <time>1970-01-01T10:08:08.145Z</time>
    </trkpt>
    <trkpt lat="56.361641" lon="60.766848">
        <ele>284.0</ele>
        <time>1970-01-01T10:08:09.145Z</time>
    </trkpt>
    <trkpt lat="56.36161" lon="60.766806">
        <ele>284.0</ele>
        <time>1970-01-01T10:08:10.145Z</time>
    </trkpt>
    <trkpt lat="56.361585" lon="60.766783">
        <ele>284.0</ele>
        <time>1970-01-01T10:08:11.145Z</time>
    </trkpt>
    <trkpt lat="56.361566" lon="60.766745">
        <ele>284.0</ele>
        <time>1970-01-01T10:08:12.145Z</time>
    </trkpt>
    <trkpt lat="56.361543" lon="60.766708">
        <ele>284.0</ele>
        <time>1970-01-01T10:08:13.145Z</time>
    </trkpt>
    <trkpt lat="56.36152" lon="60.766685">
        <ele>284.0</ele>
        <time>1970-01-01T10:08:14.145Z</time>
    </trkpt>
    <trkpt lat="56.361507" lon="60.766671">
        <ele>284.0</ele>
        <time>1970-01-01T10:08:15.145Z</time>
    </trkpt>
    <trkpt lat="56.361477" lon="60.766636">
        <ele>284.0</ele>
        <time>1970-01-01T10:08:16.145Z</time>
    </trkpt>
    <trkpt lat="56.361442" lon="60.766608">
        <ele>285.0</ele>
        <time>1970-01-01T10:08:17.145Z</time>
    </trkpt>
    <trkpt lat="56.361433" lon="60.766599">
        <ele>285.0</ele>
        <time>1970-01-01T10:08:18.145Z</time>
    </trkpt>
    <trkpt lat="56.361405" lon="60.766575">
        <ele>286.0</ele>
        <time>1970-01-01T10:08:19.145Z</time>
    </trkpt>
    <trkpt lat="56.361394" lon="60.766571">
        <ele>286.0</ele>
        <time>1970-01-01T10:08:20.145Z</time>
    </trkpt>
    <trkpt lat="56.361367" lon="60.766554">
        <ele>286.0</ele>
        <time>1970-01-01T10:08:21.145Z</time>
    </trkpt>
    <trkpt lat="56.361362" lon="60.766544">
        <ele>286.0</ele>
        <time>1970-01-01T10:08:22.145Z</time>
    </trkpt>
    <trkpt lat="56.361334" lon="60.766512">
        <ele>286.0</ele>
        <time>1970-01-01T10:08:23.145Z</time>
    </trkpt>
    <trkpt lat="56.361314" lon="60.766495">
        <ele>286.0</ele>
        <time>1970-01-01T10:08:24.145Z</time>
    </trkpt>
    <trkpt lat="56.361312" lon="60.766474">
        <ele>286.0</ele>
        <time>1970-01-01T10:08:25.145Z</time>
    </trkpt>
    <trkpt lat="56.361304" lon="60.766462">
        <ele>286.0</ele>
        <time>1970-01-01T10:08:26.145Z</time>
    </trkpt>
    <trkpt lat="56.361291" lon="60.766441">
        <ele>286.0</ele>
        <time>1970-01-01T10:08:27.145Z</time>
    </trkpt>
    <trkpt lat="56.36128" lon="60.766429">
        <ele>286.0</ele>
        <time>1970-01-01T10:08:28.145Z</time>
    </trkpt>
    <trkpt lat="56.361258" lon="60.766392">
        <ele>287.0</ele>
        <time>1970-01-01T10:08:29.145Z</time>
    </trkpt>
    <trkpt lat="56.361252" lon="60.76638">
        <ele>288.0</ele>
        <time>1970-01-01T10:08:30.145Z</time>
    </trkpt>
    <trkpt lat="56.361231" lon="60.766343">
        <ele>288.0</ele>
        <time>1970-01-01T10:08:31.145Z</time>
    </trkpt>
    <trkpt lat="56.361223" lon="60.766328">
        <ele>288.0</ele>
        <time>1970-01-01T10:08:32.145Z</time>
    </trkpt>
    <trkpt lat="56.361199" lon="60.766285">
        <ele>288.0</ele>
        <time>1970-01-01T10:08:33.145Z</time>
    </trkpt>
    <trkpt lat="56.361188" lon="60.766273">
        <ele>288.0</ele>
        <time>1970-01-01T10:08:34.145Z</time>
    </trkpt>
    <trkpt lat="56.361154" lon="60.766241">
        <ele>290.0</ele>
        <time>1970-01-01T10:08:35.145Z</time>
    </trkpt>
    <trkpt lat="56.361134" lon="60.766233">
        <ele>291.0</ele>
        <time>1970-01-01T10:08:36.145Z</time>
    </trkpt>
    <trkpt lat="56.361122" lon="60.766222">
        <ele>291.0</ele>
        <time>1970-01-01T10:08:37.145Z</time>
    </trkpt>
    <trkpt lat="56.361118" lon="60.766215">
        <ele>291.0</ele>
        <time>1970-01-01T10:08:38.145Z</time>
    </trkpt>
    <trkpt lat="56.361114" lon="60.766208">
        <ele>291.0</ele>
        <time>1970-01-01T10:08:39.145Z</time>
    </trkpt>
    <trkpt lat="56.36111" lon="60.766201">
        <ele>291.0</ele>
        <time>1970-01-01T10:08:40.145Z</time>
    </trkpt>
    <trkpt lat="56.361107" lon="60.766195">
        <ele>291.0</ele>
        <time>1970-01-01T10:09:58.145Z</time>
    </trkpt>
    <trkpt lat="56.361103" lon="60.766188">
        <ele>291.0</ele>
        <time>1970-01-01T10:09:59.145Z</time>
    </trkpt>
    <trkpt lat="56.361099" lon="60.766181">
        <ele>291.0</ele>
        <time>1970-01-01T10:10:00.145Z</time>
    </trkpt>
    <trkpt lat="56.361095" lon="60.766174">
        <ele>291.0</ele>
        <time>1970-01-01T10:10:01.145Z</time>
    </trkpt>
    <trkpt lat="56.361092" lon="60.766167">
        <ele>291.0</ele>
        <time>1970-01-01T10:10:02.145Z</time>
    </trkpt>
    <trkpt lat="56.361088" lon="60.76616">
        <ele>291.0</ele>
        <time>1970-01-01T10:10:03.145Z</time>
    </trkpt>
    <trkpt lat="56.361084" lon="60.766154">
        <ele>291.0</ele>
        <time>1970-01-01T10:10:04.145Z</time>
    </trkpt>
    <trkpt lat="56.36108" lon="60.766147">
        <ele>291.0</ele>
        <time>1970-01-01T10:10:05.145Z</time>
    </trkpt>
    <trkpt lat="56.361077" lon="60.76614">
        <ele>291.0</ele>
        <time>1970-01-01T10:10:06.145Z</time>
    </trkpt>
    <trkpt lat="56.361073" lon="60.766133">
        <ele>291.0</ele>
        <time>1970-01-01T10:10:07.145Z</time>
    </trkpt>
    <trkpt lat="56.361069" lon="60.766126">
        <ele>291.0</ele>
        <time>1970-01-01T10:10:08.145Z</time>
    </trkpt>
    <trkpt lat="56.361046" lon="60.766104">
        <ele>292.0</ele>
        <time>1970-01-01T10:10:09.145Z</time>
    </trkpt>
    <trkpt lat="56.361033" lon="60.766094">
        <ele>292.0</ele>
        <time>1970-01-01T10:10:10.145Z</time>
    </trkpt>
    <trkpt lat="56.360998" lon="60.766067">
        <ele>293.0</ele>
        <time>1970-01-01T10:10:11.145Z</time>
    </trkpt>
    <trkpt lat="56.360973" lon="60.766045">
        <ele>293.0</ele>
        <time>1970-01-01T10:10:12.145Z</time>
    </trkpt>
    <trkpt lat="56.360946" lon="60.766028">
        <ele>295.0</ele>
        <time>1970-01-01T10:10:13.145Z</time>
    </trkpt>
    <trkpt lat="56.360918" lon="60.766006">
        <ele>295.0</ele>
        <time>1970-01-01T10:10:14.145Z</time>
    </trkpt>
    <trkpt lat="56.360907" lon="60.765997">
        <ele>295.0</ele>
        <time>1970-01-01T10:10:15.145Z</time>
    </trkpt>
    <trkpt lat="56.360879" lon="60.765977">
        <ele>295.0</ele>
        <time>1970-01-01T10:10:16.145Z</time>
    </trkpt>
    <trkpt lat="56.360852" lon="60.76596">
        <ele>296.0</ele>
        <time>1970-01-01T10:10:17.145Z</time>
    </trkpt>
    <trkpt lat="56.360824" lon="60.765947">
        <ele>296.0</ele>
        <time>1970-01-01T10:10:18.145Z</time>
    </trkpt>
    <trkpt lat="56.360794" lon="60.765938">
        <ele>296.0</ele>
        <time>1970-01-01T10:10:19.145Z</time>
    </trkpt>
    <trkpt lat="56.360762" lon="60.765931">
        <ele>297.0</ele>
        <time>1970-01-01T10:10:20.145Z</time>
    </trkpt>
    <trkpt lat="56.360734" lon="60.765909">
        <ele>297.0</ele>
        <time>1970-01-01T10:10:21.145Z</time>
    </trkpt>
    <trkpt lat="56.360705" lon="60.765894">
        <ele>297.0</ele>
        <time>1970-01-01T10:10:22.145Z</time>
    </trkpt>
    <trkpt lat="56.360677" lon="60.765877">
        <ele>298.0</ele>
        <time>1970-01-01T10:10:23.145Z</time>
    </trkpt>
    <trkpt lat="56.360647" lon="60.765859">
        <ele>298.0</ele>
        <time>1970-01-01T10:10:24.145Z</time>
    </trkpt>
    <trkpt lat="56.360614" lon="60.765832">
        <ele>298.0</ele>
        <time>1970-01-01T10:10:25.145Z</time>
    </trkpt>
    <trkpt lat="56.360585" lon="60.765793">
        <ele>299.0</ele>
        <time>1970-01-01T10:10:26.145Z</time>
    </trkpt>
    <trkpt lat="56.360555" lon="60.765768">
        <ele>299.0</ele>
        <time>1970-01-01T10:10:27.145Z</time>
    </trkpt>
    <trkpt lat="56.360527" lon="60.765744">
        <ele>299.0</ele>
        <time>1970-01-01T10:10:28.145Z</time>
    </trkpt>
    <trkpt lat="56.360516" lon="60.765734">
        <ele>299.0</ele>
        <time>1970-01-01T10:10:29.145Z</time>
    </trkpt>
    <trkpt lat="56.360484" lon="60.765702">
        <ele>299.0</ele>
        <time>1970-01-01T10:10:30.145Z</time>
    </trkpt>
    <trkpt lat="56.36046" lon="60.765677">
        <ele>299.0</ele>
        <time>1970-01-01T10:10:31.145Z</time>
    </trkpt>
    <trkpt lat="56.360427" lon="60.76566">
        <ele>299.0</ele>
        <time>1970-01-01T10:10:32.145Z</time>
    </trkpt>
    <trkpt lat="56.360396" lon="60.765639">
        <ele>300.0</ele>
        <time>1970-01-01T10:10:33.145Z</time>
    </trkpt>
    <trkpt lat="56.360365" lon="60.765623">
        <ele>300.0</ele>
        <time>1970-01-01T10:10:34.145Z</time>
    </trkpt>
    <trkpt lat="56.360329" lon="60.765611">
        <ele>300.0</ele>
        <time>1970-01-01T10:10:35.145Z</time>
    </trkpt>
    <trkpt lat="56.360294" lon="60.76561">
        <ele>300.0</ele>
        <time>1970-01-01T10:10:36.145Z</time>
    </trkpt>
    <trkpt lat="56.360262" lon="60.765607">
        <ele>300.0</ele>
        <time>1970-01-01T10:10:37.145Z</time>
    </trkpt>
    <trkpt lat="56.360227" lon="60.765601">
        <ele>300.0</ele>
        <time>1970-01-01T10:10:38.145Z</time>
    </trkpt>
    <trkpt lat="56.360191" lon="60.76559">
        <ele>301.0</ele>
        <time>1970-01-01T10:10:39.145Z</time>
    </trkpt>
    <trkpt lat="56.36015" lon="60.765568">
        <ele>301.0</ele>
        <time>1970-01-01T10:10:40.145Z</time>
    </trkpt>
    <trkpt lat="56.360117" lon="60.765546">
        <ele>300.0</ele>
        <time>1970-01-01T10:10:41.145Z</time>
    </trkpt>
    <trkpt lat="56.360086" lon="60.765519">
        <ele>301.0</ele>
        <time>1970-01-01T10:10:42.145Z</time>
    </trkpt>
    <trkpt lat="56.360043" lon="60.765487">
        <ele>301.0</ele>
        <time>1970-01-01T10:10:43.145Z</time>
    </trkpt>
    <trkpt lat="56.360008" lon="60.765462">
        <ele>302.0</ele>
        <time>1970-01-01T10:10:44.145Z</time>
    </trkpt>
    <trkpt lat="56.359968" lon="60.765433">
        <ele>302.0</ele>
        <time>1970-01-01T10:10:45.145Z</time>
    </trkpt>
    <trkpt lat="56.359923" lon="60.76541">
        <ele>303.0</ele>
        <time>1970-01-01T10:10:46.145Z</time>
    </trkpt>
    <trkpt lat="56.359884" lon="60.765377">
        <ele>301.0</ele>
        <time>1970-01-01T10:10:47.145Z</time>
    </trkpt>
    <trkpt lat="56.359832" lon="60.76536">
        <ele>301.0</ele>
        <time>1970-01-01T10:10:48.145Z</time>
    </trkpt>
    <trkpt lat="56.359782" lon="60.765359">
        <ele>302.0</ele>
        <time>1970-01-01T10:10:49.145Z</time>
    </trkpt>
    <trkpt lat="56.359738" lon="60.765354">
        <ele>302.0</ele>
        <time>1970-01-01T10:10:50.145Z</time>
    </trkpt>
    <trkpt lat="56.359685" lon="60.765334">
        <ele>303.0</ele>
        <time>1970-01-01T10:10:51.145Z</time>
    </trkpt>
    <trkpt lat="56.359649" lon="60.76531">
        <ele>303.0</ele>
        <time>1970-01-01T10:10:52.145Z</time>
    </trkpt>
    <trkpt lat="56.35961" lon="60.765265">
        <ele>304.0</ele>
        <time>1970-01-01T10:10:53.145Z</time>
    </trkpt>
    <trkpt lat="56.359569" lon="60.765235">
        <ele>304.0</ele>
        <time>1970-01-01T10:10:54.145Z</time>
    </trkpt>
    <trkpt lat="56.35953" lon="60.765201">
        <ele>305.0</ele>
        <time>1970-01-01T10:10:55.145Z</time>
    </trkpt>
    <trkpt lat="56.359483" lon="60.765179">
        <ele>305.0</ele>
        <time>1970-01-01T10:10:56.145Z</time>
    </trkpt>
    <trkpt lat="56.359438" lon="60.765178">
        <ele>305.0</ele>
        <time>1970-01-01T10:10:57.145Z</time>
    </trkpt>
    <trkpt lat="56.359396" lon="60.765169">
        <ele>305.0</ele>
        <time>1970-01-01T10:10:58.145Z</time>
    </trkpt>
    <trkpt lat="56.35935" lon="60.765157">
        <ele>306.0</ele>
        <time>1970-01-01T10:10:59.145Z</time>
    </trkpt>
    <trkpt lat="56.359305" lon="60.765139">
        <ele>306.0</ele>
        <time>1970-01-01T10:11:00.145Z</time>
    </trkpt>
    <trkpt lat="56.35926" lon="60.765112">
        <ele>306.0</ele>
        <time>1970-01-01T10:11:01.145Z</time>
    </trkpt>
    <trkpt lat="56.359227" lon="60.765091">
        <ele>306.0</ele>
        <time>1970-01-01T10:11:03.145Z</time>
    </trkpt>
    <trkpt lat="56.35919" lon="60.765068">
        <ele>306.0</ele>
        <time>1970-01-01T10:11:04.145Z</time>
    </trkpt>
    <trkpt lat="56.359148" lon="60.765033">
        <ele>306.0</ele>
        <time>1970-01-01T10:11:05.145Z</time>
    </trkpt>
    <trkpt lat="56.359113" lon="60.765007">
        <ele>306.0</ele>
        <time>1970-01-01T10:11:06.145Z</time>
    </trkpt>
    <trkpt lat="56.359074" lon="60.764981">
        <ele>306.0</ele>
        <time>1970-01-01T10:11:07.145Z</time>
    </trkpt>
    <trkpt lat="56.359037" lon="60.764952">
        <ele>306.0</ele>
        <time>1970-01-01T10:11:08.145Z</time>
    </trkpt>
    <trkpt lat="56.358997" lon="60.764926">
        <ele>306.0</ele>
        <time>1970-01-01T10:11:09.145Z</time>
    </trkpt>
    <trkpt lat="56.358957" lon="60.76489">
        <ele>306.0</ele>
        <time>1970-01-01T10:11:10.145Z</time>
    </trkpt>
    <trkpt lat="56.358911" lon="60.764872">
        <ele>306.0</ele>
        <time>1970-01-01T10:11:11.145Z</time>
    </trkpt>
    <trkpt lat="56.358883" lon="60.764843">
        <ele>305.0</ele>
        <time>1970-01-01T10:11:12.145Z</time>
    </trkpt>
    <trkpt lat="56.35885" lon="60.764812">
        <ele>306.0</ele>
        <time>1970-01-01T10:11:13.145Z</time>
    </trkpt>
    <trkpt lat="56.358814" lon="60.764775">
        <ele>306.0</ele>
        <time>1970-01-01T10:11:14.145Z</time>
    </trkpt>
    <trkpt lat="56.358781" lon="60.764735">
        <ele>307.0</ele>
        <time>1970-01-01T10:11:15.145Z</time>
    </trkpt>
    <trkpt lat="56.358748" lon="60.764703">
        <ele>307.0</ele>
        <time>1970-01-01T10:11:16.145Z</time>
    </trkpt>
    <trkpt lat="56.35872" lon="60.764663">
        <ele>305.0</ele>
        <time>1970-01-01T10:11:17.145Z</time>
    </trkpt>
    <trkpt lat="56.358684" lon="60.764627">
        <ele>306.0</ele>
        <time>1970-01-01T10:11:18.145Z</time>
    </trkpt>
    <trkpt lat="56.358648" lon="60.764583">
        <ele>306.0</ele>
        <time>1970-01-01T10:11:19.145Z</time>
    </trkpt>
    <trkpt lat="56.358612" lon="60.764533">
        <ele>306.0</ele>
        <time>1970-01-01T10:11:20.145Z</time>
    </trkpt>
    <trkpt lat="56.358583" lon="60.764488">
        <ele>305.0</ele>
        <time>1970-01-01T10:11:21.145Z</time>
    </trkpt>
    <trkpt lat="56.358558" lon="60.764438">
        <ele>305.0</ele>
        <time>1970-01-01T10:11:22.145Z</time>
    </trkpt>
    <trkpt lat="56.358525" lon="60.764385">
        <ele>305.0</ele>
        <time>1970-01-01T10:11:23.145Z</time>
    </trkpt>
    <trkpt lat="56.358515" lon="60.764361">
        <ele>305.0</ele>
        <time>1970-01-01T10:11:24.145Z</time>
    </trkpt>
    <trkpt lat="56.358488" lon="60.7643">
        <ele>305.0</ele>
        <time>1970-01-01T10:11:25.145Z</time>
    </trkpt>
    <trkpt lat="56.35847" lon="60.764263">
        <ele>305.0</ele>
        <time>1970-01-01T10:11:26.145Z</time>
    </trkpt>
    <trkpt lat="56.358444" lon="60.764242">
        <ele>305.0</ele>
        <time>1970-01-01T10:11:27.145Z</time>
    </trkpt>
    <trkpt lat="56.358431" lon="60.76423">
        <ele>305.0</ele>
        <time>1970-01-01T10:11:28.145Z</time>
    </trkpt>
    <trkpt lat="56.358396" lon="60.764203">
        <ele>305.0</ele>
        <time>1970-01-01T10:11:29.145Z</time>
    </trkpt>
    <trkpt lat="56.358384" lon="60.764185">
        <ele>305.0</ele>
        <time>1970-01-01T10:11:30.145Z</time>
    </trkpt>
    <trkpt lat="56.35836" lon="60.764148">
        <ele>304.0</ele>
        <time>1970-01-01T10:11:31.145Z</time>
    </trkpt>
    <trkpt lat="56.358349" lon="60.764136">
        <ele>304.0</ele>
        <time>1970-01-01T10:11:32.145Z</time>
    </trkpt>
    <trkpt lat="56.358327" lon="60.764112">
        <ele>304.0</ele>
        <time>1970-01-01T10:11:33.145Z</time>
    </trkpt>
    <trkpt lat="56.358321" lon="60.7641">
        <ele>304.0</ele>
        <time>1970-01-01T10:11:34.145Z</time>
    </trkpt>
    <trkpt lat="56.358316" lon="60.764088">
        <ele>304.0</ele>
        <time>1970-01-01T10:11:35.145Z</time>
    </trkpt>
    <trkpt lat="56.3583" lon="60.764059">
        <ele>305.0</ele>
        <time>1970-01-01T10:11:36.145Z</time>
    </trkpt>
    <trkpt lat="56.358296" lon="60.764042">
        <ele>305.0</ele>
        <time>1970-01-01T10:11:37.145Z</time>
    </trkpt>
    <trkpt lat="56.358291" lon="60.764033">
        <ele>305.0</ele>
        <time>1970-01-01T10:11:38.145Z</time>
    </trkpt>
    <trkpt lat="56.358278" lon="60.764019">
        <ele>305.0</ele>
        <time>1970-01-01T10:11:39.145Z</time>
    </trkpt>
    <trkpt lat="56.358269" lon="60.764007">
        <ele>304.0</ele>
        <time>1970-01-01T10:11:40.145Z</time>
    </trkpt>
    <trkpt lat="56.35826" lon="60.764">
        <ele>304.0</ele>
        <time>1970-01-01T10:11:41.145Z</time>
    </trkpt>
    <trkpt lat="56.35825" lon="60.763985">
        <ele>304.0</ele>
        <time>1970-01-01T10:11:42.145Z</time>
    </trkpt>
    <trkpt lat="56.358244" lon="60.763979">
        <ele>304.0</ele>
        <time>1970-01-01T10:11:43.145Z</time>
    </trkpt>
    <trkpt lat="56.358236" lon="60.763969">
        <ele>304.0</ele>
        <time>1970-01-01T10:11:44.145Z</time>
    </trkpt>
    <trkpt lat="56.358228" lon="60.76395">
        <ele>304.0</ele>
        <time>1970-01-01T10:11:45.145Z</time>
    </trkpt>
    <trkpt lat="56.35822" lon="60.763942">
        <ele>304.0</ele>
        <time>1970-01-01T10:11:46.145Z</time>
    </trkpt>
    <trkpt lat="56.358209" lon="60.763933">
        <ele>305.0</ele>
        <time>1970-01-01T10:11:47.145Z</time>
    </trkpt>
    <trkpt lat="56.358201" lon="60.76393">
        <ele>305.0</ele>
        <time>1970-01-01T10:11:48.145Z</time>
    </trkpt>
    <trkpt lat="56.358191" lon="60.763918">
        <ele>305.0</ele>
        <time>1970-01-01T10:11:49.145Z</time>
    </trkpt>
    <trkpt lat="56.358186" lon="60.763899">
        <ele>305.0</ele>
        <time>1970-01-01T10:11:50.145Z</time>
    </trkpt>
    <trkpt lat="56.358183" lon="60.763884">
        <ele>305.0</ele>
        <time>1970-01-01T10:11:51.145Z</time>
    </trkpt>
    <trkpt lat="56.358169" lon="60.763861">
        <ele>305.0</ele>
        <time>1970-01-01T10:11:52.145Z</time>
    </trkpt>
    <trkpt lat="56.358155" lon="60.763846">
        <ele>305.0</ele>
        <time>1970-01-01T10:11:53.145Z</time>
    </trkpt>
    <trkpt lat="56.358147" lon="60.763835">
        <ele>304.0</ele>
        <time>1970-01-01T10:11:54.145Z</time>
    </trkpt>
    <trkpt lat="56.35814" lon="60.763825">
        <ele>304.0</ele>
        <time>1970-01-01T10:11:55.145Z</time>
    </trkpt>
    <trkpt lat="56.358125" lon="60.763799">
        <ele>304.0</ele>
        <time>1970-01-01T10:11:56.145Z</time>
    </trkpt>
    <trkpt lat="56.358114" lon="60.76378">
        <ele>304.0</ele>
        <time>1970-01-01T10:11:57.145Z</time>
    </trkpt>
    <trkpt lat="56.358102" lon="60.763766">
        <ele>304.0</ele>
        <time>1970-01-01T10:11:58.145Z</time>
    </trkpt>
    <trkpt lat="56.358096" lon="60.763748">
        <ele>304.0</ele>
        <time>1970-01-01T10:11:59.145Z</time>
    </trkpt>
    <trkpt lat="56.35809" lon="60.763732">
        <ele>304.0</ele>
        <time>1970-01-01T10:12:00.145Z</time>
    </trkpt>
    <trkpt lat="56.358084" lon="60.763713">
        <ele>304.0</ele>
        <time>1970-01-01T10:12:01.145Z</time>
    </trkpt>
    <trkpt lat="56.358073" lon="60.763683">
        <ele>304.0</ele>
        <time>1970-01-01T10:12:02.145Z</time>
    </trkpt>
    <trkpt lat="56.35807" lon="60.763671">
        <ele>304.0</ele>
        <time>1970-01-01T10:12:03.145Z</time>
    </trkpt>
    <trkpt lat="56.35806" lon="60.763643">
        <ele>304.0</ele>
        <time>1970-01-01T10:12:04.145Z</time>
    </trkpt>
    <trkpt lat="56.358049" lon="60.763624">
        <ele>304.0</ele>
        <time>1970-01-01T10:12:05.145Z</time>
    </trkpt>
    <trkpt lat="56.358043" lon="60.763607">
        <ele>304.0</ele>
        <time>1970-01-01T10:12:06.145Z</time>
    </trkpt>
    <trkpt lat="56.358035" lon="60.76358">
        <ele>304.0</ele>
        <time>1970-01-01T10:12:07.145Z</time>
    </trkpt>
    <trkpt lat="56.358025" lon="60.763561">
        <ele>304.0</ele>
        <time>1970-01-01T10:12:08.145Z</time>
    </trkpt>
    <trkpt lat="56.35801" lon="60.763533">
        <ele>304.0</ele>
        <time>1970-01-01T10:12:09.145Z</time>
    </trkpt>
    <trkpt lat="56.358002" lon="60.763515">
        <ele>304.0</ele>
        <time>1970-01-01T10:12:10.145Z</time>
    </trkpt>
    <trkpt lat="56.357984" lon="60.76347">
        <ele>303.0</ele>
        <time>1970-01-01T10:12:11.145Z</time>
    </trkpt>
    <trkpt lat="56.357981" lon="60.76346">
        <ele>303.0</ele>
        <time>1970-01-01T10:12:12.145Z</time>
    </trkpt>
    <trkpt lat="56.357957" lon="60.763424">
        <ele>303.0</ele>
        <time>1970-01-01T10:12:13.145Z</time>
    </trkpt>
    <trkpt lat="56.357938" lon="60.76339">
        <ele>303.0</ele>
        <time>1970-01-01T10:12:14.145Z</time>
    </trkpt>
    <trkpt lat="56.357926" lon="60.76337">
        <ele>303.0</ele>
        <time>1970-01-01T10:12:15.145Z</time>
    </trkpt>
    <trkpt lat="56.357914" lon="60.763343">
        <ele>303.0</ele>
        <time>1970-01-01T10:12:16.145Z</time>
    </trkpt>
    <trkpt lat="56.357908" lon="60.763324">
        <ele>303.0</ele>
        <time>1970-01-01T10:12:17.145Z</time>
    </trkpt>
    <trkpt lat="56.357893" lon="60.763271">
        <ele>302.0</ele>
        <time>1970-01-01T10:12:18.145Z</time>
    </trkpt>
    <trkpt lat="56.357885" lon="60.763256">
        <ele>302.0</ele>
        <time>1970-01-01T10:12:19.145Z</time>
    </trkpt>
    <trkpt lat="56.357861" lon="60.763216">
        <ele>302.0</ele>
        <time>1970-01-01T10:12:20.145Z</time>
    </trkpt>
    <trkpt lat="56.357848" lon="60.763195">
        <ele>302.0</ele>
        <time>1970-01-01T10:12:21.145Z</time>
    </trkpt>
    <trkpt lat="56.357821" lon="60.763146">
        <ele>301.0</ele>
        <time>1970-01-01T10:12:22.145Z</time>
    </trkpt>
    <trkpt lat="56.357796" lon="60.763109">
        <ele>301.0</ele>
        <time>1970-01-01T10:12:23.145Z</time>
    </trkpt>
    <trkpt lat="56.35777" lon="60.763071">
        <ele>301.0</ele>
        <time>1970-01-01T10:12:24.145Z</time>
    </trkpt>
    <trkpt lat="56.357743" lon="60.763049">
        <ele>301.0</ele>
        <time>1970-01-01T10:12:25.145Z</time>
    </trkpt>
    <trkpt lat="56.357718" lon="60.763025">
        <ele>301.0</ele>
        <time>1970-01-01T10:12:26.145Z</time>
    </trkpt>
    <trkpt lat="56.357707" lon="60.763011">
        <ele>301.0</ele>
        <time>1970-01-01T10:12:27.145Z</time>
    </trkpt>
    <trkpt lat="56.357681" lon="60.762967">
        <ele>300.0</ele>
        <time>1970-01-01T10:12:28.145Z</time>
    </trkpt>
    <trkpt lat="56.357655" lon="60.762926">
        <ele>300.0</ele>
        <time>1970-01-01T10:12:29.145Z</time>
    </trkpt>
    <trkpt lat="56.357645" lon="60.762914">
        <ele>300.0</ele>
        <time>1970-01-01T10:12:30.145Z</time>
    </trkpt>
    <trkpt lat="56.357614" lon="60.762878">
        <ele>300.0</ele>
        <time>1970-01-01T10:12:31.145Z</time>
    </trkpt>
    <trkpt lat="56.357601" lon="60.762864">
        <ele>300.0</ele>
        <time>1970-01-01T10:12:32.145Z</time>
    </trkpt>
    <trkpt lat="56.357569" lon="60.762825">
        <ele>300.0</ele>
        <time>1970-01-01T10:12:33.145Z</time>
    </trkpt>
    <trkpt lat="56.357558" lon="60.762816">
        <ele>300.0</ele>
        <time>1970-01-01T10:12:34.145Z</time>
    </trkpt>
    <trkpt lat="56.357526" lon="60.762783">
        <ele>299.0</ele>
        <time>1970-01-01T10:12:35.145Z</time>
    </trkpt>
    <trkpt lat="56.357514" lon="60.762764">
        <ele>299.0</ele>
        <time>1970-01-01T10:12:36.145Z</time>
    </trkpt>
    <trkpt lat="56.357488" lon="60.762722">
        <ele>299.0</ele>
        <time>1970-01-01T10:12:37.145Z</time>
    </trkpt>
    <trkpt lat="56.357477" lon="60.762712">
        <ele>299.0</ele>
        <time>1970-01-01T10:12:38.145Z</time>
    </trkpt>
    <trkpt lat="56.357444" lon="60.762678">
        <ele>299.0</ele>
        <time>1970-01-01T10:12:39.145Z</time>
    </trkpt>
    <trkpt lat="56.357415" lon="60.762641">
        <ele>299.0</ele>
        <time>1970-01-01T10:12:40.145Z</time>
    </trkpt>
    <trkpt lat="56.357387" lon="60.762622">
        <ele>298.0</ele>
        <time>1970-01-01T10:12:41.145Z</time>
    </trkpt>
    <trkpt lat="56.357375" lon="60.762609">
        <ele>298.0</ele>
        <time>1970-01-01T10:12:42.145Z</time>
    </trkpt>
    <trkpt lat="56.35735" lon="60.762572">
        <ele>298.0</ele>
        <time>1970-01-01T10:12:43.145Z</time>
    </trkpt>
    <trkpt lat="56.357339" lon="60.762555">
        <ele>298.0</ele>
        <time>1970-01-01T10:12:44.145Z</time>
    </trkpt>
    <trkpt lat="56.357311" lon="60.762508">
        <ele>298.0</ele>
        <time>1970-01-01T10:12:45.145Z</time>
    </trkpt>
    <trkpt lat="56.357295" lon="60.762469">
        <ele>298.0</ele>
        <time>1970-01-01T10:12:46.145Z</time>
    </trkpt>
    <trkpt lat="56.357284" lon="60.762445">
        <ele>298.0</ele>
        <time>1970-01-01T10:12:47.145Z</time>
    </trkpt>
    <trkpt lat="56.357271" lon="60.762428">
        <ele>298.0</ele>
        <time>1970-01-01T10:12:48.145Z</time>
    </trkpt>
    <trkpt lat="56.35725" lon="60.76239">
        <ele>298.0</ele>
        <time>1970-01-01T10:12:49.145Z</time>
    </trkpt>
    <trkpt lat="56.357243" lon="60.762373">
        <ele>298.0</ele>
        <time>1970-01-01T10:12:50.145Z</time>
    </trkpt>
    <trkpt lat="56.357215" lon="60.762332">
        <ele>298.0</ele>
        <time>1970-01-01T10:12:51.145Z</time>
    </trkpt>
    <trkpt lat="56.357205" lon="60.762321">
        <ele>298.0</ele>
        <time>1970-01-01T10:12:52.145Z</time>
    </trkpt>
    <trkpt lat="56.357172" lon="60.762286">
        <ele>297.0</ele>
        <time>1970-01-01T10:12:53.145Z</time>
    </trkpt>
    <trkpt lat="56.357145" lon="60.76227">
        <ele>297.0</ele>
        <time>1970-01-01T10:12:54.145Z</time>
    </trkpt>
    <trkpt lat="56.357133" lon="60.762264">
        <ele>297.0</ele>
        <time>1970-01-01T10:12:55.145Z</time>
    </trkpt>
    <trkpt lat="56.357096" lon="60.762246">
        <ele>297.0</ele>
        <time>1970-01-01T10:12:56.145Z</time>
    </trkpt>
    <trkpt lat="56.357083" lon="60.762238">
        <ele>297.0</ele>
        <time>1970-01-01T10:12:57.145Z</time>
    </trkpt>
    <trkpt lat="56.357045" lon="60.762219">
        <ele>296.0</ele>
        <time>1970-01-01T10:12:58.145Z</time>
    </trkpt>
    <trkpt lat="56.357032" lon="60.762217">
        <ele>296.0</ele>
        <time>1970-01-01T10:12:59.145Z</time>
    </trkpt>
    <trkpt lat="56.356992" lon="60.762216">
        <ele>296.0</ele>
        <time>1970-01-01T10:13:00.145Z</time>
    </trkpt>
    <trkpt lat="56.356961" lon="60.762205">
        <ele>296.0</ele>
        <time>1970-01-01T10:13:01.145Z</time>
    </trkpt>
    <trkpt lat="56.356944" lon="60.762201">
        <ele>296.0</ele>
        <time>1970-01-01T10:13:02.145Z</time>
    </trkpt>
    <trkpt lat="56.356907" lon="60.76219">
        <ele>296.0</ele>
        <time>1970-01-01T10:13:03.145Z</time>
    </trkpt>
    <trkpt lat="56.356869" lon="60.762184">
        <ele>295.0</ele>
        <time>1970-01-01T10:13:04.145Z</time>
    </trkpt>
    <trkpt lat="56.356839" lon="60.762178">
        <ele>295.0</ele>
        <time>1970-01-01T10:13:05.145Z</time>
    </trkpt>
    <trkpt lat="56.3568" lon="60.762162">
        <ele>295.0</ele>
        <time>1970-01-01T10:13:06.145Z</time>
    </trkpt>
    <trkpt lat="56.356784" lon="60.762152">
        <ele>295.0</ele>
        <time>1970-01-01T10:13:07.145Z</time>
    </trkpt>
    <trkpt lat="56.356744" lon="60.762135">
        <ele>295.0</ele>
        <time>1970-01-01T10:13:08.145Z</time>
    </trkpt>
    <trkpt lat="56.356714" lon="60.762129">
        <ele>295.0</ele>
        <time>1970-01-01T10:13:09.145Z</time>
    </trkpt>
    <trkpt lat="56.356679" lon="60.762116">
        <ele>292.0</ele>
        <time>1970-01-01T10:13:10.145Z</time>
    </trkpt>
    <trkpt lat="56.356652" lon="60.762109">
        <ele>292.0</ele>
        <time>1970-01-01T10:13:11.145Z</time>
    </trkpt>
    <trkpt lat="56.356615" lon="60.762098">
        <ele>292.0</ele>
        <time>1970-01-01T10:13:12.145Z</time>
    </trkpt>
    <trkpt lat="56.356584" lon="60.762089">
        <ele>292.0</ele>
        <time>1970-01-01T10:13:13.145Z</time>
    </trkpt>
    <trkpt lat="56.35655" lon="60.762073">
        <ele>292.0</ele>
        <time>1970-01-01T10:13:14.145Z</time>
    </trkpt>
    <trkpt lat="56.356514" lon="60.762061">
        <ele>292.0</ele>
        <time>1970-01-01T10:13:15.145Z</time>
    </trkpt>
    <trkpt lat="56.356475" lon="60.762045">
        <ele>291.0</ele>
        <time>1970-01-01T10:13:16.145Z</time>
    </trkpt>
    <trkpt lat="56.356446" lon="60.76203">
        <ele>291.0</ele>
        <time>1970-01-01T10:13:17.145Z</time>
    </trkpt>
    <trkpt lat="56.356412" lon="60.762013">
        <ele>291.0</ele>
        <time>1970-01-01T10:13:18.145Z</time>
    </trkpt>
    <trkpt lat="56.356368" lon="60.761993">
        <ele>291.0</ele>
        <time>1970-01-01T10:13:19.145Z</time>
    </trkpt>
    <trkpt lat="56.35634" lon="60.761982">
        <ele>291.0</ele>
        <time>1970-01-01T10:13:20.145Z</time>
    </trkpt>
    <trkpt lat="56.35631" lon="60.761971">
        <ele>291.0</ele>
        <time>1970-01-01T10:13:21.145Z</time>
    </trkpt>
    <trkpt lat="56.35628" lon="60.761953">
        <ele>291.0</ele>
        <time>1970-01-01T10:13:22.145Z</time>
    </trkpt>
    <trkpt lat="56.356251" lon="60.761933">
        <ele>290.0</ele>
        <time>1970-01-01T10:13:23.145Z</time>
    </trkpt>
    <trkpt lat="56.356237" lon="60.761926">
        <ele>290.0</ele>
        <time>1970-01-01T10:13:24.145Z</time>
    </trkpt>
    <trkpt lat="56.356199" lon="60.761909">
        <ele>290.0</ele>
        <time>1970-01-01T10:13:25.145Z</time>
    </trkpt>
    <trkpt lat="56.356161" lon="60.761883">
        <ele>290.0</ele>
        <time>1970-01-01T10:13:26.145Z</time>
    </trkpt>
    <trkpt lat="56.356118" lon="60.761854">
        <ele>291.0</ele>
        <time>1970-01-01T10:13:27.145Z</time>
    </trkpt>
    <trkpt lat="56.356075" lon="60.761852">
        <ele>291.0</ele>
        <time>1970-01-01T10:13:28.145Z</time>
    </trkpt>
    <trkpt lat="56.356037" lon="60.761845">
        <ele>291.0</ele>
        <time>1970-01-01T10:13:29.145Z</time>
    </trkpt>
    <trkpt lat="56.355993" lon="60.761832">
        <ele>291.0</ele>
        <time>1970-01-01T10:13:30.145Z</time>
    </trkpt>
    <trkpt lat="56.355947" lon="60.761815">
        <ele>291.0</ele>
        <time>1970-01-01T10:13:31.145Z</time>
    </trkpt>
    <trkpt lat="56.355904" lon="60.761802">
        <ele>291.0</ele>
        <time>1970-01-01T10:13:32.145Z</time>
    </trkpt>
    <trkpt lat="56.355842" lon="60.761805">
        <ele>291.0</ele>
        <time>1970-01-01T10:13:33.145Z</time>
    </trkpt>
    <trkpt lat="56.355791" lon="60.761828">
        <ele>292.0</ele>
        <time>1970-01-01T10:13:34.145Z</time>
    </trkpt>
    <trkpt lat="56.355749" lon="60.761855">
        <ele>292.0</ele>
        <time>1970-01-01T10:13:35.145Z</time>
    </trkpt>
    <trkpt lat="56.355732" lon="60.76187">
        <ele>292.0</ele>
        <time>1970-01-01T10:13:36.145Z</time>
    </trkpt>
    <trkpt lat="56.355692" lon="60.761908">
        <ele>292.0</ele>
        <time>1970-01-01T10:13:37.145Z</time>
    </trkpt>
    <trkpt lat="56.355673" lon="60.761918">
        <ele>292.0</ele>
        <time>1970-01-01T10:13:38.145Z</time>
    </trkpt>
    <trkpt lat="56.355629" lon="60.761932">
        <ele>293.0</ele>
        <time>1970-01-01T10:13:39.145Z</time>
    </trkpt>
    <trkpt lat="56.355595" lon="60.761938">
        <ele>293.0</ele>
        <time>1970-01-01T10:13:40.145Z</time>
    </trkpt>
    <trkpt lat="56.355546" lon="60.761919">
        <ele>294.0</ele>
        <time>1970-01-01T10:13:41.145Z</time>
    </trkpt>
    <trkpt lat="56.355526" lon="60.761916">
        <ele>294.0</ele>
        <time>1970-01-01T10:13:42.145Z</time>
    </trkpt>
    <trkpt lat="56.35548" lon="60.761913">
        <ele>294.0</ele>
        <time>1970-01-01T10:13:43.145Z</time>
    </trkpt>
    <trkpt lat="56.355438" lon="60.761894">
        <ele>295.0</ele>
        <time>1970-01-01T10:13:44.145Z</time>
    </trkpt>
    <trkpt lat="56.355422" lon="60.761889">
        <ele>295.0</ele>
        <time>1970-01-01T10:13:45.145Z</time>
    </trkpt>
    <trkpt lat="56.355385" lon="60.761869">
        <ele>295.0</ele>
        <time>1970-01-01T10:13:46.145Z</time>
    </trkpt>
    <trkpt lat="56.355351" lon="60.76187">
        <ele>296.0</ele>
        <time>1970-01-01T10:13:47.145Z</time>
    </trkpt>
    <trkpt lat="56.35532" lon="60.761867">
        <ele>296.0</ele>
        <time>1970-01-01T10:13:48.145Z</time>
    </trkpt>
    <trkpt lat="56.355283" lon="60.76185">
        <ele>296.0</ele>
        <time>1970-01-01T10:13:49.145Z</time>
    </trkpt>
    <trkpt lat="56.355253" lon="60.761842">
        <ele>296.0</ele>
        <time>1970-01-01T10:13:50.145Z</time>
    </trkpt>
    <trkpt lat="56.35521" lon="60.761828">
        <ele>296.0</ele>
        <time>1970-01-01T10:13:51.145Z</time>
    </trkpt>
    <trkpt lat="56.35517" lon="60.761797">
        <ele>297.0</ele>
        <time>1970-01-01T10:13:52.145Z</time>
    </trkpt>
    <trkpt lat="56.355119" lon="60.761786">
        <ele>297.0</ele>
        <time>1970-01-01T10:13:53.145Z</time>
    </trkpt>
    <trkpt lat="56.355084" lon="60.761774">
        <ele>295.0</ele>
        <time>1970-01-01T10:13:54.145Z</time>
    </trkpt>
    <trkpt lat="56.355041" lon="60.761765">
        <ele>296.0</ele>
        <time>1970-01-01T10:13:55.145Z</time>
    </trkpt>
    <trkpt lat="56.355004" lon="60.76176">
        <ele>296.0</ele>
        <time>1970-01-01T10:13:56.145Z</time>
    </trkpt>
    <trkpt lat="56.354971" lon="60.761764">
        <ele>296.0</ele>
        <time>1970-01-01T10:13:57.145Z</time>
    </trkpt>
    <trkpt lat="56.354924" lon="60.761758">
        <ele>296.0</ele>
        <time>1970-01-01T10:13:58.145Z</time>
    </trkpt>
    <trkpt lat="56.354889" lon="60.761764">
        <ele>296.0</ele>
        <time>1970-01-01T10:13:59.145Z</time>
    </trkpt>
    <trkpt lat="56.354838" lon="60.761777">
        <ele>298.0</ele>
        <time>1970-01-01T10:14:00.145Z</time>
    </trkpt>
    <trkpt lat="56.354797" lon="60.761785">
        <ele>298.0</ele>
        <time>1970-01-01T10:14:01.145Z</time>
    </trkpt>
    <trkpt lat="56.354753" lon="60.761802">
        <ele>298.0</ele>
        <time>1970-01-01T10:14:02.145Z</time>
    </trkpt>
    <trkpt lat="56.354699" lon="60.761809">
        <ele>298.0</ele>
        <time>1970-01-01T10:14:03.145Z</time>
    </trkpt>
    <trkpt lat="56.354643" lon="60.761835">
        <ele>298.0</ele>
        <time>1970-01-01T10:14:04.145Z</time>
    </trkpt>
    <trkpt lat="56.354593" lon="60.761855">
        <ele>298.0</ele>
        <time>1970-01-01T10:14:05.145Z</time>
    </trkpt>
    <trkpt lat="56.35456" lon="60.761889">
        <ele>298.0</ele>
        <time>1970-01-01T10:14:06.145Z</time>
    </trkpt>
    <trkpt lat="56.35453" lon="60.761887">
        <ele>298.0</ele>
        <time>1970-01-01T10:14:07.145Z</time>
    </trkpt>
    <trkpt lat="56.354492" lon="60.761899">
        <ele>298.0</ele>
        <time>1970-01-01T10:14:08.145Z</time>
    </trkpt>
    <trkpt lat="56.35446" lon="60.761923">
        <ele>298.0</ele>
        <time>1970-01-01T10:14:09.145Z</time>
    </trkpt>
    <trkpt lat="56.354425" lon="60.761929">
        <ele>298.0</ele>
        <time>1970-01-01T10:14:10.145Z</time>
    </trkpt>
    <trkpt lat="56.354412" lon="60.761935">
        <ele>298.0</ele>
        <time>1970-01-01T10:14:11.145Z</time>
    </trkpt>
    <trkpt lat="56.354379" lon="60.76195">
        <ele>300.0</ele>
        <time>1970-01-01T10:14:12.145Z</time>
    </trkpt>
    <trkpt lat="56.354364" lon="60.761956">
        <ele>300.0</ele>
        <time>1970-01-01T10:14:13.145Z</time>
    </trkpt>
    <trkpt lat="56.354326" lon="60.761974">
        <ele>300.0</ele>
        <time>1970-01-01T10:14:14.145Z</time>
    </trkpt>
    <trkpt lat="56.354314" lon="60.761978">
        <ele>300.0</ele>
        <time>1970-01-01T10:14:15.145Z</time>
    </trkpt>
    <trkpt lat="56.354283" lon="60.761993">
        <ele>300.0</ele>
        <time>1970-01-01T10:14:16.145Z</time>
    </trkpt>
    <trkpt lat="56.354273" lon="60.761993">
        <ele>300.0</ele>
        <time>1970-01-01T10:14:17.145Z</time>
    </trkpt>
    <trkpt lat="56.354238" lon="60.762002">
        <ele>300.0</ele>
        <time>1970-01-01T10:14:18.145Z</time>
    </trkpt>
    <trkpt lat="56.354227" lon="60.762005">
        <ele>300.0</ele>
        <time>1970-01-01T10:14:19.145Z</time>
    </trkpt>
    <trkpt lat="56.354195" lon="60.762017">
        <ele>300.0</ele>
        <time>1970-01-01T10:14:20.145Z</time>
    </trkpt>
    <trkpt lat="56.354183" lon="60.762025">
        <ele>300.0</ele>
        <time>1970-01-01T10:14:21.145Z</time>
    </trkpt>
    <trkpt lat="56.354162" lon="60.762041">
        <ele>300.0</ele>
        <time>1970-01-01T10:14:22.145Z</time>
    </trkpt>
    <trkpt lat="56.353934" lon="60.762268">
        <ele>301.0</ele>
        <time>1970-01-01T10:15:13.145Z</time>
    </trkpt>
    <trkpt lat="56.353934" lon="60.762268">
        <ele>301.0</ele>
        <time>1970-01-01T10:15:15.145Z</time>
    </trkpt>
    <trkpt lat="56.353934" lon="60.762268">
        <ele>301.0</ele>
        <time>1970-01-01T10:15:16.145Z</time>
    </trkpt>
    <trkpt lat="56.353934" lon="60.762268">
        <ele>301.0</ele>
        <time>1970-01-01T10:15:17.145Z</time>
    </trkpt>
    <trkpt lat="56.353934" lon="60.762268">
        <ele>301.0</ele>
        <time>1970-01-01T10:15:18.145Z</time>
    </trkpt>
    <trkpt lat="56.353934" lon="60.762268">
        <ele>301.0</ele>
        <time>1970-01-01T10:15:19.145Z</time>
    </trkpt>
    <trkpt lat="56.353934" lon="60.762268">
        <ele>301.0</ele>
        <time>1970-01-01T10:15:20.145Z</time>
    </trkpt>
    <trkpt lat="56.353935" lon="60.762264">
        <ele>301.0</ele>
        <time>1970-01-01T10:15:21.145Z</time>
    </trkpt>
    <trkpt lat="56.35392" lon="60.762273">
        <ele>301.0</ele>
        <time>1970-01-01T10:15:22.145Z</time>
    </trkpt>
    <trkpt lat="56.353908" lon="60.76228">
        <ele>301.0</ele>
        <time>1970-01-01T10:15:23.145Z</time>
    </trkpt>
    <trkpt lat="56.353904" lon="60.76229">
        <ele>301.0</ele>
        <time>1970-01-01T10:15:24.145Z</time>
    </trkpt>
    <trkpt lat="56.353886" lon="60.762311">
        <ele>302.0</ele>
        <time>1970-01-01T10:15:25.145Z</time>
    </trkpt>
    <trkpt lat="56.353874" lon="60.762325">
        <ele>302.0</ele>
        <time>1970-01-01T10:15:26.145Z</time>
    </trkpt>
    <trkpt lat="56.353844" lon="60.762356">
        <ele>302.0</ele>
        <time>1970-01-01T10:15:27.145Z</time>
    </trkpt>
    <trkpt lat="56.353838" lon="60.762366">
        <ele>302.0</ele>
        <time>1970-01-01T10:15:28.145Z</time>
    </trkpt>
    <trkpt lat="56.353811" lon="60.762403">
        <ele>302.0</ele>
        <time>1970-01-01T10:15:29.145Z</time>
    </trkpt>
    <trkpt lat="56.353788" lon="60.762445">
        <ele>302.0</ele>
        <time>1970-01-01T10:15:30.145Z</time>
    </trkpt>
    <trkpt lat="56.353757" lon="60.762485">
        <ele>303.0</ele>
        <time>1970-01-01T10:15:31.145Z</time>
    </trkpt>
    <trkpt lat="56.353732" lon="60.762527">
        <ele>303.0</ele>
        <time>1970-01-01T10:15:32.145Z</time>
    </trkpt>
    <trkpt lat="56.353707" lon="60.76259">
        <ele>303.0</ele>
        <time>1970-01-01T10:15:33.145Z</time>
    </trkpt>
    <trkpt lat="56.353671" lon="60.762647">
        <ele>305.0</ele>
        <time>1970-01-01T10:15:34.145Z</time>
    </trkpt>
    <trkpt lat="56.353638" lon="60.762705">
        <ele>304.0</ele>
        <time>1970-01-01T10:15:35.145Z</time>
    </trkpt>
    <trkpt lat="56.353614" lon="60.762759">
        <ele>304.0</ele>
        <time>1970-01-01T10:15:36.145Z</time>
    </trkpt>
    <trkpt lat="56.353598" lon="60.762802">
        <ele>304.0</ele>
        <time>1970-01-01T10:15:37.145Z</time>
    </trkpt>
    <trkpt lat="56.353571" lon="60.76286">
        <ele>306.0</ele>
        <time>1970-01-01T10:15:38.145Z</time>
    </trkpt>
    <trkpt lat="56.353551" lon="60.7629">
        <ele>305.0</ele>
        <time>1970-01-01T10:15:39.145Z</time>
    </trkpt>
    <trkpt lat="56.353525" lon="60.762934">
        <ele>305.0</ele>
        <time>1970-01-01T10:15:40.145Z</time>
    </trkpt>
    <trkpt lat="56.353508" lon="60.762974">
        <ele>305.0</ele>
        <time>1970-01-01T10:15:41.145Z</time>
    </trkpt>
    <trkpt lat="56.353442" lon="60.763083">
        <ele>306.0</ele>
        <time>1970-01-01T10:15:42.145Z</time>
    </trkpt>
    <trkpt lat="56.353411" lon="60.763122">
        <ele>306.0</ele>
        <time>1970-01-01T10:15:43.145Z</time>
    </trkpt>
    <trkpt lat="56.35338" lon="60.763177">
        <ele>307.0</ele>
        <time>1970-01-01T10:15:44.145Z</time>
    </trkpt>
    <trkpt lat="56.353357" lon="60.763213">
        <ele>306.0</ele>
        <time>1970-01-01T10:15:45.145Z</time>
    </trkpt>
    <trkpt lat="56.353337" lon="60.76326">
        <ele>306.0</ele>
        <time>1970-01-01T10:15:46.145Z</time>
    </trkpt>
    <trkpt lat="56.353303" lon="60.763309">
        <ele>306.0</ele>
        <time>1970-01-01T10:15:47.145Z</time>
    </trkpt>
    <trkpt lat="56.353273" lon="60.763353">
        <ele>308.0</ele>
        <time>1970-01-01T10:15:48.145Z</time>
    </trkpt>
    <trkpt lat="56.353244" lon="60.763392">
        <ele>307.0</ele>
        <time>1970-01-01T10:15:49.145Z</time>
    </trkpt>
    <trkpt lat="56.353211" lon="60.763448">
        <ele>307.0</ele>
        <time>1970-01-01T10:15:50.145Z</time>
    </trkpt>
    <trkpt lat="56.353184" lon="60.763485">
        <ele>307.0</ele>
        <time>1970-01-01T10:15:51.145Z</time>
    </trkpt>
    <trkpt lat="56.35315" lon="60.763526">
        <ele>308.0</ele>
        <time>1970-01-01T10:15:52.145Z</time>
    </trkpt>
    <trkpt lat="56.353124" lon="60.76356">
        <ele>308.0</ele>
        <time>1970-01-01T10:15:53.145Z</time>
    </trkpt>
    <trkpt lat="56.353087" lon="60.763622">
        <ele>308.0</ele>
        <time>1970-01-01T10:15:54.145Z</time>
    </trkpt>
    <trkpt lat="56.353054" lon="60.763672">
        <ele>309.0</ele>
        <time>1970-01-01T10:15:55.145Z</time>
    </trkpt>
    <trkpt lat="56.353025" lon="60.763705">
        <ele>309.0</ele>
        <time>1970-01-01T10:15:56.145Z</time>
    </trkpt>
    <trkpt lat="56.353002" lon="60.763742">
        <ele>309.0</ele>
        <time>1970-01-01T10:15:57.145Z</time>
    </trkpt>
    <trkpt lat="56.352977" lon="60.763782">
        <ele>309.0</ele>
        <time>1970-01-01T10:15:58.145Z</time>
    </trkpt>
    <trkpt lat="56.352941" lon="60.763821">
        <ele>309.0</ele>
        <time>1970-01-01T10:15:59.145Z</time>
    </trkpt>
    <trkpt lat="56.352917" lon="60.763858">
        <ele>310.0</ele>
        <time>1970-01-01T10:16:00.145Z</time>
    </trkpt>
    <trkpt lat="56.352888" lon="60.763898">
        <ele>310.0</ele>
        <time>1970-01-01T10:16:01.145Z</time>
    </trkpt>
    <trkpt lat="56.352862" lon="60.763928">
        <ele>310.0</ele>
        <time>1970-01-01T10:16:02.145Z</time>
    </trkpt>
    <trkpt lat="56.352856" lon="60.76394">
        <ele>310.0</ele>
        <time>1970-01-01T10:16:03.145Z</time>
    </trkpt>
    <trkpt lat="56.352842" lon="60.76399">
        <ele>310.0</ele>
        <time>1970-01-01T10:16:04.145Z</time>
    </trkpt>
    <trkpt lat="56.352812" lon="60.76404">
        <ele>311.0</ele>
        <time>1970-01-01T10:16:05.145Z</time>
    </trkpt>
    <trkpt lat="56.35277" lon="60.76409">
        <ele>310.0</ele>
        <time>1970-01-01T10:16:06.145Z</time>
    </trkpt>
    <trkpt lat="56.352743" lon="60.764153">
        <ele>310.0</ele>
        <time>1970-01-01T10:16:07.145Z</time>
    </trkpt>
    <trkpt lat="56.352714" lon="60.764216">
        <ele>312.0</ele>
        <time>1970-01-01T10:16:08.145Z</time>
    </trkpt>
    <trkpt lat="56.352677" lon="60.764284">
        <ele>311.0</ele>
        <time>1970-01-01T10:16:09.145Z</time>
    </trkpt>
    <trkpt lat="56.352659" lon="60.764327">
        <ele>311.0</ele>
        <time>1970-01-01T10:16:10.145Z</time>
    </trkpt>
    <trkpt lat="56.352631" lon="60.764372">
        <ele>312.0</ele>
        <time>1970-01-01T10:16:11.145Z</time>
    </trkpt>
    <trkpt lat="56.352583" lon="60.764427">
        <ele>312.0</ele>
        <time>1970-01-01T10:16:12.145Z</time>
    </trkpt>
    <trkpt lat="56.352557" lon="60.764474">
        <ele>312.0</ele>
        <time>1970-01-01T10:16:13.145Z</time>
    </trkpt>
    <trkpt lat="56.352532" lon="60.764523">
        <ele>313.0</ele>
        <time>1970-01-01T10:16:14.145Z</time>
    </trkpt>
    <trkpt lat="56.35249" lon="60.76461">
        <ele>312.0</ele>
        <time>1970-01-01T10:16:15.145Z</time>
    </trkpt>
    <trkpt lat="56.352455" lon="60.764671">
        <ele>312.0</ele>
        <time>1970-01-01T10:16:16.145Z</time>
    </trkpt>
    <trkpt lat="56.352411" lon="60.764753">
        <ele>312.0</ele>
        <time>1970-01-01T10:16:17.145Z</time>
    </trkpt>
    <trkpt lat="56.352363" lon="60.764823">
        <ele>312.0</ele>
        <time>1970-01-01T10:16:18.145Z</time>
    </trkpt>
    <trkpt lat="56.352341" lon="60.764888">
        <ele>313.0</ele>
        <time>1970-01-01T10:16:19.145Z</time>
    </trkpt>
    <trkpt lat="56.35231" lon="60.764953">
        <ele>312.0</ele>
        <time>1970-01-01T10:16:20.145Z</time>
    </trkpt>
    <trkpt lat="56.352274" lon="60.765016">
        <ele>312.0</ele>
        <time>1970-01-01T10:16:21.145Z</time>
    </trkpt>
    <trkpt lat="56.352247" lon="60.765098">
        <ele>313.0</ele>
        <time>1970-01-01T10:16:22.145Z</time>
    </trkpt>
    <trkpt lat="56.352224" lon="60.765158">
        <ele>313.0</ele>
        <time>1970-01-01T10:16:23.145Z</time>
    </trkpt>
    <trkpt lat="56.352206" lon="60.765235">
        <ele>313.0</ele>
        <time>1970-01-01T10:16:24.145Z</time>
    </trkpt>
    <trkpt lat="56.352179" lon="60.765311">
        <ele>313.0</ele>
        <time>1970-01-01T10:16:25.145Z</time>
    </trkpt>
    <trkpt lat="56.352146" lon="60.765405">
        <ele>314.0</ele>
        <time>1970-01-01T10:16:26.145Z</time>
    </trkpt>
    <trkpt lat="56.352115" lon="60.765484">
        <ele>313.0</ele>
        <time>1970-01-01T10:16:27.145Z</time>
    </trkpt>
    <trkpt lat="56.352083" lon="60.765552">
        <ele>313.0</ele>
        <time>1970-01-01T10:16:28.145Z</time>
    </trkpt>
    <trkpt lat="56.352051" lon="60.765612">
        <ele>314.0</ele>
        <time>1970-01-01T10:16:29.145Z</time>
    </trkpt>
    <trkpt lat="56.352019" lon="60.765682">
        <ele>313.0</ele>
        <time>1970-01-01T10:16:30.145Z</time>
    </trkpt>
    <trkpt lat="56.351983" lon="60.76574">
        <ele>314.0</ele>
        <time>1970-01-01T10:16:31.145Z</time>
    </trkpt>
    <trkpt lat="56.351951" lon="60.76582">
        <ele>314.0</ele>
        <time>1970-01-01T10:16:32.145Z</time>
    </trkpt>
    <trkpt lat="56.351913" lon="60.765891">
        <ele>314.0</ele>
        <time>1970-01-01T10:16:33.145Z</time>
    </trkpt>
    <trkpt lat="56.351872" lon="60.765969">
        <ele>315.0</ele>
        <time>1970-01-01T10:16:34.145Z</time>
    </trkpt>
    <trkpt lat="56.351837" lon="60.766048">
        <ele>314.0</ele>
        <time>1970-01-01T10:16:35.145Z</time>
    </trkpt>
    <trkpt lat="56.351813" lon="60.766116">
        <ele>315.0</ele>
        <time>1970-01-01T10:16:36.145Z</time>
    </trkpt>
    <trkpt lat="56.351786" lon="60.766164">
        <ele>315.0</ele>
        <time>1970-01-01T10:16:37.145Z</time>
    </trkpt>
    <trkpt lat="56.351767" lon="60.76621">
        <ele>315.0</ele>
        <time>1970-01-01T10:16:38.145Z</time>
    </trkpt>
    <trkpt lat="56.351749" lon="60.766261">
        <ele>317.0</ele>
        <time>1970-01-01T10:16:39.145Z</time>
    </trkpt>
    <trkpt lat="56.351723" lon="60.766284">
        <ele>316.0</ele>
        <time>1970-01-01T10:16:40.145Z</time>
    </trkpt>
    <trkpt lat="56.351709" lon="60.766308">
        <ele>316.0</ele>
        <time>1970-01-01T10:16:41.145Z</time>
    </trkpt>
    <trkpt lat="56.351677" lon="60.766362">
        <ele>316.0</ele>
        <time>1970-01-01T10:16:42.145Z</time>
    </trkpt>
    <trkpt lat="56.351652" lon="60.766408">
        <ele>316.0</ele>
        <time>1970-01-01T10:16:43.145Z</time>
    </trkpt>
    <trkpt lat="56.351641" lon="60.766419">
        <ele>316.0</ele>
        <time>1970-01-01T10:16:44.145Z</time>
    </trkpt>
    <trkpt lat="56.351615" lon="60.766455">
        <ele>316.0</ele>
        <time>1970-01-01T10:16:45.145Z</time>
    </trkpt>
    <trkpt lat="56.351601" lon="60.76651">
        <ele>316.0</ele>
        <time>1970-01-01T10:16:46.145Z</time>
    </trkpt>
    <trkpt lat="56.351571" lon="60.766549">
        <ele>316.0</ele>
        <time>1970-01-01T10:16:47.145Z</time>
    </trkpt>
    <trkpt lat="56.351539" lon="60.766595">
        <ele>316.0</ele>
        <time>1970-01-01T10:16:48.145Z</time>
    </trkpt>
    <trkpt lat="56.35152" lon="60.766651">
        <ele>316.0</ele>
        <time>1970-01-01T10:16:49.145Z</time>
    </trkpt>
    <trkpt lat="56.351496" lon="60.766709">
        <ele>316.0</ele>
        <time>1970-01-01T10:16:50.145Z</time>
    </trkpt>
    <trkpt lat="56.351458" lon="60.766774">
        <ele>316.0</ele>
        <time>1970-01-01T10:16:51.145Z</time>
    </trkpt>
    <trkpt lat="56.351434" lon="60.766852">
        <ele>316.0</ele>
        <time>1970-01-01T10:16:52.145Z</time>
    </trkpt>
    <trkpt lat="56.35141" lon="60.766919">
        <ele>316.0</ele>
        <time>1970-01-01T10:16:53.145Z</time>
    </trkpt>
    <trkpt lat="56.351384" lon="60.766985">
        <ele>317.0</ele>
        <time>1970-01-01T10:16:54.145Z</time>
    </trkpt>
    <trkpt lat="56.351365" lon="60.767037">
        <ele>315.0</ele>
        <time>1970-01-01T10:16:55.145Z</time>
    </trkpt>
    <trkpt lat="56.351358" lon="60.767073">
        <ele>315.0</ele>
        <time>1970-01-01T10:16:56.145Z</time>
    </trkpt>
    <trkpt lat="56.351333" lon="60.767146">
        <ele>317.0</ele>
        <time>1970-01-01T10:16:57.145Z</time>
    </trkpt>
    <trkpt lat="56.35131" lon="60.767195">
        <ele>317.0</ele>
        <time>1970-01-01T10:16:58.145Z</time>
    </trkpt>
    <trkpt lat="56.351288" lon="60.767251">
        <ele>317.0</ele>
        <time>1970-01-01T10:16:59.145Z</time>
    </trkpt>
    <trkpt lat="56.351273" lon="60.767295">
        <ele>318.0</ele>
        <time>1970-01-01T10:17:00.145Z</time>
    </trkpt>
    <trkpt lat="56.351263" lon="60.767323">
        <ele>316.0</ele>
        <time>1970-01-01T10:17:01.145Z</time>
    </trkpt>
    <trkpt lat="56.351247" lon="60.767392">
        <ele>316.0</ele>
        <time>1970-01-01T10:17:02.145Z</time>
    </trkpt>
    <trkpt lat="56.351241" lon="60.767415">
        <ele>316.0</ele>
        <time>1970-01-01T10:17:03.145Z</time>
    </trkpt>
    <trkpt lat="56.351224" lon="60.767471">
        <ele>318.0</ele>
        <time>1970-01-01T10:17:04.145Z</time>
    </trkpt>
    <trkpt lat="56.351218" lon="60.767491">
        <ele>318.0</ele>
        <time>1970-01-01T10:17:05.145Z</time>
    </trkpt>
    <trkpt lat="56.351203" lon="60.767554">
        <ele>318.0</ele>
        <time>1970-01-01T10:17:06.145Z</time>
    </trkpt>
    <trkpt lat="56.3512" lon="60.767574">
        <ele>318.0</ele>
        <time>1970-01-01T10:17:07.145Z</time>
    </trkpt>
    <trkpt lat="56.351196" lon="60.767591">
        <ele>318.0</ele>
        <time>1970-01-01T10:17:08.145Z</time>
    </trkpt>
    <trkpt lat="56.35119" lon="60.767602">
        <ele>318.0</ele>
        <time>1970-01-01T10:17:09.145Z</time>
    </trkpt>
    <trkpt lat="56.351184" lon="60.76763">
        <ele>319.0</ele>
        <time>1970-01-01T10:17:10.145Z</time>
    </trkpt>
    <trkpt lat="56.351178" lon="60.767646">
        <ele>319.0</ele>
        <time>1970-01-01T10:17:11.145Z</time>
    </trkpt>
    <trkpt lat="56.351155" lon="60.767811">
        <ele>319.0</ele>
        <time>1970-01-01T10:17:48.145Z</time>
    </trkpt>
    <trkpt lat="56.351155" lon="60.767811">
        <ele>319.0</ele>
        <time>1970-01-01T10:17:49.145Z</time>
    </trkpt>
    <trkpt lat="56.351155" lon="60.767811">
        <ele>319.0</ele>
        <time>1970-01-01T10:17:50.145Z</time>
    </trkpt>
    <trkpt lat="56.351155" lon="60.767811">
        <ele>319.0</ele>
        <time>1970-01-01T10:17:51.145Z</time>
    </trkpt>
    <trkpt lat="56.351156" lon="60.767817">
        <ele>319.0</ele>
        <time>1970-01-01T10:17:52.145Z</time>
    </trkpt>
    <trkpt lat="56.351156" lon="60.767825">
        <ele>319.0</ele>
        <time>1970-01-01T10:17:53.145Z</time>
    </trkpt>
    <trkpt lat="56.351156" lon="60.767838">
        <ele>319.0</ele>
        <time>1970-01-01T10:17:54.145Z</time>
    </trkpt>
    <trkpt lat="56.351159" lon="60.767849">
        <ele>319.0</ele>
        <time>1970-01-01T10:17:55.145Z</time>
    </trkpt>
    <trkpt lat="56.351154" lon="60.76787">
        <ele>319.0</ele>
        <time>1970-01-01T10:17:56.145Z</time>
    </trkpt>
    <trkpt lat="56.351153" lon="60.767871">
        <ele>319.0</ele>
        <time>1970-01-01T10:17:57.145Z</time>
    </trkpt>
    <trkpt lat="56.351148" lon="60.76788">
        <ele>319.0</ele>
        <time>1970-01-01T10:17:58.145Z</time>
    </trkpt>
    <trkpt lat="56.35114" lon="60.76789">
        <ele>319.0</ele>
        <time>1970-01-01T10:17:59.145Z</time>
    </trkpt>
    <trkpt lat="56.351134" lon="60.767938">
        <ele>319.0</ele>
        <time>1970-01-01T10:18:00.145Z</time>
    </trkpt>
    <trkpt lat="56.351129" lon="60.767995">
        <ele>320.0</ele>
        <time>1970-01-01T10:18:01.145Z</time>
    </trkpt>
    <trkpt lat="56.351122" lon="60.768057">
        <ele>320.0</ele>
        <time>1970-01-01T10:18:02.145Z</time>
    </trkpt>
    <trkpt lat="56.351118" lon="60.768144">
        <ele>321.0</ele>
        <time>1970-01-01T10:18:03.145Z</time>
    </trkpt>
    <trkpt lat="56.3511" lon="60.76822">
        <ele>321.0</ele>
        <time>1970-01-01T10:18:04.145Z</time>
    </trkpt>
    <trkpt lat="56.351115" lon="60.768278">
        <ele>321.0</ele>
        <time>1970-01-01T10:18:05.145Z</time>
    </trkpt>
    <trkpt lat="56.351096" lon="60.768369">
        <ele>322.0</ele>
        <time>1970-01-01T10:18:06.145Z</time>
    </trkpt>
    <trkpt lat="56.351093" lon="60.768466">
        <ele>322.0</ele>
        <time>1970-01-01T10:18:07.145Z</time>
    </trkpt>
    <trkpt lat="56.351075" lon="60.768536">
        <ele>321.0</ele>
        <time>1970-01-01T10:18:08.145Z</time>
    </trkpt>
    <trkpt lat="56.35107" lon="60.768609">
        <ele>321.0</ele>
        <time>1970-01-01T10:18:09.145Z</time>
    </trkpt>
    <trkpt lat="56.351072" lon="60.768665">
        <ele>322.0</ele>
        <time>1970-01-01T10:18:10.145Z</time>
    </trkpt>
    <trkpt lat="56.351074" lon="60.768726">
        <ele>322.0</ele>
        <time>1970-01-01T10:18:11.145Z</time>
    </trkpt>
    <trkpt lat="56.351079" lon="60.768795">
        <ele>322.0</ele>
        <time>1970-01-01T10:18:12.145Z</time>
    </trkpt>
    <trkpt lat="56.351071" lon="60.76889">
        <ele>324.0</ele>
        <time>1970-01-01T10:18:13.145Z</time>
    </trkpt>
    <trkpt lat="56.351063" lon="60.768959">
        <ele>324.0</ele>
        <time>1970-01-01T10:18:14.145Z</time>
    </trkpt>
    <trkpt lat="56.351055" lon="60.769043">
        <ele>325.0</ele>
        <time>1970-01-01T10:18:15.145Z</time>
    </trkpt>
    <trkpt lat="56.351043" lon="60.769131">
        <ele>325.0</ele>
        <time>1970-01-01T10:18:16.145Z</time>
    </trkpt>
    <trkpt lat="56.351048" lon="60.769236">
        <ele>326.0</ele>
        <time>1970-01-01T10:18:17.145Z</time>
    </trkpt>
    <trkpt lat="56.351046" lon="60.769326">
        <ele>326.0</ele>
        <time>1970-01-01T10:18:18.145Z</time>
    </trkpt>
    <trkpt lat="56.351047" lon="60.769451">
        <ele>327.0</ele>
        <time>1970-01-01T10:18:19.145Z</time>
    </trkpt>
    <trkpt lat="56.351052" lon="60.769544">
        <ele>327.0</ele>
        <time>1970-01-01T10:18:20.145Z</time>
    </trkpt>
    <trkpt lat="56.351059" lon="60.769641">
        <ele>327.0</ele>
        <time>1970-01-01T10:18:21.145Z</time>
    </trkpt>
    <trkpt lat="56.351049" lon="60.769712">
        <ele>327.0</ele>
        <time>1970-01-01T10:18:22.145Z</time>
    </trkpt>
    <trkpt lat="56.351053" lon="60.769766">
        <ele>327.0</ele>
        <time>1970-01-01T10:18:23.145Z</time>
    </trkpt>
    <trkpt lat="56.351029" lon="60.769841">
        <ele>327.0</ele>
        <time>1970-01-01T10:18:24.145Z</time>
    </trkpt>
    <trkpt lat="56.351009" lon="60.769916">
        <ele>327.0</ele>
        <time>1970-01-01T10:18:25.145Z</time>
    </trkpt>
    <trkpt lat="56.351011" lon="60.769985">
        <ele>327.0</ele>
        <time>1970-01-01T10:18:26.145Z</time>
    </trkpt>
    <trkpt lat="56.350983" lon="60.770122">
        <ele>326.0</ele>
        <time>1970-01-01T10:18:27.145Z</time>
    </trkpt>
    <trkpt lat="56.350969" lon="60.770181">
        <ele>326.0</ele>
        <time>1970-01-01T10:18:28.145Z</time>
    </trkpt>
    <trkpt lat="56.350954" lon="60.770243">
        <ele>326.0</ele>
        <time>1970-01-01T10:18:29.145Z</time>
    </trkpt>
    <trkpt lat="56.350922" lon="60.770331">
        <ele>326.0</ele>
        <time>1970-01-01T10:18:30.145Z</time>
    </trkpt>
    <trkpt lat="56.350894" lon="60.77041">
        <ele>326.0</ele>
        <time>1970-01-01T10:18:31.145Z</time>
    </trkpt>
    <trkpt lat="56.350887" lon="60.770509">
        <ele>326.0</ele>
        <time>1970-01-01T10:18:32.145Z</time>
    </trkpt>
    <trkpt lat="56.350862" lon="60.770565">
        <ele>326.0</ele>
        <time>1970-01-01T10:18:33.145Z</time>
    </trkpt>
    <trkpt lat="56.350854" lon="60.77063">
        <ele>326.0</ele>
        <time>1970-01-01T10:18:34.145Z</time>
    </trkpt>
    <trkpt lat="56.350847" lon="60.770653">
        <ele>326.0</ele>
        <time>1970-01-01T10:18:35.145Z</time>
    </trkpt>
    <trkpt lat="56.350827" lon="60.770716">
        <ele>328.0</ele>
        <time>1970-01-01T10:18:36.145Z</time>
    </trkpt>
    <trkpt lat="56.350817" lon="60.770773">
        <ele>328.0</ele>
        <time>1970-01-01T10:18:37.145Z</time>
    </trkpt>
    <trkpt lat="56.350813" lon="60.770852">
        <ele>328.0</ele>
        <time>1970-01-01T10:18:38.145Z</time>
    </trkpt>
    <trkpt lat="56.350823" lon="60.770913">
        <ele>329.0</ele>
        <time>1970-01-01T10:18:39.145Z</time>
    </trkpt>
    <trkpt lat="56.350827" lon="60.77094">
        <ele>329.0</ele>
        <time>1970-01-01T10:18:40.145Z</time>
    </trkpt>
    <trkpt lat="56.35084" lon="60.771008">
        <ele>329.0</ele>
        <time>1970-01-01T10:18:41.145Z</time>
    </trkpt>
    <trkpt lat="56.350841" lon="60.771089">
        <ele>331.0</ele>
        <time>1970-01-01T10:18:42.145Z</time>
    </trkpt>
    <trkpt lat="56.350855" lon="60.771149">
        <ele>331.0</ele>
        <time>1970-01-01T10:18:43.145Z</time>
    </trkpt>
    <trkpt lat="56.350855" lon="60.77123">
        <ele>333.0</ele>
        <time>1970-01-01T10:18:44.145Z</time>
    </trkpt>
    <trkpt lat="56.350858" lon="60.771312">
        <ele>333.0</ele>
        <time>1970-01-01T10:18:45.145Z</time>
    </trkpt>
    <trkpt lat="56.350853" lon="60.771405">
        <ele>335.0</ele>
        <time>1970-01-01T10:18:46.145Z</time>
    </trkpt>
    <trkpt lat="56.350858" lon="60.771468">
        <ele>335.0</ele>
        <time>1970-01-01T10:18:47.145Z</time>
    </trkpt>
    <trkpt lat="56.350856" lon="60.771524">
        <ele>335.0</ele>
        <time>1970-01-01T10:18:48.145Z</time>
    </trkpt>
    <trkpt lat="56.350848" lon="60.771584">
        <ele>336.0</ele>
        <time>1970-01-01T10:18:49.145Z</time>
    </trkpt>
    <trkpt lat="56.350852" lon="60.771639">
        <ele>336.0</ele>
        <time>1970-01-01T10:18:50.145Z</time>
    </trkpt>
    <trkpt lat="56.350856" lon="60.771708">
        <ele>336.0</ele>
        <time>1970-01-01T10:18:51.145Z</time>
    </trkpt>
    <trkpt lat="56.350865" lon="60.771758">
        <ele>338.0</ele>
        <time>1970-01-01T10:18:52.145Z</time>
    </trkpt>
    <trkpt lat="56.350875" lon="60.771785">
        <ele>338.0</ele>
        <time>1970-01-01T10:18:53.145Z</time>
    </trkpt>
    <trkpt lat="56.350898" lon="60.771851">
        <ele>338.0</ele>
        <time>1970-01-01T10:18:54.145Z</time>
    </trkpt>
    <trkpt lat="56.350906" lon="60.771918">
        <ele>339.0</ele>
        <time>1970-01-01T10:18:55.145Z</time>
    </trkpt>
    <trkpt lat="56.350912" lon="60.772">
        <ele>339.0</ele>
        <time>1970-01-01T10:18:56.145Z</time>
    </trkpt>
    <trkpt lat="56.350919" lon="60.772072">
        <ele>339.0</ele>
        <time>1970-01-01T10:18:57.145Z</time>
    </trkpt>
    <trkpt lat="56.350938" lon="60.772123">
        <ele>341.0</ele>
        <time>1970-01-01T10:18:58.145Z</time>
    </trkpt>
    <trkpt lat="56.350941" lon="60.772198">
        <ele>341.0</ele>
        <time>1970-01-01T10:18:59.145Z</time>
    </trkpt>
    <trkpt lat="56.350956" lon="60.772262">
        <ele>341.0</ele>
        <time>1970-01-01T10:19:00.145Z</time>
    </trkpt>
    <trkpt lat="56.350959" lon="60.772342">
        <ele>341.0</ele>
        <time>1970-01-01T10:19:01.145Z</time>
    </trkpt>
    <trkpt lat="56.350963" lon="60.772407">
        <ele>341.0</ele>
        <time>1970-01-01T10:19:02.145Z</time>
    </trkpt>
    <trkpt lat="56.35096" lon="60.772474">
        <ele>342.0</ele>
        <time>1970-01-01T10:19:03.145Z</time>
    </trkpt>
    <trkpt lat="56.350957" lon="60.772541">
        <ele>342.0</ele>
        <time>1970-01-01T10:19:04.145Z</time>
    </trkpt>
    <trkpt lat="56.3509606441063" lon="60.77256825609663">
        <ele>342.5</ele>
        <time>1970-01-01T10:19:04.645Z</time>
    </trkpt>
    <trkpt lat="56.350962" lon="60.772603">
        <ele>343.0</ele>
        <time>1970-01-01T10:19:05.145Z</time>
    </trkpt>
    <trkpt lat="56.350957" lon="60.772671">
        <ele>343.0</ele>
        <time>1970-01-01T10:19:06.145Z</time>
    </trkpt>
    <trkpt lat="56.350966" lon="60.772747">
        <ele>343.0</ele>
        <time>1970-01-01T10:19:07.145Z</time>
    </trkpt>
    <trkpt lat="56.350966" lon="60.772808">
        <ele>344.0</ele>
        <time>1970-01-01T10:19:08.145Z</time>
    </trkpt>
    <trkpt lat="56.350965" lon="60.772878">
        <ele>344.0</ele>
        <time>1970-01-01T10:19:09.145Z</time>
    </trkpt>
    <trkpt lat="56.350958" lon="60.772934">
        <ele>345.0</ele>
        <time>1970-01-01T10:19:10.145Z</time>
    </trkpt>
    <trkpt lat="56.350955" lon="60.772961">
        <ele>345.0</ele>
        <time>1970-01-01T10:19:11.145Z</time>
    </trkpt>
    <trkpt lat="56.350942" lon="60.773027">
        <ele>345.0</ele>
        <time>1970-01-01T10:19:12.145Z</time>
    </trkpt>
    <trkpt lat="56.35094" lon="60.773093">
        <ele>345.0</ele>
        <time>1970-01-01T10:19:13.145Z</time>
    </trkpt>
    <trkpt lat="56.350947" lon="60.773159">
        <ele>346.0</ele>
        <time>1970-01-01T10:19:14.145Z</time>
    </trkpt>
    <trkpt lat="56.350947" lon="60.77323">
        <ele>346.0</ele>
        <time>1970-01-01T10:19:15.145Z</time>
    </trkpt>
    <trkpt lat="56.35095" lon="60.773289">
        <ele>347.0</ele>
        <time>1970-01-01T10:19:16.145Z</time>
    </trkpt>
    <trkpt lat="56.350943" lon="60.77333">
        <ele>347.0</ele>
        <time>1970-01-01T10:19:17.145Z</time>
    </trkpt>
    <trkpt lat="56.350931" lon="60.773418">
        <ele>347.0</ele>
        <time>1970-01-01T10:19:18.145Z</time>
    </trkpt>
    <trkpt lat="56.350928" lon="60.773476">
        <ele>347.0</ele>
        <time>1970-01-01T10:19:19.145Z</time>
    </trkpt>
    <trkpt lat="56.350914" lon="60.773542">
        <ele>347.0</ele>
        <time>1970-01-01T10:19:20.145Z</time>
    </trkpt>
    <trkpt lat="56.350915" lon="60.773636">
        <ele>348.0</ele>
        <time>1970-01-01T10:19:21.145Z</time>
    </trkpt>
    <trkpt lat="56.350909" lon="60.773707">
        <ele>348.0</ele>
        <time>1970-01-01T10:19:22.145Z</time>
    </trkpt>
    <trkpt lat="56.3509" lon="60.773772">
        <ele>348.0</ele>
        <time>1970-01-01T10:19:23.145Z</time>
    </trkpt>
    <trkpt lat="56.35091" lon="60.773847">
        <ele>349.0</ele>
        <time>1970-01-01T10:19:24.145Z</time>
    </trkpt>
    <trkpt lat="56.350901" lon="60.773944">
        <ele>349.0</ele>
        <time>1970-01-01T10:19:25.145Z</time>
    </trkpt>
    <trkpt lat="56.350905" lon="60.774021">
        <ele>350.0</ele>
        <time>1970-01-01T10:19:27.145Z</time>
    </trkpt>
    <trkpt lat="56.350909" lon="60.774101">
        <ele>350.0</ele>
        <time>1970-01-01T10:19:28.145Z</time>
    </trkpt>
    <trkpt lat="56.3509" lon="60.774171">
        <ele>350.0</ele>
        <time>1970-01-01T10:19:29.145Z</time>
    </trkpt>
    <trkpt lat="56.350896" lon="60.774242">
        <ele>350.0</ele>
        <time>1970-01-01T10:19:30.145Z</time>
    </trkpt>
    <trkpt lat="56.350888" lon="60.774308">
        <ele>350.0</ele>
        <time>1970-01-01T10:19:31.145Z</time>
    </trkpt>
    <trkpt lat="56.350887" lon="60.774375">
        <ele>350.0</ele>
        <time>1970-01-01T10:19:32.145Z</time>
    </trkpt>
    <trkpt lat="56.350889" lon="60.77444">
        <ele>350.0</ele>
        <time>1970-01-01T10:19:33.145Z</time>
    </trkpt>
    <trkpt lat="56.350903" lon="60.774501">
        <ele>350.0</ele>
        <time>1970-01-01T10:19:34.145Z</time>
    </trkpt>
    <trkpt lat="56.350888" lon="60.774567">
        <ele>350.0</ele>
        <time>1970-01-01T10:19:35.145Z</time>
    </trkpt>
    <trkpt lat="56.350879" lon="60.77464">
        <ele>350.0</ele>
        <time>1970-01-01T10:19:36.145Z</time>
    </trkpt>
    <trkpt lat="56.350857" lon="60.774713">
        <ele>350.0</ele>
        <time>1970-01-01T10:19:37.145Z</time>
    </trkpt>
    <trkpt lat="56.350843" lon="60.774776">
        <ele>350.0</ele>
        <time>1970-01-01T10:19:38.145Z</time>
    </trkpt>
    <trkpt lat="56.35083" lon="60.774848">
        <ele>350.0</ele>
        <time>1970-01-01T10:19:39.145Z</time>
    </trkpt>
    <trkpt lat="56.350801" lon="60.774948">
        <ele>350.0</ele>
        <time>1970-01-01T10:19:40.145Z</time>
    </trkpt>
    <trkpt lat="56.350792" lon="60.775008">
        <ele>350.0</ele>
        <time>1970-01-01T10:19:41.145Z</time>
    </trkpt>
    <trkpt lat="56.350784" lon="60.775079">
        <ele>350.0</ele>
        <time>1970-01-01T10:19:42.145Z</time>
    </trkpt>
    <trkpt lat="56.350768" lon="60.775158">
        <ele>350.0</ele>
        <time>1970-01-01T10:19:43.145Z</time>
    </trkpt>
    <trkpt lat="56.350748" lon="60.775256">
        <ele>350.0</ele>
        <time>1970-01-01T10:19:44.145Z</time>
    </trkpt>
    <trkpt lat="56.350737" lon="60.775339">
        <ele>351.0</ele>
        <time>1970-01-01T10:19:45.145Z</time>
    </trkpt>
    <trkpt lat="56.350735" lon="60.775389">
        <ele>351.0</ele>
        <time>1970-01-01T10:19:46.145Z</time>
    </trkpt>
    <trkpt lat="56.350742" lon="60.775475">
        <ele>351.0</ele>
        <time>1970-01-01T10:19:47.145Z</time>
    </trkpt>
    <trkpt lat="56.350739" lon="60.775541">
        <ele>352.0</ele>
        <time>1970-01-01T10:19:48.145Z</time>
    </trkpt>
    <trkpt lat="56.35073" lon="60.77561">
        <ele>352.0</ele>
        <time>1970-01-01T10:19:49.145Z</time>
    </trkpt>
    <trkpt lat="56.350717" lon="60.775693">
        <ele>353.0</ele>
        <time>1970-01-01T10:19:50.145Z</time>
    </trkpt>
    <trkpt lat="56.350722" lon="60.77581">
        <ele>353.0</ele>
        <time>1970-01-01T10:19:51.145Z</time>
    </trkpt>
    <trkpt lat="56.35072" lon="60.775896">
        <ele>353.0</ele>
        <time>1970-01-01T10:19:52.145Z</time>
    </trkpt>
    <trkpt lat="56.350715" lon="60.775976">
        <ele>353.0</ele>
        <time>1970-01-01T10:19:53.145Z</time>
    </trkpt>
    <trkpt lat="56.35072" lon="60.776073">
        <ele>354.0</ele>
        <time>1970-01-01T10:19:54.145Z</time>
    </trkpt>
    <trkpt lat="56.350727" lon="60.776195">
        <ele>354.0</ele>
        <time>1970-01-01T10:19:55.145Z</time>
    </trkpt>
    <trkpt lat="56.350729" lon="60.776254">
        <ele>355.0</ele>
        <time>1970-01-01T10:19:56.145Z</time>
    </trkpt>
    <trkpt lat="56.350736" lon="60.776324">
        <ele>355.0</ele>
        <time>1970-01-01T10:19:57.145Z</time>
    </trkpt>
    <trkpt lat="56.35076" lon="60.776423">
        <ele>356.0</ele>
        <time>1970-01-01T10:19:58.145Z</time>
    </trkpt>
    <trkpt lat="56.350753" lon="60.776646">
        <ele>356.0</ele>
        <time>1970-01-01T10:19:59.145Z</time>
    </trkpt>
    <trkpt lat="56.350751" lon="60.77674">
        <ele>357.0</ele>
        <time>1970-01-01T10:20:00.145Z</time>
    </trkpt>
    <trkpt lat="56.350744" lon="60.776849">
        <ele>357.0</ele>
        <time>1970-01-01T10:20:01.145Z</time>
    </trkpt>
    <trkpt lat="56.350732" lon="60.776932">
        <ele>359.0</ele>
        <time>1970-01-01T10:20:02.145Z</time>
    </trkpt>
    <trkpt lat="56.350719" lon="60.777012">
        <ele>359.0</ele>
        <time>1970-01-01T10:20:03.145Z</time>
    </trkpt>
    <trkpt lat="56.350709" lon="60.777071">
        <ele>360.0</ele>
        <time>1970-01-01T10:20:04.145Z</time>
    </trkpt>
    <trkpt lat="56.350702" lon="60.777142">
        <ele>360.0</ele>
        <time>1970-01-01T10:20:05.145Z</time>
    </trkpt>
    <trkpt lat="56.3507" lon="60.777206">
        <ele>360.0</ele>
        <time>1970-01-01T10:20:06.145Z</time>
    </trkpt>
    <trkpt lat="56.350695" lon="60.777275">
        <ele>360.0</ele>
        <time>1970-01-01T10:20:07.145Z</time>
    </trkpt>
    <trkpt lat="56.350677" lon="60.777353">
        <ele>360.0</ele>
        <time>1970-01-01T10:20:08.145Z</time>
    </trkpt>
    <trkpt lat="56.350672" lon="60.777432">
        <ele>361.0</ele>
        <time>1970-01-01T10:20:09.145Z</time>
    </trkpt>
    <trkpt lat="56.350671" lon="60.777504">
        <ele>361.0</ele>
        <time>1970-01-01T10:20:10.145Z</time>
    </trkpt>
    <trkpt lat="56.350672" lon="60.777592">
        <ele>362.0</ele>
        <time>1970-01-01T10:20:11.145Z</time>
    </trkpt>
    <trkpt lat="56.350675" lon="60.777676">
        <ele>362.0</ele>
        <time>1970-01-01T10:20:12.145Z</time>
    </trkpt>
    <trkpt lat="56.350683" lon="60.777749">
        <ele>363.0</ele>
        <time>1970-01-01T10:20:13.145Z</time>
    </trkpt>
    <trkpt lat="56.35067" lon="60.777848">
        <ele>363.0</ele>
        <time>1970-01-01T10:20:14.145Z</time>
    </trkpt>
    <trkpt lat="56.350667" lon="60.777879">
        <ele>363.0</ele>
        <time>1970-01-01T10:20:15.145Z</time>
    </trkpt>
    <trkpt lat="56.350657" lon="60.777952">
        <ele>363.0</ele>
        <time>1970-01-01T10:20:16.145Z</time>
    </trkpt>
    <trkpt lat="56.350655" lon="60.777975">
        <ele>363.0</ele>
        <time>1970-01-01T10:20:17.145Z</time>
    </trkpt>
    <trkpt lat="56.350651" lon="60.778042">
        <ele>363.0</ele>
        <time>1970-01-01T10:20:18.145Z</time>
    </trkpt>
    <trkpt lat="56.350629" lon="60.778104">
        <ele>363.0</ele>
        <time>1970-01-01T10:20:19.145Z</time>
    </trkpt>
    <trkpt lat="56.350611" lon="60.778159">
        <ele>363.0</ele>
        <time>1970-01-01T10:20:20.145Z</time>
    </trkpt>
    <trkpt lat="56.350605" lon="60.77818">
        <ele>363.0</ele>
        <time>1970-01-01T10:20:21.145Z</time>
    </trkpt>
    <trkpt lat="56.350592" lon="60.778233">
        <ele>363.0</ele>
        <time>1970-01-01T10:20:22.145Z</time>
    </trkpt>
    <trkpt lat="56.350585" lon="60.778259">
        <ele>363.0</ele>
        <time>1970-01-01T10:20:23.145Z</time>
    </trkpt>
    <trkpt lat="56.350574" lon="60.778316">
        <ele>363.0</ele>
        <time>1970-01-01T10:20:24.145Z</time>
    </trkpt>
    <trkpt lat="56.350561" lon="60.778369">
        <ele>363.0</ele>
        <time>1970-01-01T10:20:25.145Z</time>
    </trkpt>
    <trkpt lat="56.350555" lon="60.778391">
        <ele>363.0</ele>
        <time>1970-01-01T10:20:26.145Z</time>
    </trkpt>
    <trkpt lat="56.350541" lon="60.778458">
        <ele>363.0</ele>
        <time>1970-01-01T10:20:27.145Z</time>
    </trkpt>
    <trkpt lat="56.350534" lon="60.778474">
        <ele>363.0</ele>
        <time>1970-01-01T10:20:28.145Z</time>
    </trkpt>
    <trkpt lat="56.350509" lon="60.778515">
        <ele>363.0</ele>
        <time>1970-01-01T10:20:29.145Z</time>
    </trkpt>
    <trkpt lat="56.350498" lon="60.778561">
        <ele>363.0</ele>
        <time>1970-01-01T10:20:30.145Z</time>
    </trkpt>
    <trkpt lat="56.350495" lon="60.778611">
        <ele>363.0</ele>
        <time>1970-01-01T10:20:31.145Z</time>
    </trkpt>
    <trkpt lat="56.350476" lon="60.778664">
        <ele>363.0</ele>
        <time>1970-01-01T10:20:32.145Z</time>
    </trkpt>
    <trkpt lat="56.35047" lon="60.778715">
        <ele>363.0</ele>
        <time>1970-01-01T10:20:33.145Z</time>
    </trkpt>
    <trkpt lat="56.350465" lon="60.778772">
        <ele>363.0</ele>
        <time>1970-01-01T10:20:34.145Z</time>
    </trkpt>
    <trkpt lat="56.350462" lon="60.778799">
        <ele>363.0</ele>
        <time>1970-01-01T10:20:35.145Z</time>
    </trkpt>
    <trkpt lat="56.350444" lon="60.778865">
        <ele>363.0</ele>
        <time>1970-01-01T10:20:36.145Z</time>
    </trkpt>
    <trkpt lat="56.350433" lon="60.778915">
        <ele>363.0</ele>
        <time>1970-01-01T10:20:37.145Z</time>
    </trkpt>
    <trkpt lat="56.350445" lon="60.77896">
        <ele>364.0</ele>
        <time>1970-01-01T10:20:38.145Z</time>
    </trkpt>
    <trkpt lat="56.350443" lon="60.778983">
        <ele>364.0</ele>
        <time>1970-01-01T10:20:39.145Z</time>
    </trkpt>
    <trkpt lat="56.350441" lon="60.779055">
        <ele>364.0</ele>
        <time>1970-01-01T10:20:40.145Z</time>
    </trkpt>
    <trkpt lat="56.350435" lon="60.779107">
        <ele>364.0</ele>
        <time>1970-01-01T10:20:41.145Z</time>
    </trkpt>
    <trkpt lat="56.350436" lon="60.779161">
        <ele>364.0</ele>
        <time>1970-01-01T10:20:42.145Z</time>
    </trkpt>
    <trkpt lat="56.350437" lon="60.779176">
        <ele>364.0</ele>
        <time>1970-01-01T10:20:43.145Z</time>
    </trkpt>
    <trkpt lat="56.350434" lon="60.779231">
        <ele>364.0</ele>
        <time>1970-01-01T10:20:44.145Z</time>
    </trkpt>
    <trkpt lat="56.350417" lon="60.77929">
        <ele>365.0</ele>
        <time>1970-01-01T10:20:45.145Z</time>
    </trkpt>
    <trkpt lat="56.350422" lon="60.779314">
        <ele>365.0</ele>
        <time>1970-01-01T10:20:46.145Z</time>
    </trkpt>
    <trkpt lat="56.350425" lon="60.779379">
        <ele>365.0</ele>
        <time>1970-01-01T10:20:47.145Z</time>
    </trkpt>
    <trkpt lat="56.350428" lon="60.779404">
        <ele>365.0</ele>
        <time>1970-01-01T10:20:48.145Z</time>
    </trkpt>
    <trkpt lat="56.350422" lon="60.779472">
        <ele>366.0</ele>
        <time>1970-01-01T10:20:49.145Z</time>
    </trkpt>
    <trkpt lat="56.350418" lon="60.779524">
        <ele>366.0</ele>
        <time>1970-01-01T10:20:50.145Z</time>
    </trkpt>
    <trkpt lat="56.350419" lon="60.779549">
        <ele>366.0</ele>
        <time>1970-01-01T10:20:51.145Z</time>
    </trkpt>
    <trkpt lat="56.35042" lon="60.779616">
        <ele>366.0</ele>
        <time>1970-01-01T10:20:52.145Z</time>
    </trkpt>
    <trkpt lat="56.350412" lon="60.77967">
        <ele>365.0</ele>
        <time>1970-01-01T10:20:53.145Z</time>
    </trkpt>
    <trkpt lat="56.350407" lon="60.779692">
        <ele>365.0</ele>
        <time>1970-01-01T10:20:54.145Z</time>
    </trkpt>
    <trkpt lat="56.3504" lon="60.779752">
        <ele>365.0</ele>
        <time>1970-01-01T10:20:55.145Z</time>
    </trkpt>
    <trkpt lat="56.350392" lon="60.779771">
        <ele>365.0</ele>
        <time>1970-01-01T10:20:56.145Z</time>
    </trkpt>
    <trkpt lat="56.350368" lon="60.77983">
        <ele>366.0</ele>
        <time>1970-01-01T10:20:57.145Z</time>
    </trkpt>
    <trkpt lat="56.35036" lon="60.779892">
        <ele>366.0</ele>
        <time>1970-01-01T10:20:58.145Z</time>
    </trkpt>
    <trkpt lat="56.350357" lon="60.779919">
        <ele>366.0</ele>
        <time>1970-01-01T10:20:59.145Z</time>
    </trkpt>
    <trkpt lat="56.350347" lon="60.779975">
        <ele>366.0</ele>
        <time>1970-01-01T10:21:00.145Z</time>
    </trkpt>
    <trkpt lat="56.350343" lon="60.780028">
        <ele>366.0</ele>
        <time>1970-01-01T10:21:01.145Z</time>
    </trkpt>
    <trkpt lat="56.350343" lon="60.780059">
        <ele>366.0</ele>
        <time>1970-01-01T10:21:02.145Z</time>
    </trkpt>
    <trkpt lat="56.350346" lon="60.780125">
        <ele>366.0</ele>
        <time>1970-01-01T10:21:03.145Z</time>
    </trkpt>
    <trkpt lat="56.35035" lon="60.780147">
        <ele>366.0</ele>
        <time>1970-01-01T10:21:04.145Z</time>
    </trkpt>
    <trkpt lat="56.350351" lon="60.780211">
        <ele>366.0</ele>
        <time>1970-01-01T10:21:05.145Z</time>
    </trkpt>
    <trkpt lat="56.350358" lon="60.78023">
        <ele>366.0</ele>
        <time>1970-01-01T10:21:06.145Z</time>
    </trkpt>
    <trkpt lat="56.350369" lon="60.780293">
        <ele>366.0</ele>
        <time>1970-01-01T10:21:07.145Z</time>
    </trkpt>
    <trkpt lat="56.350383" lon="60.780367">
        <ele>366.0</ele>
        <time>1970-01-01T10:21:08.145Z</time>
    </trkpt>
    <trkpt lat="56.350384" lon="60.780382">
        <ele>366.0</ele>
        <time>1970-01-01T10:21:09.145Z</time>
    </trkpt>
    <trkpt lat="56.350389" lon="60.780444">
        <ele>366.0</ele>
        <time>1970-01-01T10:21:10.145Z</time>
    </trkpt>
    <trkpt lat="56.3504" lon="60.780507">
        <ele>366.0</ele>
        <time>1970-01-01T10:21:11.145Z</time>
    </trkpt>
    <trkpt lat="56.350408" lon="60.780537">
        <ele>366.0</ele>
        <time>1970-01-01T10:21:12.145Z</time>
    </trkpt>
    <trkpt lat="56.350428" lon="60.780583">
        <ele>367.0</ele>
        <time>1970-01-01T10:21:13.145Z</time>
    </trkpt>
    <trkpt lat="56.350434" lon="60.780611">
        <ele>367.0</ele>
        <time>1970-01-01T10:21:14.145Z</time>
    </trkpt>
    <trkpt lat="56.350447" lon="60.78067">
        <ele>367.0</ele>
        <time>1970-01-01T10:21:15.145Z</time>
    </trkpt>
    <trkpt lat="56.350454" lon="60.780702">
        <ele>367.0</ele>
        <time>1970-01-01T10:21:16.145Z</time>
    </trkpt>
    <trkpt lat="56.350472" lon="60.780774">
        <ele>367.0</ele>
        <time>1970-01-01T10:21:17.145Z</time>
    </trkpt>
    <trkpt lat="56.350483" lon="60.780821">
        <ele>367.0</ele>
        <time>1970-01-01T10:21:18.145Z</time>
    </trkpt>
    <trkpt lat="56.350498" lon="60.78087">
        <ele>366.0</ele>
        <time>1970-01-01T10:21:19.145Z</time>
    </trkpt>
    <trkpt lat="56.350511" lon="60.780924">
        <ele>366.0</ele>
        <time>1970-01-01T10:21:20.145Z</time>
    </trkpt>
    <trkpt lat="56.350526" lon="60.780968">
        <ele>366.0</ele>
        <time>1970-01-01T10:21:21.145Z</time>
    </trkpt>
    <trkpt lat="56.350532" lon="60.78098">
        <ele>366.0</ele>
        <time>1970-01-01T10:21:22.145Z</time>
    </trkpt>
    <trkpt lat="56.35055" lon="60.78103">
        <ele>365.0</ele>
        <time>1970-01-01T10:21:23.145Z</time>
    </trkpt>
    <trkpt lat="56.35055" lon="60.781046">
        <ele>365.0</ele>
        <time>1970-01-01T10:21:24.145Z</time>
    </trkpt>
    <trkpt lat="56.350548" lon="60.781108">
        <ele>365.0</ele>
        <time>1970-01-01T10:21:25.145Z</time>
    </trkpt>
    <trkpt lat="56.350559" lon="60.781157">
        <ele>365.0</ele>
        <time>1970-01-01T10:21:26.145Z</time>
    </trkpt>
    <trkpt lat="56.350568" lon="60.781205">
        <ele>365.0</ele>
        <time>1970-01-01T10:21:27.145Z</time>
    </trkpt>
    <trkpt lat="56.350582" lon="60.781255">
        <ele>365.0</ele>
        <time>1970-01-01T10:21:28.145Z</time>
    </trkpt>
    <trkpt lat="56.350587" lon="60.781274">
        <ele>365.0</ele>
        <time>1970-01-01T10:21:29.145Z</time>
    </trkpt>
    <trkpt lat="56.350601" lon="60.781322">
        <ele>365.0</ele>
        <time>1970-01-01T10:21:30.145Z</time>
    </trkpt>
    <trkpt lat="56.350607" lon="60.781338">
        <ele>366.0</ele>
        <time>1970-01-01T10:21:31.145Z</time>
    </trkpt>
    <trkpt lat="56.350618" lon="60.781384">
        <ele>365.0</ele>
        <time>1970-01-01T10:21:32.145Z</time>
    </trkpt>
    <trkpt lat="56.350617" lon="60.781402">
        <ele>365.0</ele>
        <time>1970-01-01T10:21:33.145Z</time>
    </trkpt>
    <trkpt lat="56.350628" lon="60.78143">
        <ele>365.0</ele>
        <time>1970-01-01T10:21:34.145Z</time>
    </trkpt>
    <trkpt lat="56.350636" lon="60.781447">
        <ele>365.0</ele>
        <time>1970-01-01T10:21:35.145Z</time>
    </trkpt>
    <trkpt lat="56.350653" lon="60.781497">
        <ele>365.0</ele>
        <time>1970-01-01T10:21:36.145Z</time>
    </trkpt>
    <trkpt lat="56.350659" lon="60.781511">
        <ele>365.0</ele>
        <time>1970-01-01T10:21:37.145Z</time>
    </trkpt>
    <trkpt lat="56.350675" lon="60.781556">
        <ele>364.0</ele>
        <time>1970-01-01T10:21:38.145Z</time>
    </trkpt>
    <trkpt lat="56.350689" lon="60.781599">
        <ele>364.0</ele>
        <time>1970-01-01T10:21:39.145Z</time>
    </trkpt>
    <trkpt lat="56.350695" lon="60.781612">
        <ele>364.0</ele>
        <time>1970-01-01T10:21:40.145Z</time>
    </trkpt>
    <trkpt lat="56.350708" lon="60.781654">
        <ele>365.0</ele>
        <time>1970-01-01T10:21:41.145Z</time>
    </trkpt>
    <trkpt lat="56.350716" lon="60.781664">
        <ele>365.0</ele>
        <time>1970-01-01T10:21:42.145Z</time>
    </trkpt>
    <trkpt lat="56.350733" lon="60.781703">
        <ele>364.0</ele>
        <time>1970-01-01T10:21:43.145Z</time>
    </trkpt>
    <trkpt lat="56.350735" lon="60.781721">
        <ele>364.0</ele>
        <time>1970-01-01T10:21:44.145Z</time>
    </trkpt>
    <trkpt lat="56.350751" lon="60.781767">
        <ele>364.0</ele>
        <time>1970-01-01T10:21:45.145Z</time>
    </trkpt>
    <trkpt lat="56.350756" lon="60.781779">
        <ele>364.0</ele>
        <time>1970-01-01T10:21:46.145Z</time>
    </trkpt>
    <trkpt lat="56.350774" lon="60.781818">
        <ele>364.0</ele>
        <time>1970-01-01T10:21:47.145Z</time>
    </trkpt>
    <trkpt lat="56.350779" lon="60.78183">
        <ele>364.0</ele>
        <time>1970-01-01T10:21:48.145Z</time>
    </trkpt>
    <trkpt lat="56.350802" lon="60.781866">
        <ele>365.0</ele>
        <time>1970-01-01T10:21:49.145Z</time>
    </trkpt>
    <trkpt lat="56.350808" lon="60.781877">
        <ele>365.0</ele>
        <time>1970-01-01T10:21:50.145Z</time>
    </trkpt>
    <trkpt lat="56.350831" lon="60.781917">
        <ele>365.0</ele>
        <time>1970-01-01T10:21:51.145Z</time>
    </trkpt>
    <trkpt lat="56.350842" lon="60.781939">
        <ele>365.0</ele>
        <time>1970-01-01T10:21:52.145Z</time>
    </trkpt>
    <trkpt lat="56.350851" lon="60.781969">
        <ele>365.0</ele>
        <time>1970-01-01T10:21:53.145Z</time>
    </trkpt>
    <trkpt lat="56.35086" lon="60.781975">
        <ele>365.0</ele>
        <time>1970-01-01T10:21:54.145Z</time>
    </trkpt>
    <trkpt lat="56.350882" lon="60.782008">
        <ele>365.0</ele>
        <time>1970-01-01T10:21:55.145Z</time>
    </trkpt>
    <trkpt lat="56.350888" lon="60.782024">
        <ele>365.0</ele>
        <time>1970-01-01T10:21:56.145Z</time>
    </trkpt>
    <trkpt lat="56.350904" lon="60.782063">
        <ele>365.0</ele>
        <time>1970-01-01T10:21:57.145Z</time>
    </trkpt>
    <trkpt lat="56.350912" lon="60.78208">
        <ele>365.0</ele>
        <time>1970-01-01T10:21:58.145Z</time>
    </trkpt>
    <trkpt lat="56.35093" lon="60.782128">
        <ele>365.0</ele>
        <time>1970-01-01T10:21:59.145Z</time>
    </trkpt>
    <trkpt lat="56.350935" lon="60.782144">
        <ele>365.0</ele>
        <time>1970-01-01T10:22:00.145Z</time>
    </trkpt>
    <trkpt lat="56.350942" lon="60.782194">
        <ele>365.0</ele>
        <time>1970-01-01T10:22:01.145Z</time>
    </trkpt>
    <trkpt lat="56.35095" lon="60.782215">
        <ele>365.0</ele>
        <time>1970-01-01T10:22:02.145Z</time>
    </trkpt>
    <trkpt lat="56.35096" lon="60.782244">
        <ele>365.0</ele>
        <time>1970-01-01T10:22:03.145Z</time>
    </trkpt>
    <trkpt lat="56.35097" lon="60.782272">
        <ele>365.0</ele>
        <time>1970-01-01T10:22:04.145Z</time>
    </trkpt>
    <trkpt lat="56.350995" lon="60.782315">
        <ele>366.0</ele>
        <time>1970-01-01T10:22:05.145Z</time>
    </trkpt>
    <trkpt lat="56.351004" lon="60.782325">
        <ele>366.0</ele>
        <time>1970-01-01T10:22:06.145Z</time>
    </trkpt>
    <trkpt lat="56.351032" lon="60.782362">
        <ele>366.0</ele>
        <time>1970-01-01T10:22:07.145Z</time>
    </trkpt>
    <trkpt lat="56.351044" lon="60.782393">
        <ele>366.0</ele>
        <time>1970-01-01T10:22:08.145Z</time>
    </trkpt>
    <trkpt lat="56.351054" lon="60.782412">
        <ele>366.0</ele>
        <time>1970-01-01T10:22:09.145Z</time>
    </trkpt>
    <trkpt lat="56.351063" lon="60.782425">
        <ele>366.0</ele>
        <time>1970-01-01T10:22:10.145Z</time>
    </trkpt>
    <trkpt lat="56.351072" lon="60.782437">
        <ele>366.0</ele>
        <time>1970-01-01T10:22:11.145Z</time>
    </trkpt>
    <trkpt lat="56.351091" lon="60.782463">
        <ele>366.0</ele>
        <time>1970-01-01T10:22:12.145Z</time>
    </trkpt>
    <trkpt lat="56.351106" lon="60.782491">
        <ele>366.0</ele>
        <time>1970-01-01T10:22:13.145Z</time>
    </trkpt>
    <trkpt lat="56.351116" lon="60.782507">
        <ele>366.0</ele>
        <time>1970-01-01T10:22:14.145Z</time>
    </trkpt>
    <trkpt lat="56.351124" lon="60.782521">
        <ele>366.0</ele>
        <time>1970-01-01T10:22:15.145Z</time>
    </trkpt>
    <trkpt lat="56.351152" lon="60.782553">
        <ele>365.0</ele>
        <time>1970-01-01T10:22:16.145Z</time>
    </trkpt>
    <trkpt lat="56.351158" lon="60.782572">
        <ele>365.0</ele>
        <time>1970-01-01T10:22:17.145Z</time>
    </trkpt>
    <trkpt lat="56.351168" lon="60.782593">
        <ele>365.0</ele>
        <time>1970-01-01T10:22:18.145Z</time>
    </trkpt>
    <trkpt lat="56.351177" lon="60.782608">
        <ele>366.0</ele>
        <time>1970-01-01T10:22:19.145Z</time>
    </trkpt>
    <trkpt lat="56.351201" lon="60.782644">
        <ele>366.0</ele>
        <time>1970-01-01T10:22:20.145Z</time>
    </trkpt>
    <trkpt lat="56.351213" lon="60.782659">
        <ele>366.0</ele>
        <time>1970-01-01T10:22:21.145Z</time>
    </trkpt>
    <trkpt lat="56.351228" lon="60.782681">
        <ele>366.0</ele>
        <time>1970-01-01T10:22:22.145Z</time>
    </trkpt>
    <trkpt lat="56.351247" lon="60.782718">
        <ele>366.0</ele>
        <time>1970-01-01T10:22:23.145Z</time>
    </trkpt>
    <trkpt lat="56.351264" lon="60.782737">
        <ele>365.0</ele>
        <time>1970-01-01T10:22:24.145Z</time>
    </trkpt>
    <trkpt lat="56.35127" lon="60.782754">
        <ele>365.0</ele>
        <time>1970-01-01T10:22:25.145Z</time>
    </trkpt>
    <trkpt lat="56.351276" lon="60.782767">
        <ele>365.0</ele>
        <time>1970-01-01T10:22:26.145Z</time>
    </trkpt>
    <trkpt lat="56.351295" lon="60.782801">
        <ele>365.0</ele>
        <time>1970-01-01T10:22:27.145Z</time>
    </trkpt>
    <trkpt lat="56.351303" lon="60.782808">
        <ele>365.0</ele>
        <time>1970-01-01T10:22:28.145Z</time>
    </trkpt>
    <trkpt lat="56.351329" lon="60.782845">
        <ele>365.0</ele>
        <time>1970-01-01T10:22:29.145Z</time>
    </trkpt>
    <trkpt lat="56.351341" lon="60.782868">
        <ele>365.0</ele>
        <time>1970-01-01T10:22:30.145Z</time>
    </trkpt>
    <trkpt lat="56.351355" lon="60.782878">
        <ele>365.0</ele>
        <time>1970-01-01T10:22:31.145Z</time>
    </trkpt>
    <trkpt lat="56.351365" lon="60.782897">
        <ele>364.0</ele>
        <time>1970-01-01T10:22:32.145Z</time>
    </trkpt>
    <trkpt lat="56.351379" lon="60.782922">
        <ele>364.0</ele>
        <time>1970-01-01T10:22:33.145Z</time>
    </trkpt>
    <trkpt lat="56.351392" lon="60.782944">
        <ele>364.0</ele>
        <time>1970-01-01T10:22:34.145Z</time>
    </trkpt>
    <trkpt lat="56.351405" lon="60.782957">
        <ele>364.0</ele>
        <time>1970-01-01T10:22:35.145Z</time>
    </trkpt>
    <trkpt lat="56.351411" lon="60.782964">
        <ele>364.0</ele>
        <time>1970-01-01T10:22:36.145Z</time>
    </trkpt>
    <trkpt lat="56.351436" lon="60.782994">
        <ele>364.0</ele>
        <time>1970-01-01T10:22:37.145Z</time>
    </trkpt>
    <trkpt lat="56.351447" lon="60.783007">
        <ele>364.0</ele>
        <time>1970-01-01T10:22:38.145Z</time>
    </trkpt>
    <trkpt lat="56.35146" lon="60.783028">
        <ele>364.0</ele>
        <time>1970-01-01T10:22:39.145Z</time>
    </trkpt>
    <trkpt lat="56.351461" lon="60.783171">
        <ele>363.0</ele>
        <time>1970-01-01T10:23:22.145Z</time>
    </trkpt>
    <trkpt lat="56.351461" lon="60.783171">
        <ele>363.0</ele>
        <time>1970-01-01T10:23:23.145Z</time>
    </trkpt>
    <trkpt lat="56.351461" lon="60.783171">
        <ele>363.0</ele>
        <time>1970-01-01T10:23:24.145Z</time>
    </trkpt>
    <trkpt lat="56.351465" lon="60.783178">
        <ele>363.0</ele>
        <time>1970-01-01T10:23:25.145Z</time>
    </trkpt>
    <trkpt lat="56.351465" lon="60.783178">
        <ele>363.0</ele>
        <time>1970-01-01T10:23:26.145Z</time>
    </trkpt>
    <trkpt lat="56.351467" lon="60.783177">
        <ele>363.0</ele>
        <time>1970-01-01T10:23:27.145Z</time>
    </trkpt>
    <trkpt lat="56.351472" lon="60.783176">
        <ele>363.0</ele>
        <time>1970-01-01T10:23:28.145Z</time>
    </trkpt>
    <trkpt lat="56.351475" lon="60.783181">
        <ele>363.0</ele>
        <time>1970-01-01T10:23:29.145Z</time>
    </trkpt>
    <trkpt lat="56.351477" lon="60.783185">
        <ele>363.0</ele>
        <time>1970-01-01T10:23:30.145Z</time>
    </trkpt>
    <trkpt lat="56.351484" lon="60.783193">
        <ele>363.0</ele>
        <time>1970-01-01T10:23:31.145Z</time>
    </trkpt>
    <trkpt lat="56.351486" lon="60.783201">
        <ele>363.0</ele>
        <time>1970-01-01T10:23:32.145Z</time>
    </trkpt>
    <trkpt lat="56.351494" lon="60.78321">
        <ele>363.0</ele>
        <time>1970-01-01T10:23:33.145Z</time>
    </trkpt>
    <trkpt lat="56.351504" lon="60.783225">
        <ele>363.0</ele>
        <time>1970-01-01T10:23:34.145Z</time>
    </trkpt>
    <trkpt lat="56.351513" lon="60.783232">
        <ele>363.0</ele>
        <time>1970-01-01T10:23:35.145Z</time>
    </trkpt>
    <trkpt lat="56.351522" lon="60.783245">
        <ele>362.0</ele>
        <time>1970-01-01T10:23:36.145Z</time>
    </trkpt>
    <trkpt lat="56.351531" lon="60.783261">
        <ele>362.0</ele>
        <time>1970-01-01T10:23:37.145Z</time>
    </trkpt>
    <trkpt lat="56.351539" lon="60.783276">
        <ele>362.0</ele>
        <time>1970-01-01T10:23:39.145Z</time>
    </trkpt>
    <trkpt lat="56.351545" lon="60.783282">
        <ele>362.0</ele>
        <time>1970-01-01T10:23:40.145Z</time>
    </trkpt>
    <trkpt lat="56.351555" lon="60.783301">
        <ele>362.0</ele>
        <time>1970-01-01T10:23:41.145Z</time>
    </trkpt>
    <trkpt lat="56.351562" lon="60.783307">
        <ele>362.0</ele>
        <time>1970-01-01T10:23:42.145Z</time>
    </trkpt>
    <trkpt lat="56.351568" lon="60.783314">
        <ele>362.0</ele>
        <time>1970-01-01T10:23:43.145Z</time>
    </trkpt>
    <trkpt lat="56.351585" lon="60.783339">
        <ele>362.0</ele>
        <time>1970-01-01T10:23:44.145Z</time>
    </trkpt>
    <trkpt lat="56.351596" lon="60.78336">
        <ele>362.0</ele>
        <time>1970-01-01T10:23:45.145Z</time>
    </trkpt>
    <trkpt lat="56.351605" lon="60.783378">
        <ele>362.0</ele>
        <time>1970-01-01T10:23:46.145Z</time>
    </trkpt>
    <trkpt lat="56.351613" lon="60.783391">
        <ele>362.0</ele>
        <time>1970-01-01T10:23:47.145Z</time>
    </trkpt>
    <trkpt lat="56.351618" lon="60.783406">
        <ele>361.0</ele>
        <time>1970-01-01T10:23:48.145Z</time>
    </trkpt>
    <trkpt lat="56.351626" lon="60.783422">
        <ele>361.0</ele>
        <time>1970-01-01T10:23:49.145Z</time>
    </trkpt>
    <trkpt lat="56.351631" lon="60.783443">
        <ele>361.0</ele>
        <time>1970-01-01T10:23:50.145Z</time>
    </trkpt>
    <trkpt lat="56.351639" lon="60.783455">
        <ele>361.0</ele>
        <time>1970-01-01T10:23:51.145Z</time>
    </trkpt>
    <trkpt lat="56.351646" lon="60.783464">
        <ele>361.0</ele>
        <time>1970-01-01T10:23:52.145Z</time>
    </trkpt>
    <trkpt lat="56.351664" lon="60.783485">
        <ele>360.0</ele>
        <time>1970-01-01T10:23:53.145Z</time>
    </trkpt>
    <trkpt lat="56.351667" lon="60.783504">
        <ele>360.0</ele>
        <time>1970-01-01T10:23:54.145Z</time>
    </trkpt>
    <trkpt lat="56.351673" lon="60.783516">
        <ele>360.0</ele>
        <time>1970-01-01T10:23:55.145Z</time>
    </trkpt>
    <trkpt lat="56.351675" lon="60.783519">
        <ele>360.0</ele>
        <time>1970-01-01T10:23:56.145Z</time>
    </trkpt>
    <trkpt lat="56.351671" lon="60.783516">
        <ele>360.0</ele>
        <time>1970-01-01T10:23:57.145Z</time>
    </trkpt>
    <trkpt lat="56.351664" lon="60.783512">
        <ele>360.0</ele>
        <time>1970-01-01T10:23:58.145Z</time>
    </trkpt>
    <trkpt lat="56.351672" lon="60.78352">
        <ele>360.0</ele>
        <time>1970-01-01T10:23:59.145Z</time>
    </trkpt>
    <trkpt lat="56.351682" lon="60.783536">
        <ele>360.0</ele>
        <time>1970-01-01T10:24:00.145Z</time>
    </trkpt>
    <trkpt lat="56.351689" lon="60.783548">
        <ele>360.0</ele>
        <time>1970-01-01T10:24:01.145Z</time>
    </trkpt>
    <trkpt lat="56.351701" lon="60.783571">
        <ele>360.0</ele>
        <time>1970-01-01T10:24:02.145Z</time>
    </trkpt>
    <trkpt lat="56.351709" lon="60.783588">
        <ele>360.0</ele>
        <time>1970-01-01T10:24:03.145Z</time>
    </trkpt>
    <trkpt lat="56.351721" lon="60.783608">
        <ele>360.0</ele>
        <time>1970-01-01T10:24:04.145Z</time>
    </trkpt>
    <trkpt lat="56.351733" lon="60.783636">
        <ele>360.0</ele>
        <time>1970-01-01T10:24:05.145Z</time>
    </trkpt>
    <trkpt lat="56.351737" lon="60.783649">
        <ele>360.0</ele>
        <time>1970-01-01T10:24:06.145Z</time>
    </trkpt>
    <trkpt lat="56.351741" lon="60.783661">
        <ele>360.0</ele>
        <time>1970-01-01T10:24:07.145Z</time>
    </trkpt>
    <trkpt lat="56.351755" lon="60.783692">
        <ele>359.0</ele>
        <time>1970-01-01T10:24:08.145Z</time>
    </trkpt>
    <trkpt lat="56.351766" lon="60.783705">
        <ele>359.0</ele>
        <time>1970-01-01T10:24:09.145Z</time>
    </trkpt>
    <trkpt lat="56.351777" lon="60.783725">
        <ele>359.0</ele>
        <time>1970-01-01T10:24:10.145Z</time>
    </trkpt>
    <trkpt lat="56.351782" lon="60.783729">
        <ele>359.0</ele>
        <time>1970-01-01T10:24:11.145Z</time>
    </trkpt>
    <trkpt lat="56.351794" lon="60.783751">
        <ele>358.0</ele>
        <time>1970-01-01T10:24:12.145Z</time>
    </trkpt>
    <trkpt lat="56.351801" lon="60.783769">
        <ele>358.0</ele>
        <time>1970-01-01T10:24:13.145Z</time>
    </trkpt>
    <trkpt lat="56.351811" lon="60.783784">
        <ele>358.0</ele>
        <time>1970-01-01T10:24:14.145Z</time>
    </trkpt>
    <trkpt lat="56.351819" lon="60.783791">
        <ele>358.0</ele>
        <time>1970-01-01T10:24:15.145Z</time>
    </trkpt>
    <trkpt lat="56.351827" lon="60.78381">
        <ele>358.0</ele>
        <time>1970-01-01T10:24:16.145Z</time>
    </trkpt>
    <trkpt lat="56.35184" lon="60.783831">
        <ele>358.0</ele>
        <time>1970-01-01T10:24:17.145Z</time>
    </trkpt>
    <trkpt lat="56.351842" lon="60.783853">
        <ele>358.0</ele>
        <time>1970-01-01T10:24:18.145Z</time>
    </trkpt>
    <trkpt lat="56.351853" lon="60.783871">
        <ele>358.0</ele>
        <time>1970-01-01T10:24:19.145Z</time>
    </trkpt>
    <trkpt lat="56.351865" lon="60.783881">
        <ele>358.0</ele>
        <time>1970-01-01T10:24:20.145Z</time>
    </trkpt>
    <trkpt lat="56.351869" lon="60.783897">
        <ele>358.0</ele>
        <time>1970-01-01T10:24:21.145Z</time>
    </trkpt>
    <trkpt lat="56.351876" lon="60.783905">
        <ele>358.0</ele>
        <time>1970-01-01T10:24:22.145Z</time>
    </trkpt>
    <trkpt lat="56.35189" lon="60.783923">
        <ele>357.0</ele>
        <time>1970-01-01T10:24:23.145Z</time>
    </trkpt>
    <trkpt lat="56.351894" lon="60.783935">
        <ele>357.0</ele>
        <time>1970-01-01T10:24:24.145Z</time>
    </trkpt>
    <trkpt lat="56.351899" lon="60.783948">
        <ele>357.0</ele>
        <time>1970-01-01T10:24:25.145Z</time>
    </trkpt>
    <trkpt lat="56.351913" lon="60.783978">
        <ele>357.0</ele>
        <time>1970-01-01T10:24:26.145Z</time>
    </trkpt>
    <trkpt lat="56.351923" lon="60.783988">
        <ele>357.0</ele>
        <time>1970-01-01T10:24:27.145Z</time>
    </trkpt>
    <trkpt lat="56.351929" lon="60.783998">
        <ele>357.0</ele>
        <time>1970-01-01T10:24:28.145Z</time>
    </trkpt>
    <trkpt lat="56.351938" lon="60.78402">
        <ele>357.0</ele>
        <time>1970-01-01T10:24:29.145Z</time>
    </trkpt>
    <trkpt lat="56.351946" lon="60.784027">
        <ele>357.0</ele>
        <time>1970-01-01T10:24:30.145Z</time>
    </trkpt>
    <trkpt lat="56.351966" lon="60.784059">
        <ele>357.0</ele>
        <time>1970-01-01T10:24:31.145Z</time>
    </trkpt>
    <trkpt lat="56.351977" lon="60.784073">
        <ele>357.0</ele>
        <time>1970-01-01T10:24:32.145Z</time>
    </trkpt>
    <trkpt lat="56.351983" lon="60.784089">
        <ele>357.0</ele>
        <time>1970-01-01T10:24:33.145Z</time>
    </trkpt>
    <trkpt lat="56.351988" lon="60.784102">
        <ele>356.0</ele>
        <time>1970-01-01T10:24:34.145Z</time>
    </trkpt>
    <trkpt lat="56.351998" lon="60.784121">
        <ele>356.0</ele>
        <time>1970-01-01T10:24:35.145Z</time>
    </trkpt>
    <trkpt lat="56.352006" lon="60.784131">
        <ele>356.0</ele>
        <time>1970-01-01T10:24:36.145Z</time>
    </trkpt>
    <trkpt lat="56.352013" lon="60.784147">
        <ele>356.0</ele>
        <time>1970-01-01T10:24:37.145Z</time>
    </trkpt>
    <trkpt lat="56.352025" lon="60.784166">
        <ele>356.0</ele>
        <time>1970-01-01T10:24:38.145Z</time>
    </trkpt>
    <trkpt lat="56.352036" lon="60.784175">
        <ele>356.0</ele>
        <time>1970-01-01T10:24:39.145Z</time>
    </trkpt>
    <trkpt lat="56.352047" lon="60.784189">
        <ele>356.0</ele>
        <time>1970-01-01T10:24:40.145Z</time>
    </trkpt>
    <trkpt lat="56.35206" lon="60.784206">
        <ele>356.0</ele>
        <time>1970-01-01T10:24:41.145Z</time>
    </trkpt>
    <trkpt lat="56.352066" lon="60.784218">
        <ele>356.0</ele>
        <time>1970-01-01T10:24:42.145Z</time>
    </trkpt>
    <trkpt lat="56.352072" lon="60.78423">
        <ele>356.0</ele>
        <time>1970-01-01T10:24:43.145Z</time>
    </trkpt>
    <trkpt lat="56.352086" lon="60.784259">
        <ele>356.0</ele>
        <time>1970-01-01T10:24:44.145Z</time>
    </trkpt>
    <trkpt lat="56.352094" lon="60.784274">
        <ele>355.0</ele>
        <time>1970-01-01T10:24:45.145Z</time>
    </trkpt>
    <trkpt lat="56.352108" lon="60.78429">
        <ele>355.0</ele>
        <time>1970-01-01T10:24:46.145Z</time>
    </trkpt>
    <trkpt lat="56.352119" lon="60.7843">
        <ele>355.0</ele>
        <time>1970-01-01T10:24:47.145Z</time>
    </trkpt>
    <trkpt lat="56.352129" lon="60.7843">
        <ele>355.0</ele>
        <time>1970-01-01T10:24:48.145Z</time>
    </trkpt>
    <trkpt lat="56.352134" lon="60.784312">
        <ele>355.0</ele>
        <time>1970-01-01T10:24:49.145Z</time>
    </trkpt>
    <trkpt lat="56.352147" lon="60.784325">
        <ele>355.0</ele>
        <time>1970-01-01T10:24:51.145Z</time>
    </trkpt>
    <trkpt lat="56.352158" lon="60.784341">
        <ele>355.0</ele>
        <time>1970-01-01T10:24:52.145Z</time>
    </trkpt>
    <trkpt lat="56.352165" lon="60.78435">
        <ele>355.0</ele>
        <time>1970-01-01T10:24:53.145Z</time>
    </trkpt>
    <trkpt lat="56.352179" lon="60.78436">
        <ele>355.0</ele>
        <time>1970-01-01T10:24:54.145Z</time>
    </trkpt>
    <trkpt lat="56.352187" lon="60.784369">
        <ele>355.0</ele>
        <time>1970-01-01T10:24:55.145Z</time>
    </trkpt>
    <trkpt lat="56.352196" lon="60.784381">
        <ele>355.0</ele>
        <time>1970-01-01T10:24:56.145Z</time>
    </trkpt>
    <trkpt lat="56.352213" lon="60.784398">
        <ele>355.0</ele>
        <time>1970-01-01T10:24:57.145Z</time>
    </trkpt>
    <trkpt lat="56.352235" lon="60.784406">
        <ele>355.0</ele>
        <time>1970-01-01T10:24:58.145Z</time>
    </trkpt>
    <trkpt lat="56.352239" lon="60.784409">
        <ele>355.0</ele>
        <time>1970-01-01T10:24:59.145Z</time>
    </trkpt>
    <trkpt lat="56.352253" lon="60.784416">
        <ele>355.0</ele>
        <time>1970-01-01T10:25:00.145Z</time>
    </trkpt>
    <trkpt lat="56.352267" lon="60.784423">
        <ele>355.0</ele>
        <time>1970-01-01T10:25:01.145Z</time>
    </trkpt>
    <trkpt lat="56.352275" lon="60.784428">
        <ele>355.0</ele>
        <time>1970-01-01T10:25:02.145Z</time>
    </trkpt>
    <trkpt lat="56.352283" lon="60.784432">
        <ele>355.0</ele>
        <time>1970-01-01T10:25:03.145Z</time>
    </trkpt>
    <trkpt lat="56.352306" lon="60.78444">
        <ele>354.0</ele>
        <time>1970-01-01T10:25:04.145Z</time>
    </trkpt>
    <trkpt lat="56.352313" lon="60.784438">
        <ele>354.0</ele>
        <time>1970-01-01T10:25:05.145Z</time>
    </trkpt>
    <trkpt lat="56.352327" lon="60.784444">
        <ele>355.0</ele>
        <time>1970-01-01T10:25:06.145Z</time>
    </trkpt>
    <trkpt lat="56.352338" lon="60.784446">
        <ele>355.0</ele>
        <time>1970-01-01T10:25:07.145Z</time>
    </trkpt>
    <trkpt lat="56.352347" lon="60.784451">
        <ele>355.0</ele>
        <time>1970-01-01T10:25:08.145Z</time>
    </trkpt>
    <trkpt lat="56.352356" lon="60.784456">
        <ele>355.0</ele>
        <time>1970-01-01T10:25:09.145Z</time>
    </trkpt>
    <trkpt lat="56.352377" lon="60.784464">
        <ele>355.0</ele>
        <time>1970-01-01T10:25:10.145Z</time>
    </trkpt>
    <trkpt lat="56.352391" lon="60.784465">
        <ele>355.0</ele>
        <time>1970-01-01T10:25:11.145Z</time>
    </trkpt>
    <trkpt lat="56.352399" lon="60.78447">
        <ele>355.0</ele>
        <time>1970-01-01T10:25:12.145Z</time>
    </trkpt>
    <trkpt lat="56.352409" lon="60.784467">
        <ele>355.0</ele>
        <time>1970-01-01T10:25:13.145Z</time>
    </trkpt>
    <trkpt lat="56.352417" lon="60.784471">
        <ele>355.0</ele>
        <time>1970-01-01T10:25:14.145Z</time>
    </trkpt>
    <trkpt lat="56.352432" lon="60.784472">
        <ele>355.0</ele>
        <time>1970-01-01T10:25:15.145Z</time>
    </trkpt>
    <trkpt lat="56.352441" lon="60.784473">
        <ele>355.0</ele>
        <time>1970-01-01T10:25:16.145Z</time>
    </trkpt>
    <trkpt lat="56.352454" lon="60.784476">
        <ele>355.0</ele>
        <time>1970-01-01T10:25:17.145Z</time>
    </trkpt>
    <trkpt lat="56.352463" lon="60.784482">
        <ele>355.0</ele>
        <time>1970-01-01T10:25:18.145Z</time>
    </trkpt>
    <trkpt lat="56.352474" lon="60.784488">
        <ele>355.0</ele>
        <time>1970-01-01T10:25:19.145Z</time>
    </trkpt>
    <trkpt lat="56.352484" lon="60.784503">
        <ele>355.0</ele>
        <time>1970-01-01T10:25:20.145Z</time>
    </trkpt>
    <trkpt lat="56.352491" lon="60.784505">
        <ele>355.0</ele>
        <time>1970-01-01T10:25:21.145Z</time>
    </trkpt>
    <trkpt lat="56.352506" lon="60.784509">
        <ele>355.0</ele>
        <time>1970-01-01T10:25:22.145Z</time>
    </trkpt>
    <trkpt lat="56.352526" lon="60.784521">
        <ele>355.0</ele>
        <time>1970-01-01T10:25:23.145Z</time>
    </trkpt>
    <trkpt lat="56.35254" lon="60.784527">
        <ele>355.0</ele>
        <time>1970-01-01T10:25:24.145Z</time>
    </trkpt>
    <trkpt lat="56.352553" lon="60.784534">
        <ele>355.0</ele>
        <time>1970-01-01T10:25:25.145Z</time>
    </trkpt>
    <trkpt lat="56.352562" lon="60.784545">
        <ele>355.0</ele>
        <time>1970-01-01T10:25:26.145Z</time>
    </trkpt>
    <trkpt lat="56.352572" lon="60.784554">
        <ele>355.0</ele>
        <time>1970-01-01T10:25:27.145Z</time>
    </trkpt>
    <trkpt lat="56.352582" lon="60.784563">
        <ele>355.0</ele>
        <time>1970-01-01T10:25:28.145Z</time>
    </trkpt>
    <trkpt lat="56.35259" lon="60.784584">
        <ele>355.0</ele>
        <time>1970-01-01T10:25:29.145Z</time>
    </trkpt>
    <trkpt lat="56.352602" lon="60.784588">
        <ele>355.0</ele>
        <time>1970-01-01T10:25:30.145Z</time>
    </trkpt>
    <trkpt lat="56.35261" lon="60.784596">
        <ele>355.0</ele>
        <time>1970-01-01T10:25:31.145Z</time>
    </trkpt>
    <trkpt lat="56.352634" lon="60.784618">
        <ele>354.0</ele>
        <time>1970-01-01T10:25:32.145Z</time>
    </trkpt>
    <trkpt lat="56.352641" lon="60.78462">
        <ele>354.0</ele>
        <time>1970-01-01T10:25:33.145Z</time>
    </trkpt>
    <trkpt lat="56.352659" lon="60.784628">
        <ele>354.0</ele>
        <time>1970-01-01T10:25:34.145Z</time>
    </trkpt>
    <trkpt lat="56.352667" lon="60.784628">
        <ele>354.0</ele>
        <time>1970-01-01T10:25:35.145Z</time>
    </trkpt>
    <trkpt lat="56.352672" lon="60.784637">
        <ele>354.0</ele>
        <time>1970-01-01T10:25:36.145Z</time>
    </trkpt>
    <trkpt lat="56.35268" lon="60.784648">
        <ele>354.0</ele>
        <time>1970-01-01T10:25:37.145Z</time>
    </trkpt>
    <trkpt lat="56.352691" lon="60.784651">
        <ele>354.0</ele>
        <time>1970-01-01T10:25:38.145Z</time>
    </trkpt>
    <trkpt lat="56.352698" lon="60.784657">
        <ele>354.0</ele>
        <time>1970-01-01T10:25:39.145Z</time>
    </trkpt>
    <trkpt lat="56.352704" lon="60.784662">
        <ele>354.0</ele>
        <time>1970-01-01T10:25:40.145Z</time>
    </trkpt>
    <trkpt lat="56.35271" lon="60.784668">
        <ele>354.0</ele>
        <time>1970-01-01T10:25:41.145Z</time>
    </trkpt>
    <trkpt lat="56.352717" lon="60.784674">
        <ele>354.0</ele>
        <time>1970-01-01T10:25:42.145Z</time>
    </trkpt>
    <trkpt lat="56.352724" lon="60.784689">
        <ele>354.0</ele>
        <time>1970-01-01T10:25:43.145Z</time>
    </trkpt>
    <trkpt lat="56.352741" lon="60.784704">
        <ele>354.0</ele>
        <time>1970-01-01T10:25:44.145Z</time>
    </trkpt>
    <trkpt lat="56.352747" lon="60.784711">
        <ele>354.0</ele>
        <time>1970-01-01T10:25:45.145Z</time>
    </trkpt>
    <trkpt lat="56.352756" lon="60.784718">
        <ele>354.0</ele>
        <time>1970-01-01T10:25:46.145Z</time>
    </trkpt>
    <trkpt lat="56.35277" lon="60.784736">
        <ele>354.0</ele>
        <time>1970-01-01T10:25:47.145Z</time>
    </trkpt>
    <trkpt lat="56.352781" lon="60.784748">
        <ele>354.0</ele>
        <time>1970-01-01T10:25:48.145Z</time>
    </trkpt>
    <trkpt lat="56.352793" lon="60.784751">
        <ele>354.0</ele>
        <time>1970-01-01T10:25:49.145Z</time>
    </trkpt>
    <trkpt lat="56.352808" lon="60.784763">
        <ele>354.0</ele>
        <time>1970-01-01T10:25:50.145Z</time>
    </trkpt>
    <trkpt lat="56.352816" lon="60.784767">
        <ele>354.0</ele>
        <time>1970-01-01T10:25:51.145Z</time>
    </trkpt>
    <trkpt lat="56.352827" lon="60.784772">
        <ele>354.0</ele>
        <time>1970-01-01T10:25:52.145Z</time>
    </trkpt>
    <trkpt lat="56.352834" lon="60.784785">
        <ele>353.0</ele>
        <time>1970-01-01T10:25:53.145Z</time>
    </trkpt>
    <trkpt lat="56.352844" lon="60.784789">
        <ele>353.0</ele>
        <time>1970-01-01T10:25:54.145Z</time>
    </trkpt>
    <trkpt lat="56.352855" lon="60.784798">
        <ele>353.0</ele>
        <time>1970-01-01T10:25:55.145Z</time>
    </trkpt>
    <trkpt lat="56.352863" lon="60.784807">
        <ele>353.0</ele>
        <time>1970-01-01T10:25:56.145Z</time>
    </trkpt>
    <trkpt lat="56.352875" lon="60.784813">
        <ele>353.0</ele>
        <time>1970-01-01T10:25:57.145Z</time>
    </trkpt>
    <trkpt lat="56.352889" lon="60.784825">
        <ele>353.0</ele>
        <time>1970-01-01T10:25:58.145Z</time>
    </trkpt>
    <trkpt lat="56.352899" lon="60.784837">
        <ele>353.0</ele>
        <time>1970-01-01T10:25:59.145Z</time>
    </trkpt>
    <trkpt lat="56.352908" lon="60.784838">
        <ele>353.0</ele>
        <time>1970-01-01T10:26:00.145Z</time>
    </trkpt>
    <trkpt lat="56.352916" lon="60.784843">
        <ele>353.0</ele>
        <time>1970-01-01T10:26:01.145Z</time>
    </trkpt>
    <trkpt lat="56.352929" lon="60.78485">
        <ele>353.0</ele>
        <time>1970-01-01T10:26:02.145Z</time>
    </trkpt>
    <trkpt lat="56.352926" lon="60.784861">
        <ele>353.0</ele>
        <time>1970-01-01T10:26:03.145Z</time>
    </trkpt>
    <trkpt lat="56.35294" lon="60.784872">
        <ele>353.0</ele>
        <time>1970-01-01T10:26:04.145Z</time>
    </trkpt>
    <trkpt lat="56.352947" lon="60.784881">
        <ele>353.0</ele>
        <time>1970-01-01T10:26:05.145Z</time>
    </trkpt>
    <trkpt lat="56.352953" lon="60.784891">
        <ele>353.0</ele>
        <time>1970-01-01T10:26:06.145Z</time>
    </trkpt>
    <trkpt lat="56.352972" lon="60.784915">
        <ele>353.0</ele>
        <time>1970-01-01T10:26:07.145Z</time>
    </trkpt>
    <trkpt lat="56.352979" lon="60.784922">
        <ele>353.0</ele>
        <time>1970-01-01T10:26:08.145Z</time>
    </trkpt>
    <trkpt lat="56.352986" lon="60.784929">
        <ele>353.0</ele>
        <time>1970-01-01T10:26:09.145Z</time>
    </trkpt>
    <trkpt lat="56.352993" lon="60.784936">
        <ele>353.0</ele>
        <time>1970-01-01T10:26:10.145Z</time>
    </trkpt>
    <trkpt lat="56.353004" lon="60.784954">
        <ele>352.0</ele>
        <time>1970-01-01T10:26:11.145Z</time>
    </trkpt>
    <trkpt lat="56.353013" lon="60.784959">
        <ele>352.0</ele>
        <time>1970-01-01T10:26:12.145Z</time>
    </trkpt>
    <trkpt lat="56.353027" lon="60.78497">
        <ele>352.0</ele>
        <time>1970-01-01T10:26:13.145Z</time>
    </trkpt>
    <trkpt lat="56.353033" lon="60.784981">
        <ele>352.0</ele>
        <time>1970-01-01T10:26:14.145Z</time>
    </trkpt>
    <trkpt lat="56.353046" lon="60.784992">
        <ele>352.0</ele>
        <time>1970-01-01T10:26:15.145Z</time>
    </trkpt>
    <trkpt lat="56.353058" lon="60.784998">
        <ele>352.0</ele>
        <time>1970-01-01T10:26:16.145Z</time>
    </trkpt>
    <trkpt lat="56.353065" lon="60.785006">
        <ele>352.0</ele>
        <time>1970-01-01T10:26:17.145Z</time>
    </trkpt>
    <trkpt lat="56.353077" lon="60.785016">
        <ele>352.0</ele>
        <time>1970-01-01T10:26:18.145Z</time>
    </trkpt>
    <trkpt lat="56.353081" lon="60.785026">
        <ele>351.0</ele>
        <time>1970-01-01T10:26:19.145Z</time>
    </trkpt>
    <trkpt lat="56.35309" lon="60.785027">
        <ele>351.0</ele>
        <time>1970-01-01T10:26:20.145Z</time>
    </trkpt>
    <trkpt lat="56.353101" lon="60.785037">
        <ele>351.0</ele>
        <time>1970-01-01T10:26:21.145Z</time>
    </trkpt>
    <trkpt lat="56.353111" lon="60.78506">
        <ele>351.0</ele>
        <time>1970-01-01T10:26:22.145Z</time>
    </trkpt>
    <trkpt lat="56.353124" lon="60.785067">
        <ele>351.0</ele>
        <time>1970-01-01T10:26:23.145Z</time>
    </trkpt>
    <trkpt lat="56.353128" lon="60.785067">
        <ele>351.0</ele>
        <time>1970-01-01T10:26:24.145Z</time>
    </trkpt>
    <trkpt lat="56.353136" lon="60.785077">
        <ele>351.0</ele>
        <time>1970-01-01T10:26:25.145Z</time>
    </trkpt>
    <trkpt lat="56.353152" lon="60.785091">
        <ele>351.0</ele>
        <time>1970-01-01T10:26:26.145Z</time>
    </trkpt>
    <trkpt lat="56.353166" lon="60.785101">
        <ele>351.0</ele>
        <time>1970-01-01T10:26:27.145Z</time>
    </trkpt>
    <trkpt lat="56.353178" lon="60.785108">
        <ele>351.0</ele>
        <time>1970-01-01T10:26:28.145Z</time>
    </trkpt>
    <trkpt lat="56.353186" lon="60.785111">
        <ele>351.0</ele>
        <time>1970-01-01T10:26:29.145Z</time>
    </trkpt>
    <trkpt lat="56.353195" lon="60.785118">
        <ele>351.0</ele>
        <time>1970-01-01T10:26:30.145Z</time>
    </trkpt>
    <trkpt lat="56.353203" lon="60.785122">
        <ele>350.0</ele>
        <time>1970-01-01T10:26:31.145Z</time>
    </trkpt>
    <trkpt lat="56.353211" lon="60.785126">
        <ele>350.0</ele>
        <time>1970-01-01T10:26:32.145Z</time>
    </trkpt>
    <trkpt lat="56.353229" lon="60.785139">
        <ele>350.0</ele>
        <time>1970-01-01T10:26:33.145Z</time>
    </trkpt>
    <trkpt lat="56.35324" lon="60.785143">
        <ele>350.0</ele>
        <time>1970-01-01T10:26:34.145Z</time>
    </trkpt>
    <trkpt lat="56.353251" lon="60.785146">
        <ele>350.0</ele>
        <time>1970-01-01T10:26:35.145Z</time>
    </trkpt>
    <trkpt lat="56.353261" lon="60.78515">
        <ele>350.0</ele>
        <time>1970-01-01T10:26:36.145Z</time>
    </trkpt>
    <trkpt lat="56.353274" lon="60.785159">
        <ele>348.0</ele>
        <time>1970-01-01T10:26:37.145Z</time>
    </trkpt>
    <trkpt lat="56.353288" lon="60.785161">
        <ele>348.0</ele>
        <time>1970-01-01T10:26:38.145Z</time>
    </trkpt>
    <trkpt lat="56.353295" lon="60.785169">
        <ele>348.0</ele>
        <time>1970-01-01T10:26:39.145Z</time>
    </trkpt>
    <trkpt lat="56.353303" lon="60.785179">
        <ele>348.0</ele>
        <time>1970-01-01T10:26:40.145Z</time>
    </trkpt>
    <trkpt lat="56.35332" lon="60.785193">
        <ele>348.0</ele>
        <time>1970-01-01T10:26:41.145Z</time>
    </trkpt>
    <trkpt lat="56.353329" lon="60.7852">
        <ele>348.0</ele>
        <time>1970-01-01T10:26:42.145Z</time>
    </trkpt>
    <trkpt lat="56.353339" lon="60.785205">
        <ele>348.0</ele>
        <time>1970-01-01T10:26:43.145Z</time>
    </trkpt>
    <trkpt lat="56.353346" lon="60.785215">
        <ele>348.0</ele>
        <time>1970-01-01T10:26:44.145Z</time>
    </trkpt>
    <trkpt lat="56.353354" lon="60.785218">
        <ele>348.0</ele>
        <time>1970-01-01T10:26:45.145Z</time>
    </trkpt>
    <trkpt lat="56.353366" lon="60.785222">
        <ele>347.0</ele>
        <time>1970-01-01T10:26:46.145Z</time>
    </trkpt>
    <trkpt lat="56.353371" lon="60.785229">
        <ele>347.0</ele>
        <time>1970-01-01T10:26:47.145Z</time>
    </trkpt>
    <trkpt lat="56.353384" lon="60.785227">
        <ele>347.0</ele>
        <time>1970-01-01T10:26:48.145Z</time>
    </trkpt>
    <trkpt lat="56.353392" lon="60.785229">
        <ele>347.0</ele>
        <time>1970-01-01T10:26:49.145Z</time>
    </trkpt>
    <trkpt lat="56.353392" lon="60.78523">
        <ele>347.0</ele>
        <time>1970-01-01T10:26:50.145Z</time>
    </trkpt>
    <trkpt lat="56.353401" lon="60.785239">
        <ele>347.0</ele>
        <time>1970-01-01T10:26:51.145Z</time>
    </trkpt>
    <trkpt lat="56.353414" lon="60.785247">
        <ele>347.0</ele>
        <time>1970-01-01T10:26:52.145Z</time>
    </trkpt>
    <trkpt lat="56.353436" lon="60.78526">
        <ele>347.0</ele>
        <time>1970-01-01T10:26:53.145Z</time>
    </trkpt>
    <trkpt lat="56.35344" lon="60.785266">
        <ele>347.0</ele>
        <time>1970-01-01T10:26:54.145Z</time>
    </trkpt>
    <trkpt lat="56.353446" lon="60.785272">
        <ele>347.0</ele>
        <time>1970-01-01T10:26:55.145Z</time>
    </trkpt>
    <trkpt lat="56.353453" lon="60.785281">
        <ele>347.0</ele>
        <time>1970-01-01T10:26:56.145Z</time>
    </trkpt>
    <trkpt lat="56.353454" lon="60.785286">
        <ele>347.0</ele>
        <time>1970-01-01T10:26:57.145Z</time>
    </trkpt>
    <trkpt lat="56.353469" lon="60.785293">
        <ele>346.0</ele>
        <time>1970-01-01T10:26:58.145Z</time>
    </trkpt>
    <trkpt lat="56.353486" lon="60.785302">
        <ele>345.0</ele>
        <time>1970-01-01T10:26:59.145Z</time>
    </trkpt>
    <trkpt lat="56.353495" lon="60.785311">
        <ele>345.0</ele>
        <time>1970-01-01T10:27:00.145Z</time>
    </trkpt>
    <trkpt lat="56.353501" lon="60.78532">
        <ele>345.0</ele>
        <time>1970-01-01T10:27:01.145Z</time>
    </trkpt>
    <trkpt lat="56.353513" lon="60.785325">
        <ele>345.0</ele>
        <time>1970-01-01T10:27:02.145Z</time>
    </trkpt>
    <trkpt lat="56.353524" lon="60.78533">
        <ele>345.0</ele>
        <time>1970-01-01T10:27:03.145Z</time>
    </trkpt>
    <trkpt lat="56.353541" lon="60.785339">
        <ele>345.0</ele>
        <time>1970-01-01T10:27:04.145Z</time>
    </trkpt>
    <trkpt lat="56.353547" lon="60.785353">
        <ele>345.0</ele>
        <time>1970-01-01T10:27:05.145Z</time>
    </trkpt>
    <trkpt lat="56.353552" lon="60.785367">
        <ele>345.0</ele>
        <time>1970-01-01T10:27:06.145Z</time>
    </trkpt>
    <trkpt lat="56.353562" lon="60.785394">
        <ele>344.0</ele>
        <time>1970-01-01T10:27:07.145Z</time>
    </trkpt>
    <trkpt lat="56.353569" lon="60.785408">
        <ele>344.0</ele>
        <time>1970-01-01T10:27:08.145Z</time>
    </trkpt>
    <trkpt lat="56.353576" lon="60.785422">
        <ele>344.0</ele>
        <time>1970-01-01T10:27:09.145Z</time>
    </trkpt>
    <trkpt lat="56.353593" lon="60.785448">
        <ele>344.0</ele>
        <time>1970-01-01T10:27:10.145Z</time>
    </trkpt>
    <trkpt lat="56.3536" lon="60.785469">
        <ele>343.0</ele>
        <time>1970-01-01T10:27:11.145Z</time>
    </trkpt>
    <trkpt lat="56.353608" lon="60.78549">
        <ele>343.0</ele>
        <time>1970-01-01T10:27:12.145Z</time>
    </trkpt>
    <trkpt lat="56.353613" lon="60.785501">
        <ele>343.0</ele>
        <time>1970-01-01T10:27:13.145Z</time>
    </trkpt>
    <trkpt lat="56.353617" lon="60.785515">
        <ele>343.0</ele>
        <time>1970-01-01T10:27:14.145Z</time>
    </trkpt>
    <trkpt lat="56.35362" lon="60.785529">
        <ele>343.0</ele>
        <time>1970-01-01T10:27:15.145Z</time>
    </trkpt>
    <trkpt lat="56.353624" lon="60.785543">
        <ele>343.0</ele>
        <time>1970-01-01T10:27:16.145Z</time>
    </trkpt>
    <trkpt lat="56.353631" lon="60.785566">
        <ele>343.0</ele>
        <time>1970-01-01T10:27:17.145Z</time>
    </trkpt>
    <trkpt lat="56.353634" lon="60.785583">
        <ele>343.0</ele>
        <time>1970-01-01T10:27:18.145Z</time>
    </trkpt>
    <trkpt lat="56.353638" lon="60.785591">
        <ele>343.0</ele>
        <time>1970-01-01T10:27:19.145Z</time>
    </trkpt>
    <trkpt lat="56.353643" lon="60.785596">
        <ele>343.0</ele>
        <time>1970-01-01T10:27:20.145Z</time>
    </trkpt>
    <trkpt lat="56.353649" lon="60.78561">
        <ele>342.0</ele>
        <time>1970-01-01T10:27:21.145Z</time>
    </trkpt>
    <trkpt lat="56.353657" lon="60.785628">
        <ele>342.0</ele>
        <time>1970-01-01T10:27:22.145Z</time>
    </trkpt>
    <trkpt lat="56.353663" lon="60.785636">
        <ele>342.0</ele>
        <time>1970-01-01T10:27:23.145Z</time>
    </trkpt>
    <trkpt lat="56.353672" lon="60.785649">
        <ele>342.0</ele>
        <time>1970-01-01T10:27:24.145Z</time>
    </trkpt>
    <trkpt lat="56.353681" lon="60.785665">
        <ele>342.0</ele>
        <time>1970-01-01T10:27:25.145Z</time>
    </trkpt>
    <trkpt lat="56.353687" lon="60.785692">
        <ele>342.0</ele>
        <time>1970-01-01T10:27:26.145Z</time>
    </trkpt>
    <trkpt lat="56.353688" lon="60.785701">
        <ele>342.0</ele>
        <time>1970-01-01T10:27:27.145Z</time>
    </trkpt>
    <trkpt lat="56.353692" lon="60.785716">
        <ele>342.0</ele>
        <time>1970-01-01T10:27:28.145Z</time>
    </trkpt>
    <trkpt lat="56.353698" lon="60.785738">
        <ele>342.0</ele>
        <time>1970-01-01T10:27:29.145Z</time>
    </trkpt>
    <trkpt lat="56.353703" lon="60.78575">
        <ele>342.0</ele>
        <time>1970-01-01T10:27:30.145Z</time>
    </trkpt>
    <trkpt lat="56.353707" lon="60.785763">
        <ele>342.0</ele>
        <time>1970-01-01T10:27:31.145Z</time>
    </trkpt>
    <trkpt lat="56.353712" lon="60.785775">
        <ele>342.0</ele>
        <time>1970-01-01T10:27:32.145Z</time>
    </trkpt>
    <trkpt lat="56.353728" lon="60.785795">
        <ele>342.0</ele>
        <time>1970-01-01T10:27:33.145Z</time>
    </trkpt>
    <trkpt lat="56.353746" lon="60.78581">
        <ele>342.0</ele>
        <time>1970-01-01T10:27:34.145Z</time>
    </trkpt>
    <trkpt lat="56.353758" lon="60.785824">
        <ele>342.0</ele>
        <time>1970-01-01T10:27:35.145Z</time>
    </trkpt>
    <trkpt lat="56.353765" lon="60.785837">
        <ele>342.0</ele>
        <time>1970-01-01T10:27:36.145Z</time>
    </trkpt>
    <trkpt lat="56.353777" lon="60.785844">
        <ele>342.0</ele>
        <time>1970-01-01T10:27:37.145Z</time>
    </trkpt>
    <trkpt lat="56.353789" lon="60.785848">
        <ele>342.0</ele>
        <time>1970-01-01T10:27:38.145Z</time>
    </trkpt>
    <trkpt lat="56.353803" lon="60.785854">
        <ele>342.0</ele>
        <time>1970-01-01T10:27:39.145Z</time>
    </trkpt>
    <trkpt lat="56.353817" lon="60.785863">
        <ele>342.0</ele>
        <time>1970-01-01T10:27:40.145Z</time>
    </trkpt>
    <trkpt lat="56.353828" lon="60.785873">
        <ele>342.0</ele>
        <time>1970-01-01T10:27:41.145Z</time>
    </trkpt>
    <trkpt lat="56.353842" lon="60.785883">
        <ele>341.0</ele>
        <time>1970-01-01T10:27:42.145Z</time>
    </trkpt>
    <trkpt lat="56.353858" lon="60.785897">
        <ele>341.0</ele>
        <time>1970-01-01T10:27:43.145Z</time>
    </trkpt>
    <trkpt lat="56.353873" lon="60.785912">
        <ele>341.0</ele>
        <time>1970-01-01T10:27:44.145Z</time>
    </trkpt>
    <trkpt lat="56.353884" lon="60.785927">
        <ele>341.0</ele>
        <time>1970-01-01T10:27:45.145Z</time>
    </trkpt>
    <trkpt lat="56.353898" lon="60.785932">
        <ele>341.0</ele>
        <time>1970-01-01T10:27:46.145Z</time>
    </trkpt>
    <trkpt lat="56.353923" lon="60.785935">
        <ele>341.0</ele>
        <time>1970-01-01T10:27:47.145Z</time>
    </trkpt>
    <trkpt lat="56.35393" lon="60.785927">
        <ele>341.0</ele>
        <time>1970-01-01T10:27:48.145Z</time>
    </trkpt>
    <trkpt lat="56.35394" lon="60.785927">
        <ele>340.0</ele>
        <time>1970-01-01T10:27:49.145Z</time>
    </trkpt>
    <trkpt lat="56.353948" lon="60.785929">
        <ele>340.0</ele>
        <time>1970-01-01T10:27:50.145Z</time>
    </trkpt>
    <trkpt lat="56.353959" lon="60.785929">
        <ele>340.0</ele>
        <time>1970-01-01T10:27:51.145Z</time>
    </trkpt>
    <trkpt lat="56.353977" lon="60.785947">
        <ele>340.0</ele>
        <time>1970-01-01T10:27:52.145Z</time>
    </trkpt>
    <trkpt lat="56.353983" lon="60.785962">
        <ele>340.0</ele>
        <time>1970-01-01T10:27:53.145Z</time>
    </trkpt>
    <trkpt lat="56.353989" lon="60.785971">
        <ele>340.0</ele>
        <time>1970-01-01T10:27:54.145Z</time>
    </trkpt>
    <trkpt lat="56.353996" lon="60.785977">
        <ele>340.0</ele>
        <time>1970-01-01T10:27:55.145Z</time>
    </trkpt>
    <trkpt lat="56.354005" lon="60.785992">
        <ele>341.0</ele>
        <time>1970-01-01T10:27:56.145Z</time>
    </trkpt>
    <trkpt lat="56.354005" lon="60.785992">
        <ele>341.0</ele>
        <time>1970-01-01T10:27:57.145Z</time>
    </trkpt>
    <trkpt lat="56.354005" lon="60.785992">
        <ele>341.0</ele>
        <time>1970-01-01T10:27:58.145Z</time>
    </trkpt>
    <trkpt lat="56.354005" lon="60.785992">
        <ele>341.0</ele>
        <time>1970-01-01T10:27:59.145Z</time>
    </trkpt>
    <trkpt lat="56.354006" lon="60.785992">
        <ele>341.0</ele>
        <time>1970-01-01T10:28:00.145Z</time>
    </trkpt>
    <trkpt lat="56.354012" lon="60.785993">
        <ele>341.0</ele>
        <time>1970-01-01T10:28:01.145Z</time>
    </trkpt>
    <trkpt lat="56.354017" lon="60.785991">
        <ele>341.0</ele>
        <time>1970-01-01T10:28:02.145Z</time>
    </trkpt>
    <trkpt lat="56.354028" lon="60.785994">
        <ele>341.0</ele>
        <time>1970-01-01T10:28:03.145Z</time>
    </trkpt>
    <trkpt lat="56.354038" lon="60.785993">
        <ele>340.0</ele>
        <time>1970-01-01T10:28:04.145Z</time>
    </trkpt>
    <trkpt lat="56.354044" lon="60.786">
        <ele>340.0</ele>
        <time>1970-01-01T10:28:05.145Z</time>
    </trkpt>
    <trkpt lat="56.354063" lon="60.786005">
        <ele>340.0</ele>
        <time>1970-01-01T10:28:06.145Z</time>
    </trkpt>
    <trkpt lat="56.354068" lon="60.785998">
        <ele>340.0</ele>
        <time>1970-01-01T10:28:07.145Z</time>
    </trkpt>
    <trkpt lat="56.354077" lon="60.786006">
        <ele>340.0</ele>
        <time>1970-01-01T10:28:08.145Z</time>
    </trkpt>
    <trkpt lat="56.354086" lon="60.786014">
        <ele>340.0</ele>
        <time>1970-01-01T10:28:09.145Z</time>
    </trkpt>
    <trkpt lat="56.354095" lon="60.786021">
        <ele>340.0</ele>
        <time>1970-01-01T10:28:10.145Z</time>
    </trkpt>
    <trkpt lat="56.354106" lon="60.786027">
        <ele>340.0</ele>
        <time>1970-01-01T10:28:11.145Z</time>
    </trkpt>
    <trkpt lat="56.354115" lon="60.786036">
        <ele>340.0</ele>
        <time>1970-01-01T10:28:12.145Z</time>
    </trkpt>
    <trkpt lat="56.354123" lon="60.786045">
        <ele>340.0</ele>
        <time>1970-01-01T10:28:13.145Z</time>
    </trkpt>
    <trkpt lat="56.354141" lon="60.786072">
        <ele>339.0</ele>
        <time>1970-01-01T10:28:14.145Z</time>
    </trkpt>
    <trkpt lat="56.354151" lon="60.786079">
        <ele>339.0</ele>
        <time>1970-01-01T10:28:15.145Z</time>
    </trkpt>
    <trkpt lat="56.354162" lon="60.786087">
        <ele>339.0</ele>
        <time>1970-01-01T10:28:16.145Z</time>
    </trkpt>
    <trkpt lat="56.354176" lon="60.786104">
        <ele>339.0</ele>
        <time>1970-01-01T10:28:17.145Z</time>
    </trkpt>
    <trkpt lat="56.354188" lon="60.786106">
        <ele>339.0</ele>
        <time>1970-01-01T10:28:18.145Z</time>
    </trkpt>
    <trkpt lat="56.354196" lon="60.786115">
        <ele>339.0</ele>
        <time>1970-01-01T10:28:19.145Z</time>
    </trkpt>
    <trkpt lat="56.354205" lon="60.786118">
        <ele>339.0</ele>
        <time>1970-01-01T10:28:20.145Z</time>
    </trkpt>
    <trkpt lat="56.354214" lon="60.786127">
        <ele>339.0</ele>
        <time>1970-01-01T10:28:21.145Z</time>
    </trkpt>
    <trkpt lat="56.354223" lon="60.786137">
        <ele>338.0</ele>
        <time>1970-01-01T10:28:22.145Z</time>
    </trkpt>
    <trkpt lat="56.354237" lon="60.786153">
        <ele>339.0</ele>
        <time>1970-01-01T10:28:23.145Z</time>
    </trkpt>
    <trkpt lat="56.354248" lon="60.786165">
        <ele>339.0</ele>
        <time>1970-01-01T10:28:24.145Z</time>
    </trkpt>
    <trkpt lat="56.354248" lon="60.786167">
        <ele>339.0</ele>
        <time>1970-01-01T10:28:25.145Z</time>
    </trkpt>
    <trkpt lat="56.354258" lon="60.786175">
        <ele>339.0</ele>
        <time>1970-01-01T10:28:26.145Z</time>
    </trkpt>
    <trkpt lat="56.354269" lon="60.786182">
        <ele>339.0</ele>
        <time>1970-01-01T10:28:27.145Z</time>
    </trkpt>
    <trkpt lat="56.35428" lon="60.786192">
        <ele>339.0</ele>
        <time>1970-01-01T10:28:28.145Z</time>
    </trkpt>
    <trkpt lat="56.354283" lon="60.7862">
        <ele>339.0</ele>
        <time>1970-01-01T10:28:29.145Z</time>
    </trkpt>
    <trkpt lat="56.354288" lon="60.786204">
        <ele>339.0</ele>
        <time>1970-01-01T10:28:30.145Z</time>
    </trkpt>
    <trkpt lat="56.354299" lon="60.786204">
        <ele>339.0</ele>
        <time>1970-01-01T10:28:31.145Z</time>
    </trkpt>
    <trkpt lat="56.35431" lon="60.786211">
        <ele>339.0</ele>
        <time>1970-01-01T10:28:32.145Z</time>
    </trkpt>
    <trkpt lat="56.354317" lon="60.786207">
        <ele>338.0</ele>
        <time>1970-01-01T10:28:33.145Z</time>
    </trkpt>
    <trkpt lat="56.354323" lon="60.786212">
        <ele>338.0</ele>
        <time>1970-01-01T10:28:34.145Z</time>
    </trkpt>
    <trkpt lat="56.354331" lon="60.786217">
        <ele>338.0</ele>
        <time>1970-01-01T10:28:35.145Z</time>
    </trkpt>
    <trkpt lat="56.354338" lon="60.786228">
        <ele>338.0</ele>
        <time>1970-01-01T10:28:36.145Z</time>
    </trkpt>
    <trkpt lat="56.354345" lon="60.786239">
        <ele>338.0</ele>
        <time>1970-01-01T10:28:37.145Z</time>
    </trkpt>
    <trkpt lat="56.354352" lon="60.78625">
        <ele>338.0</ele>
        <time>1970-01-01T10:28:38.145Z</time>
    </trkpt>
    <trkpt lat="56.354361" lon="60.786267">
        <ele>338.0</ele>
        <time>1970-01-01T10:28:39.145Z</time>
    </trkpt>
    <trkpt lat="56.354369" lon="60.78628">
        <ele>338.0</ele>
        <time>1970-01-01T10:28:40.145Z</time>
    </trkpt>
    <trkpt lat="56.354382" lon="60.786295">
        <ele>338.0</ele>
        <time>1970-01-01T10:28:41.145Z</time>
    </trkpt>
    <trkpt lat="56.354389" lon="60.786304">
        <ele>338.0</ele>
        <time>1970-01-01T10:28:42.145Z</time>
    </trkpt>
    <trkpt lat="56.354398" lon="60.78631">
        <ele>338.0</ele>
        <time>1970-01-01T10:28:43.145Z</time>
    </trkpt>
    <trkpt lat="56.354406" lon="60.786316">
        <ele>338.0</ele>
        <time>1970-01-01T10:28:44.145Z</time>
    </trkpt>
    <trkpt lat="56.354424" lon="60.786328">
        <ele>337.0</ele>
        <time>1970-01-01T10:28:45.145Z</time>
    </trkpt>
    <trkpt lat="56.354432" lon="60.786334">
        <ele>337.0</ele>
        <time>1970-01-01T10:28:46.145Z</time>
    </trkpt>
    <trkpt lat="56.354439" lon="60.786341">
        <ele>337.0</ele>
        <time>1970-01-01T10:28:47.145Z</time>
    </trkpt>
    <trkpt lat="56.354461" lon="60.786368">
        <ele>337.0</ele>
        <time>1970-01-01T10:28:48.145Z</time>
    </trkpt>
    <trkpt lat="56.354476" lon="60.786384">
        <ele>337.0</ele>
        <time>1970-01-01T10:28:49.145Z</time>
    </trkpt>
    <trkpt lat="56.354481" lon="60.786394">
        <ele>337.0</ele>
        <time>1970-01-01T10:28:50.145Z</time>
    </trkpt>
    <trkpt lat="56.354488" lon="60.786406">
        <ele>337.0</ele>
        <time>1970-01-01T10:28:51.145Z</time>
    </trkpt>
    <trkpt lat="56.354494" lon="60.786414">
        <ele>337.0</ele>
        <time>1970-01-01T10:28:52.145Z</time>
    </trkpt>
    <trkpt lat="56.354505" lon="60.786424">
        <ele>336.0</ele>
        <time>1970-01-01T10:28:53.145Z</time>
    </trkpt>
    <trkpt lat="56.354515" lon="60.786433">
        <ele>336.0</ele>
        <time>1970-01-01T10:28:54.145Z</time>
    </trkpt>
    <trkpt lat="56.354521" lon="60.786448">
        <ele>336.0</ele>
        <time>1970-01-01T10:28:55.145Z</time>
    </trkpt>
    <trkpt lat="56.354526" lon="60.78645">
        <ele>336.0</ele>
        <time>1970-01-01T10:28:56.145Z</time>
    </trkpt>
    <trkpt lat="56.354537" lon="60.786463">
        <ele>336.0</ele>
        <time>1970-01-01T10:28:57.145Z</time>
    </trkpt>
    <trkpt lat="56.354542" lon="60.786478">
        <ele>336.0</ele>
        <time>1970-01-01T10:28:58.145Z</time>
    </trkpt>
    <trkpt lat="56.354551" lon="60.786492">
        <ele>336.0</ele>
        <time>1970-01-01T10:28:59.145Z</time>
    </trkpt>
    <trkpt lat="56.354562" lon="60.786502">
        <ele>336.0</ele>
        <time>1970-01-01T10:29:00.145Z</time>
    </trkpt>
    <trkpt lat="56.354568" lon="60.786508">
        <ele>336.0</ele>
        <time>1970-01-01T10:29:01.145Z</time>
    </trkpt>
    <trkpt lat="56.354576" lon="60.786507">
        <ele>336.0</ele>
        <time>1970-01-01T10:29:02.145Z</time>
    </trkpt>
    <trkpt lat="56.35459" lon="60.786515">
        <ele>336.0</ele>
        <time>1970-01-01T10:29:03.145Z</time>
    </trkpt>
    <trkpt lat="56.354597" lon="60.786521">
        <ele>336.0</ele>
        <time>1970-01-01T10:29:04.145Z</time>
    </trkpt>
    <trkpt lat="56.354611" lon="60.786526">
        <ele>335.0</ele>
        <time>1970-01-01T10:29:05.145Z</time>
    </trkpt>
    <trkpt lat="56.354619" lon="60.786532">
        <ele>335.0</ele>
        <time>1970-01-01T10:29:06.145Z</time>
    </trkpt>
    <trkpt lat="56.354625" lon="60.786544">
        <ele>335.0</ele>
        <time>1970-01-01T10:29:07.145Z</time>
    </trkpt>
    <trkpt lat="56.354629" lon="60.786551">
        <ele>335.0</ele>
        <time>1970-01-01T10:29:08.145Z</time>
    </trkpt>
    <trkpt lat="56.354636" lon="60.786564">
        <ele>335.0</ele>
        <time>1970-01-01T10:29:09.145Z</time>
    </trkpt>
    <trkpt lat="56.354647" lon="60.786572">
        <ele>335.0</ele>
        <time>1970-01-01T10:29:10.145Z</time>
    </trkpt>
    <trkpt lat="56.354657" lon="60.78658">
        <ele>335.0</ele>
        <time>1970-01-01T10:29:11.145Z</time>
    </trkpt>
    <trkpt lat="56.354665" lon="60.786601">
        <ele>335.0</ele>
        <time>1970-01-01T10:29:12.145Z</time>
    </trkpt>
    <trkpt lat="56.354672" lon="60.786609">
        <ele>335.0</ele>
        <time>1970-01-01T10:29:13.145Z</time>
    </trkpt>
    <trkpt lat="56.354678" lon="60.786628">
        <ele>335.0</ele>
        <time>1970-01-01T10:29:14.145Z</time>
    </trkpt>
    <trkpt lat="56.354685" lon="60.786649">
        <ele>335.0</ele>
        <time>1970-01-01T10:29:15.145Z</time>
    </trkpt>
    <trkpt lat="56.354692" lon="60.786651">
        <ele>335.0</ele>
        <time>1970-01-01T10:29:16.145Z</time>
    </trkpt>
    <trkpt lat="56.354702" lon="60.786665">
        <ele>333.0</ele>
        <time>1970-01-01T10:29:17.145Z</time>
    </trkpt>
    <trkpt lat="56.354708" lon="60.786682">
        <ele>333.0</ele>
        <time>1970-01-01T10:29:18.145Z</time>
    </trkpt>
    <trkpt lat="56.354715" lon="60.786698">
        <ele>333.0</ele>
        <time>1970-01-01T10:29:19.145Z</time>
    </trkpt>
    <trkpt lat="56.354721" lon="60.786712">
        <ele>333.0</ele>
        <time>1970-01-01T10:29:20.145Z</time>
    </trkpt>
    <trkpt lat="56.354728" lon="60.786725">
        <ele>333.0</ele>
        <time>1970-01-01T10:29:21.145Z</time>
    </trkpt>
    <trkpt lat="56.354736" lon="60.786745">
        <ele>333.0</ele>
        <time>1970-01-01T10:29:22.145Z</time>
    </trkpt>
    <trkpt lat="56.354743" lon="60.786763">
        <ele>333.0</ele>
        <time>1970-01-01T10:29:23.145Z</time>
    </trkpt>
    <trkpt lat="56.35475" lon="60.786779">
        <ele>333.0</ele>
        <time>1970-01-01T10:29:24.145Z</time>
    </trkpt>
    <trkpt lat="56.354753" lon="60.786781">
        <ele>333.0</ele>
        <time>1970-01-01T10:29:25.145Z</time>
    </trkpt>
    <trkpt lat="56.354758" lon="60.786797">
        <ele>333.0</ele>
        <time>1970-01-01T10:29:26.145Z</time>
    </trkpt>
    <trkpt lat="56.354764" lon="60.786807">
        <ele>333.0</ele>
        <time>1970-01-01T10:29:27.145Z</time>
    </trkpt>
    <trkpt lat="56.354769" lon="60.786817">
        <ele>333.0</ele>
        <time>1970-01-01T10:29:28.145Z</time>
    </trkpt>
    <trkpt lat="56.354783" lon="60.786849">
        <ele>333.0</ele>
        <time>1970-01-01T10:29:29.145Z</time>
    </trkpt>
    <trkpt lat="56.354788" lon="60.786871">
        <ele>333.0</ele>
        <time>1970-01-01T10:29:30.145Z</time>
    </trkpt>
    <trkpt lat="56.354794" lon="60.786883">
        <ele>331.0</ele>
        <time>1970-01-01T10:29:31.145Z</time>
    </trkpt>
    <trkpt lat="56.354806" lon="60.786894">
        <ele>331.0</ele>
        <time>1970-01-01T10:29:32.145Z</time>
    </trkpt>
    <trkpt lat="56.354812" lon="60.786908">
        <ele>331.0</ele>
        <time>1970-01-01T10:29:33.145Z</time>
    </trkpt>
    <trkpt lat="56.354822" lon="60.786923">
        <ele>331.0</ele>
        <time>1970-01-01T10:29:34.145Z</time>
    </trkpt>
    <trkpt lat="56.354825" lon="60.786936">
        <ele>331.0</ele>
        <time>1970-01-01T10:29:35.145Z</time>
    </trkpt>
    <trkpt lat="56.354832" lon="60.786954">
        <ele>331.0</ele>
        <time>1970-01-01T10:29:36.145Z</time>
    </trkpt>
    <trkpt lat="56.354839" lon="60.786967">
        <ele>331.0</ele>
        <time>1970-01-01T10:29:37.145Z</time>
    </trkpt>
    <trkpt lat="56.35485" lon="60.786979">
        <ele>331.0</ele>
        <time>1970-01-01T10:29:38.145Z</time>
    </trkpt>
    <trkpt lat="56.354858" lon="60.786994">
        <ele>331.0</ele>
        <time>1970-01-01T10:29:39.145Z</time>
    </trkpt>
    <trkpt lat="56.35486" lon="60.787013">
        <ele>331.0</ele>
        <time>1970-01-01T10:29:40.145Z</time>
    </trkpt>
    <trkpt lat="56.354869" lon="60.787023">
        <ele>331.0</ele>
        <time>1970-01-01T10:29:41.145Z</time>
    </trkpt>
    <trkpt lat="56.354879" lon="60.78704">
        <ele>331.0</ele>
        <time>1970-01-01T10:29:42.145Z</time>
    </trkpt>
    <trkpt lat="56.354891" lon="60.787061">
        <ele>329.0</ele>
        <time>1970-01-01T10:29:43.145Z</time>
    </trkpt>
    <trkpt lat="56.354899" lon="60.787068">
        <ele>329.0</ele>
        <time>1970-01-01T10:29:44.145Z</time>
    </trkpt>
    <trkpt lat="56.354905" lon="60.787082">
        <ele>329.0</ele>
        <time>1970-01-01T10:29:45.145Z</time>
    </trkpt>
    <trkpt lat="56.35491" lon="60.787089">
        <ele>329.0</ele>
        <time>1970-01-01T10:29:46.145Z</time>
    </trkpt>
    <trkpt lat="56.354917" lon="60.78709">
        <ele>329.0</ele>
        <time>1970-01-01T10:29:47.145Z</time>
    </trkpt>
    <trkpt lat="56.354926" lon="60.787099">
        <ele>329.0</ele>
        <time>1970-01-01T10:29:48.145Z</time>
    </trkpt>
    <trkpt lat="56.354935" lon="60.787108">
        <ele>329.0</ele>
        <time>1970-01-01T10:29:49.145Z</time>
    </trkpt>
    <trkpt lat="56.354948" lon="60.787132">
        <ele>329.0</ele>
        <time>1970-01-01T10:29:50.145Z</time>
    </trkpt>
    <trkpt lat="56.354958" lon="60.78714">
        <ele>329.0</ele>
        <time>1970-01-01T10:29:51.145Z</time>
    </trkpt>
    <trkpt lat="56.354969" lon="60.787151">
        <ele>329.0</ele>
        <time>1970-01-01T10:29:52.145Z</time>
    </trkpt>
    <trkpt lat="56.354972" lon="60.787169">
        <ele>329.0</ele>
        <time>1970-01-01T10:29:53.145Z</time>
    </trkpt>
    <trkpt lat="56.354972" lon="60.787169">
        <ele>329.0</ele>
        <time>1970-01-01T10:29:54.145Z</time>
    </trkpt>
    <trkpt lat="56.354972" lon="60.787171">
        <ele>329.0</ele>
        <time>1970-01-01T10:29:55.145Z</time>
    </trkpt>
    <trkpt lat="56.354974" lon="60.787172">
        <ele>329.0</ele>
        <time>1970-01-01T10:29:56.145Z</time>
    </trkpt>
    <trkpt lat="56.354979" lon="60.787177">
        <ele>329.0</ele>
        <time>1970-01-01T10:29:57.145Z</time>
    </trkpt>
    <trkpt lat="56.354986" lon="60.787183">
        <ele>328.0</ele>
        <time>1970-01-01T10:29:58.145Z</time>
    </trkpt>
    <trkpt lat="56.355001" lon="60.787192">
        <ele>328.0</ele>
        <time>1970-01-01T10:29:59.145Z</time>
    </trkpt>
    <trkpt lat="56.355012" lon="60.787204">
        <ele>328.0</ele>
        <time>1970-01-01T10:30:00.145Z</time>
    </trkpt>
    <trkpt lat="56.355024" lon="60.787215">
        <ele>328.0</ele>
        <time>1970-01-01T10:30:01.145Z</time>
    </trkpt>
    <trkpt lat="56.355041" lon="60.787231">
        <ele>328.0</ele>
        <time>1970-01-01T10:30:02.145Z</time>
    </trkpt>
    <trkpt lat="56.355049" lon="60.787239">
        <ele>328.0</ele>
        <time>1970-01-01T10:30:03.145Z</time>
    </trkpt>
    <trkpt lat="56.355065" lon="60.787256">
        <ele>328.0</ele>
        <time>1970-01-01T10:30:04.145Z</time>
    </trkpt>
    <trkpt lat="56.355083" lon="60.787265">
        <ele>326.0</ele>
        <time>1970-01-01T10:30:05.145Z</time>
    </trkpt>
    <trkpt lat="56.355098" lon="60.787276">
        <ele>326.0</ele>
        <time>1970-01-01T10:30:06.145Z</time>
    </trkpt>
    <trkpt lat="56.355106" lon="60.787282">
        <ele>326.0</ele>
        <time>1970-01-01T10:30:07.145Z</time>
    </trkpt>
    <trkpt lat="56.355115" lon="60.787289">
        <ele>326.0</ele>
        <time>1970-01-01T10:30:08.145Z</time>
    </trkpt>
    <trkpt lat="56.355133" lon="60.787294">
        <ele>326.0</ele>
        <time>1970-01-01T10:30:09.145Z</time>
    </trkpt>
    <trkpt lat="56.355155" lon="60.787312">
        <ele>326.0</ele>
        <time>1970-01-01T10:30:10.145Z</time>
    </trkpt>
    <trkpt lat="56.355159" lon="60.787317">
        <ele>326.0</ele>
        <time>1970-01-01T10:30:11.145Z</time>
    </trkpt>
    <trkpt lat="56.355164" lon="60.787322">
        <ele>326.0</ele>
        <time>1970-01-01T10:30:12.145Z</time>
    </trkpt>
    <trkpt lat="56.355162" lon="60.787327">
        <ele>326.0</ele>
        <time>1970-01-01T10:30:13.145Z</time>
    </trkpt>
    <trkpt lat="56.355171" lon="60.787341">
        <ele>324.0</ele>
        <time>1970-01-01T10:30:14.145Z</time>
    </trkpt>
    <trkpt lat="56.355175" lon="60.787343">
        <ele>324.0</ele>
        <time>1970-01-01T10:30:15.145Z</time>
    </trkpt>
    <trkpt lat="56.355181" lon="60.787348">
        <ele>324.0</ele>
        <time>1970-01-01T10:30:16.145Z</time>
    </trkpt>
    <trkpt lat="56.355186" lon="60.787362">
        <ele>326.0</ele>
        <time>1970-01-01T10:30:17.145Z</time>
    </trkpt>
    <trkpt lat="56.355184" lon="60.787363">
        <ele>326.0</ele>
        <time>1970-01-01T10:30:18.145Z</time>
    </trkpt>
    <trkpt lat="56.35519" lon="60.787362">
        <ele>326.0</ele>
        <time>1970-01-01T10:30:19.145Z</time>
    </trkpt>
    <trkpt lat="56.355196" lon="60.78737">
        <ele>326.0</ele>
        <time>1970-01-01T10:30:20.145Z</time>
    </trkpt>
    <trkpt lat="56.355202" lon="60.787382">
        <ele>326.0</ele>
        <time>1970-01-01T10:30:21.145Z</time>
    </trkpt>
    <trkpt lat="56.35521" lon="60.787387">
        <ele>326.0</ele>
        <time>1970-01-01T10:30:22.145Z</time>
    </trkpt>
    <trkpt lat="56.355212" lon="60.787397">
        <ele>326.0</ele>
        <time>1970-01-01T10:30:23.145Z</time>
    </trkpt>
    <trkpt lat="56.35522" lon="60.787408">
        <ele>326.0</ele>
        <time>1970-01-01T10:30:24.145Z</time>
    </trkpt>
    <trkpt lat="56.355233" lon="60.787412">
        <ele>326.0</ele>
        <time>1970-01-01T10:30:25.145Z</time>
    </trkpt>
    <trkpt lat="56.355243" lon="60.787419">
        <ele>326.0</ele>
        <time>1970-01-01T10:30:26.145Z</time>
    </trkpt>
    <trkpt lat="56.35525" lon="60.78742">
        <ele>326.0</ele>
        <time>1970-01-01T10:30:27.145Z</time>
    </trkpt>
    <trkpt lat="56.355252" lon="60.787418">
        <ele>326.0</ele>
        <time>1970-01-01T10:30:28.145Z</time>
    </trkpt>
    <trkpt lat="56.35527" lon="60.787444">
        <ele>324.0</ele>
        <time>1970-01-01T10:30:29.145Z</time>
    </trkpt>
    <trkpt lat="56.355283" lon="60.787451">
        <ele>324.0</ele>
        <time>1970-01-01T10:30:30.145Z</time>
    </trkpt>
    <trkpt lat="56.355297" lon="60.787463">
        <ele>324.0</ele>
        <time>1970-01-01T10:30:31.145Z</time>
    </trkpt>
    <trkpt lat="56.355306" lon="60.787466">
        <ele>324.0</ele>
        <time>1970-01-01T10:30:32.145Z</time>
    </trkpt>
    <trkpt lat="56.355313" lon="60.787466">
        <ele>324.0</ele>
        <time>1970-01-01T10:30:33.145Z</time>
    </trkpt>
    <trkpt lat="56.35532" lon="60.787474">
        <ele>324.0</ele>
        <time>1970-01-01T10:30:34.145Z</time>
    </trkpt>
    <trkpt lat="56.355323" lon="60.787488">
        <ele>324.0</ele>
        <time>1970-01-01T10:30:35.145Z</time>
    </trkpt>
    <trkpt lat="56.355332" lon="60.787501">
        <ele>324.0</ele>
        <time>1970-01-01T10:30:36.145Z</time>
    </trkpt>
    <trkpt lat="56.355335" lon="60.787511">
        <ele>324.0</ele>
        <time>1970-01-01T10:30:37.145Z</time>
    </trkpt>
    <trkpt lat="56.35534" lon="60.787521">
        <ele>324.0</ele>
        <time>1970-01-01T10:30:38.145Z</time>
    </trkpt>
    <trkpt lat="56.355341" lon="60.787525">
        <ele>324.0</ele>
        <time>1970-01-01T10:30:39.145Z</time>
    </trkpt>
    <trkpt lat="56.35535" lon="60.787537">
        <ele>326.0</ele>
        <time>1970-01-01T10:30:40.145Z</time>
    </trkpt>
    <trkpt lat="56.355355" lon="60.787555">
        <ele>326.0</ele>
        <time>1970-01-01T10:30:41.145Z</time>
    </trkpt>
    <trkpt lat="56.355357" lon="60.787571">
        <ele>326.0</ele>
        <time>1970-01-01T10:30:42.145Z</time>
    </trkpt>
    <trkpt lat="56.355362" lon="60.787576">
        <ele>324.0</ele>
        <time>1970-01-01T10:30:43.145Z</time>
    </trkpt>
    <trkpt lat="56.355366" lon="60.787581">
        <ele>324.0</ele>
        <time>1970-01-01T10:30:44.145Z</time>
    </trkpt>
    <trkpt lat="56.355371" lon="60.787586">
        <ele>324.0</ele>
        <time>1970-01-01T10:30:45.145Z</time>
    </trkpt>
    <trkpt lat="56.355376" lon="60.787591">
        <ele>324.0</ele>
        <time>1970-01-01T10:30:46.145Z</time>
    </trkpt>
    <trkpt lat="56.35538" lon="60.787596">
        <ele>324.0</ele>
        <time>1970-01-01T10:30:47.145Z</time>
    </trkpt>
    <trkpt lat="56.35539" lon="60.787605">
        <ele>324.0</ele>
        <time>1970-01-01T10:30:48.145Z</time>
    </trkpt>
    <trkpt lat="56.3554" lon="60.78762">
        <ele>324.0</ele>
        <time>1970-01-01T10:30:49.145Z</time>
    </trkpt>
    <trkpt lat="56.355403" lon="60.787633">
        <ele>324.0</ele>
        <time>1970-01-01T10:30:50.145Z</time>
    </trkpt>
    <trkpt lat="56.355406" lon="60.787651">
        <ele>324.0</ele>
        <time>1970-01-01T10:30:51.145Z</time>
    </trkpt>
    <trkpt lat="56.355412" lon="60.787677">
        <ele>324.0</ele>
        <time>1970-01-01T10:30:52.145Z</time>
    </trkpt>
    <trkpt lat="56.355422" lon="60.787695">
        <ele>324.0</ele>
        <time>1970-01-01T10:30:53.145Z</time>
    </trkpt>
    <trkpt lat="56.355428" lon="60.787706">
        <ele>326.0</ele>
        <time>1970-01-01T10:30:54.145Z</time>
    </trkpt>
    <trkpt lat="56.355441" lon="60.787726">
        <ele>326.0</ele>
        <time>1970-01-01T10:30:55.145Z</time>
    </trkpt>
    <trkpt lat="56.355443" lon="60.787741">
        <ele>326.0</ele>
        <time>1970-01-01T10:30:56.145Z</time>
    </trkpt>
    <trkpt lat="56.355451" lon="60.787759">
        <ele>326.0</ele>
        <time>1970-01-01T10:30:57.145Z</time>
    </trkpt>
    <trkpt lat="56.355458" lon="60.787771">
        <ele>325.0</ele>
        <time>1970-01-01T10:30:58.145Z</time>
    </trkpt>
    <trkpt lat="56.35547" lon="60.787776">
        <ele>325.0</ele>
        <time>1970-01-01T10:30:59.145Z</time>
    </trkpt>
    <trkpt lat="56.355474" lon="60.787785">
        <ele>325.0</ele>
        <time>1970-01-01T10:31:00.145Z</time>
    </trkpt>
    <trkpt lat="56.355482" lon="60.787806">
        <ele>325.0</ele>
        <time>1970-01-01T10:31:01.145Z</time>
    </trkpt>
    <trkpt lat="56.355488" lon="60.787817">
        <ele>325.0</ele>
        <time>1970-01-01T10:31:02.145Z</time>
    </trkpt>
    <trkpt lat="56.355492" lon="60.787814">
        <ele>325.0</ele>
        <time>1970-01-01T10:31:03.145Z</time>
    </trkpt>
    <trkpt lat="56.355499" lon="60.787828">
        <ele>325.0</ele>
        <time>1970-01-01T10:31:04.145Z</time>
    </trkpt>
    <trkpt lat="56.355506" lon="60.787842">
        <ele>325.0</ele>
        <time>1970-01-01T10:31:05.145Z</time>
    </trkpt>
    <trkpt lat="56.355519" lon="60.787872">
        <ele>326.0</ele>
        <time>1970-01-01T10:31:06.145Z</time>
    </trkpt>
    <trkpt lat="56.355529" lon="60.787891">
        <ele>326.0</ele>
        <time>1970-01-01T10:31:07.145Z</time>
    </trkpt>
    <trkpt lat="56.355534" lon="60.787907">
        <ele>326.0</ele>
        <time>1970-01-01T10:31:08.145Z</time>
    </trkpt>
    <trkpt lat="56.355537" lon="60.787924">
        <ele>326.0</ele>
        <time>1970-01-01T10:31:09.145Z</time>
    </trkpt>
    <trkpt lat="56.355542" lon="60.787937">
        <ele>326.0</ele>
        <time>1970-01-01T10:31:10.145Z</time>
    </trkpt>
    <trkpt lat="56.355546" lon="60.78795">
        <ele>326.0</ele>
        <time>1970-01-01T10:31:11.145Z</time>
    </trkpt>
    <trkpt lat="56.355551" lon="60.787964">
        <ele>325.0</ele>
        <time>1970-01-01T10:31:12.145Z</time>
    </trkpt>
    <trkpt lat="56.355558" lon="60.78799">
        <ele>325.0</ele>
        <time>1970-01-01T10:31:13.145Z</time>
    </trkpt>
    <trkpt lat="56.355566" lon="60.788003">
        <ele>325.0</ele>
        <time>1970-01-01T10:31:14.145Z</time>
    </trkpt>
    <trkpt lat="56.355575" lon="60.788021">
        <ele>325.0</ele>
        <time>1970-01-01T10:31:15.145Z</time>
    </trkpt>
    <trkpt lat="56.355581" lon="60.788027">
        <ele>325.0</ele>
        <time>1970-01-01T10:31:16.145Z</time>
    </trkpt>
    <trkpt lat="56.355594" lon="60.78804">
        <ele>325.0</ele>
        <time>1970-01-01T10:31:17.145Z</time>
    </trkpt>
    <trkpt lat="56.355606" lon="60.788061">
        <ele>327.0</ele>
        <time>1970-01-01T10:31:18.145Z</time>
    </trkpt>
    <trkpt lat="56.355615" lon="60.788084">
        <ele>327.0</ele>
        <time>1970-01-01T10:31:19.145Z</time>
    </trkpt>
    <trkpt lat="56.355614" lon="60.788097">
        <ele>327.0</ele>
        <time>1970-01-01T10:31:20.145Z</time>
    </trkpt>
    <trkpt lat="56.355621" lon="60.788114">
        <ele>327.0</ele>
        <time>1970-01-01T10:31:21.145Z</time>
    </trkpt>
    <trkpt lat="56.355629" lon="60.788118">
        <ele>327.0</ele>
        <time>1970-01-01T10:31:22.145Z</time>
    </trkpt>
    <trkpt lat="56.355637" lon="60.788125">
        <ele>327.0</ele>
        <time>1970-01-01T10:31:23.145Z</time>
    </trkpt>
    <trkpt lat="56.355651" lon="60.788142">
        <ele>326.0</ele>
        <time>1970-01-01T10:31:24.145Z</time>
    </trkpt>
    <trkpt lat="56.355665" lon="60.788155">
        <ele>326.0</ele>
        <time>1970-01-01T10:31:25.145Z</time>
    </trkpt>
    <trkpt lat="56.355675" lon="60.788166">
        <ele>326.0</ele>
        <time>1970-01-01T10:31:26.145Z</time>
    </trkpt>
    <trkpt lat="56.35569" lon="60.788181">
        <ele>326.0</ele>
        <time>1970-01-01T10:31:27.145Z</time>
    </trkpt>
    <trkpt lat="56.355701" lon="60.788196">
        <ele>326.0</ele>
        <time>1970-01-01T10:31:28.145Z</time>
    </trkpt>
    <trkpt lat="56.355704" lon="60.788209">
        <ele>326.0</ele>
        <time>1970-01-01T10:31:29.145Z</time>
    </trkpt>
    <trkpt lat="56.355714" lon="60.788222">
        <ele>327.0</ele>
        <time>1970-01-01T10:31:30.145Z</time>
    </trkpt>
    <trkpt lat="56.355723" lon="60.788234">
        <ele>327.0</ele>
        <time>1970-01-01T10:31:31.145Z</time>
    </trkpt>
    <trkpt lat="56.355732" lon="60.788248">
        <ele>327.0</ele>
        <time>1970-01-01T10:31:32.145Z</time>
    </trkpt>
    <trkpt lat="56.355732" lon="60.78826">
        <ele>327.0</ele>
        <time>1970-01-01T10:31:33.145Z</time>
    </trkpt>
    <trkpt lat="56.355739" lon="60.788277">
        <ele>327.0</ele>
        <time>1970-01-01T10:31:34.145Z</time>
    </trkpt>
    <trkpt lat="56.355745" lon="60.788293">
        <ele>326.0</ele>
        <time>1970-01-01T10:31:35.145Z</time>
    </trkpt>
    <trkpt lat="56.355751" lon="60.788308">
        <ele>326.0</ele>
        <time>1970-01-01T10:31:36.145Z</time>
    </trkpt>
    <trkpt lat="56.355763" lon="60.788336">
        <ele>326.0</ele>
        <time>1970-01-01T10:31:37.145Z</time>
    </trkpt>
    <trkpt lat="56.355775" lon="60.788357">
        <ele>326.0</ele>
        <time>1970-01-01T10:31:38.145Z</time>
    </trkpt>
    <trkpt lat="56.355784" lon="60.788376">
        <ele>326.0</ele>
        <time>1970-01-01T10:31:39.145Z</time>
    </trkpt>
    <trkpt lat="56.355783" lon="60.788382">
        <ele>326.0</ele>
        <time>1970-01-01T10:31:40.145Z</time>
    </trkpt>
    <trkpt lat="56.355792" lon="60.788402">
        <ele>327.0</ele>
        <time>1970-01-01T10:31:41.145Z</time>
    </trkpt>
    <trkpt lat="56.355797" lon="60.788422">
        <ele>327.0</ele>
        <time>1970-01-01T10:31:42.145Z</time>
    </trkpt>
    <trkpt lat="56.3558" lon="60.788433">
        <ele>327.0</ele>
        <time>1970-01-01T10:31:43.145Z</time>
    </trkpt>
    <trkpt lat="56.35581" lon="60.788449">
        <ele>327.0</ele>
        <time>1970-01-01T10:31:44.145Z</time>
    </trkpt>
    <trkpt lat="56.355819" lon="60.78846">
        <ele>327.0</ele>
        <time>1970-01-01T10:31:45.145Z</time>
    </trkpt>
    <trkpt lat="56.355829" lon="60.788472">
        <ele>327.0</ele>
        <time>1970-01-01T10:31:46.145Z</time>
    </trkpt>
    <trkpt lat="56.355847" lon="60.788501">
        <ele>326.0</ele>
        <time>1970-01-01T10:31:47.145Z</time>
    </trkpt>
    <trkpt lat="56.355863" lon="60.788513">
        <ele>326.0</ele>
        <time>1970-01-01T10:31:48.145Z</time>
    </trkpt>
    <trkpt lat="56.355876" lon="60.788524">
        <ele>326.0</ele>
        <time>1970-01-01T10:31:49.145Z</time>
    </trkpt>
    <trkpt lat="56.355878" lon="60.788525">
        <ele>326.0</ele>
        <time>1970-01-01T10:31:50.145Z</time>
    </trkpt>
    <trkpt lat="56.355885" lon="60.788537">
        <ele>326.0</ele>
        <time>1970-01-01T10:31:51.145Z</time>
    </trkpt>
    <trkpt lat="56.355896" lon="60.788549">
        <ele>326.0</ele>
        <time>1970-01-01T10:31:52.145Z</time>
    </trkpt>
    <trkpt lat="56.355908" lon="60.788557">
        <ele>326.0</ele>
        <time>1970-01-01T10:31:53.145Z</time>
    </trkpt>
    <trkpt lat="56.355916" lon="60.788566">
        <ele>326.0</ele>
        <time>1970-01-01T10:31:54.145Z</time>
    </trkpt>
    <trkpt lat="56.355926" lon="60.788576">
        <ele>326.0</ele>
        <time>1970-01-01T10:31:55.145Z</time>
    </trkpt>
    <trkpt lat="56.355934" lon="60.788586">
        <ele>326.0</ele>
        <time>1970-01-01T10:31:56.145Z</time>
    </trkpt>
    <trkpt lat="56.355941" lon="60.788597">
        <ele>326.0</ele>
        <time>1970-01-01T10:31:57.145Z</time>
    </trkpt>
    <trkpt lat="56.355947" lon="60.788608">
        <ele>326.0</ele>
        <time>1970-01-01T10:31:58.145Z</time>
    </trkpt>
    <trkpt lat="56.35596" lon="60.788635">
        <ele>326.0</ele>
        <time>1970-01-01T10:31:59.145Z</time>
    </trkpt>
    <trkpt lat="56.355968" lon="60.788653">
        <ele>326.0</ele>
        <time>1970-01-01T10:32:00.145Z</time>
    </trkpt>
    <trkpt lat="56.355972" lon="60.788661">
        <ele>326.0</ele>
        <time>1970-01-01T10:32:01.145Z</time>
    </trkpt>
    <trkpt lat="56.355979" lon="60.788669">
        <ele>326.0</ele>
        <time>1970-01-01T10:32:02.145Z</time>
    </trkpt>
    <trkpt lat="56.355984" lon="60.788674">
        <ele>326.0</ele>
        <time>1970-01-01T10:32:03.145Z</time>
    </trkpt>
    <trkpt lat="56.355994" lon="60.788689">
        <ele>326.0</ele>
        <time>1970-01-01T10:32:04.145Z</time>
    </trkpt>
    <trkpt lat="56.356004" lon="60.788709">
        <ele>326.0</ele>
        <time>1970-01-01T10:32:05.145Z</time>
    </trkpt>
    <trkpt lat="56.356008" lon="60.788719">
        <ele>326.0</ele>
        <time>1970-01-01T10:32:06.145Z</time>
    </trkpt>
    <trkpt lat="56.356011" lon="60.788739">
        <ele>325.0</ele>
        <time>1970-01-01T10:32:07.145Z</time>
    </trkpt>
    <trkpt lat="56.356023" lon="60.788755">
        <ele>325.0</ele>
        <time>1970-01-01T10:32:08.145Z</time>
    </trkpt>
    <trkpt lat="56.356017" lon="60.78877">
        <ele>325.0</ele>
        <time>1970-01-01T10:32:09.145Z</time>
    </trkpt>
    <trkpt lat="56.356024" lon="60.788777">
        <ele>325.0</ele>
        <time>1970-01-01T10:32:10.145Z</time>
    </trkpt>
    <trkpt lat="56.35603" lon="60.788783">
        <ele>325.0</ele>
        <time>1970-01-01T10:32:11.145Z</time>
    </trkpt>
    <trkpt lat="56.356038" lon="60.788802">
        <ele>325.0</ele>
        <time>1970-01-01T10:32:12.145Z</time>
    </trkpt>
    <trkpt lat="56.356041" lon="60.788818">
        <ele>325.0</ele>
        <time>1970-01-01T10:32:13.145Z</time>
    </trkpt>
    <trkpt lat="56.356046" lon="60.788838">
        <ele>325.0</ele>
        <time>1970-01-01T10:32:14.145Z</time>
    </trkpt>
    <trkpt lat="56.35605" lon="60.788839">
        <ele>325.0</ele>
        <time>1970-01-01T10:32:15.145Z</time>
    </trkpt>
    <trkpt lat="56.356053" lon="60.788859">
        <ele>325.0</ele>
        <time>1970-01-01T10:32:16.145Z</time>
    </trkpt>
    <trkpt lat="56.356056" lon="60.788873">
        <ele>325.0</ele>
        <time>1970-01-01T10:32:17.145Z</time>
    </trkpt>
    <trkpt lat="56.356058" lon="60.788891">
        <ele>325.0</ele>
        <time>1970-01-01T10:32:18.145Z</time>
    </trkpt>
    <trkpt lat="56.356067" lon="60.788912">
        <ele>324.0</ele>
        <time>1970-01-01T10:32:19.145Z</time>
    </trkpt>
    <trkpt lat="56.35607" lon="60.78893">
        <ele>324.0</ele>
        <time>1970-01-01T10:32:20.145Z</time>
    </trkpt>
    <trkpt lat="56.356067" lon="60.788945">
        <ele>324.0</ele>
        <time>1970-01-01T10:32:21.145Z</time>
    </trkpt>
    <trkpt lat="56.356065" lon="60.78896">
        <ele>324.0</ele>
        <time>1970-01-01T10:32:22.145Z</time>
    </trkpt>
    <trkpt lat="56.356069" lon="60.788998">
        <ele>324.0</ele>
        <time>1970-01-01T10:32:23.145Z</time>
    </trkpt>
    <trkpt lat="56.356081" lon="60.789">
        <ele>324.0</ele>
        <time>1970-01-01T10:32:24.145Z</time>
    </trkpt>
    <trkpt lat="56.356087" lon="60.789011">
        <ele>324.0</ele>
        <time>1970-01-01T10:32:25.145Z</time>
    </trkpt>
    <trkpt lat="56.356089" lon="60.789036">
        <ele>324.0</ele>
        <time>1970-01-01T10:32:26.145Z</time>
    </trkpt>
    <trkpt lat="56.356099" lon="60.78906">
        <ele>324.0</ele>
        <time>1970-01-01T10:32:27.145Z</time>
    </trkpt>
    <trkpt lat="56.356108" lon="60.789084">
        <ele>324.0</ele>
        <time>1970-01-01T10:32:28.145Z</time>
    </trkpt>
    <trkpt lat="56.356112" lon="60.789101">
        <ele>324.0</ele>
        <time>1970-01-01T10:32:29.145Z</time>
    </trkpt>
    <trkpt lat="56.356116" lon="60.78911">
        <ele>324.0</ele>
        <time>1970-01-01T10:32:30.145Z</time>
    </trkpt>
    <trkpt lat="56.356118" lon="60.789135">
        <ele>324.0</ele>
        <time>1970-01-01T10:32:31.145Z</time>
    </trkpt>
    <trkpt lat="56.356115" lon="60.789156">
        <ele>324.0</ele>
        <time>1970-01-01T10:32:32.145Z</time>
    </trkpt>
    <trkpt lat="56.356109" lon="60.78917">
        <ele>324.0</ele>
        <time>1970-01-01T10:32:33.145Z</time>
    </trkpt>
    <trkpt lat="56.356121" lon="60.78919">
        <ele>324.0</ele>
        <time>1970-01-01T10:32:34.145Z</time>
    </trkpt>
    <trkpt lat="56.356119" lon="60.789196">
        <ele>324.0</ele>
        <time>1970-01-01T10:32:35.145Z</time>
    </trkpt>
    <trkpt lat="56.356125" lon="60.789205">
        <ele>322.0</ele>
        <time>1970-01-01T10:32:36.145Z</time>
    </trkpt>
    <trkpt lat="56.356132" lon="60.789215">
        <ele>322.0</ele>
        <time>1970-01-01T10:32:37.145Z</time>
    </trkpt>
    <trkpt lat="56.356138" lon="60.789224">
        <ele>322.0</ele>
        <time>1970-01-01T10:32:38.145Z</time>
    </trkpt>
    <trkpt lat="56.35615" lon="60.789244">
        <ele>320.0</ele>
        <time>1970-01-01T10:32:39.145Z</time>
    </trkpt>
    <trkpt lat="56.356154" lon="60.789253">
        <ele>320.0</ele>
        <time>1970-01-01T10:32:40.145Z</time>
    </trkpt>
    <trkpt lat="56.356158" lon="60.789262">
        <ele>320.0</ele>
        <time>1970-01-01T10:32:41.145Z</time>
    </trkpt>
    <trkpt lat="56.356162" lon="60.789271">
        <ele>320.0</ele>
        <time>1970-01-01T10:32:42.145Z</time>
    </trkpt>
    <trkpt lat="56.356172" lon="60.789295">
        <ele>320.0</ele>
        <time>1970-01-01T10:32:43.145Z</time>
    </trkpt>
    <trkpt lat="56.356168" lon="60.789301">
        <ele>320.0</ele>
        <time>1970-01-01T10:32:44.145Z</time>
    </trkpt>
    <trkpt lat="56.356169" lon="60.789317">
        <ele>320.0</ele>
        <time>1970-01-01T10:32:45.145Z</time>
    </trkpt>
    <trkpt lat="56.356173" lon="60.789345">
        <ele>320.0</ele>
        <time>1970-01-01T10:32:46.145Z</time>
    </trkpt>
    <trkpt lat="56.356178" lon="60.789364">
        <ele>320.0</ele>
        <time>1970-01-01T10:32:47.145Z</time>
    </trkpt>
    <trkpt lat="56.356184" lon="60.789377">
        <ele>320.0</ele>
        <time>1970-01-01T10:32:48.145Z</time>
    </trkpt>
    <trkpt lat="56.35619" lon="60.78939">
        <ele>320.0</ele>
        <time>1970-01-01T10:32:49.145Z</time>
    </trkpt>
    <trkpt lat="56.356187" lon="60.789392">
        <ele>320.0</ele>
        <time>1970-01-01T10:32:50.145Z</time>
    </trkpt>
    <trkpt lat="56.35619" lon="60.789393">
        <ele>320.0</ele>
        <time>1970-01-01T10:32:51.145Z</time>
    </trkpt>
    <trkpt lat="56.356188" lon="60.789402">
        <ele>320.0</ele>
        <time>1970-01-01T10:32:52.145Z</time>
    </trkpt>
    <trkpt lat="56.356184" lon="60.789414">
        <ele>319.0</ele>
        <time>1970-01-01T10:32:53.145Z</time>
    </trkpt>
    <trkpt lat="56.356183" lon="60.789426">
        <ele>319.0</ele>
        <time>1970-01-01T10:32:54.145Z</time>
    </trkpt>
    <trkpt lat="56.356182" lon="60.789436">
        <ele>319.0</ele>
        <time>1970-01-01T10:32:55.145Z</time>
    </trkpt>
    <trkpt lat="56.35618" lon="60.789454">
        <ele>319.0</ele>
        <time>1970-01-01T10:32:56.145Z</time>
    </trkpt>
    <trkpt lat="56.356187" lon="60.789468">
        <ele>319.0</ele>
        <time>1970-01-01T10:32:57.145Z</time>
    </trkpt>
    <trkpt lat="56.356205" lon="60.789504">
        <ele>319.0</ele>
        <time>1970-01-01T10:32:58.145Z</time>
    </trkpt>
    <trkpt lat="56.356211" lon="60.789516">
        <ele>319.0</ele>
        <time>1970-01-01T10:32:59.145Z</time>
    </trkpt>
    <trkpt lat="56.35623" lon="60.789563">
        <ele>316.0</ele>
        <time>1970-01-01T10:33:00.145Z</time>
    </trkpt>
    <trkpt lat="56.356236" lon="60.789576">
        <ele>316.0</ele>
        <time>1970-01-01T10:33:01.145Z</time>
    </trkpt>
    <trkpt lat="56.356255" lon="60.789615">
        <ele>315.0</ele>
        <time>1970-01-01T10:33:02.145Z</time>
    </trkpt>
    <trkpt lat="56.356263" lon="60.789636">
        <ele>315.0</ele>
        <time>1970-01-01T10:33:03.145Z</time>
    </trkpt>
    <trkpt lat="56.356271" lon="60.789657">
        <ele>315.0</ele>
        <time>1970-01-01T10:33:04.145Z</time>
    </trkpt>
    <trkpt lat="56.356282" lon="60.789694">
        <ele>315.0</ele>
        <time>1970-01-01T10:33:05.145Z</time>
    </trkpt>
    <trkpt lat="56.356289" lon="60.789703">
        <ele>315.0</ele>
        <time>1970-01-01T10:33:06.145Z</time>
    </trkpt>
    <trkpt lat="56.356299" lon="60.789758">
        <ele>314.0</ele>
        <time>1970-01-01T10:33:07.145Z</time>
    </trkpt>
    <trkpt lat="56.356298" lon="60.789774">
        <ele>314.0</ele>
        <time>1970-01-01T10:33:08.145Z</time>
    </trkpt>
    <trkpt lat="56.356296" lon="60.789832">
        <ele>314.0</ele>
        <time>1970-01-01T10:33:09.145Z</time>
    </trkpt>
    <trkpt lat="56.356293" lon="60.789853">
        <ele>314.0</ele>
        <time>1970-01-01T10:33:10.145Z</time>
    </trkpt>
    <trkpt lat="56.356294" lon="60.789908">
        <ele>314.0</ele>
        <time>1970-01-01T10:33:11.145Z</time>
    </trkpt>
    <trkpt lat="56.356294" lon="60.789926">
        <ele>314.0</ele>
        <time>1970-01-01T10:33:12.145Z</time>
    </trkpt>
    <trkpt lat="56.356297" lon="60.789987">
        <ele>313.0</ele>
        <time>1970-01-01T10:33:13.145Z</time>
    </trkpt>
    <trkpt lat="56.356293" lon="60.790005">
        <ele>313.0</ele>
        <time>1970-01-01T10:33:14.145Z</time>
    </trkpt>
    <trkpt lat="56.356283" lon="60.790055">
        <ele>313.0</ele>
        <time>1970-01-01T10:33:15.145Z</time>
    </trkpt>
    <trkpt lat="56.356283" lon="60.790071">
        <ele>313.0</ele>
        <time>1970-01-01T10:33:16.145Z</time>
    </trkpt>
    <trkpt lat="56.356295" lon="60.79012">
        <ele>312.0</ele>
        <time>1970-01-01T10:33:17.145Z</time>
    </trkpt>
    <trkpt lat="56.356301" lon="60.790145">
        <ele>312.0</ele>
        <time>1970-01-01T10:33:18.145Z</time>
    </trkpt>
    <trkpt lat="56.356304" lon="60.790173">
        <ele>312.0</ele>
        <time>1970-01-01T10:33:19.145Z</time>
    </trkpt>
    <trkpt lat="56.356308" lon="60.790189">
        <ele>312.0</ele>
        <time>1970-01-01T10:33:20.145Z</time>
    </trkpt>
    <trkpt lat="56.356315" lon="60.790236">
        <ele>309.0</ele>
        <time>1970-01-01T10:33:21.145Z</time>
    </trkpt>
    <trkpt lat="56.356318" lon="60.790267">
        <ele>309.0</ele>
        <time>1970-01-01T10:33:22.145Z</time>
    </trkpt>
    <trkpt lat="56.356319" lon="60.790298">
        <ele>309.0</ele>
        <time>1970-01-01T10:33:23.145Z</time>
    </trkpt>
    <trkpt lat="56.356323" lon="60.790318">
        <ele>309.0</ele>
        <time>1970-01-01T10:33:24.145Z</time>
    </trkpt>
    <trkpt lat="56.35633" lon="60.790361">
        <ele>309.0</ele>
        <time>1970-01-01T10:33:25.145Z</time>
    </trkpt>
    <trkpt lat="56.35633" lon="60.790381">
        <ele>309.0</ele>
        <time>1970-01-01T10:33:26.145Z</time>
    </trkpt>
    <trkpt lat="56.356339" lon="60.79041">
        <ele>309.0</ele>
        <time>1970-01-01T10:33:27.145Z</time>
    </trkpt>
    <trkpt lat="56.356348" lon="60.790443">
        <ele>309.0</ele>
        <time>1970-01-01T10:33:28.145Z</time>
    </trkpt>
    <trkpt lat="56.356341" lon="60.790465">
        <ele>308.0</ele>
        <time>1970-01-01T10:33:29.145Z</time>
    </trkpt>
    <trkpt lat="56.356348" lon="60.790488">
        <ele>308.0</ele>
        <time>1970-01-01T10:33:30.145Z</time>
    </trkpt>
    <trkpt lat="56.356348" lon="60.790541">
        <ele>308.0</ele>
        <time>1970-01-01T10:33:31.145Z</time>
    </trkpt>
    <trkpt lat="56.356352" lon="60.790562">
        <ele>308.0</ele>
        <time>1970-01-01T10:33:32.145Z</time>
    </trkpt>
    <trkpt lat="56.356363" lon="60.790621">
        <ele>307.0</ele>
        <time>1970-01-01T10:33:33.145Z</time>
    </trkpt>
    <trkpt lat="56.35636" lon="60.79065">
        <ele>307.0</ele>
        <time>1970-01-01T10:33:34.145Z</time>
    </trkpt>
    <trkpt lat="56.356347" lon="60.790713">
        <ele>307.0</ele>
        <time>1970-01-01T10:33:35.145Z</time>
    </trkpt>
    <trkpt lat="56.356347" lon="60.790737">
        <ele>307.0</ele>
        <time>1970-01-01T10:33:36.145Z</time>
    </trkpt>
    <trkpt lat="56.356342" lon="60.790792">
        <ele>306.0</ele>
        <time>1970-01-01T10:33:37.145Z</time>
    </trkpt>
    <trkpt lat="56.356337" lon="60.790813">
        <ele>306.0</ele>
        <time>1970-01-01T10:33:38.145Z</time>
    </trkpt>
    <trkpt lat="56.356331" lon="60.790853">
        <ele>306.0</ele>
        <time>1970-01-01T10:33:39.145Z</time>
    </trkpt>
    <trkpt lat="56.35633" lon="60.79087">
        <ele>306.0</ele>
        <time>1970-01-01T10:33:40.145Z</time>
    </trkpt>
    <trkpt lat="56.356324" lon="60.790928">
        <ele>306.0</ele>
        <time>1970-01-01T10:33:41.145Z</time>
    </trkpt>
    <trkpt lat="56.356319" lon="60.790946">
        <ele>306.0</ele>
        <time>1970-01-01T10:33:42.145Z</time>
    </trkpt>
    <trkpt lat="56.35631" lon="60.790999">
        <ele>308.0</ele>
        <time>1970-01-01T10:33:43.145Z</time>
    </trkpt>
    <trkpt lat="56.356308" lon="60.791024">
        <ele>308.0</ele>
        <time>1970-01-01T10:33:44.145Z</time>
    </trkpt>
    <trkpt lat="56.356306" lon="60.791085">
        <ele>308.0</ele>
        <time>1970-01-01T10:33:45.145Z</time>
    </trkpt>
    <trkpt lat="56.356302" lon="60.791105">
        <ele>308.0</ele>
        <time>1970-01-01T10:33:46.145Z</time>
    </trkpt>
    <trkpt lat="56.356296" lon="60.791152">
        <ele>308.0</ele>
        <time>1970-01-01T10:33:47.145Z</time>
    </trkpt>
    <trkpt lat="56.356292" lon="60.791173">
        <ele>308.0</ele>
        <time>1970-01-01T10:33:48.145Z</time>
    </trkpt>
    <trkpt lat="56.356282" lon="60.791237">
        <ele>308.0</ele>
        <time>1970-01-01T10:33:49.145Z</time>
    </trkpt>
    <trkpt lat="56.356281" lon="60.791255">
        <ele>308.0</ele>
        <time>1970-01-01T10:33:50.145Z</time>
    </trkpt>
    <trkpt lat="56.356272" lon="60.791304">
        <ele>307.0</ele>
        <time>1970-01-01T10:33:51.145Z</time>
    </trkpt>
    <trkpt lat="56.356272" lon="60.791323">
        <ele>307.0</ele>
        <time>1970-01-01T10:33:52.145Z</time>
    </trkpt>
    <trkpt lat="56.356267" lon="60.791373">
        <ele>307.0</ele>
        <time>1970-01-01T10:33:53.145Z</time>
    </trkpt>
    <trkpt lat="56.356265" lon="60.791403">
        <ele>307.0</ele>
        <time>1970-01-01T10:33:54.145Z</time>
    </trkpt>
    <trkpt lat="56.356265" lon="60.791429">
        <ele>307.0</ele>
        <time>1970-01-01T10:33:55.145Z</time>
    </trkpt>
    <trkpt lat="56.356265" lon="60.791453">
        <ele>307.0</ele>
        <time>1970-01-01T10:33:56.145Z</time>
    </trkpt>
    <trkpt lat="56.356265" lon="60.791477">
        <ele>306.0</ele>
        <time>1970-01-01T10:33:57.145Z</time>
    </trkpt>
    <trkpt lat="56.356265" lon="60.791517">
        <ele>306.0</ele>
        <time>1970-01-01T10:33:58.145Z</time>
    </trkpt>
    <trkpt lat="56.356266" lon="60.791544">
        <ele>306.0</ele>
        <time>1970-01-01T10:33:59.145Z</time>
    </trkpt>
    <trkpt lat="56.356263" lon="60.79157">
        <ele>306.0</ele>
        <time>1970-01-01T10:34:00.145Z</time>
    </trkpt>
    <trkpt lat="56.35626" lon="60.791607">
        <ele>306.0</ele>
        <time>1970-01-01T10:34:01.145Z</time>
    </trkpt>
    <trkpt lat="56.356265" lon="60.791623">
        <ele>306.0</ele>
        <time>1970-01-01T10:34:02.145Z</time>
    </trkpt>
    <trkpt lat="56.356265" lon="60.791648">
        <ele>305.0</ele>
        <time>1970-01-01T10:34:03.145Z</time>
    </trkpt>
    <trkpt lat="56.35626" lon="60.791679">
        <ele>305.0</ele>
        <time>1970-01-01T10:34:04.145Z</time>
    </trkpt>
    <trkpt lat="56.356258" lon="60.791715">
        <ele>305.0</ele>
        <time>1970-01-01T10:34:05.145Z</time>
    </trkpt>
    <trkpt lat="56.356255" lon="60.79174">
        <ele>305.0</ele>
        <time>1970-01-01T10:34:06.145Z</time>
    </trkpt>
    <trkpt lat="56.356246" lon="60.791758">
        <ele>305.0</ele>
        <time>1970-01-01T10:34:07.145Z</time>
    </trkpt>
    <trkpt lat="56.356236" lon="60.791788">
        <ele>305.0</ele>
        <time>1970-01-01T10:34:08.145Z</time>
    </trkpt>
    <trkpt lat="56.356232" lon="60.791819">
        <ele>304.0</ele>
        <time>1970-01-01T10:34:09.145Z</time>
    </trkpt>
    <trkpt lat="56.356228" lon="60.791845">
        <ele>304.0</ele>
        <time>1970-01-01T10:34:10.145Z</time>
    </trkpt>
    <trkpt lat="56.356225" lon="60.791869">
        <ele>304.0</ele>
        <time>1970-01-01T10:34:11.145Z</time>
    </trkpt>
    <trkpt lat="56.356223" lon="60.791895">
        <ele>304.0</ele>
        <time>1970-01-01T10:34:12.145Z</time>
    </trkpt>
    <trkpt lat="56.35622" lon="60.791906">
        <ele>304.0</ele>
        <time>1970-01-01T10:34:13.145Z</time>
    </trkpt>
    <trkpt lat="56.356218" lon="60.791918">
        <ele>304.0</ele>
        <time>1970-01-01T10:34:14.145Z</time>
    </trkpt>
    <trkpt lat="56.356215" lon="60.791929">
        <ele>305.0</ele>
        <time>1970-01-01T10:34:15.145Z</time>
    </trkpt>
    <trkpt lat="56.35621" lon="60.791955">
        <ele>305.0</ele>
        <time>1970-01-01T10:34:16.145Z</time>
    </trkpt>
    <trkpt lat="56.356213" lon="60.791961">
        <ele>305.0</ele>
        <time>1970-01-01T10:34:17.145Z</time>
    </trkpt>
    <trkpt lat="56.356213" lon="60.791963">
        <ele>305.0</ele>
        <time>1970-01-01T10:34:18.145Z</time>
    </trkpt>
    <trkpt lat="56.356216" lon="60.791966">
        <ele>305.0</ele>
        <time>1970-01-01T10:34:19.145Z</time>
    </trkpt>
    <trkpt lat="56.356217" lon="60.791981">
        <ele>304.0</ele>
        <time>1970-01-01T10:34:20.145Z</time>
    </trkpt>
    <trkpt lat="56.356214" lon="60.791994">
        <ele>303.0</ele>
        <time>1970-01-01T10:34:21.145Z</time>
    </trkpt>
    <trkpt lat="56.356222" lon="60.7921">
        <ele>302.0</ele>
        <time>1970-01-01T10:35:07.145Z</time>
    </trkpt>
    <trkpt lat="56.356217" lon="60.792101">
        <ele>302.0</ele>
        <time>1970-01-01T10:35:08.145Z</time>
    </trkpt>
    <trkpt lat="56.356201" lon="60.792119">
        <ele>303.0</ele>
        <time>1970-01-01T10:35:09.145Z</time>
    </trkpt>
    <trkpt lat="56.356201" lon="60.792119">
        <ele>303.0</ele>
        <time>1970-01-01T10:35:10.145Z</time>
    </trkpt>
    <trkpt lat="56.356201" lon="60.792119">
        <ele>303.0</ele>
        <time>1970-01-01T10:35:11.145Z</time>
    </trkpt>
    <trkpt lat="56.356198" lon="60.792123">
        <ele>303.0</ele>
        <time>1970-01-01T10:35:12.145Z</time>
    </trkpt>
    <trkpt lat="56.356195" lon="60.792123">
        <ele>303.0</ele>
        <time>1970-01-01T10:35:13.145Z</time>
    </trkpt>
    <trkpt lat="56.356189" lon="60.792118">
        <ele>303.0</ele>
        <time>1970-01-01T10:35:14.145Z</time>
    </trkpt>
    <trkpt lat="56.356181" lon="60.792117">
        <ele>303.0</ele>
        <time>1970-01-01T10:35:15.145Z</time>
    </trkpt>
    <trkpt lat="56.356176" lon="60.792114">
        <ele>303.0</ele>
        <time>1970-01-01T10:35:16.145Z</time>
    </trkpt>
    <trkpt lat="56.35618" lon="60.79212">
        <ele>303.0</ele>
        <time>1970-01-01T10:35:17.145Z</time>
    </trkpt>
    <trkpt lat="56.356181" lon="60.792127">
        <ele>303.0</ele>
        <time>1970-01-01T10:35:18.145Z</time>
    </trkpt>
    <trkpt lat="56.356175" lon="60.792149">
        <ele>303.0</ele>
        <time>1970-01-01T10:35:19.145Z</time>
    </trkpt>
    <trkpt lat="56.356171" lon="60.792169">
        <ele>302.0</ele>
        <time>1970-01-01T10:35:20.145Z</time>
    </trkpt>
    <trkpt lat="56.356168" lon="60.792195">
        <ele>302.0</ele>
        <time>1970-01-01T10:35:21.145Z</time>
    </trkpt>
    <trkpt lat="56.356165" lon="60.792202">
        <ele>302.0</ele>
        <time>1970-01-01T10:35:22.145Z</time>
    </trkpt>
    <trkpt lat="56.356163" lon="60.792223">
        <ele>302.0</ele>
        <time>1970-01-01T10:35:23.145Z</time>
    </trkpt>
    <trkpt lat="56.356168" lon="60.79223">
        <ele>302.0</ele>
        <time>1970-01-01T10:35:24.145Z</time>
    </trkpt>
    <trkpt lat="56.356163" lon="60.792245">
        <ele>302.0</ele>
        <time>1970-01-01T10:35:25.145Z</time>
    </trkpt>
    <trkpt lat="56.356162" lon="60.79226">
        <ele>302.0</ele>
        <time>1970-01-01T10:35:26.145Z</time>
    </trkpt>
    <trkpt lat="56.35616" lon="60.792272">
        <ele>302.0</ele>
        <time>1970-01-01T10:35:27.145Z</time>
    </trkpt>
    <trkpt lat="56.356164" lon="60.792286">
        <ele>302.0</ele>
        <time>1970-01-01T10:35:28.145Z</time>
    </trkpt>
    <trkpt lat="56.35616" lon="60.792306">
        <ele>302.0</ele>
        <time>1970-01-01T10:35:29.145Z</time>
    </trkpt>
    <trkpt lat="56.356155" lon="60.792318">
        <ele>302.0</ele>
        <time>1970-01-01T10:35:30.145Z</time>
    </trkpt>
    <trkpt lat="56.356153" lon="60.79233">
        <ele>302.0</ele>
        <time>1970-01-01T10:35:31.145Z</time>
    </trkpt>
    <trkpt lat="56.35615" lon="60.792347">
        <ele>300.0</ele>
        <time>1970-01-01T10:35:32.145Z</time>
    </trkpt>
    <trkpt lat="56.356145" lon="60.792368">
        <ele>300.0</ele>
        <time>1970-01-01T10:35:33.145Z</time>
    </trkpt>
    <trkpt lat="56.356141" lon="60.792376">
        <ele>300.0</ele>
        <time>1970-01-01T10:35:34.145Z</time>
    </trkpt>
    <trkpt lat="56.356136" lon="60.792389">
        <ele>300.0</ele>
        <time>1970-01-01T10:35:35.145Z</time>
    </trkpt>
    <trkpt lat="56.356131" lon="60.792401">
        <ele>300.0</ele>
        <time>1970-01-01T10:35:36.145Z</time>
    </trkpt>
    <trkpt lat="56.356125" lon="60.792414">
        <ele>300.0</ele>
        <time>1970-01-01T10:35:37.145Z</time>
    </trkpt>
    <trkpt lat="56.356123" lon="60.792439">
        <ele>300.0</ele>
        <time>1970-01-01T10:35:38.145Z</time>
    </trkpt>
    <trkpt lat="56.35612" lon="60.792464">
        <ele>301.0</ele>
        <time>1970-01-01T10:35:39.145Z</time>
    </trkpt>
    <trkpt lat="56.356122" lon="60.792482">
        <ele>300.0</ele>
        <time>1970-01-01T10:35:40.145Z</time>
    </trkpt>
    <trkpt lat="56.356116" lon="60.79249">
        <ele>301.0</ele>
        <time>1970-01-01T10:35:41.145Z</time>
    </trkpt>
    <trkpt lat="56.356111" lon="60.79251">
        <ele>300.0</ele>
        <time>1970-01-01T10:35:42.145Z</time>
    </trkpt>
    <trkpt lat="56.356103" lon="60.792532">
        <ele>300.0</ele>
        <time>1970-01-01T10:35:43.145Z</time>
    </trkpt>
    <trkpt lat="56.3561" lon="60.792546">
        <ele>300.0</ele>
        <time>1970-01-01T10:35:44.145Z</time>
    </trkpt>
    <trkpt lat="56.3561" lon="60.792571">
        <ele>300.0</ele>
        <time>1970-01-01T10:35:45.145Z</time>
    </trkpt>
    <trkpt lat="56.356096" lon="60.792584">
        <ele>300.0</ele>
        <time>1970-01-01T10:35:46.145Z</time>
    </trkpt>
    <trkpt lat="56.356092" lon="60.7926">
        <ele>300.0</ele>
        <time>1970-01-01T10:35:47.145Z</time>
    </trkpt>
    <trkpt lat="56.356091" lon="60.792616">
        <ele>300.0</ele>
        <time>1970-01-01T10:35:48.145Z</time>
    </trkpt>
    <trkpt lat="56.356085" lon="60.79263">
        <ele>300.0</ele>
        <time>1970-01-01T10:35:49.145Z</time>
    </trkpt>
    <trkpt lat="56.356083" lon="60.792647">
        <ele>300.0</ele>
        <time>1970-01-01T10:35:50.145Z</time>
    </trkpt>
    <trkpt lat="56.356084" lon="60.792662">
        <ele>300.0</ele>
        <time>1970-01-01T10:35:51.145Z</time>
    </trkpt>
    <trkpt lat="56.356084" lon="60.792676">
        <ele>299.0</ele>
        <time>1970-01-01T10:35:52.145Z</time>
    </trkpt>
    <trkpt lat="56.356083" lon="60.792689">
        <ele>299.0</ele>
        <time>1970-01-01T10:35:53.145Z</time>
    </trkpt>
    <trkpt lat="56.356078" lon="60.79271">
        <ele>299.0</ele>
        <time>1970-01-01T10:35:54.145Z</time>
    </trkpt>
    <trkpt lat="56.356071" lon="60.79273">
        <ele>299.0</ele>
        <time>1970-01-01T10:35:55.145Z</time>
    </trkpt>
    <trkpt lat="56.35607" lon="60.792746">
        <ele>299.0</ele>
        <time>1970-01-01T10:35:56.145Z</time>
    </trkpt>
    <trkpt lat="56.356067" lon="60.792768">
        <ele>299.0</ele>
        <time>1970-01-01T10:35:57.145Z</time>
    </trkpt>
    <trkpt lat="56.356063" lon="60.792785">
        <ele>299.0</ele>
        <time>1970-01-01T10:35:58.145Z</time>
    </trkpt>
    <trkpt lat="56.356059" lon="60.792803">
        <ele>299.0</ele>
        <time>1970-01-01T10:35:59.145Z</time>
    </trkpt>
    <trkpt lat="56.356051" lon="60.792833">
        <ele>299.0</ele>
        <time>1970-01-01T10:36:00.145Z</time>
    </trkpt>
    <trkpt lat="56.356051" lon="60.792844">
        <ele>299.0</ele>
        <time>1970-01-01T10:36:01.145Z</time>
    </trkpt>
    <trkpt lat="56.356042" lon="60.792861">
        <ele>298.0</ele>
        <time>1970-01-01T10:36:02.145Z</time>
    </trkpt>
    <trkpt lat="56.356033" lon="60.792876">
        <ele>298.0</ele>
        <time>1970-01-01T10:36:03.145Z</time>
    </trkpt>
    <trkpt lat="56.356022" lon="60.792896">
        <ele>298.0</ele>
        <time>1970-01-01T10:36:04.145Z</time>
    </trkpt>
    <trkpt lat="56.356015" lon="60.792905">
        <ele>298.0</ele>
        <time>1970-01-01T10:36:05.145Z</time>
    </trkpt>
    <trkpt lat="56.356012" lon="60.792918">
        <ele>298.0</ele>
        <time>1970-01-01T10:36:06.145Z</time>
    </trkpt>
    <trkpt lat="56.356008" lon="60.792924">
        <ele>298.0</ele>
        <time>1970-01-01T10:36:07.145Z</time>
    </trkpt>
    <trkpt lat="56.356003" lon="60.792928">
        <ele>298.0</ele>
        <time>1970-01-01T10:36:08.145Z</time>
    </trkpt>
    <trkpt lat="56.355995" lon="60.792933">
        <ele>298.0</ele>
        <time>1970-01-01T10:36:09.145Z</time>
    </trkpt>
    <trkpt lat="56.35599" lon="60.792953">
        <ele>298.0</ele>
        <time>1970-01-01T10:36:10.145Z</time>
    </trkpt>
    <trkpt lat="56.355983" lon="60.792967">
        <ele>298.0</ele>
        <time>1970-01-01T10:36:11.145Z</time>
    </trkpt>
    <trkpt lat="56.355972" lon="60.793017">
        <ele>298.0</ele>
        <time>1970-01-01T10:36:12.145Z</time>
    </trkpt>
    <trkpt lat="56.355967" lon="60.793034">
        <ele>299.0</ele>
        <time>1970-01-01T10:36:13.145Z</time>
    </trkpt>
    <trkpt lat="56.355947" lon="60.793089">
        <ele>299.0</ele>
        <time>1970-01-01T10:36:14.145Z</time>
    </trkpt>
    <trkpt lat="56.355938" lon="60.793138">
        <ele>299.0</ele>
        <time>1970-01-01T10:36:15.145Z</time>
    </trkpt>
    <trkpt lat="56.355933" lon="60.793153">
        <ele>299.0</ele>
        <time>1970-01-01T10:36:16.145Z</time>
    </trkpt>
    <trkpt lat="56.35591" lon="60.793186">
        <ele>298.0</ele>
        <time>1970-01-01T10:36:17.145Z</time>
    </trkpt>
    <trkpt lat="56.355901" lon="60.793202">
        <ele>299.0</ele>
        <time>1970-01-01T10:36:18.145Z</time>
    </trkpt>
    <trkpt lat="56.355868" lon="60.793244">
        <ele>299.0</ele>
        <time>1970-01-01T10:36:19.145Z</time>
    </trkpt>
    <trkpt lat="56.355857" lon="60.793256">
        <ele>299.0</ele>
        <time>1970-01-01T10:36:20.145Z</time>
    </trkpt>
    <trkpt lat="56.355836" lon="60.79329">
        <ele>299.0</ele>
        <time>1970-01-01T10:36:21.145Z</time>
    </trkpt>
    <trkpt lat="56.355825" lon="60.793301">
        <ele>298.0</ele>
        <time>1970-01-01T10:36:22.145Z</time>
    </trkpt>
    <trkpt lat="56.355803" lon="60.793342">
        <ele>298.0</ele>
        <time>1970-01-01T10:36:23.145Z</time>
    </trkpt>
    <trkpt lat="56.355791" lon="60.793355">
        <ele>298.0</ele>
        <time>1970-01-01T10:36:24.145Z</time>
    </trkpt>
    <trkpt lat="56.355758" lon="60.79339">
        <ele>298.0</ele>
        <time>1970-01-01T10:36:25.145Z</time>
    </trkpt>
    <trkpt lat="56.35575" lon="60.793406">
        <ele>298.0</ele>
        <time>1970-01-01T10:36:26.145Z</time>
    </trkpt>
    <trkpt lat="56.355729" lon="60.793445">
        <ele>298.0</ele>
        <time>1970-01-01T10:36:27.145Z</time>
    </trkpt>
    <trkpt lat="56.35572" lon="60.793463">
        <ele>298.0</ele>
        <time>1970-01-01T10:36:28.145Z</time>
    </trkpt>
    <trkpt lat="56.355705" lon="60.793482">
        <ele>298.0</ele>
        <time>1970-01-01T10:36:29.145Z</time>
    </trkpt>
    <trkpt lat="56.355699" lon="60.793483">
        <ele>298.0</ele>
        <time>1970-01-01T10:36:30.145Z</time>
    </trkpt>
    <trkpt lat="56.355694" lon="60.793484">
        <ele>298.0</ele>
        <time>1970-01-01T10:36:31.145Z</time>
    </trkpt>
    <trkpt lat="56.355688" lon="60.793485">
        <ele>298.0</ele>
        <time>1970-01-01T10:36:32.145Z</time>
    </trkpt>
    <trkpt lat="56.355682" lon="60.793486">
        <ele>298.0</ele>
        <time>1970-01-01T10:36:33.145Z</time>
    </trkpt>
    <trkpt lat="56.355671" lon="60.793512">
        <ele>298.0</ele>
        <time>1970-01-01T10:36:34.145Z</time>
    </trkpt>
    <trkpt lat="56.35566" lon="60.793528">
        <ele>298.0</ele>
        <time>1970-01-01T10:36:35.145Z</time>
    </trkpt>
    <trkpt lat="56.355631" lon="60.793563">
        <ele>298.0</ele>
        <time>1970-01-01T10:36:36.145Z</time>
    </trkpt>
    <trkpt lat="56.355601" lon="60.793605">
        <ele>298.0</ele>
        <time>1970-01-01T10:36:37.145Z</time>
    </trkpt>
    <trkpt lat="56.355576" lon="60.793634">
        <ele>298.0</ele>
        <time>1970-01-01T10:36:38.145Z</time>
    </trkpt>
    <trkpt lat="56.355553" lon="60.793662">
        <ele>298.0</ele>
        <time>1970-01-01T10:36:39.145Z</time>
    </trkpt>
    <trkpt lat="56.355537" lon="60.793681">
        <ele>299.0</ele>
        <time>1970-01-01T10:36:40.145Z</time>
    </trkpt>
    <trkpt lat="56.355504" lon="60.793732">
        <ele>299.0</ele>
        <time>1970-01-01T10:36:41.145Z</time>
    </trkpt>
    <trkpt lat="56.355478" lon="60.793754">
        <ele>299.0</ele>
        <time>1970-01-01T10:36:42.145Z</time>
    </trkpt>
    <trkpt lat="56.35545" lon="60.793781">
        <ele>300.0</ele>
        <time>1970-01-01T10:36:43.145Z</time>
    </trkpt>
    <trkpt lat="56.355416" lon="60.793803">
        <ele>300.0</ele>
        <time>1970-01-01T10:36:44.145Z</time>
    </trkpt>
    <trkpt lat="56.355387" lon="60.793826">
        <ele>300.0</ele>
        <time>1970-01-01T10:36:45.145Z</time>
    </trkpt>
    <trkpt lat="56.355373" lon="60.793835">
        <ele>300.0</ele>
        <time>1970-01-01T10:36:46.145Z</time>
    </trkpt>
    <trkpt lat="56.355345" lon="60.793874">
        <ele>301.0</ele>
        <time>1970-01-01T10:36:47.145Z</time>
    </trkpt>
    <trkpt lat="56.355314" lon="60.793911">
        <ele>300.0</ele>
        <time>1970-01-01T10:36:48.145Z</time>
    </trkpt>
    <trkpt lat="56.355303" lon="60.793923">
        <ele>300.0</ele>
        <time>1970-01-01T10:36:49.145Z</time>
    </trkpt>
    <trkpt lat="56.355272" lon="60.793962">
        <ele>300.0</ele>
        <time>1970-01-01T10:36:50.145Z</time>
    </trkpt>
    <trkpt lat="56.355255" lon="60.793974">
        <ele>301.0</ele>
        <time>1970-01-01T10:36:51.145Z</time>
    </trkpt>
    <trkpt lat="56.355219" lon="60.794007">
        <ele>301.0</ele>
        <time>1970-01-01T10:36:52.145Z</time>
    </trkpt>
    <trkpt lat="56.355196" lon="60.794035">
        <ele>301.0</ele>
        <time>1970-01-01T10:36:53.145Z</time>
    </trkpt>
    <trkpt lat="56.35516" lon="60.79407">
        <ele>301.0</ele>
        <time>1970-01-01T10:36:54.145Z</time>
    </trkpt>
    <trkpt lat="56.355128" lon="60.794097">
        <ele>301.0</ele>
        <time>1970-01-01T10:36:55.145Z</time>
    </trkpt>
    <trkpt lat="56.355113" lon="60.794117">
        <ele>301.0</ele>
        <time>1970-01-01T10:36:56.145Z</time>
    </trkpt>
    <trkpt lat="56.355077" lon="60.794161">
        <ele>301.0</ele>
        <time>1970-01-01T10:36:57.145Z</time>
    </trkpt>
    <trkpt lat="56.355046" lon="60.794187">
        <ele>301.0</ele>
        <time>1970-01-01T10:36:58.145Z</time>
    </trkpt>
    <trkpt lat="56.355017" lon="60.794221">
        <ele>300.0</ele>
        <time>1970-01-01T10:36:59.145Z</time>
    </trkpt>
    <trkpt lat="56.354989" lon="60.794254">
        <ele>300.0</ele>
        <time>1970-01-01T10:37:00.145Z</time>
    </trkpt>
    <trkpt lat="56.354963" lon="60.794289">
        <ele>300.0</ele>
        <time>1970-01-01T10:37:01.145Z</time>
    </trkpt>
    <trkpt lat="56.354935" lon="60.794322">
        <ele>300.0</ele>
        <time>1970-01-01T10:37:02.145Z</time>
    </trkpt>
    <trkpt lat="56.3549" lon="60.794357">
        <ele>300.0</ele>
        <time>1970-01-01T10:37:03.145Z</time>
    </trkpt>
    <trkpt lat="56.354885" lon="60.794367">
        <ele>300.0</ele>
        <time>1970-01-01T10:37:04.145Z</time>
    </trkpt>
    <trkpt lat="56.354849" lon="60.794405">
        <ele>300.0</ele>
        <time>1970-01-01T10:37:05.145Z</time>
    </trkpt>
    <trkpt lat="56.354823" lon="60.794438">
        <ele>300.0</ele>
        <time>1970-01-01T10:37:06.145Z</time>
    </trkpt>
    <trkpt lat="56.354794" lon="60.794463">
        <ele>300.0</ele>
        <time>1970-01-01T10:37:07.145Z</time>
    </trkpt>
    <trkpt lat="56.354768" lon="60.794502">
        <ele>300.0</ele>
        <time>1970-01-01T10:37:08.145Z</time>
    </trkpt>
    <trkpt lat="56.354745" lon="60.794532">
        <ele>300.0</ele>
        <time>1970-01-01T10:37:09.145Z</time>
    </trkpt>
    <trkpt lat="56.354736" lon="60.794543">
        <ele>300.0</ele>
        <time>1970-01-01T10:37:10.145Z</time>
    </trkpt>
    <trkpt lat="56.354715" lon="60.794581">
        <ele>299.0</ele>
        <time>1970-01-01T10:37:11.145Z</time>
    </trkpt>
    <trkpt lat="56.354689" lon="60.794611">
        <ele>299.0</ele>
        <time>1970-01-01T10:37:12.145Z</time>
    </trkpt>
    <trkpt lat="56.354667" lon="60.794639">
        <ele>299.0</ele>
        <time>1970-01-01T10:37:13.145Z</time>
    </trkpt>
    <trkpt lat="56.354656" lon="60.794652">
        <ele>299.0</ele>
        <time>1970-01-01T10:37:14.145Z</time>
    </trkpt>
    <trkpt lat="56.354627" lon="60.7947">
        <ele>299.0</ele>
        <time>1970-01-01T10:37:15.145Z</time>
    </trkpt>
    <trkpt lat="56.354606" lon="60.794733">
        <ele>299.0</ele>
        <time>1970-01-01T10:37:16.145Z</time>
    </trkpt>
    <trkpt lat="56.354594" lon="60.794749">
        <ele>298.0</ele>
        <time>1970-01-01T10:37:17.145Z</time>
    </trkpt>
    <trkpt lat="56.354567" lon="60.794781">
        <ele>298.0</ele>
        <time>1970-01-01T10:37:18.145Z</time>
    </trkpt>
    <trkpt lat="56.354546" lon="60.794816">
        <ele>298.0</ele>
        <time>1970-01-01T10:37:19.145Z</time>
    </trkpt>
    <trkpt lat="56.354535" lon="60.794834">
        <ele>298.0</ele>
        <time>1970-01-01T10:37:20.145Z</time>
    </trkpt>
    <trkpt lat="56.35451" lon="60.794888">
        <ele>298.0</ele>
        <time>1970-01-01T10:37:21.145Z</time>
    </trkpt>
    <trkpt lat="56.3545" lon="60.794907">
        <ele>298.0</ele>
        <time>1970-01-01T10:37:22.145Z</time>
    </trkpt>
    <trkpt lat="56.354476" lon="60.794959">
        <ele>298.0</ele>
        <time>1970-01-01T10:37:23.145Z</time>
    </trkpt>
    <trkpt lat="56.354444" lon="60.795005">
        <ele>298.0</ele>
        <time>1970-01-01T10:37:24.145Z</time>
    </trkpt>
    <trkpt lat="56.354423" lon="60.795039">
        <ele>298.0</ele>
        <time>1970-01-01T10:37:25.145Z</time>
    </trkpt>
    <trkpt lat="56.354413" lon="60.795064">
        <ele>298.0</ele>
        <time>1970-01-01T10:37:26.145Z</time>
    </trkpt>
    <trkpt lat="56.354384" lon="60.79512">
        <ele>298.1</ele>
        <time>1970-01-01T10:37:27.145Z</time>
    </trkpt>
    <trkpt lat="56.354359" lon="60.79515">
        <ele>298.1</ele>
        <time>1970-01-01T10:37:28.145Z</time>
    </trkpt>
    <trkpt lat="56.354352" lon="60.795162">
        <ele>298.2</ele>
        <time>1970-01-01T10:37:29.145Z</time>
    </trkpt>
    <trkpt lat="56.354326" lon="60.795201">
        <ele>298.2</ele>
        <time>1970-01-01T10:37:30.145Z</time>
    </trkpt>
    <trkpt lat="56.354314" lon="60.795214">
        <ele>299.3</ele>
        <time>1970-01-01T10:37:31.145Z</time>
    </trkpt>
    <trkpt lat="56.354282" lon="60.795248">
        <ele>299.3</ele>
        <time>1970-01-01T10:37:32.145Z</time>
    </trkpt>
    <trkpt lat="56.354272" lon="60.795265">
        <ele>298.4</ele>
        <time>1970-01-01T10:37:33.145Z</time>
    </trkpt>
    <trkpt lat="56.354241" lon="60.795311">
        <ele>298.4</ele>
        <time>1970-01-01T10:37:34.145Z</time>
    </trkpt>
    <trkpt lat="56.354236" lon="60.795323">
        <ele>298.5</ele>
        <time>1970-01-01T10:37:35.145Z</time>
    </trkpt>
    <trkpt lat="56.354214" lon="60.795361">
        <ele>300.5</ele>
        <time>1970-01-01T10:37:36.145Z</time>
    </trkpt>
    <trkpt lat="56.354196" lon="60.795399">
        <ele>300.6</ele>
        <time>1970-01-01T10:37:37.145Z</time>
    </trkpt>
    <trkpt lat="56.354186" lon="60.795418">
        <ele>300.6</ele>
        <time>1970-01-01T10:37:38.145Z</time>
    </trkpt>
    <trkpt lat="56.354161" lon="60.795458">
        <ele>298.7</ele>
        <time>1970-01-01T10:37:39.145Z</time>
    </trkpt>
    <trkpt lat="56.354149" lon="60.795473">
        <ele>298.7</ele>
        <time>1970-01-01T10:37:40.145Z</time>
    </trkpt>
    <trkpt lat="56.354131" lon="60.795511">
        <ele>298.8</ele>
        <time>1970-01-01T10:37:41.145Z</time>
    </trkpt>
    <trkpt lat="56.354122" lon="60.795531">
        <ele>300.8</ele>
        <time>1970-01-01T10:37:42.145Z</time>
    </trkpt>
    <trkpt lat="56.354099" lon="60.795577">
        <ele>300.9</ele>
        <time>1970-01-01T10:37:43.145Z</time>
    </trkpt>
    <trkpt lat="56.354079" lon="60.795619">
        <ele>300.0</ele>
        <time>1970-01-01T10:37:44.145Z</time>
    </trkpt>
    <trkpt lat="56.35406" lon="60.795659">
        <ele>300.0</ele>
        <time>1970-01-01T10:37:45.145Z</time>
    </trkpt>
    <trkpt lat="56.354048" lon="60.795684">
        <ele>300.1</ele>
        <time>1970-01-01T10:37:46.145Z</time>
    </trkpt>
    <trkpt lat="56.354029" lon="60.795746">
        <ele>300.1</ele>
        <time>1970-01-01T10:37:47.145Z</time>
    </trkpt>
    <trkpt lat="56.354009" lon="60.795787">
        <ele>300.2</ele>
        <time>1970-01-01T10:37:48.145Z</time>
    </trkpt>
    <trkpt lat="56.353992" lon="60.795835">
        <ele>300.2</ele>
        <time>1970-01-01T10:37:49.145Z</time>
    </trkpt>
    <trkpt lat="56.353973" lon="60.795876">
        <ele>300.3</ele>
        <time>1970-01-01T10:37:50.145Z</time>
    </trkpt>
    <trkpt lat="56.353957" lon="60.795922">
        <ele>300.3</ele>
        <time>1970-01-01T10:37:51.145Z</time>
    </trkpt>
    <trkpt lat="56.353951" lon="60.79594">
        <ele>299.4</ele>
        <time>1970-01-01T10:37:52.145Z</time>
    </trkpt>
    <trkpt lat="56.353934" lon="60.795983">
        <ele>299.4</ele>
        <time>1970-01-01T10:37:53.145Z</time>
    </trkpt>
    <trkpt lat="56.353925" lon="60.796">
        <ele>300.5</ele>
        <time>1970-01-01T10:37:54.145Z</time>
    </trkpt>
    <trkpt lat="56.353903" lon="60.796053">
        <ele>300.5</ele>
        <time>1970-01-01T10:37:55.145Z</time>
    </trkpt>
    <trkpt lat="56.353893" lon="60.796075">
        <ele>300.6</ele>
        <time>1970-01-01T10:37:56.145Z</time>
    </trkpt>
    <trkpt lat="56.353867" lon="60.796134">
        <ele>299.6</ele>
        <time>1970-01-01T10:37:57.145Z</time>
    </trkpt>
    <trkpt lat="56.353858" lon="60.796158">
        <ele>299.7</ele>
        <time>1970-01-01T10:37:58.145Z</time>
    </trkpt>
    <trkpt lat="56.353832" lon="60.796214">
        <ele>300.7</ele>
        <time>1970-01-01T10:37:59.145Z</time>
    </trkpt>
    <trkpt lat="56.353822" lon="60.796228">
        <ele>300.8</ele>
        <time>1970-01-01T10:38:00.145Z</time>
    </trkpt>
    <trkpt lat="56.353793" lon="60.796263">
        <ele>300.9</ele>
        <time>1970-01-01T10:38:01.145Z</time>
    </trkpt>
    <trkpt lat="56.353771" lon="60.796303">
        <ele>299.9</ele>
        <time>1970-01-01T10:38:02.145Z</time>
    </trkpt>
    <trkpt lat="56.353752" lon="60.796341">
        <ele>300.0</ele>
        <time>1970-01-01T10:38:03.145Z</time>
    </trkpt>
    <trkpt lat="56.353729" lon="60.796379">
        <ele>301.0</ele>
        <time>1970-01-01T10:38:04.145Z</time>
    </trkpt>
    <trkpt lat="56.353709" lon="60.796412">
        <ele>301.1</ele>
        <time>1970-01-01T10:38:05.145Z</time>
    </trkpt>
    <trkpt lat="56.353689" lon="60.796449">
        <ele>301.1</ele>
        <time>1970-01-01T10:38:06.145Z</time>
    </trkpt>
    <trkpt lat="56.353668" lon="60.796482">
        <ele>300.2</ele>
        <time>1970-01-01T10:38:07.145Z</time>
    </trkpt>
    <trkpt lat="56.353645" lon="60.796514">
        <ele>300.2</ele>
        <time>1970-01-01T10:38:08.145Z</time>
    </trkpt>
    <trkpt lat="56.353623" lon="60.796573">
        <ele>300.3</ele>
        <time>1970-01-01T10:38:09.145Z</time>
    </trkpt>
    <trkpt lat="56.353614" lon="60.796592">
        <ele>300.3</ele>
        <time>1970-01-01T10:38:10.145Z</time>
    </trkpt>
    <trkpt lat="56.35358" lon="60.796634">
        <ele>299.4</ele>
        <time>1970-01-01T10:38:11.145Z</time>
    </trkpt>
    <trkpt lat="56.353559" lon="60.796668">
        <ele>299.4</ele>
        <time>1970-01-01T10:38:12.145Z</time>
    </trkpt>
    <trkpt lat="56.353537" lon="60.796702">
        <ele>299.5</ele>
        <time>1970-01-01T10:38:13.145Z</time>
    </trkpt>
    <trkpt lat="56.353528" lon="60.796715">
        <ele>299.5</ele>
        <time>1970-01-01T10:38:14.145Z</time>
    </trkpt>
    <trkpt lat="56.3535" lon="60.796758">
        <ele>299.6</ele>
        <time>1970-01-01T10:38:15.145Z</time>
    </trkpt>
    <trkpt lat="56.353479" lon="60.796801">
        <ele>299.7</ele>
        <time>1970-01-01T10:38:16.145Z</time>
    </trkpt>
    <trkpt lat="56.353451" lon="60.79685">
        <ele>299.7</ele>
        <time>1970-01-01T10:38:17.145Z</time>
    </trkpt>
    <trkpt lat="56.353429" lon="60.796894">
        <ele>299.8</ele>
        <time>1970-01-01T10:38:18.145Z</time>
    </trkpt>
    <trkpt lat="56.353401" lon="60.796929">
        <ele>299.8</ele>
        <time>1970-01-01T10:38:19.145Z</time>
    </trkpt>
    <trkpt lat="56.353367" lon="60.796966">
        <ele>299.9</ele>
        <time>1970-01-01T10:38:20.145Z</time>
    </trkpt>
    <trkpt lat="56.353352" lon="60.79698">
        <ele>299.9</ele>
        <time>1970-01-01T10:38:21.145Z</time>
    </trkpt>
    <trkpt lat="56.353314" lon="60.797014">
        <ele>300.0</ele>
        <time>1970-01-01T10:38:22.145Z</time>
    </trkpt>
    <trkpt lat="56.353285" lon="60.797031">
        <ele>300.0</ele>
        <time>1970-01-01T10:38:23.145Z</time>
    </trkpt>
    <trkpt lat="56.353274" lon="60.797046">
        <ele>300.1</ele>
        <time>1970-01-01T10:38:24.145Z</time>
    </trkpt>
    <trkpt lat="56.353238" lon="60.797073">
        <ele>300.1</ele>
        <time>1970-01-01T10:38:25.145Z</time>
    </trkpt>
    <trkpt lat="56.353224" lon="60.797088">
        <ele>300.2</ele>
        <time>1970-01-01T10:38:26.145Z</time>
    </trkpt>
    <trkpt lat="56.353189" lon="60.79712">
        <ele>300.2</ele>
        <time>1970-01-01T10:38:27.145Z</time>
    </trkpt>
    <trkpt lat="56.353144" lon="60.79716">
        <ele>299.3</ele>
        <time>1970-01-01T10:38:28.145Z</time>
    </trkpt>
    <trkpt lat="56.353114" lon="60.79718">
        <ele>299.3</ele>
        <time>1970-01-01T10:38:29.145Z</time>
    </trkpt>
    <trkpt lat="56.353084" lon="60.797217">
        <ele>299.4</ele>
        <time>1970-01-01T10:38:30.145Z</time>
    </trkpt>
    <trkpt lat="56.353069" lon="60.797226">
        <ele>300.4</ele>
        <time>1970-01-01T10:38:31.145Z</time>
    </trkpt>
    <trkpt lat="56.353035" lon="60.797251">
        <ele>300.5</ele>
        <time>1970-01-01T10:38:32.145Z</time>
    </trkpt>
    <trkpt lat="56.353018" lon="60.797267">
        <ele>300.6</ele>
        <time>1970-01-01T10:38:33.145Z</time>
    </trkpt>
    <trkpt lat="56.352976" lon="60.797291">
        <ele>300.6</ele>
        <time>1970-01-01T10:38:34.145Z</time>
    </trkpt>
    <trkpt lat="56.352947" lon="60.797334">
        <ele>298.7</ele>
        <time>1970-01-01T10:38:35.145Z</time>
    </trkpt>
    <trkpt lat="56.352936" lon="60.797346">
        <ele>298.7</ele>
        <time>1970-01-01T10:38:36.145Z</time>
    </trkpt>
    <trkpt lat="56.352901" lon="60.797373">
        <ele>298.8</ele>
        <time>1970-01-01T10:38:37.145Z</time>
    </trkpt>
    <trkpt lat="56.352875" lon="60.797394">
        <ele>298.8</ele>
        <time>1970-01-01T10:38:38.145Z</time>
    </trkpt>
    <trkpt lat="56.352841" lon="60.797418">
        <ele>298.9</ele>
        <time>1970-01-01T10:38:39.145Z</time>
    </trkpt>
    <trkpt lat="56.35281" lon="60.797444">
        <ele>298.9</ele>
        <time>1970-01-01T10:38:40.145Z</time>
    </trkpt>
    <trkpt lat="56.352774" lon="60.797466">
        <ele>299.0</ele>
        <time>1970-01-01T10:38:41.145Z</time>
    </trkpt>
    <trkpt lat="56.352739" lon="60.797488">
        <ele>297.0</ele>
        <time>1970-01-01T10:38:42.145Z</time>
    </trkpt>
    <trkpt lat="56.352707" lon="60.797494">
        <ele>297.1</ele>
        <time>1970-01-01T10:38:43.145Z</time>
    </trkpt>
    <trkpt lat="56.352672" lon="60.797491">
        <ele>297.1</ele>
        <time>1970-01-01T10:38:44.145Z</time>
    </trkpt>
    <trkpt lat="56.352642" lon="60.797523">
        <ele>297.2</ele>
        <time>1970-01-01T10:38:45.145Z</time>
    </trkpt>
    <trkpt lat="56.352607" lon="60.797532">
        <ele>297.2</ele>
        <time>1970-01-01T10:38:46.145Z</time>
    </trkpt>
    <trkpt lat="56.352576" lon="60.797535">
        <ele>297.3</ele>
        <time>1970-01-01T10:38:47.145Z</time>
    </trkpt>
    <trkpt lat="56.352542" lon="60.797532">
        <ele>297.3</ele>
        <time>1970-01-01T10:38:48.145Z</time>
    </trkpt>
    <trkpt lat="56.35251" lon="60.797527">
        <ele>297.4</ele>
        <time>1970-01-01T10:38:49.145Z</time>
    </trkpt>
    <trkpt lat="56.35248" lon="60.797527">
        <ele>297.5</ele>
        <time>1970-01-01T10:38:50.145Z</time>
    </trkpt>
    <trkpt lat="56.352451" lon="60.797535">
        <ele>297.5</ele>
        <time>1970-01-01T10:38:51.145Z</time>
    </trkpt>
    <trkpt lat="56.352419" lon="60.797554">
        <ele>297.6</ele>
        <time>1970-01-01T10:38:52.145Z</time>
    </trkpt>
    <trkpt lat="56.352397" lon="60.79756">
        <ele>297.6</ele>
        <time>1970-01-01T10:38:53.145Z</time>
    </trkpt>
    <trkpt lat="56.352348" lon="60.797572">
        <ele>297.7</ele>
        <time>1970-01-01T10:38:54.145Z</time>
    </trkpt>
    <trkpt lat="56.352304" lon="60.797584">
        <ele>297.7</ele>
        <time>1970-01-01T10:38:55.145Z</time>
    </trkpt>
    <trkpt lat="56.352274" lon="60.797599">
        <ele>297.8</ele>
        <time>1970-01-01T10:38:56.145Z</time>
    </trkpt>
    <trkpt lat="56.352239" lon="60.797608">
        <ele>297.8</ele>
        <time>1970-01-01T10:38:57.145Z</time>
    </trkpt>
    <trkpt lat="56.352203" lon="60.797626">
        <ele>297.9</ele>
        <time>1970-01-01T10:38:58.145Z</time>
    </trkpt>
    <trkpt lat="56.352192" lon="60.797624">
        <ele>297.9</ele>
        <time>1970-01-01T10:38:59.145Z</time>
    </trkpt>
    <trkpt lat="56.352157" lon="60.797622">
        <ele>298.0</ele>
        <time>1970-01-01T10:39:00.145Z</time>
    </trkpt>
    <trkpt lat="56.352128" lon="60.79764">
        <ele>298.0</ele>
        <time>1970-01-01T10:39:01.145Z</time>
    </trkpt>
    <trkpt lat="56.352095" lon="60.797654">
        <ele>295.1</ele>
        <time>1970-01-01T10:39:02.145Z</time>
    </trkpt>
    <trkpt lat="56.352061" lon="60.797666">
        <ele>295.1</ele>
        <time>1970-01-01T10:39:03.145Z</time>
    </trkpt>
    <trkpt lat="56.352036" lon="60.79769">
        <ele>295.2</ele>
        <time>1970-01-01T10:39:04.145Z</time>
    </trkpt>
    <trkpt lat="56.351998" lon="60.797692">
        <ele>295.2</ele>
        <time>1970-01-01T10:39:05.145Z</time>
    </trkpt>
    <trkpt lat="56.351968" lon="60.797709">
        <ele>295.3</ele>
        <time>1970-01-01T10:39:06.145Z</time>
    </trkpt>
    <trkpt lat="56.35193" lon="60.797734">
        <ele>295.3</ele>
        <time>1970-01-01T10:39:07.145Z</time>
    </trkpt>
    <trkpt lat="56.351893" lon="60.797753">
        <ele>295.3</ele>
        <time>1970-01-01T10:39:08.145Z</time>
    </trkpt>
    <trkpt lat="56.351878" lon="60.797753">
        <ele>295.3</ele>
        <time>1970-01-01T10:39:09.145Z</time>
    </trkpt>
    <trkpt lat="56.351842" lon="60.797762">
        <ele>295.3</ele>
        <time>1970-01-01T10:39:10.145Z</time>
    </trkpt>
    <trkpt lat="56.3518" lon="60.797794">
        <ele>295.3</ele>
        <time>1970-01-01T10:39:11.145Z</time>
    </trkpt>
    <trkpt lat="56.351781" lon="60.797807">
        <ele>295.3</ele>
        <time>1970-01-01T10:39:12.145Z</time>
    </trkpt>
    <trkpt lat="56.351739" lon="60.797834">
        <ele>292.3</ele>
        <time>1970-01-01T10:39:13.145Z</time>
    </trkpt>
    <trkpt lat="56.351723" lon="60.797845">
        <ele>292.3</ele>
        <time>1970-01-01T10:39:14.145Z</time>
    </trkpt>
    <trkpt lat="56.351686" lon="60.797866">
        <ele>292.3</ele>
        <time>1970-01-01T10:39:15.145Z</time>
    </trkpt>
    <trkpt lat="56.351654" lon="60.797873">
        <ele>292.3</ele>
        <time>1970-01-01T10:39:16.145Z</time>
    </trkpt>
    <trkpt lat="56.35164" lon="60.79788">
        <ele>292.3</ele>
        <time>1970-01-01T10:39:17.145Z</time>
    </trkpt>
    <trkpt lat="56.351601" lon="60.797899">
        <ele>292.3</ele>
        <time>1970-01-01T10:39:18.145Z</time>
    </trkpt>
    <trkpt lat="56.351571" lon="60.797921">
        <ele>292.3</ele>
        <time>1970-01-01T10:39:19.145Z</time>
    </trkpt>
    <trkpt lat="56.351546" lon="60.797936">
        <ele>292.3</ele>
        <time>1970-01-01T10:39:20.145Z</time>
    </trkpt>
    <trkpt lat="56.351497" lon="60.797962">
        <ele>292.3</ele>
        <time>1970-01-01T10:39:21.145Z</time>
    </trkpt>
    <trkpt lat="56.351483" lon="60.79797">
        <ele>292.3</ele>
        <time>1970-01-01T10:39:22.145Z</time>
    </trkpt>
    <trkpt lat="56.351443" lon="60.797978">
        <ele>292.3</ele>
        <time>1970-01-01T10:39:23.145Z</time>
    </trkpt>
    <trkpt lat="56.351434" lon="60.797987">
        <ele>292.3</ele>
        <time>1970-01-01T10:39:24.145Z</time>
    </trkpt>
    <trkpt lat="56.351403" lon="60.798008">
        <ele>291.3</ele>
        <time>1970-01-01T10:39:25.145Z</time>
    </trkpt>
    <trkpt lat="56.351368" lon="60.798028">
        <ele>291.3</ele>
        <time>1970-01-01T10:39:26.145Z</time>
    </trkpt>
    <trkpt lat="56.351357" lon="60.79803">
        <ele>291.3</ele>
        <time>1970-01-01T10:39:27.145Z</time>
    </trkpt>
    <trkpt lat="56.35132" lon="60.79804">
        <ele>291.3</ele>
        <time>1970-01-01T10:39:28.145Z</time>
    </trkpt>
    <trkpt lat="56.351305" lon="60.798041">
        <ele>291.3</ele>
        <time>1970-01-01T10:39:29.145Z</time>
    </trkpt>
    <trkpt lat="56.351271" lon="60.79805">
        <ele>291.3</ele>
        <time>1970-01-01T10:39:30.145Z</time>
    </trkpt>
    <trkpt lat="56.351263" lon="60.79806">
        <ele>291.3</ele>
        <time>1970-01-01T10:39:31.145Z</time>
    </trkpt>
    <trkpt lat="56.351229" lon="60.798078">
        <ele>291.3</ele>
        <time>1970-01-01T10:39:32.145Z</time>
    </trkpt>
    <trkpt lat="56.351195" lon="60.798089">
        <ele>291.3</ele>
        <time>1970-01-01T10:39:33.145Z</time>
    </trkpt>
    <trkpt lat="56.351166" lon="60.798101">
        <ele>291.3</ele>
        <time>1970-01-01T10:39:34.145Z</time>
    </trkpt>
    <trkpt lat="56.351126" lon="60.798112">
        <ele>291.3</ele>
        <time>1970-01-01T10:39:35.145Z</time>
    </trkpt>
    <trkpt lat="56.351114" lon="60.798113">
        <ele>291.3</ele>
        <time>1970-01-01T10:39:36.145Z</time>
    </trkpt>
    <trkpt lat="56.351077" lon="60.798127">
        <ele>291.3</ele>
        <time>1970-01-01T10:39:37.145Z</time>
    </trkpt>
    <trkpt lat="56.351041" lon="60.798149">
        <ele>291.3</ele>
        <time>1970-01-01T10:39:38.145Z</time>
    </trkpt>
    <trkpt lat="56.351012" lon="60.798177">
        <ele>290.3</ele>
        <time>1970-01-01T10:39:39.145Z</time>
    </trkpt>
    <trkpt lat="56.350978" lon="60.798198">
        <ele>291.3</ele>
        <time>1970-01-01T10:39:40.145Z</time>
    </trkpt>
    <trkpt lat="56.35094" lon="60.798215">
        <ele>291.3</ele>
        <time>1970-01-01T10:39:41.145Z</time>
    </trkpt>
    <trkpt lat="56.350904" lon="60.798243">
        <ele>291.3</ele>
        <time>1970-01-01T10:39:42.145Z</time>
    </trkpt>
    <trkpt lat="56.350877" lon="60.798266">
        <ele>291.3</ele>
        <time>1970-01-01T10:39:43.145Z</time>
    </trkpt>
    <trkpt lat="56.350839" lon="60.798278">
        <ele>291.3</ele>
        <time>1970-01-01T10:39:44.145Z</time>
    </trkpt>
    <trkpt lat="56.350814" lon="60.798293">
        <ele>291.3</ele>
        <time>1970-01-01T10:39:45.145Z</time>
    </trkpt>
    <trkpt lat="56.350807" lon="60.798296">
        <ele>291.3</ele>
        <time>1970-01-01T10:39:46.145Z</time>
    </trkpt>
    <trkpt lat="56.350777" lon="60.798301">
        <ele>292.3</ele>
        <time>1970-01-01T10:39:47.145Z</time>
    </trkpt>
    <trkpt lat="56.350761" lon="60.79831">
        <ele>292.3</ele>
        <time>1970-01-01T10:39:48.145Z</time>
    </trkpt>
    <trkpt lat="56.350723" lon="60.798326">
        <ele>292.3</ele>
        <time>1970-01-01T10:39:49.145Z</time>
    </trkpt>
    <trkpt lat="56.350696" lon="60.798334">
        <ele>292.3</ele>
        <time>1970-01-01T10:39:50.145Z</time>
    </trkpt>
    <trkpt lat="56.35067" lon="60.798352">
        <ele>291.3</ele>
        <time>1970-01-01T10:39:51.145Z</time>
    </trkpt>
    <trkpt lat="56.35064" lon="60.798366">
        <ele>291.3</ele>
        <time>1970-01-01T10:39:52.145Z</time>
    </trkpt>
    <trkpt lat="56.350611" lon="60.798381">
        <ele>291.3</ele>
        <time>1970-01-01T10:39:53.145Z</time>
    </trkpt>
    <trkpt lat="56.350594" lon="60.798386">
        <ele>291.3</ele>
        <time>1970-01-01T10:39:54.145Z</time>
    </trkpt>
    <trkpt lat="56.350553" lon="60.798398">
        <ele>291.3</ele>
        <time>1970-01-01T10:39:55.145Z</time>
    </trkpt>
    <trkpt lat="56.350523" lon="60.798416">
        <ele>291.3</ele>
        <time>1970-01-01T10:39:56.145Z</time>
    </trkpt>
    <trkpt lat="56.350497" lon="60.798431">
        <ele>292.3</ele>
        <time>1970-01-01T10:39:57.145Z</time>
    </trkpt>
    <trkpt lat="56.350466" lon="60.798436">
        <ele>292.3</ele>
        <time>1970-01-01T10:39:58.145Z</time>
    </trkpt>
    <trkpt lat="56.35045" lon="60.798449">
        <ele>292.3</ele>
        <time>1970-01-01T10:39:59.145Z</time>
    </trkpt>
    <trkpt lat="56.35041" lon="60.798479">
        <ele>292.3</ele>
        <time>1970-01-01T10:40:00.145Z</time>
    </trkpt>
    <trkpt lat="56.350394" lon="60.798483">
        <ele>292.3</ele>
        <time>1970-01-01T10:40:01.145Z</time>
    </trkpt>
    <trkpt lat="56.350355" lon="60.798499">
        <ele>292.3</ele>
        <time>1970-01-01T10:40:02.145Z</time>
    </trkpt>
    <trkpt lat="56.350321" lon="60.798528">
        <ele>291.3</ele>
        <time>1970-01-01T10:40:03.145Z</time>
    </trkpt>
    <trkpt lat="56.350284" lon="60.79854">
        <ele>292.3</ele>
        <time>1970-01-01T10:40:04.145Z</time>
    </trkpt>
    <trkpt lat="56.350269" lon="60.798545">
        <ele>292.3</ele>
        <time>1970-01-01T10:40:05.145Z</time>
    </trkpt>
    <trkpt lat="56.350234" lon="60.798577">
        <ele>292.3</ele>
        <time>1970-01-01T10:40:06.145Z</time>
    </trkpt>
    <trkpt lat="56.350199" lon="60.798605">
        <ele>293.3</ele>
        <time>1970-01-01T10:40:07.145Z</time>
    </trkpt>
    <trkpt lat="56.350153" lon="60.798635">
        <ele>293.3</ele>
        <time>1970-01-01T10:40:08.145Z</time>
    </trkpt>
    <trkpt lat="56.350105" lon="60.798656">
        <ele>294.3</ele>
        <time>1970-01-01T10:40:09.145Z</time>
    </trkpt>
    <trkpt lat="56.350072" lon="60.798667">
        <ele>294.3</ele>
        <time>1970-01-01T10:40:10.145Z</time>
    </trkpt>
    <trkpt lat="56.35004" lon="60.798676">
        <ele>294.3</ele>
        <time>1970-01-01T10:40:11.145Z</time>
    </trkpt>
    <trkpt lat="56.350006" lon="60.798708">
        <ele>294.3</ele>
        <time>1970-01-01T10:40:12.145Z</time>
    </trkpt>
    <trkpt lat="56.349964" lon="60.798725">
        <ele>294.3</ele>
        <time>1970-01-01T10:40:13.145Z</time>
    </trkpt>
    <trkpt lat="56.349938" lon="60.798731">
        <ele>294.3</ele>
        <time>1970-01-01T10:40:14.145Z</time>
    </trkpt>
    <trkpt lat="56.349893" lon="60.798758">
        <ele>294.3</ele>
        <time>1970-01-01T10:40:15.145Z</time>
    </trkpt>
    <trkpt lat="56.349866" lon="60.798764">
        <ele>294.3</ele>
        <time>1970-01-01T10:40:16.145Z</time>
    </trkpt>
    <trkpt lat="56.349836" lon="60.798777">
        <ele>295.3</ele>
        <time>1970-01-01T10:40:17.145Z</time>
    </trkpt>
    <trkpt lat="56.349806" lon="60.798778">
        <ele>295.3</ele>
        <time>1970-01-01T10:40:18.145Z</time>
    </trkpt>
    <trkpt lat="56.349779" lon="60.798801">
        <ele>295.3</ele>
        <time>1970-01-01T10:40:19.145Z</time>
    </trkpt>
    <trkpt lat="56.349739" lon="60.798801">
        <ele>296.3</ele>
        <time>1970-01-01T10:40:20.145Z</time>
    </trkpt>
    <trkpt lat="56.34969" lon="60.798827">
        <ele>296.3</ele>
        <time>1970-01-01T10:40:21.145Z</time>
    </trkpt>
    <trkpt lat="56.349641" lon="60.798833">
        <ele>297.3</ele>
        <time>1970-01-01T10:40:22.145Z</time>
    </trkpt>
    <trkpt lat="56.349602" lon="60.798827">
        <ele>297.3</ele>
        <time>1970-01-01T10:40:23.145Z</time>
    </trkpt>
    <trkpt lat="56.349553" lon="60.798829">
        <ele>299.3</ele>
        <time>1970-01-01T10:40:24.145Z</time>
    </trkpt>
    <trkpt lat="56.349505" lon="60.798852">
        <ele>299.3</ele>
        <time>1970-01-01T10:40:25.145Z</time>
    </trkpt>
    <trkpt lat="56.349465" lon="60.798865">
        <ele>297.3</ele>
        <time>1970-01-01T10:40:26.145Z</time>
    </trkpt>
    <trkpt lat="56.349423" lon="60.798877">
        <ele>298.3</ele>
        <time>1970-01-01T10:40:27.145Z</time>
    </trkpt>
    <trkpt lat="56.349373" lon="60.798891">
        <ele>298.3</ele>
        <time>1970-01-01T10:40:28.145Z</time>
    </trkpt>
    <trkpt lat="56.349341" lon="60.798908">
        <ele>300.3</ele>
        <time>1970-01-01T10:40:29.145Z</time>
    </trkpt>
    <trkpt lat="56.349286" lon="60.798942">
        <ele>300.3</ele>
        <time>1970-01-01T10:40:30.145Z</time>
    </trkpt>
    <trkpt lat="56.349235" lon="60.798956">
        <ele>301.3</ele>
        <time>1970-01-01T10:40:31.145Z</time>
    </trkpt>
    <trkpt lat="56.349204" lon="60.798959">
        <ele>301.3</ele>
        <time>1970-01-01T10:40:32.145Z</time>
    </trkpt>
    <trkpt lat="56.349169" lon="60.798942">
        <ele>302.3</ele>
        <time>1970-01-01T10:40:33.145Z</time>
    </trkpt>
    <trkpt lat="56.349153" lon="60.798942">
        <ele>302.3</ele>
        <time>1970-01-01T10:40:34.145Z</time>
    </trkpt>
    <trkpt lat="56.349116" lon="60.798943">
        <ele>302.3</ele>
        <time>1970-01-01T10:40:35.145Z</time>
    </trkpt>
    <trkpt lat="56.349078" lon="60.798947">
        <ele>303.3</ele>
        <time>1970-01-01T10:40:36.145Z</time>
    </trkpt>
    <trkpt lat="56.349066" lon="60.798956">
        <ele>303.3</ele>
        <time>1970-01-01T10:40:37.145Z</time>
    </trkpt>
    <trkpt lat="56.349036" lon="60.798982">
        <ele>303.3</ele>
        <time>1970-01-01T10:40:38.145Z</time>
    </trkpt>
    <trkpt lat="56.349023" lon="60.798993">
        <ele>303.3</ele>
        <time>1970-01-01T10:40:39.145Z</time>
    </trkpt>
    <trkpt lat="56.348996" lon="60.799024">
        <ele>303.3</ele>
        <time>1970-01-01T10:40:40.145Z</time>
    </trkpt>
    <trkpt lat="56.348984" lon="60.799035">
        <ele>302.3</ele>
        <time>1970-01-01T10:40:41.145Z</time>
    </trkpt>
    <trkpt lat="56.34896" lon="60.799049">
        <ele>302.3</ele>
        <time>1970-01-01T10:40:42.145Z</time>
    </trkpt>
    <trkpt lat="56.348951" lon="60.799064">
        <ele>302.3</ele>
        <time>1970-01-01T10:40:43.145Z</time>
    </trkpt>
    <trkpt lat="56.348918" lon="60.799098">
        <ele>302.3</ele>
        <time>1970-01-01T10:40:44.145Z</time>
    </trkpt>
    <trkpt lat="56.348911" lon="60.799117">
        <ele>302.3</ele>
        <time>1970-01-01T10:40:45.145Z</time>
    </trkpt>
    <trkpt lat="56.348902" lon="60.799167">
        <ele>302.3</ele>
        <time>1970-01-01T10:40:46.145Z</time>
    </trkpt>
    <trkpt lat="56.348904" lon="60.799181">
        <ele>302.3</ele>
        <time>1970-01-01T10:40:47.145Z</time>
    </trkpt>
    <trkpt lat="56.348897" lon="60.799233">
        <ele>301.3</ele>
        <time>1970-01-01T10:40:48.145Z</time>
    </trkpt>
    <trkpt lat="56.348899" lon="60.79926">
        <ele>301.3</ele>
        <time>1970-01-01T10:40:49.145Z</time>
    </trkpt>
    <trkpt lat="56.348897" lon="60.799297">
        <ele>301.3</ele>
        <time>1970-01-01T10:40:50.145Z</time>
    </trkpt>
    <trkpt lat="56.348898" lon="60.799323">
        <ele>301.3</ele>
        <time>1970-01-01T10:40:51.145Z</time>
    </trkpt>
    <trkpt lat="56.348899" lon="60.799348">
        <ele>301.3</ele>
        <time>1970-01-01T10:40:52.145Z</time>
    </trkpt>
    <trkpt lat="56.348896" lon="60.799371">
        <ele>300.3</ele>
        <time>1970-01-01T10:40:53.145Z</time>
    </trkpt>
    <trkpt lat="56.348886" lon="60.799412">
        <ele>302.3</ele>
        <time>1970-01-01T10:40:54.145Z</time>
    </trkpt>
    <trkpt lat="56.348876" lon="60.799449">
        <ele>302.3</ele>
        <time>1970-01-01T10:40:55.145Z</time>
    </trkpt>
    <trkpt lat="56.34887" lon="60.799469">
        <ele>302.3</ele>
        <time>1970-01-01T10:40:56.145Z</time>
    </trkpt>
    <trkpt lat="56.348867" lon="60.799483">
        <ele>302.3</ele>
        <time>1970-01-01T10:40:57.145Z</time>
    </trkpt>
    <trkpt lat="56.348851" lon="60.799528">
        <ele>302.3</ele>
        <time>1970-01-01T10:40:58.145Z</time>
    </trkpt>
    <trkpt lat="56.348841" lon="60.799552">
        <ele>301.3</ele>
        <time>1970-01-01T10:40:59.145Z</time>
    </trkpt>
    <trkpt lat="56.348841" lon="60.799585">
        <ele>301.3</ele>
        <time>1970-01-01T10:41:00.145Z</time>
    </trkpt>
    <trkpt lat="56.348831" lon="60.799606">
        <ele>301.3</ele>
        <time>1970-01-01T10:41:01.145Z</time>
    </trkpt>
    <trkpt lat="56.348799" lon="60.799645">
        <ele>301.3</ele>
        <time>1970-01-01T10:41:02.145Z</time>
    </trkpt>
    <trkpt lat="56.348784" lon="60.799648">
        <ele>303.3</ele>
        <time>1970-01-01T10:41:03.145Z</time>
    </trkpt>
    <trkpt lat="56.348768" lon="60.799669">
        <ele>303.3</ele>
        <time>1970-01-01T10:41:04.145Z</time>
    </trkpt>
    <trkpt lat="56.348762" lon="60.79969">
        <ele>303.3</ele>
        <time>1970-01-01T10:41:05.145Z</time>
    </trkpt>
    <trkpt lat="56.348754" lon="60.799748">
        <ele>302.3</ele>
        <time>1970-01-01T10:41:06.145Z</time>
    </trkpt>
    <trkpt lat="56.348751" lon="60.799774">
        <ele>302.3</ele>
        <time>1970-01-01T10:41:07.145Z</time>
    </trkpt>
    <trkpt lat="56.348751" lon="60.79983">
        <ele>302.3</ele>
        <time>1970-01-01T10:41:08.145Z</time>
    </trkpt>
    <trkpt lat="56.348751" lon="60.799843">
        <ele>302.3</ele>
        <time>1970-01-01T10:41:09.145Z</time>
    </trkpt>
    <trkpt lat="56.34876" lon="60.799899">
        <ele>302.3</ele>
        <time>1970-01-01T10:41:10.145Z</time>
    </trkpt>
    <trkpt lat="56.348762" lon="60.799923">
        <ele>302.3</ele>
        <time>1970-01-01T10:41:11.145Z</time>
    </trkpt>
    <trkpt lat="56.348766" lon="60.799981">
        <ele>302.3</ele>
        <time>1970-01-01T10:41:12.145Z</time>
    </trkpt>
    <trkpt lat="56.348768" lon="60.800004">
        <ele>302.3</ele>
        <time>1970-01-01T10:41:13.145Z</time>
    </trkpt>
    <trkpt lat="56.34878" lon="60.80007">
        <ele>301.3</ele>
        <time>1970-01-01T10:41:14.145Z</time>
    </trkpt>
    <trkpt lat="56.348782" lon="60.800088">
        <ele>301.3</ele>
        <time>1970-01-01T10:41:15.145Z</time>
    </trkpt>
    <trkpt lat="56.348781" lon="60.800145">
        <ele>301.3</ele>
        <time>1970-01-01T10:41:16.145Z</time>
    </trkpt>
    <trkpt lat="56.348786" lon="60.800169">
        <ele>301.3</ele>
        <time>1970-01-01T10:41:17.145Z</time>
    </trkpt>
    <trkpt lat="56.348785" lon="60.800232">
        <ele>300.3</ele>
        <time>1970-01-01T10:41:18.145Z</time>
    </trkpt>
    <trkpt lat="56.348785" lon="60.800257">
        <ele>300.3</ele>
        <time>1970-01-01T10:41:19.145Z</time>
    </trkpt>
    <trkpt lat="56.348784" lon="60.80032">
        <ele>300.3</ele>
        <time>1970-01-01T10:41:20.145Z</time>
    </trkpt>
    <trkpt lat="56.348775" lon="60.800367">
        <ele>300.3</ele>
        <time>1970-01-01T10:41:21.145Z</time>
    </trkpt>
    <trkpt lat="56.348769" lon="60.8004">
        <ele>300.3</ele>
        <time>1970-01-01T10:41:22.145Z</time>
    </trkpt>
    <trkpt lat="56.34876" lon="60.800472">
        <ele>300.3</ele>
        <time>1970-01-01T10:41:23.145Z</time>
    </trkpt>
    <trkpt lat="56.34875" lon="60.800533">
        <ele>300.3</ele>
        <time>1970-01-01T10:41:24.145Z</time>
    </trkpt>
    <trkpt lat="56.34875" lon="60.800554">
        <ele>300.3</ele>
        <time>1970-01-01T10:41:25.145Z</time>
    </trkpt>
    <trkpt lat="56.348748" lon="60.800617">
        <ele>299.3</ele>
        <time>1970-01-01T10:41:26.145Z</time>
    </trkpt>
    <trkpt lat="56.348747" lon="60.800642">
        <ele>299.3</ele>
        <time>1970-01-01T10:41:27.145Z</time>
    </trkpt>
    <trkpt lat="56.348736" lon="60.800709">
        <ele>299.3</ele>
        <time>1970-01-01T10:41:28.145Z</time>
    </trkpt>
    <trkpt lat="56.348725" lon="60.800765">
        <ele>299.3</ele>
        <time>1970-01-01T10:41:29.145Z</time>
    </trkpt>
    <trkpt lat="56.348707" lon="60.800818">
        <ele>299.3</ele>
        <time>1970-01-01T10:41:30.145Z</time>
    </trkpt>
    <trkpt lat="56.348702" lon="60.800844">
        <ele>301.3</ele>
        <time>1970-01-01T10:41:31.145Z</time>
    </trkpt>
    <trkpt lat="56.348697" lon="60.800912">
        <ele>301.3</ele>
        <time>1970-01-01T10:41:32.145Z</time>
    </trkpt>
    <trkpt lat="56.348697" lon="60.800929">
        <ele>300.3</ele>
        <time>1970-01-01T10:41:33.145Z</time>
    </trkpt>
    <trkpt lat="56.348691" lon="60.800976">
        <ele>300.3</ele>
        <time>1970-01-01T10:41:34.145Z</time>
    </trkpt>
    <trkpt lat="56.348687" lon="60.800996">
        <ele>300.3</ele>
        <time>1970-01-01T10:41:35.145Z</time>
    </trkpt>
    <trkpt lat="56.34868" lon="60.801058">
        <ele>300.3</ele>
        <time>1970-01-01T10:41:36.145Z</time>
    </trkpt>
    <trkpt lat="56.348668" lon="60.801102">
        <ele>300.3</ele>
        <time>1970-01-01T10:41:37.145Z</time>
    </trkpt>
    <trkpt lat="56.348666" lon="60.801124">
        <ele>300.3</ele>
        <time>1970-01-01T10:41:38.145Z</time>
    </trkpt>
    <trkpt lat="56.348657" lon="60.801185">
        <ele>300.3</ele>
        <time>1970-01-01T10:41:39.145Z</time>
    </trkpt>
    <trkpt lat="56.348652" lon="60.801201">
        <ele>300.3</ele>
        <time>1970-01-01T10:41:40.145Z</time>
    </trkpt>
    <trkpt lat="56.348642" lon="60.80126">
        <ele>299.3</ele>
        <time>1970-01-01T10:41:41.145Z</time>
    </trkpt>
    <trkpt lat="56.348628" lon="60.801305">
        <ele>299.3</ele>
        <time>1970-01-01T10:41:42.145Z</time>
    </trkpt>
    <trkpt lat="56.348628" lon="60.801322">
        <ele>299.3</ele>
        <time>1970-01-01T10:41:43.145Z</time>
    </trkpt>
    <trkpt lat="56.348613" lon="60.801377">
        <ele>299.3</ele>
        <time>1970-01-01T10:41:44.145Z</time>
    </trkpt>
    <trkpt lat="56.348604" lon="60.801439">
        <ele>300.3</ele>
        <time>1970-01-01T10:41:45.145Z</time>
    </trkpt>
    <trkpt lat="56.348596" lon="60.801491">
        <ele>300.3</ele>
        <time>1970-01-01T10:41:46.145Z</time>
    </trkpt>
    <trkpt lat="56.348589" lon="60.801517">
        <ele>300.3</ele>
        <time>1970-01-01T10:41:47.145Z</time>
    </trkpt>
    <trkpt lat="56.34857" lon="60.801583">
        <ele>300.3</ele>
        <time>1970-01-01T10:41:48.145Z</time>
    </trkpt>
    <trkpt lat="56.348556" lon="60.801631">
        <ele>299.3</ele>
        <time>1970-01-01T10:41:49.145Z</time>
    </trkpt>
    <trkpt lat="56.34855" lon="60.801687">
        <ele>299.3</ele>
        <time>1970-01-01T10:41:50.145Z</time>
    </trkpt>
    <trkpt lat="56.348545" lon="60.801707">
        <ele>299.3</ele>
        <time>1970-01-01T10:41:51.145Z</time>
    </trkpt>
    <trkpt lat="56.348534" lon="60.801747">
        <ele>299.3</ele>
        <time>1970-01-01T10:41:52.145Z</time>
    </trkpt>
    <trkpt lat="56.34852" lon="60.801797">
        <ele>298.3</ele>
        <time>1970-01-01T10:41:53.145Z</time>
    </trkpt>
    <trkpt lat="56.348501" lon="60.801842">
        <ele>299.3</ele>
        <time>1970-01-01T10:41:54.145Z</time>
    </trkpt>
    <trkpt lat="56.348499" lon="60.801859">
        <ele>299.3</ele>
        <time>1970-01-01T10:41:55.145Z</time>
    </trkpt>
    <trkpt lat="56.348494" lon="60.80191">
        <ele>299.3</ele>
        <time>1970-01-01T10:41:56.145Z</time>
    </trkpt>
    <trkpt lat="56.348489" lon="60.801931">
        <ele>299.3</ele>
        <time>1970-01-01T10:41:57.145Z</time>
    </trkpt>
    <trkpt lat="56.348481" lon="60.801996">
        <ele>298.3</ele>
        <time>1970-01-01T10:41:58.145Z</time>
    </trkpt>
    <trkpt lat="56.348482" lon="60.802015">
        <ele>298.3</ele>
        <time>1970-01-01T10:41:59.145Z</time>
    </trkpt>
    <trkpt lat="56.348475" lon="60.802073">
        <ele>298.3</ele>
        <time>1970-01-01T10:42:00.145Z</time>
    </trkpt>
    <trkpt lat="56.348465" lon="60.802125">
        <ele>297.3</ele>
        <time>1970-01-01T10:42:01.145Z</time>
    </trkpt>
    <trkpt lat="56.348458" lon="60.802142">
        <ele>297.3</ele>
        <time>1970-01-01T10:42:02.145Z</time>
    </trkpt>
    <trkpt lat="56.348448" lon="60.802205">
        <ele>297.3</ele>
        <time>1970-01-01T10:42:03.145Z</time>
    </trkpt>
    <trkpt lat="56.348437" lon="60.802253">
        <ele>297.3</ele>
        <time>1970-01-01T10:42:04.145Z</time>
    </trkpt>
    <trkpt lat="56.348424" lon="60.802304">
        <ele>296.3</ele>
        <time>1970-01-01T10:42:05.145Z</time>
    </trkpt>
    <trkpt lat="56.348416" lon="60.802377">
        <ele>297.3</ele>
        <time>1970-01-01T10:42:06.145Z</time>
    </trkpt>
    <trkpt lat="56.348418" lon="60.802431">
        <ele>296.3</ele>
        <time>1970-01-01T10:42:07.145Z</time>
    </trkpt>
    <trkpt lat="56.348415" lon="60.80249">
        <ele>296.3</ele>
        <time>1970-01-01T10:42:08.145Z</time>
    </trkpt>
    <trkpt lat="56.348412" lon="60.802513">
        <ele>296.3</ele>
        <time>1970-01-01T10:42:09.145Z</time>
    </trkpt>
    <trkpt lat="56.348407" lon="60.802572">
        <ele>296.3</ele>
        <time>1970-01-01T10:42:10.145Z</time>
    </trkpt>
    <trkpt lat="56.348405" lon="60.802595">
        <ele>296.3</ele>
        <time>1970-01-01T10:42:11.145Z</time>
    </trkpt>
    <trkpt lat="56.348404" lon="60.802646">
        <ele>295.3</ele>
        <time>1970-01-01T10:42:12.145Z</time>
    </trkpt>
    <trkpt lat="56.348402" lon="60.802663">
        <ele>295.3</ele>
        <time>1970-01-01T10:42:13.145Z</time>
    </trkpt>
    <trkpt lat="56.348401" lon="60.802714">
        <ele>295.3</ele>
        <time>1970-01-01T10:42:14.145Z</time>
    </trkpt>
    <trkpt lat="56.348402" lon="60.802747">
        <ele>295.3</ele>
        <time>1970-01-01T10:42:15.145Z</time>
    </trkpt>
    <trkpt lat="56.348399" lon="60.802777">
        <ele>295.3</ele>
        <time>1970-01-01T10:42:16.145Z</time>
    </trkpt>
    <trkpt lat="56.348397" lon="60.802803">
        <ele>295.3</ele>
        <time>1970-01-01T10:42:17.145Z</time>
    </trkpt>
    <trkpt lat="56.348405" lon="60.802828">
        <ele>294.3</ele>
        <time>1970-01-01T10:42:18.145Z</time>
    </trkpt>
    <trkpt lat="56.348409" lon="60.802848">
        <ele>294.3</ele>
        <time>1970-01-01T10:42:19.145Z</time>
    </trkpt>
    <trkpt lat="56.34841" lon="60.802884">
        <ele>294.3</ele>
        <time>1970-01-01T10:42:20.145Z</time>
    </trkpt>
    <trkpt lat="56.348406" lon="60.802896">
        <ele>294.3</ele>
        <time>1970-01-01T10:42:21.145Z</time>
    </trkpt>
    <trkpt lat="56.348402" lon="60.802952">
        <ele>294.3</ele>
        <time>1970-01-01T10:42:22.145Z</time>
    </trkpt>
    <trkpt lat="56.348399" lon="60.802971">
        <ele>294.3</ele>
        <time>1970-01-01T10:42:23.145Z</time>
    </trkpt>
    <trkpt lat="56.348397" lon="60.803037">
        <ele>293.3</ele>
        <time>1970-01-01T10:42:24.145Z</time>
    </trkpt>
    <trkpt lat="56.3484" lon="60.803067">
        <ele>293.3</ele>
        <time>1970-01-01T10:42:25.145Z</time>
    </trkpt>
    <trkpt lat="56.348398" lon="60.803081">
        <ele>293.3</ele>
        <time>1970-01-01T10:42:26.145Z</time>
    </trkpt>
    <trkpt lat="56.348397" lon="60.803101">
        <ele>293.3</ele>
        <time>1970-01-01T10:42:27.145Z</time>
    </trkpt>
    <trkpt lat="56.348395" lon="60.803131">
        <ele>293.3</ele>
        <time>1970-01-01T10:42:28.145Z</time>
    </trkpt>
    <trkpt lat="56.348395" lon="60.803146">
        <ele>293.3</ele>
        <time>1970-01-01T10:42:29.145Z</time>
    </trkpt>
    <trkpt lat="56.348346" lon="60.803303">
        <ele>292.3</ele>
        <time>1970-01-01T10:43:35.145Z</time>
    </trkpt>
    <trkpt lat="56.348346" lon="60.803305">
        <ele>292.3</ele>
        <time>1970-01-01T10:43:36.145Z</time>
    </trkpt>
    <trkpt lat="56.348324" lon="60.803319">
        <ele>291.3</ele>
        <time>1970-01-01T10:43:37.145Z</time>
    </trkpt>
    <trkpt lat="56.348324" lon="60.803319">
        <ele>291.3</ele>
        <time>1970-01-01T10:43:38.145Z</time>
    </trkpt>
    <trkpt lat="56.348324" lon="60.803319">
        <ele>291.3</ele>
        <time>1970-01-01T10:43:39.145Z</time>
    </trkpt>
    <trkpt lat="56.348324" lon="60.803319">
        <ele>291.3</ele>
        <time>1970-01-01T10:43:40.145Z</time>
    </trkpt>
    <trkpt lat="56.34832" lon="60.80332">
        <ele>291.3</ele>
        <time>1970-01-01T10:43:41.145Z</time>
    </trkpt>
    <trkpt lat="56.348318" lon="60.803318">
        <ele>292.3</ele>
        <time>1970-01-01T10:43:42.145Z</time>
    </trkpt>
    <trkpt lat="56.348307" lon="60.803323">
        <ele>291.3</ele>
        <time>1970-01-01T10:43:43.145Z</time>
    </trkpt>
    <trkpt lat="56.348305" lon="60.803314">
        <ele>292.3</ele>
        <time>1970-01-01T10:43:44.145Z</time>
    </trkpt>
    <trkpt lat="56.348305" lon="60.803312">
        <ele>292.3</ele>
        <time>1970-01-01T10:43:45.145Z</time>
    </trkpt>
    <trkpt lat="56.348301" lon="60.80332">
        <ele>291.3</ele>
        <time>1970-01-01T10:43:46.145Z</time>
    </trkpt>
    <trkpt lat="56.3483" lon="60.803326">
        <ele>291.3</ele>
        <time>1970-01-01T10:43:47.145Z</time>
    </trkpt>
    <trkpt lat="56.348294" lon="60.803338">
        <ele>291.3</ele>
        <time>1970-01-01T10:43:48.145Z</time>
    </trkpt>
    <trkpt lat="56.348295" lon="60.803341">
        <ele>291.3</ele>
        <time>1970-01-01T10:43:49.145Z</time>
    </trkpt>
    <trkpt lat="56.348291" lon="60.80336">
        <ele>291.3</ele>
        <time>1970-01-01T10:43:50.145Z</time>
    </trkpt>
    <trkpt lat="56.348284" lon="60.803414">
        <ele>291.3</ele>
        <time>1970-01-01T10:43:51.145Z</time>
    </trkpt>
    <trkpt lat="56.348276" lon="60.803432">
        <ele>291.3</ele>
        <time>1970-01-01T10:43:52.145Z</time>
    </trkpt>
    <trkpt lat="56.348258" lon="60.803483">
        <ele>291.3</ele>
        <time>1970-01-01T10:43:53.145Z</time>
    </trkpt>
    <trkpt lat="56.348243" lon="60.80353">
        <ele>291.3</ele>
        <time>1970-01-01T10:43:54.145Z</time>
    </trkpt>
    <trkpt lat="56.348232" lon="60.803575">
        <ele>291.3</ele>
        <time>1970-01-01T10:43:55.145Z</time>
    </trkpt>
    <trkpt lat="56.348227" lon="60.803592">
        <ele>291.3</ele>
        <time>1970-01-01T10:43:56.145Z</time>
    </trkpt>
    <trkpt lat="56.348203" lon="60.803641">
        <ele>290.3</ele>
        <time>1970-01-01T10:43:57.145Z</time>
    </trkpt>
    <trkpt lat="56.348186" lon="60.80369">
        <ele>290.3</ele>
        <time>1970-01-01T10:43:58.145Z</time>
    </trkpt>
    <trkpt lat="56.348179" lon="60.803706">
        <ele>290.3</ele>
        <time>1970-01-01T10:43:59.145Z</time>
    </trkpt>
    <trkpt lat="56.34816" lon="60.803742">
        <ele>290.3</ele>
        <time>1970-01-01T10:44:00.145Z</time>
    </trkpt>
    <trkpt lat="56.348157" lon="60.80376">
        <ele>290.3</ele>
        <time>1970-01-01T10:44:01.145Z</time>
    </trkpt>
    <trkpt lat="56.348146" lon="60.803808">
        <ele>290.3</ele>
        <time>1970-01-01T10:44:02.145Z</time>
    </trkpt>
    <trkpt lat="56.348137" lon="60.803832">
        <ele>290.3</ele>
        <time>1970-01-01T10:44:03.145Z</time>
    </trkpt>
    <trkpt lat="56.348124" lon="60.803903">
        <ele>290.3</ele>
        <time>1970-01-01T10:44:04.145Z</time>
    </trkpt>
    <trkpt lat="56.348113" lon="60.803939">
        <ele>290.3</ele>
        <time>1970-01-01T10:44:05.145Z</time>
    </trkpt>
    <trkpt lat="56.348107" lon="60.80396">
        <ele>290.3</ele>
        <time>1970-01-01T10:44:06.145Z</time>
    </trkpt>
    <trkpt lat="56.348095" lon="60.804003">
        <ele>290.3</ele>
        <time>1970-01-01T10:44:07.145Z</time>
    </trkpt>
    <trkpt lat="56.348085" lon="60.804058">
        <ele>290.3</ele>
        <time>1970-01-01T10:44:08.145Z</time>
    </trkpt>
    <trkpt lat="56.348082" lon="60.804076">
        <ele>290.3</ele>
        <time>1970-01-01T10:44:09.145Z</time>
    </trkpt>
    <trkpt lat="56.348067" lon="60.804135">
        <ele>290.3</ele>
        <time>1970-01-01T10:44:10.145Z</time>
    </trkpt>
    <trkpt lat="56.348062" lon="60.804186">
        <ele>291.3</ele>
        <time>1970-01-01T10:44:11.145Z</time>
    </trkpt>
    <trkpt lat="56.348058" lon="60.804218">
        <ele>291.3</ele>
        <time>1970-01-01T10:44:12.145Z</time>
    </trkpt>
    <trkpt lat="56.348051" lon="60.804283">
        <ele>291.3</ele>
        <time>1970-01-01T10:44:13.145Z</time>
    </trkpt>
    <trkpt lat="56.348049" lon="60.804325">
        <ele>291.3</ele>
        <time>1970-01-01T10:44:14.145Z</time>
    </trkpt>
    <trkpt lat="56.348046" lon="60.804346">
        <ele>291.3</ele>
        <time>1970-01-01T10:44:15.145Z</time>
    </trkpt>
    <trkpt lat="56.348048" lon="60.804372">
        <ele>291.3</ele>
        <time>1970-01-01T10:44:16.145Z</time>
    </trkpt>
    <trkpt lat="56.348039" lon="60.804408">
        <ele>291.3</ele>
        <time>1970-01-01T10:44:17.145Z</time>
    </trkpt>
    <trkpt lat="56.348034" lon="60.804423">
        <ele>292.3</ele>
        <time>1970-01-01T10:44:18.145Z</time>
    </trkpt>
    <trkpt lat="56.348026" lon="60.804479">
        <ele>292.3</ele>
        <time>1970-01-01T10:44:19.145Z</time>
    </trkpt>
    <trkpt lat="56.348027" lon="60.804494">
        <ele>292.3</ele>
        <time>1970-01-01T10:44:20.145Z</time>
    </trkpt>
    <trkpt lat="56.348021" lon="60.804556">
        <ele>292.3</ele>
        <time>1970-01-01T10:44:21.145Z</time>
    </trkpt>
    <trkpt lat="56.348014" lon="60.804583">
        <ele>292.3</ele>
        <time>1970-01-01T10:44:22.145Z</time>
    </trkpt>
    <trkpt lat="56.348005" lon="60.804633">
        <ele>292.3</ele>
        <time>1970-01-01T10:44:23.145Z</time>
    </trkpt>
    <trkpt lat="56.347994" lon="60.804655">
        <ele>292.3</ele>
        <time>1970-01-01T10:44:24.145Z</time>
    </trkpt>
    <trkpt lat="56.347967" lon="60.804712">
        <ele>292.3</ele>
        <time>1970-01-01T10:44:25.145Z</time>
    </trkpt>
    <trkpt lat="56.347946" lon="60.804772">
        <ele>292.3</ele>
        <time>1970-01-01T10:44:26.145Z</time>
    </trkpt>
    <trkpt lat="56.347931" lon="60.804833">
        <ele>293.3</ele>
        <time>1970-01-01T10:44:27.145Z</time>
    </trkpt>
    <trkpt lat="56.347922" lon="60.80488">
        <ele>293.3</ele>
        <time>1970-01-01T10:44:28.145Z</time>
    </trkpt>
    <trkpt lat="56.34791" lon="60.804942">
        <ele>293.3</ele>
        <time>1970-01-01T10:44:29.145Z</time>
    </trkpt>
    <trkpt lat="56.347895" lon="60.804993">
        <ele>293.3</ele>
        <time>1970-01-01T10:44:30.145Z</time>
    </trkpt>
    <trkpt lat="56.347882" lon="60.805042">
        <ele>293.3</ele>
        <time>1970-01-01T10:44:31.145Z</time>
    </trkpt>
    <trkpt lat="56.347865" lon="60.805099">
        <ele>293.3</ele>
        <time>1970-01-01T10:44:32.145Z</time>
    </trkpt>
    <trkpt lat="56.34785" lon="60.805142">
        <ele>293.3</ele>
        <time>1970-01-01T10:44:33.145Z</time>
    </trkpt>
    <trkpt lat="56.347846" lon="60.80516">
        <ele>294.3</ele>
        <time>1970-01-01T10:44:34.145Z</time>
    </trkpt>
    <trkpt lat="56.347835" lon="60.80522">
        <ele>294.3</ele>
        <time>1970-01-01T10:44:35.145Z</time>
    </trkpt>
    <trkpt lat="56.347817" lon="60.805265">
        <ele>294.3</ele>
        <time>1970-01-01T10:44:36.145Z</time>
    </trkpt>
    <trkpt lat="56.347812" lon="60.805292">
        <ele>294.3</ele>
        <time>1970-01-01T10:44:37.145Z</time>
    </trkpt>
    <trkpt lat="56.347801" lon="60.805347">
        <ele>294.3</ele>
        <time>1970-01-01T10:44:38.145Z</time>
    </trkpt>
    <trkpt lat="56.347786" lon="60.805391">
        <ele>293.3</ele>
        <time>1970-01-01T10:44:39.145Z</time>
    </trkpt>
    <trkpt lat="56.347762" lon="60.805436">
        <ele>293.3</ele>
        <time>1970-01-01T10:44:40.145Z</time>
    </trkpt>
    <trkpt lat="56.347752" lon="60.805462">
        <ele>293.3</ele>
        <time>1970-01-01T10:44:41.145Z</time>
    </trkpt>
    <trkpt lat="56.347738" lon="60.805519">
        <ele>293.3</ele>
        <time>1970-01-01T10:44:42.145Z</time>
    </trkpt>
    <trkpt lat="56.347723" lon="60.80557">
        <ele>293.3</ele>
        <time>1970-01-01T10:44:43.145Z</time>
    </trkpt>
    <trkpt lat="56.347709" lon="60.805615">
        <ele>293.3</ele>
        <time>1970-01-01T10:44:44.145Z</time>
    </trkpt>
    <trkpt lat="56.347697" lon="60.805664">
        <ele>293.3</ele>
        <time>1970-01-01T10:44:45.145Z</time>
    </trkpt>
    <trkpt lat="56.347686" lon="60.80571">
        <ele>293.3</ele>
        <time>1970-01-01T10:44:46.145Z</time>
    </trkpt>
    <trkpt lat="56.347674" lon="60.805766">
        <ele>293.3</ele>
        <time>1970-01-01T10:44:47.145Z</time>
    </trkpt>
    <trkpt lat="56.347645" lon="60.805817">
        <ele>293.3</ele>
        <time>1970-01-01T10:44:48.145Z</time>
    </trkpt>
    <trkpt lat="56.347635" lon="60.805862">
        <ele>293.3</ele>
        <time>1970-01-01T10:44:49.145Z</time>
    </trkpt>
    <trkpt lat="56.347624" lon="60.805907">
        <ele>293.3</ele>
        <time>1970-01-01T10:44:50.145Z</time>
    </trkpt>
    <trkpt lat="56.34761" lon="60.805957">
        <ele>293.3</ele>
        <time>1970-01-01T10:44:51.145Z</time>
    </trkpt>
    <trkpt lat="56.347593" lon="60.806004">
        <ele>293.3</ele>
        <time>1970-01-01T10:44:52.145Z</time>
    </trkpt>
    <trkpt lat="56.347581" lon="60.806065">
        <ele>293.3</ele>
        <time>1970-01-01T10:44:53.145Z</time>
    </trkpt>
    <trkpt lat="56.347574" lon="60.806118">
        <ele>293.3</ele>
        <time>1970-01-01T10:44:54.145Z</time>
    </trkpt>
    <trkpt lat="56.347558" lon="60.806174">
        <ele>293.3</ele>
        <time>1970-01-01T10:44:55.145Z</time>
    </trkpt>
    <trkpt lat="56.347542" lon="60.80622">
        <ele>293.3</ele>
        <time>1970-01-01T10:44:56.145Z</time>
    </trkpt>
    <trkpt lat="56.347531" lon="60.806276">
        <ele>293.3</ele>
        <time>1970-01-01T10:44:57.145Z</time>
    </trkpt>
    <trkpt lat="56.347516" lon="60.806317">
        <ele>293.3</ele>
        <time>1970-01-01T10:44:58.145Z</time>
    </trkpt>
    <trkpt lat="56.347508" lon="60.806337">
        <ele>293.3</ele>
        <time>1970-01-01T10:44:59.145Z</time>
    </trkpt>
    <trkpt lat="56.347492" lon="60.806399">
        <ele>293.3</ele>
        <time>1970-01-01T10:45:00.145Z</time>
    </trkpt>
    <trkpt lat="56.347482" lon="60.806446">
        <ele>294.3</ele>
        <time>1970-01-01T10:45:01.145Z</time>
    </trkpt>
    <trkpt lat="56.347472" lon="60.806502">
        <ele>294.3</ele>
        <time>1970-01-01T10:45:02.145Z</time>
    </trkpt>
    <trkpt lat="56.347456" lon="60.806571">
        <ele>294.3</ele>
        <time>1970-01-01T10:45:03.145Z</time>
    </trkpt>
    <trkpt lat="56.347451" lon="60.806597">
        <ele>295.3</ele>
        <time>1970-01-01T10:45:04.145Z</time>
    </trkpt>
    <trkpt lat="56.34745" lon="60.806657">
        <ele>295.3</ele>
        <time>1970-01-01T10:45:05.145Z</time>
    </trkpt>
    <trkpt lat="56.347448" lon="60.806682">
        <ele>295.3</ele>
        <time>1970-01-01T10:45:06.145Z</time>
    </trkpt>
    <trkpt lat="56.347446" lon="60.806746">
        <ele>295.3</ele>
        <time>1970-01-01T10:45:07.145Z</time>
    </trkpt>
    <trkpt lat="56.347438" lon="60.806766">
        <ele>295.3</ele>
        <time>1970-01-01T10:45:08.145Z</time>
    </trkpt>
    <trkpt lat="56.347428" lon="60.80682">
        <ele>295.3</ele>
        <time>1970-01-01T10:45:09.145Z</time>
    </trkpt>
    <trkpt lat="56.347417" lon="60.806865">
        <ele>295.3</ele>
        <time>1970-01-01T10:45:10.145Z</time>
    </trkpt>
    <trkpt lat="56.347413" lon="60.80689">
        <ele>295.3</ele>
        <time>1970-01-01T10:45:11.145Z</time>
    </trkpt>
    <trkpt lat="56.347401" lon="60.806954">
        <ele>295.3</ele>
        <time>1970-01-01T10:45:12.145Z</time>
    </trkpt>
    <trkpt lat="56.347384" lon="60.807006">
        <ele>295.3</ele>
        <time>1970-01-01T10:45:13.145Z</time>
    </trkpt>
    <trkpt lat="56.347376" lon="60.807064">
        <ele>295.3</ele>
        <time>1970-01-01T10:45:14.145Z</time>
    </trkpt>
    <trkpt lat="56.347362" lon="60.807113">
        <ele>295.3</ele>
        <time>1970-01-01T10:45:15.145Z</time>
    </trkpt>
    <trkpt lat="56.347343" lon="60.807162">
        <ele>295.3</ele>
        <time>1970-01-01T10:45:16.145Z</time>
    </trkpt>
    <trkpt lat="56.347323" lon="60.807216">
        <ele>295.3</ele>
        <time>1970-01-01T10:45:17.145Z</time>
    </trkpt>
    <trkpt lat="56.347306" lon="60.807264">
        <ele>295.3</ele>
        <time>1970-01-01T10:45:18.145Z</time>
    </trkpt>
    <trkpt lat="56.347291" lon="60.807307">
        <ele>294.3</ele>
        <time>1970-01-01T10:45:19.145Z</time>
    </trkpt>
    <trkpt lat="56.347274" lon="60.807369">
        <ele>295.3</ele>
        <time>1970-01-01T10:45:20.145Z</time>
    </trkpt>
    <trkpt lat="56.347266" lon="60.807435">
        <ele>295.3</ele>
        <time>1970-01-01T10:45:21.145Z</time>
    </trkpt>
    <trkpt lat="56.347263" lon="60.807455">
        <ele>294.3</ele>
        <time>1970-01-01T10:45:22.145Z</time>
    </trkpt>
    <trkpt lat="56.347265" lon="60.807513">
        <ele>294.3</ele>
        <time>1970-01-01T10:45:23.145Z</time>
    </trkpt>
    <trkpt lat="56.347263" lon="60.807535">
        <ele>294.3</ele>
        <time>1970-01-01T10:45:24.145Z</time>
    </trkpt>
    <trkpt lat="56.347254" lon="60.807561">
        <ele>294.3</ele>
        <time>1970-01-01T10:45:25.145Z</time>
    </trkpt>
    <trkpt lat="56.347246" lon="60.807582">
        <ele>294.3</ele>
        <time>1970-01-01T10:45:26.145Z</time>
    </trkpt>
    <trkpt lat="56.347229" lon="60.80764">
        <ele>293.3</ele>
        <time>1970-01-01T10:45:27.145Z</time>
    </trkpt>
    <trkpt lat="56.347221" lon="60.80766">
        <ele>293.3</ele>
        <time>1970-01-01T10:45:28.145Z</time>
    </trkpt>
    <trkpt lat="56.347205" lon="60.807705">
        <ele>293.3</ele>
        <time>1970-01-01T10:45:29.145Z</time>
    </trkpt>
    <trkpt lat="56.347194" lon="60.807761">
        <ele>293.3</ele>
        <time>1970-01-01T10:45:30.145Z</time>
    </trkpt>
    <trkpt lat="56.347175" lon="60.807798">
        <ele>292.3</ele>
        <time>1970-01-01T10:45:31.145Z</time>
    </trkpt>
    <trkpt lat="56.347158" lon="60.807856">
        <ele>292.3</ele>
        <time>1970-01-01T10:45:32.145Z</time>
    </trkpt>
    <trkpt lat="56.347157" lon="60.807875">
        <ele>292.3</ele>
        <time>1970-01-01T10:45:33.145Z</time>
    </trkpt>
    <trkpt lat="56.347157" lon="60.807934">
        <ele>292.3</ele>
        <time>1970-01-01T10:45:34.145Z</time>
    </trkpt>
    <trkpt lat="56.347158" lon="60.807954">
        <ele>291.3</ele>
        <time>1970-01-01T10:45:35.145Z</time>
    </trkpt>
    <trkpt lat="56.347153" lon="60.808014">
        <ele>291.3</ele>
        <time>1970-01-01T10:45:36.145Z</time>
    </trkpt>
    <trkpt lat="56.347149" lon="60.808025">
        <ele>291.3</ele>
        <time>1970-01-01T10:45:37.145Z</time>
    </trkpt>
    <trkpt lat="56.347146" lon="60.808036">
        <ele>291.3</ele>
        <time>1970-01-01T10:45:38.145Z</time>
    </trkpt>
    <trkpt lat="56.347143" lon="60.808047">
        <ele>291.3</ele>
        <time>1970-01-01T10:45:53.145Z</time>
    </trkpt>
    <trkpt lat="56.34714" lon="60.808058">
        <ele>291.3</ele>
        <time>1970-01-01T10:45:54.145Z</time>
    </trkpt>
    <trkpt lat="56.347137" lon="60.808068">
        <ele>291.3</ele>
        <time>1970-01-01T10:45:55.145Z</time>
    </trkpt>
    <trkpt lat="56.347134" lon="60.808079">
        <ele>291.3</ele>
        <time>1970-01-01T10:45:56.145Z</time>
    </trkpt>
    <trkpt lat="56.347131" lon="60.80809">
        <ele>291.3</ele>
        <time>1970-01-01T10:45:57.145Z</time>
    </trkpt>
    <trkpt lat="56.347128" lon="60.808101">
        <ele>291.3</ele>
        <time>1970-01-01T10:45:58.145Z</time>
    </trkpt>
    <trkpt lat="56.347124" lon="60.808111">
        <ele>291.3</ele>
        <time>1970-01-01T10:45:59.145Z</time>
    </trkpt>
    <trkpt lat="56.347119" lon="60.808125">
        <ele>290.3</ele>
        <time>1970-01-01T10:46:00.145Z</time>
    </trkpt>
    <trkpt lat="56.347111" lon="60.808137">
        <ele>290.3</ele>
        <time>1970-01-01T10:46:01.145Z</time>
    </trkpt>
    <trkpt lat="56.347104" lon="60.80815">
        <ele>290.3</ele>
        <time>1970-01-01T10:46:02.145Z</time>
    </trkpt>
    <trkpt lat="56.347106" lon="60.80816">
        <ele>290.3</ele>
        <time>1970-01-01T10:46:03.145Z</time>
    </trkpt>
    <trkpt lat="56.347101" lon="60.808177">
        <ele>290.3</ele>
        <time>1970-01-01T10:46:04.145Z</time>
    </trkpt>
    <trkpt lat="56.347098" lon="60.808206">
        <ele>290.3</ele>
        <time>1970-01-01T10:46:05.145Z</time>
    </trkpt>
    <trkpt lat="56.347091" lon="60.808238">
        <ele>290.3</ele>
        <time>1970-01-01T10:46:06.145Z</time>
    </trkpt>
    <trkpt lat="56.347087" lon="60.808255">
        <ele>290.3</ele>
        <time>1970-01-01T10:46:07.145Z</time>
    </trkpt>
    <trkpt lat="56.347072" lon="60.808302">
        <ele>290.3</ele>
        <time>1970-01-01T10:46:08.145Z</time>
    </trkpt>
    <trkpt lat="56.347064" lon="60.808321">
        <ele>290.3</ele>
        <time>1970-01-01T10:46:09.145Z</time>
    </trkpt>
    <trkpt lat="56.347051" lon="60.808369">
        <ele>290.3</ele>
        <time>1970-01-01T10:46:10.145Z</time>
    </trkpt>
    <trkpt lat="56.347042" lon="60.808425">
        <ele>290.3</ele>
        <time>1970-01-01T10:46:11.145Z</time>
    </trkpt>
    <trkpt lat="56.347038" lon="60.808481">
        <ele>290.3</ele>
        <time>1970-01-01T10:46:12.145Z</time>
    </trkpt>
    <trkpt lat="56.347031" lon="60.808511">
        <ele>290.3</ele>
        <time>1970-01-01T10:46:13.145Z</time>
    </trkpt>
    <trkpt lat="56.347016" lon="60.808584">
        <ele>290.3</ele>
        <time>1970-01-01T10:46:14.145Z</time>
    </trkpt>
    <trkpt lat="56.347011" lon="60.808603">
        <ele>290.3</ele>
        <time>1970-01-01T10:46:15.145Z</time>
    </trkpt>
    <trkpt lat="56.347005" lon="60.80867">
        <ele>289.3</ele>
        <time>1970-01-01T10:46:16.145Z</time>
    </trkpt>
    <trkpt lat="56.346996" lon="60.808722">
        <ele>289.3</ele>
        <time>1970-01-01T10:46:17.145Z</time>
    </trkpt>
    <trkpt lat="56.346991" lon="60.808744">
        <ele>289.3</ele>
        <time>1970-01-01T10:46:18.145Z</time>
    </trkpt>
    <trkpt lat="56.34698" lon="60.80881">
        <ele>290.3</ele>
        <time>1970-01-01T10:46:19.145Z</time>
    </trkpt>
    <trkpt lat="56.346969" lon="60.808851">
        <ele>289.3</ele>
        <time>1970-01-01T10:46:20.145Z</time>
    </trkpt>
    <trkpt lat="56.346957" lon="60.808892">
        <ele>289.3</ele>
        <time>1970-01-01T10:47:05.145Z</time>
    </trkpt>
    <trkpt lat="56.346946" lon="60.808933">
        <ele>289.3</ele>
        <time>1970-01-01T10:47:06.145Z</time>
    </trkpt>
    <trkpt lat="56.346935" lon="60.808974">
        <ele>289.3</ele>
        <time>1970-01-01T10:47:07.145Z</time>
    </trkpt>
    <trkpt lat="56.346928" lon="60.808977">
        <ele>289.3</ele>
        <time>1970-01-01T10:47:08.145Z</time>
    </trkpt>
    <trkpt lat="56.346918" lon="60.808988">
        <ele>290.3</ele>
        <time>1970-01-01T10:47:09.145Z</time>
    </trkpt>
    <trkpt lat="56.346914" lon="60.808996">
        <ele>290.3</ele>
        <time>1970-01-01T10:47:10.145Z</time>
    </trkpt>
    <trkpt lat="56.346912" lon="60.809003">
        <ele>290.3</ele>
        <time>1970-01-01T10:47:11.145Z</time>
    </trkpt>
    <trkpt lat="56.346913" lon="60.809019">
        <ele>290.3</ele>
        <time>1970-01-01T10:47:12.145Z</time>
    </trkpt>
    <trkpt lat="56.346912" lon="60.809025">
        <ele>290.3</ele>
        <time>1970-01-01T10:47:13.145Z</time>
    </trkpt>
    <trkpt lat="56.346908" lon="60.809027">
        <ele>290.3</ele>
        <time>1970-01-01T10:47:14.145Z</time>
    </trkpt>
    <trkpt lat="56.346908" lon="60.809022">
        <ele>290.3</ele>
        <time>1970-01-01T10:47:15.145Z</time>
    </trkpt>
    <trkpt lat="56.346908" lon="60.809029">
        <ele>290.3</ele>
        <time>1970-01-01T10:47:16.145Z</time>
    </trkpt>
    <trkpt lat="56.346905" lon="60.809046">
        <ele>290.3</ele>
        <time>1970-01-01T10:47:17.145Z</time>
    </trkpt>
    <trkpt lat="56.346904" lon="60.809062">
        <ele>290.3</ele>
        <time>1970-01-01T10:47:18.145Z</time>
    </trkpt>
    <trkpt lat="56.346903" lon="60.809092">
        <ele>290.3</ele>
        <time>1970-01-01T10:47:19.145Z</time>
    </trkpt>
    <trkpt lat="56.346906" lon="60.809117">
        <ele>290.3</ele>
        <time>1970-01-01T10:47:20.145Z</time>
    </trkpt>
    <trkpt lat="56.346903" lon="60.809129">
        <ele>290.3</ele>
        <time>1970-01-01T10:47:21.145Z</time>
    </trkpt>
    <trkpt lat="56.346886" lon="60.809179">
        <ele>291.3</ele>
        <time>1970-01-01T10:47:22.145Z</time>
    </trkpt>
    <trkpt lat="56.346888" lon="60.809218">
        <ele>291.3</ele>
        <time>1970-01-01T10:47:23.145Z</time>
    </trkpt>
    <trkpt lat="56.346885" lon="60.809242">
        <ele>291.3</ele>
        <time>1970-01-01T10:47:24.145Z</time>
    </trkpt>
    <trkpt lat="56.346883" lon="60.809271">
        <ele>291.3</ele>
        <time>1970-01-01T10:47:25.145Z</time>
    </trkpt>
    <trkpt lat="56.346888" lon="60.809294">
        <ele>291.3</ele>
        <time>1970-01-01T10:47:26.145Z</time>
    </trkpt>
    <trkpt lat="56.346885" lon="60.809315">
        <ele>291.3</ele>
        <time>1970-01-01T10:47:27.145Z</time>
    </trkpt>
    <trkpt lat="56.346882" lon="60.809368">
        <ele>292.3</ele>
        <time>1970-01-01T10:47:28.145Z</time>
    </trkpt>
    <trkpt lat="56.346876" lon="60.809381">
        <ele>292.3</ele>
        <time>1970-01-01T10:47:29.145Z</time>
    </trkpt>
    <trkpt lat="56.346869" lon="60.80944">
        <ele>292.3</ele>
        <time>1970-01-01T10:47:30.145Z</time>
    </trkpt>
    <trkpt lat="56.346868" lon="60.809461">
        <ele>292.3</ele>
        <time>1970-01-01T10:47:31.145Z</time>
    </trkpt>
    <trkpt lat="56.346863" lon="60.809523">
        <ele>292.3</ele>
        <time>1970-01-01T10:47:32.145Z</time>
    </trkpt>
    <trkpt lat="56.346863" lon="60.809575">
        <ele>292.3</ele>
        <time>1970-01-01T10:47:33.145Z</time>
    </trkpt>
    <trkpt lat="56.346861" lon="60.809598">
        <ele>292.3</ele>
        <time>1970-01-01T10:47:34.145Z</time>
    </trkpt>
    <trkpt lat="56.346856" lon="60.809653">
        <ele>292.3</ele>
        <time>1970-01-01T10:47:35.145Z</time>
    </trkpt>
    <trkpt lat="56.346859" lon="60.809701">
        <ele>293.3</ele>
        <time>1970-01-01T10:47:36.145Z</time>
    </trkpt>
    <trkpt lat="56.346858" lon="60.809727">
        <ele>293.3</ele>
        <time>1970-01-01T10:47:37.145Z</time>
    </trkpt>
    <trkpt lat="56.346855" lon="60.809791">
        <ele>293.3</ele>
        <time>1970-01-01T10:47:38.145Z</time>
    </trkpt>
    <trkpt lat="56.34685" lon="60.809851">
        <ele>293.3</ele>
        <time>1970-01-01T10:47:39.145Z</time>
    </trkpt>
    <trkpt lat="56.346841" lon="60.809902">
        <ele>293.3</ele>
        <time>1970-01-01T10:47:40.145Z</time>
    </trkpt>
    <trkpt lat="56.346839" lon="60.809918">
        <ele>293.3</ele>
        <time>1970-01-01T10:47:41.145Z</time>
    </trkpt>
    <trkpt lat="56.34683" lon="60.809981">
        <ele>293.3</ele>
        <time>1970-01-01T10:47:42.145Z</time>
    </trkpt>
    <trkpt lat="56.346824" lon="60.810003">
        <ele>293.3</ele>
        <time>1970-01-01T10:47:43.145Z</time>
    </trkpt>
    <trkpt lat="56.346813" lon="60.810061">
        <ele>294.3</ele>
        <time>1970-01-01T10:47:44.145Z</time>
    </trkpt>
    <trkpt lat="56.346812" lon="60.810084">
        <ele>294.3</ele>
        <time>1970-01-01T10:47:45.145Z</time>
    </trkpt>
    <trkpt lat="56.346813" lon="60.81015">
        <ele>294.3</ele>
        <time>1970-01-01T10:47:46.145Z</time>
    </trkpt>
    <trkpt lat="56.34681" lon="60.810175">
        <ele>294.3</ele>
        <time>1970-01-01T10:47:47.145Z</time>
    </trkpt>
    <trkpt lat="56.346807" lon="60.810242">
        <ele>293.3</ele>
        <time>1970-01-01T10:47:48.145Z</time>
    </trkpt>
    <trkpt lat="56.346804" lon="60.810266">
        <ele>293.3</ele>
        <time>1970-01-01T10:47:49.145Z</time>
    </trkpt>
    <trkpt lat="56.346803" lon="60.810326">
        <ele>293.3</ele>
        <time>1970-01-01T10:47:50.145Z</time>
    </trkpt>
    <trkpt lat="56.346798" lon="60.810383">
        <ele>293.3</ele>
        <time>1970-01-01T10:47:51.145Z</time>
    </trkpt>
    <trkpt lat="56.346799" lon="60.810436">
        <ele>293.3</ele>
        <time>1970-01-01T10:47:52.145Z</time>
    </trkpt>
    <trkpt lat="56.346799" lon="60.810453">
        <ele>293.3</ele>
        <time>1970-01-01T10:47:53.145Z</time>
    </trkpt>
    <trkpt lat="56.346795" lon="60.810511">
        <ele>293.3</ele>
        <time>1970-01-01T10:47:54.145Z</time>
    </trkpt>
    <trkpt lat="56.346787" lon="60.810566">
        <ele>293.3</ele>
        <time>1970-01-01T10:47:55.145Z</time>
    </trkpt>
    <trkpt lat="56.346785" lon="60.810609">
        <ele>293.3</ele>
        <time>1970-01-01T10:47:56.145Z</time>
    </trkpt>
    <trkpt lat="56.346782" lon="60.810693">
        <ele>293.3</ele>
        <time>1970-01-01T10:47:57.145Z</time>
    </trkpt>
    <trkpt lat="56.346783" lon="60.810717">
        <ele>291.3</ele>
        <time>1970-01-01T10:47:58.145Z</time>
    </trkpt>
    <trkpt lat="56.346783" lon="60.810774">
        <ele>291.3</ele>
        <time>1970-01-01T10:47:59.145Z</time>
    </trkpt>
    <trkpt lat="56.346786" lon="60.810789">
        <ele>291.3</ele>
        <time>1970-01-01T10:48:00.145Z</time>
    </trkpt>
    <trkpt lat="56.346793" lon="60.810843">
        <ele>291.3</ele>
        <time>1970-01-01T10:48:01.145Z</time>
    </trkpt>
    <trkpt lat="56.34678" lon="60.810926">
        <ele>289.3</ele>
        <time>1970-01-01T10:48:02.145Z</time>
    </trkpt>
    <trkpt lat="56.346773" lon="60.810989">
        <ele>289.3</ele>
        <time>1970-01-01T10:48:03.145Z</time>
    </trkpt>
    <trkpt lat="56.346771" lon="60.811049">
        <ele>287.3</ele>
        <time>1970-01-01T10:48:04.145Z</time>
    </trkpt>
    <trkpt lat="56.346767" lon="60.811115">
        <ele>287.3</ele>
        <time>1970-01-01T10:48:05.145Z</time>
    </trkpt>
    <trkpt lat="56.346771" lon="60.811172">
        <ele>287.3</ele>
        <time>1970-01-01T10:48:06.145Z</time>
    </trkpt>
    <trkpt lat="56.346769" lon="60.811196">
        <ele>287.3</ele>
        <time>1970-01-01T10:48:07.145Z</time>
    </trkpt>
    <trkpt lat="56.346762" lon="60.811258">
        <ele>286.3</ele>
        <time>1970-01-01T10:48:08.145Z</time>
    </trkpt>
    <trkpt lat="56.346756" lon="60.811278">
        <ele>286.3</ele>
        <time>1970-01-01T10:48:09.145Z</time>
    </trkpt>
    <trkpt lat="56.346742" lon="60.811331">
        <ele>286.3</ele>
        <time>1970-01-01T10:48:10.145Z</time>
    </trkpt>
    <trkpt lat="56.346739" lon="60.811349">
        <ele>286.3</ele>
        <time>1970-01-01T10:48:11.145Z</time>
    </trkpt>
    <trkpt lat="56.34673" lon="60.811396">
        <ele>285.3</ele>
        <time>1970-01-01T10:48:12.145Z</time>
    </trkpt>
    <trkpt lat="56.346716" lon="60.811445">
        <ele>285.3</ele>
        <time>1970-01-01T10:48:13.145Z</time>
    </trkpt>
    <trkpt lat="56.346694" lon="60.811499">
        <ele>284.3</ele>
        <time>1970-01-01T10:48:14.145Z</time>
    </trkpt>
    <trkpt lat="56.34668" lon="60.811552">
        <ele>284.3</ele>
        <time>1970-01-01T10:48:15.145Z</time>
    </trkpt>
    <trkpt lat="56.346675" lon="60.811572">
        <ele>283.3</ele>
        <time>1970-01-01T10:48:16.145Z</time>
    </trkpt>
    <trkpt lat="56.34667" lon="60.811617">
        <ele>283.3</ele>
        <time>1970-01-01T10:48:17.145Z</time>
    </trkpt>
    <trkpt lat="56.34665" lon="60.811664">
        <ele>283.3</ele>
        <time>1970-01-01T10:48:18.145Z</time>
    </trkpt>
    <trkpt lat="56.346646" lon="60.811676">
        <ele>283.3</ele>
        <time>1970-01-01T10:48:19.145Z</time>
    </trkpt>
    <trkpt lat="56.346628" lon="60.811723">
        <ele>283.3</ele>
        <time>1970-01-01T10:48:20.145Z</time>
    </trkpt>
    <trkpt lat="56.346624" lon="60.811744">
        <ele>283.3</ele>
        <time>1970-01-01T10:48:21.145Z</time>
    </trkpt>
    <trkpt lat="56.346603" lon="60.811801">
        <ele>283.3</ele>
        <time>1970-01-01T10:48:22.145Z</time>
    </trkpt>
    <trkpt lat="56.34659" lon="60.811827">
        <ele>283.3</ele>
        <time>1970-01-01T10:48:23.145Z</time>
    </trkpt>
    <trkpt lat="56.346562" lon="60.811889">
        <ele>283.3</ele>
        <time>1970-01-01T10:48:24.145Z</time>
    </trkpt>
    <trkpt lat="56.346548" lon="60.811933">
        <ele>283.3</ele>
        <time>1970-01-01T10:48:25.145Z</time>
    </trkpt>
    <trkpt lat="56.346533" lon="60.811978">
        <ele>283.3</ele>
        <time>1970-01-01T10:48:26.145Z</time>
    </trkpt>
    <trkpt lat="56.346527" lon="60.811998">
        <ele>283.3</ele>
        <time>1970-01-01T10:48:27.145Z</time>
    </trkpt>
    <trkpt lat="56.346508" lon="60.81204">
        <ele>283.3</ele>
        <time>1970-01-01T10:48:28.145Z</time>
    </trkpt>
    <trkpt lat="56.346487" lon="60.81208">
        <ele>283.3</ele>
        <time>1970-01-01T10:48:29.145Z</time>
    </trkpt>
    <trkpt lat="56.346484" lon="60.812092">
        <ele>283.3</ele>
        <time>1970-01-01T10:48:30.145Z</time>
    </trkpt>
    <trkpt lat="56.346472" lon="60.812144">
        <ele>283.3</ele>
        <time>1970-01-01T10:48:31.145Z</time>
    </trkpt>
    <trkpt lat="56.346459" lon="60.812191">
        <ele>283.3</ele>
        <time>1970-01-01T10:48:32.145Z</time>
    </trkpt>
    <trkpt lat="56.346436" lon="60.812241">
        <ele>283.3</ele>
        <time>1970-01-01T10:48:33.145Z</time>
    </trkpt>
    <trkpt lat="56.346426" lon="60.812259">
        <ele>283.3</ele>
        <time>1970-01-01T10:48:34.145Z</time>
    </trkpt>
    <trkpt lat="56.346403" lon="60.812313">
        <ele>283.3</ele>
        <time>1970-01-01T10:48:35.145Z</time>
    </trkpt>
    <trkpt lat="56.346389" lon="60.812359">
        <ele>283.3</ele>
        <time>1970-01-01T10:48:36.145Z</time>
    </trkpt>
    <trkpt lat="56.346373" lon="60.812404">
        <ele>283.3</ele>
        <time>1970-01-01T10:48:37.145Z</time>
    </trkpt>
    <trkpt lat="56.346348" lon="60.81247">
        <ele>283.3</ele>
        <time>1970-01-01T10:48:38.145Z</time>
    </trkpt>
    <trkpt lat="56.346341" lon="60.812495">
        <ele>283.3</ele>
        <time>1970-01-01T10:48:39.145Z</time>
    </trkpt>
    <trkpt lat="56.346322" lon="60.812559">
        <ele>282.3</ele>
        <time>1970-01-01T10:48:40.145Z</time>
    </trkpt>
    <trkpt lat="56.346301" lon="60.812606">
        <ele>282.3</ele>
        <time>1970-01-01T10:48:41.145Z</time>
    </trkpt>
    <trkpt lat="56.346286" lon="60.812647">
        <ele>282.3</ele>
        <time>1970-01-01T10:48:42.145Z</time>
    </trkpt>
    <trkpt lat="56.346277" lon="60.812672">
        <ele>282.3</ele>
        <time>1970-01-01T10:48:43.145Z</time>
    </trkpt>
    <trkpt lat="56.346261" lon="60.812735">
        <ele>282.3</ele>
        <time>1970-01-01T10:48:44.145Z</time>
    </trkpt>
    <trkpt lat="56.346257" lon="60.812757">
        <ele>282.3</ele>
        <time>1970-01-01T10:48:45.145Z</time>
    </trkpt>
    <trkpt lat="56.34624" lon="60.812819">
        <ele>282.3</ele>
        <time>1970-01-01T10:48:46.145Z</time>
    </trkpt>
    <trkpt lat="56.346236" lon="60.812831">
        <ele>282.3</ele>
        <time>1970-01-01T10:48:47.145Z</time>
    </trkpt>
    <trkpt lat="56.346222" lon="60.812879">
        <ele>281.3</ele>
        <time>1970-01-01T10:48:48.145Z</time>
    </trkpt>
    <trkpt lat="56.346215" lon="60.812901">
        <ele>281.3</ele>
        <time>1970-01-01T10:48:49.145Z</time>
    </trkpt>
    <trkpt lat="56.346199" lon="60.812958">
        <ele>281.3</ele>
        <time>1970-01-01T10:48:50.145Z</time>
    </trkpt>
    <trkpt lat="56.346192" lon="60.812979">
        <ele>281.3</ele>
        <time>1970-01-01T10:48:51.145Z</time>
    </trkpt>
    <trkpt lat="56.346179" lon="60.813029">
        <ele>281.3</ele>
        <time>1970-01-01T10:48:52.145Z</time>
    </trkpt>
    <trkpt lat="56.346178" lon="60.813042">
        <ele>281.3</ele>
        <time>1970-01-01T10:48:53.145Z</time>
    </trkpt>
    <trkpt lat="56.346167" lon="60.813095">
        <ele>281.3</ele>
        <time>1970-01-01T10:48:54.145Z</time>
    </trkpt>
    <trkpt lat="56.34616" lon="60.813108">
        <ele>280.3</ele>
        <time>1970-01-01T10:48:55.145Z</time>
    </trkpt>
    <trkpt lat="56.346141" lon="60.813154">
        <ele>280.3</ele>
        <time>1970-01-01T10:48:56.145Z</time>
    </trkpt>
    <trkpt lat="56.346135" lon="60.813174">
        <ele>280.3</ele>
        <time>1970-01-01T10:48:57.145Z</time>
    </trkpt>
    <trkpt lat="56.346125" lon="60.813234">
        <ele>279.3</ele>
        <time>1970-01-01T10:48:58.145Z</time>
    </trkpt>
    <trkpt lat="56.346119" lon="60.813256">
        <ele>279.3</ele>
        <time>1970-01-01T10:48:59.145Z</time>
    </trkpt>
    <trkpt lat="56.346104" lon="60.813285">
        <ele>279.3</ele>
        <time>1970-01-01T10:49:00.145Z</time>
    </trkpt>
    <trkpt lat="56.346097" lon="60.813303">
        <ele>279.3</ele>
        <time>1970-01-01T10:49:01.145Z</time>
    </trkpt>
    <trkpt lat="56.34608" lon="60.813348">
        <ele>279.3</ele>
        <time>1970-01-01T10:49:02.145Z</time>
    </trkpt>
    <trkpt lat="56.346075" lon="60.813365">
        <ele>279.3</ele>
        <time>1970-01-01T10:49:03.145Z</time>
    </trkpt>
    <trkpt lat="56.346063" lon="60.813409">
        <ele>279.3</ele>
        <time>1970-01-01T10:49:04.145Z</time>
    </trkpt>
    <trkpt lat="56.346058" lon="60.813445">
        <ele>279.3</ele>
        <time>1970-01-01T10:49:05.145Z</time>
    </trkpt>
    <trkpt lat="56.346052" lon="60.813463">
        <ele>278.3</ele>
        <time>1970-01-01T10:49:06.145Z</time>
    </trkpt>
    <trkpt lat="56.346048" lon="60.813477">
        <ele>278.3</ele>
        <time>1970-01-01T10:49:07.145Z</time>
    </trkpt>
    <trkpt lat="56.346041" lon="60.813528">
        <ele>278.3</ele>
        <time>1970-01-01T10:49:08.145Z</time>
    </trkpt>
    <trkpt lat="56.346034" lon="60.813552">
        <ele>277.3</ele>
        <time>1970-01-01T10:49:09.145Z</time>
    </trkpt>
    <trkpt lat="56.346022" lon="60.813579">
        <ele>277.3</ele>
        <time>1970-01-01T10:49:10.145Z</time>
    </trkpt>
    <trkpt lat="56.346017" lon="60.813594">
        <ele>277.3</ele>
        <time>1970-01-01T10:49:11.145Z</time>
    </trkpt>
    <trkpt lat="56.346006" lon="60.813645">
        <ele>276.3</ele>
        <time>1970-01-01T10:49:12.145Z</time>
    </trkpt>
    <trkpt lat="56.346005" lon="60.81366">
        <ele>276.3</ele>
        <time>1970-01-01T10:49:13.145Z</time>
    </trkpt>
    <trkpt lat="56.345992" lon="60.813711">
        <ele>276.3</ele>
        <time>1970-01-01T10:49:14.145Z</time>
    </trkpt>
    <trkpt lat="56.345988" lon="60.813724">
        <ele>276.3</ele>
        <time>1970-01-01T10:49:15.145Z</time>
    </trkpt>
    <trkpt lat="56.345968" lon="60.81377">
        <ele>276.3</ele>
        <time>1970-01-01T10:49:16.145Z</time>
    </trkpt>
    <trkpt lat="56.345962" lon="60.813788">
        <ele>276.3</ele>
        <time>1970-01-01T10:49:17.145Z</time>
    </trkpt>
    <trkpt lat="56.345944" lon="60.813838">
        <ele>275.3</ele>
        <time>1970-01-01T10:49:18.145Z</time>
    </trkpt>
    <trkpt lat="56.34594" lon="60.813861">
        <ele>275.3</ele>
        <time>1970-01-01T10:49:19.145Z</time>
    </trkpt>
    <trkpt lat="56.345926" lon="60.813884">
        <ele>275.3</ele>
        <time>1970-01-01T10:49:20.145Z</time>
    </trkpt>
    <trkpt lat="56.345918" lon="60.813898">
        <ele>275.3</ele>
        <time>1970-01-01T10:49:21.145Z</time>
    </trkpt>
    <trkpt lat="56.345893" lon="60.813939">
        <ele>275.3</ele>
        <time>1970-01-01T10:49:22.145Z</time>
    </trkpt>
    <trkpt lat="56.345884" lon="60.81396">
        <ele>275.3</ele>
        <time>1970-01-01T10:49:23.145Z</time>
    </trkpt>
    <trkpt lat="56.345857" lon="60.814015">
        <ele>274.3</ele>
        <time>1970-01-01T10:49:24.145Z</time>
    </trkpt>
    <trkpt lat="56.345834" lon="60.814054">
        <ele>274.3</ele>
        <time>1970-01-01T10:49:25.145Z</time>
    </trkpt>
    <trkpt lat="56.345808" lon="60.814094">
        <ele>274.3</ele>
        <time>1970-01-01T10:49:26.145Z</time>
    </trkpt>
    <trkpt lat="56.345805" lon="60.814106">
        <ele>274.3</ele>
        <time>1970-01-01T10:49:27.145Z</time>
    </trkpt>
    <trkpt lat="56.345794" lon="60.814156">
        <ele>273.3</ele>
        <time>1970-01-01T10:49:28.145Z</time>
    </trkpt>
    <trkpt lat="56.345774" lon="60.814196">
        <ele>273.3</ele>
        <time>1970-01-01T10:49:29.145Z</time>
    </trkpt>
    <trkpt lat="56.345771" lon="60.814211">
        <ele>273.3</ele>
        <time>1970-01-01T10:49:30.145Z</time>
    </trkpt>
    <trkpt lat="56.345749" lon="60.814239">
        <ele>274.3</ele>
        <time>1970-01-01T10:49:31.145Z</time>
    </trkpt>
    <trkpt lat="56.345733" lon="60.814283">
        <ele>274.3</ele>
        <time>1970-01-01T10:49:32.145Z</time>
    </trkpt>
    <trkpt lat="56.345721" lon="60.814302">
        <ele>274.3</ele>
        <time>1970-01-01T10:49:33.145Z</time>
    </trkpt>
    <trkpt lat="56.345689" lon="60.814354">
        <ele>274.3</ele>
        <time>1970-01-01T10:49:34.145Z</time>
    </trkpt>
    <trkpt lat="56.345658" lon="60.814396">
        <ele>275.3</ele>
        <time>1970-01-01T10:49:35.145Z</time>
    </trkpt>
    <trkpt lat="56.345629" lon="60.814445">
        <ele>275.3</ele>
        <time>1970-01-01T10:49:36.145Z</time>
    </trkpt>
    <trkpt lat="56.345623" lon="60.814465">
        <ele>275.3</ele>
        <time>1970-01-01T10:49:37.145Z</time>
    </trkpt>
    <trkpt lat="56.345613" lon="60.814531">
        <ele>276.3</ele>
        <time>1970-01-01T10:49:38.145Z</time>
    </trkpt>
    <trkpt lat="56.34561" lon="60.81455">
        <ele>276.3</ele>
        <time>1970-01-01T10:49:39.145Z</time>
    </trkpt>
    <trkpt lat="56.345601" lon="60.814614">
        <ele>276.3</ele>
        <time>1970-01-01T10:49:40.145Z</time>
    </trkpt>
    <trkpt lat="56.345583" lon="60.814663">
        <ele>276.3</ele>
        <time>1970-01-01T10:49:41.145Z</time>
    </trkpt>
    <trkpt lat="56.345567" lon="60.814715">
        <ele>276.3</ele>
        <time>1970-01-01T10:49:42.145Z</time>
    </trkpt>
    <trkpt lat="56.345552" lon="60.81477">
        <ele>278.3</ele>
        <time>1970-01-01T10:49:43.145Z</time>
    </trkpt>
    <trkpt lat="56.345555" lon="60.814824">
        <ele>279.3</ele>
        <time>1970-01-01T10:49:44.145Z</time>
    </trkpt>
    <trkpt lat="56.345565" lon="60.814875">
        <ele>277.3</ele>
        <time>1970-01-01T10:49:45.145Z</time>
    </trkpt>
    <trkpt lat="56.345567" lon="60.814931">
        <ele>277.3</ele>
        <time>1970-01-01T10:49:46.145Z</time>
    </trkpt>
    <trkpt lat="56.345562" lon="60.814955">
        <ele>279.3</ele>
        <time>1970-01-01T10:49:47.145Z</time>
    </trkpt>
    <trkpt lat="56.345561" lon="60.815011">
        <ele>280.3</ele>
        <time>1970-01-01T10:49:48.145Z</time>
    </trkpt>
    <trkpt lat="56.345567" lon="60.815072">
        <ele>278.3</ele>
        <time>1970-01-01T10:49:49.145Z</time>
    </trkpt>
    <trkpt lat="56.345574" lon="60.81514">
        <ele>278.3</ele>
        <time>1970-01-01T10:49:50.145Z</time>
    </trkpt>
    <trkpt lat="56.345577" lon="60.815164">
        <ele>278.3</ele>
        <time>1970-01-01T10:49:51.145Z</time>
    </trkpt>
    <trkpt lat="56.345577" lon="60.815222">
        <ele>278.3</ele>
        <time>1970-01-01T10:49:52.145Z</time>
    </trkpt>
    <trkpt lat="56.345572" lon="60.815277">
        <ele>278.3</ele>
        <time>1970-01-01T10:49:53.145Z</time>
    </trkpt>
    <trkpt lat="56.345575" lon="60.815346">
        <ele>279.3</ele>
        <time>1970-01-01T10:49:54.145Z</time>
    </trkpt>
    <trkpt lat="56.345578" lon="60.815404">
        <ele>279.3</ele>
        <time>1970-01-01T10:49:55.145Z</time>
    </trkpt>
    <trkpt lat="56.345588" lon="60.815454">
        <ele>279.3</ele>
        <time>1970-01-01T10:49:56.145Z</time>
    </trkpt>
    <trkpt lat="56.34559" lon="60.81547">
        <ele>279.3</ele>
        <time>1970-01-01T10:49:57.145Z</time>
    </trkpt>
    <trkpt lat="56.345594" lon="60.815527">
        <ele>280.3</ele>
        <time>1970-01-01T10:49:58.145Z</time>
    </trkpt>
    <trkpt lat="56.345598" lon="60.815577">
        <ele>280.3</ele>
        <time>1970-01-01T10:49:59.145Z</time>
    </trkpt>
    <trkpt lat="56.345605" lon="60.815626">
        <ele>280.3</ele>
        <time>1970-01-01T10:50:00.145Z</time>
    </trkpt>
    <trkpt lat="56.345608" lon="60.81565">
        <ele>280.3</ele>
        <time>1970-01-01T10:50:01.145Z</time>
    </trkpt>
    <trkpt lat="56.345621" lon="60.815681">
        <ele>281.3</ele>
        <time>1970-01-01T10:50:02.145Z</time>
    </trkpt>
    <trkpt lat="56.345625" lon="60.815703">
        <ele>281.3</ele>
        <time>1970-01-01T10:50:03.145Z</time>
    </trkpt>
    <trkpt lat="56.345639" lon="60.815769">
        <ele>281.3</ele>
        <time>1970-01-01T10:50:04.145Z</time>
    </trkpt>
    <trkpt lat="56.345648" lon="60.815793">
        <ele>281.3</ele>
        <time>1970-01-01T10:50:05.145Z</time>
    </trkpt>
    <trkpt lat="56.345667" lon="60.815845">
        <ele>279.3</ele>
        <time>1970-01-01T10:50:06.145Z</time>
    </trkpt>
    <trkpt lat="56.345671" lon="60.815862">
        <ele>281.3</ele>
        <time>1970-01-01T10:50:07.145Z</time>
    </trkpt>
    <trkpt lat="56.345687" lon="60.815919">
        <ele>281.3</ele>
        <time>1970-01-01T10:50:08.145Z</time>
    </trkpt>
    <trkpt lat="56.345697" lon="60.815938">
        <ele>281.3</ele>
        <time>1970-01-01T10:50:09.145Z</time>
    </trkpt>
    <trkpt lat="56.345717" lon="60.815977">
        <ele>281.3</ele>
        <time>1970-01-01T10:50:10.145Z</time>
    </trkpt>
    <trkpt lat="56.345725" lon="60.815991">
        <ele>281.3</ele>
        <time>1970-01-01T10:50:11.145Z</time>
    </trkpt>
    <trkpt lat="56.34575" lon="60.816042">
        <ele>282.3</ele>
        <time>1970-01-01T10:50:12.145Z</time>
    </trkpt>
    <trkpt lat="56.345752" lon="60.816058">
        <ele>282.3</ele>
        <time>1970-01-01T10:50:13.145Z</time>
    </trkpt>
    <trkpt lat="56.345764" lon="60.816103">
        <ele>280.3</ele>
        <time>1970-01-01T10:50:14.145Z</time>
    </trkpt>
    <trkpt lat="56.345769" lon="60.816114">
        <ele>280.3</ele>
        <time>1970-01-01T10:50:15.145Z</time>
    </trkpt>
    <trkpt lat="56.345775" lon="60.816125">
        <ele>280.3</ele>
        <time>1970-01-01T10:50:16.145Z</time>
    </trkpt>
    <trkpt lat="56.34579" lon="60.816148">
        <ele>280.3</ele>
        <time>1970-01-01T10:50:17.145Z</time>
    </trkpt>
    <trkpt lat="56.345799" lon="60.816168">
        <ele>280.3</ele>
        <time>1970-01-01T10:50:18.145Z</time>
    </trkpt>
    <trkpt lat="56.34581" lon="60.81618">
        <ele>280.3</ele>
        <time>1970-01-01T10:50:19.145Z</time>
    </trkpt>
    <trkpt lat="56.345817" lon="60.816191">
        <ele>280.3</ele>
        <time>1970-01-01T10:50:20.145Z</time>
    </trkpt>
    <trkpt lat="56.34584" lon="60.816225">
        <ele>281.3</ele>
        <time>1970-01-01T10:50:21.145Z</time>
    </trkpt>
    <trkpt lat="56.345844" lon="60.816248">
        <ele>281.3</ele>
        <time>1970-01-01T10:50:22.145Z</time>
    </trkpt>
    <trkpt lat="56.345854" lon="60.816274">
        <ele>279.3</ele>
        <time>1970-01-01T10:50:23.145Z</time>
    </trkpt>
    <trkpt lat="56.345864" lon="60.816305">
        <ele>279.3</ele>
        <time>1970-01-01T10:50:24.145Z</time>
    </trkpt>
    <trkpt lat="56.345872" lon="60.81633">
        <ele>279.3</ele>
        <time>1970-01-01T10:50:25.145Z</time>
    </trkpt>
    <trkpt lat="56.345877" lon="60.816347">
        <ele>279.3</ele>
        <time>1970-01-01T10:50:26.145Z</time>
    </trkpt>
    <trkpt lat="56.345889" lon="60.816404">
        <ele>280.3</ele>
        <time>1970-01-01T10:50:27.145Z</time>
    </trkpt>
    <trkpt lat="56.345891" lon="60.816426">
        <ele>280.3</ele>
        <time>1970-01-01T10:50:28.145Z</time>
    </trkpt>
    <trkpt lat="56.345905" lon="60.816488">
        <ele>280.3</ele>
        <time>1970-01-01T10:50:29.145Z</time>
    </trkpt>
    <trkpt lat="56.345905" lon="60.816511">
        <ele>280.3</ele>
        <time>1970-01-01T10:50:30.145Z</time>
    </trkpt>
    <trkpt lat="56.345916" lon="60.816574">
        <ele>281.3</ele>
        <time>1970-01-01T10:50:31.145Z</time>
    </trkpt>
    <trkpt lat="56.34592" lon="60.816596">
        <ele>281.3</ele>
        <time>1970-01-01T10:50:32.145Z</time>
    </trkpt>
    <trkpt lat="56.345937" lon="60.816643">
        <ele>281.3</ele>
        <time>1970-01-01T10:50:33.145Z</time>
    </trkpt>
    <trkpt lat="56.345938" lon="60.816669">
        <ele>281.3</ele>
        <time>1970-01-01T10:50:34.145Z</time>
    </trkpt>
    <trkpt lat="56.345942" lon="60.816726">
        <ele>281.3</ele>
        <time>1970-01-01T10:50:35.145Z</time>
    </trkpt>
    <trkpt lat="56.345947" lon="60.816777">
        <ele>279.3</ele>
        <time>1970-01-01T10:50:36.145Z</time>
    </trkpt>
    <trkpt lat="56.345952" lon="60.816841">
        <ele>279.3</ele>
        <time>1970-01-01T10:50:37.145Z</time>
    </trkpt>
    <trkpt lat="56.345961" lon="60.816888">
        <ele>279.3</ele>
        <time>1970-01-01T10:50:38.145Z</time>
    </trkpt>
    <trkpt lat="56.345959" lon="60.816906">
        <ele>279.3</ele>
        <time>1970-01-01T10:50:39.145Z</time>
    </trkpt>
    <trkpt lat="56.345953" lon="60.816971">
        <ele>279.3</ele>
        <time>1970-01-01T10:50:40.145Z</time>
    </trkpt>
    <trkpt lat="56.34594" lon="60.817021">
        <ele>281.3</ele>
        <time>1970-01-01T10:50:41.145Z</time>
    </trkpt>
    <trkpt lat="56.345935" lon="60.817069">
        <ele>281.3</ele>
        <time>1970-01-01T10:50:42.145Z</time>
    </trkpt>
    <trkpt lat="56.345933" lon="60.817122">
        <ele>281.3</ele>
        <time>1970-01-01T10:50:43.145Z</time>
    </trkpt>
    <trkpt lat="56.345926" lon="60.817173">
        <ele>281.3</ele>
        <time>1970-01-01T10:50:44.145Z</time>
    </trkpt>
    <trkpt lat="56.345915" lon="60.817225">
        <ele>281.3</ele>
        <time>1970-01-01T10:50:45.145Z</time>
    </trkpt>
    <trkpt lat="56.345905" lon="60.817273">
        <ele>281.3</ele>
        <time>1970-01-01T10:50:46.145Z</time>
    </trkpt>
    <trkpt lat="56.345894" lon="60.817321">
        <ele>281.3</ele>
        <time>1970-01-01T10:50:47.145Z</time>
    </trkpt>
    <trkpt lat="56.345877" lon="60.817374">
        <ele>281.3</ele>
        <time>1970-01-01T10:50:48.145Z</time>
    </trkpt>
    <trkpt lat="56.34587" lon="60.817428">
        <ele>280.3</ele>
        <time>1970-01-01T10:50:49.145Z</time>
    </trkpt>
    <trkpt lat="56.345867" lon="60.817453">
        <ele>280.3</ele>
        <time>1970-01-01T10:50:50.145Z</time>
    </trkpt>
    <trkpt lat="56.345857" lon="60.817515">
        <ele>280.3</ele>
        <time>1970-01-01T10:50:51.145Z</time>
    </trkpt>
    <trkpt lat="56.345857" lon="60.817533">
        <ele>280.3</ele>
        <time>1970-01-01T10:50:52.145Z</time>
    </trkpt>
    <trkpt lat="56.345853" lon="60.817594">
        <ele>279.3</ele>
        <time>1970-01-01T10:50:53.145Z</time>
    </trkpt>
    <trkpt lat="56.345836" lon="60.817639">
        <ele>281.3</ele>
        <time>1970-01-01T10:50:54.145Z</time>
    </trkpt>
    <trkpt lat="56.345828" lon="60.817688">
        <ele>281.3</ele>
        <time>1970-01-01T10:50:55.145Z</time>
    </trkpt>
    <trkpt lat="56.345825" lon="60.817707">
        <ele>281.3</ele>
        <time>1970-01-01T10:50:56.145Z</time>
    </trkpt>
    <trkpt lat="56.345817" lon="60.817764">
        <ele>279.3</ele>
        <time>1970-01-01T10:50:57.145Z</time>
    </trkpt>
    <trkpt lat="56.345813" lon="60.817788">
        <ele>279.3</ele>
        <time>1970-01-01T10:50:58.145Z</time>
    </trkpt>
    <trkpt lat="56.345803" lon="60.817842">
        <ele>279.3</ele>
        <time>1970-01-01T10:50:59.145Z</time>
    </trkpt>
    <trkpt lat="56.345798" lon="60.817863">
        <ele>279.3</ele>
        <time>1970-01-01T10:51:00.145Z</time>
    </trkpt>
    <trkpt lat="56.345784" lon="60.817913">
        <ele>278.3</ele>
        <time>1970-01-01T10:51:01.145Z</time>
    </trkpt>
    <trkpt lat="56.345773" lon="60.817959">
        <ele>278.3</ele>
        <time>1970-01-01T10:51:02.145Z</time>
    </trkpt>
    <trkpt lat="56.345767" lon="60.817974">
        <ele>278.3</ele>
        <time>1970-01-01T10:51:03.145Z</time>
    </trkpt>
    <trkpt lat="56.345744" lon="60.818017">
        <ele>280.3</ele>
        <time>1970-01-01T10:51:04.145Z</time>
    </trkpt>
    <trkpt lat="56.345743" lon="60.818032">
        <ele>280.3</ele>
        <time>1970-01-01T10:51:05.145Z</time>
    </trkpt>
    <trkpt lat="56.345725" lon="60.81808">
        <ele>280.3</ele>
        <time>1970-01-01T10:51:06.145Z</time>
    </trkpt>
    <trkpt lat="56.345715" lon="60.818103">
        <ele>279.3</ele>
        <time>1970-01-01T10:51:07.145Z</time>
    </trkpt>
    <trkpt lat="56.345699" lon="60.818161">
        <ele>279.3</ele>
        <time>1970-01-01T10:51:08.145Z</time>
    </trkpt>
    <trkpt lat="56.345683" lon="60.818209">
        <ele>279.3</ele>
        <time>1970-01-01T10:51:09.145Z</time>
    </trkpt>
    <trkpt lat="56.345674" lon="60.818229">
        <ele>279.3</ele>
        <time>1970-01-01T10:51:10.145Z</time>
    </trkpt>
    <trkpt lat="56.345656" lon="60.818277">
        <ele>279.3</ele>
        <time>1970-01-01T10:51:11.145Z</time>
    </trkpt>
    <trkpt lat="56.345638" lon="60.818318">
        <ele>279.3</ele>
        <time>1970-01-01T10:51:12.145Z</time>
    </trkpt>
    <trkpt lat="56.345624" lon="60.818372">
        <ele>279.3</ele>
        <time>1970-01-01T10:51:13.145Z</time>
    </trkpt>
    <trkpt lat="56.345601" lon="60.818436">
        <ele>278.3</ele>
        <time>1970-01-01T10:51:14.145Z</time>
    </trkpt>
    <trkpt lat="56.345576" lon="60.818488">
        <ele>278.3</ele>
        <time>1970-01-01T10:51:15.145Z</time>
    </trkpt>
    <trkpt lat="56.345555" lon="60.818527">
        <ele>280.3</ele>
        <time>1970-01-01T10:51:16.145Z</time>
    </trkpt>
    <trkpt lat="56.345548" lon="60.818545">
        <ele>280.3</ele>
        <time>1970-01-01T10:51:17.145Z</time>
    </trkpt>
    <trkpt lat="56.345527" lon="60.818584">
        <ele>280.3</ele>
        <time>1970-01-01T10:51:18.145Z</time>
    </trkpt>
    <trkpt lat="56.345521" lon="60.818606">
        <ele>280.3</ele>
        <time>1970-01-01T10:51:19.145Z</time>
    </trkpt>
    <trkpt lat="56.34551" lon="60.818674">
        <ele>280.3</ele>
        <time>1970-01-01T10:51:20.145Z</time>
    </trkpt>
    <trkpt lat="56.345504" lon="60.818694">
        <ele>280.3</ele>
        <time>1970-01-01T10:51:21.145Z</time>
    </trkpt>
    <trkpt lat="56.345492" lon="60.818731">
        <ele>280.3</ele>
        <time>1970-01-01T10:51:22.145Z</time>
    </trkpt>
    <trkpt lat="56.345478" lon="60.818777">
        <ele>279.3</ele>
        <time>1970-01-01T10:51:23.145Z</time>
    </trkpt>
    <trkpt lat="56.345465" lon="60.818804">
        <ele>281.3</ele>
        <time>1970-01-01T10:51:24.145Z</time>
    </trkpt>
    <trkpt lat="56.34543" lon="60.818849">
        <ele>281.3</ele>
        <time>1970-01-01T10:51:25.145Z</time>
    </trkpt>
    <trkpt lat="56.345423" lon="60.818864">
        <ele>281.3</ele>
        <time>1970-01-01T10:51:26.145Z</time>
    </trkpt>
    <trkpt lat="56.3454" lon="60.818906">
        <ele>281.3</ele>
        <time>1970-01-01T10:51:27.145Z</time>
    </trkpt>
    <trkpt lat="56.345392" lon="60.818925">
        <ele>281.3</ele>
        <time>1970-01-01T10:51:28.145Z</time>
    </trkpt>
    <trkpt lat="56.345374" lon="60.818965">
        <ele>280.3</ele>
        <time>1970-01-01T10:51:29.145Z</time>
    </trkpt>
    <trkpt lat="56.345366" lon="60.818983">
        <ele>282.3</ele>
        <time>1970-01-01T10:51:30.145Z</time>
    </trkpt>
    <trkpt lat="56.345354" lon="60.819005">
        <ele>282.3</ele>
        <time>1970-01-01T10:51:31.145Z</time>
    </trkpt>
    <trkpt lat="56.345344" lon="60.819025">
        <ele>282.3</ele>
        <time>1970-01-01T10:51:32.145Z</time>
    </trkpt>
    <trkpt lat="56.345322" lon="60.819073">
        <ele>282.3</ele>
        <time>1970-01-01T10:51:33.145Z</time>
    </trkpt>
    <trkpt lat="56.345301" lon="60.819117">
        <ele>280.3</ele>
        <time>1970-01-01T10:51:34.145Z</time>
    </trkpt>
    <trkpt lat="56.34529" lon="60.819129">
        <ele>280.3</ele>
        <time>1970-01-01T10:51:35.145Z</time>
    </trkpt>
    <trkpt lat="56.345267" lon="60.819168">
        <ele>283.3</ele>
        <time>1970-01-01T10:51:36.145Z</time>
    </trkpt>
    <trkpt lat="56.345252" lon="60.819213">
        <ele>283.3</ele>
        <time>1970-01-01T10:51:37.145Z</time>
    </trkpt>
    <trkpt lat="56.345245" lon="60.819229">
        <ele>283.3</ele>
        <time>1970-01-01T10:51:38.145Z</time>
    </trkpt>
    <trkpt lat="56.345226" lon="60.819272">
        <ele>283.3</ele>
        <time>1970-01-01T10:51:39.145Z</time>
    </trkpt>
    <trkpt lat="56.345218" lon="60.819287">
        <ele>280.3</ele>
        <time>1970-01-01T10:51:40.145Z</time>
    </trkpt>
    <trkpt lat="56.345201" lon="60.819325">
        <ele>280.3</ele>
        <time>1970-01-01T10:51:41.145Z</time>
    </trkpt>
    <trkpt lat="56.345194" lon="60.819338">
        <ele>280.3</ele>
        <time>1970-01-01T10:51:42.145Z</time>
    </trkpt>
    <trkpt lat="56.34518" lon="60.819372">
        <ele>283.3</ele>
        <time>1970-01-01T10:51:43.145Z</time>
    </trkpt>
    <trkpt lat="56.345169" lon="60.819395">
        <ele>283.3</ele>
        <time>1970-01-01T10:51:44.145Z</time>
    </trkpt>
    <trkpt lat="56.345143" lon="60.819445">
        <ele>283.3</ele>
        <time>1970-01-01T10:51:45.145Z</time>
    </trkpt>
    <trkpt lat="56.345132" lon="60.819464">
        <ele>280.3</ele>
        <time>1970-01-01T10:51:46.145Z</time>
    </trkpt>
    <trkpt lat="56.345117" lon="60.819506">
        <ele>280.3</ele>
        <time>1970-01-01T10:51:47.145Z</time>
    </trkpt>
    <trkpt lat="56.345103" lon="60.819535">
        <ele>280.3</ele>
        <time>1970-01-01T10:51:48.145Z</time>
    </trkpt>
    <trkpt lat="56.345099" lon="60.819561">
        <ele>280.3</ele>
        <time>1970-01-01T10:51:49.145Z</time>
    </trkpt>
    <trkpt lat="56.345078" lon="60.819598">
        <ele>283.3</ele>
        <time>1970-01-01T10:51:50.145Z</time>
    </trkpt>
    <trkpt lat="56.345065" lon="60.819624">
        <ele>283.3</ele>
        <time>1970-01-01T10:51:51.145Z</time>
    </trkpt>
    <trkpt lat="56.345043" lon="60.81967">
        <ele>280.3</ele>
        <time>1970-01-01T10:51:52.145Z</time>
    </trkpt>
    <trkpt lat="56.345035" lon="60.819679">
        <ele>280.3</ele>
        <time>1970-01-01T10:51:53.145Z</time>
    </trkpt>
    <trkpt lat="56.345012" lon="60.819707">
        <ele>280.3</ele>
        <time>1970-01-01T10:51:54.145Z</time>
    </trkpt>
    <trkpt lat="56.345003" lon="60.819723">
        <ele>280.3</ele>
        <time>1970-01-01T10:51:55.145Z</time>
    </trkpt>
    <trkpt lat="56.344976" lon="60.81976">
        <ele>282.3</ele>
        <time>1970-01-01T10:51:56.145Z</time>
    </trkpt>
    <trkpt lat="56.344968" lon="60.819783">
        <ele>282.3</ele>
        <time>1970-01-01T10:51:57.145Z</time>
    </trkpt>
    <trkpt lat="56.344962" lon="60.819808">
        <ele>280.3</ele>
        <time>1970-01-01T10:51:58.145Z</time>
    </trkpt>
    <trkpt lat="56.344946" lon="60.819835">
        <ele>280.3</ele>
        <time>1970-01-01T10:51:59.145Z</time>
    </trkpt>
    <trkpt lat="56.344941" lon="60.819858">
        <ele>280.3</ele>
        <time>1970-01-01T10:52:00.145Z</time>
    </trkpt>
    <trkpt lat="56.344938" lon="60.819873">
        <ele>280.3</ele>
        <time>1970-01-01T10:52:01.145Z</time>
    </trkpt>
    <trkpt lat="56.344924" lon="60.819922">
        <ele>280.3</ele>
        <time>1970-01-01T10:52:02.145Z</time>
    </trkpt>
    <trkpt lat="56.344916" lon="60.819944">
        <ele>280.3</ele>
        <time>1970-01-01T10:52:03.145Z</time>
    </trkpt>
    <trkpt lat="56.344891" lon="60.819999">
        <ele>280.3</ele>
        <time>1970-01-01T10:52:04.145Z</time>
    </trkpt>
    <trkpt lat="56.344867" lon="60.820035">
        <ele>280.3</ele>
        <time>1970-01-01T10:52:05.145Z</time>
    </trkpt>
    <trkpt lat="56.344856" lon="60.820053">
        <ele>280.3</ele>
        <time>1970-01-01T10:52:06.145Z</time>
    </trkpt>
    <trkpt lat="56.344826" lon="60.820102">
        <ele>280.3</ele>
        <time>1970-01-01T10:52:07.145Z</time>
    </trkpt>
    <trkpt lat="56.344818" lon="60.820119">
        <ele>280.3</ele>
        <time>1970-01-01T10:52:08.145Z</time>
    </trkpt>
    <trkpt lat="56.344791" lon="60.820169">
        <ele>280.3</ele>
        <time>1970-01-01T10:52:09.145Z</time>
    </trkpt>
    <trkpt lat="56.344782" lon="60.820181">
        <ele>280.3</ele>
        <time>1970-01-01T10:52:10.145Z</time>
    </trkpt>
    <trkpt lat="56.344759" lon="60.82021">
        <ele>280.3</ele>
        <time>1970-01-01T10:52:11.145Z</time>
    </trkpt>
    <trkpt lat="56.344752" lon="60.820222">
        <ele>280.3</ele>
        <time>1970-01-01T10:52:12.145Z</time>
    </trkpt>
    <trkpt lat="56.344727" lon="60.820266">
        <ele>280.3</ele>
        <time>1970-01-01T10:52:13.145Z</time>
    </trkpt>
    <trkpt lat="56.344718" lon="60.82029">
        <ele>280.3</ele>
        <time>1970-01-01T10:52:14.145Z</time>
    </trkpt>
    <trkpt lat="56.344704" lon="60.820312">
        <ele>283.3</ele>
        <time>1970-01-01T10:52:15.145Z</time>
    </trkpt>
    <trkpt lat="56.344699" lon="60.820327">
        <ele>281.3</ele>
        <time>1970-01-01T10:52:16.145Z</time>
    </trkpt>
    <trkpt lat="56.34469" lon="60.820372">
        <ele>281.3</ele>
        <time>1970-01-01T10:52:17.145Z</time>
    </trkpt>
    <trkpt lat="56.344683" lon="60.820381">
        <ele>281.3</ele>
        <time>1970-01-01T10:52:18.145Z</time>
    </trkpt>
    <trkpt lat="56.344677" lon="60.82039">
        <ele>281.3</ele>
        <time>1970-01-01T10:52:19.145Z</time>
    </trkpt>
    <trkpt lat="56.344665" lon="60.820426">
        <ele>281.3</ele>
        <time>1970-01-01T10:52:20.145Z</time>
    </trkpt>
    <trkpt lat="56.344658" lon="60.820438">
        <ele>281.3</ele>
        <time>1970-01-01T10:52:21.145Z</time>
    </trkpt>
    <trkpt lat="56.344633" lon="60.820479">
        <ele>281.3</ele>
        <time>1970-01-01T10:52:22.145Z</time>
    </trkpt>
    <trkpt lat="56.344626" lon="60.820489">
        <ele>279.3</ele>
        <time>1970-01-01T10:52:23.145Z</time>
    </trkpt>
    <trkpt lat="56.344598" lon="60.820518">
        <ele>281.3</ele>
        <time>1970-01-01T10:52:24.145Z</time>
    </trkpt>
    <trkpt lat="56.344582" lon="60.820543">
        <ele>281.3</ele>
        <time>1970-01-01T10:52:25.145Z</time>
    </trkpt>
    <trkpt lat="56.344572" lon="60.820555">
        <ele>281.3</ele>
        <time>1970-01-01T10:52:26.145Z</time>
    </trkpt>
    <trkpt lat="56.344569" lon="60.820575">
        <ele>281.3</ele>
        <time>1970-01-01T10:52:27.145Z</time>
    </trkpt>
    <trkpt lat="56.344556" lon="60.820602">
        <ele>281.3</ele>
        <time>1970-01-01T10:52:28.145Z</time>
    </trkpt>
    <trkpt lat="56.344549" lon="60.82062">
        <ele>281.3</ele>
        <time>1970-01-01T10:52:29.145Z</time>
    </trkpt>
    <trkpt lat="56.34453" lon="60.820657">
        <ele>279.3</ele>
        <time>1970-01-01T10:52:30.145Z</time>
    </trkpt>
    <trkpt lat="56.344529" lon="60.82067">
        <ele>279.3</ele>
        <time>1970-01-01T10:52:31.145Z</time>
    </trkpt>
    <trkpt lat="56.344512" lon="60.820723">
        <ele>281.3</ele>
        <time>1970-01-01T10:52:32.145Z</time>
    </trkpt>
    <trkpt lat="56.344494" lon="60.820761">
        <ele>281.3</ele>
        <time>1970-01-01T10:52:33.145Z</time>
    </trkpt>
    <trkpt lat="56.344486" lon="60.82077">
        <ele>281.3</ele>
        <time>1970-01-01T10:52:34.145Z</time>
    </trkpt>
    <trkpt lat="56.344462" lon="60.820814">
        <ele>281.3</ele>
        <time>1970-01-01T10:52:35.145Z</time>
    </trkpt>
    <trkpt lat="56.344453" lon="60.820835">
        <ele>279.3</ele>
        <time>1970-01-01T10:52:36.145Z</time>
    </trkpt>
    <trkpt lat="56.344434" lon="60.820887">
        <ele>279.3</ele>
        <time>1970-01-01T10:52:37.145Z</time>
    </trkpt>
    <trkpt lat="56.344425" lon="60.820908">
        <ele>279.3</ele>
        <time>1970-01-01T10:52:38.145Z</time>
    </trkpt>
    <trkpt lat="56.344411" lon="60.820966">
        <ele>281.3</ele>
        <time>1970-01-01T10:52:39.145Z</time>
    </trkpt>
    <trkpt lat="56.344409" lon="60.820993">
        <ele>281.3</ele>
        <time>1970-01-01T10:52:40.145Z</time>
    </trkpt>
    <trkpt lat="56.34441" lon="60.821043">
        <ele>279.3</ele>
        <time>1970-01-01T10:52:41.145Z</time>
    </trkpt>
    <trkpt lat="56.344405" lon="60.821063">
        <ele>279.3</ele>
        <time>1970-01-01T10:52:42.145Z</time>
    </trkpt>
    <trkpt lat="56.344388" lon="60.82112">
        <ele>279.3</ele>
        <time>1970-01-01T10:52:43.145Z</time>
    </trkpt>
    <trkpt lat="56.344383" lon="60.82114">
        <ele>279.3</ele>
        <time>1970-01-01T10:52:44.145Z</time>
    </trkpt>
    <trkpt lat="56.344365" lon="60.821182">
        <ele>278.3</ele>
        <time>1970-01-01T10:52:45.145Z</time>
    </trkpt>
    <trkpt lat="56.344359" lon="60.821201">
        <ele>278.3</ele>
        <time>1970-01-01T10:52:46.145Z</time>
    </trkpt>
    <trkpt lat="56.344339" lon="60.821255">
        <ele>278.3</ele>
        <time>1970-01-01T10:52:47.145Z</time>
    </trkpt>
    <trkpt lat="56.344334" lon="60.82127">
        <ele>278.3</ele>
        <time>1970-01-01T10:52:48.145Z</time>
    </trkpt>
    <trkpt lat="56.344308" lon="60.821315">
        <ele>279.3</ele>
        <time>1970-01-01T10:52:49.145Z</time>
    </trkpt>
    <trkpt lat="56.344301" lon="60.821327">
        <ele>279.3</ele>
        <time>1970-01-01T10:52:50.145Z</time>
    </trkpt>
    <trkpt lat="56.344283" lon="60.821381">
        <ele>278.3</ele>
        <time>1970-01-01T10:52:51.145Z</time>
    </trkpt>
    <trkpt lat="56.344281" lon="60.821403">
        <ele>278.3</ele>
        <time>1970-01-01T10:52:52.145Z</time>
    </trkpt>
    <trkpt lat="56.344271" lon="60.82147">
        <ele>278.3</ele>
        <time>1970-01-01T10:52:53.145Z</time>
    </trkpt>
    <trkpt lat="56.344266" lon="60.821491">
        <ele>278.3</ele>
        <time>1970-01-01T10:52:54.145Z</time>
    </trkpt>
    <trkpt lat="56.344253" lon="60.821545">
        <ele>276.3</ele>
        <time>1970-01-01T10:52:55.145Z</time>
    </trkpt>
    <trkpt lat="56.344246" lon="60.821566">
        <ele>276.3</ele>
        <time>1970-01-01T10:52:56.145Z</time>
    </trkpt>
    <trkpt lat="56.344229" lon="60.821626">
        <ele>277.3</ele>
        <time>1970-01-01T10:52:57.145Z</time>
    </trkpt>
    <trkpt lat="56.344217" lon="60.821675">
        <ele>277.3</ele>
        <time>1970-01-01T10:52:58.145Z</time>
    </trkpt>
    <trkpt lat="56.344202" lon="60.82172">
        <ele>276.3</ele>
        <time>1970-01-01T10:52:59.145Z</time>
    </trkpt>
    <trkpt lat="56.344196" lon="60.821731">
        <ele>276.3</ele>
        <time>1970-01-01T10:53:00.145Z</time>
    </trkpt>
    <trkpt lat="56.344179" lon="60.82177">
        <ele>276.3</ele>
        <time>1970-01-01T10:53:01.145Z</time>
    </trkpt>
    <trkpt lat="56.344176" lon="60.821793">
        <ele>276.3</ele>
        <time>1970-01-01T10:53:02.145Z</time>
    </trkpt>
    <trkpt lat="56.344165" lon="60.821859">
        <ele>276.3</ele>
        <time>1970-01-01T10:53:03.145Z</time>
    </trkpt>
    <trkpt lat="56.344163" lon="60.82188">
        <ele>276.3</ele>
        <time>1970-01-01T10:53:04.145Z</time>
    </trkpt>
    <trkpt lat="56.344158" lon="60.821932">
        <ele>276.3</ele>
        <time>1970-01-01T10:53:05.145Z</time>
    </trkpt>
    <trkpt lat="56.344156" lon="60.821946">
        <ele>276.3</ele>
        <time>1970-01-01T10:53:06.145Z</time>
    </trkpt>
    <trkpt lat="56.344149" lon="60.821998">
        <ele>276.3</ele>
        <time>1970-01-01T10:53:07.145Z</time>
    </trkpt>
    <trkpt lat="56.344144" lon="60.822039">
        <ele>275.3</ele>
        <time>1970-01-01T10:53:08.145Z</time>
    </trkpt>
    <trkpt lat="56.344146" lon="60.822052">
        <ele>275.3</ele>
        <time>1970-01-01T10:53:09.145Z</time>
    </trkpt>
    <trkpt lat="56.34414" lon="60.8221">
        <ele>275.3</ele>
        <time>1970-01-01T10:53:10.145Z</time>
    </trkpt>
    <trkpt lat="56.34414" lon="60.822134">
        <ele>275.3</ele>
        <time>1970-01-01T10:53:11.145Z</time>
    </trkpt>
    <trkpt lat="56.344135" lon="60.822164">
        <ele>276.3</ele>
        <time>1970-01-01T10:53:12.145Z</time>
    </trkpt>
    <trkpt lat="56.344131" lon="60.822185">
        <ele>276.3</ele>
        <time>1970-01-01T10:53:13.145Z</time>
    </trkpt>
    <trkpt lat="56.34412" lon="60.822237">
        <ele>276.3</ele>
        <time>1970-01-01T10:53:14.145Z</time>
    </trkpt>
    <trkpt lat="56.344126" lon="60.822291">
        <ele>276.3</ele>
        <time>1970-01-01T10:53:15.145Z</time>
    </trkpt>
    <trkpt lat="56.344127" lon="60.822305">
        <ele>276.3</ele>
        <time>1970-01-01T10:53:16.145Z</time>
    </trkpt>
    <trkpt lat="56.344126" lon="60.822366">
        <ele>276.3</ele>
        <time>1970-01-01T10:53:17.145Z</time>
    </trkpt>
    <trkpt lat="56.344118" lon="60.822415">
        <ele>275.3</ele>
        <time>1970-01-01T10:53:18.145Z</time>
    </trkpt>
    <trkpt lat="56.344122" lon="60.82243">
        <ele>275.3</ele>
        <time>1970-01-01T10:53:19.145Z</time>
    </trkpt>
    <trkpt lat="56.344126" lon="60.822482">
        <ele>275.3</ele>
        <time>1970-01-01T10:53:20.145Z</time>
    </trkpt>
    <trkpt lat="56.344125" lon="60.822504">
        <ele>275.3</ele>
        <time>1970-01-01T10:53:21.145Z</time>
    </trkpt>
    <trkpt lat="56.344129" lon="60.822559">
        <ele>274.3</ele>
        <time>1970-01-01T10:53:22.145Z</time>
    </trkpt>
    <trkpt lat="56.344131" lon="60.822578">
        <ele>274.3</ele>
        <time>1970-01-01T10:53:23.145Z</time>
    </trkpt>
    <trkpt lat="56.344134" lon="60.822631">
        <ele>274.3</ele>
        <time>1970-01-01T10:53:24.145Z</time>
    </trkpt>
    <trkpt lat="56.344134" lon="60.822683">
        <ele>274.3</ele>
        <time>1970-01-01T10:53:25.145Z</time>
    </trkpt>
    <trkpt lat="56.344141" lon="60.822735">
        <ele>271.3</ele>
        <time>1970-01-01T10:53:26.145Z</time>
    </trkpt>
    <trkpt lat="56.344142" lon="60.82277">
        <ele>271.3</ele>
        <time>1970-01-01T10:53:27.145Z</time>
    </trkpt>
    <trkpt lat="56.344147" lon="60.822791">
        <ele>271.3</ele>
        <time>1970-01-01T10:53:28.145Z</time>
    </trkpt>
    <trkpt lat="56.344147" lon="60.822811">
        <ele>271.3</ele>
        <time>1970-01-01T10:53:29.145Z</time>
    </trkpt>
    <trkpt lat="56.344151" lon="60.822813">
        <ele>271.3</ele>
        <time>1970-01-01T10:53:30.145Z</time>
    </trkpt>
    <trkpt lat="56.344151" lon="60.822802">
        <ele>271.3</ele>
        <time>1970-01-01T10:53:31.145Z</time>
    </trkpt>
    <trkpt lat="56.344151" lon="60.822813">
        <ele>271.3</ele>
        <time>1970-01-01T10:53:32.145Z</time>
    </trkpt>
    <trkpt lat="56.344151" lon="60.822827">
        <ele>271.3</ele>
        <time>1970-01-01T10:53:33.145Z</time>
    </trkpt>
    <trkpt lat="56.344153" lon="60.822845">
        <ele>271.3</ele>
        <time>1970-01-01T10:53:34.145Z</time>
    </trkpt>
    <trkpt lat="56.344153" lon="60.822859">
        <ele>271.3</ele>
        <time>1970-01-01T10:53:35.145Z</time>
    </trkpt>
    <trkpt lat="56.344165" lon="60.822912">
        <ele>270.3</ele>
        <time>1970-01-01T10:53:36.145Z</time>
    </trkpt>
    <trkpt lat="56.344166" lon="60.822938">
        <ele>270.3</ele>
        <time>1970-01-01T10:53:37.145Z</time>
    </trkpt>
    <trkpt lat="56.344182" lon="60.82296">
        <ele>270.3</ele>
        <time>1970-01-01T10:53:38.145Z</time>
    </trkpt>
    <trkpt lat="56.344189" lon="60.822971">
        <ele>270.3</ele>
        <time>1970-01-01T10:53:39.145Z</time>
    </trkpt>
    <trkpt lat="56.344196" lon="60.822982">
        <ele>270.3</ele>
        <time>1970-01-01T10:53:40.145Z</time>
    </trkpt>
    <trkpt lat="56.344203" lon="60.822993">
        <ele>270.3</ele>
        <time>1970-01-01T10:53:41.145Z</time>
    </trkpt>
    <trkpt lat="56.344211" lon="60.823013">
        <ele>270.3</ele>
        <time>1970-01-01T10:53:42.145Z</time>
    </trkpt>
    <trkpt lat="56.344221" lon="60.823032">
        <ele>270.3</ele>
        <time>1970-01-01T10:53:43.145Z</time>
    </trkpt>
    <trkpt lat="56.344221" lon="60.823032">
        <ele>270.3</ele>
        <time>1970-01-01T10:53:44.145Z</time>
    </trkpt>
    <trkpt lat="56.344221" lon="60.823032">
        <ele>270.3</ele>
        <time>1970-01-01T10:53:45.145Z</time>
    </trkpt>
    <trkpt lat="56.344223" lon="60.823029">
        <ele>270.3</ele>
        <time>1970-01-01T10:53:46.145Z</time>
    </trkpt>
    <trkpt lat="56.344238" lon="60.823045">
        <ele>269.3</ele>
        <time>1970-01-01T10:53:47.145Z</time>
    </trkpt>
    <trkpt lat="56.344249" lon="60.823065">
        <ele>267.3</ele>
        <time>1970-01-01T10:53:48.145Z</time>
    </trkpt>
    <trkpt lat="56.344256" lon="60.823073">
        <ele>267.3</ele>
        <time>1970-01-01T10:53:49.145Z</time>
    </trkpt>
    <trkpt lat="56.344263" lon="60.82309">
        <ele>267.3</ele>
        <time>1970-01-01T10:53:50.145Z</time>
    </trkpt>
    <trkpt lat="56.344274" lon="60.823103">
        <ele>267.3</ele>
        <time>1970-01-01T10:53:51.145Z</time>
    </trkpt>
    <trkpt lat="56.34429" lon="60.823109">
        <ele>267.3</ele>
        <time>1970-01-01T10:53:52.145Z</time>
    </trkpt>
    <trkpt lat="56.3443" lon="60.823113">
        <ele>267.3</ele>
        <time>1970-01-01T10:53:53.145Z</time>
    </trkpt>
    <trkpt lat="56.34431" lon="60.823116">
        <ele>267.3</ele>
        <time>1970-01-01T10:53:54.145Z</time>
    </trkpt>
    <trkpt lat="56.344327" lon="60.823129">
        <ele>267.3</ele>
        <time>1970-01-01T10:53:55.145Z</time>
    </trkpt>
    <trkpt lat="56.344341" lon="60.823149">
        <ele>267.3</ele>
        <time>1970-01-01T10:53:56.145Z</time>
    </trkpt>
    <trkpt lat="56.344348" lon="60.823166">
        <ele>267.3</ele>
        <time>1970-01-01T10:53:57.145Z</time>
    </trkpt>
    <trkpt lat="56.344355" lon="60.823198">
        <ele>267.3</ele>
        <time>1970-01-01T10:53:58.145Z</time>
    </trkpt>
    <trkpt lat="56.344356" lon="60.823216">
        <ele>267.3</ele>
        <time>1970-01-01T10:53:59.145Z</time>
    </trkpt>
    <trkpt lat="56.344364" lon="60.82322">
        <ele>267.3</ele>
        <time>1970-01-01T10:54:00.145Z</time>
    </trkpt>
    <trkpt lat="56.344372" lon="60.823239">
        <ele>265.3</ele>
        <time>1970-01-01T10:54:01.145Z</time>
    </trkpt>
    <trkpt lat="56.344384" lon="60.823281">
        <ele>265.3</ele>
        <time>1970-01-01T10:54:02.145Z</time>
    </trkpt>
    <trkpt lat="56.344387" lon="60.823295">
        <ele>265.3</ele>
        <time>1970-01-01T10:54:03.145Z</time>
    </trkpt>
    <trkpt lat="56.344391" lon="60.823309">
        <ele>265.3</ele>
        <time>1970-01-01T10:54:04.145Z</time>
    </trkpt>
    <trkpt lat="56.344401" lon="60.823346">
        <ele>265.3</ele>
        <time>1970-01-01T10:54:05.145Z</time>
    </trkpt>
    <trkpt lat="56.344411" lon="60.823371">
        <ele>265.3</ele>
        <time>1970-01-01T10:54:06.145Z</time>
    </trkpt>
    <trkpt lat="56.344423" lon="60.82338">
        <ele>265.3</ele>
        <time>1970-01-01T10:54:07.145Z</time>
    </trkpt>
    <trkpt lat="56.344434" lon="60.823382">
        <ele>265.3</ele>
        <time>1970-01-01T10:54:08.145Z</time>
    </trkpt>
    <trkpt lat="56.344444" lon="60.823398">
        <ele>265.3</ele>
        <time>1970-01-01T10:54:09.145Z</time>
    </trkpt>
    <trkpt lat="56.344447" lon="60.823413">
        <ele>264.3</ele>
        <time>1970-01-01T10:54:10.145Z</time>
    </trkpt>
    <trkpt lat="56.344451" lon="60.823443">
        <ele>264.3</ele>
        <time>1970-01-01T10:54:11.145Z</time>
    </trkpt>
    <trkpt lat="56.344452" lon="60.82347">
        <ele>264.3</ele>
        <time>1970-01-01T10:54:12.145Z</time>
    </trkpt>
    <trkpt lat="56.344446" lon="60.823489">
        <ele>264.3</ele>
        <time>1970-01-01T10:54:13.145Z</time>
    </trkpt>
    <trkpt lat="56.344427" lon="60.823538">
        <ele>264.3</ele>
        <time>1970-01-01T10:54:14.145Z</time>
    </trkpt>
    <trkpt lat="56.344421" lon="60.82355">
        <ele>264.3</ele>
        <time>1970-01-01T10:54:15.145Z</time>
    </trkpt>
    <trkpt lat="56.344415" lon="60.823561">
        <ele>264.3</ele>
        <time>1970-01-01T10:54:16.145Z</time>
    </trkpt>
    <trkpt lat="56.344401" lon="60.823595">
        <ele>263.3</ele>
        <time>1970-01-01T10:54:17.145Z</time>
    </trkpt>
    <trkpt lat="56.344396" lon="60.823609">
        <ele>263.3</ele>
        <time>1970-01-01T10:54:18.145Z</time>
    </trkpt>
    <trkpt lat="56.344392" lon="60.823623">
        <ele>263.3</ele>
        <time>1970-01-01T10:54:19.145Z</time>
    </trkpt>
    <trkpt lat="56.34438" lon="60.82365">
        <ele>263.3</ele>
        <time>1970-01-01T10:54:20.145Z</time>
    </trkpt>
    <trkpt lat="56.344367" lon="60.823677">
        <ele>263.3</ele>
        <time>1970-01-01T10:54:21.145Z</time>
    </trkpt>
    <trkpt lat="56.344358" lon="60.823697">
        <ele>263.3</ele>
        <time>1970-01-01T10:54:22.145Z</time>
    </trkpt>
    <trkpt lat="56.344352" lon="60.823711">
        <ele>263.3</ele>
        <time>1970-01-01T10:54:23.145Z</time>
    </trkpt>
    <trkpt lat="56.344341" lon="60.823716">
        <ele>263.3</ele>
        <time>1970-01-01T10:54:24.145Z</time>
    </trkpt>
    <trkpt lat="56.344331" lon="60.823738">
        <ele>263.3</ele>
        <time>1970-01-01T10:54:25.145Z</time>
    </trkpt>
    <trkpt lat="56.344326" lon="60.823747">
        <ele>263.3</ele>
        <time>1970-01-01T10:54:26.145Z</time>
    </trkpt>
    <trkpt lat="56.344326" lon="60.823779">
        <ele>263.3</ele>
        <time>1970-01-01T10:54:27.145Z</time>
    </trkpt>
    <trkpt lat="56.344288" lon="60.823855">
        <ele>263.3</ele>
        <time>1970-01-01T10:54:34.145Z</time>
    </trkpt>
    <trkpt lat="56.344289" lon="60.823856">
        <ele>263.3</ele>
        <time>1970-01-01T10:54:35.145Z</time>
    </trkpt>
    <trkpt lat="56.344292" lon="60.823859">
        <ele>263.3</ele>
        <time>1970-01-01T10:54:36.145Z</time>
    </trkpt>
    <trkpt lat="56.344291" lon="60.823857">
        <ele>263.3</ele>
        <time>1970-01-01T10:54:37.145Z</time>
    </trkpt>
    <trkpt lat="56.34429" lon="60.823859">
        <ele>263.3</ele>
        <time>1970-01-01T10:54:38.145Z</time>
    </trkpt>
    <trkpt lat="56.344288" lon="60.823857">
        <ele>263.3</ele>
        <time>1970-01-01T10:54:39.145Z</time>
    </trkpt>
    <trkpt lat="56.344285" lon="60.823869">
        <ele>263.3</ele>
        <time>1970-01-01T10:54:40.145Z</time>
    </trkpt>
    <trkpt lat="56.344273" lon="60.823881">
        <ele>263.3</ele>
        <time>1970-01-01T10:54:41.145Z</time>
    </trkpt>
    <trkpt lat="56.344258" lon="60.823893">
        <ele>263.3</ele>
        <time>1970-01-01T10:54:42.145Z</time>
    </trkpt>
    <trkpt lat="56.34425" lon="60.823899">
        <ele>263.3</ele>
        <time>1970-01-01T10:54:43.145Z</time>
    </trkpt>
    <trkpt lat="56.344248" lon="60.823901">
        <ele>263.3</ele>
        <time>1970-01-01T10:54:44.145Z</time>
    </trkpt>
    <trkpt lat="56.34424" lon="60.823892">
        <ele>263.3</ele>
        <time>1970-01-01T10:54:45.145Z</time>
    </trkpt>
    <trkpt lat="56.344232" lon="60.823878">
        <ele>263.3</ele>
        <time>1970-01-01T10:54:46.145Z</time>
    </trkpt>
    <trkpt lat="56.344223" lon="60.823858">
        <ele>264.3</ele>
        <time>1970-01-01T10:54:47.145Z</time>
    </trkpt>
    <trkpt lat="56.344211" lon="60.823831">
        <ele>264.3</ele>
        <time>1970-01-01T10:54:48.145Z</time>
    </trkpt>
    <trkpt lat="56.344196" lon="60.823818">
        <ele>264.3</ele>
        <time>1970-01-01T10:54:49.145Z</time>
    </trkpt>
    <trkpt lat="56.344183" lon="60.823807">
        <ele>264.3</ele>
        <time>1970-01-01T10:54:50.145Z</time>
    </trkpt>
    <trkpt lat="56.344175" lon="60.823797">
        <ele>264.3</ele>
        <time>1970-01-01T10:54:51.145Z</time>
    </trkpt>
    <trkpt lat="56.344149" lon="60.823775">
        <ele>264.3</ele>
        <time>1970-01-01T10:54:52.145Z</time>
    </trkpt>
    <trkpt lat="56.344139" lon="60.823769">
        <ele>264.3</ele>
        <time>1970-01-01T10:54:53.145Z</time>
    </trkpt>
    <trkpt lat="56.344129" lon="60.823763">
        <ele>264.3</ele>
        <time>1970-01-01T10:54:54.145Z</time>
    </trkpt>
    <trkpt lat="56.344105" lon="60.823745">
        <ele>265.3</ele>
        <time>1970-01-01T10:54:55.145Z</time>
    </trkpt>
    <trkpt lat="56.344097" lon="60.823743">
        <ele>265.3</ele>
        <time>1970-01-01T10:54:56.145Z</time>
    </trkpt>
    <trkpt lat="56.344064" lon="60.823729">
        <ele>265.3</ele>
        <time>1970-01-01T10:54:57.145Z</time>
    </trkpt>
    <trkpt lat="56.344036" lon="60.823719">
        <ele>266.3</ele>
        <time>1970-01-01T10:54:58.145Z</time>
    </trkpt>
    <trkpt lat="56.344022" lon="60.823708">
        <ele>266.3</ele>
        <time>1970-01-01T10:54:59.145Z</time>
    </trkpt>
    <trkpt lat="56.343988" lon="60.823677">
        <ele>266.3</ele>
        <time>1970-01-01T10:55:00.145Z</time>
    </trkpt>
    <trkpt lat="56.343974" lon="60.82367">
        <ele>266.3</ele>
        <time>1970-01-01T10:55:01.145Z</time>
    </trkpt>
    <trkpt lat="56.343936" lon="60.823656">
        <ele>267.3</ele>
        <time>1970-01-01T10:55:02.145Z</time>
    </trkpt>
    <trkpt lat="56.343928" lon="60.823653">
        <ele>267.3</ele>
        <time>1970-01-01T10:55:03.145Z</time>
    </trkpt>
    <trkpt lat="56.343895" lon="60.823638">
        <ele>267.4</ele>
        <time>1970-01-01T10:55:04.145Z</time>
    </trkpt>
    <trkpt lat="56.343876" lon="60.82364">
        <ele>267.5</ele>
        <time>1970-01-01T10:55:05.145Z</time>
    </trkpt>
    <trkpt lat="56.343864" lon="60.823626">
        <ele>267.5</ele>
        <time>1970-01-01T10:55:06.145Z</time>
    </trkpt>
    <trkpt lat="56.343855" lon="60.823622">
        <ele>267.5</ele>
        <time>1970-01-01T10:55:07.145Z</time>
    </trkpt>
    <trkpt lat="56.343828" lon="60.823619">
        <ele>267.6</ele>
        <time>1970-01-01T10:55:08.145Z</time>
    </trkpt>
    <trkpt lat="56.343818" lon="60.823621">
        <ele>267.6</ele>
        <time>1970-01-01T10:55:09.145Z</time>
    </trkpt>
    <trkpt lat="56.343808" lon="60.823626">
        <ele>267.6</ele>
        <time>1970-01-01T10:55:10.145Z</time>
    </trkpt>
    <trkpt lat="56.343808" lon="60.82363">
        <ele>267.6</ele>
        <time>1970-01-01T10:55:11.145Z</time>
    </trkpt>
    <trkpt lat="56.343807" lon="60.823631">
        <ele>267.7</ele>
        <time>1970-01-01T10:55:12.145Z</time>
    </trkpt>
    <trkpt lat="56.343805" lon="60.823627">
        <ele>267.7</ele>
        <time>1970-01-01T10:55:13.145Z</time>
    </trkpt>
    <trkpt lat="56.3438" lon="60.82362">
        <ele>267.7</ele>
        <time>1970-01-01T10:55:14.145Z</time>
    </trkpt>
    <trkpt lat="56.343788" lon="60.823621">
        <ele>267.7</ele>
        <time>1970-01-01T10:55:15.145Z</time>
    </trkpt>
    <trkpt lat="56.343751" lon="60.82364">
        <ele>267.8</ele>
        <time>1970-01-01T10:55:16.145Z</time>
    </trkpt>
    <trkpt lat="56.343737" lon="60.823636">
        <ele>267.8</ele>
        <time>1970-01-01T10:55:17.145Z</time>
    </trkpt>
    <trkpt lat="56.3437" lon="60.823631">
        <ele>267.8</ele>
        <time>1970-01-01T10:55:18.145Z</time>
    </trkpt>
    <trkpt lat="56.343671" lon="60.823635">
        <ele>267.9</ele>
        <time>1970-01-01T10:55:19.145Z</time>
    </trkpt>
    <trkpt lat="56.343654" lon="60.823627">
        <ele>267.9</ele>
        <time>1970-01-01T10:55:20.145Z</time>
    </trkpt>
    <trkpt lat="56.343635" lon="60.823635">
        <ele>268.0</ele>
        <time>1970-01-01T10:55:21.145Z</time>
    </trkpt>
    <trkpt lat="56.343621" lon="60.823639">
        <ele>268.0</ele>
        <time>1970-01-01T10:55:22.145Z</time>
    </trkpt>
    <trkpt lat="56.343586" lon="60.823645">
        <ele>268.0</ele>
        <time>1970-01-01T10:55:23.145Z</time>
    </trkpt>
    <trkpt lat="56.343557" lon="60.823645">
        <ele>268.1</ele>
        <time>1970-01-01T10:55:24.145Z</time>
    </trkpt>
    <trkpt lat="56.343521" lon="60.823645">
        <ele>268.1</ele>
        <time>1970-01-01T10:55:25.145Z</time>
    </trkpt>
    <trkpt lat="56.343489" lon="60.823644">
        <ele>268.1</ele>
        <time>1970-01-01T10:55:26.145Z</time>
    </trkpt>
    <trkpt lat="56.343477" lon="60.823645">
        <ele>268.1</ele>
        <time>1970-01-01T10:55:27.145Z</time>
    </trkpt>
    <trkpt lat="56.343442" lon="60.823652">
        <ele>268.2</ele>
        <time>1970-01-01T10:55:28.145Z</time>
    </trkpt>
    <trkpt lat="56.343425" lon="60.823656">
        <ele>268.2</ele>
        <time>1970-01-01T10:55:29.145Z</time>
    </trkpt>
    <trkpt lat="56.343381" lon="60.823662">
        <ele>268.2</ele>
        <time>1970-01-01T10:55:30.145Z</time>
    </trkpt>
    <trkpt lat="56.343347" lon="60.823678">
        <ele>268.2</ele>
        <time>1970-01-01T10:55:31.145Z</time>
    </trkpt>
    <trkpt lat="56.343335" lon="60.823682">
        <ele>268.2</ele>
        <time>1970-01-01T10:55:32.145Z</time>
    </trkpt>
    <trkpt lat="56.343299" lon="60.823683">
        <ele>268.2</ele>
        <time>1970-01-01T10:55:33.145Z</time>
    </trkpt>
    <trkpt lat="56.343283" lon="60.82369">
        <ele>268.2</ele>
        <time>1970-01-01T10:55:34.145Z</time>
    </trkpt>
    <trkpt lat="56.343267" lon="60.823697">
        <ele>268.2</ele>
        <time>1970-01-01T10:56:05.145Z</time>
    </trkpt>
    <trkpt lat="56.34325" lon="60.823704">
        <ele>268.2</ele>
        <time>1970-01-01T10:56:06.145Z</time>
    </trkpt>
    <trkpt lat="56.343234" lon="60.823711">
        <ele>268.2</ele>
        <time>1970-01-01T10:56:07.145Z</time>
    </trkpt>
    <trkpt lat="56.343218" lon="60.823718">
        <ele>268.2</ele>
        <time>1970-01-01T10:56:08.145Z</time>
    </trkpt>
    <trkpt lat="56.343202" lon="60.823725">
        <ele>268.2</ele>
        <time>1970-01-01T10:56:09.145Z</time>
    </trkpt>
    <trkpt lat="56.343186" lon="60.823732">
        <ele>268.2</ele>
        <time>1970-01-01T10:56:10.145Z</time>
    </trkpt>
    <trkpt lat="56.34317" lon="60.823739">
        <ele>268.2</ele>
        <time>1970-01-01T10:56:11.145Z</time>
    </trkpt>
    <trkpt lat="56.343154" lon="60.823746">
        <ele>268.2</ele>
        <time>1970-01-01T10:56:12.145Z</time>
    </trkpt>
    <trkpt lat="56.343137" lon="60.823753">
        <ele>268.1</ele>
        <time>1970-01-01T10:56:13.145Z</time>
    </trkpt>
    <trkpt lat="56.343134" lon="60.823756">
        <ele>268.1</ele>
        <time>1970-01-01T10:56:14.145Z</time>
    </trkpt>
    <trkpt lat="56.343124" lon="60.823758">
        <ele>268.1</ele>
        <time>1970-01-01T10:56:15.145Z</time>
    </trkpt>
    <trkpt lat="56.343117" lon="60.823759">
        <ele>268.1</ele>
        <time>1970-01-01T10:56:16.145Z</time>
    </trkpt>
    <trkpt lat="56.343107" lon="60.823756">
        <ele>268.1</ele>
        <time>1970-01-01T10:56:17.145Z</time>
    </trkpt>
    <trkpt lat="56.343087" lon="60.82376">
        <ele>268.0</ele>
        <time>1970-01-01T10:56:18.145Z</time>
    </trkpt>
    <trkpt lat="56.343072" lon="60.823768">
        <ele>268.0</ele>
        <time>1970-01-01T10:56:19.145Z</time>
    </trkpt>
    <trkpt lat="56.343057" lon="60.823779">
        <ele>267.9</ele>
        <time>1970-01-01T10:56:20.145Z</time>
    </trkpt>
    <trkpt lat="56.343043" lon="60.823787">
        <ele>267.9</ele>
        <time>1970-01-01T10:56:21.145Z</time>
    </trkpt>
    <trkpt lat="56.343027" lon="60.82379">
        <ele>267.8</ele>
        <time>1970-01-01T10:56:22.145Z</time>
    </trkpt>
    <trkpt lat="56.343015" lon="60.823794">
        <ele>267.8</ele>
        <time>1970-01-01T10:56:23.145Z</time>
    </trkpt>
    <trkpt lat="56.343002" lon="60.823798">
        <ele>267.8</ele>
        <time>1970-01-01T10:56:24.145Z</time>
    </trkpt>
    <trkpt lat="56.342982" lon="60.823806">
        <ele>267.7</ele>
        <time>1970-01-01T10:56:25.145Z</time>
    </trkpt>
    <trkpt lat="56.342972" lon="60.823815">
        <ele>267.7</ele>
        <time>1970-01-01T10:56:26.145Z</time>
    </trkpt>
    <trkpt lat="56.342947" lon="60.823836">
        <ele>267.6</ele>
        <time>1970-01-01T10:56:27.145Z</time>
    </trkpt>
    <trkpt lat="56.342938" lon="60.823845">
        <ele>267.6</ele>
        <time>1970-01-01T10:56:28.145Z</time>
    </trkpt>
    <trkpt lat="56.342909" lon="60.823857">
        <ele>267.6</ele>
        <time>1970-01-01T10:56:29.145Z</time>
    </trkpt>
    <trkpt lat="56.342896" lon="60.82387">
        <ele>267.6</ele>
        <time>1970-01-01T10:56:30.145Z</time>
    </trkpt>
    <trkpt lat="56.342884" lon="60.823882">
        <ele>267.6</ele>
        <time>1970-01-01T10:56:31.145Z</time>
    </trkpt>
    <trkpt lat="56.342859" lon="60.823897">
        <ele>267.6</ele>
        <time>1970-01-01T10:56:32.145Z</time>
    </trkpt>
    <trkpt lat="56.342849" lon="60.823906">
        <ele>267.6</ele>
        <time>1970-01-01T10:56:33.145Z</time>
    </trkpt>
    <trkpt lat="56.342824" lon="60.82394">
        <ele>267.7</ele>
        <time>1970-01-01T10:56:34.145Z</time>
    </trkpt>
    <trkpt lat="56.342815" lon="60.823953">
        <ele>267.7</ele>
        <time>1970-01-01T10:56:35.145Z</time>
    </trkpt>
    <trkpt lat="56.342787" lon="60.823971">
        <ele>267.8</ele>
        <time>1970-01-01T10:56:36.145Z</time>
    </trkpt>
    <trkpt lat="56.34277" lon="60.82397">
        <ele>267.8</ele>
        <time>1970-01-01T10:56:37.145Z</time>
    </trkpt>
    <trkpt lat="56.342734" lon="60.823976">
        <ele>267.9</ele>
        <time>1970-01-01T10:56:38.145Z</time>
    </trkpt>
    <trkpt lat="56.342717" lon="60.82397">
        <ele>268.0</ele>
        <time>1970-01-01T10:56:39.145Z</time>
    </trkpt>
    <trkpt lat="56.34268" lon="60.823951">
        <ele>268.1</ele>
        <time>1970-01-01T10:56:40.145Z</time>
    </trkpt>
    <trkpt lat="56.342668" lon="60.823949">
        <ele>268.1</ele>
        <time>1970-01-01T10:56:41.145Z</time>
    </trkpt>
    <trkpt lat="56.34265" lon="60.823953">
        <ele>268.2</ele>
        <time>1970-01-01T10:56:42.145Z</time>
    </trkpt>
    <trkpt lat="56.342619" lon="60.823956">
        <ele>268.3</ele>
        <time>1970-01-01T10:56:43.145Z</time>
    </trkpt>
    <trkpt lat="56.342588" lon="60.823947">
        <ele>268.4</ele>
        <time>1970-01-01T10:56:44.145Z</time>
    </trkpt>
    <trkpt lat="56.34258" lon="60.82394">
        <ele>268.5</ele>
        <time>1970-01-01T10:56:45.145Z</time>
    </trkpt>
    <trkpt lat="56.342553" lon="60.823926">
        <ele>268.6</ele>
        <time>1970-01-01T10:56:46.145Z</time>
    </trkpt>
    <trkpt lat="56.342538" lon="60.823922">
        <ele>268.7</ele>
        <time>1970-01-01T10:56:47.145Z</time>
    </trkpt>
    <trkpt lat="56.342523" lon="60.823918">
        <ele>268.7</ele>
        <time>1970-01-01T10:56:48.145Z</time>
    </trkpt>
    <trkpt lat="56.342508" lon="60.823914">
        <ele>268.8</ele>
        <time>1970-01-01T10:57:03.145Z</time>
    </trkpt>
    <trkpt lat="56.342493" lon="60.82391">
        <ele>268.9</ele>
        <time>1970-01-01T10:57:04.145Z</time>
    </trkpt>
    <trkpt lat="56.342478" lon="60.823906">
        <ele>269.0</ele>
        <time>1970-01-01T10:57:05.145Z</time>
    </trkpt>
    <trkpt lat="56.342462" lon="60.823901">
        <ele>269.0</ele>
        <time>1970-01-01T10:57:06.145Z</time>
    </trkpt>
    <trkpt lat="56.342458" lon="60.823901">
        <ele>269.1</ele>
        <time>1970-01-01T10:57:07.145Z</time>
    </trkpt>
    <trkpt lat="56.342454" lon="60.823897">
        <ele>269.1</ele>
        <time>1970-01-01T10:57:08.145Z</time>
    </trkpt>
    <trkpt lat="56.342449" lon="60.823894">
        <ele>269.1</ele>
        <time>1970-01-01T10:57:09.145Z</time>
    </trkpt>
    <trkpt lat="56.34244" lon="60.823886">
        <ele>269.2</ele>
        <time>1970-01-01T10:57:10.145Z</time>
    </trkpt>
    <trkpt lat="56.342434" lon="60.823882">
        <ele>269.2</ele>
        <time>1970-01-01T10:57:11.145Z</time>
    </trkpt>
    <trkpt lat="56.342429" lon="60.823877">
        <ele>269.2</ele>
        <time>1970-01-01T10:57:12.145Z</time>
    </trkpt>
    <trkpt lat="56.342421" lon="60.823874">
        <ele>269.3</ele>
        <time>1970-01-01T10:57:13.145Z</time>
    </trkpt>
    <trkpt lat="56.342418" lon="60.823874">
        <ele>269.3</ele>
        <time>1970-01-01T10:57:14.145Z</time>
    </trkpt>
    <trkpt lat="56.342408" lon="60.823862">
        <ele>269.4</ele>
        <time>1970-01-01T10:57:15.145Z</time>
    </trkpt>
    <trkpt lat="56.342397" lon="60.823851">
        <ele>269.4</ele>
        <time>1970-01-01T10:57:16.145Z</time>
    </trkpt>
    <trkpt lat="56.342376" lon="60.823837">
        <ele>269.5</ele>
        <time>1970-01-01T10:57:17.145Z</time>
    </trkpt>
    <trkpt lat="56.342367" lon="60.823834">
        <ele>269.6</ele>
        <time>1970-01-01T10:57:18.145Z</time>
    </trkpt>
    <trkpt lat="56.342337" lon="60.823829">
        <ele>269.7</ele>
        <time>1970-01-01T10:57:19.145Z</time>
    </trkpt>
    <trkpt lat="56.342325" lon="60.823825">
        <ele>269.8</ele>
        <time>1970-01-01T10:57:20.145Z</time>
    </trkpt>
    <trkpt lat="56.342296" lon="60.823822">
        <ele>269.9</ele>
        <time>1970-01-01T10:57:21.145Z</time>
    </trkpt>
    <trkpt lat="56.342286" lon="60.823817">
        <ele>270.0</ele>
        <time>1970-01-01T10:57:22.145Z</time>
    </trkpt>
    <trkpt lat="56.342262" lon="60.823817">
        <ele>270.1</ele>
        <time>1970-01-01T10:57:23.145Z</time>
    </trkpt>
    <trkpt lat="56.342234" lon="60.823827">
        <ele>270.2</ele>
        <time>1970-01-01T10:57:24.145Z</time>
    </trkpt>
    <trkpt lat="56.342187" lon="60.823812">
        <ele>270.4</ele>
        <time>1970-01-01T10:57:25.145Z</time>
    </trkpt>
    <trkpt lat="56.342154" lon="60.823819">
        <ele>270.5</ele>
        <time>1970-01-01T10:57:26.145Z</time>
    </trkpt>
    <trkpt lat="56.342118" lon="60.82382">
        <ele>270.7</ele>
        <time>1970-01-01T10:57:27.145Z</time>
    </trkpt>
    <trkpt lat="56.342076" lon="60.823818">
        <ele>270.9</ele>
        <time>1970-01-01T10:57:28.145Z</time>
    </trkpt>
    <trkpt lat="56.342041" lon="60.82381">
        <ele>271.0</ele>
        <time>1970-01-01T10:57:29.145Z</time>
    </trkpt>
    <trkpt lat="56.342001" lon="60.823797">
        <ele>271.1</ele>
        <time>1970-01-01T10:57:30.145Z</time>
    </trkpt>
    <trkpt lat="56.341984" lon="60.823791">
        <ele>271.2</ele>
        <time>1970-01-01T10:57:31.145Z</time>
    </trkpt>
    <trkpt lat="56.341943" lon="60.823787">
        <ele>271.3</ele>
        <time>1970-01-01T10:57:32.145Z</time>
    </trkpt>
    <trkpt lat="56.341928" lon="60.823779">
        <ele>271.3</ele>
        <time>1970-01-01T10:57:33.145Z</time>
    </trkpt>
    <trkpt lat="56.341888" lon="60.823759">
        <ele>271.5</ele>
        <time>1970-01-01T10:57:34.145Z</time>
    </trkpt>
    <trkpt lat="56.341855" lon="60.823761">
        <ele>271.5</ele>
        <time>1970-01-01T10:57:35.145Z</time>
    </trkpt>
    <trkpt lat="56.341817" lon="60.823754">
        <ele>271.6</ele>
        <time>1970-01-01T10:57:36.145Z</time>
    </trkpt>
    <trkpt lat="56.341807" lon="60.823746">
        <ele>271.7</ele>
        <time>1970-01-01T10:57:37.145Z</time>
    </trkpt>
    <trkpt lat="56.341776" lon="60.82374">
        <ele>271.8</ele>
        <time>1970-01-01T10:57:38.145Z</time>
    </trkpt>
    <trkpt lat="56.341768" lon="60.82374">
        <ele>271.8</ele>
        <time>1970-01-01T10:57:39.145Z</time>
    </trkpt>
    <trkpt lat="56.34174" lon="60.823737">
        <ele>271.9</ele>
        <time>1970-01-01T10:57:40.145Z</time>
    </trkpt>
    <trkpt lat="56.341723" lon="60.823734">
        <ele>271.9</ele>
        <time>1970-01-01T10:57:41.145Z</time>
    </trkpt>
    <trkpt lat="56.341675" lon="60.823714">
        <ele>272.0</ele>
        <time>1970-01-01T10:58:17.145Z</time>
    </trkpt>
    <trkpt lat="56.341671" lon="60.823709">
        <ele>272.0</ele>
        <time>1970-01-01T10:58:18.145Z</time>
    </trkpt>
    <trkpt lat="56.341662" lon="60.823696">
        <ele>272.1</ele>
        <time>1970-01-01T10:58:19.145Z</time>
    </trkpt>
    <trkpt lat="56.341655" lon="60.823698">
        <ele>272.1</ele>
        <time>1970-01-01T10:58:20.145Z</time>
    </trkpt>
    <trkpt lat="56.341649" lon="60.823693">
        <ele>272.1</ele>
        <time>1970-01-01T10:58:21.145Z</time>
    </trkpt>
    <trkpt lat="56.341641" lon="60.823685">
        <ele>272.1</ele>
        <time>1970-01-01T10:58:22.145Z</time>
    </trkpt>
    <trkpt lat="56.341635" lon="60.823686">
        <ele>272.1</ele>
        <time>1970-01-01T10:58:23.145Z</time>
    </trkpt>
    <trkpt lat="56.341627" lon="60.823685">
        <ele>272.2</ele>
        <time>1970-01-01T10:58:24.145Z</time>
    </trkpt>
    <trkpt lat="56.341614" lon="60.823676">
        <ele>272.2</ele>
        <time>1970-01-01T10:58:25.145Z</time>
    </trkpt>
    <trkpt lat="56.341608" lon="60.823677">
        <ele>272.2</ele>
        <time>1970-01-01T10:58:26.145Z</time>
    </trkpt>
    <trkpt lat="56.341601" lon="60.823672">
        <ele>272.2</ele>
        <time>1970-01-01T10:58:27.145Z</time>
    </trkpt>
    <trkpt lat="56.341593" lon="60.823651">
        <ele>272.3</ele>
        <time>1970-01-01T10:58:28.145Z</time>
    </trkpt>
    <trkpt lat="56.341577" lon="60.823642">
        <ele>272.3</ele>
        <time>1970-01-01T10:58:29.145Z</time>
    </trkpt>
    <trkpt lat="56.341564" lon="60.823643">
        <ele>272.4</ele>
        <time>1970-01-01T10:58:30.145Z</time>
    </trkpt>
    <trkpt lat="56.341529" lon="60.823644">
        <ele>272.5</ele>
        <time>1970-01-01T10:58:31.145Z</time>
    </trkpt>
    <trkpt lat="56.341519" lon="60.823641">
        <ele>272.5</ele>
        <time>1970-01-01T10:58:32.145Z</time>
    </trkpt>
    <trkpt lat="56.341491" lon="60.823627">
        <ele>272.6</ele>
        <time>1970-01-01T10:58:33.145Z</time>
    </trkpt>
    <trkpt lat="56.34146" lon="60.82361">
        <ele>272.6</ele>
        <time>1970-01-01T10:58:34.145Z</time>
    </trkpt>
    <trkpt lat="56.341428" lon="60.823597">
        <ele>272.7</ele>
        <time>1970-01-01T10:58:35.145Z</time>
    </trkpt>
    <trkpt lat="56.341388" lon="60.823605">
        <ele>272.8</ele>
        <time>1970-01-01T10:58:36.145Z</time>
    </trkpt>
    <trkpt lat="56.341376" lon="60.823602">
        <ele>272.9</ele>
        <time>1970-01-01T10:58:37.145Z</time>
    </trkpt>
    <trkpt lat="56.34134" lon="60.823598">
        <ele>273.0</ele>
        <time>1970-01-01T10:58:38.145Z</time>
    </trkpt>
    <trkpt lat="56.341327" lon="60.823586">
        <ele>273.0</ele>
        <time>1970-01-01T10:58:39.145Z</time>
    </trkpt>
    <trkpt lat="56.34129" lon="60.82357">
        <ele>273.1</ele>
        <time>1970-01-01T10:58:40.145Z</time>
    </trkpt>
    <trkpt lat="56.341256" lon="60.823559">
        <ele>273.2</ele>
        <time>1970-01-01T10:58:41.145Z</time>
    </trkpt>
    <trkpt lat="56.341228" lon="60.823537">
        <ele>273.3</ele>
        <time>1970-01-01T10:58:42.145Z</time>
    </trkpt>
    <trkpt lat="56.341216" lon="60.823531">
        <ele>273.3</ele>
        <time>1970-01-01T10:58:43.145Z</time>
    </trkpt>
    <trkpt lat="56.341181" lon="60.823504">
        <ele>273.4</ele>
        <time>1970-01-01T10:58:44.145Z</time>
    </trkpt>
    <trkpt lat="56.341168" lon="60.823497">
        <ele>273.5</ele>
        <time>1970-01-01T10:58:45.145Z</time>
    </trkpt>
    <trkpt lat="56.341133" lon="60.823478">
        <ele>273.5</ele>
        <time>1970-01-01T10:58:46.145Z</time>
    </trkpt>
    <trkpt lat="56.341122" lon="60.823468">
        <ele>273.6</ele>
        <time>1970-01-01T10:58:47.145Z</time>
    </trkpt>
    <trkpt lat="56.341089" lon="60.82343">
        <ele>273.7</ele>
        <time>1970-01-01T10:58:48.145Z</time>
    </trkpt>
    <trkpt lat="56.341078" lon="60.823415">
        <ele>273.7</ele>
        <time>1970-01-01T10:58:49.145Z</time>
    </trkpt>
    <trkpt lat="56.341045" lon="60.823377">
        <ele>273.8</ele>
        <time>1970-01-01T10:58:50.145Z</time>
    </trkpt>
    <trkpt lat="56.34102" lon="60.823362">
        <ele>273.9</ele>
        <time>1970-01-01T10:58:51.145Z</time>
    </trkpt>
    <trkpt lat="56.340995" lon="60.82333">
        <ele>274.0</ele>
        <time>1970-01-01T10:58:52.145Z</time>
    </trkpt>
    <trkpt lat="56.340975" lon="60.823292">
        <ele>274.1</ele>
        <time>1970-01-01T10:58:53.145Z</time>
    </trkpt>
    <trkpt lat="56.340967" lon="60.823274">
        <ele>274.1</ele>
        <time>1970-01-01T10:58:54.145Z</time>
    </trkpt>
    <trkpt lat="56.34094" lon="60.823231">
        <ele>274.2</ele>
        <time>1970-01-01T10:58:55.145Z</time>
    </trkpt>
    <trkpt lat="56.34091812951239" lon="60.82320274332084">
        <ele>274.3</ele>
        <time>1970-01-01T10:58:55.645Z</time>
    </trkpt>
    <trkpt lat="56.34090147332774" lon="60.82320010610695">
        <ele>274.2</ele>
        <time>1970-01-01T11:03:12.645Z</time>
    </trkpt>
    <trkpt lat="56.340901" lon="60.823201">
        <ele>274.2</ele>
        <time>1970-01-01T11:03:13.145Z</time>
    </trkpt>
    <trkpt lat="56.340888" lon="60.823206">
        <ele>274.2</ele>
        <time>1970-01-01T11:03:14.145Z</time>
    </trkpt>
    <trkpt lat="56.340878" lon="60.823203">
        <ele>274.2</ele>
        <time>1970-01-01T11:03:15.145Z</time>
    </trkpt>
    <trkpt lat="56.340868" lon="60.8232">
        <ele>274.2</ele>
        <time>1970-01-01T11:03:16.145Z</time>
    </trkpt>
    <trkpt lat="56.340858" lon="60.823198">
        <ele>274.2</ele>
        <time>1970-01-01T11:03:17.145Z</time>
    </trkpt>
    <trkpt lat="56.340836" lon="60.823205">
        <ele>274.2</ele>
        <time>1970-01-01T11:03:18.145Z</time>
    </trkpt>
    <trkpt lat="56.340821" lon="60.823212">
        <ele>274.2</ele>
        <time>1970-01-01T11:03:19.145Z</time>
    </trkpt>
    <trkpt lat="56.340806" lon="60.823216">
        <ele>273.2</ele>
        <time>1970-01-01T11:03:20.145Z</time>
    </trkpt>
    <trkpt lat="56.340798" lon="60.823213">
        <ele>273.2</ele>
        <time>1970-01-01T11:03:21.145Z</time>
    </trkpt>
    <trkpt lat="56.34077" lon="60.823219">
        <ele>273.2</ele>
        <time>1970-01-01T11:03:22.145Z</time>
    </trkpt>
    <trkpt lat="56.340758" lon="60.823224">
        <ele>273.2</ele>
        <time>1970-01-01T11:03:23.145Z</time>
    </trkpt>
    <trkpt lat="56.340728" lon="60.823236">
        <ele>272.2</ele>
        <time>1970-01-01T11:03:24.145Z</time>
    </trkpt>
    <trkpt lat="56.340716" lon="60.823243">
        <ele>272.2</ele>
        <time>1970-01-01T11:03:25.145Z</time>
    </trkpt>
    <trkpt lat="56.340708" lon="60.823254">
        <ele>271.2</ele>
        <time>1970-01-01T11:03:26.145Z</time>
    </trkpt>
    <trkpt lat="56.340698" lon="60.823268">
        <ele>271.2</ele>
        <time>1970-01-01T11:03:27.145Z</time>
    </trkpt>
    <trkpt lat="56.340684" lon="60.823285">
        <ele>271.2</ele>
        <time>1970-01-01T11:03:28.145Z</time>
    </trkpt>
    <trkpt lat="56.340676" lon="60.823303">
        <ele>271.2</ele>
        <time>1970-01-01T11:03:29.145Z</time>
    </trkpt>
    <trkpt lat="56.340674" lon="60.823314">
        <ele>271.2</ele>
        <time>1970-01-01T11:03:30.145Z</time>
    </trkpt>
    <trkpt lat="56.34065" lon="60.823353">
        <ele>271.2</ele>
        <time>1970-01-01T11:03:31.145Z</time>
    </trkpt>
    <trkpt lat="56.340637" lon="60.823364">
        <ele>271.2</ele>
        <time>1970-01-01T11:03:32.145Z</time>
    </trkpt>
    <trkpt lat="56.340625" lon="60.823378">
        <ele>271.2</ele>
        <time>1970-01-01T11:03:33.145Z</time>
    </trkpt>
    <trkpt lat="56.340614" lon="60.82339">
        <ele>271.2</ele>
        <time>1970-01-01T11:03:34.145Z</time>
    </trkpt>
    <trkpt lat="56.340593" lon="60.823412">
        <ele>270.2</ele>
        <time>1970-01-01T11:03:35.145Z</time>
    </trkpt>
    <trkpt lat="56.340586" lon="60.82343">
        <ele>270.2</ele>
        <time>1970-01-01T11:03:36.145Z</time>
    </trkpt>
    <trkpt lat="56.340565" lon="60.823483">
        <ele>270.2</ele>
        <time>1970-01-01T11:03:37.145Z</time>
    </trkpt>
    <trkpt lat="56.340556" lon="60.823498">
        <ele>270.2</ele>
        <time>1970-01-01T11:03:38.145Z</time>
    </trkpt>
    <trkpt lat="56.340531" lon="60.823536">
        <ele>270.2</ele>
        <time>1970-01-01T11:03:39.145Z</time>
    </trkpt>
    <trkpt lat="56.340509" lon="60.823572">
        <ele>270.1</ele>
        <time>1970-01-01T11:03:40.145Z</time>
    </trkpt>
    <trkpt lat="56.340484" lon="60.823596">
        <ele>270.1</ele>
        <time>1970-01-01T11:03:41.145Z</time>
    </trkpt>
    <trkpt lat="56.340473" lon="60.823609">
        <ele>270.1</ele>
        <time>1970-01-01T11:03:42.145Z</time>
    </trkpt>
    <trkpt lat="56.340447" lon="60.823654">
        <ele>270.1</ele>
        <time>1970-01-01T11:03:43.145Z</time>
    </trkpt>
    <trkpt lat="56.340438" lon="60.823666">
        <ele>270.1</ele>
        <time>1970-01-01T11:03:44.145Z</time>
    </trkpt>
    <trkpt lat="56.340416" lon="60.823696">
        <ele>270.1</ele>
        <time>1970-01-01T11:03:45.145Z</time>
    </trkpt>
    <trkpt lat="56.340402" lon="60.823753">
        <ele>270.1</ele>
        <time>1970-01-01T11:03:46.145Z</time>
    </trkpt>
    <trkpt lat="56.340394" lon="60.82378">
        <ele>270.1</ele>
        <time>1970-01-01T11:03:47.145Z</time>
    </trkpt>
    <trkpt lat="56.340375" lon="60.82385">
        <ele>270.1</ele>
        <time>1970-01-01T11:03:48.145Z</time>
    </trkpt>
    <trkpt lat="56.340368" lon="60.823863">
        <ele>270.1</ele>
        <time>1970-01-01T11:03:49.145Z</time>
    </trkpt>
    <trkpt lat="56.340351" lon="60.823918">
        <ele>269.1</ele>
        <time>1970-01-01T11:03:50.145Z</time>
    </trkpt>
    <trkpt lat="56.340335" lon="60.823973">
        <ele>269.1</ele>
        <time>1970-01-01T11:03:51.145Z</time>
    </trkpt>
    <trkpt lat="56.340323" lon="60.824001">
        <ele>270.1</ele>
        <time>1970-01-01T11:03:52.145Z</time>
    </trkpt>
    <trkpt lat="56.340251" lon="60.824106">
        <ele>269.1</ele>
        <time>1970-01-01T11:04:01.145Z</time>
    </trkpt>
    <trkpt lat="56.340251" lon="60.824106">
        <ele>269.1</ele>
        <time>1970-01-01T11:04:02.145Z</time>
    </trkpt>
    <trkpt lat="56.340244" lon="60.824125">
        <ele>269.1</ele>
        <time>1970-01-01T11:04:03.145Z</time>
    </trkpt>
    <trkpt lat="56.340232" lon="60.824134">
        <ele>269.1</ele>
        <time>1970-01-01T11:04:04.145Z</time>
    </trkpt>
    <trkpt lat="56.340216" lon="60.824137">
        <ele>269.1</ele>
        <time>1970-01-01T11:04:05.145Z</time>
    </trkpt>
    <trkpt lat="56.340197" lon="60.824153">
        <ele>269.1</ele>
        <time>1970-01-01T11:04:06.145Z</time>
    </trkpt>
    <trkpt lat="56.340188" lon="60.824168">
        <ele>269.1</ele>
        <time>1970-01-01T11:04:07.145Z</time>
    </trkpt>
    <trkpt lat="56.340169" lon="60.824196">
        <ele>269.1</ele>
        <time>1970-01-01T11:04:08.145Z</time>
    </trkpt>
    <trkpt lat="56.340154" lon="60.824219">
        <ele>269.1</ele>
        <time>1970-01-01T11:04:09.145Z</time>
    </trkpt>
    <trkpt lat="56.340145" lon="60.824247">
        <ele>269.1</ele>
        <time>1970-01-01T11:04:10.145Z</time>
    </trkpt>
    <trkpt lat="56.340143" lon="60.82426">
        <ele>269.1</ele>
        <time>1970-01-01T11:04:11.145Z</time>
    </trkpt>
    <trkpt lat="56.340141" lon="60.824273">
        <ele>269.1</ele>
        <time>1970-01-01T11:04:12.145Z</time>
    </trkpt>
    <trkpt lat="56.340132" lon="60.824315">
        <ele>269.1</ele>
        <time>1970-01-01T11:04:13.145Z</time>
    </trkpt>
    <trkpt lat="56.340123" lon="60.824337">
        <ele>269.1</ele>
        <time>1970-01-01T11:04:14.145Z</time>
    </trkpt>
    <trkpt lat="56.340101" lon="60.824381">
        <ele>269.1</ele>
        <time>1970-01-01T11:04:15.145Z</time>
    </trkpt>
    <trkpt lat="56.340094" lon="60.824394">
        <ele>269.1</ele>
        <time>1970-01-01T11:04:16.145Z</time>
    </trkpt>
    <trkpt lat="56.340072" lon="60.824441">
        <ele>268.1</ele>
        <time>1970-01-01T11:04:17.145Z</time>
    </trkpt>
    <trkpt lat="56.340063" lon="60.824455">
        <ele>268.1</ele>
        <time>1970-01-01T11:04:18.145Z</time>
    </trkpt>
    <trkpt lat="56.340041" lon="60.8245">
        <ele>268.1</ele>
        <time>1970-01-01T11:04:19.145Z</time>
    </trkpt>
    <trkpt lat="56.340029" lon="60.824546">
        <ele>268.1</ele>
        <time>1970-01-01T11:04:20.145Z</time>
    </trkpt>
    <trkpt lat="56.340021" lon="60.824563">
        <ele>268.1</ele>
        <time>1970-01-01T11:04:21.145Z</time>
    </trkpt>
    <trkpt lat="56.340002" lon="60.824608">
        <ele>267.1</ele>
        <time>1970-01-01T11:04:22.145Z</time>
    </trkpt>
    <trkpt lat="56.339994" lon="60.824628">
        <ele>267.1</ele>
        <time>1970-01-01T11:04:23.145Z</time>
    </trkpt>
    <trkpt lat="56.339976" lon="60.824672">
        <ele>267.0</ele>
        <time>1970-01-01T11:04:24.145Z</time>
    </trkpt>
    <trkpt lat="56.339967" lon="60.824687">
        <ele>267.0</ele>
        <time>1970-01-01T11:04:25.145Z</time>
    </trkpt>
    <trkpt lat="56.339948" lon="60.824732">
        <ele>267.0</ele>
        <time>1970-01-01T11:04:26.145Z</time>
    </trkpt>
    <trkpt lat="56.339936" lon="60.824777">
        <ele>266.0</ele>
        <time>1970-01-01T11:04:27.145Z</time>
    </trkpt>
    <trkpt lat="56.339923" lon="60.824802">
        <ele>266.0</ele>
        <time>1970-01-01T11:04:28.145Z</time>
    </trkpt>
    <trkpt lat="56.339895" lon="60.824859">
        <ele>266.0</ele>
        <time>1970-01-01T11:04:29.145Z</time>
    </trkpt>
    <trkpt lat="56.339885" lon="60.824878">
        <ele>266.0</ele>
        <time>1970-01-01T11:04:30.145Z</time>
    </trkpt>
    <trkpt lat="56.339861" lon="60.824921">
        <ele>266.0</ele>
        <time>1970-01-01T11:04:31.145Z</time>
    </trkpt>
    <trkpt lat="56.339849" lon="60.82494">
        <ele>266.0</ele>
        <time>1970-01-01T11:04:32.145Z</time>
    </trkpt>
    <trkpt lat="56.339823" lon="60.824995">
        <ele>264.0</ele>
        <time>1970-01-01T11:04:33.145Z</time>
    </trkpt>
    <trkpt lat="56.339802" lon="60.825029">
        <ele>264.0</ele>
        <time>1970-01-01T11:04:34.145Z</time>
    </trkpt>
    <trkpt lat="56.339775" lon="60.825077">
        <ele>264.0</ele>
        <time>1970-01-01T11:04:35.145Z</time>
    </trkpt>
    <trkpt lat="56.339748" lon="60.825123">
        <ele>264.0</ele>
        <time>1970-01-01T11:04:36.145Z</time>
    </trkpt>
    <trkpt lat="56.339717" lon="60.825155">
        <ele>264.0</ele>
        <time>1970-01-01T11:04:37.145Z</time>
    </trkpt>
    <trkpt lat="56.339707" lon="60.82517">
        <ele>264.0</ele>
        <time>1970-01-01T11:04:38.145Z</time>
    </trkpt>
    <trkpt lat="56.339684" lon="60.825225">
        <ele>264.0</ele>
        <time>1970-01-01T11:04:39.145Z</time>
    </trkpt>
    <trkpt lat="56.339676" lon="60.825241">
        <ele>264.0</ele>
        <time>1970-01-01T11:04:40.145Z</time>
    </trkpt>
    <trkpt lat="56.339654" lon="60.825286">
        <ele>265.0</ele>
        <time>1970-01-01T11:04:41.145Z</time>
    </trkpt>
    <trkpt lat="56.339631" lon="60.825326">
        <ele>265.0</ele>
        <time>1970-01-01T11:04:42.145Z</time>
    </trkpt>
    <trkpt lat="56.339628" lon="60.825338">
        <ele>265.0</ele>
        <time>1970-01-01T11:04:43.145Z</time>
    </trkpt>
    <trkpt lat="56.339612" lon="60.825388">
        <ele>265.0</ele>
        <time>1970-01-01T11:04:44.145Z</time>
    </trkpt>
    <trkpt lat="56.339609" lon="60.8254">
        <ele>265.0</ele>
        <time>1970-01-01T11:04:45.145Z</time>
    </trkpt>
    <trkpt lat="56.3396" lon="60.82545">
        <ele>265.0</ele>
        <time>1970-01-01T11:04:46.145Z</time>
    </trkpt>
    <trkpt lat="56.339597" lon="60.825465">
        <ele>265.0</ele>
        <time>1970-01-01T11:04:47.145Z</time>
    </trkpt>
    <trkpt lat="56.339582" lon="60.82552">
        <ele>265.0</ele>
        <time>1970-01-01T11:04:48.145Z</time>
    </trkpt>
    <trkpt lat="56.339578" lon="60.825541">
        <ele>265.0</ele>
        <time>1970-01-01T11:04:49.145Z</time>
    </trkpt>
    <trkpt lat="56.339558" lon="60.825591">
        <ele>265.0</ele>
        <time>1970-01-01T11:04:50.145Z</time>
    </trkpt>
    <trkpt lat="56.339543" lon="60.825624">
        <ele>265.0</ele>
        <time>1970-01-01T11:04:51.145Z</time>
    </trkpt>
    <trkpt lat="56.339517" lon="60.825693">
        <ele>265.0</ele>
        <time>1970-01-01T11:04:52.145Z</time>
    </trkpt>
    <trkpt lat="56.339511" lon="60.82571">
        <ele>265.0</ele>
        <time>1970-01-01T11:04:53.145Z</time>
    </trkpt>
    <trkpt lat="56.339499" lon="60.825764">
        <ele>265.0</ele>
        <time>1970-01-01T11:04:54.145Z</time>
    </trkpt>
    <trkpt lat="56.339493" lon="60.825783">
        <ele>265.0</ele>
        <time>1970-01-01T11:04:55.145Z</time>
    </trkpt>
    <trkpt lat="56.339478" lon="60.82582">
        <ele>265.0</ele>
        <time>1970-01-01T11:04:56.145Z</time>
    </trkpt>
    <trkpt lat="56.339459" lon="60.825869">
        <ele>265.0</ele>
        <time>1970-01-01T11:04:57.145Z</time>
    </trkpt>
    <trkpt lat="56.33945" lon="60.825893">
        <ele>265.0</ele>
        <time>1970-01-01T11:04:58.145Z</time>
    </trkpt>
    <trkpt lat="56.339432" lon="60.82595">
        <ele>265.0</ele>
        <time>1970-01-01T11:04:59.145Z</time>
    </trkpt>
    <trkpt lat="56.339409" lon="60.825997">
        <ele>265.0</ele>
        <time>1970-01-01T11:05:00.145Z</time>
    </trkpt>
    <trkpt lat="56.339391" lon="60.826038">
        <ele>265.0</ele>
        <time>1970-01-01T11:05:01.145Z</time>
    </trkpt>
    <trkpt lat="56.339371" lon="60.826074">
        <ele>265.0</ele>
        <time>1970-01-01T11:05:02.145Z</time>
    </trkpt>
    <trkpt lat="56.339365" lon="60.826095">
        <ele>265.0</ele>
        <time>1970-01-01T11:05:03.145Z</time>
    </trkpt>
    <trkpt lat="56.339354" lon="60.826154">
        <ele>265.0</ele>
        <time>1970-01-01T11:05:04.145Z</time>
    </trkpt>
    <trkpt lat="56.339348" lon="60.826173">
        <ele>265.0</ele>
        <time>1970-01-01T11:05:05.145Z</time>
    </trkpt>
    <trkpt lat="56.339325" lon="60.826227">
        <ele>265.0</ele>
        <time>1970-01-01T11:05:06.145Z</time>
    </trkpt>
    <trkpt lat="56.339315" lon="60.82625">
        <ele>265.0</ele>
        <time>1970-01-01T11:05:07.145Z</time>
    </trkpt>
    <trkpt lat="56.339297" lon="60.826313">
        <ele>265.0</ele>
        <time>1970-01-01T11:05:08.145Z</time>
    </trkpt>
    <trkpt lat="56.339294" lon="60.826329">
        <ele>265.0</ele>
        <time>1970-01-01T11:05:09.145Z</time>
    </trkpt>
    <trkpt lat="56.339291" lon="60.826389">
        <ele>265.0</ele>
        <time>1970-01-01T11:05:10.145Z</time>
    </trkpt>
    <trkpt lat="56.339269" lon="60.826432">
        <ele>265.0</ele>
        <time>1970-01-01T11:05:11.145Z</time>
    </trkpt>
    <trkpt lat="56.339259" lon="60.826482">
        <ele>265.0</ele>
        <time>1970-01-01T11:05:12.145Z</time>
    </trkpt>
    <trkpt lat="56.339246" lon="60.826545">
        <ele>265.0</ele>
        <time>1970-01-01T11:05:13.145Z</time>
    </trkpt>
    <trkpt lat="56.339237" lon="60.826566">
        <ele>265.0</ele>
        <time>1970-01-01T11:05:14.145Z</time>
    </trkpt>
    <trkpt lat="56.339217" lon="60.826631">
        <ele>265.0</ele>
        <time>1970-01-01T11:05:15.145Z</time>
    </trkpt>
    <trkpt lat="56.339202" lon="60.826675">
        <ele>265.0</ele>
        <time>1970-01-01T11:05:16.145Z</time>
    </trkpt>
    <trkpt lat="56.33916" lon="60.826851">
        <ele>265.0</ele>
        <time>1970-01-01T11:05:22.145Z</time>
    </trkpt>
    <trkpt lat="56.339153" lon="60.826862">
        <ele>265.0</ele>
        <time>1970-01-01T11:05:23.145Z</time>
    </trkpt>
    <trkpt lat="56.339148" lon="60.826867">
        <ele>265.0</ele>
        <time>1970-01-01T11:05:24.145Z</time>
    </trkpt>
    <trkpt lat="56.33915" lon="60.826879">
        <ele>265.0</ele>
        <time>1970-01-01T11:05:25.145Z</time>
    </trkpt>
    <trkpt lat="56.339145" lon="60.82689">
        <ele>265.0</ele>
        <time>1970-01-01T11:05:26.145Z</time>
    </trkpt>
    <trkpt lat="56.339135" lon="60.826915">
        <ele>265.0</ele>
        <time>1970-01-01T11:05:27.145Z</time>
    </trkpt>
    <trkpt lat="56.339135" lon="60.826915">
        <ele>265.0</ele>
        <time>1970-01-01T11:05:28.145Z</time>
    </trkpt>
    <trkpt lat="56.339136" lon="60.826915">
        <ele>265.0</ele>
        <time>1970-01-01T11:05:29.145Z</time>
    </trkpt>
    <trkpt lat="56.339135" lon="60.826924">
        <ele>265.0</ele>
        <time>1970-01-01T11:05:30.145Z</time>
    </trkpt>
    <trkpt lat="56.33913" lon="60.826931">
        <ele>265.0</ele>
        <time>1970-01-01T11:05:31.145Z</time>
    </trkpt>
    <trkpt lat="56.339129" lon="60.826938">
        <ele>265.0</ele>
        <time>1970-01-01T11:05:32.145Z</time>
    </trkpt>
    <trkpt lat="56.339128" lon="60.826948">
        <ele>265.0</ele>
        <time>1970-01-01T11:05:33.145Z</time>
    </trkpt>
    <trkpt lat="56.339112" lon="60.826966">
        <ele>265.0</ele>
        <time>1970-01-01T11:05:34.145Z</time>
    </trkpt>
    <trkpt lat="56.339101" lon="60.826984">
        <ele>265.0</ele>
        <time>1970-01-01T11:05:35.145Z</time>
    </trkpt>
    <trkpt lat="56.339093" lon="60.826999">
        <ele>265.0</ele>
        <time>1970-01-01T11:05:36.145Z</time>
    </trkpt>
    <trkpt lat="56.339072" lon="60.827047">
        <ele>265.0</ele>
        <time>1970-01-01T11:05:37.145Z</time>
    </trkpt>
    <trkpt lat="56.339061" lon="60.827066">
        <ele>265.0</ele>
        <time>1970-01-01T11:05:38.145Z</time>
    </trkpt>
    <trkpt lat="56.339036" lon="60.827116">
        <ele>265.0</ele>
        <time>1970-01-01T11:05:39.145Z</time>
    </trkpt>
    <trkpt lat="56.339024" lon="60.827138">
        <ele>265.0</ele>
        <time>1970-01-01T11:05:40.145Z</time>
    </trkpt>
    <trkpt lat="56.338992" lon="60.827186">
        <ele>265.0</ele>
        <time>1970-01-01T11:05:41.145Z</time>
    </trkpt>
    <trkpt lat="56.338967" lon="60.827211">
        <ele>265.0</ele>
        <time>1970-01-01T11:05:42.145Z</time>
    </trkpt>
    <trkpt lat="56.33894" lon="60.827257">
        <ele>265.0</ele>
        <time>1970-01-01T11:05:43.145Z</time>
    </trkpt>
    <trkpt lat="56.338915" lon="60.827303">
        <ele>265.0</ele>
        <time>1970-01-01T11:05:44.145Z</time>
    </trkpt>
    <trkpt lat="56.338907" lon="60.827316">
        <ele>265.0</ele>
        <time>1970-01-01T11:05:45.145Z</time>
    </trkpt>
    <trkpt lat="56.33888" lon="60.827357">
        <ele>265.0</ele>
        <time>1970-01-01T11:05:46.145Z</time>
    </trkpt>
    <trkpt lat="56.338873" lon="60.827369">
        <ele>265.0</ele>
        <time>1970-01-01T11:05:47.145Z</time>
    </trkpt>
    <trkpt lat="56.33885" lon="60.827403">
        <ele>265.0</ele>
        <time>1970-01-01T11:05:48.145Z</time>
    </trkpt>
    <trkpt lat="56.338842" lon="60.82742">
        <ele>265.0</ele>
        <time>1970-01-01T11:05:49.145Z</time>
    </trkpt>
    <trkpt lat="56.33882" lon="60.82747">
        <ele>265.0</ele>
        <time>1970-01-01T11:05:50.145Z</time>
    </trkpt>
    <trkpt lat="56.338814" lon="60.82749">
        <ele>265.0</ele>
        <time>1970-01-01T11:05:51.145Z</time>
    </trkpt>
    <trkpt lat="56.338796" lon="60.827543">
        <ele>265.0</ele>
        <time>1970-01-01T11:05:52.145Z</time>
    </trkpt>
    <trkpt lat="56.33879" lon="60.827564">
        <ele>265.0</ele>
        <time>1970-01-01T11:05:53.145Z</time>
    </trkpt>
    <trkpt lat="56.338772" lon="60.827624">
        <ele>265.0</ele>
        <time>1970-01-01T11:05:54.145Z</time>
    </trkpt>
    <trkpt lat="56.338766" lon="60.827638">
        <ele>265.0</ele>
        <time>1970-01-01T11:05:55.145Z</time>
    </trkpt>
    <trkpt lat="56.338749" lon="60.827687">
        <ele>265.0</ele>
        <time>1970-01-01T11:05:56.145Z</time>
    </trkpt>
    <trkpt lat="56.338743" lon="60.827706">
        <ele>265.0</ele>
        <time>1970-01-01T11:05:57.145Z</time>
    </trkpt>
    <trkpt lat="56.33873" lon="60.827763">
        <ele>265.1</ele>
        <time>1970-01-01T11:05:58.145Z</time>
    </trkpt>
    <trkpt lat="56.338726" lon="60.827781">
        <ele>265.1</ele>
        <time>1970-01-01T11:05:59.145Z</time>
    </trkpt>
    <trkpt lat="56.338709" lon="60.827824">
        <ele>265.1</ele>
        <time>1970-01-01T11:06:00.145Z</time>
    </trkpt>
    <trkpt lat="56.338708" lon="60.827844">
        <ele>265.1</ele>
        <time>1970-01-01T11:06:01.145Z</time>
    </trkpt>
    <trkpt lat="56.338699" lon="60.827874">
        <ele>265.1</ele>
        <time>1970-01-01T11:06:02.145Z</time>
    </trkpt>
    <trkpt lat="56.338692" lon="60.827897">
        <ele>265.2</ele>
        <time>1970-01-01T11:06:03.145Z</time>
    </trkpt>
    <trkpt lat="56.338683" lon="60.827926">
        <ele>265.2</ele>
        <time>1970-01-01T11:06:04.145Z</time>
    </trkpt>
    <trkpt lat="56.338675" lon="60.827941">
        <ele>265.2</ele>
        <time>1970-01-01T11:06:05.145Z</time>
    </trkpt>
    <trkpt lat="56.338673" lon="60.827958">
        <ele>265.2</ele>
        <time>1970-01-01T11:06:06.145Z</time>
    </trkpt>
    <trkpt lat="56.338669" lon="60.827969">
        <ele>265.2</ele>
        <time>1970-01-01T11:06:07.145Z</time>
    </trkpt>
    <trkpt lat="56.338667" lon="60.827997">
        <ele>265.2</ele>
        <time>1970-01-01T11:06:08.145Z</time>
    </trkpt>
    <trkpt lat="56.338659" lon="60.828007">
        <ele>265.2</ele>
        <time>1970-01-01T11:06:09.145Z</time>
    </trkpt>
    <trkpt lat="56.338654" lon="60.828023">
        <ele>265.3</ele>
        <time>1970-01-01T11:06:10.145Z</time>
    </trkpt>
    <trkpt lat="56.33865" lon="60.828044">
        <ele>265.3</ele>
        <time>1970-01-01T11:06:11.145Z</time>
    </trkpt>
    <trkpt lat="56.338645" lon="60.828074">
        <ele>265.3</ele>
        <time>1970-01-01T11:06:12.145Z</time>
    </trkpt>
    <trkpt lat="56.33864" lon="60.828099">
        <ele>265.3</ele>
        <time>1970-01-01T11:06:13.145Z</time>
    </trkpt>
    <trkpt lat="56.338631" lon="60.828125">
        <ele>265.3</ele>
        <time>1970-01-01T11:06:14.145Z</time>
    </trkpt>
    <trkpt lat="56.338627" lon="60.828144">
        <ele>265.3</ele>
        <time>1970-01-01T11:06:15.145Z</time>
    </trkpt>
    <trkpt lat="56.33861" lon="60.828202">
        <ele>265.4</ele>
        <time>1970-01-01T11:06:16.145Z</time>
    </trkpt>
    <trkpt lat="56.338603" lon="60.828219">
        <ele>265.4</ele>
        <time>1970-01-01T11:06:17.145Z</time>
    </trkpt>
    <trkpt lat="56.338576" lon="60.828258">
        <ele>265.4</ele>
        <time>1970-01-01T11:06:18.145Z</time>
    </trkpt>
    <trkpt lat="56.338569" lon="60.828272">
        <ele>265.4</ele>
        <time>1970-01-01T11:06:19.145Z</time>
    </trkpt>
    <trkpt lat="56.338553" lon="60.82832">
        <ele>265.5</ele>
        <time>1970-01-01T11:06:20.145Z</time>
    </trkpt>
    <trkpt lat="56.338547" lon="60.828333">
        <ele>265.5</ele>
        <time>1970-01-01T11:06:21.145Z</time>
    </trkpt>
    <trkpt lat="56.338531" lon="60.828382">
        <ele>265.5</ele>
        <time>1970-01-01T11:06:22.145Z</time>
    </trkpt>
    <trkpt lat="56.338527" lon="60.828396">
        <ele>265.5</ele>
        <time>1970-01-01T11:06:23.145Z</time>
    </trkpt>
    <trkpt lat="56.338514" lon="60.82844">
        <ele>265.6</ele>
        <time>1970-01-01T11:06:24.145Z</time>
    </trkpt>
    <trkpt lat="56.338513" lon="60.828473">
        <ele>265.6</ele>
        <time>1970-01-01T11:06:25.145Z</time>
    </trkpt>
    <trkpt lat="56.338506" lon="60.828493">
        <ele>265.6</ele>
        <time>1970-01-01T11:06:26.145Z</time>
    </trkpt>
    <trkpt lat="56.338504" lon="60.828509">
        <ele>265.6</ele>
        <time>1970-01-01T11:06:27.145Z</time>
    </trkpt>
    <trkpt lat="56.338492" lon="60.828561">
        <ele>265.6</ele>
        <time>1970-01-01T11:06:28.145Z</time>
    </trkpt>
    <trkpt lat="56.338483" lon="60.828577">
        <ele>265.6</ele>
        <time>1970-01-01T11:06:29.145Z</time>
    </trkpt>
    <trkpt lat="56.338457" lon="60.828625">
        <ele>265.7</ele>
        <time>1970-01-01T11:06:30.145Z</time>
    </trkpt>
    <trkpt lat="56.338433" lon="60.828676">
        <ele>265.7</ele>
        <time>1970-01-01T11:06:31.145Z</time>
    </trkpt>
    <trkpt lat="56.338417" lon="60.828715">
        <ele>265.8</ele>
        <time>1970-01-01T11:06:32.145Z</time>
    </trkpt>
    <trkpt lat="56.338397" lon="60.828748">
        <ele>265.8</ele>
        <time>1970-01-01T11:06:33.145Z</time>
    </trkpt>
    <trkpt lat="56.33837" lon="60.828767">
        <ele>265.8</ele>
        <time>1970-01-01T11:06:34.145Z</time>
    </trkpt>
    <trkpt lat="56.33834" lon="60.828787">
        <ele>265.9</ele>
        <time>1970-01-01T11:06:35.145Z</time>
    </trkpt>
    <trkpt lat="56.338311" lon="60.828816">
        <ele>265.9</ele>
        <time>1970-01-01T11:06:36.145Z</time>
    </trkpt>
    <trkpt lat="56.3383" lon="60.828835">
        <ele>265.9</ele>
        <time>1970-01-01T11:06:37.145Z</time>
    </trkpt>
    <trkpt lat="56.338276" lon="60.828885">
        <ele>266.0</ele>
        <time>1970-01-01T11:06:38.145Z</time>
    </trkpt>
    <trkpt lat="56.33827" lon="60.828903">
        <ele>266.0</ele>
        <time>1970-01-01T11:06:39.145Z</time>
    </trkpt>
    <trkpt lat="56.338242" lon="60.828932">
        <ele>266.0</ele>
        <time>1970-01-01T11:06:40.145Z</time>
    </trkpt>
    <trkpt lat="56.338236" lon="60.828936">
        <ele>266.0</ele>
        <time>1970-01-01T11:06:41.145Z</time>
    </trkpt>
    <trkpt lat="56.33821" lon="60.828962">
        <ele>266.0</ele>
        <time>1970-01-01T11:06:42.145Z</time>
    </trkpt>
    <trkpt lat="56.338187" lon="60.828999">
        <ele>266.1</ele>
        <time>1970-01-01T11:06:43.145Z</time>
    </trkpt>
    <trkpt lat="56.338176" lon="60.829011">
        <ele>266.1</ele>
        <time>1970-01-01T11:06:44.145Z</time>
    </trkpt>
    <trkpt lat="56.338142" lon="60.829047">
        <ele>266.1</ele>
        <time>1970-01-01T11:06:45.145Z</time>
    </trkpt>
    <trkpt lat="56.338121" lon="60.829069">
        <ele>266.2</ele>
        <time>1970-01-01T11:06:46.145Z</time>
    </trkpt>
    <trkpt lat="56.338118" lon="60.829093">
        <ele>266.2</ele>
        <time>1970-01-01T11:06:47.145Z</time>
    </trkpt>
    <trkpt lat="56.338108" lon="60.829109">
        <ele>266.2</ele>
        <time>1970-01-01T11:06:48.145Z</time>
    </trkpt>
    <trkpt lat="56.338093" lon="60.829139">
        <ele>266.2</ele>
        <time>1970-01-01T11:06:49.145Z</time>
    </trkpt>
    <trkpt lat="56.338087" lon="60.829159">
        <ele>266.2</ele>
        <time>1970-01-01T11:06:50.145Z</time>
    </trkpt>
    <trkpt lat="56.338081" lon="60.829179">
        <ele>266.2</ele>
        <time>1970-01-01T11:06:51.145Z</time>
    </trkpt>
    <trkpt lat="56.338075" lon="60.829199">
        <ele>266.3</ele>
        <time>1970-01-01T11:07:26.145Z</time>
    </trkpt>
    <trkpt lat="56.338069" lon="60.829219">
        <ele>266.3</ele>
        <time>1970-01-01T11:07:27.145Z</time>
    </trkpt>
    <trkpt lat="56.338063" lon="60.829239">
        <ele>266.3</ele>
        <time>1970-01-01T11:07:28.145Z</time>
    </trkpt>
    <trkpt lat="56.338057" lon="60.829259">
        <ele>266.3</ele>
        <time>1970-01-01T11:07:29.145Z</time>
    </trkpt>
    <trkpt lat="56.338051" lon="60.829279">
        <ele>266.3</ele>
        <time>1970-01-01T11:07:30.145Z</time>
    </trkpt>
    <trkpt lat="56.338045" lon="60.829299">
        <ele>266.3</ele>
        <time>1970-01-01T11:07:31.145Z</time>
    </trkpt>
    <trkpt lat="56.338039" lon="60.829319">
        <ele>266.3</ele>
        <time>1970-01-01T11:07:32.145Z</time>
    </trkpt>
    <trkpt lat="56.338033" lon="60.829339">
        <ele>266.4</ele>
        <time>1970-01-01T11:07:33.145Z</time>
    </trkpt>
    <trkpt lat="56.338027" lon="60.829359">
        <ele>266.4</ele>
        <time>1970-01-01T11:07:34.145Z</time>
    </trkpt>
    <trkpt lat="56.338021" lon="60.829379">
        <ele>266.4</ele>
        <time>1970-01-01T11:07:35.145Z</time>
    </trkpt>
    <trkpt lat="56.338003" lon="60.829409">
        <ele>266.4</ele>
        <time>1970-01-01T11:07:36.145Z</time>
    </trkpt>
    <trkpt lat="56.337995" lon="60.829429">
        <ele>266.4</ele>
        <time>1970-01-01T11:07:37.145Z</time>
    </trkpt>
    <trkpt lat="56.337981" lon="60.82945">
        <ele>266.4</ele>
        <time>1970-01-01T11:07:38.145Z</time>
    </trkpt>
    <trkpt lat="56.337953" lon="60.829472">
        <ele>266.5</ele>
        <time>1970-01-01T11:07:39.145Z</time>
    </trkpt>
    <trkpt lat="56.33793" lon="60.829506">
        <ele>266.5</ele>
        <time>1970-01-01T11:07:40.145Z</time>
    </trkpt>
    <trkpt lat="56.337909" lon="60.829542">
        <ele>266.5</ele>
        <time>1970-01-01T11:07:41.145Z</time>
    </trkpt>
    <trkpt lat="56.337901" lon="60.829555">
        <ele>266.6</ele>
        <time>1970-01-01T11:07:42.145Z</time>
    </trkpt>
    <trkpt lat="56.337882" lon="60.829587">
        <ele>266.6</ele>
        <time>1970-01-01T11:07:43.145Z</time>
    </trkpt>
    <trkpt lat="56.337847" lon="60.829617">
        <ele>266.6</ele>
        <time>1970-01-01T11:07:44.145Z</time>
    </trkpt>
    <trkpt lat="56.337821" lon="60.829648">
        <ele>266.7</ele>
        <time>1970-01-01T11:07:45.145Z</time>
    </trkpt>
    <trkpt lat="56.3378" lon="60.829688">
        <ele>266.7</ele>
        <time>1970-01-01T11:07:46.145Z</time>
    </trkpt>
    <trkpt lat="56.337788" lon="60.829702">
        <ele>266.7</ele>
        <time>1970-01-01T11:07:47.145Z</time>
    </trkpt>
    <trkpt lat="56.337759" lon="60.829734">
        <ele>266.7</ele>
        <time>1970-01-01T11:07:48.145Z</time>
    </trkpt>
    <trkpt lat="56.337748" lon="60.829751">
        <ele>266.8</ele>
        <time>1970-01-01T11:07:49.145Z</time>
    </trkpt>
    <trkpt lat="56.337719" lon="60.829789">
        <ele>266.8</ele>
        <time>1970-01-01T11:07:50.145Z</time>
    </trkpt>
    <trkpt lat="56.33771" lon="60.829808">
        <ele>266.8</ele>
        <time>1970-01-01T11:07:51.145Z</time>
    </trkpt>
    <trkpt lat="56.337677" lon="60.829845">
        <ele>266.9</ele>
        <time>1970-01-01T11:07:52.145Z</time>
    </trkpt>
    <trkpt lat="56.337668" lon="60.829862">
        <ele>266.9</ele>
        <time>1970-01-01T11:07:53.145Z</time>
    </trkpt>
    <trkpt lat="56.337646" lon="60.829899">
        <ele>266.9</ele>
        <time>1970-01-01T11:07:54.145Z</time>
    </trkpt>
    <trkpt lat="56.337637" lon="60.829908">
        <ele>266.9</ele>
        <time>1970-01-01T11:07:55.145Z</time>
    </trkpt>
    <trkpt lat="56.337607" lon="60.829939">
        <ele>267.0</ele>
        <time>1970-01-01T11:07:56.145Z</time>
    </trkpt>
    <trkpt lat="56.337596" lon="60.829946">
        <ele>267.0</ele>
        <time>1970-01-01T11:07:57.145Z</time>
    </trkpt>
    <trkpt lat="56.337572" lon="60.829985">
        <ele>267.0</ele>
        <time>1970-01-01T11:07:58.145Z</time>
    </trkpt>
    <trkpt lat="56.337559" lon="60.829999">
        <ele>267.0</ele>
        <time>1970-01-01T11:07:59.145Z</time>
    </trkpt>
    <trkpt lat="56.337525" lon="60.830032">
        <ele>267.1</ele>
        <time>1970-01-01T11:08:00.145Z</time>
    </trkpt>
    <trkpt lat="56.337497" lon="60.830051">
        <ele>267.1</ele>
        <time>1970-01-01T11:08:01.145Z</time>
    </trkpt>
    <trkpt lat="56.337481" lon="60.830058">
        <ele>267.1</ele>
        <time>1970-01-01T11:08:02.145Z</time>
    </trkpt>
    <trkpt lat="56.337444" lon="60.83007">
        <ele>267.2</ele>
        <time>1970-01-01T11:08:03.145Z</time>
    </trkpt>
    <trkpt lat="56.337434" lon="60.830069">
        <ele>267.2</ele>
        <time>1970-01-01T11:08:04.145Z</time>
    </trkpt>
    <trkpt lat="56.337404" lon="60.830083">
        <ele>267.2</ele>
        <time>1970-01-01T11:08:05.145Z</time>
    </trkpt>
    <trkpt lat="56.337382" lon="60.83011">
        <ele>267.2</ele>
        <time>1970-01-01T11:08:06.145Z</time>
    </trkpt>
    <trkpt lat="56.337352" lon="60.830129">
        <ele>267.3</ele>
        <time>1970-01-01T11:08:07.145Z</time>
    </trkpt>
    <trkpt lat="56.337339" lon="60.830139">
        <ele>267.3</ele>
        <time>1970-01-01T11:08:08.145Z</time>
    </trkpt>
    <trkpt lat="56.337309" lon="60.830168">
        <ele>267.3</ele>
        <time>1970-01-01T11:08:09.145Z</time>
    </trkpt>
    <trkpt lat="56.337304" lon="60.830191">
        <ele>267.3</ele>
        <time>1970-01-01T11:08:10.145Z</time>
    </trkpt>
    <trkpt lat="56.337289" lon="60.830206">
        <ele>267.4</ele>
        <time>1970-01-01T11:08:11.145Z</time>
    </trkpt>
    <trkpt lat="56.337278" lon="60.830218">
        <ele>267.4</ele>
        <time>1970-01-01T11:08:12.145Z</time>
    </trkpt>
    <trkpt lat="56.337252" lon="60.830258">
        <ele>267.4</ele>
        <time>1970-01-01T11:08:13.145Z</time>
    </trkpt>
    <trkpt lat="56.337227" lon="60.830288">
        <ele>267.4</ele>
        <time>1970-01-01T11:08:14.145Z</time>
    </trkpt>
    <trkpt lat="56.33722" lon="60.830297">
        <ele>267.5</ele>
        <time>1970-01-01T11:08:15.145Z</time>
    </trkpt>
    <trkpt lat="56.337195" lon="60.830339">
        <ele>267.5</ele>
        <time>1970-01-01T11:08:16.145Z</time>
    </trkpt>
    <trkpt lat="56.337189" lon="60.830353">
        <ele>267.5</ele>
        <time>1970-01-01T11:08:17.145Z</time>
    </trkpt>
    <trkpt lat="56.337169" lon="60.830399">
        <ele>267.5</ele>
        <time>1970-01-01T11:08:18.145Z</time>
    </trkpt>
    <trkpt lat="56.337164" lon="60.830417">
        <ele>267.5</ele>
        <time>1970-01-01T11:08:19.145Z</time>
    </trkpt>
    <trkpt lat="56.337145" lon="60.830455">
        <ele>267.6</ele>
        <time>1970-01-01T11:08:20.145Z</time>
    </trkpt>
    <trkpt lat="56.337137" lon="60.830466">
        <ele>267.6</ele>
        <time>1970-01-01T11:08:21.145Z</time>
    </trkpt>
    <trkpt lat="56.337111" lon="60.83051">
        <ele>267.6</ele>
        <time>1970-01-01T11:08:22.145Z</time>
    </trkpt>
    <trkpt lat="56.337102" lon="60.830535">
        <ele>267.6</ele>
        <time>1970-01-01T11:08:23.145Z</time>
    </trkpt>
    <trkpt lat="56.337092" lon="60.830563">
        <ele>267.7</ele>
        <time>1970-01-01T11:08:24.145Z</time>
    </trkpt>
    <trkpt lat="56.337084" lon="60.830592">
        <ele>267.7</ele>
        <time>1970-01-01T11:08:25.145Z</time>
    </trkpt>
    <trkpt lat="56.337026" lon="60.830694">
        <ele>267.8</ele>
        <time>1970-01-01T11:08:33.145Z</time>
    </trkpt>
    <trkpt lat="56.337024" lon="60.830702">
        <ele>267.8</ele>
        <time>1970-01-01T11:08:34.145Z</time>
    </trkpt>
    <trkpt lat="56.337023" lon="60.830703">
        <ele>267.8</ele>
        <time>1970-01-01T11:08:35.145Z</time>
    </trkpt>
    <trkpt lat="56.337013" lon="60.8307">
        <ele>267.8</ele>
        <time>1970-01-01T11:08:36.145Z</time>
    </trkpt>
    <trkpt lat="56.337006" lon="60.830696">
        <ele>267.8</ele>
        <time>1970-01-01T11:08:37.145Z</time>
    </trkpt>
    <trkpt lat="56.337002" lon="60.830703">
        <ele>267.8</ele>
        <time>1970-01-01T11:08:38.145Z</time>
    </trkpt>
    <trkpt lat="56.336996" lon="60.830702">
        <ele>267.8</ele>
        <time>1970-01-01T11:08:39.145Z</time>
    </trkpt>
    <trkpt lat="56.336997" lon="60.830714">
        <ele>267.8</ele>
        <time>1970-01-01T11:08:40.145Z</time>
    </trkpt>
    <trkpt lat="56.336984" lon="60.830718">
        <ele>267.8</ele>
        <time>1970-01-01T11:08:41.145Z</time>
    </trkpt>
    <trkpt lat="56.336975" lon="60.830731">
        <ele>267.9</ele>
        <time>1970-01-01T11:08:42.145Z</time>
    </trkpt>
    <trkpt lat="56.336965" lon="60.830752">
        <ele>267.9</ele>
        <time>1970-01-01T11:08:43.145Z</time>
    </trkpt>
    <trkpt lat="56.336965" lon="60.830758">
        <ele>267.9</ele>
        <time>1970-01-01T11:08:44.145Z</time>
    </trkpt>
    <trkpt lat="56.33696" lon="60.83077">
        <ele>267.9</ele>
        <time>1970-01-01T11:08:45.145Z</time>
    </trkpt>
    <trkpt lat="56.336939" lon="60.830806">
        <ele>267.9</ele>
        <time>1970-01-01T11:08:46.145Z</time>
    </trkpt>
    <trkpt lat="56.336914" lon="60.830842">
        <ele>268.0</ele>
        <time>1970-01-01T11:08:47.145Z</time>
    </trkpt>
    <trkpt lat="56.336906" lon="60.830851">
        <ele>268.0</ele>
        <time>1970-01-01T11:08:48.145Z</time>
    </trkpt>
    <trkpt lat="56.336886" lon="60.830892">
        <ele>268.0</ele>
        <time>1970-01-01T11:08:49.145Z</time>
    </trkpt>
    <trkpt lat="56.336865" lon="60.830925">
        <ele>268.0</ele>
        <time>1970-01-01T11:08:50.145Z</time>
    </trkpt>
    <trkpt lat="56.33685" lon="60.830968">
        <ele>268.1</ele>
        <time>1970-01-01T11:08:51.145Z</time>
    </trkpt>
    <trkpt lat="56.336841" lon="60.83098">
        <ele>268.1</ele>
        <time>1970-01-01T11:08:52.145Z</time>
    </trkpt>
    <trkpt lat="56.336817" lon="60.831028">
        <ele>268.1</ele>
        <time>1970-01-01T11:08:53.145Z</time>
    </trkpt>
    <trkpt lat="56.33679" lon="60.831036">
        <ele>268.1</ele>
        <time>1970-01-01T11:08:54.145Z</time>
    </trkpt>
    <trkpt lat="56.336766" lon="60.83106">
        <ele>268.2</ele>
        <time>1970-01-01T11:08:55.145Z</time>
    </trkpt>
    <trkpt lat="56.336742" lon="60.831093">
        <ele>268.2</ele>
        <time>1970-01-01T11:08:56.145Z</time>
    </trkpt>
    <trkpt lat="56.336722" lon="60.831127">
        <ele>268.2</ele>
        <time>1970-01-01T11:08:57.145Z</time>
    </trkpt>
    <trkpt lat="56.33671" lon="60.831144">
        <ele>268.3</ele>
        <time>1970-01-01T11:08:58.145Z</time>
    </trkpt>
    <trkpt lat="56.336687" lon="60.831202">
        <ele>268.3</ele>
        <time>1970-01-01T11:08:59.145Z</time>
    </trkpt>
    <trkpt lat="56.336673" lon="60.831218">
        <ele>268.3</ele>
        <time>1970-01-01T11:09:00.145Z</time>
    </trkpt>
    <trkpt lat="56.33664" lon="60.831251">
        <ele>268.4</ele>
        <time>1970-01-01T11:09:01.145Z</time>
    </trkpt>
    <trkpt lat="56.336621" lon="60.831288">
        <ele>268.4</ele>
        <time>1970-01-01T11:09:02.145Z</time>
    </trkpt>
    <trkpt lat="56.336592" lon="60.831315">
        <ele>268.4</ele>
        <time>1970-01-01T11:09:03.145Z</time>
    </trkpt>
    <trkpt lat="56.336572" lon="60.831354">
        <ele>268.5</ele>
        <time>1970-01-01T11:09:04.145Z</time>
    </trkpt>
    <trkpt lat="56.336545" lon="60.831394">
        <ele>268.5</ele>
        <time>1970-01-01T11:09:05.145Z</time>
    </trkpt>
    <trkpt lat="56.336517" lon="60.831444">
        <ele>268.5</ele>
        <time>1970-01-01T11:09:06.145Z</time>
    </trkpt>
    <trkpt lat="56.336507" lon="60.831457">
        <ele>268.5</ele>
        <time>1970-01-01T11:09:07.145Z</time>
    </trkpt>
    <trkpt lat="56.336472" lon="60.831492">
        <ele>268.6</ele>
        <time>1970-01-01T11:09:08.145Z</time>
    </trkpt>
    <trkpt lat="56.336446" lon="60.831523">
        <ele>268.6</ele>
        <time>1970-01-01T11:09:09.145Z</time>
    </trkpt>
    <trkpt lat="56.336432" lon="60.831537">
        <ele>268.6</ele>
        <time>1970-01-01T11:09:10.145Z</time>
    </trkpt>
    <trkpt lat="56.336398" lon="60.831576">
        <ele>268.7</ele>
        <time>1970-01-01T11:09:11.145Z</time>
    </trkpt>
    <trkpt lat="56.336384" lon="60.831592">
        <ele>268.7</ele>
        <time>1970-01-01T11:09:12.145Z</time>
    </trkpt>
    <trkpt lat="56.336352" lon="60.831635">
        <ele>268.8</ele>
        <time>1970-01-01T11:09:13.145Z</time>
    </trkpt>
    <trkpt lat="56.33634" lon="60.831646">
        <ele>268.8</ele>
        <time>1970-01-01T11:09:14.145Z</time>
    </trkpt>
    <trkpt lat="56.336305" lon="60.831679">
        <ele>268.8</ele>
        <time>1970-01-01T11:09:15.145Z</time>
    </trkpt>
    <trkpt lat="56.336282" lon="60.831712">
        <ele>268.8</ele>
        <time>1970-01-01T11:09:16.145Z</time>
    </trkpt>
    <trkpt lat="56.336253" lon="60.831735">
        <ele>268.9</ele>
        <time>1970-01-01T11:09:17.145Z</time>
    </trkpt>
    <trkpt lat="56.336223" lon="60.831756">
        <ele>268.9</ele>
        <time>1970-01-01T11:09:18.145Z</time>
    </trkpt>
    <trkpt lat="56.336198" lon="60.831779">
        <ele>268.9</ele>
        <time>1970-01-01T11:09:19.145Z</time>
    </trkpt>
    <trkpt lat="56.336171" lon="60.831809">
        <ele>269.0</ele>
        <time>1970-01-01T11:09:20.145Z</time>
    </trkpt>
    <trkpt lat="56.336136" lon="60.831822">
        <ele>269.0</ele>
        <time>1970-01-01T11:09:21.145Z</time>
    </trkpt>
    <trkpt lat="56.336101" lon="60.831846">
        <ele>269.1</ele>
        <time>1970-01-01T11:09:22.145Z</time>
    </trkpt>
    <trkpt lat="56.336068" lon="60.831892">
        <ele>269.1</ele>
        <time>1970-01-01T11:09:23.145Z</time>
    </trkpt>
    <trkpt lat="56.336045" lon="60.831926">
        <ele>269.1</ele>
        <time>1970-01-01T11:09:24.145Z</time>
    </trkpt>
    <trkpt lat="56.33602" lon="60.831961">
        <ele>269.2</ele>
        <time>1970-01-01T11:09:25.145Z</time>
    </trkpt>
    <trkpt lat="56.336004" lon="60.83197">
        <ele>269.2</ele>
        <time>1970-01-01T11:09:26.145Z</time>
    </trkpt>
    <trkpt lat="56.335969" lon="60.831987">
        <ele>269.2</ele>
        <time>1970-01-01T11:09:27.145Z</time>
    </trkpt>
    <trkpt lat="56.335938" lon="60.83201">
        <ele>269.3</ele>
        <time>1970-01-01T11:09:28.145Z</time>
    </trkpt>
    <trkpt lat="56.335912" lon="60.832038">
        <ele>269.3</ele>
        <time>1970-01-01T11:09:29.145Z</time>
    </trkpt>
    <trkpt lat="56.335886" lon="60.832073">
        <ele>269.3</ele>
        <time>1970-01-01T11:09:30.145Z</time>
    </trkpt>
    <trkpt lat="56.335862" lon="60.832102">
        <ele>269.4</ele>
        <time>1970-01-01T11:09:31.145Z</time>
    </trkpt>
    <trkpt lat="56.335837" lon="60.832144">
        <ele>269.4</ele>
        <time>1970-01-01T11:09:32.145Z</time>
    </trkpt>
    <trkpt lat="56.335825" lon="60.832158">
        <ele>269.4</ele>
        <time>1970-01-01T11:09:33.145Z</time>
    </trkpt>
    <trkpt lat="56.335799" lon="60.832213">
        <ele>269.5</ele>
        <time>1970-01-01T11:09:34.145Z</time>
    </trkpt>
    <trkpt lat="56.335777" lon="60.832243">
        <ele>269.5</ele>
        <time>1970-01-01T11:09:35.145Z</time>
    </trkpt>
    <trkpt lat="56.335746" lon="60.832255">
        <ele>269.5</ele>
        <time>1970-01-01T11:09:36.145Z</time>
    </trkpt>
    <trkpt lat="56.33571" lon="60.832264">
        <ele>269.6</ele>
        <time>1970-01-01T11:09:37.145Z</time>
    </trkpt>
    <trkpt lat="56.335671" lon="60.832282">
        <ele>269.6</ele>
        <time>1970-01-01T11:09:38.145Z</time>
    </trkpt>
    <trkpt lat="56.335625" lon="60.832291">
        <ele>269.7</ele>
        <time>1970-01-01T11:09:39.145Z</time>
    </trkpt>
    <trkpt lat="56.335581" lon="60.832291">
        <ele>269.7</ele>
        <time>1970-01-01T11:09:40.145Z</time>
    </trkpt>
    <trkpt lat="56.335529" lon="60.832273">
        <ele>269.8</ele>
        <time>1970-01-01T11:09:41.145Z</time>
    </trkpt>
    <trkpt lat="56.335477" lon="60.832253">
        <ele>269.8</ele>
        <time>1970-01-01T11:09:42.145Z</time>
    </trkpt>
    <trkpt lat="56.335414" lon="60.832233">
        <ele>269.9</ele>
        <time>1970-01-01T11:09:43.145Z</time>
    </trkpt>
    <trkpt lat="56.335358" lon="60.832216">
        <ele>270.0</ele>
        <time>1970-01-01T11:09:44.145Z</time>
    </trkpt>
    <trkpt lat="56.335306" lon="60.832201">
        <ele>270.0</ele>
        <time>1970-01-01T11:09:45.145Z</time>
    </trkpt>
    <trkpt lat="56.335251" lon="60.832187">
        <ele>270.1</ele>
        <time>1970-01-01T11:09:46.145Z</time>
    </trkpt>
    <trkpt lat="56.335193" lon="60.832162">
        <ele>270.2</ele>
        <time>1970-01-01T11:09:47.145Z</time>
    </trkpt>
    <trkpt lat="56.33515" lon="60.832152">
        <ele>270.2</ele>
        <time>1970-01-01T11:09:48.145Z</time>
    </trkpt>
    <trkpt lat="56.335106" lon="60.832129">
        <ele>270.3</ele>
        <time>1970-01-01T11:09:49.145Z</time>
    </trkpt>
    <trkpt lat="56.335081" lon="60.832082">
        <ele>270.3</ele>
        <time>1970-01-01T11:09:50.145Z</time>
    </trkpt>
    <trkpt lat="56.335055" lon="60.832065">
        <ele>270.3</ele>
        <time>1970-01-01T11:09:51.145Z</time>
    </trkpt>
    <trkpt lat="56.335025" lon="60.832036">
        <ele>270.4</ele>
        <time>1970-01-01T11:09:52.145Z</time>
    </trkpt>
    <trkpt lat="56.334986" lon="60.832005">
        <ele>270.4</ele>
        <time>1970-01-01T11:09:53.145Z</time>
    </trkpt>
    <trkpt lat="56.334951" lon="60.831965">
        <ele>270.5</ele>
        <time>1970-01-01T11:09:54.145Z</time>
    </trkpt>
    <trkpt lat="56.334916" lon="60.831942">
        <ele>270.5</ele>
        <time>1970-01-01T11:09:55.145Z</time>
    </trkpt>
    <trkpt lat="56.334877" lon="60.831935">
        <ele>270.5</ele>
        <time>1970-01-01T11:09:56.145Z</time>
    </trkpt>
    <trkpt lat="56.334838" lon="60.831907">
        <ele>270.6</ele>
        <time>1970-01-01T11:09:57.145Z</time>
    </trkpt>
    <trkpt lat="56.334818" lon="60.831902">
        <ele>270.6</ele>
        <time>1970-01-01T11:09:58.145Z</time>
    </trkpt>
    <trkpt lat="56.334778" lon="60.831887">
        <ele>270.7</ele>
        <time>1970-01-01T11:09:59.145Z</time>
    </trkpt>
    <trkpt lat="56.33477" lon="60.831877">
        <ele>270.7</ele>
        <time>1970-01-01T11:10:00.145Z</time>
    </trkpt>
    <trkpt lat="56.334744" lon="60.831858">
        <ele>270.7</ele>
        <time>1970-01-01T11:10:01.145Z</time>
    </trkpt>
    <trkpt lat="56.334731" lon="60.831855">
        <ele>270.7</ele>
        <time>1970-01-01T11:10:02.145Z</time>
    </trkpt>
    <trkpt lat="56.334691" lon="60.83182">
        <ele>270.8</ele>
        <time>1970-01-01T11:10:07.145Z</time>
    </trkpt>
    <trkpt lat="56.33469" lon="60.831823">
        <ele>270.8</ele>
        <time>1970-01-01T11:10:08.145Z</time>
    </trkpt>
    <trkpt lat="56.334682" lon="60.831819">
        <ele>270.8</ele>
        <time>1970-01-01T11:10:09.145Z</time>
    </trkpt>
    <trkpt lat="56.334677" lon="60.831819">
        <ele>270.8</ele>
        <time>1970-01-01T11:10:10.145Z</time>
    </trkpt>
    <trkpt lat="56.334669" lon="60.831817">
        <ele>270.8</ele>
        <time>1970-01-01T11:10:11.145Z</time>
    </trkpt>
    <trkpt lat="56.334662" lon="60.831812">
        <ele>270.8</ele>
        <time>1970-01-01T11:10:12.145Z</time>
    </trkpt>
    <trkpt lat="56.334656" lon="60.831809">
        <ele>270.8</ele>
        <time>1970-01-01T11:10:13.145Z</time>
    </trkpt>
    <trkpt lat="56.334649" lon="60.831797">
        <ele>270.8</ele>
        <time>1970-01-01T11:10:14.145Z</time>
    </trkpt>
    <trkpt lat="56.334639" lon="60.831791">
        <ele>270.8</ele>
        <time>1970-01-01T11:10:15.145Z</time>
    </trkpt>
    <trkpt lat="56.33463" lon="60.831784">
        <ele>270.8</ele>
        <time>1970-01-01T11:10:16.145Z</time>
    </trkpt>
    <trkpt lat="56.334621" lon="60.831778">
        <ele>270.8</ele>
        <time>1970-01-01T11:10:17.145Z</time>
    </trkpt>
    <trkpt lat="56.334612" lon="60.831772">
        <ele>270.9</ele>
        <time>1970-01-01T11:10:18.145Z</time>
    </trkpt>
    <trkpt lat="56.334603" lon="60.831766">
        <ele>270.9</ele>
        <time>1970-01-01T11:10:19.145Z</time>
    </trkpt>
    <trkpt lat="56.334579" lon="60.831744">
        <ele>270.9</ele>
        <time>1970-01-01T11:10:20.145Z</time>
    </trkpt>
    <trkpt lat="56.33457" lon="60.831734">
        <ele>270.9</ele>
        <time>1970-01-01T11:10:21.145Z</time>
    </trkpt>
    <trkpt lat="56.334538" lon="60.8317">
        <ele>271.0</ele>
        <time>1970-01-01T11:10:22.145Z</time>
    </trkpt>
    <trkpt lat="56.334526" lon="60.831697">
        <ele>271.0</ele>
        <time>1970-01-01T11:10:23.145Z</time>
    </trkpt>
    <trkpt lat="56.334514" lon="60.831693">
        <ele>271.0</ele>
        <time>1970-01-01T11:10:29.145Z</time>
    </trkpt>
    <trkpt lat="56.334502" lon="60.831689">
        <ele>271.0</ele>
        <time>1970-01-01T11:10:30.145Z</time>
    </trkpt>
    <trkpt lat="56.33449" lon="60.831686">
        <ele>271.0</ele>
        <time>1970-01-01T11:10:31.145Z</time>
    </trkpt>
    <trkpt lat="56.334478" lon="60.831682">
        <ele>271.0</ele>
        <time>1970-01-01T11:10:32.145Z</time>
    </trkpt>
    <trkpt lat="56.334466" lon="60.831679">
        <ele>271.0</ele>
        <time>1970-01-01T11:10:33.145Z</time>
    </trkpt>
    <trkpt lat="56.334454" lon="60.831675">
        <ele>271.0</ele>
        <time>1970-01-01T11:10:34.145Z</time>
    </trkpt>
    <trkpt lat="56.334442" lon="60.831671">
        <ele>271.1</ele>
        <time>1970-01-01T11:10:35.145Z</time>
    </trkpt>
    <trkpt lat="56.33443" lon="60.831668">
        <ele>271.1</ele>
        <time>1970-01-01T11:10:36.145Z</time>
    </trkpt>
    <trkpt lat="56.334418" lon="60.831664">
        <ele>271.1</ele>
        <time>1970-01-01T11:10:37.145Z</time>
    </trkpt>
    <trkpt lat="56.33439" lon="60.831664">
        <ele>271.1</ele>
        <time>1970-01-01T11:10:38.145Z</time>
    </trkpt>
    <trkpt lat="56.334382" lon="60.831654">
        <ele>271.1</ele>
        <time>1970-01-01T11:10:39.145Z</time>
    </trkpt>
    <trkpt lat="56.334364" lon="60.831641">
        <ele>271.1</ele>
        <time>1970-01-01T11:10:40.145Z</time>
    </trkpt>
    <trkpt lat="56.334353" lon="60.831637">
        <ele>271.2</ele>
        <time>1970-01-01T11:10:41.145Z</time>
    </trkpt>
    <trkpt lat="56.334327" lon="60.831607">
        <ele>271.2</ele>
        <time>1970-01-01T11:10:42.145Z</time>
    </trkpt>
    <trkpt lat="56.334303" lon="60.831599">
        <ele>271.2</ele>
        <time>1970-01-01T11:10:43.145Z</time>
    </trkpt>
    <trkpt lat="56.334294" lon="60.831584">
        <ele>271.2</ele>
        <time>1970-01-01T11:10:44.145Z</time>
    </trkpt>
    <trkpt lat="56.334284" lon="60.831589">
        <ele>271.2</ele>
        <time>1970-01-01T11:10:45.145Z</time>
    </trkpt>
    <trkpt lat="56.33426" lon="60.831592">
        <ele>271.3</ele>
        <time>1970-01-01T11:10:46.145Z</time>
    </trkpt>
    <trkpt lat="56.334242" lon="60.831598">
        <ele>271.3</ele>
        <time>1970-01-01T11:10:47.145Z</time>
    </trkpt>
    <trkpt lat="56.334232" lon="60.831588">
        <ele>271.3</ele>
        <time>1970-01-01T11:10:48.145Z</time>
    </trkpt>
    <trkpt lat="56.334214" lon="60.831596">
        <ele>271.3</ele>
        <time>1970-01-01T11:10:49.145Z</time>
    </trkpt>
    <trkpt lat="56.334186" lon="60.831608">
        <ele>271.4</ele>
        <time>1970-01-01T11:10:50.145Z</time>
    </trkpt>
    <trkpt lat="56.334171" lon="60.83161">
        <ele>271.4</ele>
        <time>1970-01-01T11:10:51.145Z</time>
    </trkpt>
    <trkpt lat="56.334141" lon="60.831613">
        <ele>271.4</ele>
        <time>1970-01-01T11:10:52.145Z</time>
    </trkpt>
    <trkpt lat="56.334127" lon="60.831614">
        <ele>271.4</ele>
        <time>1970-01-01T11:10:53.145Z</time>
    </trkpt>
    <trkpt lat="56.334092" lon="60.831607">
        <ele>271.5</ele>
        <time>1970-01-01T11:10:54.145Z</time>
    </trkpt>
    <trkpt lat="56.334065" lon="60.831586">
        <ele>271.5</ele>
        <time>1970-01-01T11:10:55.145Z</time>
    </trkpt>
    <trkpt lat="56.334042" lon="60.831579">
        <ele>271.5</ele>
        <time>1970-01-01T11:10:56.145Z</time>
    </trkpt>
    <trkpt lat="56.33403" lon="60.831585">
        <ele>271.5</ele>
        <time>1970-01-01T11:10:57.145Z</time>
    </trkpt>
    <trkpt lat="56.334021" lon="60.831578">
        <ele>271.5</ele>
        <time>1970-01-01T11:10:58.145Z</time>
    </trkpt>
    <trkpt lat="56.334012" lon="60.831572">
        <ele>271.6</ele>
        <time>1970-01-01T11:10:59.145Z</time>
    </trkpt>
    <trkpt lat="56.333982" lon="60.831549">
        <ele>271.6</ele>
        <time>1970-01-01T11:11:00.145Z</time>
    </trkpt>
    <trkpt lat="56.333972" lon="60.831544">
        <ele>271.6</ele>
        <time>1970-01-01T11:11:01.145Z</time>
    </trkpt>
    <trkpt lat="56.33394" lon="60.831544">
        <ele>271.6</ele>
        <time>1970-01-01T11:11:02.145Z</time>
    </trkpt>
    <trkpt lat="56.333927" lon="60.831543">
        <ele>271.7</ele>
        <time>1970-01-01T11:11:03.145Z</time>
    </trkpt>
    <trkpt lat="56.33389" lon="60.831544">
        <ele>271.7</ele>
        <time>1970-01-01T11:11:04.145Z</time>
    </trkpt>
    <trkpt lat="56.333859" lon="60.831532">
        <ele>271.7</ele>
        <time>1970-01-01T11:11:05.145Z</time>
    </trkpt>
    <trkpt lat="56.333819" lon="60.831501">
        <ele>271.8</ele>
        <time>1970-01-01T11:11:06.145Z</time>
    </trkpt>
    <trkpt lat="56.333782" lon="60.831468">
        <ele>271.8</ele>
        <time>1970-01-01T11:11:07.145Z</time>
    </trkpt>
    <trkpt lat="56.333752" lon="60.831447">
        <ele>271.9</ele>
        <time>1970-01-01T11:11:08.145Z</time>
    </trkpt>
    <trkpt lat="56.333723" lon="60.831417">
        <ele>271.9</ele>
        <time>1970-01-01T11:11:09.145Z</time>
    </trkpt>
    <trkpt lat="56.333685" lon="60.831394">
        <ele>271.9</ele>
        <time>1970-01-01T11:11:10.145Z</time>
    </trkpt>
    <trkpt lat="56.333672" lon="60.831383">
        <ele>272.0</ele>
        <time>1970-01-01T11:11:11.145Z</time>
    </trkpt>
    <trkpt lat="56.333643" lon="60.831352">
        <ele>272.0</ele>
        <time>1970-01-01T11:11:12.145Z</time>
    </trkpt>
    <trkpt lat="56.333634" lon="60.831351">
        <ele>272.0</ele>
        <time>1970-01-01T11:11:13.145Z</time>
    </trkpt>
    <trkpt lat="56.333603" lon="60.831342">
        <ele>272.0</ele>
        <time>1970-01-01T11:11:14.145Z</time>
    </trkpt>
    <trkpt lat="56.333579" lon="60.831321">
        <ele>272.1</ele>
        <time>1970-01-01T11:11:15.145Z</time>
    </trkpt>
    <trkpt lat="56.333565" lon="60.83131">
        <ele>272.1</ele>
        <time>1970-01-01T11:11:16.145Z</time>
    </trkpt>
    <trkpt lat="56.333532" lon="60.831298">
        <ele>272.1</ele>
        <time>1970-01-01T11:11:17.145Z</time>
    </trkpt>
    <trkpt lat="56.333525" lon="60.831295">
        <ele>272.1</ele>
        <time>1970-01-01T11:11:18.145Z</time>
    </trkpt>
    <trkpt lat="56.333496" lon="60.831284">
        <ele>272.2</ele>
        <time>1970-01-01T11:11:19.145Z</time>
    </trkpt>
    <trkpt lat="56.333485" lon="60.831281">
        <ele>272.2</ele>
        <time>1970-01-01T11:11:20.145Z</time>
    </trkpt>
    <trkpt lat="56.333459" lon="60.831263">
        <ele>272.2</ele>
        <time>1970-01-01T11:11:21.145Z</time>
    </trkpt>
    <trkpt lat="56.333452" lon="60.831252">
        <ele>272.2</ele>
        <time>1970-01-01T11:11:22.145Z</time>
    </trkpt>
    <trkpt lat="56.333425" lon="60.831217">
        <ele>272.3</ele>
        <time>1970-01-01T11:11:23.145Z</time>
    </trkpt>
    <trkpt lat="56.333413" lon="60.831206">
        <ele>272.3</ele>
        <time>1970-01-01T11:11:24.145Z</time>
    </trkpt>
    <trkpt lat="56.333391" lon="60.831188">
        <ele>272.3</ele>
        <time>1970-01-01T11:11:25.145Z</time>
    </trkpt>
    <trkpt lat="56.333344" lon="60.83114">
        <ele>272.4</ele>
        <time>1970-01-01T11:11:28.145Z</time>
    </trkpt>
    <trkpt lat="56.333338" lon="60.83114">
        <ele>272.4</ele>
        <time>1970-01-01T11:11:29.145Z</time>
    </trkpt>
    <trkpt lat="56.333335" lon="60.831134">
        <ele>272.4</ele>
        <time>1970-01-01T11:11:30.145Z</time>
    </trkpt>
    <trkpt lat="56.333328" lon="60.831131">
        <ele>272.4</ele>
        <time>1970-01-01T11:11:31.145Z</time>
    </trkpt>
    <trkpt lat="56.333319" lon="60.831126">
        <ele>272.4</ele>
        <time>1970-01-01T11:11:32.145Z</time>
    </trkpt>
    <trkpt lat="56.333312" lon="60.831118">
        <ele>272.4</ele>
        <time>1970-01-01T11:11:33.145Z</time>
    </trkpt>
    <trkpt lat="56.333308" lon="60.831109">
        <ele>272.4</ele>
        <time>1970-01-01T11:11:34.145Z</time>
    </trkpt>
    <trkpt lat="56.333298" lon="60.831105">
        <ele>272.4</ele>
        <time>1970-01-01T11:11:35.145Z</time>
    </trkpt>
    <trkpt lat="56.333291" lon="60.831099">
        <ele>272.4</ele>
        <time>1970-01-01T11:11:36.145Z</time>
    </trkpt>
    <trkpt lat="56.333283" lon="60.831088">
        <ele>272.4</ele>
        <time>1970-01-01T11:11:37.145Z</time>
    </trkpt>
    <trkpt lat="56.333279" lon="60.831082">
        <ele>272.4</ele>
        <time>1970-01-01T11:11:38.145Z</time>
    </trkpt>
    <trkpt lat="56.333273" lon="60.831082">
        <ele>272.4</ele>
        <time>1970-01-01T11:11:39.145Z</time>
    </trkpt>
    <trkpt lat="56.333266" lon="60.831075">
        <ele>272.5</ele>
        <time>1970-01-01T11:11:40.145Z</time>
    </trkpt>
    <trkpt lat="56.333238" lon="60.831047">
        <ele>272.5</ele>
        <time>1970-01-01T11:11:41.145Z</time>
    </trkpt>
    <trkpt lat="56.333229" lon="60.831031">
        <ele>272.5</ele>
        <time>1970-01-01T11:11:42.145Z</time>
    </trkpt>
    <trkpt lat="56.333196" lon="60.830997">
        <ele>272.5</ele>
        <time>1970-01-01T11:11:43.145Z</time>
    </trkpt>
    <trkpt lat="56.333172" lon="60.830947">
        <ele>272.6</ele>
        <time>1970-01-01T11:11:44.145Z</time>
    </trkpt>
    <trkpt lat="56.333144" lon="60.830913">
        <ele>272.6</ele>
        <time>1970-01-01T11:11:45.145Z</time>
    </trkpt>
    <trkpt lat="56.333127" lon="60.830869">
        <ele>272.7</ele>
        <time>1970-01-01T11:11:46.145Z</time>
    </trkpt>
    <trkpt lat="56.333116" lon="60.830817">
        <ele>272.7</ele>
        <time>1970-01-01T11:11:47.145Z</time>
    </trkpt>
    <trkpt lat="56.333104" lon="60.830769">
        <ele>272.7</ele>
        <time>1970-01-01T11:11:48.145Z</time>
    </trkpt>
    <trkpt lat="56.33309" lon="60.830714">
        <ele>272.8</ele>
        <time>1970-01-01T11:11:49.145Z</time>
    </trkpt>
    <trkpt lat="56.333073" lon="60.830669">
        <ele>272.8</ele>
        <time>1970-01-01T11:11:50.145Z</time>
    </trkpt>
    <trkpt lat="56.333066" lon="60.830644">
        <ele>272.8</ele>
        <time>1970-01-01T11:11:51.145Z</time>
    </trkpt>
    <trkpt lat="56.333051" lon="60.830578">
        <ele>272.9</ele>
        <time>1970-01-01T11:11:52.145Z</time>
    </trkpt>
    <trkpt lat="56.333038" lon="60.830528">
        <ele>272.9</ele>
        <time>1970-01-01T11:11:53.145Z</time>
    </trkpt>
    <trkpt lat="56.333029" lon="60.830499">
        <ele>272.9</ele>
        <time>1970-01-01T11:11:54.145Z</time>
    </trkpt>
    <trkpt lat="56.333011" lon="60.830429">
        <ele>273.0</ele>
        <time>1970-01-01T11:11:55.145Z</time>
    </trkpt>
    <trkpt lat="56.332991" lon="60.830383">
        <ele>273.0</ele>
        <time>1970-01-01T11:11:56.145Z</time>
    </trkpt>
    <trkpt lat="56.332976" lon="60.830337">
        <ele>273.0</ele>
        <time>1970-01-01T11:11:57.145Z</time>
    </trkpt>
    <trkpt lat="56.332963" lon="60.830289">
        <ele>273.1</ele>
        <time>1970-01-01T11:11:58.145Z</time>
    </trkpt>
    <trkpt lat="56.332952" lon="60.830255">
        <ele>273.1</ele>
        <time>1970-01-01T11:11:59.145Z</time>
    </trkpt>
    <trkpt lat="56.332929" lon="60.8302">
        <ele>273.1</ele>
        <time>1970-01-01T11:12:00.145Z</time>
    </trkpt>
    <trkpt lat="56.332922" lon="60.830175">
        <ele>273.1</ele>
        <time>1970-01-01T11:12:01.145Z</time>
    </trkpt>
    <trkpt lat="56.332897" lon="60.830124">
        <ele>273.2</ele>
        <time>1970-01-01T11:12:02.145Z</time>
    </trkpt>
    <trkpt lat="56.332879" lon="60.830077">
        <ele>273.2</ele>
        <time>1970-01-01T11:12:03.145Z</time>
    </trkpt>
    <trkpt lat="56.33285" lon="60.830026">
        <ele>273.3</ele>
        <time>1970-01-01T11:12:04.145Z</time>
    </trkpt>
    <trkpt lat="56.332837" lon="60.830009">
        <ele>273.3</ele>
        <time>1970-01-01T11:12:05.145Z</time>
    </trkpt>
    <trkpt lat="56.332802" lon="60.829972">
        <ele>273.3</ele>
        <time>1970-01-01T11:12:06.145Z</time>
    </trkpt>
    <trkpt lat="56.33279" lon="60.829965">
        <ele>273.3</ele>
        <time>1970-01-01T11:12:07.145Z</time>
    </trkpt>
    <trkpt lat="56.332766" lon="60.829959">
        <ele>273.4</ele>
        <time>1970-01-01T11:12:08.145Z</time>
    </trkpt>
    <trkpt lat="56.332747" lon="60.829963">
        <ele>273.4</ele>
        <time>1970-01-01T11:12:09.145Z</time>
    </trkpt>
    <trkpt lat="56.33273" lon="60.829963">
        <ele>273.4</ele>
        <time>1970-01-01T11:12:10.145Z</time>
    </trkpt>
    <trkpt lat="56.332723" lon="60.82997">
        <ele>273.4</ele>
        <time>1970-01-01T11:12:11.145Z</time>
    </trkpt>
    <trkpt lat="56.33269" lon="60.829985">
        <ele>273.5</ele>
        <time>1970-01-01T11:12:12.145Z</time>
    </trkpt>
    <trkpt lat="56.332669" lon="60.829995">
        <ele>273.5</ele>
        <time>1970-01-01T11:12:13.145Z</time>
    </trkpt>
    <trkpt lat="56.332654" lon="60.829986">
        <ele>273.5</ele>
        <time>1970-01-01T11:12:14.145Z</time>
    </trkpt>
    <trkpt lat="56.332627" lon="60.829983">
        <ele>273.5</ele>
        <time>1970-01-01T11:12:15.145Z</time>
    </trkpt>
    <trkpt lat="56.332596" lon="60.829983">
        <ele>273.6</ele>
        <time>1970-01-01T11:12:16.145Z</time>
    </trkpt>
    <trkpt lat="56.332563" lon="60.82998">
        <ele>273.6</ele>
        <time>1970-01-01T11:12:17.145Z</time>
    </trkpt>
    <trkpt lat="56.332553" lon="60.829977">
        <ele>273.6</ele>
        <time>1970-01-01T11:12:18.145Z</time>
    </trkpt>
    <trkpt lat="56.332518" lon="60.829979">
        <ele>273.6</ele>
        <time>1970-01-01T11:12:19.145Z</time>
    </trkpt>
    <trkpt lat="56.332501" lon="60.829973">
        <ele>273.7</ele>
        <time>1970-01-01T11:12:20.145Z</time>
    </trkpt>
    <trkpt lat="56.33249" lon="60.829979">
        <ele>273.7</ele>
        <time>1970-01-01T11:12:21.145Z</time>
    </trkpt>
    <trkpt lat="56.33248" lon="60.829968">
        <ele>273.7</ele>
        <time>1970-01-01T11:12:22.145Z</time>
    </trkpt>
    <trkpt lat="56.33247" lon="60.829966">
        <ele>273.7</ele>
        <time>1970-01-01T11:12:23.145Z</time>
    </trkpt>
    <trkpt lat="56.332407" lon="60.829954">
        <ele>273.8</ele>
        <time>1970-01-01T11:12:31.145Z</time>
    </trkpt>
    <trkpt lat="56.332407" lon="60.829949">
        <ele>273.8</ele>
        <time>1970-01-01T11:12:32.145Z</time>
    </trkpt>
    <trkpt lat="56.332408" lon="60.829949">
        <ele>273.8</ele>
        <time>1970-01-01T11:12:33.145Z</time>
    </trkpt>
    <trkpt lat="56.332401" lon="60.829949">
        <ele>273.8</ele>
        <time>1970-01-01T11:12:34.145Z</time>
    </trkpt>
    <trkpt lat="56.332391" lon="60.829929">
        <ele>273.8</ele>
        <time>1970-01-01T11:12:35.145Z</time>
    </trkpt>
    <trkpt lat="56.33239" lon="60.829928">
        <ele>273.8</ele>
        <time>1970-01-01T11:12:36.145Z</time>
    </trkpt>
    <trkpt lat="56.332384" lon="60.829914">
        <ele>273.8</ele>
        <time>1970-01-01T11:12:37.145Z</time>
    </trkpt>
    <trkpt lat="56.332375" lon="60.829901">
        <ele>273.8</ele>
        <time>1970-01-01T11:12:38.145Z</time>
    </trkpt>
    <trkpt lat="56.332367" lon="60.829902">
        <ele>273.8</ele>
        <time>1970-01-01T11:12:39.145Z</time>
    </trkpt>
    <trkpt lat="56.332359" lon="60.829891">
        <ele>273.8</ele>
        <time>1970-01-01T11:12:40.145Z</time>
    </trkpt>
    <trkpt lat="56.332347" lon="60.829875">
        <ele>273.9</ele>
        <time>1970-01-01T11:12:41.145Z</time>
    </trkpt>
    <trkpt lat="56.332341" lon="60.82987">
        <ele>273.9</ele>
        <time>1970-01-01T11:12:42.145Z</time>
    </trkpt>
    <trkpt lat="56.332332" lon="60.829855">
        <ele>273.9</ele>
        <time>1970-01-01T11:12:43.145Z</time>
    </trkpt>
    <trkpt lat="56.332316" lon="60.829837">
        <ele>273.9</ele>
        <time>1970-01-01T11:12:44.145Z</time>
    </trkpt>
    <trkpt lat="56.332301" lon="60.82984">
        <ele>273.9</ele>
        <time>1970-01-01T11:12:45.145Z</time>
    </trkpt>
    <trkpt lat="56.332268" lon="60.829837">
        <ele>274.0</ele>
        <time>1970-01-01T11:12:46.145Z</time>
    </trkpt>
    <trkpt lat="56.332259" lon="60.82983">
        <ele>274.0</ele>
        <time>1970-01-01T11:12:47.145Z</time>
    </trkpt>
    <trkpt lat="56.332235" lon="60.829802">
        <ele>274.0</ele>
        <time>1970-01-01T11:12:48.145Z</time>
    </trkpt>
    <trkpt lat="56.332223" lon="60.829797">
        <ele>274.0</ele>
        <time>1970-01-01T11:12:49.145Z</time>
    </trkpt>
    <trkpt lat="56.33219" lon="60.829789">
        <ele>274.1</ele>
        <time>1970-01-01T11:12:50.145Z</time>
    </trkpt>
    <trkpt lat="56.332175" lon="60.829788">
        <ele>274.1</ele>
        <time>1970-01-01T11:12:51.145Z</time>
    </trkpt>
    <trkpt lat="56.332141" lon="60.829791">
        <ele>274.1</ele>
        <time>1970-01-01T11:12:52.145Z</time>
    </trkpt>
    <trkpt lat="56.332131" lon="60.829786">
        <ele>274.1</ele>
        <time>1970-01-01T11:12:53.145Z</time>
    </trkpt>
    <trkpt lat="56.332096" lon="60.829786">
        <ele>274.2</ele>
        <time>1970-01-01T11:12:54.145Z</time>
    </trkpt>
    <trkpt lat="56.332088" lon="60.829793">
        <ele>274.2</ele>
        <time>1970-01-01T11:12:55.145Z</time>
    </trkpt>
    <trkpt lat="56.332055" lon="60.829799">
        <ele>274.2</ele>
        <time>1970-01-01T11:12:56.145Z</time>
    </trkpt>
    <trkpt lat="56.332037" lon="60.829804">
        <ele>274.2</ele>
        <time>1970-01-01T11:12:57.145Z</time>
    </trkpt>
    <trkpt lat="56.332019" lon="60.829804">
        <ele>274.2</ele>
        <time>1970-01-01T11:12:58.145Z</time>
    </trkpt>
    <trkpt lat="56.332004" lon="60.829804">
        <ele>274.3</ele>
        <time>1970-01-01T11:12:59.145Z</time>
    </trkpt>
    <trkpt lat="56.331984" lon="60.829799">
        <ele>274.3</ele>
        <time>1970-01-01T11:13:00.145Z</time>
    </trkpt>
    <trkpt lat="56.331972" lon="60.829799">
        <ele>274.3</ele>
        <time>1970-01-01T11:13:01.145Z</time>
    </trkpt>
    <trkpt lat="56.331947" lon="60.8298">
        <ele>274.3</ele>
        <time>1970-01-01T11:13:02.145Z</time>
    </trkpt>
    <trkpt lat="56.331938" lon="60.829796">
        <ele>274.3</ele>
        <time>1970-01-01T11:13:03.145Z</time>
    </trkpt>
    <trkpt lat="56.331929" lon="60.829793">
        <ele>274.3</ele>
        <time>1970-01-01T11:13:04.145Z</time>
    </trkpt>
    <trkpt lat="56.331919" lon="60.829789">
        <ele>274.4</ele>
        <time>1970-01-01T11:16:53.145Z</time>
    </trkpt>
    <trkpt lat="56.33191" lon="60.829786">
        <ele>274.4</ele>
        <time>1970-01-01T11:16:54.145Z</time>
    </trkpt>
    <trkpt lat="56.331901" lon="60.829782">
        <ele>274.4</ele>
        <time>1970-01-01T11:16:55.145Z</time>
    </trkpt>
    <trkpt lat="56.331892" lon="60.829779">
        <ele>274.4</ele>
        <time>1970-01-01T11:16:56.145Z</time>
    </trkpt>
    <trkpt lat="56.331883" lon="60.829775">
        <ele>274.4</ele>
        <time>1970-01-01T11:16:57.145Z</time>
    </trkpt>
    <trkpt lat="56.331874" lon="60.829771">
        <ele>274.4</ele>
        <time>1970-01-01T11:16:58.145Z</time>
    </trkpt>
    <trkpt lat="56.331864" lon="60.829768">
        <ele>274.4</ele>
        <time>1970-01-01T11:16:59.145Z</time>
    </trkpt>
    <trkpt lat="56.331855" lon="60.829764">
        <ele>274.4</ele>
        <time>1970-01-01T11:17:00.145Z</time>
    </trkpt>
    <trkpt lat="56.331846" lon="60.829761">
        <ele>274.4</ele>
        <time>1970-01-01T11:17:01.145Z</time>
    </trkpt>
    <trkpt lat="56.331837" lon="60.829757">
        <ele>274.4</ele>
        <time>1970-01-01T11:17:02.145Z</time>
    </trkpt>
    <trkpt lat="56.331828" lon="60.829754">
        <ele>274.5</ele>
        <time>1970-01-01T11:17:03.145Z</time>
    </trkpt>
    <trkpt lat="56.331819" lon="60.82975">
        <ele>274.5</ele>
        <time>1970-01-01T11:17:08.145Z</time>
    </trkpt>
    <trkpt lat="56.331809" lon="60.829747">
        <ele>274.5</ele>
        <time>1970-01-01T11:17:09.145Z</time>
    </trkpt>
    <trkpt lat="56.3318" lon="60.829743">
        <ele>274.5</ele>
        <time>1970-01-01T11:17:10.145Z</time>
    </trkpt>
    <trkpt lat="56.331787" lon="60.829731">
        <ele>274.5</ele>
        <time>1970-01-01T11:17:11.145Z</time>
    </trkpt>
    <trkpt lat="56.331783" lon="60.829723">
        <ele>274.5</ele>
        <time>1970-01-01T11:17:12.145Z</time>
    </trkpt>
    <trkpt lat="56.331777" lon="60.829722">
        <ele>274.5</ele>
        <time>1970-01-01T11:17:13.145Z</time>
    </trkpt>
    <trkpt lat="56.331774" lon="60.829722">
        <ele>274.5</ele>
        <time>1970-01-01T11:17:14.145Z</time>
    </trkpt>
    <trkpt lat="56.331771" lon="60.829713">
        <ele>274.5</ele>
        <time>1970-01-01T11:17:15.145Z</time>
    </trkpt>
    <trkpt lat="56.331768" lon="60.829708">
        <ele>274.5</ele>
        <time>1970-01-01T11:17:16.145Z</time>
    </trkpt>
    <trkpt lat="56.331765" lon="60.829703">
        <ele>274.5</ele>
        <time>1970-01-01T11:17:17.145Z</time>
    </trkpt>
    <trkpt lat="56.331762" lon="60.829702">
        <ele>274.5</ele>
        <time>1970-01-01T11:17:18.145Z</time>
    </trkpt>
    <trkpt lat="56.331753" lon="60.829701">
        <ele>274.5</ele>
        <time>1970-01-01T11:17:19.145Z</time>
    </trkpt>
    <trkpt lat="56.33174" lon="60.829696">
        <ele>274.6</ele>
        <time>1970-01-01T11:17:20.145Z</time>
    </trkpt>
    <trkpt lat="56.331726" lon="60.829702">
        <ele>274.6</ele>
        <time>1970-01-01T11:17:21.145Z</time>
    </trkpt>
    <trkpt lat="56.331718" lon="60.8297">
        <ele>274.6</ele>
        <time>1970-01-01T11:17:22.145Z</time>
    </trkpt>
    <trkpt lat="56.33169" lon="60.829689">
        <ele>274.6</ele>
        <time>1970-01-01T11:17:23.145Z</time>
    </trkpt>
    <trkpt lat="56.331683" lon="60.829692">
        <ele>274.6</ele>
        <time>1970-01-01T11:17:24.145Z</time>
    </trkpt>
    <trkpt lat="56.331654" lon="60.829696">
        <ele>274.7</ele>
        <time>1970-01-01T11:17:25.145Z</time>
    </trkpt>
    <trkpt lat="56.331636" lon="60.829697">
        <ele>274.7</ele>
        <time>1970-01-01T11:17:26.145Z</time>
    </trkpt>
    <trkpt lat="56.331619" lon="60.829694">
        <ele>274.7</ele>
        <time>1970-01-01T11:17:27.145Z</time>
    </trkpt>
    <trkpt lat="56.331602" lon="60.829693">
        <ele>274.7</ele>
        <time>1970-01-01T11:17:28.145Z</time>
    </trkpt>
    <trkpt lat="56.331585" lon="60.829692">
        <ele>274.7</ele>
        <time>1970-01-01T11:17:29.145Z</time>
    </trkpt>
    <trkpt lat="56.331565" lon="60.829695">
        <ele>274.8</ele>
        <time>1970-01-01T11:17:30.145Z</time>
    </trkpt>
    <trkpt lat="56.331549" lon="60.829695">
        <ele>274.8</ele>
        <time>1970-01-01T11:17:31.145Z</time>
    </trkpt>
    <trkpt lat="56.331532" lon="60.829701">
        <ele>274.8</ele>
        <time>1970-01-01T11:17:32.145Z</time>
    </trkpt>
    <trkpt lat="56.331498" lon="60.8297">
        <ele>274.8</ele>
        <time>1970-01-01T11:17:33.145Z</time>
    </trkpt>
    <trkpt lat="56.331488" lon="60.829698">
        <ele>274.8</ele>
        <time>1970-01-01T11:17:34.145Z</time>
    </trkpt>
    <trkpt lat="56.33146" lon="60.829698">
        <ele>274.9</ele>
        <time>1970-01-01T11:17:35.145Z</time>
    </trkpt>
    <trkpt lat="56.331437" lon="60.829699">
        <ele>274.9</ele>
        <time>1970-01-01T11:17:36.145Z</time>
    </trkpt>
    <trkpt lat="56.331427" lon="60.829695">
        <ele>274.9</ele>
        <time>1970-01-01T11:17:37.145Z</time>
    </trkpt>
    <trkpt lat="56.331408" lon="60.829688">
        <ele>274.9</ele>
        <time>1970-01-01T11:17:38.145Z</time>
    </trkpt>
    <trkpt lat="56.331399" lon="60.829684">
        <ele>274.9</ele>
        <time>1970-01-01T11:17:39.145Z</time>
    </trkpt>
    <trkpt lat="56.331392" lon="60.829674">
        <ele>275.0</ele>
        <time>1970-01-01T11:17:40.145Z</time>
    </trkpt>
    <trkpt lat="56.331382" lon="60.829666">
        <ele>275.0</ele>
        <time>1970-01-01T11:17:41.145Z</time>
    </trkpt>
    <trkpt lat="56.331377" lon="60.829667">
        <ele>275.0</ele>
        <time>1970-01-01T11:17:42.145Z</time>
    </trkpt>
    <trkpt lat="56.331372" lon="60.829659">
        <ele>275.0</ele>
        <time>1970-01-01T11:17:43.145Z</time>
    </trkpt>
    <trkpt lat="56.331369" lon="60.829653">
        <ele>275.0</ele>
        <time>1970-01-01T11:17:44.145Z</time>
    </trkpt>
    <trkpt lat="56.331369" lon="60.829652">
        <ele>275.0</ele>
        <time>1970-01-01T11:17:45.145Z</time>
    </trkpt>
    <trkpt lat="56.331355" lon="60.829646">
        <ele>275.0</ele>
        <time>1970-01-01T11:17:46.145Z</time>
    </trkpt>
    <trkpt lat="56.331341" lon="60.829644">
        <ele>275.0</ele>
        <time>1970-01-01T11:17:47.145Z</time>
    </trkpt>
    <trkpt lat="56.331325" lon="60.829639">
        <ele>275.0</ele>
        <time>1970-01-01T11:17:48.145Z</time>
    </trkpt>
    <trkpt lat="56.331312" lon="60.829642">
        <ele>275.0</ele>
        <time>1970-01-01T11:17:49.145Z</time>
    </trkpt>
    <trkpt lat="56.331307" lon="60.829632">
        <ele>275.0</ele>
        <time>1970-01-01T11:17:50.145Z</time>
    </trkpt>
    <trkpt lat="56.331294" lon="60.829622">
        <ele>275.0</ele>
        <time>1970-01-01T11:17:51.145Z</time>
    </trkpt>
    <trkpt lat="56.331284" lon="60.829628">
        <ele>275.0</ele>
        <time>1970-01-01T11:17:52.145Z</time>
    </trkpt>
    <trkpt lat="56.331273" lon="60.829622">
        <ele>274.9</ele>
        <time>1970-01-01T11:17:53.145Z</time>
    </trkpt>
    <trkpt lat="56.331261" lon="60.829625">
        <ele>274.9</ele>
        <time>1970-01-01T11:17:54.145Z</time>
    </trkpt>
    <trkpt lat="56.33125" lon="60.829624">
        <ele>274.9</ele>
        <time>1970-01-01T11:17:55.145Z</time>
    </trkpt>
    <trkpt lat="56.331243" lon="60.829622">
        <ele>274.9</ele>
        <time>1970-01-01T11:17:56.145Z</time>
    </trkpt>
    <trkpt lat="56.331232" lon="60.82962">
        <ele>274.9</ele>
        <time>1970-01-01T11:17:57.145Z</time>
    </trkpt>
    <trkpt lat="56.331218" lon="60.829618">
        <ele>274.9</ele>
        <time>1970-01-01T11:17:58.145Z</time>
    </trkpt>
    <trkpt lat="56.331204" lon="60.82962">
        <ele>274.9</ele>
        <time>1970-01-01T11:17:59.145Z</time>
    </trkpt>
    <trkpt lat="56.33119" lon="60.829605">
        <ele>274.9</ele>
        <time>1970-01-01T11:18:00.145Z</time>
    </trkpt>
    <trkpt lat="56.331176" lon="60.829608">
        <ele>274.9</ele>
        <time>1970-01-01T11:18:01.145Z</time>
    </trkpt>
    <trkpt lat="56.331164" lon="60.829609">
        <ele>274.9</ele>
        <time>1970-01-01T11:18:02.145Z</time>
    </trkpt>
    <trkpt lat="56.331154" lon="60.829603">
        <ele>274.9</ele>
        <time>1970-01-01T11:18:03.145Z</time>
    </trkpt>
    <trkpt lat="56.331136" lon="60.829605">
        <ele>274.9</ele>
        <time>1970-01-01T11:18:04.145Z</time>
    </trkpt>
    <trkpt lat="56.331125" lon="60.829608">
        <ele>274.9</ele>
        <time>1970-01-01T11:18:05.145Z</time>
    </trkpt>
    <trkpt lat="56.331105" lon="60.829609">
        <ele>274.9</ele>
        <time>1970-01-01T11:18:06.145Z</time>
    </trkpt>
    <trkpt lat="56.33107" lon="60.829592">
        <ele>274.9</ele>
        <time>1970-01-01T11:18:10.145Z</time>
    </trkpt>
    <trkpt lat="56.331067" lon="60.829606">
        <ele>274.9</ele>
        <time>1970-01-01T11:18:11.145Z</time>
    </trkpt>
    <trkpt lat="56.331062" lon="60.829588">
        <ele>274.9</ele>
        <time>1970-01-01T11:18:12.145Z</time>
    </trkpt>
    <trkpt lat="56.331059" lon="60.829579">
        <ele>274.9</ele>
        <time>1970-01-01T11:18:13.145Z</time>
    </trkpt>
    <trkpt lat="56.331049" lon="60.829565">
        <ele>274.8</ele>
        <time>1970-01-01T11:18:14.145Z</time>
    </trkpt>
    <trkpt lat="56.331043" lon="60.829548">
        <ele>274.8</ele>
        <time>1970-01-01T11:18:15.145Z</time>
    </trkpt>
    <trkpt lat="56.331036" lon="60.829534">
        <ele>274.8</ele>
        <time>1970-01-01T11:18:16.145Z</time>
    </trkpt>
    <trkpt lat="56.331028" lon="60.829521">
        <ele>274.8</ele>
        <time>1970-01-01T11:18:17.145Z</time>
    </trkpt>
    <trkpt lat="56.331021" lon="60.829508">
        <ele>274.8</ele>
        <time>1970-01-01T11:18:18.145Z</time>
    </trkpt>
    <trkpt lat="56.331013" lon="60.829494">
        <ele>274.8</ele>
        <time>1970-01-01T11:18:19.145Z</time>
    </trkpt>
    <trkpt lat="56.331" lon="60.829472">
        <ele>274.8</ele>
        <time>1970-01-01T11:18:20.145Z</time>
    </trkpt>
    <trkpt lat="56.330994" lon="60.829465">
        <ele>274.8</ele>
        <time>1970-01-01T11:18:21.145Z</time>
    </trkpt>
    <trkpt lat="56.33098" lon="60.829459">
        <ele>274.8</ele>
        <time>1970-01-01T11:18:22.145Z</time>
    </trkpt>
    <trkpt lat="56.330972" lon="60.82945">
        <ele>274.8</ele>
        <time>1970-01-01T11:18:23.145Z</time>
    </trkpt>
    <trkpt lat="56.330965" lon="60.829449">
        <ele>274.8</ele>
        <time>1970-01-01T11:18:24.145Z</time>
    </trkpt>
    <trkpt lat="56.330958" lon="60.829447">
        <ele>274.8</ele>
        <time>1970-01-01T11:18:25.145Z</time>
    </trkpt>
    <trkpt lat="56.330951" lon="60.829446">
        <ele>274.8</ele>
        <time>1970-01-01T11:18:26.145Z</time>
    </trkpt>
    <trkpt lat="56.330932" lon="60.829444">
        <ele>274.8</ele>
        <time>1970-01-01T11:18:27.145Z</time>
    </trkpt>
    <trkpt lat="56.330917" lon="60.82944">
        <ele>274.8</ele>
        <time>1970-01-01T11:18:28.145Z</time>
    </trkpt>
    <trkpt lat="56.330906" lon="60.829431">
        <ele>274.8</ele>
        <time>1970-01-01T11:18:29.145Z</time>
    </trkpt>
    <trkpt lat="56.330893" lon="60.829424">
        <ele>274.8</ele>
        <time>1970-01-01T11:18:30.145Z</time>
    </trkpt>
    <trkpt lat="56.330878" lon="60.829421">
        <ele>274.8</ele>
        <time>1970-01-01T11:18:31.145Z</time>
    </trkpt>
    <trkpt lat="56.330863" lon="60.829418">
        <ele>274.8</ele>
        <time>1970-01-01T11:18:32.145Z</time>
    </trkpt>
    <trkpt lat="56.33085" lon="60.829412">
        <ele>274.8</ele>
        <time>1970-01-01T11:18:33.145Z</time>
    </trkpt>
    <trkpt lat="56.330848" lon="60.829411">
        <ele>274.8</ele>
        <time>1970-01-01T11:18:34.145Z</time>
    </trkpt>
    <trkpt lat="56.330838" lon="60.829416">
        <ele>274.8</ele>
        <time>1970-01-01T11:18:35.145Z</time>
    </trkpt>
    <trkpt lat="56.330829" lon="60.82942">
        <ele>274.7</ele>
        <time>1970-01-01T11:18:36.145Z</time>
    </trkpt>
    <trkpt lat="56.330811" lon="60.829426">
        <ele>274.7</ele>
        <time>1970-01-01T11:18:37.145Z</time>
    </trkpt>
    <trkpt lat="56.330791" lon="60.829412">
        <ele>274.7</ele>
        <time>1970-01-01T11:18:38.145Z</time>
    </trkpt>
    <trkpt lat="56.330778" lon="60.829406">
        <ele>274.7</ele>
        <time>1970-01-01T11:18:39.145Z</time>
    </trkpt>
    <trkpt lat="56.330768" lon="60.829397">
        <ele>274.7</ele>
        <time>1970-01-01T11:18:40.145Z</time>
    </trkpt>
    <trkpt lat="56.330758" lon="60.829392">
        <ele>274.7</ele>
        <time>1970-01-01T11:18:41.145Z</time>
    </trkpt>
    <trkpt lat="56.330745" lon="60.829389">
        <ele>274.7</ele>
        <time>1970-01-01T11:18:42.145Z</time>
    </trkpt>
    <trkpt lat="56.330736" lon="60.829397">
        <ele>274.7</ele>
        <time>1970-01-01T11:18:43.145Z</time>
    </trkpt>
    <trkpt lat="56.330728" lon="60.829401">
        <ele>274.7</ele>
        <time>1970-01-01T11:18:44.145Z</time>
    </trkpt>
    <trkpt lat="56.330717" lon="60.829397">
        <ele>274.7</ele>
        <time>1970-01-01T11:18:45.145Z</time>
    </trkpt>
    <trkpt lat="56.330705" lon="60.82939">
        <ele>274.7</ele>
        <time>1970-01-01T11:18:46.145Z</time>
    </trkpt>
    <trkpt lat="56.330696" lon="60.829392">
        <ele>274.7</ele>
        <time>1970-01-01T11:18:47.145Z</time>
    </trkpt>
    <trkpt lat="56.330686" lon="60.829388">
        <ele>274.7</ele>
        <time>1970-01-01T11:18:48.145Z</time>
    </trkpt>
    <trkpt lat="56.330668" lon="60.829383">
        <ele>274.7</ele>
        <time>1970-01-01T11:18:49.145Z</time>
    </trkpt>
    <trkpt lat="56.330653" lon="60.829374">
        <ele>274.7</ele>
        <time>1970-01-01T11:18:50.145Z</time>
    </trkpt>
    <trkpt lat="56.330644" lon="60.829374">
        <ele>274.7</ele>
        <time>1970-01-01T11:18:51.145Z</time>
    </trkpt>
    <trkpt lat="56.330635" lon="60.829373">
        <ele>274.7</ele>
        <time>1970-01-01T11:18:52.145Z</time>
    </trkpt>
    <trkpt lat="56.330617" lon="60.829372">
        <ele>274.7</ele>
        <time>1970-01-01T11:18:53.145Z</time>
    </trkpt>
    <trkpt lat="56.330607" lon="60.829371">
        <ele>274.7</ele>
        <time>1970-01-01T11:18:54.145Z</time>
    </trkpt>
    <trkpt lat="56.330596" lon="60.829371">
        <ele>274.6</ele>
        <time>1970-01-01T11:18:55.145Z</time>
    </trkpt>
    <trkpt lat="56.330577" lon="60.829363">
        <ele>274.6</ele>
        <time>1970-01-01T11:18:56.145Z</time>
    </trkpt>
    <trkpt lat="56.33057" lon="60.829361">
        <ele>274.6</ele>
        <time>1970-01-01T11:18:57.145Z</time>
    </trkpt>
    <trkpt lat="56.330562" lon="60.829359">
        <ele>274.6</ele>
        <time>1970-01-01T11:18:58.145Z</time>
    </trkpt>
    <trkpt lat="56.330539" lon="60.829352">
        <ele>274.6</ele>
        <time>1970-01-01T11:18:59.145Z</time>
    </trkpt>
    <trkpt lat="56.330528" lon="60.82935">
        <ele>274.6</ele>
        <time>1970-01-01T11:19:00.145Z</time>
    </trkpt>
    <trkpt lat="56.330517" lon="60.829347">
        <ele>274.6</ele>
        <time>1970-01-01T11:19:01.145Z</time>
    </trkpt>
    <trkpt lat="56.330501" lon="60.829342">
        <ele>274.6</ele>
        <time>1970-01-01T11:19:02.145Z</time>
    </trkpt>
    <trkpt lat="56.330484" lon="60.829351">
        <ele>274.6</ele>
        <time>1970-01-01T11:19:03.145Z</time>
    </trkpt>
    <trkpt lat="56.330471" lon="60.82935">
        <ele>274.6</ele>
        <time>1970-01-01T11:19:04.145Z</time>
    </trkpt>
    <trkpt lat="56.330461" lon="60.829347">
        <ele>274.6</ele>
        <time>1970-01-01T11:19:05.145Z</time>
    </trkpt>
    <trkpt lat="56.330451" lon="60.829345">
        <ele>274.6</ele>
        <time>1970-01-01T11:19:06.145Z</time>
    </trkpt>
    <trkpt lat="56.330435" lon="60.829342">
        <ele>274.6</ele>
        <time>1970-01-01T11:19:07.145Z</time>
    </trkpt>
    <trkpt lat="56.330422" lon="60.829347">
        <ele>274.6</ele>
        <time>1970-01-01T11:19:08.145Z</time>
    </trkpt>
    <trkpt lat="56.330407" lon="60.829345">
        <ele>274.6</ele>
        <time>1970-01-01T11:19:09.145Z</time>
    </trkpt>
    <trkpt lat="56.330399" lon="60.829343">
        <ele>274.6</ele>
        <time>1970-01-01T11:19:10.145Z</time>
    </trkpt>
    <trkpt lat="56.330391" lon="60.829341">
        <ele>274.6</ele>
        <time>1970-01-01T11:19:11.145Z</time>
    </trkpt>
    <trkpt lat="56.330369" lon="60.829339">
        <ele>274.6</ele>
        <time>1970-01-01T11:19:12.145Z</time>
    </trkpt>
    <trkpt lat="56.330361" lon="60.82934">
        <ele>274.6</ele>
        <time>1970-01-01T11:19:13.145Z</time>
    </trkpt>
    <trkpt lat="56.330352" lon="60.829341">
        <ele>274.5</ele>
        <time>1970-01-01T11:19:14.145Z</time>
    </trkpt>
    <trkpt lat="56.330333" lon="60.829343">
        <ele>274.5</ele>
        <time>1970-01-01T11:19:15.145Z</time>
    </trkpt>
    <trkpt lat="56.330322" lon="60.82935">
        <ele>274.5</ele>
        <time>1970-01-01T11:19:16.145Z</time>
    </trkpt>
    <trkpt lat="56.330313" lon="60.829354">
        <ele>274.5</ele>
        <time>1970-01-01T11:19:17.145Z</time>
    </trkpt>
    <trkpt lat="56.330303" lon="60.829354">
        <ele>274.5</ele>
        <time>1970-01-01T11:19:18.145Z</time>
    </trkpt>
    <trkpt lat="56.330294" lon="60.829349">
        <ele>274.5</ele>
        <time>1970-01-01T11:19:19.145Z</time>
    </trkpt>
    <trkpt lat="56.330272" lon="60.829343">
        <ele>274.5</ele>
        <time>1970-01-01T11:19:20.145Z</time>
    </trkpt>
    <trkpt lat="56.330263" lon="60.82934">
        <ele>274.5</ele>
        <time>1970-01-01T11:19:21.145Z</time>
    </trkpt>
    <trkpt lat="56.330254" lon="60.829335">
        <ele>274.5</ele>
        <time>1970-01-01T11:19:22.145Z</time>
    </trkpt>
    <trkpt lat="56.33024" lon="60.829341">
        <ele>274.5</ele>
        <time>1970-01-01T11:19:23.145Z</time>
    </trkpt>
    <trkpt lat="56.330231" lon="60.829344">
        <ele>274.5</ele>
        <time>1970-01-01T11:19:24.145Z</time>
    </trkpt>
    <trkpt lat="56.330222" lon="60.829342">
        <ele>274.5</ele>
        <time>1970-01-01T11:19:25.145Z</time>
    </trkpt>
    <trkpt lat="56.330208" lon="60.829334">
        <ele>274.5</ele>
        <time>1970-01-01T11:19:26.145Z</time>
    </trkpt>
    <trkpt lat="56.3302" lon="60.829331">
        <ele>274.5</ele>
        <time>1970-01-01T11:19:27.145Z</time>
    </trkpt>
    <trkpt lat="56.330191" lon="60.829328">
        <ele>274.5</ele>
        <time>1970-01-01T11:19:28.145Z</time>
    </trkpt>
    <trkpt lat="56.33017" lon="60.829328">
        <ele>274.5</ele>
        <time>1970-01-01T11:19:29.145Z</time>
    </trkpt>
    <trkpt lat="56.330156" lon="60.829326">
        <ele>274.5</ele>
        <time>1970-01-01T11:19:30.145Z</time>
    </trkpt>
    <trkpt lat="56.330144" lon="60.829328">
        <ele>274.5</ele>
        <time>1970-01-01T11:19:31.145Z</time>
    </trkpt>
    <trkpt lat="56.330135" lon="60.829329">
        <ele>274.5</ele>
        <time>1970-01-01T11:19:32.145Z</time>
    </trkpt>
    <trkpt lat="56.330126" lon="60.829331">
        <ele>274.5</ele>
        <time>1970-01-01T11:19:33.145Z</time>
    </trkpt>
    <trkpt lat="56.330117" lon="60.829333">
        <ele>274.4</ele>
        <time>1970-01-01T11:19:34.145Z</time>
    </trkpt>
    <trkpt lat="56.330098" lon="60.829331">
        <ele>274.4</ele>
        <time>1970-01-01T11:19:35.145Z</time>
    </trkpt>
    <trkpt lat="56.33009" lon="60.829332">
        <ele>274.4</ele>
        <time>1970-01-01T11:19:36.145Z</time>
    </trkpt>
    <trkpt lat="56.330082" lon="60.829332">
        <ele>274.4</ele>
        <time>1970-01-01T11:19:37.145Z</time>
    </trkpt>
    <trkpt lat="56.330074" lon="60.829332">
        <ele>274.4</ele>
        <time>1970-01-01T11:19:38.145Z</time>
    </trkpt>
    <trkpt lat="56.330061" lon="60.829349">
        <ele>274.4</ele>
        <time>1970-01-01T11:19:39.145Z</time>
    </trkpt>
    <trkpt lat="56.330045" lon="60.82934">
        <ele>274.4</ele>
        <time>1970-01-01T11:19:40.145Z</time>
    </trkpt>
    <trkpt lat="56.33003" lon="60.829328">
        <ele>274.4</ele>
        <time>1970-01-01T11:19:41.145Z</time>
    </trkpt>
    <trkpt lat="56.330021" lon="60.829326">
        <ele>274.4</ele>
        <time>1970-01-01T11:19:42.145Z</time>
    </trkpt>
    <trkpt lat="56.330011" lon="60.829324">
        <ele>274.4</ele>
        <time>1970-01-01T11:19:43.145Z</time>
    </trkpt>
    <trkpt lat="56.329992" lon="60.829317">
        <ele>274.4</ele>
        <time>1970-01-01T11:19:44.145Z</time>
    </trkpt>
    <trkpt lat="56.329979" lon="60.829312">
        <ele>274.4</ele>
        <time>1970-01-01T11:19:45.145Z</time>
    </trkpt>
    <trkpt lat="56.329965" lon="60.829297">
        <ele>274.4</ele>
        <time>1970-01-01T11:19:46.145Z</time>
    </trkpt>
    <trkpt lat="56.329955" lon="60.829296">
        <ele>274.4</ele>
        <time>1970-01-01T11:19:47.145Z</time>
    </trkpt>
    <trkpt lat="56.329946" lon="60.829295">
        <ele>274.4</ele>
        <time>1970-01-01T11:19:48.145Z</time>
    </trkpt>
    <trkpt lat="56.329923" lon="60.829299">
        <ele>274.4</ele>
        <time>1970-01-01T11:19:49.145Z</time>
    </trkpt>
    <trkpt lat="56.329907" lon="60.829294">
        <ele>274.4</ele>
        <time>1970-01-01T11:19:50.145Z</time>
    </trkpt>
    <trkpt lat="56.329894" lon="60.829281">
        <ele>274.4</ele>
        <time>1970-01-01T11:19:51.145Z</time>
    </trkpt>
    <trkpt lat="56.329884" lon="60.829289">
        <ele>274.3</ele>
        <time>1970-01-01T11:19:52.145Z</time>
    </trkpt>
    <trkpt lat="56.329879" lon="60.829291">
        <ele>274.3</ele>
        <time>1970-01-01T11:19:53.145Z</time>
    </trkpt>
    <trkpt lat="56.329861" lon="60.82928">
        <ele>274.3</ele>
        <time>1970-01-01T11:19:54.145Z</time>
    </trkpt>
    <trkpt lat="56.329846" lon="60.829282">
        <ele>274.3</ele>
        <time>1970-01-01T11:19:55.145Z</time>
    </trkpt>
    <trkpt lat="56.329833" lon="60.829285">
        <ele>274.3</ele>
        <time>1970-01-01T11:19:56.145Z</time>
    </trkpt>
    <trkpt lat="56.329821" lon="60.829287">
        <ele>274.3</ele>
        <time>1970-01-01T11:19:57.145Z</time>
    </trkpt>
    <trkpt lat="56.329804" lon="60.829276">
        <ele>274.3</ele>
        <time>1970-01-01T11:19:58.145Z</time>
    </trkpt>
    <trkpt lat="56.329796" lon="60.829256">
        <ele>274.3</ele>
        <time>1970-01-01T11:19:59.145Z</time>
    </trkpt>
    <trkpt lat="56.329789" lon="60.829257">
        <ele>274.3</ele>
        <time>1970-01-01T11:20:00.145Z</time>
    </trkpt>
    <trkpt lat="56.329771" lon="60.829257">
        <ele>274.3</ele>
        <time>1970-01-01T11:20:01.145Z</time>
    </trkpt>
    <trkpt lat="56.329763" lon="60.829253">
        <ele>274.3</ele>
        <time>1970-01-01T11:20:02.145Z</time>
    </trkpt>
    <trkpt lat="56.329747" lon="60.829253">
        <ele>274.3</ele>
        <time>1970-01-01T11:20:03.145Z</time>
    </trkpt>
    <trkpt lat="56.329738" lon="60.829242">
        <ele>274.3</ele>
        <time>1970-01-01T11:20:04.145Z</time>
    </trkpt>
    <trkpt lat="56.329721" lon="60.82924">
        <ele>274.3</ele>
        <time>1970-01-01T11:20:05.145Z</time>
    </trkpt>
    <trkpt lat="56.329658" lon="60.829203">
        <ele>274.3</ele>
        <time>1970-01-01T11:20:12.145Z</time>
    </trkpt>
    <trkpt lat="56.329654" lon="60.829202">
        <ele>274.2</ele>
        <time>1970-01-01T11:20:13.145Z</time>
    </trkpt>
    <trkpt lat="56.329648" lon="60.829194">
        <ele>274.2</ele>
        <time>1970-01-01T11:20:14.145Z</time>
    </trkpt>
    <trkpt lat="56.32964" lon="60.829197">
        <ele>274.2</ele>
        <time>1970-01-01T11:20:15.145Z</time>
    </trkpt>
    <trkpt lat="56.329636" lon="60.829191">
        <ele>274.2</ele>
        <time>1970-01-01T11:20:16.145Z</time>
    </trkpt>
    <trkpt lat="56.329634" lon="60.829192">
        <ele>274.2</ele>
        <time>1970-01-01T11:20:17.145Z</time>
    </trkpt>
    <trkpt lat="56.329634" lon="60.829197">
        <ele>274.2</ele>
        <time>1970-01-01T11:20:18.145Z</time>
    </trkpt>
    <trkpt lat="56.329631" lon="60.829196">
        <ele>274.2</ele>
        <time>1970-01-01T11:20:19.145Z</time>
    </trkpt>
    <trkpt lat="56.329622" lon="60.829186">
        <ele>274.2</ele>
        <time>1970-01-01T11:20:20.145Z</time>
    </trkpt>
    <trkpt lat="56.329623" lon="60.829183">
        <ele>274.2</ele>
        <time>1970-01-01T11:20:21.145Z</time>
    </trkpt>
    <trkpt lat="56.329624" lon="60.829173">
        <ele>274.2</ele>
        <time>1970-01-01T11:20:22.145Z</time>
    </trkpt>
    <trkpt lat="56.329562" lon="60.829089">
        <ele>274.2</ele>
        <time>1970-01-01T11:20:36.145Z</time>
    </trkpt>
    <trkpt lat="56.329552" lon="60.829064">
        <ele>274.2</ele>
        <time>1970-01-01T11:20:37.145Z</time>
    </trkpt>
    <trkpt lat="56.329548" lon="60.82905">
        <ele>274.2</ele>
        <time>1970-01-01T11:20:38.145Z</time>
    </trkpt>
    <trkpt lat="56.329545" lon="60.829042">
        <ele>274.2</ele>
        <time>1970-01-01T11:20:39.145Z</time>
    </trkpt>
    <trkpt lat="56.329546" lon="60.829037">
        <ele>274.2</ele>
        <time>1970-01-01T11:20:40.145Z</time>
    </trkpt>
    <trkpt lat="56.329538" lon="60.829024">
        <ele>274.2</ele>
        <time>1970-01-01T11:20:41.145Z</time>
    </trkpt>
    <trkpt lat="56.329536" lon="60.829029">
        <ele>274.2</ele>
        <time>1970-01-01T11:20:42.145Z</time>
    </trkpt>
    <trkpt lat="56.329531" lon="60.82903">
        <ele>274.2</ele>
        <time>1970-01-01T11:20:43.145Z</time>
    </trkpt>
    <trkpt lat="56.329528" lon="60.829025">
        <ele>274.2</ele>
        <time>1970-01-01T11:20:44.145Z</time>
    </trkpt>
    <trkpt lat="56.329521" lon="60.829018">
        <ele>274.2</ele>
        <time>1970-01-01T11:20:45.145Z</time>
    </trkpt>
    <trkpt lat="56.329521" lon="60.829024">
        <ele>274.2</ele>
        <time>1970-01-01T11:20:46.145Z</time>
    </trkpt>
    <trkpt lat="56.329514" lon="60.82901">
        <ele>274.2</ele>
        <time>1970-01-01T11:20:47.145Z</time>
    </trkpt>
    <trkpt lat="56.329509" lon="60.828978">
        <ele>274.2</ele>
        <time>1970-01-01T11:20:48.145Z</time>
    </trkpt>
    <trkpt lat="56.329507" lon="60.828959">
        <ele>274.2</ele>
        <time>1970-01-01T11:20:49.145Z</time>
    </trkpt>
    <trkpt lat="56.329498" lon="60.828931">
        <ele>274.1</ele>
        <time>1970-01-01T11:20:50.145Z</time>
    </trkpt>
    <trkpt lat="56.329487" lon="60.8289">
        <ele>274.1</ele>
        <time>1970-01-01T11:20:51.145Z</time>
    </trkpt>
    <trkpt lat="56.329477" lon="60.828879">
        <ele>274.1</ele>
        <time>1970-01-01T11:20:52.145Z</time>
    </trkpt>
    <trkpt lat="56.329459" lon="60.828839">
        <ele>274.1</ele>
        <time>1970-01-01T11:20:53.145Z</time>
    </trkpt>
    <trkpt lat="56.329453" lon="60.828823">
        <ele>274.1</ele>
        <time>1970-01-01T11:20:54.145Z</time>
    </trkpt>
    <trkpt lat="56.329435" lon="60.82877">
        <ele>274.1</ele>
        <time>1970-01-01T11:20:55.145Z</time>
    </trkpt>
    <trkpt lat="56.329427" lon="60.828755">
        <ele>274.1</ele>
        <time>1970-01-01T11:20:56.145Z</time>
    </trkpt>
    <trkpt lat="56.329406" lon="60.828706">
        <ele>274.1</ele>
        <time>1970-01-01T11:20:57.145Z</time>
    </trkpt>
    <trkpt lat="56.329397" lon="60.828696">
        <ele>274.1</ele>
        <time>1970-01-01T11:20:58.145Z</time>
    </trkpt>
    <trkpt lat="56.329376" lon="60.828653">
        <ele>274.1</ele>
        <time>1970-01-01T11:20:59.145Z</time>
    </trkpt>
    <trkpt lat="56.32936" lon="60.82862">
        <ele>274.1</ele>
        <time>1970-01-01T11:21:00.145Z</time>
    </trkpt>
    <trkpt lat="56.32935" lon="60.828609">
        <ele>274.1</ele>
        <time>1970-01-01T11:21:01.145Z</time>
    </trkpt>
    <trkpt lat="56.329329" lon="60.828578">
        <ele>274.0</ele>
        <time>1970-01-01T11:21:02.145Z</time>
    </trkpt>
    <trkpt lat="56.329322" lon="60.82857">
        <ele>274.0</ele>
        <time>1970-01-01T11:21:03.145Z</time>
    </trkpt>
    <trkpt lat="56.329297" lon="60.828534">
        <ele>274.0</ele>
        <time>1970-01-01T11:21:04.145Z</time>
    </trkpt>
    <trkpt lat="56.329286" lon="60.8285">
        <ele>274.0</ele>
        <time>1970-01-01T11:21:05.145Z</time>
    </trkpt>
    <trkpt lat="56.329282" lon="60.82849">
        <ele>274.0</ele>
        <time>1970-01-01T11:21:06.145Z</time>
    </trkpt>
    <trkpt lat="56.329257" lon="60.828463">
        <ele>274.0</ele>
        <time>1970-01-01T11:21:07.145Z</time>
    </trkpt>
    <trkpt lat="56.329252" lon="60.828455">
        <ele>274.0</ele>
        <time>1970-01-01T11:21:08.145Z</time>
    </trkpt>
    <trkpt lat="56.32923" lon="60.82842">
        <ele>274.0</ele>
        <time>1970-01-01T11:21:09.145Z</time>
    </trkpt>
    <trkpt lat="56.329224" lon="60.828398">
        <ele>274.0</ele>
        <time>1970-01-01T11:21:10.145Z</time>
    </trkpt>
    <trkpt lat="56.329209" lon="60.828376">
        <ele>274.0</ele>
        <time>1970-01-01T11:21:11.145Z</time>
    </trkpt>
    <trkpt lat="56.329199" lon="60.828364">
        <ele>274.0</ele>
        <time>1970-01-01T11:21:12.145Z</time>
    </trkpt>
    <trkpt lat="56.329176" lon="60.828341">
        <ele>274.0</ele>
        <time>1970-01-01T11:21:13.145Z</time>
    </trkpt>
    <trkpt lat="56.32917" lon="60.828316">
        <ele>273.9</ele>
        <time>1970-01-01T11:21:14.145Z</time>
    </trkpt>
    <trkpt lat="56.32916" lon="60.828293">
        <ele>273.9</ele>
        <time>1970-01-01T11:21:15.145Z</time>
    </trkpt>
    <trkpt lat="56.329154" lon="60.828288">
        <ele>273.9</ele>
        <time>1970-01-01T11:21:16.145Z</time>
    </trkpt>
    <trkpt lat="56.329125" lon="60.828267">
        <ele>273.9</ele>
        <time>1970-01-01T11:21:17.145Z</time>
    </trkpt>
    <trkpt lat="56.329108" lon="60.828257">
        <ele>273.9</ele>
        <time>1970-01-01T11:21:18.145Z</time>
    </trkpt>
    <trkpt lat="56.329097" lon="60.828257">
        <ele>273.9</ele>
        <time>1970-01-01T11:21:19.145Z</time>
    </trkpt>
    <trkpt lat="56.329095" lon="60.828253">
        <ele>273.9</ele>
        <time>1970-01-01T11:21:20.145Z</time>
    </trkpt>
    <trkpt lat="56.32908375540481" lon="60.82816600799561">
        <ele>273.4</ele>
        <time>1970-01-01T11:23:48.645Z</time>
    </trkpt>
    <trkpt lat="56.329086" lon="60.828161">
        <ele>273.3</ele>
        <time>1970-01-01T11:23:49.145Z</time>
    </trkpt>
    <trkpt lat="56.329087" lon="60.828145">
        <ele>273.3</ele>
        <time>1970-01-01T11:23:50.145Z</time>
    </trkpt>
    <trkpt lat="56.329084" lon="60.828088">
        <ele>273.3</ele>
        <time>1970-01-01T11:23:51.145Z</time>
    </trkpt>
    <trkpt lat="56.329082" lon="60.828074">
        <ele>273.3</ele>
        <time>1970-01-01T11:23:52.145Z</time>
    </trkpt>
    <trkpt lat="56.329076" lon="60.828025">
        <ele>273.3</ele>
        <time>1970-01-01T11:23:53.145Z</time>
    </trkpt>
    <trkpt lat="56.329068" lon="60.828008">
        <ele>273.3</ele>
        <time>1970-01-01T11:23:54.145Z</time>
    </trkpt>
    <trkpt lat="56.32906" lon="60.82799">
        <ele>273.3</ele>
        <time>1970-01-01T11:23:55.145Z</time>
    </trkpt>
    <trkpt lat="56.329046" lon="60.82797">
        <ele>273.3</ele>
        <time>1970-01-01T11:23:56.145Z</time>
    </trkpt>
    <trkpt lat="56.329035" lon="60.82796">
        <ele>273.3</ele>
        <time>1970-01-01T11:23:57.145Z</time>
    </trkpt>
    <trkpt lat="56.329028" lon="60.827959">
        <ele>273.3</ele>
        <time>1970-01-01T11:23:58.145Z</time>
    </trkpt>
    <trkpt lat="56.329023" lon="60.827958">
        <ele>273.3</ele>
        <time>1970-01-01T11:23:59.145Z</time>
    </trkpt>
    <trkpt lat="56.329015" lon="60.827945">
        <ele>273.3</ele>
        <time>1970-01-01T11:24:00.145Z</time>
    </trkpt>
    <trkpt lat="56.329001" lon="60.827926">
        <ele>273.3</ele>
        <time>1970-01-01T11:24:01.145Z</time>
    </trkpt>
    <trkpt lat="56.328991" lon="60.827911">
        <ele>273.3</ele>
        <time>1970-01-01T11:24:02.145Z</time>
    </trkpt>
    <trkpt lat="56.328986" lon="60.827896">
        <ele>273.3</ele>
        <time>1970-01-01T11:24:03.145Z</time>
    </trkpt>
    <trkpt lat="56.328982" lon="60.827882">
        <ele>273.3</ele>
        <time>1970-01-01T11:24:04.145Z</time>
    </trkpt>
    <trkpt lat="56.328972" lon="60.827854">
        <ele>273.2</ele>
        <time>1970-01-01T11:24:05.145Z</time>
    </trkpt>
    <trkpt lat="56.328964" lon="60.827843">
        <ele>273.2</ele>
        <time>1970-01-01T11:24:06.145Z</time>
    </trkpt>
    <trkpt lat="56.328955" lon="60.827831">
        <ele>273.2</ele>
        <time>1970-01-01T11:24:07.145Z</time>
    </trkpt>
    <trkpt lat="56.328941" lon="60.827798">
        <ele>273.2</ele>
        <time>1970-01-01T11:24:08.145Z</time>
    </trkpt>
    <trkpt lat="56.328932" lon="60.827786">
        <ele>273.2</ele>
        <time>1970-01-01T11:24:09.145Z</time>
    </trkpt>
    <trkpt lat="56.328907" lon="60.827749">
        <ele>273.2</ele>
        <time>1970-01-01T11:24:10.145Z</time>
    </trkpt>
    <trkpt lat="56.328901" lon="60.827723">
        <ele>273.2</ele>
        <time>1970-01-01T11:24:11.145Z</time>
    </trkpt>
    <trkpt lat="56.328891" lon="60.827698">
        <ele>273.2</ele>
        <time>1970-01-01T11:24:12.145Z</time>
    </trkpt>
    <trkpt lat="56.328882" lon="60.827682">
        <ele>273.2</ele>
        <time>1970-01-01T11:24:13.145Z</time>
    </trkpt>
    <trkpt lat="56.328859" lon="60.827625">
        <ele>273.2</ele>
        <time>1970-01-01T11:24:14.145Z</time>
    </trkpt>
    <trkpt lat="56.328843" lon="60.827583">
        <ele>273.2</ele>
        <time>1970-01-01T11:24:15.145Z</time>
    </trkpt>
    <trkpt lat="56.328824" lon="60.827531">
        <ele>273.2</ele>
        <time>1970-01-01T11:24:16.145Z</time>
    </trkpt>
    <trkpt lat="56.328812" lon="60.827525">
        <ele>273.1</ele>
        <time>1970-01-01T11:24:17.145Z</time>
    </trkpt>
    <trkpt lat="56.328788" lon="60.827494">
        <ele>273.1</ele>
        <time>1970-01-01T11:24:18.145Z</time>
    </trkpt>
    <trkpt lat="56.32878" lon="60.827478">
        <ele>273.1</ele>
        <time>1970-01-01T11:24:19.145Z</time>
    </trkpt>
    <trkpt lat="56.328752" lon="60.827429">
        <ele>273.1</ele>
        <time>1970-01-01T11:24:20.145Z</time>
    </trkpt>
    <trkpt lat="56.328745" lon="60.827414">
        <ele>273.1</ele>
        <time>1970-01-01T11:24:21.145Z</time>
    </trkpt>
    <trkpt lat="56.328726" lon="60.827369">
        <ele>273.1</ele>
        <time>1970-01-01T11:24:22.145Z</time>
    </trkpt>
    <trkpt lat="56.328716" lon="60.82735">
        <ele>273.1</ele>
        <time>1970-01-01T11:24:23.145Z</time>
    </trkpt>
    <trkpt lat="56.328697" lon="60.827304">
        <ele>273.1</ele>
        <time>1970-01-01T11:24:24.145Z</time>
    </trkpt>
    <trkpt lat="56.328684" lon="60.827278">
        <ele>273.1</ele>
        <time>1970-01-01T11:24:25.145Z</time>
    </trkpt>
    <trkpt lat="56.328667" lon="60.827131">
        <ele>273.0</ele>
        <time>1970-01-01T11:24:35.145Z</time>
    </trkpt>
    <trkpt lat="56.328667" lon="60.827129">
        <ele>273.0</ele>
        <time>1970-01-01T11:24:36.145Z</time>
    </trkpt>
    <trkpt lat="56.328667" lon="60.827124">
        <ele>273.0</ele>
        <time>1970-01-01T11:24:37.145Z</time>
    </trkpt>
    <trkpt lat="56.328668" lon="60.827123">
        <ele>273.0</ele>
        <time>1970-01-01T11:24:38.145Z</time>
    </trkpt>
    <trkpt lat="56.328672" lon="60.827121">
        <ele>273.0</ele>
        <time>1970-01-01T11:24:39.145Z</time>
    </trkpt>
    <trkpt lat="56.328669" lon="60.827111">
        <ele>273.0</ele>
        <time>1970-01-01T11:24:40.145Z</time>
    </trkpt>
    <trkpt lat="56.328667" lon="60.827102">
        <ele>273.0</ele>
        <time>1970-01-01T11:24:41.145Z</time>
    </trkpt>
    <trkpt lat="56.328665" lon="60.827092">
        <ele>273.0</ele>
        <time>1970-01-01T11:24:42.145Z</time>
    </trkpt>
    <trkpt lat="56.328662" lon="60.827083">
        <ele>273.0</ele>
        <time>1970-01-01T11:24:43.145Z</time>
    </trkpt>
    <trkpt lat="56.32866" lon="60.827074">
        <ele>273.0</ele>
        <time>1970-01-01T11:24:44.145Z</time>
    </trkpt>
    <trkpt lat="56.328657" lon="60.827064">
        <ele>273.0</ele>
        <time>1970-01-01T11:24:45.145Z</time>
    </trkpt>
    <trkpt lat="56.328655" lon="60.827055">
        <ele>273.0</ele>
        <time>1970-01-01T11:24:46.145Z</time>
    </trkpt>
    <trkpt lat="56.328641" lon="60.827022">
        <ele>273.0</ele>
        <time>1970-01-01T11:24:47.145Z</time>
    </trkpt>
    <trkpt lat="56.328638" lon="60.827002">
        <ele>273.0</ele>
        <time>1970-01-01T11:24:48.145Z</time>
    </trkpt>
    <trkpt lat="56.328631" lon="60.826934">
        <ele>273.0</ele>
        <time>1970-01-01T11:24:49.145Z</time>
    </trkpt>
    <trkpt lat="56.328623" lon="60.826919">
        <ele>273.0</ele>
        <time>1970-01-01T11:24:50.145Z</time>
    </trkpt>
    <trkpt lat="56.328604" lon="60.826877">
        <ele>273.0</ele>
        <time>1970-01-01T11:24:51.145Z</time>
    </trkpt>
    <trkpt lat="56.3286" lon="60.826861">
        <ele>273.0</ele>
        <time>1970-01-01T11:24:52.145Z</time>
    </trkpt>
    <trkpt lat="56.328594" lon="60.826806">
        <ele>273.0</ele>
        <time>1970-01-01T11:24:53.145Z</time>
    </trkpt>
    <trkpt lat="56.328593" lon="60.826789">
        <ele>272.9</ele>
        <time>1970-01-01T11:24:54.145Z</time>
    </trkpt>
    <trkpt lat="56.32858" lon="60.826745">
        <ele>272.9</ele>
        <time>1970-01-01T11:24:55.145Z</time>
    </trkpt>
    <trkpt lat="56.328572" lon="60.826734">
        <ele>272.9</ele>
        <time>1970-01-01T11:24:56.145Z</time>
    </trkpt>
    <trkpt lat="56.328551" lon="60.826695">
        <ele>272.9</ele>
        <time>1970-01-01T11:24:57.145Z</time>
    </trkpt>
    <trkpt lat="56.328549" lon="60.826678">
        <ele>272.9</ele>
        <time>1970-01-01T11:24:58.145Z</time>
    </trkpt>
    <trkpt lat="56.328538" lon="60.826633">
        <ele>272.9</ele>
        <time>1970-01-01T11:24:59.145Z</time>
    </trkpt>
    <trkpt lat="56.328529" lon="60.826608">
        <ele>272.9</ele>
        <time>1970-01-01T11:25:00.145Z</time>
    </trkpt>
    <trkpt lat="56.32852" lon="60.826579">
        <ele>272.9</ele>
        <time>1970-01-01T11:25:01.145Z</time>
    </trkpt>
    <trkpt lat="56.328516" lon="60.826558">
        <ele>272.9</ele>
        <time>1970-01-01T11:25:02.145Z</time>
    </trkpt>
    <trkpt lat="56.3285" lon="60.826511">
        <ele>272.9</ele>
        <time>1970-01-01T11:25:03.145Z</time>
    </trkpt>
    <trkpt lat="56.328495" lon="60.826495">
        <ele>272.9</ele>
        <time>1970-01-01T11:25:04.145Z</time>
    </trkpt>
    <trkpt lat="56.32848" lon="60.826455">
        <ele>272.9</ele>
        <time>1970-01-01T11:25:05.145Z</time>
    </trkpt>
    <trkpt lat="56.328472" lon="60.826426">
        <ele>272.8</ele>
        <time>1970-01-01T11:25:06.145Z</time>
    </trkpt>
    <trkpt lat="56.328463" lon="60.826398">
        <ele>272.8</ele>
        <time>1970-01-01T11:25:07.145Z</time>
    </trkpt>
    <trkpt lat="56.328454" lon="60.826371">
        <ele>272.8</ele>
        <time>1970-01-01T11:25:08.145Z</time>
    </trkpt>
    <trkpt lat="56.328443" lon="60.826349">
        <ele>272.8</ele>
        <time>1970-01-01T11:25:09.145Z</time>
    </trkpt>
    <trkpt lat="56.328432" lon="60.826326">
        <ele>272.8</ele>
        <time>1970-01-01T11:25:10.145Z</time>
    </trkpt>
    <trkpt lat="56.328422" lon="60.826302">
        <ele>272.8</ele>
        <time>1970-01-01T11:25:11.145Z</time>
    </trkpt>
    <trkpt lat="56.32841" lon="60.826286">
        <ele>272.8</ele>
        <time>1970-01-01T11:25:12.145Z</time>
    </trkpt>
    <trkpt lat="56.328395" lon="60.826267">
        <ele>272.8</ele>
        <time>1970-01-01T11:25:13.145Z</time>
    </trkpt>
    <trkpt lat="56.328389" lon="60.826253">
        <ele>272.8</ele>
        <time>1970-01-01T11:25:14.145Z</time>
    </trkpt>
    <trkpt lat="56.328368" lon="60.826218">
        <ele>272.8</ele>
        <time>1970-01-01T11:25:15.145Z</time>
    </trkpt>
    <trkpt lat="56.328362" lon="60.82621">
        <ele>272.8</ele>
        <time>1970-01-01T11:25:16.145Z</time>
    </trkpt>
    <trkpt lat="56.328333" lon="60.826183">
        <ele>272.8</ele>
        <time>1970-01-01T11:25:17.145Z</time>
    </trkpt>
    <trkpt lat="56.328323" lon="60.826155">
        <ele>272.8</ele>
        <time>1970-01-01T11:25:18.145Z</time>
    </trkpt>
    <trkpt lat="56.32832" lon="60.826125">
        <ele>272.8</ele>
        <time>1970-01-01T11:25:19.145Z</time>
    </trkpt>
    <trkpt lat="56.328317" lon="60.826101">
        <ele>272.7</ele>
        <time>1970-01-01T11:25:20.145Z</time>
    </trkpt>
    <trkpt lat="56.328304" lon="60.826044">
        <ele>272.7</ele>
        <time>1970-01-01T11:25:21.145Z</time>
    </trkpt>
    <trkpt lat="56.328301" lon="60.826024">
        <ele>272.7</ele>
        <time>1970-01-01T11:25:22.145Z</time>
    </trkpt>
    <trkpt lat="56.328289" lon="60.825966">
        <ele>272.7</ele>
        <time>1970-01-01T11:25:23.145Z</time>
    </trkpt>
    <trkpt lat="56.328284" lon="60.825945">
        <ele>272.7</ele>
        <time>1970-01-01T11:25:24.145Z</time>
    </trkpt>
    <trkpt lat="56.32827" lon="60.825892">
        <ele>272.7</ele>
        <time>1970-01-01T11:25:25.145Z</time>
    </trkpt>
    <trkpt lat="56.328266" lon="60.825872">
        <ele>272.7</ele>
        <time>1970-01-01T11:25:26.145Z</time>
    </trkpt>
    <trkpt lat="56.328256" lon="60.825807">
        <ele>272.7</ele>
        <time>1970-01-01T11:25:27.145Z</time>
    </trkpt>
    <trkpt lat="56.328254" lon="60.82579">
        <ele>272.7</ele>
        <time>1970-01-01T11:25:28.145Z</time>
    </trkpt>
    <trkpt lat="56.328244" lon="60.825738">
        <ele>272.7</ele>
        <time>1970-01-01T11:25:29.145Z</time>
    </trkpt>
    <trkpt lat="56.328241" lon="60.82572">
        <ele>272.7</ele>
        <time>1970-01-01T11:25:30.145Z</time>
    </trkpt>
    <trkpt lat="56.328228" lon="60.825661">
        <ele>272.6</ele>
        <time>1970-01-01T11:25:31.145Z</time>
    </trkpt>
    <trkpt lat="56.328224" lon="60.825639">
        <ele>272.6</ele>
        <time>1970-01-01T11:25:32.145Z</time>
    </trkpt>
    <trkpt lat="56.328219" lon="60.825616">
        <ele>272.6</ele>
        <time>1970-01-01T11:25:33.145Z</time>
    </trkpt>
    <trkpt lat="56.328145" lon="60.825498">
        <ele>272.6</ele>
        <time>1970-01-01T11:26:07.145Z</time>
    </trkpt>
    <trkpt lat="56.328142" lon="60.825496">
        <ele>272.6</ele>
        <time>1970-01-01T11:26:08.145Z</time>
    </trkpt>
    <trkpt lat="56.32814" lon="60.825498">
        <ele>272.6</ele>
        <time>1970-01-01T11:26:09.145Z</time>
    </trkpt>
    <trkpt lat="56.328139" lon="60.825496">
        <ele>272.6</ele>
        <time>1970-01-01T11:26:10.145Z</time>
    </trkpt>
    <trkpt lat="56.32814" lon="60.825492">
        <ele>272.6</ele>
        <time>1970-01-01T11:26:11.145Z</time>
    </trkpt>
    <trkpt lat="56.328139" lon="60.82549">
        <ele>272.6</ele>
        <time>1970-01-01T11:26:12.145Z</time>
    </trkpt>
    <trkpt lat="56.328137" lon="60.82549">
        <ele>272.6</ele>
        <time>1970-01-01T11:26:13.145Z</time>
    </trkpt>
    <trkpt lat="56.328133" lon="60.825483">
        <ele>272.6</ele>
        <time>1970-01-01T11:26:14.145Z</time>
    </trkpt>
    <trkpt lat="56.328126" lon="60.825479">
        <ele>272.6</ele>
        <time>1970-01-01T11:26:15.145Z</time>
    </trkpt>
    <trkpt lat="56.328118" lon="60.825473">
        <ele>272.6</ele>
        <time>1970-01-01T11:26:16.145Z</time>
    </trkpt>
    <trkpt lat="56.328119" lon="60.825482">
        <ele>272.6</ele>
        <time>1970-01-01T11:26:17.145Z</time>
    </trkpt>
    <trkpt lat="56.328112" lon="60.825474">
        <ele>272.6</ele>
        <time>1970-01-01T11:26:18.145Z</time>
    </trkpt>
    <trkpt lat="56.328092" lon="60.825439">
        <ele>272.6</ele>
        <time>1970-01-01T11:26:19.145Z</time>
    </trkpt>
    <trkpt lat="56.328087" lon="60.825423">
        <ele>272.6</ele>
        <time>1970-01-01T11:26:20.145Z</time>
    </trkpt>
    <trkpt lat="56.328074" lon="60.825372">
        <ele>272.5</ele>
        <time>1970-01-01T11:26:21.145Z</time>
    </trkpt>
    <trkpt lat="56.328066" lon="60.825354">
        <ele>272.5</ele>
        <time>1970-01-01T11:26:22.145Z</time>
    </trkpt>
    <trkpt lat="56.328043" lon="60.825307">
        <ele>272.5</ele>
        <time>1970-01-01T11:26:23.145Z</time>
    </trkpt>
    <trkpt lat="56.328037" lon="60.825287">
        <ele>272.5</ele>
        <time>1970-01-01T11:26:24.145Z</time>
    </trkpt>
    <trkpt lat="56.328016" lon="60.825231">
        <ele>272.5</ele>
        <time>1970-01-01T11:26:25.145Z</time>
    </trkpt>
    <trkpt lat="56.328008" lon="60.825215">
        <ele>272.5</ele>
        <time>1970-01-01T11:26:26.145Z</time>
    </trkpt>
    <trkpt lat="56.327986" lon="60.825169">
        <ele>272.5</ele>
        <time>1970-01-01T11:26:27.145Z</time>
    </trkpt>
    <trkpt lat="56.327979" lon="60.825157">
        <ele>272.5</ele>
        <time>1970-01-01T11:26:28.145Z</time>
    </trkpt>
    <trkpt lat="56.327953" lon="60.825117">
        <ele>272.5</ele>
        <time>1970-01-01T11:26:29.145Z</time>
    </trkpt>
    <trkpt lat="56.327946" lon="60.825106">
        <ele>272.5</ele>
        <time>1970-01-01T11:26:30.145Z</time>
    </trkpt>
    <trkpt lat="56.327923" lon="60.825069">
        <ele>272.4</ele>
        <time>1970-01-01T11:26:31.145Z</time>
    </trkpt>
    <trkpt lat="56.327913" lon="60.825056">
        <ele>272.4</ele>
        <time>1970-01-01T11:26:32.145Z</time>
    </trkpt>
    <trkpt lat="56.327883" lon="60.825025">
        <ele>272.4</ele>
        <time>1970-01-01T11:26:33.145Z</time>
    </trkpt>
    <trkpt lat="56.327873" lon="60.825015">
        <ele>272.4</ele>
        <time>1970-01-01T11:26:34.145Z</time>
    </trkpt>
    <trkpt lat="56.327845" lon="60.82498">
        <ele>272.4</ele>
        <time>1970-01-01T11:26:35.145Z</time>
    </trkpt>
    <trkpt lat="56.327836" lon="60.824964">
        <ele>272.4</ele>
        <time>1970-01-01T11:26:36.145Z</time>
    </trkpt>
    <trkpt lat="56.327807" lon="60.824937">
        <ele>272.4</ele>
        <time>1970-01-01T11:26:37.145Z</time>
    </trkpt>
    <trkpt lat="56.327797" lon="60.824933">
        <ele>272.4</ele>
        <time>1970-01-01T11:26:38.145Z</time>
    </trkpt>
    <trkpt lat="56.327769" lon="60.824926">
        <ele>272.4</ele>
        <time>1970-01-01T11:26:39.145Z</time>
    </trkpt>
    <trkpt lat="56.327753" lon="60.824927">
        <ele>272.4</ele>
        <time>1970-01-01T11:26:40.145Z</time>
    </trkpt>
    <trkpt lat="56.327739" lon="60.824917">
        <ele>272.4</ele>
        <time>1970-01-01T11:26:41.145Z</time>
    </trkpt>
    <trkpt lat="56.327724" lon="60.824903">
        <ele>272.4</ele>
        <time>1970-01-01T11:26:42.145Z</time>
    </trkpt>
    <trkpt lat="56.327711" lon="60.824889">
        <ele>272.4</ele>
        <time>1970-01-01T11:26:43.145Z</time>
    </trkpt>
    <trkpt lat="56.327698" lon="60.824885">
        <ele>272.3</ele>
        <time>1970-01-01T11:26:44.145Z</time>
    </trkpt>
    <trkpt lat="56.327683" lon="60.824879">
        <ele>272.3</ele>
        <time>1970-01-01T11:26:45.145Z</time>
    </trkpt>
    <trkpt lat="56.327672" lon="60.824885">
        <ele>272.3</ele>
        <time>1970-01-01T11:26:46.145Z</time>
    </trkpt>
    <trkpt lat="56.327664" lon="60.824896">
        <ele>272.3</ele>
        <time>1970-01-01T11:26:47.145Z</time>
    </trkpt>
    <trkpt lat="56.327665" lon="60.824892">
        <ele>272.3</ele>
        <time>1970-01-01T11:26:48.145Z</time>
    </trkpt>
    <trkpt lat="56.327659" lon="60.824904">
        <ele>272.3</ele>
        <time>1970-01-01T11:26:49.145Z</time>
    </trkpt>
    <trkpt lat="56.327658" lon="60.824915">
        <ele>272.3</ele>
        <time>1970-01-01T11:26:50.145Z</time>
    </trkpt>
    <trkpt lat="56.327645" lon="60.824928">
        <ele>272.3</ele>
        <time>1970-01-01T11:26:51.145Z</time>
    </trkpt>
    <trkpt lat="56.327638" lon="60.824936">
        <ele>272.3</ele>
        <time>1970-01-01T11:26:52.145Z</time>
    </trkpt>
    <trkpt lat="56.327629" lon="60.824937">
        <ele>272.3</ele>
        <time>1970-01-01T11:26:53.145Z</time>
    </trkpt>
    <trkpt lat="56.327599" lon="60.824945">
        <ele>272.3</ele>
        <time>1970-01-01T11:26:54.145Z</time>
    </trkpt>
    <trkpt lat="56.327591" lon="60.824941">
        <ele>272.3</ele>
        <time>1970-01-01T11:26:55.145Z</time>
    </trkpt>
    <trkpt lat="56.32756" lon="60.824923">
        <ele>272.3</ele>
        <time>1970-01-01T11:26:56.145Z</time>
    </trkpt>
    <trkpt lat="56.32754" lon="60.824908">
        <ele>272.3</ele>
        <time>1970-01-01T11:26:57.145Z</time>
    </trkpt>
    <trkpt lat="56.327532" lon="60.824894">
        <ele>272.3</ele>
        <time>1970-01-01T11:26:58.145Z</time>
    </trkpt>
    <trkpt lat="56.327526" lon="60.824885">
        <ele>272.3</ele>
        <time>1970-01-01T11:26:59.145Z</time>
    </trkpt>
    <trkpt lat="56.327507" lon="60.824845">
        <ele>272.3</ele>
        <time>1970-01-01T11:27:00.145Z</time>
    </trkpt>
    <trkpt lat="56.327489" lon="60.824801">
        <ele>272.2</ele>
        <time>1970-01-01T11:27:01.145Z</time>
    </trkpt>
    <trkpt lat="56.327484" lon="60.824783">
        <ele>272.2</ele>
        <time>1970-01-01T11:27:02.145Z</time>
    </trkpt>
    <trkpt lat="56.32747" lon="60.824721">
        <ele>272.2</ele>
        <time>1970-01-01T11:27:03.145Z</time>
    </trkpt>
    <trkpt lat="56.32745" lon="60.824677">
        <ele>272.2</ele>
        <time>1970-01-01T11:27:04.145Z</time>
    </trkpt>
    <trkpt lat="56.327439" lon="60.824633">
        <ele>272.2</ele>
        <time>1970-01-01T11:27:05.145Z</time>
    </trkpt>
    <trkpt lat="56.327435" lon="60.82462">
        <ele>272.2</ele>
        <time>1970-01-01T11:27:06.145Z</time>
    </trkpt>
    <trkpt lat="56.327417" lon="60.824572">
        <ele>272.2</ele>
        <time>1970-01-01T11:27:07.145Z</time>
    </trkpt>
    <trkpt lat="56.327406" lon="60.824543">
        <ele>272.2</ele>
        <time>1970-01-01T11:27:08.145Z</time>
    </trkpt>
    <trkpt lat="56.327374" lon="60.824498">
        <ele>272.2</ele>
        <time>1970-01-01T11:27:18.145Z</time>
    </trkpt>
    <trkpt lat="56.327373" lon="60.824499">
        <ele>272.2</ele>
        <time>1970-01-01T11:27:19.145Z</time>
    </trkpt>
    <trkpt lat="56.327374" lon="60.824502">
        <ele>272.2</ele>
        <time>1970-01-01T11:27:20.145Z</time>
    </trkpt>
    <trkpt lat="56.327376" lon="60.824507">
        <ele>272.2</ele>
        <time>1970-01-01T11:27:21.145Z</time>
    </trkpt>
    <trkpt lat="56.327379" lon="60.824506">
        <ele>272.2</ele>
        <time>1970-01-01T11:27:22.145Z</time>
    </trkpt>
    <trkpt lat="56.327378" lon="60.824503">
        <ele>272.2</ele>
        <time>1970-01-01T11:27:23.145Z</time>
    </trkpt>
    <trkpt lat="56.327375" lon="60.824501">
        <ele>272.1</ele>
        <time>1970-01-01T11:27:24.145Z</time>
    </trkpt>
    <trkpt lat="56.327372" lon="60.824503">
        <ele>272.1</ele>
        <time>1970-01-01T11:27:25.145Z</time>
    </trkpt>
    <trkpt lat="56.327371" lon="60.824501">
        <ele>272.1</ele>
        <time>1970-01-01T11:27:26.145Z</time>
    </trkpt>
    <trkpt lat="56.327365" lon="60.824492">
        <ele>272.1</ele>
        <time>1970-01-01T11:27:27.145Z</time>
    </trkpt>
    <trkpt lat="56.327357" lon="60.824492">
        <ele>272.1</ele>
        <time>1970-01-01T11:27:28.145Z</time>
    </trkpt>
    <trkpt lat="56.327348" lon="60.824487">
        <ele>272.1</ele>
        <time>1970-01-01T11:27:29.145Z</time>
    </trkpt>
    <trkpt lat="56.327338" lon="60.824489">
        <ele>272.1</ele>
        <time>1970-01-01T11:27:30.145Z</time>
    </trkpt>
    <trkpt lat="56.327278" lon="60.824432">
        <ele>272.1</ele>
        <time>1970-01-01T11:27:39.145Z</time>
    </trkpt>
    <trkpt lat="56.327278" lon="60.824432">
        <ele>272.1</ele>
        <time>1970-01-01T11:27:40.145Z</time>
    </trkpt>
    <trkpt lat="56.327273" lon="60.824428">
        <ele>272.1</ele>
        <time>1970-01-01T11:27:41.145Z</time>
    </trkpt>
    <trkpt lat="56.327267" lon="60.824414">
        <ele>272.1</ele>
        <time>1970-01-01T11:27:42.145Z</time>
    </trkpt>
    <trkpt lat="56.327259" lon="60.824403">
        <ele>272.1</ele>
        <time>1970-01-01T11:27:43.145Z</time>
    </trkpt>
    <trkpt lat="56.327254" lon="60.824402">
        <ele>272.1</ele>
        <time>1970-01-01T11:27:44.145Z</time>
    </trkpt>
    <trkpt lat="56.327246" lon="60.8244">
        <ele>272.1</ele>
        <time>1970-01-01T11:27:45.145Z</time>
    </trkpt>
    <trkpt lat="56.327233" lon="60.824387">
        <ele>272.1</ele>
        <time>1970-01-01T11:27:46.145Z</time>
    </trkpt>
    <trkpt lat="56.327237" lon="60.824376">
        <ele>272.1</ele>
        <time>1970-01-01T11:27:47.145Z</time>
    </trkpt>
    <trkpt lat="56.327226" lon="60.82436">
        <ele>272.1</ele>
        <time>1970-01-01T11:27:48.145Z</time>
    </trkpt>
    <trkpt lat="56.327213" lon="60.824359">
        <ele>272.1</ele>
        <time>1970-01-01T11:27:49.145Z</time>
    </trkpt>
    <trkpt lat="56.327193" lon="60.824346">
        <ele>272.1</ele>
        <time>1970-01-01T11:27:50.145Z</time>
    </trkpt>
    <trkpt lat="56.32718" lon="60.824318">
        <ele>272.1</ele>
        <time>1970-01-01T11:27:51.145Z</time>
    </trkpt>
    <trkpt lat="56.327168" lon="60.824306">
        <ele>272.0</ele>
        <time>1970-01-01T11:27:52.145Z</time>
    </trkpt>
    <trkpt lat="56.327147" lon="60.824256">
        <ele>272.0</ele>
        <time>1970-01-01T11:27:53.145Z</time>
    </trkpt>
    <trkpt lat="56.327141" lon="60.824237">
        <ele>272.0</ele>
        <time>1970-01-01T11:27:54.145Z</time>
    </trkpt>
    <trkpt lat="56.327122" lon="60.824191">
        <ele>272.0</ele>
        <time>1970-01-01T11:27:55.145Z</time>
    </trkpt>
    <trkpt lat="56.327106" lon="60.824146">
        <ele>272.0</ele>
        <time>1970-01-01T11:27:56.145Z</time>
    </trkpt>
    <trkpt lat="56.327089" lon="60.824107">
        <ele>272.0</ele>
        <time>1970-01-01T11:27:57.145Z</time>
    </trkpt>
    <trkpt lat="56.327074" lon="60.824049">
        <ele>272.0</ele>
        <time>1970-01-01T11:27:58.145Z</time>
    </trkpt>
    <trkpt lat="56.327068" lon="60.824022">
        <ele>272.0</ele>
        <time>1970-01-01T11:27:59.145Z</time>
    </trkpt>
    <trkpt lat="56.327055" lon="60.823976">
        <ele>272.0</ele>
        <time>1970-01-01T11:28:00.145Z</time>
    </trkpt>
    <trkpt lat="56.327035" lon="60.823934">
        <ele>271.9</ele>
        <time>1970-01-01T11:28:01.145Z</time>
    </trkpt>
    <trkpt lat="56.327012" lon="60.823886">
        <ele>271.9</ele>
        <time>1970-01-01T11:28:02.145Z</time>
    </trkpt>
    <trkpt lat="56.326989" lon="60.82385">
        <ele>271.9</ele>
        <time>1970-01-01T11:28:03.145Z</time>
    </trkpt>
    <trkpt lat="56.326967" lon="60.823814">
        <ele>271.9</ele>
        <time>1970-01-01T11:28:04.145Z</time>
    </trkpt>
    <trkpt lat="56.326944" lon="60.823774">
        <ele>271.9</ele>
        <time>1970-01-01T11:28:05.145Z</time>
    </trkpt>
    <trkpt lat="56.326929" lon="60.82376">
        <ele>271.9</ele>
        <time>1970-01-01T11:28:06.145Z</time>
    </trkpt>
    <trkpt lat="56.326895" lon="60.823725">
        <ele>271.9</ele>
        <time>1970-01-01T11:28:07.145Z</time>
    </trkpt>
    <trkpt lat="56.326887" lon="60.823714">
        <ele>271.9</ele>
        <time>1970-01-01T11:28:08.145Z</time>
    </trkpt>
    <trkpt lat="56.326857" lon="60.82369">
        <ele>271.9</ele>
        <time>1970-01-01T11:28:09.145Z</time>
    </trkpt>
    <trkpt lat="56.326848" lon="60.823684">
        <ele>271.8</ele>
        <time>1970-01-01T11:28:10.145Z</time>
    </trkpt>
    <trkpt lat="56.326818" lon="60.823668">
        <ele>271.8</ele>
        <time>1970-01-01T11:28:11.145Z</time>
    </trkpt>
    <trkpt lat="56.326805" lon="60.823661">
        <ele>271.8</ele>
        <time>1970-01-01T11:28:12.145Z</time>
    </trkpt>
    <trkpt lat="56.326777" lon="60.823631">
        <ele>271.8</ele>
        <time>1970-01-01T11:28:13.145Z</time>
    </trkpt>
    <trkpt lat="56.32677" lon="60.823616">
        <ele>271.8</ele>
        <time>1970-01-01T11:28:14.145Z</time>
    </trkpt>
    <trkpt lat="56.326746" lon="60.82357">
        <ele>271.8</ele>
        <time>1970-01-01T11:28:15.145Z</time>
    </trkpt>
    <trkpt lat="56.326732" lon="60.823557">
        <ele>271.8</ele>
        <time>1970-01-01T11:28:16.145Z</time>
    </trkpt>
    <trkpt lat="56.326728" lon="60.823539">
        <ele>271.8</ele>
        <time>1970-01-01T11:28:17.145Z</time>
    </trkpt>
    <trkpt lat="56.326683" lon="60.823515">
        <ele>271.8</ele>
        <time>1970-01-01T11:28:28.145Z</time>
    </trkpt>
    <trkpt lat="56.326683" lon="60.823515">
        <ele>271.8</ele>
        <time>1970-01-01T11:28:29.145Z</time>
    </trkpt>
    <trkpt lat="56.326683" lon="60.823513">
        <ele>271.8</ele>
        <time>1970-01-01T11:28:30.145Z</time>
    </trkpt>
    <trkpt lat="56.326684" lon="60.823509">
        <ele>271.8</ele>
        <time>1970-01-01T11:28:31.145Z</time>
    </trkpt>
    <trkpt lat="56.32668" lon="60.823508">
        <ele>271.8</ele>
        <time>1970-01-01T11:28:32.145Z</time>
    </trkpt>
    <trkpt lat="56.326677" lon="60.823511">
        <ele>271.8</ele>
        <time>1970-01-01T11:28:33.145Z</time>
    </trkpt>
    <trkpt lat="56.326668" lon="60.823508">
        <ele>271.8</ele>
        <time>1970-01-01T11:28:34.145Z</time>
    </trkpt>
    <trkpt lat="56.326667" lon="60.823507">
        <ele>271.8</ele>
        <time>1970-01-01T11:28:35.145Z</time>
    </trkpt>
    <trkpt lat="56.32666" lon="60.823499">
        <ele>271.8</ele>
        <time>1970-01-01T11:28:36.145Z</time>
    </trkpt>
    <trkpt lat="56.326656" lon="60.823492">
        <ele>271.8</ele>
        <time>1970-01-01T11:28:37.145Z</time>
    </trkpt>
    <trkpt lat="56.326638" lon="60.82348">
        <ele>271.7</ele>
        <time>1970-01-01T11:28:38.145Z</time>
    </trkpt>
    <trkpt lat="56.326626" lon="60.823483">
        <ele>271.7</ele>
        <time>1970-01-01T11:28:39.145Z</time>
    </trkpt>
    <trkpt lat="56.326615" lon="60.823476">
        <ele>271.7</ele>
        <time>1970-01-01T11:28:40.145Z</time>
    </trkpt>
    <trkpt lat="56.326588" lon="60.823463">
        <ele>271.7</ele>
        <time>1970-01-01T11:28:41.145Z</time>
    </trkpt>
    <trkpt lat="56.326578" lon="60.823449">
        <ele>271.7</ele>
        <time>1970-01-01T11:28:42.145Z</time>
    </trkpt>
    <trkpt lat="56.326543" lon="60.823419">
        <ele>271.7</ele>
        <time>1970-01-01T11:28:43.145Z</time>
    </trkpt>
    <trkpt lat="56.326531" lon="60.823412">
        <ele>271.7</ele>
        <time>1970-01-01T11:28:44.145Z</time>
    </trkpt>
    <trkpt lat="56.326502" lon="60.823375">
        <ele>271.7</ele>
        <time>1970-01-01T11:28:45.145Z</time>
    </trkpt>
    <trkpt lat="56.326494" lon="60.823368">
        <ele>271.7</ele>
        <time>1970-01-01T11:28:46.145Z</time>
    </trkpt>
    <trkpt lat="56.326469" lon="60.823334">
        <ele>271.7</ele>
        <time>1970-01-01T11:28:47.145Z</time>
    </trkpt>
    <trkpt lat="56.326463" lon="60.823311">
        <ele>271.7</ele>
        <time>1970-01-01T11:28:48.145Z</time>
    </trkpt>
    <trkpt lat="56.326434" lon="60.82326">
        <ele>271.6</ele>
        <time>1970-01-01T11:28:49.145Z</time>
    </trkpt>
    <trkpt lat="56.326426" lon="60.823247">
        <ele>271.6</ele>
        <time>1970-01-01T11:28:50.145Z</time>
    </trkpt>
    <trkpt lat="56.326405" lon="60.823202">
        <ele>271.6</ele>
        <time>1970-01-01T11:28:51.145Z</time>
    </trkpt>
    <trkpt lat="56.326394" lon="60.82319">
        <ele>271.6</ele>
        <time>1970-01-01T11:28:52.145Z</time>
    </trkpt>
    <trkpt lat="56.326368" lon="60.823137">
        <ele>271.6</ele>
        <time>1970-01-01T11:28:53.145Z</time>
    </trkpt>
    <trkpt lat="56.32636" lon="60.823116">
        <ele>271.6</ele>
        <time>1970-01-01T11:28:54.145Z</time>
    </trkpt>
    <trkpt lat="56.326345" lon="60.82305">
        <ele>271.6</ele>
        <time>1970-01-01T11:28:55.145Z</time>
    </trkpt>
    <trkpt lat="56.326339" lon="60.823029">
        <ele>271.6</ele>
        <time>1970-01-01T11:28:56.145Z</time>
    </trkpt>
    <trkpt lat="56.326324" lon="60.822967">
        <ele>271.6</ele>
        <time>1970-01-01T11:28:57.145Z</time>
    </trkpt>
    <trkpt lat="56.326323" lon="60.82295">
        <ele>271.6</ele>
        <time>1970-01-01T11:28:58.145Z</time>
    </trkpt>
    <trkpt lat="56.326316" lon="60.822887">
        <ele>271.5</ele>
        <time>1970-01-01T11:28:59.145Z</time>
    </trkpt>
    <trkpt lat="56.326304" lon="60.82284">
        <ele>271.5</ele>
        <time>1970-01-01T11:29:00.145Z</time>
    </trkpt>
    <trkpt lat="56.326301" lon="60.822816">
        <ele>271.5</ele>
        <time>1970-01-01T11:29:01.145Z</time>
    </trkpt>
    <trkpt lat="56.326288" lon="60.822749">
        <ele>271.5</ele>
        <time>1970-01-01T11:29:02.145Z</time>
    </trkpt>
    <trkpt lat="56.326281" lon="60.822725">
        <ele>271.5</ele>
        <time>1970-01-01T11:29:03.145Z</time>
    </trkpt>
    <trkpt lat="56.326231" lon="60.822659">
        <ele>271.5</ele>
        <time>1970-01-01T11:29:10.145Z</time>
    </trkpt>
    <trkpt lat="56.326227" lon="60.82265">
        <ele>271.5</ele>
        <time>1970-01-01T11:29:11.145Z</time>
    </trkpt>
    <trkpt lat="56.326222" lon="60.822636">
        <ele>271.5</ele>
        <time>1970-01-01T11:29:12.145Z</time>
    </trkpt>
    <trkpt lat="56.326217" lon="60.822627">
        <ele>271.5</ele>
        <time>1970-01-01T11:29:13.145Z</time>
    </trkpt>
    <trkpt lat="56.326218" lon="60.822617">
        <ele>271.5</ele>
        <time>1970-01-01T11:29:14.145Z</time>
    </trkpt>
    <trkpt lat="56.32621" lon="60.822605">
        <ele>271.5</ele>
        <time>1970-01-01T11:29:15.145Z</time>
    </trkpt>
    <trkpt lat="56.3262" lon="60.822602">
        <ele>271.5</ele>
        <time>1970-01-01T11:29:16.145Z</time>
    </trkpt>
    <trkpt lat="56.326192" lon="60.822584">
        <ele>271.5</ele>
        <time>1970-01-01T11:29:17.145Z</time>
    </trkpt>
    <trkpt lat="56.326185" lon="60.822574">
        <ele>271.5</ele>
        <time>1970-01-01T11:29:18.145Z</time>
    </trkpt>
    <trkpt lat="56.326181" lon="60.82257">
        <ele>271.4</ele>
        <time>1970-01-01T11:29:19.145Z</time>
    </trkpt>
    <trkpt lat="56.326172" lon="60.822574">
        <ele>271.4</ele>
        <time>1970-01-01T11:29:20.145Z</time>
    </trkpt>
    <trkpt lat="56.326157" lon="60.822568">
        <ele>271.4</ele>
        <time>1970-01-01T11:29:21.145Z</time>
    </trkpt>
    <trkpt lat="56.326149" lon="60.822558">
        <ele>271.4</ele>
        <time>1970-01-01T11:29:22.145Z</time>
    </trkpt>
    <trkpt lat="56.32612" lon="60.82252">
        <ele>271.4</ele>
        <time>1970-01-01T11:29:23.145Z</time>
    </trkpt>
    <trkpt lat="56.326099" lon="60.822487">
        <ele>271.4</ele>
        <time>1970-01-01T11:29:24.145Z</time>
    </trkpt>
    <trkpt lat="56.32609" lon="60.822472">
        <ele>271.4</ele>
        <time>1970-01-01T11:29:25.145Z</time>
    </trkpt>
    <trkpt lat="56.326059" lon="60.822434">
        <ele>271.4</ele>
        <time>1970-01-01T11:29:26.145Z</time>
    </trkpt>
    <trkpt lat="56.326043" lon="60.822423">
        <ele>271.4</ele>
        <time>1970-01-01T11:29:27.145Z</time>
    </trkpt>
    <trkpt lat="56.326029" lon="60.822404">
        <ele>271.4</ele>
        <time>1970-01-01T11:29:28.145Z</time>
    </trkpt>
    <trkpt lat="56.326003" lon="60.822371">
        <ele>271.4</ele>
        <time>1970-01-01T11:29:29.145Z</time>
    </trkpt>
    <trkpt lat="56.325993" lon="60.822362">
        <ele>271.4</ele>
        <time>1970-01-01T11:29:30.145Z</time>
    </trkpt>
    <trkpt lat="56.325968" lon="60.822334">
        <ele>271.3</ele>
        <time>1970-01-01T11:29:31.145Z</time>
    </trkpt>
    <trkpt lat="56.325957" lon="60.822329">
        <ele>271.3</ele>
        <time>1970-01-01T11:29:32.145Z</time>
    </trkpt>
    <trkpt lat="56.325924" lon="60.822306">
        <ele>271.3</ele>
        <time>1970-01-01T11:29:33.145Z</time>
    </trkpt>
    <trkpt lat="56.32591" lon="60.822303">
        <ele>271.3</ele>
        <time>1970-01-01T11:29:34.145Z</time>
    </trkpt>
    <trkpt lat="56.325875" lon="60.822287">
        <ele>271.3</ele>
        <time>1970-01-01T11:29:35.145Z</time>
    </trkpt>
    <trkpt lat="56.325864" lon="60.822285">
        <ele>271.3</ele>
        <time>1970-01-01T11:29:36.145Z</time>
    </trkpt>
    <trkpt lat="56.325832" lon="60.822266">
        <ele>271.3</ele>
        <time>1970-01-01T11:29:37.145Z</time>
    </trkpt>
    <trkpt lat="56.325805" lon="60.822263">
        <ele>271.3</ele>
        <time>1970-01-01T11:29:38.145Z</time>
    </trkpt>
    <trkpt lat="56.325784" lon="60.822256">
        <ele>271.3</ele>
        <time>1970-01-01T11:29:39.145Z</time>
    </trkpt>
    <trkpt lat="56.325776" lon="60.822262">
        <ele>271.3</ele>
        <time>1970-01-01T11:29:40.145Z</time>
    </trkpt>
    <trkpt lat="56.325754" lon="60.822279">
        <ele>271.3</ele>
        <time>1970-01-01T11:29:41.145Z</time>
    </trkpt>
    <trkpt lat="56.325748" lon="60.822283">
        <ele>271.3</ele>
        <time>1970-01-01T11:29:42.145Z</time>
    </trkpt>
    <trkpt lat="56.325728" lon="60.822297">
        <ele>271.2</ele>
        <time>1970-01-01T11:29:43.145Z</time>
    </trkpt>
    <trkpt lat="56.325714" lon="60.822302">
        <ele>271.2</ele>
        <time>1970-01-01T11:29:44.145Z</time>
    </trkpt>
    <trkpt lat="56.325696" lon="60.822314">
        <ele>271.2</ele>
        <time>1970-01-01T11:29:45.145Z</time>
    </trkpt>
    <trkpt lat="56.325685" lon="60.822321">
        <ele>271.2</ele>
        <time>1970-01-01T11:29:46.145Z</time>
    </trkpt>
    <trkpt lat="56.325671" lon="60.822337">
        <ele>271.2</ele>
        <time>1970-01-01T11:29:47.145Z</time>
    </trkpt>
    <trkpt lat="56.325659" lon="60.822349">
        <ele>271.2</ele>
        <time>1970-01-01T11:29:48.145Z</time>
    </trkpt>
    <trkpt lat="56.325651" lon="60.822361">
        <ele>271.2</ele>
        <time>1970-01-01T11:29:49.145Z</time>
    </trkpt>
    <trkpt lat="56.325628" lon="60.822387">
        <ele>271.2</ele>
        <time>1970-01-01T11:29:50.145Z</time>
    </trkpt>
    <trkpt lat="56.325614" lon="60.822398">
        <ele>271.2</ele>
        <time>1970-01-01T11:29:51.145Z</time>
    </trkpt>
    <trkpt lat="56.325599" lon="60.822403">
        <ele>271.2</ele>
        <time>1970-01-01T11:29:52.145Z</time>
    </trkpt>
    <trkpt lat="56.325579" lon="60.822404">
        <ele>271.2</ele>
        <time>1970-01-01T11:29:53.145Z</time>
    </trkpt>
    <trkpt lat="56.325567" lon="60.822408">
        <ele>271.2</ele>
        <time>1970-01-01T11:29:54.145Z</time>
    </trkpt>
    <trkpt lat="56.32555" lon="60.822395">
        <ele>271.2</ele>
        <time>1970-01-01T11:29:55.145Z</time>
    </trkpt>
    <trkpt lat="56.325535" lon="60.822394">
        <ele>271.2</ele>
        <time>1970-01-01T11:29:56.145Z</time>
    </trkpt>
    <trkpt lat="56.32552" lon="60.822389">
        <ele>271.1</ele>
        <time>1970-01-01T11:29:57.145Z</time>
    </trkpt>
    <trkpt lat="56.325509" lon="60.822379">
        <ele>271.1</ele>
        <time>1970-01-01T11:29:58.145Z</time>
    </trkpt>
    <trkpt lat="56.325435" lon="60.82236">
        <ele>271.1</ele>
        <time>1970-01-01T11:30:47.145Z</time>
    </trkpt>
    <trkpt lat="56.325434" lon="60.822362">
        <ele>271.1</ele>
        <time>1970-01-01T11:30:48.145Z</time>
    </trkpt>
    <trkpt lat="56.325432" lon="60.822356">
        <ele>271.1</ele>
        <time>1970-01-01T11:30:49.145Z</time>
    </trkpt>
    <trkpt lat="56.325428" lon="60.822363">
        <ele>271.1</ele>
        <time>1970-01-01T11:30:50.145Z</time>
    </trkpt>
    <trkpt lat="56.32542" lon="60.822371">
        <ele>271.1</ele>
        <time>1970-01-01T11:30:51.145Z</time>
    </trkpt>
    <trkpt lat="56.325413" lon="60.822372">
        <ele>271.1</ele>
        <time>1970-01-01T11:30:52.145Z</time>
    </trkpt>
    <trkpt lat="56.325408" lon="60.822371">
        <ele>271.1</ele>
        <time>1970-01-01T11:30:53.145Z</time>
    </trkpt>
    <trkpt lat="56.325405" lon="60.822366">
        <ele>271.1</ele>
        <time>1970-01-01T11:30:54.145Z</time>
    </trkpt>
    <trkpt lat="56.325397" lon="60.822359">
        <ele>271.1</ele>
        <time>1970-01-01T11:30:55.145Z</time>
    </trkpt>
    <trkpt lat="56.325393" lon="60.822358">
        <ele>271.1</ele>
        <time>1970-01-01T11:30:56.145Z</time>
    </trkpt>
    <trkpt lat="56.325384" lon="60.822358">
        <ele>271.1</ele>
        <time>1970-01-01T11:30:57.145Z</time>
    </trkpt>
    <trkpt lat="56.325375" lon="60.822353">
        <ele>271.1</ele>
        <time>1970-01-01T11:30:58.145Z</time>
    </trkpt>
    <trkpt lat="56.325362" lon="60.82234">
        <ele>271.1</ele>
        <time>1970-01-01T11:30:59.145Z</time>
    </trkpt>
    <trkpt lat="56.325352" lon="60.82233">
        <ele>271.1</ele>
        <time>1970-01-01T11:31:00.145Z</time>
    </trkpt>
    <trkpt lat="56.325348" lon="60.822329">
        <ele>271.1</ele>
        <time>1970-01-01T11:31:01.145Z</time>
    </trkpt>
    <trkpt lat="56.32534" lon="60.822317">
        <ele>271.1</ele>
        <time>1970-01-01T11:31:02.145Z</time>
    </trkpt>
    <trkpt lat="56.325332" lon="60.822316">
        <ele>271.1</ele>
        <time>1970-01-01T11:31:03.145Z</time>
    </trkpt>
    <trkpt lat="56.325324" lon="60.822302">
        <ele>271.1</ele>
        <time>1970-01-01T11:31:04.145Z</time>
    </trkpt>
    <trkpt lat="56.325317" lon="60.822288">
        <ele>271.1</ele>
        <time>1970-01-01T11:31:05.145Z</time>
    </trkpt>
    <trkpt lat="56.325297" lon="60.822275">
        <ele>271.0</ele>
        <time>1970-01-01T11:31:06.145Z</time>
    </trkpt>
    <trkpt lat="56.32529" lon="60.822272">
        <ele>271.0</ele>
        <time>1970-01-01T11:31:07.145Z</time>
    </trkpt>
    <trkpt lat="56.325283" lon="60.822269">
        <ele>271.0</ele>
        <time>1970-01-01T11:31:08.145Z</time>
    </trkpt>
    <trkpt lat="56.325254" lon="60.822251">
        <ele>271.0</ele>
        <time>1970-01-01T11:31:09.145Z</time>
    </trkpt>
    <trkpt lat="56.325238" lon="60.822246">
        <ele>271.1</ele>
        <time>1970-01-01T11:31:10.145Z</time>
    </trkpt>
    <trkpt lat="56.325225" lon="60.822241">
        <ele>271.1</ele>
        <time>1970-01-01T11:31:11.145Z</time>
    </trkpt>
    <trkpt lat="56.325215" lon="60.822237">
        <ele>271.1</ele>
        <time>1970-01-01T11:31:12.145Z</time>
    </trkpt>
    <trkpt lat="56.325203" lon="60.822223">
        <ele>271.1</ele>
        <time>1970-01-01T11:31:13.145Z</time>
    </trkpt>
    <trkpt lat="56.325135" lon="60.822198">
        <ele>271.1</ele>
        <time>1970-01-01T11:31:26.145Z</time>
    </trkpt>
    <trkpt lat="56.325135" lon="60.822198">
        <ele>271.1</ele>
        <time>1970-01-01T11:31:27.145Z</time>
    </trkpt>
    <trkpt lat="56.325127" lon="60.822199">
        <ele>271.1</ele>
        <time>1970-01-01T11:31:28.145Z</time>
    </trkpt>
    <trkpt lat="56.325126" lon="60.822198">
        <ele>271.1</ele>
        <time>1970-01-01T11:31:29.145Z</time>
    </trkpt>
    <trkpt lat="56.325124" lon="60.8222">
        <ele>271.1</ele>
        <time>1970-01-01T11:31:30.145Z</time>
    </trkpt>
    <trkpt lat="56.325121" lon="60.8222">
        <ele>271.1</ele>
        <time>1970-01-01T11:31:31.145Z</time>
    </trkpt>
    <trkpt lat="56.32512" lon="60.822199">
        <ele>271.1</ele>
        <time>1970-01-01T11:31:32.145Z</time>
    </trkpt>
    <trkpt lat="56.325119" lon="60.822191">
        <ele>271.1</ele>
        <time>1970-01-01T11:31:33.145Z</time>
    </trkpt>
    <trkpt lat="56.325117" lon="60.82219">
        <ele>271.1</ele>
        <time>1970-01-01T11:31:34.145Z</time>
    </trkpt>
    <trkpt lat="56.325123" lon="60.822187">
        <ele>271.1</ele>
        <time>1970-01-01T11:31:35.145Z</time>
    </trkpt>
    <trkpt lat="56.325129" lon="60.822183">
        <ele>271.1</ele>
        <time>1970-01-01T11:31:36.145Z</time>
    </trkpt>
    <trkpt lat="56.325138" lon="60.822182">
        <ele>271.1</ele>
        <time>1970-01-01T11:31:37.145Z</time>
    </trkpt>
    <trkpt lat="56.325146" lon="60.82219">
        <ele>271.1</ele>
        <time>1970-01-01T11:31:38.145Z</time>
    </trkpt>
    <trkpt lat="56.325148" lon="60.822186">
        <ele>271.1</ele>
        <time>1970-01-01T11:31:39.145Z</time>
    </trkpt>
    <trkpt lat="56.325142" lon="60.822179">
        <ele>271.2</ele>
        <time>1970-01-01T11:31:40.145Z</time>
    </trkpt>
    <trkpt lat="56.325146" lon="60.822175">
        <ele>271.2</ele>
        <time>1970-01-01T11:31:41.145Z</time>
    </trkpt>
    <trkpt lat="56.325142" lon="60.822171">
        <ele>271.2</ele>
        <time>1970-01-01T11:31:42.145Z</time>
    </trkpt>
    <trkpt lat="56.325133" lon="60.822184">
        <ele>271.2</ele>
        <time>1970-01-01T11:31:43.145Z</time>
    </trkpt>
    <trkpt lat="56.325136" lon="60.82219">
        <ele>271.2</ele>
        <time>1970-01-01T11:31:44.145Z</time>
    </trkpt>
    <trkpt lat="56.325137" lon="60.822187">
        <ele>271.2</ele>
        <time>1970-01-01T11:31:45.145Z</time>
    </trkpt>
    <trkpt lat="56.32513" lon="60.822116">
        <ele>271.2</ele>
        <time>1970-01-01T11:32:04.145Z</time>
    </trkpt>
    <trkpt lat="56.32513" lon="60.822116">
        <ele>271.2</ele>
        <time>1970-01-01T11:32:05.145Z</time>
    </trkpt>
    <trkpt lat="56.32513" lon="60.822116">
        <ele>271.2</ele>
        <time>1970-01-01T11:32:06.145Z</time>
    </trkpt>
    <trkpt lat="56.32513" lon="60.822116">
        <ele>271.2</ele>
        <time>1970-01-01T11:32:07.145Z</time>
    </trkpt>
    <trkpt lat="56.32513" lon="60.822116">
        <ele>271.2</ele>
        <time>1970-01-01T11:32:08.145Z</time>
    </trkpt>
    <trkpt lat="56.32513" lon="60.822116">
        <ele>271.2</ele>
        <time>1970-01-01T11:32:09.145Z</time>
    </trkpt>
    <trkpt lat="56.32513" lon="60.822116">
        <ele>271.2</ele>
        <time>1970-01-01T11:32:10.145Z</time>
    </trkpt>
    <trkpt lat="56.32513" lon="60.822116">
        <ele>271.2</ele>
        <time>1970-01-01T11:32:11.145Z</time>
    </trkpt>
    <trkpt lat="56.325132" lon="60.822111">
        <ele>271.2</ele>
        <time>1970-01-01T11:32:12.145Z</time>
    </trkpt>
    <trkpt lat="56.325137" lon="60.822106">
        <ele>271.2</ele>
        <time>1970-01-01T11:32:13.145Z</time>
    </trkpt>
    <trkpt lat="56.32514" lon="60.822107">
        <ele>271.2</ele>
        <time>1970-01-01T11:32:14.145Z</time>
    </trkpt>
    <trkpt lat="56.325138" lon="60.822105">
        <ele>271.2</ele>
        <time>1970-01-01T11:32:15.145Z</time>
    </trkpt>
    <trkpt lat="56.325153" lon="60.822112">
        <ele>271.2</ele>
        <time>1970-01-01T11:32:16.145Z</time>
    </trkpt>
    <trkpt lat="56.325157" lon="60.822104">
        <ele>271.2</ele>
        <time>1970-01-01T11:32:17.145Z</time>
    </trkpt>
    <trkpt lat="56.325164" lon="60.8221">
        <ele>271.2</ele>
        <time>1970-01-01T11:32:18.145Z</time>
    </trkpt>
    <trkpt lat="56.32518" lon="60.822111">
        <ele>271.2</ele>
        <time>1970-01-01T11:32:19.145Z</time>
    </trkpt>
    <trkpt lat="56.325189" lon="60.822111">
        <ele>271.2</ele>
        <time>1970-01-01T11:32:20.145Z</time>
    </trkpt>
    <trkpt lat="56.3252" lon="60.822121">
        <ele>271.2</ele>
        <time>1970-01-01T11:32:21.145Z</time>
    </trkpt>
    <trkpt lat="56.32519" lon="60.822119">
        <ele>271.2</ele>
        <time>1970-01-01T11:32:22.145Z</time>
    </trkpt>
    <trkpt lat="56.325193" lon="60.822117">
        <ele>271.2</ele>
        <time>1970-01-01T11:32:23.145Z</time>
    </trkpt>
    <trkpt lat="56.325057" lon="60.822102">
        <ele>271.3</ele>
        <time>1970-01-01T11:33:18.145Z</time>
    </trkpt>
    <trkpt lat="56.325057" lon="60.822102">
        <ele>271.3</ele>
        <time>1970-01-01T11:33:19.145Z</time>
    </trkpt>
    <trkpt lat="56.325057" lon="60.822102">
        <ele>271.3</ele>
        <time>1970-01-01T11:33:20.145Z</time>
    </trkpt>
    <trkpt lat="56.325057" lon="60.822102">
        <ele>271.3</ele>
        <time>1970-01-01T11:33:21.145Z</time>
    </trkpt>
    <trkpt lat="56.325057" lon="60.822102">
        <ele>271.3</ele>
        <time>1970-01-01T11:33:22.145Z</time>
    </trkpt>
    <trkpt lat="56.325051" lon="60.822099">
        <ele>271.3</ele>
        <time>1970-01-01T11:33:23.145Z</time>
    </trkpt>
    <trkpt lat="56.325049" lon="60.822105">
        <ele>271.3</ele>
        <time>1970-01-01T11:33:24.145Z</time>
    </trkpt>
    <trkpt lat="56.325041" lon="60.82211">
        <ele>271.3</ele>
        <time>1970-01-01T11:33:25.145Z</time>
    </trkpt>
    <trkpt lat="56.325033" lon="60.822113">
        <ele>271.3</ele>
        <time>1970-01-01T11:33:26.145Z</time>
    </trkpt>
    <trkpt lat="56.325026" lon="60.822114">
        <ele>271.3</ele>
        <time>1970-01-01T11:33:27.145Z</time>
    </trkpt>
    <trkpt lat="56.325025" lon="60.822109">
        <ele>271.3</ele>
        <time>1970-01-01T11:33:28.145Z</time>
    </trkpt>
    <trkpt lat="56.325018" lon="60.822111">
        <ele>271.3</ele>
        <time>1970-01-01T11:33:29.145Z</time>
    </trkpt>
    <trkpt lat="56.325002" lon="60.822126">
        <ele>271.3</ele>
        <time>1970-01-01T11:33:30.145Z</time>
    </trkpt>
    <trkpt lat="56.324987" lon="60.822135">
        <ele>271.3</ele>
        <time>1970-01-01T11:33:31.145Z</time>
    </trkpt>
    <trkpt lat="56.324977" lon="60.822133">
        <ele>271.3</ele>
        <time>1970-01-01T11:33:32.145Z</time>
    </trkpt>
    <trkpt lat="56.324941" lon="60.822135">
        <ele>271.3</ele>
        <time>1970-01-01T11:33:33.145Z</time>
    </trkpt>
    <trkpt lat="56.324928" lon="60.822146">
        <ele>271.3</ele>
        <time>1970-01-01T11:33:34.145Z</time>
    </trkpt>
    <trkpt lat="56.324889" lon="60.822163">
        <ele>271.3</ele>
        <time>1970-01-01T11:33:35.145Z</time>
    </trkpt>
    <trkpt lat="56.324853" lon="60.822174">
        <ele>271.4</ele>
        <time>1970-01-01T11:33:36.145Z</time>
    </trkpt>
    <trkpt lat="56.324822" lon="60.822176">
        <ele>271.4</ele>
        <time>1970-01-01T11:33:37.145Z</time>
    </trkpt>
    <trkpt lat="56.324794" lon="60.822186">
        <ele>271.4</ele>
        <time>1970-01-01T11:33:38.145Z</time>
    </trkpt>
    <trkpt lat="56.324782" lon="60.822187">
        <ele>271.4</ele>
        <time>1970-01-01T11:33:39.145Z</time>
    </trkpt>
    <trkpt lat="56.324745" lon="60.822191">
        <ele>271.4</ele>
        <time>1970-01-01T11:33:40.145Z</time>
    </trkpt>
    <trkpt lat="56.32473" lon="60.822191">
        <ele>271.4</ele>
        <time>1970-01-01T11:33:41.145Z</time>
    </trkpt>
    <trkpt lat="56.324692" lon="60.822187">
        <ele>271.4</ele>
        <time>1970-01-01T11:33:42.145Z</time>
    </trkpt>
    <trkpt lat="56.324677" lon="60.822185">
        <ele>271.4</ele>
        <time>1970-01-01T11:33:43.145Z</time>
    </trkpt>
    <trkpt lat="56.324636" lon="60.822187">
        <ele>271.4</ele>
        <time>1970-01-01T11:33:44.145Z</time>
    </trkpt>
    <trkpt lat="56.324604" lon="60.822193">
        <ele>271.5</ele>
        <time>1970-01-01T11:33:45.145Z</time>
    </trkpt>
    <trkpt lat="56.324585" lon="60.822194">
        <ele>271.5</ele>
        <time>1970-01-01T11:33:46.145Z</time>
    </trkpt>
    <trkpt lat="56.324542" lon="60.822206">
        <ele>271.5</ele>
        <time>1970-01-01T11:33:47.145Z</time>
    </trkpt>
    <trkpt lat="56.32453" lon="60.822205">
        <ele>271.5</ele>
        <time>1970-01-01T11:33:48.145Z</time>
    </trkpt>
    <trkpt lat="56.324493" lon="60.822217">
        <ele>271.5</ele>
        <time>1970-01-01T11:33:49.145Z</time>
    </trkpt>
    <trkpt lat="56.324462" lon="60.822215">
        <ele>271.5</ele>
        <time>1970-01-01T11:33:50.145Z</time>
    </trkpt>
    <trkpt lat="56.324449" lon="60.822212">
        <ele>271.5</ele>
        <time>1970-01-01T11:33:51.145Z</time>
    </trkpt>
    <trkpt lat="56.324414" lon="60.822216">
        <ele>271.5</ele>
        <time>1970-01-01T11:33:52.145Z</time>
    </trkpt>
    <trkpt lat="56.324386" lon="60.822214">
        <ele>271.5</ele>
        <time>1970-01-01T11:33:53.145Z</time>
    </trkpt>
    <trkpt lat="56.324374" lon="60.82221">
        <ele>271.5</ele>
        <time>1970-01-01T11:33:54.145Z</time>
    </trkpt>
    <trkpt lat="56.32435" lon="60.822204">
        <ele>271.6</ele>
        <time>1970-01-01T11:33:55.145Z</time>
    </trkpt>
    <trkpt lat="56.32434" lon="60.8222">
        <ele>271.6</ele>
        <time>1970-01-01T11:33:56.145Z</time>
    </trkpt>
    <trkpt lat="56.324308" lon="60.822197">
        <ele>271.6</ele>
        <time>1970-01-01T11:33:57.145Z</time>
    </trkpt>
    <trkpt lat="56.324297" lon="60.822199">
        <ele>271.6</ele>
        <time>1970-01-01T11:33:58.145Z</time>
    </trkpt>
    <trkpt lat="56.324264" lon="60.822202">
        <ele>271.6</ele>
        <time>1970-01-01T11:33:59.145Z</time>
    </trkpt>
    <trkpt lat="56.324246" lon="60.822207">
        <ele>271.6</ele>
        <time>1970-01-01T11:34:00.145Z</time>
    </trkpt>
    <trkpt lat="56.32423" lon="60.82222">
        <ele>271.6</ele>
        <time>1970-01-01T11:34:01.145Z</time>
    </trkpt>
    <trkpt lat="56.324218" lon="60.82222">
        <ele>271.6</ele>
        <time>1970-01-01T11:34:02.145Z</time>
    </trkpt>
    <trkpt lat="56.324201" lon="60.822227">
        <ele>271.6</ele>
        <time>1970-01-01T11:34:03.145Z</time>
    </trkpt>
    <trkpt lat="56.324191" lon="60.822234">
        <ele>271.6</ele>
        <time>1970-01-01T11:34:04.145Z</time>
    </trkpt>
    <trkpt lat="56.324182" lon="60.822234">
        <ele>271.6</ele>
        <time>1970-01-01T11:34:05.145Z</time>
    </trkpt>
    <trkpt lat="56.324187" lon="60.822229">
        <ele>271.6</ele>
        <time>1970-01-01T11:34:06.145Z</time>
    </trkpt>
    <trkpt lat="56.324188" lon="60.822232">
        <ele>271.6</ele>
        <time>1970-01-01T11:34:07.145Z</time>
    </trkpt>
    <trkpt lat="56.324175" lon="60.822237">
        <ele>271.6</ele>
        <time>1970-01-01T11:34:08.145Z</time>
    </trkpt>
    <trkpt lat="56.32416" lon="60.822235">
        <ele>271.6</ele>
        <time>1970-01-01T11:34:09.145Z</time>
    </trkpt>
    <trkpt lat="56.324147" lon="60.822237">
        <ele>271.6</ele>
        <time>1970-01-01T11:34:10.145Z</time>
    </trkpt>
    <trkpt lat="56.324125" lon="60.82224">
        <ele>271.7</ele>
        <time>1970-01-01T11:34:11.145Z</time>
    </trkpt>
    <trkpt lat="56.324102" lon="60.822243">
        <ele>271.7</ele>
        <time>1970-01-01T11:35:05.145Z</time>
    </trkpt>
    <trkpt lat="56.32408" lon="60.822246">
        <ele>271.7</ele>
        <time>1970-01-01T11:35:06.145Z</time>
    </trkpt>
    <trkpt lat="56.324058" lon="60.822249">
        <ele>271.7</ele>
        <time>1970-01-01T11:35:07.145Z</time>
    </trkpt>
    <trkpt lat="56.324035" lon="60.822252">
        <ele>271.7</ele>
        <time>1970-01-01T11:35:08.145Z</time>
    </trkpt>
    <trkpt lat="56.324011" lon="60.82225">
        <ele>271.7</ele>
        <time>1970-01-01T11:35:09.145Z</time>
    </trkpt>
    <trkpt lat="56.324009" lon="60.822257">
        <ele>271.7</ele>
        <time>1970-01-01T11:35:10.145Z</time>
    </trkpt>
    <trkpt lat="56.324009" lon="60.822259">
        <ele>271.7</ele>
        <time>1970-01-01T11:35:11.145Z</time>
    </trkpt>
    <trkpt lat="56.324008" lon="60.822258">
        <ele>271.7</ele>
        <time>1970-01-01T11:35:12.145Z</time>
    </trkpt>
    <trkpt lat="56.324007" lon="60.822261">
        <ele>271.7</ele>
        <time>1970-01-01T11:35:13.145Z</time>
    </trkpt>
    <trkpt lat="56.324003" lon="60.82226">
        <ele>271.7</ele>
        <time>1970-01-01T11:35:14.145Z</time>
    </trkpt>
    <trkpt lat="56.323998" lon="60.822253">
        <ele>271.7</ele>
        <time>1970-01-01T11:35:15.145Z</time>
    </trkpt>
    <trkpt lat="56.323996" lon="60.822249">
        <ele>271.7</ele>
        <time>1970-01-01T11:35:16.145Z</time>
    </trkpt>
    <trkpt lat="56.323984" lon="60.822249">
        <ele>271.7</ele>
        <time>1970-01-01T11:35:17.145Z</time>
    </trkpt>
    <trkpt lat="56.323976" lon="60.822244">
        <ele>271.7</ele>
        <time>1970-01-01T11:35:18.145Z</time>
    </trkpt>
    <trkpt lat="56.323941" lon="60.822232">
        <ele>271.7</ele>
        <time>1970-01-01T11:35:19.145Z</time>
    </trkpt>
    <trkpt lat="56.323933" lon="60.822223">
        <ele>271.7</ele>
        <time>1970-01-01T11:35:20.145Z</time>
    </trkpt>
    <trkpt lat="56.323905" lon="60.822207">
        <ele>271.7</ele>
        <time>1970-01-01T11:35:21.145Z</time>
    </trkpt>
    <trkpt lat="56.323893" lon="60.822203">
        <ele>271.8</ele>
        <time>1970-01-01T11:35:22.145Z</time>
    </trkpt>
    <trkpt lat="56.323861" lon="60.822183">
        <ele>271.8</ele>
        <time>1970-01-01T11:35:23.145Z</time>
    </trkpt>
    <trkpt lat="56.323846" lon="60.822182">
        <ele>271.8</ele>
        <time>1970-01-01T11:35:24.145Z</time>
    </trkpt>
    <trkpt lat="56.323806" lon="60.822178">
        <ele>271.8</ele>
        <time>1970-01-01T11:35:25.145Z</time>
    </trkpt>
    <trkpt lat="56.323777" lon="60.822187">
        <ele>271.8</ele>
        <time>1970-01-01T11:35:26.145Z</time>
    </trkpt>
    <trkpt lat="56.323743" lon="60.822188">
        <ele>271.8</ele>
        <time>1970-01-01T11:35:27.145Z</time>
    </trkpt>
    <trkpt lat="56.323726" lon="60.822176">
        <ele>271.8</ele>
        <time>1970-01-01T11:35:28.145Z</time>
    </trkpt>
    <trkpt lat="56.323688" lon="60.822154">
        <ele>271.8</ele>
        <time>1970-01-01T11:35:29.145Z</time>
    </trkpt>
    <trkpt lat="56.323666" lon="60.822124">
        <ele>271.8</ele>
        <time>1970-01-01T11:35:30.145Z</time>
    </trkpt>
    <trkpt lat="56.323639" lon="60.822102">
        <ele>271.9</ele>
        <time>1970-01-01T11:35:31.145Z</time>
    </trkpt>
    <trkpt lat="56.323627" lon="60.822095">
        <ele>271.9</ele>
        <time>1970-01-01T11:35:32.145Z</time>
    </trkpt>
    <trkpt lat="56.323589" lon="60.822079">
        <ele>271.9</ele>
        <time>1970-01-01T11:35:33.145Z</time>
    </trkpt>
    <trkpt lat="56.323557" lon="60.822071">
        <ele>271.9</ele>
        <time>1970-01-01T11:35:34.145Z</time>
    </trkpt>
    <trkpt lat="56.323546" lon="60.822063">
        <ele>271.9</ele>
        <time>1970-01-01T11:35:35.145Z</time>
    </trkpt>
    <trkpt lat="56.323512" lon="60.822036">
        <ele>271.9</ele>
        <time>1970-01-01T11:35:36.145Z</time>
    </trkpt>
    <trkpt lat="56.323504" lon="60.82203">
        <ele>271.9</ele>
        <time>1970-01-01T11:35:37.145Z</time>
    </trkpt>
    <trkpt lat="56.323478" lon="60.822013">
        <ele>271.9</ele>
        <time>1970-01-01T11:35:38.145Z</time>
    </trkpt>
    <trkpt lat="56.323447" lon="60.821994">
        <ele>271.9</ele>
        <time>1970-01-01T11:35:39.145Z</time>
    </trkpt>
    <trkpt lat="56.323414" lon="60.821979">
        <ele>272.0</ele>
        <time>1970-01-01T11:35:40.145Z</time>
    </trkpt>
    <trkpt lat="56.323396" lon="60.821971">
        <ele>272.0</ele>
        <time>1970-01-01T11:35:41.145Z</time>
    </trkpt>
    <trkpt lat="56.323353" lon="60.821956">
        <ele>272.0</ele>
        <time>1970-01-01T11:35:42.145Z</time>
    </trkpt>
    <trkpt lat="56.323339" lon="60.821947">
        <ele>272.0</ele>
        <time>1970-01-01T11:35:43.145Z</time>
    </trkpt>
    <trkpt lat="56.323302" lon="60.821927">
        <ele>272.0</ele>
        <time>1970-01-01T11:35:44.145Z</time>
    </trkpt>
    <trkpt lat="56.323289" lon="60.821923">
        <ele>272.1</ele>
        <time>1970-01-01T11:35:45.145Z</time>
    </trkpt>
    <trkpt lat="56.323255" lon="60.821909">
        <ele>272.1</ele>
        <time>1970-01-01T11:35:46.145Z</time>
    </trkpt>
    <trkpt lat="56.323245" lon="60.821907">
        <ele>272.1</ele>
        <time>1970-01-01T11:35:47.145Z</time>
    </trkpt>
    <trkpt lat="56.323215" lon="60.8219">
        <ele>272.1</ele>
        <time>1970-01-01T11:35:48.145Z</time>
    </trkpt>
    <trkpt lat="56.323188" lon="60.821892">
        <ele>272.1</ele>
        <time>1970-01-01T11:35:49.145Z</time>
    </trkpt>
    <trkpt lat="56.323175" lon="60.821891">
        <ele>272.2</ele>
        <time>1970-01-01T11:35:50.145Z</time>
    </trkpt>
    <trkpt lat="56.323137" lon="60.821877">
        <ele>272.2</ele>
        <time>1970-01-01T11:35:51.145Z</time>
    </trkpt>
    <trkpt lat="56.323111" lon="60.821867">
        <ele>272.2</ele>
        <time>1970-01-01T11:35:52.145Z</time>
    </trkpt>
    <trkpt lat="56.323081" lon="60.821858">
        <ele>272.3</ele>
        <time>1970-01-01T11:35:53.145Z</time>
    </trkpt>
    <trkpt lat="56.323052" lon="60.821832">
        <ele>272.3</ele>
        <time>1970-01-01T11:35:54.145Z</time>
    </trkpt>
    <trkpt lat="56.323038" lon="60.821828">
        <ele>272.3</ele>
        <time>1970-01-01T11:35:55.145Z</time>
    </trkpt>
    <trkpt lat="56.322999" lon="60.821818">
        <ele>272.3</ele>
        <time>1970-01-01T11:35:56.145Z</time>
    </trkpt>
    <trkpt lat="56.322966" lon="60.821807">
        <ele>272.4</ele>
        <time>1970-01-01T11:35:57.145Z</time>
    </trkpt>
    <trkpt lat="56.322934" lon="60.821807">
        <ele>272.4</ele>
        <time>1970-01-01T11:35:58.145Z</time>
    </trkpt>
    <trkpt lat="56.322905" lon="60.821804">
        <ele>272.4</ele>
        <time>1970-01-01T11:35:59.145Z</time>
    </trkpt>
    <trkpt lat="56.322876" lon="60.821794">
        <ele>272.5</ele>
        <time>1970-01-01T11:36:00.145Z</time>
    </trkpt>
    <trkpt lat="56.322837" lon="60.821779">
        <ele>272.5</ele>
        <time>1970-01-01T11:36:01.145Z</time>
    </trkpt>
    <trkpt lat="56.322808" lon="60.821769">
        <ele>272.5</ele>
        <time>1970-01-01T11:36:02.145Z</time>
    </trkpt>
    <trkpt lat="56.322779" lon="60.821769">
        <ele>272.5</ele>
        <time>1970-01-01T11:36:03.145Z</time>
    </trkpt>
    <trkpt lat="56.322753" lon="60.821735">
        <ele>272.6</ele>
        <time>1970-01-01T11:36:04.145Z</time>
    </trkpt>
    <trkpt lat="56.322718" lon="60.821719">
        <ele>272.6</ele>
        <time>1970-01-01T11:36:05.145Z</time>
    </trkpt>
    <trkpt lat="56.322685" lon="60.821695">
        <ele>272.6</ele>
        <time>1970-01-01T11:36:06.145Z</time>
    </trkpt>
    <trkpt lat="56.322669" lon="60.821696">
        <ele>272.7</ele>
        <time>1970-01-01T11:36:07.145Z</time>
    </trkpt>
    <trkpt lat="56.322636" lon="60.821679">
        <ele>272.7</ele>
        <time>1970-01-01T11:36:08.145Z</time>
    </trkpt>
    <trkpt lat="56.322616" lon="60.821673">
        <ele>272.7</ele>
        <time>1970-01-01T11:36:09.145Z</time>
    </trkpt>
    <trkpt lat="56.322579" lon="60.821675">
        <ele>272.7</ele>
        <time>1970-01-01T11:36:10.145Z</time>
    </trkpt>
    <trkpt lat="56.32257" lon="60.821678">
        <ele>272.8</ele>
        <time>1970-01-01T11:36:11.145Z</time>
    </trkpt>
    <trkpt lat="56.322538" lon="60.82168">
        <ele>272.8</ele>
        <time>1970-01-01T11:36:12.145Z</time>
    </trkpt>
    <trkpt lat="56.322527" lon="60.821686">
        <ele>272.8</ele>
        <time>1970-01-01T11:36:13.145Z</time>
    </trkpt>
    <trkpt lat="56.322495" lon="60.821683">
        <ele>272.8</ele>
        <time>1970-01-01T11:36:14.145Z</time>
    </trkpt>
    <trkpt lat="56.322462" lon="60.821685">
        <ele>272.9</ele>
        <time>1970-01-01T11:36:15.145Z</time>
    </trkpt>
    <trkpt lat="56.322453" lon="60.821687">
        <ele>272.9</ele>
        <time>1970-01-01T11:36:16.145Z</time>
    </trkpt>
    <trkpt lat="56.322425" lon="60.821706">
        <ele>272.9</ele>
        <time>1970-01-01T11:36:17.145Z</time>
    </trkpt>
    <trkpt lat="56.322417" lon="60.821708">
        <ele>272.9</ele>
        <time>1970-01-01T11:36:18.145Z</time>
    </trkpt>
    <trkpt lat="56.322393" lon="60.821741">
        <ele>272.9</ele>
        <time>1970-01-01T11:36:19.145Z</time>
    </trkpt>
    <trkpt lat="56.322361" lon="60.821765">
        <ele>273.0</ele>
        <time>1970-01-01T11:36:20.145Z</time>
    </trkpt>
    <trkpt lat="56.322343" lon="60.821771">
        <ele>273.0</ele>
        <time>1970-01-01T11:36:21.145Z</time>
    </trkpt>
    <trkpt lat="56.322303" lon="60.821792">
        <ele>273.0</ele>
        <time>1970-01-01T11:36:22.145Z</time>
    </trkpt>
    <trkpt lat="56.322277" lon="60.821799">
        <ele>273.0</ele>
        <time>1970-01-01T11:36:23.145Z</time>
    </trkpt>
    <trkpt lat="56.322265" lon="60.821798">
        <ele>273.1</ele>
        <time>1970-01-01T11:36:24.145Z</time>
    </trkpt>
    <trkpt lat="56.322241" lon="60.821804">
        <ele>273.1</ele>
        <time>1970-01-01T11:36:25.145Z</time>
    </trkpt>
    <trkpt lat="56.32221" lon="60.821824">
        <ele>273.1</ele>
        <time>1970-01-01T11:36:26.145Z</time>
    </trkpt>
    <trkpt lat="56.322196" lon="60.821835">
        <ele>273.1</ele>
        <time>1970-01-01T11:36:27.145Z</time>
    </trkpt>
    <trkpt lat="56.322157" lon="60.821847">
        <ele>273.2</ele>
        <time>1970-01-01T11:36:28.145Z</time>
    </trkpt>
    <trkpt lat="56.32214" lon="60.821864">
        <ele>273.2</ele>
        <time>1970-01-01T11:36:29.145Z</time>
    </trkpt>
    <trkpt lat="56.322102" lon="60.821882">
        <ele>273.2</ele>
        <time>1970-01-01T11:36:30.145Z</time>
    </trkpt>
    <trkpt lat="56.322092" lon="60.821889">
        <ele>273.2</ele>
        <time>1970-01-01T11:36:31.145Z</time>
    </trkpt>
    <trkpt lat="56.32206" lon="60.821896">
        <ele>273.3</ele>
        <time>1970-01-01T11:36:32.145Z</time>
    </trkpt>
    <trkpt lat="56.322033" lon="60.821906">
        <ele>273.3</ele>
        <time>1970-01-01T11:36:33.145Z</time>
    </trkpt>
    <trkpt lat="56.322002" lon="60.821919">
        <ele>273.3</ele>
        <time>1970-01-01T11:36:34.145Z</time>
    </trkpt>
    <trkpt lat="56.321972" lon="60.821934">
        <ele>273.3</ele>
        <time>1970-01-01T11:36:35.145Z</time>
    </trkpt>
    <trkpt lat="56.321954" lon="60.82195">
        <ele>273.4</ele>
        <time>1970-01-01T11:36:36.145Z</time>
    </trkpt>
    <trkpt lat="56.321911" lon="60.821961">
        <ele>273.4</ele>
        <time>1970-01-01T11:36:37.145Z</time>
    </trkpt>
    <trkpt lat="56.321881" lon="60.821981">
        <ele>273.4</ele>
        <time>1970-01-01T11:36:38.145Z</time>
    </trkpt>
    <trkpt lat="56.321855" lon="60.821996">
        <ele>273.5</ele>
        <time>1970-01-01T11:36:39.145Z</time>
    </trkpt>
    <trkpt lat="56.321821" lon="60.821995">
        <ele>273.5</ele>
        <time>1970-01-01T11:36:40.145Z</time>
    </trkpt>
    <trkpt lat="56.32181" lon="60.821998">
        <ele>273.5</ele>
        <time>1970-01-01T11:36:41.145Z</time>
    </trkpt>
    <trkpt lat="56.321782" lon="60.822017">
        <ele>273.5</ele>
        <time>1970-01-01T11:36:42.145Z</time>
    </trkpt>
    <trkpt lat="56.321757" lon="60.82204">
        <ele>273.6</ele>
        <time>1970-01-01T11:36:43.145Z</time>
    </trkpt>
    <trkpt lat="56.321748" lon="60.822043">
        <ele>273.6</ele>
        <time>1970-01-01T11:36:44.145Z</time>
    </trkpt>
    <trkpt lat="56.321716" lon="60.822048">
        <ele>273.6</ele>
        <time>1970-01-01T11:36:45.145Z</time>
    </trkpt>
    <trkpt lat="56.321706" lon="60.822051">
        <ele>273.6</ele>
        <time>1970-01-01T11:36:46.145Z</time>
    </trkpt>
    <trkpt lat="56.321674" lon="60.822063">
        <ele>273.6</ele>
        <time>1970-01-01T11:36:47.145Z</time>
    </trkpt>
    <trkpt lat="56.321665" lon="60.822063">
        <ele>273.6</ele>
        <time>1970-01-01T11:36:48.145Z</time>
    </trkpt>
    <trkpt lat="56.321631" lon="60.822081">
        <ele>273.7</ele>
        <time>1970-01-01T11:36:49.145Z</time>
    </trkpt>
    <trkpt lat="56.321617" lon="60.822092">
        <ele>273.7</ele>
        <time>1970-01-01T11:36:50.145Z</time>
    </trkpt>
    <trkpt lat="56.321581" lon="60.822114">
        <ele>273.7</ele>
        <time>1970-01-01T11:36:51.145Z</time>
    </trkpt>
    <trkpt lat="56.32157" lon="60.822116">
        <ele>273.7</ele>
        <time>1970-01-01T11:36:52.145Z</time>
    </trkpt>
    <trkpt lat="56.321539" lon="60.822125">
        <ele>273.8</ele>
        <time>1970-01-01T11:36:53.145Z</time>
    </trkpt>
    <trkpt lat="56.321522" lon="60.822121">
        <ele>273.8</ele>
        <time>1970-01-01T11:36:54.145Z</time>
    </trkpt>
    <trkpt lat="56.321504" lon="60.822132">
        <ele>273.8</ele>
        <time>1970-01-01T11:36:55.145Z</time>
    </trkpt>
    <trkpt lat="56.321492" lon="60.822141">
        <ele>273.8</ele>
        <time>1970-01-01T11:36:56.145Z</time>
    </trkpt>
    <trkpt lat="56.321461" lon="60.82216">
        <ele>273.8</ele>
        <time>1970-01-01T11:36:57.145Z</time>
    </trkpt>
    <trkpt lat="56.321446" lon="60.822168">
        <ele>273.9</ele>
        <time>1970-01-01T11:36:58.145Z</time>
    </trkpt>
    <trkpt lat="56.321412" lon="60.822199">
        <ele>273.9</ele>
        <time>1970-01-01T11:36:59.145Z</time>
    </trkpt>
    <trkpt lat="56.321399" lon="60.8222">
        <ele>273.9</ele>
        <time>1970-01-01T11:37:00.145Z</time>
    </trkpt>
    <trkpt lat="56.321369" lon="60.822227">
        <ele>273.9</ele>
        <time>1970-01-01T11:37:01.145Z</time>
    </trkpt>
    <trkpt lat="56.321359" lon="60.822234">
        <ele>273.9</ele>
        <time>1970-01-01T11:37:02.145Z</time>
    </trkpt>
    <trkpt lat="56.321334" lon="60.822248">
        <ele>274.0</ele>
        <time>1970-01-01T11:37:03.145Z</time>
    </trkpt>
    <trkpt lat="56.32132" lon="60.822257">
        <ele>274.0</ele>
        <time>1970-01-01T11:37:04.145Z</time>
    </trkpt>
    <trkpt lat="56.321287" lon="60.822277">
        <ele>274.0</ele>
        <time>1970-01-01T11:37:05.145Z</time>
    </trkpt>
    <trkpt lat="56.321273" lon="60.822277">
        <ele>274.0</ele>
        <time>1970-01-01T11:37:06.145Z</time>
    </trkpt>
    <trkpt lat="56.321241" lon="60.822293">
        <ele>274.1</ele>
        <time>1970-01-01T11:37:07.145Z</time>
    </trkpt>
    <trkpt lat="56.32123" lon="60.822299">
        <ele>274.1</ele>
        <time>1970-01-01T11:37:08.145Z</time>
    </trkpt>
    <trkpt lat="56.3212" lon="60.822317">
        <ele>274.1</ele>
        <time>1970-01-01T11:37:09.145Z</time>
    </trkpt>
    <trkpt lat="56.321189" lon="60.822323">
        <ele>274.1</ele>
        <time>1970-01-01T11:37:10.145Z</time>
    </trkpt>
    <trkpt lat="56.32117" lon="60.822326">
        <ele>274.1</ele>
        <time>1970-01-01T11:37:11.145Z</time>
    </trkpt>
    <trkpt lat="56.32115" lon="60.822336">
        <ele>274.1</ele>
        <time>1970-01-01T11:37:12.145Z</time>
    </trkpt>
    <trkpt lat="56.321053" lon="60.822405">
        <ele>274.2</ele>
        <time>1970-01-01T11:38:13.145Z</time>
    </trkpt>
    <trkpt lat="56.321051" lon="60.822407">
        <ele>274.2</ele>
        <time>1970-01-01T11:38:14.145Z</time>
    </trkpt>
    <trkpt lat="56.321047" lon="60.822411">
        <ele>274.3</ele>
        <time>1970-01-01T11:38:15.145Z</time>
    </trkpt>
    <trkpt lat="56.321039" lon="60.822418">
        <ele>274.3</ele>
        <time>1970-01-01T11:38:16.145Z</time>
    </trkpt>
    <trkpt lat="56.321028" lon="60.822427">
        <ele>274.3</ele>
        <time>1970-01-01T11:38:17.145Z</time>
    </trkpt>
    <trkpt lat="56.321024" lon="60.822429">
        <ele>274.3</ele>
        <time>1970-01-01T11:38:18.145Z</time>
    </trkpt>
    <trkpt lat="56.321018" lon="60.822426">
        <ele>274.3</ele>
        <time>1970-01-01T11:38:19.145Z</time>
    </trkpt>
    <trkpt lat="56.321012" lon="60.822433">
        <ele>274.3</ele>
        <time>1970-01-01T11:38:20.145Z</time>
    </trkpt>
    <trkpt lat="56.321006" lon="60.822438">
        <ele>274.3</ele>
        <time>1970-01-01T11:38:21.145Z</time>
    </trkpt>
    <trkpt lat="56.321" lon="60.822441">
        <ele>274.3</ele>
        <time>1970-01-01T11:38:22.145Z</time>
    </trkpt>
    <trkpt lat="56.320989" lon="60.822445">
        <ele>274.3</ele>
        <time>1970-01-01T11:38:23.145Z</time>
    </trkpt>
    <trkpt lat="56.320978" lon="60.822442">
        <ele>274.3</ele>
        <time>1970-01-01T11:38:24.145Z</time>
    </trkpt>
    <trkpt lat="56.32096" lon="60.822444">
        <ele>274.3</ele>
        <time>1970-01-01T11:38:25.145Z</time>
    </trkpt>
    <trkpt lat="56.32094" lon="60.822446">
        <ele>274.4</ele>
        <time>1970-01-01T11:38:26.145Z</time>
    </trkpt>
    <trkpt lat="56.320927" lon="60.822455">
        <ele>274.4</ele>
        <time>1970-01-01T11:38:27.145Z</time>
    </trkpt>
    <trkpt lat="56.320917" lon="60.822456">
        <ele>274.4</ele>
        <time>1970-01-01T11:38:28.145Z</time>
    </trkpt>
    <trkpt lat="56.320882" lon="60.822464">
        <ele>274.4</ele>
        <time>1970-01-01T11:38:29.145Z</time>
    </trkpt>
    <trkpt lat="56.320874" lon="60.822467">
        <ele>274.4</ele>
        <time>1970-01-01T11:38:30.145Z</time>
    </trkpt>
    <trkpt lat="56.320844" lon="60.822479">
        <ele>274.5</ele>
        <time>1970-01-01T11:38:31.145Z</time>
    </trkpt>
    <trkpt lat="56.320835" lon="60.822485">
        <ele>274.5</ele>
        <time>1970-01-01T11:38:32.145Z</time>
    </trkpt>
    <trkpt lat="56.320801" lon="60.822496">
        <ele>274.5</ele>
        <time>1970-01-01T11:38:33.145Z</time>
    </trkpt>
    <trkpt lat="56.320772" lon="60.822511">
        <ele>274.5</ele>
        <time>1970-01-01T11:38:34.145Z</time>
    </trkpt>
    <trkpt lat="56.320763" lon="60.822517">
        <ele>274.5</ele>
        <time>1970-01-01T11:38:35.145Z</time>
    </trkpt>
    <trkpt lat="56.320735" lon="60.822539">
        <ele>274.6</ele>
        <time>1970-01-01T11:38:36.145Z</time>
    </trkpt>
    <trkpt lat="56.320705" lon="60.822556">
        <ele>274.6</ele>
        <time>1970-01-01T11:38:37.145Z</time>
    </trkpt>
    <trkpt lat="56.320676" lon="60.822572">
        <ele>274.6</ele>
        <time>1970-01-01T11:38:38.145Z</time>
    </trkpt>
    <trkpt lat="56.320665" lon="60.822578">
        <ele>274.6</ele>
        <time>1970-01-01T11:38:39.145Z</time>
    </trkpt>
    <trkpt lat="56.320635" lon="60.822594">
        <ele>274.7</ele>
        <time>1970-01-01T11:38:40.145Z</time>
    </trkpt>
    <trkpt lat="56.320608" lon="60.822607">
        <ele>274.7</ele>
        <time>1970-01-01T11:38:41.145Z</time>
    </trkpt>
    <trkpt lat="56.320578" lon="60.822608">
        <ele>274.7</ele>
        <time>1970-01-01T11:38:42.145Z</time>
    </trkpt>
    <trkpt lat="56.320565" lon="60.822607">
        <ele>274.7</ele>
        <time>1970-01-01T11:38:43.145Z</time>
    </trkpt>
    <trkpt lat="56.32053" lon="60.822601">
        <ele>274.8</ele>
        <time>1970-01-01T11:38:44.145Z</time>
    </trkpt>
    <trkpt lat="56.320502" lon="60.822585">
        <ele>274.8</ele>
        <time>1970-01-01T11:38:45.145Z</time>
    </trkpt>
    <trkpt lat="56.320491" lon="60.822584">
        <ele>274.8</ele>
        <time>1970-01-01T11:38:46.145Z</time>
    </trkpt>
    <trkpt lat="56.320454" lon="60.822573">
        <ele>274.8</ele>
        <time>1970-01-01T11:38:47.145Z</time>
    </trkpt>
    <trkpt lat="56.320426" lon="60.822567">
        <ele>274.9</ele>
        <time>1970-01-01T11:38:48.145Z</time>
    </trkpt>
    <trkpt lat="56.320395" lon="60.822567">
        <ele>274.9</ele>
        <time>1970-01-01T11:38:49.145Z</time>
    </trkpt>
    <trkpt lat="56.320385" lon="60.822562">
        <ele>274.9</ele>
        <time>1970-01-01T11:38:50.145Z</time>
    </trkpt>
    <trkpt lat="56.320352" lon="60.822554">
        <ele>274.9</ele>
        <time>1970-01-01T11:38:51.145Z</time>
    </trkpt>
    <trkpt lat="56.320323" lon="60.82256">
        <ele>275.0</ele>
        <time>1970-01-01T11:38:52.145Z</time>
    </trkpt>
    <trkpt lat="56.320308" lon="60.822559">
        <ele>275.0</ele>
        <time>1970-01-01T11:38:53.145Z</time>
    </trkpt>
    <trkpt lat="56.32027" lon="60.822548">
        <ele>275.0</ele>
        <time>1970-01-01T11:38:54.145Z</time>
    </trkpt>
    <trkpt lat="56.320239" lon="60.822545">
        <ele>275.0</ele>
        <time>1970-01-01T11:38:55.145Z</time>
    </trkpt>
    <trkpt lat="56.320207" lon="60.82254">
        <ele>275.1</ele>
        <time>1970-01-01T11:38:56.145Z</time>
    </trkpt>
    <trkpt lat="56.320198" lon="60.822532">
        <ele>275.1</ele>
        <time>1970-01-01T11:38:57.145Z</time>
    </trkpt>
    <trkpt lat="56.320166" lon="60.822527">
        <ele>275.1</ele>
        <time>1970-01-01T11:38:58.145Z</time>
    </trkpt>
    <trkpt lat="56.320137" lon="60.822532">
        <ele>275.1</ele>
        <time>1970-01-01T11:38:59.145Z</time>
    </trkpt>
    <trkpt lat="56.32012" lon="60.822531">
        <ele>275.1</ele>
        <time>1970-01-01T11:39:00.145Z</time>
    </trkpt>
    <trkpt lat="56.320085" lon="60.822518">
        <ele>275.2</ele>
        <time>1970-01-01T11:39:01.145Z</time>
    </trkpt>
    <trkpt lat="56.320051" lon="60.8225">
        <ele>275.2</ele>
        <time>1970-01-01T11:39:02.145Z</time>
    </trkpt>
    <trkpt lat="56.320038" lon="60.822495">
        <ele>275.2</ele>
        <time>1970-01-01T11:39:03.145Z</time>
    </trkpt>
    <trkpt lat="56.320003" lon="60.822487">
        <ele>275.3</ele>
        <time>1970-01-01T11:39:04.145Z</time>
    </trkpt>
    <trkpt lat="56.319992" lon="60.822481">
        <ele>275.3</ele>
        <time>1970-01-01T11:39:05.145Z</time>
    </trkpt>
    <trkpt lat="56.319963" lon="60.822461">
        <ele>275.3</ele>
        <time>1970-01-01T11:39:06.145Z</time>
    </trkpt>
    <trkpt lat="56.31995" lon="60.822459">
        <ele>275.3</ele>
        <time>1970-01-01T11:39:07.145Z</time>
    </trkpt>
    <trkpt lat="56.319917" lon="60.822446">
        <ele>275.3</ele>
        <time>1970-01-01T11:39:08.145Z</time>
    </trkpt>
    <trkpt lat="56.319887" lon="60.822449">
        <ele>275.4</ele>
        <time>1970-01-01T11:39:09.145Z</time>
    </trkpt>
    <trkpt lat="56.31987" lon="60.822457">
        <ele>275.4</ele>
        <time>1970-01-01T11:39:10.145Z</time>
    </trkpt>
    <trkpt lat="56.319857" lon="60.82246">
        <ele>275.4</ele>
        <time>1970-01-01T11:39:11.145Z</time>
    </trkpt>
    <trkpt lat="56.319845" lon="60.822465">
        <ele>275.4</ele>
        <time>1970-01-01T11:39:12.145Z</time>
    </trkpt>
    <trkpt lat="56.319807" lon="60.822475">
        <ele>275.5</ele>
        <time>1970-01-01T11:39:13.145Z</time>
    </trkpt>
    <trkpt lat="56.319796" lon="60.822476">
        <ele>275.5</ele>
        <time>1970-01-01T11:39:14.145Z</time>
    </trkpt>
    <trkpt lat="56.319764" lon="60.822498">
        <ele>275.5</ele>
        <time>1970-01-01T11:39:15.145Z</time>
    </trkpt>
    <trkpt lat="56.319755" lon="60.822505">
        <ele>275.5</ele>
        <time>1970-01-01T11:39:16.145Z</time>
    </trkpt>
    <trkpt lat="56.319724" lon="60.822508">
        <ele>275.5</ele>
        <time>1970-01-01T11:39:17.145Z</time>
    </trkpt>
    <trkpt lat="56.319709" lon="60.822508">
        <ele>275.5</ele>
        <time>1970-01-01T11:39:18.145Z</time>
    </trkpt>
    <trkpt lat="56.319678" lon="60.82252">
        <ele>275.6</ele>
        <time>1970-01-01T11:39:19.145Z</time>
    </trkpt>
    <trkpt lat="56.31965" lon="60.82252">
        <ele>275.6</ele>
        <time>1970-01-01T11:39:20.145Z</time>
    </trkpt>
    <trkpt lat="56.319636" lon="60.82252">
        <ele>275.6</ele>
        <time>1970-01-01T11:39:21.145Z</time>
    </trkpt>
    <trkpt lat="56.319601" lon="60.822519">
        <ele>275.6</ele>
        <time>1970-01-01T11:39:22.145Z</time>
    </trkpt>
    <trkpt lat="56.319585" lon="60.822521">
        <ele>275.7</ele>
        <time>1970-01-01T11:39:23.145Z</time>
    </trkpt>
    <trkpt lat="56.319548" lon="60.822521">
        <ele>275.7</ele>
        <time>1970-01-01T11:39:24.145Z</time>
    </trkpt>
    <trkpt lat="56.319532" lon="60.822514">
        <ele>275.7</ele>
        <time>1970-01-01T11:39:25.145Z</time>
    </trkpt>
    <trkpt lat="56.319496" lon="60.822497">
        <ele>275.8</ele>
        <time>1970-01-01T11:39:26.145Z</time>
    </trkpt>
    <trkpt lat="56.319484" lon="60.822489">
        <ele>275.8</ele>
        <time>1970-01-01T11:39:27.145Z</time>
    </trkpt>
    <trkpt lat="56.319453" lon="60.822471">
        <ele>275.8</ele>
        <time>1970-01-01T11:39:28.145Z</time>
    </trkpt>
    <trkpt lat="56.319439" lon="60.822462">
        <ele>275.8</ele>
        <time>1970-01-01T11:39:29.145Z</time>
    </trkpt>
    <trkpt lat="56.319436" lon="60.822452">
        <ele>275.8</ele>
        <time>1970-01-01T11:39:30.145Z</time>
    </trkpt>
    <trkpt lat="56.319433" lon="60.822445">
        <ele>275.8</ele>
        <time>1970-01-01T11:39:31.145Z</time>
    </trkpt>
    <trkpt lat="56.319427" lon="60.822438">
        <ele>275.8</ele>
        <time>1970-01-01T11:39:32.145Z</time>
    </trkpt>
    <trkpt lat="56.319423" lon="60.822438">
        <ele>275.8</ele>
        <time>1970-01-01T11:39:33.145Z</time>
    </trkpt>
    <trkpt lat="56.319423" lon="60.822432">
        <ele>275.8</ele>
        <time>1970-01-01T11:39:34.145Z</time>
    </trkpt>
    <trkpt lat="56.31942" lon="60.822435">
        <ele>275.8</ele>
        <time>1970-01-01T11:39:35.145Z</time>
    </trkpt>
    <trkpt lat="56.319398" lon="60.822422">
        <ele>275.9</ele>
        <time>1970-01-01T11:39:36.145Z</time>
    </trkpt>
    <trkpt lat="56.319386" lon="60.822409">
        <ele>275.9</ele>
        <time>1970-01-01T11:39:37.145Z</time>
    </trkpt>
    <trkpt lat="56.319371" lon="60.822397">
        <ele>275.9</ele>
        <time>1970-01-01T11:39:38.145Z</time>
    </trkpt>
    <trkpt lat="56.319366" lon="60.822392">
        <ele>275.9</ele>
        <time>1970-01-01T11:39:39.145Z</time>
    </trkpt>
    <trkpt lat="56.319353" lon="60.822385">
        <ele>275.9</ele>
        <time>1970-01-01T11:39:40.145Z</time>
    </trkpt>
    <trkpt lat="56.319347" lon="60.822381">
        <ele>275.9</ele>
        <time>1970-01-01T11:39:41.145Z</time>
    </trkpt>
    <trkpt lat="56.31934" lon="60.82238">
        <ele>275.9</ele>
        <time>1970-01-01T11:39:42.145Z</time>
    </trkpt>
    <trkpt lat="56.319325" lon="60.822365">
        <ele>275.9</ele>
        <time>1970-01-01T11:39:43.145Z</time>
    </trkpt>
    <trkpt lat="56.319315" lon="60.82236">
        <ele>275.9</ele>
        <time>1970-01-01T11:39:44.145Z</time>
    </trkpt>
    <trkpt lat="56.319297" lon="60.822347">
        <ele>276.0</ele>
        <time>1970-01-01T11:39:45.145Z</time>
    </trkpt>
    <trkpt lat="56.319192" lon="60.822353">
        <ele>275.7</ele>
        <time>1970-01-01T11:40:52.145Z</time>
    </trkpt>
    <trkpt lat="56.319191" lon="60.822362">
        <ele>275.6</ele>
        <time>1970-01-01T11:40:53.145Z</time>
    </trkpt>
    <trkpt lat="56.319191" lon="60.822362">
        <ele>275.6</ele>
        <time>1970-01-01T11:40:54.145Z</time>
    </trkpt>
    <trkpt lat="56.319191" lon="60.822362">
        <ele>275.6</ele>
        <time>1970-01-01T11:40:55.145Z</time>
    </trkpt>
    <trkpt lat="56.319192" lon="60.822365">
        <ele>275.6</ele>
        <time>1970-01-01T11:40:56.145Z</time>
    </trkpt>
    <trkpt lat="56.319193" lon="60.822366">
        <ele>275.6</ele>
        <time>1970-01-01T11:40:57.145Z</time>
    </trkpt>
    <trkpt lat="56.319191" lon="60.822367">
        <ele>275.5</ele>
        <time>1970-01-01T11:40:58.145Z</time>
    </trkpt>
    <trkpt lat="56.319191" lon="60.822368">
        <ele>275.5</ele>
        <time>1970-01-01T11:40:59.145Z</time>
    </trkpt>
    <trkpt lat="56.31919" lon="60.822361">
        <ele>275.5</ele>
        <time>1970-01-01T11:41:00.145Z</time>
    </trkpt>
    <trkpt lat="56.319186" lon="60.822374">
        <ele>275.4</ele>
        <time>1970-01-01T11:41:01.145Z</time>
    </trkpt>
    <trkpt lat="56.31918" lon="60.822374">
        <ele>275.3</ele>
        <time>1970-01-01T11:41:02.145Z</time>
    </trkpt>
    <trkpt lat="56.319173" lon="60.822382">
        <ele>275.2</ele>
        <time>1970-01-01T11:41:03.145Z</time>
    </trkpt>
    <trkpt lat="56.319171" lon="60.822388">
        <ele>275.1</ele>
        <time>1970-01-01T11:41:04.145Z</time>
    </trkpt>
    <trkpt lat="56.31916" lon="60.822399">
        <ele>275.0</ele>
        <time>1970-01-01T11:41:05.145Z</time>
    </trkpt>
    <trkpt lat="56.319137" lon="60.822428">
        <ele>274.6</ele>
        <time>1970-01-01T11:41:06.145Z</time>
    </trkpt>
    <trkpt lat="56.319125" lon="60.822438">
        <ele>274.5</ele>
        <time>1970-01-01T11:41:07.145Z</time>
    </trkpt>
    <trkpt lat="56.319119" lon="60.822452">
        <ele>274.3</ele>
        <time>1970-01-01T11:41:08.145Z</time>
    </trkpt>
    <trkpt lat="56.319109" lon="60.822463">
        <ele>274.2</ele>
        <time>1970-01-01T11:41:09.145Z</time>
    </trkpt>
    <trkpt lat="56.319103" lon="60.822474">
        <ele>274.1</ele>
        <time>1970-01-01T11:41:10.145Z</time>
    </trkpt>
    <trkpt lat="56.319098" lon="60.822486">
        <ele>274.0</ele>
        <time>1970-01-01T11:41:11.145Z</time>
    </trkpt>
    <trkpt lat="56.319086" lon="60.822515">
        <ele>273.7</ele>
        <time>1970-01-01T11:41:12.145Z</time>
    </trkpt>
    <trkpt lat="56.319076" lon="60.822532">
        <ele>273.6</ele>
        <time>1970-01-01T11:41:13.145Z</time>
    </trkpt>
    <trkpt lat="56.319068" lon="60.822547">
        <ele>273.4</ele>
        <time>1970-01-01T11:41:14.145Z</time>
    </trkpt>
    <trkpt lat="56.319063" lon="60.822559">
        <ele>273.3</ele>
        <time>1970-01-01T11:41:15.145Z</time>
    </trkpt>
    <trkpt lat="56.319057" lon="60.822568">
        <ele>273.2</ele>
        <time>1970-01-01T11:41:16.145Z</time>
    </trkpt>
    <trkpt lat="56.319049" lon="60.822585">
        <ele>273.0</ele>
        <time>1970-01-01T11:41:17.145Z</time>
    </trkpt>
    <trkpt lat="56.319043" lon="60.822597">
        <ele>272.9</ele>
        <time>1970-01-01T11:41:18.145Z</time>
    </trkpt>
    <trkpt lat="56.319034" lon="60.822615">
        <ele>272.8</ele>
        <time>1970-01-01T11:41:19.145Z</time>
    </trkpt>
    <trkpt lat="56.319026" lon="60.822628">
        <ele>272.6</ele>
        <time>1970-01-01T11:41:20.145Z</time>
    </trkpt>
    <trkpt lat="56.31902" lon="60.822645">
        <ele>272.5</ele>
        <time>1970-01-01T11:41:21.145Z</time>
    </trkpt>
    <trkpt lat="56.319015" lon="60.822658">
        <ele>272.4</ele>
        <time>1970-01-01T11:41:22.145Z</time>
    </trkpt>
    <trkpt lat="56.319005" lon="60.822675">
        <ele>272.2</ele>
        <time>1970-01-01T11:41:23.145Z</time>
    </trkpt>
    <trkpt lat="56.318996" lon="60.822686">
        <ele>272.1</ele>
        <time>1970-01-01T11:41:24.145Z</time>
    </trkpt>
    <trkpt lat="56.31899" lon="60.822698">
        <ele>272.0</ele>
        <time>1970-01-01T11:41:25.145Z</time>
    </trkpt>
    <trkpt lat="56.318984" lon="60.822709">
        <ele>271.9</ele>
        <time>1970-01-01T11:41:26.145Z</time>
    </trkpt>
    <trkpt lat="56.318967" lon="60.822732">
        <ele>271.6</ele>
        <time>1970-01-01T11:41:27.145Z</time>
    </trkpt>
    <trkpt lat="56.318961" lon="60.822735">
        <ele>271.5</ele>
        <time>1970-01-01T11:41:28.145Z</time>
    </trkpt>
    <trkpt lat="56.318956" lon="60.822737">
        <ele>271.4</ele>
        <time>1970-01-01T11:41:29.145Z</time>
    </trkpt>
    <trkpt lat="56.31895" lon="60.82274">
        <ele>271.4</ele>
        <time>1970-01-01T11:41:30.145Z</time>
    </trkpt>
    <trkpt lat="56.318945" lon="60.822742">
        <ele>271.3</ele>
        <time>1970-01-01T11:41:31.145Z</time>
    </trkpt>
    <trkpt lat="56.31894" lon="60.822744">
        <ele>271.2</ele>
        <time>1970-01-01T11:41:32.145Z</time>
    </trkpt>
    <trkpt lat="56.318932" lon="60.822756">
        <ele>271.1</ele>
        <time>1970-01-01T11:41:33.145Z</time>
    </trkpt>
    <trkpt lat="56.318923" lon="60.822757">
        <ele>271.0</ele>
        <time>1970-01-01T11:41:34.145Z</time>
    </trkpt>
    <trkpt lat="56.318915" lon="60.822758">
        <ele>271.0</ele>
        <time>1970-01-01T11:41:35.145Z</time>
    </trkpt>
    <trkpt lat="56.318906" lon="60.822758">
        <ele>271.1</ele>
        <time>1970-01-01T11:41:36.145Z</time>
    </trkpt>
    <trkpt lat="56.318895" lon="60.822751">
        <ele>271.1</ele>
        <time>1970-01-01T11:41:37.145Z</time>
    </trkpt>
    <trkpt lat="56.318884" lon="60.822755">
        <ele>271.1</ele>
        <time>1970-01-01T11:41:38.145Z</time>
    </trkpt>
    <trkpt lat="56.318868" lon="60.822773">
        <ele>271.2</ele>
        <time>1970-01-01T11:41:39.145Z</time>
    </trkpt>
    <trkpt lat="56.318861" lon="60.822783">
        <ele>271.2</ele>
        <time>1970-01-01T11:41:40.145Z</time>
    </trkpt>
    <trkpt lat="56.318843" lon="60.82282">
        <ele>271.3</ele>
        <time>1970-01-01T11:41:41.145Z</time>
    </trkpt>
    <trkpt lat="56.318837" lon="60.822837">
        <ele>271.3</ele>
        <time>1970-01-01T11:41:42.145Z</time>
    </trkpt>
    <trkpt lat="56.31883" lon="60.822868">
        <ele>271.3</ele>
        <time>1970-01-01T11:41:43.145Z</time>
    </trkpt>
    <trkpt lat="56.318834" lon="60.822881">
        <ele>271.3</ele>
        <time>1970-01-01T11:41:44.145Z</time>
    </trkpt>
    <trkpt lat="56.318827" lon="60.822906">
        <ele>271.4</ele>
        <time>1970-01-01T11:41:45.145Z</time>
    </trkpt>
    <trkpt lat="56.31882" lon="60.822922">
        <ele>271.4</ele>
        <time>1970-01-01T11:41:46.145Z</time>
    </trkpt>
    <trkpt lat="56.318822" lon="60.822928">
        <ele>271.4</ele>
        <time>1970-01-01T11:41:47.145Z</time>
    </trkpt>
    <trkpt lat="56.318825" lon="60.822925">
        <ele>271.4</ele>
        <time>1970-01-01T11:41:48.145Z</time>
    </trkpt>
    <trkpt lat="56.31882" lon="60.822927">
        <ele>271.4</ele>
        <time>1970-01-01T11:41:49.145Z</time>
    </trkpt>
    <trkpt lat="56.318812" lon="60.822928">
        <ele>271.5</ele>
        <time>1970-01-01T11:41:50.145Z</time>
    </trkpt>
    <trkpt lat="56.318804" lon="60.822935">
        <ele>271.5</ele>
        <time>1970-01-01T11:41:51.145Z</time>
    </trkpt>
    <trkpt lat="56.318798" lon="60.822956">
        <ele>271.5</ele>
        <time>1970-01-01T11:41:52.145Z</time>
    </trkpt>
    <trkpt lat="56.318795" lon="60.822977">
        <ele>271.6</ele>
        <time>1970-01-01T11:41:53.145Z</time>
    </trkpt>
    <trkpt lat="56.318786" lon="60.822996">
        <ele>271.6</ele>
        <time>1970-01-01T11:41:54.145Z</time>
    </trkpt>
    <trkpt lat="56.318774" lon="60.823017">
        <ele>271.6</ele>
        <time>1970-01-01T11:41:55.145Z</time>
    </trkpt>
    <trkpt lat="56.318767" lon="60.823033">
        <ele>271.7</ele>
        <time>1970-01-01T11:41:56.145Z</time>
    </trkpt>
    <trkpt lat="56.318745" lon="60.823074">
        <ele>271.7</ele>
        <time>1970-01-01T11:41:57.145Z</time>
    </trkpt>
    <trkpt lat="56.318738" lon="60.823085">
        <ele>271.8</ele>
        <time>1970-01-01T11:41:58.145Z</time>
    </trkpt>
    <trkpt lat="56.318717" lon="60.82312">
        <ele>271.8</ele>
        <time>1970-01-01T11:41:59.145Z</time>
    </trkpt>
    <trkpt lat="56.318708" lon="60.823135">
        <ele>271.9</ele>
        <time>1970-01-01T11:42:00.145Z</time>
    </trkpt>
    <trkpt lat="56.318679" lon="60.823175">
        <ele>272.0</ele>
        <time>1970-01-01T11:42:01.145Z</time>
    </trkpt>
    <trkpt lat="56.31852426040471" lon="60.82307580966673">
        <ele>274.2</ele>
        <time>1970-01-01T11:45:50.145Z</time>
    </trkpt>
    <trkpt lat="56.318385" lon="60.823092">
        <ele>274.4</ele>
        <time>1970-01-01T11:46:05.145Z</time>
    </trkpt>
    <trkpt lat="56.318385" lon="60.823092">
        <ele>274.4</ele>
        <time>1970-01-01T11:46:06.145Z</time>
    </trkpt>
    <trkpt lat="56.318385" lon="60.823092">
        <ele>274.4</ele>
        <time>1970-01-01T11:46:07.145Z</time>
    </trkpt>
    <trkpt lat="56.318385" lon="60.823092">
        <ele>274.4</ele>
        <time>1970-01-01T11:46:08.145Z</time>
    </trkpt>
    <trkpt lat="56.318388" lon="60.823094">
        <ele>274.4</ele>
        <time>1970-01-01T11:46:09.145Z</time>
    </trkpt>
    <trkpt lat="56.318382" lon="60.823099">
        <ele>274.4</ele>
        <time>1970-01-01T11:46:10.145Z</time>
    </trkpt>
    <trkpt lat="56.318382" lon="60.823099">
        <ele>274.4</ele>
        <time>1970-01-01T11:46:11.145Z</time>
    </trkpt>
    <trkpt lat="56.318375" lon="60.8231">
        <ele>274.4</ele>
        <time>1970-01-01T11:46:12.145Z</time>
    </trkpt>
    <trkpt lat="56.318368" lon="60.823108">
        <ele>274.5</ele>
        <time>1970-01-01T11:46:13.145Z</time>
    </trkpt>
    <trkpt lat="56.318359" lon="60.82312">
        <ele>274.5</ele>
        <time>1970-01-01T11:46:14.145Z</time>
    </trkpt>
    <trkpt lat="56.318349" lon="60.823133">
        <ele>274.5</ele>
        <time>1970-01-01T11:46:15.145Z</time>
    </trkpt>
    <trkpt lat="56.31832" lon="60.82317">
        <ele>274.6</ele>
        <time>1970-01-01T11:46:16.145Z</time>
    </trkpt>
    <trkpt lat="56.318309" lon="60.82318">
        <ele>274.6</ele>
        <time>1970-01-01T11:46:17.145Z</time>
    </trkpt>
    <trkpt lat="56.318281" lon="60.823199">
        <ele>274.7</ele>
        <time>1970-01-01T11:46:18.145Z</time>
    </trkpt>
    <trkpt lat="56.318254" lon="60.823195">
        <ele>274.8</ele>
        <time>1970-01-01T11:46:19.145Z</time>
    </trkpt>
    <trkpt lat="56.318207" lon="60.823201">
        <ele>274.9</ele>
        <time>1970-01-01T11:46:20.145Z</time>
    </trkpt>
    <trkpt lat="56.318174" lon="60.823222">
        <ele>275.0</ele>
        <time>1970-01-01T11:46:21.145Z</time>
    </trkpt>
    <trkpt lat="56.318147" lon="60.823242">
        <ele>275.1</ele>
        <time>1970-01-01T11:46:22.145Z</time>
    </trkpt>
    <trkpt lat="56.318121" lon="60.823282">
        <ele>275.2</ele>
        <time>1970-01-01T11:46:23.145Z</time>
    </trkpt>
    <trkpt lat="56.318094" lon="60.823318">
        <ele>275.3</ele>
        <time>1970-01-01T11:46:24.145Z</time>
    </trkpt>
    <trkpt lat="56.318066" lon="60.823347">
        <ele>275.3</ele>
        <time>1970-01-01T11:46:25.145Z</time>
    </trkpt>
    <trkpt lat="56.318042" lon="60.823389">
        <ele>275.4</ele>
        <time>1970-01-01T11:46:26.145Z</time>
    </trkpt>
    <trkpt lat="56.318017" lon="60.823433">
        <ele>275.5</ele>
        <time>1970-01-01T11:46:27.145Z</time>
    </trkpt>
    <trkpt lat="56.317997" lon="60.823487">
        <ele>275.6</ele>
        <time>1970-01-01T11:46:28.145Z</time>
    </trkpt>
    <trkpt lat="56.317972" lon="60.823553">
        <ele>275.7</ele>
        <time>1970-01-01T11:46:29.145Z</time>
    </trkpt>
    <trkpt lat="56.317943" lon="60.823609">
        <ele>275.8</ele>
        <time>1970-01-01T11:46:30.145Z</time>
    </trkpt>
    <trkpt lat="56.317906" lon="60.823686">
        <ele>276.0</ele>
        <time>1970-01-01T11:46:31.145Z</time>
    </trkpt>
    <trkpt lat="56.317877" lon="60.823738">
        <ele>276.1</ele>
        <time>1970-01-01T11:46:32.145Z</time>
    </trkpt>
    <trkpt lat="56.317845" lon="60.823795">
        <ele>276.2</ele>
        <time>1970-01-01T11:46:33.145Z</time>
    </trkpt>
    <trkpt lat="56.317815" lon="60.823856">
        <ele>276.3</ele>
        <time>1970-01-01T11:46:34.145Z</time>
    </trkpt>
    <trkpt lat="56.317787" lon="60.823923">
        <ele>276.4</ele>
        <time>1970-01-01T11:46:35.145Z</time>
    </trkpt>
    <trkpt lat="56.317759" lon="60.823987">
        <ele>276.5</ele>
        <time>1970-01-01T11:46:36.145Z</time>
    </trkpt>
    <trkpt lat="56.317731" lon="60.824041">
        <ele>276.6</ele>
        <time>1970-01-01T11:46:37.145Z</time>
    </trkpt>
    <trkpt lat="56.317701" lon="60.82411">
        <ele>276.8</ele>
        <time>1970-01-01T11:46:38.145Z</time>
    </trkpt>
    <trkpt lat="56.317676" lon="60.824175">
        <ele>276.9</ele>
        <time>1970-01-01T11:46:39.145Z</time>
    </trkpt>
    <trkpt lat="56.317655" lon="60.824221">
        <ele>277.0</ele>
        <time>1970-01-01T11:46:40.145Z</time>
    </trkpt>
    <trkpt lat="56.317636" lon="60.824279">
        <ele>277.0</ele>
        <time>1970-01-01T11:46:41.145Z</time>
    </trkpt>
    <trkpt lat="56.317617" lon="60.824325">
        <ele>277.1</ele>
        <time>1970-01-01T11:46:42.145Z</time>
    </trkpt>
    <trkpt lat="56.317596" lon="60.824377">
        <ele>277.2</ele>
        <time>1970-01-01T11:46:43.145Z</time>
    </trkpt>
    <trkpt lat="56.317566" lon="60.824432">
        <ele>277.3</ele>
        <time>1970-01-01T11:46:44.145Z</time>
    </trkpt>
    <trkpt lat="56.317555" lon="60.824452">
        <ele>277.4</ele>
        <time>1970-01-01T11:46:45.145Z</time>
    </trkpt>
    <trkpt lat="56.317529" lon="60.824497">
        <ele>277.5</ele>
        <time>1970-01-01T11:46:46.145Z</time>
    </trkpt>
    <trkpt lat="56.317525" lon="60.824513">
        <ele>277.5</ele>
        <time>1970-01-01T11:46:47.145Z</time>
    </trkpt>
    <trkpt lat="56.317512" lon="60.824554">
        <ele>277.6</ele>
        <time>1970-01-01T11:46:48.145Z</time>
    </trkpt>
    <trkpt lat="56.317507" lon="60.824571">
        <ele>277.6</ele>
        <time>1970-01-01T11:46:49.145Z</time>
    </trkpt>
    <trkpt lat="56.317487" lon="60.824623">
        <ele>277.7</ele>
        <time>1970-01-01T11:46:50.145Z</time>
    </trkpt>
    <trkpt lat="56.317481" lon="60.824642">
        <ele>277.7</ele>
        <time>1970-01-01T11:46:51.145Z</time>
    </trkpt>
    <trkpt lat="56.317459" lon="60.824695">
        <ele>277.8</ele>
        <time>1970-01-01T11:46:52.145Z</time>
    </trkpt>
    <trkpt lat="56.317454" lon="60.824714">
        <ele>277.8</ele>
        <time>1970-01-01T11:46:53.145Z</time>
    </trkpt>
    <trkpt lat="56.317429" lon="60.824765">
        <ele>277.9</ele>
        <time>1970-01-01T11:46:54.145Z</time>
    </trkpt>
    <trkpt lat="56.317427" lon="60.824784">
        <ele>277.9</ele>
        <time>1970-01-01T11:46:55.145Z</time>
    </trkpt>
    <trkpt lat="56.317415" lon="60.824838">
        <ele>278.0</ele>
        <time>1970-01-01T11:46:56.145Z</time>
    </trkpt>
    <trkpt lat="56.317404" lon="60.824852">
        <ele>278.1</ele>
        <time>1970-01-01T11:46:57.145Z</time>
    </trkpt>
    <trkpt lat="56.317389" lon="60.824896">
        <ele>278.1</ele>
        <time>1970-01-01T11:46:58.145Z</time>
    </trkpt>
    <trkpt lat="56.317382" lon="60.82491">
        <ele>278.2</ele>
        <time>1970-01-01T11:46:59.145Z</time>
    </trkpt>
    <trkpt lat="56.317356" lon="60.824952">
        <ele>278.3</ele>
        <time>1970-01-01T11:47:00.145Z</time>
    </trkpt>
    <trkpt lat="56.317331" lon="60.824992">
        <ele>278.3</ele>
        <time>1970-01-01T11:47:01.145Z</time>
    </trkpt>
    <trkpt lat="56.317317" lon="60.82501">
        <ele>278.4</ele>
        <time>1970-01-01T11:47:02.145Z</time>
    </trkpt>
    <trkpt lat="56.317305" lon="60.825034">
        <ele>278.4</ele>
        <time>1970-01-01T11:47:03.145Z</time>
    </trkpt>
    <trkpt lat="56.317298" lon="60.825051">
        <ele>278.5</ele>
        <time>1970-01-01T11:47:04.145Z</time>
    </trkpt>
    <trkpt lat="56.317286" lon="60.825063">
        <ele>278.5</ele>
        <time>1970-01-01T11:47:05.145Z</time>
    </trkpt>
    <trkpt lat="56.317284" lon="60.825072">
        <ele>278.5</ele>
        <time>1970-01-01T11:47:06.145Z</time>
    </trkpt>
    <trkpt lat="56.317245" lon="60.825384">
        <ele>279.0</ele>
        <time>1970-01-01T11:47:59.145Z</time>
    </trkpt>
    <trkpt lat="56.317239" lon="60.825406">
        <ele>279.0</ele>
        <time>1970-01-01T11:48:00.145Z</time>
    </trkpt>
    <trkpt lat="56.317247" lon="60.825417">
        <ele>279.0</ele>
        <time>1970-01-01T11:48:01.145Z</time>
    </trkpt>
    <trkpt lat="56.317251" lon="60.825441">
        <ele>279.1</ele>
        <time>1970-01-01T11:48:02.145Z</time>
    </trkpt>
    <trkpt lat="56.317251" lon="60.825441">
        <ele>279.1</ele>
        <time>1970-01-01T11:48:03.145Z</time>
    </trkpt>
    <trkpt lat="56.317253" lon="60.825451">
        <ele>279.1</ele>
        <time>1970-01-01T11:48:04.145Z</time>
    </trkpt>
    <trkpt lat="56.317245" lon="60.825471">
        <ele>279.1</ele>
        <time>1970-01-01T11:48:05.145Z</time>
    </trkpt>
    <trkpt lat="56.317251" lon="60.825484">
        <ele>279.1</ele>
        <time>1970-01-01T11:48:06.145Z</time>
    </trkpt>
    <trkpt lat="56.317255" lon="60.825492">
        <ele>279.1</ele>
        <time>1970-01-01T11:48:07.145Z</time>
    </trkpt>
    <trkpt lat="56.317253" lon="60.825489">
        <ele>279.1</ele>
        <time>1970-01-01T11:48:08.145Z</time>
    </trkpt>
    <trkpt lat="56.317245" lon="60.825508">
        <ele>279.2</ele>
        <time>1970-01-01T11:48:09.145Z</time>
    </trkpt>
    <trkpt lat="56.31724" lon="60.82553">
        <ele>279.2</ele>
        <time>1970-01-01T11:48:10.145Z</time>
    </trkpt>
    <trkpt lat="56.317222" lon="60.825594">
        <ele>279.3</ele>
        <time>1970-01-01T11:48:11.145Z</time>
    </trkpt>
    <trkpt lat="56.317197" lon="60.825651">
        <ele>279.4</ele>
        <time>1970-01-01T11:48:12.145Z</time>
    </trkpt>
    <trkpt lat="56.317189" lon="60.825672">
        <ele>279.5</ele>
        <time>1970-01-01T11:48:13.145Z</time>
    </trkpt>
    <trkpt lat="56.317175" lon="60.825724">
        <ele>279.5</ele>
        <time>1970-01-01T11:48:14.145Z</time>
    </trkpt>
    <trkpt lat="56.317161" lon="60.825772">
        <ele>279.6</ele>
        <time>1970-01-01T11:48:15.145Z</time>
    </trkpt>
    <trkpt lat="56.317161" lon="60.825826">
        <ele>279.7</ele>
        <time>1970-01-01T11:48:16.145Z</time>
    </trkpt>
    <trkpt lat="56.317153" lon="60.825886">
        <ele>279.8</ele>
        <time>1970-01-01T11:48:17.145Z</time>
    </trkpt>
    <trkpt lat="56.317149" lon="60.825913">
        <ele>279.8</ele>
        <time>1970-01-01T11:48:18.145Z</time>
    </trkpt>
    <trkpt lat="56.317141" lon="60.825981">
        <ele>279.9</ele>
        <time>1970-01-01T11:48:19.145Z</time>
    </trkpt>
    <trkpt lat="56.317136" lon="60.826033">
        <ele>280.0</ele>
        <time>1970-01-01T11:48:20.145Z</time>
    </trkpt>
    <trkpt lat="56.317133" lon="60.826057">
        <ele>280.0</ele>
        <time>1970-01-01T11:48:21.145Z</time>
    </trkpt>
    <trkpt lat="56.317127" lon="60.826103">
        <ele>280.1</ele>
        <time>1970-01-01T11:48:22.145Z</time>
    </trkpt>
    <trkpt lat="56.317129" lon="60.826131">
        <ele>280.1</ele>
        <time>1970-01-01T11:48:23.145Z</time>
    </trkpt>
    <trkpt lat="56.317136" lon="60.826195">
        <ele>280.2</ele>
        <time>1970-01-01T11:48:24.145Z</time>
    </trkpt>
    <trkpt lat="56.317133" lon="60.826255">
        <ele>280.3</ele>
        <time>1970-01-01T11:48:25.145Z</time>
    </trkpt>
    <trkpt lat="56.317136" lon="60.826311">
        <ele>280.4</ele>
        <time>1970-01-01T11:48:26.145Z</time>
    </trkpt>
    <trkpt lat="56.317129" lon="60.826363">
        <ele>280.5</ele>
        <time>1970-01-01T11:48:27.145Z</time>
    </trkpt>
    <trkpt lat="56.31713" lon="60.826382">
        <ele>280.5</ele>
        <time>1970-01-01T11:48:28.145Z</time>
    </trkpt>
    <trkpt lat="56.317129" lon="60.826442">
        <ele>280.5</ele>
        <time>1970-01-01T11:48:29.145Z</time>
    </trkpt>
    <trkpt lat="56.317128" lon="60.826476">
        <ele>280.6</ele>
        <time>1970-01-01T11:48:30.145Z</time>
    </trkpt>
    <trkpt lat="56.317126" lon="60.826548">
        <ele>280.6</ele>
        <time>1970-01-01T11:48:31.145Z</time>
    </trkpt>
    <trkpt lat="56.317115" lon="60.826596">
        <ele>280.6</ele>
        <time>1970-01-01T11:48:32.145Z</time>
    </trkpt>
    <trkpt lat="56.317114" lon="60.826652">
        <ele>280.7</ele>
        <time>1970-01-01T11:48:33.145Z</time>
    </trkpt>
    <trkpt lat="56.317113" lon="60.826687">
        <ele>280.7</ele>
        <time>1970-01-01T11:48:34.145Z</time>
    </trkpt>
    <trkpt lat="56.317115" lon="60.82671">
        <ele>280.8</ele>
        <time>1970-01-01T11:48:35.145Z</time>
    </trkpt>
    <trkpt lat="56.317114" lon="60.826739">
        <ele>280.8</ele>
        <time>1970-01-01T11:48:36.145Z</time>
    </trkpt>
    <trkpt lat="56.317112" lon="60.826812">
        <ele>280.8</ele>
        <time>1970-01-01T11:48:37.145Z</time>
    </trkpt>
    <trkpt lat="56.317105" lon="60.826867">
        <ele>280.9</ele>
        <time>1970-01-01T11:48:38.145Z</time>
    </trkpt>
    <trkpt lat="56.317105" lon="60.826884">
        <ele>280.9</ele>
        <time>1970-01-01T11:48:39.145Z</time>
    </trkpt>
    <trkpt lat="56.317108" lon="60.826937">
        <ele>280.9</ele>
        <time>1970-01-01T11:48:40.145Z</time>
    </trkpt>
    <trkpt lat="56.31711" lon="60.826961">
        <ele>281.0</ele>
        <time>1970-01-01T11:48:41.145Z</time>
    </trkpt>
    <trkpt lat="56.317114" lon="60.82703">
        <ele>281.0</ele>
        <time>1970-01-01T11:48:42.145Z</time>
    </trkpt>
    <trkpt lat="56.31711" lon="60.827092">
        <ele>281.1</ele>
        <time>1970-01-01T11:48:43.145Z</time>
    </trkpt>
    <trkpt lat="56.317107" lon="60.827149">
        <ele>281.1</ele>
        <time>1970-01-01T11:48:44.145Z</time>
    </trkpt>
    <trkpt lat="56.317102" lon="60.827214">
        <ele>281.1</ele>
        <time>1970-01-01T11:48:45.145Z</time>
    </trkpt>
    <trkpt lat="56.317104" lon="60.82727">
        <ele>281.2</ele>
        <time>1970-01-01T11:48:46.145Z</time>
    </trkpt>
    <trkpt lat="56.317104" lon="60.827293">
        <ele>281.2</ele>
        <time>1970-01-01T11:48:47.145Z</time>
    </trkpt>
    <trkpt lat="56.317096" lon="60.82736">
        <ele>281.2</ele>
        <time>1970-01-01T11:48:48.145Z</time>
    </trkpt>
    <trkpt lat="56.317096" lon="60.82738">
        <ele>281.3</ele>
        <time>1970-01-01T11:48:49.145Z</time>
    </trkpt>
    <trkpt lat="56.317098" lon="60.827442">
        <ele>281.3</ele>
        <time>1970-01-01T11:48:50.145Z</time>
    </trkpt>
    <trkpt lat="56.317099" lon="60.827459">
        <ele>281.4</ele>
        <time>1970-01-01T11:48:51.145Z</time>
    </trkpt>
    <trkpt lat="56.317104" lon="60.827519">
        <ele>281.4</ele>
        <time>1970-01-01T11:48:52.145Z</time>
    </trkpt>
    <trkpt lat="56.317103" lon="60.827543">
        <ele>282.4</ele>
        <time>1970-01-01T11:48:53.145Z</time>
    </trkpt>
    <trkpt lat="56.317092" lon="60.827606">
        <ele>282.5</ele>
        <time>1970-01-01T11:48:54.145Z</time>
    </trkpt>
    <trkpt lat="56.317094" lon="60.82764">
        <ele>282.5</ele>
        <time>1970-01-01T11:48:55.145Z</time>
    </trkpt>
    <trkpt lat="56.31709" lon="60.827667">
        <ele>282.5</ele>
        <time>1970-01-01T11:48:56.145Z</time>
    </trkpt>
    <trkpt lat="56.317086" lon="60.827682">
        <ele>282.6</ele>
        <time>1970-01-01T11:48:57.145Z</time>
    </trkpt>
    <trkpt lat="56.317076" lon="60.827739">
        <ele>282.6</ele>
        <time>1970-01-01T11:48:58.145Z</time>
    </trkpt>
    <trkpt lat="56.317068" lon="60.827777">
        <ele>282.7</ele>
        <time>1970-01-01T11:48:59.145Z</time>
    </trkpt>
    <trkpt lat="56.317064" lon="60.827794">
        <ele>282.7</ele>
        <time>1970-01-01T11:49:00.145Z</time>
    </trkpt>
    <trkpt lat="56.317058" lon="60.827832">
        <ele>282.7</ele>
        <time>1970-01-01T11:49:01.145Z</time>
    </trkpt>
    <trkpt lat="56.317054" lon="60.827852">
        <ele>282.8</ele>
        <time>1970-01-01T11:49:02.145Z</time>
    </trkpt>
    <trkpt lat="56.317049" lon="60.827873">
        <ele>282.8</ele>
        <time>1970-01-01T11:49:03.145Z</time>
    </trkpt>
    <trkpt lat="56.317043" lon="60.827926">
        <ele>282.8</ele>
        <time>1970-01-01T11:49:04.145Z</time>
    </trkpt>
    <trkpt lat="56.31704" lon="60.827948">
        <ele>282.9</ele>
        <time>1970-01-01T11:49:05.145Z</time>
    </trkpt>
    <trkpt lat="56.317029" lon="60.82799">
        <ele>282.9</ele>
        <time>1970-01-01T11:49:06.145Z</time>
    </trkpt>
    <trkpt lat="56.317023" lon="60.828009">
        <ele>283.0</ele>
        <time>1970-01-01T11:49:07.145Z</time>
    </trkpt>
    <trkpt lat="56.31702" lon="60.828062">
        <ele>283.0</ele>
        <time>1970-01-01T11:49:08.145Z</time>
    </trkpt>
    <trkpt lat="56.31702" lon="60.82808">
        <ele>283.0</ele>
        <time>1970-01-01T11:49:09.145Z</time>
    </trkpt>
    <trkpt lat="56.317016" lon="60.828143">
        <ele>283.1</ele>
        <time>1970-01-01T11:49:10.145Z</time>
    </trkpt>
    <trkpt lat="56.317003" lon="60.8282">
        <ele>284.1</ele>
        <time>1970-01-01T11:49:11.145Z</time>
    </trkpt>
    <trkpt lat="56.316998" lon="60.828247">
        <ele>283.1</ele>
        <time>1970-01-01T11:49:12.145Z</time>
    </trkpt>
    <trkpt lat="56.317003" lon="60.8283">
        <ele>283.2</ele>
        <time>1970-01-01T11:49:13.145Z</time>
    </trkpt>
    <trkpt lat="56.317" lon="60.82832">
        <ele>283.2</ele>
        <time>1970-01-01T11:49:14.145Z</time>
    </trkpt>
    <trkpt lat="56.316991" lon="60.828375">
        <ele>283.3</ele>
        <time>1970-01-01T11:49:15.145Z</time>
    </trkpt>
    <trkpt lat="56.31699" lon="60.828397">
        <ele>283.3</ele>
        <time>1970-01-01T11:49:16.145Z</time>
    </trkpt>
    <trkpt lat="56.316986" lon="60.828459">
        <ele>283.3</ele>
        <time>1970-01-01T11:49:17.145Z</time>
    </trkpt>
    <trkpt lat="56.316985" lon="60.828482">
        <ele>283.4</ele>
        <time>1970-01-01T11:49:18.145Z</time>
    </trkpt>
    <trkpt lat="56.316985" lon="60.828543">
        <ele>283.4</ele>
        <time>1970-01-01T11:49:19.145Z</time>
    </trkpt>
    <trkpt lat="56.316981" lon="60.828591">
        <ele>282.4</ele>
        <time>1970-01-01T11:49:20.145Z</time>
    </trkpt>
    <trkpt lat="56.316976" lon="60.828606">
        <ele>282.5</ele>
        <time>1970-01-01T11:49:21.145Z</time>
    </trkpt>
    <trkpt lat="56.316974" lon="60.828664">
        <ele>282.5</ele>
        <time>1970-01-01T11:49:22.145Z</time>
    </trkpt>
    <trkpt lat="56.316969" lon="60.828715">
        <ele>282.6</ele>
        <time>1970-01-01T11:49:23.145Z</time>
    </trkpt>
    <trkpt lat="56.316966" lon="60.828739">
        <ele>282.6</ele>
        <time>1970-01-01T11:49:24.145Z</time>
    </trkpt>
    <trkpt lat="56.316956" lon="60.828806">
        <ele>282.6</ele>
        <time>1970-01-01T11:49:25.145Z</time>
    </trkpt>
    <trkpt lat="56.316954" lon="60.82883">
        <ele>282.7</ele>
        <time>1970-01-01T11:49:26.145Z</time>
    </trkpt>
    <trkpt lat="56.316943" lon="60.828886">
        <ele>282.7</ele>
        <time>1970-01-01T11:49:27.145Z</time>
    </trkpt>
    <trkpt lat="56.316927" lon="60.828933">
        <ele>281.7</ele>
        <time>1970-01-01T11:49:28.145Z</time>
    </trkpt>
    <trkpt lat="56.316924" lon="60.828959">
        <ele>281.8</ele>
        <time>1970-01-01T11:49:29.145Z</time>
    </trkpt>
    <trkpt lat="56.316913" lon="60.829027">
        <ele>282.8</ele>
        <time>1970-01-01T11:49:30.145Z</time>
    </trkpt>
    <trkpt lat="56.316911" lon="60.829041">
        <ele>282.9</ele>
        <time>1970-01-01T11:49:31.145Z</time>
    </trkpt>
    <trkpt lat="56.316901" lon="60.82909">
        <ele>281.9</ele>
        <time>1970-01-01T11:49:32.145Z</time>
    </trkpt>
    <trkpt lat="56.316898" lon="60.829106">
        <ele>281.9</ele>
        <time>1970-01-01T11:49:33.145Z</time>
    </trkpt>
    <trkpt lat="56.31689" lon="60.829154">
        <ele>282.0</ele>
        <time>1970-01-01T11:49:34.145Z</time>
    </trkpt>
    <trkpt lat="56.316885" lon="60.82922">
        <ele>282.0</ele>
        <time>1970-01-01T11:49:35.145Z</time>
    </trkpt>
    <trkpt lat="56.31688" lon="60.829272">
        <ele>281.0</ele>
        <time>1970-01-01T11:49:36.145Z</time>
    </trkpt>
    <trkpt lat="56.316879" lon="60.829293">
        <ele>281.1</ele>
        <time>1970-01-01T11:49:37.145Z</time>
    </trkpt>
    <trkpt lat="56.316879" lon="60.829354">
        <ele>281.1</ele>
        <time>1970-01-01T11:49:38.145Z</time>
    </trkpt>
    <trkpt lat="56.316879" lon="60.829377">
        <ele>281.2</ele>
        <time>1970-01-01T11:49:39.145Z</time>
    </trkpt>
    <trkpt lat="56.316884" lon="60.829439">
        <ele>280.2</ele>
        <time>1970-01-01T11:49:40.145Z</time>
    </trkpt>
    <trkpt lat="56.316884" lon="60.829463">
        <ele>280.2</ele>
        <time>1970-01-01T11:49:41.145Z</time>
    </trkpt>
    <trkpt lat="56.316885" lon="60.829488">
        <ele>280.3</ele>
        <time>1970-01-01T11:49:42.145Z</time>
    </trkpt>
    <trkpt lat="56.316886" lon="60.82957">
        <ele>280.3</ele>
        <time>1970-01-01T11:49:44.145Z</time>
    </trkpt>
    <trkpt lat="56.31689" lon="60.829622">
        <ele>280.3</ele>
        <time>1970-01-01T11:49:45.145Z</time>
    </trkpt>
    <trkpt lat="56.316891" lon="60.829639">
        <ele>280.4</ele>
        <time>1970-01-01T11:49:46.145Z</time>
    </trkpt>
    <trkpt lat="56.316894" lon="60.829702">
        <ele>280.4</ele>
        <time>1970-01-01T11:49:47.145Z</time>
    </trkpt>
    <trkpt lat="56.316896" lon="60.829726">
        <ele>280.5</ele>
        <time>1970-01-01T11:49:48.145Z</time>
    </trkpt>
    <trkpt lat="56.316907" lon="60.829784">
        <ele>279.5</ele>
        <time>1970-01-01T11:49:49.145Z</time>
    </trkpt>
    <trkpt lat="56.316904" lon="60.829812">
        <ele>279.5</ele>
        <time>1970-01-01T11:49:50.145Z</time>
    </trkpt>
    <trkpt lat="56.316903" lon="60.829874">
        <ele>279.6</ele>
        <time>1970-01-01T11:49:51.145Z</time>
    </trkpt>
    <trkpt lat="56.316905" lon="60.829889">
        <ele>279.6</ele>
        <time>1970-01-01T11:49:52.145Z</time>
    </trkpt>
    <trkpt lat="56.3169" lon="60.829944">
        <ele>279.6</ele>
        <time>1970-01-01T11:49:53.145Z</time>
    </trkpt>
    <trkpt lat="56.3169" lon="60.829966">
        <ele>279.7</ele>
        <time>1970-01-01T11:49:54.145Z</time>
    </trkpt>
    <trkpt lat="56.316897" lon="60.830036">
        <ele>279.7</ele>
        <time>1970-01-01T11:49:55.145Z</time>
    </trkpt>
    <trkpt lat="56.316895" lon="60.830059">
        <ele>279.8</ele>
        <time>1970-01-01T11:49:56.145Z</time>
    </trkpt>
    <trkpt lat="56.316894" lon="60.830114">
        <ele>278.8</ele>
        <time>1970-01-01T11:49:57.145Z</time>
    </trkpt>
    <trkpt lat="56.316894" lon="60.830134">
        <ele>278.8</ele>
        <time>1970-01-01T11:49:58.145Z</time>
    </trkpt>
    <trkpt lat="56.316893" lon="60.830194">
        <ele>278.9</ele>
        <time>1970-01-01T11:49:59.145Z</time>
    </trkpt>
    <trkpt lat="56.316892" lon="60.830217">
        <ele>278.9</ele>
        <time>1970-01-01T11:50:00.145Z</time>
    </trkpt>
    <trkpt lat="56.316888" lon="60.830284">
        <ele>277.9</ele>
        <time>1970-01-01T11:50:01.145Z</time>
    </trkpt>
    <trkpt lat="56.316885" lon="60.830303">
        <ele>278.0</ele>
        <time>1970-01-01T11:50:02.145Z</time>
    </trkpt>
    <trkpt lat="56.316879" lon="60.830365">
        <ele>278.0</ele>
        <time>1970-01-01T11:50:03.145Z</time>
    </trkpt>
    <trkpt lat="56.316878" lon="60.830381">
        <ele>278.1</ele>
        <time>1970-01-01T11:50:04.145Z</time>
    </trkpt>
    <trkpt lat="56.316876" lon="60.830432">
        <ele>278.1</ele>
        <time>1970-01-01T11:50:05.145Z</time>
    </trkpt>
    <trkpt lat="56.316873" lon="60.830466">
        <ele>278.1</ele>
        <time>1970-01-01T11:50:06.145Z</time>
    </trkpt>
    <trkpt lat="56.316871" lon="60.830485">
        <ele>278.2</ele>
        <time>1970-01-01T11:50:07.145Z</time>
    </trkpt>
    <trkpt lat="56.316869" lon="60.830503">
        <ele>278.2</ele>
        <time>1970-01-01T11:50:08.145Z</time>
    </trkpt>
    <trkpt lat="56.316868" lon="60.830552">
        <ele>278.2</ele>
        <time>1970-01-01T11:50:09.145Z</time>
    </trkpt>
    <trkpt lat="56.316865" lon="60.830569">
        <ele>278.3</ele>
        <time>1970-01-01T11:50:10.145Z</time>
    </trkpt>
    <trkpt lat="56.316862" lon="60.830617">
        <ele>277.3</ele>
        <time>1970-01-01T11:50:11.145Z</time>
    </trkpt>
    <trkpt lat="56.316862" lon="60.830643">
        <ele>277.4</ele>
        <time>1970-01-01T11:50:12.145Z</time>
    </trkpt>
    <trkpt lat="56.316857" lon="60.830713">
        <ele>277.4</ele>
        <time>1970-01-01T11:50:13.145Z</time>
    </trkpt>
    <trkpt lat="56.316858" lon="60.830736">
        <ele>277.4</ele>
        <time>1970-01-01T11:50:14.145Z</time>
    </trkpt>
    <trkpt lat="56.316857" lon="60.830784">
        <ele>276.5</ele>
        <time>1970-01-01T11:50:15.145Z</time>
    </trkpt>
    <trkpt lat="56.316859" lon="60.830827">
        <ele>276.5</ele>
        <time>1970-01-01T11:50:16.145Z</time>
    </trkpt>
    <trkpt lat="56.316863" lon="60.830845">
        <ele>276.5</ele>
        <time>1970-01-01T11:50:17.145Z</time>
    </trkpt>
    <trkpt lat="56.316868" lon="60.830866">
        <ele>276.6</ele>
        <time>1970-01-01T11:50:18.145Z</time>
    </trkpt>
    <trkpt lat="56.316877" lon="60.830925">
        <ele>276.6</ele>
        <time>1970-01-01T11:50:19.145Z</time>
    </trkpt>
    <trkpt lat="56.316885" lon="60.830954">
        <ele>276.7</ele>
        <time>1970-01-01T11:50:20.145Z</time>
    </trkpt>
    <trkpt lat="56.316884" lon="60.830984">
        <ele>276.7</ele>
        <time>1970-01-01T11:50:21.145Z</time>
    </trkpt>
    <trkpt lat="56.316887" lon="60.830998">
        <ele>276.7</ele>
        <time>1970-01-01T11:50:22.145Z</time>
    </trkpt>
    <trkpt lat="56.316898" lon="60.831059">
        <ele>276.8</ele>
        <time>1970-01-01T11:50:23.145Z</time>
    </trkpt>
    <trkpt lat="56.316899" lon="60.831089">
        <ele>276.8</ele>
        <time>1970-01-01T11:50:24.145Z</time>
    </trkpt>
    <trkpt lat="56.316899" lon="60.831123">
        <ele>276.8</ele>
        <time>1970-01-01T11:50:25.145Z</time>
    </trkpt>
    <trkpt lat="56.316902" lon="60.831143">
        <ele>275.9</ele>
        <time>1970-01-01T11:50:26.145Z</time>
    </trkpt>
    <trkpt lat="56.316915" lon="60.831195">
        <ele>275.9</ele>
        <time>1970-01-01T11:50:27.145Z</time>
    </trkpt>
    <trkpt lat="56.316916" lon="60.831216">
        <ele>276.0</ele>
        <time>1970-01-01T11:50:28.145Z</time>
    </trkpt>
    <trkpt lat="56.316916" lon="60.831275">
        <ele>276.0</ele>
        <time>1970-01-01T11:50:29.145Z</time>
    </trkpt>
    <trkpt lat="56.316915" lon="60.831302">
        <ele>275.0</ele>
        <time>1970-01-01T11:50:30.145Z</time>
    </trkpt>
    <trkpt lat="56.316915" lon="60.831361">
        <ele>275.1</ele>
        <time>1970-01-01T11:50:31.145Z</time>
    </trkpt>
    <trkpt lat="56.316917" lon="60.831379">
        <ele>275.1</ele>
        <time>1970-01-01T11:50:32.145Z</time>
    </trkpt>
    <trkpt lat="56.31692" lon="60.831434">
        <ele>275.1</ele>
        <time>1970-01-01T11:50:33.145Z</time>
    </trkpt>
    <trkpt lat="56.31692" lon="60.831456">
        <ele>275.2</ele>
        <time>1970-01-01T11:50:34.145Z</time>
    </trkpt>
    <trkpt lat="56.316919" lon="60.831517">
        <ele>274.2</ele>
        <time>1970-01-01T11:50:35.145Z</time>
    </trkpt>
    <trkpt lat="56.316917" lon="60.83155">
        <ele>274.3</ele>
        <time>1970-01-01T11:50:36.145Z</time>
    </trkpt>
    <trkpt lat="56.316921" lon="60.831581">
        <ele>274.3</ele>
        <time>1970-01-01T11:50:37.145Z</time>
    </trkpt>
    <trkpt lat="56.316919" lon="60.831606">
        <ele>274.3</ele>
        <time>1970-01-01T11:50:38.145Z</time>
    </trkpt>
    <trkpt lat="56.316913" lon="60.831675">
        <ele>273.4</ele>
        <time>1970-01-01T11:50:39.145Z</time>
    </trkpt>
    <trkpt lat="56.316913" lon="60.831693">
        <ele>273.4</ele>
        <time>1970-01-01T11:50:40.145Z</time>
    </trkpt>
    <trkpt lat="56.316908" lon="60.831739">
        <ele>273.4</ele>
        <time>1970-01-01T11:50:41.145Z</time>
    </trkpt>
    <trkpt lat="56.316907" lon="60.831792">
        <ele>273.5</ele>
        <time>1970-01-01T11:50:42.145Z</time>
    </trkpt>
    <trkpt lat="56.316909" lon="60.831814">
        <ele>272.5</ele>
        <time>1970-01-01T11:50:43.145Z</time>
    </trkpt>
    <trkpt lat="56.316904" lon="60.831855">
        <ele>272.6</ele>
        <time>1970-01-01T11:50:44.145Z</time>
    </trkpt>
    <trkpt lat="56.316889" lon="60.831911">
        <ele>272.6</ele>
        <time>1970-01-01T11:50:45.145Z</time>
    </trkpt>
    <trkpt lat="56.316881" lon="60.831964">
        <ele>272.6</ele>
        <time>1970-01-01T11:50:46.145Z</time>
    </trkpt>
    <trkpt lat="56.316871" lon="60.83199">
        <ele>272.7</ele>
        <time>1970-01-01T11:50:47.145Z</time>
    </trkpt>
    <trkpt lat="56.316848" lon="60.832049">
        <ele>272.7</ele>
        <time>1970-01-01T11:50:48.145Z</time>
    </trkpt>
    <trkpt lat="56.316842" lon="60.832065">
        <ele>272.7</ele>
        <time>1970-01-01T11:50:49.145Z</time>
    </trkpt>
    <trkpt lat="56.316827" lon="60.832108">
        <ele>272.8</ele>
        <time>1970-01-01T11:50:50.145Z</time>
    </trkpt>
    <trkpt lat="56.316821" lon="60.832125">
        <ele>272.8</ele>
        <time>1970-01-01T11:50:51.145Z</time>
    </trkpt>
    <trkpt lat="56.316804" lon="60.832182">
        <ele>272.9</ele>
        <time>1970-01-01T11:50:52.145Z</time>
    </trkpt>
    <trkpt lat="56.3168" lon="60.832203">
        <ele>272.9</ele>
        <time>1970-01-01T11:50:53.145Z</time>
    </trkpt>
    <trkpt lat="56.316786" lon="60.832268">
        <ele>272.9</ele>
        <time>1970-01-01T11:50:54.145Z</time>
    </trkpt>
    <trkpt lat="56.316784" lon="60.832287">
        <ele>273.0</ele>
        <time>1970-01-01T11:50:55.145Z</time>
    </trkpt>
    <trkpt lat="56.316772" lon="60.832347">
        <ele>273.0</ele>
        <time>1970-01-01T11:50:56.145Z</time>
    </trkpt>
    <trkpt lat="56.316768" lon="60.832375">
        <ele>273.0</ele>
        <time>1970-01-01T11:50:57.145Z</time>
    </trkpt>
    <trkpt lat="56.316757" lon="60.832445">
        <ele>273.1</ele>
        <time>1970-01-01T11:50:58.145Z</time>
    </trkpt>
    <trkpt lat="56.316755" lon="60.832465">
        <ele>273.1</ele>
        <time>1970-01-01T11:50:59.145Z</time>
    </trkpt>
    <trkpt lat="56.316745" lon="60.832528">
        <ele>273.2</ele>
        <time>1970-01-01T11:51:00.145Z</time>
    </trkpt>
    <trkpt lat="56.31673" lon="60.832579">
        <ele>273.2</ele>
        <time>1970-01-01T11:51:01.145Z</time>
    </trkpt>
    <trkpt lat="56.316721" lon="60.8326">
        <ele>273.2</ele>
        <time>1970-01-01T11:51:02.145Z</time>
    </trkpt>
    <trkpt lat="56.316704" lon="60.832662">
        <ele>273.3</ele>
        <time>1970-01-01T11:51:03.145Z</time>
    </trkpt>
    <trkpt lat="56.31669" lon="60.832706">
        <ele>273.3</ele>
        <time>1970-01-01T11:51:04.145Z</time>
    </trkpt>
    <trkpt lat="56.316679" lon="60.832736">
        <ele>273.3</ele>
        <time>1970-01-01T11:51:05.145Z</time>
    </trkpt>
    <trkpt lat="56.316671" lon="60.832756">
        <ele>273.4</ele>
        <time>1970-01-01T11:51:06.145Z</time>
    </trkpt>
    <trkpt lat="56.31667" lon="60.832769">
        <ele>273.4</ele>
        <time>1970-01-01T11:51:07.145Z</time>
    </trkpt>
    <trkpt lat="56.316665" lon="60.83282">
        <ele>273.5</ele>
        <time>1970-01-01T11:51:08.145Z</time>
    </trkpt>
    <trkpt lat="56.316648" lon="60.832872">
        <ele>273.5</ele>
        <time>1970-01-01T11:51:09.145Z</time>
    </trkpt>
    <trkpt lat="56.316642" lon="60.832924">
        <ele>273.5</ele>
        <time>1970-01-01T11:51:10.145Z</time>
    </trkpt>
    <trkpt lat="56.316638" lon="60.832949">
        <ele>273.6</ele>
        <time>1970-01-01T11:51:11.145Z</time>
    </trkpt>
    <trkpt lat="56.316632" lon="60.833001">
        <ele>273.6</ele>
        <time>1970-01-01T11:51:12.145Z</time>
    </trkpt>
    <trkpt lat="56.316628" lon="60.833015">
        <ele>274.6</ele>
        <time>1970-01-01T11:51:13.145Z</time>
    </trkpt>
    <trkpt lat="56.31662" lon="60.833071">
        <ele>274.7</ele>
        <time>1970-01-01T11:51:14.145Z</time>
    </trkpt>
    <trkpt lat="56.316616" lon="60.833094">
        <ele>274.7</ele>
        <time>1970-01-01T11:51:15.145Z</time>
    </trkpt>
    <trkpt lat="56.316601" lon="60.83316">
        <ele>274.8</ele>
        <time>1970-01-01T11:51:16.145Z</time>
    </trkpt>
    <trkpt lat="56.316599" lon="60.833176">
        <ele>274.8</ele>
        <time>1970-01-01T11:51:17.145Z</time>
    </trkpt>
    <trkpt lat="56.316589" lon="60.833235">
        <ele>274.8</ele>
        <time>1970-01-01T11:51:18.145Z</time>
    </trkpt>
    <trkpt lat="56.316585" lon="60.833255">
        <ele>274.9</ele>
        <time>1970-01-01T11:51:19.145Z</time>
    </trkpt>
    <trkpt lat="56.316572" lon="60.83331">
        <ele>274.9</ele>
        <time>1970-01-01T11:51:20.145Z</time>
    </trkpt>
    <trkpt lat="56.316568" lon="60.833328">
        <ele>274.9</ele>
        <time>1970-01-01T11:51:21.145Z</time>
    </trkpt>
    <trkpt lat="56.31656" lon="60.833373">
        <ele>275.0</ele>
        <time>1970-01-01T11:51:22.145Z</time>
    </trkpt>
    <trkpt lat="56.316555" lon="60.833403">
        <ele>275.0</ele>
        <time>1970-01-01T11:51:23.145Z</time>
    </trkpt>
    <trkpt lat="56.316552" lon="60.833432">
        <ele>275.1</ele>
        <time>1970-01-01T11:51:24.145Z</time>
    </trkpt>
    <trkpt lat="56.316547" lon="60.833455">
        <ele>275.0</ele>
        <time>1970-01-01T11:51:25.145Z</time>
    </trkpt>
    <trkpt lat="56.316531" lon="60.833511">
        <ele>275.0</ele>
        <time>1970-01-01T11:51:26.145Z</time>
    </trkpt>
    <trkpt lat="56.316526" lon="60.833535">
        <ele>275.0</ele>
        <time>1970-01-01T11:51:27.145Z</time>
    </trkpt>
    <trkpt lat="56.316512" lon="60.833598">
        <ele>274.8</ele>
        <time>1970-01-01T11:51:28.145Z</time>
    </trkpt>
    <trkpt lat="56.316504" lon="60.833624">
        <ele>274.8</ele>
        <time>1970-01-01T11:51:29.145Z</time>
    </trkpt>
    <trkpt lat="56.316496" lon="60.833654">
        <ele>274.7</ele>
        <time>1970-01-01T11:51:30.145Z</time>
    </trkpt>
    <trkpt lat="56.316491" lon="60.833676">
        <ele>274.6</ele>
        <time>1970-01-01T11:51:31.145Z</time>
    </trkpt>
    <trkpt lat="56.316486" lon="60.833698">
        <ele>274.6</ele>
        <time>1970-01-01T11:51:32.145Z</time>
    </trkpt>
    <trkpt lat="56.316481" lon="60.833732">
        <ele>274.5</ele>
        <time>1970-01-01T11:51:33.145Z</time>
    </trkpt>
    <trkpt lat="56.316475" lon="60.833753">
        <ele>274.5</ele>
        <time>1970-01-01T11:51:34.145Z</time>
    </trkpt>
    <trkpt lat="56.316462" lon="60.833803">
        <ele>274.3</ele>
        <time>1970-01-01T11:51:35.145Z</time>
    </trkpt>
    <trkpt lat="56.31646" lon="60.833826">
        <ele>274.3</ele>
        <time>1970-01-01T11:51:36.145Z</time>
    </trkpt>
    <trkpt lat="56.316457" lon="60.833873">
        <ele>274.2</ele>
        <time>1970-01-01T11:51:37.145Z</time>
    </trkpt>
    <trkpt lat="56.316453" lon="60.833889">
        <ele>274.1</ele>
        <time>1970-01-01T11:51:38.145Z</time>
    </trkpt>
    <trkpt lat="56.316438" lon="60.833947">
        <ele>274.0</ele>
        <time>1970-01-01T11:51:39.145Z</time>
    </trkpt>
    <trkpt lat="56.316438" lon="60.833972">
        <ele>273.9</ele>
        <time>1970-01-01T11:51:40.145Z</time>
    </trkpt>
    <trkpt lat="56.316435" lon="60.834045">
        <ele>273.8</ele>
        <time>1970-01-01T11:51:41.145Z</time>
    </trkpt>
    <trkpt lat="56.316432" lon="60.834067">
        <ele>273.7</ele>
        <time>1970-01-01T11:51:42.145Z</time>
    </trkpt>
    <trkpt lat="56.316427" lon="60.834122">
        <ele>273.6</ele>
        <time>1970-01-01T11:51:43.145Z</time>
    </trkpt>
    <trkpt lat="56.316425" lon="60.834177">
        <ele>273.5</ele>
        <time>1970-01-01T11:51:44.145Z</time>
    </trkpt>
    <trkpt lat="56.316423" lon="60.834194">
        <ele>273.5</ele>
        <time>1970-01-01T11:51:45.145Z</time>
    </trkpt>
    <trkpt lat="56.316421" lon="60.834245">
        <ele>273.4</ele>
        <time>1970-01-01T11:51:46.145Z</time>
    </trkpt>
    <trkpt lat="56.31642" lon="60.834299">
        <ele>273.2</ele>
        <time>1970-01-01T11:51:47.145Z</time>
    </trkpt>
    <trkpt lat="56.316421" lon="60.834325">
        <ele>273.2</ele>
        <time>1970-01-01T11:51:48.145Z</time>
    </trkpt>
    <trkpt lat="56.316423" lon="60.83438">
        <ele>273.1</ele>
        <time>1970-01-01T11:51:49.145Z</time>
    </trkpt>
    <trkpt lat="56.316423" lon="60.834433">
        <ele>272.9</ele>
        <time>1970-01-01T11:51:50.145Z</time>
    </trkpt>
    <trkpt lat="56.316426" lon="60.834489">
        <ele>272.8</ele>
        <time>1970-01-01T11:51:51.145Z</time>
    </trkpt>
    <trkpt lat="56.316427" lon="60.834513">
        <ele>272.8</ele>
        <time>1970-01-01T11:51:52.145Z</time>
    </trkpt>
    <trkpt lat="56.31643" lon="60.834582">
        <ele>272.6</ele>
        <time>1970-01-01T11:51:53.145Z</time>
    </trkpt>
    <trkpt lat="56.316431" lon="60.834604">
        <ele>272.6</ele>
        <time>1970-01-01T11:51:54.145Z</time>
    </trkpt>
    <trkpt lat="56.316432" lon="60.834656">
        <ele>272.5</ele>
        <time>1970-01-01T11:51:55.145Z</time>
    </trkpt>
    <trkpt lat="56.316433" lon="60.834685">
        <ele>272.4</ele>
        <time>1970-01-01T11:51:56.145Z</time>
    </trkpt>
    <trkpt lat="56.316433" lon="60.834746">
        <ele>272.3</ele>
        <time>1970-01-01T11:51:57.145Z</time>
    </trkpt>
    <trkpt lat="56.316429" lon="60.834798">
        <ele>272.2</ele>
        <time>1970-01-01T11:51:58.145Z</time>
    </trkpt>
    <trkpt lat="56.316439" lon="60.834858">
        <ele>272.0</ele>
        <time>1970-01-01T11:51:59.145Z</time>
    </trkpt>
    <trkpt lat="56.316436" lon="60.834917">
        <ele>271.9</ele>
        <time>1970-01-01T11:52:00.145Z</time>
    </trkpt>
    <trkpt lat="56.316438" lon="60.834947">
        <ele>271.8</ele>
        <time>1970-01-01T11:52:01.145Z</time>
    </trkpt>
    <trkpt lat="56.316437" lon="60.83502">
        <ele>271.7</ele>
        <time>1970-01-01T11:52:02.145Z</time>
    </trkpt>
    <trkpt lat="56.316437" lon="60.83504">
        <ele>271.6</ele>
        <time>1970-01-01T11:52:03.145Z</time>
    </trkpt>
    <trkpt lat="56.316434" lon="60.835107">
        <ele>271.5</ele>
        <time>1970-01-01T11:52:04.145Z</time>
    </trkpt>
    <trkpt lat="56.31643" lon="60.835123">
        <ele>271.4</ele>
        <time>1970-01-01T11:52:05.145Z</time>
    </trkpt>
    <trkpt lat="56.316427" lon="60.835181">
        <ele>271.3</ele>
        <time>1970-01-01T11:52:06.145Z</time>
    </trkpt>
    <trkpt lat="56.316429" lon="60.835202">
        <ele>271.3</ele>
        <time>1970-01-01T11:52:07.145Z</time>
    </trkpt>
    <trkpt lat="56.316428" lon="60.83527">
        <ele>271.1</ele>
        <time>1970-01-01T11:52:08.145Z</time>
    </trkpt>
    <trkpt lat="56.316424" lon="60.835292">
        <ele>271.1</ele>
        <time>1970-01-01T11:52:09.145Z</time>
    </trkpt>
    <trkpt lat="56.316425" lon="60.835352">
        <ele>270.9</ele>
        <time>1970-01-01T11:52:10.145Z</time>
    </trkpt>
    <trkpt lat="56.316425" lon="60.835377">
        <ele>270.9</ele>
        <time>1970-01-01T11:52:11.145Z</time>
    </trkpt>
    <trkpt lat="56.316431" lon="60.835427">
        <ele>270.8</ele>
        <time>1970-01-01T11:52:12.145Z</time>
    </trkpt>
    <trkpt lat="56.316436" lon="60.835475">
        <ele>270.7</ele>
        <time>1970-01-01T11:52:13.145Z</time>
    </trkpt>
    <trkpt lat="56.316426" lon="60.835523">
        <ele>270.6</ele>
        <time>1970-01-01T11:52:14.145Z</time>
    </trkpt>
    <trkpt lat="56.31641" lon="60.835579">
        <ele>270.4</ele>
        <time>1970-01-01T11:52:15.145Z</time>
    </trkpt>
    <trkpt lat="56.316403" lon="60.835611">
        <ele>270.3</ele>
        <time>1970-01-01T11:52:16.145Z</time>
    </trkpt>
    <trkpt lat="56.316395" lon="60.835683">
        <ele>270.2</ele>
        <time>1970-01-01T11:52:17.145Z</time>
    </trkpt>
    <trkpt lat="56.316397" lon="60.835703">
        <ele>270.1</ele>
        <time>1970-01-01T11:52:18.145Z</time>
    </trkpt>
    <trkpt lat="56.316397" lon="60.835752">
        <ele>270.0</ele>
        <time>1970-01-01T11:52:19.145Z</time>
    </trkpt>
    <trkpt lat="56.316399" lon="60.835775">
        <ele>270.0</ele>
        <time>1970-01-01T11:52:20.145Z</time>
    </trkpt>
    <trkpt lat="56.316395" lon="60.835843">
        <ele>269.8</ele>
        <time>1970-01-01T11:52:21.145Z</time>
    </trkpt>
    <trkpt lat="56.316398" lon="60.835893">
        <ele>269.7</ele>
        <time>1970-01-01T11:52:22.145Z</time>
    </trkpt>
    <trkpt lat="56.316402" lon="60.835919">
        <ele>269.7</ele>
        <time>1970-01-01T11:52:23.145Z</time>
    </trkpt>
    <trkpt lat="56.316405" lon="60.83598">
        <ele>269.5</ele>
        <time>1970-01-01T11:52:24.145Z</time>
    </trkpt>
    <trkpt lat="56.31641" lon="60.835999">
        <ele>269.5</ele>
        <time>1970-01-01T11:52:25.145Z</time>
    </trkpt>
    <trkpt lat="56.316415" lon="60.836056">
        <ele>269.4</ele>
        <time>1970-01-01T11:52:26.145Z</time>
    </trkpt>
    <trkpt lat="56.316418" lon="60.836076">
        <ele>269.3</ele>
        <time>1970-01-01T11:52:27.145Z</time>
    </trkpt>
    <trkpt lat="56.316419" lon="60.836139">
        <ele>269.2</ele>
        <time>1970-01-01T11:52:28.145Z</time>
    </trkpt>
    <trkpt lat="56.316413" lon="60.836165">
        <ele>269.1</ele>
        <time>1970-01-01T11:52:29.145Z</time>
    </trkpt>
    <trkpt lat="56.316409" lon="60.836217">
        <ele>269.0</ele>
        <time>1970-01-01T11:52:30.145Z</time>
    </trkpt>
    <trkpt lat="56.316407" lon="60.836239">
        <ele>269.0</ele>
        <time>1970-01-01T11:52:31.145Z</time>
    </trkpt>
    <trkpt lat="56.316397" lon="60.836303">
        <ele>268.8</ele>
        <time>1970-01-01T11:52:32.145Z</time>
    </trkpt>
    <trkpt lat="56.316396" lon="60.836324">
        <ele>268.8</ele>
        <time>1970-01-01T11:52:33.145Z</time>
    </trkpt>
    <trkpt lat="56.316396" lon="60.836374">
        <ele>268.7</ele>
        <time>1970-01-01T11:52:34.145Z</time>
    </trkpt>
    <trkpt lat="56.316394" lon="60.83639">
        <ele>268.6</ele>
        <time>1970-01-01T11:52:35.145Z</time>
    </trkpt>
    <trkpt lat="56.316389" lon="60.836448">
        <ele>268.5</ele>
        <time>1970-01-01T11:52:36.145Z</time>
    </trkpt>
    <trkpt lat="56.316387" lon="60.836473">
        <ele>268.4</ele>
        <time>1970-01-01T11:52:37.145Z</time>
    </trkpt>
    <trkpt lat="56.316384" lon="60.836507">
        <ele>268.4</ele>
        <time>1970-01-01T11:52:38.145Z</time>
    </trkpt>
    <trkpt lat="56.316379" lon="60.836539">
        <ele>268.3</ele>
        <time>1970-01-01T11:52:39.145Z</time>
    </trkpt>
    <trkpt lat="56.31638" lon="60.836567">
        <ele>268.2</ele>
        <time>1970-01-01T11:52:40.145Z</time>
    </trkpt>
    <trkpt lat="56.31638" lon="60.836583">
        <ele>268.2</ele>
        <time>1970-01-01T11:52:41.145Z</time>
    </trkpt>
    <trkpt lat="56.31637" lon="60.836641">
        <ele>268.1</ele>
        <time>1970-01-01T11:52:42.145Z</time>
    </trkpt>
    <trkpt lat="56.316367" lon="60.836658">
        <ele>268.0</ele>
        <time>1970-01-01T11:52:43.145Z</time>
    </trkpt>
    <trkpt lat="56.316365" lon="60.83671">
        <ele>267.9</ele>
        <time>1970-01-01T11:52:44.145Z</time>
    </trkpt>
    <trkpt lat="56.316362" lon="60.836738">
        <ele>267.9</ele>
        <time>1970-01-01T11:52:45.145Z</time>
    </trkpt>
    <trkpt lat="56.316358" lon="60.836766">
        <ele>267.8</ele>
        <time>1970-01-01T11:52:46.145Z</time>
    </trkpt>
    <trkpt lat="56.316353" lon="60.836787">
        <ele>267.7</ele>
        <time>1970-01-01T11:52:47.145Z</time>
    </trkpt>
    <trkpt lat="56.316349" lon="60.836857">
        <ele>267.6</ele>
        <time>1970-01-01T11:52:48.145Z</time>
    </trkpt>
    <trkpt lat="56.316355" lon="60.836913">
        <ele>267.5</ele>
        <time>1970-01-01T11:52:49.145Z</time>
    </trkpt>
    <trkpt lat="56.316352" lon="60.83693">
        <ele>267.4</ele>
        <time>1970-01-01T11:52:50.145Z</time>
    </trkpt>
    <trkpt lat="56.316342" lon="60.836982">
        <ele>267.3</ele>
        <time>1970-01-01T11:52:51.145Z</time>
    </trkpt>
    <trkpt lat="56.31634" lon="60.837002">
        <ele>267.3</ele>
        <time>1970-01-01T11:52:52.145Z</time>
    </trkpt>
    <trkpt lat="56.316333" lon="60.83705">
        <ele>267.2</ele>
        <time>1970-01-01T11:52:53.145Z</time>
    </trkpt>
    <trkpt lat="56.316334" lon="60.837068">
        <ele>267.1</ele>
        <time>1970-01-01T11:52:54.145Z</time>
    </trkpt>
    <trkpt lat="56.316326" lon="60.837114">
        <ele>267.0</ele>
        <time>1970-01-01T11:52:55.145Z</time>
    </trkpt>
    <trkpt lat="56.31631" lon="60.837167">
        <ele>266.9</ele>
        <time>1970-01-01T11:52:56.145Z</time>
    </trkpt>
    <trkpt lat="56.316306" lon="60.837193">
        <ele>266.8</ele>
        <time>1970-01-01T11:52:57.145Z</time>
    </trkpt>
    <trkpt lat="56.316292" lon="60.837254">
        <ele>266.7</ele>
        <time>1970-01-01T11:52:58.145Z</time>
    </trkpt>
    <trkpt lat="56.316285" lon="60.837307">
        <ele>266.6</ele>
        <time>1970-01-01T11:52:59.145Z</time>
    </trkpt>
    <trkpt lat="56.316281" lon="60.837329">
        <ele>266.5</ele>
        <time>1970-01-01T11:53:00.145Z</time>
    </trkpt>
    <trkpt lat="56.316273" lon="60.837387">
        <ele>266.4</ele>
        <time>1970-01-01T11:53:01.145Z</time>
    </trkpt>
    <trkpt lat="56.316269" lon="60.837435">
        <ele>266.3</ele>
        <time>1970-01-01T11:53:02.145Z</time>
    </trkpt>
    <trkpt lat="56.316265" lon="60.837448">
        <ele>266.2</ele>
        <time>1970-01-01T11:53:03.145Z</time>
    </trkpt>
    <trkpt lat="56.316253" lon="60.837506">
        <ele>266.1</ele>
        <time>1970-01-01T11:53:04.145Z</time>
    </trkpt>
    <trkpt lat="56.316253" lon="60.837529">
        <ele>266.1</ele>
        <time>1970-01-01T11:53:05.145Z</time>
    </trkpt>
    <trkpt lat="56.316252" lon="60.837591">
        <ele>266.1</ele>
        <time>1970-01-01T11:53:06.145Z</time>
    </trkpt>
    <trkpt lat="56.316252" lon="60.837609">
        <ele>266.1</ele>
        <time>1970-01-01T11:53:07.145Z</time>
    </trkpt>
    <trkpt lat="56.31626" lon="60.837655">
        <ele>266.2</ele>
        <time>1970-01-01T11:53:08.145Z</time>
    </trkpt>
    <trkpt lat="56.316259" lon="60.83768">
        <ele>266.3</ele>
        <time>1970-01-01T11:53:09.145Z</time>
    </trkpt>
    <trkpt lat="56.316258" lon="60.837739">
        <ele>266.4</ele>
        <time>1970-01-01T11:53:10.145Z</time>
    </trkpt>
    <trkpt lat="56.316251" lon="60.837794">
        <ele>266.5</ele>
        <time>1970-01-01T11:53:11.145Z</time>
    </trkpt>
    <trkpt lat="56.31625" lon="60.837807">
        <ele>266.5</ele>
        <time>1970-01-01T11:53:12.145Z</time>
    </trkpt>
    <trkpt lat="56.316249" lon="60.837866">
        <ele>266.6</ele>
        <time>1970-01-01T11:53:13.145Z</time>
    </trkpt>
    <trkpt lat="56.316244" lon="60.837894">
        <ele>266.7</ele>
        <time>1970-01-01T11:53:14.145Z</time>
    </trkpt>
    <trkpt lat="56.316239" lon="60.837928">
        <ele>266.8</ele>
        <time>1970-01-01T11:53:15.145Z</time>
    </trkpt>
    <trkpt lat="56.316239" lon="60.837943">
        <ele>266.8</ele>
        <time>1970-01-01T11:53:16.145Z</time>
    </trkpt>
    <trkpt lat="56.316237" lon="60.837993">
        <ele>266.9</ele>
        <time>1970-01-01T11:53:17.145Z</time>
    </trkpt>
    <trkpt lat="56.316239" lon="60.838012">
        <ele>266.9</ele>
        <time>1970-01-01T11:53:18.145Z</time>
    </trkpt>
    <trkpt lat="56.316239" lon="60.83806">
        <ele>267.0</ele>
        <time>1970-01-01T11:53:19.145Z</time>
    </trkpt>
    <trkpt lat="56.316237" lon="60.838084">
        <ele>267.1</ele>
        <time>1970-01-01T11:53:20.145Z</time>
    </trkpt>
    <trkpt lat="56.316226" lon="60.83814">
        <ele>267.2</ele>
        <time>1970-01-01T11:53:21.145Z</time>
    </trkpt>
    <trkpt lat="56.316224" lon="60.838152">
        <ele>267.2</ele>
        <time>1970-01-01T11:53:22.145Z</time>
    </trkpt>
    <trkpt lat="56.316219" lon="60.838204">
        <ele>267.3</ele>
        <time>1970-01-01T11:53:23.145Z</time>
    </trkpt>
    <trkpt lat="56.316218" lon="60.83822">
        <ele>267.3</ele>
        <time>1970-01-01T11:53:24.145Z</time>
    </trkpt>
    <trkpt lat="56.31621" lon="60.838274">
        <ele>267.4</ele>
        <time>1970-01-01T11:53:25.145Z</time>
    </trkpt>
    <trkpt lat="56.316208" lon="60.838297">
        <ele>267.5</ele>
        <time>1970-01-01T11:53:26.145Z</time>
    </trkpt>
    <trkpt lat="56.316209" lon="60.838331">
        <ele>267.5</ele>
        <time>1970-01-01T11:53:27.145Z</time>
    </trkpt>
    <trkpt lat="56.316206" lon="60.838352">
        <ele>267.6</ele>
        <time>1970-01-01T11:53:28.145Z</time>
    </trkpt>
    <trkpt lat="56.316201" lon="60.838396">
        <ele>267.7</ele>
        <time>1970-01-01T11:53:29.145Z</time>
    </trkpt>
    <trkpt lat="56.3162" lon="60.838414">
        <ele>267.7</ele>
        <time>1970-01-01T11:53:30.145Z</time>
    </trkpt>
    <trkpt lat="56.316207" lon="60.838463">
        <ele>267.8</ele>
        <time>1970-01-01T11:53:31.145Z</time>
    </trkpt>
    <trkpt lat="56.316215" lon="60.838495">
        <ele>267.9</ele>
        <time>1970-01-01T11:53:32.145Z</time>
    </trkpt>
    <trkpt lat="56.316223" lon="60.838514">
        <ele>267.9</ele>
        <time>1970-01-01T11:53:33.145Z</time>
    </trkpt>
    <trkpt lat="56.31622" lon="60.838539">
        <ele>268.0</ele>
        <time>1970-01-01T11:53:34.145Z</time>
    </trkpt>
    <trkpt lat="56.316222" lon="60.83857">
        <ele>268.0</ele>
        <time>1970-01-01T11:53:35.145Z</time>
    </trkpt>
    <trkpt lat="56.316226" lon="60.838589">
        <ele>268.1</ele>
        <time>1970-01-01T11:53:36.145Z</time>
    </trkpt>
    <trkpt lat="56.316229" lon="60.838641">
        <ele>268.2</ele>
        <time>1970-01-01T11:53:37.145Z</time>
    </trkpt>
    <trkpt lat="56.31622" lon="60.838689">
        <ele>268.3</ele>
        <time>1970-01-01T11:53:38.145Z</time>
    </trkpt>
    <trkpt lat="56.316219" lon="60.838741">
        <ele>268.4</ele>
        <time>1970-01-01T11:53:39.145Z</time>
    </trkpt>
    <trkpt lat="56.316199" lon="60.838793">
        <ele>268.5</ele>
        <time>1970-01-01T11:53:40.145Z</time>
    </trkpt>
    <trkpt lat="56.316194" lon="60.83881">
        <ele>268.5</ele>
        <time>1970-01-01T11:53:41.145Z</time>
    </trkpt>
    <trkpt lat="56.316179" lon="60.838865">
        <ele>268.6</ele>
        <time>1970-01-01T11:53:42.145Z</time>
    </trkpt>
    <trkpt lat="56.316176" lon="60.83888">
        <ele>268.7</ele>
        <time>1970-01-01T11:53:43.145Z</time>
    </trkpt>
    <trkpt lat="56.316171" lon="60.838938">
        <ele>268.8</ele>
        <time>1970-01-01T11:53:44.145Z</time>
    </trkpt>
    <trkpt lat="56.316168" lon="60.838958">
        <ele>268.8</ele>
        <time>1970-01-01T11:53:45.145Z</time>
    </trkpt>
    <trkpt lat="56.316165" lon="60.838977">
        <ele>268.9</ele>
        <time>1970-01-01T11:53:46.145Z</time>
    </trkpt>
    <trkpt lat="56.316156" lon="60.839028">
        <ele>269.0</ele>
        <time>1970-01-01T11:53:47.145Z</time>
    </trkpt>
    <trkpt lat="56.316159" lon="60.839055">
        <ele>269.0</ele>
        <time>1970-01-01T11:53:48.145Z</time>
    </trkpt>
    <trkpt lat="56.316159" lon="60.839123">
        <ele>269.2</ele>
        <time>1970-01-01T11:53:49.145Z</time>
    </trkpt>
    <trkpt lat="56.316158" lon="60.839143">
        <ele>269.2</ele>
        <time>1970-01-01T11:53:50.145Z</time>
    </trkpt>
    <trkpt lat="56.316156" lon="60.8392">
        <ele>269.3</ele>
        <time>1970-01-01T11:53:51.145Z</time>
    </trkpt>
    <trkpt lat="56.316157" lon="60.839214">
        <ele>269.3</ele>
        <time>1970-01-01T11:53:52.145Z</time>
    </trkpt>
    <trkpt lat="56.316156" lon="60.839268">
        <ele>269.4</ele>
        <time>1970-01-01T11:53:53.145Z</time>
    </trkpt>
    <trkpt lat="56.316162" lon="60.839289">
        <ele>269.5</ele>
        <time>1970-01-01T11:53:54.145Z</time>
    </trkpt>
    <trkpt lat="56.316165" lon="60.839347">
        <ele>269.6</ele>
        <time>1970-01-01T11:53:55.145Z</time>
    </trkpt>
    <trkpt lat="56.316159" lon="60.839365">
        <ele>269.6</ele>
        <time>1970-01-01T11:53:56.145Z</time>
    </trkpt>
    <trkpt lat="56.316144" lon="60.839423">
        <ele>269.8</ele>
        <time>1970-01-01T11:53:57.145Z</time>
    </trkpt>
    <trkpt lat="56.316132" lon="60.83947">
        <ele>269.9</ele>
        <time>1970-01-01T11:53:58.145Z</time>
    </trkpt>
    <trkpt lat="56.31613" lon="60.839489">
        <ele>269.9</ele>
        <time>1970-01-01T11:53:59.145Z</time>
    </trkpt>
    <trkpt lat="56.316123" lon="60.839542">
        <ele>270.0</ele>
        <time>1970-01-01T11:54:00.145Z</time>
    </trkpt>
    <trkpt lat="56.316109" lon="60.83959">
        <ele>270.1</ele>
        <time>1970-01-01T11:54:01.145Z</time>
    </trkpt>
    <trkpt lat="56.316108" lon="60.839608">
        <ele>270.1</ele>
        <time>1970-01-01T11:54:02.145Z</time>
    </trkpt>
    <trkpt lat="56.316097" lon="60.839661">
        <ele>270.2</ele>
        <time>1970-01-01T11:54:03.145Z</time>
    </trkpt>
    <trkpt lat="56.316092" lon="60.839686">
        <ele>270.3</ele>
        <time>1970-01-01T11:54:04.145Z</time>
    </trkpt>
    <trkpt lat="56.316089" lon="60.83975">
        <ele>270.4</ele>
        <time>1970-01-01T11:54:05.145Z</time>
    </trkpt>
    <trkpt lat="56.316091" lon="60.839777">
        <ele>270.5</ele>
        <time>1970-01-01T11:54:06.145Z</time>
    </trkpt>
    <trkpt lat="56.316086" lon="60.839838">
        <ele>270.6</ele>
        <time>1970-01-01T11:54:07.145Z</time>
    </trkpt>
    <trkpt lat="56.316076" lon="60.839901">
        <ele>270.7</ele>
        <time>1970-01-01T11:54:08.145Z</time>
    </trkpt>
    <trkpt lat="56.316079" lon="60.839968">
        <ele>270.9</ele>
        <time>1970-01-01T11:54:09.145Z</time>
    </trkpt>
    <trkpt lat="56.316088" lon="60.840014">
        <ele>270.9</ele>
        <time>1970-01-01T11:54:10.145Z</time>
    </trkpt>
    <trkpt lat="56.31609" lon="60.84003">
        <ele>271.0</ele>
        <time>1970-01-01T11:54:11.145Z</time>
    </trkpt>
    <trkpt lat="56.316091" lon="60.840045">
        <ele>271.0</ele>
        <time>1970-01-01T11:54:12.145Z</time>
    </trkpt>
    <trkpt lat="56.316101" lon="60.840084">
        <ele>271.1</ele>
        <time>1970-01-01T11:54:13.145Z</time>
    </trkpt>
    <trkpt lat="56.316109" lon="60.840133">
        <ele>271.2</ele>
        <time>1970-01-01T11:54:14.145Z</time>
    </trkpt>
    <trkpt lat="56.316109" lon="60.840156">
        <ele>271.2</ele>
        <time>1970-01-01T11:54:15.145Z</time>
    </trkpt>
    <trkpt lat="56.316112" lon="60.840219">
        <ele>271.2</ele>
        <time>1970-01-01T11:54:16.145Z</time>
    </trkpt>
    <trkpt lat="56.316112" lon="60.84024">
        <ele>271.2</ele>
        <time>1970-01-01T11:54:17.145Z</time>
    </trkpt>
    <trkpt lat="56.316107" lon="60.840293">
        <ele>271.2</ele>
        <time>1970-01-01T11:54:18.145Z</time>
    </trkpt>
    <trkpt lat="56.316104" lon="60.840311">
        <ele>271.2</ele>
        <time>1970-01-01T11:54:19.145Z</time>
    </trkpt>
    <trkpt lat="56.316093" lon="60.840354">
        <ele>271.2</ele>
        <time>1970-01-01T11:54:20.145Z</time>
    </trkpt>
    <trkpt lat="56.31609" lon="60.840377">
        <ele>271.2</ele>
        <time>1970-01-01T11:54:21.145Z</time>
    </trkpt>
    <trkpt lat="56.316075" lon="60.840404">
        <ele>271.2</ele>
        <time>1970-01-01T11:54:22.145Z</time>
    </trkpt>
    <trkpt lat="56.316069" lon="60.840426">
        <ele>271.2</ele>
        <time>1970-01-01T11:54:23.145Z</time>
    </trkpt>
    <trkpt lat="56.31606" lon="60.840493">
        <ele>271.2</ele>
        <time>1970-01-01T11:54:24.145Z</time>
    </trkpt>
    <trkpt lat="56.316055" lon="60.840513">
        <ele>271.2</ele>
        <time>1970-01-01T11:54:25.145Z</time>
    </trkpt>
    <trkpt lat="56.31604" lon="60.84056">
        <ele>271.2</ele>
        <time>1970-01-01T11:54:26.145Z</time>
    </trkpt>
    <trkpt lat="56.316033" lon="60.840572">
        <ele>271.2</ele>
        <time>1970-01-01T11:54:27.145Z</time>
    </trkpt>
    <trkpt lat="56.316023" lon="60.84062">
        <ele>271.2</ele>
        <time>1970-01-01T11:54:28.145Z</time>
    </trkpt>
    <trkpt lat="56.316016" lon="60.840673">
        <ele>271.2</ele>
        <time>1970-01-01T11:54:29.145Z</time>
    </trkpt>
    <trkpt lat="56.31601" lon="60.840729">
        <ele>271.2</ele>
        <time>1970-01-01T11:54:30.145Z</time>
    </trkpt>
    <trkpt lat="56.31601" lon="60.840762">
        <ele>272.2</ele>
        <time>1970-01-01T11:54:31.145Z</time>
    </trkpt>
    <trkpt lat="56.316012" lon="60.840832">
        <ele>272.2</ele>
        <time>1970-01-01T11:54:32.145Z</time>
    </trkpt>
    <trkpt lat="56.316007" lon="60.840851">
        <ele>272.2</ele>
        <time>1970-01-01T11:54:33.145Z</time>
    </trkpt>
    <trkpt lat="56.316011" lon="60.84089">
        <ele>272.2</ele>
        <time>1970-01-01T11:54:34.145Z</time>
    </trkpt>
    <trkpt lat="56.31601" lon="60.840943">
        <ele>273.2</ele>
        <time>1970-01-01T11:54:35.145Z</time>
    </trkpt>
    <trkpt lat="56.316008" lon="60.840962">
        <ele>273.2</ele>
        <time>1970-01-01T11:54:36.145Z</time>
    </trkpt>
    <trkpt lat="56.316006" lon="60.84098">
        <ele>273.2</ele>
        <time>1970-01-01T11:54:38.145Z</time>
    </trkpt>
    <trkpt lat="56.316003" lon="60.841015">
        <ele>273.2</ele>
        <time>1970-01-01T11:54:39.145Z</time>
    </trkpt>
    <trkpt lat="56.316003" lon="60.841037">
        <ele>273.2</ele>
        <time>1970-01-01T11:54:40.145Z</time>
    </trkpt>
    <trkpt lat="56.316008" lon="60.841069">
        <ele>273.2</ele>
        <time>1970-01-01T11:54:41.145Z</time>
    </trkpt>
    <trkpt lat="56.316007" lon="60.841089">
        <ele>273.2</ele>
        <time>1970-01-01T11:54:42.145Z</time>
    </trkpt>
    <trkpt lat="56.316001" lon="60.841151">
        <ele>273.2</ele>
        <time>1970-01-01T11:54:43.145Z</time>
    </trkpt>
    <trkpt lat="56.315999" lon="60.841177">
        <ele>273.2</ele>
        <time>1970-01-01T11:54:44.145Z</time>
    </trkpt>
    <trkpt lat="56.31599" lon="60.841247">
        <ele>273.2</ele>
        <time>1970-01-01T11:54:45.145Z</time>
    </trkpt>
    <trkpt lat="56.31599" lon="60.841261">
        <ele>274.2</ele>
        <time>1970-01-01T11:54:46.145Z</time>
    </trkpt>
    <trkpt lat="56.315985" lon="60.841313">
        <ele>274.2</ele>
        <time>1970-01-01T11:54:47.145Z</time>
    </trkpt>
    <trkpt lat="56.315977" lon="60.841341">
        <ele>274.2</ele>
        <time>1970-01-01T11:54:48.145Z</time>
    </trkpt>
    <trkpt lat="56.315967" lon="60.841411">
        <ele>274.2</ele>
        <time>1970-01-01T11:54:49.145Z</time>
    </trkpt>
    <trkpt lat="56.315964" lon="60.841428">
        <ele>276.2</ele>
        <time>1970-01-01T11:54:50.145Z</time>
    </trkpt>
    <trkpt lat="56.315949" lon="60.841483">
        <ele>276.2</ele>
        <time>1970-01-01T11:54:51.145Z</time>
    </trkpt>
    <trkpt lat="56.315939" lon="60.841541">
        <ele>276.2</ele>
        <time>1970-01-01T11:54:52.145Z</time>
    </trkpt>
    <trkpt lat="56.315935" lon="60.841597">
        <ele>276.2</ele>
        <time>1970-01-01T11:54:53.145Z</time>
    </trkpt>
    <trkpt lat="56.31593" lon="60.841677">
        <ele>277.2</ele>
        <time>1970-01-01T11:54:54.145Z</time>
    </trkpt>
    <trkpt lat="56.315924" lon="60.841729">
        <ele>277.2</ele>
        <time>1970-01-01T11:54:55.145Z</time>
    </trkpt>
    <trkpt lat="56.315917" lon="60.841784">
        <ele>278.2</ele>
        <time>1970-01-01T11:54:56.145Z</time>
    </trkpt>
    <trkpt lat="56.315909" lon="60.841845">
        <ele>278.2</ele>
        <time>1970-01-01T11:54:57.145Z</time>
    </trkpt>
    <trkpt lat="56.315901" lon="60.841901">
        <ele>278.2</ele>
        <time>1970-01-01T11:54:58.145Z</time>
    </trkpt>
    <trkpt lat="56.315902" lon="60.841951">
        <ele>279.2</ele>
        <time>1970-01-01T11:54:59.145Z</time>
    </trkpt>
    <trkpt lat="56.315897" lon="60.842007">
        <ele>279.2</ele>
        <time>1970-01-01T11:55:00.145Z</time>
    </trkpt>
    <trkpt lat="56.315891" lon="60.842074">
        <ele>279.2</ele>
        <time>1970-01-01T11:55:01.145Z</time>
    </trkpt>
    <trkpt lat="56.315881" lon="60.842133">
        <ele>280.2</ele>
        <time>1970-01-01T11:55:02.145Z</time>
    </trkpt>
    <trkpt lat="56.315866" lon="60.842196">
        <ele>281.2</ele>
        <time>1970-01-01T11:55:03.145Z</time>
    </trkpt>
    <trkpt lat="56.315861" lon="60.842251">
        <ele>281.2</ele>
        <time>1970-01-01T11:55:04.145Z</time>
    </trkpt>
    <trkpt lat="56.315857" lon="60.842281">
        <ele>281.2</ele>
        <time>1970-01-01T11:55:05.145Z</time>
    </trkpt>
    <trkpt lat="56.31585" lon="60.842349">
        <ele>282.2</ele>
        <time>1970-01-01T11:55:06.145Z</time>
    </trkpt>
    <trkpt lat="56.315846" lon="60.842401">
        <ele>282.2</ele>
        <time>1970-01-01T11:55:07.145Z</time>
    </trkpt>
    <trkpt lat="56.31584" lon="60.842464">
        <ele>283.2</ele>
        <time>1970-01-01T11:55:08.145Z</time>
    </trkpt>
    <trkpt lat="56.315832" lon="60.842518">
        <ele>283.2</ele>
        <time>1970-01-01T11:55:09.145Z</time>
    </trkpt>
    <trkpt lat="56.315826" lon="60.84258">
        <ele>283.2</ele>
        <time>1970-01-01T11:55:10.145Z</time>
    </trkpt>
    <trkpt lat="56.31583" lon="60.842633">
        <ele>283.2</ele>
        <time>1970-01-01T11:55:11.145Z</time>
    </trkpt>
    <trkpt lat="56.315822" lon="60.842728">
        <ele>283.2</ele>
        <time>1970-01-01T11:55:12.145Z</time>
    </trkpt>
    <trkpt lat="56.31583" lon="60.842807">
        <ele>284.2</ele>
        <time>1970-01-01T11:55:13.145Z</time>
    </trkpt>
    <trkpt lat="56.315837" lon="60.842864">
        <ele>284.2</ele>
        <time>1970-01-01T11:55:14.145Z</time>
    </trkpt>
    <trkpt lat="56.31584" lon="60.842959">
        <ele>284.2</ele>
        <time>1970-01-01T11:55:15.145Z</time>
    </trkpt>
    <trkpt lat="56.315844" lon="60.843031">
        <ele>285.2</ele>
        <time>1970-01-01T11:55:16.145Z</time>
    </trkpt>
    <trkpt lat="56.315851" lon="60.843093">
        <ele>285.2</ele>
        <time>1970-01-01T11:55:17.145Z</time>
    </trkpt>
    <trkpt lat="56.315847" lon="60.843155">
        <ele>285.2</ele>
        <time>1970-01-01T11:55:18.145Z</time>
    </trkpt>
    <trkpt lat="56.315846" lon="60.843192">
        <ele>285.2</ele>
        <time>1970-01-01T11:55:19.145Z</time>
    </trkpt>
    <trkpt lat="56.315838" lon="60.843275">
        <ele>285.2</ele>
        <time>1970-01-01T11:55:20.145Z</time>
    </trkpt>
    <trkpt lat="56.315837" lon="60.843343">
        <ele>285.2</ele>
        <time>1970-01-01T11:55:21.145Z</time>
    </trkpt>
    <trkpt lat="56.315838" lon="60.843398">
        <ele>285.2</ele>
        <time>1970-01-01T11:55:22.145Z</time>
    </trkpt>
    <trkpt lat="56.315831" lon="60.843455">
        <ele>285.2</ele>
        <time>1970-01-01T11:55:23.145Z</time>
    </trkpt>
    <trkpt lat="56.315828" lon="60.843519">
        <ele>285.2</ele>
        <time>1970-01-01T11:55:24.145Z</time>
    </trkpt>
    <trkpt lat="56.315836" lon="60.843537">
        <ele>285.2</ele>
        <time>1970-01-01T11:55:25.145Z</time>
    </trkpt>
    <trkpt lat="56.315841" lon="60.843592">
        <ele>285.2</ele>
        <time>1970-01-01T11:55:26.145Z</time>
    </trkpt>
    <trkpt lat="56.315839" lon="60.843645">
        <ele>285.2</ele>
        <time>1970-01-01T11:55:27.145Z</time>
    </trkpt>
    <trkpt lat="56.315832" lon="60.843746">
        <ele>286.2</ele>
        <time>1970-01-01T11:55:28.145Z</time>
    </trkpt>
    <trkpt lat="56.315829" lon="60.843815">
        <ele>286.2</ele>
        <time>1970-01-01T11:55:29.145Z</time>
    </trkpt>
    <trkpt lat="56.315825" lon="60.843885">
        <ele>286.2</ele>
        <time>1970-01-01T11:55:30.145Z</time>
    </trkpt>
    <trkpt lat="56.315837" lon="60.843961">
        <ele>286.2</ele>
        <time>1970-01-01T11:55:31.145Z</time>
    </trkpt>
    <trkpt lat="56.315812" lon="60.844058">
        <ele>286.2</ele>
        <time>1970-01-01T11:55:32.145Z</time>
    </trkpt>
    <trkpt lat="56.315817" lon="60.844151">
        <ele>286.2</ele>
        <time>1970-01-01T11:55:33.145Z</time>
    </trkpt>
    <trkpt lat="56.315807" lon="60.844222">
        <ele>286.2</ele>
        <time>1970-01-01T11:55:34.145Z</time>
    </trkpt>
    <trkpt lat="56.315801" lon="60.844295">
        <ele>286.2</ele>
        <time>1970-01-01T11:55:35.145Z</time>
    </trkpt>
    <trkpt lat="56.315797" lon="60.844379">
        <ele>287.2</ele>
        <time>1970-01-01T11:55:36.145Z</time>
    </trkpt>
    <trkpt lat="56.315794" lon="60.844466">
        <ele>287.2</ele>
        <time>1970-01-01T11:55:37.145Z</time>
    </trkpt>
    <trkpt lat="56.315789" lon="60.844544">
        <ele>287.2</ele>
        <time>1970-01-01T11:55:38.145Z</time>
    </trkpt>
    <trkpt lat="56.315778" lon="60.844617">
        <ele>287.2</ele>
        <time>1970-01-01T11:55:39.145Z</time>
    </trkpt>
    <trkpt lat="56.315771" lon="60.844712">
        <ele>286.2</ele>
        <time>1970-01-01T11:55:40.145Z</time>
    </trkpt>
    <trkpt lat="56.315777" lon="60.844771">
        <ele>287.2</ele>
        <time>1970-01-01T11:55:41.145Z</time>
    </trkpt>
    <trkpt lat="56.31576" lon="60.844866">
        <ele>286.2</ele>
        <time>1970-01-01T11:55:42.145Z</time>
    </trkpt>
    <trkpt lat="56.315764" lon="60.844918">
        <ele>286.2</ele>
        <time>1970-01-01T11:55:43.145Z</time>
    </trkpt>
    <trkpt lat="56.315766" lon="60.844975">
        <ele>286.2</ele>
        <time>1970-01-01T11:55:44.145Z</time>
    </trkpt>
    <trkpt lat="56.315749" lon="60.845051">
        <ele>286.2</ele>
        <time>1970-01-01T11:55:45.145Z</time>
    </trkpt>
    <trkpt lat="56.315731" lon="60.845158">
        <ele>286.2</ele>
        <time>1970-01-01T11:55:46.145Z</time>
    </trkpt>
    <trkpt lat="56.315723" lon="60.845253">
        <ele>286.2</ele>
        <time>1970-01-01T11:55:47.145Z</time>
    </trkpt>
    <trkpt lat="56.315716" lon="60.84532">
        <ele>286.2</ele>
        <time>1970-01-01T11:55:48.145Z</time>
    </trkpt>
    <trkpt lat="56.315716" lon="60.845381">
        <ele>285.2</ele>
        <time>1970-01-01T11:55:49.145Z</time>
    </trkpt>
    <trkpt lat="56.315718" lon="60.84544">
        <ele>285.2</ele>
        <time>1970-01-01T11:55:50.145Z</time>
    </trkpt>
    <trkpt lat="56.315709" lon="60.845472">
        <ele>285.2</ele>
        <time>1970-01-01T11:55:51.145Z</time>
    </trkpt>
    <trkpt lat="56.31569" lon="60.845549">
        <ele>285.2</ele>
        <time>1970-01-01T11:55:52.145Z</time>
    </trkpt>
    <trkpt lat="56.315676" lon="60.845641">
        <ele>284.2</ele>
        <time>1970-01-01T11:55:53.145Z</time>
    </trkpt>
    <trkpt lat="56.315667" lon="60.845737">
        <ele>284.2</ele>
        <time>1970-01-01T11:55:54.145Z</time>
    </trkpt>
    <trkpt lat="56.315646" lon="60.845829">
        <ele>284.2</ele>
        <time>1970-01-01T11:55:55.145Z</time>
    </trkpt>
    <trkpt lat="56.315635" lon="60.845906">
        <ele>284.2</ele>
        <time>1970-01-01T11:55:56.145Z</time>
    </trkpt>
    <trkpt lat="56.315619" lon="60.845967">
        <ele>284.2</ele>
        <time>1970-01-01T11:55:57.145Z</time>
    </trkpt>
    <trkpt lat="56.315605" lon="60.84603">
        <ele>284.2</ele>
        <time>1970-01-01T11:55:58.145Z</time>
    </trkpt>
    <trkpt lat="56.315594" lon="60.846075">
        <ele>285.2</ele>
        <time>1970-01-01T11:55:59.145Z</time>
    </trkpt>
    <trkpt lat="56.315594" lon="60.846158">
        <ele>285.2</ele>
        <time>1970-01-01T11:56:00.145Z</time>
    </trkpt>
    <trkpt lat="56.315596" lon="60.846218">
        <ele>285.2</ele>
        <time>1970-01-01T11:56:01.145Z</time>
    </trkpt>
    <trkpt lat="56.315603" lon="60.846288">
        <ele>286.2</ele>
        <time>1970-01-01T11:56:02.145Z</time>
    </trkpt>
    <trkpt lat="56.315598" lon="60.846337">
        <ele>286.2</ele>
        <time>1970-01-01T11:56:03.145Z</time>
    </trkpt>
    <trkpt lat="56.315583" lon="60.84641">
        <ele>286.2</ele>
        <time>1970-01-01T11:56:04.145Z</time>
    </trkpt>
    <trkpt lat="56.315569" lon="60.846479">
        <ele>286.2</ele>
        <time>1970-01-01T11:56:05.145Z</time>
    </trkpt>
    <trkpt lat="56.315551" lon="60.846546">
        <ele>286.2</ele>
        <time>1970-01-01T11:56:06.145Z</time>
    </trkpt>
    <trkpt lat="56.315536" lon="60.846616">
        <ele>288.2</ele>
        <time>1970-01-01T11:56:07.145Z</time>
    </trkpt>
    <trkpt lat="56.315522" lon="60.846692">
        <ele>288.2</ele>
        <time>1970-01-01T11:56:08.145Z</time>
    </trkpt>
    <trkpt lat="56.31551" lon="60.846752">
        <ele>289.2</ele>
        <time>1970-01-01T11:56:09.145Z</time>
    </trkpt>
    <trkpt lat="56.315494" lon="60.846846">
        <ele>289.2</ele>
        <time>1970-01-01T11:56:10.145Z</time>
    </trkpt>
    <trkpt lat="56.315481" lon="60.846927">
        <ele>290.2</ele>
        <time>1970-01-01T11:56:11.145Z</time>
    </trkpt>
    <trkpt lat="56.315465" lon="60.847015">
        <ele>290.2</ele>
        <time>1970-01-01T11:56:12.145Z</time>
    </trkpt>
    <trkpt lat="56.31547" lon="60.847102">
        <ele>292.2</ele>
        <time>1970-01-01T11:56:13.145Z</time>
    </trkpt>
    <trkpt lat="56.315468" lon="60.847181">
        <ele>292.2</ele>
        <time>1970-01-01T11:56:14.145Z</time>
    </trkpt>
    <trkpt lat="56.315471" lon="60.847269">
        <ele>293.2</ele>
        <time>1970-01-01T11:56:15.145Z</time>
    </trkpt>
    <trkpt lat="56.31548" lon="60.847351">
        <ele>293.2</ele>
        <time>1970-01-01T11:56:16.145Z</time>
    </trkpt>
    <trkpt lat="56.315495" lon="60.847419">
        <ele>293.2</ele>
        <time>1970-01-01T11:56:17.145Z</time>
    </trkpt>
    <trkpt lat="56.315482" lon="60.847515">
        <ele>293.2</ele>
        <time>1970-01-01T11:56:18.145Z</time>
    </trkpt>
    <trkpt lat="56.315468" lon="60.84758">
        <ele>293.2</ele>
        <time>1970-01-01T11:56:19.145Z</time>
    </trkpt>
    <trkpt lat="56.315447" lon="60.847672">
        <ele>294.2</ele>
        <time>1970-01-01T11:56:20.145Z</time>
    </trkpt>
    <trkpt lat="56.315436" lon="60.84775">
        <ele>294.2</ele>
        <time>1970-01-01T11:56:21.145Z</time>
    </trkpt>
    <trkpt lat="56.315428" lon="60.847832">
        <ele>295.2</ele>
        <time>1970-01-01T11:56:22.145Z</time>
    </trkpt>
    <trkpt lat="56.315414" lon="60.847932">
        <ele>295.2</ele>
        <time>1970-01-01T11:56:23.145Z</time>
    </trkpt>
    <trkpt lat="56.315399" lon="60.84807">
        <ele>295.2</ele>
        <time>1970-01-01T11:56:24.145Z</time>
    </trkpt>
    <trkpt lat="56.315394" lon="60.848195">
        <ele>295.2</ele>
        <time>1970-01-01T11:56:25.145Z</time>
    </trkpt>
    <trkpt lat="56.315375" lon="60.848361">
        <ele>295.2</ele>
        <time>1970-01-01T11:56:26.145Z</time>
    </trkpt>
    <trkpt lat="56.31537" lon="60.848512">
        <ele>295.2</ele>
        <time>1970-01-01T11:56:27.145Z</time>
    </trkpt>
    <trkpt lat="56.315363" lon="60.848642">
        <ele>295.2</ele>
        <time>1970-01-01T11:56:28.145Z</time>
    </trkpt>
    <trkpt lat="56.315356" lon="60.848759">
        <ele>295.2</ele>
        <time>1970-01-01T11:56:29.145Z</time>
    </trkpt>
    <trkpt lat="56.315356" lon="60.848852">
        <ele>295.2</ele>
        <time>1970-01-01T11:56:30.145Z</time>
    </trkpt>
    <trkpt lat="56.315337" lon="60.848967">
        <ele>295.2</ele>
        <time>1970-01-01T11:56:31.145Z</time>
    </trkpt>
    <trkpt lat="56.315337" lon="60.849058">
        <ele>296.2</ele>
        <time>1970-01-01T11:56:32.145Z</time>
    </trkpt>
    <trkpt lat="56.315334" lon="60.849156">
        <ele>297.2</ele>
        <time>1970-01-01T11:56:33.145Z</time>
    </trkpt>
    <trkpt lat="56.315337" lon="60.849239">
        <ele>297.2</ele>
        <time>1970-01-01T11:56:34.145Z</time>
    </trkpt>
    <trkpt lat="56.315346" lon="60.84932">
        <ele>297.2</ele>
        <time>1970-01-01T11:56:35.145Z</time>
    </trkpt>
    <trkpt lat="56.315345" lon="60.84942">
        <ele>298.2</ele>
        <time>1970-01-01T11:56:36.145Z</time>
    </trkpt>
    <trkpt lat="56.315352" lon="60.849486">
        <ele>298.2</ele>
        <time>1970-01-01T11:56:37.145Z</time>
    </trkpt>
    <trkpt lat="56.315359" lon="60.849519">
        <ele>299.2</ele>
        <time>1970-01-01T11:56:38.145Z</time>
    </trkpt>
    <trkpt lat="56.31536" lon="60.849598">
        <ele>299.2</ele>
        <time>1970-01-01T11:56:39.145Z</time>
    </trkpt>
    <trkpt lat="56.315348" lon="60.849648">
        <ele>299.2</ele>
        <time>1970-01-01T11:56:40.145Z</time>
    </trkpt>
    <trkpt lat="56.315337" lon="60.849718">
        <ele>301.2</ele>
        <time>1970-01-01T11:56:41.145Z</time>
    </trkpt>
    <trkpt lat="56.315339" lon="60.849797">
        <ele>301.2</ele>
        <time>1970-01-01T11:56:42.145Z</time>
    </trkpt>
    <trkpt lat="56.315333" lon="60.849904">
        <ele>303.2</ele>
        <time>1970-01-01T11:56:43.145Z</time>
    </trkpt>
    <trkpt lat="56.315331" lon="60.849981">
        <ele>303.2</ele>
        <time>1970-01-01T11:56:44.145Z</time>
    </trkpt>
    <trkpt lat="56.315308" lon="60.850074">
        <ele>305.2</ele>
        <time>1970-01-01T11:56:45.145Z</time>
    </trkpt>
    <trkpt lat="56.315295" lon="60.850191">
        <ele>307.2</ele>
        <time>1970-01-01T11:56:46.145Z</time>
    </trkpt>
    <trkpt lat="56.315282" lon="60.850267">
        <ele>307.2</ele>
        <time>1970-01-01T11:56:47.145Z</time>
    </trkpt>
    <trkpt lat="56.315276" lon="60.850357">
        <ele>309.2</ele>
        <time>1970-01-01T11:56:48.145Z</time>
    </trkpt>
    <trkpt lat="56.315268" lon="60.850407">
        <ele>309.2</ele>
        <time>1970-01-01T11:56:49.145Z</time>
    </trkpt>
    <trkpt lat="56.315265" lon="60.850456">
        <ele>309.2</ele>
        <time>1970-01-01T11:56:50.145Z</time>
    </trkpt>
    <trkpt lat="56.315265" lon="60.850524">
        <ele>309.2</ele>
        <time>1970-01-01T11:56:51.145Z</time>
    </trkpt>
    <trkpt lat="56.315273" lon="60.85058">
        <ele>311.2</ele>
        <time>1970-01-01T11:56:52.145Z</time>
    </trkpt>
    <trkpt lat="56.31527" lon="60.850655">
        <ele>311.2</ele>
        <time>1970-01-01T11:56:53.145Z</time>
    </trkpt>
    <trkpt lat="56.315265" lon="60.850748">
        <ele>313.2</ele>
        <time>1970-01-01T11:56:54.145Z</time>
    </trkpt>
    <trkpt lat="56.315263" lon="60.85081">
        <ele>313.2</ele>
        <time>1970-01-01T11:56:55.145Z</time>
    </trkpt>
    <trkpt lat="56.31525" lon="60.850874">
        <ele>315.2</ele>
        <time>1970-01-01T11:56:56.145Z</time>
    </trkpt>
    <trkpt lat="56.315236" lon="60.85097">
        <ele>315.2</ele>
        <time>1970-01-01T11:56:57.145Z</time>
    </trkpt>
    <trkpt lat="56.315237" lon="60.851031">
        <ele>315.2</ele>
        <time>1970-01-01T11:56:58.145Z</time>
    </trkpt>
    <trkpt lat="56.315219" lon="60.851124">
        <ele>317.2</ele>
        <time>1970-01-01T11:56:59.145Z</time>
    </trkpt>
    <trkpt lat="56.315214" lon="60.851213">
        <ele>319.2</ele>
        <time>1970-01-01T11:57:00.145Z</time>
    </trkpt>
    <trkpt lat="56.315202" lon="60.851275">
        <ele>320.2</ele>
        <time>1970-01-01T11:57:01.145Z</time>
    </trkpt>
    <trkpt lat="56.315192" lon="60.851374">
        <ele>320.2</ele>
        <time>1970-01-01T11:57:02.145Z</time>
    </trkpt>
    <trkpt lat="56.31517" lon="60.851461">
        <ele>322.2</ele>
        <time>1970-01-01T11:57:03.145Z</time>
    </trkpt>
    <trkpt lat="56.315174" lon="60.851486">
        <ele>322.2</ele>
        <time>1970-01-01T11:57:04.145Z</time>
    </trkpt>
    <trkpt lat="56.315173" lon="60.851554">
        <ele>322.2</ele>
        <time>1970-01-01T11:57:05.145Z</time>
    </trkpt>
    <trkpt lat="56.315176" lon="60.851624">
        <ele>323.2</ele>
        <time>1970-01-01T11:57:06.145Z</time>
    </trkpt>
    <trkpt lat="56.315169" lon="60.851697">
        <ele>323.2</ele>
        <time>1970-01-01T11:57:07.145Z</time>
    </trkpt>
    <trkpt lat="56.315156" lon="60.851765">
        <ele>324.2</ele>
        <time>1970-01-01T11:57:08.145Z</time>
    </trkpt>
    <trkpt lat="56.315155" lon="60.851816">
        <ele>324.2</ele>
        <time>1970-01-01T11:57:09.145Z</time>
    </trkpt>
    <trkpt lat="56.315164" lon="60.851865">
        <ele>324.2</ele>
        <time>1970-01-01T11:57:10.145Z</time>
    </trkpt>
    <trkpt lat="56.315168" lon="60.851896">
        <ele>324.2</ele>
        <time>1970-01-01T11:57:11.145Z</time>
    </trkpt>
    <trkpt lat="56.315171" lon="60.851973">
        <ele>325.2</ele>
        <time>1970-01-01T11:57:12.145Z</time>
    </trkpt>
    <trkpt lat="56.315164" lon="60.85204">
        <ele>325.2</ele>
        <time>1970-01-01T11:57:13.145Z</time>
    </trkpt>
    <trkpt lat="56.315161" lon="60.852064">
        <ele>325.2</ele>
        <time>1970-01-01T11:57:14.145Z</time>
    </trkpt>
    <trkpt lat="56.315164" lon="60.852135">
        <ele>326.2</ele>
        <time>1970-01-01T11:57:15.145Z</time>
    </trkpt>
    <trkpt lat="56.315161" lon="60.852166">
        <ele>326.2</ele>
        <time>1970-01-01T11:57:16.145Z</time>
    </trkpt>
    <trkpt lat="56.315146" lon="60.852239">
        <ele>326.2</ele>
        <time>1970-01-01T11:57:17.145Z</time>
    </trkpt>
    <trkpt lat="56.315137" lon="60.852294">
        <ele>326.2</ele>
        <time>1970-01-01T11:57:18.145Z</time>
    </trkpt>
    <trkpt lat="56.315138" lon="60.852318">
        <ele>326.2</ele>
        <time>1970-01-01T11:57:19.145Z</time>
    </trkpt>
    <trkpt lat="56.315144" lon="60.852379">
        <ele>326.2</ele>
        <time>1970-01-01T11:57:20.145Z</time>
    </trkpt>
    <trkpt lat="56.315148" lon="60.852431">
        <ele>326.2</ele>
        <time>1970-01-01T11:57:21.145Z</time>
    </trkpt>
    <trkpt lat="56.315146" lon="60.852545">
        <ele>326.2</ele>
        <time>1970-01-01T11:57:22.145Z</time>
    </trkpt>
    <trkpt lat="56.315145" lon="60.852623">
        <ele>325.2</ele>
        <time>1970-01-01T11:57:23.145Z</time>
    </trkpt>
    <trkpt lat="56.315135" lon="60.852732">
        <ele>325.2</ele>
        <time>1970-01-01T11:57:24.145Z</time>
    </trkpt>
    <trkpt lat="56.315111" lon="60.852852">
        <ele>325.2</ele>
        <time>1970-01-01T11:57:25.145Z</time>
    </trkpt>
    <trkpt lat="56.315107" lon="60.852921">
        <ele>326.2</ele>
        <time>1970-01-01T11:57:26.145Z</time>
    </trkpt>
    <trkpt lat="56.315089" lon="60.853015">
        <ele>325.2</ele>
        <time>1970-01-01T11:57:27.145Z</time>
    </trkpt>
    <trkpt lat="56.315078" lon="60.853108">
        <ele>324.2</ele>
        <time>1970-01-01T11:57:28.145Z</time>
    </trkpt>
    <trkpt lat="56.31507" lon="60.853169">
        <ele>324.2</ele>
        <time>1970-01-01T11:57:29.145Z</time>
    </trkpt>
    <trkpt lat="56.315064" lon="60.853204">
        <ele>324.2</ele>
        <time>1970-01-01T11:57:30.145Z</time>
    </trkpt>
    <trkpt lat="56.315059" lon="60.853276">
        <ele>323.2</ele>
        <time>1970-01-01T11:57:31.145Z</time>
    </trkpt>
    <trkpt lat="56.315049" lon="60.853351">
        <ele>323.2</ele>
        <time>1970-01-01T11:57:32.145Z</time>
    </trkpt>
    <trkpt lat="56.315051" lon="60.853365">
        <ele>323.2</ele>
        <time>1970-01-01T11:57:33.145Z</time>
    </trkpt>
    <trkpt lat="56.315056" lon="60.853416">
        <ele>323.2</ele>
        <time>1970-01-01T11:57:34.145Z</time>
    </trkpt>
    <trkpt lat="56.315054" lon="60.853442">
        <ele>323.2</ele>
        <time>1970-01-01T11:57:35.145Z</time>
    </trkpt>
    <trkpt lat="56.315049" lon="60.853512">
        <ele>323.2</ele>
        <time>1970-01-01T11:57:36.145Z</time>
    </trkpt>
    <trkpt lat="56.315045" lon="60.85356">
        <ele>323.2</ele>
        <time>1970-01-01T11:57:37.145Z</time>
    </trkpt>
    <trkpt lat="56.315044" lon="60.85361">
        <ele>323.2</ele>
        <time>1970-01-01T11:57:38.145Z</time>
    </trkpt>
    <trkpt lat="56.315041" lon="60.853619">
        <ele>323.2</ele>
        <time>1970-01-01T11:57:39.145Z</time>
    </trkpt>
    <trkpt lat="56.315027" lon="60.853671">
        <ele>323.2</ele>
        <time>1970-01-01T11:57:40.145Z</time>
    </trkpt>
    <trkpt lat="56.315025" lon="60.853721">
        <ele>323.2</ele>
        <time>1970-01-01T11:57:41.145Z</time>
    </trkpt>
    <trkpt lat="56.315011" lon="60.853773">
        <ele>325.2</ele>
        <time>1970-01-01T11:57:42.145Z</time>
    </trkpt>
    <trkpt lat="56.315003" lon="60.853821">
        <ele>325.2</ele>
        <time>1970-01-01T11:57:43.145Z</time>
    </trkpt>
    <trkpt lat="56.314988" lon="60.853866">
        <ele>325.2</ele>
        <time>1970-01-01T11:57:44.145Z</time>
    </trkpt>
    <trkpt lat="56.314982" lon="60.853966">
        <ele>325.2</ele>
        <time>1970-01-01T11:57:45.145Z</time>
    </trkpt>
    <trkpt lat="56.314986" lon="60.854043">
        <ele>325.2</ele>
        <time>1970-01-01T11:57:46.145Z</time>
    </trkpt>
    <trkpt lat="56.314987" lon="60.854061">
        <ele>325.2</ele>
        <time>1970-01-01T11:57:47.145Z</time>
    </trkpt>
    <trkpt lat="56.314995" lon="60.854119">
        <ele>325.2</ele>
        <time>1970-01-01T11:57:48.145Z</time>
    </trkpt>
    <trkpt lat="56.314994" lon="60.854137">
        <ele>324.2</ele>
        <time>1970-01-01T11:57:49.145Z</time>
    </trkpt>
    <trkpt lat="56.314999" lon="60.854176">
        <ele>324.2</ele>
        <time>1970-01-01T11:57:50.145Z</time>
    </trkpt>
    <trkpt lat="56.315001" lon="60.854182">
        <ele>324.2</ele>
        <time>1970-01-01T11:57:51.145Z</time>
    </trkpt>
    <trkpt lat="56.315001" lon="60.854207">
        <ele>324.2</ele>
        <time>1970-01-01T11:57:52.145Z</time>
    </trkpt>
    <trkpt lat="56.315001" lon="60.854269">
        <ele>324.2</ele>
        <time>1970-01-01T11:57:53.145Z</time>
    </trkpt>
    <trkpt lat="56.315002" lon="60.854288">
        <ele>324.2</ele>
        <time>1970-01-01T11:57:54.145Z</time>
    </trkpt>
    <trkpt lat="56.315004" lon="60.854342">
        <ele>324.2</ele>
        <time>1970-01-01T11:57:55.145Z</time>
    </trkpt>
    <trkpt lat="56.315003" lon="60.854365">
        <ele>324.2</ele>
        <time>1970-01-01T11:57:56.145Z</time>
    </trkpt>
    <trkpt lat="56.315007" lon="60.854391">
        <ele>324.2</ele>
        <time>1970-01-01T11:57:57.145Z</time>
    </trkpt>
    <trkpt lat="56.315007" lon="60.854409">
        <ele>324.2</ele>
        <time>1970-01-01T11:57:58.145Z</time>
    </trkpt>
    <trkpt lat="56.315006" lon="60.854428">
        <ele>324.2</ele>
        <time>1970-01-01T11:57:59.145Z</time>
    </trkpt>
    <trkpt lat="56.315005" lon="60.854463">
        <ele>324.2</ele>
        <time>1970-01-01T11:58:00.145Z</time>
    </trkpt>
    <trkpt lat="56.315002" lon="60.854494">
        <ele>323.2</ele>
        <time>1970-01-01T11:58:01.145Z</time>
    </trkpt>
    <trkpt lat="56.315002" lon="60.854521">
        <ele>323.2</ele>
        <time>1970-01-01T11:58:02.145Z</time>
    </trkpt>
    <trkpt lat="56.314998" lon="60.854552">
        <ele>323.2</ele>
        <time>1970-01-01T11:58:03.145Z</time>
    </trkpt>
    <trkpt lat="56.314996" lon="60.854571">
        <ele>323.2</ele>
        <time>1970-01-01T11:58:04.145Z</time>
    </trkpt>
    <trkpt lat="56.314996" lon="60.854589">
        <ele>323.2</ele>
        <time>1970-01-01T11:58:05.145Z</time>
    </trkpt>
    <trkpt lat="56.314996" lon="60.854607">
        <ele>323.2</ele>
        <time>1970-01-01T11:58:06.145Z</time>
    </trkpt>
    <trkpt lat="56.314999" lon="60.854641">
        <ele>323.2</ele>
        <time>1970-01-01T11:58:07.145Z</time>
    </trkpt>
    <trkpt lat="56.314998" lon="60.85466">
        <ele>322.2</ele>
        <time>1970-01-01T11:58:08.145Z</time>
    </trkpt>
    <trkpt lat="56.314994" lon="60.854693">
        <ele>322.2</ele>
        <time>1970-01-01T11:58:09.145Z</time>
    </trkpt>
    <trkpt lat="56.314998" lon="60.854717">
        <ele>322.2</ele>
        <time>1970-01-01T11:58:10.145Z</time>
    </trkpt>
    <trkpt lat="56.314999" lon="60.854735">
        <ele>322.2</ele>
        <time>1970-01-01T11:58:11.145Z</time>
    </trkpt>
    <trkpt lat="56.314998" lon="60.854756">
        <ele>322.2</ele>
        <time>1970-01-01T11:58:12.145Z</time>
    </trkpt>
    <trkpt lat="56.314999" lon="60.854793">
        <ele>322.2</ele>
        <time>1970-01-01T11:58:13.145Z</time>
    </trkpt>
    <trkpt lat="56.315005" lon="60.854817">
        <ele>322.2</ele>
        <time>1970-01-01T11:58:14.145Z</time>
    </trkpt>
    <trkpt lat="56.315004" lon="60.854837">
        <ele>322.2</ele>
        <time>1970-01-01T11:58:15.145Z</time>
    </trkpt>
    <trkpt lat="56.315002" lon="60.854879">
        <ele>322.2</ele>
        <time>1970-01-01T11:58:16.145Z</time>
    </trkpt>
    <trkpt lat="56.315001" lon="60.854893">
        <ele>322.2</ele>
        <time>1970-01-01T11:58:17.145Z</time>
    </trkpt>
    <trkpt lat="56.315" lon="60.854907">
        <ele>322.2</ele>
        <time>1970-01-01T11:58:18.145Z</time>
    </trkpt>
    <trkpt lat="56.314999" lon="60.854949">
        <ele>322.2</ele>
        <time>1970-01-01T11:58:19.145Z</time>
    </trkpt>
    <trkpt lat="56.314998" lon="60.854966">
        <ele>322.2</ele>
        <time>1970-01-01T11:58:20.145Z</time>
    </trkpt>
    <trkpt lat="56.314999" lon="60.855014">
        <ele>321.2</ele>
        <time>1970-01-01T11:58:21.145Z</time>
    </trkpt>
    <trkpt lat="56.314996" lon="60.855045">
        <ele>321.2</ele>
        <time>1970-01-01T11:58:22.145Z</time>
    </trkpt>
    <trkpt lat="56.314997" lon="60.855055">
        <ele>321.2</ele>
        <time>1970-01-01T11:58:23.145Z</time>
    </trkpt>
    <trkpt lat="56.314999" lon="60.855067">
        <ele>321.2</ele>
        <time>1970-01-01T11:58:24.145Z</time>
    </trkpt>
    <trkpt lat="56.315" lon="60.855082">
        <ele>321.2</ele>
        <time>1970-01-01T11:58:25.145Z</time>
    </trkpt>
    <trkpt lat="56.315001" lon="60.855097">
        <ele>321.2</ele>
        <time>1970-01-01T11:58:26.145Z</time>
    </trkpt>
    <trkpt lat="56.315" lon="60.855132">
        <ele>321.2</ele>
        <time>1970-01-01T11:58:27.145Z</time>
    </trkpt>
    <trkpt lat="56.315" lon="60.855147">
        <ele>321.2</ele>
        <time>1970-01-01T11:58:28.145Z</time>
    </trkpt>
    <trkpt lat="56.315" lon="60.855162">
        <ele>321.2</ele>
        <time>1970-01-01T11:58:29.145Z</time>
    </trkpt>
    <trkpt lat="56.315" lon="60.855208">
        <ele>321.2</ele>
        <time>1970-01-01T11:58:30.145Z</time>
    </trkpt>
    <trkpt lat="56.314999" lon="60.855236">
        <ele>321.2</ele>
        <time>1970-01-01T11:58:31.145Z</time>
    </trkpt>
    <trkpt lat="56.314998" lon="60.855251">
        <ele>321.2</ele>
        <time>1970-01-01T11:58:32.145Z</time>
    </trkpt>
    <trkpt lat="56.314997" lon="60.855264">
        <ele>321.2</ele>
        <time>1970-01-01T11:58:33.145Z</time>
    </trkpt>
    <trkpt lat="56.314999" lon="60.855286">
        <ele>321.2</ele>
        <time>1970-01-01T11:58:34.145Z</time>
    </trkpt>
    <trkpt lat="56.314992" lon="60.855312">
        <ele>321.2</ele>
        <time>1970-01-01T11:58:35.145Z</time>
    </trkpt>
    <trkpt lat="56.314983" lon="60.855338">
        <ele>320.2</ele>
        <time>1970-01-01T11:58:36.145Z</time>
    </trkpt>
    <trkpt lat="56.314979" lon="60.855359">
        <ele>320.2</ele>
        <time>1970-01-01T11:58:37.145Z</time>
    </trkpt>
    <trkpt lat="56.314977" lon="60.85537">
        <ele>320.2</ele>
        <time>1970-01-01T11:58:38.145Z</time>
    </trkpt>
    <trkpt lat="56.314975" lon="60.855384">
        <ele>320.2</ele>
        <time>1970-01-01T11:58:39.145Z</time>
    </trkpt>
    <trkpt lat="56.314973" lon="60.855399">
        <ele>320.2</ele>
        <time>1970-01-01T11:58:40.145Z</time>
    </trkpt>
    <trkpt lat="56.314971" lon="60.855434">
        <ele>320.2</ele>
        <time>1970-01-01T11:58:41.145Z</time>
    </trkpt>
    <trkpt lat="56.314969" lon="60.855448">
        <ele>320.2</ele>
        <time>1970-01-01T11:58:42.145Z</time>
    </trkpt>
    <trkpt lat="56.314967" lon="60.855461">
        <ele>320.2</ele>
        <time>1970-01-01T11:58:43.145Z</time>
    </trkpt>
    <trkpt lat="56.314966" lon="60.8555">
        <ele>320.2</ele>
        <time>1970-01-01T11:58:44.145Z</time>
    </trkpt>
    <trkpt lat="56.314963" lon="60.855521">
        <ele>320.2</ele>
        <time>1970-01-01T11:58:45.145Z</time>
    </trkpt>
    <trkpt lat="56.314959" lon="60.855542">
        <ele>320.2</ele>
        <time>1970-01-01T11:58:46.145Z</time>
    </trkpt>
    <trkpt lat="56.314956" lon="60.855579">
        <ele>320.2</ele>
        <time>1970-01-01T11:58:47.145Z</time>
    </trkpt>
    <trkpt lat="56.31495" lon="60.855606">
        <ele>320.2</ele>
        <time>1970-01-01T11:58:48.145Z</time>
    </trkpt>
    <trkpt lat="56.314948" lon="60.855631">
        <ele>320.2</ele>
        <time>1970-01-01T11:58:49.145Z</time>
    </trkpt>
    <trkpt lat="56.314949" lon="60.855661">
        <ele>320.2</ele>
        <time>1970-01-01T11:58:50.145Z</time>
    </trkpt>
    <trkpt lat="56.314942" lon="60.855685">
        <ele>319.2</ele>
        <time>1970-01-01T11:58:51.145Z</time>
    </trkpt>
    <trkpt lat="56.314943" lon="60.855702">
        <ele>319.2</ele>
        <time>1970-01-01T11:58:52.145Z</time>
    </trkpt>
    <trkpt lat="56.314942" lon="60.855724">
        <ele>319.2</ele>
        <time>1970-01-01T11:58:53.145Z</time>
    </trkpt>
    <trkpt lat="56.314938" lon="60.855743">
        <ele>319.2</ele>
        <time>1970-01-01T11:58:54.145Z</time>
    </trkpt>
    <trkpt lat="56.314933" lon="60.855766">
        <ele>319.2</ele>
        <time>1970-01-01T11:58:55.145Z</time>
    </trkpt>
    <trkpt lat="56.31493" lon="60.855785">
        <ele>319.2</ele>
        <time>1970-01-01T11:58:56.145Z</time>
    </trkpt>
    <trkpt lat="56.314934" lon="60.855804">
        <ele>319.2</ele>
        <time>1970-01-01T11:58:57.145Z</time>
    </trkpt>
    <trkpt lat="56.314933" lon="60.855841">
        <ele>319.2</ele>
        <time>1970-01-01T11:58:58.145Z</time>
    </trkpt>
    <trkpt lat="56.314932" lon="60.855859">
        <ele>319.2</ele>
        <time>1970-01-01T11:58:59.145Z</time>
    </trkpt>
    <trkpt lat="56.314929" lon="60.855874">
        <ele>319.2</ele>
        <time>1970-01-01T11:59:00.145Z</time>
    </trkpt>
    <trkpt lat="56.314926" lon="60.855889">
        <ele>319.2</ele>
        <time>1970-01-01T11:59:01.145Z</time>
    </trkpt>
    <trkpt lat="56.314922" lon="60.855926">
        <ele>319.2</ele>
        <time>1970-01-01T11:59:02.145Z</time>
    </trkpt>
    <trkpt lat="56.31492" lon="60.855941">
        <ele>319.2</ele>
        <time>1970-01-01T11:59:03.145Z</time>
    </trkpt>
    <trkpt lat="56.314917" lon="60.855956">
        <ele>319.2</ele>
        <time>1970-01-01T11:59:04.145Z</time>
    </trkpt>
    <trkpt lat="56.314912" lon="60.855991">
        <ele>319.2</ele>
        <time>1970-01-01T11:59:05.145Z</time>
    </trkpt>
    <trkpt lat="56.314909" lon="60.856009">
        <ele>319.2</ele>
        <time>1970-01-01T11:59:06.145Z</time>
    </trkpt>
    <trkpt lat="56.314905" lon="60.856038">
        <ele>318.2</ele>
        <time>1970-01-01T11:59:07.145Z</time>
    </trkpt>
    <trkpt lat="56.314901" lon="60.856069">
        <ele>318.2</ele>
        <time>1970-01-01T11:59:08.145Z</time>
    </trkpt>
    <trkpt lat="56.314892" lon="60.856094">
        <ele>318.2</ele>
        <time>1970-01-01T11:59:09.145Z</time>
    </trkpt>
    <trkpt lat="56.314889" lon="60.856131">
        <ele>318.2</ele>
        <time>1970-01-01T11:59:10.145Z</time>
    </trkpt>
    <trkpt lat="56.314886" lon="60.856153">
        <ele>318.2</ele>
        <time>1970-01-01T11:59:11.145Z</time>
    </trkpt>
    <trkpt lat="56.314885" lon="60.85617">
        <ele>318.2</ele>
        <time>1970-01-01T11:59:12.145Z</time>
    </trkpt>
    <trkpt lat="56.314884" lon="60.856187">
        <ele>318.2</ele>
        <time>1970-01-01T11:59:13.145Z</time>
    </trkpt>
    <trkpt lat="56.31488" lon="60.856229">
        <ele>318.2</ele>
        <time>1970-01-01T11:59:14.145Z</time>
    </trkpt>
    <trkpt lat="56.314872" lon="60.856254">
        <ele>318.2</ele>
        <time>1970-01-01T11:59:15.145Z</time>
    </trkpt>
    <trkpt lat="56.31487" lon="60.856282">
        <ele>318.2</ele>
        <time>1970-01-01T11:59:16.145Z</time>
    </trkpt>
    <trkpt lat="56.314868" lon="60.856298">
        <ele>318.2</ele>
        <time>1970-01-01T11:59:17.145Z</time>
    </trkpt>
    <trkpt lat="56.314866" lon="60.856315">
        <ele>318.2</ele>
        <time>1970-01-01T11:59:18.145Z</time>
    </trkpt>
    <trkpt lat="56.314865" lon="60.856348">
        <ele>318.2</ele>
        <time>1970-01-01T11:59:19.145Z</time>
    </trkpt>
    <trkpt lat="56.314862" lon="60.856377">
        <ele>318.2</ele>
        <time>1970-01-01T11:59:20.145Z</time>
    </trkpt>
    <trkpt lat="56.314857" lon="60.8564">
        <ele>318.2</ele>
        <time>1970-01-01T11:59:21.145Z</time>
    </trkpt>
    <trkpt lat="56.314852" lon="60.856431">
        <ele>318.2</ele>
        <time>1970-01-01T11:59:22.145Z</time>
    </trkpt>
    <trkpt lat="56.314849" lon="60.856453">
        <ele>318.2</ele>
        <time>1970-01-01T11:59:23.145Z</time>
    </trkpt>
    <trkpt lat="56.314849" lon="60.856477">
        <ele>318.2</ele>
        <time>1970-01-01T11:59:24.145Z</time>
    </trkpt>
    <trkpt lat="56.314847" lon="60.856508">
        <ele>318.2</ele>
        <time>1970-01-01T11:59:25.145Z</time>
    </trkpt>
    <trkpt lat="56.314845" lon="60.856537">
        <ele>317.2</ele>
        <time>1970-01-01T11:59:26.145Z</time>
    </trkpt>
    <trkpt lat="56.314842" lon="60.856564">
        <ele>317.2</ele>
        <time>1970-01-01T11:59:27.145Z</time>
    </trkpt>
    <trkpt lat="56.31484" lon="60.856587">
        <ele>317.2</ele>
        <time>1970-01-01T11:59:28.145Z</time>
    </trkpt>
    <trkpt lat="56.314838" lon="60.856618">
        <ele>317.2</ele>
        <time>1970-01-01T11:59:29.145Z</time>
    </trkpt>
    <trkpt lat="56.314832" lon="60.856637">
        <ele>317.2</ele>
        <time>1970-01-01T11:59:30.145Z</time>
    </trkpt>
    <trkpt lat="56.31483" lon="60.856666">
        <ele>317.2</ele>
        <time>1970-01-01T11:59:31.145Z</time>
    </trkpt>
    <trkpt lat="56.314828" lon="60.856689">
        <ele>317.2</ele>
        <time>1970-01-01T11:59:32.145Z</time>
    </trkpt>
    <trkpt lat="56.314824" lon="60.856729">
        <ele>317.2</ele>
        <time>1970-01-01T11:59:33.145Z</time>
    </trkpt>
    <trkpt lat="56.314822" lon="60.856745">
        <ele>317.2</ele>
        <time>1970-01-01T11:59:34.145Z</time>
    </trkpt>
    <trkpt lat="56.31482" lon="60.85676">
        <ele>317.2</ele>
        <time>1970-01-01T11:59:35.145Z</time>
    </trkpt>
    <trkpt lat="56.314815" lon="60.856804">
        <ele>317.2</ele>
        <time>1970-01-01T11:59:36.145Z</time>
    </trkpt>
    <trkpt lat="56.314812" lon="60.856819">
        <ele>317.2</ele>
        <time>1970-01-01T11:59:37.145Z</time>
    </trkpt>
    <trkpt lat="56.314808" lon="60.856834">
        <ele>317.2</ele>
        <time>1970-01-01T11:59:38.145Z</time>
    </trkpt>
    <trkpt lat="56.314803" lon="60.856872">
        <ele>317.2</ele>
        <time>1970-01-01T11:59:39.145Z</time>
    </trkpt>
    <trkpt lat="56.314802" lon="60.856889">
        <ele>317.1</ele>
        <time>1970-01-01T11:59:40.145Z</time>
    </trkpt>
    <trkpt lat="56.3148" lon="60.856906">
        <ele>317.0</ele>
        <time>1970-01-01T11:59:41.145Z</time>
    </trkpt>
    <trkpt lat="56.314796" lon="60.856941">
        <ele>316.9</ele>
        <time>1970-01-01T11:59:42.145Z</time>
    </trkpt>
    <trkpt lat="56.314792" lon="60.856963">
        <ele>316.8</ele>
        <time>1970-01-01T11:59:43.145Z</time>
    </trkpt>
    <trkpt lat="56.314793" lon="60.856977">
        <ele>316.7</ele>
        <time>1970-01-01T11:59:44.145Z</time>
    </trkpt>
    <trkpt lat="56.314789" lon="60.857001">
        <ele>316.6</ele>
        <time>1970-01-01T11:59:45.145Z</time>
    </trkpt>
    <trkpt lat="56.314786" lon="60.857015">
        <ele>316.5</ele>
        <time>1970-01-01T11:59:46.145Z</time>
    </trkpt>
    <trkpt lat="56.314782" lon="60.85703">
        <ele>316.4</ele>
        <time>1970-01-01T11:59:47.145Z</time>
    </trkpt>
    <trkpt lat="56.314778" lon="60.857065">
        <ele>316.3</ele>
        <time>1970-01-01T11:59:48.145Z</time>
    </trkpt>
    <trkpt lat="56.314778" lon="60.857081">
        <ele>316.2</ele>
        <time>1970-01-01T11:59:49.145Z</time>
    </trkpt>
    <trkpt lat="56.314779" lon="60.857096">
        <ele>316.1</ele>
        <time>1970-01-01T11:59:50.145Z</time>
    </trkpt>
    <trkpt lat="56.31478" lon="60.857112">
        <ele>316.0</ele>
        <time>1970-01-01T11:59:51.145Z</time>
    </trkpt>
    <trkpt lat="56.314778" lon="60.857138">
        <ele>315.9</ele>
        <time>1970-01-01T11:59:52.145Z</time>
    </trkpt>
    <trkpt lat="56.314772" lon="60.857165">
        <ele>315.8</ele>
        <time>1970-01-01T11:59:53.145Z</time>
    </trkpt>
    <trkpt lat="56.314769" lon="60.857188">
        <ele>315.7</ele>
        <time>1970-01-01T11:59:54.145Z</time>
    </trkpt>
    <trkpt lat="56.314769" lon="60.857199">
        <ele>315.6</ele>
        <time>1970-01-01T11:59:55.145Z</time>
    </trkpt>
    <trkpt lat="56.314767" lon="60.85723">
        <ele>314.5</ele>
        <time>1970-01-01T11:59:56.145Z</time>
    </trkpt>
    <trkpt lat="56.314764" lon="60.857253">
        <ele>314.4</ele>
        <time>1970-01-01T11:59:57.145Z</time>
    </trkpt>
    <trkpt lat="56.31476" lon="60.857275">
        <ele>314.3</ele>
        <time>1970-01-01T11:59:58.145Z</time>
    </trkpt>
    <trkpt lat="56.314761" lon="60.857307">
        <ele>314.2</ele>
        <time>1970-01-01T11:59:59.145Z</time>
    </trkpt>
    <trkpt lat="56.314763" lon="60.857325">
        <ele>314.1</ele>
        <time>1970-01-01T12:00:00.145Z</time>
    </trkpt>
    <trkpt lat="56.314762" lon="60.857343">
        <ele>314.0</ele>
        <time>1970-01-01T12:00:01.145Z</time>
    </trkpt>
    <trkpt lat="56.314764" lon="60.857359">
        <ele>313.9</ele>
        <time>1970-01-01T12:00:02.145Z</time>
    </trkpt>
    <trkpt lat="56.314763" lon="60.857372">
        <ele>313.8</ele>
        <time>1970-01-01T12:00:03.145Z</time>
    </trkpt>
    <trkpt lat="56.314766" lon="60.857388">
        <ele>313.7</ele>
        <time>1970-01-01T12:00:04.145Z</time>
    </trkpt>
    <trkpt lat="56.314769" lon="60.857414">
        <ele>312.6</ele>
        <time>1970-01-01T12:00:05.145Z</time>
    </trkpt>
    <trkpt lat="56.314772" lon="60.857419">
        <ele>312.5</ele>
        <time>1970-01-01T12:00:06.145Z</time>
    </trkpt>
    <trkpt lat="56.314776" lon="60.85744">
        <ele>312.4</ele>
        <time>1970-01-01T12:00:07.145Z</time>
    </trkpt>
    <trkpt lat="56.314782" lon="60.857459">
        <ele>312.3</ele>
        <time>1970-01-01T12:00:08.145Z</time>
    </trkpt>
    <trkpt lat="56.314779" lon="60.857479">
        <ele>312.2</ele>
        <time>1970-01-01T12:00:09.145Z</time>
    </trkpt>
    <trkpt lat="56.314781" lon="60.857489">
        <ele>312.1</ele>
        <time>1970-01-01T12:00:10.145Z</time>
    </trkpt>
    <trkpt lat="56.314783" lon="60.857511">
        <ele>312.0</ele>
        <time>1970-01-01T12:00:11.145Z</time>
    </trkpt>
    <trkpt lat="56.314785" lon="60.857528">
        <ele>311.9</ele>
        <time>1970-01-01T12:00:12.145Z</time>
    </trkpt>
    <trkpt lat="56.31479" lon="60.857552">
        <ele>311.8</ele>
        <time>1970-01-01T12:00:13.145Z</time>
    </trkpt>
    <trkpt lat="56.314799" lon="60.857569">
        <ele>310.7</ele>
        <time>1970-01-01T12:00:14.145Z</time>
    </trkpt>
    <trkpt lat="56.314798" lon="60.857585">
        <ele>310.6</ele>
        <time>1970-01-01T12:00:15.145Z</time>
    </trkpt>
    <trkpt lat="56.314797" lon="60.857601">
        <ele>310.5</ele>
        <time>1970-01-01T12:00:16.145Z</time>
    </trkpt>
    <trkpt lat="56.314791" lon="60.857637">
        <ele>310.4</ele>
        <time>1970-01-01T12:00:17.145Z</time>
    </trkpt>
    <trkpt lat="56.314791" lon="60.857653">
        <ele>310.3</ele>
        <time>1970-01-01T12:00:18.145Z</time>
    </trkpt>
    <trkpt lat="56.314793" lon="60.857677">
        <ele>310.2</ele>
        <time>1970-01-01T12:00:19.145Z</time>
    </trkpt>
    <trkpt lat="56.314793" lon="60.857692">
        <ele>310.1</ele>
        <time>1970-01-01T12:00:20.145Z</time>
    </trkpt>
    <trkpt lat="56.314794" lon="60.857717">
        <ele>310.0</ele>
        <time>1970-01-01T12:00:21.145Z</time>
    </trkpt>
    <trkpt lat="56.314793" lon="60.857732">
        <ele>309.9</ele>
        <time>1970-01-01T12:00:22.145Z</time>
    </trkpt>
    <trkpt lat="56.314791" lon="60.857751">
        <ele>308.8</ele>
        <time>1970-01-01T12:00:23.145Z</time>
    </trkpt>
    <trkpt lat="56.314789" lon="60.857772">
        <ele>308.7</ele>
        <time>1970-01-01T12:00:24.145Z</time>
    </trkpt>
    <trkpt lat="56.314787" lon="60.857791">
        <ele>308.6</ele>
        <time>1970-01-01T12:00:25.145Z</time>
    </trkpt>
    <trkpt lat="56.314782" lon="60.857811">
        <ele>308.5</ele>
        <time>1970-01-01T12:00:26.145Z</time>
    </trkpt>
    <trkpt lat="56.314779" lon="60.857827">
        <ele>308.4</ele>
        <time>1970-01-01T12:00:27.145Z</time>
    </trkpt>
    <trkpt lat="56.314777" lon="60.857844">
        <ele>308.3</ele>
        <time>1970-01-01T12:00:28.145Z</time>
    </trkpt>
    <trkpt lat="56.314775" lon="60.857879">
        <ele>308.2</ele>
        <time>1970-01-01T12:00:29.145Z</time>
    </trkpt>
    <trkpt lat="56.314773" lon="60.857894">
        <ele>308.0</ele>
        <time>1970-01-01T12:00:30.145Z</time>
    </trkpt>
    <trkpt lat="56.31477" lon="60.857909">
        <ele>306.9</ele>
        <time>1970-01-01T12:00:31.145Z</time>
    </trkpt>
    <trkpt lat="56.31476" lon="60.85794">
        <ele>306.8</ele>
        <time>1970-01-01T12:00:32.145Z</time>
    </trkpt>
    <trkpt lat="56.314756" lon="60.857973">
        <ele>306.7</ele>
        <time>1970-01-01T12:00:33.145Z</time>
    </trkpt>
    <trkpt lat="56.314755" lon="60.857996">
        <ele>306.6</ele>
        <time>1970-01-01T12:00:34.145Z</time>
    </trkpt>
    <trkpt lat="56.314752" lon="60.858012">
        <ele>306.5</ele>
        <time>1970-01-01T12:00:35.145Z</time>
    </trkpt>
    <trkpt lat="56.31475" lon="60.858027">
        <ele>306.4</ele>
        <time>1970-01-01T12:00:36.145Z</time>
    </trkpt>
    <trkpt lat="56.314744" lon="60.85806">
        <ele>306.3</ele>
        <time>1970-01-01T12:00:37.145Z</time>
    </trkpt>
    <trkpt lat="56.314744" lon="60.858089">
        <ele>304.2</ele>
        <time>1970-01-01T12:00:38.145Z</time>
    </trkpt>
    <trkpt lat="56.314741" lon="60.858111">
        <ele>304.1</ele>
        <time>1970-01-01T12:00:39.145Z</time>
    </trkpt>
    <trkpt lat="56.314735" lon="60.858128">
        <ele>304.0</ele>
        <time>1970-01-01T12:00:40.145Z</time>
    </trkpt>
    <trkpt lat="56.31473" lon="60.858165">
        <ele>303.9</ele>
        <time>1970-01-01T12:00:41.145Z</time>
    </trkpt>
    <trkpt lat="56.314728" lon="60.858179">
        <ele>303.8</ele>
        <time>1970-01-01T12:00:42.145Z</time>
    </trkpt>
    <trkpt lat="56.314727" lon="60.858192">
        <ele>304.7</ele>
        <time>1970-01-01T12:00:43.145Z</time>
    </trkpt>
    <trkpt lat="56.314724" lon="60.858233">
        <ele>304.6</ele>
        <time>1970-01-01T12:00:44.145Z</time>
    </trkpt>
    <trkpt lat="56.314721" lon="60.858261">
        <ele>303.5</ele>
        <time>1970-01-01T12:00:45.145Z</time>
    </trkpt>
    <trkpt lat="56.31472" lon="60.858289">
        <ele>303.4</ele>
        <time>1970-01-01T12:00:46.145Z</time>
    </trkpt>
    <trkpt lat="56.314717" lon="60.858322">
        <ele>303.3</ele>
        <time>1970-01-01T12:00:47.145Z</time>
    </trkpt>
    <trkpt lat="56.314715" lon="60.858348">
        <ele>303.2</ele>
        <time>1970-01-01T12:00:48.145Z</time>
    </trkpt>
    <trkpt lat="56.314714" lon="60.858368">
        <ele>303.1</ele>
        <time>1970-01-01T12:00:49.145Z</time>
    </trkpt>
    <trkpt lat="56.314709" lon="60.858396">
        <ele>303.0</ele>
        <time>1970-01-01T12:00:50.145Z</time>
    </trkpt>
    <trkpt lat="56.314708" lon="60.858418">
        <ele>302.9</ele>
        <time>1970-01-01T12:00:51.145Z</time>
    </trkpt>
    <trkpt lat="56.314708" lon="60.858454">
        <ele>301.8</ele>
        <time>1970-01-01T12:00:52.145Z</time>
    </trkpt>
    <trkpt lat="56.314704" lon="60.858484">
        <ele>301.7</ele>
        <time>1970-01-01T12:00:53.145Z</time>
    </trkpt>
    <trkpt lat="56.314704" lon="60.858512">
        <ele>301.6</ele>
        <time>1970-01-01T12:00:54.145Z</time>
    </trkpt>
    <trkpt lat="56.314701" lon="60.858532">
        <ele>301.5</ele>
        <time>1970-01-01T12:00:55.145Z</time>
    </trkpt>
    <trkpt lat="56.314699" lon="60.85856">
        <ele>301.4</ele>
        <time>1970-01-01T12:00:56.145Z</time>
    </trkpt>
    <trkpt lat="56.314701" lon="60.858589">
        <ele>301.3</ele>
        <time>1970-01-01T12:00:57.145Z</time>
    </trkpt>
    <trkpt lat="56.314696" lon="60.858611">
        <ele>300.2</ele>
        <time>1970-01-01T12:00:58.145Z</time>
    </trkpt>
    <trkpt lat="56.314692" lon="60.858635">
        <ele>300.1</ele>
        <time>1970-01-01T12:00:59.145Z</time>
    </trkpt>
    <trkpt lat="56.314695" lon="60.85866">
        <ele>300.0</ele>
        <time>1970-01-01T12:01:00.145Z</time>
    </trkpt>
    <trkpt lat="56.314694" lon="60.858676">
        <ele>299.9</ele>
        <time>1970-01-01T12:01:01.145Z</time>
    </trkpt>
    <trkpt lat="56.314692" lon="60.858691">
        <ele>299.8</ele>
        <time>1970-01-01T12:01:02.145Z</time>
    </trkpt>
    <trkpt lat="56.314689" lon="60.858727">
        <ele>299.7</ele>
        <time>1970-01-01T12:01:03.145Z</time>
    </trkpt>
    <trkpt lat="56.314689" lon="60.858746">
        <ele>299.6</ele>
        <time>1970-01-01T12:01:04.145Z</time>
    </trkpt>
    <trkpt lat="56.314689" lon="60.858764">
        <ele>299.5</ele>
        <time>1970-01-01T12:01:05.145Z</time>
    </trkpt>
    <trkpt lat="56.314686" lon="60.858804">
        <ele>298.4</ele>
        <time>1970-01-01T12:01:06.145Z</time>
    </trkpt>
    <trkpt lat="56.314683" lon="60.858825">
        <ele>298.3</ele>
        <time>1970-01-01T12:01:07.145Z</time>
    </trkpt>
    <trkpt lat="56.314675" lon="60.858853">
        <ele>298.2</ele>
        <time>1970-01-01T12:01:08.145Z</time>
    </trkpt>
    <trkpt lat="56.314671" lon="60.858886">
        <ele>298.1</ele>
        <time>1970-01-01T12:01:09.145Z</time>
    </trkpt>
    <trkpt lat="56.314671" lon="60.85891">
        <ele>298.0</ele>
        <time>1970-01-01T12:01:10.145Z</time>
    </trkpt>
    <trkpt lat="56.31467" lon="60.858929">
        <ele>297.9</ele>
        <time>1970-01-01T12:01:11.145Z</time>
    </trkpt>
    <trkpt lat="56.31467" lon="60.858948">
        <ele>296.8</ele>
        <time>1970-01-01T12:01:12.145Z</time>
    </trkpt>
    <trkpt lat="56.314666" lon="60.85899">
        <ele>296.7</ele>
        <time>1970-01-01T12:01:13.145Z</time>
    </trkpt>
    <trkpt lat="56.314666" lon="60.859016">
        <ele>296.6</ele>
        <time>1970-01-01T12:01:14.145Z</time>
    </trkpt>
    <trkpt lat="56.314667" lon="60.859045">
        <ele>296.5</ele>
        <time>1970-01-01T12:01:15.145Z</time>
    </trkpt>
    <trkpt lat="56.314665" lon="60.859061">
        <ele>296.4</ele>
        <time>1970-01-01T12:01:16.145Z</time>
    </trkpt>
    <trkpt lat="56.314663" lon="60.859077">
        <ele>296.3</ele>
        <time>1970-01-01T12:01:17.145Z</time>
    </trkpt>
    <trkpt lat="56.314659" lon="60.859115">
        <ele>295.2</ele>
        <time>1970-01-01T12:01:18.145Z</time>
    </trkpt>
    <trkpt lat="56.314658" lon="60.859144">
        <ele>295.1</ele>
        <time>1970-01-01T12:01:19.145Z</time>
    </trkpt>
    <trkpt lat="56.314659" lon="60.859164">
        <ele>295.1</ele>
        <time>1970-01-01T12:01:20.145Z</time>
    </trkpt>
    <trkpt lat="56.314659" lon="60.859178">
        <ele>295.1</ele>
        <time>1970-01-01T12:01:21.145Z</time>
    </trkpt>
    <trkpt lat="56.31466" lon="60.859192">
        <ele>295.1</ele>
        <time>1970-01-01T12:01:22.145Z</time>
    </trkpt>
    <trkpt lat="56.314656" lon="60.859234">
        <ele>295.1</ele>
        <time>1970-01-01T12:01:23.145Z</time>
    </trkpt>
    <trkpt lat="56.314649" lon="60.859259">
        <ele>295.1</ele>
        <time>1970-01-01T12:01:24.145Z</time>
    </trkpt>
    <trkpt lat="56.314645" lon="60.859284">
        <ele>293.1</ele>
        <time>1970-01-01T12:01:25.145Z</time>
    </trkpt>
    <trkpt lat="56.314644" lon="60.859296">
        <ele>293.1</ele>
        <time>1970-01-01T12:01:26.145Z</time>
    </trkpt>
    <trkpt lat="56.314631" lon="60.859348">
        <ele>294.1</ele>
        <time>1970-01-01T12:01:27.145Z</time>
    </trkpt>
    <trkpt lat="56.314628" lon="60.859366">
        <ele>294.1</ele>
        <time>1970-01-01T12:01:28.145Z</time>
    </trkpt>
    <trkpt lat="56.31462" lon="60.85941">
        <ele>294.1</ele>
        <time>1970-01-01T12:01:29.145Z</time>
    </trkpt>
    <trkpt lat="56.314616" lon="60.85943">
        <ele>294.1</ele>
        <time>1970-01-01T12:01:30.145Z</time>
    </trkpt>
    <trkpt lat="56.314604" lon="60.859487">
        <ele>293.1</ele>
        <time>1970-01-01T12:01:31.145Z</time>
    </trkpt>
    <trkpt lat="56.314602" lon="60.859505">
        <ele>293.1</ele>
        <time>1970-01-01T12:01:32.145Z</time>
    </trkpt>
    <trkpt lat="56.314596" lon="60.859553">
        <ele>293.1</ele>
        <time>1970-01-01T12:01:33.145Z</time>
    </trkpt>
    <trkpt lat="56.314593" lon="60.85957">
        <ele>293.1</ele>
        <time>1970-01-01T12:01:34.145Z</time>
    </trkpt>
    <trkpt lat="56.314585" lon="60.859615">
        <ele>293.1</ele>
        <time>1970-01-01T12:01:35.145Z</time>
    </trkpt>
    <trkpt lat="56.314583" lon="60.859634">
        <ele>291.1</ele>
        <time>1970-01-01T12:01:36.145Z</time>
    </trkpt>
    <trkpt lat="56.314583" lon="60.859667">
        <ele>291.1</ele>
        <time>1970-01-01T12:01:37.145Z</time>
    </trkpt>
    <trkpt lat="56.314583" lon="60.859682">
        <ele>291.1</ele>
        <time>1970-01-01T12:01:38.145Z</time>
    </trkpt>
    <trkpt lat="56.314582" lon="60.859697">
        <ele>291.1</ele>
        <time>1970-01-01T12:01:39.145Z</time>
    </trkpt>
    <trkpt lat="56.314581" lon="60.859744">
        <ele>291.1</ele>
        <time>1970-01-01T12:01:40.145Z</time>
    </trkpt>
    <trkpt lat="56.314576" lon="60.859774">
        <ele>291.1</ele>
        <time>1970-01-01T12:01:41.145Z</time>
    </trkpt>
    <trkpt lat="56.314574" lon="60.859807">
        <ele>290.1</ele>
        <time>1970-01-01T12:01:42.145Z</time>
    </trkpt>
    <trkpt lat="56.314575" lon="60.859823">
        <ele>290.1</ele>
        <time>1970-01-01T12:01:43.145Z</time>
    </trkpt>
    <trkpt lat="56.314575" lon="60.859838">
        <ele>290.1</ele>
        <time>1970-01-01T12:01:44.145Z</time>
    </trkpt>
    <trkpt lat="56.314575" lon="60.859875">
        <ele>290.1</ele>
        <time>1970-01-01T12:01:45.145Z</time>
    </trkpt>
    <trkpt lat="56.314573" lon="60.8599">
        <ele>290.1</ele>
        <time>1970-01-01T12:01:46.145Z</time>
    </trkpt>
    <trkpt lat="56.314569" lon="60.859924">
        <ele>290.1</ele>
        <time>1970-01-01T12:01:47.145Z</time>
    </trkpt>
    <trkpt lat="56.314566" lon="60.859954">
        <ele>290.1</ele>
        <time>1970-01-01T12:01:48.145Z</time>
    </trkpt>
    <trkpt lat="56.314562" lon="60.85998">
        <ele>289.1</ele>
        <time>1970-01-01T12:01:49.145Z</time>
    </trkpt>
    <trkpt lat="56.314562" lon="60.859999">
        <ele>289.1</ele>
        <time>1970-01-01T12:01:50.145Z</time>
    </trkpt>
    <trkpt lat="56.314561" lon="60.860021">
        <ele>289.1</ele>
        <time>1970-01-01T12:01:51.145Z</time>
    </trkpt>
    <trkpt lat="56.314566" lon="60.860037">
        <ele>289.1</ele>
        <time>1970-01-01T12:01:52.145Z</time>
    </trkpt>
    <trkpt lat="56.314568" lon="60.860063">
        <ele>289.1</ele>
        <time>1970-01-01T12:01:53.145Z</time>
    </trkpt>
    <trkpt lat="56.314565" lon="60.860088">
        <ele>289.1</ele>
        <time>1970-01-01T12:01:54.145Z</time>
    </trkpt>
    <trkpt lat="56.314563" lon="60.860113">
        <ele>289.1</ele>
        <time>1970-01-01T12:01:55.145Z</time>
    </trkpt>
    <trkpt lat="56.314561" lon="60.860135">
        <ele>289.1</ele>
        <time>1970-01-01T12:01:56.145Z</time>
    </trkpt>
    <trkpt lat="56.31456" lon="60.860151">
        <ele>288.1</ele>
        <time>1970-01-01T12:01:57.145Z</time>
    </trkpt>
    <trkpt lat="56.314564" lon="60.860182">
        <ele>288.1</ele>
        <time>1970-01-01T12:01:58.145Z</time>
    </trkpt>
    <trkpt lat="56.314563" lon="60.860206">
        <ele>288.1</ele>
        <time>1970-01-01T12:01:59.145Z</time>
    </trkpt>
    <trkpt lat="56.314563" lon="60.86022">
        <ele>288.1</ele>
        <time>1970-01-01T12:02:00.145Z</time>
    </trkpt>
    <trkpt lat="56.314562" lon="60.860243">
        <ele>288.1</ele>
        <time>1970-01-01T12:02:01.145Z</time>
    </trkpt>
    <trkpt lat="56.314561" lon="60.86026">
        <ele>288.1</ele>
        <time>1970-01-01T12:02:02.145Z</time>
    </trkpt>
    <trkpt lat="56.314562" lon="60.860279">
        <ele>288.1</ele>
        <time>1970-01-01T12:02:03.145Z</time>
    </trkpt>
    <trkpt lat="56.314562" lon="60.86031">
        <ele>287.1</ele>
        <time>1970-01-01T12:02:04.145Z</time>
    </trkpt>
    <trkpt lat="56.314561" lon="60.860327">
        <ele>287.1</ele>
        <time>1970-01-01T12:02:05.145Z</time>
    </trkpt>
    <trkpt lat="56.314559" lon="60.860344">
        <ele>287.1</ele>
        <time>1970-01-01T12:02:06.145Z</time>
    </trkpt>
    <trkpt lat="56.314565" lon="60.860386">
        <ele>287.1</ele>
        <time>1970-01-01T12:02:07.145Z</time>
    </trkpt>
    <trkpt lat="56.314563" lon="60.860403">
        <ele>287.1</ele>
        <time>1970-01-01T12:02:08.145Z</time>
    </trkpt>
    <trkpt lat="56.314562" lon="60.86042">
        <ele>287.1</ele>
        <time>1970-01-01T12:02:09.145Z</time>
    </trkpt>
    <trkpt lat="56.314566" lon="60.860463">
        <ele>287.1</ele>
        <time>1970-01-01T12:02:10.145Z</time>
    </trkpt>
    <trkpt lat="56.314568" lon="60.86049">
        <ele>286.1</ele>
        <time>1970-01-01T12:02:11.145Z</time>
    </trkpt>
    <trkpt lat="56.314567" lon="60.860515">
        <ele>286.1</ele>
        <time>1970-01-01T12:02:12.145Z</time>
    </trkpt>
    <trkpt lat="56.314568" lon="60.860527">
        <ele>286.1</ele>
        <time>1970-01-01T12:02:13.145Z</time>
    </trkpt>
    <trkpt lat="56.314569" lon="60.860539">
        <ele>286.1</ele>
        <time>1970-01-01T12:02:14.145Z</time>
    </trkpt>
    <trkpt lat="56.314567" lon="60.860583">
        <ele>286.1</ele>
        <time>1970-01-01T12:02:15.145Z</time>
    </trkpt>
    <trkpt lat="56.314567" lon="60.860601">
        <ele>286.1</ele>
        <time>1970-01-01T12:02:16.145Z</time>
    </trkpt>
    <trkpt lat="56.314566" lon="60.860619">
        <ele>286.1</ele>
        <time>1970-01-01T12:02:17.145Z</time>
    </trkpt>
    <trkpt lat="56.314567" lon="60.860649">
        <ele>286.1</ele>
        <time>1970-01-01T12:02:18.145Z</time>
    </trkpt>
    <trkpt lat="56.314573" lon="60.860677">
        <ele>285.1</ele>
        <time>1970-01-01T12:02:19.145Z</time>
    </trkpt>
    <trkpt lat="56.314565" lon="60.86071">
        <ele>285.1</ele>
        <time>1970-01-01T12:02:20.145Z</time>
    </trkpt>
    <trkpt lat="56.314562" lon="60.860725">
        <ele>285.1</ele>
        <time>1970-01-01T12:02:21.145Z</time>
    </trkpt>
    <trkpt lat="56.314565" lon="60.860749">
        <ele>285.1</ele>
        <time>1970-01-01T12:02:22.145Z</time>
    </trkpt>
    <trkpt lat="56.314568" lon="60.86077">
        <ele>285.1</ele>
        <time>1970-01-01T12:02:23.145Z</time>
    </trkpt>
    <trkpt lat="56.314567" lon="60.8608">
        <ele>285.1</ele>
        <time>1970-01-01T12:02:24.145Z</time>
    </trkpt>
    <trkpt lat="56.314574" lon="60.86082">
        <ele>285.1</ele>
        <time>1970-01-01T12:02:25.145Z</time>
    </trkpt>
    <trkpt lat="56.314576" lon="60.860852">
        <ele>284.1</ele>
        <time>1970-01-01T12:02:26.145Z</time>
    </trkpt>
    <trkpt lat="56.314576" lon="60.860874">
        <ele>284.1</ele>
        <time>1970-01-01T12:02:27.145Z</time>
    </trkpt>
    <trkpt lat="56.314573" lon="60.86089">
        <ele>284.1</ele>
        <time>1970-01-01T12:02:28.145Z</time>
    </trkpt>
    <trkpt lat="56.314571" lon="60.860905">
        <ele>284.1</ele>
        <time>1970-01-01T12:02:29.145Z</time>
    </trkpt>
    <trkpt lat="56.314566" lon="60.860944">
        <ele>284.1</ele>
        <time>1970-01-01T12:02:30.145Z</time>
    </trkpt>
    <trkpt lat="56.31457" lon="60.860968">
        <ele>284.1</ele>
        <time>1970-01-01T12:02:31.145Z</time>
    </trkpt>
    <trkpt lat="56.314568" lon="60.861007">
        <ele>284.1</ele>
        <time>1970-01-01T12:02:32.145Z</time>
    </trkpt>
    <trkpt lat="56.314567" lon="60.861029">
        <ele>284.1</ele>
        <time>1970-01-01T12:02:33.145Z</time>
    </trkpt>
    <trkpt lat="56.314566" lon="60.861051">
        <ele>284.1</ele>
        <time>1970-01-01T12:02:34.145Z</time>
    </trkpt>
    <trkpt lat="56.314562" lon="60.861081">
        <ele>284.1</ele>
        <time>1970-01-01T12:02:35.145Z</time>
    </trkpt>
    <trkpt lat="56.31456" lon="60.861099">
        <ele>284.1</ele>
        <time>1970-01-01T12:02:36.145Z</time>
    </trkpt>
    <trkpt lat="56.314552" lon="60.861149">
        <ele>284.1</ele>
        <time>1970-01-01T12:02:37.145Z</time>
    </trkpt>
    <trkpt lat="56.314551" lon="60.861174">
        <ele>283.1</ele>
        <time>1970-01-01T12:02:38.145Z</time>
    </trkpt>
    <trkpt lat="56.314549" lon="60.861198">
        <ele>283.1</ele>
        <time>1970-01-01T12:02:39.145Z</time>
    </trkpt>
    <trkpt lat="56.314548" lon="60.861233">
        <ele>283.1</ele>
        <time>1970-01-01T12:02:40.145Z</time>
    </trkpt>
    <trkpt lat="56.314548" lon="60.86125">
        <ele>283.1</ele>
        <time>1970-01-01T12:02:41.145Z</time>
    </trkpt>
    <trkpt lat="56.314551" lon="60.861276">
        <ele>283.1</ele>
        <time>1970-01-01T12:02:42.145Z</time>
    </trkpt>
    <trkpt lat="56.314548" lon="60.861307">
        <ele>283.1</ele>
        <time>1970-01-01T12:02:43.145Z</time>
    </trkpt>
    <trkpt lat="56.314543" lon="60.861332">
        <ele>283.1</ele>
        <time>1970-01-01T12:02:44.145Z</time>
    </trkpt>
    <trkpt lat="56.314542" lon="60.861361">
        <ele>282.1</ele>
        <time>1970-01-01T12:02:45.145Z</time>
    </trkpt>
    <trkpt lat="56.314545" lon="60.86138">
        <ele>282.1</ele>
        <time>1970-01-01T12:02:46.145Z</time>
    </trkpt>
    <trkpt lat="56.314549" lon="60.861413">
        <ele>282.1</ele>
        <time>1970-01-01T12:02:47.145Z</time>
    </trkpt>
    <trkpt lat="56.314543" lon="60.861445">
        <ele>282.1</ele>
        <time>1970-01-01T12:02:48.145Z</time>
    </trkpt>
    <trkpt lat="56.314537" lon="60.861477">
        <ele>283.1</ele>
        <time>1970-01-01T12:02:49.145Z</time>
    </trkpt>
    <trkpt lat="56.314531" lon="60.861509">
        <ele>283.1</ele>
        <time>1970-01-01T12:03:06.145Z</time>
    </trkpt>
    <trkpt lat="56.314525" lon="60.861542">
        <ele>282.1</ele>
        <time>1970-01-01T12:03:07.145Z</time>
    </trkpt>
    <trkpt lat="56.314519" lon="60.861574">
        <ele>282.1</ele>
        <time>1970-01-01T12:03:08.145Z</time>
    </trkpt>
    <trkpt lat="56.314513" lon="60.861606">
        <ele>282.1</ele>
        <time>1970-01-01T12:03:09.145Z</time>
    </trkpt>
    <trkpt lat="56.314507" lon="60.861638">
        <ele>282.1</ele>
        <time>1970-01-01T12:03:10.145Z</time>
    </trkpt>
    <trkpt lat="56.314507" lon="60.861649">
        <ele>282.1</ele>
        <time>1970-01-01T12:03:11.145Z</time>
    </trkpt>
    <trkpt lat="56.314506" lon="60.861664">
        <ele>282.1</ele>
        <time>1970-01-01T12:03:12.145Z</time>
    </trkpt>
    <trkpt lat="56.314504" lon="60.861671">
        <ele>282.1</ele>
        <time>1970-01-01T12:03:13.145Z</time>
    </trkpt>
    <trkpt lat="56.314503" lon="60.861684">
        <ele>281.1</ele>
        <time>1970-01-01T12:03:14.145Z</time>
    </trkpt>
    <trkpt lat="56.314504" lon="60.861687">
        <ele>281.1</ele>
        <time>1970-01-01T12:03:15.145Z</time>
    </trkpt>
    <trkpt lat="56.3145" lon="60.86171">
        <ele>281.1</ele>
        <time>1970-01-01T12:03:16.145Z</time>
    </trkpt>
    <trkpt lat="56.314497" lon="60.861741">
        <ele>281.1</ele>
        <time>1970-01-01T12:03:17.145Z</time>
    </trkpt>
    <trkpt lat="56.314496" lon="60.86176">
        <ele>281.1</ele>
        <time>1970-01-01T12:03:18.145Z</time>
    </trkpt>
    <trkpt lat="56.314496" lon="60.861814">
        <ele>281.1</ele>
        <time>1970-01-01T12:03:19.145Z</time>
    </trkpt>
    <trkpt lat="56.314493" lon="60.861864">
        <ele>280.1</ele>
        <time>1970-01-01T12:03:20.145Z</time>
    </trkpt>
    <trkpt lat="56.314491" lon="60.86189">
        <ele>280.1</ele>
        <time>1970-01-01T12:03:21.145Z</time>
    </trkpt>
    <trkpt lat="56.314491" lon="60.861925">
        <ele>280.1</ele>
        <time>1970-01-01T12:03:22.145Z</time>
    </trkpt>
    <trkpt lat="56.31449" lon="60.861951">
        <ele>280.1</ele>
        <time>1970-01-01T12:03:23.145Z</time>
    </trkpt>
    <trkpt lat="56.31449" lon="60.861988">
        <ele>280.1</ele>
        <time>1970-01-01T12:03:24.145Z</time>
    </trkpt>
    <trkpt lat="56.31449" lon="60.862004">
        <ele>280.1</ele>
        <time>1970-01-01T12:03:25.145Z</time>
    </trkpt>
    <trkpt lat="56.314487" lon="60.862053">
        <ele>279.1</ele>
        <time>1970-01-01T12:03:26.145Z</time>
    </trkpt>
    <trkpt lat="56.314484" lon="60.862086">
        <ele>279.1</ele>
        <time>1970-01-01T12:03:27.145Z</time>
    </trkpt>
    <trkpt lat="56.314483" lon="60.862114">
        <ele>279.1</ele>
        <time>1970-01-01T12:03:28.145Z</time>
    </trkpt>
    <trkpt lat="56.314482" lon="60.862134">
        <ele>279.1</ele>
        <time>1970-01-01T12:03:29.145Z</time>
    </trkpt>
    <trkpt lat="56.314478" lon="60.862188">
        <ele>279.1</ele>
        <time>1970-01-01T12:03:30.145Z</time>
    </trkpt>
    <trkpt lat="56.314473" lon="60.862208">
        <ele>278.1</ele>
        <time>1970-01-01T12:03:31.145Z</time>
    </trkpt>
    <trkpt lat="56.31447" lon="60.862239">
        <ele>278.1</ele>
        <time>1970-01-01T12:03:32.145Z</time>
    </trkpt>
    <trkpt lat="56.314466" lon="60.862267">
        <ele>278.1</ele>
        <time>1970-01-01T12:03:33.145Z</time>
    </trkpt>
    <trkpt lat="56.314468" lon="60.862301">
        <ele>278.1</ele>
        <time>1970-01-01T12:03:34.145Z</time>
    </trkpt>
    <trkpt lat="56.314467" lon="60.862323">
        <ele>278.1</ele>
        <time>1970-01-01T12:03:35.145Z</time>
    </trkpt>
    <trkpt lat="56.314456" lon="60.86238">
        <ele>277.1</ele>
        <time>1970-01-01T12:03:36.145Z</time>
    </trkpt>
    <trkpt lat="56.314455" lon="60.862401">
        <ele>277.1</ele>
        <time>1970-01-01T12:03:37.145Z</time>
    </trkpt>
    <trkpt lat="56.31445" lon="60.862448">
        <ele>277.1</ele>
        <time>1970-01-01T12:03:38.145Z</time>
    </trkpt>
    <trkpt lat="56.314448" lon="60.862472">
        <ele>277.1</ele>
        <time>1970-01-01T12:03:39.145Z</time>
    </trkpt>
    <trkpt lat="56.314438" lon="60.862525">
        <ele>277.1</ele>
        <time>1970-01-01T12:03:40.145Z</time>
    </trkpt>
    <trkpt lat="56.314437" lon="60.862562">
        <ele>276.1</ele>
        <time>1970-01-01T12:03:41.145Z</time>
    </trkpt>
    <trkpt lat="56.314437" lon="60.862588">
        <ele>276.1</ele>
        <time>1970-01-01T12:03:42.145Z</time>
    </trkpt>
    <trkpt lat="56.314437" lon="60.86261">
        <ele>276.1</ele>
        <time>1970-01-01T12:03:43.145Z</time>
    </trkpt>
    <trkpt lat="56.314432" lon="60.862665">
        <ele>276.1</ele>
        <time>1970-01-01T12:03:44.145Z</time>
    </trkpt>
    <trkpt lat="56.314432" lon="60.862688">
        <ele>276.1</ele>
        <time>1970-01-01T12:03:45.145Z</time>
    </trkpt>
    <trkpt lat="56.314438" lon="60.862754">
        <ele>275.1</ele>
        <time>1970-01-01T12:03:46.145Z</time>
    </trkpt>
    <trkpt lat="56.31444" lon="60.862775">
        <ele>275.1</ele>
        <time>1970-01-01T12:03:47.145Z</time>
    </trkpt>
    <trkpt lat="56.314441" lon="60.862796">
        <ele>275.1</ele>
        <time>1970-01-01T12:03:48.145Z</time>
    </trkpt>
    <trkpt lat="56.31445" lon="60.862831">
        <ele>276.1</ele>
        <time>1970-01-01T12:03:49.145Z</time>
    </trkpt>
    <trkpt lat="56.314448" lon="60.862855">
        <ele>276.1</ele>
        <time>1970-01-01T12:03:50.145Z</time>
    </trkpt>
    <trkpt lat="56.314454" lon="60.862895">
        <ele>275.1</ele>
        <time>1970-01-01T12:03:51.145Z</time>
    </trkpt>
    <trkpt lat="56.314456" lon="60.862917">
        <ele>275.1</ele>
        <time>1970-01-01T12:03:52.145Z</time>
    </trkpt>
    <trkpt lat="56.314464" lon="60.862982">
        <ele>275.1</ele>
        <time>1970-01-01T12:03:53.145Z</time>
    </trkpt>
    <trkpt lat="56.314464" lon="60.863007">
        <ele>275.1</ele>
        <time>1970-01-01T12:03:54.145Z</time>
    </trkpt>
    <trkpt lat="56.314466" lon="60.863032">
        <ele>275.1</ele>
        <time>1970-01-01T12:03:55.145Z</time>
    </trkpt>
    <trkpt lat="56.31447" lon="60.86305">
        <ele>275.1</ele>
        <time>1970-01-01T12:03:56.145Z</time>
    </trkpt>
    <trkpt lat="56.314478" lon="60.863096">
        <ele>275.1</ele>
        <time>1970-01-01T12:03:57.145Z</time>
    </trkpt>
    <trkpt lat="56.314484" lon="60.863118">
        <ele>275.1</ele>
        <time>1970-01-01T12:03:58.145Z</time>
    </trkpt>
    <trkpt lat="56.314494" lon="60.863149">
        <ele>275.1</ele>
        <time>1970-01-01T12:03:59.145Z</time>
    </trkpt>
    <trkpt lat="56.314496" lon="60.863164">
        <ele>275.1</ele>
        <time>1970-01-01T12:04:00.145Z</time>
    </trkpt>
    <trkpt lat="56.31451" lon="60.863209">
        <ele>275.1</ele>
        <time>1970-01-01T12:04:01.145Z</time>
    </trkpt>
    <trkpt lat="56.314512" lon="60.863226">
        <ele>275.1</ele>
        <time>1970-01-01T12:04:02.145Z</time>
    </trkpt>
    <trkpt lat="56.314518" lon="60.863277">
        <ele>275.1</ele>
        <time>1970-01-01T12:04:03.145Z</time>
    </trkpt>
    <trkpt lat="56.314522" lon="60.863297">
        <ele>275.1</ele>
        <time>1970-01-01T12:04:04.145Z</time>
    </trkpt>
    <trkpt lat="56.314533" lon="60.863352">
        <ele>275.1</ele>
        <time>1970-01-01T12:04:05.145Z</time>
    </trkpt>
    <trkpt lat="56.314537" lon="60.863366">
        <ele>275.1</ele>
        <time>1970-01-01T12:04:06.145Z</time>
    </trkpt>
    <trkpt lat="56.314542" lon="60.863381">
        <ele>276.1</ele>
        <time>1970-01-01T12:04:07.145Z</time>
    </trkpt>
    <trkpt lat="56.314557" lon="60.863408">
        <ele>276.1</ele>
        <time>1970-01-01T12:04:08.145Z</time>
    </trkpt>
    <trkpt lat="56.314572" lon="60.863431">
        <ele>276.1</ele>
        <time>1970-01-01T12:04:09.145Z</time>
    </trkpt>
    <trkpt lat="56.314579" lon="60.863448">
        <ele>276.1</ele>
        <time>1970-01-01T12:04:10.145Z</time>
    </trkpt>
    <trkpt lat="56.314589" lon="60.863465">
        <ele>276.1</ele>
        <time>1970-01-01T12:04:11.145Z</time>
    </trkpt>
    <trkpt lat="56.314621" lon="60.863503">
        <ele>276.1</ele>
        <time>1970-01-01T12:04:12.145Z</time>
    </trkpt>
    <trkpt lat="56.31463" lon="60.863509">
        <ele>276.1</ele>
        <time>1970-01-01T12:04:13.145Z</time>
    </trkpt>
    <trkpt lat="56.314656" lon="60.86353">
        <ele>276.1</ele>
        <time>1970-01-01T12:04:14.145Z</time>
    </trkpt>
    <trkpt lat="56.314665" lon="60.863542">
        <ele>276.1</ele>
        <time>1970-01-01T12:04:15.145Z</time>
    </trkpt>
    <trkpt lat="56.314692" lon="60.863564">
        <ele>276.1</ele>
        <time>1970-01-01T12:04:16.145Z</time>
    </trkpt>
    <trkpt lat="56.314706" lon="60.863577">
        <ele>276.1</ele>
        <time>1970-01-01T12:04:17.145Z</time>
    </trkpt>
    <trkpt lat="56.314725" lon="60.863578">
        <ele>276.1</ele>
        <time>1970-01-01T12:04:18.145Z</time>
    </trkpt>
    <trkpt lat="56.314738" lon="60.86358">
        <ele>276.1</ele>
        <time>1970-01-01T12:04:19.145Z</time>
    </trkpt>
    <trkpt lat="56.314768" lon="60.863585">
        <ele>276.1</ele>
        <time>1970-01-01T12:04:20.145Z</time>
    </trkpt>
    <trkpt lat="56.314785" lon="60.863572">
        <ele>276.1</ele>
        <time>1970-01-01T12:04:21.145Z</time>
    </trkpt>
    <trkpt lat="56.314802" lon="60.863574">
        <ele>276.1</ele>
        <time>1970-01-01T12:04:22.145Z</time>
    </trkpt>
    <trkpt lat="56.314813" lon="60.863574">
        <ele>276.1</ele>
        <time>1970-01-01T12:04:23.145Z</time>
    </trkpt>
    <trkpt lat="56.314844" lon="60.863572">
        <ele>276.1</ele>
        <time>1970-01-01T12:04:24.145Z</time>
    </trkpt>
    <trkpt lat="56.314873" lon="60.86357">
        <ele>276.1</ele>
        <time>1970-01-01T12:04:25.145Z</time>
    </trkpt>
    <trkpt lat="56.314884" lon="60.86357">
        <ele>276.1</ele>
        <time>1970-01-01T12:04:26.145Z</time>
    </trkpt>
    <trkpt lat="56.314914" lon="60.863568">
        <ele>276.1</ele>
        <time>1970-01-01T12:04:27.145Z</time>
    </trkpt>
    <trkpt lat="56.314921" lon="60.863572">
        <ele>276.1</ele>
        <time>1970-01-01T12:04:28.145Z</time>
    </trkpt>
    <trkpt lat="56.314954" lon="60.863577">
        <ele>276.1</ele>
        <time>1970-01-01T12:04:29.145Z</time>
    </trkpt>
    <trkpt lat="56.314969" lon="60.86358">
        <ele>276.1</ele>
        <time>1970-01-01T12:04:30.145Z</time>
    </trkpt>
    <trkpt lat="56.315008" lon="60.863584">
        <ele>276.1</ele>
        <time>1970-01-01T12:04:31.145Z</time>
    </trkpt>
    <trkpt lat="56.315018" lon="60.863579">
        <ele>276.1</ele>
        <time>1970-01-01T12:04:32.145Z</time>
    </trkpt>
    <trkpt lat="56.315046" lon="60.863566">
        <ele>276.1</ele>
        <time>1970-01-01T12:04:33.145Z</time>
    </trkpt>
    <trkpt lat="56.315082" lon="60.863568">
        <ele>276.1</ele>
        <time>1970-01-01T12:04:34.145Z</time>
    </trkpt>
    <trkpt lat="56.315092" lon="60.863564">
        <ele>276.1</ele>
        <time>1970-01-01T12:04:35.145Z</time>
    </trkpt>
    <trkpt lat="56.315128" lon="60.863566">
        <ele>276.1</ele>
        <time>1970-01-01T12:04:36.145Z</time>
    </trkpt>
    <trkpt lat="56.315142" lon="60.863557">
        <ele>276.1</ele>
        <time>1970-01-01T12:04:37.145Z</time>
    </trkpt>
    <trkpt lat="56.315179" lon="60.863537">
        <ele>276.1</ele>
        <time>1970-01-01T12:04:38.145Z</time>
    </trkpt>
    <trkpt lat="56.315209" lon="60.863528">
        <ele>276.1</ele>
        <time>1970-01-01T12:04:39.145Z</time>
    </trkpt>
    <trkpt lat="56.315219" lon="60.863521">
        <ele>276.1</ele>
        <time>1970-01-01T12:04:40.145Z</time>
    </trkpt>
    <trkpt lat="56.315253" lon="60.863498">
        <ele>276.1</ele>
        <time>1970-01-01T12:04:41.145Z</time>
    </trkpt>
    <trkpt lat="56.315271" lon="60.863488">
        <ele>276.1</ele>
        <time>1970-01-01T12:04:42.145Z</time>
    </trkpt>
    <trkpt lat="56.315283" lon="60.863478">
        <ele>276.1</ele>
        <time>1970-01-01T12:04:43.145Z</time>
    </trkpt>
    <trkpt lat="56.31529" lon="60.863472">
        <ele>276.1</ele>
        <time>1970-01-01T12:04:44.145Z</time>
    </trkpt>
    <trkpt lat="56.31532" lon="60.863456">
        <ele>276.1</ele>
        <time>1970-01-01T12:04:45.145Z</time>
    </trkpt>
    <trkpt lat="56.315331" lon="60.863455">
        <ele>276.1</ele>
        <time>1970-01-01T12:04:46.145Z</time>
    </trkpt>
    <trkpt lat="56.315364" lon="60.863441">
        <ele>276.1</ele>
        <time>1970-01-01T12:04:47.145Z</time>
    </trkpt>
    <trkpt lat="56.315373" lon="60.863438">
        <ele>276.1</ele>
        <time>1970-01-01T12:04:48.145Z</time>
    </trkpt>
    <trkpt lat="56.3154" lon="60.86343">
        <ele>275.1</ele>
        <time>1970-01-01T12:04:49.145Z</time>
    </trkpt>
    <trkpt lat="56.315428" lon="60.863431">
        <ele>275.1</ele>
        <time>1970-01-01T12:04:50.145Z</time>
    </trkpt>
    <trkpt lat="56.315442" lon="60.863427">
        <ele>275.1</ele>
        <time>1970-01-01T12:04:51.145Z</time>
    </trkpt>
    <trkpt lat="56.31546" lon="60.863426">
        <ele>275.1</ele>
        <time>1970-01-01T12:04:52.145Z</time>
    </trkpt>
    <trkpt lat="56.315474" lon="60.863428">
        <ele>275.1</ele>
        <time>1970-01-01T12:04:53.145Z</time>
    </trkpt>
    <trkpt lat="56.31551" lon="60.863432">
        <ele>275.1</ele>
        <time>1970-01-01T12:04:54.145Z</time>
    </trkpt>
    <trkpt lat="56.315524" lon="60.863433">
        <ele>275.1</ele>
        <time>1970-01-01T12:04:55.145Z</time>
    </trkpt>
    <trkpt lat="56.315561" lon="60.863431">
        <ele>275.1</ele>
        <time>1970-01-01T12:04:56.145Z</time>
    </trkpt>
    <trkpt lat="56.315576" lon="60.863431">
        <ele>275.1</ele>
        <time>1970-01-01T12:04:57.145Z</time>
    </trkpt>
    <trkpt lat="56.315591" lon="60.863423">
        <ele>275.1</ele>
        <time>1970-01-01T12:04:58.145Z</time>
    </trkpt>
    <trkpt lat="56.315602" lon="60.86342">
        <ele>275.1</ele>
        <time>1970-01-01T12:04:59.145Z</time>
    </trkpt>
    <trkpt lat="56.315627" lon="60.863413">
        <ele>275.1</ele>
        <time>1970-01-01T12:05:00.145Z</time>
    </trkpt>
    <trkpt lat="56.31564" lon="60.863409">
        <ele>275.1</ele>
        <time>1970-01-01T12:05:01.145Z</time>
    </trkpt>
    <trkpt lat="56.315665" lon="60.863405">
        <ele>275.1</ele>
        <time>1970-01-01T12:05:02.145Z</time>
    </trkpt>
    <trkpt lat="56.315692" lon="60.8634">
        <ele>275.1</ele>
        <time>1970-01-01T12:05:03.145Z</time>
    </trkpt>
    <trkpt lat="56.315703" lon="60.863401">
        <ele>275.1</ele>
        <time>1970-01-01T12:05:04.145Z</time>
    </trkpt>
    <trkpt lat="56.315738" lon="60.863407">
        <ele>275.1</ele>
        <time>1970-01-01T12:05:05.145Z</time>
    </trkpt>
    <trkpt lat="56.31575" lon="60.863411">
        <ele>275.1</ele>
        <time>1970-01-01T12:05:06.145Z</time>
    </trkpt>
    <trkpt lat="56.315782" lon="60.863424">
        <ele>275.1</ele>
        <time>1970-01-01T12:05:07.145Z</time>
    </trkpt>
    <trkpt lat="56.315816" lon="60.863429">
        <ele>275.1</ele>
        <time>1970-01-01T12:05:08.145Z</time>
    </trkpt>
    <trkpt lat="56.31583" lon="60.863433">
        <ele>275.1</ele>
        <time>1970-01-01T12:05:09.145Z</time>
    </trkpt>
    <trkpt lat="56.315865" lon="60.863439">
        <ele>275.1</ele>
        <time>1970-01-01T12:05:10.145Z</time>
    </trkpt>
    <trkpt lat="56.315874" lon="60.86344">
        <ele>275.1</ele>
        <time>1970-01-01T12:05:11.145Z</time>
    </trkpt>
    <trkpt lat="56.315902" lon="60.863441">
        <ele>275.1</ele>
        <time>1970-01-01T12:05:12.145Z</time>
    </trkpt>
    <trkpt lat="56.315917" lon="60.863444">
        <ele>275.1</ele>
        <time>1970-01-01T12:05:13.145Z</time>
    </trkpt>
    <trkpt lat="56.315958" lon="60.863451">
        <ele>275.1</ele>
        <time>1970-01-01T12:05:14.145Z</time>
    </trkpt>
    <trkpt lat="56.315985" lon="60.863453">
        <ele>275.1</ele>
        <time>1970-01-01T12:05:15.145Z</time>
    </trkpt>
    <trkpt lat="56.315996" lon="60.863454">
        <ele>275.1</ele>
        <time>1970-01-01T12:05:16.145Z</time>
    </trkpt>
    <trkpt lat="56.316031" lon="60.863449">
        <ele>275.1</ele>
        <time>1970-01-01T12:05:17.145Z</time>
    </trkpt>
    <trkpt lat="56.31605" lon="60.863454">
        <ele>275.1</ele>
        <time>1970-01-01T12:05:18.145Z</time>
    </trkpt>
    <trkpt lat="56.316063" lon="60.863464">
        <ele>275.1</ele>
        <time>1970-01-01T12:05:19.145Z</time>
    </trkpt>
    <trkpt lat="56.316097" lon="60.863464">
        <ele>275.1</ele>
        <time>1970-01-01T12:05:20.145Z</time>
    </trkpt>
    <trkpt lat="56.316126" lon="60.863456">
        <ele>275.1</ele>
        <time>1970-01-01T12:05:21.145Z</time>
    </trkpt>
    <trkpt lat="56.31614" lon="60.863451">
        <ele>275.1</ele>
        <time>1970-01-01T12:05:22.145Z</time>
    </trkpt>
    <trkpt lat="56.316171" lon="60.863448">
        <ele>275.1</ele>
        <time>1970-01-01T12:05:23.145Z</time>
    </trkpt>
    <trkpt lat="56.316185" lon="60.863445">
        <ele>275.1</ele>
        <time>1970-01-01T12:05:24.145Z</time>
    </trkpt>
    <trkpt lat="56.316222" lon="60.863438">
        <ele>275.1</ele>
        <time>1970-01-01T12:05:25.145Z</time>
    </trkpt>
    <trkpt lat="56.31625" lon="60.863421">
        <ele>275.1</ele>
        <time>1970-01-01T12:05:26.145Z</time>
    </trkpt>
    <trkpt lat="56.316271" lon="60.863428">
        <ele>274.1</ele>
        <time>1970-01-01T12:05:27.145Z</time>
    </trkpt>
    <trkpt lat="56.316279" lon="60.863416">
        <ele>274.1</ele>
        <time>1970-01-01T12:05:28.145Z</time>
    </trkpt>
    <trkpt lat="56.316291" lon="60.863409">
        <ele>274.1</ele>
        <time>1970-01-01T12:05:29.145Z</time>
    </trkpt>
    <trkpt lat="56.316318" lon="60.863399">
        <ele>275.1</ele>
        <time>1970-01-01T12:05:30.145Z</time>
    </trkpt>
    <trkpt lat="56.316333" lon="60.863397">
        <ele>275.1</ele>
        <time>1970-01-01T12:05:31.145Z</time>
    </trkpt>
    <trkpt lat="56.316368" lon="60.863394">
        <ele>274.1</ele>
        <time>1970-01-01T12:05:32.145Z</time>
    </trkpt>
    <trkpt lat="56.316379" lon="60.863395">
        <ele>274.1</ele>
        <time>1970-01-01T12:05:33.145Z</time>
    </trkpt>
    <trkpt lat="56.316411" lon="60.863398">
        <ele>274.1</ele>
        <time>1970-01-01T12:05:34.145Z</time>
    </trkpt>
    <trkpt lat="56.316423" lon="60.8634">
        <ele>274.1</ele>
        <time>1970-01-01T12:05:35.145Z</time>
    </trkpt>
    <trkpt lat="56.316453" lon="60.863408">
        <ele>274.1</ele>
        <time>1970-01-01T12:05:36.145Z</time>
    </trkpt>
    <trkpt lat="56.316474" lon="60.863411">
        <ele>274.1</ele>
        <time>1970-01-01T12:05:37.145Z</time>
    </trkpt>
    <trkpt lat="56.316511" lon="60.863409">
        <ele>274.1</ele>
        <time>1970-01-01T12:05:38.145Z</time>
    </trkpt>
    <trkpt lat="56.316523" lon="60.863415">
        <ele>274.1</ele>
        <time>1970-01-01T12:05:39.145Z</time>
    </trkpt>
    <trkpt lat="56.316553" lon="60.863429">
        <ele>274.1</ele>
        <time>1970-01-01T12:05:40.145Z</time>
    </trkpt>
    <trkpt lat="56.316571" lon="60.863433">
        <ele>274.1</ele>
        <time>1970-01-01T12:05:41.145Z</time>
    </trkpt>
    <trkpt lat="56.3166" lon="60.863432">
        <ele>274.1</ele>
        <time>1970-01-01T12:05:42.145Z</time>
    </trkpt>
    <trkpt lat="56.31663" lon="60.86343">
        <ele>274.1</ele>
        <time>1970-01-01T12:05:43.145Z</time>
    </trkpt>
    <trkpt lat="56.316639" lon="60.86343">
        <ele>273.1</ele>
        <time>1970-01-01T12:05:44.145Z</time>
    </trkpt>
    <trkpt lat="56.316669" lon="60.863429">
        <ele>273.1</ele>
        <time>1970-01-01T12:05:45.145Z</time>
    </trkpt>
    <trkpt lat="56.316698" lon="60.86344">
        <ele>273.1</ele>
        <time>1970-01-01T12:05:46.145Z</time>
    </trkpt>
    <trkpt lat="56.316712" lon="60.863442">
        <ele>273.1</ele>
        <time>1970-01-01T12:05:47.145Z</time>
    </trkpt>
    <trkpt lat="56.31675" lon="60.863448">
        <ele>273.1</ele>
        <time>1970-01-01T12:05:48.145Z</time>
    </trkpt>
    <trkpt lat="56.316765" lon="60.863451">
        <ele>273.1</ele>
        <time>1970-01-01T12:05:49.145Z</time>
    </trkpt>
    <trkpt lat="56.316802" lon="60.86346">
        <ele>273.1</ele>
        <time>1970-01-01T12:05:50.145Z</time>
    </trkpt>
    <trkpt lat="56.316815" lon="60.863462">
        <ele>273.1</ele>
        <time>1970-01-01T12:05:51.145Z</time>
    </trkpt>
    <trkpt lat="56.316847" lon="60.863456">
        <ele>273.1</ele>
        <time>1970-01-01T12:05:52.145Z</time>
    </trkpt>
    <trkpt lat="56.316859" lon="60.863461">
        <ele>273.1</ele>
        <time>1970-01-01T12:05:53.145Z</time>
    </trkpt>
    <trkpt lat="56.316898" lon="60.863471">
        <ele>273.1</ele>
        <time>1970-01-01T12:05:54.145Z</time>
    </trkpt>
    <trkpt lat="56.316925" lon="60.863473">
        <ele>273.1</ele>
        <time>1970-01-01T12:05:55.145Z</time>
    </trkpt>
    <trkpt lat="56.316936" lon="60.863481">
        <ele>273.1</ele>
        <time>1970-01-01T12:05:56.145Z</time>
    </trkpt>
    <trkpt lat="56.316971" lon="60.863492">
        <ele>273.1</ele>
        <time>1970-01-01T12:05:57.145Z</time>
    </trkpt>
    <trkpt lat="56.316984" lon="60.863497">
        <ele>273.1</ele>
        <time>1970-01-01T12:05:58.145Z</time>
    </trkpt>
    <trkpt lat="56.317022" lon="60.863513">
        <ele>273.1</ele>
        <time>1970-01-01T12:05:59.145Z</time>
    </trkpt>
    <trkpt lat="56.317051" lon="60.86351">
        <ele>273.1</ele>
        <time>1970-01-01T12:06:00.145Z</time>
    </trkpt>
    <trkpt lat="56.317078" lon="60.863511">
        <ele>273.1</ele>
        <time>1970-01-01T12:06:01.145Z</time>
    </trkpt>
    <trkpt lat="56.317088" lon="60.86351">
        <ele>273.1</ele>
        <time>1970-01-01T12:06:02.145Z</time>
    </trkpt>
    <trkpt lat="56.317121" lon="60.863501">
        <ele>273.1</ele>
        <time>1970-01-01T12:06:03.145Z</time>
    </trkpt>
    <trkpt lat="56.31713" lon="60.863496">
        <ele>273.1</ele>
        <time>1970-01-01T12:06:04.145Z</time>
    </trkpt>
    <trkpt lat="56.317159" lon="60.863488">
        <ele>273.1</ele>
        <time>1970-01-01T12:06:05.145Z</time>
    </trkpt>
    <trkpt lat="56.317171" lon="60.863486">
        <ele>273.1</ele>
        <time>1970-01-01T12:06:06.145Z</time>
    </trkpt>
    <trkpt lat="56.317209" lon="60.863479">
        <ele>272.1</ele>
        <time>1970-01-01T12:06:07.145Z</time>
    </trkpt>
    <trkpt lat="56.317221" lon="60.863488">
        <ele>272.1</ele>
        <time>1970-01-01T12:06:08.145Z</time>
    </trkpt>
    <trkpt lat="56.31725" lon="60.863515">
        <ele>272.1</ele>
        <time>1970-01-01T12:06:09.145Z</time>
    </trkpt>
    <trkpt lat="56.31726" lon="60.86352">
        <ele>272.1</ele>
        <time>1970-01-01T12:06:10.145Z</time>
    </trkpt>
    <trkpt lat="56.317294" lon="60.86354">
        <ele>272.1</ele>
        <time>1970-01-01T12:06:11.145Z</time>
    </trkpt>
    <trkpt lat="56.317306" lon="60.863546">
        <ele>272.1</ele>
        <time>1970-01-01T12:06:12.145Z</time>
    </trkpt>
    <trkpt lat="56.317333" lon="60.863566">
        <ele>272.1</ele>
        <time>1970-01-01T12:06:13.145Z</time>
    </trkpt>
    <trkpt lat="56.31736" lon="60.86358">
        <ele>272.1</ele>
        <time>1970-01-01T12:06:14.145Z</time>
    </trkpt>
    <trkpt lat="56.317372" lon="60.863582">
        <ele>272.1</ele>
        <time>1970-01-01T12:06:15.145Z</time>
    </trkpt>
    <trkpt lat="56.317402" lon="60.863597">
        <ele>272.1</ele>
        <time>1970-01-01T12:06:16.145Z</time>
    </trkpt>
    <trkpt lat="56.317437" lon="60.863591">
        <ele>272.1</ele>
        <time>1970-01-01T12:06:17.145Z</time>
    </trkpt>
    <trkpt lat="56.317452" lon="60.863596">
        <ele>272.1</ele>
        <time>1970-01-01T12:06:18.145Z</time>
    </trkpt>
    <trkpt lat="56.317492" lon="60.863615">
        <ele>272.1</ele>
        <time>1970-01-01T12:06:19.145Z</time>
    </trkpt>
    <trkpt lat="56.317524" lon="60.863624">
        <ele>272.1</ele>
        <time>1970-01-01T12:06:20.145Z</time>
    </trkpt>
    <trkpt lat="56.317532" lon="60.863629">
        <ele>272.1</ele>
        <time>1970-01-01T12:06:21.145Z</time>
    </trkpt>
    <trkpt lat="56.317559" lon="60.863645">
        <ele>272.1</ele>
        <time>1970-01-01T12:06:22.145Z</time>
    </trkpt>
    <trkpt lat="56.317585" lon="60.86366">
        <ele>271.1</ele>
        <time>1970-01-01T12:06:23.145Z</time>
    </trkpt>
    <trkpt lat="56.317597" lon="60.863662">
        <ele>271.1</ele>
        <time>1970-01-01T12:06:24.145Z</time>
    </trkpt>
    <trkpt lat="56.317627" lon="60.863669">
        <ele>271.1</ele>
        <time>1970-01-01T12:06:25.145Z</time>
    </trkpt>
    <trkpt lat="56.317637" lon="60.863675">
        <ele>271.1</ele>
        <time>1970-01-01T12:06:26.145Z</time>
    </trkpt>
    <trkpt lat="56.31767" lon="60.863692">
        <ele>271.1</ele>
        <time>1970-01-01T12:06:27.145Z</time>
    </trkpt>
    <trkpt lat="56.317698" lon="60.863714">
        <ele>271.1</ele>
        <time>1970-01-01T12:06:28.145Z</time>
    </trkpt>
    <trkpt lat="56.317711" lon="60.863714">
        <ele>271.1</ele>
        <time>1970-01-01T12:06:29.145Z</time>
    </trkpt>
    <trkpt lat="56.317743" lon="60.863725">
        <ele>271.1</ele>
        <time>1970-01-01T12:06:30.145Z</time>
    </trkpt>
    <trkpt lat="56.317757" lon="60.863734">
        <ele>271.1</ele>
        <time>1970-01-01T12:06:31.145Z</time>
    </trkpt>
    <trkpt lat="56.317795" lon="60.863748">
        <ele>270.1</ele>
        <time>1970-01-01T12:06:32.145Z</time>
    </trkpt>
    <trkpt lat="56.317804" lon="60.863754">
        <ele>270.1</ele>
        <time>1970-01-01T12:06:33.145Z</time>
    </trkpt>
    <trkpt lat="56.317833" lon="60.863773">
        <ele>270.1</ele>
        <time>1970-01-01T12:06:34.145Z</time>
    </trkpt>
    <trkpt lat="56.31786" lon="60.863784">
        <ele>270.1</ele>
        <time>1970-01-01T12:06:35.145Z</time>
    </trkpt>
    <trkpt lat="56.317874" lon="60.863788">
        <ele>270.1</ele>
        <time>1970-01-01T12:06:36.145Z</time>
    </trkpt>
    <trkpt lat="56.317894" lon="60.863797">
        <ele>270.1</ele>
        <time>1970-01-01T12:06:37.145Z</time>
    </trkpt>
    <trkpt lat="56.317903" lon="60.863801">
        <ele>270.1</ele>
        <time>1970-01-01T12:06:38.145Z</time>
    </trkpt>
    <trkpt lat="56.317935" lon="60.863823">
        <ele>270.1</ele>
        <time>1970-01-01T12:06:39.145Z</time>
    </trkpt>
    <trkpt lat="56.317962" lon="60.863841">
        <ele>270.1</ele>
        <time>1970-01-01T12:06:40.145Z</time>
    </trkpt>
    <trkpt lat="56.31797" lon="60.863856">
        <ele>270.1</ele>
        <time>1970-01-01T12:06:41.145Z</time>
    </trkpt>
    <trkpt lat="56.318004" lon="60.863883">
        <ele>270.1</ele>
        <time>1970-01-01T12:06:42.145Z</time>
    </trkpt>
    <trkpt lat="56.318033" lon="60.863889">
        <ele>270.1</ele>
        <time>1970-01-01T12:06:43.145Z</time>
    </trkpt>
    <trkpt lat="56.318044" lon="60.863893">
        <ele>270.1</ele>
        <time>1970-01-01T12:06:44.145Z</time>
    </trkpt>
    <trkpt lat="56.31808" lon="60.863895">
        <ele>270.1</ele>
        <time>1970-01-01T12:06:45.145Z</time>
    </trkpt>
    <trkpt lat="56.318111" lon="60.8639">
        <ele>270.1</ele>
        <time>1970-01-01T12:06:46.145Z</time>
    </trkpt>
    <trkpt lat="56.318123" lon="60.863901">
        <ele>270.1</ele>
        <time>1970-01-01T12:06:47.145Z</time>
    </trkpt>
    <trkpt lat="56.318157" lon="60.863904">
        <ele>269.1</ele>
        <time>1970-01-01T12:06:48.145Z</time>
    </trkpt>
    <trkpt lat="56.318165" lon="60.863911">
        <ele>269.1</ele>
        <time>1970-01-01T12:06:49.145Z</time>
    </trkpt>
    <trkpt lat="56.318198" lon="60.863918">
        <ele>269.1</ele>
        <time>1970-01-01T12:06:50.145Z</time>
    </trkpt>
    <trkpt lat="56.318207" lon="60.863923">
        <ele>269.1</ele>
        <time>1970-01-01T12:06:51.145Z</time>
    </trkpt>
    <trkpt lat="56.318237" lon="60.863937">
        <ele>269.1</ele>
        <time>1970-01-01T12:06:52.145Z</time>
    </trkpt>
    <trkpt lat="56.318248" lon="60.863935">
        <ele>269.1</ele>
        <time>1970-01-01T12:06:53.145Z</time>
    </trkpt>
    <trkpt lat="56.318277" lon="60.863949">
        <ele>268.1</ele>
        <time>1970-01-01T12:06:54.145Z</time>
    </trkpt>
    <trkpt lat="56.318292" lon="60.863954">
        <ele>268.1</ele>
        <time>1970-01-01T12:06:55.145Z</time>
    </trkpt>
    <trkpt lat="56.318325" lon="60.863965">
        <ele>268.1</ele>
        <time>1970-01-01T12:06:56.145Z</time>
    </trkpt>
    <trkpt lat="56.318352" lon="60.863978">
        <ele>268.1</ele>
        <time>1970-01-01T12:06:57.145Z</time>
    </trkpt>
    <trkpt lat="56.318364" lon="60.863982">
        <ele>268.1</ele>
        <time>1970-01-01T12:06:58.145Z</time>
    </trkpt>
    <trkpt lat="56.318393" lon="60.86399">
        <ele>268.1</ele>
        <time>1970-01-01T12:06:59.145Z</time>
    </trkpt>
    <trkpt lat="56.318407" lon="60.863995">
        <ele>268.1</ele>
        <time>1970-01-01T12:07:00.145Z</time>
    </trkpt>
    <trkpt lat="56.31844" lon="60.864003">
        <ele>268.1</ele>
        <time>1970-01-01T12:07:01.145Z</time>
    </trkpt>
    <trkpt lat="56.31845" lon="60.864">
        <ele>268.1</ele>
        <time>1970-01-01T12:07:02.145Z</time>
    </trkpt>
    <trkpt lat="56.318484" lon="60.863998">
        <ele>268.1</ele>
        <time>1970-01-01T12:07:03.145Z</time>
    </trkpt>
    <trkpt lat="56.318494" lon="60.864001">
        <ele>268.1</ele>
        <time>1970-01-01T12:07:04.145Z</time>
    </trkpt>
    <trkpt lat="56.318504" lon="60.864005">
        <ele>268.1</ele>
        <time>1970-01-01T12:07:05.145Z</time>
    </trkpt>
    <trkpt lat="56.318528" lon="60.863997">
        <ele>268.1</ele>
        <time>1970-01-01T12:07:06.145Z</time>
    </trkpt>
    <trkpt lat="56.318543" lon="60.863995">
        <ele>268.1</ele>
        <time>1970-01-01T12:07:07.145Z</time>
    </trkpt>
    <trkpt lat="56.318558" lon="60.863993">
        <ele>268.1</ele>
        <time>1970-01-01T12:07:08.145Z</time>
    </trkpt>
    <trkpt lat="56.318575" lon="60.863994">
        <ele>268.1</ele>
        <time>1970-01-01T12:07:09.145Z</time>
    </trkpt>
    <trkpt lat="56.318581" lon="60.863993">
        <ele>268.1</ele>
        <time>1970-01-01T12:07:10.145Z</time>
    </trkpt>
    <trkpt lat="56.318588" lon="60.863991">
        <ele>268.1</ele>
        <time>1970-01-01T12:07:11.145Z</time>
    </trkpt>
    <trkpt lat="56.318613" lon="60.863996">
        <ele>268.1</ele>
        <time>1970-01-01T12:07:12.145Z</time>
    </trkpt>
    <trkpt lat="56.318623" lon="60.864003">
        <ele>268.1</ele>
        <time>1970-01-01T12:07:13.145Z</time>
    </trkpt>
    <trkpt lat="56.318641" lon="60.864007">
        <ele>267.1</ele>
        <time>1970-01-01T12:07:14.145Z</time>
    </trkpt>
    <trkpt lat="56.318653" lon="60.86402">
        <ele>267.1</ele>
        <time>1970-01-01T12:07:15.145Z</time>
    </trkpt>
    <trkpt lat="56.318665" lon="60.864033">
        <ele>267.1</ele>
        <time>1970-01-01T12:07:16.145Z</time>
    </trkpt>
    <trkpt lat="56.318684" lon="60.864054">
        <ele>267.1</ele>
        <time>1970-01-01T12:07:17.145Z</time>
    </trkpt>
    <trkpt lat="56.318698" lon="60.864086">
        <ele>267.1</ele>
        <time>1970-01-01T12:07:18.145Z</time>
    </trkpt>
    <trkpt lat="56.318751" lon="60.864314">
        <ele>265.1</ele>
        <time>1970-01-01T12:08:11.145Z</time>
    </trkpt>
    <trkpt lat="56.318751" lon="60.864314">
        <ele>265.1</ele>
        <time>1970-01-01T12:08:12.145Z</time>
    </trkpt>
    <trkpt lat="56.318751" lon="60.864314">
        <ele>265.1</ele>
        <time>1970-01-01T12:08:13.145Z</time>
    </trkpt>
    <trkpt lat="56.318751" lon="60.864314">
        <ele>265.1</ele>
        <time>1970-01-01T12:08:14.145Z</time>
    </trkpt>
    <trkpt lat="56.318753" lon="60.864324">
        <ele>265.1</ele>
        <time>1970-01-01T12:08:15.145Z</time>
    </trkpt>
    <trkpt lat="56.318753" lon="60.864337">
        <ele>265.1</ele>
        <time>1970-01-01T12:08:16.145Z</time>
    </trkpt>
    <trkpt lat="56.318753" lon="60.864337">
        <ele>265.1</ele>
        <time>1970-01-01T12:08:17.145Z</time>
    </trkpt>
    <trkpt lat="56.318748" lon="60.86435">
        <ele>265.1</ele>
        <time>1970-01-01T12:08:18.145Z</time>
    </trkpt>
    <trkpt lat="56.318744" lon="60.864364">
        <ele>265.1</ele>
        <time>1970-01-01T12:08:19.145Z</time>
    </trkpt>
    <trkpt lat="56.31874" lon="60.864374">
        <ele>265.1</ele>
        <time>1970-01-01T12:08:20.145Z</time>
    </trkpt>
    <trkpt lat="56.318737" lon="60.864386">
        <ele>265.1</ele>
        <time>1970-01-01T12:08:21.145Z</time>
    </trkpt>
    <trkpt lat="56.318737" lon="60.864403">
        <ele>265.1</ele>
        <time>1970-01-01T12:08:22.145Z</time>
    </trkpt>
    <trkpt lat="56.318738" lon="60.86442">
        <ele>265.1</ele>
        <time>1970-01-01T12:08:23.145Z</time>
    </trkpt>
    <trkpt lat="56.31874" lon="60.864455">
        <ele>265.1</ele>
        <time>1970-01-01T12:08:24.145Z</time>
    </trkpt>
    <trkpt lat="56.31874" lon="60.864473">
        <ele>265.1</ele>
        <time>1970-01-01T12:08:25.145Z</time>
    </trkpt>
    <trkpt lat="56.31874" lon="60.864492">
        <ele>265.1</ele>
        <time>1970-01-01T12:08:26.145Z</time>
    </trkpt>
    <trkpt lat="56.318738" lon="60.864527">
        <ele>265.1</ele>
        <time>1970-01-01T12:08:27.145Z</time>
    </trkpt>
    <trkpt lat="56.318736" lon="60.864551">
        <ele>265.1</ele>
        <time>1970-01-01T12:08:28.145Z</time>
    </trkpt>
    <trkpt lat="56.318734" lon="60.864584">
        <ele>265.1</ele>
        <time>1970-01-01T12:08:29.145Z</time>
    </trkpt>
    <trkpt lat="56.318735" lon="60.864603">
        <ele>264.1</ele>
        <time>1970-01-01T12:08:30.145Z</time>
    </trkpt>
    <trkpt lat="56.318735" lon="60.864659">
        <ele>264.1</ele>
        <time>1970-01-01T12:08:31.145Z</time>
    </trkpt>
    <trkpt lat="56.318734" lon="60.86468">
        <ele>264.1</ele>
        <time>1970-01-01T12:08:32.145Z</time>
    </trkpt>
    <trkpt lat="56.318727" lon="60.864734">
        <ele>264.1</ele>
        <time>1970-01-01T12:08:33.145Z</time>
    </trkpt>
    <trkpt lat="56.318725" lon="60.864751">
        <ele>265.1</ele>
        <time>1970-01-01T12:08:34.145Z</time>
    </trkpt>
    <trkpt lat="56.318713" lon="60.864799">
        <ele>264.1</ele>
        <time>1970-01-01T12:08:35.145Z</time>
    </trkpt>
    <trkpt lat="56.318709" lon="60.864821">
        <ele>264.1</ele>
        <time>1970-01-01T12:08:36.145Z</time>
    </trkpt>
    <trkpt lat="56.318705" lon="60.864881">
        <ele>264.1</ele>
        <time>1970-01-01T12:08:37.145Z</time>
    </trkpt>
    <trkpt lat="56.318699" lon="60.864898">
        <ele>264.1</ele>
        <time>1970-01-01T12:08:38.145Z</time>
    </trkpt>
    <trkpt lat="56.318689" lon="60.86496">
        <ele>264.1</ele>
        <time>1970-01-01T12:08:39.145Z</time>
    </trkpt>
    <trkpt lat="56.318688" lon="60.864977">
        <ele>264.1</ele>
        <time>1970-01-01T12:08:40.145Z</time>
    </trkpt>
    <trkpt lat="56.318687" lon="60.865035">
        <ele>264.1</ele>
        <time>1970-01-01T12:08:41.145Z</time>
    </trkpt>
    <trkpt lat="56.31868" lon="60.865053">
        <ele>264.1</ele>
        <time>1970-01-01T12:08:42.145Z</time>
    </trkpt>
    <trkpt lat="56.318674" lon="60.865112">
        <ele>264.1</ele>
        <time>1970-01-01T12:08:43.145Z</time>
    </trkpt>
    <trkpt lat="56.318671" lon="60.865132">
        <ele>262.1</ele>
        <time>1970-01-01T12:08:44.145Z</time>
    </trkpt>
    <trkpt lat="56.318665" lon="60.865192">
        <ele>262.1</ele>
        <time>1970-01-01T12:08:45.145Z</time>
    </trkpt>
    <trkpt lat="56.318666" lon="60.865207">
        <ele>262.1</ele>
        <time>1970-01-01T12:08:46.145Z</time>
    </trkpt>
    <trkpt lat="56.318663" lon="60.865259">
        <ele>262.1</ele>
        <time>1970-01-01T12:08:47.145Z</time>
    </trkpt>
    <trkpt lat="56.318666" lon="60.865279">
        <ele>262.1</ele>
        <time>1970-01-01T12:08:48.145Z</time>
    </trkpt>
    <trkpt lat="56.318665" lon="60.865327">
        <ele>261.1</ele>
        <time>1970-01-01T12:08:49.145Z</time>
    </trkpt>
    <trkpt lat="56.318664" lon="60.865343">
        <ele>261.1</ele>
        <time>1970-01-01T12:08:50.145Z</time>
    </trkpt>
    <trkpt lat="56.318662" lon="60.865393">
        <ele>261.1</ele>
        <time>1970-01-01T12:08:51.145Z</time>
    </trkpt>
    <trkpt lat="56.318663" lon="60.86541">
        <ele>261.1</ele>
        <time>1970-01-01T12:08:52.145Z</time>
    </trkpt>
    <trkpt lat="56.318669" lon="60.865475">
        <ele>259.1</ele>
        <time>1970-01-01T12:08:53.145Z</time>
    </trkpt>
    <trkpt lat="56.318666" lon="60.865492">
        <ele>259.1</ele>
        <time>1970-01-01T12:08:54.145Z</time>
    </trkpt>
    <trkpt lat="56.318663" lon="60.865541">
        <ele>259.1</ele>
        <time>1970-01-01T12:08:55.145Z</time>
    </trkpt>
    <trkpt lat="56.318662" lon="60.86558">
        <ele>259.1</ele>
        <time>1970-01-01T12:08:56.145Z</time>
    </trkpt>
    <trkpt lat="56.31866" lon="60.865601">
        <ele>259.1</ele>
        <time>1970-01-01T12:08:57.145Z</time>
    </trkpt>
    <trkpt lat="56.31866" lon="60.865636">
        <ele>257.1</ele>
        <time>1970-01-01T12:08:58.145Z</time>
    </trkpt>
    <trkpt lat="56.318651" lon="60.865651">
        <ele>257.1</ele>
        <time>1970-01-01T12:08:59.145Z</time>
    </trkpt>
    <trkpt lat="56.318658" lon="60.865663">
        <ele>257.1</ele>
        <time>1970-01-01T12:09:00.145Z</time>
    </trkpt>
    <trkpt lat="56.318664" lon="60.865675">
        <ele>257.1</ele>
        <time>1970-01-01T12:09:01.145Z</time>
    </trkpt>
    <trkpt lat="56.318672" lon="60.865711">
        <ele>257.1</ele>
        <time>1970-01-01T12:09:02.145Z</time>
    </trkpt>
    <trkpt lat="56.318679" lon="60.865725">
        <ele>257.1</ele>
        <time>1970-01-01T12:09:03.145Z</time>
    </trkpt>
    <trkpt lat="56.318696" lon="60.865755">
        <ele>257.1</ele>
        <time>1970-01-01T12:09:04.145Z</time>
    </trkpt>
    <trkpt lat="56.318704" lon="60.865773">
        <ele>257.1</ele>
        <time>1970-01-01T12:09:05.145Z</time>
    </trkpt>
    <trkpt lat="56.31872" lon="60.865805">
        <ele>256.1</ele>
        <time>1970-01-01T12:09:06.145Z</time>
    </trkpt>
    <trkpt lat="56.318735" lon="60.865818">
        <ele>255.1</ele>
        <time>1970-01-01T12:09:07.145Z</time>
    </trkpt>
    <trkpt lat="56.318742" lon="60.865822">
        <ele>255.1</ele>
        <time>1970-01-01T12:09:08.145Z</time>
    </trkpt>
    <trkpt lat="56.318746" lon="60.865828">
        <ele>255.1</ele>
        <time>1970-01-01T12:09:09.145Z</time>
    </trkpt>
    <trkpt lat="56.318755" lon="60.865831">
        <ele>255.1</ele>
        <time>1970-01-01T12:09:10.145Z</time>
    </trkpt>
    <trkpt lat="56.318781" lon="60.865844">
        <ele>255.1</ele>
        <time>1970-01-01T12:09:11.145Z</time>
    </trkpt>
    <trkpt lat="56.318794" lon="60.865843">
        <ele>255.1</ele>
        <time>1970-01-01T12:09:12.145Z</time>
    </trkpt>
    <trkpt lat="56.318794" lon="60.865983">
        <ele>254.1</ele>
        <time>1970-01-01T12:09:25.145Z</time>
    </trkpt>
    <trkpt lat="56.318794" lon="60.865983">
        <ele>254.1</ele>
        <time>1970-01-01T12:09:26.145Z</time>
    </trkpt>
    <trkpt lat="56.318795" lon="60.865982">
        <ele>254.1</ele>
        <time>1970-01-01T12:09:27.145Z</time>
    </trkpt>
    <trkpt lat="56.318796" lon="60.865972">
        <ele>255.1</ele>
        <time>1970-01-01T12:09:28.145Z</time>
    </trkpt>
    <trkpt lat="56.318798" lon="60.865972">
        <ele>255.1</ele>
        <time>1970-01-01T12:09:29.145Z</time>
    </trkpt>
    <trkpt lat="56.318798" lon="60.865976">
        <ele>254.1</ele>
        <time>1970-01-01T12:09:30.145Z</time>
    </trkpt>
    <trkpt lat="56.318797" lon="60.865972">
        <ele>255.1</ele>
        <time>1970-01-01T12:09:31.145Z</time>
    </trkpt>
    <trkpt lat="56.318802" lon="60.865971">
        <ele>255.1</ele>
        <time>1970-01-01T12:09:32.145Z</time>
    </trkpt>
    <trkpt lat="56.318803" lon="60.865984">
        <ele>254.1</ele>
        <time>1970-01-01T12:09:33.145Z</time>
    </trkpt>
    <trkpt lat="56.318794" lon="60.865977">
        <ele>254.1</ele>
        <time>1970-01-01T12:09:34.145Z</time>
    </trkpt>
    <trkpt lat="56.318832" lon="60.866037">
        <ele>254.1</ele>
        <time>1970-01-01T12:10:14.145Z</time>
    </trkpt>
    <trkpt lat="56.318838" lon="60.866055">
        <ele>254.1</ele>
        <time>1970-01-01T12:10:15.145Z</time>
    </trkpt>
    <trkpt lat="56.318838" lon="60.866055">
        <ele>254.1</ele>
        <time>1970-01-01T12:10:16.145Z</time>
    </trkpt>
    <trkpt lat="56.318838" lon="60.866055">
        <ele>254.1</ele>
        <time>1970-01-01T12:10:17.145Z</time>
    </trkpt>
    <trkpt lat="56.318841" lon="60.866063">
        <ele>254.1</ele>
        <time>1970-01-01T12:10:18.145Z</time>
    </trkpt>
    <trkpt lat="56.318841" lon="60.866067">
        <ele>254.1</ele>
        <time>1970-01-01T12:10:19.145Z</time>
    </trkpt>
    <trkpt lat="56.318847" lon="60.866077">
        <ele>254.1</ele>
        <time>1970-01-01T12:10:20.145Z</time>
    </trkpt>
    <trkpt lat="56.318847" lon="60.866078">
        <ele>254.1</ele>
        <time>1970-01-01T12:10:21.145Z</time>
    </trkpt>
    <trkpt lat="56.318844" lon="60.866085">
        <ele>254.1</ele>
        <time>1970-01-01T12:10:22.145Z</time>
    </trkpt>
    <trkpt lat="56.318832" lon="60.866084">
        <ele>254.1</ele>
        <time>1970-01-01T12:10:23.145Z</time>
    </trkpt>
    <trkpt lat="56.318828" lon="60.866082">
        <ele>254.1</ele>
        <time>1970-01-01T12:10:24.145Z</time>
    </trkpt>
    <trkpt lat="56.318827" lon="60.866096">
        <ele>254.1</ele>
        <time>1970-01-01T12:10:25.145Z</time>
    </trkpt>
    <trkpt lat="56.318825" lon="60.866148">
        <ele>254.1</ele>
        <time>1970-01-01T12:10:26.145Z</time>
    </trkpt>
    <trkpt lat="56.318806" lon="60.866213">
        <ele>254.2</ele>
        <time>1970-01-01T12:10:27.145Z</time>
    </trkpt>
    <trkpt lat="56.318785" lon="60.86627">
        <ele>254.2</ele>
        <time>1970-01-01T12:10:28.145Z</time>
    </trkpt>
    <trkpt lat="56.318761" lon="60.866338">
        <ele>254.3</ele>
        <time>1970-01-01T12:10:29.145Z</time>
    </trkpt>
    <trkpt lat="56.318727" lon="60.866449">
        <ele>254.4</ele>
        <time>1970-01-01T12:10:30.145Z</time>
    </trkpt>
    <trkpt lat="56.318685" lon="60.866521">
        <ele>254.4</ele>
        <time>1970-01-01T12:10:31.145Z</time>
    </trkpt>
    <trkpt lat="56.318667" lon="60.866585">
        <ele>254.5</ele>
        <time>1970-01-01T12:10:32.145Z</time>
    </trkpt>
    <trkpt lat="56.318662" lon="60.866676">
        <ele>254.5</ele>
        <time>1970-01-01T12:10:33.145Z</time>
    </trkpt>
    <trkpt lat="56.318634" lon="60.866783">
        <ele>254.6</ele>
        <time>1970-01-01T12:10:34.145Z</time>
    </trkpt>
    <trkpt lat="56.318621" lon="60.866891">
        <ele>254.7</ele>
        <time>1970-01-01T12:10:35.145Z</time>
    </trkpt>
    <trkpt lat="56.318611" lon="60.866975">
        <ele>254.7</ele>
        <time>1970-01-01T12:10:36.145Z</time>
    </trkpt>
    <trkpt lat="56.318596" lon="60.867068">
        <ele>254.8</ele>
        <time>1970-01-01T12:10:37.145Z</time>
    </trkpt>
    <trkpt lat="56.318581" lon="60.867163">
        <ele>254.9</ele>
        <time>1970-01-01T12:10:38.145Z</time>
    </trkpt>
    <trkpt lat="56.318571" lon="60.867274">
        <ele>254.9</ele>
        <time>1970-01-01T12:10:39.145Z</time>
    </trkpt>
    <trkpt lat="56.318568" lon="60.867351">
        <ele>255.0</ele>
        <time>1970-01-01T12:10:40.145Z</time>
    </trkpt>
    <trkpt lat="56.318569" lon="60.867427">
        <ele>255.0</ele>
        <time>1970-01-01T12:10:41.145Z</time>
    </trkpt>
    <trkpt lat="56.318551" lon="60.867533">
        <ele>255.1</ele>
        <time>1970-01-01T12:10:42.145Z</time>
    </trkpt>
    <trkpt lat="56.318544" lon="60.867602">
        <ele>255.2</ele>
        <time>1970-01-01T12:10:43.145Z</time>
    </trkpt>
    <trkpt lat="56.318542" lon="60.86768">
        <ele>255.2</ele>
        <time>1970-01-01T12:10:44.145Z</time>
    </trkpt>
    <trkpt lat="56.318548" lon="60.867751">
        <ele>255.3</ele>
        <time>1970-01-01T12:10:45.145Z</time>
    </trkpt>
    <trkpt lat="56.318544" lon="60.867817">
        <ele>255.3</ele>
        <time>1970-01-01T12:10:46.145Z</time>
    </trkpt>
    <trkpt lat="56.318537" lon="60.867909">
        <ele>255.4</ele>
        <time>1970-01-01T12:10:47.145Z</time>
    </trkpt>
    <trkpt lat="56.318532" lon="60.867994">
        <ele>255.4</ele>
        <time>1970-01-01T12:10:48.145Z</time>
    </trkpt>
    <trkpt lat="56.318532" lon="60.86808">
        <ele>255.5</ele>
        <time>1970-01-01T12:10:49.145Z</time>
    </trkpt>
    <trkpt lat="56.318526" lon="60.868156">
        <ele>255.5</ele>
        <time>1970-01-01T12:10:50.145Z</time>
    </trkpt>
    <trkpt lat="56.318521" lon="60.86823">
        <ele>255.6</ele>
        <time>1970-01-01T12:10:51.145Z</time>
    </trkpt>
    <trkpt lat="56.318513" lon="60.868281">
        <ele>255.6</ele>
        <time>1970-01-01T12:10:52.145Z</time>
    </trkpt>
    <trkpt lat="56.3185" lon="60.868345">
        <ele>255.7</ele>
        <time>1970-01-01T12:10:53.145Z</time>
    </trkpt>
    <trkpt lat="56.318501" lon="60.86841">
        <ele>255.7</ele>
        <time>1970-01-01T12:10:54.145Z</time>
    </trkpt>
    <trkpt lat="56.318493" lon="60.868478">
        <ele>255.8</ele>
        <time>1970-01-01T12:10:55.145Z</time>
    </trkpt>
    <trkpt lat="56.318493" lon="60.868503">
        <ele>255.8</ele>
        <time>1970-01-01T12:10:56.145Z</time>
    </trkpt>
    <trkpt lat="56.31849" lon="60.86857">
        <ele>255.8</ele>
        <time>1970-01-01T12:10:57.145Z</time>
    </trkpt>
    <trkpt lat="56.318483" lon="60.868622">
        <ele>255.9</ele>
        <time>1970-01-01T12:10:58.145Z</time>
    </trkpt>
    <trkpt lat="56.318474" lon="60.868695">
        <ele>255.9</ele>
        <time>1970-01-01T12:10:59.145Z</time>
    </trkpt>
    <trkpt lat="56.318465" lon="60.868756">
        <ele>255.9</ele>
        <time>1970-01-01T12:11:00.145Z</time>
    </trkpt>
    <trkpt lat="56.318469" lon="60.868826">
        <ele>256.0</ele>
        <time>1970-01-01T12:11:01.145Z</time>
    </trkpt>
    <trkpt lat="56.318461" lon="60.868893">
        <ele>256.0</ele>
        <time>1970-01-01T12:11:02.145Z</time>
    </trkpt>
    <trkpt lat="56.318455" lon="60.868965">
        <ele>256.1</ele>
        <time>1970-01-01T12:11:03.145Z</time>
    </trkpt>
    <trkpt lat="56.318446" lon="60.869014">
        <ele>256.1</ele>
        <time>1970-01-01T12:11:04.145Z</time>
    </trkpt>
    <trkpt lat="56.318444" lon="60.869042">
        <ele>256.1</ele>
        <time>1970-01-01T12:11:05.145Z</time>
    </trkpt>
    <trkpt lat="56.318444" lon="60.869117">
        <ele>256.2</ele>
        <time>1970-01-01T12:11:06.145Z</time>
    </trkpt>
    <trkpt lat="56.318448" lon="60.869168">
        <ele>256.2</ele>
        <time>1970-01-01T12:11:07.145Z</time>
    </trkpt>
    <trkpt lat="56.318448" lon="60.869225">
        <ele>256.2</ele>
        <time>1970-01-01T12:11:08.145Z</time>
    </trkpt>
    <trkpt lat="56.318444" lon="60.869277">
        <ele>256.3</ele>
        <time>1970-01-01T12:11:09.145Z</time>
    </trkpt>
    <trkpt lat="56.318441" lon="60.869303">
        <ele>256.3</ele>
        <time>1970-01-01T12:11:10.145Z</time>
    </trkpt>
    <trkpt lat="56.318441" lon="60.869373">
        <ele>256.3</ele>
        <time>1970-01-01T12:11:11.145Z</time>
    </trkpt>
    <trkpt lat="56.318436" lon="60.869428">
        <ele>256.4</ele>
        <time>1970-01-01T12:11:12.145Z</time>
    </trkpt>
    <trkpt lat="56.318429" lon="60.869455">
        <ele>256.4</ele>
        <time>1970-01-01T12:11:13.145Z</time>
    </trkpt>
    <trkpt lat="56.318471" lon="60.869551">
        <ele>256.5</ele>
        <time>1970-01-01T12:13:41.145Z</time>
    </trkpt>
    <trkpt lat="56.318468" lon="60.869552">
        <ele>256.5</ele>
        <time>1970-01-01T12:13:42.145Z</time>
    </trkpt>
    <trkpt lat="56.318463" lon="60.869548">
        <ele>256.5</ele>
        <time>1970-01-01T12:13:43.145Z</time>
    </trkpt>
    <trkpt lat="56.318463" lon="60.869548">
        <ele>256.5</ele>
        <time>1970-01-01T12:13:44.145Z</time>
    </trkpt>
    <trkpt lat="56.318464" lon="60.869548">
        <ele>256.5</ele>
        <time>1970-01-01T12:13:45.145Z</time>
    </trkpt>
    <trkpt lat="56.318463" lon="60.869551">
        <ele>256.5</ele>
        <time>1970-01-01T12:13:46.145Z</time>
    </trkpt>
    <trkpt lat="56.318465" lon="60.869551">
        <ele>256.5</ele>
        <time>1970-01-01T12:13:47.145Z</time>
    </trkpt>
    <trkpt lat="56.318465" lon="60.869557">
        <ele>256.5</ele>
        <time>1970-01-01T12:13:48.145Z</time>
    </trkpt>
    <trkpt lat="56.318462" lon="60.869555">
        <ele>256.5</ele>
        <time>1970-01-01T12:13:49.145Z</time>
    </trkpt>
    <trkpt lat="56.318464" lon="60.869552">
        <ele>256.5</ele>
        <time>1970-01-01T12:13:50.145Z</time>
    </trkpt>
    <trkpt lat="56.318446" lon="60.869551">
        <ele>256.5</ele>
        <time>1970-01-01T12:14:02.145Z</time>
    </trkpt>
    <trkpt lat="56.318445" lon="60.869551">
        <ele>256.5</ele>
        <time>1970-01-01T12:14:03.145Z</time>
    </trkpt>
    <trkpt lat="56.318444" lon="60.869552">
        <ele>256.5</ele>
        <time>1970-01-01T12:14:04.145Z</time>
    </trkpt>
    <trkpt lat="56.31844" lon="60.869555">
        <ele>256.5</ele>
        <time>1970-01-01T12:14:05.145Z</time>
    </trkpt>
    <trkpt lat="56.318438" lon="60.869554">
        <ele>256.5</ele>
        <time>1970-01-01T12:14:06.145Z</time>
    </trkpt>
    <trkpt lat="56.318437" lon="60.869558">
        <ele>256.5</ele>
        <time>1970-01-01T12:14:07.145Z</time>
    </trkpt>
    <trkpt lat="56.318434" lon="60.869564">
        <ele>256.5</ele>
        <time>1970-01-01T12:14:08.145Z</time>
    </trkpt>
    <trkpt lat="56.318436" lon="60.869565">
        <ele>256.5</ele>
        <time>1970-01-01T12:14:09.145Z</time>
    </trkpt>
    <trkpt lat="56.318437" lon="60.869566">
        <ele>256.5</ele>
        <time>1970-01-01T12:14:10.145Z</time>
    </trkpt>
    <trkpt lat="56.318436" lon="60.869572">
        <ele>256.5</ele>
        <time>1970-01-01T12:14:11.145Z</time>
    </trkpt>
    <trkpt lat="56.318436" lon="60.869568">
        <ele>256.5</ele>
        <time>1970-01-01T12:14:12.145Z</time>
    </trkpt>
    <trkpt lat="56.318433" lon="60.869568">
        <ele>256.5</ele>
        <time>1970-01-01T12:14:13.145Z</time>
    </trkpt>
    <trkpt lat="56.318426" lon="60.869594">
        <ele>256.5</ele>
        <time>1970-01-01T12:14:14.145Z</time>
    </trkpt>
    <trkpt lat="56.318424" lon="60.869625">
        <ele>256.6</ele>
        <time>1970-01-01T12:14:15.145Z</time>
    </trkpt>
    <trkpt lat="56.318424" lon="60.869642">
        <ele>256.6</ele>
        <time>1970-01-01T12:14:16.145Z</time>
    </trkpt>
    <trkpt lat="56.318422" lon="60.869658">
        <ele>256.6</ele>
        <time>1970-01-01T12:14:17.145Z</time>
    </trkpt>
    <trkpt lat="56.318421" lon="60.869679">
        <ele>256.6</ele>
        <time>1970-01-01T12:14:18.145Z</time>
    </trkpt>
    <trkpt lat="56.318418" lon="60.869702">
        <ele>256.6</ele>
        <time>1970-01-01T12:14:19.145Z</time>
    </trkpt>
    <trkpt lat="56.318411" lon="60.869732">
        <ele>256.6</ele>
        <time>1970-01-01T12:14:20.145Z</time>
    </trkpt>
    <trkpt lat="56.318408" lon="60.869755">
        <ele>256.6</ele>
        <time>1970-01-01T12:14:21.145Z</time>
    </trkpt>
    <trkpt lat="56.318405" lon="60.869783">
        <ele>256.7</ele>
        <time>1970-01-01T12:14:22.145Z</time>
    </trkpt>
    <trkpt lat="56.318404" lon="60.869799">
        <ele>256.7</ele>
        <time>1970-01-01T12:14:23.145Z</time>
    </trkpt>
    <trkpt lat="56.318401" lon="60.869849">
        <ele>256.7</ele>
        <time>1970-01-01T12:14:24.145Z</time>
    </trkpt>
    <trkpt lat="56.3184" lon="60.869865">
        <ele>256.7</ele>
        <time>1970-01-01T12:14:25.145Z</time>
    </trkpt>
    <trkpt lat="56.318399" lon="60.86992">
        <ele>256.7</ele>
        <time>1970-01-01T12:14:26.145Z</time>
    </trkpt>
    <trkpt lat="56.318399" lon="60.869939">
        <ele>256.8</ele>
        <time>1970-01-01T12:14:27.145Z</time>
    </trkpt>
    <trkpt lat="56.3184" lon="60.869989">
        <ele>256.8</ele>
        <time>1970-01-01T12:14:28.145Z</time>
    </trkpt>
    <trkpt lat="56.318397" lon="60.870009">
        <ele>256.8</ele>
        <time>1970-01-01T12:14:29.145Z</time>
    </trkpt>
    <trkpt lat="56.318392" lon="60.870067">
        <ele>256.8</ele>
        <time>1970-01-01T12:14:30.145Z</time>
    </trkpt>
    <trkpt lat="56.318393" lon="60.870086">
        <ele>256.8</ele>
        <time>1970-01-01T12:14:31.145Z</time>
    </trkpt>
    <trkpt lat="56.318392" lon="60.87015">
        <ele>257.1</ele>
        <time>1970-01-01T12:14:32.145Z</time>
    </trkpt>
    <trkpt lat="56.31839" lon="60.87017">
        <ele>257.1</ele>
        <time>1970-01-01T12:14:33.145Z</time>
    </trkpt>
    <trkpt lat="56.318381" lon="60.870233">
        <ele>257.4</ele>
        <time>1970-01-01T12:14:34.145Z</time>
    </trkpt>
    <trkpt lat="56.318378" lon="60.870253">
        <ele>257.5</ele>
        <time>1970-01-01T12:14:35.145Z</time>
    </trkpt>
    <trkpt lat="56.31837" lon="60.870316">
        <ele>257.7</ele>
        <time>1970-01-01T12:14:36.145Z</time>
    </trkpt>
    <trkpt lat="56.318366" lon="60.870335">
        <ele>257.8</ele>
        <time>1970-01-01T12:14:37.145Z</time>
    </trkpt>
    <trkpt lat="56.318358" lon="60.870388">
        <ele>258.0</ele>
        <time>1970-01-01T12:14:38.145Z</time>
    </trkpt>
    <trkpt lat="56.318358" lon="60.870408">
        <ele>258.1</ele>
        <time>1970-01-01T12:14:39.145Z</time>
    </trkpt>
    <trkpt lat="56.318352" lon="60.870473">
        <ele>258.3</ele>
        <time>1970-01-01T12:14:40.145Z</time>
    </trkpt>
    <trkpt lat="56.318345" lon="60.870523">
        <ele>258.5</ele>
        <time>1970-01-01T12:14:41.145Z</time>
    </trkpt>
    <trkpt lat="56.318342" lon="60.870542">
        <ele>258.6</ele>
        <time>1970-01-01T12:14:42.145Z</time>
    </trkpt>
    <trkpt lat="56.318338" lon="60.870607">
        <ele>258.8</ele>
        <time>1970-01-01T12:14:43.145Z</time>
    </trkpt>
    <trkpt lat="56.318336" lon="60.870628">
        <ele>258.9</ele>
        <time>1970-01-01T12:14:44.145Z</time>
    </trkpt>
    <trkpt lat="56.318332" lon="60.870692">
        <ele>259.1</ele>
        <time>1970-01-01T12:14:45.145Z</time>
    </trkpt>
    <trkpt lat="56.318329" lon="60.87072">
        <ele>259.3</ele>
        <time>1970-01-01T12:14:46.145Z</time>
    </trkpt>
    <trkpt lat="56.318322" lon="60.870788">
        <ele>259.5</ele>
        <time>1970-01-01T12:14:47.145Z</time>
    </trkpt>
    <trkpt lat="56.318317" lon="60.870805">
        <ele>259.6</ele>
        <time>1970-01-01T12:14:48.145Z</time>
    </trkpt>
    <trkpt lat="56.318314" lon="60.87086">
        <ele>259.8</ele>
        <time>1970-01-01T12:14:49.145Z</time>
    </trkpt>
    <trkpt lat="56.318312" lon="60.870879">
        <ele>259.9</ele>
        <time>1970-01-01T12:14:50.145Z</time>
    </trkpt>
    <trkpt lat="56.318308" lon="60.87094">
        <ele>260.1</ele>
        <time>1970-01-01T12:14:51.145Z</time>
    </trkpt>
    <trkpt lat="56.318309" lon="60.870958">
        <ele>260.2</ele>
        <time>1970-01-01T12:14:52.145Z</time>
    </trkpt>
    <trkpt lat="56.318313" lon="60.871012">
        <ele>260.4</ele>
        <time>1970-01-01T12:14:53.145Z</time>
    </trkpt>
    <trkpt lat="56.318312" lon="60.871032">
        <ele>260.5</ele>
        <time>1970-01-01T12:14:54.145Z</time>
    </trkpt>
    <trkpt lat="56.318301" lon="60.871084">
        <ele>260.7</ele>
        <time>1970-01-01T12:14:55.145Z</time>
    </trkpt>
    <trkpt lat="56.3183" lon="60.87111">
        <ele>260.8</ele>
        <time>1970-01-01T12:14:56.145Z</time>
    </trkpt>
    <trkpt lat="56.318298" lon="60.871162">
        <ele>261.0</ele>
        <time>1970-01-01T12:14:57.145Z</time>
    </trkpt>
    <trkpt lat="56.318296" lon="60.871181">
        <ele>261.0</ele>
        <time>1970-01-01T12:14:58.145Z</time>
    </trkpt>
    <trkpt lat="56.31829" lon="60.871243">
        <ele>261.3</ele>
        <time>1970-01-01T12:14:59.145Z</time>
    </trkpt>
    <trkpt lat="56.318289" lon="60.871258">
        <ele>261.3</ele>
        <time>1970-01-01T12:15:00.145Z</time>
    </trkpt>
    <trkpt lat="56.318287" lon="60.871318">
        <ele>261.6</ele>
        <time>1970-01-01T12:15:01.145Z</time>
    </trkpt>
    <trkpt lat="56.318286" lon="60.871341">
        <ele>261.6</ele>
        <time>1970-01-01T12:15:02.145Z</time>
    </trkpt>
    <trkpt lat="56.318275" lon="60.871398">
        <ele>261.9</ele>
        <time>1970-01-01T12:15:03.145Z</time>
    </trkpt>
    <trkpt lat="56.318271" lon="60.871417">
        <ele>262.0</ele>
        <time>1970-01-01T12:15:04.145Z</time>
    </trkpt>
    <trkpt lat="56.318261" lon="60.871471">
        <ele>262.2</ele>
        <time>1970-01-01T12:15:05.145Z</time>
    </trkpt>
    <trkpt lat="56.318258" lon="60.871483">
        <ele>262.2</ele>
        <time>1970-01-01T12:15:06.145Z</time>
    </trkpt>
    <trkpt lat="56.318241" lon="60.87153">
        <ele>262.4</ele>
        <time>1970-01-01T12:15:07.145Z</time>
    </trkpt>
    <trkpt lat="56.318241" lon="60.871547">
        <ele>262.5</ele>
        <time>1970-01-01T12:15:08.145Z</time>
    </trkpt>
    <trkpt lat="56.318245" lon="60.871611">
        <ele>262.7</ele>
        <time>1970-01-01T12:15:09.145Z</time>
    </trkpt>
    <trkpt lat="56.318244" lon="60.871634">
        <ele>262.8</ele>
        <time>1970-01-01T12:15:10.145Z</time>
    </trkpt>
    <trkpt lat="56.318238" lon="60.871693">
        <ele>263.1</ele>
        <time>1970-01-01T12:15:11.145Z</time>
    </trkpt>
    <trkpt lat="56.318235" lon="60.871711">
        <ele>263.1</ele>
        <time>1970-01-01T12:15:12.145Z</time>
    </trkpt>
    <trkpt lat="56.318223" lon="60.871771">
        <ele>263.4</ele>
        <time>1970-01-01T12:15:13.145Z</time>
    </trkpt>
    <trkpt lat="56.318221" lon="60.871787">
        <ele>263.4</ele>
        <time>1970-01-01T12:15:14.145Z</time>
    </trkpt>
    <trkpt lat="56.318217" lon="60.871844">
        <ele>263.6</ele>
        <time>1970-01-01T12:15:15.145Z</time>
    </trkpt>
    <trkpt lat="56.318217" lon="60.871863">
        <ele>263.7</ele>
        <time>1970-01-01T12:15:16.145Z</time>
    </trkpt>
    <trkpt lat="56.318202" lon="60.871922">
        <ele>264.0</ele>
        <time>1970-01-01T12:15:17.145Z</time>
    </trkpt>
    <trkpt lat="56.318197" lon="60.871973">
        <ele>264.0</ele>
        <time>1970-01-01T12:15:18.145Z</time>
    </trkpt>
    <trkpt lat="56.318192" lon="60.871999">
        <ele>264.0</ele>
        <time>1970-01-01T12:15:19.145Z</time>
    </trkpt>
    <trkpt lat="56.318189" lon="60.872069">
        <ele>264.0</ele>
        <time>1970-01-01T12:15:20.145Z</time>
    </trkpt>
    <trkpt lat="56.318189" lon="60.872128">
        <ele>264.0</ele>
        <time>1970-01-01T12:15:21.145Z</time>
    </trkpt>
    <trkpt lat="56.318185" lon="60.872162">
        <ele>264.0</ele>
        <time>1970-01-01T12:15:22.145Z</time>
    </trkpt>
    <trkpt lat="56.318176" lon="60.872227">
        <ele>264.0</ele>
        <time>1970-01-01T12:15:23.145Z</time>
    </trkpt>
    <trkpt lat="56.318165" lon="60.87228">
        <ele>264.0</ele>
        <time>1970-01-01T12:15:24.145Z</time>
    </trkpt>
    <trkpt lat="56.318156" lon="60.872332">
        <ele>264.0</ele>
        <time>1970-01-01T12:15:25.145Z</time>
    </trkpt>
    <trkpt lat="56.318155" lon="60.872353">
        <ele>264.0</ele>
        <time>1970-01-01T12:15:26.145Z</time>
    </trkpt>
    <trkpt lat="56.31815" lon="60.872417">
        <ele>264.0</ele>
        <time>1970-01-01T12:15:27.145Z</time>
    </trkpt>
    <trkpt lat="56.318148" lon="60.872446">
        <ele>264.0</ele>
        <time>1970-01-01T12:15:28.145Z</time>
    </trkpt>
    <trkpt lat="56.318146" lon="60.872522">
        <ele>264.0</ele>
        <time>1970-01-01T12:15:29.145Z</time>
    </trkpt>
    <trkpt lat="56.318133" lon="60.872579">
        <ele>264.0</ele>
        <time>1970-01-01T12:15:30.145Z</time>
    </trkpt>
    <trkpt lat="56.318125" lon="60.872634">
        <ele>264.0</ele>
        <time>1970-01-01T12:15:31.145Z</time>
    </trkpt>
    <trkpt lat="56.31812" lon="60.872691">
        <ele>264.0</ele>
        <time>1970-01-01T12:15:32.145Z</time>
    </trkpt>
    <trkpt lat="56.318108" lon="60.872739">
        <ele>264.0</ele>
        <time>1970-01-01T12:15:33.145Z</time>
    </trkpt>
    <trkpt lat="56.318097" lon="60.872799">
        <ele>264.0</ele>
        <time>1970-01-01T12:15:34.145Z</time>
    </trkpt>
    <trkpt lat="56.318092" lon="60.87283">
        <ele>264.0</ele>
        <time>1970-01-01T12:15:35.145Z</time>
    </trkpt>
    <trkpt lat="56.31809" lon="60.872904">
        <ele>264.0</ele>
        <time>1970-01-01T12:15:36.145Z</time>
    </trkpt>
    <trkpt lat="56.318079" lon="60.872972">
        <ele>264.0</ele>
        <time>1970-01-01T12:15:37.145Z</time>
    </trkpt>
    <trkpt lat="56.318068" lon="60.873025">
        <ele>264.0</ele>
        <time>1970-01-01T12:15:38.145Z</time>
    </trkpt>
    <trkpt lat="56.318053" lon="60.873084">
        <ele>264.0</ele>
        <time>1970-01-01T12:15:39.145Z</time>
    </trkpt>
    <trkpt lat="56.31804" lon="60.873145">
        <ele>264.0</ele>
        <time>1970-01-01T12:15:40.145Z</time>
    </trkpt>
    <trkpt lat="56.31802" lon="60.873206">
        <ele>264.0</ele>
        <time>1970-01-01T12:15:41.145Z</time>
    </trkpt>
    <trkpt lat="56.318006" lon="60.873265">
        <ele>264.0</ele>
        <time>1970-01-01T12:15:42.145Z</time>
    </trkpt>
    <trkpt lat="56.317993" lon="60.873324">
        <ele>264.0</ele>
        <time>1970-01-01T12:15:43.145Z</time>
    </trkpt>
    <trkpt lat="56.31799" lon="60.873342">
        <ele>264.0</ele>
        <time>1970-01-01T12:15:44.145Z</time>
    </trkpt>
    <trkpt lat="56.317976" lon="60.873401">
        <ele>264.0</ele>
        <time>1970-01-01T12:15:45.145Z</time>
    </trkpt>
    <trkpt lat="56.317963" lon="60.873446">
        <ele>264.0</ele>
        <time>1970-01-01T12:15:46.145Z</time>
    </trkpt>
    <trkpt lat="56.317952" lon="60.873471">
        <ele>264.0</ele>
        <time>1970-01-01T12:15:47.145Z</time>
    </trkpt>
    <trkpt lat="56.317928" lon="60.873535">
        <ele>264.0</ele>
        <time>1970-01-01T12:15:48.145Z</time>
    </trkpt>
    <trkpt lat="56.317923" lon="60.873551">
        <ele>264.0</ele>
        <time>1970-01-01T12:15:49.145Z</time>
    </trkpt>
    <trkpt lat="56.317905" lon="60.873606">
        <ele>264.0</ele>
        <time>1970-01-01T12:15:50.145Z</time>
    </trkpt>
    <trkpt lat="56.317903" lon="60.873655">
        <ele>264.0</ele>
        <time>1970-01-01T12:15:51.145Z</time>
    </trkpt>
    <trkpt lat="56.317901" lon="60.873678">
        <ele>264.0</ele>
        <time>1970-01-01T12:15:52.145Z</time>
    </trkpt>
    <trkpt lat="56.317891" lon="60.873747">
        <ele>264.0</ele>
        <time>1970-01-01T12:15:53.145Z</time>
    </trkpt>
    <trkpt lat="56.317881" lon="60.873814">
        <ele>264.0</ele>
        <time>1970-01-01T12:15:54.145Z</time>
    </trkpt>
    <trkpt lat="56.317867" lon="60.873857">
        <ele>264.0</ele>
        <time>1970-01-01T12:15:55.145Z</time>
    </trkpt>
    <trkpt lat="56.317868" lon="60.873874">
        <ele>264.0</ele>
        <time>1970-01-01T12:15:56.145Z</time>
    </trkpt>
    <trkpt lat="56.317862" lon="60.873923">
        <ele>264.0</ele>
        <time>1970-01-01T12:15:57.145Z</time>
    </trkpt>
    <trkpt lat="56.317854" lon="60.873974">
        <ele>264.0</ele>
        <time>1970-01-01T12:15:58.145Z</time>
    </trkpt>
    <trkpt lat="56.317847" lon="60.874022">
        <ele>264.0</ele>
        <time>1970-01-01T12:15:59.145Z</time>
    </trkpt>
    <trkpt lat="56.31784" lon="60.874044">
        <ele>264.0</ele>
        <time>1970-01-01T12:16:00.145Z</time>
    </trkpt>
    <trkpt lat="56.317827" lon="60.874101">
        <ele>264.0</ele>
        <time>1970-01-01T12:16:01.145Z</time>
    </trkpt>
    <trkpt lat="56.317826" lon="60.874126">
        <ele>264.0</ele>
        <time>1970-01-01T12:16:02.145Z</time>
    </trkpt>
    <trkpt lat="56.317814" lon="60.874178">
        <ele>264.0</ele>
        <time>1970-01-01T12:16:03.145Z</time>
    </trkpt>
    <trkpt lat="56.317806" lon="60.874204">
        <ele>264.0</ele>
        <time>1970-01-01T12:16:04.145Z</time>
    </trkpt>
    <trkpt lat="56.317789" lon="60.87427">
        <ele>264.0</ele>
        <time>1970-01-01T12:16:05.145Z</time>
    </trkpt>
    <trkpt lat="56.317789" lon="60.874288">
        <ele>264.0</ele>
        <time>1970-01-01T12:16:06.145Z</time>
    </trkpt>
    <trkpt lat="56.317784" lon="60.874339">
        <ele>264.0</ele>
        <time>1970-01-01T12:16:07.145Z</time>
    </trkpt>
    <trkpt lat="56.317778" lon="60.874363">
        <ele>264.0</ele>
        <time>1970-01-01T12:16:08.145Z</time>
    </trkpt>
    <trkpt lat="56.31776" lon="60.87443">
        <ele>264.0</ele>
        <time>1970-01-01T12:16:09.145Z</time>
    </trkpt>
    <trkpt lat="56.317754" lon="60.874449">
        <ele>264.0</ele>
        <time>1970-01-01T12:16:10.145Z</time>
    </trkpt>
    <trkpt lat="56.317734" lon="60.874495">
        <ele>264.0</ele>
        <time>1970-01-01T12:16:11.145Z</time>
    </trkpt>
    <trkpt lat="56.31773" lon="60.874519">
        <ele>264.0</ele>
        <time>1970-01-01T12:16:12.145Z</time>
    </trkpt>
    <trkpt lat="56.317712" lon="60.874583">
        <ele>264.0</ele>
        <time>1970-01-01T12:16:13.145Z</time>
    </trkpt>
    <trkpt lat="56.317704" lon="60.874599">
        <ele>264.0</ele>
        <time>1970-01-01T12:16:14.145Z</time>
    </trkpt>
    <trkpt lat="56.317681" lon="60.874652">
        <ele>264.0</ele>
        <time>1970-01-01T12:16:15.145Z</time>
    </trkpt>
    <trkpt lat="56.317668" lon="60.874707">
        <ele>264.0</ele>
        <time>1970-01-01T12:16:16.145Z</time>
    </trkpt>
    <trkpt lat="56.317649" lon="60.874755">
        <ele>264.0</ele>
        <time>1970-01-01T12:16:17.145Z</time>
    </trkpt>
    <trkpt lat="56.317627" lon="60.874799">
        <ele>264.0</ele>
        <time>1970-01-01T12:16:18.145Z</time>
    </trkpt>
    <trkpt lat="56.317605" lon="60.874837">
        <ele>264.0</ele>
        <time>1970-01-01T12:16:19.145Z</time>
    </trkpt>
    <trkpt lat="56.317587" lon="60.874881">
        <ele>264.0</ele>
        <time>1970-01-01T12:16:20.145Z</time>
    </trkpt>
    <trkpt lat="56.317579" lon="60.874911">
        <ele>264.0</ele>
        <time>1970-01-01T12:16:21.145Z</time>
    </trkpt>
    <trkpt lat="56.317552" lon="60.874972">
        <ele>264.0</ele>
        <time>1970-01-01T12:16:22.145Z</time>
    </trkpt>
    <trkpt lat="56.317544" lon="60.874995">
        <ele>264.0</ele>
        <time>1970-01-01T12:16:23.145Z</time>
    </trkpt>
    <trkpt lat="56.317527" lon="60.875062">
        <ele>264.0</ele>
        <time>1970-01-01T12:16:24.145Z</time>
    </trkpt>
    <trkpt lat="56.317518" lon="60.875078">
        <ele>264.0</ele>
        <time>1970-01-01T12:16:25.145Z</time>
    </trkpt>
    <trkpt lat="56.317498" lon="60.875126">
        <ele>264.0</ele>
        <time>1970-01-01T12:16:26.145Z</time>
    </trkpt>
    <trkpt lat="56.317481" lon="60.875174">
        <ele>264.0</ele>
        <time>1970-01-01T12:16:27.145Z</time>
    </trkpt>
    <trkpt lat="56.317469" lon="60.875199">
        <ele>264.0</ele>
        <time>1970-01-01T12:16:28.145Z</time>
    </trkpt>
    <trkpt lat="56.317446" lon="60.875257">
        <ele>264.0</ele>
        <time>1970-01-01T12:16:29.145Z</time>
    </trkpt>
    <trkpt lat="56.31744" lon="60.875272">
        <ele>264.0</ele>
        <time>1970-01-01T12:16:30.145Z</time>
    </trkpt>
    <trkpt lat="56.317412" lon="60.87531">
        <ele>264.0</ele>
        <time>1970-01-01T12:16:31.145Z</time>
    </trkpt>
    <trkpt lat="56.317384" lon="60.875351">
        <ele>264.0</ele>
        <time>1970-01-01T12:16:32.145Z</time>
    </trkpt>
    <trkpt lat="56.317357" lon="60.875379">
        <ele>264.0</ele>
        <time>1970-01-01T12:16:33.145Z</time>
    </trkpt>
    <trkpt lat="56.317335" lon="60.875414">
        <ele>264.0</ele>
        <time>1970-01-01T12:16:34.145Z</time>
    </trkpt>
    <trkpt lat="56.317327" lon="60.875426">
        <ele>264.0</ele>
        <time>1970-01-01T12:16:35.145Z</time>
    </trkpt>
    <trkpt lat="56.317303" lon="60.875461">
        <ele>264.0</ele>
        <time>1970-01-01T12:16:36.145Z</time>
    </trkpt>
    <trkpt lat="56.317283" lon="60.875493">
        <ele>264.0</ele>
        <time>1970-01-01T12:16:37.145Z</time>
    </trkpt>
    <trkpt lat="56.317273" lon="60.87551">
        <ele>264.0</ele>
        <time>1970-01-01T12:16:38.145Z</time>
    </trkpt>
    <trkpt lat="56.317262" lon="60.875558">
        <ele>264.0</ele>
        <time>1970-01-01T12:16:39.145Z</time>
    </trkpt>
    <trkpt lat="56.317254" lon="60.875569">
        <ele>264.0</ele>
        <time>1970-01-01T12:16:40.145Z</time>
    </trkpt>
    <trkpt lat="56.31723" lon="60.875611">
        <ele>264.0</ele>
        <time>1970-01-01T12:16:41.145Z</time>
    </trkpt>
    <trkpt lat="56.317213" lon="60.875657">
        <ele>264.0</ele>
        <time>1970-01-01T12:16:42.145Z</time>
    </trkpt>
    <trkpt lat="56.317206" lon="60.87568">
        <ele>264.0</ele>
        <time>1970-01-01T12:16:43.145Z</time>
    </trkpt>
    <trkpt lat="56.317189" lon="60.875728">
        <ele>264.0</ele>
        <time>1970-01-01T12:16:44.145Z</time>
    </trkpt>
    <trkpt lat="56.317183" lon="60.875759">
        <ele>264.0</ele>
        <time>1970-01-01T12:16:45.145Z</time>
    </trkpt>
    <trkpt lat="56.317177" lon="60.875788">
        <ele>264.0</ele>
        <time>1970-01-01T12:16:46.145Z</time>
    </trkpt>
    <trkpt lat="56.317167" lon="60.87584">
        <ele>264.0</ele>
        <time>1970-01-01T12:16:47.145Z</time>
    </trkpt>
    <trkpt lat="56.317163" lon="60.875863">
        <ele>264.0</ele>
        <time>1970-01-01T12:16:48.145Z</time>
    </trkpt>
    <trkpt lat="56.31715" lon="60.875916">
        <ele>264.0</ele>
        <time>1970-01-01T12:16:49.145Z</time>
    </trkpt>
    <trkpt lat="56.317144" lon="60.87594">
        <ele>264.0</ele>
        <time>1970-01-01T12:16:50.145Z</time>
    </trkpt>
    <trkpt lat="56.317138" lon="60.876012">
        <ele>264.0</ele>
        <time>1970-01-01T12:16:51.145Z</time>
    </trkpt>
    <trkpt lat="56.317123" lon="60.876058">
        <ele>264.0</ele>
        <time>1970-01-01T12:16:52.145Z</time>
    </trkpt>
    <trkpt lat="56.317114" lon="60.876074">
        <ele>264.0</ele>
        <time>1970-01-01T12:16:53.145Z</time>
    </trkpt>
    <trkpt lat="56.317095" lon="60.87611">
        <ele>264.0</ele>
        <time>1970-01-01T12:16:54.145Z</time>
    </trkpt>
    <trkpt lat="56.317089" lon="60.876119">
        <ele>264.0</ele>
        <time>1970-01-01T12:16:55.145Z</time>
    </trkpt>
    <trkpt lat="56.317069" lon="60.876157">
        <ele>264.0</ele>
        <time>1970-01-01T12:16:56.145Z</time>
    </trkpt>
    <trkpt lat="56.317065" lon="60.876173">
        <ele>264.0</ele>
        <time>1970-01-01T12:16:57.145Z</time>
    </trkpt>
    <trkpt lat="56.317042" lon="60.876217">
        <ele>264.0</ele>
        <time>1970-01-01T12:16:58.145Z</time>
    </trkpt>
    <trkpt lat="56.317036" lon="60.876236">
        <ele>264.0</ele>
        <time>1970-01-01T12:16:59.145Z</time>
    </trkpt>
    <trkpt lat="56.317018" lon="60.876286">
        <ele>264.0</ele>
        <time>1970-01-01T12:17:00.145Z</time>
    </trkpt>
    <trkpt lat="56.316999" lon="60.876331">
        <ele>264.0</ele>
        <time>1970-01-01T12:17:01.145Z</time>
    </trkpt>
    <trkpt lat="56.316994" lon="60.876355">
        <ele>264.0</ele>
        <time>1970-01-01T12:17:02.145Z</time>
    </trkpt>
    <trkpt lat="56.316979" lon="60.876404">
        <ele>264.0</ele>
        <time>1970-01-01T12:17:03.145Z</time>
    </trkpt>
    <trkpt lat="56.316977" lon="60.876417">
        <ele>264.0</ele>
        <time>1970-01-01T12:17:04.145Z</time>
    </trkpt>
    <trkpt lat="56.316974" lon="60.876473">
        <ele>264.0</ele>
        <time>1970-01-01T12:17:05.145Z</time>
    </trkpt>
    <trkpt lat="56.316971" lon="60.876487">
        <ele>264.0</ele>
        <time>1970-01-01T12:17:06.145Z</time>
    </trkpt>
    <trkpt lat="56.316957" lon="60.876545">
        <ele>264.1</ele>
        <time>1970-01-01T12:17:07.145Z</time>
    </trkpt>
    <trkpt lat="56.316954" lon="60.876559">
        <ele>264.1</ele>
        <time>1970-01-01T12:17:08.145Z</time>
    </trkpt>
    <trkpt lat="56.31693" lon="60.876601">
        <ele>264.1</ele>
        <time>1970-01-01T12:17:09.145Z</time>
    </trkpt>
    <trkpt lat="56.31692" lon="60.876657">
        <ele>264.1</ele>
        <time>1970-01-01T12:17:10.145Z</time>
    </trkpt>
    <trkpt lat="56.316914" lon="60.876679">
        <ele>264.1</ele>
        <time>1970-01-01T12:17:11.145Z</time>
    </trkpt>
    <trkpt lat="56.316903" lon="60.876738">
        <ele>264.2</ele>
        <time>1970-01-01T12:17:12.145Z</time>
    </trkpt>
    <trkpt lat="56.3169" lon="60.876756">
        <ele>264.2</ele>
        <time>1970-01-01T12:17:13.145Z</time>
    </trkpt>
    <trkpt lat="56.316893" lon="60.876819">
        <ele>264.2</ele>
        <time>1970-01-01T12:17:14.145Z</time>
    </trkpt>
    <trkpt lat="56.316892" lon="60.876854">
        <ele>264.2</ele>
        <time>1970-01-01T12:17:15.145Z</time>
    </trkpt>
    <trkpt lat="56.316891" lon="60.876937">
        <ele>264.3</ele>
        <time>1970-01-01T12:17:16.145Z</time>
    </trkpt>
    <trkpt lat="56.316889" lon="60.876954">
        <ele>264.3</ele>
        <time>1970-01-01T12:17:17.145Z</time>
    </trkpt>
    <trkpt lat="56.316873" lon="60.87701">
        <ele>264.3</ele>
        <time>1970-01-01T12:17:18.145Z</time>
    </trkpt>
    <trkpt lat="56.316872" lon="60.877028">
        <ele>264.3</ele>
        <time>1970-01-01T12:17:19.145Z</time>
    </trkpt>
    <trkpt lat="56.316862" lon="60.877089">
        <ele>264.3</ele>
        <time>1970-01-01T12:17:20.145Z</time>
    </trkpt>
    <trkpt lat="56.31686" lon="60.877105">
        <ele>264.3</ele>
        <time>1970-01-01T12:17:21.145Z</time>
    </trkpt>
    <trkpt lat="56.316843" lon="60.87716">
        <ele>264.4</ele>
        <time>1970-01-01T12:17:22.145Z</time>
    </trkpt>
    <trkpt lat="56.316843" lon="60.877171">
        <ele>264.4</ele>
        <time>1970-01-01T12:17:23.145Z</time>
    </trkpt>
    <trkpt lat="56.316842" lon="60.877182">
        <ele>264.4</ele>
        <time>1970-01-01T12:17:24.145Z</time>
    </trkpt>
    <trkpt lat="56.316842" lon="60.877193">
        <ele>264.4</ele>
        <time>1970-01-01T12:17:25.145Z</time>
    </trkpt>
    <trkpt lat="56.316838" lon="60.877225">
        <ele>264.4</ele>
        <time>1970-01-01T12:17:26.145Z</time>
    </trkpt>
    <trkpt lat="56.316834" lon="60.87725">
        <ele>264.4</ele>
        <time>1970-01-01T12:17:27.145Z</time>
    </trkpt>
    <trkpt lat="56.316828" lon="60.877312">
        <ele>264.4</ele>
        <time>1970-01-01T12:17:28.145Z</time>
    </trkpt>
    <trkpt lat="56.316825" lon="60.877327">
        <ele>264.4</ele>
        <time>1970-01-01T12:17:29.145Z</time>
    </trkpt>
    <trkpt lat="56.316819" lon="60.87739">
        <ele>264.5</ele>
        <time>1970-01-01T12:17:30.145Z</time>
    </trkpt>
    <trkpt lat="56.316815" lon="60.877407">
        <ele>264.5</ele>
        <time>1970-01-01T12:17:31.145Z</time>
    </trkpt>
    <trkpt lat="56.316815" lon="60.877459">
        <ele>264.5</ele>
        <time>1970-01-01T12:17:32.145Z</time>
    </trkpt>
    <trkpt lat="56.316818" lon="60.877484">
        <ele>264.5</ele>
        <time>1970-01-01T12:17:33.145Z</time>
    </trkpt>
    <trkpt lat="56.31682" lon="60.877552">
        <ele>264.5</ele>
        <time>1970-01-01T12:17:34.145Z</time>
    </trkpt>
    <trkpt lat="56.316823" lon="60.877576">
        <ele>264.5</ele>
        <time>1970-01-01T12:17:35.145Z</time>
    </trkpt>
    <trkpt lat="56.316827" lon="60.877611">
        <ele>264.6</ele>
        <time>1970-01-01T12:17:36.145Z</time>
    </trkpt>
    <trkpt lat="56.316827" lon="60.87763">
        <ele>264.6</ele>
        <time>1970-01-01T12:17:37.145Z</time>
    </trkpt>
    <trkpt lat="56.316816" lon="60.877693">
        <ele>264.6</ele>
        <time>1970-01-01T12:17:38.145Z</time>
    </trkpt>
    <trkpt lat="56.31681" lon="60.877719">
        <ele>264.6</ele>
        <time>1970-01-01T12:17:39.145Z</time>
    </trkpt>
    <trkpt lat="56.316806" lon="60.877794">
        <ele>264.6</ele>
        <time>1970-01-01T12:17:40.145Z</time>
    </trkpt>
    <trkpt lat="56.316805" lon="60.877817">
        <ele>264.7</ele>
        <time>1970-01-01T12:17:41.145Z</time>
    </trkpt>
    <trkpt lat="56.316796" lon="60.877877">
        <ele>264.7</ele>
        <time>1970-01-01T12:17:42.145Z</time>
    </trkpt>
    <trkpt lat="56.316791" lon="60.877902">
        <ele>264.7</ele>
        <time>1970-01-01T12:17:43.145Z</time>
    </trkpt>
    <trkpt lat="56.316781" lon="60.877967">
        <ele>264.7</ele>
        <time>1970-01-01T12:17:44.145Z</time>
    </trkpt>
    <trkpt lat="56.316776" lon="60.877985">
        <ele>264.7</ele>
        <time>1970-01-01T12:17:45.145Z</time>
    </trkpt>
    <trkpt lat="56.316759" lon="60.87804">
        <ele>264.8</ele>
        <time>1970-01-01T12:17:46.145Z</time>
    </trkpt>
    <trkpt lat="56.316753" lon="60.878061">
        <ele>264.8</ele>
        <time>1970-01-01T12:17:47.145Z</time>
    </trkpt>
    <trkpt lat="56.316742" lon="60.878121">
        <ele>264.8</ele>
        <time>1970-01-01T12:17:48.145Z</time>
    </trkpt>
    <trkpt lat="56.316736" lon="60.878145">
        <ele>264.8</ele>
        <time>1970-01-01T12:17:49.145Z</time>
    </trkpt>
    <trkpt lat="56.316726" lon="60.878206">
        <ele>264.8</ele>
        <time>1970-01-01T12:17:50.145Z</time>
    </trkpt>
    <trkpt lat="56.316721" lon="60.878227">
        <ele>264.8</ele>
        <time>1970-01-01T12:17:51.145Z</time>
    </trkpt>
    <trkpt lat="56.316707" lon="60.878289">
        <ele>264.9</ele>
        <time>1970-01-01T12:17:52.145Z</time>
    </trkpt>
    <trkpt lat="56.316705" lon="60.878309">
        <ele>264.9</ele>
        <time>1970-01-01T12:17:53.145Z</time>
    </trkpt>
    <trkpt lat="56.316707" lon="60.878376">
        <ele>264.9</ele>
        <time>1970-01-01T12:17:54.145Z</time>
    </trkpt>
    <trkpt lat="56.316708" lon="60.878396">
        <ele>264.9</ele>
        <time>1970-01-01T12:17:55.145Z</time>
    </trkpt>
    <trkpt lat="56.316709" lon="60.878449">
        <ele>264.9</ele>
        <time>1970-01-01T12:17:56.145Z</time>
    </trkpt>
    <trkpt lat="56.316705" lon="60.878463">
        <ele>265.0</ele>
        <time>1970-01-01T12:17:57.145Z</time>
    </trkpt>
    <trkpt lat="56.316702" lon="60.878503">
        <ele>265.0</ele>
        <time>1970-01-01T12:17:58.145Z</time>
    </trkpt>
    <trkpt lat="56.316703" lon="60.878521">
        <ele>265.0</ele>
        <time>1970-01-01T12:17:59.145Z</time>
    </trkpt>
    <trkpt lat="56.316695" lon="60.878569">
        <ele>265.0</ele>
        <time>1970-01-01T12:18:00.145Z</time>
    </trkpt>
    <trkpt lat="56.316689" lon="60.878624">
        <ele>265.0</ele>
        <time>1970-01-01T12:18:01.145Z</time>
    </trkpt>
    <trkpt lat="56.316687" lon="60.878641">
        <ele>265.0</ele>
        <time>1970-01-01T12:18:02.145Z</time>
    </trkpt>
    <trkpt lat="56.31669" lon="60.878706">
        <ele>265.1</ele>
        <time>1970-01-01T12:18:03.145Z</time>
    </trkpt>
    <trkpt lat="56.316692" lon="60.878729">
        <ele>265.1</ele>
        <time>1970-01-01T12:18:04.145Z</time>
    </trkpt>
    <trkpt lat="56.316692" lon="60.87879">
        <ele>265.1</ele>
        <time>1970-01-01T12:18:05.145Z</time>
    </trkpt>
    <trkpt lat="56.316695" lon="60.878817">
        <ele>265.1</ele>
        <time>1970-01-01T12:18:06.145Z</time>
    </trkpt>
    <trkpt lat="56.316702" lon="60.878886">
        <ele>265.1</ele>
        <time>1970-01-01T12:18:07.145Z</time>
    </trkpt>
    <trkpt lat="56.316691" lon="60.878942">
        <ele>265.2</ele>
        <time>1970-01-01T12:18:08.145Z</time>
    </trkpt>
    <trkpt lat="56.316688" lon="60.878966">
        <ele>265.2</ele>
        <time>1970-01-01T12:18:09.145Z</time>
    </trkpt>
    <trkpt lat="56.316687" lon="60.879034">
        <ele>265.2</ele>
        <time>1970-01-01T12:18:10.145Z</time>
    </trkpt>
    <trkpt lat="56.316682" lon="60.879095">
        <ele>265.2</ele>
        <time>1970-01-01T12:18:11.145Z</time>
    </trkpt>
    <trkpt lat="56.316679" lon="60.879123">
        <ele>265.2</ele>
        <time>1970-01-01T12:18:12.145Z</time>
    </trkpt>
    <trkpt lat="56.316676" lon="60.879198">
        <ele>265.3</ele>
        <time>1970-01-01T12:18:13.145Z</time>
    </trkpt>
    <trkpt lat="56.316675" lon="60.879224">
        <ele>265.3</ele>
        <time>1970-01-01T12:18:14.145Z</time>
    </trkpt>
    <trkpt lat="56.316677" lon="60.879293">
        <ele>265.3</ele>
        <time>1970-01-01T12:18:15.145Z</time>
    </trkpt>
    <trkpt lat="56.316673" lon="60.879345">
        <ele>265.3</ele>
        <time>1970-01-01T12:18:16.145Z</time>
    </trkpt>
    <trkpt lat="56.316672" lon="60.879369">
        <ele>265.4</ele>
        <time>1970-01-01T12:18:17.145Z</time>
    </trkpt>
    <trkpt lat="56.316674" lon="60.879436">
        <ele>265.4</ele>
        <time>1970-01-01T12:18:18.145Z</time>
    </trkpt>
    <trkpt lat="56.316675" lon="60.87946">
        <ele>265.4</ele>
        <time>1970-01-01T12:18:19.145Z</time>
    </trkpt>
    <trkpt lat="56.316674" lon="60.879505">
        <ele>265.4</ele>
        <time>1970-01-01T12:18:20.145Z</time>
    </trkpt>
    <trkpt lat="56.316669" lon="60.879524">
        <ele>265.4</ele>
        <time>1970-01-01T12:18:21.145Z</time>
    </trkpt>
    <trkpt lat="56.316668" lon="60.879574">
        <ele>265.4</ele>
        <time>1970-01-01T12:18:22.145Z</time>
    </trkpt>
    <trkpt lat="56.316675" lon="60.879625">
        <ele>265.5</ele>
        <time>1970-01-01T12:18:23.145Z</time>
    </trkpt>
    <trkpt lat="56.316676" lon="60.879649">
        <ele>265.5</ele>
        <time>1970-01-01T12:18:24.145Z</time>
    </trkpt>
    <trkpt lat="56.316676" lon="60.879719">
        <ele>265.5</ele>
        <time>1970-01-01T12:18:25.145Z</time>
    </trkpt>
    <trkpt lat="56.316677" lon="60.879776">
        <ele>265.5</ele>
        <time>1970-01-01T12:18:26.145Z</time>
    </trkpt>
    <trkpt lat="56.316684" lon="60.879828">
        <ele>265.6</ele>
        <time>1970-01-01T12:18:27.145Z</time>
    </trkpt>
    <trkpt lat="56.316683" lon="60.879849">
        <ele>265.6</ele>
        <time>1970-01-01T12:18:28.145Z</time>
    </trkpt>
    <trkpt lat="56.316687" lon="60.879917">
        <ele>265.6</ele>
        <time>1970-01-01T12:18:29.145Z</time>
    </trkpt>
    <trkpt lat="56.316694" lon="60.879934">
        <ele>265.6</ele>
        <time>1970-01-01T12:18:30.145Z</time>
    </trkpt>
    <trkpt lat="56.31671" lon="60.879987">
        <ele>265.6</ele>
        <time>1970-01-01T12:18:31.145Z</time>
    </trkpt>
    <trkpt lat="56.316708" lon="60.880018">
        <ele>265.6</ele>
        <time>1970-01-01T12:18:32.145Z</time>
    </trkpt>
    <trkpt lat="56.316727" lon="60.880034">
        <ele>265.7</ele>
        <time>1970-01-01T12:18:33.145Z</time>
    </trkpt>
    <trkpt lat="56.316746" lon="60.880072">
        <ele>265.7</ele>
        <time>1970-01-01T12:18:34.145Z</time>
    </trkpt>
    <trkpt lat="56.316746" lon="60.880138">
        <ele>265.7</ele>
        <time>1970-01-01T12:18:35.145Z</time>
    </trkpt>
    <trkpt lat="56.316751" lon="60.880226">
        <ele>265.7</ele>
        <time>1970-01-01T12:18:36.145Z</time>
    </trkpt>
    <trkpt lat="56.316763" lon="60.880274">
        <ele>265.8</ele>
        <time>1970-01-01T12:18:37.145Z</time>
    </trkpt>
    <trkpt lat="56.316766" lon="60.880326">
        <ele>265.8</ele>
        <time>1970-01-01T12:18:38.145Z</time>
    </trkpt>
    <trkpt lat="56.316773" lon="60.880353">
        <ele>265.8</ele>
        <time>1970-01-01T12:18:39.145Z</time>
    </trkpt>
    <trkpt lat="56.316778" lon="60.880398">
        <ele>265.8</ele>
        <time>1970-01-01T12:18:40.145Z</time>
    </trkpt>
    <trkpt lat="56.316799" lon="60.880466">
        <ele>265.9</ele>
        <time>1970-01-01T12:18:41.145Z</time>
    </trkpt>
    <trkpt lat="56.316812" lon="60.880539">
        <ele>265.9</ele>
        <time>1970-01-01T12:18:42.145Z</time>
    </trkpt>
    <trkpt lat="56.316816" lon="60.880603">
        <ele>265.9</ele>
        <time>1970-01-01T12:18:43.145Z</time>
    </trkpt>
    <trkpt lat="56.316819" lon="60.880634">
        <ele>265.9</ele>
        <time>1970-01-01T12:18:44.145Z</time>
    </trkpt>
    <trkpt lat="56.31683" lon="60.880707">
        <ele>266.0</ele>
        <time>1970-01-01T12:18:45.145Z</time>
    </trkpt>
    <trkpt lat="56.316832" lon="60.880732">
        <ele>266.0</ele>
        <time>1970-01-01T12:18:46.145Z</time>
    </trkpt>
    <trkpt lat="56.316826" lon="60.880784">
        <ele>266.0</ele>
        <time>1970-01-01T12:18:47.145Z</time>
    </trkpt>
    <trkpt lat="56.316823" lon="60.880803">
        <ele>266.0</ele>
        <time>1970-01-01T12:18:48.145Z</time>
    </trkpt>
    <trkpt lat="56.316812" lon="60.880859">
        <ele>266.0</ele>
        <time>1970-01-01T12:18:49.145Z</time>
    </trkpt>
    <trkpt lat="56.316809" lon="60.88088">
        <ele>266.0</ele>
        <time>1970-01-01T12:18:50.145Z</time>
    </trkpt>
    <trkpt lat="56.316797" lon="60.88094">
        <ele>266.1</ele>
        <time>1970-01-01T12:18:51.145Z</time>
    </trkpt>
    <trkpt lat="56.31678" lon="60.880987">
        <ele>266.1</ele>
        <time>1970-01-01T12:18:52.145Z</time>
    </trkpt>
    <trkpt lat="56.316769" lon="60.881039">
        <ele>266.1</ele>
        <time>1970-01-01T12:18:53.145Z</time>
    </trkpt>
    <trkpt lat="56.316754" lon="60.881097">
        <ele>266.2</ele>
        <time>1970-01-01T12:18:54.145Z</time>
    </trkpt>
    <trkpt lat="56.316736" lon="60.881161">
        <ele>266.2</ele>
        <time>1970-01-01T12:18:55.145Z</time>
    </trkpt>
    <trkpt lat="56.316721" lon="60.88122">
        <ele>266.2</ele>
        <time>1970-01-01T12:18:56.145Z</time>
    </trkpt>
    <trkpt lat="56.316708" lon="60.881269">
        <ele>266.2</ele>
        <time>1970-01-01T12:18:57.145Z</time>
    </trkpt>
    <trkpt lat="56.316705" lon="60.88129">
        <ele>266.2</ele>
        <time>1970-01-01T12:18:58.145Z</time>
    </trkpt>
    <trkpt lat="56.316693" lon="60.881352">
        <ele>266.3</ele>
        <time>1970-01-01T12:18:59.145Z</time>
    </trkpt>
    <trkpt lat="56.316689" lon="60.881372">
        <ele>266.3</ele>
        <time>1970-01-01T12:19:00.145Z</time>
    </trkpt>
    <trkpt lat="56.316683" lon="60.881434">
        <ele>266.3</ele>
        <time>1970-01-01T12:19:01.145Z</time>
    </trkpt>
    <trkpt lat="56.316684" lon="60.881447">
        <ele>266.3</ele>
        <time>1970-01-01T12:19:02.145Z</time>
    </trkpt>
    <trkpt lat="56.316676" lon="60.881499">
        <ele>266.3</ele>
        <time>1970-01-01T12:19:03.145Z</time>
    </trkpt>
    <trkpt lat="56.31667" lon="60.881561">
        <ele>266.4</ele>
        <time>1970-01-01T12:19:04.145Z</time>
    </trkpt>
    <trkpt lat="56.316672" lon="60.881586">
        <ele>266.4</ele>
        <time>1970-01-01T12:19:05.145Z</time>
    </trkpt>
    <trkpt lat="56.316676" lon="60.881637">
        <ele>266.4</ele>
        <time>1970-01-01T12:19:06.145Z</time>
    </trkpt>
    <trkpt lat="56.316677" lon="60.881661">
        <ele>266.4</ele>
        <time>1970-01-01T12:19:07.145Z</time>
    </trkpt>
    <trkpt lat="56.316687" lon="60.88173">
        <ele>266.4</ele>
        <time>1970-01-01T12:19:08.145Z</time>
    </trkpt>
    <trkpt lat="56.316689" lon="60.881753">
        <ele>266.5</ele>
        <time>1970-01-01T12:19:09.145Z</time>
    </trkpt>
    <trkpt lat="56.316695" lon="60.88181">
        <ele>266.5</ele>
        <time>1970-01-01T12:19:10.145Z</time>
    </trkpt>
    <trkpt lat="56.316694" lon="60.881836">
        <ele>266.5</ele>
        <time>1970-01-01T12:19:11.145Z</time>
    </trkpt>
    <trkpt lat="56.316694" lon="60.881908">
        <ele>266.5</ele>
        <time>1970-01-01T12:19:12.145Z</time>
    </trkpt>
    <trkpt lat="56.316692" lon="60.881927">
        <ele>266.5</ele>
        <time>1970-01-01T12:19:13.145Z</time>
    </trkpt>
    <trkpt lat="56.316693" lon="60.881988">
        <ele>266.6</ele>
        <time>1970-01-01T12:19:14.145Z</time>
    </trkpt>
    <trkpt lat="56.316685" lon="60.882046">
        <ele>266.6</ele>
        <time>1970-01-01T12:19:15.145Z</time>
    </trkpt>
    <trkpt lat="56.316678" lon="60.882086">
        <ele>266.6</ele>
        <time>1970-01-01T12:19:16.145Z</time>
    </trkpt>
    <trkpt lat="56.316675" lon="60.88217">
        <ele>266.6</ele>
        <time>1970-01-01T12:19:17.145Z</time>
    </trkpt>
    <trkpt lat="56.316679" lon="60.882232">
        <ele>266.7</ele>
        <time>1970-01-01T12:19:18.145Z</time>
    </trkpt>
    <trkpt lat="56.316669" lon="60.882296">
        <ele>266.7</ele>
        <time>1970-01-01T12:19:19.145Z</time>
    </trkpt>
    <trkpt lat="56.316664" lon="60.882329">
        <ele>266.7</ele>
        <time>1970-01-01T12:19:20.145Z</time>
    </trkpt>
    <trkpt lat="56.316662" lon="60.8824">
        <ele>266.7</ele>
        <time>1970-01-01T12:19:21.145Z</time>
    </trkpt>
    <trkpt lat="56.316663" lon="60.882427">
        <ele>266.8</ele>
        <time>1970-01-01T12:19:22.145Z</time>
    </trkpt>
    <trkpt lat="56.316663" lon="60.882495">
        <ele>266.8</ele>
        <time>1970-01-01T12:19:23.145Z</time>
    </trkpt>
    <trkpt lat="56.316658" lon="60.882519">
        <ele>266.8</ele>
        <time>1970-01-01T12:19:24.145Z</time>
    </trkpt>
    <trkpt lat="56.316658" lon="60.882574">
        <ele>266.8</ele>
        <time>1970-01-01T12:19:25.145Z</time>
    </trkpt>
    <trkpt lat="56.316652" lon="60.882625">
        <ele>266.8</ele>
        <time>1970-01-01T12:19:26.145Z</time>
    </trkpt>
    <trkpt lat="56.31665" lon="60.882676">
        <ele>266.9</ele>
        <time>1970-01-01T12:19:27.145Z</time>
    </trkpt>
    <trkpt lat="56.316648" lon="60.882696">
        <ele>266.9</ele>
        <time>1970-01-01T12:19:28.145Z</time>
    </trkpt>
    <trkpt lat="56.316643" lon="60.882752">
        <ele>266.9</ele>
        <time>1970-01-01T12:19:29.145Z</time>
    </trkpt>
    <trkpt lat="56.316641" lon="60.882782">
        <ele>266.9</ele>
        <time>1970-01-01T12:19:30.145Z</time>
    </trkpt>
    <trkpt lat="56.316639" lon="60.882807">
        <ele>266.9</ele>
        <time>1970-01-01T12:19:31.145Z</time>
    </trkpt>
    <trkpt lat="56.316638" lon="60.882858">
        <ele>266.9</ele>
        <time>1970-01-01T12:19:32.145Z</time>
    </trkpt>
    <trkpt lat="56.316639" lon="60.882885">
        <ele>267.0</ele>
        <time>1970-01-01T12:19:33.145Z</time>
    </trkpt>
    <trkpt lat="56.316644" lon="60.882949">
        <ele>267.0</ele>
        <time>1970-01-01T12:19:34.145Z</time>
    </trkpt>
    <trkpt lat="56.316642" lon="60.882972">
        <ele>267.0</ele>
        <time>1970-01-01T12:19:35.145Z</time>
    </trkpt>
    <trkpt lat="56.316641" lon="60.883029">
        <ele>267.0</ele>
        <time>1970-01-01T12:19:36.145Z</time>
    </trkpt>
    <trkpt lat="56.316634" lon="60.883048">
        <ele>267.0</ele>
        <time>1970-01-01T12:19:37.145Z</time>
    </trkpt>
    <trkpt lat="56.316628" lon="60.883099">
        <ele>267.0</ele>
        <time>1970-01-01T12:19:38.145Z</time>
    </trkpt>
    <trkpt lat="56.316626" lon="60.883126">
        <ele>267.1</ele>
        <time>1970-01-01T12:19:39.145Z</time>
    </trkpt>
    <trkpt lat="56.31662" lon="60.883197">
        <ele>267.1</ele>
        <time>1970-01-01T12:19:40.145Z</time>
    </trkpt>
    <trkpt lat="56.316608" lon="60.883251">
        <ele>267.1</ele>
        <time>1970-01-01T12:19:41.145Z</time>
    </trkpt>
    <trkpt lat="56.316595" lon="60.883318">
        <ele>267.1</ele>
        <time>1970-01-01T12:19:42.145Z</time>
    </trkpt>
    <trkpt lat="56.316584" lon="60.883376">
        <ele>267.2</ele>
        <time>1970-01-01T12:19:43.145Z</time>
    </trkpt>
    <trkpt lat="56.316583" lon="60.883402">
        <ele>267.2</ele>
        <time>1970-01-01T12:19:44.145Z</time>
    </trkpt>
    <trkpt lat="56.316586" lon="60.883477">
        <ele>267.2</ele>
        <time>1970-01-01T12:19:45.145Z</time>
    </trkpt>
    <trkpt lat="56.316577" lon="60.883571">
        <ele>267.3</ele>
        <time>1970-01-01T12:19:46.145Z</time>
    </trkpt>
    <trkpt lat="56.31658" lon="60.883649">
        <ele>267.3</ele>
        <time>1970-01-01T12:19:47.145Z</time>
    </trkpt>
    <trkpt lat="56.316576" lon="60.883744">
        <ele>267.3</ele>
        <time>1970-01-01T12:19:48.145Z</time>
    </trkpt>
    <trkpt lat="56.316576" lon="60.883849">
        <ele>267.4</ele>
        <time>1970-01-01T12:19:49.145Z</time>
    </trkpt>
    <trkpt lat="56.316584" lon="60.883948">
        <ele>267.4</ele>
        <time>1970-01-01T12:19:50.145Z</time>
    </trkpt>
    <trkpt lat="56.316593" lon="60.884041">
        <ele>267.5</ele>
        <time>1970-01-01T12:19:51.145Z</time>
    </trkpt>
    <trkpt lat="56.3166" lon="60.884122">
        <ele>267.5</ele>
        <time>1970-01-01T12:19:52.145Z</time>
    </trkpt>
    <trkpt lat="56.316616" lon="60.884228">
        <ele>267.5</ele>
        <time>1970-01-01T12:19:53.145Z</time>
    </trkpt>
    <trkpt lat="56.316631" lon="60.884317">
        <ele>267.6</ele>
        <time>1970-01-01T12:19:54.145Z</time>
    </trkpt>
    <trkpt lat="56.316659" lon="60.884372">
        <ele>267.6</ele>
        <time>1970-01-01T12:19:55.145Z</time>
    </trkpt>
    <trkpt lat="56.316692" lon="60.88445">
        <ele>267.7</ele>
        <time>1970-01-01T12:19:56.145Z</time>
    </trkpt>
    <trkpt lat="56.316723" lon="60.884539">
        <ele>267.7</ele>
        <time>1970-01-01T12:19:57.145Z</time>
    </trkpt>
    <trkpt lat="56.316764" lon="60.884594">
        <ele>267.8</ele>
        <time>1970-01-01T12:19:58.145Z</time>
    </trkpt>
    <trkpt lat="56.316792" lon="60.884641">
        <ele>267.8</ele>
        <time>1970-01-01T12:19:59.145Z</time>
    </trkpt>
    <trkpt lat="56.31683" lon="60.88468">
        <ele>267.8</ele>
        <time>1970-01-01T12:20:00.145Z</time>
    </trkpt>
    <trkpt lat="56.31683855238116" lon="60.88469937812424">
        <ele>267.8</ele>
        <time>1970-01-01T12:20:00.645Z</time>
    </trkpt>
    <trkpt lat="56.31685440376107" lon="60.88490135684891">
        <ele>267.9</ele>
        <time>1970-01-01T12:25:29.645Z</time>
    </trkpt>
    <trkpt lat="56.316852" lon="60.884913">
        <ele>267.9</ele>
        <time>1970-01-01T12:25:30.145Z</time>
    </trkpt>
    <trkpt lat="56.316844" lon="60.885001">
        <ele>268.0</ele>
        <time>1970-01-01T12:25:31.145Z</time>
    </trkpt>
    <trkpt lat="56.316841" lon="60.885088">
        <ele>268.0</ele>
        <time>1970-01-01T12:25:32.145Z</time>
    </trkpt>
    <trkpt lat="56.316839" lon="60.885164">
        <ele>268.0</ele>
        <time>1970-01-01T12:25:33.145Z</time>
    </trkpt>
    <trkpt lat="56.31684" lon="60.885237">
        <ele>268.1</ele>
        <time>1970-01-01T12:25:34.145Z</time>
    </trkpt>
    <trkpt lat="56.31685" lon="60.885315">
        <ele>268.1</ele>
        <time>1970-01-01T12:25:35.145Z</time>
    </trkpt>
    <trkpt lat="56.316846" lon="60.885371">
        <ele>268.1</ele>
        <time>1970-01-01T12:25:36.145Z</time>
    </trkpt>
    <trkpt lat="56.316833" lon="60.885438">
        <ele>268.2</ele>
        <time>1970-01-01T12:25:37.145Z</time>
    </trkpt>
    <trkpt lat="56.316825" lon="60.8855">
        <ele>268.2</ele>
        <time>1970-01-01T12:25:38.145Z</time>
    </trkpt>
    <trkpt lat="56.316824" lon="60.885526">
        <ele>268.2</ele>
        <time>1970-01-01T12:25:39.145Z</time>
    </trkpt>
    <trkpt lat="56.316822" lon="60.885599">
        <ele>268.2</ele>
        <time>1970-01-01T12:25:40.145Z</time>
    </trkpt>
    <trkpt lat="56.316816" lon="60.88567">
        <ele>268.3</ele>
        <time>1970-01-01T12:25:41.145Z</time>
    </trkpt>
    <trkpt lat="56.316815" lon="60.885725">
        <ele>268.3</ele>
        <time>1970-01-01T12:25:42.145Z</time>
    </trkpt>
    <trkpt lat="56.316809" lon="60.885752">
        <ele>268.3</ele>
        <time>1970-01-01T12:25:43.145Z</time>
    </trkpt>
    <trkpt lat="56.316792" lon="60.885803">
        <ele>268.3</ele>
        <time>1970-01-01T12:25:44.145Z</time>
    </trkpt>
    <trkpt lat="56.316785" lon="60.885822">
        <ele>268.4</ele>
        <time>1970-01-01T12:25:45.145Z</time>
    </trkpt>
    <trkpt lat="56.316777" lon="60.885881">
        <ele>268.4</ele>
        <time>1970-01-01T12:25:46.145Z</time>
    </trkpt>
    <trkpt lat="56.316762" lon="60.885939">
        <ele>268.4</ele>
        <time>1970-01-01T12:25:47.145Z</time>
    </trkpt>
    <trkpt lat="56.316743" lon="60.885979">
        <ele>268.4</ele>
        <time>1970-01-01T12:25:48.145Z</time>
    </trkpt>
    <trkpt lat="56.31672" lon="60.886036">
        <ele>268.5</ele>
        <time>1970-01-01T12:25:49.145Z</time>
    </trkpt>
    <trkpt lat="56.316719" lon="60.886068">
        <ele>268.5</ele>
        <time>1970-01-01T12:25:50.145Z</time>
    </trkpt>
    <trkpt lat="56.316713" lon="60.886135">
        <ele>268.5</ele>
        <time>1970-01-01T12:25:51.145Z</time>
    </trkpt>
    <trkpt lat="56.316709" lon="60.886152">
        <ele>268.5</ele>
        <time>1970-01-01T12:25:52.145Z</time>
    </trkpt>
    <trkpt lat="56.316709" lon="60.886211">
        <ele>268.5</ele>
        <time>1970-01-01T12:25:53.145Z</time>
    </trkpt>
    <trkpt lat="56.316694" lon="60.886296">
        <ele>268.6</ele>
        <time>1970-01-01T12:25:54.145Z</time>
    </trkpt>
    <trkpt lat="56.316683" lon="60.886352">
        <ele>268.6</ele>
        <time>1970-01-01T12:25:55.145Z</time>
    </trkpt>
    <trkpt lat="56.316676" lon="60.88638">
        <ele>268.6</ele>
        <time>1970-01-01T12:25:56.145Z</time>
    </trkpt>
    <trkpt lat="56.316658" lon="60.886437">
        <ele>268.6</ele>
        <time>1970-01-01T12:25:57.145Z</time>
    </trkpt>
    <trkpt lat="56.316653" lon="60.886457">
        <ele>268.7</ele>
        <time>1970-01-01T12:25:58.145Z</time>
    </trkpt>
    <trkpt lat="56.316633" lon="60.886512">
        <ele>268.7</ele>
        <time>1970-01-01T12:25:59.145Z</time>
    </trkpt>
    <trkpt lat="56.31663" lon="60.886543">
        <ele>268.7</ele>
        <time>1970-01-01T12:26:00.145Z</time>
    </trkpt>
    <trkpt lat="56.316619" lon="60.886616">
        <ele>268.7</ele>
        <time>1970-01-01T12:26:01.145Z</time>
    </trkpt>
    <trkpt lat="56.316613" lon="60.886674">
        <ele>268.8</ele>
        <time>1970-01-01T12:26:02.145Z</time>
    </trkpt>
    <trkpt lat="56.316614" lon="60.886733">
        <ele>268.8</ele>
        <time>1970-01-01T12:26:03.145Z</time>
    </trkpt>
    <trkpt lat="56.316614" lon="60.886763">
        <ele>268.8</ele>
        <time>1970-01-01T12:26:04.145Z</time>
    </trkpt>
    <trkpt lat="56.316617" lon="60.886837">
        <ele>268.8</ele>
        <time>1970-01-01T12:26:05.145Z</time>
    </trkpt>
    <trkpt lat="56.316621" lon="60.886899">
        <ele>268.9</ele>
        <time>1970-01-01T12:26:06.145Z</time>
    </trkpt>
    <trkpt lat="56.316625" lon="60.88698">
        <ele>268.9</ele>
        <time>1970-01-01T12:26:07.145Z</time>
    </trkpt>
    <trkpt lat="56.31662" lon="60.887045">
        <ele>268.9</ele>
        <time>1970-01-01T12:26:08.145Z</time>
    </trkpt>
    <trkpt lat="56.316626" lon="60.887114">
        <ele>269.0</ele>
        <time>1970-01-01T12:26:09.145Z</time>
    </trkpt>
    <trkpt lat="56.316626" lon="60.887181">
        <ele>269.0</ele>
        <time>1970-01-01T12:26:10.145Z</time>
    </trkpt>
    <trkpt lat="56.316628" lon="60.887239">
        <ele>269.0</ele>
        <time>1970-01-01T12:26:11.145Z</time>
    </trkpt>
    <trkpt lat="56.316626" lon="60.887299">
        <ele>269.0</ele>
        <time>1970-01-01T12:26:12.145Z</time>
    </trkpt>
    <trkpt lat="56.316629" lon="60.887358">
        <ele>269.1</ele>
        <time>1970-01-01T12:26:13.145Z</time>
    </trkpt>
    <trkpt lat="56.316621" lon="60.887459">
        <ele>269.1</ele>
        <time>1970-01-01T12:26:14.145Z</time>
    </trkpt>
    <trkpt lat="56.316612" lon="60.887521">
        <ele>269.1</ele>
        <time>1970-01-01T12:26:15.145Z</time>
    </trkpt>
    <trkpt lat="56.316615" lon="60.887578">
        <ele>269.2</ele>
        <time>1970-01-01T12:26:16.145Z</time>
    </trkpt>
    <trkpt lat="56.316623" lon="60.887656">
        <ele>269.2</ele>
        <time>1970-01-01T12:26:17.145Z</time>
    </trkpt>
    <trkpt lat="56.316626" lon="60.887739">
        <ele>269.2</ele>
        <time>1970-01-01T12:26:18.145Z</time>
    </trkpt>
    <trkpt lat="56.316607" lon="60.887823">
        <ele>269.3</ele>
        <time>1970-01-01T12:26:19.145Z</time>
    </trkpt>
    <trkpt lat="56.316606" lon="60.887913">
        <ele>269.3</ele>
        <time>1970-01-01T12:26:20.145Z</time>
    </trkpt>
    <trkpt lat="56.316608" lon="60.887988">
        <ele>269.4</ele>
        <time>1970-01-01T12:26:21.145Z</time>
    </trkpt>
    <trkpt lat="56.3166" lon="60.888056">
        <ele>269.4</ele>
        <time>1970-01-01T12:26:22.145Z</time>
    </trkpt>
    <trkpt lat="56.316607" lon="60.888129">
        <ele>269.4</ele>
        <time>1970-01-01T12:26:23.145Z</time>
    </trkpt>
    <trkpt lat="56.31662" lon="60.888185">
        <ele>269.4</ele>
        <time>1970-01-01T12:26:24.145Z</time>
    </trkpt>
    <trkpt lat="56.31662" lon="60.888246">
        <ele>269.5</ele>
        <time>1970-01-01T12:26:25.145Z</time>
    </trkpt>
    <trkpt lat="56.316609" lon="60.888271">
        <ele>269.5</ele>
        <time>1970-01-01T12:26:26.145Z</time>
    </trkpt>
    <trkpt lat="56.316603" lon="60.888322">
        <ele>269.5</ele>
        <time>1970-01-01T12:26:27.145Z</time>
    </trkpt>
    <trkpt lat="56.3166" lon="60.888356">
        <ele>269.5</ele>
        <time>1970-01-01T12:26:28.145Z</time>
    </trkpt>
    <trkpt lat="56.316604" lon="60.88838">
        <ele>269.5</ele>
        <time>1970-01-01T12:26:29.145Z</time>
    </trkpt>
    <trkpt lat="56.316601" lon="60.888401">
        <ele>269.5</ele>
        <time>1970-01-01T12:26:30.145Z</time>
    </trkpt>
    <trkpt lat="56.316593" lon="60.888469">
        <ele>269.6</ele>
        <time>1970-01-01T12:26:31.145Z</time>
    </trkpt>
    <trkpt lat="56.316595" lon="60.88849">
        <ele>269.6</ele>
        <time>1970-01-01T12:26:32.145Z</time>
    </trkpt>
    <trkpt lat="56.316601" lon="60.888551">
        <ele>269.6</ele>
        <time>1970-01-01T12:26:33.145Z</time>
    </trkpt>
    <trkpt lat="56.316597" lon="60.888576">
        <ele>269.6</ele>
        <time>1970-01-01T12:26:34.145Z</time>
    </trkpt>
    <trkpt lat="56.316596" lon="60.888642">
        <ele>269.7</ele>
        <time>1970-01-01T12:26:35.145Z</time>
    </trkpt>
    <trkpt lat="56.316593" lon="60.888665">
        <ele>269.7</ele>
        <time>1970-01-01T12:26:36.145Z</time>
    </trkpt>
    <trkpt lat="56.316589" lon="60.888719">
        <ele>269.7</ele>
        <time>1970-01-01T12:26:37.145Z</time>
    </trkpt>
    <trkpt lat="56.316591" lon="60.888733">
        <ele>269.7</ele>
        <time>1970-01-01T12:26:38.145Z</time>
    </trkpt>
    <trkpt lat="56.316583" lon="60.888785">
        <ele>269.7</ele>
        <time>1970-01-01T12:26:39.145Z</time>
    </trkpt>
    <trkpt lat="56.316588" lon="60.888818">
        <ele>269.7</ele>
        <time>1970-01-01T12:26:40.145Z</time>
    </trkpt>
    <trkpt lat="56.316587" lon="60.888842">
        <ele>269.7</ele>
        <time>1970-01-01T12:26:41.145Z</time>
    </trkpt>
    <trkpt lat="56.316581" lon="60.888876">
        <ele>269.8</ele>
        <time>1970-01-01T12:26:42.145Z</time>
    </trkpt>
    <trkpt lat="56.316575" lon="60.888893">
        <ele>269.8</ele>
        <time>1970-01-01T12:26:43.145Z</time>
    </trkpt>
    <trkpt lat="56.316575" lon="60.888912">
        <ele>269.8</ele>
        <time>1970-01-01T12:26:44.145Z</time>
    </trkpt>
    <trkpt lat="56.316573" lon="60.888955">
        <ele>269.8</ele>
        <time>1970-01-01T12:26:45.145Z</time>
    </trkpt>
    <trkpt lat="56.31657" lon="60.888976">
        <ele>269.8</ele>
        <time>1970-01-01T12:26:46.145Z</time>
    </trkpt>
    <trkpt lat="56.316554" lon="60.889035">
        <ele>269.8</ele>
        <time>1970-01-01T12:26:47.145Z</time>
    </trkpt>
    <trkpt lat="56.316559" lon="60.889069">
        <ele>269.8</ele>
        <time>1970-01-01T12:26:48.145Z</time>
    </trkpt>
    <trkpt lat="56.316562" lon="60.889091">
        <ele>269.9</ele>
        <time>1970-01-01T12:26:49.145Z</time>
    </trkpt>
    <trkpt lat="56.316563" lon="60.889107">
        <ele>269.9</ele>
        <time>1970-01-01T12:26:50.145Z</time>
    </trkpt>
    <trkpt lat="56.31656" lon="60.889164">
        <ele>269.9</ele>
        <time>1970-01-01T12:26:51.145Z</time>
    </trkpt>
    <trkpt lat="56.31656" lon="60.88919">
        <ele>269.9</ele>
        <time>1970-01-01T12:26:52.145Z</time>
    </trkpt>
    <trkpt lat="56.316548" lon="60.889236">
        <ele>269.9</ele>
        <time>1970-01-01T12:26:53.145Z</time>
    </trkpt>
    <trkpt lat="56.316548" lon="60.889255">
        <ele>269.9</ele>
        <time>1970-01-01T12:26:54.145Z</time>
    </trkpt>
    <trkpt lat="56.316548" lon="60.889303">
        <ele>270.0</ele>
        <time>1970-01-01T12:26:55.145Z</time>
    </trkpt>
    <trkpt lat="56.316545" lon="60.889317">
        <ele>270.0</ele>
        <time>1970-01-01T12:26:56.145Z</time>
    </trkpt>
    <trkpt lat="56.316549" lon="60.889353">
        <ele>270.0</ele>
        <time>1970-01-01T12:26:57.145Z</time>
    </trkpt>
    <trkpt lat="56.316549" lon="60.88938">
        <ele>270.0</ele>
        <time>1970-01-01T12:26:58.145Z</time>
    </trkpt>
    <trkpt lat="56.316543" lon="60.889404">
        <ele>270.0</ele>
        <time>1970-01-01T12:26:59.145Z</time>
    </trkpt>
    <trkpt lat="56.316547" lon="60.889422">
        <ele>270.0</ele>
        <time>1970-01-01T12:27:00.145Z</time>
    </trkpt>
    <trkpt lat="56.316554" lon="60.889471">
        <ele>270.0</ele>
        <time>1970-01-01T12:27:01.145Z</time>
    </trkpt>
    <trkpt lat="56.316561" lon="60.889497">
        <ele>270.0</ele>
        <time>1970-01-01T12:27:02.145Z</time>
    </trkpt>
    <trkpt lat="56.316562" lon="60.889531">
        <ele>270.1</ele>
        <time>1970-01-01T12:27:03.145Z</time>
    </trkpt>
    <trkpt lat="56.316561" lon="60.889548">
        <ele>270.1</ele>
        <time>1970-01-01T12:27:04.145Z</time>
    </trkpt>
    <trkpt lat="56.31656" lon="60.889566">
        <ele>270.1</ele>
        <time>1970-01-01T12:27:05.145Z</time>
    </trkpt>
    <trkpt lat="56.316559" lon="60.889603">
        <ele>270.1</ele>
        <time>1970-01-01T12:27:06.145Z</time>
    </trkpt>
    <trkpt lat="56.316558" lon="60.889621">
        <ele>270.1</ele>
        <time>1970-01-01T12:27:07.145Z</time>
    </trkpt>
    <trkpt lat="56.316559" lon="60.889671">
        <ele>270.1</ele>
        <time>1970-01-01T12:27:08.145Z</time>
    </trkpt>
    <trkpt lat="56.316559" lon="60.889685">
        <ele>270.1</ele>
        <time>1970-01-01T12:27:09.145Z</time>
    </trkpt>
    <trkpt lat="56.31656" lon="60.8897">
        <ele>270.1</ele>
        <time>1970-01-01T12:27:10.145Z</time>
    </trkpt>
    <trkpt lat="56.316557" lon="60.889738">
        <ele>270.2</ele>
        <time>1970-01-01T12:27:11.145Z</time>
    </trkpt>
    <trkpt lat="56.316562" lon="60.889762">
        <ele>270.2</ele>
        <time>1970-01-01T12:27:12.145Z</time>
    </trkpt>
    <trkpt lat="56.316563" lon="60.889795">
        <ele>270.2</ele>
        <time>1970-01-01T12:27:13.145Z</time>
    </trkpt>
    <trkpt lat="56.316566" lon="60.889809">
        <ele>270.2</ele>
        <time>1970-01-01T12:27:14.145Z</time>
    </trkpt>
    <trkpt lat="56.316573" lon="60.889861">
        <ele>270.2</ele>
        <time>1970-01-01T12:27:15.145Z</time>
    </trkpt>
    <trkpt lat="56.316573" lon="60.889894">
        <ele>270.2</ele>
        <time>1970-01-01T12:27:16.145Z</time>
    </trkpt>
    <trkpt lat="56.316576" lon="60.889918">
        <ele>270.2</ele>
        <time>1970-01-01T12:27:17.145Z</time>
    </trkpt>
    <trkpt lat="56.316578" lon="60.889939">
        <ele>270.2</ele>
        <time>1970-01-01T12:27:18.145Z</time>
    </trkpt>
    <trkpt lat="56.316584" lon="60.889968">
        <ele>270.3</ele>
        <time>1970-01-01T12:27:19.145Z</time>
    </trkpt>
    <trkpt lat="56.316585" lon="60.889984">
        <ele>270.3</ele>
        <time>1970-01-01T12:27:20.145Z</time>
    </trkpt>
    <trkpt lat="56.316587" lon="60.890001">
        <ele>270.3</ele>
        <time>1970-01-01T12:27:21.145Z</time>
    </trkpt>
    <trkpt lat="56.316592" lon="60.890035">
        <ele>270.3</ele>
        <time>1970-01-01T12:27:22.145Z</time>
    </trkpt>
    <trkpt lat="56.316595" lon="60.89005">
        <ele>270.3</ele>
        <time>1970-01-01T12:27:23.145Z</time>
    </trkpt>
    <trkpt lat="56.316604" lon="60.890098">
        <ele>270.3</ele>
        <time>1970-01-01T12:27:24.145Z</time>
    </trkpt>
    <trkpt lat="56.316605" lon="60.89013">
        <ele>270.3</ele>
        <time>1970-01-01T12:27:25.145Z</time>
    </trkpt>
    <trkpt lat="56.316607" lon="60.890158">
        <ele>270.3</ele>
        <time>1970-01-01T12:27:26.145Z</time>
    </trkpt>
    <trkpt lat="56.316611" lon="60.890175">
        <ele>270.4</ele>
        <time>1970-01-01T12:27:27.145Z</time>
    </trkpt>
    <trkpt lat="56.316622" lon="60.89022">
        <ele>270.4</ele>
        <time>1970-01-01T12:27:28.145Z</time>
    </trkpt>
    <trkpt lat="56.31663" lon="60.890243">
        <ele>270.4</ele>
        <time>1970-01-01T12:27:29.145Z</time>
    </trkpt>
    <trkpt lat="56.316635" lon="60.890272">
        <ele>270.4</ele>
        <time>1970-01-01T12:27:30.145Z</time>
    </trkpt>
    <trkpt lat="56.316637" lon="60.890304">
        <ele>270.4</ele>
        <time>1970-01-01T12:27:31.145Z</time>
    </trkpt>
    <trkpt lat="56.316634" lon="60.890332">
        <ele>270.4</ele>
        <time>1970-01-01T12:27:32.145Z</time>
    </trkpt>
    <trkpt lat="56.31663" lon="60.890355">
        <ele>270.4</ele>
        <time>1970-01-01T12:27:33.145Z</time>
    </trkpt>
    <trkpt lat="56.316629" lon="60.890392">
        <ele>270.5</ele>
        <time>1970-01-01T12:27:34.145Z</time>
    </trkpt>
    <trkpt lat="56.316627" lon="60.89041">
        <ele>270.5</ele>
        <time>1970-01-01T12:27:35.145Z</time>
    </trkpt>
    <trkpt lat="56.316624" lon="60.890428">
        <ele>270.5</ele>
        <time>1970-01-01T12:27:36.145Z</time>
    </trkpt>
    <trkpt lat="56.316627" lon="60.89047">
        <ele>270.5</ele>
        <time>1970-01-01T12:27:37.145Z</time>
    </trkpt>
    <trkpt lat="56.316624" lon="60.890503">
        <ele>270.5</ele>
        <time>1970-01-01T12:27:38.145Z</time>
    </trkpt>
    <trkpt lat="56.316629" lon="60.890525">
        <ele>270.5</ele>
        <time>1970-01-01T12:27:39.145Z</time>
    </trkpt>
    <trkpt lat="56.316628" lon="60.890573">
        <ele>270.5</ele>
        <time>1970-01-01T12:27:40.145Z</time>
    </trkpt>
    <trkpt lat="56.31663" lon="60.890589">
        <ele>270.5</ele>
        <time>1970-01-01T12:27:41.145Z</time>
    </trkpt>
    <trkpt lat="56.316629" lon="60.890644">
        <ele>270.6</ele>
        <time>1970-01-01T12:27:42.145Z</time>
    </trkpt>
    <trkpt lat="56.31663" lon="60.890662">
        <ele>270.6</ele>
        <time>1970-01-01T12:27:43.145Z</time>
    </trkpt>
    <trkpt lat="56.316634" lon="60.890718">
        <ele>270.6</ele>
        <time>1970-01-01T12:27:44.145Z</time>
    </trkpt>
    <trkpt lat="56.316634" lon="60.890748">
        <ele>270.6</ele>
        <time>1970-01-01T12:27:45.145Z</time>
    </trkpt>
    <trkpt lat="56.316634" lon="60.890768">
        <ele>270.6</ele>
        <time>1970-01-01T12:27:46.145Z</time>
    </trkpt>
    <trkpt lat="56.316642" lon="60.890807">
        <ele>270.6</ele>
        <time>1970-01-01T12:27:47.145Z</time>
    </trkpt>
    <trkpt lat="56.31664" lon="60.890828">
        <ele>270.7</ele>
        <time>1970-01-01T12:27:48.145Z</time>
    </trkpt>
    <trkpt lat="56.316649" lon="60.890875">
        <ele>270.7</ele>
        <time>1970-01-01T12:27:49.145Z</time>
    </trkpt>
    <trkpt lat="56.316654" lon="60.890929">
        <ele>270.7</ele>
        <time>1970-01-01T12:27:50.145Z</time>
    </trkpt>
    <trkpt lat="56.316651" lon="60.890956">
        <ele>270.7</ele>
        <time>1970-01-01T12:27:51.145Z</time>
    </trkpt>
    <trkpt lat="56.316646" lon="60.890989">
        <ele>270.7</ele>
        <time>1970-01-01T12:27:52.145Z</time>
    </trkpt>
    <trkpt lat="56.316643" lon="60.89101">
        <ele>270.7</ele>
        <time>1970-01-01T12:27:53.145Z</time>
    </trkpt>
    <trkpt lat="56.316639" lon="60.891072">
        <ele>270.8</ele>
        <time>1970-01-01T12:27:54.145Z</time>
    </trkpt>
    <trkpt lat="56.316638" lon="60.891098">
        <ele>270.8</ele>
        <time>1970-01-01T12:27:55.145Z</time>
    </trkpt>
    <trkpt lat="56.316638" lon="60.891166">
        <ele>270.8</ele>
        <time>1970-01-01T12:27:56.145Z</time>
    </trkpt>
    <trkpt lat="56.316636" lon="60.891184">
        <ele>270.8</ele>
        <time>1970-01-01T12:27:57.145Z</time>
    </trkpt>
    <trkpt lat="56.316633" lon="60.891238">
        <ele>270.8</ele>
        <time>1970-01-01T12:27:58.145Z</time>
    </trkpt>
    <trkpt lat="56.316631" lon="60.891262">
        <ele>270.8</ele>
        <time>1970-01-01T12:27:59.145Z</time>
    </trkpt>
    <trkpt lat="56.316625" lon="60.891315">
        <ele>270.9</ele>
        <time>1970-01-01T12:28:00.145Z</time>
    </trkpt>
    <trkpt lat="56.316623" lon="60.891364">
        <ele>270.9</ele>
        <time>1970-01-01T12:28:01.145Z</time>
    </trkpt>
    <trkpt lat="56.316624" lon="60.891388">
        <ele>270.9</ele>
        <time>1970-01-01T12:28:02.145Z</time>
    </trkpt>
    <trkpt lat="56.316623" lon="60.891451">
        <ele>270.9</ele>
        <time>1970-01-01T12:28:03.145Z</time>
    </trkpt>
    <trkpt lat="56.316622" lon="60.891474">
        <ele>270.9</ele>
        <time>1970-01-01T12:28:04.145Z</time>
    </trkpt>
    <trkpt lat="56.316623" lon="60.891532">
        <ele>271.0</ele>
        <time>1970-01-01T12:28:05.145Z</time>
    </trkpt>
    <trkpt lat="56.316618" lon="60.891558">
        <ele>271.0</ele>
        <time>1970-01-01T12:28:06.145Z</time>
    </trkpt>
    <trkpt lat="56.316616" lon="60.891621">
        <ele>270.9</ele>
        <time>1970-01-01T12:28:07.145Z</time>
    </trkpt>
    <trkpt lat="56.316613" lon="60.89165">
        <ele>270.9</ele>
        <time>1970-01-01T12:28:08.145Z</time>
    </trkpt>
    <trkpt lat="56.31661" lon="60.891703">
        <ele>270.8</ele>
        <time>1970-01-01T12:28:09.145Z</time>
    </trkpt>
    <trkpt lat="56.31661" lon="60.891724">
        <ele>270.8</ele>
        <time>1970-01-01T12:28:10.145Z</time>
    </trkpt>
    <trkpt lat="56.316607" lon="60.891776">
        <ele>270.7</ele>
        <time>1970-01-01T12:28:11.145Z</time>
    </trkpt>
    <trkpt lat="56.316605" lon="60.891793">
        <ele>270.7</ele>
        <time>1970-01-01T12:28:12.145Z</time>
    </trkpt>
    <trkpt lat="56.316597" lon="60.891846">
        <ele>270.6</ele>
        <time>1970-01-01T12:28:13.145Z</time>
    </trkpt>
    <trkpt lat="56.316597" lon="60.891899">
        <ele>270.6</ele>
        <time>1970-01-01T12:28:14.145Z</time>
    </trkpt>
    <trkpt lat="56.316596" lon="60.891917">
        <ele>270.5</ele>
        <time>1970-01-01T12:28:15.145Z</time>
    </trkpt>
    <trkpt lat="56.316585" lon="60.891966">
        <ele>270.5</ele>
        <time>1970-01-01T12:28:16.145Z</time>
    </trkpt>
    <trkpt lat="56.316584" lon="60.891985">
        <ele>270.4</ele>
        <time>1970-01-01T12:28:17.145Z</time>
    </trkpt>
    <trkpt lat="56.316583" lon="60.892045">
        <ele>270.4</ele>
        <time>1970-01-01T12:28:18.145Z</time>
    </trkpt>
    <trkpt lat="56.316583" lon="60.892066">
        <ele>270.3</ele>
        <time>1970-01-01T12:28:19.145Z</time>
    </trkpt>
    <trkpt lat="56.316578" lon="60.89213">
        <ele>270.3</ele>
        <time>1970-01-01T12:28:20.145Z</time>
    </trkpt>
    <trkpt lat="56.316576" lon="60.892151">
        <ele>270.2</ele>
        <time>1970-01-01T12:28:21.145Z</time>
    </trkpt>
    <trkpt lat="56.316577" lon="60.892212">
        <ele>270.1</ele>
        <time>1970-01-01T12:28:22.145Z</time>
    </trkpt>
    <trkpt lat="56.316576" lon="60.892227">
        <ele>270.1</ele>
        <time>1970-01-01T12:28:23.145Z</time>
    </trkpt>
    <trkpt lat="56.316576" lon="60.892279">
        <ele>270.1</ele>
        <time>1970-01-01T12:28:24.145Z</time>
    </trkpt>
    <trkpt lat="56.316575" lon="60.89233">
        <ele>270.0</ele>
        <time>1970-01-01T12:28:25.145Z</time>
    </trkpt>
    <trkpt lat="56.316575" lon="60.892349">
        <ele>270.0</ele>
        <time>1970-01-01T12:28:26.145Z</time>
    </trkpt>
    <trkpt lat="56.316573" lon="60.892408">
        <ele>269.9</ele>
        <time>1970-01-01T12:28:27.145Z</time>
    </trkpt>
    <trkpt lat="56.31657" lon="60.892433">
        <ele>269.8</ele>
        <time>1970-01-01T12:28:28.145Z</time>
    </trkpt>
    <trkpt lat="56.316567" lon="60.892504">
        <ele>269.8</ele>
        <time>1970-01-01T12:28:29.145Z</time>
    </trkpt>
    <trkpt lat="56.316563" lon="60.892552">
        <ele>269.7</ele>
        <time>1970-01-01T12:28:30.145Z</time>
    </trkpt>
    <trkpt lat="56.31656" lon="60.892595">
        <ele>269.6</ele>
        <time>1970-01-01T12:28:31.145Z</time>
    </trkpt>
    <trkpt lat="56.316559" lon="60.892612">
        <ele>269.6</ele>
        <time>1970-01-01T12:28:32.145Z</time>
    </trkpt>
    <trkpt lat="56.316558" lon="60.892633">
        <ele>269.6</ele>
        <time>1970-01-01T12:28:33.145Z</time>
    </trkpt>
    <trkpt lat="56.316551" lon="60.892683">
        <ele>269.5</ele>
        <time>1970-01-01T12:28:34.145Z</time>
    </trkpt>
    <trkpt lat="56.316554" lon="60.892702">
        <ele>269.5</ele>
        <time>1970-01-01T12:28:35.145Z</time>
    </trkpt>
    <trkpt lat="56.316558" lon="60.892757">
        <ele>269.4</ele>
        <time>1970-01-01T12:28:36.145Z</time>
    </trkpt>
    <trkpt lat="56.316556" lon="60.892777">
        <ele>269.4</ele>
        <time>1970-01-01T12:28:37.145Z</time>
    </trkpt>
    <trkpt lat="56.316553" lon="60.892833">
        <ele>269.3</ele>
        <time>1970-01-01T12:28:38.145Z</time>
    </trkpt>
    <trkpt lat="56.316553" lon="60.892852">
        <ele>269.3</ele>
        <time>1970-01-01T12:28:39.145Z</time>
    </trkpt>
    <trkpt lat="56.316551" lon="60.892917">
        <ele>269.2</ele>
        <time>1970-01-01T12:28:40.145Z</time>
    </trkpt>
    <trkpt lat="56.316545" lon="60.892969">
        <ele>269.1</ele>
        <time>1970-01-01T12:28:41.145Z</time>
    </trkpt>
    <trkpt lat="56.316542" lon="60.892989">
        <ele>269.1</ele>
        <time>1970-01-01T12:28:42.145Z</time>
    </trkpt>
    <trkpt lat="56.31654" lon="60.893057">
        <ele>269.0</ele>
        <time>1970-01-01T12:28:43.145Z</time>
    </trkpt>
    <trkpt lat="56.316535" lon="60.893111">
        <ele>268.9</ele>
        <time>1970-01-01T12:28:44.145Z</time>
    </trkpt>
    <trkpt lat="56.316535" lon="60.893164">
        <ele>268.9</ele>
        <time>1970-01-01T12:28:45.145Z</time>
    </trkpt>
    <trkpt lat="56.316537" lon="60.89318">
        <ele>268.8</ele>
        <time>1970-01-01T12:28:46.145Z</time>
    </trkpt>
    <trkpt lat="56.316536" lon="60.893231">
        <ele>268.8</ele>
        <time>1970-01-01T12:28:47.145Z</time>
    </trkpt>
    <trkpt lat="56.316539" lon="60.893247">
        <ele>268.8</ele>
        <time>1970-01-01T12:28:48.145Z</time>
    </trkpt>
    <trkpt lat="56.316533" lon="60.893307">
        <ele>268.7</ele>
        <time>1970-01-01T12:28:49.145Z</time>
    </trkpt>
    <trkpt lat="56.31653" lon="60.893319">
        <ele>268.7</ele>
        <time>1970-01-01T12:28:50.145Z</time>
    </trkpt>
    <trkpt lat="56.316516" lon="60.893372">
        <ele>268.6</ele>
        <time>1970-01-01T12:28:51.145Z</time>
    </trkpt>
    <trkpt lat="56.31651" lon="60.893402">
        <ele>268.5</ele>
        <time>1970-01-01T12:28:52.145Z</time>
    </trkpt>
    <trkpt lat="56.316504" lon="60.893463">
        <ele>268.5</ele>
        <time>1970-01-01T12:28:53.145Z</time>
    </trkpt>
    <trkpt lat="56.316503" lon="60.893479">
        <ele>268.4</ele>
        <time>1970-01-01T12:28:54.145Z</time>
    </trkpt>
    <trkpt lat="56.316504" lon="60.893529">
        <ele>268.4</ele>
        <time>1970-01-01T12:28:55.145Z</time>
    </trkpt>
    <trkpt lat="56.316502" lon="60.89358">
        <ele>268.3</ele>
        <time>1970-01-01T12:28:56.145Z</time>
    </trkpt>
    <trkpt lat="56.316504" lon="60.893607">
        <ele>268.3</ele>
        <time>1970-01-01T12:28:57.145Z</time>
    </trkpt>
    <trkpt lat="56.316496" lon="60.89368">
        <ele>268.2</ele>
        <time>1970-01-01T12:28:58.145Z</time>
    </trkpt>
    <trkpt lat="56.316489" lon="60.893712">
        <ele>268.1</ele>
        <time>1970-01-01T12:28:59.145Z</time>
    </trkpt>
    <trkpt lat="56.316477" lon="60.893777">
        <ele>268.0</ele>
        <time>1970-01-01T12:29:00.145Z</time>
    </trkpt>
    <trkpt lat="56.316478" lon="60.893792">
        <ele>268.0</ele>
        <time>1970-01-01T12:29:01.145Z</time>
    </trkpt>
    <trkpt lat="56.316484" lon="60.893848">
        <ele>267.9</ele>
        <time>1970-01-01T12:29:02.145Z</time>
    </trkpt>
    <trkpt lat="56.316488" lon="60.89387">
        <ele>267.9</ele>
        <time>1970-01-01T12:29:03.145Z</time>
    </trkpt>
    <trkpt lat="56.316485" lon="60.893924">
        <ele>267.8</ele>
        <time>1970-01-01T12:29:04.145Z</time>
    </trkpt>
    <trkpt lat="56.316484" lon="60.893949">
        <ele>267.8</ele>
        <time>1970-01-01T12:29:05.145Z</time>
    </trkpt>
    <trkpt lat="56.316488" lon="60.894005">
        <ele>267.7</ele>
        <time>1970-01-01T12:29:06.145Z</time>
    </trkpt>
    <trkpt lat="56.316496" lon="60.894065">
        <ele>267.6</ele>
        <time>1970-01-01T12:29:07.145Z</time>
    </trkpt>
    <trkpt lat="56.316493" lon="60.894132">
        <ele>267.6</ele>
        <time>1970-01-01T12:29:08.145Z</time>
    </trkpt>
    <trkpt lat="56.316504" lon="60.894197">
        <ele>267.5</ele>
        <time>1970-01-01T12:29:09.145Z</time>
    </trkpt>
    <trkpt lat="56.316505" lon="60.894235">
        <ele>267.4</ele>
        <time>1970-01-01T12:29:10.145Z</time>
    </trkpt>
    <trkpt lat="56.316504" lon="60.894319">
        <ele>267.3</ele>
        <time>1970-01-01T12:29:11.145Z</time>
    </trkpt>
    <trkpt lat="56.316495" lon="60.894404">
        <ele>267.2</ele>
        <time>1970-01-01T12:29:12.145Z</time>
    </trkpt>
    <trkpt lat="56.316493" lon="60.894428">
        <ele>267.2</ele>
        <time>1970-01-01T12:29:13.145Z</time>
    </trkpt>
    <trkpt lat="56.316483" lon="60.894479">
        <ele>267.1</ele>
        <time>1970-01-01T12:29:14.145Z</time>
    </trkpt>
    <trkpt lat="56.316481" lon="60.894503">
        <ele>267.1</ele>
        <time>1970-01-01T12:29:15.145Z</time>
    </trkpt>
    <trkpt lat="56.316477" lon="60.894564">
        <ele>267.0</ele>
        <time>1970-01-01T12:29:16.145Z</time>
    </trkpt>
    <trkpt lat="56.316471" lon="60.894632">
        <ele>266.9</ele>
        <time>1970-01-01T12:29:17.145Z</time>
    </trkpt>
    <trkpt lat="56.316472" lon="60.894652">
        <ele>266.9</ele>
        <time>1970-01-01T12:29:18.145Z</time>
    </trkpt>
    <trkpt lat="56.316461" lon="60.894715">
        <ele>266.8</ele>
        <time>1970-01-01T12:29:19.145Z</time>
    </trkpt>
    <trkpt lat="56.31645" lon="60.89476">
        <ele>266.7</ele>
        <time>1970-01-01T12:29:20.145Z</time>
    </trkpt>
    <trkpt lat="56.316447" lon="60.894779">
        <ele>266.7</ele>
        <time>1970-01-01T12:29:21.145Z</time>
    </trkpt>
    <trkpt lat="56.316436" lon="60.894829">
        <ele>266.6</ele>
        <time>1970-01-01T12:29:22.145Z</time>
    </trkpt>
    <trkpt lat="56.316432" lon="60.894859">
        <ele>266.6</ele>
        <time>1970-01-01T12:29:23.145Z</time>
    </trkpt>
    <trkpt lat="56.316423" lon="60.894919">
        <ele>266.5</ele>
        <time>1970-01-01T12:29:24.145Z</time>
    </trkpt>
    <trkpt lat="56.316419" lon="60.894971">
        <ele>266.4</ele>
        <time>1970-01-01T12:29:25.145Z</time>
    </trkpt>
    <trkpt lat="56.316418" lon="60.894998">
        <ele>266.4</ele>
        <time>1970-01-01T12:29:26.145Z</time>
    </trkpt>
    <trkpt lat="56.316414" lon="60.895058">
        <ele>266.3</ele>
        <time>1970-01-01T12:29:27.145Z</time>
    </trkpt>
    <trkpt lat="56.31641" lon="60.895079">
        <ele>266.3</ele>
        <time>1970-01-01T12:29:28.145Z</time>
    </trkpt>
    <trkpt lat="56.316406" lon="60.895147">
        <ele>266.2</ele>
        <time>1970-01-01T12:29:29.145Z</time>
    </trkpt>
    <trkpt lat="56.316403" lon="60.895168">
        <ele>266.1</ele>
        <time>1970-01-01T12:29:30.145Z</time>
    </trkpt>
    <trkpt lat="56.316388" lon="60.895216">
        <ele>266.1</ele>
        <time>1970-01-01T12:29:31.145Z</time>
    </trkpt>
    <trkpt lat="56.316387" lon="60.89523">
        <ele>266.1</ele>
        <time>1970-01-01T12:29:32.145Z</time>
    </trkpt>
    <trkpt lat="56.316386" lon="60.895284">
        <ele>266.0</ele>
        <time>1970-01-01T12:29:33.145Z</time>
    </trkpt>
    <trkpt lat="56.316383" lon="60.89532">
        <ele>265.9</ele>
        <time>1970-01-01T12:29:34.145Z</time>
    </trkpt>
    <trkpt lat="56.316383" lon="60.895337">
        <ele>265.9</ele>
        <time>1970-01-01T12:29:35.145Z</time>
    </trkpt>
    <trkpt lat="56.316383" lon="60.89536">
        <ele>265.9</ele>
        <time>1970-01-01T12:29:36.145Z</time>
    </trkpt>
    <trkpt lat="56.31638" lon="60.895396">
        <ele>265.8</ele>
        <time>1970-01-01T12:29:37.145Z</time>
    </trkpt>
    <trkpt lat="56.316374" lon="60.895431">
        <ele>265.8</ele>
        <time>1970-01-01T12:29:38.145Z</time>
    </trkpt>
    <trkpt lat="56.316371" lon="60.895443">
        <ele>265.8</ele>
        <time>1970-01-01T12:29:39.145Z</time>
    </trkpt>
    <trkpt lat="56.316366" lon="60.895461">
        <ele>265.7</ele>
        <time>1970-01-01T12:29:40.145Z</time>
    </trkpt>
    <trkpt lat="56.316361" lon="60.895489">
        <ele>265.7</ele>
        <time>1970-01-01T12:29:41.145Z</time>
    </trkpt>
    <trkpt lat="56.316369" lon="60.8955">
        <ele>265.7</ele>
        <time>1970-01-01T12:29:42.145Z</time>
    </trkpt>
    <trkpt lat="56.316367" lon="60.89553">
        <ele>265.6</ele>
        <time>1970-01-01T12:29:43.145Z</time>
    </trkpt>
    <trkpt lat="56.316366" lon="60.895545">
        <ele>265.6</ele>
        <time>1970-01-01T12:29:44.145Z</time>
    </trkpt>
    <trkpt lat="56.316365" lon="60.895563">
        <ele>265.6</ele>
        <time>1970-01-01T12:29:45.145Z</time>
    </trkpt>
    <trkpt lat="56.316364" lon="60.895588">
        <ele>265.6</ele>
        <time>1970-01-01T12:29:46.145Z</time>
    </trkpt>
    <trkpt lat="56.316361" lon="60.895603">
        <ele>265.5</ele>
        <time>1970-01-01T12:29:47.145Z</time>
    </trkpt>
    <trkpt lat="56.316364" lon="60.8956">
        <ele>265.5</ele>
        <time>1970-01-01T12:29:48.145Z</time>
    </trkpt>
    <trkpt lat="56.316357" lon="60.895583">
        <ele>265.5</ele>
        <time>1970-01-01T12:29:49.145Z</time>
    </trkpt>
    <trkpt lat="56.316357" lon="60.895583">
        <ele>265.5</ele>
        <time>1970-01-01T12:29:50.145Z</time>
    </trkpt>
    <trkpt lat="56.316357" lon="60.895583">
        <ele>265.5</ele>
        <time>1970-01-01T12:29:51.145Z</time>
    </trkpt>
    <trkpt lat="56.316358" lon="60.895583">
        <ele>265.5</ele>
        <time>1970-01-01T12:29:52.145Z</time>
    </trkpt>
    <trkpt lat="56.316356" lon="60.895579">
        <ele>265.5</ele>
        <time>1970-01-01T12:29:53.145Z</time>
    </trkpt>
    <trkpt lat="56.316353" lon="60.895575">
        <ele>265.5</ele>
        <time>1970-01-01T12:29:54.145Z</time>
    </trkpt>
    <trkpt lat="56.31635" lon="60.895594">
        <ele>265.5</ele>
        <time>1970-01-01T12:29:55.145Z</time>
    </trkpt>
    <trkpt lat="56.31635" lon="60.895602">
        <ele>265.5</ele>
        <time>1970-01-01T12:29:56.145Z</time>
    </trkpt>
    <trkpt lat="56.316346" lon="60.895629">
        <ele>265.4</ele>
        <time>1970-01-01T12:29:57.145Z</time>
    </trkpt>
    <trkpt lat="56.316338" lon="60.895661">
        <ele>265.4</ele>
        <time>1970-01-01T12:29:58.145Z</time>
    </trkpt>
    <trkpt lat="56.316335" lon="60.895682">
        <ele>265.3</ele>
        <time>1970-01-01T12:29:59.145Z</time>
    </trkpt>
    <trkpt lat="56.316333" lon="60.895748">
        <ele>265.3</ele>
        <time>1970-01-01T12:30:00.145Z</time>
    </trkpt>
    <trkpt lat="56.316336" lon="60.895771">
        <ele>265.2</ele>
        <time>1970-01-01T12:30:01.145Z</time>
    </trkpt>
    <trkpt lat="56.316336" lon="60.89582">
        <ele>265.2</ele>
        <time>1970-01-01T12:30:02.145Z</time>
    </trkpt>
    <trkpt lat="56.316345" lon="60.895875">
        <ele>265.1</ele>
        <time>1970-01-01T12:30:03.145Z</time>
    </trkpt>
    <trkpt lat="56.316343" lon="60.895925">
        <ele>265.0</ele>
        <time>1970-01-01T12:30:04.145Z</time>
    </trkpt>
    <trkpt lat="56.316341" lon="60.895944">
        <ele>265.0</ele>
        <time>1970-01-01T12:30:05.145Z</time>
    </trkpt>
    <trkpt lat="56.31634" lon="60.895998">
        <ele>264.9</ele>
        <time>1970-01-01T12:30:06.145Z</time>
    </trkpt>
    <trkpt lat="56.316341" lon="60.896027">
        <ele>264.9</ele>
        <time>1970-01-01T12:30:07.145Z</time>
    </trkpt>
    <trkpt lat="56.316337" lon="60.896088">
        <ele>264.8</ele>
        <time>1970-01-01T12:30:08.145Z</time>
    </trkpt>
    <trkpt lat="56.316337" lon="60.896106">
        <ele>264.8</ele>
        <time>1970-01-01T12:30:09.145Z</time>
    </trkpt>
    <trkpt lat="56.316337" lon="60.896169">
        <ele>264.7</ele>
        <time>1970-01-01T12:30:10.145Z</time>
    </trkpt>
    <trkpt lat="56.316336" lon="60.896186">
        <ele>264.7</ele>
        <time>1970-01-01T12:30:11.145Z</time>
    </trkpt>
    <trkpt lat="56.316331" lon="60.896248">
        <ele>264.6</ele>
        <time>1970-01-01T12:30:12.145Z</time>
    </trkpt>
    <trkpt lat="56.31633" lon="60.896263">
        <ele>264.6</ele>
        <time>1970-01-01T12:30:13.145Z</time>
    </trkpt>
    <trkpt lat="56.316322" lon="60.89632">
        <ele>264.5</ele>
        <time>1970-01-01T12:30:14.145Z</time>
    </trkpt>
    <trkpt lat="56.316318" lon="60.896368">
        <ele>264.4</ele>
        <time>1970-01-01T12:30:15.145Z</time>
    </trkpt>
    <trkpt lat="56.316316" lon="60.896394">
        <ele>264.4</ele>
        <time>1970-01-01T12:30:16.145Z</time>
    </trkpt>
    <trkpt lat="56.316316" lon="60.896466">
        <ele>264.3</ele>
        <time>1970-01-01T12:30:17.145Z</time>
    </trkpt>
    <trkpt lat="56.316312" lon="60.896516">
        <ele>264.2</ele>
        <time>1970-01-01T12:30:18.145Z</time>
    </trkpt>
    <trkpt lat="56.316303" lon="60.896564">
        <ele>264.2</ele>
        <time>1970-01-01T12:30:19.145Z</time>
    </trkpt>
    <trkpt lat="56.316297" lon="60.896612">
        <ele>264.1</ele>
        <time>1970-01-01T12:30:20.145Z</time>
    </trkpt>
    <trkpt lat="56.316286" lon="60.896659">
        <ele>264.0</ele>
        <time>1970-01-01T12:30:21.145Z</time>
    </trkpt>
    <trkpt lat="56.316283" lon="60.896713">
        <ele>264.0</ele>
        <time>1970-01-01T12:30:22.145Z</time>
    </trkpt>
    <trkpt lat="56.31628" lon="60.89677">
        <ele>263.9</ele>
        <time>1970-01-01T12:30:23.145Z</time>
    </trkpt>
    <trkpt lat="56.316272" lon="60.896828">
        <ele>263.8</ele>
        <time>1970-01-01T12:30:24.145Z</time>
    </trkpt>
    <trkpt lat="56.31627" lon="60.896856">
        <ele>263.8</ele>
        <time>1970-01-01T12:30:25.145Z</time>
    </trkpt>
    <trkpt lat="56.316268" lon="60.896931">
        <ele>263.7</ele>
        <time>1970-01-01T12:30:26.145Z</time>
    </trkpt>
    <trkpt lat="56.316268" lon="60.896955">
        <ele>263.6</ele>
        <time>1970-01-01T12:30:27.145Z</time>
    </trkpt>
    <trkpt lat="56.316265" lon="60.897026">
        <ele>263.5</ele>
        <time>1970-01-01T12:30:28.145Z</time>
    </trkpt>
    <trkpt lat="56.316265" lon="60.897074">
        <ele>263.5</ele>
        <time>1970-01-01T12:30:29.145Z</time>
    </trkpt>
    <trkpt lat="56.316265" lon="60.8971">
        <ele>263.4</ele>
        <time>1970-01-01T12:30:30.145Z</time>
    </trkpt>
    <trkpt lat="56.316257" lon="60.897166">
        <ele>263.3</ele>
        <time>1970-01-01T12:30:31.145Z</time>
    </trkpt>
    <trkpt lat="56.31625" lon="60.897223">
        <ele>263.3</ele>
        <time>1970-01-01T12:30:32.145Z</time>
    </trkpt>
    <trkpt lat="56.316247" lon="60.897282">
        <ele>263.2</ele>
        <time>1970-01-01T12:30:33.145Z</time>
    </trkpt>
    <trkpt lat="56.316238" lon="60.897345">
        <ele>263.1</ele>
        <time>1970-01-01T12:30:34.145Z</time>
    </trkpt>
    <trkpt lat="56.316224" lon="60.897418">
        <ele>263.0</ele>
        <time>1970-01-01T12:30:35.145Z</time>
    </trkpt>
    <trkpt lat="56.316213" lon="60.897492">
        <ele>262.9</ele>
        <time>1970-01-01T12:30:36.145Z</time>
    </trkpt>
    <trkpt lat="56.316209" lon="60.897568">
        <ele>262.8</ele>
        <time>1970-01-01T12:30:37.145Z</time>
    </trkpt>
    <trkpt lat="56.316205" lon="60.897635">
        <ele>262.7</ele>
        <time>1970-01-01T12:30:38.145Z</time>
    </trkpt>
    <trkpt lat="56.316182" lon="60.897713">
        <ele>262.6</ele>
        <time>1970-01-01T12:30:39.145Z</time>
    </trkpt>
    <trkpt lat="56.316176" lon="60.897786">
        <ele>262.5</ele>
        <time>1970-01-01T12:30:40.145Z</time>
    </trkpt>
    <trkpt lat="56.316178" lon="60.897855">
        <ele>262.4</ele>
        <time>1970-01-01T12:30:41.145Z</time>
    </trkpt>
    <trkpt lat="56.316171" lon="60.89793">
        <ele>262.3</ele>
        <time>1970-01-01T12:30:42.145Z</time>
    </trkpt>
    <trkpt lat="56.316171" lon="60.898001">
        <ele>262.2</ele>
        <time>1970-01-01T12:30:43.145Z</time>
    </trkpt>
    <trkpt lat="56.316175" lon="60.89807">
        <ele>262.1</ele>
        <time>1970-01-01T12:30:44.145Z</time>
    </trkpt>
    <trkpt lat="56.316173" lon="60.898147">
        <ele>262.0</ele>
        <time>1970-01-01T12:30:45.145Z</time>
    </trkpt>
    <trkpt lat="56.316169" lon="60.89822">
        <ele>261.9</ele>
        <time>1970-01-01T12:30:46.145Z</time>
    </trkpt>
    <trkpt lat="56.316174" lon="60.898302">
        <ele>261.8</ele>
        <time>1970-01-01T12:30:47.145Z</time>
    </trkpt>
    <trkpt lat="56.316167" lon="60.898372">
        <ele>261.7</ele>
        <time>1970-01-01T12:30:48.145Z</time>
    </trkpt>
    <trkpt lat="56.316154" lon="60.898454">
        <ele>261.6</ele>
        <time>1970-01-01T12:30:49.145Z</time>
    </trkpt>
    <trkpt lat="56.31615" lon="60.89853">
        <ele>261.5</ele>
        <time>1970-01-01T12:30:50.145Z</time>
    </trkpt>
    <trkpt lat="56.316156" lon="60.898599">
        <ele>261.4</ele>
        <time>1970-01-01T12:30:51.145Z</time>
    </trkpt>
    <trkpt lat="56.316158" lon="60.898678">
        <ele>261.3</ele>
        <time>1970-01-01T12:30:52.145Z</time>
    </trkpt>
    <trkpt lat="56.316149" lon="60.898731">
        <ele>261.2</ele>
        <time>1970-01-01T12:30:53.145Z</time>
    </trkpt>
    <trkpt lat="56.316145" lon="60.898811">
        <ele>261.1</ele>
        <time>1970-01-01T12:30:54.145Z</time>
    </trkpt>
    <trkpt lat="56.316138" lon="60.898875">
        <ele>261.0</ele>
        <time>1970-01-01T12:30:55.145Z</time>
    </trkpt>
    <trkpt lat="56.316131" lon="60.898941">
        <ele>261.0</ele>
        <time>1970-01-01T12:30:56.145Z</time>
    </trkpt>
    <trkpt lat="56.316126" lon="60.898993">
        <ele>260.9</ele>
        <time>1970-01-01T12:30:57.145Z</time>
    </trkpt>
    <trkpt lat="56.316124" lon="60.899013">
        <ele>260.9</ele>
        <time>1970-01-01T12:30:58.145Z</time>
    </trkpt>
    <trkpt lat="56.316121" lon="60.89907">
        <ele>260.8</ele>
        <time>1970-01-01T12:30:59.145Z</time>
    </trkpt>
    <trkpt lat="56.316121" lon="60.899087">
        <ele>260.8</ele>
        <time>1970-01-01T12:31:00.145Z</time>
    </trkpt>
    <trkpt lat="56.316122" lon="60.899144">
        <ele>260.7</ele>
        <time>1970-01-01T12:31:01.145Z</time>
    </trkpt>
    <trkpt lat="56.316123" lon="60.899161">
        <ele>260.7</ele>
        <time>1970-01-01T12:31:02.145Z</time>
    </trkpt>
    <trkpt lat="56.316126" lon="60.899215">
        <ele>260.6</ele>
        <time>1970-01-01T12:31:03.145Z</time>
    </trkpt>
    <trkpt lat="56.316126" lon="60.89924">
        <ele>260.6</ele>
        <time>1970-01-01T12:31:04.145Z</time>
    </trkpt>
    <trkpt lat="56.31613" lon="60.899311">
        <ele>260.5</ele>
        <time>1970-01-01T12:31:05.145Z</time>
    </trkpt>
    <trkpt lat="56.316127" lon="60.899359">
        <ele>260.4</ele>
        <time>1970-01-01T12:31:06.145Z</time>
    </trkpt>
    <trkpt lat="56.316126" lon="60.899377">
        <ele>260.4</ele>
        <time>1970-01-01T12:31:07.145Z</time>
    </trkpt>
    <trkpt lat="56.316125" lon="60.899437">
        <ele>260.3</ele>
        <time>1970-01-01T12:31:08.145Z</time>
    </trkpt>
    <trkpt lat="56.316126" lon="60.89946">
        <ele>260.3</ele>
        <time>1970-01-01T12:31:09.145Z</time>
    </trkpt>
    <trkpt lat="56.316126" lon="60.899519">
        <ele>260.2</ele>
        <time>1970-01-01T12:31:10.145Z</time>
    </trkpt>
    <trkpt lat="56.316126" lon="60.899545">
        <ele>260.2</ele>
        <time>1970-01-01T12:31:11.145Z</time>
    </trkpt>
    <trkpt lat="56.316126" lon="60.899617">
        <ele>260.1</ele>
        <time>1970-01-01T12:31:12.145Z</time>
    </trkpt>
    <trkpt lat="56.31613" lon="60.89964">
        <ele>260.0</ele>
        <time>1970-01-01T12:31:13.145Z</time>
    </trkpt>
    <trkpt lat="56.316126" lon="60.899679">
        <ele>260.0</ele>
        <time>1970-01-01T12:31:14.145Z</time>
    </trkpt>
    <trkpt lat="56.316119" lon="60.899712">
        <ele>260.0</ele>
        <time>1970-01-01T12:31:15.145Z</time>
    </trkpt>
    <trkpt lat="56.316115" lon="60.899732">
        <ele>259.9</ele>
        <time>1970-01-01T12:31:16.145Z</time>
    </trkpt>
    <trkpt lat="56.316115" lon="60.899749">
        <ele>259.9</ele>
        <time>1970-01-01T12:31:17.145Z</time>
    </trkpt>
    <trkpt lat="56.316115" lon="60.899784">
        <ele>259.9</ele>
        <time>1970-01-01T12:31:18.145Z</time>
    </trkpt>
    <trkpt lat="56.316121" lon="60.899806">
        <ele>259.9</ele>
        <time>1970-01-01T12:31:19.145Z</time>
    </trkpt>
    <trkpt lat="56.316149" lon="60.899883">
        <ele>259.8</ele>
        <time>1970-01-01T12:33:47.145Z</time>
    </trkpt>
    <trkpt lat="56.316149" lon="60.899883">
        <ele>259.8</ele>
        <time>1970-01-01T12:33:48.145Z</time>
    </trkpt>
    <trkpt lat="56.316149" lon="60.899883">
        <ele>259.8</ele>
        <time>1970-01-01T12:33:49.145Z</time>
    </trkpt>
    <trkpt lat="56.316149" lon="60.899883">
        <ele>259.8</ele>
        <time>1970-01-01T12:33:50.145Z</time>
    </trkpt>
    <trkpt lat="56.316149" lon="60.899883">
        <ele>259.8</ele>
        <time>1970-01-01T12:33:51.145Z</time>
    </trkpt>
    <trkpt lat="56.316149" lon="60.899883">
        <ele>259.8</ele>
        <time>1970-01-01T12:33:52.145Z</time>
    </trkpt>
    <trkpt lat="56.316149" lon="60.899883">
        <ele>259.8</ele>
        <time>1970-01-01T12:33:53.145Z</time>
    </trkpt>
    <trkpt lat="56.316149" lon="60.899883">
        <ele>259.8</ele>
        <time>1970-01-01T12:33:54.145Z</time>
    </trkpt>
    <trkpt lat="56.316145" lon="60.899878">
        <ele>259.8</ele>
        <time>1970-01-01T12:33:55.145Z</time>
    </trkpt>
    <trkpt lat="56.316148" lon="60.899881">
        <ele>259.8</ele>
        <time>1970-01-01T12:33:56.145Z</time>
    </trkpt>
    <trkpt lat="56.316151" lon="60.899876">
        <ele>259.8</ele>
        <time>1970-01-01T12:33:57.145Z</time>
    </trkpt>
    <trkpt lat="56.31615" lon="60.899876">
        <ele>259.8</ele>
        <time>1970-01-01T12:33:58.145Z</time>
    </trkpt>
    <trkpt lat="56.316148" lon="60.899894">
        <ele>259.8</ele>
        <time>1970-01-01T12:33:59.145Z</time>
    </trkpt>
    <trkpt lat="56.316145" lon="60.899913">
        <ele>259.8</ele>
        <time>1970-01-01T12:34:00.145Z</time>
    </trkpt>
    <trkpt lat="56.316142" lon="60.899931">
        <ele>259.8</ele>
        <time>1970-01-01T12:35:34.145Z</time>
    </trkpt>
    <trkpt lat="56.316139" lon="60.89995">
        <ele>259.8</ele>
        <time>1970-01-01T12:35:35.145Z</time>
    </trkpt>
    <trkpt lat="56.316136" lon="60.899968">
        <ele>259.7</ele>
        <time>1970-01-01T12:35:36.145Z</time>
    </trkpt>
    <trkpt lat="56.316133" lon="60.899987">
        <ele>259.7</ele>
        <time>1970-01-01T12:35:37.145Z</time>
    </trkpt>
    <trkpt lat="56.31613" lon="60.900005">
        <ele>259.7</ele>
        <time>1970-01-01T12:35:38.145Z</time>
    </trkpt>
    <trkpt lat="56.316127" lon="60.900024">
        <ele>259.7</ele>
        <time>1970-01-01T12:35:39.145Z</time>
    </trkpt>
    <trkpt lat="56.316125" lon="60.900042">
        <ele>259.7</ele>
        <time>1970-01-01T12:35:40.145Z</time>
    </trkpt>
    <trkpt lat="56.316122" lon="60.900061">
        <ele>259.7</ele>
        <time>1970-01-01T12:35:41.145Z</time>
    </trkpt>
    <trkpt lat="56.316119" lon="60.900079">
        <ele>259.7</ele>
        <time>1970-01-01T12:35:42.145Z</time>
    </trkpt>
    <trkpt lat="56.316116" lon="60.900098">
        <ele>259.6</ele>
        <time>1970-01-01T12:35:43.145Z</time>
    </trkpt>
    <trkpt lat="56.316114" lon="60.900103">
        <ele>259.6</ele>
        <time>1970-01-01T12:35:44.145Z</time>
    </trkpt>
    <trkpt lat="56.316108" lon="60.900056">
        <ele>259.6</ele>
        <time>1970-01-01T12:35:46.145Z</time>
    </trkpt>
    <trkpt lat="56.31611" lon="60.900039">
        <ele>259.6</ele>
        <time>1970-01-01T12:35:47.145Z</time>
    </trkpt>
    <trkpt lat="56.316108" lon="60.900017">
        <ele>259.6</ele>
        <time>1970-01-01T12:35:48.145Z</time>
    </trkpt>
    <trkpt lat="56.316101" lon="60.900003">
        <ele>259.6</ele>
        <time>1970-01-01T12:35:49.145Z</time>
    </trkpt>
    <trkpt lat="56.316099" lon="60.900007">
        <ele>259.6</ele>
        <time>1970-01-01T12:35:50.145Z</time>
    </trkpt>
    <trkpt lat="56.316099" lon="60.900011">
        <ele>259.6</ele>
        <time>1970-01-01T12:35:51.145Z</time>
    </trkpt>
    <trkpt lat="56.316096" lon="60.900022">
        <ele>259.6</ele>
        <time>1970-01-01T12:35:52.145Z</time>
    </trkpt>
    <trkpt lat="56.316092" lon="60.900026">
        <ele>259.5</ele>
        <time>1970-01-01T12:35:53.145Z</time>
    </trkpt>
    <trkpt lat="56.31609" lon="60.900041">
        <ele>259.5</ele>
        <time>1970-01-01T12:35:54.145Z</time>
    </trkpt>
    <trkpt lat="56.316089" lon="60.900043">
        <ele>259.5</ele>
        <time>1970-01-01T12:35:55.145Z</time>
    </trkpt>
    <trkpt lat="56.316085" lon="60.900041">
        <ele>259.5</ele>
        <time>1970-01-01T12:35:56.145Z</time>
    </trkpt>
    <trkpt lat="56.316079" lon="60.900064">
        <ele>259.5</ele>
        <time>1970-01-01T12:35:57.145Z</time>
    </trkpt>
    <trkpt lat="56.316077" lon="60.900087">
        <ele>259.5</ele>
        <time>1970-01-01T12:35:58.145Z</time>
    </trkpt>
    <trkpt lat="56.316076" lon="60.900107">
        <ele>259.5</ele>
        <time>1970-01-01T12:35:59.145Z</time>
    </trkpt>
    <trkpt lat="56.316065" lon="60.90014">
        <ele>259.5</ele>
        <time>1970-01-01T12:36:00.145Z</time>
    </trkpt>
    <trkpt lat="56.316062" lon="60.90019">
        <ele>259.4</ele>
        <time>1970-01-01T12:36:01.145Z</time>
    </trkpt>
    <trkpt lat="56.316064" lon="60.900215">
        <ele>259.4</ele>
        <time>1970-01-01T12:36:02.145Z</time>
    </trkpt>
    <trkpt lat="56.316065" lon="60.900289">
        <ele>259.4</ele>
        <time>1970-01-01T12:36:03.145Z</time>
    </trkpt>
    <trkpt lat="56.316064" lon="60.900344">
        <ele>259.3</ele>
        <time>1970-01-01T12:36:04.145Z</time>
    </trkpt>
    <trkpt lat="56.316062" lon="60.9004">
        <ele>259.3</ele>
        <time>1970-01-01T12:36:05.145Z</time>
    </trkpt>
    <trkpt lat="56.31605" lon="60.900455">
        <ele>259.2</ele>
        <time>1970-01-01T12:36:06.145Z</time>
    </trkpt>
    <trkpt lat="56.316043" lon="60.900508">
        <ele>259.2</ele>
        <time>1970-01-01T12:36:07.145Z</time>
    </trkpt>
    <trkpt lat="56.316042" lon="60.900541">
        <ele>259.2</ele>
        <time>1970-01-01T12:36:08.145Z</time>
    </trkpt>
    <trkpt lat="56.316031" lon="60.900617">
        <ele>259.1</ele>
        <time>1970-01-01T12:36:09.145Z</time>
    </trkpt>
    <trkpt lat="56.316023" lon="60.900645">
        <ele>259.1</ele>
        <time>1970-01-01T12:36:10.145Z</time>
    </trkpt>
    <trkpt lat="56.316016" lon="60.900718">
        <ele>259.1</ele>
        <time>1970-01-01T12:36:11.145Z</time>
    </trkpt>
    <trkpt lat="56.316014" lon="60.900778">
        <ele>259.0</ele>
        <time>1970-01-01T12:36:12.145Z</time>
    </trkpt>
    <trkpt lat="56.316016" lon="60.900852">
        <ele>259.0</ele>
        <time>1970-01-01T12:36:13.145Z</time>
    </trkpt>
    <trkpt lat="56.316012" lon="60.900883">
        <ele>258.9</ele>
        <time>1970-01-01T12:36:14.145Z</time>
    </trkpt>
    <trkpt lat="56.316005" lon="60.900954">
        <ele>258.9</ele>
        <time>1970-01-01T12:36:15.145Z</time>
    </trkpt>
    <trkpt lat="56.315992" lon="60.901029">
        <ele>258.8</ele>
        <time>1970-01-01T12:36:16.145Z</time>
    </trkpt>
    <trkpt lat="56.315987" lon="60.90109">
        <ele>258.8</ele>
        <time>1970-01-01T12:36:17.145Z</time>
    </trkpt>
    <trkpt lat="56.315981" lon="60.901166">
        <ele>258.7</ele>
        <time>1970-01-01T12:36:18.145Z</time>
    </trkpt>
    <trkpt lat="56.315975" lon="60.901216">
        <ele>258.7</ele>
        <time>1970-01-01T12:36:19.145Z</time>
    </trkpt>
    <trkpt lat="56.315963" lon="60.901301">
        <ele>258.6</ele>
        <time>1970-01-01T12:36:20.145Z</time>
    </trkpt>
    <trkpt lat="56.315958" lon="60.90136">
        <ele>258.6</ele>
        <time>1970-01-01T12:36:21.145Z</time>
    </trkpt>
    <trkpt lat="56.315955" lon="60.901435">
        <ele>258.6</ele>
        <time>1970-01-01T12:36:22.145Z</time>
    </trkpt>
    <trkpt lat="56.315948" lon="60.901515">
        <ele>258.5</ele>
        <time>1970-01-01T12:36:23.145Z</time>
    </trkpt>
    <trkpt lat="56.315937" lon="60.901602">
        <ele>258.4</ele>
        <time>1970-01-01T12:36:24.145Z</time>
    </trkpt>
    <trkpt lat="56.315933" lon="60.901676">
        <ele>258.4</ele>
        <time>1970-01-01T12:36:25.145Z</time>
    </trkpt>
    <trkpt lat="56.315928" lon="60.901715">
        <ele>258.4</ele>
        <time>1970-01-01T12:36:26.145Z</time>
    </trkpt>
    <trkpt lat="56.315919" lon="60.901802">
        <ele>258.3</ele>
        <time>1970-01-01T12:36:27.145Z</time>
    </trkpt>
    <trkpt lat="56.315915" lon="60.901868">
        <ele>258.2</ele>
        <time>1970-01-01T12:36:28.145Z</time>
    </trkpt>
    <trkpt lat="56.315914" lon="60.901933">
        <ele>258.2</ele>
        <time>1970-01-01T12:36:29.145Z</time>
    </trkpt>
    <trkpt lat="56.315912" lon="60.901992">
        <ele>258.2</ele>
        <time>1970-01-01T12:36:30.145Z</time>
    </trkpt>
    <trkpt lat="56.315913" lon="60.902065">
        <ele>258.1</ele>
        <time>1970-01-01T12:36:31.145Z</time>
    </trkpt>
    <trkpt lat="56.315912" lon="60.902099">
        <ele>258.1</ele>
        <time>1970-01-01T12:36:32.145Z</time>
    </trkpt>
    <trkpt lat="56.315912" lon="60.902174">
        <ele>258.0</ele>
        <time>1970-01-01T12:36:33.145Z</time>
    </trkpt>
    <trkpt lat="56.315911" lon="60.902226">
        <ele>258.0</ele>
        <time>1970-01-01T12:36:34.145Z</time>
    </trkpt>
    <trkpt lat="56.315907" lon="60.902297">
        <ele>258.0</ele>
        <time>1970-01-01T12:36:35.145Z</time>
    </trkpt>
    <trkpt lat="56.315901" lon="60.902368">
        <ele>257.9</ele>
        <time>1970-01-01T12:36:36.145Z</time>
    </trkpt>
    <trkpt lat="56.315894" lon="60.902428">
        <ele>257.9</ele>
        <time>1970-01-01T12:36:37.145Z</time>
    </trkpt>
    <trkpt lat="56.315895" lon="60.902486">
        <ele>257.8</ele>
        <time>1970-01-01T12:36:38.145Z</time>
    </trkpt>
    <trkpt lat="56.315892" lon="60.902552">
        <ele>257.8</ele>
        <time>1970-01-01T12:36:39.145Z</time>
    </trkpt>
    <trkpt lat="56.315886" lon="60.902599">
        <ele>257.7</ele>
        <time>1970-01-01T12:36:40.145Z</time>
    </trkpt>
    <trkpt lat="56.315883" lon="60.90263">
        <ele>257.7</ele>
        <time>1970-01-01T12:36:41.145Z</time>
    </trkpt>
    <trkpt lat="56.315884" lon="60.902698">
        <ele>257.7</ele>
        <time>1970-01-01T12:36:42.145Z</time>
    </trkpt>
    <trkpt lat="56.315882" lon="60.902756">
        <ele>257.6</ele>
        <time>1970-01-01T12:36:43.145Z</time>
    </trkpt>
    <trkpt lat="56.315881" lon="60.90281">
        <ele>257.6</ele>
        <time>1970-01-01T12:36:44.145Z</time>
    </trkpt>
    <trkpt lat="56.315879" lon="60.90284">
        <ele>257.6</ele>
        <time>1970-01-01T12:36:45.145Z</time>
    </trkpt>
    <trkpt lat="56.315876" lon="60.902916">
        <ele>257.5</ele>
        <time>1970-01-01T12:36:46.145Z</time>
    </trkpt>
    <trkpt lat="56.315878" lon="60.90297">
        <ele>257.5</ele>
        <time>1970-01-01T12:36:47.145Z</time>
    </trkpt>
    <trkpt lat="56.315879" lon="60.903023">
        <ele>257.5</ele>
        <time>1970-01-01T12:36:48.145Z</time>
    </trkpt>
    <trkpt lat="56.315877" lon="60.90308">
        <ele>257.4</ele>
        <time>1970-01-01T12:36:49.145Z</time>
    </trkpt>
    <trkpt lat="56.315869" lon="60.903142">
        <ele>257.4</ele>
        <time>1970-01-01T12:36:50.145Z</time>
    </trkpt>
    <trkpt lat="56.315865" lon="60.903201">
        <ele>257.3</ele>
        <time>1970-01-01T12:36:51.145Z</time>
    </trkpt>
    <trkpt lat="56.315863" lon="60.903232">
        <ele>257.3</ele>
        <time>1970-01-01T12:36:52.145Z</time>
    </trkpt>
    <trkpt lat="56.315859" lon="60.903311">
        <ele>257.3</ele>
        <time>1970-01-01T12:36:53.145Z</time>
    </trkpt>
    <trkpt lat="56.315852" lon="60.903367">
        <ele>257.2</ele>
        <time>1970-01-01T12:36:54.145Z</time>
    </trkpt>
    <trkpt lat="56.315855" lon="60.903416">
        <ele>257.2</ele>
        <time>1970-01-01T12:36:55.145Z</time>
    </trkpt>
    <trkpt lat="56.315855" lon="60.90347">
        <ele>257.1</ele>
        <time>1970-01-01T12:36:56.145Z</time>
    </trkpt>
    <trkpt lat="56.315846" lon="60.903527">
        <ele>257.1</ele>
        <time>1970-01-01T12:36:57.145Z</time>
    </trkpt>
    <trkpt lat="56.31584" lon="60.903585">
        <ele>257.1</ele>
        <time>1970-01-01T12:36:58.145Z</time>
    </trkpt>
    <trkpt lat="56.315824" lon="60.903672">
        <ele>257.0</ele>
        <time>1970-01-01T12:36:59.145Z</time>
    </trkpt>
    <trkpt lat="56.315825" lon="60.903752">
        <ele>256.9</ele>
        <time>1970-01-01T12:37:00.145Z</time>
    </trkpt>
    <trkpt lat="56.315818" lon="60.903821">
        <ele>256.9</ele>
        <time>1970-01-01T12:37:01.145Z</time>
    </trkpt>
    <trkpt lat="56.31581" lon="60.903878">
        <ele>256.9</ele>
        <time>1970-01-01T12:37:02.145Z</time>
    </trkpt>
    <trkpt lat="56.315804" lon="60.903935">
        <ele>256.8</ele>
        <time>1970-01-01T12:37:03.145Z</time>
    </trkpt>
    <trkpt lat="56.315806" lon="60.903983">
        <ele>256.8</ele>
        <time>1970-01-01T12:37:04.145Z</time>
    </trkpt>
    <trkpt lat="56.315798" lon="60.904044">
        <ele>256.7</ele>
        <time>1970-01-01T12:37:05.145Z</time>
    </trkpt>
    <trkpt lat="56.315798" lon="60.904069">
        <ele>256.7</ele>
        <time>1970-01-01T12:37:06.145Z</time>
    </trkpt>
    <trkpt lat="56.315796" lon="60.904136">
        <ele>256.7</ele>
        <time>1970-01-01T12:37:07.145Z</time>
    </trkpt>
    <trkpt lat="56.315794" lon="60.904164">
        <ele>256.7</ele>
        <time>1970-01-01T12:37:08.145Z</time>
    </trkpt>
    <trkpt lat="56.315796" lon="60.904236">
        <ele>256.6</ele>
        <time>1970-01-01T12:37:09.145Z</time>
    </trkpt>
    <trkpt lat="56.315795" lon="60.904261">
        <ele>256.6</ele>
        <time>1970-01-01T12:37:10.145Z</time>
    </trkpt>
    <trkpt lat="56.315791" lon="60.904334">
        <ele>256.5</ele>
        <time>1970-01-01T12:37:11.145Z</time>
    </trkpt>
    <trkpt lat="56.315789" lon="60.90436">
        <ele>256.5</ele>
        <time>1970-01-01T12:37:12.145Z</time>
    </trkpt>
    <trkpt lat="56.315785" lon="60.904431">
        <ele>256.5</ele>
        <time>1970-01-01T12:37:13.145Z</time>
    </trkpt>
    <trkpt lat="56.315785" lon="60.904458">
        <ele>256.5</ele>
        <time>1970-01-01T12:37:14.145Z</time>
    </trkpt>
    <trkpt lat="56.315781" lon="60.904522">
        <ele>256.4</ele>
        <time>1970-01-01T12:37:15.145Z</time>
    </trkpt>
    <trkpt lat="56.315774" lon="60.904574">
        <ele>256.4</ele>
        <time>1970-01-01T12:37:16.145Z</time>
    </trkpt>
    <trkpt lat="56.31577" lon="60.904623">
        <ele>256.3</ele>
        <time>1970-01-01T12:37:17.145Z</time>
    </trkpt>
    <trkpt lat="56.315766" lon="60.904683">
        <ele>256.3</ele>
        <time>1970-01-01T12:37:18.145Z</time>
    </trkpt>
    <trkpt lat="56.315764" lon="60.904743">
        <ele>256.3</ele>
        <time>1970-01-01T12:37:19.145Z</time>
    </trkpt>
    <trkpt lat="56.315758" lon="60.904811">
        <ele>256.2</ele>
        <time>1970-01-01T12:37:20.145Z</time>
    </trkpt>
    <trkpt lat="56.315758" lon="60.904864">
        <ele>256.2</ele>
        <time>1970-01-01T12:37:21.145Z</time>
    </trkpt>
    <trkpt lat="56.315748" lon="60.904923">
        <ele>256.1</ele>
        <time>1970-01-01T12:37:22.145Z</time>
    </trkpt>
    <trkpt lat="56.315748" lon="60.904994">
        <ele>256.1</ele>
        <time>1970-01-01T12:37:23.145Z</time>
    </trkpt>
    <trkpt lat="56.315744" lon="60.90506">
        <ele>256.0</ele>
        <time>1970-01-01T12:37:24.145Z</time>
    </trkpt>
    <trkpt lat="56.315743" lon="60.905089">
        <ele>256.0</ele>
        <time>1970-01-01T12:37:25.145Z</time>
    </trkpt>
    <trkpt lat="56.315738" lon="60.905164">
        <ele>256.0</ele>
        <time>1970-01-01T12:37:26.145Z</time>
    </trkpt>
    <trkpt lat="56.315738" lon="60.905188">
        <ele>255.9</ele>
        <time>1970-01-01T12:37:27.145Z</time>
    </trkpt>
    <trkpt lat="56.315732" lon="60.905256">
        <ele>255.9</ele>
        <time>1970-01-01T12:37:28.145Z</time>
    </trkpt>
    <trkpt lat="56.315735" lon="60.905292">
        <ele>255.9</ele>
        <time>1970-01-01T12:37:29.145Z</time>
    </trkpt>
    <trkpt lat="56.315729" lon="60.905368">
        <ele>255.8</ele>
        <time>1970-01-01T12:37:30.145Z</time>
    </trkpt>
    <trkpt lat="56.315726" lon="60.905426">
        <ele>255.8</ele>
        <time>1970-01-01T12:37:31.145Z</time>
    </trkpt>
    <trkpt lat="56.315726" lon="60.905492">
        <ele>255.7</ele>
        <time>1970-01-01T12:37:32.145Z</time>
    </trkpt>
    <trkpt lat="56.315718" lon="60.905547">
        <ele>255.7</ele>
        <time>1970-01-01T12:37:33.145Z</time>
    </trkpt>
    <trkpt lat="56.315715" lon="60.905606">
        <ele>255.7</ele>
        <time>1970-01-01T12:37:34.145Z</time>
    </trkpt>
    <trkpt lat="56.315714" lon="60.905658">
        <ele>255.6</ele>
        <time>1970-01-01T12:37:35.145Z</time>
    </trkpt>
    <trkpt lat="56.315717" lon="60.905709">
        <ele>255.6</ele>
        <time>1970-01-01T12:37:36.145Z</time>
    </trkpt>
    <trkpt lat="56.315713" lon="60.905734">
        <ele>255.6</ele>
        <time>1970-01-01T12:37:37.145Z</time>
    </trkpt>
    <trkpt lat="56.315706" lon="60.905791">
        <ele>255.5</ele>
        <time>1970-01-01T12:37:38.145Z</time>
    </trkpt>
    <trkpt lat="56.315708" lon="60.905818">
        <ele>255.5</ele>
        <time>1970-01-01T12:37:39.145Z</time>
    </trkpt>
    <trkpt lat="56.315711" lon="60.905892">
        <ele>255.5</ele>
        <time>1970-01-01T12:37:40.145Z</time>
    </trkpt>
    <trkpt lat="56.315706" lon="60.905917">
        <ele>255.4</ele>
        <time>1970-01-01T12:37:41.145Z</time>
    </trkpt>
    <trkpt lat="56.315708" lon="60.905987">
        <ele>255.4</ele>
        <time>1970-01-01T12:37:42.145Z</time>
    </trkpt>
    <trkpt lat="56.315704" lon="60.906038">
        <ele>255.4</ele>
        <time>1970-01-01T12:37:43.145Z</time>
    </trkpt>
    <trkpt lat="56.31571" lon="60.906089">
        <ele>255.3</ele>
        <time>1970-01-01T12:37:44.145Z</time>
    </trkpt>
    <trkpt lat="56.315712" lon="60.906112">
        <ele>255.3</ele>
        <time>1970-01-01T12:37:45.145Z</time>
    </trkpt>
    <trkpt lat="56.315713" lon="60.906176">
        <ele>255.3</ele>
        <time>1970-01-01T12:37:46.145Z</time>
    </trkpt>
    <trkpt lat="56.315706" lon="60.906231">
        <ele>255.2</ele>
        <time>1970-01-01T12:37:47.145Z</time>
    </trkpt>
    <trkpt lat="56.315704" lon="60.906254">
        <ele>255.2</ele>
        <time>1970-01-01T12:37:48.145Z</time>
    </trkpt>
    <trkpt lat="56.315701" lon="60.906324">
        <ele>255.2</ele>
        <time>1970-01-01T12:37:49.145Z</time>
    </trkpt>
    <trkpt lat="56.315698" lon="60.906379">
        <ele>255.1</ele>
        <time>1970-01-01T12:37:50.145Z</time>
    </trkpt>
    <trkpt lat="56.315696" lon="60.906404">
        <ele>255.1</ele>
        <time>1970-01-01T12:37:51.145Z</time>
    </trkpt>
    <trkpt lat="56.315691" lon="60.906465">
        <ele>255.1</ele>
        <time>1970-01-01T12:37:52.145Z</time>
    </trkpt>
    <trkpt lat="56.315685" lon="60.906513">
        <ele>255.0</ele>
        <time>1970-01-01T12:37:53.145Z</time>
    </trkpt>
    <trkpt lat="56.315684" lon="60.906534">
        <ele>255.0</ele>
        <time>1970-01-01T12:37:54.145Z</time>
    </trkpt>
    <trkpt lat="56.315675" lon="60.906601">
        <ele>255.0</ele>
        <time>1970-01-01T12:37:55.145Z</time>
    </trkpt>
    <trkpt lat="56.315671" lon="60.906622">
        <ele>255.0</ele>
        <time>1970-01-01T12:37:56.145Z</time>
    </trkpt>
    <trkpt lat="56.315665" lon="60.906691">
        <ele>254.9</ele>
        <time>1970-01-01T12:37:57.145Z</time>
    </trkpt>
    <trkpt lat="56.315665" lon="60.906743">
        <ele>254.9</ele>
        <time>1970-01-01T12:37:58.145Z</time>
    </trkpt>
    <trkpt lat="56.315663" lon="60.906761">
        <ele>254.9</ele>
        <time>1970-01-01T12:37:59.145Z</time>
    </trkpt>
    <trkpt lat="56.315664" lon="60.906812">
        <ele>254.8</ele>
        <time>1970-01-01T12:38:00.145Z</time>
    </trkpt>
    <trkpt lat="56.315664" lon="60.906834">
        <ele>254.8</ele>
        <time>1970-01-01T12:38:01.145Z</time>
    </trkpt>
    <trkpt lat="56.315664" lon="60.9069">
        <ele>254.8</ele>
        <time>1970-01-01T12:38:02.145Z</time>
    </trkpt>
    <trkpt lat="56.315666" lon="60.90695">
        <ele>254.7</ele>
        <time>1970-01-01T12:38:03.145Z</time>
    </trkpt>
    <trkpt lat="56.315661" lon="60.907009">
        <ele>254.7</ele>
        <time>1970-01-01T12:38:04.145Z</time>
    </trkpt>
    <trkpt lat="56.31566" lon="60.90707">
        <ele>254.6</ele>
        <time>1970-01-01T12:38:05.145Z</time>
    </trkpt>
    <trkpt lat="56.315652" lon="60.907137">
        <ele>254.6</ele>
        <time>1970-01-01T12:38:06.145Z</time>
    </trkpt>
    <trkpt lat="56.315643" lon="60.90719">
        <ele>254.6</ele>
        <time>1970-01-01T12:38:07.145Z</time>
    </trkpt>
    <trkpt lat="56.315636" lon="60.907267">
        <ele>254.5</ele>
        <time>1970-01-01T12:38:08.145Z</time>
    </trkpt>
    <trkpt lat="56.315626" lon="60.907337">
        <ele>254.5</ele>
        <time>1970-01-01T12:38:09.145Z</time>
    </trkpt>
    <trkpt lat="56.315623" lon="60.907392">
        <ele>254.4</ele>
        <time>1970-01-01T12:38:10.145Z</time>
    </trkpt>
    <trkpt lat="56.31562" lon="60.907458">
        <ele>254.4</ele>
        <time>1970-01-01T12:38:11.145Z</time>
    </trkpt>
    <trkpt lat="56.315618" lon="60.907528">
        <ele>254.3</ele>
        <time>1970-01-01T12:38:12.145Z</time>
    </trkpt>
    <trkpt lat="56.315613" lon="60.907587">
        <ele>254.3</ele>
        <time>1970-01-01T12:38:13.145Z</time>
    </trkpt>
    <trkpt lat="56.315614" lon="60.907654">
        <ele>254.2</ele>
        <time>1970-01-01T12:38:14.145Z</time>
    </trkpt>
    <trkpt lat="56.315611" lon="60.907714">
        <ele>254.2</ele>
        <time>1970-01-01T12:38:15.145Z</time>
    </trkpt>
    <trkpt lat="56.315602" lon="60.907778">
        <ele>254.1</ele>
        <time>1970-01-01T12:38:16.145Z</time>
    </trkpt>
    <trkpt lat="56.315598" lon="60.907831">
        <ele>254.1</ele>
        <time>1970-01-01T12:38:17.145Z</time>
    </trkpt>
    <trkpt lat="56.315589" lon="60.907889">
        <ele>254.1</ele>
        <time>1970-01-01T12:38:18.145Z</time>
    </trkpt>
    <trkpt lat="56.315586" lon="60.907941">
        <ele>254.0</ele>
        <time>1970-01-01T12:38:19.145Z</time>
    </trkpt>
    <trkpt lat="56.31558" lon="60.908009">
        <ele>254.0</ele>
        <time>1970-01-01T12:38:20.145Z</time>
    </trkpt>
    <trkpt lat="56.315572" lon="60.908066">
        <ele>253.9</ele>
        <time>1970-01-01T12:38:21.145Z</time>
    </trkpt>
    <trkpt lat="56.315564" lon="60.908129">
        <ele>253.9</ele>
        <time>1970-01-01T12:38:22.145Z</time>
    </trkpt>
    <trkpt lat="56.315569" lon="60.908188">
        <ele>253.9</ele>
        <time>1970-01-01T12:38:23.145Z</time>
    </trkpt>
    <trkpt lat="56.31557" lon="60.908244">
        <ele>253.8</ele>
        <time>1970-01-01T12:38:24.145Z</time>
    </trkpt>
    <trkpt lat="56.31557" lon="60.908301">
        <ele>253.8</ele>
        <time>1970-01-01T12:38:25.145Z</time>
    </trkpt>
    <trkpt lat="56.315568" lon="60.908322">
        <ele>253.8</ele>
        <time>1970-01-01T12:38:26.145Z</time>
    </trkpt>
    <trkpt lat="56.315563" lon="60.908376">
        <ele>253.7</ele>
        <time>1970-01-01T12:38:27.145Z</time>
    </trkpt>
    <trkpt lat="56.315561" lon="60.908394">
        <ele>253.7</ele>
        <time>1970-01-01T12:38:28.145Z</time>
    </trkpt>
    <trkpt lat="56.31554" lon="60.908431">
        <ele>253.7</ele>
        <time>1970-01-01T12:38:29.145Z</time>
    </trkpt>
    <trkpt lat="56.31554" lon="60.908502">
        <ele>253.6</ele>
        <time>1970-01-01T12:38:30.145Z</time>
    </trkpt>
    <trkpt lat="56.315539" lon="60.908565">
        <ele>253.6</ele>
        <time>1970-01-01T12:38:31.145Z</time>
    </trkpt>
    <trkpt lat="56.31554" lon="60.90864">
        <ele>253.5</ele>
        <time>1970-01-01T12:38:32.145Z</time>
    </trkpt>
    <trkpt lat="56.315537" lon="60.908702">
        <ele>253.5</ele>
        <time>1970-01-01T12:38:33.145Z</time>
    </trkpt>
    <trkpt lat="56.315529" lon="60.908773">
        <ele>253.4</ele>
        <time>1970-01-01T12:38:34.145Z</time>
    </trkpt>
    <trkpt lat="56.315527" lon="60.908845">
        <ele>253.4</ele>
        <time>1970-01-01T12:38:35.145Z</time>
    </trkpt>
    <trkpt lat="56.315524" lon="60.908915">
        <ele>253.3</ele>
        <time>1970-01-01T12:38:36.145Z</time>
    </trkpt>
    <trkpt lat="56.315516" lon="60.908984">
        <ele>253.3</ele>
        <time>1970-01-01T12:38:37.145Z</time>
    </trkpt>
    <trkpt lat="56.31551" lon="60.90905">
        <ele>253.3</ele>
        <time>1970-01-01T12:38:38.145Z</time>
    </trkpt>
    <trkpt lat="56.315505" lon="60.909122">
        <ele>253.2</ele>
        <time>1970-01-01T12:38:39.145Z</time>
    </trkpt>
    <trkpt lat="56.315506" lon="60.909192">
        <ele>253.2</ele>
        <time>1970-01-01T12:38:40.145Z</time>
    </trkpt>
    <trkpt lat="56.315501" lon="60.909258">
        <ele>253.1</ele>
        <time>1970-01-01T12:38:41.145Z</time>
    </trkpt>
    <trkpt lat="56.315488" lon="60.90934">
        <ele>253.1</ele>
        <time>1970-01-01T12:38:42.145Z</time>
    </trkpt>
    <trkpt lat="56.315484" lon="60.909405">
        <ele>253.0</ele>
        <time>1970-01-01T12:38:43.145Z</time>
    </trkpt>
    <trkpt lat="56.315474" lon="60.909478">
        <ele>253.0</ele>
        <time>1970-01-01T12:38:44.145Z</time>
    </trkpt>
    <trkpt lat="56.315474" lon="60.909544">
        <ele>252.9</ele>
        <time>1970-01-01T12:38:45.145Z</time>
    </trkpt>
    <trkpt lat="56.315477" lon="60.909624">
        <ele>252.9</ele>
        <time>1970-01-01T12:38:46.145Z</time>
    </trkpt>
    <trkpt lat="56.31547" lon="60.909708">
        <ele>252.8</ele>
        <time>1970-01-01T12:38:47.145Z</time>
    </trkpt>
    <trkpt lat="56.315466" lon="60.909769">
        <ele>252.8</ele>
        <time>1970-01-01T12:38:48.145Z</time>
    </trkpt>
    <trkpt lat="56.315469" lon="60.909841">
        <ele>252.7</ele>
        <time>1970-01-01T12:38:49.145Z</time>
    </trkpt>
    <trkpt lat="56.315459" lon="60.90989">
        <ele>252.7</ele>
        <time>1970-01-01T12:38:50.145Z</time>
    </trkpt>
    <trkpt lat="56.315449" lon="60.909943">
        <ele>252.6</ele>
        <time>1970-01-01T12:38:51.145Z</time>
    </trkpt>
    <trkpt lat="56.315445" lon="60.910004">
        <ele>252.6</ele>
        <time>1970-01-01T12:38:52.145Z</time>
    </trkpt>
    <trkpt lat="56.315442" lon="60.910077">
        <ele>252.5</ele>
        <time>1970-01-01T12:38:53.145Z</time>
    </trkpt>
    <trkpt lat="56.315443" lon="60.910154">
        <ele>252.5</ele>
        <time>1970-01-01T12:38:54.145Z</time>
    </trkpt>
    <trkpt lat="56.315442" lon="60.910217">
        <ele>252.4</ele>
        <time>1970-01-01T12:38:55.145Z</time>
    </trkpt>
    <trkpt lat="56.315439" lon="60.910289">
        <ele>252.4</ele>
        <time>1970-01-01T12:38:56.145Z</time>
    </trkpt>
    <trkpt lat="56.31544" lon="60.91036">
        <ele>252.3</ele>
        <time>1970-01-01T12:38:57.145Z</time>
    </trkpt>
    <trkpt lat="56.315435" lon="60.910432">
        <ele>252.3</ele>
        <time>1970-01-01T12:38:58.145Z</time>
    </trkpt>
    <trkpt lat="56.315432" lon="60.910506">
        <ele>252.2</ele>
        <time>1970-01-01T12:38:59.145Z</time>
    </trkpt>
    <trkpt lat="56.315424" lon="60.910568">
        <ele>252.2</ele>
        <time>1970-01-01T12:39:00.145Z</time>
    </trkpt>
    <trkpt lat="56.315415" lon="60.910629">
        <ele>252.2</ele>
        <time>1970-01-01T12:39:01.145Z</time>
    </trkpt>
    <trkpt lat="56.315414" lon="60.910692">
        <ele>252.1</ele>
        <time>1970-01-01T12:39:02.145Z</time>
    </trkpt>
    <trkpt lat="56.315409" lon="60.910766">
        <ele>252.1</ele>
        <time>1970-01-01T12:39:03.145Z</time>
    </trkpt>
    <trkpt lat="56.315406" lon="60.910834">
        <ele>252.0</ele>
        <time>1970-01-01T12:39:04.145Z</time>
    </trkpt>
    <trkpt lat="56.315397" lon="60.910908">
        <ele>252.0</ele>
        <time>1970-01-01T12:39:05.145Z</time>
    </trkpt>
    <trkpt lat="56.315395" lon="60.910983">
        <ele>251.9</ele>
        <time>1970-01-01T12:39:06.145Z</time>
    </trkpt>
    <trkpt lat="56.31539" lon="60.911065">
        <ele>251.9</ele>
        <time>1970-01-01T12:39:07.145Z</time>
    </trkpt>
    <trkpt lat="56.315385" lon="60.911144">
        <ele>251.8</ele>
        <time>1970-01-01T12:39:08.145Z</time>
    </trkpt>
    <trkpt lat="56.315378" lon="60.911204">
        <ele>251.8</ele>
        <time>1970-01-01T12:39:09.145Z</time>
    </trkpt>
    <trkpt lat="56.315372" lon="60.911262">
        <ele>251.7</ele>
        <time>1970-01-01T12:39:10.145Z</time>
    </trkpt>
    <trkpt lat="56.315368" lon="60.911317">
        <ele>251.7</ele>
        <time>1970-01-01T12:39:11.145Z</time>
    </trkpt>
    <trkpt lat="56.315368" lon="60.911335">
        <ele>251.7</ele>
        <time>1970-01-01T12:39:12.145Z</time>
    </trkpt>
    <trkpt lat="56.315362" lon="60.911385">
        <ele>251.6</ele>
        <time>1970-01-01T12:39:13.145Z</time>
    </trkpt>
    <trkpt lat="56.315357" lon="60.911418">
        <ele>251.6</ele>
        <time>1970-01-01T12:39:14.145Z</time>
    </trkpt>
    <trkpt lat="56.315353" lon="60.911445">
        <ele>251.6</ele>
        <time>1970-01-01T12:39:15.145Z</time>
    </trkpt>
    <trkpt lat="56.315348" lon="60.911478">
        <ele>251.6</ele>
        <time>1970-01-01T12:39:16.145Z</time>
    </trkpt>
    <trkpt lat="56.315346" lon="60.911507">
        <ele>251.5</ele>
        <time>1970-01-01T12:39:17.145Z</time>
    </trkpt>
    <trkpt lat="56.315346" lon="60.911517">
        <ele>251.5</ele>
        <time>1970-01-01T12:39:18.145Z</time>
    </trkpt>
    <trkpt lat="56.315346" lon="60.911507">
        <ele>251.5</ele>
        <time>1970-01-01T12:39:19.145Z</time>
    </trkpt>
    <trkpt lat="56.315345" lon="60.911523">
        <ele>251.5</ele>
        <time>1970-01-01T12:39:20.145Z</time>
    </trkpt>
    <trkpt lat="56.315338" lon="60.911586">
        <ele>251.5</ele>
        <time>1970-01-01T12:39:21.145Z</time>
    </trkpt>
    <trkpt lat="56.315337" lon="60.911606">
        <ele>251.5</ele>
        <time>1970-01-01T12:39:22.145Z</time>
    </trkpt>
    <trkpt lat="56.315323" lon="60.911667">
        <ele>251.4</ele>
        <time>1970-01-01T12:39:23.145Z</time>
    </trkpt>
    <trkpt lat="56.315309" lon="60.91172">
        <ele>251.4</ele>
        <time>1970-01-01T12:39:24.145Z</time>
    </trkpt>
    <trkpt lat="56.315293" lon="60.911777">
        <ele>251.3</ele>
        <time>1970-01-01T12:39:25.145Z</time>
    </trkpt>
    <trkpt lat="56.315287" lon="60.911836">
        <ele>251.3</ele>
        <time>1970-01-01T12:39:26.145Z</time>
    </trkpt>
    <trkpt lat="56.315279" lon="60.911896">
        <ele>251.2</ele>
        <time>1970-01-01T12:39:27.145Z</time>
    </trkpt>
    <trkpt lat="56.315269" lon="60.911963">
        <ele>251.2</ele>
        <time>1970-01-01T12:39:28.145Z</time>
    </trkpt>
    <trkpt lat="56.315257" lon="60.912044">
        <ele>251.1</ele>
        <time>1970-01-01T12:39:29.145Z</time>
    </trkpt>
    <trkpt lat="56.315244" lon="60.912104">
        <ele>251.1</ele>
        <time>1970-01-01T12:39:30.145Z</time>
    </trkpt>
    <trkpt lat="56.315234" lon="60.912168">
        <ele>251.1</ele>
        <time>1970-01-01T12:39:31.145Z</time>
    </trkpt>
    <trkpt lat="56.315231" lon="60.912233">
        <ele>251.0</ele>
        <time>1970-01-01T12:39:32.145Z</time>
    </trkpt>
    <trkpt lat="56.315232" lon="60.912304">
        <ele>251.0</ele>
        <time>1970-01-01T12:39:33.145Z</time>
    </trkpt>
    <trkpt lat="56.315229" lon="60.912365">
        <ele>250.9</ele>
        <time>1970-01-01T12:39:34.145Z</time>
    </trkpt>
    <trkpt lat="56.31523" lon="60.912434">
        <ele>250.9</ele>
        <time>1970-01-01T12:39:35.145Z</time>
    </trkpt>
    <trkpt lat="56.315226" lon="60.91251">
        <ele>250.8</ele>
        <time>1970-01-01T12:39:36.145Z</time>
    </trkpt>
    <trkpt lat="56.315218" lon="60.912576">
        <ele>250.8</ele>
        <time>1970-01-01T12:39:37.145Z</time>
    </trkpt>
    <trkpt lat="56.315207" lon="60.91264">
        <ele>250.7</ele>
        <time>1970-01-01T12:39:38.145Z</time>
    </trkpt>
    <trkpt lat="56.315201" lon="60.912713">
        <ele>250.7</ele>
        <time>1970-01-01T12:39:39.145Z</time>
    </trkpt>
    <trkpt lat="56.315197" lon="60.912776">
        <ele>250.6</ele>
        <time>1970-01-01T12:39:40.145Z</time>
    </trkpt>
    <trkpt lat="56.315196" lon="60.912844">
        <ele>250.6</ele>
        <time>1970-01-01T12:39:41.145Z</time>
    </trkpt>
    <trkpt lat="56.315188" lon="60.912892">
        <ele>250.6</ele>
        <time>1970-01-01T12:39:42.145Z</time>
    </trkpt>
    <trkpt lat="56.315188" lon="60.912963">
        <ele>250.5</ele>
        <time>1970-01-01T12:39:43.145Z</time>
    </trkpt>
    <trkpt lat="56.315178" lon="60.913018">
        <ele>250.5</ele>
        <time>1970-01-01T12:39:44.145Z</time>
    </trkpt>
    <trkpt lat="56.315169" lon="60.913073">
        <ele>250.4</ele>
        <time>1970-01-01T12:39:45.145Z</time>
    </trkpt>
    <trkpt lat="56.315162" lon="60.91314">
        <ele>250.4</ele>
        <time>1970-01-01T12:39:46.145Z</time>
    </trkpt>
    <trkpt lat="56.315153" lon="60.913195">
        <ele>250.3</ele>
        <time>1970-01-01T12:39:47.145Z</time>
    </trkpt>
    <trkpt lat="56.315137" lon="60.913254">
        <ele>250.3</ele>
        <time>1970-01-01T12:39:48.145Z</time>
    </trkpt>
    <trkpt lat="56.315119" lon="60.913317">
        <ele>250.2</ele>
        <time>1970-01-01T12:39:49.145Z</time>
    </trkpt>
    <trkpt lat="56.315099" lon="60.913369">
        <ele>250.2</ele>
        <time>1970-01-01T12:39:50.145Z</time>
    </trkpt>
    <trkpt lat="56.315085" lon="60.91343">
        <ele>250.2</ele>
        <time>1970-01-01T12:39:51.145Z</time>
    </trkpt>
    <trkpt lat="56.315062" lon="60.913482">
        <ele>250.1</ele>
        <time>1970-01-01T12:39:52.145Z</time>
    </trkpt>
    <trkpt lat="56.315042" lon="60.913543">
        <ele>250.1</ele>
        <time>1970-01-01T12:39:53.145Z</time>
    </trkpt>
    <trkpt lat="56.31502" lon="60.913609">
        <ele>250.0</ele>
        <time>1970-01-01T12:39:54.145Z</time>
    </trkpt>
    <trkpt lat="56.315002" lon="60.913667">
        <ele>250.0</ele>
        <time>1970-01-01T12:39:55.145Z</time>
    </trkpt>
    <trkpt lat="56.314985" lon="60.913726">
        <ele>249.9</ele>
        <time>1970-01-01T12:39:56.145Z</time>
    </trkpt>
    <trkpt lat="56.314966" lon="60.913777">
        <ele>249.9</ele>
        <time>1970-01-01T12:39:57.145Z</time>
    </trkpt>
    <trkpt lat="56.31494" lon="60.913837">
        <ele>249.8</ele>
        <time>1970-01-01T12:39:58.145Z</time>
    </trkpt>
    <trkpt lat="56.314916" lon="60.913892">
        <ele>249.8</ele>
        <time>1970-01-01T12:39:59.145Z</time>
    </trkpt>
    <trkpt lat="56.314898" lon="60.913947">
        <ele>249.7</ele>
        <time>1970-01-01T12:40:00.145Z</time>
    </trkpt>
    <trkpt lat="56.314889" lon="60.914009">
        <ele>249.7</ele>
        <time>1970-01-01T12:40:01.145Z</time>
    </trkpt>
    <trkpt lat="56.314882" lon="60.914039">
        <ele>249.7</ele>
        <time>1970-01-01T12:40:02.145Z</time>
    </trkpt>
    <trkpt lat="56.314864" lon="60.914106">
        <ele>249.6</ele>
        <time>1970-01-01T12:40:03.145Z</time>
    </trkpt>
    <trkpt lat="56.314836" lon="60.914159">
        <ele>249.6</ele>
        <time>1970-01-01T12:40:04.145Z</time>
    </trkpt>
    <trkpt lat="56.314818" lon="60.914212">
        <ele>249.5</ele>
        <time>1970-01-01T12:40:05.145Z</time>
    </trkpt>
    <trkpt lat="56.314801" lon="60.914262">
        <ele>249.5</ele>
        <time>1970-01-01T12:40:06.145Z</time>
    </trkpt>
    <trkpt lat="56.314759" lon="60.914298">
        <ele>249.4</ele>
        <time>1970-01-01T12:40:07.145Z</time>
    </trkpt>
    <trkpt lat="56.314728" lon="60.914338">
        <ele>249.4</ele>
        <time>1970-01-01T12:40:08.145Z</time>
    </trkpt>
    <trkpt lat="56.314705" lon="60.914368">
        <ele>249.3</ele>
        <time>1970-01-01T12:40:09.145Z</time>
    </trkpt>
    <trkpt lat="56.314677" lon="60.914394">
        <ele>249.3</ele>
        <time>1970-01-01T12:40:10.145Z</time>
    </trkpt>
    <trkpt lat="56.314662" lon="60.914413">
        <ele>249.3</ele>
        <time>1970-01-01T12:40:11.145Z</time>
    </trkpt>
    <trkpt lat="56.314627" lon="60.914459">
        <ele>249.2</ele>
        <time>1970-01-01T12:40:12.145Z</time>
    </trkpt>
    <trkpt lat="56.314595" lon="60.914493">
        <ele>249.2</ele>
        <time>1970-01-01T12:40:13.145Z</time>
    </trkpt>
    <trkpt lat="56.314577" lon="60.914538">
        <ele>249.1</ele>
        <time>1970-01-01T12:40:14.145Z</time>
    </trkpt>
    <trkpt lat="56.314564" lon="60.914582">
        <ele>249.1</ele>
        <time>1970-01-01T12:40:15.145Z</time>
    </trkpt>
    <trkpt lat="56.314551" lon="60.914637">
        <ele>249.1</ele>
        <time>1970-01-01T12:40:16.145Z</time>
    </trkpt>
    <trkpt lat="56.314542" lon="60.914692">
        <ele>249.0</ele>
        <time>1970-01-01T12:40:17.145Z</time>
    </trkpt>
    <trkpt lat="56.314534" lon="60.914725">
        <ele>249.0</ele>
        <time>1970-01-01T12:40:18.145Z</time>
    </trkpt>
    <trkpt lat="56.314512" lon="60.914794">
        <ele>249.0</ele>
        <time>1970-01-01T12:40:19.145Z</time>
    </trkpt>
    <trkpt lat="56.314498" lon="60.914826">
        <ele>249.0</ele>
        <time>1970-01-01T12:40:20.145Z</time>
    </trkpt>
    <trkpt lat="56.314479" lon="60.914896">
        <ele>249.1</ele>
        <time>1970-01-01T12:41:11.145Z</time>
    </trkpt>
    <trkpt lat="56.314483" lon="60.91491">
        <ele>249.1</ele>
        <time>1970-01-01T12:41:12.145Z</time>
    </trkpt>
    <trkpt lat="56.314483" lon="60.91491">
        <ele>249.1</ele>
        <time>1970-01-01T12:41:13.145Z</time>
    </trkpt>
    <trkpt lat="56.314483" lon="60.91491">
        <ele>249.1</ele>
        <time>1970-01-01T12:41:14.145Z</time>
    </trkpt>
    <trkpt lat="56.314483" lon="60.91491">
        <ele>249.1</ele>
        <time>1970-01-01T12:41:15.145Z</time>
    </trkpt>
    <trkpt lat="56.314483" lon="60.91491">
        <ele>249.1</ele>
        <time>1970-01-01T12:41:16.145Z</time>
    </trkpt>
    <trkpt lat="56.314483" lon="60.91491">
        <ele>249.1</ele>
        <time>1970-01-01T12:41:17.145Z</time>
    </trkpt>
    <trkpt lat="56.314483" lon="60.91491">
        <ele>249.1</ele>
        <time>1970-01-01T12:41:18.145Z</time>
    </trkpt>
    <trkpt lat="56.314483" lon="60.91491">
        <ele>249.1</ele>
        <time>1970-01-01T12:41:19.145Z</time>
    </trkpt>
    <trkpt lat="56.314486" lon="60.914901">
        <ele>249.1</ele>
        <time>1970-01-01T12:41:20.145Z</time>
    </trkpt>
    <trkpt lat="56.314486" lon="60.914909">
        <ele>249.1</ele>
        <time>1970-01-01T12:41:21.145Z</time>
    </trkpt>
    <trkpt lat="56.314481" lon="60.914924">
        <ele>249.1</ele>
        <time>1970-01-01T12:41:22.145Z</time>
    </trkpt>
    <trkpt lat="56.314475" lon="60.914931">
        <ele>249.1</ele>
        <time>1970-01-01T12:41:23.145Z</time>
    </trkpt>
    <trkpt lat="56.314467" lon="60.914938">
        <ele>249.1</ele>
        <time>1970-01-01T12:41:24.145Z</time>
    </trkpt>
    <trkpt lat="56.314462" lon="60.914945">
        <ele>249.1</ele>
        <time>1970-01-01T12:41:25.145Z</time>
    </trkpt>
    <trkpt lat="56.314456" lon="60.914965">
        <ele>249.1</ele>
        <time>1970-01-01T12:41:26.145Z</time>
    </trkpt>
    <trkpt lat="56.314446" lon="60.914982">
        <ele>249.1</ele>
        <time>1970-01-01T12:41:27.145Z</time>
    </trkpt>
    <trkpt lat="56.314436" lon="60.914999">
        <ele>249.1</ele>
        <time>1970-01-01T12:41:28.145Z</time>
    </trkpt>
    <trkpt lat="56.314428" lon="60.91501">
        <ele>249.1</ele>
        <time>1970-01-01T12:41:29.145Z</time>
    </trkpt>
    <trkpt lat="56.314406" lon="60.915049">
        <ele>249.2</ele>
        <time>1970-01-01T12:41:30.145Z</time>
    </trkpt>
    <trkpt lat="56.314383" lon="60.915081">
        <ele>249.2</ele>
        <time>1970-01-01T12:41:31.145Z</time>
    </trkpt>
    <trkpt lat="56.314363" lon="60.915121">
        <ele>249.2</ele>
        <time>1970-01-01T12:41:32.145Z</time>
    </trkpt>
    <trkpt lat="56.314348" lon="60.915171">
        <ele>249.2</ele>
        <time>1970-01-01T12:41:33.145Z</time>
    </trkpt>
    <trkpt lat="56.314327" lon="60.915213">
        <ele>249.2</ele>
        <time>1970-01-01T12:41:34.145Z</time>
    </trkpt>
    <trkpt lat="56.314316" lon="60.915269">
        <ele>249.3</ele>
        <time>1970-01-01T12:41:35.145Z</time>
    </trkpt>
    <trkpt lat="56.314302" lon="60.915325">
        <ele>249.3</ele>
        <time>1970-01-01T12:41:36.145Z</time>
    </trkpt>
    <trkpt lat="56.31429" lon="60.91538">
        <ele>249.3</ele>
        <time>1970-01-01T12:41:37.145Z</time>
    </trkpt>
    <trkpt lat="56.314272" lon="60.915443">
        <ele>249.3</ele>
        <time>1970-01-01T12:41:38.145Z</time>
    </trkpt>
    <trkpt lat="56.314261" lon="60.915496">
        <ele>249.3</ele>
        <time>1970-01-01T12:41:39.145Z</time>
    </trkpt>
    <trkpt lat="56.314254" lon="60.915553">
        <ele>249.4</ele>
        <time>1970-01-01T12:41:40.145Z</time>
    </trkpt>
    <trkpt lat="56.314246" lon="60.915613">
        <ele>249.4</ele>
        <time>1970-01-01T12:41:41.145Z</time>
    </trkpt>
    <trkpt lat="56.314228" lon="60.915656">
        <ele>249.4</ele>
        <time>1970-01-01T12:41:42.145Z</time>
    </trkpt>
    <trkpt lat="56.314215" lon="60.915706">
        <ele>249.4</ele>
        <time>1970-01-01T12:41:43.145Z</time>
    </trkpt>
    <trkpt lat="56.314197" lon="60.915768">
        <ele>249.5</ele>
        <time>1970-01-01T12:41:44.145Z</time>
    </trkpt>
    <trkpt lat="56.314178" lon="60.915832">
        <ele>249.5</ele>
        <time>1970-01-01T12:41:45.145Z</time>
    </trkpt>
    <trkpt lat="56.314164" lon="60.915887">
        <ele>249.5</ele>
        <time>1970-01-01T12:41:46.145Z</time>
    </trkpt>
    <trkpt lat="56.314151" lon="60.915941">
        <ele>249.5</ele>
        <time>1970-01-01T12:41:47.145Z</time>
    </trkpt>
    <trkpt lat="56.314137" lon="60.915995">
        <ele>249.6</ele>
        <time>1970-01-01T12:41:48.145Z</time>
    </trkpt>
    <trkpt lat="56.314119" lon="60.916053">
        <ele>249.6</ele>
        <time>1970-01-01T12:41:49.145Z</time>
    </trkpt>
    <trkpt lat="56.314102" lon="60.916117">
        <ele>249.6</ele>
        <time>1970-01-01T12:41:50.145Z</time>
    </trkpt>
    <trkpt lat="56.314085" lon="60.916173">
        <ele>249.6</ele>
        <time>1970-01-01T12:41:51.145Z</time>
    </trkpt>
    <trkpt lat="56.314072" lon="60.916232">
        <ele>249.6</ele>
        <time>1970-01-01T12:41:52.145Z</time>
    </trkpt>
    <trkpt lat="56.314055" lon="60.916287">
        <ele>249.7</ele>
        <time>1970-01-01T12:41:53.145Z</time>
    </trkpt>
    <trkpt lat="56.314041" lon="60.916344">
        <ele>249.7</ele>
        <time>1970-01-01T12:41:54.145Z</time>
    </trkpt>
    <trkpt lat="56.314028" lon="60.9164">
        <ele>249.7</ele>
        <time>1970-01-01T12:41:55.145Z</time>
    </trkpt>
    <trkpt lat="56.314017" lon="60.916456">
        <ele>249.7</ele>
        <time>1970-01-01T12:41:56.145Z</time>
    </trkpt>
    <trkpt lat="56.314002" lon="60.91651">
        <ele>249.8</ele>
        <time>1970-01-01T12:41:57.145Z</time>
    </trkpt>
    <trkpt lat="56.313988" lon="60.916562">
        <ele>249.8</ele>
        <time>1970-01-01T12:41:58.145Z</time>
    </trkpt>
    <trkpt lat="56.313975" lon="60.916617">
        <ele>249.8</ele>
        <time>1970-01-01T12:41:59.145Z</time>
    </trkpt>
    <trkpt lat="56.313964" lon="60.916672">
        <ele>249.8</ele>
        <time>1970-01-01T12:42:00.145Z</time>
    </trkpt>
    <trkpt lat="56.313947" lon="60.91673">
        <ele>249.8</ele>
        <time>1970-01-01T12:42:01.145Z</time>
    </trkpt>
    <trkpt lat="56.31393" lon="60.916793">
        <ele>249.9</ele>
        <time>1970-01-01T12:42:02.145Z</time>
    </trkpt>
    <trkpt lat="56.313915" lon="60.916861">
        <ele>249.9</ele>
        <time>1970-01-01T12:42:03.145Z</time>
    </trkpt>
    <trkpt lat="56.313902" lon="60.916927">
        <ele>249.9</ele>
        <time>1970-01-01T12:42:04.145Z</time>
    </trkpt>
    <trkpt lat="56.313889" lon="60.916994">
        <ele>250.0</ele>
        <time>1970-01-01T12:42:05.145Z</time>
    </trkpt>
    <trkpt lat="56.313874" lon="60.917061">
        <ele>250.0</ele>
        <time>1970-01-01T12:42:06.145Z</time>
    </trkpt>
    <trkpt lat="56.313859" lon="60.917121">
        <ele>250.0</ele>
        <time>1970-01-01T12:42:07.145Z</time>
    </trkpt>
    <trkpt lat="56.313844" lon="60.917173">
        <ele>250.0</ele>
        <time>1970-01-01T12:42:08.145Z</time>
    </trkpt>
    <trkpt lat="56.313831" lon="60.917219">
        <ele>250.0</ele>
        <time>1970-01-01T12:42:09.145Z</time>
    </trkpt>
    <trkpt lat="56.313818" lon="60.917266">
        <ele>250.1</ele>
        <time>1970-01-01T12:42:10.145Z</time>
    </trkpt>
    <trkpt lat="56.313808" lon="60.917312">
        <ele>250.1</ele>
        <time>1970-01-01T12:42:11.145Z</time>
    </trkpt>
    <trkpt lat="56.313799" lon="60.91736">
        <ele>250.1</ele>
        <time>1970-01-01T12:42:12.145Z</time>
    </trkpt>
    <trkpt lat="56.313794" lon="60.917382">
        <ele>250.1</ele>
        <time>1970-01-01T12:42:13.145Z</time>
    </trkpt>
    <trkpt lat="56.313779" lon="60.917449">
        <ele>250.1</ele>
        <time>1970-01-01T12:42:14.145Z</time>
    </trkpt>
    <trkpt lat="56.313772" lon="60.917469">
        <ele>250.1</ele>
        <time>1970-01-01T12:42:15.145Z</time>
    </trkpt>
    <trkpt lat="56.313756" lon="60.917531">
        <ele>250.2</ele>
        <time>1970-01-01T12:42:16.145Z</time>
    </trkpt>
    <trkpt lat="56.313755" lon="60.917536">
        <ele>250.2</ele>
        <time>1970-01-01T12:42:17.145Z</time>
    </trkpt>
    <trkpt lat="56.313754" lon="60.917541">
        <ele>250.2</ele>
        <time>1970-01-01T12:42:29.145Z</time>
    </trkpt>
    <trkpt lat="56.313753" lon="60.917545">
        <ele>250.2</ele>
        <time>1970-01-01T12:42:30.145Z</time>
    </trkpt>
    <trkpt lat="56.313752" lon="60.91755">
        <ele>250.2</ele>
        <time>1970-01-01T12:42:31.145Z</time>
    </trkpt>
    <trkpt lat="56.313751" lon="60.917555">
        <ele>250.2</ele>
        <time>1970-01-01T12:42:32.145Z</time>
    </trkpt>
    <trkpt lat="56.31375" lon="60.917559">
        <ele>250.2</ele>
        <time>1970-01-01T12:42:33.145Z</time>
    </trkpt>
    <trkpt lat="56.313749" lon="60.917564">
        <ele>250.2</ele>
        <time>1970-01-01T12:42:34.145Z</time>
    </trkpt>
    <trkpt lat="56.313748" lon="60.917569">
        <ele>250.2</ele>
        <time>1970-01-01T12:42:35.145Z</time>
    </trkpt>
    <trkpt lat="56.313747" lon="60.917573">
        <ele>250.2</ele>
        <time>1970-01-01T12:42:36.145Z</time>
    </trkpt>
    <trkpt lat="56.313746" lon="60.917578">
        <ele>250.2</ele>
        <time>1970-01-01T12:42:37.145Z</time>
    </trkpt>
    <trkpt lat="56.313745" lon="60.917583">
        <ele>250.2</ele>
        <time>1970-01-01T12:42:38.145Z</time>
    </trkpt>
    <trkpt lat="56.313744" lon="60.917587">
        <ele>250.2</ele>
        <time>1970-01-01T12:43:40.145Z</time>
    </trkpt>
    <trkpt lat="56.313743" lon="60.917592">
        <ele>250.2</ele>
        <time>1970-01-01T12:43:41.145Z</time>
    </trkpt>
    <trkpt lat="56.313743" lon="60.917597">
        <ele>250.2</ele>
        <time>1970-01-01T12:43:42.145Z</time>
    </trkpt>
    <trkpt lat="56.313742" lon="60.917601">
        <ele>250.2</ele>
        <time>1970-01-01T12:43:43.145Z</time>
    </trkpt>
    <trkpt lat="56.313741" lon="60.917606">
        <ele>250.2</ele>
        <time>1970-01-01T12:43:44.145Z</time>
    </trkpt>
    <trkpt lat="56.31374" lon="60.917611">
        <ele>250.2</ele>
        <time>1970-01-01T12:43:45.145Z</time>
    </trkpt>
    <trkpt lat="56.313739" lon="60.917615">
        <ele>250.2</ele>
        <time>1970-01-01T12:43:46.145Z</time>
    </trkpt>
    <trkpt lat="56.313738" lon="60.91762">
        <ele>250.2</ele>
        <time>1970-01-01T12:43:47.145Z</time>
    </trkpt>
    <trkpt lat="56.313737" lon="60.917625">
        <ele>250.2</ele>
        <time>1970-01-01T12:43:48.145Z</time>
    </trkpt>
    <trkpt lat="56.313736" lon="60.917629">
        <ele>250.2</ele>
        <time>1970-01-01T12:43:49.145Z</time>
    </trkpt>
    <trkpt lat="56.313735" lon="60.917634">
        <ele>250.2</ele>
        <time>1970-01-01T12:43:50.145Z</time>
    </trkpt>
    <trkpt lat="56.313732" lon="60.91765">
        <ele>250.2</ele>
        <time>1970-01-01T12:43:51.145Z</time>
    </trkpt>
    <trkpt lat="56.313726" lon="60.917668">
        <ele>250.2</ele>
        <time>1970-01-01T12:43:52.145Z</time>
    </trkpt>
    <trkpt lat="56.313709" lon="60.917723">
        <ele>250.2</ele>
        <time>1970-01-01T12:43:53.145Z</time>
    </trkpt>
    <trkpt lat="56.313704" lon="60.917741">
        <ele>250.3</ele>
        <time>1970-01-01T12:43:54.145Z</time>
    </trkpt>
    <trkpt lat="56.313692" lon="60.9178">
        <ele>250.3</ele>
        <time>1970-01-01T12:43:55.145Z</time>
    </trkpt>
    <trkpt lat="56.313686" lon="60.917819">
        <ele>250.3</ele>
        <time>1970-01-01T12:43:56.145Z</time>
    </trkpt>
    <trkpt lat="56.313669" lon="60.917878">
        <ele>250.3</ele>
        <time>1970-01-01T12:43:57.145Z</time>
    </trkpt>
    <trkpt lat="56.313655" lon="60.917924">
        <ele>250.3</ele>
        <time>1970-01-01T12:43:58.145Z</time>
    </trkpt>
    <trkpt lat="56.313645" lon="60.917974">
        <ele>250.3</ele>
        <time>1970-01-01T12:43:59.145Z</time>
    </trkpt>
    <trkpt lat="56.313633" lon="60.918027">
        <ele>250.4</ele>
        <time>1970-01-01T12:44:00.145Z</time>
    </trkpt>
    <trkpt lat="56.313622" lon="60.918081">
        <ele>250.4</ele>
        <time>1970-01-01T12:44:01.145Z</time>
    </trkpt>
    <trkpt lat="56.313609" lon="60.918131">
        <ele>250.4</ele>
        <time>1970-01-01T12:44:02.145Z</time>
    </trkpt>
    <trkpt lat="56.313593" lon="60.918181">
        <ele>250.4</ele>
        <time>1970-01-01T12:44:03.145Z</time>
    </trkpt>
    <trkpt lat="56.31358" lon="60.918234">
        <ele>250.5</ele>
        <time>1970-01-01T12:44:04.145Z</time>
    </trkpt>
    <trkpt lat="56.313557" lon="60.918289">
        <ele>250.5</ele>
        <time>1970-01-01T12:44:05.145Z</time>
    </trkpt>
    <trkpt lat="56.313533" lon="60.918345">
        <ele>250.5</ele>
        <time>1970-01-01T12:44:06.145Z</time>
    </trkpt>
    <trkpt lat="56.313509" lon="60.918399">
        <ele>250.5</ele>
        <time>1970-01-01T12:44:07.145Z</time>
    </trkpt>
    <trkpt lat="56.313485" lon="60.918455">
        <ele>250.6</ele>
        <time>1970-01-01T12:44:08.145Z</time>
    </trkpt>
    <trkpt lat="56.313457" lon="60.918502">
        <ele>250.6</ele>
        <time>1970-01-01T12:44:09.145Z</time>
    </trkpt>
    <trkpt lat="56.31343" lon="60.91855">
        <ele>250.6</ele>
        <time>1970-01-01T12:44:10.145Z</time>
    </trkpt>
    <trkpt lat="56.313403" lon="60.918597">
        <ele>250.6</ele>
        <time>1970-01-01T12:44:11.145Z</time>
    </trkpt>
    <trkpt lat="56.313377" lon="60.91864">
        <ele>250.7</ele>
        <time>1970-01-01T12:44:12.145Z</time>
    </trkpt>
    <trkpt lat="56.313355" lon="60.918683">
        <ele>250.7</ele>
        <time>1970-01-01T12:44:13.145Z</time>
    </trkpt>
    <trkpt lat="56.313334" lon="60.918727">
        <ele>250.7</ele>
        <time>1970-01-01T12:44:14.145Z</time>
    </trkpt>
    <trkpt lat="56.313311" lon="60.918773">
        <ele>250.7</ele>
        <time>1970-01-01T12:44:15.145Z</time>
    </trkpt>
    <trkpt lat="56.313293" lon="60.918826">
        <ele>250.7</ele>
        <time>1970-01-01T12:44:16.145Z</time>
    </trkpt>
    <trkpt lat="56.31328" lon="60.91888">
        <ele>250.8</ele>
        <time>1970-01-01T12:44:17.145Z</time>
    </trkpt>
    <trkpt lat="56.313262" lon="60.918935">
        <ele>250.8</ele>
        <time>1970-01-01T12:44:18.145Z</time>
    </trkpt>
    <trkpt lat="56.313247" lon="60.918986">
        <ele>250.8</ele>
        <time>1970-01-01T12:44:19.145Z</time>
    </trkpt>
    <trkpt lat="56.31324" lon="60.919012">
        <ele>250.8</ele>
        <time>1970-01-01T12:44:20.145Z</time>
    </trkpt>
    <trkpt lat="56.313223" lon="60.919084">
        <ele>250.9</ele>
        <time>1970-01-01T12:44:21.145Z</time>
    </trkpt>
    <trkpt lat="56.313211" lon="60.919141">
        <ele>250.9</ele>
        <time>1970-01-01T12:44:22.145Z</time>
    </trkpt>
    <trkpt lat="56.313191" lon="60.919215">
        <ele>250.9</ele>
        <time>1970-01-01T12:44:23.145Z</time>
    </trkpt>
    <trkpt lat="56.313175" lon="60.919274">
        <ele>250.9</ele>
        <time>1970-01-01T12:44:24.145Z</time>
    </trkpt>
    <trkpt lat="56.313152" lon="60.919316">
        <ele>250.9</ele>
        <time>1970-01-01T12:44:25.145Z</time>
    </trkpt>
    <trkpt lat="56.313134" lon="60.919367">
        <ele>251.0</ele>
        <time>1970-01-01T12:44:26.145Z</time>
    </trkpt>
    <trkpt lat="56.313108" lon="60.919416">
        <ele>251.0</ele>
        <time>1970-01-01T12:44:27.145Z</time>
    </trkpt>
    <trkpt lat="56.31309" lon="60.919461">
        <ele>251.0</ele>
        <time>1970-01-01T12:44:28.145Z</time>
    </trkpt>
    <trkpt lat="56.313071" lon="60.919518">
        <ele>251.0</ele>
        <time>1970-01-01T12:44:29.145Z</time>
    </trkpt>
    <trkpt lat="56.313055" lon="60.919581">
        <ele>251.1</ele>
        <time>1970-01-01T12:44:30.145Z</time>
    </trkpt>
    <trkpt lat="56.313041" lon="60.919643">
        <ele>251.1</ele>
        <time>1970-01-01T12:44:31.145Z</time>
    </trkpt>
    <trkpt lat="56.313034" lon="60.919678">
        <ele>251.1</ele>
        <time>1970-01-01T12:44:32.145Z</time>
    </trkpt>
    <trkpt lat="56.31302" lon="60.919753">
        <ele>251.1</ele>
        <time>1970-01-01T12:44:33.145Z</time>
    </trkpt>
    <trkpt lat="56.313005" lon="60.9198">
        <ele>251.2</ele>
        <time>1970-01-01T12:44:34.145Z</time>
    </trkpt>
    <trkpt lat="56.312994" lon="60.919851">
        <ele>251.2</ele>
        <time>1970-01-01T12:44:35.145Z</time>
    </trkpt>
    <trkpt lat="56.31298" lon="60.919902">
        <ele>251.2</ele>
        <time>1970-01-01T12:44:36.145Z</time>
    </trkpt>
    <trkpt lat="56.312962" lon="60.919951">
        <ele>251.2</ele>
        <time>1970-01-01T12:44:37.145Z</time>
    </trkpt>
    <trkpt lat="56.312945" lon="60.920007">
        <ele>251.2</ele>
        <time>1970-01-01T12:44:38.145Z</time>
    </trkpt>
    <trkpt lat="56.312928" lon="60.920062">
        <ele>251.3</ele>
        <time>1970-01-01T12:44:39.145Z</time>
    </trkpt>
    <trkpt lat="56.312914" lon="60.92011">
        <ele>251.3</ele>
        <time>1970-01-01T12:44:40.145Z</time>
    </trkpt>
    <trkpt lat="56.312904" lon="60.920157">
        <ele>251.3</ele>
        <time>1970-01-01T12:44:41.145Z</time>
    </trkpt>
    <trkpt lat="56.31289" lon="60.920203">
        <ele>251.3</ele>
        <time>1970-01-01T12:44:42.145Z</time>
    </trkpt>
    <trkpt lat="56.312868" lon="60.920246">
        <ele>251.3</ele>
        <time>1970-01-01T12:44:43.145Z</time>
    </trkpt>
    <trkpt lat="56.312849" lon="60.920298">
        <ele>251.4</ele>
        <time>1970-01-01T12:44:44.145Z</time>
    </trkpt>
    <trkpt lat="56.312835" lon="60.920349">
        <ele>251.4</ele>
        <time>1970-01-01T12:44:45.145Z</time>
    </trkpt>
    <trkpt lat="56.312825" lon="60.920402">
        <ele>251.4</ele>
        <time>1970-01-01T12:44:46.145Z</time>
    </trkpt>
    <trkpt lat="56.312802" lon="60.920447">
        <ele>251.4</ele>
        <time>1970-01-01T12:44:47.145Z</time>
    </trkpt>
    <trkpt lat="56.312785" lon="60.920494">
        <ele>251.4</ele>
        <time>1970-01-01T12:44:48.145Z</time>
    </trkpt>
    <trkpt lat="56.312771" lon="60.920543">
        <ele>251.5</ele>
        <time>1970-01-01T12:44:49.145Z</time>
    </trkpt>
    <trkpt lat="56.312767" lon="60.920565">
        <ele>251.5</ele>
        <time>1970-01-01T12:44:50.145Z</time>
    </trkpt>
    <trkpt lat="56.312755" lon="60.920632">
        <ele>251.5</ele>
        <time>1970-01-01T12:44:51.145Z</time>
    </trkpt>
    <trkpt lat="56.312746" lon="60.920654">
        <ele>251.5</ele>
        <time>1970-01-01T12:44:52.145Z</time>
    </trkpt>
    <trkpt lat="56.312727" lon="60.920717">
        <ele>251.5</ele>
        <time>1970-01-01T12:44:53.145Z</time>
    </trkpt>
    <trkpt lat="56.31272" lon="60.920732">
        <ele>251.5</ele>
        <time>1970-01-01T12:44:54.145Z</time>
    </trkpt>
    <trkpt lat="56.312701" lon="60.920777">
        <ele>251.6</ele>
        <time>1970-01-01T12:44:55.145Z</time>
    </trkpt>
    <trkpt lat="56.312694" lon="60.920787">
        <ele>251.6</ele>
        <time>1970-01-01T12:44:56.145Z</time>
    </trkpt>
    <trkpt lat="56.312684" lon="60.920802">
        <ele>251.6</ele>
        <time>1970-01-01T12:44:57.145Z</time>
    </trkpt>
    <trkpt lat="56.312689" lon="60.920816">
        <ele>251.6</ele>
        <time>1970-01-01T12:44:58.145Z</time>
    </trkpt>
    <trkpt lat="56.312689" lon="60.920816">
        <ele>251.6</ele>
        <time>1970-01-01T12:44:59.145Z</time>
    </trkpt>
    <trkpt lat="56.312689" lon="60.920816">
        <ele>251.6</ele>
        <time>1970-01-01T12:45:00.145Z</time>
    </trkpt>
    <trkpt lat="56.312689" lon="60.920815">
        <ele>251.6</ele>
        <time>1970-01-01T12:45:01.145Z</time>
    </trkpt>
    <trkpt lat="56.312687" lon="60.920815">
        <ele>251.6</ele>
        <time>1970-01-01T12:45:02.145Z</time>
    </trkpt>
    <trkpt lat="56.312683" lon="60.920812">
        <ele>251.6</ele>
        <time>1970-01-01T12:45:03.145Z</time>
    </trkpt>
    <trkpt lat="56.31268" lon="60.920801">
        <ele>251.6</ele>
        <time>1970-01-01T12:45:04.145Z</time>
    </trkpt>
    <trkpt lat="56.312675" lon="60.920812">
        <ele>251.6</ele>
        <time>1970-01-01T12:45:05.145Z</time>
    </trkpt>
    <trkpt lat="56.312669" lon="60.920836">
        <ele>251.6</ele>
        <time>1970-01-01T12:45:06.145Z</time>
    </trkpt>
    <trkpt lat="56.312657" lon="60.92086">
        <ele>251.6</ele>
        <time>1970-01-01T12:45:07.145Z</time>
    </trkpt>
    <trkpt lat="56.312649" lon="60.920873">
        <ele>251.6</ele>
        <time>1970-01-01T12:45:08.145Z</time>
    </trkpt>
    <trkpt lat="56.312626" lon="60.920914">
        <ele>251.7</ele>
        <time>1970-01-01T12:45:09.145Z</time>
    </trkpt>
    <trkpt lat="56.312621" lon="60.92093">
        <ele>251.7</ele>
        <time>1970-01-01T12:45:10.145Z</time>
    </trkpt>
    <trkpt lat="56.312605" lon="60.92098">
        <ele>251.7</ele>
        <time>1970-01-01T12:45:11.145Z</time>
    </trkpt>
    <trkpt lat="56.312601" lon="60.921002">
        <ele>251.7</ele>
        <time>1970-01-01T12:45:12.145Z</time>
    </trkpt>
    <trkpt lat="56.312594" lon="60.921027">
        <ele>251.7</ele>
        <time>1970-01-01T12:45:13.145Z</time>
    </trkpt>
    <trkpt lat="56.312587" lon="60.921051">
        <ele>251.7</ele>
        <time>1970-01-01T12:45:14.145Z</time>
    </trkpt>
    <trkpt lat="56.312575" lon="60.921077">
        <ele>251.7</ele>
        <time>1970-01-01T12:45:15.145Z</time>
    </trkpt>
    <trkpt lat="56.312569" lon="60.921093">
        <ele>251.7</ele>
        <time>1970-01-01T12:45:16.145Z</time>
    </trkpt>
    <trkpt lat="56.312554" lon="60.921146">
        <ele>251.8</ele>
        <time>1970-01-01T12:45:17.145Z</time>
    </trkpt>
    <trkpt lat="56.31255" lon="60.921165">
        <ele>251.8</ele>
        <time>1970-01-01T12:45:18.145Z</time>
    </trkpt>
    <trkpt lat="56.312539" lon="60.921213">
        <ele>251.8</ele>
        <time>1970-01-01T12:45:19.145Z</time>
    </trkpt>
    <trkpt lat="56.312531" lon="60.921237">
        <ele>251.8</ele>
        <time>1970-01-01T12:45:20.145Z</time>
    </trkpt>
    <trkpt lat="56.312521" lon="60.921258">
        <ele>251.8</ele>
        <time>1970-01-01T12:45:21.145Z</time>
    </trkpt>
    <trkpt lat="56.312512" lon="60.921282">
        <ele>251.8</ele>
        <time>1970-01-01T12:45:22.145Z</time>
    </trkpt>
    <trkpt lat="56.312502" lon="60.921298">
        <ele>251.8</ele>
        <time>1970-01-01T12:45:23.145Z</time>
    </trkpt>
    <trkpt lat="56.312497" lon="60.921321">
        <ele>251.8</ele>
        <time>1970-01-01T12:45:24.145Z</time>
    </trkpt>
    <trkpt lat="56.312493" lon="60.921347">
        <ele>251.8</ele>
        <time>1970-01-01T12:45:25.145Z</time>
    </trkpt>
    <trkpt lat="56.312496" lon="60.921352">
        <ele>251.8</ele>
        <time>1970-01-01T12:45:26.145Z</time>
    </trkpt>
    <trkpt lat="56.312498" lon="60.921357">
        <ele>251.8</ele>
        <time>1970-01-01T12:45:27.145Z</time>
    </trkpt>
    <trkpt lat="56.3125" lon="60.921362">
        <ele>251.8</ele>
        <time>1970-01-01T12:45:28.145Z</time>
    </trkpt>
    <trkpt lat="56.312502" lon="60.921367">
        <ele>251.8</ele>
        <time>1970-01-01T12:45:29.145Z</time>
    </trkpt>
    <trkpt lat="56.312504" lon="60.921372">
        <ele>251.8</ele>
        <time>1970-01-01T12:45:30.145Z</time>
    </trkpt>
    <trkpt lat="56.312506" lon="60.921377">
        <ele>251.9</ele>
        <time>1970-01-01T12:45:31.145Z</time>
    </trkpt>
    <trkpt lat="56.312508" lon="60.921382">
        <ele>251.9</ele>
        <time>1970-01-01T12:45:32.145Z</time>
    </trkpt>
    <trkpt lat="56.312507" lon="60.921411">
        <ele>251.9</ele>
        <time>1970-01-01T12:45:33.145Z</time>
    </trkpt>
    <trkpt lat="56.312506" lon="60.921419">
        <ele>251.9</ele>
        <time>1970-01-01T12:45:34.145Z</time>
    </trkpt>
    <trkpt lat="56.312504" lon="60.921427">
        <ele>251.9</ele>
        <time>1970-01-01T12:45:35.145Z</time>
    </trkpt>
    <trkpt lat="56.312502" lon="60.921436">
        <ele>251.9</ele>
        <time>1970-01-01T12:47:08.145Z</time>
    </trkpt>
    <trkpt lat="56.312501" lon="60.921444">
        <ele>251.9</ele>
        <time>1970-01-01T12:47:09.145Z</time>
    </trkpt>
    <trkpt lat="56.312499" lon="60.921452">
        <ele>251.9</ele>
        <time>1970-01-01T12:47:10.145Z</time>
    </trkpt>
    <trkpt lat="56.312497" lon="60.921461">
        <ele>251.9</ele>
        <time>1970-01-01T12:47:11.145Z</time>
    </trkpt>
    <trkpt lat="56.312496" lon="60.921469">
        <ele>251.9</ele>
        <time>1970-01-01T12:47:12.145Z</time>
    </trkpt>
    <trkpt lat="56.312494" lon="60.921477">
        <ele>251.9</ele>
        <time>1970-01-01T12:47:13.145Z</time>
    </trkpt>
    <trkpt lat="56.312492" lon="60.921485">
        <ele>251.9</ele>
        <time>1970-01-01T12:47:14.145Z</time>
    </trkpt>
    <trkpt lat="56.312491" lon="60.921494">
        <ele>251.9</ele>
        <time>1970-01-01T12:47:15.145Z</time>
    </trkpt>
    <trkpt lat="56.312489" lon="60.921502">
        <ele>251.9</ele>
        <time>1970-01-01T12:47:16.145Z</time>
    </trkpt>
    <trkpt lat="56.312487" lon="60.92151">
        <ele>251.9</ele>
        <time>1970-01-01T12:47:17.145Z</time>
    </trkpt>
    <trkpt lat="56.312486" lon="60.921519">
        <ele>251.9</ele>
        <time>1970-01-01T12:47:18.145Z</time>
    </trkpt>
    <trkpt lat="56.312487" lon="60.921544">
        <ele>251.9</ele>
        <time>1970-01-01T12:47:19.145Z</time>
    </trkpt>
    <trkpt lat="56.312488" lon="60.92157">
        <ele>251.9</ele>
        <time>1970-01-01T12:47:20.145Z</time>
    </trkpt>
    <trkpt lat="56.312486" lon="60.9216">
        <ele>251.9</ele>
        <time>1970-01-01T12:47:21.145Z</time>
    </trkpt>
    <trkpt lat="56.312485" lon="60.921618">
        <ele>251.9</ele>
        <time>1970-01-01T12:47:22.145Z</time>
    </trkpt>
    <trkpt lat="56.312483" lon="60.921666">
        <ele>252.0</ele>
        <time>1970-01-01T12:47:23.145Z</time>
    </trkpt>
    <trkpt lat="56.312482" lon="60.921683">
        <ele>252.0</ele>
        <time>1970-01-01T12:47:24.145Z</time>
    </trkpt>
    <trkpt lat="56.312481" lon="60.921737">
        <ele>252.0</ele>
        <time>1970-01-01T12:47:25.145Z</time>
    </trkpt>
    <trkpt lat="56.312478" lon="60.921755">
        <ele>252.0</ele>
        <time>1970-01-01T12:47:26.145Z</time>
    </trkpt>
    <trkpt lat="56.312472" lon="60.921809">
        <ele>252.0</ele>
        <time>1970-01-01T12:47:27.145Z</time>
    </trkpt>
    <trkpt lat="56.312472" lon="60.921828">
        <ele>252.0</ele>
        <time>1970-01-01T12:47:28.145Z</time>
    </trkpt>
    <trkpt lat="56.31247" lon="60.92189">
        <ele>252.0</ele>
        <time>1970-01-01T12:47:29.145Z</time>
    </trkpt>
    <trkpt lat="56.31247" lon="60.921909">
        <ele>252.0</ele>
        <time>1970-01-01T12:47:30.145Z</time>
    </trkpt>
    <trkpt lat="56.312466" lon="60.921963">
        <ele>252.0</ele>
        <time>1970-01-01T12:47:31.145Z</time>
    </trkpt>
    <trkpt lat="56.312463" lon="60.921978">
        <ele>252.0</ele>
        <time>1970-01-01T12:47:32.145Z</time>
    </trkpt>
    <trkpt lat="56.312462" lon="60.922039">
        <ele>252.1</ele>
        <time>1970-01-01T12:47:33.145Z</time>
    </trkpt>
    <trkpt lat="56.312461" lon="60.922056">
        <ele>252.1</ele>
        <time>1970-01-01T12:47:34.145Z</time>
    </trkpt>
    <trkpt lat="56.312456" lon="60.922104">
        <ele>252.1</ele>
        <time>1970-01-01T12:47:35.145Z</time>
    </trkpt>
    <trkpt lat="56.312454" lon="60.922124">
        <ele>252.1</ele>
        <time>1970-01-01T12:47:36.145Z</time>
    </trkpt>
    <trkpt lat="56.312451" lon="60.922169">
        <ele>252.1</ele>
        <time>1970-01-01T12:47:37.145Z</time>
    </trkpt>
    <trkpt lat="56.312451" lon="60.922185">
        <ele>252.1</ele>
        <time>1970-01-01T12:47:38.145Z</time>
    </trkpt>
    <trkpt lat="56.312451" lon="60.922201">
        <ele>252.1</ele>
        <time>1970-01-01T12:47:39.145Z</time>
    </trkpt>
    <trkpt lat="56.312448" lon="60.922241">
        <ele>252.1</ele>
        <time>1970-01-01T12:47:40.145Z</time>
    </trkpt>
    <trkpt lat="56.312447" lon="60.922269">
        <ele>252.1</ele>
        <time>1970-01-01T12:47:41.145Z</time>
    </trkpt>
    <trkpt lat="56.312445" lon="60.9223">
        <ele>252.1</ele>
        <time>1970-01-01T12:47:42.145Z</time>
    </trkpt>
    <trkpt lat="56.312445" lon="60.922319">
        <ele>252.1</ele>
        <time>1970-01-01T12:47:43.145Z</time>
    </trkpt>
    <trkpt lat="56.312443" lon="60.922367">
        <ele>252.1</ele>
        <time>1970-01-01T12:47:44.145Z</time>
    </trkpt>
    <trkpt lat="56.312443" lon="60.922384">
        <ele>252.1</ele>
        <time>1970-01-01T12:47:45.145Z</time>
    </trkpt>
    <trkpt lat="56.31244" lon="60.922444">
        <ele>252.2</ele>
        <time>1970-01-01T12:47:46.145Z</time>
    </trkpt>
    <trkpt lat="56.312439" lon="60.922464">
        <ele>252.2</ele>
        <time>1970-01-01T12:47:47.145Z</time>
    </trkpt>
    <trkpt lat="56.31244" lon="60.922523">
        <ele>252.2</ele>
        <time>1970-01-01T12:47:48.145Z</time>
    </trkpt>
    <trkpt lat="56.312439" lon="60.92255">
        <ele>252.2</ele>
        <time>1970-01-01T12:47:49.145Z</time>
    </trkpt>
    <trkpt lat="56.312439" lon="60.922582">
        <ele>252.2</ele>
        <time>1970-01-01T12:47:50.145Z</time>
    </trkpt>
    <trkpt lat="56.312438" lon="60.9226">
        <ele>252.2</ele>
        <time>1970-01-01T12:47:51.145Z</time>
    </trkpt>
    <trkpt lat="56.31243" lon="60.922653">
        <ele>252.2</ele>
        <time>1970-01-01T12:47:52.145Z</time>
    </trkpt>
    <trkpt lat="56.31243" lon="60.922683">
        <ele>252.2</ele>
        <time>1970-01-01T12:47:53.145Z</time>
    </trkpt>
    <trkpt lat="56.31243" lon="60.922712">
        <ele>252.2</ele>
        <time>1970-01-01T12:47:54.145Z</time>
    </trkpt>
    <trkpt lat="56.312427" lon="60.922737">
        <ele>252.2</ele>
        <time>1970-01-01T12:47:55.145Z</time>
    </trkpt>
    <trkpt lat="56.312423" lon="60.922764">
        <ele>252.2</ele>
        <time>1970-01-01T12:47:56.145Z</time>
    </trkpt>
    <trkpt lat="56.312419" lon="60.922792">
        <ele>252.2</ele>
        <time>1970-01-01T12:47:57.145Z</time>
    </trkpt>
    <trkpt lat="56.312417" lon="60.922825">
        <ele>252.3</ele>
        <time>1970-01-01T12:47:58.145Z</time>
    </trkpt>
    <trkpt lat="56.312414" lon="60.922842">
        <ele>252.3</ele>
        <time>1970-01-01T12:47:59.145Z</time>
    </trkpt>
    <trkpt lat="56.312399" lon="60.92289">
        <ele>252.3</ele>
        <time>1970-01-01T12:48:00.145Z</time>
    </trkpt>
    <trkpt lat="56.312388" lon="60.922913">
        <ele>252.3</ele>
        <time>1970-01-01T12:48:01.145Z</time>
    </trkpt>
    <trkpt lat="56.312378" lon="60.922933">
        <ele>252.3</ele>
        <time>1970-01-01T12:48:02.145Z</time>
    </trkpt>
    <trkpt lat="56.312372" lon="60.922962">
        <ele>252.3</ele>
        <time>1970-01-01T12:48:03.145Z</time>
    </trkpt>
    <trkpt lat="56.312371" lon="60.922995">
        <ele>252.3</ele>
        <time>1970-01-01T12:48:04.145Z</time>
    </trkpt>
    <trkpt lat="56.31237" lon="60.923024">
        <ele>252.3</ele>
        <time>1970-01-01T12:48:05.145Z</time>
    </trkpt>
    <trkpt lat="56.31237" lon="60.923055">
        <ele>252.3</ele>
        <time>1970-01-01T12:48:06.145Z</time>
    </trkpt>
    <trkpt lat="56.312369" lon="60.92307">
        <ele>252.3</ele>
        <time>1970-01-01T12:48:07.145Z</time>
    </trkpt>
    <trkpt lat="56.312365" lon="60.923121">
        <ele>252.3</ele>
        <time>1970-01-01T12:48:08.145Z</time>
    </trkpt>
    <trkpt lat="56.312361" lon="60.923144">
        <ele>252.3</ele>
        <time>1970-01-01T12:48:09.145Z</time>
    </trkpt>
    <trkpt lat="56.312346" lon="60.923206">
        <ele>252.4</ele>
        <time>1970-01-01T12:48:10.145Z</time>
    </trkpt>
    <trkpt lat="56.31233" lon="60.923245">
        <ele>252.4</ele>
        <time>1970-01-01T12:48:11.145Z</time>
    </trkpt>
    <trkpt lat="56.312329" lon="60.923267">
        <ele>252.4</ele>
        <time>1970-01-01T12:48:12.145Z</time>
    </trkpt>
    <trkpt lat="56.312323" lon="60.923335">
        <ele>252.4</ele>
        <time>1970-01-01T12:48:13.145Z</time>
    </trkpt>
    <trkpt lat="56.312321" lon="60.923354">
        <ele>252.4</ele>
        <time>1970-01-01T12:48:14.145Z</time>
    </trkpt>
    <trkpt lat="56.312318" lon="60.923418">
        <ele>252.4</ele>
        <time>1970-01-01T12:48:15.145Z</time>
    </trkpt>
    <trkpt lat="56.312318" lon="60.923478">
        <ele>252.4</ele>
        <time>1970-01-01T12:48:16.145Z</time>
    </trkpt>
    <trkpt lat="56.312319" lon="60.9235">
        <ele>252.4</ele>
        <time>1970-01-01T12:48:17.145Z</time>
    </trkpt>
    <trkpt lat="56.312318" lon="60.923557">
        <ele>252.4</ele>
        <time>1970-01-01T12:48:18.145Z</time>
    </trkpt>
    <trkpt lat="56.312318" lon="60.923616">
        <ele>252.5</ele>
        <time>1970-01-01T12:48:19.145Z</time>
    </trkpt>
    <trkpt lat="56.312315" lon="60.923636">
        <ele>252.5</ele>
        <time>1970-01-01T12:48:20.145Z</time>
    </trkpt>
    <trkpt lat="56.312312" lon="60.923703">
        <ele>252.5</ele>
        <time>1970-01-01T12:48:21.145Z</time>
    </trkpt>
    <trkpt lat="56.312312" lon="60.923721">
        <ele>252.5</ele>
        <time>1970-01-01T12:48:22.145Z</time>
    </trkpt>
    <trkpt lat="56.312321" lon="60.923775">
        <ele>252.5</ele>
        <time>1970-01-01T12:48:23.145Z</time>
    </trkpt>
    <trkpt lat="56.31233" lon="60.923788">
        <ele>252.5</ele>
        <time>1970-01-01T12:48:24.145Z</time>
    </trkpt>
    <trkpt lat="56.31236" lon="60.923824">
        <ele>252.5</ele>
        <time>1970-01-01T12:48:25.145Z</time>
    </trkpt>
    <trkpt lat="56.312366" lon="60.923839">
        <ele>252.5</ele>
        <time>1970-01-01T12:48:26.145Z</time>
    </trkpt>
    <trkpt lat="56.312375" lon="60.923896">
        <ele>252.5</ele>
        <time>1970-01-01T12:48:27.145Z</time>
    </trkpt>
    <trkpt lat="56.312378" lon="60.923913">
        <ele>252.5</ele>
        <time>1970-01-01T12:48:28.145Z</time>
    </trkpt>
    <trkpt lat="56.312384" lon="60.923966">
        <ele>252.6</ele>
        <time>1970-01-01T12:48:29.145Z</time>
    </trkpt>
    <trkpt lat="56.312379" lon="60.923984">
        <ele>252.6</ele>
        <time>1970-01-01T12:48:30.145Z</time>
    </trkpt>
    <trkpt lat="56.312356" lon="60.924019">
        <ele>252.6</ele>
        <time>1970-01-01T12:48:31.145Z</time>
    </trkpt>
    <trkpt lat="56.312348" lon="60.924024">
        <ele>252.6</ele>
        <time>1970-01-01T12:48:32.145Z</time>
    </trkpt>
    <trkpt lat="56.31232" lon="60.924031">
        <ele>252.6</ele>
        <time>1970-01-01T12:48:33.145Z</time>
    </trkpt>
    <trkpt lat="56.312308" lon="60.924048">
        <ele>252.6</ele>
        <time>1970-01-01T12:48:34.145Z</time>
    </trkpt>
    <trkpt lat="56.312295" lon="60.924069">
        <ele>252.6</ele>
        <time>1970-01-01T12:48:35.145Z</time>
    </trkpt>
    <trkpt lat="56.31229" lon="60.924081">
        <ele>252.6</ele>
        <time>1970-01-01T12:48:36.145Z</time>
    </trkpt>
    <trkpt lat="56.312292" lon="60.924128">
        <ele>252.6</ele>
        <time>1970-01-01T12:48:37.145Z</time>
    </trkpt>
    <trkpt lat="56.312293" lon="60.92415">
        <ele>252.6</ele>
        <time>1970-01-01T12:48:38.145Z</time>
    </trkpt>
    <trkpt lat="56.312294" lon="60.924216">
        <ele>252.6</ele>
        <time>1970-01-01T12:48:39.145Z</time>
    </trkpt>
    <trkpt lat="56.312294" lon="60.924236">
        <ele>252.6</ele>
        <time>1970-01-01T12:48:40.145Z</time>
    </trkpt>
    <trkpt lat="56.312298" lon="60.9243">
        <ele>252.7</ele>
        <time>1970-01-01T12:48:41.145Z</time>
    </trkpt>
    <trkpt lat="56.312298" lon="60.924317">
        <ele>252.7</ele>
        <time>1970-01-01T12:48:42.145Z</time>
    </trkpt>
    <trkpt lat="56.312299" lon="60.924382">
        <ele>252.7</ele>
        <time>1970-01-01T12:48:43.145Z</time>
    </trkpt>
    <trkpt lat="56.312296" lon="60.924399">
        <ele>252.7</ele>
        <time>1970-01-01T12:48:44.145Z</time>
    </trkpt>
    <trkpt lat="56.31229" lon="60.924448">
        <ele>252.7</ele>
        <time>1970-01-01T12:48:45.145Z</time>
    </trkpt>
    <trkpt lat="56.312288" lon="60.924465">
        <ele>252.7</ele>
        <time>1970-01-01T12:48:46.145Z</time>
    </trkpt>
    <trkpt lat="56.312281" lon="60.924525">
        <ele>252.7</ele>
        <time>1970-01-01T12:48:47.145Z</time>
    </trkpt>
    <trkpt lat="56.312285" lon="60.924549">
        <ele>252.7</ele>
        <time>1970-01-01T12:48:48.145Z</time>
    </trkpt>
    <trkpt lat="56.312292" lon="60.924596">
        <ele>252.7</ele>
        <time>1970-01-01T12:48:49.145Z</time>
    </trkpt>
    <trkpt lat="56.312296" lon="60.924611">
        <ele>252.7</ele>
        <time>1970-01-01T12:48:50.145Z</time>
    </trkpt>
    <trkpt lat="56.312303" lon="60.924616">
        <ele>252.7</ele>
        <time>1970-01-01T12:48:51.145Z</time>
    </trkpt>
    <trkpt lat="56.312315" lon="60.924627">
        <ele>252.8</ele>
        <time>1970-01-01T12:48:52.145Z</time>
    </trkpt>
    <trkpt lat="56.31233" lon="60.924635">
        <ele>252.8</ele>
        <time>1970-01-01T12:48:53.145Z</time>
    </trkpt>
    <trkpt lat="56.31234" lon="60.924647">
        <ele>252.8</ele>
        <time>1970-01-01T12:48:54.145Z</time>
    </trkpt>
    <trkpt lat="56.312344" lon="60.924663">
        <ele>252.8</ele>
        <time>1970-01-01T12:48:55.145Z</time>
    </trkpt>
    <trkpt lat="56.312344" lon="60.924689">
        <ele>252.8</ele>
        <time>1970-01-01T12:48:56.145Z</time>
    </trkpt>
    <trkpt lat="56.312343" lon="60.924717">
        <ele>252.8</ele>
        <time>1970-01-01T12:48:57.145Z</time>
    </trkpt>
    <trkpt lat="56.312344" lon="60.924735">
        <ele>252.8</ele>
        <time>1970-01-01T12:48:58.145Z</time>
    </trkpt>
    <trkpt lat="56.312349" lon="60.924792">
        <ele>252.8</ele>
        <time>1970-01-01T12:48:59.145Z</time>
    </trkpt>
    <trkpt lat="56.312348" lon="60.924811">
        <ele>252.8</ele>
        <time>1970-01-01T12:49:00.145Z</time>
    </trkpt>
    <trkpt lat="56.31234" lon="60.924856">
        <ele>252.8</ele>
        <time>1970-01-01T12:49:01.145Z</time>
    </trkpt>
    <trkpt lat="56.312328" lon="60.924864">
        <ele>252.8</ele>
        <time>1970-01-01T12:49:02.145Z</time>
    </trkpt>
    <trkpt lat="56.312292" lon="60.924879">
        <ele>252.8</ele>
        <time>1970-01-01T12:49:03.145Z</time>
    </trkpt>
    <trkpt lat="56.312279" lon="60.924898">
        <ele>252.8</ele>
        <time>1970-01-01T12:49:04.145Z</time>
    </trkpt>
    <trkpt lat="56.312276" lon="60.924933">
        <ele>252.9</ele>
        <time>1970-01-01T12:49:05.145Z</time>
    </trkpt>
    <trkpt lat="56.312278" lon="60.924954">
        <ele>252.9</ele>
        <time>1970-01-01T12:49:06.145Z</time>
    </trkpt>
    <trkpt lat="56.312279" lon="60.925011">
        <ele>252.9</ele>
        <time>1970-01-01T12:49:07.145Z</time>
    </trkpt>
    <trkpt lat="56.312277" lon="60.925033">
        <ele>252.9</ele>
        <time>1970-01-01T12:49:08.145Z</time>
    </trkpt>
    <trkpt lat="56.312273" lon="60.925102">
        <ele>252.9</ele>
        <time>1970-01-01T12:49:09.145Z</time>
    </trkpt>
    <trkpt lat="56.312271" lon="60.925151">
        <ele>252.9</ele>
        <time>1970-01-01T12:49:10.145Z</time>
    </trkpt>
    <trkpt lat="56.312271" lon="60.925175">
        <ele>252.9</ele>
        <time>1970-01-01T12:49:11.145Z</time>
    </trkpt>
    <trkpt lat="56.312283" lon="60.925227">
        <ele>252.9</ele>
        <time>1970-01-01T12:49:12.145Z</time>
    </trkpt>
    <trkpt lat="56.31229" lon="60.925243">
        <ele>252.9</ele>
        <time>1970-01-01T12:49:13.145Z</time>
    </trkpt>
    <trkpt lat="56.312308" lon="60.9253">
        <ele>252.9</ele>
        <time>1970-01-01T12:49:14.145Z</time>
    </trkpt>
    <trkpt lat="56.312311" lon="60.925321">
        <ele>252.9</ele>
        <time>1970-01-01T12:49:15.145Z</time>
    </trkpt>
    <trkpt lat="56.312311" lon="60.92539">
        <ele>252.9</ele>
        <time>1970-01-01T12:49:16.145Z</time>
    </trkpt>
    <trkpt lat="56.31231" lon="60.92544">
        <ele>252.9</ele>
        <time>1970-01-01T12:49:17.145Z</time>
    </trkpt>
    <trkpt lat="56.31231" lon="60.925457">
        <ele>252.9</ele>
        <time>1970-01-01T12:49:18.145Z</time>
    </trkpt>
    <trkpt lat="56.312297" lon="60.925509">
        <ele>252.8</ele>
        <time>1970-01-01T12:49:19.145Z</time>
    </trkpt>
    <trkpt lat="56.312296" lon="60.925529">
        <ele>252.8</ele>
        <time>1970-01-01T12:49:20.145Z</time>
    </trkpt>
    <trkpt lat="56.312284" lon="60.925557">
        <ele>252.8</ele>
        <time>1970-01-01T12:49:21.145Z</time>
    </trkpt>
    <trkpt lat="56.31228" lon="60.925574">
        <ele>252.8</ele>
        <time>1970-01-01T12:49:22.145Z</time>
    </trkpt>
    <trkpt lat="56.312275" lon="60.925635">
        <ele>252.8</ele>
        <time>1970-01-01T12:49:23.145Z</time>
    </trkpt>
    <trkpt lat="56.312276" lon="60.925689">
        <ele>252.7</ele>
        <time>1970-01-01T12:49:24.145Z</time>
    </trkpt>
    <trkpt lat="56.312277" lon="60.925714">
        <ele>252.7</ele>
        <time>1970-01-01T12:49:25.145Z</time>
    </trkpt>
    <trkpt lat="56.312274" lon="60.925785">
        <ele>252.7</ele>
        <time>1970-01-01T12:49:26.145Z</time>
    </trkpt>
    <trkpt lat="56.31227" lon="60.925835">
        <ele>252.7</ele>
        <time>1970-01-01T12:49:27.145Z</time>
    </trkpt>
    <trkpt lat="56.312267" lon="60.925859">
        <ele>252.6</ele>
        <time>1970-01-01T12:49:28.145Z</time>
    </trkpt>
    <trkpt lat="56.312257" lon="60.925923">
        <ele>252.6</ele>
        <time>1970-01-01T12:49:29.145Z</time>
    </trkpt>
    <trkpt lat="56.312257" lon="60.925979">
        <ele>252.6</ele>
        <time>1970-01-01T12:49:30.145Z</time>
    </trkpt>
    <trkpt lat="56.312258" lon="60.926004">
        <ele>252.6</ele>
        <time>1970-01-01T12:49:31.145Z</time>
    </trkpt>
    <trkpt lat="56.312253" lon="60.926066">
        <ele>252.5</ele>
        <time>1970-01-01T12:49:32.145Z</time>
    </trkpt>
    <trkpt lat="56.312254" lon="60.926096">
        <ele>252.5</ele>
        <time>1970-01-01T12:49:33.145Z</time>
    </trkpt>
    <trkpt lat="56.312257" lon="60.926171">
        <ele>252.5</ele>
        <time>1970-01-01T12:49:34.145Z</time>
    </trkpt>
    <trkpt lat="56.312259" lon="60.926224">
        <ele>252.5</ele>
        <time>1970-01-01T12:49:35.145Z</time>
    </trkpt>
    <trkpt lat="56.312259" lon="60.926244">
        <ele>252.5</ele>
        <time>1970-01-01T12:49:36.145Z</time>
    </trkpt>
    <trkpt lat="56.312263" lon="60.926311">
        <ele>252.4</ele>
        <time>1970-01-01T12:49:37.145Z</time>
    </trkpt>
    <trkpt lat="56.31226" lon="60.926322">
        <ele>252.4</ele>
        <time>1970-01-01T12:49:38.145Z</time>
    </trkpt>
    <trkpt lat="56.312257" lon="60.926333">
        <ele>252.4</ele>
        <time>1970-01-01T12:50:22.145Z</time>
    </trkpt>
    <trkpt lat="56.312254" lon="60.926344">
        <ele>252.4</ele>
        <time>1970-01-01T12:50:23.145Z</time>
    </trkpt>
    <trkpt lat="56.312251" lon="60.926355">
        <ele>252.4</ele>
        <time>1970-01-01T12:50:24.145Z</time>
    </trkpt>
    <trkpt lat="56.312248" lon="60.926366">
        <ele>252.4</ele>
        <time>1970-01-01T12:50:25.145Z</time>
    </trkpt>
    <trkpt lat="56.312245" lon="60.926377">
        <ele>252.4</ele>
        <time>1970-01-01T12:50:26.145Z</time>
    </trkpt>
    <trkpt lat="56.312242" lon="60.926388">
        <ele>252.4</ele>
        <time>1970-01-01T12:50:27.145Z</time>
    </trkpt>
    <trkpt lat="56.312239" lon="60.926399">
        <ele>252.4</ele>
        <time>1970-01-01T12:50:28.145Z</time>
    </trkpt>
    <trkpt lat="56.312236" lon="60.926409">
        <ele>252.4</ele>
        <time>1970-01-01T12:50:29.145Z</time>
    </trkpt>
    <trkpt lat="56.312233" lon="60.92642">
        <ele>252.4</ele>
        <time>1970-01-01T12:50:30.145Z</time>
    </trkpt>
    <trkpt lat="56.31223" lon="60.926431">
        <ele>252.4</ele>
        <time>1970-01-01T12:50:31.145Z</time>
    </trkpt>
    <trkpt lat="56.312227" lon="60.926442">
        <ele>252.4</ele>
        <time>1970-01-01T12:50:32.145Z</time>
    </trkpt>
    <trkpt lat="56.312227" lon="60.926457">
        <ele>252.3</ele>
        <time>1970-01-01T12:50:33.145Z</time>
    </trkpt>
    <trkpt lat="56.312223" lon="60.926479">
        <ele>252.3</ele>
        <time>1970-01-01T12:50:34.145Z</time>
    </trkpt>
    <trkpt lat="56.312213" lon="60.926516">
        <ele>252.3</ele>
        <time>1970-01-01T12:50:35.145Z</time>
    </trkpt>
    <trkpt lat="56.312214" lon="60.926533">
        <ele>252.3</ele>
        <time>1970-01-01T12:50:36.145Z</time>
    </trkpt>
    <trkpt lat="56.312213" lon="60.926582">
        <ele>252.3</ele>
        <time>1970-01-01T12:50:37.145Z</time>
    </trkpt>
    <trkpt lat="56.312213" lon="60.926604">
        <ele>252.3</ele>
        <time>1970-01-01T12:50:38.145Z</time>
    </trkpt>
    <trkpt lat="56.312212" lon="60.926666">
        <ele>252.2</ele>
        <time>1970-01-01T12:50:39.145Z</time>
    </trkpt>
    <trkpt lat="56.312209" lon="60.926689">
        <ele>252.2</ele>
        <time>1970-01-01T12:50:40.145Z</time>
    </trkpt>
    <trkpt lat="56.312204" lon="60.926759">
        <ele>252.2</ele>
        <time>1970-01-01T12:50:41.145Z</time>
    </trkpt>
    <trkpt lat="56.312192" lon="60.926809">
        <ele>252.2</ele>
        <time>1970-01-01T12:50:42.145Z</time>
    </trkpt>
    <trkpt lat="56.312186" lon="60.926859">
        <ele>252.1</ele>
        <time>1970-01-01T12:50:43.145Z</time>
    </trkpt>
    <trkpt lat="56.31218" lon="60.926916">
        <ele>252.1</ele>
        <time>1970-01-01T12:50:44.145Z</time>
    </trkpt>
    <trkpt lat="56.31218" lon="60.926945">
        <ele>252.1</ele>
        <time>1970-01-01T12:50:45.145Z</time>
    </trkpt>
    <trkpt lat="56.312182" lon="60.927014">
        <ele>252.1</ele>
        <time>1970-01-01T12:50:46.145Z</time>
    </trkpt>
    <trkpt lat="56.312183" lon="60.92707">
        <ele>252.2</ele>
        <time>1970-01-01T12:50:47.145Z</time>
    </trkpt>
    <trkpt lat="56.312185" lon="60.927132">
        <ele>252.2</ele>
        <time>1970-01-01T12:50:48.145Z</time>
    </trkpt>
    <trkpt lat="56.312178" lon="60.927196">
        <ele>252.3</ele>
        <time>1970-01-01T12:50:49.145Z</time>
    </trkpt>
    <trkpt lat="56.312181" lon="60.927257">
        <ele>252.4</ele>
        <time>1970-01-01T12:50:50.145Z</time>
    </trkpt>
    <trkpt lat="56.312187" lon="60.92731">
        <ele>252.5</ele>
        <time>1970-01-01T12:50:51.145Z</time>
    </trkpt>
    <trkpt lat="56.312193" lon="60.927335">
        <ele>252.5</ele>
        <time>1970-01-01T12:50:52.145Z</time>
    </trkpt>
    <trkpt lat="56.312203" lon="60.927407">
        <ele>252.6</ele>
        <time>1970-01-01T12:50:53.145Z</time>
    </trkpt>
    <trkpt lat="56.3122" lon="60.927474">
        <ele>252.7</ele>
        <time>1970-01-01T12:50:54.145Z</time>
    </trkpt>
    <trkpt lat="56.312194" lon="60.927527">
        <ele>252.7</ele>
        <time>1970-01-01T12:50:55.145Z</time>
    </trkpt>
    <trkpt lat="56.312191" lon="60.927593">
        <ele>252.8</ele>
        <time>1970-01-01T12:50:56.145Z</time>
    </trkpt>
    <trkpt lat="56.312187" lon="60.927655">
        <ele>252.9</ele>
        <time>1970-01-01T12:50:57.145Z</time>
    </trkpt>
    <trkpt lat="56.312184" lon="60.927719">
        <ele>253.0</ele>
        <time>1970-01-01T12:50:58.145Z</time>
    </trkpt>
    <trkpt lat="56.312184" lon="60.927776">
        <ele>253.1</ele>
        <time>1970-01-01T12:50:59.145Z</time>
    </trkpt>
    <trkpt lat="56.312177" lon="60.927839">
        <ele>253.1</ele>
        <time>1970-01-01T12:51:00.145Z</time>
    </trkpt>
    <trkpt lat="56.312175" lon="60.927868">
        <ele>253.2</ele>
        <time>1970-01-01T12:51:01.145Z</time>
    </trkpt>
    <trkpt lat="56.312172" lon="60.927942">
        <ele>253.3</ele>
        <time>1970-01-01T12:51:02.145Z</time>
    </trkpt>
    <trkpt lat="56.312171" lon="60.928">
        <ele>253.3</ele>
        <time>1970-01-01T12:51:03.145Z</time>
    </trkpt>
    <trkpt lat="56.312167" lon="60.92805">
        <ele>253.4</ele>
        <time>1970-01-01T12:51:04.145Z</time>
    </trkpt>
    <trkpt lat="56.312159" lon="60.928116">
        <ele>253.5</ele>
        <time>1970-01-01T12:51:05.145Z</time>
    </trkpt>
    <trkpt lat="56.312152" lon="60.928179">
        <ele>253.6</ele>
        <time>1970-01-01T12:51:06.145Z</time>
    </trkpt>
    <trkpt lat="56.312144" lon="60.928252">
        <ele>253.7</ele>
        <time>1970-01-01T12:51:07.145Z</time>
    </trkpt>
    <trkpt lat="56.312145" lon="60.92832">
        <ele>253.7</ele>
        <time>1970-01-01T12:51:08.145Z</time>
    </trkpt>
    <trkpt lat="56.312141" lon="60.928339">
        <ele>253.8</ele>
        <time>1970-01-01T12:51:09.145Z</time>
    </trkpt>
    <trkpt lat="56.312128" lon="60.928405">
        <ele>253.9</ele>
        <time>1970-01-01T12:51:10.145Z</time>
    </trkpt>
    <trkpt lat="56.312127" lon="60.92843">
        <ele>253.9</ele>
        <time>1970-01-01T12:51:11.145Z</time>
    </trkpt>
    <trkpt lat="56.312124" lon="60.9285">
        <ele>254.0</ele>
        <time>1970-01-01T12:51:12.145Z</time>
    </trkpt>
    <trkpt lat="56.312116" lon="60.928555">
        <ele>254.0</ele>
        <time>1970-01-01T12:51:13.145Z</time>
    </trkpt>
    <trkpt lat="56.312118" lon="60.928607">
        <ele>254.1</ele>
        <time>1970-01-01T12:51:14.145Z</time>
    </trkpt>
    <trkpt lat="56.312107" lon="60.928666">
        <ele>254.2</ele>
        <time>1970-01-01T12:51:15.145Z</time>
    </trkpt>
    <trkpt lat="56.3121" lon="60.92873">
        <ele>254.3</ele>
        <time>1970-01-01T12:51:16.145Z</time>
    </trkpt>
    <trkpt lat="56.312098" lon="60.928783">
        <ele>254.3</ele>
        <time>1970-01-01T12:51:17.145Z</time>
    </trkpt>
    <trkpt lat="56.312091" lon="60.928838">
        <ele>254.4</ele>
        <time>1970-01-01T12:51:18.145Z</time>
    </trkpt>
    <trkpt lat="56.312085" lon="60.928887">
        <ele>254.5</ele>
        <time>1970-01-01T12:51:19.145Z</time>
    </trkpt>
    <trkpt lat="56.312079" lon="60.928954">
        <ele>254.6</ele>
        <time>1970-01-01T12:51:20.145Z</time>
    </trkpt>
    <trkpt lat="56.312067" lon="60.92902">
        <ele>254.6</ele>
        <time>1970-01-01T12:51:21.145Z</time>
    </trkpt>
    <trkpt lat="56.312059" lon="60.929084">
        <ele>254.7</ele>
        <time>1970-01-01T12:51:22.145Z</time>
    </trkpt>
    <trkpt lat="56.312048" lon="60.92914">
        <ele>254.8</ele>
        <time>1970-01-01T12:51:23.145Z</time>
    </trkpt>
    <trkpt lat="56.312037" lon="60.929197">
        <ele>254.9</ele>
        <time>1970-01-01T12:51:24.145Z</time>
    </trkpt>
    <trkpt lat="56.312035" lon="60.929259">
        <ele>255.0</ele>
        <time>1970-01-01T12:51:25.145Z</time>
    </trkpt>
    <trkpt lat="56.312032" lon="60.929279">
        <ele>255.0</ele>
        <time>1970-01-01T12:51:26.145Z</time>
    </trkpt>
    <trkpt lat="56.312021" lon="60.929343">
        <ele>255.1</ele>
        <time>1970-01-01T12:51:27.145Z</time>
    </trkpt>
    <trkpt lat="56.312011" lon="60.929396">
        <ele>255.1</ele>
        <time>1970-01-01T12:51:28.145Z</time>
    </trkpt>
    <trkpt lat="56.312008" lon="60.92942">
        <ele>255.2</ele>
        <time>1970-01-01T12:51:29.145Z</time>
    </trkpt>
    <trkpt lat="56.311994" lon="60.929478">
        <ele>255.3</ele>
        <time>1970-01-01T12:51:30.145Z</time>
    </trkpt>
    <trkpt lat="56.311983" lon="60.929527">
        <ele>255.3</ele>
        <time>1970-01-01T12:51:31.145Z</time>
    </trkpt>
    <trkpt lat="56.311974" lon="60.929574">
        <ele>255.4</ele>
        <time>1970-01-01T12:51:32.145Z</time>
    </trkpt>
    <trkpt lat="56.311962" lon="60.929626">
        <ele>255.5</ele>
        <time>1970-01-01T12:51:33.145Z</time>
    </trkpt>
    <trkpt lat="56.311955" lon="60.92965">
        <ele>255.5</ele>
        <time>1970-01-01T12:51:34.145Z</time>
    </trkpt>
    <trkpt lat="56.311944" lon="60.929716">
        <ele>255.6</ele>
        <time>1970-01-01T12:51:35.145Z</time>
    </trkpt>
    <trkpt lat="56.311932" lon="60.929764">
        <ele>255.6</ele>
        <time>1970-01-01T12:51:36.145Z</time>
    </trkpt>
    <trkpt lat="56.311926" lon="60.929813">
        <ele>255.7</ele>
        <time>1970-01-01T12:51:37.145Z</time>
    </trkpt>
    <trkpt lat="56.311922" lon="60.929832">
        <ele>255.7</ele>
        <time>1970-01-01T12:51:38.145Z</time>
    </trkpt>
    <trkpt lat="56.31191" lon="60.929893">
        <ele>255.8</ele>
        <time>1970-01-01T12:51:39.145Z</time>
    </trkpt>
    <trkpt lat="56.311903" lon="60.929943">
        <ele>255.9</ele>
        <time>1970-01-01T12:51:40.145Z</time>
    </trkpt>
    <trkpt lat="56.311899" lon="60.929968">
        <ele>255.9</ele>
        <time>1970-01-01T12:51:41.145Z</time>
    </trkpt>
    <trkpt lat="56.31188" lon="60.930033">
        <ele>256.0</ele>
        <time>1970-01-01T12:51:42.145Z</time>
    </trkpt>
    <trkpt lat="56.311863" lon="60.930077">
        <ele>256.0</ele>
        <time>1970-01-01T12:51:43.145Z</time>
    </trkpt>
    <trkpt lat="56.311851" lon="60.930121">
        <ele>256.1</ele>
        <time>1970-01-01T12:51:44.145Z</time>
    </trkpt>
    <trkpt lat="56.311844" lon="60.930145">
        <ele>256.1</ele>
        <time>1970-01-01T12:51:45.145Z</time>
    </trkpt>
    <trkpt lat="56.31182957396769" lon="60.93019414387388">
        <ele>256.1</ele>
        <time>1970-01-01T12:51:45.645Z</time>
    </trkpt>
    <trkpt lat="56.31038425140244" lon="60.93589481873336">
        <ele>258.0</ele>
        <time>1970-01-01T12:59:57.645Z</time>
    </trkpt>
    <trkpt lat="56.310371" lon="60.935939">
        <ele>258.0</ele>
        <time>1970-01-01T12:59:58.145Z</time>
    </trkpt>
    <trkpt lat="56.310368" lon="60.936001">
        <ele>258.1</ele>
        <time>1970-01-01T12:59:59.145Z</time>
    </trkpt>
    <trkpt lat="56.310354" lon="60.936056">
        <ele>258.1</ele>
        <time>1970-01-01T13:00:00.145Z</time>
    </trkpt>
    <trkpt lat="56.31034" lon="60.936114">
        <ele>258.2</ele>
        <time>1970-01-01T13:00:01.145Z</time>
    </trkpt>
    <trkpt lat="56.310327" lon="60.936165">
        <ele>258.2</ele>
        <time>1970-01-01T13:00:02.145Z</time>
    </trkpt>
    <trkpt lat="56.310317" lon="60.936216">
        <ele>258.2</ele>
        <time>1970-01-01T13:00:03.145Z</time>
    </trkpt>
    <trkpt lat="56.310313" lon="60.93624">
        <ele>258.3</ele>
        <time>1970-01-01T13:00:04.145Z</time>
    </trkpt>
    <trkpt lat="56.3103" lon="60.936298">
        <ele>258.3</ele>
        <time>1970-01-01T13:00:05.145Z</time>
    </trkpt>
    <trkpt lat="56.310297" lon="60.93632">
        <ele>258.3</ele>
        <time>1970-01-01T13:00:06.145Z</time>
    </trkpt>
    <trkpt lat="56.310282" lon="60.936382">
        <ele>258.4</ele>
        <time>1970-01-01T13:00:07.145Z</time>
    </trkpt>
    <trkpt lat="56.310269" lon="60.936429">
        <ele>258.4</ele>
        <time>1970-01-01T13:00:08.145Z</time>
    </trkpt>
    <trkpt lat="56.310266" lon="60.93648">
        <ele>258.4</ele>
        <time>1970-01-01T13:00:09.145Z</time>
    </trkpt>
    <trkpt lat="56.310257" lon="60.936532">
        <ele>258.5</ele>
        <time>1970-01-01T13:00:10.145Z</time>
    </trkpt>
    <trkpt lat="56.310243" lon="60.936583">
        <ele>258.5</ele>
        <time>1970-01-01T13:00:11.145Z</time>
    </trkpt>
    <trkpt lat="56.31023" lon="60.936629">
        <ele>258.5</ele>
        <time>1970-01-01T13:00:12.145Z</time>
    </trkpt>
    <trkpt lat="56.31022" lon="60.936681">
        <ele>258.6</ele>
        <time>1970-01-01T13:00:13.145Z</time>
    </trkpt>
    <trkpt lat="56.310201" lon="60.936731">
        <ele>258.6</ele>
        <time>1970-01-01T13:00:14.145Z</time>
    </trkpt>
    <trkpt lat="56.310189" lon="60.936781">
        <ele>258.6</ele>
        <time>1970-01-01T13:00:15.145Z</time>
    </trkpt>
    <trkpt lat="56.310175" lon="60.936831">
        <ele>258.7</ele>
        <time>1970-01-01T13:00:16.145Z</time>
    </trkpt>
    <trkpt lat="56.310167" lon="60.936852">
        <ele>258.7</ele>
        <time>1970-01-01T13:00:17.145Z</time>
    </trkpt>
    <trkpt lat="56.310147" lon="60.936917">
        <ele>258.7</ele>
        <time>1970-01-01T13:00:18.145Z</time>
    </trkpt>
    <trkpt lat="56.31014" lon="60.936968">
        <ele>258.8</ele>
        <time>1970-01-01T13:00:19.145Z</time>
    </trkpt>
    <trkpt lat="56.310124" lon="60.937023">
        <ele>258.8</ele>
        <time>1970-01-01T13:00:20.145Z</time>
    </trkpt>
    <trkpt lat="56.310113" lon="60.937073">
        <ele>258.9</ele>
        <time>1970-01-01T13:00:21.145Z</time>
    </trkpt>
    <trkpt lat="56.310108" lon="60.937102">
        <ele>258.9</ele>
        <time>1970-01-01T13:00:22.145Z</time>
    </trkpt>
    <trkpt lat="56.310093" lon="60.937156">
        <ele>258.9</ele>
        <time>1970-01-01T13:00:23.145Z</time>
    </trkpt>
    <trkpt lat="56.310078" lon="60.937199">
        <ele>258.9</ele>
        <time>1970-01-01T13:00:24.145Z</time>
    </trkpt>
    <trkpt lat="56.310071" lon="60.937219">
        <ele>259.0</ele>
        <time>1970-01-01T13:00:25.145Z</time>
    </trkpt>
    <trkpt lat="56.310049" lon="60.937277">
        <ele>259.0</ele>
        <time>1970-01-01T13:00:26.145Z</time>
    </trkpt>
    <trkpt lat="56.310047" lon="60.937296">
        <ele>259.0</ele>
        <time>1970-01-01T13:00:27.145Z</time>
    </trkpt>
    <trkpt lat="56.310034" lon="60.937358">
        <ele>259.1</ele>
        <time>1970-01-01T13:00:28.145Z</time>
    </trkpt>
    <trkpt lat="56.310027" lon="60.937381">
        <ele>259.1</ele>
        <time>1970-01-01T13:00:29.145Z</time>
    </trkpt>
    <trkpt lat="56.31001" lon="60.937442">
        <ele>259.1</ele>
        <time>1970-01-01T13:00:30.145Z</time>
    </trkpt>
    <trkpt lat="56.309996" lon="60.937483">
        <ele>259.2</ele>
        <time>1970-01-01T13:00:31.145Z</time>
    </trkpt>
    <trkpt lat="56.309985" lon="60.937531">
        <ele>259.2</ele>
        <time>1970-01-01T13:00:32.145Z</time>
    </trkpt>
    <trkpt lat="56.309979" lon="60.93755">
        <ele>259.2</ele>
        <time>1970-01-01T13:00:33.145Z</time>
    </trkpt>
    <trkpt lat="56.309963" lon="60.937613">
        <ele>259.3</ele>
        <time>1970-01-01T13:00:34.145Z</time>
    </trkpt>
    <trkpt lat="56.309958" lon="60.937633">
        <ele>259.3</ele>
        <time>1970-01-01T13:00:35.145Z</time>
    </trkpt>
    <trkpt lat="56.30994" lon="60.937692">
        <ele>259.3</ele>
        <time>1970-01-01T13:00:36.145Z</time>
    </trkpt>
    <trkpt lat="56.309935" lon="60.937712">
        <ele>259.3</ele>
        <time>1970-01-01T13:00:37.145Z</time>
    </trkpt>
    <trkpt lat="56.309923" lon="60.937774">
        <ele>259.4</ele>
        <time>1970-01-01T13:00:38.145Z</time>
    </trkpt>
    <trkpt lat="56.309916" lon="60.937834">
        <ele>259.4</ele>
        <time>1970-01-01T13:00:39.145Z</time>
    </trkpt>
    <trkpt lat="56.3099" lon="60.937888">
        <ele>259.5</ele>
        <time>1970-01-01T13:00:40.145Z</time>
    </trkpt>
    <trkpt lat="56.309882" lon="60.937939">
        <ele>259.5</ele>
        <time>1970-01-01T13:00:41.145Z</time>
    </trkpt>
    <trkpt lat="56.30987" lon="60.937982">
        <ele>259.5</ele>
        <time>1970-01-01T13:00:42.145Z</time>
    </trkpt>
    <trkpt lat="56.309863" lon="60.938029">
        <ele>259.6</ele>
        <time>1970-01-01T13:00:43.145Z</time>
    </trkpt>
    <trkpt lat="56.309846" lon="60.938068">
        <ele>259.6</ele>
        <time>1970-01-01T13:00:44.145Z</time>
    </trkpt>
    <trkpt lat="56.30983" lon="60.938116">
        <ele>259.6</ele>
        <time>1970-01-01T13:00:45.145Z</time>
    </trkpt>
    <trkpt lat="56.309815" lon="60.938168">
        <ele>259.7</ele>
        <time>1970-01-01T13:00:46.145Z</time>
    </trkpt>
    <trkpt lat="56.309802" lon="60.938227">
        <ele>259.7</ele>
        <time>1970-01-01T13:00:47.145Z</time>
    </trkpt>
    <trkpt lat="56.309794" lon="60.938252">
        <ele>259.7</ele>
        <time>1970-01-01T13:00:48.145Z</time>
    </trkpt>
    <trkpt lat="56.309777" lon="60.938312">
        <ele>259.8</ele>
        <time>1970-01-01T13:00:49.145Z</time>
    </trkpt>
    <trkpt lat="56.30977" lon="60.938332">
        <ele>259.8</ele>
        <time>1970-01-01T13:00:50.145Z</time>
    </trkpt>
    <trkpt lat="56.309751" lon="60.938385">
        <ele>259.8</ele>
        <time>1970-01-01T13:00:51.145Z</time>
    </trkpt>
    <trkpt lat="56.309729" lon="60.93842">
        <ele>259.9</ele>
        <time>1970-01-01T13:00:52.145Z</time>
    </trkpt>
    <trkpt lat="56.30972" lon="60.938442">
        <ele>259.9</ele>
        <time>1970-01-01T13:00:53.145Z</time>
    </trkpt>
    <trkpt lat="56.309705" lon="60.93851">
        <ele>259.9</ele>
        <time>1970-01-01T13:00:54.145Z</time>
    </trkpt>
    <trkpt lat="56.309693" lon="60.938565">
        <ele>260.0</ele>
        <time>1970-01-01T13:00:55.145Z</time>
    </trkpt>
    <trkpt lat="56.309687" lon="60.938583">
        <ele>260.0</ele>
        <time>1970-01-01T13:00:56.145Z</time>
    </trkpt>
    <trkpt lat="56.309674" lon="60.938639">
        <ele>260.0</ele>
        <time>1970-01-01T13:00:57.145Z</time>
    </trkpt>
    <trkpt lat="56.30967" lon="60.938666">
        <ele>260.0</ele>
        <time>1970-01-01T13:00:58.145Z</time>
    </trkpt>
    <trkpt lat="56.309655" lon="60.938732">
        <ele>260.1</ele>
        <time>1970-01-01T13:00:59.145Z</time>
    </trkpt>
    <trkpt lat="56.309646" lon="60.938753">
        <ele>260.1</ele>
        <time>1970-01-01T13:01:00.145Z</time>
    </trkpt>
    <trkpt lat="56.309628" lon="60.938815">
        <ele>260.1</ele>
        <time>1970-01-01T13:01:01.145Z</time>
    </trkpt>
    <trkpt lat="56.309629" lon="60.938836">
        <ele>260.2</ele>
        <time>1970-01-01T13:01:02.145Z</time>
    </trkpt>
    <trkpt lat="56.309621" lon="60.938903">
        <ele>260.2</ele>
        <time>1970-01-01T13:01:03.145Z</time>
    </trkpt>
    <trkpt lat="56.309607" lon="60.938946">
        <ele>260.2</ele>
        <time>1970-01-01T13:01:04.145Z</time>
    </trkpt>
    <trkpt lat="56.309595" lon="60.938993">
        <ele>260.3</ele>
        <time>1970-01-01T13:01:05.145Z</time>
    </trkpt>
    <trkpt lat="56.309588" lon="60.939015">
        <ele>260.3</ele>
        <time>1970-01-01T13:01:06.145Z</time>
    </trkpt>
    <trkpt lat="56.309574" lon="60.939082">
        <ele>260.3</ele>
        <time>1970-01-01T13:01:07.145Z</time>
    </trkpt>
    <trkpt lat="56.309561" lon="60.939142">
        <ele>260.4</ele>
        <time>1970-01-01T13:01:08.145Z</time>
    </trkpt>
    <trkpt lat="56.309555" lon="60.93917">
        <ele>260.4</ele>
        <time>1970-01-01T13:01:09.145Z</time>
    </trkpt>
    <trkpt lat="56.309539" lon="60.939238">
        <ele>260.4</ele>
        <time>1970-01-01T13:01:10.145Z</time>
    </trkpt>
    <trkpt lat="56.309529" lon="60.939284">
        <ele>260.5</ele>
        <time>1970-01-01T13:01:11.145Z</time>
    </trkpt>
    <trkpt lat="56.309513" lon="60.939337">
        <ele>260.5</ele>
        <time>1970-01-01T13:01:12.145Z</time>
    </trkpt>
    <trkpt lat="56.309499" lon="60.939393">
        <ele>260.6</ele>
        <time>1970-01-01T13:01:13.145Z</time>
    </trkpt>
    <trkpt lat="56.309494" lon="60.939441">
        <ele>260.6</ele>
        <time>1970-01-01T13:01:14.145Z</time>
    </trkpt>
    <trkpt lat="56.309483" lon="60.939486">
        <ele>260.6</ele>
        <time>1970-01-01T13:01:15.145Z</time>
    </trkpt>
    <trkpt lat="56.309475" lon="60.93951">
        <ele>260.6</ele>
        <time>1970-01-01T13:01:16.145Z</time>
    </trkpt>
    <trkpt lat="56.309459" lon="60.93958">
        <ele>260.7</ele>
        <time>1970-01-01T13:01:17.145Z</time>
    </trkpt>
    <trkpt lat="56.309445" lon="60.939631">
        <ele>260.7</ele>
        <time>1970-01-01T13:01:18.145Z</time>
    </trkpt>
    <trkpt lat="56.309431" lon="60.93968">
        <ele>260.8</ele>
        <time>1970-01-01T13:01:19.145Z</time>
    </trkpt>
    <trkpt lat="56.309414" lon="60.939718">
        <ele>260.8</ele>
        <time>1970-01-01T13:01:20.145Z</time>
    </trkpt>
    <trkpt lat="56.309398" lon="60.939759">
        <ele>260.8</ele>
        <time>1970-01-01T13:01:21.145Z</time>
    </trkpt>
    <trkpt lat="56.309385" lon="60.939808">
        <ele>260.9</ele>
        <time>1970-01-01T13:01:22.145Z</time>
    </trkpt>
    <trkpt lat="56.309381" lon="60.939834">
        <ele>260.9</ele>
        <time>1970-01-01T13:01:23.145Z</time>
    </trkpt>
    <trkpt lat="56.309368" lon="60.939904">
        <ele>260.9</ele>
        <time>1970-01-01T13:01:24.145Z</time>
    </trkpt>
    <trkpt lat="56.309364" lon="60.939925">
        <ele>260.9</ele>
        <time>1970-01-01T13:01:25.145Z</time>
    </trkpt>
    <trkpt lat="56.30935" lon="60.939981">
        <ele>261.0</ele>
        <time>1970-01-01T13:01:26.145Z</time>
    </trkpt>
    <trkpt lat="56.309346" lon="60.94">
        <ele>261.0</ele>
        <time>1970-01-01T13:01:27.145Z</time>
    </trkpt>
    <trkpt lat="56.309331" lon="60.940054">
        <ele>261.0</ele>
        <time>1970-01-01T13:01:28.145Z</time>
    </trkpt>
    <trkpt lat="56.309326" lon="60.940072">
        <ele>261.1</ele>
        <time>1970-01-01T13:01:29.145Z</time>
    </trkpt>
    <trkpt lat="56.30931" lon="60.94013">
        <ele>261.1</ele>
        <time>1970-01-01T13:01:30.145Z</time>
    </trkpt>
    <trkpt lat="56.3093" lon="60.940159">
        <ele>261.1</ele>
        <time>1970-01-01T13:01:31.145Z</time>
    </trkpt>
    <trkpt lat="56.309301" lon="60.940193">
        <ele>261.1</ele>
        <time>1970-01-01T13:01:32.145Z</time>
    </trkpt>
    <trkpt lat="56.309299" lon="60.940218">
        <ele>261.2</ele>
        <time>1970-01-01T13:01:33.145Z</time>
    </trkpt>
    <trkpt lat="56.309298" lon="60.940225">
        <ele>261.2</ele>
        <time>1970-01-01T13:01:34.145Z</time>
    </trkpt>
    <trkpt lat="56.309305" lon="60.940233">
        <ele>261.2</ele>
        <time>1970-01-01T13:01:35.145Z</time>
    </trkpt>
    <trkpt lat="56.309311" lon="60.940229">
        <ele>261.2</ele>
        <time>1970-01-01T13:01:36.145Z</time>
    </trkpt>
    <trkpt lat="56.309313" lon="60.940218">
        <ele>261.2</ele>
        <time>1970-01-01T13:01:37.145Z</time>
    </trkpt>
    <trkpt lat="56.309315" lon="60.940203">
        <ele>261.2</ele>
        <time>1970-01-01T13:01:38.145Z</time>
    </trkpt>
    <trkpt lat="56.309315" lon="60.940193">
        <ele>261.2</ele>
        <time>1970-01-01T13:01:39.145Z</time>
    </trkpt>
    <trkpt lat="56.309303" lon="60.940173">
        <ele>261.2</ele>
        <time>1970-01-01T13:01:40.145Z</time>
    </trkpt>
    <trkpt lat="56.3093" lon="60.940167">
        <ele>261.2</ele>
        <time>1970-01-01T13:01:41.145Z</time>
    </trkpt>
    <trkpt lat="56.309295" lon="60.940148">
        <ele>261.2</ele>
        <time>1970-01-01T13:01:42.145Z</time>
    </trkpt>
    <trkpt lat="56.309288" lon="60.940156">
        <ele>261.2</ele>
        <time>1970-01-01T13:01:43.145Z</time>
    </trkpt>
    <trkpt lat="56.309282" lon="60.940179">
        <ele>261.3</ele>
        <time>1970-01-01T13:01:44.145Z</time>
    </trkpt>
    <trkpt lat="56.309272" lon="60.940204">
        <ele>261.3</ele>
        <time>1970-01-01T13:01:45.145Z</time>
    </trkpt>
    <trkpt lat="56.309267" lon="60.94022">
        <ele>261.3</ele>
        <time>1970-01-01T13:01:46.145Z</time>
    </trkpt>
    <trkpt lat="56.309255" lon="60.940275">
        <ele>261.3</ele>
        <time>1970-01-01T13:01:47.145Z</time>
    </trkpt>
    <trkpt lat="56.309248" lon="60.94029">
        <ele>261.4</ele>
        <time>1970-01-01T13:01:48.145Z</time>
    </trkpt>
    <trkpt lat="56.309229" lon="60.940333">
        <ele>261.4</ele>
        <time>1970-01-01T13:01:49.145Z</time>
    </trkpt>
    <trkpt lat="56.309223" lon="60.940351">
        <ele>261.4</ele>
        <time>1970-01-01T13:01:50.145Z</time>
    </trkpt>
    <trkpt lat="56.309203" lon="60.940394">
        <ele>261.4</ele>
        <time>1970-01-01T13:01:51.145Z</time>
    </trkpt>
    <trkpt lat="56.309198" lon="60.940413">
        <ele>261.5</ele>
        <time>1970-01-01T13:01:52.145Z</time>
    </trkpt>
    <trkpt lat="56.309193" lon="60.940433">
        <ele>261.5</ele>
        <time>1970-01-01T13:01:53.145Z</time>
    </trkpt>
    <trkpt lat="56.309186" lon="60.940472">
        <ele>261.5</ele>
        <time>1970-01-01T13:01:54.145Z</time>
    </trkpt>
    <trkpt lat="56.309171" lon="60.940465">
        <ele>261.5</ele>
        <time>1970-01-01T13:01:55.145Z</time>
    </trkpt>
    <trkpt lat="56.309153" lon="60.940448">
        <ele>261.5</ele>
        <time>1970-01-01T13:01:56.145Z</time>
    </trkpt>
    <trkpt lat="56.309143" lon="60.940449">
        <ele>261.5</ele>
        <time>1970-01-01T13:01:57.145Z</time>
    </trkpt>
    <trkpt lat="56.309117" lon="60.940462">
        <ele>261.6</ele>
        <time>1970-01-01T13:01:58.145Z</time>
    </trkpt>
    <trkpt lat="56.309103" lon="60.940469">
        <ele>261.6</ele>
        <time>1970-01-01T13:01:59.145Z</time>
    </trkpt>
    <trkpt lat="56.309088" lon="60.940484">
        <ele>261.6</ele>
        <time>1970-01-01T13:02:00.145Z</time>
    </trkpt>
    <trkpt lat="56.309079" lon="60.940502">
        <ele>261.6</ele>
        <time>1970-01-01T13:02:01.145Z</time>
    </trkpt>
    <trkpt lat="56.309059" lon="60.940549">
        <ele>261.6</ele>
        <time>1970-01-01T13:02:02.145Z</time>
    </trkpt>
    <trkpt lat="56.309053" lon="60.940559">
        <ele>261.6</ele>
        <time>1970-01-01T13:02:03.145Z</time>
    </trkpt>
    <trkpt lat="56.309029" lon="60.94059">
        <ele>261.5</ele>
        <time>1970-01-01T13:02:04.145Z</time>
    </trkpt>
    <trkpt lat="56.309026" lon="60.940594">
        <ele>261.5</ele>
        <time>1970-01-01T13:02:05.145Z</time>
    </trkpt>
    <trkpt lat="56.309023" lon="60.940599">
        <ele>261.5</ele>
        <time>1970-01-01T13:02:06.145Z</time>
    </trkpt>
    <trkpt lat="56.30902" lon="60.940603">
        <ele>261.5</ele>
        <time>1970-01-01T13:04:17.145Z</time>
    </trkpt>
    <trkpt lat="56.309018" lon="60.940608">
        <ele>261.5</ele>
        <time>1970-01-01T13:04:18.145Z</time>
    </trkpt>
    <trkpt lat="56.309015" lon="60.940612">
        <ele>261.5</ele>
        <time>1970-01-01T13:04:19.145Z</time>
    </trkpt>
    <trkpt lat="56.309012" lon="60.940617">
        <ele>261.5</ele>
        <time>1970-01-01T13:04:20.145Z</time>
    </trkpt>
    <trkpt lat="56.309009" lon="60.940621">
        <ele>261.5</ele>
        <time>1970-01-01T13:04:21.145Z</time>
    </trkpt>
    <trkpt lat="56.309007" lon="60.940626">
        <ele>261.5</ele>
        <time>1970-01-01T13:04:22.145Z</time>
    </trkpt>
    <trkpt lat="56.309004" lon="60.94063">
        <ele>261.5</ele>
        <time>1970-01-01T13:04:23.145Z</time>
    </trkpt>
    <trkpt lat="56.309001" lon="60.940634">
        <ele>261.5</ele>
        <time>1970-01-01T13:04:24.145Z</time>
    </trkpt>
    <trkpt lat="56.308999" lon="60.940639">
        <ele>261.5</ele>
        <time>1970-01-01T13:04:25.145Z</time>
    </trkpt>
    <trkpt lat="56.308996" lon="60.940643">
        <ele>261.4</ele>
        <time>1970-01-01T13:04:26.145Z</time>
    </trkpt>
    <trkpt lat="56.308993" lon="60.940648">
        <ele>261.4</ele>
        <time>1970-01-01T13:04:27.145Z</time>
    </trkpt>
    <trkpt lat="56.30899" lon="60.940652">
        <ele>261.4</ele>
        <time>1970-01-01T13:04:28.145Z</time>
    </trkpt>
    <trkpt lat="56.30898" lon="60.940663">
        <ele>261.4</ele>
        <time>1970-01-01T13:04:29.145Z</time>
    </trkpt>
    <trkpt lat="56.30897855100307" lon="60.94066536426544">
        <ele>261.4</ele>
        <time>1970-01-01T13:04:29.645Z</time>
    </trkpt>
    <trkpt lat="56.30920530004518" lon="60.9409260749817">
        <ele>260.3</ele>
        <time>1970-01-01T13:04:42.892Z</time>
    </trkpt>
    <trkpt lat="56.30944037965201" lon="60.94109237194062">
        <ele>260.9</ele>
        <time>1970-01-01T13:04:57.160Z</time>
    </trkpt>
    <trkpt lat="56.30967545781206" lon="60.94125866889954">
        <ele>261.0</ele>
        <time>1970-01-01T13:05:11.428Z</time>
    </trkpt>
    <trkpt lat="56.31000277942275" lon="60.94174146652224">
        <ele>261.5</ele>
        <time>1970-01-01T13:05:35.323Z</time>
    </trkpt>
    <trkpt lat="56.31033009822855" lon="60.942224264144905">
        <ele>261.7</ele>
        <time>1970-01-01T13:05:59.218Z</time>
    </trkpt>
    <trkpt lat="56.31071097476257" lon="60.942814350128195">
        <ele>263.3</ele>
        <time>1970-01-01T13:06:27.592Z</time>
    </trkpt>
    <trkpt lat="56.311091847498716" lon="60.94340443611146">
        <ele>263.1</ele>
        <time>1970-01-01T13:06:55.966Z</time>
    </trkpt>
    <trkpt lat="56.31125950827617" lon="60.94346713993865">
        <ele>263.0</ele>
        <time>1970-01-01T13:07:05.640Z</time>
    </trkpt>
    <trkpt lat="56.311949484023" lon="60.94372518840048">
        <ele>263.0</ele>
        <time>1970-01-01T13:07:45.454Z</time>
    </trkpt>
    <trkpt lat="56.31263944730571" lon="60.94398323686229">
        <ele>263.7</ele>
        <time>1970-01-01T13:08:25.267Z</time>
    </trkpt>
    <trkpt lat="56.313329398124445" lon="60.944241285324104">
        <ele>262.2</ele>
        <time>1970-01-01T13:09:05.079Z</time>
    </trkpt>
    <trkpt lat="56.313752716551704" lon="60.944399974683535">
        <ele>262.0</ele>
        <time>1970-01-01T13:09:29.508Z</time>
    </trkpt>
    <trkpt lat="56.31444258215536" lon="60.9446585883397">
        <ele>262.0</ele>
        <time>1970-01-01T13:10:09.319Z</time>
    </trkpt>
    <trkpt lat="56.315132435297684" lon="60.94491720199586">
        <ele>260.4</ele>
        <time>1970-01-01T13:10:49.129Z</time>
    </trkpt>
    <trkpt lat="56.31560847051207" lon="60.94505667686463">
        <ele>256.9</ele>
        <time>1970-01-01T13:11:16.378Z</time>
    </trkpt>
    <trkpt lat="56.316084499792666" lon="60.945196151733406">
        <ele>257.0</ele>
        <time>1970-01-01T13:11:43.626Z</time>
    </trkpt>
    <trkpt lat="56.31647721948209" lon="60.945196151733406">
        <ele>256.5</ele>
        <time>1970-01-01T13:12:05.815Z</time>
    </trkpt>
    <trkpt lat="56.316869935132864" lon="60.945196151733406">
        <ele>256.0</ele>
        <time>1970-01-01T13:12:28.003Z</time>
    </trkpt>
    <trkpt lat="56.31710794265266" lon="60.94500303268433">
        <ele>256.3</ele>
        <time>1970-01-01T13:12:42.749Z</time>
    </trkpt>
    <trkpt lat="56.317345948689" lon="60.94480991363526">
        <ele>255.7</ele>
        <time>1970-01-01T13:12:57.495Z</time>
    </trkpt>
    <trkpt lat="56.31777435581625" lon="60.944530963897726">
        <ele>255.5</ele>
        <time>1970-01-01T13:13:23.230Z</time>
    </trkpt>
    <trkpt lat="56.31820275813721" lon="60.94425201416016">
        <ele>256.7</ele>
        <time>1970-01-01T13:13:48.964Z</time>
    </trkpt>
    <trkpt lat="56.31829748686625" lon="60.944238457664774">
        <ele>256.6</ele>
        <time>1970-01-01T13:13:54.333Z</time>
    </trkpt>
    <trkpt lat="56.318999814098" lon="60.94413794755188">
        <ele>254.4</ele>
        <time>1970-01-01T13:14:34.139Z</time>
    </trkpt>
    <trkpt lat="56.31970212841192" lon="60.94403743743897">
        <ele>252.2</ele>
        <time>1970-01-01T13:15:13.945Z</time>
    </trkpt>
    <trkpt lat="56.31970447050638" lon="60.94403786693231">
        <ele>252.2</ele>
        <time>1970-01-01T13:15:14.078Z</time>
    </trkpt>
    <trkpt lat="56.32040536527987" lon="60.94416639821836">
        <ele>253.1</ele>
        <time>1970-01-01T13:15:53.883Z</time>
    </trkpt>
    <trkpt lat="56.32110624718752" lon="60.9442949295044">
        <ele>252.7</ele>
        <time>1970-01-01T13:16:33.687Z</time>
    </trkpt>
    <trkpt lat="56.32161790475233" lon="60.944402217865">
        <ele>252.4</ele>
        <time>1970-01-01T13:17:02.790Z</time>
    </trkpt>
    <trkpt lat="56.32212955546044" lon="60.94450950622559">
        <ele>251.1</ele>
        <time>1970-01-01T13:17:31.893Z</time>
    </trkpt>
    <trkpt lat="56.32239077823577" lon="60.9446050872896">
        <ele>250.2</ele>
        <time>1970-01-01T13:17:46.953Z</time>
    </trkpt>
    <trkpt lat="56.323081170837774" lon="60.94485770416726">
        <ele>249.6</ele>
        <time>1970-01-01T13:18:26.755Z</time>
    </trkpt>
    <trkpt lat="56.32377155095536" lon="60.94511032104493">
        <ele>247.2</ele>
        <time>1970-01-01T13:19:06.556Z</time>
    </trkpt>
    <trkpt lat="56.32389291847578" lon="60.945101737591436">
        <ele>247.1</ele>
        <time>1970-01-01T13:19:13.418Z</time>
    </trkpt>
    <trkpt lat="56.32459680985358" lon="60.945051955869054">
        <ele>245.2</ele>
        <time>1970-01-01T13:19:53.219Z</time>
    </trkpt>
    <trkpt lat="56.32530068825325" lon="60.94500217414667">
        <ele>243.0</ele>
        <time>1970-01-01T13:20:33.019Z</time>
    </trkpt>
    <trkpt lat="56.326004553674885" lon="60.94495239242428">
        <ele>241.6</ele>
        <time>1970-01-01T13:21:12.818Z</time>
    </trkpt>
    <trkpt lat="56.32670840611866" lon="60.944902610701895">
        <ele>239.3</ele>
        <time>1970-01-01T13:21:52.616Z</time>
    </trkpt>
    <trkpt lat="56.32741224558465" lon="60.9448528289795">
        <ele>239.0</ele>
        <time>1970-01-01T13:22:32.414Z</time>
    </trkpt>
    <trkpt lat="56.327614496216896" lon="60.94483137130738">
        <ele>238.2</ele>
        <time>1970-01-01T13:22:43.861Z</time>
    </trkpt>
    <trkpt lat="56.327816745777525" lon="60.94480991363526">
        <ele>237.7</ele>
        <time>1970-01-01T13:22:55.308Z</time>
    </trkpt>
    <trkpt lat="56.32782449525598" lon="60.94480902900759">
        <ele>237.7</ele>
        <time>1970-01-01T13:22:55.746Z</time>
    </trkpt>
    <trkpt lat="56.328527448607225" lon="60.94472878389406">
        <ele>235.0</ele>
        <time>1970-01-01T13:23:35.543Z</time>
    </trkpt>
    <trkpt lat="56.32923038901295" lon="60.944648538780534">
        <ele>234.4</ele>
        <time>1970-01-01T13:24:15.339Z</time>
    </trkpt>
    <trkpt lat="56.3299333164733" lon="60.944568293667004">
        <ele>235.0</ele>
        <time>1970-01-01T13:24:55.134Z</time>
    </trkpt>
    <trkpt lat="56.330636230988425" lon="60.94448804855347">
        <ele>234.5</ele>
        <time>1970-01-01T13:25:34.928Z</time>
    </trkpt>
    <trkpt lat="56.33090984082951" lon="60.94442367553712">
        <ele>234.1</ele>
        <time>1970-01-01T13:25:50.518Z</time>
    </trkpt>
    <trkpt lat="56.33118344870917" lon="60.94435930252076">
        <ele>234.0</ele>
        <time>1970-01-01T13:26:06.108Z</time>
    </trkpt>
    <trkpt lat="56.33145705462742" lon="60.94393014907837">
        <ele>234.4</ele>
        <time>1970-01-01T13:26:26.594Z</time>
    </trkpt>
    <trkpt lat="56.33173065858423" lon="60.94350099563599">
        <ele>235.0</ele>
        <time>1970-01-01T13:26:47.080Z</time>
    </trkpt>
    <trkpt lat="56.332057791175416" lon="60.942739248275764">
        <ele>237.2</ele>
        <time>1970-01-01T13:27:17.261Z</time>
    </trkpt>
    <trkpt lat="56.3323849209626" lon="60.941977500915534">
        <ele>238.0</ele>
        <time>1970-01-01T13:27:47.442Z</time>
    </trkpt>
    <trkpt lat="56.33286100535287" lon="60.942484037656826">
        <ele>237.9</ele>
        <time>1970-01-01T13:28:18.671Z</time>
    </trkpt>
    <trkpt lat="56.33346761457359" lon="60.94312945729831">
        <ele>238.0</ele>
        <time>1970-01-01T13:28:58.462Z</time>
    </trkpt>
    <trkpt lat="56.33407421415233" lon="60.9437748769398">
        <ele>240.2</ele>
        <time>1970-01-01T13:29:38.253Z</time>
    </trkpt>
    <trkpt lat="56.334680804089196" lon="60.944420296581285">
        <ele>241.1</ele>
        <time>1970-01-01T13:30:18.043Z</time>
    </trkpt>
    <trkpt lat="56.33528738438425" lon="60.945065716222764">
        <ele>242.7</ele>
        <time>1970-01-01T13:30:57.832Z</time>
    </trkpt>
    <trkpt lat="56.33589395503755" lon="60.94571113586426">
        <ele>244.3</ele>
        <time>1970-01-01T13:31:37.621Z</time>
    </trkpt>
    <trkpt lat="56.33590584951961" lon="60.94571113586426">
        <ele>244.3</ele>
        <time>1970-01-01T13:31:38.293Z</time>
    </trkpt>
    <trkpt lat="56.336192600404544" lon="60.94583527691537">
        <ele>245.2</ele>
        <time>1970-01-01T13:31:53.487Z</time>
    </trkpt>
    <trkpt lat="56.336877364390325" lon="60.94613173076281">
        <ele>246.0</ele>
        <time>1970-01-01T13:32:29.772Z</time>
    </trkpt>
    <trkpt lat="56.337562116087994" lon="60.946428184610255">
        <ele>247.4</ele>
        <time>1970-01-01T13:33:06.056Z</time>
    </trkpt>
    <trkpt lat="56.33824685549768" lon="60.946724638457695">
        <ele>249.7</ele>
        <time>1970-01-01T13:33:42.340Z</time>
    </trkpt>
    <trkpt lat="56.33893158261951" lon="60.94702109230512">
        <ele>250.2</ele>
        <time>1970-01-01T13:34:18.623Z</time>
    </trkpt>
    <trkpt lat="56.33961629745358" lon="60.94731754615257">
        <ele>251.7</ele>
        <time>1970-01-01T13:34:54.905Z</time>
    </trkpt>
    <trkpt lat="56.340301000000004" lon="60.94761400000001">
        <ele>254.2</ele>
        <time>1970-01-01T13:35:31.187Z</time>
    </trkpt>
    <trkpt lat="56.340322" lon="60.947625">
        <ele>253.3</ele>
        <time>1970-01-01T13:35:32.313Z</time>
    </trkpt>
    <trkpt lat="56.340341" lon="60.947622">
        <ele>253.3</ele>
        <time>1970-01-01T13:35:33.313Z</time>
    </trkpt>
    <trkpt lat="56.340382" lon="60.947636">
        <ele>253.4</ele>
        <time>1970-01-01T13:35:34.313Z</time>
    </trkpt>
    <trkpt lat="56.340396" lon="60.947645">
        <ele>253.4</ele>
        <time>1970-01-01T13:35:35.313Z</time>
    </trkpt>
    <trkpt lat="56.34043" lon="60.947665">
        <ele>253.5</ele>
        <time>1970-01-01T13:35:36.313Z</time>
    </trkpt>
    <trkpt lat="56.340457" lon="60.947688">
        <ele>253.5</ele>
        <time>1970-01-01T13:35:37.313Z</time>
    </trkpt>
    <trkpt lat="56.340469" lon="60.947695">
        <ele>253.6</ele>
        <time>1970-01-01T13:35:38.313Z</time>
    </trkpt>
    <trkpt lat="56.340503" lon="60.947706">
        <ele>253.6</ele>
        <time>1970-01-01T13:35:39.313Z</time>
    </trkpt>
    <trkpt lat="56.340512" lon="60.947713">
        <ele>253.7</ele>
        <time>1970-01-01T13:35:40.313Z</time>
    </trkpt>
    <trkpt lat="56.340543" lon="60.947742">
        <ele>253.7</ele>
        <time>1970-01-01T13:35:41.313Z</time>
    </trkpt>
    <trkpt lat="56.340576" lon="60.947754">
        <ele>253.8</ele>
        <time>1970-01-01T13:35:42.313Z</time>
    </trkpt>
    <trkpt lat="56.340593" lon="60.947765">
        <ele>253.8</ele>
        <time>1970-01-01T13:35:43.313Z</time>
    </trkpt>
    <trkpt lat="56.340634" lon="60.94778">
        <ele>253.9</ele>
        <time>1970-01-01T13:35:44.313Z</time>
    </trkpt>
    <trkpt lat="56.340676" lon="60.947781">
        <ele>254.0</ele>
        <time>1970-01-01T13:35:45.313Z</time>
    </trkpt>
    <trkpt lat="56.340699" lon="60.947811">
        <ele>254.0</ele>
        <time>1970-01-01T13:35:46.313Z</time>
    </trkpt>
    <trkpt lat="56.340732" lon="60.947823">
        <ele>254.1</ele>
        <time>1970-01-01T13:35:47.313Z</time>
    </trkpt>
    <trkpt lat="56.340767" lon="60.947833">
        <ele>254.2</ele>
        <time>1970-01-01T13:35:48.313Z</time>
    </trkpt>
    <trkpt lat="56.340782" lon="60.947837">
        <ele>254.2</ele>
        <time>1970-01-01T13:35:49.313Z</time>
    </trkpt>
    <trkpt lat="56.340823" lon="60.947836">
        <ele>254.3</ele>
        <time>1970-01-01T13:35:50.313Z</time>
    </trkpt>
    <trkpt lat="56.340855" lon="60.94784">
        <ele>254.3</ele>
        <time>1970-01-01T13:35:51.313Z</time>
    </trkpt>
    <trkpt lat="56.340882" lon="60.947858">
        <ele>254.4</ele>
        <time>1970-01-01T13:35:52.313Z</time>
    </trkpt>
    <trkpt lat="56.340913" lon="60.947873">
        <ele>254.4</ele>
        <time>1970-01-01T13:35:53.313Z</time>
    </trkpt>
    <trkpt lat="56.340947" lon="60.947885">
        <ele>254.5</ele>
        <time>1970-01-01T13:35:54.313Z</time>
    </trkpt>
    <trkpt lat="56.340977" lon="60.947897">
        <ele>254.6</ele>
        <time>1970-01-01T13:35:55.313Z</time>
    </trkpt>
    <trkpt lat="56.341009" lon="60.947915">
        <ele>254.6</ele>
        <time>1970-01-01T13:35:56.313Z</time>
    </trkpt>
    <trkpt lat="56.341042" lon="60.947921">
        <ele>254.7</ele>
        <time>1970-01-01T13:35:57.313Z</time>
    </trkpt>
    <trkpt lat="56.34107" lon="60.947927">
        <ele>254.7</ele>
        <time>1970-01-01T13:35:58.313Z</time>
    </trkpt>
    <trkpt lat="56.341096" lon="60.947946">
        <ele>254.8</ele>
        <time>1970-01-01T13:35:59.313Z</time>
    </trkpt>
    <trkpt lat="56.341129" lon="60.947959">
        <ele>254.9</ele>
        <time>1970-01-01T13:36:00.313Z</time>
    </trkpt>
    <trkpt lat="56.34116" lon="60.947973">
        <ele>254.9</ele>
        <time>1970-01-01T13:36:01.313Z</time>
    </trkpt>
    <trkpt lat="56.341191" lon="60.947987">
        <ele>255.0</ele>
        <time>1970-01-01T13:36:02.313Z</time>
    </trkpt>
    <trkpt lat="56.341206" lon="60.94799">
        <ele>255.0</ele>
        <time>1970-01-01T13:36:03.313Z</time>
    </trkpt>
    <trkpt lat="56.341245" lon="60.948013">
        <ele>255.1</ele>
        <time>1970-01-01T13:36:04.313Z</time>
    </trkpt>
    <trkpt lat="56.34128" lon="60.948028">
        <ele>255.1</ele>
        <time>1970-01-01T13:36:05.313Z</time>
    </trkpt>
    <trkpt lat="56.341345" lon="60.94807">
        <ele>255.3</ele>
        <time>1970-01-01T13:36:06.313Z</time>
    </trkpt>
    <trkpt lat="56.341363" lon="60.948068">
        <ele>255.3</ele>
        <time>1970-01-01T13:36:07.313Z</time>
    </trkpt>
    <trkpt lat="56.341404" lon="60.948065">
        <ele>255.4</ele>
        <time>1970-01-01T13:36:08.313Z</time>
    </trkpt>
    <trkpt lat="56.341438" lon="60.94808">
        <ele>255.4</ele>
        <time>1970-01-01T13:36:09.313Z</time>
    </trkpt>
    <trkpt lat="56.341465" lon="60.948096">
        <ele>255.5</ele>
        <time>1970-01-01T13:36:10.313Z</time>
    </trkpt>
    <trkpt lat="56.341478" lon="60.948101">
        <ele>255.5</ele>
        <time>1970-01-01T13:36:11.313Z</time>
    </trkpt>
    <trkpt lat="56.341512" lon="60.948113">
        <ele>255.6</ele>
        <time>1970-01-01T13:36:12.313Z</time>
    </trkpt>
    <trkpt lat="56.341544" lon="60.948129">
        <ele>255.7</ele>
        <time>1970-01-01T13:36:13.313Z</time>
    </trkpt>
    <trkpt lat="56.341567" lon="60.948155">
        <ele>255.7</ele>
        <time>1970-01-01T13:36:14.313Z</time>
    </trkpt>
    <trkpt lat="56.341585" lon="60.948155">
        <ele>255.7</ele>
        <time>1970-01-01T13:36:15.313Z</time>
    </trkpt>
    <trkpt lat="56.341629" lon="60.948165">
        <ele>255.8</ele>
        <time>1970-01-01T13:36:16.313Z</time>
    </trkpt>
    <trkpt lat="56.341663" lon="60.948183">
        <ele>255.9</ele>
        <time>1970-01-01T13:36:17.313Z</time>
    </trkpt>
    <trkpt lat="56.341695" lon="60.948189">
        <ele>255.9</ele>
        <time>1970-01-01T13:36:18.313Z</time>
    </trkpt>
    <trkpt lat="56.341736" lon="60.948211">
        <ele>256.0</ele>
        <time>1970-01-01T13:36:19.313Z</time>
    </trkpt>
    <trkpt lat="56.34177" lon="60.948224">
        <ele>256.1</ele>
        <time>1970-01-01T13:36:20.313Z</time>
    </trkpt>
    <trkpt lat="56.3418" lon="60.948244">
        <ele>256.2</ele>
        <time>1970-01-01T13:36:21.313Z</time>
    </trkpt>
    <trkpt lat="56.341833" lon="60.948257">
        <ele>256.2</ele>
        <time>1970-01-01T13:36:22.313Z</time>
    </trkpt>
    <trkpt lat="56.341861" lon="60.948262">
        <ele>256.3</ele>
        <time>1970-01-01T13:36:23.313Z</time>
    </trkpt>
    <trkpt lat="56.341891" lon="60.94827">
        <ele>256.3</ele>
        <time>1970-01-01T13:36:24.313Z</time>
    </trkpt>
    <trkpt lat="56.341924" lon="60.948282">
        <ele>256.4</ele>
        <time>1970-01-01T13:36:25.313Z</time>
    </trkpt>
    <trkpt lat="56.341961" lon="60.948287">
        <ele>256.5</ele>
        <time>1970-01-01T13:36:26.313Z</time>
    </trkpt>
    <trkpt lat="56.342001" lon="60.948306">
        <ele>256.5</ele>
        <time>1970-01-01T13:36:27.313Z</time>
    </trkpt>
    <trkpt lat="56.34203" lon="60.948332">
        <ele>256.6</ele>
        <time>1970-01-01T13:36:28.313Z</time>
    </trkpt>
    <trkpt lat="56.342062" lon="60.948337">
        <ele>256.7</ele>
        <time>1970-01-01T13:36:29.313Z</time>
    </trkpt>
    <trkpt lat="56.342089" lon="60.948341">
        <ele>256.7</ele>
        <time>1970-01-01T13:36:30.313Z</time>
    </trkpt>
    <trkpt lat="56.342116" lon="60.948339">
        <ele>256.8</ele>
        <time>1970-01-01T13:36:31.313Z</time>
    </trkpt>
    <trkpt lat="56.342143" lon="60.948354">
        <ele>256.8</ele>
        <time>1970-01-01T13:36:33.313Z</time>
    </trkpt>
    <trkpt lat="56.342172" lon="60.948358">
        <ele>256.9</ele>
        <time>1970-01-01T13:36:34.313Z</time>
    </trkpt>
    <trkpt lat="56.342201" lon="60.948377">
        <ele>256.9</ele>
        <time>1970-01-01T13:36:35.313Z</time>
    </trkpt>
    <trkpt lat="56.342229" lon="60.948385">
        <ele>257.0</ele>
        <time>1970-01-01T13:36:36.313Z</time>
    </trkpt>
    <trkpt lat="56.342267" lon="60.948401">
        <ele>257.1</ele>
        <time>1970-01-01T13:36:37.313Z</time>
    </trkpt>
    <trkpt lat="56.342297" lon="60.948406">
        <ele>257.1</ele>
        <time>1970-01-01T13:36:38.313Z</time>
    </trkpt>
    <trkpt lat="56.34231" lon="60.948415">
        <ele>257.1</ele>
        <time>1970-01-01T13:36:39.313Z</time>
    </trkpt>
    <trkpt lat="56.34235" lon="60.948429">
        <ele>257.2</ele>
        <time>1970-01-01T13:36:40.313Z</time>
    </trkpt>
    <trkpt lat="56.342361" lon="60.948427">
        <ele>257.2</ele>
        <time>1970-01-01T13:36:41.313Z</time>
    </trkpt>
    <trkpt lat="56.342397" lon="60.948435">
        <ele>257.3</ele>
        <time>1970-01-01T13:36:42.313Z</time>
    </trkpt>
    <trkpt lat="56.342426" lon="60.948442">
        <ele>257.4</ele>
        <time>1970-01-01T13:36:43.313Z</time>
    </trkpt>
    <trkpt lat="56.342456" lon="60.948455">
        <ele>257.4</ele>
        <time>1970-01-01T13:36:44.313Z</time>
    </trkpt>
    <trkpt lat="56.342472" lon="60.948461">
        <ele>257.4</ele>
        <time>1970-01-01T13:36:45.313Z</time>
    </trkpt>
    <trkpt lat="56.342512" lon="60.948487">
        <ele>257.5</ele>
        <time>1970-01-01T13:36:46.313Z</time>
    </trkpt>
    <trkpt lat="56.342542" lon="60.948496">
        <ele>257.6</ele>
        <time>1970-01-01T13:36:47.313Z</time>
    </trkpt>
    <trkpt lat="56.34261" lon="60.948523">
        <ele>257.7</ele>
        <time>1970-01-01T13:36:48.313Z</time>
    </trkpt>
    <trkpt lat="56.34264" lon="60.948533">
        <ele>257.8</ele>
        <time>1970-01-01T13:36:49.313Z</time>
    </trkpt>
    <trkpt lat="56.34267" lon="60.94854">
        <ele>257.8</ele>
        <time>1970-01-01T13:36:50.313Z</time>
    </trkpt>
    <trkpt lat="56.342705" lon="60.948561">
        <ele>257.9</ele>
        <time>1970-01-01T13:36:51.313Z</time>
    </trkpt>
    <trkpt lat="56.342718" lon="60.948566">
        <ele>257.9</ele>
        <time>1970-01-01T13:36:52.313Z</time>
    </trkpt>
    <trkpt lat="56.342756" lon="60.948584">
        <ele>258.0</ele>
        <time>1970-01-01T13:36:53.313Z</time>
    </trkpt>
    <trkpt lat="56.342792" lon="60.948591">
        <ele>258.1</ele>
        <time>1970-01-01T13:36:54.313Z</time>
    </trkpt>
    <trkpt lat="56.342806" lon="60.948598">
        <ele>258.1</ele>
        <time>1970-01-01T13:36:55.313Z</time>
    </trkpt>
    <trkpt lat="56.342845" lon="60.948622">
        <ele>258.2</ele>
        <time>1970-01-01T13:36:56.313Z</time>
    </trkpt>
    <trkpt lat="56.342877" lon="60.948631">
        <ele>258.2</ele>
        <time>1970-01-01T13:36:57.313Z</time>
    </trkpt>
    <trkpt lat="56.342908" lon="60.948641">
        <ele>258.3</ele>
        <time>1970-01-01T13:36:58.313Z</time>
    </trkpt>
    <trkpt lat="56.342936" lon="60.948669">
        <ele>258.3</ele>
        <time>1970-01-01T13:36:59.313Z</time>
    </trkpt>
    <trkpt lat="56.342963" lon="60.948678">
        <ele>258.4</ele>
        <time>1970-01-01T13:37:00.313Z</time>
    </trkpt>
    <trkpt lat="56.342975" lon="60.94868">
        <ele>258.4</ele>
        <time>1970-01-01T13:37:01.313Z</time>
    </trkpt>
    <trkpt lat="56.343011" lon="60.948683">
        <ele>258.5</ele>
        <time>1970-01-01T13:37:02.313Z</time>
    </trkpt>
    <trkpt lat="56.343024" lon="60.948688">
        <ele>258.5</ele>
        <time>1970-01-01T13:37:03.313Z</time>
    </trkpt>
    <trkpt lat="56.343059" lon="60.948706">
        <ele>258.6</ele>
        <time>1970-01-01T13:37:04.313Z</time>
    </trkpt>
    <trkpt lat="56.343088" lon="60.948721">
        <ele>258.6</ele>
        <time>1970-01-01T13:37:05.313Z</time>
    </trkpt>
    <trkpt lat="56.3431" lon="60.94873">
        <ele>258.7</ele>
        <time>1970-01-01T13:37:06.313Z</time>
    </trkpt>
    <trkpt lat="56.343137" lon="60.948754">
        <ele>258.7</ele>
        <time>1970-01-01T13:37:07.313Z</time>
    </trkpt>
    <trkpt lat="56.343152" lon="60.948754">
        <ele>258.8</ele>
        <time>1970-01-01T13:37:08.313Z</time>
    </trkpt>
    <trkpt lat="56.343194" lon="60.94876">
        <ele>258.8</ele>
        <time>1970-01-01T13:37:09.313Z</time>
    </trkpt>
    <trkpt lat="56.343207" lon="60.948767">
        <ele>258.9</ele>
        <time>1970-01-01T13:37:10.313Z</time>
    </trkpt>
    <trkpt lat="56.343242" lon="60.948783">
        <ele>258.9</ele>
        <time>1970-01-01T13:37:11.313Z</time>
    </trkpt>
    <trkpt lat="56.34328" lon="60.948796">
        <ele>259.0</ele>
        <time>1970-01-01T13:37:12.313Z</time>
    </trkpt>
    <trkpt lat="56.343308" lon="60.948818">
        <ele>259.1</ele>
        <time>1970-01-01T13:37:13.313Z</time>
    </trkpt>
    <trkpt lat="56.343346" lon="60.948826">
        <ele>259.1</ele>
        <time>1970-01-01T13:37:14.313Z</time>
    </trkpt>
    <trkpt lat="56.34339" lon="60.948851">
        <ele>259.2</ele>
        <time>1970-01-01T13:37:15.313Z</time>
    </trkpt>
    <trkpt lat="56.343426" lon="60.948873">
        <ele>259.3</ele>
        <time>1970-01-01T13:37:16.313Z</time>
    </trkpt>
    <trkpt lat="56.343466" lon="60.94889">
        <ele>259.4</ele>
        <time>1970-01-01T13:37:17.313Z</time>
    </trkpt>
    <trkpt lat="56.343501" lon="60.9489">
        <ele>259.4</ele>
        <time>1970-01-01T13:37:18.313Z</time>
    </trkpt>
    <trkpt lat="56.343538" lon="60.948921">
        <ele>259.5</ele>
        <time>1970-01-01T13:37:19.313Z</time>
    </trkpt>
    <trkpt lat="56.343571" lon="60.948944">
        <ele>259.6</ele>
        <time>1970-01-01T13:37:20.313Z</time>
    </trkpt>
    <trkpt lat="56.343604" lon="60.948952">
        <ele>259.6</ele>
        <time>1970-01-01T13:37:21.313Z</time>
    </trkpt>
    <trkpt lat="56.343634" lon="60.94896">
        <ele>259.7</ele>
        <time>1970-01-01T13:37:22.313Z</time>
    </trkpt>
    <trkpt lat="56.343667" lon="60.948975">
        <ele>259.8</ele>
        <time>1970-01-01T13:37:23.313Z</time>
    </trkpt>
    <trkpt lat="56.343697" lon="60.948983">
        <ele>259.8</ele>
        <time>1970-01-01T13:37:24.313Z</time>
    </trkpt>
    <trkpt lat="56.343729" lon="60.948999">
        <ele>259.9</ele>
        <time>1970-01-01T13:37:25.313Z</time>
    </trkpt>
    <trkpt lat="56.343765" lon="60.949019">
        <ele>259.9</ele>
        <time>1970-01-01T13:37:26.313Z</time>
    </trkpt>
    <trkpt lat="56.343798" lon="60.949038">
        <ele>260.0</ele>
        <time>1970-01-01T13:37:27.313Z</time>
    </trkpt>
    <trkpt lat="56.343834" lon="60.94905">
        <ele>260.1</ele>
        <time>1970-01-01T13:37:28.313Z</time>
    </trkpt>
    <trkpt lat="56.343872" lon="60.949067">
        <ele>260.2</ele>
        <time>1970-01-01T13:37:29.313Z</time>
    </trkpt>
    <trkpt lat="56.343904" lon="60.949068">
        <ele>260.2</ele>
        <time>1970-01-01T13:37:30.313Z</time>
    </trkpt>
    <trkpt lat="56.34392" lon="60.949074">
        <ele>260.2</ele>
        <time>1970-01-01T13:37:31.313Z</time>
    </trkpt>
    <trkpt lat="56.343959" lon="60.949085">
        <ele>260.3</ele>
        <time>1970-01-01T13:37:32.313Z</time>
    </trkpt>
    <trkpt lat="56.343991" lon="60.949101">
        <ele>260.4</ele>
        <time>1970-01-01T13:37:33.313Z</time>
    </trkpt>
    <trkpt lat="56.344021" lon="60.949123">
        <ele>260.4</ele>
        <time>1970-01-01T13:37:34.313Z</time>
    </trkpt>
    <trkpt lat="56.344054" lon="60.949132">
        <ele>260.5</ele>
        <time>1970-01-01T13:37:35.313Z</time>
    </trkpt>
    <trkpt lat="56.34409" lon="60.949153">
        <ele>260.6</ele>
        <time>1970-01-01T13:37:36.313Z</time>
    </trkpt>
    <trkpt lat="56.344126" lon="60.949161">
        <ele>260.6</ele>
        <time>1970-01-01T13:37:37.313Z</time>
    </trkpt>
    <trkpt lat="56.344162" lon="60.949177">
        <ele>260.7</ele>
        <time>1970-01-01T13:37:38.313Z</time>
    </trkpt>
    <trkpt lat="56.344196" lon="60.949188">
        <ele>260.8</ele>
        <time>1970-01-01T13:37:39.313Z</time>
    </trkpt>
    <trkpt lat="56.344225" lon="60.949209">
        <ele>260.8</ele>
        <time>1970-01-01T13:37:40.313Z</time>
    </trkpt>
    <trkpt lat="56.344257" lon="60.949231">
        <ele>260.9</ele>
        <time>1970-01-01T13:37:41.313Z</time>
    </trkpt>
    <trkpt lat="56.344284" lon="60.94924">
        <ele>261.0</ele>
        <time>1970-01-01T13:37:42.313Z</time>
    </trkpt>
    <trkpt lat="56.344311" lon="60.949253">
        <ele>261.0</ele>
        <time>1970-01-01T13:37:43.313Z</time>
    </trkpt>
    <trkpt lat="56.344339" lon="60.949264">
        <ele>261.1</ele>
        <time>1970-01-01T13:37:44.313Z</time>
    </trkpt>
    <trkpt lat="56.344367" lon="60.949274">
        <ele>261.1</ele>
        <time>1970-01-01T13:37:45.313Z</time>
    </trkpt>
    <trkpt lat="56.344394" lon="60.949288">
        <ele>261.2</ele>
        <time>1970-01-01T13:37:46.313Z</time>
    </trkpt>
    <trkpt lat="56.344425" lon="60.949315">
        <ele>261.2</ele>
        <time>1970-01-01T13:37:47.313Z</time>
    </trkpt>
    <trkpt lat="56.344458" lon="60.949326">
        <ele>261.3</ele>
        <time>1970-01-01T13:37:48.313Z</time>
    </trkpt>
    <trkpt lat="56.344492" lon="60.949341">
        <ele>261.4</ele>
        <time>1970-01-01T13:37:49.313Z</time>
    </trkpt>
    <trkpt lat="56.344523" lon="60.949364">
        <ele>261.4</ele>
        <time>1970-01-01T13:37:50.313Z</time>
    </trkpt>
    <trkpt lat="56.344539" lon="60.949366">
        <ele>261.5</ele>
        <time>1970-01-01T13:37:51.313Z</time>
    </trkpt>
    <trkpt lat="56.344558" lon="60.949383">
        <ele>261.5</ele>
        <time>1970-01-01T13:37:52.313Z</time>
    </trkpt>
    <trkpt lat="56.344577" lon="60.949396">
        <ele>261.5</ele>
        <time>1970-01-01T13:37:53.313Z</time>
    </trkpt>
    <trkpt lat="56.344609" lon="60.949413">
        <ele>261.6</ele>
        <time>1970-01-01T13:37:54.313Z</time>
    </trkpt>
    <trkpt lat="56.344626" lon="60.94942">
        <ele>261.6</ele>
        <time>1970-01-01T13:37:55.313Z</time>
    </trkpt>
    <trkpt lat="56.344663" lon="60.94944">
        <ele>261.7</ele>
        <time>1970-01-01T13:37:56.313Z</time>
    </trkpt>
    <trkpt lat="56.34469" lon="60.949449">
        <ele>261.7</ele>
        <time>1970-01-01T13:37:57.313Z</time>
    </trkpt>
    <trkpt lat="56.344713" lon="60.949459">
        <ele>261.8</ele>
        <time>1970-01-01T13:37:58.313Z</time>
    </trkpt>
    <trkpt lat="56.344722" lon="60.949463">
        <ele>261.8</ele>
        <time>1970-01-01T13:37:59.313Z</time>
    </trkpt>
    <trkpt lat="56.344741" lon="60.949472">
        <ele>261.8</ele>
        <time>1970-01-01T13:38:00.313Z</time>
    </trkpt>
    <trkpt lat="56.344772" lon="60.949475">
        <ele>261.9</ele>
        <time>1970-01-01T13:38:01.313Z</time>
    </trkpt>
    <trkpt lat="56.344794" lon="60.949485">
        <ele>261.9</ele>
        <time>1970-01-01T13:38:02.313Z</time>
    </trkpt>
    <trkpt lat="56.34483" lon="60.949492">
        <ele>262.0</ele>
        <time>1970-01-01T13:38:03.313Z</time>
    </trkpt>
    <trkpt lat="56.344856" lon="60.94953">
        <ele>262.1</ele>
        <time>1970-01-01T13:38:04.313Z</time>
    </trkpt>
    <trkpt lat="56.344859" lon="60.94954">
        <ele>262.1</ele>
        <time>1970-01-01T13:38:05.313Z</time>
    </trkpt>
    <trkpt lat="56.344883" lon="60.949574">
        <ele>262.1</ele>
        <time>1970-01-01T13:38:06.313Z</time>
    </trkpt>
    <trkpt lat="56.344898" lon="60.949587">
        <ele>262.1</ele>
        <time>1970-01-01T13:38:07.313Z</time>
    </trkpt>
    <trkpt lat="56.344912" lon="60.949594">
        <ele>262.1</ele>
        <time>1970-01-01T13:38:08.313Z</time>
    </trkpt>
    <trkpt lat="56.34492" lon="60.949601">
        <ele>262.1</ele>
        <time>1970-01-01T13:38:09.313Z</time>
    </trkpt>
    <trkpt lat="56.344948" lon="60.949616">
        <ele>262.2</ele>
        <time>1970-01-01T13:38:10.313Z</time>
    </trkpt>
    <trkpt lat="56.344967" lon="60.949615">
        <ele>262.2</ele>
        <time>1970-01-01T13:38:11.313Z</time>
    </trkpt>
    <trkpt lat="56.344975" lon="60.949606">
        <ele>262.2</ele>
        <time>1970-01-01T13:38:12.313Z</time>
    </trkpt>
    <trkpt lat="56.344983" lon="60.949593">
        <ele>262.2</ele>
        <time>1970-01-01T13:38:13.313Z</time>
    </trkpt>
    <trkpt lat="56.34499" lon="60.949581">
        <ele>262.2</ele>
        <time>1970-01-01T13:38:14.313Z</time>
    </trkpt>
    <trkpt lat="56.345005" lon="60.949566">
        <ele>262.3</ele>
        <time>1970-01-01T13:38:15.313Z</time>
    </trkpt>
    <trkpt lat="56.345014" lon="60.949565">
        <ele>262.3</ele>
        <time>1970-01-01T13:38:16.313Z</time>
    </trkpt>
    <trkpt lat="56.345043" lon="60.949557">
        <ele>262.3</ele>
        <time>1970-01-01T13:38:17.313Z</time>
    </trkpt>
    <trkpt lat="56.345073" lon="60.949558">
        <ele>262.3</ele>
        <time>1970-01-01T13:38:18.313Z</time>
    </trkpt>
    <trkpt lat="56.345082" lon="60.949558">
        <ele>262.4</ele>
        <time>1970-01-01T13:38:19.313Z</time>
    </trkpt>
    <trkpt lat="56.345113" lon="60.949565">
        <ele>262.4</ele>
        <time>1970-01-01T13:38:20.313Z</time>
    </trkpt>
    <trkpt lat="56.34514" lon="60.949579">
        <ele>262.4</ele>
        <time>1970-01-01T13:38:21.313Z</time>
    </trkpt>
    <trkpt lat="56.345171" lon="60.94959">
        <ele>262.5</ele>
        <time>1970-01-01T13:38:22.313Z</time>
    </trkpt>
    <trkpt lat="56.345205" lon="60.949593">
        <ele>262.5</ele>
        <time>1970-01-01T13:38:23.313Z</time>
    </trkpt>
    <trkpt lat="56.345233" lon="60.949596">
        <ele>262.6</ele>
        <time>1970-01-01T13:38:24.313Z</time>
    </trkpt>
    <trkpt lat="56.345266" lon="60.949589">
        <ele>262.6</ele>
        <time>1970-01-01T13:38:25.313Z</time>
    </trkpt>
    <trkpt lat="56.345281" lon="60.949594">
        <ele>262.6</ele>
        <time>1970-01-01T13:38:26.313Z</time>
    </trkpt>
    <trkpt lat="56.345319" lon="60.949593">
        <ele>262.7</ele>
        <time>1970-01-01T13:38:27.313Z</time>
    </trkpt>
    <trkpt lat="56.34535" lon="60.949596">
        <ele>262.7</ele>
        <time>1970-01-01T13:38:28.313Z</time>
    </trkpt>
    <trkpt lat="56.345362" lon="60.949601">
        <ele>262.7</ele>
        <time>1970-01-01T13:38:29.313Z</time>
    </trkpt>
    <trkpt lat="56.345401" lon="60.94961">
        <ele>262.8</ele>
        <time>1970-01-01T13:38:30.313Z</time>
    </trkpt>
    <trkpt lat="56.345416" lon="60.949611">
        <ele>262.8</ele>
        <time>1970-01-01T13:38:31.313Z</time>
    </trkpt>
    <trkpt lat="56.345454" lon="60.949609">
        <ele>262.8</ele>
        <time>1970-01-01T13:38:32.313Z</time>
    </trkpt>
    <trkpt lat="56.345489" lon="60.949605">
        <ele>262.9</ele>
        <time>1970-01-01T13:38:33.313Z</time>
    </trkpt>
    <trkpt lat="56.345524" lon="60.949616">
        <ele>262.9</ele>
        <time>1970-01-01T13:38:34.313Z</time>
    </trkpt>
    <trkpt lat="56.345558" lon="60.94963">
        <ele>263.0</ele>
        <time>1970-01-01T13:38:35.313Z</time>
    </trkpt>
    <trkpt lat="56.345591" lon="60.949644">
        <ele>263.0</ele>
        <time>1970-01-01T13:38:36.313Z</time>
    </trkpt>
    <trkpt lat="56.345626" lon="60.949664">
        <ele>263.0</ele>
        <time>1970-01-01T13:38:37.313Z</time>
    </trkpt>
    <trkpt lat="56.345643" lon="60.949666">
        <ele>263.1</ele>
        <time>1970-01-01T13:38:38.313Z</time>
    </trkpt>
    <trkpt lat="56.345684" lon="60.949675">
        <ele>263.1</ele>
        <time>1970-01-01T13:38:39.313Z</time>
    </trkpt>
    <trkpt lat="56.345713" lon="60.949687">
        <ele>263.2</ele>
        <time>1970-01-01T13:38:40.313Z</time>
    </trkpt>
    <trkpt lat="56.345744" lon="60.949696">
        <ele>263.2</ele>
        <time>1970-01-01T13:38:41.313Z</time>
    </trkpt>
    <trkpt lat="56.345776" lon="60.949697">
        <ele>263.2</ele>
        <time>1970-01-01T13:38:42.313Z</time>
    </trkpt>
    <trkpt lat="56.345806" lon="60.949704">
        <ele>263.3</ele>
        <time>1970-01-01T13:38:43.313Z</time>
    </trkpt>
    <trkpt lat="56.345843" lon="60.949698">
        <ele>263.3</ele>
        <time>1970-01-01T13:38:44.313Z</time>
    </trkpt>
    <trkpt lat="56.345884" lon="60.949713">
        <ele>263.4</ele>
        <time>1970-01-01T13:38:45.313Z</time>
    </trkpt>
    <trkpt lat="56.34592" lon="60.94974">
        <ele>263.4</ele>
        <time>1970-01-01T13:38:46.313Z</time>
    </trkpt>
    <trkpt lat="56.34595" lon="60.949753">
        <ele>263.5</ele>
        <time>1970-01-01T13:38:47.313Z</time>
    </trkpt>
    <trkpt lat="56.345961" lon="60.949754">
        <ele>263.5</ele>
        <time>1970-01-01T13:38:48.313Z</time>
    </trkpt>
    <trkpt lat="56.345987" lon="60.949762">
        <ele>263.5</ele>
        <time>1970-01-01T13:38:49.313Z</time>
    </trkpt>
    <trkpt lat="56.346" lon="60.94977">
        <ele>263.5</ele>
        <time>1970-01-01T13:38:50.313Z</time>
    </trkpt>
    <trkpt lat="56.346035" lon="60.949784">
        <ele>263.6</ele>
        <time>1970-01-01T13:38:51.313Z</time>
    </trkpt>
    <trkpt lat="56.346047" lon="60.949794">
        <ele>263.6</ele>
        <time>1970-01-01T13:38:52.313Z</time>
    </trkpt>
    <trkpt lat="56.346082" lon="60.949814">
        <ele>263.6</ele>
        <time>1970-01-01T13:38:53.313Z</time>
    </trkpt>
    <trkpt lat="56.346094" lon="60.94982">
        <ele>263.6</ele>
        <time>1970-01-01T13:38:54.313Z</time>
    </trkpt>
    <trkpt lat="56.346124" lon="60.949841">
        <ele>263.7</ele>
        <time>1970-01-01T13:38:55.313Z</time>
    </trkpt>
    <trkpt lat="56.346137" lon="60.949848">
        <ele>263.7</ele>
        <time>1970-01-01T13:38:56.313Z</time>
    </trkpt>
    <trkpt lat="56.346167" lon="60.949858">
        <ele>263.7</ele>
        <time>1970-01-01T13:38:57.313Z</time>
    </trkpt>
    <trkpt lat="56.34618" lon="60.949868">
        <ele>263.8</ele>
        <time>1970-01-01T13:38:58.313Z</time>
    </trkpt>
    <trkpt lat="56.346209" lon="60.949881">
        <ele>263.8</ele>
        <time>1970-01-01T13:38:59.313Z</time>
    </trkpt>
    <trkpt lat="56.346235" lon="60.949875">
        <ele>263.8</ele>
        <time>1970-01-01T13:39:00.313Z</time>
    </trkpt>
    <trkpt lat="56.346242" lon="60.94988">
        <ele>263.8</ele>
        <time>1970-01-01T13:39:01.313Z</time>
    </trkpt>
    <trkpt lat="56.346251" lon="60.949882">
        <ele>263.8</ele>
        <time>1970-01-01T13:39:02.313Z</time>
    </trkpt>
    <trkpt lat="56.346285" lon="60.949891">
        <ele>263.9</ele>
        <time>1970-01-01T13:39:03.313Z</time>
    </trkpt>
    <trkpt lat="56.346297" lon="60.949891">
        <ele>263.9</ele>
        <time>1970-01-01T13:39:04.313Z</time>
    </trkpt>
    <trkpt lat="56.346332" lon="60.949908">
        <ele>263.9</ele>
        <time>1970-01-01T13:39:05.313Z</time>
    </trkpt>
    <trkpt lat="56.346342" lon="60.94991">
        <ele>264.0</ele>
        <time>1970-01-01T13:39:06.313Z</time>
    </trkpt>
    <trkpt lat="56.346368" lon="60.949923">
        <ele>264.0</ele>
        <time>1970-01-01T13:39:07.313Z</time>
    </trkpt>
    <trkpt lat="56.346383" lon="60.949924">
        <ele>264.0</ele>
        <time>1970-01-01T13:39:08.313Z</time>
    </trkpt>
    <trkpt lat="56.346425" lon="60.949922">
        <ele>264.1</ele>
        <time>1970-01-01T13:39:09.313Z</time>
    </trkpt>
    <trkpt lat="56.34646" lon="60.949936">
        <ele>264.1</ele>
        <time>1970-01-01T13:39:10.313Z</time>
    </trkpt>
    <trkpt lat="56.346489" lon="60.949931">
        <ele>264.1</ele>
        <time>1970-01-01T13:39:11.313Z</time>
    </trkpt>
    <trkpt lat="56.346516" lon="60.949927">
        <ele>264.2</ele>
        <time>1970-01-01T13:39:12.313Z</time>
    </trkpt>
    <trkpt lat="56.346547" lon="60.949948">
        <ele>264.2</ele>
        <time>1970-01-01T13:39:13.313Z</time>
    </trkpt>
    <trkpt lat="56.346578" lon="60.949967">
        <ele>264.3</ele>
        <time>1970-01-01T13:39:14.313Z</time>
    </trkpt>
    <trkpt lat="56.346608" lon="60.949986">
        <ele>264.3</ele>
        <time>1970-01-01T13:39:15.313Z</time>
    </trkpt>
    <trkpt lat="56.34664" lon="60.950004">
        <ele>264.3</ele>
        <time>1970-01-01T13:39:16.313Z</time>
    </trkpt>
    <trkpt lat="56.346653" lon="60.949998">
        <ele>264.4</ele>
        <time>1970-01-01T13:39:17.313Z</time>
    </trkpt>
    <trkpt lat="56.346691" lon="60.949988">
        <ele>264.4</ele>
        <time>1970-01-01T13:39:18.313Z</time>
    </trkpt>
    <trkpt lat="56.346727" lon="60.950006">
        <ele>264.4</ele>
        <time>1970-01-01T13:39:19.313Z</time>
    </trkpt>
    <trkpt lat="56.346761" lon="60.950019">
        <ele>264.5</ele>
        <time>1970-01-01T13:39:20.313Z</time>
    </trkpt>
    <trkpt lat="56.346795" lon="60.950028">
        <ele>264.5</ele>
        <time>1970-01-01T13:39:21.313Z</time>
    </trkpt>
    <trkpt lat="56.346826" lon="60.950034">
        <ele>264.6</ele>
        <time>1970-01-01T13:39:22.313Z</time>
    </trkpt>
    <trkpt lat="56.34686" lon="60.950039">
        <ele>264.6</ele>
        <time>1970-01-01T13:39:23.313Z</time>
    </trkpt>
    <trkpt lat="56.346875" lon="60.95004">
        <ele>264.6</ele>
        <time>1970-01-01T13:39:24.313Z</time>
    </trkpt>
    <trkpt lat="56.346916" lon="60.950042">
        <ele>264.7</ele>
        <time>1970-01-01T13:39:25.313Z</time>
    </trkpt>
    <trkpt lat="56.346952" lon="60.950053">
        <ele>264.7</ele>
        <time>1970-01-01T13:39:26.313Z</time>
    </trkpt>
    <trkpt lat="56.346966" lon="60.950053">
        <ele>264.7</ele>
        <time>1970-01-01T13:39:27.313Z</time>
    </trkpt>
    <trkpt lat="56.347005" lon="60.950049">
        <ele>264.8</ele>
        <time>1970-01-01T13:39:28.313Z</time>
    </trkpt>
    <trkpt lat="56.347018" lon="60.950057">
        <ele>264.8</ele>
        <time>1970-01-01T13:39:29.313Z</time>
    </trkpt>
    <trkpt lat="56.347057" lon="60.950072">
        <ele>264.9</ele>
        <time>1970-01-01T13:39:30.313Z</time>
    </trkpt>
    <trkpt lat="56.347088" lon="60.950079">
        <ele>264.9</ele>
        <time>1970-01-01T13:39:31.313Z</time>
    </trkpt>
    <trkpt lat="56.347104" lon="60.95008">
        <ele>264.9</ele>
        <time>1970-01-01T13:39:32.313Z</time>
    </trkpt>
    <trkpt lat="56.347142" lon="60.950092">
        <ele>265.0</ele>
        <time>1970-01-01T13:39:33.313Z</time>
    </trkpt>
    <trkpt lat="56.347173" lon="60.950101">
        <ele>265.0</ele>
        <time>1970-01-01T13:39:34.313Z</time>
    </trkpt>
    <trkpt lat="56.347215" lon="60.95012">
        <ele>265.1</ele>
        <time>1970-01-01T13:39:35.313Z</time>
    </trkpt>
    <trkpt lat="56.347245" lon="60.950132">
        <ele>265.1</ele>
        <time>1970-01-01T13:39:36.313Z</time>
    </trkpt>
    <trkpt lat="56.347272" lon="60.950147">
        <ele>265.1</ele>
        <time>1970-01-01T13:39:37.313Z</time>
    </trkpt>
    <trkpt lat="56.347311" lon="60.950159">
        <ele>265.2</ele>
        <time>1970-01-01T13:39:38.313Z</time>
    </trkpt>
    <trkpt lat="56.34733" lon="60.950157">
        <ele>265.2</ele>
        <time>1970-01-01T13:39:39.313Z</time>
    </trkpt>
    <trkpt lat="56.347364" lon="60.950167">
        <ele>265.3</ele>
        <time>1970-01-01T13:39:40.313Z</time>
    </trkpt>
    <trkpt lat="56.347378" lon="60.950172">
        <ele>265.3</ele>
        <time>1970-01-01T13:39:41.313Z</time>
    </trkpt>
    <trkpt lat="56.347405" lon="60.950177">
        <ele>265.3</ele>
        <time>1970-01-01T13:39:42.313Z</time>
    </trkpt>
    <trkpt lat="56.34742" lon="60.950182">
        <ele>265.3</ele>
        <time>1970-01-01T13:39:43.313Z</time>
    </trkpt>
    <trkpt lat="56.34745" lon="60.950202">
        <ele>265.4</ele>
        <time>1970-01-01T13:39:44.313Z</time>
    </trkpt>
    <trkpt lat="56.347465" lon="60.950205">
        <ele>265.4</ele>
        <time>1970-01-01T13:39:45.313Z</time>
    </trkpt>
    <trkpt lat="56.3475" lon="60.950213">
        <ele>265.4</ele>
        <time>1970-01-01T13:39:46.313Z</time>
    </trkpt>
    <trkpt lat="56.347527" lon="60.950217">
        <ele>265.5</ele>
        <time>1970-01-01T13:39:47.313Z</time>
    </trkpt>
    <trkpt lat="56.347545" lon="60.950225">
        <ele>265.5</ele>
        <time>1970-01-01T13:39:48.313Z</time>
    </trkpt>
    <trkpt lat="56.347552" lon="60.950257">
        <ele>265.5</ele>
        <time>1970-01-01T13:39:49.313Z</time>
    </trkpt>
    <trkpt lat="56.347563" lon="60.950258">
        <ele>265.5</ele>
        <time>1970-01-01T13:39:50.313Z</time>
    </trkpt>
    <trkpt lat="56.347588" lon="60.950256">
        <ele>265.5</ele>
        <time>1970-01-01T13:39:51.313Z</time>
    </trkpt>
    <trkpt lat="56.3476" lon="60.950265">
        <ele>265.6</ele>
        <time>1970-01-01T13:39:52.313Z</time>
    </trkpt>
    <trkpt lat="56.347625" lon="60.950277">
        <ele>265.6</ele>
        <time>1970-01-01T13:39:53.313Z</time>
    </trkpt>
    <trkpt lat="56.347638" lon="60.950284">
        <ele>265.6</ele>
        <time>1970-01-01T13:39:54.313Z</time>
    </trkpt>
    <trkpt lat="56.347669" lon="60.950303">
        <ele>265.7</ele>
        <time>1970-01-01T13:39:55.313Z</time>
    </trkpt>
    <trkpt lat="56.347678" lon="60.950306">
        <ele>265.7</ele>
        <time>1970-01-01T13:39:56.313Z</time>
    </trkpt>
    <trkpt lat="56.347702" lon="60.95033">
        <ele>265.7</ele>
        <time>1970-01-01T13:39:57.313Z</time>
    </trkpt>
    <trkpt lat="56.34772" lon="60.950337">
        <ele>265.7</ele>
        <time>1970-01-01T13:39:58.313Z</time>
    </trkpt>
    <trkpt lat="56.347736" lon="60.950339">
        <ele>265.7</ele>
        <time>1970-01-01T13:39:59.313Z</time>
    </trkpt>
    <trkpt lat="56.347763" lon="60.95035">
        <ele>265.8</ele>
        <time>1970-01-01T13:40:00.313Z</time>
    </trkpt>
    <trkpt lat="56.347774" lon="60.950356">
        <ele>265.8</ele>
        <time>1970-01-01T13:40:01.313Z</time>
    </trkpt>
    <trkpt lat="56.347798" lon="60.950384">
        <ele>265.8</ele>
        <time>1970-01-01T13:40:02.313Z</time>
    </trkpt>
    <trkpt lat="56.347811" lon="60.950401">
        <ele>265.8</ele>
        <time>1970-01-01T13:40:03.313Z</time>
    </trkpt>
    <trkpt lat="56.347839" lon="60.950441">
        <ele>265.9</ele>
        <time>1970-01-01T13:40:04.313Z</time>
    </trkpt>
    <trkpt lat="56.347865" lon="60.950471">
        <ele>265.9</ele>
        <time>1970-01-01T13:40:05.313Z</time>
    </trkpt>
    <trkpt lat="56.347874" lon="60.950481">
        <ele>265.9</ele>
        <time>1970-01-01T13:40:06.313Z</time>
    </trkpt>
    <trkpt lat="56.347899" lon="60.950518">
        <ele>266.0</ele>
        <time>1970-01-01T13:40:07.313Z</time>
    </trkpt>
    <trkpt lat="56.347915" lon="60.950539">
        <ele>266.0</ele>
        <time>1970-01-01T13:40:08.313Z</time>
    </trkpt>
    <trkpt lat="56.347945" lon="60.950586">
        <ele>266.1</ele>
        <time>1970-01-01T13:40:09.313Z</time>
    </trkpt>
    <trkpt lat="56.347958" lon="60.950592">
        <ele>266.1</ele>
        <time>1970-01-01T13:40:10.313Z</time>
    </trkpt>
    <trkpt lat="56.347987" lon="60.95061">
        <ele>266.1</ele>
        <time>1970-01-01T13:40:11.313Z</time>
    </trkpt>
    <trkpt lat="56.347996" lon="60.950613">
        <ele>266.1</ele>
        <time>1970-01-01T13:40:12.313Z</time>
    </trkpt>
    <trkpt lat="56.348025" lon="60.950638">
        <ele>266.2</ele>
        <time>1970-01-01T13:40:13.313Z</time>
    </trkpt>
    <trkpt lat="56.348034" lon="60.950653">
        <ele>266.2</ele>
        <time>1970-01-01T13:40:14.313Z</time>
    </trkpt>
    <trkpt lat="56.348059" lon="60.950673">
        <ele>266.2</ele>
        <time>1970-01-01T13:40:15.313Z</time>
    </trkpt>
    <trkpt lat="56.348071" lon="60.950679">
        <ele>266.2</ele>
        <time>1970-01-01T13:40:16.313Z</time>
    </trkpt>
    <trkpt lat="56.348098" lon="60.950685">
        <ele>266.3</ele>
        <time>1970-01-01T13:40:17.313Z</time>
    </trkpt>
    <trkpt lat="56.348107" lon="60.950684">
        <ele>266.3</ele>
        <time>1970-01-01T13:40:18.313Z</time>
    </trkpt>
    <trkpt lat="56.348133" lon="60.950711">
        <ele>266.3</ele>
        <time>1970-01-01T13:40:19.313Z</time>
    </trkpt>
    <trkpt lat="56.348146" lon="60.950728">
        <ele>266.3</ele>
        <time>1970-01-01T13:40:20.313Z</time>
    </trkpt>
    <trkpt lat="56.348175" lon="60.950753">
        <ele>266.4</ele>
        <time>1970-01-01T13:40:21.313Z</time>
    </trkpt>
    <trkpt lat="56.348184" lon="60.950763">
        <ele>266.4</ele>
        <time>1970-01-01T13:40:22.313Z</time>
    </trkpt>
    <trkpt lat="56.348209" lon="60.950786">
        <ele>266.4</ele>
        <time>1970-01-01T13:40:23.313Z</time>
    </trkpt>
    <trkpt lat="56.348217" lon="60.950791">
        <ele>266.4</ele>
        <time>1970-01-01T13:40:24.313Z</time>
    </trkpt>
    <trkpt lat="56.348244" lon="60.950804">
        <ele>266.5</ele>
        <time>1970-01-01T13:40:25.313Z</time>
    </trkpt>
    <trkpt lat="56.348252" lon="60.950813">
        <ele>266.5</ele>
        <time>1970-01-01T13:40:26.313Z</time>
    </trkpt>
    <trkpt lat="56.348286" lon="60.950834">
        <ele>266.5</ele>
        <time>1970-01-01T13:40:27.313Z</time>
    </trkpt>
    <trkpt lat="56.3483" lon="60.950845">
        <ele>266.5</ele>
        <time>1970-01-01T13:40:28.313Z</time>
    </trkpt>
    <trkpt lat="56.348334" lon="60.950856">
        <ele>266.6</ele>
        <time>1970-01-01T13:40:29.313Z</time>
    </trkpt>
    <trkpt lat="56.348351" lon="60.950849">
        <ele>266.6</ele>
        <time>1970-01-01T13:40:30.313Z</time>
    </trkpt>
    <trkpt lat="56.34836" lon="60.950826">
        <ele>266.6</ele>
        <time>1970-01-01T13:40:31.313Z</time>
    </trkpt>
    <trkpt lat="56.348373" lon="60.950822">
        <ele>266.6</ele>
        <time>1970-01-01T13:40:32.313Z</time>
    </trkpt>
    <trkpt lat="56.348401" lon="60.950838">
        <ele>266.7</ele>
        <time>1970-01-01T13:40:33.313Z</time>
    </trkpt>
    <trkpt lat="56.348405" lon="60.950844">
        <ele>266.7</ele>
        <time>1970-01-01T13:40:34.313Z</time>
    </trkpt>
    <trkpt lat="56.348409" lon="60.950851">
        <ele>266.7</ele>
        <time>1970-01-01T13:40:35.313Z</time>
    </trkpt>
    <trkpt lat="56.348413" lon="60.950858">
        <ele>266.7</ele>
        <time>1970-01-01T13:40:36.313Z</time>
    </trkpt>
    <trkpt lat="56.348417" lon="60.950864">
        <ele>266.7</ele>
        <time>1970-01-01T13:40:37.313Z</time>
    </trkpt>
    <trkpt lat="56.348421" lon="60.950871">
        <ele>266.7</ele>
        <time>1970-01-01T13:40:38.313Z</time>
    </trkpt>
    <trkpt lat="56.348425" lon="60.950878">
        <ele>266.7</ele>
        <time>1970-01-01T13:40:39.313Z</time>
    </trkpt>
    <trkpt lat="56.348429" lon="60.950884">
        <ele>266.7</ele>
        <time>1970-01-01T13:40:40.313Z</time>
    </trkpt>
    <trkpt lat="56.348433" lon="60.950891">
        <ele>266.7</ele>
        <time>1970-01-01T13:40:41.313Z</time>
    </trkpt>
    <trkpt lat="56.348437" lon="60.950898">
        <ele>266.7</ele>
        <time>1970-01-01T13:40:42.313Z</time>
    </trkpt>
    <trkpt lat="56.348441" lon="60.950904">
        <ele>266.7</ele>
        <time>1970-01-01T13:40:43.313Z</time>
    </trkpt>
    <trkpt lat="56.348445" lon="60.950911">
        <ele>266.7</ele>
        <time>1970-01-01T13:40:44.313Z</time>
    </trkpt>
    <trkpt lat="56.348449" lon="60.950918">
        <ele>266.8</ele>
        <time>1970-01-01T13:40:45.313Z</time>
    </trkpt>
    <trkpt lat="56.348453" lon="60.950924">
        <ele>266.8</ele>
        <time>1970-01-01T13:40:46.313Z</time>
    </trkpt>
    <trkpt lat="56.348457" lon="60.950931">
        <ele>266.8</ele>
        <time>1970-01-01T13:40:47.313Z</time>
    </trkpt>
    <trkpt lat="56.348461" lon="60.950937">
        <ele>266.8</ele>
        <time>1970-01-01T13:40:48.313Z</time>
    </trkpt>
    <trkpt lat="56.348465" lon="60.950944">
        <ele>266.8</ele>
        <time>1970-01-01T13:40:49.313Z</time>
    </trkpt>
    <trkpt lat="56.348469" lon="60.950951">
        <ele>266.8</ele>
        <time>1970-01-01T13:40:50.313Z</time>
    </trkpt>
    <trkpt lat="56.348473" lon="60.950957">
        <ele>266.8</ele>
        <time>1970-01-01T13:40:51.313Z</time>
    </trkpt>
    <trkpt lat="56.348477" lon="60.950964">
        <ele>266.8</ele>
        <time>1970-01-01T13:40:52.313Z</time>
    </trkpt>
    <trkpt lat="56.348481" lon="60.950971">
        <ele>266.8</ele>
        <time>1970-01-01T13:40:53.313Z</time>
    </trkpt>
    <trkpt lat="56.348485" lon="60.950977">
        <ele>266.8</ele>
        <time>1970-01-01T13:40:54.313Z</time>
    </trkpt>
    <trkpt lat="56.348489" lon="60.950984">
        <ele>266.8</ele>
        <time>1970-01-01T13:40:55.313Z</time>
    </trkpt>
    <trkpt lat="56.348493" lon="60.950991">
        <ele>266.8</ele>
        <time>1970-01-01T13:40:56.313Z</time>
    </trkpt>
    <trkpt lat="56.348497" lon="60.950997">
        <ele>266.8</ele>
        <time>1970-01-01T13:40:57.313Z</time>
    </trkpt>
    <trkpt lat="56.348501" lon="60.951004">
        <ele>266.8</ele>
        <time>1970-01-01T13:40:58.313Z</time>
    </trkpt>
    <trkpt lat="56.348505" lon="60.951011">
        <ele>266.8</ele>
        <time>1970-01-01T13:40:59.313Z</time>
    </trkpt>
    <trkpt lat="56.348509" lon="60.951017">
        <ele>266.9</ele>
        <time>1970-01-01T13:41:00.313Z</time>
    </trkpt>
    <trkpt lat="56.348513" lon="60.951024">
        <ele>266.9</ele>
        <time>1970-01-01T13:41:01.313Z</time>
    </trkpt>
    <trkpt lat="56.348517" lon="60.951031">
        <ele>266.9</ele>
        <time>1970-01-01T13:41:02.313Z</time>
    </trkpt>
    <trkpt lat="56.348521" lon="60.951037">
        <ele>266.9</ele>
        <time>1970-01-01T13:41:03.313Z</time>
    </trkpt>
    <trkpt lat="56.348525" lon="60.951044">
        <ele>266.9</ele>
        <time>1970-01-01T13:41:04.313Z</time>
    </trkpt>
    <trkpt lat="56.348529" lon="60.95105">
        <ele>266.9</ele>
        <time>1970-01-01T13:41:05.313Z</time>
    </trkpt>
    <trkpt lat="56.348533" lon="60.951057">
        <ele>266.9</ele>
        <time>1970-01-01T13:41:06.313Z</time>
    </trkpt>
    <trkpt lat="56.348537" lon="60.951064">
        <ele>266.9</ele>
        <time>1970-01-01T13:41:07.313Z</time>
    </trkpt>
    <trkpt lat="56.348541" lon="60.95107">
        <ele>266.9</ele>
        <time>1970-01-01T13:41:08.313Z</time>
    </trkpt>
    <trkpt lat="56.348549" lon="60.951095">
        <ele>266.9</ele>
        <time>1970-01-01T13:41:09.313Z</time>
    </trkpt>
    <trkpt lat="56.348548" lon="60.951114">
        <ele>266.9</ele>
        <time>1970-01-01T13:41:10.313Z</time>
    </trkpt>
    <trkpt lat="56.34855" lon="60.951136">
        <ele>267.0</ele>
        <time>1970-01-01T13:41:11.313Z</time>
    </trkpt>
    <trkpt lat="56.34855" lon="60.951154">
        <ele>267.0</ele>
        <time>1970-01-01T13:41:12.313Z</time>
    </trkpt>
    <trkpt lat="56.348548" lon="60.951174">
        <ele>267.0</ele>
        <time>1970-01-01T13:41:13.313Z</time>
    </trkpt>
    <trkpt lat="56.348545" lon="60.951216">
        <ele>267.0</ele>
        <time>1970-01-01T13:41:14.313Z</time>
    </trkpt>
    <trkpt lat="56.348543" lon="60.951232">
        <ele>267.0</ele>
        <time>1970-01-01T13:41:15.313Z</time>
    </trkpt>
    <trkpt lat="56.348533" lon="60.951286">
        <ele>267.1</ele>
        <time>1970-01-01T13:41:16.313Z</time>
    </trkpt>
    <trkpt lat="56.348547" lon="60.951329">
        <ele>267.1</ele>
        <time>1970-01-01T13:41:17.313Z</time>
    </trkpt>
    <trkpt lat="56.348556" lon="60.951381">
        <ele>267.1</ele>
        <time>1970-01-01T13:41:18.313Z</time>
    </trkpt>
    <trkpt lat="56.348573" lon="60.951423">
        <ele>267.2</ele>
        <time>1970-01-01T13:41:19.313Z</time>
    </trkpt>
    <trkpt lat="56.348576" lon="60.95144">
        <ele>267.2</ele>
        <time>1970-01-01T13:41:20.313Z</time>
    </trkpt>
    <trkpt lat="56.34858" lon="60.951457">
        <ele>267.2</ele>
        <time>1970-01-01T13:41:21.313Z</time>
    </trkpt>
    <trkpt lat="56.348594" lon="60.951484">
        <ele>267.2</ele>
        <time>1970-01-01T13:41:22.313Z</time>
    </trkpt>
    <trkpt lat="56.348608" lon="60.95151">
        <ele>267.2</ele>
        <time>1970-01-01T13:41:23.313Z</time>
    </trkpt>
    <trkpt lat="56.348619" lon="60.951526">
        <ele>267.3</ele>
        <time>1970-01-01T13:41:24.313Z</time>
    </trkpt>
    <trkpt lat="56.348632" lon="60.951541">
        <ele>267.3</ele>
        <time>1970-01-01T13:41:25.313Z</time>
    </trkpt>
    <trkpt lat="56.348658" lon="60.951575">
        <ele>267.3</ele>
        <time>1970-01-01T13:41:26.313Z</time>
    </trkpt>
    <trkpt lat="56.348684" lon="60.951603">
        <ele>267.4</ele>
        <time>1970-01-01T13:41:27.313Z</time>
    </trkpt>
    <trkpt lat="56.348692" lon="60.951625">
        <ele>267.4</ele>
        <time>1970-01-01T13:41:28.313Z</time>
    </trkpt>
    <trkpt lat="56.348716" lon="60.951682">
        <ele>267.4</ele>
        <time>1970-01-01T13:41:29.313Z</time>
    </trkpt>
    <trkpt lat="56.348733" lon="60.951722">
        <ele>267.5</ele>
        <time>1970-01-01T13:41:30.313Z</time>
    </trkpt>
    <trkpt lat="56.348743" lon="60.951736">
        <ele>267.5</ele>
        <time>1970-01-01T13:41:31.313Z</time>
    </trkpt>
    <trkpt lat="56.348773" lon="60.951771">
        <ele>267.5</ele>
        <time>1970-01-01T13:41:32.313Z</time>
    </trkpt>
    <trkpt lat="56.348806" lon="60.951787">
        <ele>267.6</ele>
        <time>1970-01-01T13:41:33.313Z</time>
    </trkpt>
    <trkpt lat="56.348818" lon="60.951796">
        <ele>267.6</ele>
        <time>1970-01-01T13:41:34.313Z</time>
    </trkpt>
    <trkpt lat="56.348829" lon="60.951806">
        <ele>267.6</ele>
        <time>1970-01-01T13:41:35.313Z</time>
    </trkpt>
    <trkpt lat="56.348847" lon="60.951822">
        <ele>267.6</ele>
        <time>1970-01-01T13:41:36.313Z</time>
    </trkpt>
    <trkpt lat="56.348874" lon="60.951858">
        <ele>267.7</ele>
        <time>1970-01-01T13:41:37.313Z</time>
    </trkpt>
    <trkpt lat="56.348882" lon="60.951863">
        <ele>267.7</ele>
        <time>1970-01-01T13:41:38.313Z</time>
    </trkpt>
    <trkpt lat="56.348912" lon="60.951895">
        <ele>267.7</ele>
        <time>1970-01-01T13:41:39.313Z</time>
    </trkpt>
    <trkpt lat="56.348921" lon="60.951917">
        <ele>267.7</ele>
        <time>1970-01-01T13:41:40.313Z</time>
    </trkpt>
    <trkpt lat="56.348948" lon="60.951965">
        <ele>267.8</ele>
        <time>1970-01-01T13:41:41.313Z</time>
    </trkpt>
    <trkpt lat="56.348965" lon="60.95201">
        <ele>267.8</ele>
        <time>1970-01-01T13:41:42.313Z</time>
    </trkpt>
    <trkpt lat="56.348973" lon="60.952033">
        <ele>267.8</ele>
        <time>1970-01-01T13:41:43.313Z</time>
    </trkpt>
    <trkpt lat="56.34898" lon="60.952092">
        <ele>267.9</ele>
        <time>1970-01-01T13:41:44.313Z</time>
    </trkpt>
    <trkpt lat="56.34899" lon="60.952137">
        <ele>267.9</ele>
        <time>1970-01-01T13:41:45.313Z</time>
    </trkpt>
    <trkpt lat="56.349007" lon="60.952184">
        <ele>268.0</ele>
        <time>1970-01-01T13:41:46.313Z</time>
    </trkpt>
    <trkpt lat="56.349014" lon="60.952203">
        <ele>268.0</ele>
        <time>1970-01-01T13:41:47.313Z</time>
    </trkpt>
    <trkpt lat="56.34904" lon="60.952254">
        <ele>268.0</ele>
        <time>1970-01-01T13:41:48.313Z</time>
    </trkpt>
    <trkpt lat="56.349047" lon="60.952269">
        <ele>268.0</ele>
        <time>1970-01-01T13:41:49.313Z</time>
    </trkpt>
    <trkpt lat="56.349065" lon="60.952302">
        <ele>268.1</ele>
        <time>1970-01-01T13:41:50.313Z</time>
    </trkpt>
    <trkpt lat="56.349078" lon="60.952307">
        <ele>268.1</ele>
        <time>1970-01-01T13:41:51.313Z</time>
    </trkpt>
    <trkpt lat="56.349102" lon="60.952312">
        <ele>268.1</ele>
        <time>1970-01-01T13:41:52.313Z</time>
    </trkpt>
    <trkpt lat="56.349127" lon="60.952331">
        <ele>268.1</ele>
        <time>1970-01-01T13:41:53.313Z</time>
    </trkpt>
    <trkpt lat="56.349142" lon="60.952347">
        <ele>268.2</ele>
        <time>1970-01-01T13:41:54.313Z</time>
    </trkpt>
    <trkpt lat="56.349148" lon="60.952363">
        <ele>268.2</ele>
        <time>1970-01-01T13:41:55.313Z</time>
    </trkpt>
    <trkpt lat="56.349159" lon="60.952379">
        <ele>268.2</ele>
        <time>1970-01-01T13:41:56.313Z</time>
    </trkpt>
    <trkpt lat="56.349185" lon="60.952424">
        <ele>268.2</ele>
        <time>1970-01-01T13:41:57.313Z</time>
    </trkpt>
    <trkpt lat="56.349195" lon="60.952447">
        <ele>268.3</ele>
        <time>1970-01-01T13:41:58.313Z</time>
    </trkpt>
    <trkpt lat="56.349217" lon="60.952471">
        <ele>268.3</ele>
        <time>1970-01-01T13:41:59.313Z</time>
    </trkpt>
    <trkpt lat="56.349231" lon="60.952479">
        <ele>268.3</ele>
        <time>1970-01-01T13:42:00.313Z</time>
    </trkpt>
    <trkpt lat="56.349257" lon="60.952502">
        <ele>268.3</ele>
        <time>1970-01-01T13:42:01.313Z</time>
    </trkpt>
    <trkpt lat="56.34927" lon="60.952513">
        <ele>268.4</ele>
        <time>1970-01-01T13:42:02.313Z</time>
    </trkpt>
    <trkpt lat="56.349283" lon="60.952525">
        <ele>268.4</ele>
        <time>1970-01-01T13:42:03.313Z</time>
    </trkpt>
    <trkpt lat="56.349302" lon="60.952533">
        <ele>268.4</ele>
        <time>1970-01-01T13:42:04.313Z</time>
    </trkpt>
    <trkpt lat="56.349331" lon="60.952585">
        <ele>268.5</ele>
        <time>1970-01-01T13:42:05.313Z</time>
    </trkpt>
    <trkpt lat="56.349341" lon="60.952603">
        <ele>268.5</ele>
        <time>1970-01-01T13:42:06.313Z</time>
    </trkpt>
    <trkpt lat="56.349352" lon="60.952615">
        <ele>268.5</ele>
        <time>1970-01-01T13:42:07.313Z</time>
    </trkpt>
    <trkpt lat="56.349358" lon="60.952624">
        <ele>268.5</ele>
        <time>1970-01-01T13:42:08.313Z</time>
    </trkpt>
    <trkpt lat="56.349378" lon="60.952644">
        <ele>268.5</ele>
        <time>1970-01-01T13:42:09.313Z</time>
    </trkpt>
    <trkpt lat="56.349388" lon="60.952652">
        <ele>268.5</ele>
        <time>1970-01-01T13:42:10.313Z</time>
    </trkpt>
    <trkpt lat="56.349414" lon="60.952692">
        <ele>268.6</ele>
        <time>1970-01-01T13:42:11.313Z</time>
    </trkpt>
    <trkpt lat="56.349422" lon="60.952701">
        <ele>268.6</ele>
        <time>1970-01-01T13:42:12.313Z</time>
    </trkpt>
    <trkpt lat="56.349456" lon="60.952723">
        <ele>268.6</ele>
        <time>1970-01-01T13:42:13.313Z</time>
    </trkpt>
    <trkpt lat="56.349472" lon="60.952736">
        <ele>268.7</ele>
        <time>1970-01-01T13:42:14.313Z</time>
    </trkpt>
    <trkpt lat="56.34951" lon="60.952772">
        <ele>268.7</ele>
        <time>1970-01-01T13:42:15.313Z</time>
    </trkpt>
    <trkpt lat="56.349519" lon="60.952781">
        <ele>268.7</ele>
        <time>1970-01-01T13:42:16.313Z</time>
    </trkpt>
    <trkpt lat="56.349542" lon="60.952803">
        <ele>268.8</ele>
        <time>1970-01-01T13:42:17.313Z</time>
    </trkpt>
    <trkpt lat="56.349553" lon="60.952806">
        <ele>268.8</ele>
        <time>1970-01-01T13:42:18.313Z</time>
    </trkpt>
    <trkpt lat="56.349569" lon="60.952837">
        <ele>268.8</ele>
        <time>1970-01-01T13:42:19.313Z</time>
    </trkpt>
    <trkpt lat="56.349575" lon="60.952847">
        <ele>268.8</ele>
        <time>1970-01-01T13:42:20.313Z</time>
    </trkpt>
    <trkpt lat="56.349581" lon="60.952857">
        <ele>268.8</ele>
        <time>1970-01-01T13:42:21.313Z</time>
    </trkpt>
    <trkpt lat="56.349587" lon="60.952868">
        <ele>268.8</ele>
        <time>1970-01-01T13:42:22.313Z</time>
    </trkpt>
    <trkpt lat="56.349594" lon="60.952878">
        <ele>268.8</ele>
        <time>1970-01-01T13:42:23.313Z</time>
    </trkpt>
    <trkpt lat="56.3496" lon="60.952888">
        <ele>268.9</ele>
        <time>1970-01-01T13:42:24.313Z</time>
    </trkpt>
    <trkpt lat="56.349606" lon="60.952899">
        <ele>268.9</ele>
        <time>1970-01-01T13:42:25.313Z</time>
    </trkpt>
    <trkpt lat="56.349599" lon="60.952903">
        <ele>268.9</ele>
        <time>1970-01-01T13:42:26.313Z</time>
    </trkpt>
    <trkpt lat="56.349605" lon="60.952906">
        <ele>268.9</ele>
        <time>1970-01-01T13:42:27.313Z</time>
    </trkpt>
    <trkpt lat="56.349615" lon="60.952902">
        <ele>268.9</ele>
        <time>1970-01-01T13:42:28.313Z</time>
    </trkpt>
    <trkpt lat="56.349626" lon="60.952901">
        <ele>268.9</ele>
        <time>1970-01-01T13:42:29.313Z</time>
    </trkpt>
    <trkpt lat="56.349635" lon="60.952902">
        <ele>268.9</ele>
        <time>1970-01-01T13:42:30.313Z</time>
    </trkpt>
    <trkpt lat="56.349665" lon="60.95291">
        <ele>269.0</ele>
        <time>1970-01-01T13:42:31.313Z</time>
    </trkpt>
    <trkpt lat="56.349674" lon="60.952917">
        <ele>269.0</ele>
        <time>1970-01-01T13:42:32.313Z</time>
    </trkpt>
    <trkpt lat="56.349704" lon="60.952944">
        <ele>269.0</ele>
        <time>1970-01-01T13:42:33.313Z</time>
    </trkpt>
    <trkpt lat="56.349714" lon="60.95295">
        <ele>269.0</ele>
        <time>1970-01-01T13:42:34.313Z</time>
    </trkpt>
    <trkpt lat="56.349739" lon="60.952969">
        <ele>269.1</ele>
        <time>1970-01-01T13:42:35.313Z</time>
    </trkpt>
    <trkpt lat="56.349751" lon="60.952986">
        <ele>269.1</ele>
        <time>1970-01-01T13:42:36.313Z</time>
    </trkpt>
    <trkpt lat="56.349772" lon="60.952998">
        <ele>269.1</ele>
        <time>1970-01-01T13:42:37.313Z</time>
    </trkpt>
    <trkpt lat="56.349788" lon="60.953005">
        <ele>269.1</ele>
        <time>1970-01-01T13:42:38.313Z</time>
    </trkpt>
    <trkpt lat="56.349802" lon="60.953026">
        <ele>269.1</ele>
        <time>1970-01-01T13:42:39.313Z</time>
    </trkpt>
    <trkpt lat="56.349822" lon="60.953044">
        <ele>269.2</ele>
        <time>1970-01-01T13:42:40.313Z</time>
    </trkpt>
    <trkpt lat="56.349829" lon="60.953057">
        <ele>269.2</ele>
        <time>1970-01-01T13:42:41.313Z</time>
    </trkpt>
    <trkpt lat="56.349842" lon="60.95307">
        <ele>269.2</ele>
        <time>1970-01-01T13:42:42.313Z</time>
    </trkpt>
    <trkpt lat="56.349869" lon="60.953101">
        <ele>269.2</ele>
        <time>1970-01-01T13:42:43.313Z</time>
    </trkpt>
    <trkpt lat="56.349875" lon="60.953112">
        <ele>269.3</ele>
        <time>1970-01-01T13:42:44.313Z</time>
    </trkpt>
    <trkpt lat="56.349892" lon="60.953156">
        <ele>269.3</ele>
        <time>1970-01-01T13:42:45.313Z</time>
    </trkpt>
    <trkpt lat="56.3499" lon="60.953175">
        <ele>269.3</ele>
        <time>1970-01-01T13:42:46.313Z</time>
    </trkpt>
    <trkpt lat="56.349915" lon="60.953203">
        <ele>269.3</ele>
        <time>1970-01-01T13:42:47.313Z</time>
    </trkpt>
    <trkpt lat="56.349946" lon="60.953222">
        <ele>269.4</ele>
        <time>1970-01-01T13:42:48.313Z</time>
    </trkpt>
    <trkpt lat="56.349959" lon="60.953233">
        <ele>269.4</ele>
        <time>1970-01-01T13:42:49.313Z</time>
    </trkpt>
    <trkpt lat="56.34998" lon="60.953253">
        <ele>269.4</ele>
        <time>1970-01-01T13:42:50.313Z</time>
    </trkpt>
    <trkpt lat="56.349989" lon="60.953261">
        <ele>269.4</ele>
        <time>1970-01-01T13:42:51.313Z</time>
    </trkpt>
    <trkpt lat="56.350015" lon="60.953283">
        <ele>269.5</ele>
        <time>1970-01-01T13:42:52.313Z</time>
    </trkpt>
    <trkpt lat="56.35002" lon="60.953301">
        <ele>269.5</ele>
        <time>1970-01-01T13:42:53.313Z</time>
    </trkpt>
    <trkpt lat="56.350028" lon="60.953351">
        <ele>269.5</ele>
        <time>1970-01-01T13:42:54.313Z</time>
    </trkpt>
    <trkpt lat="56.350039" lon="60.953373">
        <ele>269.5</ele>
        <time>1970-01-01T13:42:55.313Z</time>
    </trkpt>
    <trkpt lat="56.350058" lon="60.953406">
        <ele>269.6</ele>
        <time>1970-01-01T13:42:56.313Z</time>
    </trkpt>
    <trkpt lat="56.350084" lon="60.953425">
        <ele>269.6</ele>
        <time>1970-01-01T13:42:57.313Z</time>
    </trkpt>
    <trkpt lat="56.350089" lon="60.953437">
        <ele>269.6</ele>
        <time>1970-01-01T13:42:58.313Z</time>
    </trkpt>
    <trkpt lat="56.350099" lon="60.953448">
        <ele>269.6</ele>
        <time>1970-01-01T13:42:59.313Z</time>
    </trkpt>
    <trkpt lat="56.350127" lon="60.953481">
        <ele>269.7</ele>
        <time>1970-01-01T13:43:00.313Z</time>
    </trkpt>
    <trkpt lat="56.350142" lon="60.953482">
        <ele>269.7</ele>
        <time>1970-01-01T13:43:01.313Z</time>
    </trkpt>
    <trkpt lat="56.350161" lon="60.953503">
        <ele>269.7</ele>
        <time>1970-01-01T13:43:02.313Z</time>
    </trkpt>
    <trkpt lat="56.350171" lon="60.953512">
        <ele>269.7</ele>
        <time>1970-01-01T13:43:03.313Z</time>
    </trkpt>
    <trkpt lat="56.350195" lon="60.953538">
        <ele>269.8</ele>
        <time>1970-01-01T13:43:04.313Z</time>
    </trkpt>
    <trkpt lat="56.350214" lon="60.953563">
        <ele>269.8</ele>
        <time>1970-01-01T13:43:05.313Z</time>
    </trkpt>
    <trkpt lat="56.35022" lon="60.953573">
        <ele>269.8</ele>
        <time>1970-01-01T13:43:06.313Z</time>
    </trkpt>
    <trkpt lat="56.350238" lon="60.953613">
        <ele>269.8</ele>
        <time>1970-01-01T13:43:07.313Z</time>
    </trkpt>
    <trkpt lat="56.350246" lon="60.95363">
        <ele>269.9</ele>
        <time>1970-01-01T13:43:08.313Z</time>
    </trkpt>
    <trkpt lat="56.350266" lon="60.953667">
        <ele>269.9</ele>
        <time>1970-01-01T13:43:09.313Z</time>
    </trkpt>
    <trkpt lat="56.35027" lon="60.953678">
        <ele>269.9</ele>
        <time>1970-01-01T13:43:10.313Z</time>
    </trkpt>
    <trkpt lat="56.35029" lon="60.953719">
        <ele>269.9</ele>
        <time>1970-01-01T13:43:11.313Z</time>
    </trkpt>
    <trkpt lat="56.350297" lon="60.953736">
        <ele>270.0</ele>
        <time>1970-01-01T13:43:12.313Z</time>
    </trkpt>
    <trkpt lat="56.350314" lon="60.953746">
        <ele>270.0</ele>
        <time>1970-01-01T13:43:13.313Z</time>
    </trkpt>
    <trkpt lat="56.350321" lon="60.95376">
        <ele>270.0</ele>
        <time>1970-01-01T13:43:14.313Z</time>
    </trkpt>
    <trkpt lat="56.350342" lon="60.953784">
        <ele>270.0</ele>
        <time>1970-01-01T13:43:15.313Z</time>
    </trkpt>
    <trkpt lat="56.350351" lon="60.953792">
        <ele>270.0</ele>
        <time>1970-01-01T13:43:16.313Z</time>
    </trkpt>
    <trkpt lat="56.350372" lon="60.95382">
        <ele>270.1</ele>
        <time>1970-01-01T13:43:17.313Z</time>
    </trkpt>
    <trkpt lat="56.350376" lon="60.953832">
        <ele>270.1</ele>
        <time>1970-01-01T13:43:18.313Z</time>
    </trkpt>
    <trkpt lat="56.350398" lon="60.953861">
        <ele>270.1</ele>
        <time>1970-01-01T13:43:19.313Z</time>
    </trkpt>
    <trkpt lat="56.350412" lon="60.953879">
        <ele>270.1</ele>
        <time>1970-01-01T13:43:20.313Z</time>
    </trkpt>
    <trkpt lat="56.350422" lon="60.953898">
        <ele>270.1</ele>
        <time>1970-01-01T13:43:21.313Z</time>
    </trkpt>
    <trkpt lat="56.350447" lon="60.953921">
        <ele>270.2</ele>
        <time>1970-01-01T13:43:22.313Z</time>
    </trkpt>
    <trkpt lat="56.350458" lon="60.95394">
        <ele>270.2</ele>
        <time>1970-01-01T13:43:23.313Z</time>
    </trkpt>
    <trkpt lat="56.350472" lon="60.953956">
        <ele>270.2</ele>
        <time>1970-01-01T13:43:24.313Z</time>
    </trkpt>
    <trkpt lat="56.35048" lon="60.953968">
        <ele>270.2</ele>
        <time>1970-01-01T13:43:25.313Z</time>
    </trkpt>
    <trkpt lat="56.3505" lon="60.954008">
        <ele>270.3</ele>
        <time>1970-01-01T13:43:26.313Z</time>
    </trkpt>
    <trkpt lat="56.350513" lon="60.954024">
        <ele>270.3</ele>
        <time>1970-01-01T13:43:27.313Z</time>
    </trkpt>
    <trkpt lat="56.350521" lon="60.954052">
        <ele>270.3</ele>
        <time>1970-01-01T13:43:28.313Z</time>
    </trkpt>
    <trkpt lat="56.35054" lon="60.954104">
        <ele>270.4</ele>
        <time>1970-01-01T13:43:29.313Z</time>
    </trkpt>
    <trkpt lat="56.350547" lon="60.954112">
        <ele>270.4</ele>
        <time>1970-01-01T13:43:30.313Z</time>
    </trkpt>
    <trkpt lat="56.350576" lon="60.954134">
        <ele>270.4</ele>
        <time>1970-01-01T13:43:31.313Z</time>
    </trkpt>
    <trkpt lat="56.350586" lon="60.954147">
        <ele>270.4</ele>
        <time>1970-01-01T13:43:32.313Z</time>
    </trkpt>
    <trkpt lat="56.350609" lon="60.954152">
        <ele>270.5</ele>
        <time>1970-01-01T13:43:33.313Z</time>
    </trkpt>
    <trkpt lat="56.35062" lon="60.954156">
        <ele>270.5</ele>
        <time>1970-01-01T13:43:34.313Z</time>
    </trkpt>
    <trkpt lat="56.350647" lon="60.954177">
        <ele>270.5</ele>
        <time>1970-01-01T13:43:35.313Z</time>
    </trkpt>
    <trkpt lat="56.350664" lon="60.954194">
        <ele>270.5</ele>
        <time>1970-01-01T13:43:36.313Z</time>
    </trkpt>
    <trkpt lat="56.350677" lon="60.954211">
        <ele>270.5</ele>
        <time>1970-01-01T13:43:37.313Z</time>
    </trkpt>
    <trkpt lat="56.350686" lon="60.954219">
        <ele>270.6</ele>
        <time>1970-01-01T13:43:38.313Z</time>
    </trkpt>
    <trkpt lat="56.350715" lon="60.954244">
        <ele>270.6</ele>
        <time>1970-01-01T13:43:39.313Z</time>
    </trkpt>
    <trkpt lat="56.350735" lon="60.954253">
        <ele>270.6</ele>
        <time>1970-01-01T13:43:40.313Z</time>
    </trkpt>
    <trkpt lat="56.350745" lon="60.954257">
        <ele>270.6</ele>
        <time>1970-01-01T13:43:41.313Z</time>
    </trkpt>
    <trkpt lat="56.350751" lon="60.954287">
        <ele>270.7</ele>
        <time>1970-01-01T13:43:42.313Z</time>
    </trkpt>
    <trkpt lat="56.350765" lon="60.954307">
        <ele>270.7</ele>
        <time>1970-01-01T13:43:43.313Z</time>
    </trkpt>
    <trkpt lat="56.350774" lon="60.954313">
        <ele>270.7</ele>
        <time>1970-01-01T13:43:44.313Z</time>
    </trkpt>
    <trkpt lat="56.350798" lon="60.95434">
        <ele>270.7</ele>
        <time>1970-01-01T13:43:45.313Z</time>
    </trkpt>
    <trkpt lat="56.35081" lon="60.954365">
        <ele>270.7</ele>
        <time>1970-01-01T13:43:46.313Z</time>
    </trkpt>
    <trkpt lat="56.350816" lon="60.954377">
        <ele>270.8</ele>
        <time>1970-01-01T13:43:47.313Z</time>
    </trkpt>
    <trkpt lat="56.350837" lon="60.954393">
        <ele>270.8</ele>
        <time>1970-01-01T13:43:48.313Z</time>
    </trkpt>
    <trkpt lat="56.350847" lon="60.954404">
        <ele>270.8</ele>
        <time>1970-01-01T13:43:49.313Z</time>
    </trkpt>
    <trkpt lat="56.350851" lon="60.954425">
        <ele>270.8</ele>
        <time>1970-01-01T13:43:50.313Z</time>
    </trkpt>
    <trkpt lat="56.350857" lon="60.95446">
        <ele>270.8</ele>
        <time>1970-01-01T13:43:51.313Z</time>
    </trkpt>
    <trkpt lat="56.350862" lon="60.954495">
        <ele>270.9</ele>
        <time>1970-01-01T13:43:52.313Z</time>
    </trkpt>
    <trkpt lat="56.350868" lon="60.95452">
        <ele>270.9</ele>
        <time>1970-01-01T13:43:53.313Z</time>
    </trkpt>
    <trkpt lat="56.350876" lon="60.954532">
        <ele>270.9</ele>
        <time>1970-01-01T13:43:54.313Z</time>
    </trkpt>
    <trkpt lat="56.350901" lon="60.954567">
        <ele>270.9</ele>
        <time>1970-01-01T13:43:55.313Z</time>
    </trkpt>
    <trkpt lat="56.350916" lon="60.954619">
        <ele>271.0</ele>
        <time>1970-01-01T13:43:56.313Z</time>
    </trkpt>
    <trkpt lat="56.35092" lon="60.954631">
        <ele>271.0</ele>
        <time>1970-01-01T13:43:57.313Z</time>
    </trkpt>
    <trkpt lat="56.350923" lon="60.954644">
        <ele>271.0</ele>
        <time>1970-01-01T13:43:58.313Z</time>
    </trkpt>
    <trkpt lat="56.350929" lon="60.954686">
        <ele>271.0</ele>
        <time>1970-01-01T13:43:59.313Z</time>
    </trkpt>
    <trkpt lat="56.350933" lon="60.954703">
        <ele>271.0</ele>
        <time>1970-01-01T13:44:00.313Z</time>
    </trkpt>
    <trkpt lat="56.350948" lon="60.954754">
        <ele>271.1</ele>
        <time>1970-01-01T13:44:01.313Z</time>
    </trkpt>
    <trkpt lat="56.350957" lon="60.954778">
        <ele>271.1</ele>
        <time>1970-01-01T13:44:02.313Z</time>
    </trkpt>
    <trkpt lat="56.350965" lon="60.954798">
        <ele>271.1</ele>
        <time>1970-01-01T13:44:03.313Z</time>
    </trkpt>
    <trkpt lat="56.350969" lon="60.954823">
        <ele>271.1</ele>
        <time>1970-01-01T13:44:04.313Z</time>
    </trkpt>
    <trkpt lat="56.350974" lon="60.954889">
        <ele>271.2</ele>
        <time>1970-01-01T13:44:05.313Z</time>
    </trkpt>
    <trkpt lat="56.35098" lon="60.954916">
        <ele>271.2</ele>
        <time>1970-01-01T13:44:06.313Z</time>
    </trkpt>
    <trkpt lat="56.350993" lon="60.954985">
        <ele>271.3</ele>
        <time>1970-01-01T13:44:07.313Z</time>
    </trkpt>
    <trkpt lat="56.350999" lon="60.955001">
        <ele>271.3</ele>
        <time>1970-01-01T13:44:08.313Z</time>
    </trkpt>
    <trkpt lat="56.351015" lon="60.95504">
        <ele>271.3</ele>
        <time>1970-01-01T13:44:09.313Z</time>
    </trkpt>
    <trkpt lat="56.351023" lon="60.955061">
        <ele>271.3</ele>
        <time>1970-01-01T13:44:10.313Z</time>
    </trkpt>
    <trkpt lat="56.351037" lon="60.955118">
        <ele>271.4</ele>
        <time>1970-01-01T13:44:11.313Z</time>
    </trkpt>
    <trkpt lat="56.351043" lon="60.955133">
        <ele>271.4</ele>
        <time>1970-01-01T13:44:12.313Z</time>
    </trkpt>
    <trkpt lat="56.351063" lon="60.955169">
        <ele>271.4</ele>
        <time>1970-01-01T13:44:13.313Z</time>
    </trkpt>
    <trkpt lat="56.351075" lon="60.955187">
        <ele>271.4</ele>
        <time>1970-01-01T13:44:14.313Z</time>
    </trkpt>
    <trkpt lat="56.351086" lon="60.955199">
        <ele>271.4</ele>
        <time>1970-01-01T13:44:15.313Z</time>
    </trkpt>
    <trkpt lat="56.351097" lon="60.955218">
        <ele>271.5</ele>
        <time>1970-01-01T13:44:16.313Z</time>
    </trkpt>
    <trkpt lat="56.351116" lon="60.95526">
        <ele>271.5</ele>
        <time>1970-01-01T13:44:17.313Z</time>
    </trkpt>
    <trkpt lat="56.351128" lon="60.955281">
        <ele>271.5</ele>
        <time>1970-01-01T13:44:18.313Z</time>
    </trkpt>
    <trkpt lat="56.351155" lon="60.955313">
        <ele>271.6</ele>
        <time>1970-01-01T13:44:19.313Z</time>
    </trkpt>
    <trkpt lat="56.351166" lon="60.95533">
        <ele>271.6</ele>
        <time>1970-01-01T13:44:20.313Z</time>
    </trkpt>
    <trkpt lat="56.351181" lon="60.955359">
        <ele>271.6</ele>
        <time>1970-01-01T13:44:21.313Z</time>
    </trkpt>
    <trkpt lat="56.351208" lon="60.955388">
        <ele>271.6</ele>
        <time>1970-01-01T13:44:22.313Z</time>
    </trkpt>
    <trkpt lat="56.351216" lon="60.955395">
        <ele>271.7</ele>
        <time>1970-01-01T13:44:23.313Z</time>
    </trkpt>
    <trkpt lat="56.351234" lon="60.955427">
        <ele>271.7</ele>
        <time>1970-01-01T13:44:24.313Z</time>
    </trkpt>
    <trkpt lat="56.351252" lon="60.955453">
        <ele>271.7</ele>
        <time>1970-01-01T13:44:25.313Z</time>
    </trkpt>
    <trkpt lat="56.351257" lon="60.955453">
        <ele>271.7</ele>
        <time>1970-01-01T13:44:26.313Z</time>
    </trkpt>
    <trkpt lat="56.351266" lon="60.955465">
        <ele>271.7</ele>
        <time>1970-01-01T13:44:27.313Z</time>
    </trkpt>
    <trkpt lat="56.351292" lon="60.955495">
        <ele>271.8</ele>
        <time>1970-01-01T13:44:28.313Z</time>
    </trkpt>
    <trkpt lat="56.351301" lon="60.955505">
        <ele>271.8</ele>
        <time>1970-01-01T13:44:29.313Z</time>
    </trkpt>
    <trkpt lat="56.351322" lon="60.955519">
        <ele>271.8</ele>
        <time>1970-01-01T13:44:30.313Z</time>
    </trkpt>
    <trkpt lat="56.351327" lon="60.95553">
        <ele>271.8</ele>
        <time>1970-01-01T13:44:31.313Z</time>
    </trkpt>
    <trkpt lat="56.351352" lon="60.95557">
        <ele>271.9</ele>
        <time>1970-01-01T13:44:32.313Z</time>
    </trkpt>
    <trkpt lat="56.35137" lon="60.955579">
        <ele>271.9</ele>
        <time>1970-01-01T13:44:33.313Z</time>
    </trkpt>
    <trkpt lat="56.351382" lon="60.955586">
        <ele>271.9</ele>
        <time>1970-01-01T13:44:34.313Z</time>
    </trkpt>
    <trkpt lat="56.351388" lon="60.955603">
        <ele>271.9</ele>
        <time>1970-01-01T13:44:35.313Z</time>
    </trkpt>
    <trkpt lat="56.351397" lon="60.955648">
        <ele>271.9</ele>
        <time>1970-01-01T13:44:36.313Z</time>
    </trkpt>
    <trkpt lat="56.351411" lon="60.955681">
        <ele>272.0</ele>
        <time>1970-01-01T13:44:37.313Z</time>
    </trkpt>
    <trkpt lat="56.351414" lon="60.955697">
        <ele>272.0</ele>
        <time>1970-01-01T13:44:38.313Z</time>
    </trkpt>
    <trkpt lat="56.351424" lon="60.955724">
        <ele>272.0</ele>
        <time>1970-01-01T13:44:39.313Z</time>
    </trkpt>
    <trkpt lat="56.351447" lon="60.955743">
        <ele>272.0</ele>
        <time>1970-01-01T13:44:40.313Z</time>
    </trkpt>
    <trkpt lat="56.351471" lon="60.955771">
        <ele>272.1</ele>
        <time>1970-01-01T13:44:41.313Z</time>
    </trkpt>
    <trkpt lat="56.351471" lon="60.95579">
        <ele>272.1</ele>
        <time>1970-01-01T13:44:42.313Z</time>
    </trkpt>
    <trkpt lat="56.351484" lon="60.955836">
        <ele>272.1</ele>
        <time>1970-01-01T13:44:43.313Z</time>
    </trkpt>
    <trkpt lat="56.351497" lon="60.955858">
        <ele>272.1</ele>
        <time>1970-01-01T13:44:44.313Z</time>
    </trkpt>
    <trkpt lat="56.351509" lon="60.955878">
        <ele>272.2</ele>
        <time>1970-01-01T13:44:45.313Z</time>
    </trkpt>
    <trkpt lat="56.351522" lon="60.955917">
        <ele>272.2</ele>
        <time>1970-01-01T13:44:46.313Z</time>
    </trkpt>
    <trkpt lat="56.351527" lon="60.955932">
        <ele>272.2</ele>
        <time>1970-01-01T13:44:47.313Z</time>
    </trkpt>
    <trkpt lat="56.351538" lon="60.955953">
        <ele>272.2</ele>
        <time>1970-01-01T13:44:48.313Z</time>
    </trkpt>
    <trkpt lat="56.351555" lon="60.95599">
        <ele>272.3</ele>
        <time>1970-01-01T13:44:49.313Z</time>
    </trkpt>
    <trkpt lat="56.351567" lon="60.956011">
        <ele>272.3</ele>
        <time>1970-01-01T13:44:50.313Z</time>
    </trkpt>
    <trkpt lat="56.351588" lon="60.956048">
        <ele>272.3</ele>
        <time>1970-01-01T13:44:51.313Z</time>
    </trkpt>
    <trkpt lat="56.351609" lon="60.956073">
        <ele>272.4</ele>
        <time>1970-01-01T13:44:52.313Z</time>
    </trkpt>
    <trkpt lat="56.35162" lon="60.95607">
        <ele>272.4</ele>
        <time>1970-01-01T13:44:53.313Z</time>
    </trkpt>
    <trkpt lat="56.35164" lon="60.956084">
        <ele>272.4</ele>
        <time>1970-01-01T13:44:54.313Z</time>
    </trkpt>
    <trkpt lat="56.351668" lon="60.956105">
        <ele>272.4</ele>
        <time>1970-01-01T13:44:55.313Z</time>
    </trkpt>
    <trkpt lat="56.351686" lon="60.956156">
        <ele>272.5</ele>
        <time>1970-01-01T13:44:56.313Z</time>
    </trkpt>
    <trkpt lat="56.351691" lon="60.956176">
        <ele>272.5</ele>
        <time>1970-01-01T13:44:57.313Z</time>
    </trkpt>
    <trkpt lat="56.351713" lon="60.956222">
        <ele>272.5</ele>
        <time>1970-01-01T13:44:58.313Z</time>
    </trkpt>
    <trkpt lat="56.351728" lon="60.956265">
        <ele>272.6</ele>
        <time>1970-01-01T13:44:59.313Z</time>
    </trkpt>
    <trkpt lat="56.351743" lon="60.956294">
        <ele>272.6</ele>
        <time>1970-01-01T13:45:00.313Z</time>
    </trkpt>
    <trkpt lat="56.351752" lon="60.956309">
        <ele>272.6</ele>
        <time>1970-01-01T13:45:01.313Z</time>
    </trkpt>
    <trkpt lat="56.35176" lon="60.956323">
        <ele>272.6</ele>
        <time>1970-01-01T13:45:02.313Z</time>
    </trkpt>
    <trkpt lat="56.351788" lon="60.956362">
        <ele>272.7</ele>
        <time>1970-01-01T13:45:03.313Z</time>
    </trkpt>
    <trkpt lat="56.351797" lon="60.956376">
        <ele>272.7</ele>
        <time>1970-01-01T13:45:04.313Z</time>
    </trkpt>
    <trkpt lat="56.351821" lon="60.956407">
        <ele>272.7</ele>
        <time>1970-01-01T13:45:05.313Z</time>
    </trkpt>
    <trkpt lat="56.351832" lon="60.956403">
        <ele>272.7</ele>
        <time>1970-01-01T13:45:06.313Z</time>
    </trkpt>
    <trkpt lat="56.351845" lon="60.956412">
        <ele>272.7</ele>
        <time>1970-01-01T13:45:07.313Z</time>
    </trkpt>
    <trkpt lat="56.351854" lon="60.956431">
        <ele>272.8</ele>
        <time>1970-01-01T13:45:08.313Z</time>
    </trkpt>
    <trkpt lat="56.351868" lon="60.956448">
        <ele>272.8</ele>
        <time>1970-01-01T13:45:09.313Z</time>
    </trkpt>
    <trkpt lat="56.351876" lon="60.956464">
        <ele>272.8</ele>
        <time>1970-01-01T13:45:10.313Z</time>
    </trkpt>
    <trkpt lat="56.351888" lon="60.956472">
        <ele>272.8</ele>
        <time>1970-01-01T13:45:11.313Z</time>
    </trkpt>
    <trkpt lat="56.351922" lon="60.956482">
        <ele>272.9</ele>
        <time>1970-01-01T13:45:12.313Z</time>
    </trkpt>
    <trkpt lat="56.351937" lon="60.956493">
        <ele>272.9</ele>
        <time>1970-01-01T13:45:13.313Z</time>
    </trkpt>
    <trkpt lat="56.35195" lon="60.956511">
        <ele>272.9</ele>
        <time>1970-01-01T13:45:14.313Z</time>
    </trkpt>
    <trkpt lat="56.351976" lon="60.956532">
        <ele>272.9</ele>
        <time>1970-01-01T13:45:15.313Z</time>
    </trkpt>
    <trkpt lat="56.351986" lon="60.956533">
        <ele>272.9</ele>
        <time>1970-01-01T13:45:16.313Z</time>
    </trkpt>
    <trkpt lat="56.352012" lon="60.956542">
        <ele>273.0</ele>
        <time>1970-01-01T13:45:17.313Z</time>
    </trkpt>
    <trkpt lat="56.352032" lon="60.956559">
        <ele>273.0</ele>
        <time>1970-01-01T13:45:18.313Z</time>
    </trkpt>
    <trkpt lat="56.35204" lon="60.956569">
        <ele>273.0</ele>
        <time>1970-01-01T13:45:19.313Z</time>
    </trkpt>
    <trkpt lat="56.352049" lon="60.95657">
        <ele>272.9</ele>
        <time>1970-01-01T13:45:20.313Z</time>
    </trkpt>
    <trkpt lat="56.352059" lon="60.956572">
        <ele>272.9</ele>
        <time>1970-01-01T13:45:21.313Z</time>
    </trkpt>
    <trkpt lat="56.352084" lon="60.956566">
        <ele>272.9</ele>
        <time>1970-01-01T13:45:22.313Z</time>
    </trkpt>
    <trkpt lat="56.352107" lon="60.956577">
        <ele>272.8</ele>
        <time>1970-01-01T13:45:23.313Z</time>
    </trkpt>
    <trkpt lat="56.35211" lon="60.956583">
        <ele>272.8</ele>
        <time>1970-01-01T13:45:24.313Z</time>
    </trkpt>
    <trkpt lat="56.352121" lon="60.956591">
        <ele>272.8</ele>
        <time>1970-01-01T13:45:25.313Z</time>
    </trkpt>
    <trkpt lat="56.352131" lon="60.956599">
        <ele>272.8</ele>
        <time>1970-01-01T13:45:26.313Z</time>
    </trkpt>
    <trkpt lat="56.352149" lon="60.956604">
        <ele>272.8</ele>
        <time>1970-01-01T13:45:27.313Z</time>
    </trkpt>
    <trkpt lat="56.35216" lon="60.956607">
        <ele>272.8</ele>
        <time>1970-01-01T13:45:28.313Z</time>
    </trkpt>
    <trkpt lat="56.35217" lon="60.95661">
        <ele>272.7</ele>
        <time>1970-01-01T13:45:29.313Z</time>
    </trkpt>
    <trkpt lat="56.352187" lon="60.956622">
        <ele>272.7</ele>
        <time>1970-01-01T13:45:30.313Z</time>
    </trkpt>
    <trkpt lat="56.352191" lon="60.956624">
        <ele>272.7</ele>
        <time>1970-01-01T13:45:31.313Z</time>
    </trkpt>
    <trkpt lat="56.352196" lon="60.956626">
        <ele>272.7</ele>
        <time>1970-01-01T13:45:32.313Z</time>
    </trkpt>
    <trkpt lat="56.352223" lon="60.956642">
        <ele>272.7</ele>
        <time>1970-01-01T13:45:33.313Z</time>
    </trkpt>
    <trkpt lat="56.352234" lon="60.956664">
        <ele>272.6</ele>
        <time>1970-01-01T13:45:34.313Z</time>
    </trkpt>
    <trkpt lat="56.352244" lon="60.956684">
        <ele>272.6</ele>
        <time>1970-01-01T13:45:35.313Z</time>
    </trkpt>
    <trkpt lat="56.352258" lon="60.956698">
        <ele>272.6</ele>
        <time>1970-01-01T13:45:36.313Z</time>
    </trkpt>
    <trkpt lat="56.352265" lon="60.956716">
        <ele>272.6</ele>
        <time>1970-01-01T13:45:37.313Z</time>
    </trkpt>
    <trkpt lat="56.352269" lon="60.956729">
        <ele>272.6</ele>
        <time>1970-01-01T13:45:38.313Z</time>
    </trkpt>
    <trkpt lat="56.352273" lon="60.956742">
        <ele>272.5</ele>
        <time>1970-01-01T13:45:39.313Z</time>
    </trkpt>
    <trkpt lat="56.352277" lon="60.956754">
        <ele>272.5</ele>
        <time>1970-01-01T13:45:40.313Z</time>
    </trkpt>
    <trkpt lat="56.352288" lon="60.956771">
        <ele>272.5</ele>
        <time>1970-01-01T13:45:41.313Z</time>
    </trkpt>
    <trkpt lat="56.352306" lon="60.956794">
        <ele>272.5</ele>
        <time>1970-01-01T13:45:42.313Z</time>
    </trkpt>
    <trkpt lat="56.352312" lon="60.9568">
        <ele>272.5</ele>
        <time>1970-01-01T13:45:43.313Z</time>
    </trkpt>
    <trkpt lat="56.352324" lon="60.95682">
        <ele>272.4</ele>
        <time>1970-01-01T13:45:44.313Z</time>
    </trkpt>
    <trkpt lat="56.352336" lon="60.95684">
        <ele>272.4</ele>
        <time>1970-01-01T13:45:45.313Z</time>
    </trkpt>
    <trkpt lat="56.352345" lon="60.956842">
        <ele>272.4</ele>
        <time>1970-01-01T13:45:46.313Z</time>
    </trkpt>
    <trkpt lat="56.352348" lon="60.956857">
        <ele>272.4</ele>
        <time>1970-01-01T13:45:47.313Z</time>
    </trkpt>
    <trkpt lat="56.352358" lon="60.956875">
        <ele>272.4</ele>
        <time>1970-01-01T13:45:48.313Z</time>
    </trkpt>
    <trkpt lat="56.352369" lon="60.956886">
        <ele>272.3</ele>
        <time>1970-01-01T13:45:49.313Z</time>
    </trkpt>
    <trkpt lat="56.352381" lon="60.956904">
        <ele>272.3</ele>
        <time>1970-01-01T13:45:50.313Z</time>
    </trkpt>
    <trkpt lat="56.352393" lon="60.956926">
        <ele>272.3</ele>
        <time>1970-01-01T13:45:51.313Z</time>
    </trkpt>
    <trkpt lat="56.352401" lon="60.956939">
        <ele>272.3</ele>
        <time>1970-01-01T13:45:52.313Z</time>
    </trkpt>
    <trkpt lat="56.352406" lon="60.956946">
        <ele>272.3</ele>
        <time>1970-01-01T13:45:53.313Z</time>
    </trkpt>
    <trkpt lat="56.352412" lon="60.956952">
        <ele>272.3</ele>
        <time>1970-01-01T13:45:54.313Z</time>
    </trkpt>
    <trkpt lat="56.352431" lon="60.956975">
        <ele>272.2</ele>
        <time>1970-01-01T13:45:55.313Z</time>
    </trkpt>
    <trkpt lat="56.352437" lon="60.956985">
        <ele>272.2</ele>
        <time>1970-01-01T13:45:56.313Z</time>
    </trkpt>
    <trkpt lat="56.352442" lon="60.956996">
        <ele>272.2</ele>
        <time>1970-01-01T13:45:57.313Z</time>
    </trkpt>
    <trkpt lat="56.352459" lon="60.957027">
        <ele>272.2</ele>
        <time>1970-01-01T13:45:58.313Z</time>
    </trkpt>
    <trkpt lat="56.352471" lon="60.957056">
        <ele>272.1</ele>
        <time>1970-01-01T13:45:59.313Z</time>
    </trkpt>
    <trkpt lat="56.352478" lon="60.957074">
        <ele>272.1</ele>
        <time>1970-01-01T13:46:00.313Z</time>
    </trkpt>
    <trkpt lat="56.352486" lon="60.957089">
        <ele>272.1</ele>
        <time>1970-01-01T13:46:01.313Z</time>
    </trkpt>
    <trkpt lat="56.352497" lon="60.957111">
        <ele>272.1</ele>
        <time>1970-01-01T13:46:02.313Z</time>
    </trkpt>
    <trkpt lat="56.3525" lon="60.957125">
        <ele>272.0</ele>
        <time>1970-01-01T13:46:03.313Z</time>
    </trkpt>
    <trkpt lat="56.352507" lon="60.957135">
        <ele>272.0</ele>
        <time>1970-01-01T13:46:04.313Z</time>
    </trkpt>
    <trkpt lat="56.352513" lon="60.957145">
        <ele>272.0</ele>
        <time>1970-01-01T13:46:05.313Z</time>
    </trkpt>
    <trkpt lat="56.352528" lon="60.957171">
        <ele>272.0</ele>
        <time>1970-01-01T13:46:06.313Z</time>
    </trkpt>
    <trkpt lat="56.352535" lon="60.957173">
        <ele>272.0</ele>
        <time>1970-01-01T13:46:07.313Z</time>
    </trkpt>
    <trkpt lat="56.352561" lon="60.957201">
        <ele>271.9</ele>
        <time>1970-01-01T13:46:08.313Z</time>
    </trkpt>
    <trkpt lat="56.352574" lon="60.957209">
        <ele>271.9</ele>
        <time>1970-01-01T13:46:09.313Z</time>
    </trkpt>
    <trkpt lat="56.35259" lon="60.957228">
        <ele>271.9</ele>
        <time>1970-01-01T13:46:10.313Z</time>
    </trkpt>
    <trkpt lat="56.352596" lon="60.957236">
        <ele>271.9</ele>
        <time>1970-01-01T13:46:11.313Z</time>
    </trkpt>
    <trkpt lat="56.352618" lon="60.95727">
        <ele>271.8</ele>
        <time>1970-01-01T13:46:12.313Z</time>
    </trkpt>
    <trkpt lat="56.352626" lon="60.957274">
        <ele>271.8</ele>
        <time>1970-01-01T13:46:13.313Z</time>
    </trkpt>
    <trkpt lat="56.352648" lon="60.957287">
        <ele>271.8</ele>
        <time>1970-01-01T13:46:14.313Z</time>
    </trkpt>
    <trkpt lat="56.352655" lon="60.957293">
        <ele>271.8</ele>
        <time>1970-01-01T13:46:15.313Z</time>
    </trkpt>
    <trkpt lat="56.352667" lon="60.957301">
        <ele>271.7</ele>
        <time>1970-01-01T13:46:16.313Z</time>
    </trkpt>
    <trkpt lat="56.352677" lon="60.957304">
        <ele>271.7</ele>
        <time>1970-01-01T13:46:17.313Z</time>
    </trkpt>
    <trkpt lat="56.352692" lon="60.957319">
        <ele>271.7</ele>
        <time>1970-01-01T13:46:18.313Z</time>
    </trkpt>
    <trkpt lat="56.352702" lon="60.957322">
        <ele>271.7</ele>
        <time>1970-01-01T13:46:19.313Z</time>
    </trkpt>
    <trkpt lat="56.352707" lon="60.957322">
        <ele>271.7</ele>
        <time>1970-01-01T13:46:20.313Z</time>
    </trkpt>
    <trkpt lat="56.352723" lon="60.957334">
        <ele>271.7</ele>
        <time>1970-01-01T13:46:21.313Z</time>
    </trkpt>
    <trkpt lat="56.352736" lon="60.957334">
        <ele>271.6</ele>
        <time>1970-01-01T13:46:22.313Z</time>
    </trkpt>
    <trkpt lat="56.352744" lon="60.957341">
        <ele>271.6</ele>
        <time>1970-01-01T13:46:23.313Z</time>
    </trkpt>
    <trkpt lat="56.352776" lon="60.957355">
        <ele>271.6</ele>
        <time>1970-01-01T13:46:24.313Z</time>
    </trkpt>
    <trkpt lat="56.352792" lon="60.957368">
        <ele>271.5</ele>
        <time>1970-01-01T13:46:25.313Z</time>
    </trkpt>
    <trkpt lat="56.35282" lon="60.957408">
        <ele>271.5</ele>
        <time>1970-01-01T13:46:26.313Z</time>
    </trkpt>
    <trkpt lat="56.352838" lon="60.957445">
        <ele>271.4</ele>
        <time>1970-01-01T13:46:27.313Z</time>
    </trkpt>
    <trkpt lat="56.35285" lon="60.95747">
        <ele>271.4</ele>
        <time>1970-01-01T13:46:28.313Z</time>
    </trkpt>
    <trkpt lat="56.352863" lon="60.957496">
        <ele>271.4</ele>
        <time>1970-01-01T13:46:29.313Z</time>
    </trkpt>
    <trkpt lat="56.352879" lon="60.957529">
        <ele>271.3</ele>
        <time>1970-01-01T13:46:30.313Z</time>
    </trkpt>
    <trkpt lat="56.352887" lon="60.957532">
        <ele>271.3</ele>
        <time>1970-01-01T13:46:31.313Z</time>
    </trkpt>
    <trkpt lat="56.352915" lon="60.957562">
        <ele>271.3</ele>
        <time>1970-01-01T13:46:32.313Z</time>
    </trkpt>
    <trkpt lat="56.352924" lon="60.957567">
        <ele>271.3</ele>
        <time>1970-01-01T13:46:33.313Z</time>
    </trkpt>
    <trkpt lat="56.352959" lon="60.957571">
        <ele>271.2</ele>
        <time>1970-01-01T13:46:34.313Z</time>
    </trkpt>
    <trkpt lat="56.352968" lon="60.957564">
        <ele>271.2</ele>
        <time>1970-01-01T13:46:35.313Z</time>
    </trkpt>
    <trkpt lat="56.352977" lon="60.957557">
        <ele>271.2</ele>
        <time>1970-01-01T13:46:36.313Z</time>
    </trkpt>
    <trkpt lat="56.352997" lon="60.957546">
        <ele>271.2</ele>
        <time>1970-01-01T13:46:37.313Z</time>
    </trkpt>
    <trkpt lat="56.353007" lon="60.95754">
        <ele>271.1</ele>
        <time>1970-01-01T13:46:38.313Z</time>
    </trkpt>
    <trkpt lat="56.353031" lon="60.957521">
        <ele>271.1</ele>
        <time>1970-01-01T13:46:39.313Z</time>
    </trkpt>
    <trkpt lat="56.35304" lon="60.957521">
        <ele>271.1</ele>
        <time>1970-01-01T13:46:40.313Z</time>
    </trkpt>
    <trkpt lat="56.353067" lon="60.957519">
        <ele>271.0</ele>
        <time>1970-01-01T13:46:41.313Z</time>
    </trkpt>
    <trkpt lat="56.353078" lon="60.957521">
        <ele>271.0</ele>
        <time>1970-01-01T13:46:42.313Z</time>
    </trkpt>
    <trkpt lat="56.353089" lon="60.957522">
        <ele>271.0</ele>
        <time>1970-01-01T13:46:43.313Z</time>
    </trkpt>
    <trkpt lat="56.353113" lon="60.957534">
        <ele>271.0</ele>
        <time>1970-01-01T13:46:44.313Z</time>
    </trkpt>
    <trkpt lat="56.353121" lon="60.957524">
        <ele>271.0</ele>
        <time>1970-01-01T13:46:45.313Z</time>
    </trkpt>
    <trkpt lat="56.353129" lon="60.957514">
        <ele>270.9</ele>
        <time>1970-01-01T13:46:46.313Z</time>
    </trkpt>
    <trkpt lat="56.353149" lon="60.957511">
        <ele>270.9</ele>
        <time>1970-01-01T13:46:47.313Z</time>
    </trkpt>
    <trkpt lat="56.353157" lon="60.957502">
        <ele>270.9</ele>
        <time>1970-01-01T13:46:48.313Z</time>
    </trkpt>
    <trkpt lat="56.353165" lon="60.957493">
        <ele>270.9</ele>
        <time>1970-01-01T13:46:49.313Z</time>
    </trkpt>
    <trkpt lat="56.353182" lon="60.957476">
        <ele>270.8</ele>
        <time>1970-01-01T13:46:50.313Z</time>
    </trkpt>
    <trkpt lat="56.353204" lon="60.957477">
        <ele>270.8</ele>
        <time>1970-01-01T13:46:51.313Z</time>
    </trkpt>
    <trkpt lat="56.353217" lon="60.95747">
        <ele>270.8</ele>
        <time>1970-01-01T13:46:52.313Z</time>
    </trkpt>
    <trkpt lat="56.353235" lon="60.957481">
        <ele>270.8</ele>
        <time>1970-01-01T13:46:53.313Z</time>
    </trkpt>
    <trkpt lat="56.353251" lon="60.957487">
        <ele>270.7</ele>
        <time>1970-01-01T13:46:54.313Z</time>
    </trkpt>
    <trkpt lat="56.353263" lon="60.957497">
        <ele>270.7</ele>
        <time>1970-01-01T13:46:55.313Z</time>
    </trkpt>
    <trkpt lat="56.353289" lon="60.957529">
        <ele>270.7</ele>
        <time>1970-01-01T13:46:56.313Z</time>
    </trkpt>
    <trkpt lat="56.353304" lon="60.957537">
        <ele>270.6</ele>
        <time>1970-01-01T13:46:57.313Z</time>
    </trkpt>
    <trkpt lat="56.353333" lon="60.957539">
        <ele>270.6</ele>
        <time>1970-01-01T13:46:58.313Z</time>
    </trkpt>
    <trkpt lat="56.353346" lon="60.957541">
        <ele>270.6</ele>
        <time>1970-01-01T13:46:59.313Z</time>
    </trkpt>
    <trkpt lat="56.353382" lon="60.95756">
        <ele>270.5</ele>
        <time>1970-01-01T13:47:00.313Z</time>
    </trkpt>
    <trkpt lat="56.353392" lon="60.957565">
        <ele>270.5</ele>
        <time>1970-01-01T13:47:01.313Z</time>
    </trkpt>
    <trkpt lat="56.353417" lon="60.957585">
        <ele>270.5</ele>
        <time>1970-01-01T13:47:02.313Z</time>
    </trkpt>
    <trkpt lat="56.353427" lon="60.957591">
        <ele>270.4</ele>
        <time>1970-01-01T13:47:03.313Z</time>
    </trkpt>
    <trkpt lat="56.353455" lon="60.957608">
        <ele>270.4</ele>
        <time>1970-01-01T13:47:04.313Z</time>
    </trkpt>
    <trkpt lat="56.353462" lon="60.957623">
        <ele>270.4</ele>
        <time>1970-01-01T13:47:05.313Z</time>
    </trkpt>
    <trkpt lat="56.353485" lon="60.957663">
        <ele>270.3</ele>
        <time>1970-01-01T13:47:06.313Z</time>
    </trkpt>
    <trkpt lat="56.353495" lon="60.957672">
        <ele>270.3</ele>
        <time>1970-01-01T13:47:07.313Z</time>
    </trkpt>
    <trkpt lat="56.353527" lon="60.957685">
        <ele>270.3</ele>
        <time>1970-01-01T13:47:08.313Z</time>
    </trkpt>
    <trkpt lat="56.353536" lon="60.957688">
        <ele>270.2</ele>
        <time>1970-01-01T13:47:09.313Z</time>
    </trkpt>
    <trkpt lat="56.353568" lon="60.957697">
        <ele>270.2</ele>
        <time>1970-01-01T13:47:10.313Z</time>
    </trkpt>
    <trkpt lat="56.353594" lon="60.957721">
        <ele>270.2</ele>
        <time>1970-01-01T13:47:11.313Z</time>
    </trkpt>
    <trkpt lat="56.353614" lon="60.957733">
        <ele>270.1</ele>
        <time>1970-01-01T13:47:12.313Z</time>
    </trkpt>
    <trkpt lat="56.353645" lon="60.957744">
        <ele>270.1</ele>
        <time>1970-01-01T13:47:13.313Z</time>
    </trkpt>
    <trkpt lat="56.353653" lon="60.957748">
        <ele>270.1</ele>
        <time>1970-01-01T13:47:14.313Z</time>
    </trkpt>
    <trkpt lat="56.353662" lon="60.957751">
        <ele>270.0</ele>
        <time>1970-01-01T13:47:15.313Z</time>
    </trkpt>
    <trkpt lat="56.353683" lon="60.957735">
        <ele>270.0</ele>
        <time>1970-01-01T13:47:16.313Z</time>
    </trkpt>
    <trkpt lat="56.353697" lon="60.957729">
        <ele>270.0</ele>
        <time>1970-01-01T13:47:17.313Z</time>
    </trkpt>
    <trkpt lat="56.353716" lon="60.957735">
        <ele>270.0</ele>
        <time>1970-01-01T13:47:18.313Z</time>
    </trkpt>
    <trkpt lat="56.353731" lon="60.957742">
        <ele>269.9</ele>
        <time>1970-01-01T13:47:19.313Z</time>
    </trkpt>
    <trkpt lat="56.353745" lon="60.957752">
        <ele>269.9</ele>
        <time>1970-01-01T13:47:20.313Z</time>
    </trkpt>
    <trkpt lat="56.353754" lon="60.957756">
        <ele>269.9</ele>
        <time>1970-01-01T13:47:21.313Z</time>
    </trkpt>
    <trkpt lat="56.353785" lon="60.957779">
        <ele>269.8</ele>
        <time>1970-01-01T13:47:22.313Z</time>
    </trkpt>
    <trkpt lat="56.353796" lon="60.957787">
        <ele>269.8</ele>
        <time>1970-01-01T13:47:23.313Z</time>
    </trkpt>
    <trkpt lat="56.353822" lon="60.957806">
        <ele>269.8</ele>
        <time>1970-01-01T13:47:24.313Z</time>
    </trkpt>
    <trkpt lat="56.353834" lon="60.957814">
        <ele>269.8</ele>
        <time>1970-01-01T13:47:25.313Z</time>
    </trkpt>
    <trkpt lat="56.35386" lon="60.957834">
        <ele>269.7</ele>
        <time>1970-01-01T13:47:26.313Z</time>
    </trkpt>
    <trkpt lat="56.353874" lon="60.957838">
        <ele>269.7</ele>
        <time>1970-01-01T13:47:27.313Z</time>
    </trkpt>
    <trkpt lat="56.3539" lon="60.957845">
        <ele>269.7</ele>
        <time>1970-01-01T13:47:28.313Z</time>
    </trkpt>
    <trkpt lat="56.353908" lon="60.95785">
        <ele>269.6</ele>
        <time>1970-01-01T13:47:29.313Z</time>
    </trkpt>
    <trkpt lat="56.35394" lon="60.957876">
        <ele>269.6</ele>
        <time>1970-01-01T13:47:30.313Z</time>
    </trkpt>
    <trkpt lat="56.353948" lon="60.957885">
        <ele>269.6</ele>
        <time>1970-01-01T13:47:31.313Z</time>
    </trkpt>
    <trkpt lat="56.353976" lon="60.957911">
        <ele>269.5</ele>
        <time>1970-01-01T13:47:32.313Z</time>
    </trkpt>
    <trkpt lat="56.353991" lon="60.957925">
        <ele>269.5</ele>
        <time>1970-01-01T13:47:33.313Z</time>
    </trkpt>
    <trkpt lat="56.354019" lon="60.957939">
        <ele>269.5</ele>
        <time>1970-01-01T13:47:34.313Z</time>
    </trkpt>
    <trkpt lat="56.35403" lon="60.957947">
        <ele>269.4</ele>
        <time>1970-01-01T13:47:35.313Z</time>
    </trkpt>
    <trkpt lat="56.354054" lon="60.957971">
        <ele>269.4</ele>
        <time>1970-01-01T13:47:36.313Z</time>
    </trkpt>
    <trkpt lat="56.354085" lon="60.957976">
        <ele>269.3</ele>
        <time>1970-01-01T13:47:37.313Z</time>
    </trkpt>
    <trkpt lat="56.3541" lon="60.957981">
        <ele>269.3</ele>
        <time>1970-01-01T13:47:38.313Z</time>
    </trkpt>
    <trkpt lat="56.354117" lon="60.95799">
        <ele>269.3</ele>
        <time>1970-01-01T13:47:39.313Z</time>
    </trkpt>
    <trkpt lat="56.354132" lon="60.957994">
        <ele>269.3</ele>
        <time>1970-01-01T13:47:40.313Z</time>
    </trkpt>
    <trkpt lat="56.354157" lon="60.958006">
        <ele>269.2</ele>
        <time>1970-01-01T13:47:41.313Z</time>
    </trkpt>
    <trkpt lat="56.354169" lon="60.958007">
        <ele>269.2</ele>
        <time>1970-01-01T13:47:42.313Z</time>
    </trkpt>
    <trkpt lat="56.354199" lon="60.958005">
        <ele>269.2</ele>
        <time>1970-01-01T13:47:43.313Z</time>
    </trkpt>
    <trkpt lat="56.354207" lon="60.957999">
        <ele>269.2</ele>
        <time>1970-01-01T13:47:44.313Z</time>
    </trkpt>
    <trkpt lat="56.354237" lon="60.957991">
        <ele>269.1</ele>
        <time>1970-01-01T13:47:45.313Z</time>
    </trkpt>
    <trkpt lat="56.354247" lon="60.957992">
        <ele>269.1</ele>
        <time>1970-01-01T13:47:46.313Z</time>
    </trkpt>
    <trkpt lat="56.354278" lon="60.957987">
        <ele>269.0</ele>
        <time>1970-01-01T13:47:47.313Z</time>
    </trkpt>
    <trkpt lat="56.354287" lon="60.957986">
        <ele>269.0</ele>
        <time>1970-01-01T13:47:48.313Z</time>
    </trkpt>
    <trkpt lat="56.354297" lon="60.957984">
        <ele>269.0</ele>
        <time>1970-01-01T13:47:49.313Z</time>
    </trkpt>
    <trkpt lat="56.354315" lon="60.957976">
        <ele>269.0</ele>
        <time>1970-01-01T13:47:50.313Z</time>
    </trkpt>
    <trkpt lat="56.354326" lon="60.957966">
        <ele>269.0</ele>
        <time>1970-01-01T13:47:51.313Z</time>
    </trkpt>
    <trkpt lat="56.354329" lon="60.957972">
        <ele>269.0</ele>
        <time>1970-01-01T13:47:52.313Z</time>
    </trkpt>
    <trkpt lat="56.354339" lon="60.957977">
        <ele>268.9</ele>
        <time>1970-01-01T13:47:53.313Z</time>
    </trkpt>
    <trkpt lat="56.354343" lon="60.957972">
        <ele>268.9</ele>
        <time>1970-01-01T13:47:54.313Z</time>
    </trkpt>
    <trkpt lat="56.354353" lon="60.95796">
        <ele>268.9</ele>
        <time>1970-01-01T13:47:55.313Z</time>
    </trkpt>
    <trkpt lat="56.354362" lon="60.957948">
        <ele>268.9</ele>
        <time>1970-01-01T13:47:56.313Z</time>
    </trkpt>
    <trkpt lat="56.354381" lon="60.957926">
        <ele>268.9</ele>
        <time>1970-01-01T13:47:57.313Z</time>
    </trkpt>
    <trkpt lat="56.354396" lon="60.957931">
        <ele>268.8</ele>
        <time>1970-01-01T13:47:58.313Z</time>
    </trkpt>
    <trkpt lat="56.354433" lon="60.957948">
        <ele>268.8</ele>
        <time>1970-01-01T13:47:59.313Z</time>
    </trkpt>
    <trkpt lat="56.354461" lon="60.957956">
        <ele>268.7</ele>
        <time>1970-01-01T13:48:00.313Z</time>
    </trkpt>
    <trkpt lat="56.354476" lon="60.957964">
        <ele>268.7</ele>
        <time>1970-01-01T13:48:01.313Z</time>
    </trkpt>
    <trkpt lat="56.354512" lon="60.957994">
        <ele>268.6</ele>
        <time>1970-01-01T13:48:02.313Z</time>
    </trkpt>
    <trkpt lat="56.354523" lon="60.957996">
        <ele>268.6</ele>
        <time>1970-01-01T13:48:03.313Z</time>
    </trkpt>
    <trkpt lat="56.354535" lon="60.957999">
        <ele>268.6</ele>
        <time>1970-01-01T13:48:04.313Z</time>
    </trkpt>
    <trkpt lat="56.354559" lon="60.958014">
        <ele>268.6</ele>
        <time>1970-01-01T13:48:05.313Z</time>
    </trkpt>
    <trkpt lat="56.354569" lon="60.958014">
        <ele>268.6</ele>
        <time>1970-01-01T13:48:06.313Z</time>
    </trkpt>
    <trkpt lat="56.354588" lon="60.95801">
        <ele>268.5</ele>
        <time>1970-01-01T13:48:07.313Z</time>
    </trkpt>
    <trkpt lat="56.354597" lon="60.958011">
        <ele>268.5</ele>
        <time>1970-01-01T13:48:08.313Z</time>
    </trkpt>
    <trkpt lat="56.354628" lon="60.958021">
        <ele>268.5</ele>
        <time>1970-01-01T13:48:09.313Z</time>
    </trkpt>
    <trkpt lat="56.354643" lon="60.958027">
        <ele>268.4</ele>
        <time>1970-01-01T13:48:10.313Z</time>
    </trkpt>
    <trkpt lat="56.354655" lon="60.958034">
        <ele>268.4</ele>
        <time>1970-01-01T13:48:11.313Z</time>
    </trkpt>
    <trkpt lat="56.354664" lon="60.958049">
        <ele>268.4</ele>
        <time>1970-01-01T13:48:12.313Z</time>
    </trkpt>
    <trkpt lat="56.35469" lon="60.958087">
        <ele>268.4</ele>
        <time>1970-01-01T13:48:13.313Z</time>
    </trkpt>
    <trkpt lat="56.3547" lon="60.958091">
        <ele>268.3</ele>
        <time>1970-01-01T13:48:14.313Z</time>
    </trkpt>
    <trkpt lat="56.35473" lon="60.958101">
        <ele>268.3</ele>
        <time>1970-01-01T13:48:15.313Z</time>
    </trkpt>
    <trkpt lat="56.354744" lon="60.958108">
        <ele>268.3</ele>
        <time>1970-01-01T13:48:16.313Z</time>
    </trkpt>
    <trkpt lat="56.354777" lon="60.958127">
        <ele>268.2</ele>
        <time>1970-01-01T13:48:17.313Z</time>
    </trkpt>
    <trkpt lat="56.354806" lon="60.958134">
        <ele>268.2</ele>
        <time>1970-01-01T13:48:18.313Z</time>
    </trkpt>
    <trkpt lat="56.354817" lon="60.958129">
        <ele>268.1</ele>
        <time>1970-01-01T13:48:19.313Z</time>
    </trkpt>
    <trkpt lat="56.354849" lon="60.958121">
        <ele>268.1</ele>
        <time>1970-01-01T13:48:20.313Z</time>
    </trkpt>
    <trkpt lat="56.354856" lon="60.958118">
        <ele>268.1</ele>
        <time>1970-01-01T13:48:21.313Z</time>
    </trkpt>
    <trkpt lat="56.354885" lon="60.9581">
        <ele>268.0</ele>
        <time>1970-01-01T13:48:22.313Z</time>
    </trkpt>
    <trkpt lat="56.354913" lon="60.958088">
        <ele>268.0</ele>
        <time>1970-01-01T13:48:23.313Z</time>
    </trkpt>
    <trkpt lat="56.354924" lon="60.958079">
        <ele>268.0</ele>
        <time>1970-01-01T13:48:24.313Z</time>
    </trkpt>
    <trkpt lat="56.354957" lon="60.958061">
        <ele>267.9</ele>
        <time>1970-01-01T13:48:25.313Z</time>
    </trkpt>
    <trkpt lat="56.354967" lon="60.958054">
        <ele>267.9</ele>
        <time>1970-01-01T13:48:26.313Z</time>
    </trkpt>
    <trkpt lat="56.355" lon="60.958027">
        <ele>267.9</ele>
        <time>1970-01-01T13:48:27.313Z</time>
    </trkpt>
    <trkpt lat="56.35501" lon="60.958023">
        <ele>267.8</ele>
        <time>1970-01-01T13:48:28.313Z</time>
    </trkpt>
    <trkpt lat="56.355046" lon="60.958022">
        <ele>267.8</ele>
        <time>1970-01-01T13:48:29.313Z</time>
    </trkpt>
    <trkpt lat="56.355054" lon="60.958018">
        <ele>267.8</ele>
        <time>1970-01-01T13:48:30.313Z</time>
    </trkpt>
    <trkpt lat="56.355087" lon="60.958009">
        <ele>267.7</ele>
        <time>1970-01-01T13:48:31.313Z</time>
    </trkpt>
    <trkpt lat="56.3551" lon="60.958003">
        <ele>267.7</ele>
        <time>1970-01-01T13:48:32.313Z</time>
    </trkpt>
    <trkpt lat="56.355127" lon="60.957984">
        <ele>267.6</ele>
        <time>1970-01-01T13:48:33.313Z</time>
    </trkpt>
    <trkpt lat="56.355141" lon="60.957974">
        <ele>267.6</ele>
        <time>1970-01-01T13:48:34.313Z</time>
    </trkpt>
    <trkpt lat="56.35517" lon="60.957957">
        <ele>267.6</ele>
        <time>1970-01-01T13:48:35.313Z</time>
    </trkpt>
    <trkpt lat="56.355178" lon="60.957936">
        <ele>267.6</ele>
        <time>1970-01-01T13:48:36.313Z</time>
    </trkpt>
    <trkpt lat="56.3552" lon="60.957926">
        <ele>267.5</ele>
        <time>1970-01-01T13:48:37.313Z</time>
    </trkpt>
    <trkpt lat="56.355227" lon="60.957903">
        <ele>267.5</ele>
        <time>1970-01-01T13:48:38.313Z</time>
    </trkpt>
    <trkpt lat="56.355235" lon="60.95789">
        <ele>267.5</ele>
        <time>1970-01-01T13:48:39.313Z</time>
    </trkpt>
    <trkpt lat="56.35525" lon="60.957876">
        <ele>267.4</ele>
        <time>1970-01-01T13:48:40.313Z</time>
    </trkpt>
    <trkpt lat="56.355258" lon="60.957871">
        <ele>267.4</ele>
        <time>1970-01-01T13:48:41.313Z</time>
    </trkpt>
    <trkpt lat="56.355265" lon="60.957866">
        <ele>267.4</ele>
        <time>1970-01-01T13:48:42.313Z</time>
    </trkpt>
    <trkpt lat="56.35528" lon="60.957833">
        <ele>267.4</ele>
        <time>1970-01-01T13:48:43.313Z</time>
    </trkpt>
    <trkpt lat="56.355279" lon="60.957813">
        <ele>267.4</ele>
        <time>1970-01-01T13:48:44.313Z</time>
    </trkpt>
    <trkpt lat="56.35529" lon="60.957787">
        <ele>267.3</ele>
        <time>1970-01-01T13:48:45.313Z</time>
    </trkpt>
    <trkpt lat="56.355301" lon="60.957785">
        <ele>267.3</ele>
        <time>1970-01-01T13:48:46.313Z</time>
    </trkpt>
    <trkpt lat="56.355321" lon="60.957774">
        <ele>267.3</ele>
        <time>1970-01-01T13:48:47.313Z</time>
    </trkpt>
    <trkpt lat="56.35534" lon="60.957769">
        <ele>267.2</ele>
        <time>1970-01-01T13:48:48.313Z</time>
    </trkpt>
    <trkpt lat="56.35535" lon="60.957765">
        <ele>267.2</ele>
        <time>1970-01-01T13:48:49.313Z</time>
    </trkpt>
    <trkpt lat="56.355377" lon="60.957761">
        <ele>267.2</ele>
        <time>1970-01-01T13:48:50.313Z</time>
    </trkpt>
    <trkpt lat="56.355386" lon="60.957762">
        <ele>267.2</ele>
        <time>1970-01-01T13:48:51.313Z</time>
    </trkpt>
    <trkpt lat="56.355412" lon="60.957774">
        <ele>267.1</ele>
        <time>1970-01-01T13:48:52.313Z</time>
    </trkpt>
    <trkpt lat="56.355447" lon="60.957785">
        <ele>267.1</ele>
        <time>1970-01-01T13:48:53.313Z</time>
    </trkpt>
    <trkpt lat="56.355492" lon="60.957781">
        <ele>267.0</ele>
        <time>1970-01-01T13:48:54.313Z</time>
    </trkpt>
    <trkpt lat="56.355501" lon="60.95778">
        <ele>267.0</ele>
        <time>1970-01-01T13:48:55.313Z</time>
    </trkpt>
    <trkpt lat="56.355535" lon="60.957766">
        <ele>266.9</ele>
        <time>1970-01-01T13:48:56.313Z</time>
    </trkpt>
    <trkpt lat="56.355543" lon="60.957763">
        <ele>266.9</ele>
        <time>1970-01-01T13:48:57.313Z</time>
    </trkpt>
    <trkpt lat="56.355574" lon="60.957751">
        <ele>266.9</ele>
        <time>1970-01-01T13:48:58.313Z</time>
    </trkpt>
    <trkpt lat="56.355601" lon="60.957766">
        <ele>266.8</ele>
        <time>1970-01-01T13:48:59.313Z</time>
    </trkpt>
    <trkpt lat="56.355617" lon="60.957766">
        <ele>266.8</ele>
        <time>1970-01-01T13:49:00.313Z</time>
    </trkpt>
    <trkpt lat="56.355652" lon="60.957772">
        <ele>266.8</ele>
        <time>1970-01-01T13:49:01.313Z</time>
    </trkpt>
    <trkpt lat="56.355679" lon="60.957764">
        <ele>266.7</ele>
        <time>1970-01-01T13:49:02.313Z</time>
    </trkpt>
    <trkpt lat="56.35569" lon="60.957759">
        <ele>266.7</ele>
        <time>1970-01-01T13:49:03.313Z</time>
    </trkpt>
    <trkpt lat="56.355715" lon="60.957757">
        <ele>266.7</ele>
        <time>1970-01-01T13:49:04.313Z</time>
    </trkpt>
    <trkpt lat="56.355728" lon="60.957753">
        <ele>266.6</ele>
        <time>1970-01-01T13:49:05.313Z</time>
    </trkpt>
    <trkpt lat="56.355757" lon="60.957734">
        <ele>266.6</ele>
        <time>1970-01-01T13:49:06.313Z</time>
    </trkpt>
    <trkpt lat="56.355767" lon="60.957731">
        <ele>266.6</ele>
        <time>1970-01-01T13:49:07.313Z</time>
    </trkpt>
    <trkpt lat="56.355791" lon="60.957713">
        <ele>266.5</ele>
        <time>1970-01-01T13:49:08.313Z</time>
    </trkpt>
    <trkpt lat="56.355811" lon="60.957715">
        <ele>266.5</ele>
        <time>1970-01-01T13:49:09.313Z</time>
    </trkpt>
    <trkpt lat="56.355817" lon="60.957692">
        <ele>266.5</ele>
        <time>1970-01-01T13:49:10.313Z</time>
    </trkpt>
    <trkpt lat="56.355828" lon="60.957671">
        <ele>266.5</ele>
        <time>1970-01-01T13:49:11.313Z</time>
    </trkpt>
    <trkpt lat="56.355843" lon="60.957658">
        <ele>266.4</ele>
        <time>1970-01-01T13:49:12.313Z</time>
    </trkpt>
    <trkpt lat="56.35585" lon="60.957651">
        <ele>266.4</ele>
        <time>1970-01-01T13:49:13.313Z</time>
    </trkpt>
    <trkpt lat="56.355872" lon="60.957632">
        <ele>266.4</ele>
        <time>1970-01-01T13:49:14.313Z</time>
    </trkpt>
    <trkpt lat="56.355896" lon="60.957625">
        <ele>266.3</ele>
        <time>1970-01-01T13:49:15.313Z</time>
    </trkpt>
    <trkpt lat="56.355906" lon="60.957616">
        <ele>266.3</ele>
        <time>1970-01-01T13:49:16.313Z</time>
    </trkpt>
    <trkpt lat="56.355919" lon="60.957614">
        <ele>266.3</ele>
        <time>1970-01-01T13:49:17.313Z</time>
    </trkpt>
    <trkpt lat="56.355945" lon="60.957611">
        <ele>266.3</ele>
        <time>1970-01-01T13:49:18.313Z</time>
    </trkpt>
    <trkpt lat="56.355961" lon="60.957615">
        <ele>266.2</ele>
        <time>1970-01-01T13:49:19.313Z</time>
    </trkpt>
    <trkpt lat="56.355989" lon="60.957621">
        <ele>266.2</ele>
        <time>1970-01-01T13:49:20.313Z</time>
    </trkpt>
    <trkpt lat="56.356001" lon="60.957624">
        <ele>266.2</ele>
        <time>1970-01-01T13:49:21.313Z</time>
    </trkpt>
    <trkpt lat="56.356035" lon="60.957639">
        <ele>266.1</ele>
        <time>1970-01-01T13:49:22.313Z</time>
    </trkpt>
    <trkpt lat="56.356048" lon="60.957646">
        <ele>266.1</ele>
        <time>1970-01-01T13:49:23.313Z</time>
    </trkpt>
    <trkpt lat="56.356086" lon="60.957657">
        <ele>266.0</ele>
        <time>1970-01-01T13:49:24.313Z</time>
    </trkpt>
    <trkpt lat="56.356118" lon="60.957669">
        <ele>266.0</ele>
        <time>1970-01-01T13:49:25.313Z</time>
    </trkpt>
    <trkpt lat="56.356158" lon="60.957676">
        <ele>265.9</ele>
        <time>1970-01-01T13:49:26.313Z</time>
    </trkpt>
    <trkpt lat="56.356167" lon="60.957671">
        <ele>265.9</ele>
        <time>1970-01-01T13:49:27.313Z</time>
    </trkpt>
    <trkpt lat="56.356201" lon="60.957681">
        <ele>265.9</ele>
        <time>1970-01-01T13:49:28.313Z</time>
    </trkpt>
    <trkpt lat="56.356211" lon="60.957684">
        <ele>265.8</ele>
        <time>1970-01-01T13:49:29.313Z</time>
    </trkpt>
    <trkpt lat="56.356248" lon="60.957693">
        <ele>265.8</ele>
        <time>1970-01-01T13:49:30.313Z</time>
    </trkpt>
    <trkpt lat="56.35626" lon="60.95769">
        <ele>265.8</ele>
        <time>1970-01-01T13:49:31.313Z</time>
    </trkpt>
    <trkpt lat="56.356288" lon="60.957678">
        <ele>265.7</ele>
        <time>1970-01-01T13:49:32.313Z</time>
    </trkpt>
    <trkpt lat="56.356301" lon="60.957667">
        <ele>265.7</ele>
        <time>1970-01-01T13:49:33.313Z</time>
    </trkpt>
    <trkpt lat="56.356328" lon="60.957635">
        <ele>265.6</ele>
        <time>1970-01-01T13:49:34.313Z</time>
    </trkpt>
    <trkpt lat="56.356351" lon="60.957632">
        <ele>265.6</ele>
        <time>1970-01-01T13:49:35.313Z</time>
    </trkpt>
    <trkpt lat="56.356387" lon="60.957631">
        <ele>265.6</ele>
        <time>1970-01-01T13:49:36.313Z</time>
    </trkpt>
    <trkpt lat="56.356393" lon="60.957616">
        <ele>265.5</ele>
        <time>1970-01-01T13:49:37.313Z</time>
    </trkpt>
    <trkpt lat="56.356405" lon="60.957595">
        <ele>265.5</ele>
        <time>1970-01-01T13:49:38.313Z</time>
    </trkpt>
    <trkpt lat="56.356413" lon="60.957568">
        <ele>265.5</ele>
        <time>1970-01-01T13:49:39.313Z</time>
    </trkpt>
    <trkpt lat="56.356432" lon="60.957559">
        <ele>265.5</ele>
        <time>1970-01-01T13:49:40.313Z</time>
    </trkpt>
    <trkpt lat="56.356444" lon="60.957542">
        <ele>265.4</ele>
        <time>1970-01-01T13:49:41.313Z</time>
    </trkpt>
    <trkpt lat="56.356473" lon="60.957514">
        <ele>265.4</ele>
        <time>1970-01-01T13:49:42.313Z</time>
    </trkpt>
    <trkpt lat="56.356484" lon="60.957482">
        <ele>265.4</ele>
        <time>1970-01-01T13:49:43.313Z</time>
    </trkpt>
    <trkpt lat="56.356493" lon="60.957462">
        <ele>265.3</ele>
        <time>1970-01-01T13:49:44.313Z</time>
    </trkpt>
    <trkpt lat="56.356503" lon="60.957449">
        <ele>265.3</ele>
        <time>1970-01-01T13:49:45.313Z</time>
    </trkpt>
    <trkpt lat="56.356531" lon="60.957424">
        <ele>265.3</ele>
        <time>1970-01-01T13:49:46.313Z</time>
    </trkpt>
    <trkpt lat="56.356535" lon="60.957407">
        <ele>265.2</ele>
        <time>1970-01-01T13:49:47.313Z</time>
    </trkpt>
    <trkpt lat="56.356538" lon="60.957389">
        <ele>265.2</ele>
        <time>1970-01-01T13:49:48.313Z</time>
    </trkpt>
    <trkpt lat="56.356555" lon="60.957358">
        <ele>265.2</ele>
        <time>1970-01-01T13:49:49.313Z</time>
    </trkpt>
    <trkpt lat="56.35657" lon="60.957347">
        <ele>265.2</ele>
        <time>1970-01-01T13:49:50.313Z</time>
    </trkpt>
    <trkpt lat="56.356584" lon="60.957334">
        <ele>265.1</ele>
        <time>1970-01-01T13:49:51.313Z</time>
    </trkpt>
    <trkpt lat="56.356596" lon="60.957322">
        <ele>265.1</ele>
        <time>1970-01-01T13:49:52.313Z</time>
    </trkpt>
    <trkpt lat="56.3566" lon="60.957313">
        <ele>265.1</ele>
        <time>1970-01-01T13:49:53.313Z</time>
    </trkpt>
    <trkpt lat="56.356612" lon="60.957298">
        <ele>265.1</ele>
        <time>1970-01-01T13:49:54.313Z</time>
    </trkpt>
    <trkpt lat="56.356631" lon="60.957295">
        <ele>265.1</ele>
        <time>1970-01-01T13:49:55.313Z</time>
    </trkpt>
    <trkpt lat="56.356643" lon="60.957288">
        <ele>265.0</ele>
        <time>1970-01-01T13:49:56.313Z</time>
    </trkpt>
    <trkpt lat="56.356661" lon="60.957275">
        <ele>265.0</ele>
        <time>1970-01-01T13:49:57.313Z</time>
    </trkpt>
    <trkpt lat="56.356675" lon="60.957261">
        <ele>265.0</ele>
        <time>1970-01-01T13:49:58.313Z</time>
    </trkpt>
    <trkpt lat="56.356685" lon="60.957262">
        <ele>265.0</ele>
        <time>1970-01-01T13:49:59.313Z</time>
    </trkpt>
    <trkpt lat="56.356717" lon="60.95726">
        <ele>264.9</ele>
        <time>1970-01-01T13:50:00.313Z</time>
    </trkpt>
    <trkpt lat="56.356728" lon="60.957263">
        <ele>264.8</ele>
        <time>1970-01-01T13:50:01.313Z</time>
    </trkpt>
    <trkpt lat="56.356763" lon="60.95728">
        <ele>264.8</ele>
        <time>1970-01-01T13:50:02.313Z</time>
    </trkpt>
    <trkpt lat="56.356775" lon="60.957289">
        <ele>264.7</ele>
        <time>1970-01-01T13:50:03.313Z</time>
    </trkpt>
    <trkpt lat="56.356814" lon="60.957306">
        <ele>264.6</ele>
        <time>1970-01-01T13:50:04.313Z</time>
    </trkpt>
    <trkpt lat="56.356828" lon="60.957308">
        <ele>264.6</ele>
        <time>1970-01-01T13:50:05.313Z</time>
    </trkpt>
    <trkpt lat="56.356865" lon="60.957326">
        <ele>264.5</ele>
        <time>1970-01-01T13:50:06.313Z</time>
    </trkpt>
    <trkpt lat="56.356893" lon="60.957341">
        <ele>264.4</ele>
        <time>1970-01-01T13:50:07.313Z</time>
    </trkpt>
    <trkpt lat="56.356906" lon="60.957343">
        <ele>264.4</ele>
        <time>1970-01-01T13:50:08.313Z</time>
    </trkpt>
    <trkpt lat="56.356935" lon="60.957343">
        <ele>264.3</ele>
        <time>1970-01-01T13:50:09.313Z</time>
    </trkpt>
    <trkpt lat="56.356946" lon="60.957343">
        <ele>264.3</ele>
        <time>1970-01-01T13:50:10.313Z</time>
    </trkpt>
    <trkpt lat="56.356977" lon="60.95735">
        <ele>264.2</ele>
        <time>1970-01-01T13:50:11.313Z</time>
    </trkpt>
    <trkpt lat="56.356989" lon="60.957355">
        <ele>264.2</ele>
        <time>1970-01-01T13:50:12.313Z</time>
    </trkpt>
    <trkpt lat="56.357008" lon="60.957346">
        <ele>264.1</ele>
        <time>1970-01-01T13:50:13.313Z</time>
    </trkpt>
    <trkpt lat="56.357017" lon="60.957345">
        <ele>264.1</ele>
        <time>1970-01-01T13:50:14.313Z</time>
    </trkpt>
    <trkpt lat="56.357047" lon="60.957339">
        <ele>264.0</ele>
        <time>1970-01-01T13:50:15.313Z</time>
    </trkpt>
    <trkpt lat="56.357067" lon="60.957329">
        <ele>264.0</ele>
        <time>1970-01-01T13:50:16.313Z</time>
    </trkpt>
    <trkpt lat="56.357081" lon="60.957322">
        <ele>263.9</ele>
        <time>1970-01-01T13:50:17.313Z</time>
    </trkpt>
    <trkpt lat="56.357095" lon="60.957317">
        <ele>263.9</ele>
        <time>1970-01-01T13:50:18.313Z</time>
    </trkpt>
    <trkpt lat="56.357125" lon="60.957307">
        <ele>263.8</ele>
        <time>1970-01-01T13:50:19.313Z</time>
    </trkpt>
    <trkpt lat="56.357136" lon="60.957298">
        <ele>263.8</ele>
        <time>1970-01-01T13:50:20.313Z</time>
    </trkpt>
    <trkpt lat="56.357167" lon="60.957286">
        <ele>263.7</ele>
        <time>1970-01-01T13:50:21.313Z</time>
    </trkpt>
    <trkpt lat="56.357188" lon="60.95729">
        <ele>263.7</ele>
        <time>1970-01-01T13:50:22.313Z</time>
    </trkpt>
    <trkpt lat="56.357231" lon="60.957299">
        <ele>263.6</ele>
        <time>1970-01-01T13:50:23.313Z</time>
    </trkpt>
    <trkpt lat="56.357246" lon="60.957298">
        <ele>263.5</ele>
        <time>1970-01-01T13:50:24.313Z</time>
    </trkpt>
    <trkpt lat="56.357285" lon="60.957298">
        <ele>263.4</ele>
        <time>1970-01-01T13:50:25.313Z</time>
    </trkpt>
    <trkpt lat="56.357296" lon="60.957298">
        <ele>263.4</ele>
        <time>1970-01-01T13:50:26.313Z</time>
    </trkpt>
    <trkpt lat="56.357327" lon="60.957297">
        <ele>263.3</ele>
        <time>1970-01-01T13:50:27.313Z</time>
    </trkpt>
    <trkpt lat="56.357356" lon="60.957301">
        <ele>263.3</ele>
        <time>1970-01-01T13:50:28.313Z</time>
    </trkpt>
    <trkpt lat="56.357366" lon="60.957303">
        <ele>263.2</ele>
        <time>1970-01-01T13:50:29.313Z</time>
    </trkpt>
    <trkpt lat="56.357395" lon="60.957303">
        <ele>263.2</ele>
        <time>1970-01-01T13:50:30.313Z</time>
    </trkpt>
    <trkpt lat="56.357414" lon="60.957298">
        <ele>263.1</ele>
        <time>1970-01-01T13:50:31.313Z</time>
    </trkpt>
    <trkpt lat="56.357447" lon="60.957296">
        <ele>263.0</ele>
        <time>1970-01-01T13:50:32.313Z</time>
    </trkpt>
    <trkpt lat="56.357461" lon="60.957302">
        <ele>263.0</ele>
        <time>1970-01-01T13:50:33.313Z</time>
    </trkpt>
    <trkpt lat="56.357476" lon="60.9573">
        <ele>263.0</ele>
        <time>1970-01-01T13:50:34.313Z</time>
    </trkpt>
    <trkpt lat="56.35749" lon="60.957299">
        <ele>262.9</ele>
        <time>1970-01-01T13:50:35.313Z</time>
    </trkpt>
    <trkpt lat="56.357504" lon="60.957299">
        <ele>262.9</ele>
        <time>1970-01-01T13:50:36.313Z</time>
    </trkpt>
    <trkpt lat="56.357518" lon="60.957302">
        <ele>262.9</ele>
        <time>1970-01-01T13:50:37.313Z</time>
    </trkpt>
    <trkpt lat="56.357537" lon="60.957295">
        <ele>262.8</ele>
        <time>1970-01-01T13:50:38.313Z</time>
    </trkpt>
    <trkpt lat="56.357548" lon="60.95729">
        <ele>262.8</ele>
        <time>1970-01-01T13:50:39.313Z</time>
    </trkpt>
    <trkpt lat="56.357581" lon="60.957283">
        <ele>262.7</ele>
        <time>1970-01-01T13:50:40.313Z</time>
    </trkpt>
    <trkpt lat="56.357593" lon="60.957277">
        <ele>262.7</ele>
        <time>1970-01-01T13:50:41.313Z</time>
    </trkpt>
    <trkpt lat="56.35763" lon="60.957273">
        <ele>262.6</ele>
        <time>1970-01-01T13:50:42.313Z</time>
    </trkpt>
    <trkpt lat="56.357645" lon="60.957277">
        <ele>262.5</ele>
        <time>1970-01-01T13:50:43.313Z</time>
    </trkpt>
    <trkpt lat="56.357687" lon="60.957284">
        <ele>262.4</ele>
        <time>1970-01-01T13:50:44.313Z</time>
    </trkpt>
    <trkpt lat="56.357699" lon="60.957287">
        <ele>262.4</ele>
        <time>1970-01-01T13:50:45.313Z</time>
    </trkpt>
    <trkpt lat="56.35773" lon="60.957282">
        <ele>262.3</ele>
        <time>1970-01-01T13:50:46.313Z</time>
    </trkpt>
    <trkpt lat="56.357744" lon="60.957285">
        <ele>262.3</ele>
        <time>1970-01-01T13:50:47.313Z</time>
    </trkpt>
    <trkpt lat="56.357784" lon="60.957281">
        <ele>262.2</ele>
        <time>1970-01-01T13:50:48.313Z</time>
    </trkpt>
    <trkpt lat="56.357798" lon="60.957276">
        <ele>262.2</ele>
        <time>1970-01-01T13:50:49.313Z</time>
    </trkpt>
    <trkpt lat="56.357834" lon="60.957275">
        <ele>262.1</ele>
        <time>1970-01-01T13:50:50.313Z</time>
    </trkpt>
    <trkpt lat="56.357866" lon="60.957266">
        <ele>262.0</ele>
        <time>1970-01-01T13:50:51.313Z</time>
    </trkpt>
    <trkpt lat="56.357883" lon="60.957266">
        <ele>261.9</ele>
        <time>1970-01-01T13:50:52.313Z</time>
    </trkpt>
    <trkpt lat="56.3579" lon="60.957263">
        <ele>261.9</ele>
        <time>1970-01-01T13:50:53.313Z</time>
    </trkpt>
    <trkpt lat="56.357921" lon="60.957261">
        <ele>261.8</ele>
        <time>1970-01-01T13:50:54.313Z</time>
    </trkpt>
    <trkpt lat="56.357934" lon="60.957267">
        <ele>261.8</ele>
        <time>1970-01-01T13:50:55.313Z</time>
    </trkpt>
    <trkpt lat="56.357968" lon="60.957262">
        <ele>261.7</ele>
        <time>1970-01-01T13:50:56.313Z</time>
    </trkpt>
    <trkpt lat="56.357987" lon="60.957258">
        <ele>261.7</ele>
        <time>1970-01-01T13:50:57.313Z</time>
    </trkpt>
    <trkpt lat="56.358001" lon="60.95726">
        <ele>261.6</ele>
        <time>1970-01-01T13:50:58.313Z</time>
    </trkpt>
    <trkpt lat="56.358017" lon="60.957255">
        <ele>261.6</ele>
        <time>1970-01-01T13:50:59.313Z</time>
    </trkpt>
    <trkpt lat="56.358036" lon="60.957249">
        <ele>261.6</ele>
        <time>1970-01-01T13:51:00.313Z</time>
    </trkpt>
    <trkpt lat="56.358046" lon="60.957251">
        <ele>261.5</ele>
        <time>1970-01-01T13:51:01.313Z</time>
    </trkpt>
    <trkpt lat="56.358079" lon="60.957261">
        <ele>261.5</ele>
        <time>1970-01-01T13:51:02.313Z</time>
    </trkpt>
    <trkpt lat="56.358089" lon="60.95726">
        <ele>261.4</ele>
        <time>1970-01-01T13:51:03.313Z</time>
    </trkpt>
    <trkpt lat="56.358116" lon="60.957262">
        <ele>261.4</ele>
        <time>1970-01-01T13:51:04.313Z</time>
    </trkpt>
    <trkpt lat="56.358129" lon="60.957257">
        <ele>261.3</ele>
        <time>1970-01-01T13:51:05.313Z</time>
    </trkpt>
    <trkpt lat="56.358143" lon="60.957253">
        <ele>261.3</ele>
        <time>1970-01-01T13:51:06.313Z</time>
    </trkpt>
    <trkpt lat="56.358165" lon="60.957251">
        <ele>261.2</ele>
        <time>1970-01-01T13:51:07.313Z</time>
    </trkpt>
    <trkpt lat="56.358196" lon="60.957247">
        <ele>261.2</ele>
        <time>1970-01-01T13:51:08.313Z</time>
    </trkpt>
    <trkpt lat="56.358217" lon="60.957247">
        <ele>261.1</ele>
        <time>1970-01-01T13:51:09.313Z</time>
    </trkpt>
    <trkpt lat="56.358224" lon="60.957241">
        <ele>261.1</ele>
        <time>1970-01-01T13:51:10.313Z</time>
    </trkpt>
    <trkpt lat="56.358239" lon="60.957242">
        <ele>261.1</ele>
        <time>1970-01-01T13:51:11.313Z</time>
    </trkpt>
    <trkpt lat="56.358277" lon="60.957245">
        <ele>261.0</ele>
        <time>1970-01-01T13:51:12.313Z</time>
    </trkpt>
    <trkpt lat="56.358288" lon="60.957242">
        <ele>260.9</ele>
        <time>1970-01-01T13:51:13.313Z</time>
    </trkpt>
    <trkpt lat="56.358322" lon="60.957238">
        <ele>260.8</ele>
        <time>1970-01-01T13:51:14.313Z</time>
    </trkpt>
    <trkpt lat="56.358332" lon="60.957235">
        <ele>260.8</ele>
        <time>1970-01-01T13:51:15.313Z</time>
    </trkpt>
    <trkpt lat="56.358366" lon="60.957235">
        <ele>260.7</ele>
        <time>1970-01-01T13:51:16.313Z</time>
    </trkpt>
    <trkpt lat="56.358399" lon="60.957239">
        <ele>260.7</ele>
        <time>1970-01-01T13:51:17.313Z</time>
    </trkpt>
    <trkpt lat="56.358412" lon="60.957244">
        <ele>260.6</ele>
        <time>1970-01-01T13:51:18.313Z</time>
    </trkpt>
    <trkpt lat="56.358445" lon="60.957253">
        <ele>260.5</ele>
        <time>1970-01-01T13:51:19.313Z</time>
    </trkpt>
    <trkpt lat="56.358457" lon="60.957254">
        <ele>260.5</ele>
        <time>1970-01-01T13:51:20.313Z</time>
    </trkpt>
    <trkpt lat="56.358492" lon="60.957244">
        <ele>260.4</ele>
        <time>1970-01-01T13:51:21.313Z</time>
    </trkpt>
    <trkpt lat="56.358505" lon="60.957241">
        <ele>260.4</ele>
        <time>1970-01-01T13:51:22.313Z</time>
    </trkpt>
    <trkpt lat="56.358543" lon="60.957232">
        <ele>260.3</ele>
        <time>1970-01-01T13:51:23.313Z</time>
    </trkpt>
    <trkpt lat="56.358556" lon="60.957233">
        <ele>260.3</ele>
        <time>1970-01-01T13:51:24.313Z</time>
    </trkpt>
    <trkpt lat="56.358594" lon="60.957248">
        <ele>260.2</ele>
        <time>1970-01-01T13:51:25.313Z</time>
    </trkpt>
    <trkpt lat="56.358608" lon="60.957249">
        <ele>260.1</ele>
        <time>1970-01-01T13:51:26.313Z</time>
    </trkpt>
    <trkpt lat="56.358643" lon="60.957238">
        <ele>260.0</ele>
        <time>1970-01-01T13:51:27.313Z</time>
    </trkpt>
    <trkpt lat="56.358678" lon="60.957245">
        <ele>260.0</ele>
        <time>1970-01-01T13:51:28.313Z</time>
    </trkpt>
    <trkpt lat="56.358688" lon="60.957247">
        <ele>259.9</ele>
        <time>1970-01-01T13:51:29.313Z</time>
    </trkpt>
    <trkpt lat="56.358718" lon="60.95725">
        <ele>259.9</ele>
        <time>1970-01-01T13:51:30.313Z</time>
    </trkpt>
    <trkpt lat="56.35873" lon="60.957249">
        <ele>259.8</ele>
        <time>1970-01-01T13:51:31.313Z</time>
    </trkpt>
    <trkpt lat="56.358757" lon="60.957254">
        <ele>259.8</ele>
        <time>1970-01-01T13:51:32.313Z</time>
    </trkpt>
    <trkpt lat="56.35877" lon="60.957254">
        <ele>259.7</ele>
        <time>1970-01-01T13:51:33.313Z</time>
    </trkpt>
    <trkpt lat="56.358797" lon="60.957256">
        <ele>259.7</ele>
        <time>1970-01-01T13:51:34.313Z</time>
    </trkpt>
    <trkpt lat="56.358808" lon="60.957266">
        <ele>259.6</ele>
        <time>1970-01-01T13:51:35.313Z</time>
    </trkpt>
    <trkpt lat="56.358827" lon="60.957264">
        <ele>259.6</ele>
        <time>1970-01-01T13:51:36.313Z</time>
    </trkpt>
    <trkpt lat="56.358846" lon="60.957272">
        <ele>259.5</ele>
        <time>1970-01-01T13:51:37.313Z</time>
    </trkpt>
    <trkpt lat="56.35886" lon="60.957267">
        <ele>259.5</ele>
        <time>1970-01-01T13:51:38.313Z</time>
    </trkpt>
    <trkpt lat="56.358869" lon="60.957263">
        <ele>259.5</ele>
        <time>1970-01-01T13:51:39.313Z</time>
    </trkpt>
    <trkpt lat="56.358896" lon="60.957256">
        <ele>259.4</ele>
        <time>1970-01-01T13:51:40.313Z</time>
    </trkpt>
    <trkpt lat="56.358903" lon="60.95725">
        <ele>259.4</ele>
        <time>1970-01-01T13:51:41.313Z</time>
    </trkpt>
    <trkpt lat="56.358933" lon="60.957234">
        <ele>259.3</ele>
        <time>1970-01-01T13:51:42.313Z</time>
    </trkpt>
    <trkpt lat="56.358947" lon="60.957232">
        <ele>259.3</ele>
        <time>1970-01-01T13:51:43.313Z</time>
    </trkpt>
    <trkpt lat="56.358977" lon="60.957228">
        <ele>259.2</ele>
        <time>1970-01-01T13:51:44.313Z</time>
    </trkpt>
    <trkpt lat="56.358996" lon="60.957219">
        <ele>259.1</ele>
        <time>1970-01-01T13:51:45.313Z</time>
    </trkpt>
    <trkpt lat="56.359007" lon="60.957216">
        <ele>259.1</ele>
        <time>1970-01-01T13:51:46.313Z</time>
    </trkpt>
    <trkpt lat="56.359019" lon="60.957216">
        <ele>259.1</ele>
        <time>1970-01-01T13:51:47.313Z</time>
    </trkpt>
    <trkpt lat="56.359046" lon="60.957213">
        <ele>259.0</ele>
        <time>1970-01-01T13:51:48.313Z</time>
    </trkpt>
    <trkpt lat="56.359053" lon="60.957211">
        <ele>259.0</ele>
        <time>1970-01-01T13:51:49.313Z</time>
    </trkpt>
    <trkpt lat="56.35906" lon="60.957208">
        <ele>259.0</ele>
        <time>1970-01-01T13:51:50.313Z</time>
    </trkpt>
    <trkpt lat="56.359066" lon="60.957205">
        <ele>259.0</ele>
        <time>1970-01-01T13:51:51.313Z</time>
    </trkpt>
    <trkpt lat="56.359073" lon="60.957202">
        <ele>259.0</ele>
        <time>1970-01-01T13:51:52.313Z</time>
    </trkpt>
    <trkpt lat="56.359087" lon="60.957208">
        <ele>258.9</ele>
        <time>1970-01-01T13:51:53.313Z</time>
    </trkpt>
    <trkpt lat="56.359089" lon="60.957199">
        <ele>258.9</ele>
        <time>1970-01-01T13:51:54.313Z</time>
    </trkpt>
    <trkpt lat="56.359101" lon="60.957186">
        <ele>258.9</ele>
        <time>1970-01-01T13:51:55.313Z</time>
    </trkpt>
    <trkpt lat="56.359112" lon="60.957187">
        <ele>258.8</ele>
        <time>1970-01-01T13:51:56.313Z</time>
    </trkpt>
    <trkpt lat="56.359127" lon="60.957188">
        <ele>258.8</ele>
        <time>1970-01-01T13:51:57.313Z</time>
    </trkpt>
    <trkpt lat="56.359141" lon="60.957178">
        <ele>258.8</ele>
        <time>1970-01-01T13:51:58.313Z</time>
    </trkpt>
    <trkpt lat="56.35915" lon="60.957174">
        <ele>258.7</ele>
        <time>1970-01-01T13:51:59.313Z</time>
    </trkpt>
    <trkpt lat="56.359158" lon="60.957169">
        <ele>258.7</ele>
        <time>1970-01-01T13:52:00.313Z</time>
    </trkpt>
    <trkpt lat="56.35918" lon="60.957166">
        <ele>258.7</ele>
        <time>1970-01-01T13:52:01.313Z</time>
    </trkpt>
    <trkpt lat="56.35919" lon="60.957168">
        <ele>258.6</ele>
        <time>1970-01-01T13:52:02.313Z</time>
    </trkpt>
    <trkpt lat="56.359201" lon="60.957171">
        <ele>258.6</ele>
        <time>1970-01-01T13:52:03.313Z</time>
    </trkpt>
    <trkpt lat="56.359217" lon="60.957171">
        <ele>258.6</ele>
        <time>1970-01-01T13:52:04.313Z</time>
    </trkpt>
    <trkpt lat="56.359224" lon="60.957172">
        <ele>258.6</ele>
        <time>1970-01-01T13:52:05.313Z</time>
    </trkpt>
    <trkpt lat="56.359231" lon="60.957173">
        <ele>258.5</ele>
        <time>1970-01-01T13:52:06.313Z</time>
    </trkpt>
    <trkpt lat="56.359239" lon="60.957173">
        <ele>258.5</ele>
        <time>1970-01-01T13:52:07.313Z</time>
    </trkpt>
    <trkpt lat="56.359246" lon="60.957174">
        <ele>258.5</ele>
        <time>1970-01-01T13:52:08.313Z</time>
    </trkpt>
    <trkpt lat="56.359253" lon="60.957175">
        <ele>258.5</ele>
        <time>1970-01-01T13:52:09.313Z</time>
    </trkpt>
    <trkpt lat="56.35926" lon="60.957176">
        <ele>258.5</ele>
        <time>1970-01-01T13:52:10.313Z</time>
    </trkpt>
    <trkpt lat="56.359267" lon="60.957176">
        <ele>258.5</ele>
        <time>1970-01-01T13:52:11.313Z</time>
    </trkpt>
    <trkpt lat="56.359275" lon="60.957177">
        <ele>258.4</ele>
        <time>1970-01-01T13:52:12.313Z</time>
    </trkpt>
    <trkpt lat="56.359282" lon="60.957178">
        <ele>258.4</ele>
        <time>1970-01-01T13:52:13.313Z</time>
    </trkpt>
    <trkpt lat="56.359289" lon="60.957179">
        <ele>258.4</ele>
        <time>1970-01-01T13:52:14.313Z</time>
    </trkpt>
    <trkpt lat="56.359296" lon="60.95718">
        <ele>258.4</ele>
        <time>1970-01-01T13:52:15.313Z</time>
    </trkpt>
    <trkpt lat="56.359303" lon="60.95718">
        <ele>258.4</ele>
        <time>1970-01-01T13:52:16.313Z</time>
    </trkpt>
    <trkpt lat="56.359311" lon="60.957181">
        <ele>258.3</ele>
        <time>1970-01-01T13:52:17.313Z</time>
    </trkpt>
    <trkpt lat="56.359318" lon="60.957182">
        <ele>258.3</ele>
        <time>1970-01-01T13:52:18.313Z</time>
    </trkpt>
    <trkpt lat="56.359325" lon="60.957183">
        <ele>258.3</ele>
        <time>1970-01-01T13:52:19.313Z</time>
    </trkpt>
    <trkpt lat="56.359332" lon="60.957183">
        <ele>258.3</ele>
        <time>1970-01-01T13:52:20.313Z</time>
    </trkpt>
    <trkpt lat="56.35934" lon="60.957184">
        <ele>258.3</ele>
        <time>1970-01-01T13:52:21.313Z</time>
    </trkpt>
    <trkpt lat="56.359347" lon="60.957185">
        <ele>258.3</ele>
        <time>1970-01-01T13:52:22.313Z</time>
    </trkpt>
    <trkpt lat="56.359354" lon="60.957186">
        <ele>258.2</ele>
        <time>1970-01-01T13:52:23.313Z</time>
    </trkpt>
    <trkpt lat="56.359361" lon="60.957186">
        <ele>258.2</ele>
        <time>1970-01-01T13:52:24.313Z</time>
    </trkpt>
    <trkpt lat="56.359368" lon="60.957187">
        <ele>258.2</ele>
        <time>1970-01-01T13:52:25.313Z</time>
    </trkpt>
    <trkpt lat="56.359376" lon="60.957188">
        <ele>258.2</ele>
        <time>1970-01-01T13:52:26.313Z</time>
    </trkpt>
    <trkpt lat="56.359383" lon="60.957189">
        <ele>258.2</ele>
        <time>1970-01-01T13:52:27.313Z</time>
    </trkpt>
    <trkpt lat="56.35939" lon="60.957189">
        <ele>258.1</ele>
        <time>1970-01-01T13:52:28.313Z</time>
    </trkpt>
    <trkpt lat="56.359397" lon="60.95719">
        <ele>258.1</ele>
        <time>1970-01-01T13:52:29.313Z</time>
    </trkpt>
    <trkpt lat="56.359404" lon="60.957191">
        <ele>258.1</ele>
        <time>1970-01-01T13:52:30.313Z</time>
    </trkpt>
    <trkpt lat="56.359416" lon="60.957194">
        <ele>258.1</ele>
        <time>1970-01-01T13:52:31.313Z</time>
    </trkpt>
    <trkpt lat="56.359422" lon="60.957193">
        <ele>258.1</ele>
        <time>1970-01-01T13:52:32.313Z</time>
    </trkpt>
    <trkpt lat="56.359428" lon="60.957187">
        <ele>258.1</ele>
        <time>1970-01-01T13:52:33.313Z</time>
    </trkpt>
    <trkpt lat="56.359432" lon="60.95719">
        <ele>258.0</ele>
        <time>1970-01-01T13:52:34.313Z</time>
    </trkpt>
    <trkpt lat="56.359436" lon="60.957185">
        <ele>258.0</ele>
        <time>1970-01-01T13:52:35.313Z</time>
    </trkpt>
    <trkpt lat="56.359431" lon="60.957195">
        <ele>258.0</ele>
        <time>1970-01-01T13:52:36.313Z</time>
    </trkpt>
    <trkpt lat="56.359435" lon="60.957189">
        <ele>258.0</ele>
        <time>1970-01-01T13:52:37.313Z</time>
    </trkpt>
    <trkpt lat="56.359444" lon="60.957189">
        <ele>258.0</ele>
        <time>1970-01-01T13:52:38.313Z</time>
    </trkpt>
    <trkpt lat="56.359456" lon="60.957182">
        <ele>257.9</ele>
        <time>1970-01-01T13:52:39.313Z</time>
    </trkpt>
    <trkpt lat="56.359463" lon="60.957179">
        <ele>257.9</ele>
        <time>1970-01-01T13:52:40.313Z</time>
    </trkpt>
    <trkpt lat="56.359475" lon="60.957175">
        <ele>257.9</ele>
        <time>1970-01-01T13:52:41.313Z</time>
    </trkpt>
    <trkpt lat="56.359484" lon="60.957172">
        <ele>257.9</ele>
        <time>1970-01-01T13:52:42.313Z</time>
    </trkpt>
    <trkpt lat="56.359493" lon="60.957169">
        <ele>257.9</ele>
        <time>1970-01-01T13:52:43.313Z</time>
    </trkpt>
    <trkpt lat="56.359506" lon="60.957169">
        <ele>257.8</ele>
        <time>1970-01-01T13:52:44.313Z</time>
    </trkpt>
    <trkpt lat="56.359521" lon="60.957164">
        <ele>257.8</ele>
        <time>1970-01-01T13:52:45.313Z</time>
    </trkpt>
    <trkpt lat="56.359531" lon="60.957164">
        <ele>257.8</ele>
        <time>1970-01-01T13:52:46.313Z</time>
    </trkpt>
    <trkpt lat="56.35954" lon="60.957158">
        <ele>257.7</ele>
        <time>1970-01-01T13:52:47.313Z</time>
    </trkpt>
    <trkpt lat="56.359551" lon="60.957158">
        <ele>257.7</ele>
        <time>1970-01-01T13:52:48.313Z</time>
    </trkpt>
    <trkpt lat="56.359562" lon="60.957158">
        <ele>257.7</ele>
        <time>1970-01-01T13:52:49.313Z</time>
    </trkpt>
    <trkpt lat="56.359578" lon="60.957158">
        <ele>257.6</ele>
        <time>1970-01-01T13:52:50.313Z</time>
    </trkpt>
    <trkpt lat="56.359594" lon="60.957152">
        <ele>257.6</ele>
        <time>1970-01-01T13:52:51.313Z</time>
    </trkpt>
    <trkpt lat="56.359598" lon="60.957147">
        <ele>257.6</ele>
        <time>1970-01-01T13:52:52.313Z</time>
    </trkpt>
    <trkpt lat="56.359612" lon="60.957146">
        <ele>257.6</ele>
        <time>1970-01-01T13:52:53.313Z</time>
    </trkpt>
    <trkpt lat="56.359621" lon="60.957144">
        <ele>257.5</ele>
        <time>1970-01-01T13:52:54.313Z</time>
    </trkpt>
    <trkpt lat="56.35963" lon="60.957143">
        <ele>257.5</ele>
        <time>1970-01-01T13:52:55.313Z</time>
    </trkpt>
    <trkpt lat="56.359639" lon="60.957141">
        <ele>257.5</ele>
        <time>1970-01-01T13:52:56.313Z</time>
    </trkpt>
    <trkpt lat="56.35965" lon="60.957138">
        <ele>257.5</ele>
        <time>1970-01-01T13:52:57.313Z</time>
    </trkpt>
    <trkpt lat="56.35966" lon="60.957132">
        <ele>257.4</ele>
        <time>1970-01-01T13:52:58.313Z</time>
    </trkpt>
    <trkpt lat="56.359674" lon="60.957138">
        <ele>257.4</ele>
        <time>1970-01-01T13:52:59.313Z</time>
    </trkpt>
    <trkpt lat="56.359684" lon="60.957132">
        <ele>257.4</ele>
        <time>1970-01-01T13:53:00.313Z</time>
    </trkpt>
    <trkpt lat="56.359694" lon="60.957135">
        <ele>257.3</ele>
        <time>1970-01-01T13:53:01.313Z</time>
    </trkpt>
    <trkpt lat="56.359703" lon="60.957138">
        <ele>257.3</ele>
        <time>1970-01-01T13:53:02.313Z</time>
    </trkpt>
    <trkpt lat="56.359723" lon="60.957136">
        <ele>257.3</ele>
        <time>1970-01-01T13:53:03.313Z</time>
    </trkpt>
    <trkpt lat="56.359744" lon="60.957128">
        <ele>257.2</ele>
        <time>1970-01-01T13:53:04.313Z</time>
    </trkpt>
    <trkpt lat="56.359751" lon="60.957133">
        <ele>257.2</ele>
        <time>1970-01-01T13:53:05.313Z</time>
    </trkpt>
    <trkpt lat="56.359759" lon="60.957131">
        <ele>257.2</ele>
        <time>1970-01-01T13:53:06.313Z</time>
    </trkpt>
    <trkpt lat="56.359766" lon="60.957129">
        <ele>257.2</ele>
        <time>1970-01-01T13:53:07.313Z</time>
    </trkpt>
    <trkpt lat="56.359774" lon="60.957127">
        <ele>257.1</ele>
        <time>1970-01-01T13:53:08.313Z</time>
    </trkpt>
    <trkpt lat="56.359791" lon="60.957119">
        <ele>257.1</ele>
        <time>1970-01-01T13:53:09.313Z</time>
    </trkpt>
    <trkpt lat="56.359802" lon="60.957123">
        <ele>257.1</ele>
        <time>1970-01-01T13:53:10.313Z</time>
    </trkpt>
    <trkpt lat="56.359821" lon="60.957122">
        <ele>257.0</ele>
        <time>1970-01-01T13:53:11.313Z</time>
    </trkpt>
    <trkpt lat="56.359828" lon="60.957121">
        <ele>257.0</ele>
        <time>1970-01-01T13:53:12.313Z</time>
    </trkpt>
    <trkpt lat="56.359837" lon="60.957124">
        <ele>257.0</ele>
        <time>1970-01-01T13:53:13.313Z</time>
    </trkpt>
    <trkpt lat="56.359849" lon="60.957123">
        <ele>257.0</ele>
        <time>1970-01-01T13:53:14.313Z</time>
    </trkpt>
    <trkpt lat="56.359861" lon="60.957122">
        <ele>256.9</ele>
        <time>1970-01-01T13:53:15.313Z</time>
    </trkpt>
    <trkpt lat="56.359873" lon="60.957121">
        <ele>256.9</ele>
        <time>1970-01-01T13:53:16.313Z</time>
    </trkpt>
    <trkpt lat="56.359889" lon="60.957116">
        <ele>256.9</ele>
        <time>1970-01-01T13:53:17.313Z</time>
    </trkpt>
    <trkpt lat="56.359907" lon="60.957115">
        <ele>256.8</ele>
        <time>1970-01-01T13:53:18.313Z</time>
    </trkpt>
    <trkpt lat="56.359924" lon="60.957109">
        <ele>256.8</ele>
        <time>1970-01-01T13:53:19.313Z</time>
    </trkpt>
    <trkpt lat="56.359934" lon="60.957123">
        <ele>256.7</ele>
        <time>1970-01-01T13:53:20.313Z</time>
    </trkpt>
    <trkpt lat="56.359945" lon="60.957127">
        <ele>256.7</ele>
        <time>1970-01-01T13:53:21.313Z</time>
    </trkpt>
    <trkpt lat="56.359959" lon="60.957115">
        <ele>256.7</ele>
        <time>1970-01-01T13:53:22.313Z</time>
    </trkpt>
    <trkpt lat="56.359969" lon="60.957118">
        <ele>256.6</ele>
        <time>1970-01-01T13:53:23.313Z</time>
    </trkpt>
    <trkpt lat="56.359971" lon="60.957115">
        <ele>256.6</ele>
        <time>1970-01-01T13:53:24.313Z</time>
    </trkpt>
    <trkpt lat="56.359975" lon="60.957115">
        <ele>256.6</ele>
        <time>1970-01-01T13:53:25.313Z</time>
    </trkpt>
    <trkpt lat="56.359995" lon="60.957115">
        <ele>256.6</ele>
        <time>1970-01-01T13:53:26.313Z</time>
    </trkpt>
    <trkpt lat="56.360004" lon="60.957114">
        <ele>256.6</ele>
        <time>1970-01-01T13:53:27.313Z</time>
    </trkpt>
    <trkpt lat="56.360013" lon="60.957112">
        <ele>256.5</ele>
        <time>1970-01-01T13:53:28.313Z</time>
    </trkpt>
    <trkpt lat="56.360031" lon="60.957115">
        <ele>256.5</ele>
        <time>1970-01-01T13:53:29.313Z</time>
    </trkpt>
    <trkpt lat="56.360052" lon="60.957117">
        <ele>256.4</ele>
        <time>1970-01-01T13:53:30.313Z</time>
    </trkpt>
    <trkpt lat="56.360062" lon="60.957119">
        <ele>256.4</ele>
        <time>1970-01-01T13:53:31.313Z</time>
    </trkpt>
    <trkpt lat="56.36007" lon="60.957115">
        <ele>256.4</ele>
        <time>1970-01-01T13:53:32.313Z</time>
    </trkpt>
    <trkpt lat="56.360085" lon="60.95711">
        <ele>256.4</ele>
        <time>1970-01-01T13:53:33.313Z</time>
    </trkpt>
    <trkpt lat="56.360088" lon="60.957103">
        <ele>256.3</ele>
        <time>1970-01-01T13:53:34.313Z</time>
    </trkpt>
    <trkpt lat="56.360088" lon="60.957098">
        <ele>256.3</ele>
        <time>1970-01-01T13:53:35.313Z</time>
    </trkpt>
    <trkpt lat="56.360096" lon="60.957104">
        <ele>256.3</ele>
        <time>1970-01-01T13:53:36.313Z</time>
    </trkpt>
    <trkpt lat="56.360108" lon="60.957105">
        <ele>256.3</ele>
        <time>1970-01-01T13:53:37.313Z</time>
    </trkpt>
    <trkpt lat="56.360123" lon="60.957103">
        <ele>256.2</ele>
        <time>1970-01-01T13:53:38.313Z</time>
    </trkpt>
    <trkpt lat="56.360143" lon="60.957096">
        <ele>256.2</ele>
        <time>1970-01-01T13:53:39.313Z</time>
    </trkpt>
    <trkpt lat="56.360158" lon="60.957097">
        <ele>256.2</ele>
        <time>1970-01-01T13:53:40.313Z</time>
    </trkpt>
    <trkpt lat="56.360173" lon="60.957104">
        <ele>256.1</ele>
        <time>1970-01-01T13:53:41.313Z</time>
    </trkpt>
    <trkpt lat="56.360191" lon="60.957106">
        <ele>256.1</ele>
        <time>1970-01-01T13:53:42.313Z</time>
    </trkpt>
    <trkpt lat="56.360202" lon="60.95711">
        <ele>256.0</ele>
        <time>1970-01-01T13:53:43.313Z</time>
    </trkpt>
    <trkpt lat="56.360213" lon="60.957114">
        <ele>256.0</ele>
        <time>1970-01-01T13:53:44.313Z</time>
    </trkpt>
    <trkpt lat="56.360224" lon="60.957117">
        <ele>256.0</ele>
        <time>1970-01-01T13:53:45.313Z</time>
    </trkpt>
    <trkpt lat="56.360246" lon="60.95712">
        <ele>255.9</ele>
        <time>1970-01-01T13:53:46.313Z</time>
    </trkpt>
    <trkpt lat="56.360261" lon="60.957124">
        <ele>255.8</ele>
        <time>1970-01-01T13:53:47.313Z</time>
    </trkpt>
    <trkpt lat="56.360272" lon="60.957142">
        <ele>255.8</ele>
        <time>1970-01-01T13:53:48.313Z</time>
    </trkpt>
    <trkpt lat="56.36028" lon="60.957155">
        <ele>255.8</ele>
        <time>1970-01-01T13:53:49.313Z</time>
    </trkpt>
    <trkpt lat="56.360304" lon="60.957173">
        <ele>255.7</ele>
        <time>1970-01-01T13:53:50.313Z</time>
    </trkpt>
    <trkpt lat="56.360313" lon="60.957174">
        <ele>255.7</ele>
        <time>1970-01-01T13:53:51.313Z</time>
    </trkpt>
    <trkpt lat="56.360342" lon="60.957176">
        <ele>255.6</ele>
        <time>1970-01-01T13:53:52.313Z</time>
    </trkpt>
    <trkpt lat="56.360357" lon="60.957177">
        <ele>255.6</ele>
        <time>1970-01-01T13:53:53.313Z</time>
    </trkpt>
    <trkpt lat="56.360371" lon="60.957178">
        <ele>255.5</ele>
        <time>1970-01-01T13:53:54.313Z</time>
    </trkpt>
    <trkpt lat="56.360396" lon="60.957181">
        <ele>255.5</ele>
        <time>1970-01-01T13:53:55.313Z</time>
    </trkpt>
    <trkpt lat="56.360406" lon="60.957177">
        <ele>255.5</ele>
        <time>1970-01-01T13:53:56.313Z</time>
    </trkpt>
    <trkpt lat="56.360433" lon="60.957183">
        <ele>255.4</ele>
        <time>1970-01-01T13:53:57.313Z</time>
    </trkpt>
    <trkpt lat="56.360452" lon="60.957184">
        <ele>255.3</ele>
        <time>1970-01-01T13:53:58.313Z</time>
    </trkpt>
    <trkpt lat="56.360462" lon="60.957184">
        <ele>255.3</ele>
        <time>1970-01-01T13:53:59.313Z</time>
    </trkpt>
    <trkpt lat="56.360495" lon="60.95718">
        <ele>255.2</ele>
        <time>1970-01-01T13:54:00.313Z</time>
    </trkpt>
    <trkpt lat="56.360501" lon="60.957168">
        <ele>255.2</ele>
        <time>1970-01-01T13:54:01.313Z</time>
    </trkpt>
    <trkpt lat="56.360521" lon="60.957154">
        <ele>255.2</ele>
        <time>1970-01-01T13:54:02.313Z</time>
    </trkpt>
    <trkpt lat="56.360528" lon="60.957149">
        <ele>255.1</ele>
        <time>1970-01-01T13:54:03.313Z</time>
    </trkpt>
    <trkpt lat="56.36056" lon="60.957128">
        <ele>255.1</ele>
        <time>1970-01-01T13:54:04.313Z</time>
    </trkpt>
    <trkpt lat="56.360569" lon="60.957117">
        <ele>255.0</ele>
        <time>1970-01-01T13:54:05.313Z</time>
    </trkpt>
    <trkpt lat="56.3606" lon="60.957104">
        <ele>254.9</ele>
        <time>1970-01-01T13:54:06.313Z</time>
    </trkpt>
    <trkpt lat="56.36061" lon="60.957095">
        <ele>254.9</ele>
        <time>1970-01-01T13:54:07.313Z</time>
    </trkpt>
    <trkpt lat="56.36064" lon="60.957081">
        <ele>254.8</ele>
        <time>1970-01-01T13:54:08.313Z</time>
    </trkpt>
    <trkpt lat="56.360652" lon="60.957077">
        <ele>254.8</ele>
        <time>1970-01-01T13:54:09.313Z</time>
    </trkpt>
    <trkpt lat="56.360681" lon="60.957071">
        <ele>254.7</ele>
        <time>1970-01-01T13:54:10.313Z</time>
    </trkpt>
    <trkpt lat="56.360691" lon="60.957069">
        <ele>254.7</ele>
        <time>1970-01-01T13:54:11.313Z</time>
    </trkpt>
    <trkpt lat="56.360718" lon="60.957068">
        <ele>254.6</ele>
        <time>1970-01-01T13:54:12.313Z</time>
    </trkpt>
    <trkpt lat="56.36074" lon="60.957059">
        <ele>254.6</ele>
        <time>1970-01-01T13:54:13.313Z</time>
    </trkpt>
    <trkpt lat="56.360743" lon="60.957044">
        <ele>254.6</ele>
        <time>1970-01-01T13:54:14.313Z</time>
    </trkpt>
    <trkpt lat="56.360757" lon="60.957042">
        <ele>254.5</ele>
        <time>1970-01-01T13:54:15.313Z</time>
    </trkpt>
    <trkpt lat="56.360789" lon="60.957029">
        <ele>254.5</ele>
        <time>1970-01-01T13:54:16.313Z</time>
    </trkpt>
    <trkpt lat="56.360799" lon="60.957023">
        <ele>254.4</ele>
        <time>1970-01-01T13:54:17.313Z</time>
    </trkpt>
    <trkpt lat="56.36082" lon="60.956988">
        <ele>254.4</ele>
        <time>1970-01-01T13:54:18.313Z</time>
    </trkpt>
    <trkpt lat="56.360832" lon="60.956978">
        <ele>254.3</ele>
        <time>1970-01-01T13:54:19.313Z</time>
    </trkpt>
    <trkpt lat="56.360859" lon="60.956962">
        <ele>254.3</ele>
        <time>1970-01-01T13:54:20.313Z</time>
    </trkpt>
    <trkpt lat="56.36088" lon="60.95696">
        <ele>254.2</ele>
        <time>1970-01-01T13:54:21.313Z</time>
    </trkpt>
    <trkpt lat="56.360892" lon="60.95694">
        <ele>254.2</ele>
        <time>1970-01-01T13:54:22.313Z</time>
    </trkpt>
    <trkpt lat="56.360903" lon="60.956933">
        <ele>254.1</ele>
        <time>1970-01-01T13:54:23.313Z</time>
    </trkpt>
    <trkpt lat="56.360931" lon="60.956911">
        <ele>254.1</ele>
        <time>1970-01-01T13:54:24.313Z</time>
    </trkpt>
    <trkpt lat="56.360943" lon="60.956903">
        <ele>254.0</ele>
        <time>1970-01-01T13:54:25.313Z</time>
    </trkpt>
    <trkpt lat="56.360968" lon="60.956899">
        <ele>254.0</ele>
        <time>1970-01-01T13:54:26.313Z</time>
    </trkpt>
    <trkpt lat="56.360994" lon="60.956885">
        <ele>253.9</ele>
        <time>1970-01-01T13:54:27.313Z</time>
    </trkpt>
    <trkpt lat="56.361001" lon="60.956875">
        <ele>253.9</ele>
        <time>1970-01-01T13:54:28.313Z</time>
    </trkpt>
    <trkpt lat="56.361015" lon="60.956877">
        <ele>253.8</ele>
        <time>1970-01-01T13:54:29.313Z</time>
    </trkpt>
    <trkpt lat="56.361037" lon="60.956883">
        <ele>253.8</ele>
        <time>1970-01-01T13:54:30.313Z</time>
    </trkpt>
    <trkpt lat="56.36106" lon="60.956866">
        <ele>253.7</ele>
        <time>1970-01-01T13:54:31.313Z</time>
    </trkpt>
    <trkpt lat="56.361066" lon="60.956861">
        <ele>253.7</ele>
        <time>1970-01-01T13:54:32.313Z</time>
    </trkpt>
    <trkpt lat="56.361076" lon="60.956856">
        <ele>253.7</ele>
        <time>1970-01-01T13:54:33.313Z</time>
    </trkpt>
    <trkpt lat="56.361103" lon="60.956839">
        <ele>253.6</ele>
        <time>1970-01-01T13:54:34.313Z</time>
    </trkpt>
    <trkpt lat="56.361114" lon="60.956842">
        <ele>253.6</ele>
        <time>1970-01-01T13:54:35.313Z</time>
    </trkpt>
    <trkpt lat="56.361136" lon="60.956861">
        <ele>253.5</ele>
        <time>1970-01-01T13:54:36.313Z</time>
    </trkpt>
    <trkpt lat="56.361145" lon="60.956851">
        <ele>253.5</ele>
        <time>1970-01-01T13:54:37.313Z</time>
    </trkpt>
    <trkpt lat="56.361153" lon="60.956843">
        <ele>253.5</ele>
        <time>1970-01-01T13:54:38.313Z</time>
    </trkpt>
    <trkpt lat="56.361161" lon="60.956841">
        <ele>253.5</ele>
        <time>1970-01-01T13:54:39.313Z</time>
    </trkpt>
    <trkpt lat="56.361174" lon="60.95684">
        <ele>253.4</ele>
        <time>1970-01-01T13:54:40.313Z</time>
    </trkpt>
    <trkpt lat="56.361189" lon="60.956838">
        <ele>253.4</ele>
        <time>1970-01-01T13:54:41.313Z</time>
    </trkpt>
    <trkpt lat="56.361209" lon="60.956836">
        <ele>253.3</ele>
        <time>1970-01-01T13:54:42.313Z</time>
    </trkpt>
    <trkpt lat="56.361222" lon="60.956834">
        <ele>253.3</ele>
        <time>1970-01-01T13:54:43.313Z</time>
    </trkpt>
    <trkpt lat="56.361233" lon="60.956826">
        <ele>253.3</ele>
        <time>1970-01-01T13:54:44.313Z</time>
    </trkpt>
    <trkpt lat="56.361251" lon="60.95682">
        <ele>253.2</ele>
        <time>1970-01-01T13:54:45.313Z</time>
    </trkpt>
    <trkpt lat="56.361269" lon="60.956806">
        <ele>253.2</ele>
        <time>1970-01-01T13:54:46.313Z</time>
    </trkpt>
    <trkpt lat="56.361282" lon="60.956794">
        <ele>253.1</ele>
        <time>1970-01-01T13:54:47.313Z</time>
    </trkpt>
    <trkpt lat="56.361297" lon="60.956785">
        <ele>253.1</ele>
        <time>1970-01-01T13:54:48.313Z</time>
    </trkpt>
    <trkpt lat="56.361309" lon="60.956785">
        <ele>253.1</ele>
        <time>1970-01-01T13:54:49.313Z</time>
    </trkpt>
    <trkpt lat="56.361319" lon="60.956782">
        <ele>253.0</ele>
        <time>1970-01-01T13:54:50.313Z</time>
    </trkpt>
    <trkpt lat="56.361328" lon="60.956779">
        <ele>253.0</ele>
        <time>1970-01-01T13:54:51.313Z</time>
    </trkpt>
    <trkpt lat="56.361345" lon="60.956769">
        <ele>253.0</ele>
        <time>1970-01-01T13:54:52.313Z</time>
    </trkpt>
    <trkpt lat="56.361358" lon="60.956763">
        <ele>252.9</ele>
        <time>1970-01-01T13:54:53.313Z</time>
    </trkpt>
    <trkpt lat="56.36136" lon="60.956745">
        <ele>252.9</ele>
        <time>1970-01-01T13:54:54.313Z</time>
    </trkpt>
    <trkpt lat="56.361374" lon="60.956741">
        <ele>252.9</ele>
        <time>1970-01-01T13:54:55.313Z</time>
    </trkpt>
    <trkpt lat="56.361391" lon="60.956738">
        <ele>252.8</ele>
        <time>1970-01-01T13:54:56.313Z</time>
    </trkpt>
    <trkpt lat="56.361407" lon="60.956727">
        <ele>252.8</ele>
        <time>1970-01-01T13:54:57.313Z</time>
    </trkpt>
    <trkpt lat="56.361424" lon="60.95672">
        <ele>252.8</ele>
        <time>1970-01-01T13:54:58.313Z</time>
    </trkpt>
    <trkpt lat="56.361441" lon="60.956708">
        <ele>252.7</ele>
        <time>1970-01-01T13:54:59.313Z</time>
    </trkpt>
    <trkpt lat="56.361453" lon="60.956696">
        <ele>252.7</ele>
        <time>1970-01-01T13:55:00.313Z</time>
    </trkpt>
    <trkpt lat="56.361468" lon="60.956683">
        <ele>252.6</ele>
        <time>1970-01-01T13:55:01.313Z</time>
    </trkpt>
    <trkpt lat="56.361476" lon="60.956674">
        <ele>252.6</ele>
        <time>1970-01-01T13:55:02.313Z</time>
    </trkpt>
    <trkpt lat="56.361501" lon="60.956652">
        <ele>252.5</ele>
        <time>1970-01-01T13:55:03.313Z</time>
    </trkpt>
    <trkpt lat="56.36151" lon="60.956642">
        <ele>252.5</ele>
        <time>1970-01-01T13:55:04.313Z</time>
    </trkpt>
    <trkpt lat="56.361534" lon="60.956607">
        <ele>252.4</ele>
        <time>1970-01-01T13:55:05.313Z</time>
    </trkpt>
    <trkpt lat="56.361542" lon="60.956599">
        <ele>252.4</ele>
        <time>1970-01-01T13:55:06.313Z</time>
    </trkpt>
    <trkpt lat="56.361567" lon="60.95657">
        <ele>252.3</ele>
        <time>1970-01-01T13:55:07.313Z</time>
    </trkpt>
    <trkpt lat="56.361575" lon="60.956557">
        <ele>252.3</ele>
        <time>1970-01-01T13:55:08.313Z</time>
    </trkpt>
    <trkpt lat="56.361602" lon="60.956527">
        <ele>252.2</ele>
        <time>1970-01-01T13:55:09.313Z</time>
    </trkpt>
    <trkpt lat="56.361612" lon="60.956523">
        <ele>252.2</ele>
        <time>1970-01-01T13:55:10.313Z</time>
    </trkpt>
    <trkpt lat="56.361642" lon="60.956494">
        <ele>252.1</ele>
        <time>1970-01-01T13:55:11.313Z</time>
    </trkpt>
    <trkpt lat="56.361665" lon="60.956482">
        <ele>252.1</ele>
        <time>1970-01-01T13:55:12.313Z</time>
    </trkpt>
    <trkpt lat="56.361668" lon="60.956475">
        <ele>252.1</ele>
        <time>1970-01-01T13:55:13.313Z</time>
    </trkpt>
    <trkpt lat="56.361703" lon="60.956493">
        <ele>252.0</ele>
        <time>1970-01-01T13:55:14.313Z</time>
    </trkpt>
    <trkpt lat="56.361739" lon="60.956497">
        <ele>251.9</ele>
        <time>1970-01-01T13:55:15.313Z</time>
    </trkpt>
    <trkpt lat="56.361754" lon="60.9565">
        <ele>251.8</ele>
        <time>1970-01-01T13:55:16.313Z</time>
    </trkpt>
    <trkpt lat="56.361794" lon="60.95651">
        <ele>251.7</ele>
        <time>1970-01-01T13:55:17.313Z</time>
    </trkpt>
    <trkpt lat="56.361822" lon="60.956514">
        <ele>251.7</ele>
        <time>1970-01-01T13:55:18.313Z</time>
    </trkpt>
    <trkpt lat="56.361836" lon="60.956516">
        <ele>251.6</ele>
        <time>1970-01-01T13:55:19.313Z</time>
    </trkpt>
    <trkpt lat="56.361871" lon="60.956523">
        <ele>251.5</ele>
        <time>1970-01-01T13:55:20.313Z</time>
    </trkpt>
    <trkpt lat="56.361886" lon="60.956526">
        <ele>251.5</ele>
        <time>1970-01-01T13:55:21.313Z</time>
    </trkpt>
    <trkpt lat="56.361926" lon="60.956537">
        <ele>251.4</ele>
        <time>1970-01-01T13:55:22.313Z</time>
    </trkpt>
    <trkpt lat="56.361939" lon="60.956539">
        <ele>251.4</ele>
        <time>1970-01-01T13:55:23.313Z</time>
    </trkpt>
    <trkpt lat="56.361974" lon="60.956555">
        <ele>251.3</ele>
        <time>1970-01-01T13:55:24.313Z</time>
    </trkpt>
    <trkpt lat="56.361976" lon="60.956556">
        <ele>251.3</ele>
        <time>1970-01-01T13:55:25.313Z</time>
    </trkpt>
    <trkpt lat="56.361978" lon="60.956556">
        <ele>251.3</ele>
        <time>1970-01-01T13:55:26.313Z</time>
    </trkpt>
    <trkpt lat="56.361981" lon="60.956557">
        <ele>251.3</ele>
        <time>1970-01-01T13:55:27.313Z</time>
    </trkpt>
    <trkpt lat="56.361983" lon="60.956557">
        <ele>251.3</ele>
        <time>1970-01-01T13:55:28.313Z</time>
    </trkpt>
    <trkpt lat="56.361986" lon="60.956558">
        <ele>251.3</ele>
        <time>1970-01-01T13:55:29.313Z</time>
    </trkpt>
    <trkpt lat="56.361988" lon="60.956558">
        <ele>251.3</ele>
        <time>1970-01-01T13:55:30.313Z</time>
    </trkpt>
    <trkpt lat="56.361991" lon="60.956559">
        <ele>251.2</ele>
        <time>1970-01-01T13:55:31.313Z</time>
    </trkpt>
    <trkpt lat="56.361993" lon="60.956559">
        <ele>251.2</ele>
        <time>1970-01-01T13:55:32.313Z</time>
    </trkpt>
    <trkpt lat="56.361996" lon="60.95656">
        <ele>251.2</ele>
        <time>1970-01-01T13:55:33.313Z</time>
    </trkpt>
    <trkpt lat="56.361998" lon="60.956561">
        <ele>251.2</ele>
        <time>1970-01-01T13:55:34.313Z</time>
    </trkpt>
    <trkpt lat="56.362001" lon="60.956561">
        <ele>251.2</ele>
        <time>1970-01-01T13:55:35.313Z</time>
    </trkpt>
    <trkpt lat="56.362003" lon="60.956562">
        <ele>251.2</ele>
        <time>1970-01-01T13:55:36.313Z</time>
    </trkpt>
    <trkpt lat="56.362005" lon="60.956562">
        <ele>251.2</ele>
        <time>1970-01-01T13:55:37.313Z</time>
    </trkpt>
    <trkpt lat="56.362008" lon="60.956563">
        <ele>251.2</ele>
        <time>1970-01-01T13:55:38.313Z</time>
    </trkpt>
    <trkpt lat="56.36201" lon="60.956563">
        <ele>251.2</ele>
        <time>1970-01-01T13:55:39.313Z</time>
    </trkpt>
    <trkpt lat="56.362013" lon="60.956564">
        <ele>251.2</ele>
        <time>1970-01-01T13:55:40.313Z</time>
    </trkpt>
    <trkpt lat="56.362015" lon="60.956564">
        <ele>251.2</ele>
        <time>1970-01-01T13:55:41.313Z</time>
    </trkpt>
    <trkpt lat="56.362018" lon="60.956565">
        <ele>251.2</ele>
        <time>1970-01-01T13:55:42.313Z</time>
    </trkpt>
    <trkpt lat="56.36202" lon="60.956565">
        <ele>251.2</ele>
        <time>1970-01-01T13:55:43.313Z</time>
    </trkpt>
    <trkpt lat="56.362023" lon="60.956566">
        <ele>251.2</ele>
        <time>1970-01-01T13:55:44.313Z</time>
    </trkpt>
    <trkpt lat="56.362025" lon="60.956566">
        <ele>251.2</ele>
        <time>1970-01-01T13:55:45.313Z</time>
    </trkpt>
    <trkpt lat="56.362028" lon="60.956567">
        <ele>251.2</ele>
        <time>1970-01-01T13:55:46.313Z</time>
    </trkpt>
    <trkpt lat="56.36203" lon="60.956567">
        <ele>251.1</ele>
        <time>1970-01-01T13:55:47.313Z</time>
    </trkpt>
    <trkpt lat="56.362033" lon="60.956568">
        <ele>251.1</ele>
        <time>1970-01-01T13:55:48.313Z</time>
    </trkpt>
    <trkpt lat="56.362035" lon="60.956569">
        <ele>251.1</ele>
        <time>1970-01-01T13:55:49.313Z</time>
    </trkpt>
    <trkpt lat="56.362037" lon="60.956569">
        <ele>251.1</ele>
        <time>1970-01-01T13:55:50.313Z</time>
    </trkpt>
    <trkpt lat="56.36204" lon="60.95657">
        <ele>251.1</ele>
        <time>1970-01-01T13:55:51.313Z</time>
    </trkpt>
    <trkpt lat="56.362042" lon="60.95657">
        <ele>251.1</ele>
        <time>1970-01-01T13:55:52.313Z</time>
    </trkpt>
    <trkpt lat="56.362045" lon="60.956571">
        <ele>251.1</ele>
        <time>1970-01-01T13:55:53.313Z</time>
    </trkpt>
    <trkpt lat="56.362047" lon="60.956571">
        <ele>251.1</ele>
        <time>1970-01-01T13:55:54.313Z</time>
    </trkpt>
    <trkpt lat="56.36205" lon="60.956572">
        <ele>251.1</ele>
        <time>1970-01-01T13:55:55.313Z</time>
    </trkpt>
    <trkpt lat="56.362052" lon="60.956572">
        <ele>251.1</ele>
        <time>1970-01-01T13:55:56.313Z</time>
    </trkpt>
    <trkpt lat="56.362055" lon="60.956573">
        <ele>251.1</ele>
        <time>1970-01-01T13:55:57.313Z</time>
    </trkpt>
    <trkpt lat="56.362057" lon="60.956573">
        <ele>251.1</ele>
        <time>1970-01-01T13:55:58.313Z</time>
    </trkpt>
    <trkpt lat="56.36206" lon="60.956574">
        <ele>251.1</ele>
        <time>1970-01-01T13:55:59.313Z</time>
    </trkpt>
    <trkpt lat="56.362062" lon="60.956574">
        <ele>251.1</ele>
        <time>1970-01-01T13:56:00.313Z</time>
    </trkpt>
    <trkpt lat="56.362064" lon="60.956575">
        <ele>251.1</ele>
        <time>1970-01-01T13:56:01.313Z</time>
    </trkpt>
    <trkpt lat="56.362067" lon="60.956575">
        <ele>251.1</ele>
        <time>1970-01-01T13:56:02.313Z</time>
    </trkpt>
    <trkpt lat="56.362069" lon="60.956576">
        <ele>251.1</ele>
        <time>1970-01-01T13:56:03.313Z</time>
    </trkpt>
    <trkpt lat="56.362072" lon="60.956577">
        <ele>251.0</ele>
        <time>1970-01-01T13:56:04.313Z</time>
    </trkpt>
    <trkpt lat="56.362074" lon="60.956577">
        <ele>251.0</ele>
        <time>1970-01-01T13:56:05.313Z</time>
    </trkpt>
    <trkpt lat="56.362077" lon="60.956578">
        <ele>251.0</ele>
        <time>1970-01-01T13:56:06.313Z</time>
    </trkpt>
    <trkpt lat="56.362079" lon="60.956578">
        <ele>251.0</ele>
        <time>1970-01-01T13:56:07.313Z</time>
    </trkpt>
    <trkpt lat="56.362082" lon="60.956579">
        <ele>251.0</ele>
        <time>1970-01-01T13:56:08.313Z</time>
    </trkpt>
    <trkpt lat="56.362084" lon="60.956579">
        <ele>251.0</ele>
        <time>1970-01-01T13:56:09.313Z</time>
    </trkpt>
    <trkpt lat="56.362087" lon="60.95658">
        <ele>251.0</ele>
        <time>1970-01-01T13:56:10.313Z</time>
    </trkpt>
    <trkpt lat="56.362089" lon="60.95658">
        <ele>251.0</ele>
        <time>1970-01-01T13:56:11.313Z</time>
    </trkpt>
    <trkpt lat="56.362092" lon="60.956581">
        <ele>251.0</ele>
        <time>1970-01-01T13:56:12.313Z</time>
    </trkpt>
    <trkpt lat="56.362094" lon="60.956581">
        <ele>251.0</ele>
        <time>1970-01-01T13:56:13.313Z</time>
    </trkpt>
    <trkpt lat="56.362096" lon="60.956582">
        <ele>251.0</ele>
        <time>1970-01-01T13:56:14.313Z</time>
    </trkpt>
    <trkpt lat="56.362099" lon="60.956582">
        <ele>251.0</ele>
        <time>1970-01-01T13:56:15.313Z</time>
    </trkpt>
    <trkpt lat="56.362096" lon="60.956582">
        <ele>251.0</ele>
        <time>1970-01-01T13:56:16.313Z</time>
    </trkpt>
    <trkpt lat="56.362104" lon="60.956577">
        <ele>250.9</ele>
        <time>1970-01-01T13:56:17.313Z</time>
    </trkpt>
    <trkpt lat="56.362105" lon="60.956576">
        <ele>250.9</ele>
        <time>1970-01-01T13:56:18.313Z</time>
    </trkpt>
    <trkpt lat="56.362107" lon="60.956577">
        <ele>250.9</ele>
        <time>1970-01-01T13:56:19.313Z</time>
    </trkpt>
    <trkpt lat="56.362111" lon="60.956576">
        <ele>250.9</ele>
        <time>1970-01-01T13:56:20.313Z</time>
    </trkpt>
    <trkpt lat="56.362126" lon="60.956575">
        <ele>250.9</ele>
        <time>1970-01-01T13:56:21.313Z</time>
    </trkpt>
    <trkpt lat="56.362135" lon="60.956574">
        <ele>250.9</ele>
        <time>1970-01-01T13:56:22.313Z</time>
    </trkpt>
    <trkpt lat="56.362144" lon="60.956573">
        <ele>250.8</ele>
        <time>1970-01-01T13:56:23.313Z</time>
    </trkpt>
    <trkpt lat="56.362166" lon="60.956568">
        <ele>250.8</ele>
        <time>1970-01-01T13:56:24.313Z</time>
    </trkpt>
    <trkpt lat="56.362174" lon="60.956572">
        <ele>250.8</ele>
        <time>1970-01-01T13:56:25.313Z</time>
    </trkpt>
    <trkpt lat="56.362182" lon="60.956577">
        <ele>250.7</ele>
        <time>1970-01-01T13:56:26.313Z</time>
    </trkpt>
    <trkpt lat="56.362206" lon="60.956572">
        <ele>250.7</ele>
        <time>1970-01-01T13:56:27.313Z</time>
    </trkpt>
    <trkpt lat="56.362216" lon="60.956577">
        <ele>250.7</ele>
        <time>1970-01-01T13:56:28.313Z</time>
    </trkpt>
    <trkpt lat="56.362227" lon="60.956582">
        <ele>250.6</ele>
        <time>1970-01-01T13:56:29.313Z</time>
    </trkpt>
    <trkpt lat="56.362242" lon="60.956572">
        <ele>250.6</ele>
        <time>1970-01-01T13:56:30.313Z</time>
    </trkpt>
    <trkpt lat="56.362254" lon="60.956578">
        <ele>250.6</ele>
        <time>1970-01-01T13:56:31.313Z</time>
    </trkpt>
    <trkpt lat="56.362272" lon="60.956564">
        <ele>250.5</ele>
        <time>1970-01-01T13:56:32.313Z</time>
    </trkpt>
    <trkpt lat="56.362278" lon="60.956567">
        <ele>250.5</ele>
        <time>1970-01-01T13:56:33.313Z</time>
    </trkpt>
    <trkpt lat="56.362301" lon="60.956572">
        <ele>250.4</ele>
        <time>1970-01-01T13:56:34.313Z</time>
    </trkpt>
    <trkpt lat="56.362307" lon="60.956571">
        <ele>250.4</ele>
        <time>1970-01-01T13:56:35.313Z</time>
    </trkpt>
    <trkpt lat="56.362313" lon="60.95657">
        <ele>250.4</ele>
        <time>1970-01-01T13:56:36.313Z</time>
    </trkpt>
    <trkpt lat="56.362341" lon="60.956573">
        <ele>250.3</ele>
        <time>1970-01-01T13:56:37.313Z</time>
    </trkpt>
    <trkpt lat="56.362349" lon="60.956571">
        <ele>250.3</ele>
        <time>1970-01-01T13:56:38.313Z</time>
    </trkpt>
    <trkpt lat="56.362368" lon="60.956565">
        <ele>250.3</ele>
        <time>1970-01-01T13:56:39.313Z</time>
    </trkpt>
    <trkpt lat="56.362375" lon="60.956565">
        <ele>250.3</ele>
        <time>1970-01-01T13:56:40.313Z</time>
    </trkpt>
    <trkpt lat="56.362395" lon="60.956561">
        <ele>250.2</ele>
        <time>1970-01-01T13:56:41.313Z</time>
    </trkpt>
    <trkpt lat="56.362405" lon="60.956558">
        <ele>250.2</ele>
        <time>1970-01-01T13:56:42.313Z</time>
    </trkpt>
    <trkpt lat="56.362415" lon="60.956554">
        <ele>250.2</ele>
        <time>1970-01-01T13:56:43.313Z</time>
    </trkpt>
    <trkpt lat="56.362434" lon="60.956554">
        <ele>250.1</ele>
        <time>1970-01-01T13:56:44.313Z</time>
    </trkpt>
    <trkpt lat="56.362452" lon="60.956552">
        <ele>250.1</ele>
        <time>1970-01-01T13:56:45.313Z</time>
    </trkpt>
    <trkpt lat="56.362462" lon="60.956547">
        <ele>250.0</ele>
        <time>1970-01-01T13:56:46.313Z</time>
    </trkpt>
    <trkpt lat="56.362478" lon="60.956541">
        <ele>250.0</ele>
        <time>1970-01-01T13:56:47.313Z</time>
    </trkpt>
    <trkpt lat="56.362491" lon="60.956532">
        <ele>250.0</ele>
        <time>1970-01-01T13:56:48.313Z</time>
    </trkpt>
    <trkpt lat="56.3625" lon="60.95653">
        <ele>249.9</ele>
        <time>1970-01-01T13:56:49.313Z</time>
    </trkpt>
    <trkpt lat="56.362506" lon="60.956519">
        <ele>249.9</ele>
        <time>1970-01-01T13:56:50.313Z</time>
    </trkpt>
    <trkpt lat="56.36252" lon="60.956512">
        <ele>249.9</ele>
        <time>1970-01-01T13:56:51.313Z</time>
    </trkpt>
    <trkpt lat="56.36253" lon="60.956512">
        <ele>249.9</ele>
        <time>1970-01-01T13:56:52.313Z</time>
    </trkpt>
    <trkpt lat="56.362559" lon="60.956491">
        <ele>249.8</ele>
        <time>1970-01-01T13:56:53.313Z</time>
    </trkpt>
    <trkpt lat="56.362568" lon="60.956492">
        <ele>249.8</ele>
        <time>1970-01-01T13:56:54.313Z</time>
    </trkpt>
    <trkpt lat="56.362576" lon="60.956492">
        <ele>249.7</ele>
        <time>1970-01-01T13:56:55.313Z</time>
    </trkpt>
    <trkpt lat="56.362598" lon="60.956486">
        <ele>249.7</ele>
        <time>1970-01-01T13:56:56.313Z</time>
    </trkpt>
    <trkpt lat="56.362611" lon="60.956487">
        <ele>249.7</ele>
        <time>1970-01-01T13:56:57.313Z</time>
    </trkpt>
    <trkpt lat="56.362625" lon="60.956484">
        <ele>249.6</ele>
        <time>1970-01-01T13:56:58.313Z</time>
    </trkpt>
    <trkpt lat="56.362633" lon="60.956483">
        <ele>249.6</ele>
        <time>1970-01-01T13:56:59.313Z</time>
    </trkpt>
    <trkpt lat="56.362638" lon="60.956487">
        <ele>249.6</ele>
        <time>1970-01-01T13:57:00.313Z</time>
    </trkpt>
    <trkpt lat="56.362657" lon="60.956485">
        <ele>249.5</ele>
        <time>1970-01-01T13:57:01.313Z</time>
    </trkpt>
    <trkpt lat="56.362667" lon="60.956481">
        <ele>249.5</ele>
        <time>1970-01-01T13:57:02.313Z</time>
    </trkpt>
    <trkpt lat="56.362676" lon="60.956478">
        <ele>249.5</ele>
        <time>1970-01-01T13:57:03.313Z</time>
    </trkpt>
    <trkpt lat="56.3627" lon="60.95648">
        <ele>249.4</ele>
        <time>1970-01-01T13:57:04.313Z</time>
    </trkpt>
    <trkpt lat="56.362709" lon="60.956478">
        <ele>249.4</ele>
        <time>1970-01-01T13:57:05.313Z</time>
    </trkpt>
    <trkpt lat="56.362718" lon="60.956476">
        <ele>249.4</ele>
        <time>1970-01-01T13:57:06.313Z</time>
    </trkpt>
    <trkpt lat="56.362726" lon="60.956475">
        <ele>249.4</ele>
        <time>1970-01-01T13:57:07.313Z</time>
    </trkpt>
    <trkpt lat="56.362735" lon="60.956473">
        <ele>249.3</ele>
        <time>1970-01-01T13:57:08.313Z</time>
    </trkpt>
    <trkpt lat="56.362744" lon="60.956472">
        <ele>249.3</ele>
        <time>1970-01-01T13:57:09.313Z</time>
    </trkpt>
    <trkpt lat="56.362753" lon="60.95647">
        <ele>249.3</ele>
        <time>1970-01-01T13:57:10.313Z</time>
    </trkpt>
    <trkpt lat="56.362766" lon="60.956464">
        <ele>249.3</ele>
        <time>1970-01-01T13:57:11.313Z</time>
    </trkpt>
    <trkpt lat="56.36277" lon="60.956475">
        <ele>249.2</ele>
        <time>1970-01-01T13:57:12.313Z</time>
    </trkpt>
    <trkpt lat="56.362774" lon="60.956465">
        <ele>249.2</ele>
        <time>1970-01-01T13:57:13.313Z</time>
    </trkpt>
    <trkpt lat="56.36277" lon="60.956464">
        <ele>249.2</ele>
        <time>1970-01-01T13:57:14.313Z</time>
    </trkpt>
    <trkpt lat="56.362771" lon="60.956462">
        <ele>249.2</ele>
        <time>1970-01-01T13:57:15.313Z</time>
    </trkpt>
    <trkpt lat="56.36277" lon="60.956464">
        <ele>249.2</ele>
        <time>1970-01-01T13:57:16.313Z</time>
    </trkpt>
    <trkpt lat="56.362771" lon="60.956464">
        <ele>249.2</ele>
        <time>1970-01-01T13:57:17.313Z</time>
    </trkpt>
    <trkpt lat="56.362774" lon="60.956462">
        <ele>249.2</ele>
        <time>1970-01-01T13:57:18.313Z</time>
    </trkpt>
    <trkpt lat="56.36279" lon="60.956468">
        <ele>249.2</ele>
        <time>1970-01-01T13:57:19.313Z</time>
    </trkpt>
    <trkpt lat="56.362792" lon="60.956478">
        <ele>249.1</ele>
        <time>1970-01-01T13:57:20.313Z</time>
    </trkpt>
    <trkpt lat="56.362807" lon="60.956491">
        <ele>249.1</ele>
        <time>1970-01-01T13:57:21.313Z</time>
    </trkpt>
    <trkpt lat="56.362823" lon="60.956494">
        <ele>249.1</ele>
        <time>1970-01-01T13:57:22.313Z</time>
    </trkpt>
    <trkpt lat="56.362839" lon="60.95649">
        <ele>249.0</ele>
        <time>1970-01-01T13:57:23.313Z</time>
    </trkpt>
    <trkpt lat="56.362851" lon="60.956488">
        <ele>249.0</ele>
        <time>1970-01-01T13:57:24.313Z</time>
    </trkpt>
    <trkpt lat="56.362858" lon="60.95649">
        <ele>249.0</ele>
        <time>1970-01-01T13:57:25.313Z</time>
    </trkpt>
    <trkpt lat="56.362865" lon="60.956491">
        <ele>249.0</ele>
        <time>1970-01-01T13:57:26.313Z</time>
    </trkpt>
    <trkpt lat="56.362888" lon="60.956505">
        <ele>248.9</ele>
        <time>1970-01-01T13:57:27.313Z</time>
    </trkpt>
    <trkpt lat="56.362895" lon="60.956508">
        <ele>248.9</ele>
        <time>1970-01-01T13:57:28.313Z</time>
    </trkpt>
    <trkpt lat="56.362902" lon="60.956512">
        <ele>248.9</ele>
        <time>1970-01-01T13:57:29.313Z</time>
    </trkpt>
    <trkpt lat="56.362925" lon="60.956515">
        <ele>248.8</ele>
        <time>1970-01-01T13:57:30.313Z</time>
    </trkpt>
    <trkpt lat="56.362939" lon="60.95651">
        <ele>248.8</ele>
        <time>1970-01-01T13:57:31.313Z</time>
    </trkpt>
    <trkpt lat="56.362954" lon="60.956516">
        <ele>248.7</ele>
        <time>1970-01-01T13:57:32.313Z</time>
    </trkpt>
    <trkpt lat="56.362969" lon="60.956518">
        <ele>248.7</ele>
        <time>1970-01-01T13:57:33.313Z</time>
    </trkpt>
    <trkpt lat="56.362983" lon="60.956524">
        <ele>248.7</ele>
        <time>1970-01-01T13:57:34.313Z</time>
    </trkpt>
    <trkpt lat="56.362991" lon="60.95653">
        <ele>248.6</ele>
        <time>1970-01-01T13:57:35.313Z</time>
    </trkpt>
    <trkpt lat="56.363003" lon="60.956538">
        <ele>248.6</ele>
        <time>1970-01-01T13:57:36.313Z</time>
    </trkpt>
    <trkpt lat="56.363009" lon="60.95655">
        <ele>248.6</ele>
        <time>1970-01-01T13:57:37.313Z</time>
    </trkpt>
    <trkpt lat="56.363024" lon="60.956553">
        <ele>248.5</ele>
        <time>1970-01-01T13:57:38.313Z</time>
    </trkpt>
    <trkpt lat="56.36304" lon="60.956557">
        <ele>248.5</ele>
        <time>1970-01-01T13:57:39.313Z</time>
    </trkpt>
    <trkpt lat="56.363057" lon="60.956555">
        <ele>248.5</ele>
        <time>1970-01-01T13:57:40.313Z</time>
    </trkpt>
    <trkpt lat="56.363061" lon="60.95655">
        <ele>248.5</ele>
        <time>1970-01-01T13:57:41.313Z</time>
    </trkpt>
    <trkpt lat="56.363072" lon="60.956555">
        <ele>248.4</ele>
        <time>1970-01-01T13:57:42.313Z</time>
    </trkpt>
    <trkpt lat="56.363081" lon="60.956559">
        <ele>248.4</ele>
        <time>1970-01-01T13:57:43.313Z</time>
    </trkpt>
    <trkpt lat="56.36309" lon="60.956563">
        <ele>248.4</ele>
        <time>1970-01-01T13:57:44.313Z</time>
    </trkpt>
    <trkpt lat="56.363112" lon="60.956571">
        <ele>248.3</ele>
        <time>1970-01-01T13:57:45.313Z</time>
    </trkpt>
    <trkpt lat="56.363127" lon="60.956575">
        <ele>248.3</ele>
        <time>1970-01-01T13:57:46.313Z</time>
    </trkpt>
    <trkpt lat="56.36314" lon="60.956575">
        <ele>248.3</ele>
        <time>1970-01-01T13:57:47.313Z</time>
    </trkpt>
    <trkpt lat="56.363152" lon="60.956576">
        <ele>248.2</ele>
        <time>1970-01-01T13:57:48.313Z</time>
    </trkpt>
    <trkpt lat="56.363168" lon="60.956582">
        <ele>248.2</ele>
        <time>1970-01-01T13:57:49.313Z</time>
    </trkpt>
    <trkpt lat="56.363185" lon="60.956575">
        <ele>248.1</ele>
        <time>1970-01-01T13:57:50.313Z</time>
    </trkpt>
    <trkpt lat="56.363203" lon="60.956573">
        <ele>248.1</ele>
        <time>1970-01-01T13:57:51.313Z</time>
    </trkpt>
    <trkpt lat="56.363218" lon="60.956571">
        <ele>248.1</ele>
        <time>1970-01-01T13:57:52.313Z</time>
    </trkpt>
    <trkpt lat="56.363224" lon="60.956575">
        <ele>248.0</ele>
        <time>1970-01-01T13:57:53.313Z</time>
    </trkpt>
    <trkpt lat="56.363234" lon="60.956573">
        <ele>248.0</ele>
        <time>1970-01-01T13:57:54.313Z</time>
    </trkpt>
    <trkpt lat="56.363242" lon="60.956573">
        <ele>248.0</ele>
        <time>1970-01-01T13:57:55.313Z</time>
    </trkpt>
    <trkpt lat="56.363251" lon="60.956573">
        <ele>248.0</ele>
        <time>1970-01-01T13:57:56.313Z</time>
    </trkpt>
    <trkpt lat="56.363271" lon="60.956571">
        <ele>247.9</ele>
        <time>1970-01-01T13:57:57.313Z</time>
    </trkpt>
    <trkpt lat="56.36328" lon="60.956562">
        <ele>247.9</ele>
        <time>1970-01-01T13:57:58.313Z</time>
    </trkpt>
    <trkpt lat="56.36329" lon="60.956558">
        <ele>247.9</ele>
        <time>1970-01-01T13:57:59.313Z</time>
    </trkpt>
    <trkpt lat="56.363301" lon="60.956551">
        <ele>247.8</ele>
        <time>1970-01-01T13:58:00.313Z</time>
    </trkpt>
    <trkpt lat="56.363311" lon="60.956548">
        <ele>247.8</ele>
        <time>1970-01-01T13:58:01.313Z</time>
    </trkpt>
    <trkpt lat="56.36334" lon="60.956546">
        <ele>247.7</ele>
        <time>1970-01-01T13:58:02.313Z</time>
    </trkpt>
    <trkpt lat="56.363349" lon="60.956546">
        <ele>247.7</ele>
        <time>1970-01-01T13:58:03.313Z</time>
    </trkpt>
    <trkpt lat="56.363358" lon="60.956546">
        <ele>247.7</ele>
        <time>1970-01-01T13:58:04.313Z</time>
    </trkpt>
    <trkpt lat="56.363382" lon="60.956541">
        <ele>247.6</ele>
        <time>1970-01-01T13:58:05.313Z</time>
    </trkpt>
    <trkpt lat="56.363395" lon="60.95654">
        <ele>247.6</ele>
        <time>1970-01-01T13:58:06.313Z</time>
    </trkpt>
    <trkpt lat="56.363425" lon="60.956542">
        <ele>247.5</ele>
        <time>1970-01-01T13:58:07.313Z</time>
    </trkpt>
    <trkpt lat="56.363436" lon="60.956539">
        <ele>247.5</ele>
        <time>1970-01-01T13:58:08.313Z</time>
    </trkpt>
    <trkpt lat="56.363453" lon="60.956549">
        <ele>247.5</ele>
        <time>1970-01-01T13:58:09.313Z</time>
    </trkpt>
    <trkpt lat="56.363463" lon="60.956561">
        <ele>247.4</ele>
        <time>1970-01-01T13:58:10.313Z</time>
    </trkpt>
    <trkpt lat="56.363472" lon="60.956573">
        <ele>247.4</ele>
        <time>1970-01-01T13:58:11.313Z</time>
    </trkpt>
    <trkpt lat="56.36349" lon="60.956578">
        <ele>247.4</ele>
        <time>1970-01-01T13:58:12.313Z</time>
    </trkpt>
    <trkpt lat="56.363498" lon="60.956576">
        <ele>247.3</ele>
        <time>1970-01-01T13:58:13.313Z</time>
    </trkpt>
    <trkpt lat="56.363531" lon="60.956566">
        <ele>247.3</ele>
        <time>1970-01-01T13:58:14.313Z</time>
    </trkpt>
    <trkpt lat="56.363544" lon="60.956563">
        <ele>247.2</ele>
        <time>1970-01-01T13:58:15.313Z</time>
    </trkpt>
    <trkpt lat="56.363579" lon="60.956559">
        <ele>247.1</ele>
        <time>1970-01-01T13:58:16.313Z</time>
    </trkpt>
    <trkpt lat="56.363608" lon="60.956559">
        <ele>247.1</ele>
        <time>1970-01-01T13:58:17.313Z</time>
    </trkpt>
    <trkpt lat="56.363642" lon="60.95655">
        <ele>247.0</ele>
        <time>1970-01-01T13:58:18.313Z</time>
    </trkpt>
    <trkpt lat="56.363659" lon="60.956552">
        <ele>246.9</ele>
        <time>1970-01-01T13:58:19.313Z</time>
    </trkpt>
    <trkpt lat="56.363694" lon="60.956562">
        <ele>246.9</ele>
        <time>1970-01-01T13:58:20.313Z</time>
    </trkpt>
    <trkpt lat="56.363709" lon="60.956558">
        <ele>246.8</ele>
        <time>1970-01-01T13:58:21.313Z</time>
    </trkpt>
    <trkpt lat="56.363743" lon="60.95655">
        <ele>246.7</ele>
        <time>1970-01-01T13:58:22.313Z</time>
    </trkpt>
    <trkpt lat="56.363771" lon="60.956541">
        <ele>246.7</ele>
        <time>1970-01-01T13:58:23.313Z</time>
    </trkpt>
    <trkpt lat="56.363783" lon="60.956541">
        <ele>246.6</ele>
        <time>1970-01-01T13:58:24.313Z</time>
    </trkpt>
    <trkpt lat="56.36382" lon="60.95653">
        <ele>246.5</ele>
        <time>1970-01-01T13:58:25.313Z</time>
    </trkpt>
    <trkpt lat="56.363833" lon="60.956527">
        <ele>246.5</ele>
        <time>1970-01-01T13:58:26.313Z</time>
    </trkpt>
    <trkpt lat="56.36387" lon="60.956523">
        <ele>246.4</ele>
        <time>1970-01-01T13:58:27.313Z</time>
    </trkpt>
    <trkpt lat="56.363884" lon="60.956524">
        <ele>246.4</ele>
        <time>1970-01-01T13:58:28.313Z</time>
    </trkpt>
    <trkpt lat="56.363911" lon="60.95652">
        <ele>246.3</ele>
        <time>1970-01-01T13:58:29.313Z</time>
    </trkpt>
    <trkpt lat="56.363926" lon="60.956514">
        <ele>246.3</ele>
        <time>1970-01-01T13:58:30.313Z</time>
    </trkpt>
    <trkpt lat="56.363957" lon="60.956505">
        <ele>246.2</ele>
        <time>1970-01-01T13:58:31.313Z</time>
    </trkpt>
    <trkpt lat="56.363972" lon="60.956498">
        <ele>246.2</ele>
        <time>1970-01-01T13:58:32.313Z</time>
    </trkpt>
    <trkpt lat="56.363999" lon="60.95648">
        <ele>246.1</ele>
        <time>1970-01-01T13:58:33.313Z</time>
    </trkpt>
    <trkpt lat="56.364014" lon="60.956475">
        <ele>246.0</ele>
        <time>1970-01-01T13:58:34.313Z</time>
    </trkpt>
    <trkpt lat="56.364041" lon="60.956471">
        <ele>246.0</ele>
        <time>1970-01-01T13:58:35.313Z</time>
    </trkpt>
    <trkpt lat="56.364058" lon="60.956465">
        <ele>245.9</ele>
        <time>1970-01-01T13:58:36.313Z</time>
    </trkpt>
    <trkpt lat="56.364083" lon="60.956447">
        <ele>245.9</ele>
        <time>1970-01-01T13:58:37.313Z</time>
    </trkpt>
    <trkpt lat="56.364098" lon="60.956444">
        <ele>245.8</ele>
        <time>1970-01-01T13:58:38.313Z</time>
    </trkpt>
    <trkpt lat="56.364134" lon="60.956443">
        <ele>245.7</ele>
        <time>1970-01-01T13:58:39.313Z</time>
    </trkpt>
    <trkpt lat="56.364163" lon="60.956426">
        <ele>245.7</ele>
        <time>1970-01-01T13:58:40.313Z</time>
    </trkpt>
    <trkpt lat="56.364177" lon="60.956426">
        <ele>245.6</ele>
        <time>1970-01-01T13:58:41.313Z</time>
    </trkpt>
    <trkpt lat="56.364208" lon="60.956427">
        <ele>245.6</ele>
        <time>1970-01-01T13:58:42.313Z</time>
    </trkpt>
    <trkpt lat="56.364227" lon="60.956422">
        <ele>245.5</ele>
        <time>1970-01-01T13:58:43.313Z</time>
    </trkpt>
    <trkpt lat="56.364263" lon="60.956421">
        <ele>245.4</ele>
        <time>1970-01-01T13:58:44.313Z</time>
    </trkpt>
    <trkpt lat="56.364281" lon="60.956415">
        <ele>245.4</ele>
        <time>1970-01-01T13:58:45.313Z</time>
    </trkpt>
    <trkpt lat="56.364312" lon="60.956404">
        <ele>245.3</ele>
        <time>1970-01-01T13:58:46.313Z</time>
    </trkpt>
    <trkpt lat="56.364335" lon="60.956399">
        <ele>245.2</ele>
        <time>1970-01-01T13:58:47.313Z</time>
    </trkpt>
    <trkpt lat="56.364377" lon="60.956394">
        <ele>245.1</ele>
        <time>1970-01-01T13:58:48.313Z</time>
    </trkpt>
    <trkpt lat="56.364394" lon="60.956391">
        <ele>245.1</ele>
        <time>1970-01-01T13:58:49.313Z</time>
    </trkpt>
    <trkpt lat="56.364423" lon="60.956394">
        <ele>245.0</ele>
        <time>1970-01-01T13:58:50.313Z</time>
    </trkpt>
    <trkpt lat="56.364445" lon="60.956392">
        <ele>245.0</ele>
        <time>1970-01-01T13:58:51.313Z</time>
    </trkpt>
    <trkpt lat="56.364483" lon="60.956385">
        <ele>244.9</ele>
        <time>1970-01-01T13:58:52.313Z</time>
    </trkpt>
    <trkpt lat="56.3645" lon="60.95638">
        <ele>244.8</ele>
        <time>1970-01-01T13:58:53.313Z</time>
    </trkpt>
    <trkpt lat="56.36453" lon="60.95638">
        <ele>244.7</ele>
        <time>1970-01-01T13:58:54.313Z</time>
    </trkpt>
    <trkpt lat="56.364546" lon="60.956379">
        <ele>244.7</ele>
        <time>1970-01-01T13:58:55.313Z</time>
    </trkpt>
    <trkpt lat="56.364574" lon="60.956379">
        <ele>244.6</ele>
        <time>1970-01-01T13:58:56.313Z</time>
    </trkpt>
    <trkpt lat="56.364588" lon="60.956379">
        <ele>244.6</ele>
        <time>1970-01-01T13:58:57.313Z</time>
    </trkpt>
    <trkpt lat="56.364621" lon="60.956369">
        <ele>244.5</ele>
        <time>1970-01-01T13:58:58.313Z</time>
    </trkpt>
    <trkpt lat="56.364637" lon="60.956368">
        <ele>244.5</ele>
        <time>1970-01-01T13:58:59.313Z</time>
    </trkpt>
    <trkpt lat="56.364672" lon="60.95636">
        <ele>244.4</ele>
        <time>1970-01-01T13:59:00.313Z</time>
    </trkpt>
    <trkpt lat="56.364685" lon="60.956362">
        <ele>244.4</ele>
        <time>1970-01-01T13:59:01.313Z</time>
    </trkpt>
    <trkpt lat="56.364723" lon="60.95636">
        <ele>244.3</ele>
        <time>1970-01-01T13:59:02.313Z</time>
    </trkpt>
    <trkpt lat="56.364751" lon="60.956358">
        <ele>244.2</ele>
        <time>1970-01-01T13:59:03.313Z</time>
    </trkpt>
    <trkpt lat="56.364763" lon="60.956359">
        <ele>244.2</ele>
        <time>1970-01-01T13:59:04.313Z</time>
    </trkpt>
    <trkpt lat="56.3648" lon="60.956357">
        <ele>244.1</ele>
        <time>1970-01-01T13:59:05.313Z</time>
    </trkpt>
    <trkpt lat="56.364816" lon="60.95636">
        <ele>244.0</ele>
        <time>1970-01-01T13:59:06.313Z</time>
    </trkpt>
    <trkpt lat="56.364844" lon="60.956368">
        <ele>244.0</ele>
        <time>1970-01-01T13:59:07.313Z</time>
    </trkpt>
    <trkpt lat="56.364859" lon="60.956367">
        <ele>243.9</ele>
        <time>1970-01-01T13:59:08.313Z</time>
    </trkpt>
    <trkpt lat="56.364886" lon="60.95637">
        <ele>243.9</ele>
        <time>1970-01-01T13:59:09.313Z</time>
    </trkpt>
    <trkpt lat="56.364902" lon="60.956372">
        <ele>243.8</ele>
        <time>1970-01-01T13:59:10.313Z</time>
    </trkpt>
    <trkpt lat="56.364931" lon="60.956384">
        <ele>243.7</ele>
        <time>1970-01-01T13:59:11.313Z</time>
    </trkpt>
    <trkpt lat="56.364955" lon="60.956376">
        <ele>243.7</ele>
        <time>1970-01-01T13:59:12.313Z</time>
    </trkpt>
    <trkpt lat="56.364966" lon="60.956377">
        <ele>243.7</ele>
        <time>1970-01-01T13:59:13.313Z</time>
    </trkpt>
    <trkpt lat="56.365005" lon="60.956365">
        <ele>243.6</ele>
        <time>1970-01-01T13:59:14.313Z</time>
    </trkpt>
    <trkpt lat="56.365016" lon="60.956362">
        <ele>243.5</ele>
        <time>1970-01-01T13:59:15.313Z</time>
    </trkpt>
    <trkpt lat="56.365049" lon="60.95636">
        <ele>243.5</ele>
        <time>1970-01-01T13:59:16.313Z</time>
    </trkpt>
    <trkpt lat="56.365074" lon="60.956359">
        <ele>243.4</ele>
        <time>1970-01-01T13:59:17.313Z</time>
    </trkpt>
    <trkpt lat="56.365082" lon="60.95635">
        <ele>243.4</ele>
        <time>1970-01-01T13:59:18.313Z</time>
    </trkpt>
    <trkpt lat="56.365103" lon="60.956349">
        <ele>243.3</ele>
        <time>1970-01-01T13:59:19.313Z</time>
    </trkpt>
    <trkpt lat="56.365142" lon="60.956346">
        <ele>243.2</ele>
        <time>1970-01-01T13:59:20.313Z</time>
    </trkpt>
    <trkpt lat="56.365156" lon="60.956352">
        <ele>243.2</ele>
        <time>1970-01-01T13:59:21.313Z</time>
    </trkpt>
    <trkpt lat="56.365191" lon="60.956366">
        <ele>243.1</ele>
        <time>1970-01-01T13:59:22.313Z</time>
    </trkpt>
    <trkpt lat="56.365203" lon="60.956365">
        <ele>243.1</ele>
        <time>1970-01-01T13:59:23.313Z</time>
    </trkpt>
    <trkpt lat="56.365215" lon="60.956365">
        <ele>243.0</ele>
        <time>1970-01-01T13:59:24.313Z</time>
    </trkpt>
    <trkpt lat="56.365239" lon="60.956365">
        <ele>243.0</ele>
        <time>1970-01-01T13:59:25.313Z</time>
    </trkpt>
    <trkpt lat="56.365268" lon="60.956362">
        <ele>243.0</ele>
        <time>1970-01-01T13:59:26.313Z</time>
    </trkpt>
    <trkpt lat="56.365274" lon="60.956366">
        <ele>243.0</ele>
        <time>1970-01-01T13:59:27.313Z</time>
    </trkpt>
    <trkpt lat="56.365309" lon="60.956367">
        <ele>243.1</ele>
        <time>1970-01-01T13:59:28.313Z</time>
    </trkpt>
    <trkpt lat="56.365316" lon="60.956359">
        <ele>243.1</ele>
        <time>1970-01-01T13:59:29.313Z</time>
    </trkpt>
    <trkpt lat="56.365346" lon="60.956359">
        <ele>243.1</ele>
        <time>1970-01-01T13:59:30.313Z</time>
    </trkpt>
    <trkpt lat="56.365353" lon="60.956357">
        <ele>243.1</ele>
        <time>1970-01-01T13:59:31.313Z</time>
    </trkpt>
    <trkpt lat="56.365386" lon="60.956347">
        <ele>243.1</ele>
        <time>1970-01-01T13:59:32.313Z</time>
    </trkpt>
    <trkpt lat="56.365396" lon="60.956343">
        <ele>243.1</ele>
        <time>1970-01-01T13:59:33.313Z</time>
    </trkpt>
    <trkpt lat="56.36543" lon="60.956337">
        <ele>243.1</ele>
        <time>1970-01-01T13:59:34.313Z</time>
    </trkpt>
    <trkpt lat="56.365445" lon="60.95634">
        <ele>243.1</ele>
        <time>1970-01-01T13:59:35.313Z</time>
    </trkpt>
    <trkpt lat="56.365473" lon="60.956343">
        <ele>243.1</ele>
        <time>1970-01-01T13:59:36.313Z</time>
    </trkpt>
    <trkpt lat="56.365508" lon="60.956338">
        <ele>243.1</ele>
        <time>1970-01-01T13:59:37.313Z</time>
    </trkpt>
    <trkpt lat="56.365519" lon="60.956344">
        <ele>243.1</ele>
        <time>1970-01-01T13:59:38.313Z</time>
    </trkpt>
    <trkpt lat="56.365556" lon="60.956346">
        <ele>243.1</ele>
        <time>1970-01-01T13:59:39.313Z</time>
    </trkpt>
    <trkpt lat="56.365565" lon="60.956345">
        <ele>243.1</ele>
        <time>1970-01-01T13:59:40.313Z</time>
    </trkpt>
    <trkpt lat="56.365593" lon="60.956352">
        <ele>243.1</ele>
        <time>1970-01-01T13:59:41.313Z</time>
    </trkpt>
    <trkpt lat="56.365606" lon="60.956352">
        <ele>243.1</ele>
        <time>1970-01-01T13:59:42.313Z</time>
    </trkpt>
    <trkpt lat="56.365634" lon="60.956345">
        <ele>243.2</ele>
        <time>1970-01-01T13:59:43.313Z</time>
    </trkpt>
    <trkpt lat="56.365664" lon="60.956342">
        <ele>243.2</ele>
        <time>1970-01-01T13:59:44.313Z</time>
    </trkpt>
    <trkpt lat="56.365677" lon="60.95634">
        <ele>243.2</ele>
        <time>1970-01-01T13:59:45.313Z</time>
    </trkpt>
    <trkpt lat="56.36571" lon="60.956338">
        <ele>243.2</ele>
        <time>1970-01-01T13:59:46.313Z</time>
    </trkpt>
    <trkpt lat="56.365724" lon="60.956341">
        <ele>243.2</ele>
        <time>1970-01-01T13:59:47.313Z</time>
    </trkpt>
    <trkpt lat="56.365762" lon="60.956342">
        <ele>243.2</ele>
        <time>1970-01-01T13:59:48.313Z</time>
    </trkpt>
    <trkpt lat="56.365773" lon="60.956338">
        <ele>243.2</ele>
        <time>1970-01-01T13:59:49.313Z</time>
    </trkpt>
    <trkpt lat="56.36581" lon="60.956332">
        <ele>243.2</ele>
        <time>1970-01-01T13:59:50.313Z</time>
    </trkpt>
    <trkpt lat="56.365821" lon="60.956335">
        <ele>243.2</ele>
        <time>1970-01-01T13:59:51.313Z</time>
    </trkpt>
    <trkpt lat="56.365852" lon="60.956336">
        <ele>243.2</ele>
        <time>1970-01-01T13:59:52.313Z</time>
    </trkpt>
    <trkpt lat="56.365864" lon="60.956337">
        <ele>243.2</ele>
        <time>1970-01-01T13:59:53.313Z</time>
    </trkpt>
    <trkpt lat="56.3659" lon="60.95634">
        <ele>243.2</ele>
        <time>1970-01-01T13:59:54.313Z</time>
    </trkpt>
    <trkpt lat="56.36591" lon="60.956336">
        <ele>243.2</ele>
        <time>1970-01-01T13:59:55.313Z</time>
    </trkpt>
    <trkpt lat="56.365941" lon="60.956325">
        <ele>243.2</ele>
        <time>1970-01-01T13:59:56.313Z</time>
    </trkpt>
    <trkpt lat="56.365951" lon="60.956327">
        <ele>243.2</ele>
        <time>1970-01-01T13:59:57.313Z</time>
    </trkpt>
    <trkpt lat="56.365977" lon="60.956329">
        <ele>243.3</ele>
        <time>1970-01-01T13:59:58.313Z</time>
    </trkpt>
    <trkpt lat="56.365989" lon="60.956327">
        <ele>243.3</ele>
        <time>1970-01-01T13:59:59.313Z</time>
    </trkpt>
    <trkpt lat="56.366018" lon="60.956323">
        <ele>243.3</ele>
        <time>1970-01-01T14:00:00.313Z</time>
    </trkpt>
    <trkpt lat="56.36603" lon="60.956324">
        <ele>243.3</ele>
        <time>1970-01-01T14:00:01.313Z</time>
    </trkpt>
    <trkpt lat="56.366065" lon="60.956324">
        <ele>243.3</ele>
        <time>1970-01-01T14:00:02.313Z</time>
    </trkpt>
    <trkpt lat="56.366074" lon="60.956325">
        <ele>243.3</ele>
        <time>1970-01-01T14:00:03.313Z</time>
    </trkpt>
    <trkpt lat="56.366102" lon="60.956323">
        <ele>243.3</ele>
        <time>1970-01-01T14:00:04.313Z</time>
    </trkpt>
    <trkpt lat="56.366113" lon="60.956321">
        <ele>243.3</ele>
        <time>1970-01-01T14:00:05.313Z</time>
    </trkpt>
    <trkpt lat="56.366142" lon="60.956325">
        <ele>243.3</ele>
        <time>1970-01-01T14:00:06.313Z</time>
    </trkpt>
    <trkpt lat="56.36616" lon="60.956327">
        <ele>243.3</ele>
        <time>1970-01-01T14:00:07.313Z</time>
    </trkpt>
    <trkpt lat="56.366174" lon="60.956329">
        <ele>243.3</ele>
        <time>1970-01-01T14:00:08.313Z</time>
    </trkpt>
    <trkpt lat="56.366183" lon="60.956331">
        <ele>243.3</ele>
        <time>1970-01-01T14:00:09.313Z</time>
    </trkpt>
    <trkpt lat="56.366212" lon="60.95634">
        <ele>243.3</ele>
        <time>1970-01-01T14:00:10.313Z</time>
    </trkpt>
    <trkpt lat="56.36622" lon="60.956348">
        <ele>243.3</ele>
        <time>1970-01-01T14:00:11.313Z</time>
    </trkpt>
    <trkpt lat="56.366247" lon="60.956372">
        <ele>243.3</ele>
        <time>1970-01-01T14:00:12.313Z</time>
    </trkpt>
    <trkpt lat="56.366257" lon="60.956378">
        <ele>243.3</ele>
        <time>1970-01-01T14:00:13.313Z</time>
    </trkpt>
    <trkpt lat="56.366285" lon="60.956399">
        <ele>243.3</ele>
        <time>1970-01-01T14:00:14.313Z</time>
    </trkpt>
    <trkpt lat="56.366297" lon="60.956404">
        <ele>243.4</ele>
        <time>1970-01-01T14:00:15.313Z</time>
    </trkpt>
    <trkpt lat="56.366329" lon="60.956431">
        <ele>243.4</ele>
        <time>1970-01-01T14:00:16.313Z</time>
    </trkpt>
    <trkpt lat="56.366333" lon="60.956438">
        <ele>243.4</ele>
        <time>1970-01-01T14:00:17.313Z</time>
    </trkpt>
    <trkpt lat="56.366336" lon="60.956446">
        <ele>243.4</ele>
        <time>1970-01-01T14:00:18.313Z</time>
    </trkpt>
    <trkpt lat="56.366339" lon="60.956453">
        <ele>243.4</ele>
        <time>1970-01-01T14:00:19.313Z</time>
    </trkpt>
    <trkpt lat="56.366343" lon="60.956461">
        <ele>243.4</ele>
        <time>1970-01-01T14:00:20.313Z</time>
    </trkpt>
    <trkpt lat="56.366346" lon="60.956468">
        <ele>243.4</ele>
        <time>1970-01-01T14:00:21.313Z</time>
    </trkpt>
    <trkpt lat="56.366349" lon="60.956476">
        <ele>243.4</ele>
        <time>1970-01-01T14:00:22.313Z</time>
    </trkpt>
    <trkpt lat="56.366353" lon="60.956483">
        <ele>243.4</ele>
        <time>1970-01-01T14:00:23.313Z</time>
    </trkpt>
    <trkpt lat="56.366356" lon="60.956491">
        <ele>243.4</ele>
        <time>1970-01-01T14:00:24.313Z</time>
    </trkpt>
    <trkpt lat="56.366359" lon="60.956498">
        <ele>243.4</ele>
        <time>1970-01-01T14:00:25.313Z</time>
    </trkpt>
    <trkpt lat="56.366363" lon="60.956506">
        <ele>243.4</ele>
        <time>1970-01-01T14:00:26.313Z</time>
    </trkpt>
    <trkpt lat="56.366366" lon="60.956513">
        <ele>243.4</ele>
        <time>1970-01-01T14:00:27.313Z</time>
    </trkpt>
    <trkpt lat="56.366369" lon="60.956521">
        <ele>243.4</ele>
        <time>1970-01-01T14:00:28.313Z</time>
    </trkpt>
    <trkpt lat="56.366372" lon="60.956528">
        <ele>243.4</ele>
        <time>1970-01-01T14:00:29.313Z</time>
    </trkpt>
    <trkpt lat="56.366376" lon="60.956536">
        <ele>243.4</ele>
        <time>1970-01-01T14:00:30.313Z</time>
    </trkpt>
    <trkpt lat="56.366379" lon="60.956543">
        <ele>243.4</ele>
        <time>1970-01-01T14:00:31.313Z</time>
    </trkpt>
    <trkpt lat="56.366382" lon="60.95655">
        <ele>243.4</ele>
        <time>1970-01-01T14:00:32.313Z</time>
    </trkpt>
    <trkpt lat="56.366386" lon="60.956558">
        <ele>243.4</ele>
        <time>1970-01-01T14:00:33.313Z</time>
    </trkpt>
    <trkpt lat="56.366389" lon="60.956565">
        <ele>243.4</ele>
        <time>1970-01-01T14:00:34.313Z</time>
    </trkpt>
    <trkpt lat="56.366395" lon="60.956581">
        <ele>243.4</ele>
        <time>1970-01-01T14:00:35.313Z</time>
    </trkpt>
    <trkpt lat="56.366394" lon="60.956598">
        <ele>243.4</ele>
        <time>1970-01-01T14:00:36.313Z</time>
    </trkpt>
    <trkpt lat="56.366391" lon="60.956609">
        <ele>243.4</ele>
        <time>1970-01-01T14:00:37.313Z</time>
    </trkpt>
    <trkpt lat="56.366393" lon="60.95662">
        <ele>243.4</ele>
        <time>1970-01-01T14:00:38.313Z</time>
    </trkpt>
    <trkpt lat="56.366395" lon="60.95663">
        <ele>243.4</ele>
        <time>1970-01-01T14:00:39.313Z</time>
    </trkpt>
    <trkpt lat="56.366396" lon="60.956645">
        <ele>243.4</ele>
        <time>1970-01-01T14:00:40.313Z</time>
    </trkpt>
    <trkpt lat="56.366397" lon="60.956669">
        <ele>243.4</ele>
        <time>1970-01-01T14:00:41.313Z</time>
    </trkpt>
    <trkpt lat="56.366398" lon="60.956687">
        <ele>243.4</ele>
        <time>1970-01-01T14:00:42.313Z</time>
    </trkpt>
    <trkpt lat="56.366398" lon="60.956714">
        <ele>243.4</ele>
        <time>1970-01-01T14:00:43.313Z</time>
    </trkpt>
    <trkpt lat="56.366404" lon="60.956736">
        <ele>243.4</ele>
        <time>1970-01-01T14:00:44.313Z</time>
    </trkpt>
    <trkpt lat="56.366411" lon="60.956755">
        <ele>243.4</ele>
        <time>1970-01-01T14:00:45.313Z</time>
    </trkpt>
    <trkpt lat="56.366417" lon="60.956771">
        <ele>243.4</ele>
        <time>1970-01-01T14:00:46.313Z</time>
    </trkpt>
    <trkpt lat="56.366423" lon="60.95678">
        <ele>243.4</ele>
        <time>1970-01-01T14:00:47.313Z</time>
    </trkpt>
    <trkpt lat="56.366429" lon="60.956807">
        <ele>243.4</ele>
        <time>1970-01-01T14:00:48.313Z</time>
    </trkpt>
    <trkpt lat="56.366434" lon="60.956817">
        <ele>243.4</ele>
        <time>1970-01-01T14:00:49.313Z</time>
    </trkpt>
    <trkpt lat="56.36644" lon="60.956834">
        <ele>243.4</ele>
        <time>1970-01-01T14:00:50.313Z</time>
    </trkpt>
    <trkpt lat="56.366444" lon="60.956838">
        <ele>243.4</ele>
        <time>1970-01-01T14:00:51.313Z</time>
    </trkpt>
    <trkpt lat="56.366443" lon="60.956824">
        <ele>243.4</ele>
        <time>1970-01-01T14:00:52.313Z</time>
    </trkpt>
    <trkpt lat="56.366445" lon="60.956836">
        <ele>243.4</ele>
        <time>1970-01-01T14:00:53.313Z</time>
    </trkpt>
    <trkpt lat="56.366447" lon="60.956848">
        <ele>243.4</ele>
        <time>1970-01-01T14:00:54.313Z</time>
    </trkpt>
    <trkpt lat="56.366448" lon="60.95686">
        <ele>243.4</ele>
        <time>1970-01-01T14:00:55.313Z</time>
    </trkpt>
    <trkpt lat="56.366458" lon="60.956886">
        <ele>243.5</ele>
        <time>1970-01-01T14:00:56.313Z</time>
    </trkpt>
    <trkpt lat="56.366463" lon="60.956901">
        <ele>243.5</ele>
        <time>1970-01-01T14:00:57.313Z</time>
    </trkpt>
    <trkpt lat="56.366468" lon="60.956915">
        <ele>243.5</ele>
        <time>1970-01-01T14:00:58.313Z</time>
    </trkpt>
    <trkpt lat="56.366472" lon="60.956955">
        <ele>243.5</ele>
        <time>1970-01-01T14:00:59.313Z</time>
    </trkpt>
    <trkpt lat="56.36647" lon="60.956973">
        <ele>243.5</ele>
        <time>1970-01-01T14:01:00.313Z</time>
    </trkpt>
    <trkpt lat="56.366481" lon="60.957004">
        <ele>243.5</ele>
        <time>1970-01-01T14:01:01.313Z</time>
    </trkpt>
    <trkpt lat="56.366488" lon="60.957021">
        <ele>243.5</ele>
        <time>1970-01-01T14:01:02.313Z</time>
    </trkpt>
    <trkpt lat="56.366494" lon="60.957037">
        <ele>243.5</ele>
        <time>1970-01-01T14:01:03.313Z</time>
    </trkpt>
    <trkpt lat="56.366499" lon="60.957062">
        <ele>243.5</ele>
        <time>1970-01-01T14:01:04.313Z</time>
    </trkpt>
    <trkpt lat="56.366501" lon="60.957078">
        <ele>243.5</ele>
        <time>1970-01-01T14:01:05.313Z</time>
    </trkpt>
    <trkpt lat="56.366504" lon="60.957095">
        <ele>243.5</ele>
        <time>1970-01-01T14:01:06.313Z</time>
    </trkpt>
    <trkpt lat="56.366513" lon="60.957124">
        <ele>243.5</ele>
        <time>1970-01-01T14:01:07.313Z</time>
    </trkpt>
    <trkpt lat="56.366516" lon="60.957143">
        <ele>243.5</ele>
        <time>1970-01-01T14:01:08.313Z</time>
    </trkpt>
    <trkpt lat="56.366518" lon="60.957162">
        <ele>243.5</ele>
        <time>1970-01-01T14:01:09.313Z</time>
    </trkpt>
    <trkpt lat="56.366522" lon="60.957191">
        <ele>243.5</ele>
        <time>1970-01-01T14:01:10.313Z</time>
    </trkpt>
    <trkpt lat="56.36652" lon="60.957215">
        <ele>243.5</ele>
        <time>1970-01-01T14:01:11.313Z</time>
    </trkpt>
    <trkpt lat="56.366514" lon="60.957241">
        <ele>243.5</ele>
        <time>1970-01-01T14:01:12.313Z</time>
    </trkpt>
    <trkpt lat="56.366508" lon="60.957255">
        <ele>243.5</ele>
        <time>1970-01-01T14:01:13.313Z</time>
    </trkpt>
    <trkpt lat="56.3665" lon="60.957276">
        <ele>243.5</ele>
        <time>1970-01-01T14:01:14.313Z</time>
    </trkpt>
    <trkpt lat="56.366502" lon="60.957293">
        <ele>243.5</ele>
        <time>1970-01-01T14:01:15.313Z</time>
    </trkpt>
    <trkpt lat="56.366505" lon="60.957325">
        <ele>243.5</ele>
        <time>1970-01-01T14:01:16.313Z</time>
    </trkpt>
    <trkpt lat="56.366509" lon="60.95735">
        <ele>243.5</ele>
        <time>1970-01-01T14:01:17.313Z</time>
    </trkpt>
    <trkpt lat="56.366507" lon="60.957368">
        <ele>243.5</ele>
        <time>1970-01-01T14:01:18.313Z</time>
    </trkpt>
    <trkpt lat="56.366505" lon="60.957385">
        <ele>243.5</ele>
        <time>1970-01-01T14:01:19.313Z</time>
    </trkpt>
    <trkpt lat="56.366506" lon="60.957423">
        <ele>243.5</ele>
        <time>1970-01-01T14:01:20.313Z</time>
    </trkpt>
    <trkpt lat="56.366504" lon="60.957442">
        <ele>243.5</ele>
        <time>1970-01-01T14:01:21.313Z</time>
    </trkpt>
    <trkpt lat="56.3665" lon="60.957491">
        <ele>243.6</ele>
        <time>1970-01-01T14:01:22.313Z</time>
    </trkpt>
    <trkpt lat="56.366504" lon="60.957528">
        <ele>243.6</ele>
        <time>1970-01-01T14:01:23.313Z</time>
    </trkpt>
    <trkpt lat="56.366509" lon="60.957542">
        <ele>243.6</ele>
        <time>1970-01-01T14:01:24.313Z</time>
    </trkpt>
    <trkpt lat="56.366509" lon="60.957563">
        <ele>243.6</ele>
        <time>1970-01-01T14:01:25.313Z</time>
    </trkpt>
    <trkpt lat="56.366507" lon="60.957611">
        <ele>243.6</ele>
        <time>1970-01-01T14:01:26.313Z</time>
    </trkpt>
    <trkpt lat="56.366504" lon="60.957644">
        <ele>243.6</ele>
        <time>1970-01-01T14:01:27.313Z</time>
    </trkpt>
    <trkpt lat="56.366502" lon="60.957674">
        <ele>243.6</ele>
        <time>1970-01-01T14:01:28.313Z</time>
    </trkpt>
    <trkpt lat="56.366508" lon="60.957707">
        <ele>243.6</ele>
        <time>1970-01-01T14:01:29.313Z</time>
    </trkpt>
    <trkpt lat="56.366511" lon="60.957723">
        <ele>243.6</ele>
        <time>1970-01-01T14:01:30.313Z</time>
    </trkpt>
    <trkpt lat="56.366517" lon="60.957749">
        <ele>243.6</ele>
        <time>1970-01-01T14:01:31.313Z</time>
    </trkpt>
    <trkpt lat="56.366519" lon="60.957771">
        <ele>243.6</ele>
        <time>1970-01-01T14:01:32.313Z</time>
    </trkpt>
    <trkpt lat="56.366524" lon="60.957795">
        <ele>243.6</ele>
        <time>1970-01-01T14:01:33.313Z</time>
    </trkpt>
    <trkpt lat="56.366526" lon="60.957822">
        <ele>243.6</ele>
        <time>1970-01-01T14:01:34.313Z</time>
    </trkpt>
    <trkpt lat="56.366527" lon="60.957838">
        <ele>243.6</ele>
        <time>1970-01-01T14:01:35.313Z</time>
    </trkpt>
    <trkpt lat="56.36653" lon="60.957888">
        <ele>243.6</ele>
        <time>1970-01-01T14:01:36.313Z</time>
    </trkpt>
    <trkpt lat="56.366531" lon="60.957924">
        <ele>243.6</ele>
        <time>1970-01-01T14:01:37.313Z</time>
    </trkpt>
    <trkpt lat="56.366534" lon="60.957946">
        <ele>243.6</ele>
        <time>1970-01-01T14:01:38.313Z</time>
    </trkpt>
    <trkpt lat="56.366534" lon="60.957947">
        <ele>243.6</ele>
        <time>1970-01-01T14:01:39.313Z</time>
    </trkpt>
    <trkpt lat="56.366531" lon="60.957946">
        <ele>243.6</ele>
        <time>1970-01-01T14:01:40.313Z</time>
    </trkpt>
    <trkpt lat="56.366534" lon="60.957956">
        <ele>243.6</ele>
        <time>1970-01-01T14:01:41.313Z</time>
    </trkpt>
    <trkpt lat="56.366541" lon="60.957979">
        <ele>243.6</ele>
        <time>1970-01-01T14:01:42.313Z</time>
    </trkpt>
    <trkpt lat="56.366546" lon="60.957997">
        <ele>243.6</ele>
        <time>1970-01-01T14:01:43.313Z</time>
    </trkpt>
    <trkpt lat="56.366554" lon="60.958031">
        <ele>243.6</ele>
        <time>1970-01-01T14:01:44.313Z</time>
    </trkpt>
    <trkpt lat="56.366556" lon="60.95805">
        <ele>243.6</ele>
        <time>1970-01-01T14:01:45.313Z</time>
    </trkpt>
    <trkpt lat="56.366571" lon="60.958089">
        <ele>243.7</ele>
        <time>1970-01-01T14:01:46.313Z</time>
    </trkpt>
    <trkpt lat="56.366581" lon="60.958089">
        <ele>243.7</ele>
        <time>1970-01-01T14:01:47.313Z</time>
    </trkpt>
    <trkpt lat="56.366588" lon="60.958116">
        <ele>243.7</ele>
        <time>1970-01-01T14:01:48.313Z</time>
    </trkpt>
    <trkpt lat="56.366601" lon="60.958151">
        <ele>243.7</ele>
        <time>1970-01-01T14:01:49.313Z</time>
    </trkpt>
    <trkpt lat="56.366607" lon="60.958175">
        <ele>243.7</ele>
        <time>1970-01-01T14:01:50.313Z</time>
    </trkpt>
    <trkpt lat="56.366615" lon="60.958212">
        <ele>243.7</ele>
        <time>1970-01-01T14:01:51.313Z</time>
    </trkpt>
    <trkpt lat="56.366623" lon="60.958255">
        <ele>243.7</ele>
        <time>1970-01-01T14:01:52.313Z</time>
    </trkpt>
    <trkpt lat="56.366631" lon="60.95827">
        <ele>243.7</ele>
        <time>1970-01-01T14:01:53.313Z</time>
    </trkpt>
    <trkpt lat="56.366644" lon="60.958301">
        <ele>243.7</ele>
        <time>1970-01-01T14:01:54.313Z</time>
    </trkpt>
    <trkpt lat="56.366645" lon="60.958311">
        <ele>243.7</ele>
        <time>1970-01-01T14:01:55.313Z</time>
    </trkpt>
    <trkpt lat="56.366657" lon="60.958343">
        <ele>243.7</ele>
        <time>1970-01-01T14:01:56.313Z</time>
    </trkpt>
    <trkpt lat="56.366662" lon="60.958365">
        <ele>243.7</ele>
        <time>1970-01-01T14:01:57.313Z</time>
    </trkpt>
    <trkpt lat="56.366669" lon="60.958373">
        <ele>243.7</ele>
        <time>1970-01-01T14:01:58.313Z</time>
    </trkpt>
    <trkpt lat="56.366686" lon="60.958414">
        <ele>243.7</ele>
        <time>1970-01-01T14:01:59.313Z</time>
    </trkpt>
    <trkpt lat="56.366691" lon="60.958425">
        <ele>243.7</ele>
        <time>1970-01-01T14:02:00.313Z</time>
    </trkpt>
    <trkpt lat="56.366704" lon="60.958478">
        <ele>243.7</ele>
        <time>1970-01-01T14:02:01.313Z</time>
    </trkpt>
    <trkpt lat="56.366714" lon="60.958499">
        <ele>243.7</ele>
        <time>1970-01-01T14:02:02.313Z</time>
    </trkpt>
    <trkpt lat="56.366716" lon="60.958531">
        <ele>243.7</ele>
        <time>1970-01-01T14:02:03.313Z</time>
    </trkpt>
    <trkpt lat="56.366723" lon="60.958561">
        <ele>243.7</ele>
        <time>1970-01-01T14:02:04.313Z</time>
    </trkpt>
    <trkpt lat="56.366719" lon="60.958582">
        <ele>243.8</ele>
        <time>1970-01-01T14:02:05.313Z</time>
    </trkpt>
    <trkpt lat="56.36672" lon="60.958595">
        <ele>243.8</ele>
        <time>1970-01-01T14:02:06.313Z</time>
    </trkpt>
    <trkpt lat="56.36672" lon="60.958607">
        <ele>243.8</ele>
        <time>1970-01-01T14:02:07.313Z</time>
    </trkpt>
    <trkpt lat="56.36672" lon="60.958619">
        <ele>243.8</ele>
        <time>1970-01-01T14:02:08.313Z</time>
    </trkpt>
    <trkpt lat="56.36672" lon="60.958632">
        <ele>243.8</ele>
        <time>1970-01-01T14:02:09.313Z</time>
    </trkpt>
    <trkpt lat="56.366719" lon="60.958666">
        <ele>243.8</ele>
        <time>1970-01-01T14:02:10.313Z</time>
    </trkpt>
    <trkpt lat="56.366718" lon="60.958685">
        <ele>243.8</ele>
        <time>1970-01-01T14:02:11.313Z</time>
    </trkpt>
    <trkpt lat="56.366722" lon="60.958708">
        <ele>243.8</ele>
        <time>1970-01-01T14:02:12.313Z</time>
    </trkpt>
    <trkpt lat="56.366719" lon="60.95873">
        <ele>243.8</ele>
        <time>1970-01-01T14:02:13.313Z</time>
    </trkpt>
    <trkpt lat="56.366718" lon="60.958755">
        <ele>243.8</ele>
        <time>1970-01-01T14:02:14.313Z</time>
    </trkpt>
    <trkpt lat="56.366713" lon="60.958787">
        <ele>243.8</ele>
        <time>1970-01-01T14:02:15.313Z</time>
    </trkpt>
    <trkpt lat="56.366715" lon="60.958804">
        <ele>243.8</ele>
        <time>1970-01-01T14:02:16.313Z</time>
    </trkpt>
    <trkpt lat="56.366717" lon="60.958822">
        <ele>243.8</ele>
        <time>1970-01-01T14:02:17.313Z</time>
    </trkpt>
    <trkpt lat="56.366718" lon="60.958852">
        <ele>243.8</ele>
        <time>1970-01-01T14:02:18.313Z</time>
    </trkpt>
    <trkpt lat="56.36673" lon="60.958874">
        <ele>243.8</ele>
        <time>1970-01-01T14:02:19.313Z</time>
    </trkpt>
    <trkpt lat="56.36674" lon="60.958888">
        <ele>243.8</ele>
        <time>1970-01-01T14:02:20.313Z</time>
    </trkpt>
    <trkpt lat="56.366747" lon="60.958907">
        <ele>243.8</ele>
        <time>1970-01-01T14:02:21.313Z</time>
    </trkpt>
    <trkpt lat="56.366756" lon="60.958917">
        <ele>243.8</ele>
        <time>1970-01-01T14:02:22.313Z</time>
    </trkpt>
    <trkpt lat="56.366752" lon="60.958933">
        <ele>243.8</ele>
        <time>1970-01-01T14:02:23.313Z</time>
    </trkpt>
    <trkpt lat="56.366751" lon="60.958957">
        <ele>243.8</ele>
        <time>1970-01-01T14:02:24.313Z</time>
    </trkpt>
    <trkpt lat="56.366753" lon="60.958989">
        <ele>243.8</ele>
        <time>1970-01-01T14:02:25.313Z</time>
    </trkpt>
    <trkpt lat="56.366758" lon="60.959012">
        <ele>243.8</ele>
        <time>1970-01-01T14:02:26.313Z</time>
    </trkpt>
    <trkpt lat="56.366756" lon="60.959039">
        <ele>243.8</ele>
        <time>1970-01-01T14:02:27.313Z</time>
    </trkpt>
    <trkpt lat="56.366761" lon="60.959064">
        <ele>243.8</ele>
        <time>1970-01-01T14:02:28.313Z</time>
    </trkpt>
    <trkpt lat="56.366767" lon="60.959089">
        <ele>243.8</ele>
        <time>1970-01-01T14:02:29.313Z</time>
    </trkpt>
    <trkpt lat="56.36677" lon="60.959114">
        <ele>243.8</ele>
        <time>1970-01-01T14:02:30.313Z</time>
    </trkpt>
    <trkpt lat="56.366774" lon="60.959143">
        <ele>243.8</ele>
        <time>1970-01-01T14:02:31.313Z</time>
    </trkpt>
    <trkpt lat="56.366771" lon="60.959168">
        <ele>243.9</ele>
        <time>1970-01-01T14:02:32.313Z</time>
    </trkpt>
    <trkpt lat="56.366772" lon="60.959192">
        <ele>243.9</ele>
        <time>1970-01-01T14:02:33.313Z</time>
    </trkpt>
    <trkpt lat="56.366781" lon="60.959209">
        <ele>243.9</ele>
        <time>1970-01-01T14:02:34.313Z</time>
    </trkpt>
    <trkpt lat="56.366787" lon="60.959243">
        <ele>243.9</ele>
        <time>1970-01-01T14:02:35.313Z</time>
    </trkpt>
    <trkpt lat="56.366793" lon="60.959256">
        <ele>243.9</ele>
        <time>1970-01-01T14:02:36.313Z</time>
    </trkpt>
    <trkpt lat="56.366799" lon="60.95927">
        <ele>243.9</ele>
        <time>1970-01-01T14:02:37.313Z</time>
    </trkpt>
    <trkpt lat="56.366814" lon="60.959301">
        <ele>243.9</ele>
        <time>1970-01-01T14:02:38.313Z</time>
    </trkpt>
    <trkpt lat="56.366821" lon="60.959329">
        <ele>243.9</ele>
        <time>1970-01-01T14:02:39.313Z</time>
    </trkpt>
    <trkpt lat="56.366829" lon="60.959349">
        <ele>243.9</ele>
        <time>1970-01-01T14:02:40.313Z</time>
    </trkpt>
    <trkpt lat="56.366837" lon="60.959378">
        <ele>243.9</ele>
        <time>1970-01-01T14:02:41.313Z</time>
    </trkpt>
    <trkpt lat="56.366838" lon="60.959404">
        <ele>243.9</ele>
        <time>1970-01-01T14:02:42.313Z</time>
    </trkpt>
    <trkpt lat="56.366841" lon="60.959417">
        <ele>243.9</ele>
        <time>1970-01-01T14:02:43.313Z</time>
    </trkpt>
    <trkpt lat="56.366845" lon="60.959428">
        <ele>243.9</ele>
        <time>1970-01-01T14:02:44.313Z</time>
    </trkpt>
    <trkpt lat="56.366851" lon="60.959455">
        <ele>243.9</ele>
        <time>1970-01-01T14:02:45.313Z</time>
    </trkpt>
    <trkpt lat="56.366856" lon="60.959481">
        <ele>243.9</ele>
        <time>1970-01-01T14:02:46.313Z</time>
    </trkpt>
    <trkpt lat="56.36686" lon="60.959494">
        <ele>243.9</ele>
        <time>1970-01-01T14:02:47.313Z</time>
    </trkpt>
    <trkpt lat="56.366863" lon="60.959512">
        <ele>243.9</ele>
        <time>1970-01-01T14:02:48.313Z</time>
    </trkpt>
    <trkpt lat="56.366865" lon="60.959527">
        <ele>243.9</ele>
        <time>1970-01-01T14:02:49.313Z</time>
    </trkpt>
    <trkpt lat="56.366867" lon="60.959542">
        <ele>243.9</ele>
        <time>1970-01-01T14:02:50.313Z</time>
    </trkpt>
    <trkpt lat="56.366878" lon="60.959574">
        <ele>243.9</ele>
        <time>1970-01-01T14:02:51.313Z</time>
    </trkpt>
    <trkpt lat="56.366884" lon="60.959596">
        <ele>243.9</ele>
        <time>1970-01-01T14:02:52.313Z</time>
    </trkpt>
    <trkpt lat="56.366899" lon="60.959625">
        <ele>243.9</ele>
        <time>1970-01-01T14:02:53.313Z</time>
    </trkpt>
    <trkpt lat="56.366904" lon="60.959642">
        <ele>243.9</ele>
        <time>1970-01-01T14:02:54.313Z</time>
    </trkpt>
    <trkpt lat="56.366918" lon="60.95968">
        <ele>243.9</ele>
        <time>1970-01-01T14:02:55.313Z</time>
    </trkpt>
    <trkpt lat="56.366917" lon="60.9597">
        <ele>243.9</ele>
        <time>1970-01-01T14:02:56.313Z</time>
    </trkpt>
    <trkpt lat="56.366915" lon="60.959719">
        <ele>244.0</ele>
        <time>1970-01-01T14:02:57.313Z</time>
    </trkpt>
    <trkpt lat="56.366913" lon="60.959738">
        <ele>244.0</ele>
        <time>1970-01-01T14:02:58.313Z</time>
    </trkpt>
    <trkpt lat="56.366912" lon="60.959758">
        <ele>244.0</ele>
        <time>1970-01-01T14:02:59.313Z</time>
    </trkpt>
    <trkpt lat="56.36691" lon="60.959777">
        <ele>244.0</ele>
        <time>1970-01-01T14:03:00.313Z</time>
    </trkpt>
    <trkpt lat="56.366908" lon="60.959799">
        <ele>244.0</ele>
        <time>1970-01-01T14:03:01.313Z</time>
    </trkpt>
    <trkpt lat="56.366911" lon="60.959811">
        <ele>244.0</ele>
        <time>1970-01-01T14:03:02.313Z</time>
    </trkpt>
    <trkpt lat="56.366913" lon="60.959822">
        <ele>244.0</ele>
        <time>1970-01-01T14:03:03.313Z</time>
    </trkpt>
    <trkpt lat="56.366916" lon="60.959833">
        <ele>244.0</ele>
        <time>1970-01-01T14:03:04.313Z</time>
    </trkpt>
    <trkpt lat="56.366919" lon="60.959844">
        <ele>244.0</ele>
        <time>1970-01-01T14:03:05.313Z</time>
    </trkpt>
    <trkpt lat="56.366922" lon="60.959855">
        <ele>244.0</ele>
        <time>1970-01-01T14:03:06.313Z</time>
    </trkpt>
    <trkpt lat="56.366925" lon="60.959866">
        <ele>244.0</ele>
        <time>1970-01-01T14:03:07.313Z</time>
    </trkpt>
    <trkpt lat="56.366928" lon="60.959878">
        <ele>244.0</ele>
        <time>1970-01-01T14:03:08.313Z</time>
    </trkpt>
    <trkpt lat="56.366935" lon="60.959902">
        <ele>244.0</ele>
        <time>1970-01-01T14:03:09.313Z</time>
    </trkpt>
    <trkpt lat="56.366943" lon="60.959906">
        <ele>244.0</ele>
        <time>1970-01-01T14:03:10.313Z</time>
    </trkpt>
    <trkpt lat="56.366951" lon="60.959907">
        <ele>244.0</ele>
        <time>1970-01-01T14:03:11.313Z</time>
    </trkpt>
    <trkpt lat="56.366968" lon="60.95992">
        <ele>244.0</ele>
        <time>1970-01-01T14:03:12.313Z</time>
    </trkpt>
    <trkpt lat="56.366978" lon="60.959923">
        <ele>244.0</ele>
        <time>1970-01-01T14:03:13.313Z</time>
    </trkpt>
    <trkpt lat="56.367004" lon="60.959959">
        <ele>244.1</ele>
        <time>1970-01-01T14:03:14.313Z</time>
    </trkpt>
    <trkpt lat="56.36702" lon="60.959973">
        <ele>244.1</ele>
        <time>1970-01-01T14:03:15.313Z</time>
    </trkpt>
    <trkpt lat="56.367053" lon="60.960002">
        <ele>244.1</ele>
        <time>1970-01-01T14:03:16.313Z</time>
    </trkpt>
    <trkpt lat="56.367067" lon="60.960009">
        <ele>244.1</ele>
        <time>1970-01-01T14:03:17.313Z</time>
    </trkpt>
    <trkpt lat="56.367103" lon="60.96004">
        <ele>244.2</ele>
        <time>1970-01-01T14:03:18.313Z</time>
    </trkpt>
    <trkpt lat="56.367114" lon="60.960055">
        <ele>244.2</ele>
        <time>1970-01-01T14:03:19.313Z</time>
    </trkpt>
    <trkpt lat="56.367131" lon="60.96009">
        <ele>244.2</ele>
        <time>1970-01-01T14:03:20.313Z</time>
    </trkpt>
    <trkpt lat="56.367137" lon="60.96011">
        <ele>244.3</ele>
        <time>1970-01-01T14:03:21.313Z</time>
    </trkpt>
    <trkpt lat="56.367161" lon="60.96015">
        <ele>244.3</ele>
        <time>1970-01-01T14:03:22.313Z</time>
    </trkpt>
    <trkpt lat="56.367171" lon="60.960164">
        <ele>244.3</ele>
        <time>1970-01-01T14:03:23.313Z</time>
    </trkpt>
    <trkpt lat="56.367199" lon="60.960203">
        <ele>244.3</ele>
        <time>1970-01-01T14:03:24.313Z</time>
    </trkpt>
    <trkpt lat="56.36721" lon="60.96022">
        <ele>244.4</ele>
        <time>1970-01-01T14:03:25.313Z</time>
    </trkpt>
    <trkpt lat="56.36724" lon="60.960262">
        <ele>244.4</ele>
        <time>1970-01-01T14:03:26.313Z</time>
    </trkpt>
    <trkpt lat="56.367256" lon="60.960314">
        <ele>244.4</ele>
        <time>1970-01-01T14:03:27.313Z</time>
    </trkpt>
    <trkpt lat="56.367275" lon="60.960354">
        <ele>244.5</ele>
        <time>1970-01-01T14:03:28.313Z</time>
    </trkpt>
    <trkpt lat="56.367294" lon="60.9604">
        <ele>244.5</ele>
        <time>1970-01-01T14:03:29.313Z</time>
    </trkpt>
    <trkpt lat="56.367309" lon="60.960451">
        <ele>244.5</ele>
        <time>1970-01-01T14:03:30.313Z</time>
    </trkpt>
    <trkpt lat="56.36733" lon="60.960515">
        <ele>244.6</ele>
        <time>1970-01-01T14:03:31.313Z</time>
    </trkpt>
    <trkpt lat="56.367345" lon="60.960579">
        <ele>244.6</ele>
        <time>1970-01-01T14:03:32.313Z</time>
    </trkpt>
    <trkpt lat="56.367358" lon="60.960654">
        <ele>244.7</ele>
        <time>1970-01-01T14:03:33.313Z</time>
    </trkpt>
    <trkpt lat="56.367373" lon="60.960715">
        <ele>244.7</ele>
        <time>1970-01-01T14:03:34.313Z</time>
    </trkpt>
    <trkpt lat="56.36738" lon="60.960776">
        <ele>244.8</ele>
        <time>1970-01-01T14:03:35.313Z</time>
    </trkpt>
    <trkpt lat="56.36739" lon="60.960834">
        <ele>244.8</ele>
        <time>1970-01-01T14:03:36.313Z</time>
    </trkpt>
    <trkpt lat="56.36741" lon="60.960891">
        <ele>244.9</ele>
        <time>1970-01-01T14:03:37.313Z</time>
    </trkpt>
    <trkpt lat="56.367428" lon="60.960955">
        <ele>244.9</ele>
        <time>1970-01-01T14:03:38.313Z</time>
    </trkpt>
    <trkpt lat="56.367439" lon="60.961025">
        <ele>244.9</ele>
        <time>1970-01-01T14:03:39.313Z</time>
    </trkpt>
    <trkpt lat="56.367444" lon="60.961046">
        <ele>245.0</ele>
        <time>1970-01-01T14:03:40.313Z</time>
    </trkpt>
    <trkpt lat="56.367463" lon="60.961107">
        <ele>245.0</ele>
        <time>1970-01-01T14:03:41.313Z</time>
    </trkpt>
    <trkpt lat="56.367481" lon="60.961157">
        <ele>245.0</ele>
        <time>1970-01-01T14:03:42.313Z</time>
    </trkpt>
    <trkpt lat="56.367494" lon="60.961206">
        <ele>245.1</ele>
        <time>1970-01-01T14:03:43.313Z</time>
    </trkpt>
    <trkpt lat="56.36751" lon="60.961266">
        <ele>245.1</ele>
        <time>1970-01-01T14:03:44.313Z</time>
    </trkpt>
    <trkpt lat="56.36753" lon="60.961304">
        <ele>245.1</ele>
        <time>1970-01-01T14:03:45.313Z</time>
    </trkpt>
    <trkpt lat="56.367537" lon="60.961322">
        <ele>245.2</ele>
        <time>1970-01-01T14:03:46.313Z</time>
    </trkpt>
    <trkpt lat="56.367542" lon="60.961373">
        <ele>245.2</ele>
        <time>1970-01-01T14:03:47.313Z</time>
    </trkpt>
    <trkpt lat="56.367551" lon="60.961394">
        <ele>245.2</ele>
        <time>1970-01-01T14:03:48.313Z</time>
    </trkpt>
    <trkpt lat="56.367566" lon="60.961429">
        <ele>245.2</ele>
        <time>1970-01-01T14:03:49.313Z</time>
    </trkpt>
    <trkpt lat="56.367574" lon="60.961456">
        <ele>245.3</ele>
        <time>1970-01-01T14:03:50.313Z</time>
    </trkpt>
    <trkpt lat="56.367589" lon="60.9615">
        <ele>245.3</ele>
        <time>1970-01-01T14:03:51.313Z</time>
    </trkpt>
    <trkpt lat="56.367598" lon="60.961524">
        <ele>245.3</ele>
        <time>1970-01-01T14:03:52.313Z</time>
    </trkpt>
    <trkpt lat="56.367609" lon="60.961577">
        <ele>245.3</ele>
        <time>1970-01-01T14:03:53.313Z</time>
    </trkpt>
    <trkpt lat="56.367623" lon="60.961629">
        <ele>245.4</ele>
        <time>1970-01-01T14:03:54.313Z</time>
    </trkpt>
    <trkpt lat="56.367627" lon="60.961639">
        <ele>245.4</ele>
        <time>1970-01-01T14:03:55.313Z</time>
    </trkpt>
    <trkpt lat="56.367647" lon="60.961681">
        <ele>245.4</ele>
        <time>1970-01-01T14:03:56.313Z</time>
    </trkpt>
    <trkpt lat="56.367651" lon="60.961693">
        <ele>245.4</ele>
        <time>1970-01-01T14:03:57.313Z</time>
    </trkpt>
    <trkpt lat="56.367674" lon="60.961735">
        <ele>245.5</ele>
        <time>1970-01-01T14:03:58.313Z</time>
    </trkpt>
    <trkpt lat="56.367681" lon="60.961754">
        <ele>245.5</ele>
        <time>1970-01-01T14:03:59.313Z</time>
    </trkpt>
    <trkpt lat="56.367692" lon="60.961799">
        <ele>245.5</ele>
        <time>1970-01-01T14:04:00.313Z</time>
    </trkpt>
    <trkpt lat="56.367697" lon="60.961817">
        <ele>245.5</ele>
        <time>1970-01-01T14:04:01.313Z</time>
    </trkpt>
    <trkpt lat="56.367714" lon="60.961874">
        <ele>245.6</ele>
        <time>1970-01-01T14:04:02.313Z</time>
    </trkpt>
    <trkpt lat="56.36772" lon="60.961892">
        <ele>245.6</ele>
        <time>1970-01-01T14:04:03.313Z</time>
    </trkpt>
    <trkpt lat="56.367738" lon="60.961951">
        <ele>245.6</ele>
        <time>1970-01-01T14:04:04.313Z</time>
    </trkpt>
    <trkpt lat="56.367742" lon="60.961986">
        <ele>245.6</ele>
        <time>1970-01-01T14:04:05.313Z</time>
    </trkpt>
    <trkpt lat="56.367747" lon="60.962012">
        <ele>245.7</ele>
        <time>1970-01-01T14:04:06.313Z</time>
    </trkpt>
    <trkpt lat="56.367764" lon="60.962053">
        <ele>245.7</ele>
        <time>1970-01-01T14:04:07.313Z</time>
    </trkpt>
    <trkpt lat="56.367761" lon="60.962079">
        <ele>245.7</ele>
        <time>1970-01-01T14:04:08.313Z</time>
    </trkpt>
    <trkpt lat="56.367769" lon="60.962114">
        <ele>245.7</ele>
        <time>1970-01-01T14:04:09.313Z</time>
    </trkpt>
    <trkpt lat="56.367776" lon="60.962127">
        <ele>245.8</ele>
        <time>1970-01-01T14:04:10.313Z</time>
    </trkpt>
    <trkpt lat="56.367794" lon="60.962168">
        <ele>245.8</ele>
        <time>1970-01-01T14:04:11.313Z</time>
    </trkpt>
    <trkpt lat="56.3678" lon="60.96218">
        <ele>245.8</ele>
        <time>1970-01-01T14:04:12.313Z</time>
    </trkpt>
    <trkpt lat="56.367825" lon="60.962224">
        <ele>245.8</ele>
        <time>1970-01-01T14:04:13.313Z</time>
    </trkpt>
    <trkpt lat="56.367835" lon="60.962241">
        <ele>245.9</ele>
        <time>1970-01-01T14:04:14.313Z</time>
    </trkpt>
    <trkpt lat="56.367848" lon="60.962278">
        <ele>245.9</ele>
        <time>1970-01-01T14:04:15.313Z</time>
    </trkpt>
    <trkpt lat="56.367859" lon="60.962294">
        <ele>245.9</ele>
        <time>1970-01-01T14:04:16.313Z</time>
    </trkpt>
    <trkpt lat="56.367881" lon="60.962332">
        <ele>245.9</ele>
        <time>1970-01-01T14:04:17.313Z</time>
    </trkpt>
    <trkpt lat="56.367896" lon="60.962354">
        <ele>246.0</ele>
        <time>1970-01-01T14:04:18.313Z</time>
    </trkpt>
    <trkpt lat="56.367903" lon="60.962364">
        <ele>246.0</ele>
        <time>1970-01-01T14:04:19.313Z</time>
    </trkpt>
    <trkpt lat="56.367918" lon="60.962377">
        <ele>246.0</ele>
        <time>1970-01-01T14:04:20.313Z</time>
    </trkpt>
    <trkpt lat="56.367941" lon="60.962402">
        <ele>246.0</ele>
        <time>1970-01-01T14:04:21.313Z</time>
    </trkpt>
    <trkpt lat="56.367966" lon="60.962425">
        <ele>246.0</ele>
        <time>1970-01-01T14:04:22.313Z</time>
    </trkpt>
    <trkpt lat="56.367964" lon="60.962447">
        <ele>246.1</ele>
        <time>1970-01-01T14:04:23.313Z</time>
    </trkpt>
    <trkpt lat="56.367975" lon="60.962457">
        <ele>246.1</ele>
        <time>1970-01-01T14:04:24.313Z</time>
    </trkpt>
    <trkpt lat="56.368006" lon="60.9625">
        <ele>246.1</ele>
        <time>1970-01-01T14:04:25.313Z</time>
    </trkpt>
    <trkpt lat="56.368029" lon="60.962533">
        <ele>246.1</ele>
        <time>1970-01-01T14:04:26.313Z</time>
    </trkpt>
    <trkpt lat="56.368063" lon="60.962547">
        <ele>246.2</ele>
        <time>1970-01-01T14:04:27.313Z</time>
    </trkpt>
    <trkpt lat="56.368077" lon="60.962559">
        <ele>246.2</ele>
        <time>1970-01-01T14:04:28.313Z</time>
    </trkpt>
    <trkpt lat="56.368107" lon="60.962594">
        <ele>246.2</ele>
        <time>1970-01-01T14:04:29.313Z</time>
    </trkpt>
    <trkpt lat="56.36813" lon="60.962635">
        <ele>246.3</ele>
        <time>1970-01-01T14:04:30.313Z</time>
    </trkpt>
    <trkpt lat="56.368146" lon="60.962651">
        <ele>246.3</ele>
        <time>1970-01-01T14:04:31.313Z</time>
    </trkpt>
    <trkpt lat="56.36817" lon="60.962683">
        <ele>246.3</ele>
        <time>1970-01-01T14:04:32.313Z</time>
    </trkpt>
    <trkpt lat="56.368198" lon="60.962717">
        <ele>246.4</ele>
        <time>1970-01-01T14:04:33.313Z</time>
    </trkpt>
    <trkpt lat="56.368208" lon="60.962728">
        <ele>246.4</ele>
        <time>1970-01-01T14:04:34.313Z</time>
    </trkpt>
    <trkpt lat="56.368231" lon="60.962753">
        <ele>246.4</ele>
        <time>1970-01-01T14:04:35.313Z</time>
    </trkpt>
    <trkpt lat="56.368244" lon="60.962772">
        <ele>246.4</ele>
        <time>1970-01-01T14:04:36.313Z</time>
    </trkpt>
    <trkpt lat="56.368266" lon="60.962796">
        <ele>246.5</ele>
        <time>1970-01-01T14:04:37.313Z</time>
    </trkpt>
    <trkpt lat="56.36829" lon="60.962829">
        <ele>246.5</ele>
        <time>1970-01-01T14:04:38.313Z</time>
    </trkpt>
    <trkpt lat="56.368299" lon="60.962838">
        <ele>246.5</ele>
        <time>1970-01-01T14:04:39.313Z</time>
    </trkpt>
    <trkpt lat="56.368321" lon="60.962883">
        <ele>246.6</ele>
        <time>1970-01-01T14:04:40.313Z</time>
    </trkpt>
    <trkpt lat="56.368343" lon="60.962905">
        <ele>246.6</ele>
        <time>1970-01-01T14:04:41.313Z</time>
    </trkpt>
    <trkpt lat="56.368348" lon="60.962916">
        <ele>246.6</ele>
        <time>1970-01-01T14:04:42.313Z</time>
    </trkpt>
    <trkpt lat="56.368357" lon="60.962934">
        <ele>246.6</ele>
        <time>1970-01-01T14:04:43.313Z</time>
    </trkpt>
    <trkpt lat="56.368376" lon="60.96297">
        <ele>246.6</ele>
        <time>1970-01-01T14:04:44.313Z</time>
    </trkpt>
    <trkpt lat="56.368407" lon="60.963004">
        <ele>246.7</ele>
        <time>1970-01-01T14:04:45.313Z</time>
    </trkpt>
    <trkpt lat="56.368416" lon="60.963022">
        <ele>246.7</ele>
        <time>1970-01-01T14:04:46.313Z</time>
    </trkpt>
    <trkpt lat="56.368435" lon="60.963053">
        <ele>246.7</ele>
        <time>1970-01-01T14:04:47.313Z</time>
    </trkpt>
    <trkpt lat="56.368444" lon="60.963072">
        <ele>246.7</ele>
        <time>1970-01-01T14:04:48.313Z</time>
    </trkpt>
    <trkpt lat="56.368464" lon="60.963123">
        <ele>246.8</ele>
        <time>1970-01-01T14:04:49.313Z</time>
    </trkpt>
    <trkpt lat="56.368473" lon="60.963138">
        <ele>246.8</ele>
        <time>1970-01-01T14:04:50.313Z</time>
    </trkpt>
    <trkpt lat="56.368488" lon="60.963181">
        <ele>246.8</ele>
        <time>1970-01-01T14:04:51.313Z</time>
    </trkpt>
    <trkpt lat="56.368507" lon="60.9632">
        <ele>246.9</ele>
        <time>1970-01-01T14:04:52.313Z</time>
    </trkpt>
    <trkpt lat="56.368515" lon="60.963222">
        <ele>246.9</ele>
        <time>1970-01-01T14:04:53.313Z</time>
    </trkpt>
    <trkpt lat="56.368526" lon="60.963239">
        <ele>246.9</ele>
        <time>1970-01-01T14:04:54.313Z</time>
    </trkpt>
    <trkpt lat="56.368545" lon="60.963273">
        <ele>246.9</ele>
        <time>1970-01-01T14:04:55.313Z</time>
    </trkpt>
    <trkpt lat="56.368549" lon="60.963293">
        <ele>246.9</ele>
        <time>1970-01-01T14:04:56.313Z</time>
    </trkpt>
    <trkpt lat="56.368557" lon="60.963337">
        <ele>247.0</ele>
        <time>1970-01-01T14:04:57.313Z</time>
    </trkpt>
    <trkpt lat="56.368575" lon="60.963389">
        <ele>247.0</ele>
        <time>1970-01-01T14:04:58.313Z</time>
    </trkpt>
    <trkpt lat="56.368579" lon="60.963411">
        <ele>247.0</ele>
        <time>1970-01-01T14:04:59.313Z</time>
    </trkpt>
    <trkpt lat="56.368594" lon="60.963467">
        <ele>247.0</ele>
        <time>1970-01-01T14:05:00.313Z</time>
    </trkpt>
    <trkpt lat="56.368599" lon="60.963482">
        <ele>247.1</ele>
        <time>1970-01-01T14:05:01.313Z</time>
    </trkpt>
    <trkpt lat="56.368621" lon="60.963526">
        <ele>247.1</ele>
        <time>1970-01-01T14:05:02.313Z</time>
    </trkpt>
    <trkpt lat="56.368629" lon="60.963539">
        <ele>247.1</ele>
        <time>1970-01-01T14:05:03.313Z</time>
    </trkpt>
    <trkpt lat="56.368653" lon="60.963585">
        <ele>247.2</ele>
        <time>1970-01-01T14:05:04.313Z</time>
    </trkpt>
    <trkpt lat="56.368657" lon="60.963598">
        <ele>247.2</ele>
        <time>1970-01-01T14:05:05.313Z</time>
    </trkpt>
    <trkpt lat="56.368676" lon="60.96365">
        <ele>247.2</ele>
        <time>1970-01-01T14:05:06.313Z</time>
    </trkpt>
    <trkpt lat="56.368691" lon="60.963701">
        <ele>247.2</ele>
        <time>1970-01-01T14:05:07.313Z</time>
    </trkpt>
    <trkpt lat="56.3687" lon="60.963719">
        <ele>247.3</ele>
        <time>1970-01-01T14:05:08.313Z</time>
    </trkpt>
    <trkpt lat="56.368721" lon="60.963772">
        <ele>247.3</ele>
        <time>1970-01-01T14:05:09.313Z</time>
    </trkpt>
    <trkpt lat="56.368726" lon="60.963786">
        <ele>247.3</ele>
        <time>1970-01-01T14:05:10.313Z</time>
    </trkpt>
    <trkpt lat="56.368745" lon="60.963829">
        <ele>247.3</ele>
        <time>1970-01-01T14:05:11.313Z</time>
    </trkpt>
    <trkpt lat="56.368752" lon="60.963843">
        <ele>247.3</ele>
        <time>1970-01-01T14:05:12.313Z</time>
    </trkpt>
    <trkpt lat="56.368776" lon="60.963894">
        <ele>247.4</ele>
        <time>1970-01-01T14:05:13.313Z</time>
    </trkpt>
    <trkpt lat="56.3688" lon="60.963926">
        <ele>247.4</ele>
        <time>1970-01-01T14:05:14.313Z</time>
    </trkpt>
    <trkpt lat="56.368808" lon="60.963938">
        <ele>247.4</ele>
        <time>1970-01-01T14:05:15.313Z</time>
    </trkpt>
    <trkpt lat="56.368835" lon="60.963979">
        <ele>247.5</ele>
        <time>1970-01-01T14:05:16.313Z</time>
    </trkpt>
    <trkpt lat="56.368842" lon="60.963991">
        <ele>247.5</ele>
        <time>1970-01-01T14:05:17.313Z</time>
    </trkpt>
    <trkpt lat="56.368869" lon="60.964027">
        <ele>247.5</ele>
        <time>1970-01-01T14:05:18.313Z</time>
    </trkpt>
    <trkpt lat="56.368877" lon="60.964046">
        <ele>247.5</ele>
        <time>1970-01-01T14:05:19.313Z</time>
    </trkpt>
    <trkpt lat="56.368903" lon="60.964098">
        <ele>247.6</ele>
        <time>1970-01-01T14:05:20.313Z</time>
    </trkpt>
    <trkpt lat="56.368917" lon="60.964145">
        <ele>247.6</ele>
        <time>1970-01-01T14:05:21.313Z</time>
    </trkpt>
    <trkpt lat="56.368927" lon="60.964191">
        <ele>247.7</ele>
        <time>1970-01-01T14:05:22.313Z</time>
    </trkpt>
    <trkpt lat="56.368941" lon="60.96424">
        <ele>247.7</ele>
        <time>1970-01-01T14:05:23.313Z</time>
    </trkpt>
    <trkpt lat="56.368961" lon="60.964297">
        <ele>247.7</ele>
        <time>1970-01-01T14:05:24.313Z</time>
    </trkpt>
    <trkpt lat="56.368971" lon="60.964348">
        <ele>247.8</ele>
        <time>1970-01-01T14:05:25.313Z</time>
    </trkpt>
    <trkpt lat="56.36899" lon="60.964418">
        <ele>247.8</ele>
        <time>1970-01-01T14:05:26.313Z</time>
    </trkpt>
    <trkpt lat="56.368997" lon="60.964488">
        <ele>247.9</ele>
        <time>1970-01-01T14:05:27.313Z</time>
    </trkpt>
    <trkpt lat="56.368994" lon="60.96457">
        <ele>247.9</ele>
        <time>1970-01-01T14:05:28.313Z</time>
    </trkpt>
    <trkpt lat="56.369013" lon="60.964674">
        <ele>248.0</ele>
        <time>1970-01-01T14:05:29.313Z</time>
    </trkpt>
    <trkpt lat="56.369024" lon="60.964743">
        <ele>248.0</ele>
        <time>1970-01-01T14:05:30.313Z</time>
    </trkpt>
    <trkpt lat="56.369058" lon="60.964817">
        <ele>248.1</ele>
        <time>1970-01-01T14:05:31.313Z</time>
    </trkpt>
    <trkpt lat="56.369064" lon="60.964829">
        <ele>248.1</ele>
        <time>1970-01-01T14:05:32.313Z</time>
    </trkpt>
    <trkpt lat="56.369077" lon="60.964882">
        <ele>248.1</ele>
        <time>1970-01-01T14:05:33.313Z</time>
    </trkpt>
    <trkpt lat="56.369081" lon="60.964905">
        <ele>248.1</ele>
        <time>1970-01-01T14:05:34.313Z</time>
    </trkpt>
    <trkpt lat="56.369087" lon="60.964958">
        <ele>248.2</ele>
        <time>1970-01-01T14:05:35.313Z</time>
    </trkpt>
    <trkpt lat="56.369091" lon="60.964972">
        <ele>248.2</ele>
        <time>1970-01-01T14:05:36.313Z</time>
    </trkpt>
    <trkpt lat="56.369109" lon="60.965018">
        <ele>248.2</ele>
        <time>1970-01-01T14:05:37.313Z</time>
    </trkpt>
    <trkpt lat="56.36913" lon="60.965057">
        <ele>248.3</ele>
        <time>1970-01-01T14:05:38.313Z</time>
    </trkpt>
    <trkpt lat="56.369137" lon="60.965076">
        <ele>248.3</ele>
        <time>1970-01-01T14:05:39.313Z</time>
    </trkpt>
    <trkpt lat="56.369153" lon="60.965117">
        <ele>248.3</ele>
        <time>1970-01-01T14:05:40.313Z</time>
    </trkpt>
    <trkpt lat="56.369158" lon="60.965133">
        <ele>248.3</ele>
        <time>1970-01-01T14:05:41.313Z</time>
    </trkpt>
    <trkpt lat="56.369162" lon="60.965149">
        <ele>248.3</ele>
        <time>1970-01-01T14:05:42.313Z</time>
    </trkpt>
    <trkpt lat="56.369169" lon="60.965176">
        <ele>248.3</ele>
        <time>1970-01-01T14:05:43.313Z</time>
    </trkpt>
    <trkpt lat="56.369175" lon="60.96519">
        <ele>248.4</ele>
        <time>1970-01-01T14:05:44.313Z</time>
    </trkpt>
    <trkpt lat="56.369196" lon="60.965226">
        <ele>248.4</ele>
        <time>1970-01-01T14:05:45.313Z</time>
    </trkpt>
    <trkpt lat="56.369209" lon="60.965242">
        <ele>248.4</ele>
        <time>1970-01-01T14:05:46.313Z</time>
    </trkpt>
    <trkpt lat="56.369217" lon="60.965268">
        <ele>248.4</ele>
        <time>1970-01-01T14:05:47.313Z</time>
    </trkpt>
    <trkpt lat="56.369222" lon="60.965285">
        <ele>248.4</ele>
        <time>1970-01-01T14:05:48.313Z</time>
    </trkpt>
    <trkpt lat="56.369226" lon="60.965302">
        <ele>248.5</ele>
        <time>1970-01-01T14:05:49.313Z</time>
    </trkpt>
    <trkpt lat="56.369235" lon="60.965343">
        <ele>248.5</ele>
        <time>1970-01-01T14:05:50.313Z</time>
    </trkpt>
    <trkpt lat="56.369238" lon="60.965375">
        <ele>248.5</ele>
        <time>1970-01-01T14:05:51.313Z</time>
    </trkpt>
    <trkpt lat="56.369241" lon="60.965405">
        <ele>248.5</ele>
        <time>1970-01-01T14:05:52.313Z</time>
    </trkpt>
    <trkpt lat="56.369242" lon="60.96544">
        <ele>248.5</ele>
        <time>1970-01-01T14:05:53.313Z</time>
    </trkpt>
    <trkpt lat="56.369245" lon="60.965462">
        <ele>248.6</ele>
        <time>1970-01-01T14:05:54.313Z</time>
    </trkpt>
    <trkpt lat="56.369245" lon="60.965495">
        <ele>248.6</ele>
        <time>1970-01-01T14:05:55.313Z</time>
    </trkpt>
    <trkpt lat="56.369246" lon="60.965525">
        <ele>248.6</ele>
        <time>1970-01-01T14:05:56.313Z</time>
    </trkpt>
    <trkpt lat="56.369248" lon="60.965557">
        <ele>248.6</ele>
        <time>1970-01-01T14:05:57.313Z</time>
    </trkpt>
    <trkpt lat="56.369245" lon="60.965583">
        <ele>248.6</ele>
        <time>1970-01-01T14:05:58.313Z</time>
    </trkpt>
    <trkpt lat="56.369244" lon="60.965602">
        <ele>248.6</ele>
        <time>1970-01-01T14:05:59.313Z</time>
    </trkpt>
    <trkpt lat="56.369242" lon="60.965649">
        <ele>248.7</ele>
        <time>1970-01-01T14:06:00.313Z</time>
    </trkpt>
    <trkpt lat="56.369243" lon="60.965671">
        <ele>248.7</ele>
        <time>1970-01-01T14:06:01.313Z</time>
    </trkpt>
    <trkpt lat="56.369244" lon="60.965728">
        <ele>248.7</ele>
        <time>1970-01-01T14:06:02.313Z</time>
    </trkpt>
    <trkpt lat="56.36924" lon="60.965745">
        <ele>248.7</ele>
        <time>1970-01-01T14:06:03.313Z</time>
    </trkpt>
    <trkpt lat="56.369233" lon="60.965798">
        <ele>248.8</ele>
        <time>1970-01-01T14:06:04.313Z</time>
    </trkpt>
    <trkpt lat="56.369241" lon="60.965817">
        <ele>248.8</ele>
        <time>1970-01-01T14:06:05.313Z</time>
    </trkpt>
    <trkpt lat="56.36924" lon="60.965845">
        <ele>248.8</ele>
        <time>1970-01-01T14:06:06.313Z</time>
    </trkpt>
    <trkpt lat="56.369239" lon="60.96586">
        <ele>248.8</ele>
        <time>1970-01-01T14:06:07.313Z</time>
    </trkpt>
    <trkpt lat="56.369235" lon="60.965912">
        <ele>248.8</ele>
        <time>1970-01-01T14:06:08.313Z</time>
    </trkpt>
    <trkpt lat="56.369236" lon="60.965935">
        <ele>248.9</ele>
        <time>1970-01-01T14:06:09.313Z</time>
    </trkpt>
    <trkpt lat="56.369245" lon="60.965942">
        <ele>248.9</ele>
        <time>1970-01-01T14:06:10.313Z</time>
    </trkpt>
    <trkpt lat="56.369254" lon="60.965963">
        <ele>248.9</ele>
        <time>1970-01-01T14:06:11.313Z</time>
    </trkpt>
    <trkpt lat="56.369259" lon="60.965982">
        <ele>248.9</ele>
        <time>1970-01-01T14:06:12.313Z</time>
    </trkpt>
    <trkpt lat="56.369256" lon="60.966018">
        <ele>248.9</ele>
        <time>1970-01-01T14:06:13.313Z</time>
    </trkpt>
    <trkpt lat="56.369257" lon="60.966046">
        <ele>248.9</ele>
        <time>1970-01-01T14:06:14.313Z</time>
    </trkpt>
    <trkpt lat="56.369263" lon="60.966077">
        <ele>249.0</ele>
        <time>1970-01-01T14:06:15.313Z</time>
    </trkpt>
    <trkpt lat="56.369266" lon="60.966092">
        <ele>249.0</ele>
        <time>1970-01-01T14:06:16.313Z</time>
    </trkpt>
    <trkpt lat="56.369272" lon="60.966129">
        <ele>249.0</ele>
        <time>1970-01-01T14:06:17.313Z</time>
    </trkpt>
    <trkpt lat="56.369279" lon="60.966147">
        <ele>249.0</ele>
        <time>1970-01-01T14:06:18.313Z</time>
    </trkpt>
    <trkpt lat="56.369276" lon="60.966172">
        <ele>249.0</ele>
        <time>1970-01-01T14:06:19.313Z</time>
    </trkpt>
    <trkpt lat="56.369275" lon="60.96619">
        <ele>249.0</ele>
        <time>1970-01-01T14:06:20.313Z</time>
    </trkpt>
    <trkpt lat="56.369273" lon="60.96621">
        <ele>249.1</ele>
        <time>1970-01-01T14:06:21.313Z</time>
    </trkpt>
    <trkpt lat="56.36927" lon="60.966234">
        <ele>249.1</ele>
        <time>1970-01-01T14:06:22.313Z</time>
    </trkpt>
    <trkpt lat="56.369274" lon="60.966248">
        <ele>249.1</ele>
        <time>1970-01-01T14:06:23.313Z</time>
    </trkpt>
    <trkpt lat="56.369276" lon="60.966253">
        <ele>249.1</ele>
        <time>1970-01-01T14:06:24.313Z</time>
    </trkpt>
    <trkpt lat="56.369277" lon="60.966258">
        <ele>249.1</ele>
        <time>1970-01-01T14:06:25.313Z</time>
    </trkpt>
    <trkpt lat="56.369279" lon="60.966264">
        <ele>249.1</ele>
        <time>1970-01-01T14:06:26.313Z</time>
    </trkpt>
    <trkpt lat="56.36928" lon="60.966269">
        <ele>249.1</ele>
        <time>1970-01-01T14:06:27.313Z</time>
    </trkpt>
    <trkpt lat="56.369282" lon="60.966274">
        <ele>249.1</ele>
        <time>1970-01-01T14:06:28.313Z</time>
    </trkpt>
    <trkpt lat="56.369283" lon="60.966279">
        <ele>249.1</ele>
        <time>1970-01-01T14:06:29.313Z</time>
    </trkpt>
    <trkpt lat="56.369285" lon="60.966285">
        <ele>249.1</ele>
        <time>1970-01-01T14:06:30.313Z</time>
    </trkpt>
    <trkpt lat="56.369286" lon="60.96629">
        <ele>249.1</ele>
        <time>1970-01-01T14:06:31.313Z</time>
    </trkpt>
    <trkpt lat="56.369288" lon="60.966295">
        <ele>249.1</ele>
        <time>1970-01-01T14:06:32.313Z</time>
    </trkpt>
    <trkpt lat="56.369289" lon="60.9663">
        <ele>249.1</ele>
        <time>1970-01-01T14:06:33.313Z</time>
    </trkpt>
    <trkpt lat="56.36929" lon="60.966305">
        <ele>249.1</ele>
        <time>1970-01-01T14:06:34.313Z</time>
    </trkpt>
    <trkpt lat="56.369292" lon="60.966311">
        <ele>249.1</ele>
        <time>1970-01-01T14:06:35.313Z</time>
    </trkpt>
    <trkpt lat="56.369293" lon="60.966316">
        <ele>249.1</ele>
        <time>1970-01-01T14:06:36.313Z</time>
    </trkpt>
    <trkpt lat="56.369295" lon="60.966321">
        <ele>249.1</ele>
        <time>1970-01-01T14:06:37.313Z</time>
    </trkpt>
    <trkpt lat="56.369296" lon="60.966326">
        <ele>249.1</ele>
        <time>1970-01-01T14:06:38.313Z</time>
    </trkpt>
    <trkpt lat="56.369298" lon="60.966332">
        <ele>249.1</ele>
        <time>1970-01-01T14:06:39.313Z</time>
    </trkpt>
    <trkpt lat="56.369299" lon="60.966337">
        <ele>249.1</ele>
        <time>1970-01-01T14:06:40.313Z</time>
    </trkpt>
    <trkpt lat="56.369301" lon="60.966342">
        <ele>249.1</ele>
        <time>1970-01-01T14:06:41.313Z</time>
    </trkpt>
    <trkpt lat="56.369302" lon="60.966347">
        <ele>249.1</ele>
        <time>1970-01-01T14:06:42.313Z</time>
    </trkpt>
    <trkpt lat="56.369305" lon="60.966357">
        <ele>249.2</ele>
        <time>1970-01-01T14:06:43.313Z</time>
    </trkpt>
    <trkpt lat="56.369307" lon="60.966367">
        <ele>249.2</ele>
        <time>1970-01-01T14:06:44.313Z</time>
    </trkpt>
    <trkpt lat="56.369305" lon="60.966369">
        <ele>249.2</ele>
        <time>1970-01-01T14:06:45.313Z</time>
    </trkpt>
    <trkpt lat="56.369303" lon="60.96638">
        <ele>249.2</ele>
        <time>1970-01-01T14:06:46.313Z</time>
    </trkpt>
    <trkpt lat="56.369306" lon="60.966385">
        <ele>249.2</ele>
        <time>1970-01-01T14:06:47.313Z</time>
    </trkpt>
    <trkpt lat="56.369304" lon="60.966388">
        <ele>249.2</ele>
        <time>1970-01-01T14:06:48.313Z</time>
    </trkpt>
    <trkpt lat="56.369298" lon="60.96639">
        <ele>249.2</ele>
        <time>1970-01-01T14:06:49.313Z</time>
    </trkpt>
    <trkpt lat="56.369303" lon="60.966407">
        <ele>249.2</ele>
        <time>1970-01-01T14:06:50.313Z</time>
    </trkpt>
    <trkpt lat="56.369307" lon="60.966417">
        <ele>249.2</ele>
        <time>1970-01-01T14:06:51.313Z</time>
    </trkpt>
    <trkpt lat="56.369299" lon="60.966448">
        <ele>249.2</ele>
        <time>1970-01-01T14:06:52.313Z</time>
    </trkpt>
    <trkpt lat="56.369304" lon="60.966462">
        <ele>249.2</ele>
        <time>1970-01-01T14:06:53.313Z</time>
    </trkpt>
    <trkpt lat="56.369306" lon="60.966491">
        <ele>249.3</ele>
        <time>1970-01-01T14:06:54.313Z</time>
    </trkpt>
    <trkpt lat="56.369306" lon="60.966519">
        <ele>249.3</ele>
        <time>1970-01-01T14:06:55.313Z</time>
    </trkpt>
    <trkpt lat="56.36931" lon="60.966542">
        <ele>249.3</ele>
        <time>1970-01-01T14:06:56.313Z</time>
    </trkpt>
    <trkpt lat="56.36932" lon="60.966586">
        <ele>249.3</ele>
        <time>1970-01-01T14:06:57.313Z</time>
    </trkpt>
    <trkpt lat="56.369318" lon="60.966615">
        <ele>249.3</ele>
        <time>1970-01-01T14:06:58.313Z</time>
    </trkpt>
    <trkpt lat="56.369315" lon="60.966657">
        <ele>249.4</ele>
        <time>1970-01-01T14:06:59.313Z</time>
    </trkpt>
    <trkpt lat="56.369316" lon="60.966678">
        <ele>249.4</ele>
        <time>1970-01-01T14:07:00.313Z</time>
    </trkpt>
    <trkpt lat="56.369316" lon="60.96673">
        <ele>249.4</ele>
        <time>1970-01-01T14:07:01.313Z</time>
    </trkpt>
    <trkpt lat="56.369311" lon="60.966754">
        <ele>249.4</ele>
        <time>1970-01-01T14:07:02.313Z</time>
    </trkpt>
    <trkpt lat="56.369315" lon="60.966781">
        <ele>249.4</ele>
        <time>1970-01-01T14:07:03.313Z</time>
    </trkpt>
    <trkpt lat="56.369312" lon="60.966805">
        <ele>249.5</ele>
        <time>1970-01-01T14:07:04.313Z</time>
    </trkpt>
    <trkpt lat="56.369315" lon="60.966831">
        <ele>249.5</ele>
        <time>1970-01-01T14:07:05.313Z</time>
    </trkpt>
    <trkpt lat="56.369319" lon="60.966865">
        <ele>249.5</ele>
        <time>1970-01-01T14:07:06.313Z</time>
    </trkpt>
    <trkpt lat="56.369314" lon="60.966891">
        <ele>249.5</ele>
        <time>1970-01-01T14:07:07.313Z</time>
    </trkpt>
    <trkpt lat="56.369313" lon="60.966912">
        <ele>249.5</ele>
        <time>1970-01-01T14:07:08.313Z</time>
    </trkpt>
    <trkpt lat="56.369312" lon="60.966932">
        <ele>249.5</ele>
        <time>1970-01-01T14:07:09.313Z</time>
    </trkpt>
    <trkpt lat="56.369313" lon="60.966964">
        <ele>249.6</ele>
        <time>1970-01-01T14:07:10.313Z</time>
    </trkpt>
    <trkpt lat="56.369318" lon="60.966991">
        <ele>249.6</ele>
        <time>1970-01-01T14:07:11.313Z</time>
    </trkpt>
    <trkpt lat="56.369321" lon="60.967005">
        <ele>249.6</ele>
        <time>1970-01-01T14:07:12.313Z</time>
    </trkpt>
    <trkpt lat="56.369326" lon="60.967009">
        <ele>249.6</ele>
        <time>1970-01-01T14:07:13.313Z</time>
    </trkpt>
    <trkpt lat="56.369332" lon="60.967021">
        <ele>249.6</ele>
        <time>1970-01-01T14:07:14.313Z</time>
    </trkpt>
    <trkpt lat="56.369336" lon="60.967058">
        <ele>249.6</ele>
        <time>1970-01-01T14:07:15.313Z</time>
    </trkpt>
    <trkpt lat="56.36934" lon="60.967086">
        <ele>249.7</ele>
        <time>1970-01-01T14:07:16.313Z</time>
    </trkpt>
    <trkpt lat="56.369343" lon="60.967101">
        <ele>249.7</ele>
        <time>1970-01-01T14:07:17.313Z</time>
    </trkpt>
    <trkpt lat="56.369351" lon="60.967115">
        <ele>249.7</ele>
        <time>1970-01-01T14:07:18.313Z</time>
    </trkpt>
    <trkpt lat="56.369347" lon="60.967139">
        <ele>249.7</ele>
        <time>1970-01-01T14:07:19.313Z</time>
    </trkpt>
    <trkpt lat="56.369341" lon="60.967165">
        <ele>249.7</ele>
        <time>1970-01-01T14:07:20.313Z</time>
    </trkpt>
    <trkpt lat="56.369334" lon="60.967176">
        <ele>249.7</ele>
        <time>1970-01-01T14:07:21.313Z</time>
    </trkpt>
    <trkpt lat="56.369313" lon="60.967213">
        <ele>249.8</ele>
        <time>1970-01-01T14:07:22.313Z</time>
    </trkpt>
    <trkpt lat="56.369302" lon="60.967227">
        <ele>249.8</ele>
        <time>1970-01-01T14:07:23.313Z</time>
    </trkpt>
    <trkpt lat="56.369292" lon="60.967256">
        <ele>249.8</ele>
        <time>1970-01-01T14:07:24.313Z</time>
    </trkpt>
    <trkpt lat="56.369287" lon="60.967275">
        <ele>249.8</ele>
        <time>1970-01-01T14:07:25.313Z</time>
    </trkpt>
    <trkpt lat="56.369278" lon="60.967306">
        <ele>249.8</ele>
        <time>1970-01-01T14:07:26.313Z</time>
    </trkpt>
    <trkpt lat="56.369275" lon="60.967327">
        <ele>249.8</ele>
        <time>1970-01-01T14:07:27.313Z</time>
    </trkpt>
    <trkpt lat="56.369263" lon="60.967347">
        <ele>250.5</ele>
        <time>1970-01-01T14:07:28.313Z</time>
    </trkpt>
    <trkpt lat="56.369252" lon="60.967369">
        <ele>250.6</ele>
        <time>1970-01-01T14:07:29.313Z</time>
    </trkpt>
    <trkpt lat="56.369235" lon="60.967386">
        <ele>250.6</ele>
        <time>1970-01-01T14:07:30.313Z</time>
    </trkpt>
    <trkpt lat="56.36922" lon="60.967398">
        <ele>250.7</ele>
        <time>1970-01-01T14:07:31.313Z</time>
    </trkpt>
    <trkpt lat="56.369207" lon="60.967417">
        <ele>250.8</ele>
        <time>1970-01-01T14:07:32.313Z</time>
    </trkpt>
    <trkpt lat="56.369192" lon="60.967436">
        <ele>250.9</ele>
        <time>1970-01-01T14:07:33.313Z</time>
    </trkpt>
    <trkpt lat="56.369181" lon="60.967451">
        <ele>250.9</ele>
        <time>1970-01-01T14:07:34.313Z</time>
    </trkpt>
    <trkpt lat="56.369164" lon="60.96747">
        <ele>251.0</ele>
        <time>1970-01-01T14:07:35.313Z</time>
    </trkpt>
    <trkpt lat="56.369156" lon="60.967485">
        <ele>251.0</ele>
        <time>1970-01-01T14:07:36.313Z</time>
    </trkpt>
    <trkpt lat="56.369132" lon="60.967512">
        <ele>251.1</ele>
        <time>1970-01-01T14:07:37.313Z</time>
    </trkpt>
    <trkpt lat="56.369124" lon="60.967521">
        <ele>251.2</ele>
        <time>1970-01-01T14:07:38.313Z</time>
    </trkpt>
    <trkpt lat="56.369091" lon="60.967532">
        <ele>251.3</ele>
        <time>1970-01-01T14:07:39.313Z</time>
    </trkpt>
    <trkpt lat="56.369075" lon="60.967542">
        <ele>251.4</ele>
        <time>1970-01-01T14:07:40.313Z</time>
    </trkpt>
    <trkpt lat="56.369058" lon="60.96755">
        <ele>251.5</ele>
        <time>1970-01-01T14:07:41.313Z</time>
    </trkpt>
    <trkpt lat="56.369045" lon="60.967558">
        <ele>251.5</ele>
        <time>1970-01-01T14:07:42.313Z</time>
    </trkpt>
    <trkpt lat="56.369028" lon="60.967554">
        <ele>251.6</ele>
        <time>1970-01-01T14:07:43.313Z</time>
    </trkpt>
    <trkpt lat="56.369019" lon="60.967542">
        <ele>251.6</ele>
        <time>1970-01-01T14:07:44.313Z</time>
    </trkpt>
    <trkpt lat="56.369001" lon="60.967541">
        <ele>251.7</ele>
        <time>1970-01-01T14:07:45.313Z</time>
    </trkpt>
    <trkpt lat="56.368987" lon="60.967548">
        <ele>251.8</ele>
        <time>1970-01-01T14:07:46.313Z</time>
    </trkpt>
    <trkpt lat="56.368967" lon="60.967552">
        <ele>251.8</ele>
        <time>1970-01-01T14:07:47.313Z</time>
    </trkpt>
    <trkpt lat="56.36895" lon="60.967541">
        <ele>251.9</ele>
        <time>1970-01-01T14:07:48.313Z</time>
    </trkpt>
    <trkpt lat="56.368936" lon="60.967525">
        <ele>252.0</ele>
        <time>1970-01-01T14:07:49.313Z</time>
    </trkpt>
    <trkpt lat="56.368923" lon="60.967525">
        <ele>252.0</ele>
        <time>1970-01-01T14:07:50.313Z</time>
    </trkpt>
    <trkpt lat="56.368915" lon="60.967519">
        <ele>252.1</ele>
        <time>1970-01-01T14:07:51.313Z</time>
    </trkpt>
    <trkpt lat="56.368905" lon="60.967507">
        <ele>252.1</ele>
        <time>1970-01-01T14:07:52.313Z</time>
    </trkpt>
    <trkpt lat="56.368897" lon="60.96751">
        <ele>252.1</ele>
        <time>1970-01-01T14:07:53.313Z</time>
    </trkpt>
    <trkpt lat="56.368864" lon="60.967513">
        <ele>252.3</ele>
        <time>1970-01-01T14:07:54.313Z</time>
    </trkpt>
    <trkpt lat="56.368861" lon="60.967507">
        <ele>252.3</ele>
        <time>1970-01-01T14:07:55.313Z</time>
    </trkpt>
    <trkpt lat="56.368857" lon="60.967501">
        <ele>252.3</ele>
        <time>1970-01-01T14:07:56.313Z</time>
    </trkpt>
    <trkpt lat="56.368853" lon="60.967495">
        <ele>252.3</ele>
        <time>1970-01-01T14:07:57.313Z</time>
    </trkpt>
    <trkpt lat="56.36885" lon="60.967488">
        <ele>252.4</ele>
        <time>1970-01-01T14:07:58.313Z</time>
    </trkpt>
    <trkpt lat="56.368846" lon="60.967482">
        <ele>252.4</ele>
        <time>1970-01-01T14:07:59.313Z</time>
    </trkpt>
    <trkpt lat="56.368843" lon="60.967476">
        <ele>252.4</ele>
        <time>1970-01-01T14:08:00.313Z</time>
    </trkpt>
    <trkpt lat="56.368839" lon="60.96747">
        <ele>252.4</ele>
        <time>1970-01-01T14:08:01.313Z</time>
    </trkpt>
    <trkpt lat="56.368836" lon="60.967464">
        <ele>252.4</ele>
        <time>1970-01-01T14:08:02.313Z</time>
    </trkpt>
    <trkpt lat="56.368832" lon="60.967457">
        <ele>252.5</ele>
        <time>1970-01-01T14:08:03.313Z</time>
    </trkpt>
    <trkpt lat="56.368829" lon="60.967451">
        <ele>252.5</ele>
        <time>1970-01-01T14:08:04.313Z</time>
    </trkpt>
    <trkpt lat="56.368825" lon="60.967445">
        <ele>252.5</ele>
        <time>1970-01-01T14:08:05.313Z</time>
    </trkpt>
    <trkpt lat="56.368822" lon="60.967439">
        <ele>252.5</ele>
        <time>1970-01-01T14:08:06.313Z</time>
    </trkpt>
    <trkpt lat="56.368818" lon="60.967432">
        <ele>252.5</ele>
        <time>1970-01-01T14:08:07.313Z</time>
    </trkpt>
    <trkpt lat="56.368815" lon="60.967426">
        <ele>252.6</ele>
        <time>1970-01-01T14:08:08.313Z</time>
    </trkpt>
    <trkpt lat="56.368811" lon="60.96742">
        <ele>252.6</ele>
        <time>1970-01-01T14:08:09.313Z</time>
    </trkpt>
    <trkpt lat="56.368808" lon="60.967414">
        <ele>252.6</ele>
        <time>1970-01-01T14:08:10.313Z</time>
    </trkpt>
    <trkpt lat="56.368804" lon="60.967408">
        <ele>252.6</ele>
        <time>1970-01-01T14:08:11.313Z</time>
    </trkpt>
    <trkpt lat="56.368801" lon="60.967401">
        <ele>252.6</ele>
        <time>1970-01-01T14:08:12.313Z</time>
    </trkpt>
    <trkpt lat="56.368797" lon="60.967395">
        <ele>252.7</ele>
        <time>1970-01-01T14:08:13.313Z</time>
    </trkpt>
    <trkpt lat="56.368794" lon="60.967389">
        <ele>252.7</ele>
        <time>1970-01-01T14:08:14.313Z</time>
    </trkpt>
    <trkpt lat="56.36879" lon="60.967383">
        <ele>252.7</ele>
        <time>1970-01-01T14:08:15.313Z</time>
    </trkpt>
    <trkpt lat="56.368787" lon="60.967377">
        <ele>252.7</ele>
        <time>1970-01-01T14:08:16.313Z</time>
    </trkpt>
    <trkpt lat="56.368783" lon="60.96737">
        <ele>252.7</ele>
        <time>1970-01-01T14:08:17.313Z</time>
    </trkpt>
    <trkpt lat="56.36878" lon="60.967364">
        <ele>252.8</ele>
        <time>1970-01-01T14:08:18.313Z</time>
    </trkpt>
    <trkpt lat="56.368776" lon="60.967358">
        <ele>252.8</ele>
        <time>1970-01-01T14:08:19.313Z</time>
    </trkpt>
    <trkpt lat="56.368773" lon="60.967352">
        <ele>252.8</ele>
        <time>1970-01-01T14:08:20.313Z</time>
    </trkpt>
    <trkpt lat="56.368769" lon="60.967346">
        <ele>252.8</ele>
        <time>1970-01-01T14:08:21.313Z</time>
    </trkpt>
    <trkpt lat="56.368766" lon="60.967339">
        <ele>252.8</ele>
        <time>1970-01-01T14:08:22.313Z</time>
    </trkpt>
    <trkpt lat="56.368762" lon="60.967333">
        <ele>252.9</ele>
        <time>1970-01-01T14:08:23.313Z</time>
    </trkpt>
    <trkpt lat="56.368759" lon="60.967327">
        <ele>252.9</ele>
        <time>1970-01-01T14:08:24.313Z</time>
    </trkpt>
    <trkpt lat="56.368755" lon="60.967321">
        <ele>252.9</ele>
        <time>1970-01-01T14:08:25.313Z</time>
    </trkpt>
    <trkpt lat="56.368752" lon="60.967314">
        <ele>252.9</ele>
        <time>1970-01-01T14:08:26.313Z</time>
    </trkpt>
    <trkpt lat="56.368748" lon="60.967308">
        <ele>252.9</ele>
        <time>1970-01-01T14:08:27.313Z</time>
    </trkpt>
    <trkpt lat="56.368745" lon="60.967302">
        <ele>253.0</ele>
        <time>1970-01-01T14:08:28.313Z</time>
    </trkpt>
    <trkpt lat="56.368741" lon="60.967296">
        <ele>253.0</ele>
        <time>1970-01-01T14:08:29.313Z</time>
    </trkpt>
    <trkpt lat="56.368738" lon="60.96729">
        <ele>253.0</ele>
        <time>1970-01-01T14:08:30.313Z</time>
    </trkpt>
    <trkpt lat="56.368734" lon="60.967283">
        <ele>253.0</ele>
        <time>1970-01-01T14:08:31.313Z</time>
    </trkpt>
    <trkpt lat="56.368719" lon="60.967281">
        <ele>253.1</ele>
        <time>1970-01-01T14:08:32.313Z</time>
    </trkpt>
    <trkpt lat="56.368708" lon="60.967279">
        <ele>253.1</ele>
        <time>1970-01-01T14:08:33.313Z</time>
    </trkpt>
    <trkpt lat="56.368703" lon="60.967272">
        <ele>253.1</ele>
        <time>1970-01-01T14:08:34.313Z</time>
    </trkpt>
    <trkpt lat="56.368695" lon="60.967241">
        <ele>253.2</ele>
        <time>1970-01-01T14:08:36.313Z</time>
    </trkpt>
    <trkpt lat="56.368689" lon="60.96722">
        <ele>253.3</ele>
        <time>1970-01-01T14:08:37.313Z</time>
    </trkpt>
    <trkpt lat="56.368681" lon="60.967201">
        <ele>253.3</ele>
        <time>1970-01-01T14:08:38.313Z</time>
    </trkpt>
    <trkpt lat="56.368681" lon="60.967189">
        <ele>253.4</ele>
        <time>1970-01-01T14:08:39.313Z</time>
    </trkpt>
    <trkpt lat="56.36868" lon="60.967188">
        <ele>253.4</ele>
        <time>1970-01-01T14:08:40.313Z</time>
    </trkpt>
    <trkpt lat="56.368679" lon="60.967188">
        <ele>253.4</ele>
        <time>1970-01-01T14:08:41.313Z</time>
    </trkpt>
    <trkpt lat="56.368679" lon="60.967188">
        <ele>253.4</ele>
        <time>1970-01-01T14:08:42.313Z</time>
    </trkpt>
    <trkpt lat="56.368678" lon="60.967188">
        <ele>253.4</ele>
        <time>1970-01-01T14:08:43.313Z</time>
    </trkpt>
    <trkpt lat="56.368678" lon="60.967188">
        <ele>253.4</ele>
        <time>1970-01-01T14:08:44.313Z</time>
    </trkpt>
    <trkpt lat="56.368677" lon="60.967188">
        <ele>253.4</ele>
        <time>1970-01-01T14:08:45.313Z</time>
    </trkpt>
    <trkpt lat="56.368676" lon="60.967188">
        <ele>253.4</ele>
        <time>1970-01-01T14:08:46.313Z</time>
    </trkpt>
    <trkpt lat="56.368676" lon="60.967188">
        <ele>253.4</ele>
        <time>1970-01-01T14:08:47.313Z</time>
    </trkpt>
    <trkpt lat="56.368675" lon="60.967187">
        <ele>253.4</ele>
        <time>1970-01-01T14:08:48.313Z</time>
    </trkpt>
    <trkpt lat="56.368674" lon="60.967187">
        <ele>253.4</ele>
        <time>1970-01-01T14:08:49.313Z</time>
    </trkpt>
    <trkpt lat="56.368674" lon="60.967187">
        <ele>253.4</ele>
        <time>1970-01-01T14:08:50.313Z</time>
    </trkpt>
    <trkpt lat="56.368673" lon="60.967187">
        <ele>253.4</ele>
        <time>1970-01-01T14:08:51.313Z</time>
    </trkpt>
    <trkpt lat="56.368673" lon="60.967187">
        <ele>253.4</ele>
        <time>1970-01-01T14:08:52.313Z</time>
    </trkpt>
    <trkpt lat="56.368672" lon="60.967187">
        <ele>253.4</ele>
        <time>1970-01-01T14:08:53.313Z</time>
    </trkpt>
    <trkpt lat="56.368671" lon="60.967187">
        <ele>253.4</ele>
        <time>1970-01-01T14:08:54.313Z</time>
    </trkpt>
    <trkpt lat="56.368671" lon="60.967187">
        <ele>253.4</ele>
        <time>1970-01-01T14:08:55.313Z</time>
    </trkpt>
    <trkpt lat="56.36867" lon="60.967186">
        <ele>253.4</ele>
        <time>1970-01-01T14:08:56.313Z</time>
    </trkpt>
    <trkpt lat="56.368669" lon="60.967186">
        <ele>253.4</ele>
        <time>1970-01-01T14:08:57.313Z</time>
    </trkpt>
    <trkpt lat="56.368669" lon="60.967186">
        <ele>253.4</ele>
        <time>1970-01-01T14:08:58.313Z</time>
    </trkpt>
    <trkpt lat="56.368668" lon="60.967186">
        <ele>253.4</ele>
        <time>1970-01-01T14:08:59.313Z</time>
    </trkpt>
    <trkpt lat="56.368667" lon="60.967186">
        <ele>253.4</ele>
        <time>1970-01-01T14:09:00.313Z</time>
    </trkpt>
    <trkpt lat="56.368667" lon="60.967186">
        <ele>253.4</ele>
        <time>1970-01-01T14:09:01.313Z</time>
    </trkpt>
    <trkpt lat="56.368666" lon="60.967186">
        <ele>253.4</ele>
        <time>1970-01-01T14:09:02.313Z</time>
    </trkpt>
    <trkpt lat="56.368666" lon="60.967186">
        <ele>253.4</ele>
        <time>1970-01-01T14:09:03.313Z</time>
    </trkpt>
    <trkpt lat="56.368665" lon="60.967186">
        <ele>253.4</ele>
        <time>1970-01-01T14:09:04.313Z</time>
    </trkpt>
    <trkpt lat="56.368664" lon="60.967185">
        <ele>253.4</ele>
        <time>1970-01-01T14:09:05.313Z</time>
    </trkpt>
    <trkpt lat="56.368664" lon="60.967185">
        <ele>253.4</ele>
        <time>1970-01-01T14:09:06.313Z</time>
    </trkpt>
    <trkpt lat="56.368663" lon="60.967185">
        <ele>253.4</ele>
        <time>1970-01-01T14:09:07.313Z</time>
    </trkpt>
    <trkpt lat="56.368662" lon="60.967185">
        <ele>253.4</ele>
        <time>1970-01-01T14:09:08.313Z</time>
    </trkpt>
    <trkpt lat="56.368662" lon="60.967185">
        <ele>253.4</ele>
        <time>1970-01-01T14:09:09.313Z</time>
    </trkpt>
    <trkpt lat="56.368661" lon="60.967185">
        <ele>253.4</ele>
        <time>1970-01-01T14:09:10.313Z</time>
    </trkpt>
    <trkpt lat="56.368661" lon="60.967185">
        <ele>253.4</ele>
        <time>1970-01-01T14:09:11.313Z</time>
    </trkpt>
    <trkpt lat="56.36866" lon="60.967185">
        <ele>253.4</ele>
        <time>1970-01-01T14:09:12.313Z</time>
    </trkpt>
    <trkpt lat="56.368659" lon="60.967184">
        <ele>253.4</ele>
        <time>1970-01-01T14:09:13.313Z</time>
    </trkpt>
    <trkpt lat="56.368659" lon="60.967184">
        <ele>253.4</ele>
        <time>1970-01-01T14:09:14.313Z</time>
    </trkpt>
    <trkpt lat="56.368658" lon="60.967184">
        <ele>253.5</ele>
        <time>1970-01-01T14:09:15.313Z</time>
    </trkpt>
    <trkpt lat="56.368657" lon="60.967184">
        <ele>253.5</ele>
        <time>1970-01-01T14:09:16.313Z</time>
    </trkpt>
    <trkpt lat="56.368657" lon="60.967184">
        <ele>253.5</ele>
        <time>1970-01-01T14:09:17.313Z</time>
    </trkpt>
    <trkpt lat="56.368656" lon="60.967184">
        <ele>253.5</ele>
        <time>1970-01-01T14:09:18.313Z</time>
    </trkpt>
    <trkpt lat="56.368655" lon="60.967184">
        <ele>253.5</ele>
        <time>1970-01-01T14:09:19.313Z</time>
    </trkpt>
    <trkpt lat="56.368655" lon="60.967184">
        <ele>253.5</ele>
        <time>1970-01-01T14:09:20.313Z</time>
    </trkpt>
    <trkpt lat="56.368654" lon="60.967184">
        <ele>253.5</ele>
        <time>1970-01-01T14:09:21.313Z</time>
    </trkpt>
    <trkpt lat="56.368654" lon="60.967183">
        <ele>253.5</ele>
        <time>1970-01-01T14:09:22.313Z</time>
    </trkpt>
    <trkpt lat="56.368653" lon="60.967183">
        <ele>253.5</ele>
        <time>1970-01-01T14:09:23.313Z</time>
    </trkpt>
    <trkpt lat="56.368652" lon="60.967183">
        <ele>253.5</ele>
        <time>1970-01-01T14:09:24.313Z</time>
    </trkpt>
    <trkpt lat="56.368652" lon="60.967183">
        <ele>253.5</ele>
        <time>1970-01-01T14:09:25.313Z</time>
    </trkpt>
    <trkpt lat="56.368651" lon="60.967183">
        <ele>253.5</ele>
        <time>1970-01-01T14:09:26.313Z</time>
    </trkpt>
    <trkpt lat="56.36865" lon="60.967183">
        <ele>253.5</ele>
        <time>1970-01-01T14:09:27.313Z</time>
    </trkpt>
    <trkpt lat="56.36865" lon="60.967183">
        <ele>253.5</ele>
        <time>1970-01-01T14:09:28.313Z</time>
    </trkpt>
    <trkpt lat="56.368649" lon="60.967183">
        <ele>253.5</ele>
        <time>1970-01-01T14:09:29.313Z</time>
    </trkpt>
    <trkpt lat="56.368649" lon="60.967182">
        <ele>253.5</ele>
        <time>1970-01-01T14:09:30.313Z</time>
    </trkpt>
    <trkpt lat="56.368648" lon="60.967182">
        <ele>253.5</ele>
        <time>1970-01-01T14:09:31.313Z</time>
    </trkpt>
    <trkpt lat="56.368647" lon="60.967182">
        <ele>253.5</ele>
        <time>1970-01-01T14:09:32.313Z</time>
    </trkpt>
    <trkpt lat="56.368647" lon="60.967182">
        <ele>253.5</ele>
        <time>1970-01-01T14:09:33.313Z</time>
    </trkpt>
    <trkpt lat="56.368646" lon="60.967182">
        <ele>253.5</ele>
        <time>1970-01-01T14:09:34.313Z</time>
    </trkpt>
    <trkpt lat="56.368645" lon="60.967182">
        <ele>253.5</ele>
        <time>1970-01-01T14:09:35.313Z</time>
    </trkpt>
    <trkpt lat="56.368645" lon="60.967182">
        <ele>253.5</ele>
        <time>1970-01-01T14:09:36.313Z</time>
    </trkpt>
    <trkpt lat="56.368644" lon="60.967182">
        <ele>253.5</ele>
        <time>1970-01-01T14:09:37.313Z</time>
    </trkpt>
    <trkpt lat="56.368644" lon="60.967182">
        <ele>253.5</ele>
        <time>1970-01-01T14:09:38.313Z</time>
    </trkpt>
    <trkpt lat="56.368643" lon="60.967181">
        <ele>253.5</ele>
        <time>1970-01-01T14:09:39.313Z</time>
    </trkpt>
    <trkpt lat="56.368642" lon="60.967181">
        <ele>253.5</ele>
        <time>1970-01-01T14:09:40.313Z</time>
    </trkpt>
    <trkpt lat="56.368642" lon="60.967181">
        <ele>253.5</ele>
        <time>1970-01-01T14:09:41.313Z</time>
    </trkpt>
    <trkpt lat="56.368641" lon="60.967181">
        <ele>253.5</ele>
        <time>1970-01-01T14:09:42.313Z</time>
    </trkpt>
    <trkpt lat="56.36864" lon="60.967181">
        <ele>253.5</ele>
        <time>1970-01-01T14:09:43.313Z</time>
    </trkpt>
    <trkpt lat="56.36864" lon="60.967181">
        <ele>253.5</ele>
        <time>1970-01-01T14:09:44.313Z</time>
    </trkpt>
    <trkpt lat="56.368639" lon="60.967181">
        <ele>253.5</ele>
        <time>1970-01-01T14:09:45.313Z</time>
    </trkpt>
    <trkpt lat="56.368638" lon="60.967181">
        <ele>253.5</ele>
        <time>1970-01-01T14:09:46.313Z</time>
    </trkpt>
    <trkpt lat="56.368638" lon="60.96718">
        <ele>253.5</ele>
        <time>1970-01-01T14:09:47.313Z</time>
    </trkpt>
    <trkpt lat="56.368637" lon="60.96718">
        <ele>253.5</ele>
        <time>1970-01-01T14:09:48.313Z</time>
    </trkpt>
    <trkpt lat="56.368637" lon="60.96718">
        <ele>253.5</ele>
        <time>1970-01-01T14:09:49.313Z</time>
    </trkpt>
    <trkpt lat="56.368636" lon="60.96718">
        <ele>253.5</ele>
        <time>1970-01-01T14:09:50.313Z</time>
    </trkpt>
    <trkpt lat="56.368635" lon="60.96718">
        <ele>253.6</ele>
        <time>1970-01-01T14:09:51.313Z</time>
    </trkpt>
    <trkpt lat="56.368635" lon="60.96718">
        <ele>253.6</ele>
        <time>1970-01-01T14:09:52.313Z</time>
    </trkpt>
    <trkpt lat="56.368634" lon="60.96718">
        <ele>253.6</ele>
        <time>1970-01-01T14:09:53.313Z</time>
    </trkpt>
    <trkpt lat="56.368633" lon="60.96718">
        <ele>253.6</ele>
        <time>1970-01-01T14:09:54.313Z</time>
    </trkpt>
    <trkpt lat="56.368633" lon="60.96718">
        <ele>253.6</ele>
        <time>1970-01-01T14:09:55.313Z</time>
    </trkpt>
    <trkpt lat="56.368632" lon="60.967179">
        <ele>253.6</ele>
        <time>1970-01-01T14:09:56.313Z</time>
    </trkpt>
    <trkpt lat="56.368632" lon="60.967179">
        <ele>253.6</ele>
        <time>1970-01-01T14:09:57.313Z</time>
    </trkpt>
    <trkpt lat="56.368631" lon="60.967179">
        <ele>253.6</ele>
        <time>1970-01-01T14:09:58.313Z</time>
    </trkpt>
    <trkpt lat="56.36863" lon="60.967179">
        <ele>253.6</ele>
        <time>1970-01-01T14:09:59.313Z</time>
    </trkpt>
    <trkpt lat="56.36863" lon="60.967179">
        <ele>253.6</ele>
        <time>1970-01-01T14:10:00.313Z</time>
    </trkpt>
    <trkpt lat="56.368629" lon="60.967179">
        <ele>253.6</ele>
        <time>1970-01-01T14:10:01.313Z</time>
    </trkpt>
    <trkpt lat="56.368628" lon="60.967179">
        <ele>253.6</ele>
        <time>1970-01-01T14:10:02.313Z</time>
    </trkpt>
    <trkpt lat="56.368628" lon="60.967179">
        <ele>253.6</ele>
        <time>1970-01-01T14:10:03.313Z</time>
    </trkpt>
    <trkpt lat="56.368627" lon="60.967178">
        <ele>253.6</ele>
        <time>1970-01-01T14:10:04.313Z</time>
    </trkpt>
    <trkpt lat="56.368626" lon="60.967178">
        <ele>253.6</ele>
        <time>1970-01-01T14:10:05.313Z</time>
    </trkpt>
    <trkpt lat="56.368626" lon="60.967178">
        <ele>253.6</ele>
        <time>1970-01-01T14:10:06.313Z</time>
    </trkpt>
    <trkpt lat="56.368625" lon="60.967178">
        <ele>253.6</ele>
        <time>1970-01-01T14:10:07.313Z</time>
    </trkpt>
    <trkpt lat="56.368625" lon="60.967178">
        <ele>253.6</ele>
        <time>1970-01-01T14:10:08.313Z</time>
    </trkpt>
    <trkpt lat="56.368624" lon="60.967178">
        <ele>253.6</ele>
        <time>1970-01-01T14:10:09.313Z</time>
    </trkpt>
    <trkpt lat="56.368623" lon="60.967178">
        <ele>253.6</ele>
        <time>1970-01-01T14:10:10.313Z</time>
    </trkpt>
    <trkpt lat="56.368623" lon="60.967178">
        <ele>253.6</ele>
        <time>1970-01-01T14:10:11.313Z</time>
    </trkpt>
    <trkpt lat="56.368622" lon="60.967178">
        <ele>253.6</ele>
        <time>1970-01-01T14:10:12.313Z</time>
    </trkpt>
    <trkpt lat="56.368621" lon="60.967177">
        <ele>253.6</ele>
        <time>1970-01-01T14:10:13.313Z</time>
    </trkpt>
    <trkpt lat="56.368621" lon="60.967177">
        <ele>253.6</ele>
        <time>1970-01-01T14:10:14.313Z</time>
    </trkpt>
    <trkpt lat="56.36862" lon="60.967177">
        <ele>253.6</ele>
        <time>1970-01-01T14:10:15.313Z</time>
    </trkpt>
    <trkpt lat="56.36862" lon="60.967177">
        <ele>253.6</ele>
        <time>1970-01-01T14:10:16.313Z</time>
    </trkpt>
    <trkpt lat="56.368619" lon="60.967177">
        <ele>253.6</ele>
        <time>1970-01-01T14:10:17.313Z</time>
    </trkpt>
    <trkpt lat="56.368618" lon="60.967177">
        <ele>253.6</ele>
        <time>1970-01-01T14:10:18.313Z</time>
    </trkpt>
    <trkpt lat="56.368618" lon="60.967177">
        <ele>253.6</ele>
        <time>1970-01-01T14:10:19.313Z</time>
    </trkpt>
    <trkpt lat="56.368617" lon="60.967177">
        <ele>253.6</ele>
        <time>1970-01-01T14:10:20.313Z</time>
    </trkpt>
    <trkpt lat="56.368616" lon="60.967176">
        <ele>253.6</ele>
        <time>1970-01-01T14:10:21.313Z</time>
    </trkpt>
    <trkpt lat="56.368616" lon="60.967176">
        <ele>253.6</ele>
        <time>1970-01-01T14:10:22.313Z</time>
    </trkpt>
    <trkpt lat="56.368615" lon="60.967176">
        <ele>253.6</ele>
        <time>1970-01-01T14:10:23.313Z</time>
    </trkpt>
    <trkpt lat="56.368608" lon="60.967179">
        <ele>253.7</ele>
        <time>1970-01-01T14:10:24.313Z</time>
    </trkpt>
    <trkpt lat="56.368607" lon="60.967176">
        <ele>253.7</ele>
        <time>1970-01-01T14:10:25.313Z</time>
    </trkpt>
    <trkpt lat="56.368606" lon="60.967174">
        <ele>253.7</ele>
        <time>1970-01-01T14:10:26.313Z</time>
    </trkpt>
    <trkpt lat="56.368605" lon="60.967171">
        <ele>253.7</ele>
        <time>1970-01-01T14:10:28.313Z</time>
    </trkpt>
    <trkpt lat="56.368605" lon="60.967168">
        <ele>253.7</ele>
        <time>1970-01-01T14:10:29.313Z</time>
    </trkpt>
    <trkpt lat="56.368604" lon="60.967166">
        <ele>253.7</ele>
        <time>1970-01-01T14:10:30.313Z</time>
    </trkpt>
    <trkpt lat="56.368603" lon="60.967163">
        <ele>253.7</ele>
        <time>1970-01-01T14:10:31.313Z</time>
    </trkpt>
    <trkpt lat="56.368602" lon="60.96716">
        <ele>253.7</ele>
        <time>1970-01-01T14:10:32.313Z</time>
    </trkpt>
    <trkpt lat="56.368601" lon="60.967158">
        <ele>253.7</ele>
        <time>1970-01-01T14:10:33.313Z</time>
    </trkpt>
    <trkpt lat="56.368601" lon="60.967155">
        <ele>253.7</ele>
        <time>1970-01-01T14:10:34.313Z</time>
    </trkpt>
    <trkpt lat="56.3686" lon="60.967153">
        <ele>253.7</ele>
        <time>1970-01-01T14:10:35.313Z</time>
    </trkpt>
    <trkpt lat="56.368599" lon="60.96715">
        <ele>253.7</ele>
        <time>1970-01-01T14:10:36.313Z</time>
    </trkpt>
    <trkpt lat="56.368598" lon="60.967147">
        <ele>253.7</ele>
        <time>1970-01-01T14:10:37.313Z</time>
    </trkpt>
    <trkpt lat="56.368598" lon="60.967145">
        <ele>253.8</ele>
        <time>1970-01-01T14:10:38.313Z</time>
    </trkpt>
    <trkpt lat="56.368597" lon="60.967142">
        <ele>253.8</ele>
        <time>1970-01-01T14:10:39.313Z</time>
    </trkpt>
    <trkpt lat="56.368596" lon="60.967139">
        <ele>253.8</ele>
        <time>1970-01-01T14:10:40.313Z</time>
    </trkpt>
    <trkpt lat="56.368595" lon="60.967137">
        <ele>253.8</ele>
        <time>1970-01-01T14:10:41.313Z</time>
    </trkpt>
    <trkpt lat="56.368594" lon="60.967134">
        <ele>253.8</ele>
        <time>1970-01-01T14:10:42.313Z</time>
    </trkpt>
    <trkpt lat="56.368594" lon="60.967132">
        <ele>253.8</ele>
        <time>1970-01-01T14:10:43.313Z</time>
    </trkpt>
    <trkpt lat="56.368593" lon="60.967129">
        <ele>253.8</ele>
        <time>1970-01-01T14:10:44.313Z</time>
    </trkpt>
    <trkpt lat="56.368592" lon="60.967126">
        <ele>253.8</ele>
        <time>1970-01-01T14:10:45.313Z</time>
    </trkpt>
    <trkpt lat="56.368591" lon="60.967124">
        <ele>253.8</ele>
        <time>1970-01-01T14:10:46.313Z</time>
    </trkpt>
    <trkpt lat="56.36859" lon="60.967121">
        <ele>253.8</ele>
        <time>1970-01-01T14:10:47.313Z</time>
    </trkpt>
    <trkpt lat="56.36859" lon="60.967118">
        <ele>253.8</ele>
        <time>1970-01-01T14:10:48.313Z</time>
    </trkpt>
    <trkpt lat="56.368589" lon="60.967116">
        <ele>253.8</ele>
        <time>1970-01-01T14:10:49.313Z</time>
    </trkpt>
    <trkpt lat="56.368588" lon="60.967113">
        <ele>253.8</ele>
        <time>1970-01-01T14:10:50.313Z</time>
    </trkpt>
    <trkpt lat="56.368587" lon="60.967111">
        <ele>253.8</ele>
        <time>1970-01-01T14:10:51.313Z</time>
    </trkpt>
    <trkpt lat="56.368586" lon="60.967108">
        <ele>253.8</ele>
        <time>1970-01-01T14:10:52.313Z</time>
    </trkpt>
    <trkpt lat="56.368586" lon="60.967105">
        <ele>253.8</ele>
        <time>1970-01-01T14:10:53.313Z</time>
    </trkpt>
    <trkpt lat="56.368585" lon="60.967103">
        <ele>253.8</ele>
        <time>1970-01-01T14:10:54.313Z</time>
    </trkpt>
    <trkpt lat="56.368584" lon="60.9671">
        <ele>253.8</ele>
        <time>1970-01-01T14:10:55.313Z</time>
    </trkpt>
    <trkpt lat="56.368583" lon="60.967097">
        <ele>253.8</ele>
        <time>1970-01-01T14:10:56.313Z</time>
    </trkpt>
    <trkpt lat="56.368582" lon="60.967095">
        <ele>253.8</ele>
        <time>1970-01-01T14:10:57.313Z</time>
    </trkpt>
    <trkpt lat="56.368582" lon="60.967092">
        <ele>253.8</ele>
        <time>1970-01-01T14:10:58.313Z</time>
    </trkpt>
    <trkpt lat="56.368581" lon="60.96709">
        <ele>253.7</ele>
        <time>1970-01-01T14:10:59.313Z</time>
    </trkpt>
    <trkpt lat="56.36858" lon="60.967087">
        <ele>253.7</ele>
        <time>1970-01-01T14:11:00.313Z</time>
    </trkpt>
    <trkpt lat="56.368579" lon="60.967084">
        <ele>253.7</ele>
        <time>1970-01-01T14:11:01.313Z</time>
    </trkpt>
    <trkpt lat="56.368579" lon="60.967082">
        <ele>253.7</ele>
        <time>1970-01-01T14:11:02.313Z</time>
    </trkpt>
    <trkpt lat="56.368578" lon="60.967079">
        <ele>253.7</ele>
        <time>1970-01-01T14:11:03.313Z</time>
    </trkpt>
    <trkpt lat="56.368577" lon="60.967076">
        <ele>253.7</ele>
        <time>1970-01-01T14:11:04.313Z</time>
    </trkpt>
    <trkpt lat="56.368576" lon="60.967074">
        <ele>253.7</ele>
        <time>1970-01-01T14:11:05.313Z</time>
    </trkpt>
    <trkpt lat="56.368575" lon="60.967071">
        <ele>253.7</ele>
        <time>1970-01-01T14:11:06.313Z</time>
    </trkpt>
    <trkpt lat="56.368575" lon="60.967068">
        <ele>253.7</ele>
        <time>1970-01-01T14:11:07.313Z</time>
    </trkpt>
    <trkpt lat="56.368574" lon="60.967066">
        <ele>253.7</ele>
        <time>1970-01-01T14:11:08.313Z</time>
    </trkpt>
    <trkpt lat="56.368573" lon="60.967063">
        <ele>253.7</ele>
        <time>1970-01-01T14:11:09.313Z</time>
    </trkpt>
    <trkpt lat="56.368572" lon="60.967061">
        <ele>253.7</ele>
        <time>1970-01-01T14:11:10.313Z</time>
    </trkpt>
    <trkpt lat="56.368571" lon="60.967058">
        <ele>253.7</ele>
        <time>1970-01-01T14:11:11.313Z</time>
    </trkpt>
    <trkpt lat="56.368571" lon="60.967055">
        <ele>253.7</ele>
        <time>1970-01-01T14:11:12.313Z</time>
    </trkpt>
    <trkpt lat="56.36857" lon="60.967053">
        <ele>253.7</ele>
        <time>1970-01-01T14:11:13.313Z</time>
    </trkpt>
    <trkpt lat="56.368569" lon="60.96705">
        <ele>253.7</ele>
        <time>1970-01-01T14:11:14.313Z</time>
    </trkpt>
    <trkpt lat="56.368568" lon="60.967047">
        <ele>253.7</ele>
        <time>1970-01-01T14:11:15.313Z</time>
    </trkpt>
    <trkpt lat="56.368567" lon="60.967045">
        <ele>253.7</ele>
        <time>1970-01-01T14:11:16.313Z</time>
    </trkpt>
    <trkpt lat="56.368567" lon="60.967042">
        <ele>253.7</ele>
        <time>1970-01-01T14:11:17.313Z</time>
    </trkpt>
    <trkpt lat="56.368566" lon="60.96704">
        <ele>253.7</ele>
        <time>1970-01-01T14:11:18.313Z</time>
    </trkpt>
    <trkpt lat="56.368565" lon="60.967037">
        <ele>253.7</ele>
        <time>1970-01-01T14:11:19.313Z</time>
    </trkpt>
    <trkpt lat="56.368564" lon="60.967034">
        <ele>253.7</ele>
        <time>1970-01-01T14:11:20.313Z</time>
    </trkpt>
    <trkpt lat="56.368564" lon="60.967032">
        <ele>253.6</ele>
        <time>1970-01-01T14:11:21.313Z</time>
    </trkpt>
    <trkpt lat="56.368563" lon="60.967029">
        <ele>253.6</ele>
        <time>1970-01-01T14:11:22.313Z</time>
    </trkpt>
    <trkpt lat="56.368562" lon="60.967026">
        <ele>253.6</ele>
        <time>1970-01-01T14:11:23.313Z</time>
    </trkpt>
    <trkpt lat="56.368561" lon="60.967024">
        <ele>253.6</ele>
        <time>1970-01-01T14:11:24.313Z</time>
    </trkpt>
    <trkpt lat="56.36856" lon="60.967021">
        <ele>253.6</ele>
        <time>1970-01-01T14:11:25.313Z</time>
    </trkpt>
    <trkpt lat="56.36856" lon="60.967019">
        <ele>253.6</ele>
        <time>1970-01-01T14:11:26.313Z</time>
    </trkpt>
    <trkpt lat="56.368559" lon="60.967016">
        <ele>253.6</ele>
        <time>1970-01-01T14:11:27.313Z</time>
    </trkpt>
    <trkpt lat="56.368558" lon="60.967013">
        <ele>253.6</ele>
        <time>1970-01-01T14:11:28.313Z</time>
    </trkpt>
    <trkpt lat="56.368557" lon="60.967011">
        <ele>253.6</ele>
        <time>1970-01-01T14:11:29.313Z</time>
    </trkpt>
    <trkpt lat="56.368556" lon="60.967008">
        <ele>253.6</ele>
        <time>1970-01-01T14:11:30.313Z</time>
    </trkpt>
    <trkpt lat="56.368556" lon="60.967005">
        <ele>253.6</ele>
        <time>1970-01-01T14:11:31.313Z</time>
    </trkpt>
    <trkpt lat="56.368555" lon="60.967003">
        <ele>253.6</ele>
        <time>1970-01-01T14:11:32.313Z</time>
    </trkpt>
    <trkpt lat="56.368554" lon="60.967">
        <ele>253.6</ele>
        <time>1970-01-01T14:11:33.313Z</time>
    </trkpt>
    <trkpt lat="56.368553" lon="60.966998">
        <ele>253.6</ele>
        <time>1970-01-01T14:11:34.313Z</time>
    </trkpt>
    <trkpt lat="56.368552" lon="60.966995">
        <ele>253.6</ele>
        <time>1970-01-01T14:11:35.313Z</time>
    </trkpt>
    <trkpt lat="56.368552" lon="60.966992">
        <ele>253.6</ele>
        <time>1970-01-01T14:11:36.313Z</time>
    </trkpt>
    <trkpt lat="56.368551" lon="60.96699">
        <ele>253.6</ele>
        <time>1970-01-01T14:11:37.313Z</time>
    </trkpt>
    <trkpt lat="56.36855" lon="60.966987">
        <ele>253.6</ele>
        <time>1970-01-01T14:11:38.313Z</time>
    </trkpt>
    <trkpt lat="56.368549" lon="60.966984">
        <ele>253.6</ele>
        <time>1970-01-01T14:11:39.313Z</time>
    </trkpt>
    <trkpt lat="56.368549" lon="60.966982">
        <ele>253.6</ele>
        <time>1970-01-01T14:11:40.313Z</time>
    </trkpt>
    <trkpt lat="56.368548" lon="60.966979">
        <ele>253.6</ele>
        <time>1970-01-01T14:11:41.313Z</time>
    </trkpt>
    <trkpt lat="56.368547" lon="60.966976">
        <ele>253.6</ele>
        <time>1970-01-01T14:11:42.313Z</time>
    </trkpt>
    <trkpt lat="56.368546" lon="60.966974">
        <ele>253.5</ele>
        <time>1970-01-01T14:11:43.313Z</time>
    </trkpt>
    <trkpt lat="56.368545" lon="60.966971">
        <ele>253.5</ele>
        <time>1970-01-01T14:11:44.313Z</time>
    </trkpt>
    <trkpt lat="56.368545" lon="60.966969">
        <ele>253.5</ele>
        <time>1970-01-01T14:11:45.313Z</time>
    </trkpt>
    <trkpt lat="56.368544" lon="60.966966">
        <ele>253.5</ele>
        <time>1970-01-01T14:11:46.313Z</time>
    </trkpt>
    <trkpt lat="56.368543" lon="60.966963">
        <ele>253.5</ele>
        <time>1970-01-01T14:11:47.313Z</time>
    </trkpt>
    <trkpt lat="56.368542" lon="60.966961">
        <ele>253.5</ele>
        <time>1970-01-01T14:11:48.313Z</time>
    </trkpt>
    <trkpt lat="56.368541" lon="60.966958">
        <ele>253.5</ele>
        <time>1970-01-01T14:11:49.313Z</time>
    </trkpt>
    <trkpt lat="56.368541" lon="60.966955">
        <ele>253.5</ele>
        <time>1970-01-01T14:11:50.313Z</time>
    </trkpt>
    <trkpt lat="56.36854" lon="60.966953">
        <ele>253.5</ele>
        <time>1970-01-01T14:11:51.313Z</time>
    </trkpt>
    <trkpt lat="56.368539" lon="60.96695">
        <ele>253.5</ele>
        <time>1970-01-01T14:11:52.313Z</time>
    </trkpt>
    <trkpt lat="56.368538" lon="60.966948">
        <ele>253.5</ele>
        <time>1970-01-01T14:11:53.313Z</time>
    </trkpt>
    <trkpt lat="56.368537" lon="60.966945">
        <ele>253.5</ele>
        <time>1970-01-01T14:11:54.313Z</time>
    </trkpt>
    <trkpt lat="56.368537" lon="60.966942">
        <ele>253.5</ele>
        <time>1970-01-01T14:11:55.313Z</time>
    </trkpt>
    <trkpt lat="56.368536" lon="60.96694">
        <ele>253.5</ele>
        <time>1970-01-01T14:11:56.313Z</time>
    </trkpt>
    <trkpt lat="56.368535" lon="60.966937">
        <ele>253.5</ele>
        <time>1970-01-01T14:11:57.313Z</time>
    </trkpt>
    <trkpt lat="56.368534" lon="60.966934">
        <ele>253.5</ele>
        <time>1970-01-01T14:11:58.313Z</time>
    </trkpt>
    <trkpt lat="56.368533" lon="60.966932">
        <ele>253.5</ele>
        <time>1970-01-01T14:11:59.313Z</time>
    </trkpt>
    <trkpt lat="56.368533" lon="60.966929">
        <ele>253.5</ele>
        <time>1970-01-01T14:12:00.313Z</time>
    </trkpt>
    <trkpt lat="56.368532" lon="60.966927">
        <ele>253.5</ele>
        <time>1970-01-01T14:12:01.313Z</time>
    </trkpt>
    <trkpt lat="56.368531" lon="60.966924">
        <ele>253.5</ele>
        <time>1970-01-01T14:12:02.313Z</time>
    </trkpt>
    <trkpt lat="56.36853" lon="60.966921">
        <ele>253.5</ele>
        <time>1970-01-01T14:12:03.313Z</time>
    </trkpt>
    <trkpt lat="56.368531" lon="60.966922">
        <ele>253.5</ele>
        <time>1970-01-01T14:12:04.313Z</time>
    </trkpt>
    <trkpt lat="56.368532" lon="60.966923">
        <ele>253.4</ele>
        <time>1970-01-01T14:12:05.313Z</time>
    </trkpt>
    <trkpt lat="56.368533" lon="60.966924">
        <ele>253.4</ele>
        <time>1970-01-01T14:12:06.313Z</time>
    </trkpt>
    <trkpt lat="56.368533" lon="60.966925">
        <ele>253.4</ele>
        <time>1970-01-01T14:12:07.313Z</time>
    </trkpt>
    <trkpt lat="56.368534" lon="60.966926">
        <ele>253.4</ele>
        <time>1970-01-01T14:12:08.313Z</time>
    </trkpt>
    <trkpt lat="56.368535" lon="60.966926">
        <ele>253.4</ele>
        <time>1970-01-01T14:12:09.313Z</time>
    </trkpt>
    <trkpt lat="56.368536" lon="60.966927">
        <ele>253.4</ele>
        <time>1970-01-01T14:12:10.313Z</time>
    </trkpt>
    <trkpt lat="56.368536" lon="60.966928">
        <ele>253.4</ele>
        <time>1970-01-01T14:12:11.313Z</time>
    </trkpt>
    <trkpt lat="56.368537" lon="60.966929">
        <ele>253.4</ele>
        <time>1970-01-01T14:12:12.313Z</time>
    </trkpt>
    <trkpt lat="56.368538" lon="60.96693">
        <ele>253.4</ele>
        <time>1970-01-01T14:12:13.313Z</time>
    </trkpt>
    <trkpt lat="56.368539" lon="60.966931">
        <ele>253.4</ele>
        <time>1970-01-01T14:12:14.313Z</time>
    </trkpt>
    <trkpt lat="56.368539" lon="60.966932">
        <ele>253.4</ele>
        <time>1970-01-01T14:12:15.313Z</time>
    </trkpt>
    <trkpt lat="56.36854" lon="60.966932">
        <ele>253.4</ele>
        <time>1970-01-01T14:12:16.313Z</time>
    </trkpt>
    <trkpt lat="56.368541" lon="60.966933">
        <ele>253.4</ele>
        <time>1970-01-01T14:12:17.313Z</time>
    </trkpt>
    <trkpt lat="56.368542" lon="60.966934">
        <ele>253.4</ele>
        <time>1970-01-01T14:12:18.313Z</time>
    </trkpt>
    <trkpt lat="56.368542" lon="60.966935">
        <ele>253.4</ele>
        <time>1970-01-01T14:12:19.313Z</time>
    </trkpt>
    <trkpt lat="56.368543" lon="60.966936">
        <ele>253.4</ele>
        <time>1970-01-01T14:12:20.313Z</time>
    </trkpt>
    <trkpt lat="56.368544" lon="60.966937">
        <ele>253.4</ele>
        <time>1970-01-01T14:12:21.313Z</time>
    </trkpt>
    <trkpt lat="56.368545" lon="60.966938">
        <ele>253.4</ele>
        <time>1970-01-01T14:12:22.313Z</time>
    </trkpt>
    <trkpt lat="56.368545" lon="60.966938">
        <ele>253.4</ele>
        <time>1970-01-01T14:12:23.313Z</time>
    </trkpt>
    <trkpt lat="56.368546" lon="60.966939">
        <ele>253.4</ele>
        <time>1970-01-01T14:12:24.313Z</time>
    </trkpt>
    <trkpt lat="56.368547" lon="60.96694">
        <ele>253.4</ele>
        <time>1970-01-01T14:12:25.313Z</time>
    </trkpt>
    <trkpt lat="56.368548" lon="60.966941">
        <ele>253.4</ele>
        <time>1970-01-01T14:12:26.313Z</time>
    </trkpt>
    <trkpt lat="56.368548" lon="60.966942">
        <ele>253.4</ele>
        <time>1970-01-01T14:12:27.313Z</time>
    </trkpt>
    <trkpt lat="56.368549" lon="60.966943">
        <ele>253.4</ele>
        <time>1970-01-01T14:12:28.313Z</time>
    </trkpt>
    <trkpt lat="56.36855" lon="60.966944">
        <ele>253.4</ele>
        <time>1970-01-01T14:12:29.313Z</time>
    </trkpt>
    <trkpt lat="56.368551" lon="60.966944">
        <ele>253.4</ele>
        <time>1970-01-01T14:12:30.313Z</time>
    </trkpt>
    <trkpt lat="56.368551" lon="60.966945">
        <ele>253.4</ele>
        <time>1970-01-01T14:12:31.313Z</time>
    </trkpt>
    <trkpt lat="56.368552" lon="60.966946">
        <ele>253.4</ele>
        <time>1970-01-01T14:12:32.313Z</time>
    </trkpt>
    <trkpt lat="56.368553" lon="60.966947">
        <ele>253.3</ele>
        <time>1970-01-01T14:12:33.313Z</time>
    </trkpt>
    <trkpt lat="56.368554" lon="60.966948">
        <ele>253.3</ele>
        <time>1970-01-01T14:12:34.313Z</time>
    </trkpt>
    <trkpt lat="56.368555" lon="60.966949">
        <ele>253.3</ele>
        <time>1970-01-01T14:12:36.313Z</time>
    </trkpt>
    <trkpt lat="56.368555" lon="60.96695">
        <ele>253.3</ele>
        <time>1970-01-01T14:12:37.313Z</time>
    </trkpt>
    <trkpt lat="56.368556" lon="60.966951">
        <ele>253.3</ele>
        <time>1970-01-01T14:12:38.313Z</time>
    </trkpt>
    <trkpt lat="56.368557" lon="60.966951">
        <ele>253.3</ele>
        <time>1970-01-01T14:12:39.313Z</time>
    </trkpt>
    <trkpt lat="56.368558" lon="60.966952">
        <ele>253.3</ele>
        <time>1970-01-01T14:12:40.313Z</time>
    </trkpt>
    <trkpt lat="56.368558" lon="60.966953">
        <ele>253.3</ele>
        <time>1970-01-01T14:12:41.313Z</time>
    </trkpt>
    <trkpt lat="56.368559" lon="60.966954">
        <ele>253.3</ele>
        <time>1970-01-01T14:12:42.313Z</time>
    </trkpt>
    <trkpt lat="56.36856" lon="60.966955">
        <ele>253.3</ele>
        <time>1970-01-01T14:12:43.313Z</time>
    </trkpt>
    <trkpt lat="56.368561" lon="60.966956">
        <ele>253.3</ele>
        <time>1970-01-01T14:12:44.313Z</time>
    </trkpt>
    <trkpt lat="56.368561" lon="60.966957">
        <ele>253.3</ele>
        <time>1970-01-01T14:12:45.313Z</time>
    </trkpt>
    <trkpt lat="56.368562" lon="60.966957">
        <ele>253.3</ele>
        <time>1970-01-01T14:12:46.313Z</time>
    </trkpt>
    <trkpt lat="56.368563" lon="60.966958">
        <ele>253.3</ele>
        <time>1970-01-01T14:12:47.313Z</time>
    </trkpt>
    <trkpt lat="56.368564" lon="60.966959">
        <ele>253.3</ele>
        <time>1970-01-01T14:12:48.313Z</time>
    </trkpt>
    <trkpt lat="56.368564" lon="60.96696">
        <ele>253.3</ele>
        <time>1970-01-01T14:12:49.313Z</time>
    </trkpt>
    <trkpt lat="56.368565" lon="60.966961">
        <ele>253.3</ele>
        <time>1970-01-01T14:12:50.313Z</time>
    </trkpt>
    <trkpt lat="56.368566" lon="60.966962">
        <ele>253.3</ele>
        <time>1970-01-01T14:12:51.313Z</time>
    </trkpt>
    <trkpt lat="56.368567" lon="60.966963">
        <ele>253.3</ele>
        <time>1970-01-01T14:12:52.313Z</time>
    </trkpt>
    <trkpt lat="56.368567" lon="60.966963">
        <ele>253.3</ele>
        <time>1970-01-01T14:12:53.313Z</time>
    </trkpt>
    <trkpt lat="56.368568" lon="60.966964">
        <ele>253.3</ele>
        <time>1970-01-01T14:12:54.313Z</time>
    </trkpt>
    <trkpt lat="56.368569" lon="60.966965">
        <ele>253.3</ele>
        <time>1970-01-01T14:12:55.313Z</time>
    </trkpt>
    <trkpt lat="56.36857" lon="60.966966">
        <ele>253.3</ele>
        <time>1970-01-01T14:12:56.313Z</time>
    </trkpt>
    <trkpt lat="56.36857" lon="60.966967">
        <ele>253.3</ele>
        <time>1970-01-01T14:12:57.313Z</time>
    </trkpt>
    <trkpt lat="56.368571" lon="60.966968">
        <ele>253.3</ele>
        <time>1970-01-01T14:12:58.313Z</time>
    </trkpt>
    <trkpt lat="56.368572" lon="60.966969">
        <ele>253.2</ele>
        <time>1970-01-01T14:12:59.313Z</time>
    </trkpt>
    <trkpt lat="56.368573" lon="60.966969">
        <ele>253.2</ele>
        <time>1970-01-01T14:13:00.313Z</time>
    </trkpt>
    <trkpt lat="56.368573" lon="60.96697">
        <ele>253.2</ele>
        <time>1970-01-01T14:13:01.313Z</time>
    </trkpt>
    <trkpt lat="56.368574" lon="60.966971">
        <ele>253.2</ele>
        <time>1970-01-01T14:13:02.313Z</time>
    </trkpt>
    <trkpt lat="56.368578" lon="60.966982">
        <ele>253.2</ele>
        <time>1970-01-01T14:13:03.313Z</time>
    </trkpt>
    <trkpt lat="56.368582" lon="60.966983">
        <ele>253.2</ele>
        <time>1970-01-01T14:13:04.313Z</time>
    </trkpt>
    <trkpt lat="56.368586" lon="60.966985">
        <ele>253.2</ele>
        <time>1970-01-01T14:13:05.313Z</time>
    </trkpt>
    <trkpt lat="56.36859" lon="60.966986">
        <ele>253.2</ele>
        <time>1970-01-01T14:13:06.313Z</time>
    </trkpt>
    <trkpt lat="56.368594" lon="60.966987">
        <ele>253.1</ele>
        <time>1970-01-01T14:13:07.313Z</time>
    </trkpt>
    <trkpt lat="56.368598" lon="60.966988">
        <ele>253.1</ele>
        <time>1970-01-01T14:13:08.313Z</time>
    </trkpt>
    <trkpt lat="56.368602" lon="60.96699">
        <ele>253.1</ele>
        <time>1970-01-01T14:13:09.313Z</time>
    </trkpt>
    <trkpt lat="56.368606" lon="60.966991">
        <ele>253.1</ele>
        <time>1970-01-01T14:13:10.313Z</time>
    </trkpt>
    <trkpt lat="56.36861" lon="60.966992">
        <ele>253.1</ele>
        <time>1970-01-01T14:13:11.313Z</time>
    </trkpt>
    <trkpt lat="56.368614" lon="60.966993">
        <ele>253.1</ele>
        <time>1970-01-01T14:13:12.313Z</time>
    </trkpt>
    <trkpt lat="56.368618" lon="60.966994">
        <ele>253.1</ele>
        <time>1970-01-01T14:13:13.313Z</time>
    </trkpt>
    <trkpt lat="56.368622" lon="60.966996">
        <ele>253.1</ele>
        <time>1970-01-01T14:13:14.313Z</time>
    </trkpt>
    <trkpt lat="56.368626" lon="60.966997">
        <ele>253.1</ele>
        <time>1970-01-01T14:13:15.313Z</time>
    </trkpt>
    <trkpt lat="56.36863" lon="60.966998">
        <ele>253.0</ele>
        <time>1970-01-01T14:13:16.313Z</time>
    </trkpt>
    <trkpt lat="56.368634" lon="60.966999">
        <ele>253.0</ele>
        <time>1970-01-01T14:13:17.313Z</time>
    </trkpt>
    <trkpt lat="56.368644" lon="60.967011">
        <ele>253.0</ele>
        <time>1970-01-01T14:13:18.313Z</time>
    </trkpt>
    <trkpt lat="56.368644" lon="60.967021">
        <ele>253.0</ele>
        <time>1970-01-01T14:13:19.313Z</time>
    </trkpt>
    <trkpt lat="56.368645" lon="60.96703">
        <ele>253.0</ele>
        <time>1970-01-01T14:13:20.313Z</time>
    </trkpt>
    <trkpt lat="56.368645" lon="60.967039">
        <ele>253.0</ele>
        <time>1970-01-01T14:13:21.313Z</time>
    </trkpt>
    <trkpt lat="56.368645" lon="60.967048">
        <ele>252.9</ele>
        <time>1970-01-01T14:13:22.313Z</time>
    </trkpt>
    <trkpt lat="56.368646" lon="60.967058">
        <ele>252.9</ele>
        <time>1970-01-01T14:13:23.313Z</time>
    </trkpt>
    <trkpt lat="56.368655" lon="60.967075">
        <ele>252.9</ele>
        <time>1970-01-01T14:13:24.313Z</time>
    </trkpt>
    <trkpt lat="56.36865" lon="60.967095">
        <ele>252.8</ele>
        <time>1970-01-01T14:13:25.313Z</time>
    </trkpt>
    <trkpt lat="56.368658" lon="60.967103">
        <ele>252.8</ele>
        <time>1970-01-01T14:13:26.313Z</time>
    </trkpt>
    <trkpt lat="56.368651" lon="60.967111">
        <ele>252.8</ele>
        <time>1970-01-01T14:13:27.313Z</time>
    </trkpt>
    <trkpt lat="56.368654" lon="60.967124">
        <ele>252.8</ele>
        <time>1970-01-01T14:13:28.313Z</time>
    </trkpt>
    <trkpt lat="56.368658" lon="60.96713">
        <ele>252.8</ele>
        <time>1970-01-01T14:13:29.313Z</time>
    </trkpt>
    <trkpt lat="56.368667" lon="60.967139">
        <ele>252.7</ele>
        <time>1970-01-01T14:13:30.313Z</time>
    </trkpt>
    <trkpt lat="56.368674" lon="60.967147">
        <ele>252.7</ele>
        <time>1970-01-01T14:13:31.313Z</time>
    </trkpt>
    <trkpt lat="56.368678" lon="60.967157">
        <ele>252.7</ele>
        <time>1970-01-01T14:13:32.313Z</time>
    </trkpt>
    <trkpt lat="56.368684" lon="60.967164">
        <ele>252.7</ele>
        <time>1970-01-01T14:13:33.313Z</time>
    </trkpt>
    <trkpt lat="56.368682" lon="60.96717">
        <ele>252.7</ele>
        <time>1970-01-01T14:13:34.313Z</time>
    </trkpt>
    <trkpt lat="56.368688" lon="60.967165">
        <ele>252.7</ele>
        <time>1970-01-01T14:13:35.313Z</time>
    </trkpt>
    <trkpt lat="56.368676" lon="60.967175">
        <ele>252.6</ele>
        <time>1970-01-01T14:13:36.313Z</time>
    </trkpt>
    <trkpt lat="56.36868" lon="60.967178">
        <ele>252.6</ele>
        <time>1970-01-01T14:13:37.313Z</time>
    </trkpt>
    <trkpt lat="56.368684" lon="60.967182">
        <ele>252.6</ele>
        <time>1970-01-01T14:13:38.313Z</time>
    </trkpt>
    <trkpt lat="56.368688" lon="60.967185">
        <ele>252.6</ele>
        <time>1970-01-01T14:13:39.313Z</time>
    </trkpt>
    <trkpt lat="56.368692" lon="60.967189">
        <ele>252.6</ele>
        <time>1970-01-01T14:13:40.313Z</time>
    </trkpt>
    <trkpt lat="56.368696" lon="60.967192">
        <ele>252.6</ele>
        <time>1970-01-01T14:13:41.313Z</time>
    </trkpt>
    <trkpt lat="56.368699" lon="60.967196">
        <ele>252.6</ele>
        <time>1970-01-01T14:13:42.313Z</time>
    </trkpt>
    <trkpt lat="56.368703" lon="60.967199">
        <ele>252.5</ele>
        <time>1970-01-01T14:13:43.313Z</time>
    </trkpt>
    <trkpt lat="56.368707" lon="60.967203">
        <ele>252.5</ele>
        <time>1970-01-01T14:13:44.313Z</time>
    </trkpt>
    <trkpt lat="56.368711" lon="60.967206">
        <ele>252.5</ele>
        <time>1970-01-01T14:13:45.313Z</time>
    </trkpt>
    <trkpt lat="56.368715" lon="60.96721">
        <ele>252.5</ele>
        <time>1970-01-01T14:13:46.313Z</time>
    </trkpt>
    <trkpt lat="56.368719" lon="60.967213">
        <ele>252.5</ele>
        <time>1970-01-01T14:13:47.313Z</time>
    </trkpt>
    <trkpt lat="56.368723" lon="60.967216">
        <ele>252.5</ele>
        <time>1970-01-01T14:13:48.313Z</time>
    </trkpt>
    <trkpt lat="56.368727" lon="60.96722">
        <ele>252.5</ele>
        <time>1970-01-01T14:13:49.313Z</time>
    </trkpt>
    <trkpt lat="56.368731" lon="60.967223">
        <ele>252.5</ele>
        <time>1970-01-01T14:13:50.313Z</time>
    </trkpt>
    <trkpt lat="56.368734" lon="60.967227">
        <ele>252.5</ele>
        <time>1970-01-01T14:13:51.313Z</time>
    </trkpt>
    <trkpt lat="56.368738" lon="60.96723">
        <ele>252.4</ele>
        <time>1970-01-01T14:13:52.313Z</time>
    </trkpt>
    <trkpt lat="56.368742" lon="60.967234">
        <ele>252.4</ele>
        <time>1970-01-01T14:13:53.313Z</time>
    </trkpt>
    <trkpt lat="56.368746" lon="60.967237">
        <ele>252.4</ele>
        <time>1970-01-01T14:13:54.313Z</time>
    </trkpt>
    <trkpt lat="56.36875" lon="60.967241">
        <ele>252.4</ele>
        <time>1970-01-01T14:13:55.313Z</time>
    </trkpt>
    <trkpt lat="56.368754" lon="60.967244">
        <ele>252.4</ele>
        <time>1970-01-01T14:13:56.313Z</time>
    </trkpt>
    <trkpt lat="56.368758" lon="60.967248">
        <ele>252.4</ele>
        <time>1970-01-01T14:13:57.313Z</time>
    </trkpt>
    <trkpt lat="56.368762" lon="60.967251">
        <ele>252.4</ele>
        <time>1970-01-01T14:13:58.313Z</time>
    </trkpt>
    <trkpt lat="56.368765" lon="60.967254">
        <ele>252.4</ele>
        <time>1970-01-01T14:13:59.313Z</time>
    </trkpt>
    <trkpt lat="56.368769" lon="60.967258">
        <ele>252.4</ele>
        <time>1970-01-01T14:14:00.313Z</time>
    </trkpt>
    <trkpt lat="56.368773" lon="60.967261">
        <ele>252.3</ele>
        <time>1970-01-01T14:14:01.313Z</time>
    </trkpt>
    <trkpt lat="56.368768" lon="60.967269">
        <ele>252.3</ele>
        <time>1970-01-01T14:14:02.313Z</time>
    </trkpt>
    <trkpt lat="56.368769" lon="60.967271">
        <ele>252.3</ele>
        <time>1970-01-01T14:14:03.313Z</time>
    </trkpt>
    <trkpt lat="56.368769" lon="60.967272">
        <ele>252.3</ele>
        <time>1970-01-01T14:14:04.313Z</time>
    </trkpt>
    <trkpt lat="56.368769" lon="60.967274">
        <ele>252.3</ele>
        <time>1970-01-01T14:14:05.313Z</time>
    </trkpt>
    <trkpt lat="56.368769" lon="60.967275">
        <ele>252.3</ele>
        <time>1970-01-01T14:14:06.313Z</time>
    </trkpt>
    <trkpt lat="56.368769" lon="60.967276">
        <ele>252.3</ele>
        <time>1970-01-01T14:14:07.313Z</time>
    </trkpt>
    <trkpt lat="56.368769" lon="60.967278">
        <ele>252.3</ele>
        <time>1970-01-01T14:14:08.313Z</time>
    </trkpt>
    <trkpt lat="56.368769" lon="60.967279">
        <ele>252.3</ele>
        <time>1970-01-01T14:14:09.313Z</time>
    </trkpt>
    <trkpt lat="56.36877" lon="60.967281">
        <ele>252.3</ele>
        <time>1970-01-01T14:14:10.313Z</time>
    </trkpt>
    <trkpt lat="56.36877" lon="60.967282">
        <ele>252.3</ele>
        <time>1970-01-01T14:14:11.313Z</time>
    </trkpt>
    <trkpt lat="56.36877" lon="60.967284">
        <ele>252.3</ele>
        <time>1970-01-01T14:14:12.313Z</time>
    </trkpt>
    <trkpt lat="56.36877" lon="60.967285">
        <ele>252.3</ele>
        <time>1970-01-01T14:14:13.313Z</time>
    </trkpt>
    <trkpt lat="56.36877" lon="60.967287">
        <ele>252.3</ele>
        <time>1970-01-01T14:14:14.313Z</time>
    </trkpt>
    <trkpt lat="56.36877" lon="60.967288">
        <ele>252.3</ele>
        <time>1970-01-01T14:14:15.313Z</time>
    </trkpt>
    <trkpt lat="56.36877" lon="60.96729">
        <ele>252.3</ele>
        <time>1970-01-01T14:14:16.313Z</time>
    </trkpt>
    <trkpt lat="56.368771" lon="60.967291">
        <ele>252.3</ele>
        <time>1970-01-01T14:14:17.313Z</time>
    </trkpt>
    <trkpt lat="56.368771" lon="60.967293">
        <ele>252.3</ele>
        <time>1970-01-01T14:14:18.313Z</time>
    </trkpt>
    <trkpt lat="56.368771" lon="60.967294">
        <ele>252.3</ele>
        <time>1970-01-01T14:14:19.313Z</time>
    </trkpt>
    <trkpt lat="56.368771" lon="60.967296">
        <ele>252.3</ele>
        <time>1970-01-01T14:14:20.313Z</time>
    </trkpt>
    <trkpt lat="56.368771" lon="60.967297">
        <ele>252.3</ele>
        <time>1970-01-01T14:14:21.313Z</time>
    </trkpt>
    <trkpt lat="56.368771" lon="60.967299">
        <ele>252.3</ele>
        <time>1970-01-01T14:14:22.313Z</time>
    </trkpt>
    <trkpt lat="56.368771" lon="60.9673">
        <ele>252.3</ele>
        <time>1970-01-01T14:14:23.313Z</time>
    </trkpt>
    <trkpt lat="56.368772" lon="60.967302">
        <ele>252.3</ele>
        <time>1970-01-01T14:14:24.313Z</time>
    </trkpt>
    <trkpt lat="56.368772" lon="60.967303">
        <ele>252.3</ele>
        <time>1970-01-01T14:14:25.313Z</time>
    </trkpt>
    <trkpt lat="56.368772" lon="60.967305">
        <ele>252.3</ele>
        <time>1970-01-01T14:14:26.313Z</time>
    </trkpt>
    <trkpt lat="56.368772" lon="60.967306">
        <ele>252.3</ele>
        <time>1970-01-01T14:14:27.313Z</time>
    </trkpt>
    <trkpt lat="56.368772" lon="60.967308">
        <ele>252.3</ele>
        <time>1970-01-01T14:14:28.313Z</time>
    </trkpt>
    <trkpt lat="56.368772" lon="60.967309">
        <ele>252.3</ele>
        <time>1970-01-01T14:14:29.313Z</time>
    </trkpt>
    <trkpt lat="56.368772" lon="60.967311">
        <ele>252.3</ele>
        <time>1970-01-01T14:14:30.313Z</time>
    </trkpt>
    <trkpt lat="56.368773" lon="60.967312">
        <ele>252.3</ele>
        <time>1970-01-01T14:14:31.313Z</time>
    </trkpt>
    <trkpt lat="56.368773" lon="60.967314">
        <ele>252.3</ele>
        <time>1970-01-01T14:14:32.313Z</time>
    </trkpt>
    <trkpt lat="56.368773" lon="60.967315">
        <ele>252.3</ele>
        <time>1970-01-01T14:14:33.313Z</time>
    </trkpt>
    <trkpt lat="56.368773" lon="60.967317">
        <ele>252.3</ele>
        <time>1970-01-01T14:14:34.313Z</time>
    </trkpt>
    <trkpt lat="56.368773" lon="60.967318">
        <ele>252.3</ele>
        <time>1970-01-01T14:14:35.313Z</time>
    </trkpt>
    <trkpt lat="56.368773" lon="60.96732">
        <ele>252.3</ele>
        <time>1970-01-01T14:14:36.313Z</time>
    </trkpt>
    <trkpt lat="56.368773" lon="60.967321">
        <ele>252.2</ele>
        <time>1970-01-01T14:14:37.313Z</time>
    </trkpt>
    <trkpt lat="56.368774" lon="60.967323">
        <ele>252.2</ele>
        <time>1970-01-01T14:14:38.313Z</time>
    </trkpt>
    <trkpt lat="56.368774" lon="60.967324">
        <ele>252.2</ele>
        <time>1970-01-01T14:14:39.313Z</time>
    </trkpt>
    <trkpt lat="56.368774" lon="60.967325">
        <ele>252.2</ele>
        <time>1970-01-01T14:14:40.313Z</time>
    </trkpt>
    <trkpt lat="56.368774" lon="60.967327">
        <ele>252.2</ele>
        <time>1970-01-01T14:14:41.313Z</time>
    </trkpt>
    <trkpt lat="56.368774" lon="60.967328">
        <ele>252.2</ele>
        <time>1970-01-01T14:14:42.313Z</time>
    </trkpt>
    <trkpt lat="56.368774" lon="60.96733">
        <ele>252.2</ele>
        <time>1970-01-01T14:14:43.313Z</time>
    </trkpt>
    <trkpt lat="56.36878" lon="60.967353">
        <ele>252.2</ele>
        <time>1970-01-01T14:14:44.313Z</time>
    </trkpt>
    <trkpt lat="56.36878" lon="60.967369">
        <ele>252.2</ele>
        <time>1970-01-01T14:14:45.313Z</time>
    </trkpt>
    <trkpt lat="56.368777" lon="60.967373">
        <ele>252.2</ele>
        <time>1970-01-01T14:14:46.313Z</time>
    </trkpt>
    <trkpt lat="56.368778" lon="60.967374">
        <ele>252.2</ele>
        <time>1970-01-01T14:14:47.313Z</time>
    </trkpt>
    <trkpt lat="56.368783" lon="60.967379">
        <ele>252.1</ele>
        <time>1970-01-01T14:14:48.313Z</time>
    </trkpt>
    <trkpt lat="56.368793" lon="60.967398">
        <ele>252.1</ele>
        <time>1970-01-01T14:14:49.313Z</time>
    </trkpt>
    <trkpt lat="56.368793" lon="60.967425">
        <ele>252.1</ele>
        <time>1970-01-01T14:14:50.313Z</time>
    </trkpt>
    <trkpt lat="56.368801" lon="60.967448">
        <ele>252.0</ele>
        <time>1970-01-01T14:14:51.313Z</time>
    </trkpt>
    <trkpt lat="56.368796" lon="60.967461">
        <ele>252.0</ele>
        <time>1970-01-01T14:14:52.313Z</time>
    </trkpt>
    <trkpt lat="56.368776" lon="60.967507">
        <ele>251.9</ele>
        <time>1970-01-01T14:14:53.313Z</time>
    </trkpt>
    <trkpt lat="56.36878" lon="60.967542">
        <ele>251.9</ele>
        <time>1970-01-01T14:14:54.313Z</time>
    </trkpt>
    <trkpt lat="56.368791" lon="60.967598">
        <ele>251.8</ele>
        <time>1970-01-01T14:14:55.313Z</time>
    </trkpt>
    <trkpt lat="56.368798" lon="60.967607">
        <ele>251.8</ele>
        <time>1970-01-01T14:14:56.313Z</time>
    </trkpt>
    <trkpt lat="56.368805" lon="60.967616">
        <ele>251.7</ele>
        <time>1970-01-01T14:14:57.313Z</time>
    </trkpt>
    <trkpt lat="56.368812" lon="60.967626">
        <ele>251.7</ele>
        <time>1970-01-01T14:14:58.313Z</time>
    </trkpt>
    <trkpt lat="56.368828" lon="60.967651">
        <ele>251.7</ele>
        <time>1970-01-01T14:14:59.313Z</time>
    </trkpt>
    <trkpt lat="56.368837" lon="60.967667">
        <ele>251.6</ele>
        <time>1970-01-01T14:15:00.313Z</time>
    </trkpt>
    <trkpt lat="56.368841" lon="60.967677">
        <ele>251.6</ele>
        <time>1970-01-01T14:15:01.313Z</time>
    </trkpt>
    <trkpt lat="56.368856" lon="60.967686">
        <ele>251.6</ele>
        <time>1970-01-01T14:15:02.313Z</time>
    </trkpt>
    <trkpt lat="56.368885" lon="60.967706">
        <ele>251.5</ele>
        <time>1970-01-01T14:15:03.313Z</time>
    </trkpt>
    <trkpt lat="56.368895" lon="60.967708">
        <ele>251.5</ele>
        <time>1970-01-01T14:15:04.313Z</time>
    </trkpt>
    <trkpt lat="56.368928" lon="60.967717">
        <ele>251.4</ele>
        <time>1970-01-01T14:15:05.313Z</time>
    </trkpt>
    <trkpt lat="56.368954" lon="60.967729">
        <ele>251.3</ele>
        <time>1970-01-01T14:15:06.313Z</time>
    </trkpt>
    <trkpt lat="56.368966" lon="60.967725">
        <ele>251.3</ele>
        <time>1970-01-01T14:15:07.313Z</time>
    </trkpt>
    <trkpt lat="56.369004" lon="60.967715">
        <ele>251.2</ele>
        <time>1970-01-01T14:15:08.313Z</time>
    </trkpt>
    <trkpt lat="56.369039" lon="60.967736">
        <ele>251.1</ele>
        <time>1970-01-01T14:15:09.313Z</time>
    </trkpt>
    <trkpt lat="56.369069" lon="60.967746">
        <ele>251.0</ele>
        <time>1970-01-01T14:15:10.313Z</time>
    </trkpt>
    <trkpt lat="56.369081" lon="60.96774">
        <ele>251.0</ele>
        <time>1970-01-01T14:15:11.313Z</time>
    </trkpt>
    <trkpt lat="56.369102" lon="60.967746">
        <ele>250.9</ele>
        <time>1970-01-01T14:15:12.313Z</time>
    </trkpt>
    <trkpt lat="56.369116" lon="60.967754">
        <ele>250.9</ele>
        <time>1970-01-01T14:15:13.313Z</time>
    </trkpt>
    <trkpt lat="56.369132" lon="60.96775">
        <ele>250.8</ele>
        <time>1970-01-01T14:15:14.313Z</time>
    </trkpt>
    <trkpt lat="56.369163" lon="60.967753">
        <ele>250.8</ele>
        <time>1970-01-01T14:15:15.313Z</time>
    </trkpt>
    <trkpt lat="56.369177" lon="60.967737">
        <ele>250.7</ele>
        <time>1970-01-01T14:15:16.313Z</time>
    </trkpt>
    <trkpt lat="56.369189" lon="60.967729">
        <ele>250.7</ele>
        <time>1970-01-01T14:15:17.313Z</time>
    </trkpt>
    <trkpt lat="56.36921" lon="60.967699">
        <ele>250.6</ele>
        <time>1970-01-01T14:15:18.313Z</time>
    </trkpt>
    <trkpt lat="56.369216" lon="60.967707">
        <ele>250.6</ele>
        <time>1970-01-01T14:15:19.313Z</time>
    </trkpt>
    <trkpt lat="56.369226" lon="60.967704">
        <ele>250.6</ele>
        <time>1970-01-01T14:15:20.313Z</time>
    </trkpt>
    <trkpt lat="56.369241" lon="60.967684">
        <ele>250.5</ele>
        <time>1970-01-01T14:15:21.313Z</time>
    </trkpt>
    <trkpt lat="56.369249" lon="60.967678">
        <ele>250.5</ele>
        <time>1970-01-01T14:15:22.313Z</time>
    </trkpt>
    <trkpt lat="56.369257" lon="60.967672">
        <ele>250.5</ele>
        <time>1970-01-01T14:15:23.313Z</time>
    </trkpt>
    <trkpt lat="56.369265" lon="60.967667">
        <ele>250.5</ele>
        <time>1970-01-01T14:15:24.313Z</time>
    </trkpt>
    <trkpt lat="56.369273" lon="60.967661">
        <ele>250.4</ele>
        <time>1970-01-01T14:15:25.313Z</time>
    </trkpt>
    <trkpt lat="56.369281" lon="60.967662">
        <ele>250.4</ele>
        <time>1970-01-01T14:15:26.313Z</time>
    </trkpt>
    <trkpt lat="56.369289" lon="60.967683">
        <ele>250.4</ele>
        <time>1970-01-01T14:15:27.313Z</time>
    </trkpt>
    <trkpt lat="56.36929" lon="60.967676">
        <ele>250.4</ele>
        <time>1970-01-01T14:15:28.313Z</time>
    </trkpt>
    <trkpt lat="56.369293" lon="60.967676">
        <ele>250.4</ele>
        <time>1970-01-01T14:15:29.313Z</time>
    </trkpt>
    <trkpt lat="56.369289" lon="60.967684">
        <ele>250.4</ele>
        <time>1970-01-01T14:15:30.313Z</time>
    </trkpt>
    <trkpt lat="56.369294" lon="60.967694">
        <ele>250.3</ele>
        <time>1970-01-01T14:15:31.313Z</time>
    </trkpt>
    <trkpt lat="56.369297" lon="60.967691">
        <ele>250.3</ele>
        <time>1970-01-01T14:15:32.313Z</time>
    </trkpt>
    <trkpt lat="56.369301" lon="60.9677">
        <ele>250.3</ele>
        <time>1970-01-01T14:15:33.313Z</time>
    </trkpt>
    <trkpt lat="56.36931" lon="60.967709">
        <ele>250.3</ele>
        <time>1970-01-01T14:15:34.313Z</time>
    </trkpt>
    <trkpt lat="56.369327" lon="60.967735">
        <ele>250.1</ele>
        <time>1970-01-01T14:15:35.313Z</time>
    </trkpt>
    <trkpt lat="56.36933" lon="60.967755">
        <ele>250.1</ele>
        <time>1970-01-01T14:15:36.313Z</time>
    </trkpt>
    <trkpt lat="56.369341" lon="60.967769">
        <ele>250.1</ele>
        <time>1970-01-01T14:15:37.313Z</time>
    </trkpt>
    <trkpt lat="56.369341" lon="60.967782">
        <ele>250.1</ele>
        <time>1970-01-01T14:15:38.313Z</time>
    </trkpt>
    <trkpt lat="56.369338" lon="60.967797">
        <ele>250.1</ele>
        <time>1970-01-01T14:15:39.313Z</time>
    </trkpt>
    <trkpt lat="56.369345" lon="60.96783">
        <ele>250.2</ele>
        <time>1970-01-01T14:15:40.313Z</time>
    </trkpt>
    <trkpt lat="56.369351" lon="60.967853">
        <ele>250.2</ele>
        <time>1970-01-01T14:15:41.313Z</time>
    </trkpt>
    <trkpt lat="56.369347" lon="60.967866">
        <ele>250.2</ele>
        <time>1970-01-01T14:15:42.313Z</time>
    </trkpt>
    <trkpt lat="56.369346" lon="60.967875">
        <ele>250.2</ele>
        <time>1970-01-01T14:15:43.313Z</time>
    </trkpt>
    <trkpt lat="56.369351" lon="60.96788">
        <ele>250.2</ele>
        <time>1970-01-01T14:15:44.313Z</time>
    </trkpt>
    <trkpt lat="56.369367" lon="60.9679">
        <ele>250.2</ele>
        <time>1970-01-01T14:15:45.313Z</time>
    </trkpt>
    <trkpt lat="56.369374" lon="60.967922">
        <ele>250.2</ele>
        <time>1970-01-01T14:15:46.313Z</time>
    </trkpt>
    <trkpt lat="56.36938" lon="60.967946">
        <ele>250.2</ele>
        <time>1970-01-01T14:15:47.313Z</time>
    </trkpt>
    <trkpt lat="56.369392" lon="60.968005">
        <ele>250.3</ele>
        <time>1970-01-01T14:15:48.313Z</time>
    </trkpt>
    <trkpt lat="56.369396" lon="60.968022">
        <ele>250.3</ele>
        <time>1970-01-01T14:15:49.313Z</time>
    </trkpt>
    <trkpt lat="56.369408" lon="60.968074">
        <ele>250.3</ele>
        <time>1970-01-01T14:15:50.313Z</time>
    </trkpt>
    <trkpt lat="56.369411" lon="60.968097">
        <ele>250.3</ele>
        <time>1970-01-01T14:15:51.313Z</time>
    </trkpt>
    <trkpt lat="56.369418" lon="60.968154">
        <ele>250.4</ele>
        <time>1970-01-01T14:15:52.313Z</time>
    </trkpt>
    <trkpt lat="56.369423" lon="60.968172">
        <ele>250.4</ele>
        <time>1970-01-01T14:15:53.313Z</time>
    </trkpt>
    <trkpt lat="56.369435" lon="60.96822">
        <ele>250.4</ele>
        <time>1970-01-01T14:15:54.313Z</time>
    </trkpt>
    <trkpt lat="56.36944" lon="60.968244">
        <ele>250.4</ele>
        <time>1970-01-01T14:15:55.313Z</time>
    </trkpt>
    <trkpt lat="56.36945" lon="60.968311">
        <ele>250.5</ele>
        <time>1970-01-01T14:15:56.313Z</time>
    </trkpt>
    <trkpt lat="56.369453" lon="60.968331">
        <ele>250.5</ele>
        <time>1970-01-01T14:15:57.313Z</time>
    </trkpt>
    <trkpt lat="56.369459" lon="60.968391">
        <ele>250.5</ele>
        <time>1970-01-01T14:15:58.313Z</time>
    </trkpt>
    <trkpt lat="56.369468" lon="60.968411">
        <ele>250.5</ele>
        <time>1970-01-01T14:15:59.313Z</time>
    </trkpt>
    <trkpt lat="56.369496" lon="60.968465">
        <ele>250.6</ele>
        <time>1970-01-01T14:16:00.313Z</time>
    </trkpt>
    <trkpt lat="56.369516" lon="60.968516">
        <ele>250.6</ele>
        <time>1970-01-01T14:16:01.313Z</time>
    </trkpt>
    <trkpt lat="56.369525" lon="60.968531">
        <ele>250.6</ele>
        <time>1970-01-01T14:16:02.313Z</time>
    </trkpt>
    <trkpt lat="56.369545" lon="60.968575">
        <ele>250.6</ele>
        <time>1970-01-01T14:16:03.313Z</time>
    </trkpt>
    <trkpt lat="56.369557" lon="60.968603">
        <ele>250.7</ele>
        <time>1970-01-01T14:16:04.313Z</time>
    </trkpt>
    <trkpt lat="56.369562" lon="60.968628">
        <ele>250.7</ele>
        <time>1970-01-01T14:16:05.313Z</time>
    </trkpt>
    <trkpt lat="56.369574" lon="60.968672">
        <ele>250.7</ele>
        <time>1970-01-01T14:16:06.313Z</time>
    </trkpt>
    <trkpt lat="56.369581" lon="60.9687">
        <ele>250.7</ele>
        <time>1970-01-01T14:16:07.313Z</time>
    </trkpt>
    <trkpt lat="56.369589" lon="60.968743">
        <ele>250.8</ele>
        <time>1970-01-01T14:16:08.313Z</time>
    </trkpt>
    <trkpt lat="56.369609" lon="60.968785">
        <ele>250.8</ele>
        <time>1970-01-01T14:16:09.313Z</time>
    </trkpt>
    <trkpt lat="56.369612" lon="60.968792">
        <ele>250.8</ele>
        <time>1970-01-01T14:16:10.313Z</time>
    </trkpt>
    <trkpt lat="56.369618" lon="60.968816">
        <ele>250.8</ele>
        <time>1970-01-01T14:16:11.313Z</time>
    </trkpt>
    <trkpt lat="56.369625" lon="60.968841">
        <ele>250.8</ele>
        <time>1970-01-01T14:16:12.313Z</time>
    </trkpt>
    <trkpt lat="56.369637" lon="60.968872">
        <ele>250.8</ele>
        <time>1970-01-01T14:16:13.313Z</time>
    </trkpt>
    <trkpt lat="56.369647" lon="60.968903">
        <ele>250.9</ele>
        <time>1970-01-01T14:16:14.313Z</time>
    </trkpt>
    <trkpt lat="56.369655" lon="60.968921">
        <ele>250.9</ele>
        <time>1970-01-01T14:16:15.313Z</time>
    </trkpt>
    <trkpt lat="56.369664" lon="60.968947">
        <ele>250.9</ele>
        <time>1970-01-01T14:16:16.313Z</time>
    </trkpt>
    <trkpt lat="56.369674" lon="60.968961">
        <ele>250.9</ele>
        <time>1970-01-01T14:16:17.313Z</time>
    </trkpt>
    <trkpt lat="56.369676" lon="60.968973">
        <ele>250.9</ele>
        <time>1970-01-01T14:16:18.313Z</time>
    </trkpt>
    <trkpt lat="56.369681" lon="60.96901">
        <ele>250.9</ele>
        <time>1970-01-01T14:16:19.313Z</time>
    </trkpt>
    <trkpt lat="56.369682" lon="60.969023">
        <ele>250.9</ele>
        <time>1970-01-01T14:16:20.313Z</time>
    </trkpt>
    <trkpt lat="56.369684" lon="60.96906">
        <ele>251.0</ele>
        <time>1970-01-01T14:16:21.313Z</time>
    </trkpt>
    <trkpt lat="56.369679" lon="60.969086">
        <ele>251.0</ele>
        <time>1970-01-01T14:16:22.313Z</time>
    </trkpt>
    <trkpt lat="56.369681" lon="60.969105">
        <ele>251.0</ele>
        <time>1970-01-01T14:16:23.313Z</time>
    </trkpt>
    <trkpt lat="56.369687" lon="60.969133">
        <ele>251.0</ele>
        <time>1970-01-01T14:16:24.313Z</time>
    </trkpt>
    <trkpt lat="56.369684" lon="60.969161">
        <ele>251.0</ele>
        <time>1970-01-01T14:16:25.313Z</time>
    </trkpt>
    <trkpt lat="56.369681" lon="60.969178">
        <ele>251.0</ele>
        <time>1970-01-01T14:16:26.313Z</time>
    </trkpt>
    <trkpt lat="56.369685" lon="60.969183">
        <ele>251.0</ele>
        <time>1970-01-01T14:16:27.313Z</time>
    </trkpt>
    <trkpt lat="56.369687" lon="60.969208">
        <ele>251.1</ele>
        <time>1970-01-01T14:16:28.313Z</time>
    </trkpt>
    <trkpt lat="56.36969" lon="60.969222">
        <ele>251.1</ele>
        <time>1970-01-01T14:16:29.313Z</time>
    </trkpt>
    <trkpt lat="56.369697" lon="60.969233">
        <ele>251.1</ele>
        <time>1970-01-01T14:16:30.313Z</time>
    </trkpt>
    <trkpt lat="56.369697" lon="60.969245">
        <ele>251.1</ele>
        <time>1970-01-01T14:16:31.313Z</time>
    </trkpt>
    <trkpt lat="56.3697" lon="60.969262">
        <ele>251.1</ele>
        <time>1970-01-01T14:16:32.313Z</time>
    </trkpt>
    <trkpt lat="56.369706" lon="60.969286">
        <ele>251.1</ele>
        <time>1970-01-01T14:16:33.313Z</time>
    </trkpt>
    <trkpt lat="56.369709" lon="60.969302">
        <ele>251.1</ele>
        <time>1970-01-01T14:16:34.313Z</time>
    </trkpt>
    <trkpt lat="56.369708" lon="60.969316">
        <ele>251.1</ele>
        <time>1970-01-01T14:16:35.313Z</time>
    </trkpt>
    <trkpt lat="56.369709" lon="60.969336">
        <ele>251.1</ele>
        <time>1970-01-01T14:16:36.313Z</time>
    </trkpt>
    <trkpt lat="56.369714" lon="60.969366">
        <ele>251.2</ele>
        <time>1970-01-01T14:16:37.313Z</time>
    </trkpt>
    <trkpt lat="56.36972" lon="60.969381">
        <ele>251.2</ele>
        <time>1970-01-01T14:16:38.313Z</time>
    </trkpt>
    <trkpt lat="56.369721" lon="60.969405">
        <ele>251.2</ele>
        <time>1970-01-01T14:16:39.313Z</time>
    </trkpt>
    <trkpt lat="56.369719" lon="60.96943">
        <ele>251.2</ele>
        <time>1970-01-01T14:16:40.313Z</time>
    </trkpt>
    <trkpt lat="56.369725" lon="60.969448">
        <ele>251.2</ele>
        <time>1970-01-01T14:16:41.313Z</time>
    </trkpt>
    <trkpt lat="56.369729" lon="60.969468">
        <ele>251.2</ele>
        <time>1970-01-01T14:16:42.313Z</time>
    </trkpt>
    <trkpt lat="56.369732" lon="60.96948">
        <ele>251.2</ele>
        <time>1970-01-01T14:16:43.313Z</time>
    </trkpt>
    <trkpt lat="56.369734" lon="60.969498">
        <ele>251.2</ele>
        <time>1970-01-01T14:16:44.313Z</time>
    </trkpt>
    <trkpt lat="56.369731" lon="60.96952">
        <ele>251.3</ele>
        <time>1970-01-01T14:16:45.313Z</time>
    </trkpt>
    <trkpt lat="56.369732" lon="60.969542">
        <ele>251.3</ele>
        <time>1970-01-01T14:16:46.313Z</time>
    </trkpt>
    <trkpt lat="56.369734" lon="60.969568">
        <ele>251.3</ele>
        <time>1970-01-01T14:16:47.313Z</time>
    </trkpt>
    <trkpt lat="56.369731" lon="60.96958">
        <ele>251.3</ele>
        <time>1970-01-01T14:16:48.313Z</time>
    </trkpt>
    <trkpt lat="56.369731" lon="60.969603">
        <ele>251.3</ele>
        <time>1970-01-01T14:16:49.313Z</time>
    </trkpt>
    <trkpt lat="56.36973" lon="60.969623">
        <ele>251.3</ele>
        <time>1970-01-01T14:16:50.313Z</time>
    </trkpt>
    <trkpt lat="56.36973" lon="60.969642">
        <ele>251.3</ele>
        <time>1970-01-01T14:16:51.313Z</time>
    </trkpt>
    <trkpt lat="56.36973" lon="60.969662">
        <ele>251.3</ele>
        <time>1970-01-01T14:16:52.313Z</time>
    </trkpt>
    <trkpt lat="56.369726" lon="60.969703">
        <ele>251.4</ele>
        <time>1970-01-01T14:16:53.313Z</time>
    </trkpt>
    <trkpt lat="56.369725" lon="60.969712">
        <ele>251.4</ele>
        <time>1970-01-01T14:16:54.313Z</time>
    </trkpt>
    <trkpt lat="56.369724" lon="60.969722">
        <ele>251.4</ele>
        <time>1970-01-01T14:16:55.313Z</time>
    </trkpt>
    <trkpt lat="56.369724" lon="60.969732">
        <ele>251.4</ele>
        <time>1970-01-01T14:16:56.313Z</time>
    </trkpt>
    <trkpt lat="56.369723" lon="60.969742">
        <ele>251.4</ele>
        <time>1970-01-01T14:16:57.313Z</time>
    </trkpt>
    <trkpt lat="56.369722" lon="60.969751">
        <ele>251.4</ele>
        <time>1970-01-01T14:16:58.313Z</time>
    </trkpt>
    <trkpt lat="56.369721" lon="60.969761">
        <ele>251.4</ele>
        <time>1970-01-01T14:17:00.313Z</time>
    </trkpt>
    <trkpt lat="56.369717" lon="60.969774">
        <ele>251.4</ele>
        <time>1970-01-01T14:17:01.313Z</time>
    </trkpt>
    <trkpt lat="56.369714" lon="60.969789">
        <ele>251.4</ele>
        <time>1970-01-01T14:17:02.313Z</time>
    </trkpt>
    <trkpt lat="56.369711" lon="60.969806">
        <ele>251.4</ele>
        <time>1970-01-01T14:17:03.313Z</time>
    </trkpt>
    <trkpt lat="56.369708" lon="60.969828">
        <ele>251.4</ele>
        <time>1970-01-01T14:17:04.313Z</time>
    </trkpt>
    <trkpt lat="56.369703" lon="60.969843">
        <ele>251.4</ele>
        <time>1970-01-01T14:17:05.313Z</time>
    </trkpt>
    <trkpt lat="56.36969" lon="60.969887">
        <ele>251.5</ele>
        <time>1970-01-01T14:17:06.313Z</time>
    </trkpt>
    <trkpt lat="56.369696" lon="60.969926">
        <ele>251.5</ele>
        <time>1970-01-01T14:17:07.313Z</time>
    </trkpt>
    <trkpt lat="56.369702" lon="60.969946">
        <ele>251.5</ele>
        <time>1970-01-01T14:17:08.313Z</time>
    </trkpt>
    <trkpt lat="56.369707" lon="60.969977">
        <ele>251.5</ele>
        <time>1970-01-01T14:17:09.313Z</time>
    </trkpt>
    <trkpt lat="56.369712" lon="60.969998">
        <ele>251.5</ele>
        <time>1970-01-01T14:17:10.313Z</time>
    </trkpt>
    <trkpt lat="56.369713" lon="60.97001">
        <ele>251.6</ele>
        <time>1970-01-01T14:17:11.313Z</time>
    </trkpt>
    <trkpt lat="56.369706" lon="60.970065">
        <ele>251.6</ele>
        <time>1970-01-01T14:17:12.313Z</time>
    </trkpt>
    <trkpt lat="56.369704" lon="60.970079">
        <ele>251.6</ele>
        <time>1970-01-01T14:17:13.313Z</time>
    </trkpt>
    <trkpt lat="56.369706" lon="60.970137">
        <ele>251.6</ele>
        <time>1970-01-01T14:17:14.313Z</time>
    </trkpt>
    <trkpt lat="56.369707" lon="60.97015">
        <ele>251.6</ele>
        <time>1970-01-01T14:17:15.313Z</time>
    </trkpt>
    <trkpt lat="56.369703" lon="60.970158">
        <ele>251.6</ele>
        <time>1970-01-01T14:17:16.313Z</time>
    </trkpt>
    <trkpt lat="56.36971" lon="60.970169">
        <ele>251.7</ele>
        <time>1970-01-01T14:17:17.313Z</time>
    </trkpt>
    <trkpt lat="56.369712" lon="60.970188">
        <ele>251.7</ele>
        <time>1970-01-01T14:17:18.313Z</time>
    </trkpt>
    <trkpt lat="56.369719" lon="60.970221">
        <ele>251.7</ele>
        <time>1970-01-01T14:17:19.313Z</time>
    </trkpt>
    <trkpt lat="56.36972" lon="60.970249">
        <ele>251.7</ele>
        <time>1970-01-01T14:17:20.313Z</time>
    </trkpt>
    <trkpt lat="56.36972" lon="60.970273">
        <ele>251.7</ele>
        <time>1970-01-01T14:17:21.313Z</time>
    </trkpt>
    <trkpt lat="56.369718" lon="60.970319">
        <ele>251.7</ele>
        <time>1970-01-01T14:17:22.313Z</time>
    </trkpt>
    <trkpt lat="56.36972" lon="60.970368">
        <ele>251.8</ele>
        <time>1970-01-01T14:17:23.313Z</time>
    </trkpt>
    <trkpt lat="56.369721" lon="60.970382">
        <ele>251.8</ele>
        <time>1970-01-01T14:17:24.313Z</time>
    </trkpt>
    <trkpt lat="56.369729" lon="60.970443">
        <ele>251.8</ele>
        <time>1970-01-01T14:17:25.313Z</time>
    </trkpt>
    <trkpt lat="56.369733" lon="60.970463">
        <ele>251.8</ele>
        <time>1970-01-01T14:17:26.313Z</time>
    </trkpt>
    <trkpt lat="56.369738" lon="60.970483">
        <ele>251.8</ele>
        <time>1970-01-01T14:17:27.313Z</time>
    </trkpt>
    <trkpt lat="56.369745" lon="60.970516">
        <ele>251.9</ele>
        <time>1970-01-01T14:17:28.313Z</time>
    </trkpt>
    <trkpt lat="56.369757" lon="60.97054">
        <ele>251.9</ele>
        <time>1970-01-01T14:17:29.313Z</time>
    </trkpt>
    <trkpt lat="56.369766" lon="60.970567">
        <ele>251.9</ele>
        <time>1970-01-01T14:17:30.313Z</time>
    </trkpt>
    <trkpt lat="56.369768" lon="60.970583">
        <ele>251.9</ele>
        <time>1970-01-01T14:17:31.313Z</time>
    </trkpt>
    <trkpt lat="56.369771" lon="60.9706">
        <ele>251.9</ele>
        <time>1970-01-01T14:17:32.313Z</time>
    </trkpt>
    <trkpt lat="56.369778" lon="60.970641">
        <ele>251.9</ele>
        <time>1970-01-01T14:17:33.313Z</time>
    </trkpt>
    <trkpt lat="56.369788" lon="60.970646">
        <ele>252.0</ele>
        <time>1970-01-01T14:17:34.313Z</time>
    </trkpt>
    <trkpt lat="56.369793" lon="60.970654">
        <ele>252.0</ele>
        <time>1970-01-01T14:17:35.313Z</time>
    </trkpt>
    <trkpt lat="56.369792" lon="60.970671">
        <ele>252.0</ele>
        <time>1970-01-01T14:17:36.313Z</time>
    </trkpt>
    <trkpt lat="56.369795" lon="60.97069">
        <ele>252.0</ele>
        <time>1970-01-01T14:17:37.313Z</time>
    </trkpt>
    <trkpt lat="56.369799" lon="60.970709">
        <ele>252.0</ele>
        <time>1970-01-01T14:17:38.313Z</time>
    </trkpt>
    <trkpt lat="56.3698" lon="60.970744">
        <ele>252.0</ele>
        <time>1970-01-01T14:17:39.313Z</time>
    </trkpt>
    <trkpt lat="56.369801" lon="60.970756">
        <ele>252.0</ele>
        <time>1970-01-01T14:17:40.313Z</time>
    </trkpt>
    <trkpt lat="56.369801" lon="60.970767">
        <ele>252.0</ele>
        <time>1970-01-01T14:17:41.313Z</time>
    </trkpt>
    <trkpt lat="56.369802" lon="60.970778">
        <ele>252.0</ele>
        <time>1970-01-01T14:17:42.313Z</time>
    </trkpt>
    <trkpt lat="56.369802" lon="60.97079">
        <ele>252.0</ele>
        <time>1970-01-01T14:17:43.313Z</time>
    </trkpt>
    <trkpt lat="56.369803" lon="60.970801">
        <ele>252.0</ele>
        <time>1970-01-01T14:17:44.313Z</time>
    </trkpt>
    <trkpt lat="56.369803" lon="60.970813">
        <ele>252.1</ele>
        <time>1970-01-01T14:17:45.313Z</time>
    </trkpt>
    <trkpt lat="56.369804" lon="60.970824">
        <ele>252.1</ele>
        <time>1970-01-01T14:17:46.313Z</time>
    </trkpt>
    <trkpt lat="56.369804" lon="60.970836">
        <ele>252.1</ele>
        <time>1970-01-01T14:17:47.313Z</time>
    </trkpt>
    <trkpt lat="56.369805" lon="60.970847">
        <ele>252.1</ele>
        <time>1970-01-01T14:17:48.313Z</time>
    </trkpt>
    <trkpt lat="56.369805" lon="60.970858">
        <ele>252.1</ele>
        <time>1970-01-01T14:17:49.313Z</time>
    </trkpt>
    <trkpt lat="56.369806" lon="60.97087">
        <ele>252.1</ele>
        <time>1970-01-01T14:17:50.313Z</time>
    </trkpt>
    <trkpt lat="56.369807" lon="60.970881">
        <ele>252.1</ele>
        <time>1970-01-01T14:17:51.313Z</time>
    </trkpt>
    <trkpt lat="56.3698" lon="60.970909">
        <ele>252.1</ele>
        <time>1970-01-01T14:17:52.313Z</time>
    </trkpt>
    <trkpt lat="56.369793" lon="60.970928">
        <ele>252.1</ele>
        <time>1970-01-01T14:17:53.313Z</time>
    </trkpt>
    <trkpt lat="56.369784" lon="60.970936">
        <ele>252.1</ele>
        <time>1970-01-01T14:17:54.313Z</time>
    </trkpt>
    <trkpt lat="56.369775" lon="60.970954">
        <ele>252.1</ele>
        <time>1970-01-01T14:17:55.313Z</time>
    </trkpt>
    <trkpt lat="56.369776" lon="60.970981">
        <ele>252.2</ele>
        <time>1970-01-01T14:17:56.313Z</time>
    </trkpt>
    <trkpt lat="56.369777" lon="60.971002">
        <ele>252.2</ele>
        <time>1970-01-01T14:17:57.313Z</time>
    </trkpt>
    <trkpt lat="56.369771" lon="60.971006">
        <ele>252.2</ele>
        <time>1970-01-01T14:17:58.313Z</time>
    </trkpt>
    <trkpt lat="56.369772" lon="60.971012">
        <ele>252.2</ele>
        <time>1970-01-01T14:17:59.313Z</time>
    </trkpt>
    <trkpt lat="56.369776" lon="60.971039">
        <ele>252.2</ele>
        <time>1970-01-01T14:18:00.313Z</time>
    </trkpt>
    <trkpt lat="56.369782" lon="60.971062">
        <ele>252.2</ele>
        <time>1970-01-01T14:18:01.313Z</time>
    </trkpt>
    <trkpt lat="56.369789" lon="60.971076">
        <ele>252.2</ele>
        <time>1970-01-01T14:18:02.313Z</time>
    </trkpt>
    <trkpt lat="56.369793" lon="60.971088">
        <ele>252.2</ele>
        <time>1970-01-01T14:18:03.313Z</time>
    </trkpt>
    <trkpt lat="56.369797" lon="60.971102">
        <ele>252.2</ele>
        <time>1970-01-01T14:18:04.313Z</time>
    </trkpt>
    <trkpt lat="56.369803" lon="60.971123">
        <ele>252.3</ele>
        <time>1970-01-01T14:18:05.313Z</time>
    </trkpt>
    <trkpt lat="56.369822" lon="60.971135">
        <ele>252.3</ele>
        <time>1970-01-01T14:18:06.313Z</time>
    </trkpt>
    <trkpt lat="56.369828" lon="60.971155">
        <ele>252.3</ele>
        <time>1970-01-01T14:18:07.313Z</time>
    </trkpt>
    <trkpt lat="56.369844" lon="60.971193">
        <ele>252.3</ele>
        <time>1970-01-01T14:18:08.313Z</time>
    </trkpt>
    <trkpt lat="56.369848" lon="60.97121">
        <ele>252.3</ele>
        <time>1970-01-01T14:18:09.313Z</time>
    </trkpt>
    <trkpt lat="56.369851" lon="60.971227">
        <ele>252.3</ele>
        <time>1970-01-01T14:18:10.313Z</time>
    </trkpt>
    <trkpt lat="56.369855" lon="60.971244">
        <ele>252.4</ele>
        <time>1970-01-01T14:18:11.313Z</time>
    </trkpt>
    <trkpt lat="56.369858" lon="60.971262">
        <ele>252.4</ele>
        <time>1970-01-01T14:18:12.313Z</time>
    </trkpt>
    <trkpt lat="56.369856" lon="60.971273">
        <ele>252.4</ele>
        <time>1970-01-01T14:18:13.313Z</time>
    </trkpt>
    <trkpt lat="56.369859" lon="60.971298">
        <ele>252.4</ele>
        <time>1970-01-01T14:18:14.313Z</time>
    </trkpt>
    <trkpt lat="56.36987" lon="60.971316">
        <ele>252.4</ele>
        <time>1970-01-01T14:18:15.313Z</time>
    </trkpt>
    <trkpt lat="56.369874" lon="60.971333">
        <ele>252.4</ele>
        <time>1970-01-01T14:18:16.313Z</time>
    </trkpt>
    <trkpt lat="56.369889" lon="60.971377">
        <ele>252.4</ele>
        <time>1970-01-01T14:18:17.313Z</time>
    </trkpt>
    <trkpt lat="56.369896" lon="60.971402">
        <ele>252.5</ele>
        <time>1970-01-01T14:18:18.313Z</time>
    </trkpt>
    <trkpt lat="56.369904" lon="60.97143">
        <ele>252.5</ele>
        <time>1970-01-01T14:18:19.313Z</time>
    </trkpt>
    <trkpt lat="56.369902" lon="60.971454">
        <ele>252.5</ele>
        <time>1970-01-01T14:18:20.313Z</time>
    </trkpt>
    <trkpt lat="56.369911" lon="60.971485">
        <ele>252.5</ele>
        <time>1970-01-01T14:18:21.313Z</time>
    </trkpt>
    <trkpt lat="56.36993" lon="60.971532">
        <ele>252.5</ele>
        <time>1970-01-01T14:18:22.313Z</time>
    </trkpt>
    <trkpt lat="56.369941" lon="60.971555">
        <ele>252.6</ele>
        <time>1970-01-01T14:18:23.313Z</time>
    </trkpt>
    <trkpt lat="56.369955" lon="60.971587">
        <ele>252.6</ele>
        <time>1970-01-01T14:18:24.313Z</time>
    </trkpt>
    <trkpt lat="56.369962" lon="60.971613">
        <ele>252.6</ele>
        <time>1970-01-01T14:18:25.313Z</time>
    </trkpt>
    <trkpt lat="56.36998" lon="60.97166">
        <ele>252.6</ele>
        <time>1970-01-01T14:18:26.313Z</time>
    </trkpt>
    <trkpt lat="56.369998" lon="60.971696">
        <ele>252.7</ele>
        <time>1970-01-01T14:18:27.313Z</time>
    </trkpt>
    <trkpt lat="56.370001" lon="60.971707">
        <ele>252.7</ele>
        <time>1970-01-01T14:18:28.313Z</time>
    </trkpt>
    <trkpt lat="56.370012" lon="60.971751">
        <ele>252.7</ele>
        <time>1970-01-01T14:18:30.313Z</time>
    </trkpt>
    <trkpt lat="56.370018" lon="60.9718">
        <ele>252.7</ele>
        <time>1970-01-01T14:18:31.313Z</time>
    </trkpt>
    <trkpt lat="56.370024" lon="60.971858">
        <ele>252.8</ele>
        <time>1970-01-01T14:18:32.313Z</time>
    </trkpt>
    <trkpt lat="56.370029" lon="60.971881">
        <ele>252.8</ele>
        <time>1970-01-01T14:18:33.313Z</time>
    </trkpt>
    <trkpt lat="56.370039" lon="60.971946">
        <ele>252.8</ele>
        <time>1970-01-01T14:18:34.313Z</time>
    </trkpt>
    <trkpt lat="56.370038" lon="60.972004">
        <ele>252.8</ele>
        <time>1970-01-01T14:18:35.313Z</time>
    </trkpt>
    <trkpt lat="56.370037" lon="60.972021">
        <ele>252.9</ele>
        <time>1970-01-01T14:18:36.313Z</time>
    </trkpt>
    <trkpt lat="56.370039" lon="60.97207">
        <ele>252.9</ele>
        <time>1970-01-01T14:18:37.313Z</time>
    </trkpt>
    <trkpt lat="56.370043" lon="60.972087">
        <ele>252.9</ele>
        <time>1970-01-01T14:18:38.313Z</time>
    </trkpt>
    <trkpt lat="56.370048" lon="60.972134">
        <ele>252.9</ele>
        <time>1970-01-01T14:18:39.313Z</time>
    </trkpt>
    <trkpt lat="56.370051" lon="60.972164">
        <ele>252.9</ele>
        <time>1970-01-01T14:18:40.313Z</time>
    </trkpt>
    <trkpt lat="56.370048" lon="60.97219">
        <ele>253.0</ele>
        <time>1970-01-01T14:18:41.313Z</time>
    </trkpt>
    <trkpt lat="56.370048" lon="60.97221">
        <ele>253.0</ele>
        <time>1970-01-01T14:18:42.313Z</time>
    </trkpt>
    <trkpt lat="56.370048" lon="60.97223">
        <ele>253.0</ele>
        <time>1970-01-01T14:18:43.313Z</time>
    </trkpt>
    <trkpt lat="56.370048" lon="60.972249">
        <ele>253.0</ele>
        <time>1970-01-01T14:18:44.313Z</time>
    </trkpt>
    <trkpt lat="56.370047" lon="60.972269">
        <ele>253.0</ele>
        <time>1970-01-01T14:18:45.313Z</time>
    </trkpt>
    <trkpt lat="56.370047" lon="60.972289">
        <ele>253.0</ele>
        <time>1970-01-01T14:18:46.313Z</time>
    </trkpt>
    <trkpt lat="56.370047" lon="60.972309">
        <ele>253.0</ele>
        <time>1970-01-01T14:18:47.313Z</time>
    </trkpt>
    <trkpt lat="56.370047" lon="60.972328">
        <ele>253.0</ele>
        <time>1970-01-01T14:18:48.313Z</time>
    </trkpt>
    <trkpt lat="56.370047" lon="60.972348">
        <ele>253.1</ele>
        <time>1970-01-01T14:18:50.313Z</time>
    </trkpt>
    <trkpt lat="56.370046" lon="60.972368">
        <ele>253.1</ele>
        <time>1970-01-01T14:18:51.313Z</time>
    </trkpt>
    <trkpt lat="56.370044" lon="60.972395">
        <ele>253.1</ele>
        <time>1970-01-01T14:18:52.313Z</time>
    </trkpt>
    <trkpt lat="56.370043" lon="60.972422">
        <ele>253.1</ele>
        <time>1970-01-01T14:18:53.313Z</time>
    </trkpt>
    <trkpt lat="56.370043" lon="60.972422">
        <ele>253.1</ele>
        <time>1970-01-01T14:18:54.313Z</time>
    </trkpt>
    <trkpt lat="56.370043" lon="60.972422">
        <ele>253.1</ele>
        <time>1970-01-01T14:18:55.313Z</time>
    </trkpt>
    <trkpt lat="56.370044" lon="60.97244">
        <ele>253.1</ele>
        <time>1970-01-01T14:18:56.313Z</time>
    </trkpt>
    <trkpt lat="56.370042" lon="60.972453">
        <ele>253.1</ele>
        <time>1970-01-01T14:18:57.313Z</time>
    </trkpt>
    <trkpt lat="56.370043" lon="60.972459">
        <ele>253.1</ele>
        <time>1970-01-01T14:18:58.313Z</time>
    </trkpt>
    <trkpt lat="56.370035" lon="60.972472">
        <ele>253.1</ele>
        <time>1970-01-01T14:18:59.313Z</time>
    </trkpt>
    <trkpt lat="56.370037" lon="60.97249">
        <ele>253.1</ele>
        <time>1970-01-01T14:19:00.313Z</time>
    </trkpt>
    <trkpt lat="56.370041" lon="60.972516">
        <ele>253.2</ele>
        <time>1970-01-01T14:19:01.313Z</time>
    </trkpt>
    <trkpt lat="56.370043" lon="60.972535">
        <ele>253.2</ele>
        <time>1970-01-01T14:19:02.313Z</time>
    </trkpt>
    <trkpt lat="56.370048" lon="60.972584">
        <ele>253.2</ele>
        <time>1970-01-01T14:19:03.313Z</time>
    </trkpt>
    <trkpt lat="56.370051" lon="60.972604">
        <ele>253.2</ele>
        <time>1970-01-01T14:19:04.313Z</time>
    </trkpt>
    <trkpt lat="56.370065" lon="60.972657">
        <ele>253.2</ele>
        <time>1970-01-01T14:19:05.313Z</time>
    </trkpt>
    <trkpt lat="56.370071" lon="60.972678">
        <ele>253.3</ele>
        <time>1970-01-01T14:19:06.313Z</time>
    </trkpt>
    <trkpt lat="56.370077" lon="60.9727">
        <ele>253.3</ele>
        <time>1970-01-01T14:19:07.313Z</time>
    </trkpt>
    <trkpt lat="56.370085" lon="60.972726">
        <ele>253.3</ele>
        <time>1970-01-01T14:19:08.313Z</time>
    </trkpt>
    <trkpt lat="56.37009" lon="60.972755">
        <ele>253.3</ele>
        <time>1970-01-01T14:19:09.313Z</time>
    </trkpt>
    <trkpt lat="56.3701" lon="60.972804">
        <ele>253.3</ele>
        <time>1970-01-01T14:19:10.313Z</time>
    </trkpt>
    <trkpt lat="56.3701" lon="60.972832">
        <ele>253.3</ele>
        <time>1970-01-01T14:19:11.313Z</time>
    </trkpt>
    <trkpt lat="56.3701" lon="60.9729">
        <ele>253.4</ele>
        <time>1970-01-01T14:19:12.313Z</time>
    </trkpt>
    <trkpt lat="56.370098" lon="60.972923">
        <ele>253.4</ele>
        <time>1970-01-01T14:19:13.313Z</time>
    </trkpt>
    <trkpt lat="56.3701" lon="60.972967">
        <ele>253.4</ele>
        <time>1970-01-01T14:19:14.313Z</time>
    </trkpt>
    <trkpt lat="56.370098" lon="60.973003">
        <ele>253.4</ele>
        <time>1970-01-01T14:19:15.313Z</time>
    </trkpt>
    <trkpt lat="56.370101" lon="60.973031">
        <ele>253.5</ele>
        <time>1970-01-01T14:19:16.313Z</time>
    </trkpt>
    <trkpt lat="56.370101" lon="60.97305">
        <ele>253.5</ele>
        <time>1970-01-01T14:19:17.313Z</time>
    </trkpt>
    <trkpt lat="56.370104" lon="60.973104">
        <ele>253.5</ele>
        <time>1970-01-01T14:19:18.313Z</time>
    </trkpt>
    <trkpt lat="56.370106" lon="60.973124">
        <ele>253.5</ele>
        <time>1970-01-01T14:19:19.313Z</time>
    </trkpt>
    <trkpt lat="56.370115" lon="60.973183">
        <ele>253.6</ele>
        <time>1970-01-01T14:19:20.313Z</time>
    </trkpt>
    <trkpt lat="56.37012" lon="60.973214">
        <ele>253.6</ele>
        <time>1970-01-01T14:19:21.313Z</time>
    </trkpt>
    <trkpt lat="56.370124" lon="60.973242">
        <ele>253.6</ele>
        <time>1970-01-01T14:19:22.313Z</time>
    </trkpt>
    <trkpt lat="56.370133" lon="60.973272">
        <ele>253.6</ele>
        <time>1970-01-01T14:19:23.313Z</time>
    </trkpt>
    <trkpt lat="56.370137" lon="60.9733">
        <ele>253.6</ele>
        <time>1970-01-01T14:19:24.313Z</time>
    </trkpt>
    <trkpt lat="56.37015" lon="60.973345">
        <ele>253.7</ele>
        <time>1970-01-01T14:19:25.313Z</time>
    </trkpt>
    <trkpt lat="56.370156" lon="60.973359">
        <ele>253.7</ele>
        <time>1970-01-01T14:19:26.313Z</time>
    </trkpt>
    <trkpt lat="56.37017" lon="60.97341">
        <ele>253.7</ele>
        <time>1970-01-01T14:19:27.313Z</time>
    </trkpt>
    <trkpt lat="56.370173" lon="60.973429">
        <ele>253.7</ele>
        <time>1970-01-01T14:19:28.313Z</time>
    </trkpt>
    <trkpt lat="56.370181" lon="60.973493">
        <ele>253.7</ele>
        <time>1970-01-01T14:19:29.313Z</time>
    </trkpt>
    <trkpt lat="56.370187" lon="60.973516">
        <ele>253.8</ele>
        <time>1970-01-01T14:19:30.313Z</time>
    </trkpt>
    <trkpt lat="56.370192" lon="60.973573">
        <ele>253.8</ele>
        <time>1970-01-01T14:19:31.313Z</time>
    </trkpt>
    <trkpt lat="56.370195" lon="60.973597">
        <ele>253.8</ele>
        <time>1970-01-01T14:19:32.313Z</time>
    </trkpt>
    <trkpt lat="56.370202" lon="60.973625">
        <ele>253.8</ele>
        <time>1970-01-01T14:19:33.313Z</time>
    </trkpt>
    <trkpt lat="56.370209" lon="60.973641">
        <ele>253.8</ele>
        <time>1970-01-01T14:19:34.313Z</time>
    </trkpt>
    <trkpt lat="56.370218" lon="60.97369">
        <ele>253.9</ele>
        <time>1970-01-01T14:19:35.313Z</time>
    </trkpt>
    <trkpt lat="56.370217" lon="60.973708">
        <ele>253.9</ele>
        <time>1970-01-01T14:19:36.313Z</time>
    </trkpt>
    <trkpt lat="56.370219" lon="60.973774">
        <ele>253.9</ele>
        <time>1970-01-01T14:19:37.313Z</time>
    </trkpt>
    <trkpt lat="56.370219" lon="60.973791">
        <ele>253.9</ele>
        <time>1970-01-01T14:19:38.313Z</time>
    </trkpt>
    <trkpt lat="56.370218" lon="60.97385">
        <ele>254.0</ele>
        <time>1970-01-01T14:19:39.313Z</time>
    </trkpt>
    <trkpt lat="56.370218" lon="60.973866">
        <ele>254.0</ele>
        <time>1970-01-01T14:19:40.313Z</time>
    </trkpt>
    <trkpt lat="56.370218" lon="60.973916">
        <ele>254.0</ele>
        <time>1970-01-01T14:19:41.313Z</time>
    </trkpt>
    <trkpt lat="56.37022" lon="60.973938">
        <ele>254.0</ele>
        <time>1970-01-01T14:19:42.313Z</time>
    </trkpt>
    <trkpt lat="56.370219" lon="60.973986">
        <ele>254.0</ele>
        <time>1970-01-01T14:19:43.313Z</time>
    </trkpt>
    <trkpt lat="56.370215" lon="60.974018">
        <ele>254.0</ele>
        <time>1970-01-01T14:19:44.313Z</time>
    </trkpt>
    <trkpt lat="56.370214" lon="60.974046">
        <ele>254.0</ele>
        <time>1970-01-01T14:19:45.313Z</time>
    </trkpt>
    <trkpt lat="56.370214" lon="60.974095">
        <ele>254.1</ele>
        <time>1970-01-01T14:19:46.313Z</time>
    </trkpt>
    <trkpt lat="56.370212" lon="60.974119">
        <ele>254.1</ele>
        <time>1970-01-01T14:19:47.313Z</time>
    </trkpt>
    <trkpt lat="56.370214" lon="60.974178">
        <ele>254.1</ele>
        <time>1970-01-01T14:19:48.313Z</time>
    </trkpt>
    <trkpt lat="56.370218" lon="60.974199">
        <ele>254.1</ele>
        <time>1970-01-01T14:19:49.313Z</time>
    </trkpt>
    <trkpt lat="56.370233" lon="60.97425">
        <ele>254.1</ele>
        <time>1970-01-01T14:19:50.313Z</time>
    </trkpt>
    <trkpt lat="56.370247" lon="60.974267">
        <ele>254.1</ele>
        <time>1970-01-01T14:19:51.313Z</time>
    </trkpt>
    <trkpt lat="56.370254" lon="60.974282">
        <ele>254.2</ele>
        <time>1970-01-01T14:19:52.313Z</time>
    </trkpt>
    <trkpt lat="56.370262" lon="60.974332">
        <ele>254.2</ele>
        <time>1970-01-01T14:19:53.313Z</time>
    </trkpt>
    <trkpt lat="56.370263" lon="60.974402">
        <ele>254.2</ele>
        <time>1970-01-01T14:19:54.313Z</time>
    </trkpt>
    <trkpt lat="56.370272" lon="60.974431">
        <ele>254.2</ele>
        <time>1970-01-01T14:19:55.313Z</time>
    </trkpt>
    <trkpt lat="56.370297" lon="60.974497">
        <ele>254.3</ele>
        <time>1970-01-01T14:19:56.313Z</time>
    </trkpt>
    <trkpt lat="56.370302" lon="60.974523">
        <ele>254.3</ele>
        <time>1970-01-01T14:19:57.313Z</time>
    </trkpt>
    <trkpt lat="56.370317" lon="60.974592">
        <ele>254.3</ele>
        <time>1970-01-01T14:19:58.313Z</time>
    </trkpt>
    <trkpt lat="56.370323" lon="60.974608">
        <ele>254.3</ele>
        <time>1970-01-01T14:19:59.313Z</time>
    </trkpt>
    <trkpt lat="56.370336" lon="60.974662">
        <ele>254.3</ele>
        <time>1970-01-01T14:20:00.313Z</time>
    </trkpt>
    <trkpt lat="56.370339" lon="60.974688">
        <ele>254.3</ele>
        <time>1970-01-01T14:20:01.313Z</time>
    </trkpt>
    <trkpt lat="56.370358" lon="60.974748">
        <ele>254.4</ele>
        <time>1970-01-01T14:20:02.313Z</time>
    </trkpt>
    <trkpt lat="56.370361" lon="60.974776">
        <ele>254.4</ele>
        <time>1970-01-01T14:20:03.313Z</time>
    </trkpt>
    <trkpt lat="56.370373" lon="60.974843">
        <ele>254.4</ele>
        <time>1970-01-01T14:20:04.313Z</time>
    </trkpt>
    <trkpt lat="56.370372" lon="60.974898">
        <ele>254.4</ele>
        <time>1970-01-01T14:20:05.313Z</time>
    </trkpt>
    <trkpt lat="56.370377" lon="60.974962">
        <ele>254.5</ele>
        <time>1970-01-01T14:20:06.313Z</time>
    </trkpt>
    <trkpt lat="56.370383" lon="60.975015">
        <ele>254.5</ele>
        <time>1970-01-01T14:20:07.313Z</time>
    </trkpt>
    <trkpt lat="56.370379" lon="60.975082">
        <ele>254.5</ele>
        <time>1970-01-01T14:20:08.313Z</time>
    </trkpt>
    <trkpt lat="56.370388" lon="60.975153">
        <ele>254.5</ele>
        <time>1970-01-01T14:20:09.313Z</time>
    </trkpt>
    <trkpt lat="56.370405" lon="60.975206">
        <ele>254.6</ele>
        <time>1970-01-01T14:20:10.313Z</time>
    </trkpt>
    <trkpt lat="56.370421" lon="60.975255">
        <ele>254.6</ele>
        <time>1970-01-01T14:20:11.313Z</time>
    </trkpt>
    <trkpt lat="56.370418" lon="60.975315">
        <ele>254.6</ele>
        <time>1970-01-01T14:20:12.313Z</time>
    </trkpt>
    <trkpt lat="56.37042" lon="60.97537">
        <ele>254.6</ele>
        <time>1970-01-01T14:20:13.313Z</time>
    </trkpt>
    <trkpt lat="56.370419" lon="60.975395">
        <ele>254.6</ele>
        <time>1970-01-01T14:20:14.313Z</time>
    </trkpt>
    <trkpt lat="56.370411" lon="60.975465">
        <ele>254.7</ele>
        <time>1970-01-01T14:20:15.313Z</time>
    </trkpt>
    <trkpt lat="56.370424" lon="60.975482">
        <ele>254.7</ele>
        <time>1970-01-01T14:20:16.313Z</time>
    </trkpt>
    <trkpt lat="56.37044" lon="60.975502">
        <ele>254.7</ele>
        <time>1970-01-01T14:20:17.313Z</time>
    </trkpt>
    <trkpt lat="56.370461" lon="60.975556">
        <ele>254.7</ele>
        <time>1970-01-01T14:20:18.313Z</time>
    </trkpt>
    <trkpt lat="56.370467" lon="60.975637">
        <ele>254.8</ele>
        <time>1970-01-01T14:20:19.313Z</time>
    </trkpt>
    <trkpt lat="56.370478" lon="60.975732">
        <ele>254.8</ele>
        <time>1970-01-01T14:20:20.313Z</time>
    </trkpt>
    <trkpt lat="56.370484" lon="60.975809">
        <ele>254.8</ele>
        <time>1970-01-01T14:20:21.313Z</time>
    </trkpt>
    <trkpt lat="56.370491" lon="60.97588">
        <ele>254.9</ele>
        <time>1970-01-01T14:20:22.313Z</time>
    </trkpt>
    <trkpt lat="56.370493" lon="60.975908">
        <ele>254.9</ele>
        <time>1970-01-01T14:20:23.313Z</time>
    </trkpt>
    <trkpt lat="56.370501" lon="60.975968">
        <ele>254.9</ele>
        <time>1970-01-01T14:20:24.313Z</time>
    </trkpt>
    <trkpt lat="56.370501" lon="60.97598">
        <ele>254.9</ele>
        <time>1970-01-01T14:20:25.313Z</time>
    </trkpt>
    <trkpt lat="56.370501" lon="60.975992">
        <ele>254.9</ele>
        <time>1970-01-01T14:20:26.313Z</time>
    </trkpt>
    <trkpt lat="56.370502" lon="60.976036">
        <ele>254.9</ele>
        <time>1970-01-01T14:20:27.313Z</time>
    </trkpt>
    <trkpt lat="56.370493" lon="60.9761">
        <ele>255.0</ele>
        <time>1970-01-01T14:20:28.313Z</time>
    </trkpt>
    <trkpt lat="56.370497" lon="60.976116">
        <ele>255.0</ele>
        <time>1970-01-01T14:20:29.313Z</time>
    </trkpt>
    <trkpt lat="56.370514" lon="60.976174">
        <ele>255.0</ele>
        <time>1970-01-01T14:20:30.313Z</time>
    </trkpt>
    <trkpt lat="56.370526" lon="60.976223">
        <ele>255.0</ele>
        <time>1970-01-01T14:20:31.313Z</time>
    </trkpt>
    <trkpt lat="56.370536" lon="60.976282">
        <ele>255.0</ele>
        <time>1970-01-01T14:20:32.313Z</time>
    </trkpt>
    <trkpt lat="56.370547" lon="60.976349">
        <ele>255.1</ele>
        <time>1970-01-01T14:20:33.313Z</time>
    </trkpt>
    <trkpt lat="56.370554" lon="60.976427">
        <ele>255.1</ele>
        <time>1970-01-01T14:20:34.313Z</time>
    </trkpt>
    <trkpt lat="56.370562" lon="60.976499">
        <ele>255.1</ele>
        <time>1970-01-01T14:20:35.313Z</time>
    </trkpt>
    <trkpt lat="56.370579" lon="60.976563">
        <ele>255.2</ele>
        <time>1970-01-01T14:20:36.313Z</time>
    </trkpt>
    <trkpt lat="56.370602" lon="60.976618">
        <ele>255.2</ele>
        <time>1970-01-01T14:20:37.313Z</time>
    </trkpt>
    <trkpt lat="56.37062" lon="60.976679">
        <ele>255.2</ele>
        <time>1970-01-01T14:20:38.313Z</time>
    </trkpt>
    <trkpt lat="56.370632" lon="60.976728">
        <ele>255.2</ele>
        <time>1970-01-01T14:20:39.313Z</time>
    </trkpt>
    <trkpt lat="56.370646" lon="60.976786">
        <ele>255.3</ele>
        <time>1970-01-01T14:20:40.313Z</time>
    </trkpt>
    <trkpt lat="56.37065" lon="60.976842">
        <ele>255.3</ele>
        <time>1970-01-01T14:20:41.313Z</time>
    </trkpt>
    <trkpt lat="56.370651" lon="60.976901">
        <ele>255.3</ele>
        <time>1970-01-01T14:20:42.313Z</time>
    </trkpt>
    <trkpt lat="56.370652" lon="60.976929">
        <ele>255.3</ele>
        <time>1970-01-01T14:20:43.313Z</time>
    </trkpt>
    <trkpt lat="56.370659" lon="60.976997">
        <ele>255.4</ele>
        <time>1970-01-01T14:20:44.313Z</time>
    </trkpt>
    <trkpt lat="56.370664" lon="60.977026">
        <ele>255.4</ele>
        <time>1970-01-01T14:20:45.313Z</time>
    </trkpt>
    <trkpt lat="56.370665" lon="60.97706">
        <ele>255.4</ele>
        <time>1970-01-01T14:20:46.313Z</time>
    </trkpt>
    <trkpt lat="56.370669" lon="60.977084">
        <ele>255.4</ele>
        <time>1970-01-01T14:20:47.313Z</time>
    </trkpt>
    <trkpt lat="56.370676" lon="60.977149">
        <ele>255.4</ele>
        <time>1970-01-01T14:20:48.313Z</time>
    </trkpt>
    <trkpt lat="56.370679" lon="60.977172">
        <ele>255.4</ele>
        <time>1970-01-01T14:20:49.313Z</time>
    </trkpt>
    <trkpt lat="56.370689" lon="60.977238">
        <ele>255.5</ele>
        <time>1970-01-01T14:20:50.313Z</time>
    </trkpt>
    <trkpt lat="56.370695" lon="60.977288">
        <ele>255.5</ele>
        <time>1970-01-01T14:20:51.313Z</time>
    </trkpt>
    <trkpt lat="56.370698" lon="60.97731">
        <ele>255.5</ele>
        <time>1970-01-01T14:20:52.313Z</time>
    </trkpt>
    <trkpt lat="56.370707" lon="60.977376">
        <ele>255.5</ele>
        <time>1970-01-01T14:20:53.313Z</time>
    </trkpt>
    <trkpt lat="56.370712" lon="60.977401">
        <ele>255.5</ele>
        <time>1970-01-01T14:20:54.313Z</time>
    </trkpt>
    <trkpt lat="56.370721" lon="60.977466">
        <ele>255.6</ele>
        <time>1970-01-01T14:20:55.313Z</time>
    </trkpt>
    <trkpt lat="56.370732" lon="60.977515">
        <ele>255.6</ele>
        <time>1970-01-01T14:20:56.313Z</time>
    </trkpt>
    <trkpt lat="56.370743" lon="60.97753">
        <ele>255.6</ele>
        <time>1970-01-01T14:20:57.313Z</time>
    </trkpt>
    <trkpt lat="56.370763" lon="60.977588">
        <ele>255.6</ele>
        <time>1970-01-01T14:20:58.313Z</time>
    </trkpt>
    <trkpt lat="56.370767" lon="60.977607">
        <ele>255.6</ele>
        <time>1970-01-01T14:20:59.313Z</time>
    </trkpt>
    <trkpt lat="56.370783" lon="60.977662">
        <ele>255.7</ele>
        <time>1970-01-01T14:21:00.313Z</time>
    </trkpt>
    <trkpt lat="56.370788" lon="60.977675">
        <ele>255.7</ele>
        <time>1970-01-01T14:21:01.313Z</time>
    </trkpt>
    <trkpt lat="56.370806" lon="60.977721">
        <ele>255.7</ele>
        <time>1970-01-01T14:21:02.313Z</time>
    </trkpt>
    <trkpt lat="56.370826" lon="60.977771">
        <ele>255.7</ele>
        <time>1970-01-01T14:21:03.313Z</time>
    </trkpt>
    <trkpt lat="56.370843" lon="60.977832">
        <ele>255.7</ele>
        <time>1970-01-01T14:21:04.313Z</time>
    </trkpt>
    <trkpt lat="56.370845" lon="60.97786">
        <ele>255.8</ele>
        <time>1970-01-01T14:21:05.313Z</time>
    </trkpt>
    <trkpt lat="56.370844" lon="60.977928">
        <ele>255.8</ele>
        <time>1970-01-01T14:21:06.313Z</time>
    </trkpt>
    <trkpt lat="56.370846" lon="60.977949">
        <ele>255.8</ele>
        <time>1970-01-01T14:21:07.313Z</time>
    </trkpt>
    <trkpt lat="56.370855" lon="60.978006">
        <ele>255.8</ele>
        <time>1970-01-01T14:21:08.313Z</time>
    </trkpt>
    <trkpt lat="56.37086" lon="60.978022">
        <ele>255.8</ele>
        <time>1970-01-01T14:21:09.313Z</time>
    </trkpt>
    <trkpt lat="56.370868" lon="60.978078">
        <ele>255.9</ele>
        <time>1970-01-01T14:21:10.313Z</time>
    </trkpt>
    <trkpt lat="56.370866" lon="60.978096">
        <ele>255.9</ele>
        <time>1970-01-01T14:21:11.313Z</time>
    </trkpt>
    <trkpt lat="56.370869" lon="60.978149">
        <ele>255.9</ele>
        <time>1970-01-01T14:21:12.313Z</time>
    </trkpt>
    <trkpt lat="56.370873" lon="60.978169">
        <ele>255.9</ele>
        <time>1970-01-01T14:21:13.313Z</time>
    </trkpt>
    <trkpt lat="56.37088" lon="60.978224">
        <ele>255.9</ele>
        <time>1970-01-01T14:21:14.313Z</time>
    </trkpt>
    <trkpt lat="56.370883" lon="60.978245">
        <ele>255.9</ele>
        <time>1970-01-01T14:21:15.313Z</time>
    </trkpt>
    <trkpt lat="56.3709" lon="60.978293">
        <ele>255.9</ele>
        <time>1970-01-01T14:21:16.313Z</time>
    </trkpt>
    <trkpt lat="56.370905" lon="60.978328">
        <ele>256.0</ele>
        <time>1970-01-01T14:21:17.313Z</time>
    </trkpt>
    <trkpt lat="56.370905" lon="60.978355">
        <ele>256.0</ele>
        <time>1970-01-01T14:21:18.313Z</time>
    </trkpt>
    <trkpt lat="56.370905" lon="60.978386">
        <ele>256.0</ele>
        <time>1970-01-01T14:21:19.313Z</time>
    </trkpt>
    <trkpt lat="56.370903" lon="60.978413">
        <ele>256.0</ele>
        <time>1970-01-01T14:21:20.313Z</time>
    </trkpt>
    <trkpt lat="56.370902" lon="60.97844">
        <ele>256.0</ele>
        <time>1970-01-01T14:21:21.313Z</time>
    </trkpt>
    <trkpt lat="56.370898" lon="60.978501">
        <ele>256.0</ele>
        <time>1970-01-01T14:21:22.313Z</time>
    </trkpt>
    <trkpt lat="56.370896" lon="60.97852">
        <ele>256.0</ele>
        <time>1970-01-01T14:21:23.313Z</time>
    </trkpt>
    <trkpt lat="56.370898" lon="60.978587">
        <ele>256.1</ele>
        <time>1970-01-01T14:21:24.313Z</time>
    </trkpt>
    <trkpt lat="56.370897" lon="60.978642">
        <ele>256.1</ele>
        <time>1970-01-01T14:21:25.313Z</time>
    </trkpt>
    <trkpt lat="56.370898" lon="60.978665">
        <ele>256.1</ele>
        <time>1970-01-01T14:21:26.313Z</time>
    </trkpt>
    <trkpt lat="56.370902" lon="60.978718">
        <ele>256.1</ele>
        <time>1970-01-01T14:21:27.313Z</time>
    </trkpt>
    <trkpt lat="56.370903" lon="60.978738">
        <ele>256.1</ele>
        <time>1970-01-01T14:21:28.313Z</time>
    </trkpt>
    <trkpt lat="56.370899" lon="60.978803">
        <ele>256.2</ele>
        <time>1970-01-01T14:21:29.313Z</time>
    </trkpt>
    <trkpt lat="56.370903" lon="60.978827">
        <ele>256.2</ele>
        <time>1970-01-01T14:21:30.313Z</time>
    </trkpt>
    <trkpt lat="56.370912" lon="60.978887">
        <ele>256.2</ele>
        <time>1970-01-01T14:21:31.313Z</time>
    </trkpt>
    <trkpt lat="56.370919" lon="60.978937">
        <ele>256.2</ele>
        <time>1970-01-01T14:21:32.313Z</time>
    </trkpt>
    <trkpt lat="56.370926" lon="60.978954">
        <ele>256.2</ele>
        <time>1970-01-01T14:21:33.313Z</time>
    </trkpt>
    <trkpt lat="56.370944" lon="60.979012">
        <ele>256.3</ele>
        <time>1970-01-01T14:21:34.313Z</time>
    </trkpt>
    <trkpt lat="56.370945" lon="60.97907">
        <ele>256.3</ele>
        <time>1970-01-01T14:21:35.313Z</time>
    </trkpt>
    <trkpt lat="56.370943" lon="60.979135">
        <ele>256.3</ele>
        <time>1970-01-01T14:21:36.313Z</time>
    </trkpt>
    <trkpt lat="56.370948" lon="60.979218">
        <ele>256.3</ele>
        <time>1970-01-01T14:21:37.313Z</time>
    </trkpt>
    <trkpt lat="56.37095" lon="60.979241">
        <ele>256.4</ele>
        <time>1970-01-01T14:21:38.313Z</time>
    </trkpt>
    <trkpt lat="56.370956" lon="60.979292">
        <ele>256.4</ele>
        <time>1970-01-01T14:21:39.313Z</time>
    </trkpt>
    <trkpt lat="56.370957" lon="60.979322">
        <ele>256.4</ele>
        <time>1970-01-01T14:21:40.313Z</time>
    </trkpt>
    <trkpt lat="56.370955" lon="60.979398">
        <ele>256.4</ele>
        <time>1970-01-01T14:21:41.313Z</time>
    </trkpt>
    <trkpt lat="56.370951" lon="60.979458">
        <ele>256.4</ele>
        <time>1970-01-01T14:21:42.313Z</time>
    </trkpt>
    <trkpt lat="56.370949" lon="60.979484">
        <ele>256.5</ele>
        <time>1970-01-01T14:21:43.313Z</time>
    </trkpt>
    <trkpt lat="56.37094" lon="60.979551">
        <ele>256.5</ele>
        <time>1970-01-01T14:21:44.313Z</time>
    </trkpt>
    <trkpt lat="56.370939" lon="60.979573">
        <ele>256.5</ele>
        <time>1970-01-01T14:21:45.313Z</time>
    </trkpt>
    <trkpt lat="56.370938" lon="60.979636">
        <ele>256.5</ele>
        <time>1970-01-01T14:21:46.313Z</time>
    </trkpt>
    <trkpt lat="56.370929" lon="60.979709">
        <ele>256.5</ele>
        <time>1970-01-01T14:21:47.313Z</time>
    </trkpt>
    <trkpt lat="56.370939" lon="60.979739">
        <ele>256.6</ele>
        <time>1970-01-01T14:21:48.313Z</time>
    </trkpt>
    <trkpt lat="56.370944" lon="60.979764">
        <ele>256.6</ele>
        <time>1970-01-01T14:21:49.313Z</time>
    </trkpt>
    <trkpt lat="56.370944" lon="60.979783">
        <ele>256.6</ele>
        <time>1970-01-01T14:21:50.313Z</time>
    </trkpt>
    <trkpt lat="56.370944" lon="60.979851">
        <ele>256.6</ele>
        <time>1970-01-01T14:21:51.313Z</time>
    </trkpt>
    <trkpt lat="56.370941" lon="60.979885">
        <ele>256.6</ele>
        <time>1970-01-01T14:21:52.313Z</time>
    </trkpt>
    <trkpt lat="56.370932" lon="60.979963">
        <ele>256.7</ele>
        <time>1970-01-01T14:21:53.313Z</time>
    </trkpt>
    <trkpt lat="56.370928" lon="60.98">
        <ele>256.7</ele>
        <time>1970-01-01T14:21:54.313Z</time>
    </trkpt>
    <trkpt lat="56.370929" lon="60.980019">
        <ele>256.7</ele>
        <time>1970-01-01T14:21:55.313Z</time>
    </trkpt>
    <trkpt lat="56.370927" lon="60.980083">
        <ele>256.7</ele>
        <time>1970-01-01T14:21:56.313Z</time>
    </trkpt>
    <trkpt lat="56.370929" lon="60.98011">
        <ele>256.7</ele>
        <time>1970-01-01T14:21:57.313Z</time>
    </trkpt>
    <trkpt lat="56.370933" lon="60.980176">
        <ele>256.7</ele>
        <time>1970-01-01T14:21:58.313Z</time>
    </trkpt>
    <trkpt lat="56.370927" lon="60.980247">
        <ele>256.8</ele>
        <time>1970-01-01T14:21:59.313Z</time>
    </trkpt>
    <trkpt lat="56.370921" lon="60.980274">
        <ele>256.8</ele>
        <time>1970-01-01T14:22:00.313Z</time>
    </trkpt>
    <trkpt lat="56.370916" lon="60.980341">
        <ele>256.8</ele>
        <time>1970-01-01T14:22:01.313Z</time>
    </trkpt>
    <trkpt lat="56.370923" lon="60.980356">
        <ele>256.8</ele>
        <time>1970-01-01T14:22:02.313Z</time>
    </trkpt>
    <trkpt lat="56.370936" lon="60.980395">
        <ele>256.8</ele>
        <time>1970-01-01T14:22:03.313Z</time>
    </trkpt>
    <trkpt lat="56.370938" lon="60.980413">
        <ele>256.9</ele>
        <time>1970-01-01T14:22:04.313Z</time>
    </trkpt>
    <trkpt lat="56.370946" lon="60.980469">
        <ele>256.9</ele>
        <time>1970-01-01T14:22:05.313Z</time>
    </trkpt>
    <trkpt lat="56.370947" lon="60.980532">
        <ele>256.9</ele>
        <time>1970-01-01T14:22:06.313Z</time>
    </trkpt>
    <trkpt lat="56.370948" lon="60.980546">
        <ele>256.9</ele>
        <time>1970-01-01T14:22:07.313Z</time>
    </trkpt>
    <trkpt lat="56.370947" lon="60.980599">
        <ele>256.9</ele>
        <time>1970-01-01T14:22:08.313Z</time>
    </trkpt>
    <trkpt lat="56.370946" lon="60.980619">
        <ele>256.9</ele>
        <time>1970-01-01T14:22:09.313Z</time>
    </trkpt>
    <trkpt lat="56.37094" lon="60.980686">
        <ele>257.0</ele>
        <time>1970-01-01T14:22:10.313Z</time>
    </trkpt>
    <trkpt lat="56.370916" lon="60.980729">
        <ele>257.0</ele>
        <time>1970-01-01T14:22:11.313Z</time>
    </trkpt>
    <trkpt lat="56.370913" lon="60.980757">
        <ele>257.0</ele>
        <time>1970-01-01T14:22:12.313Z</time>
    </trkpt>
    <trkpt lat="56.370908" lon="60.980805">
        <ele>257.0</ele>
        <time>1970-01-01T14:22:13.313Z</time>
    </trkpt>
    <trkpt lat="56.370908" lon="60.980826">
        <ele>257.0</ele>
        <time>1970-01-01T14:22:14.313Z</time>
    </trkpt>
    <trkpt lat="56.370908" lon="60.980847">
        <ele>257.0</ele>
        <time>1970-01-01T14:22:15.313Z</time>
    </trkpt>
    <trkpt lat="56.37092" lon="60.980886">
        <ele>257.1</ele>
        <time>1970-01-01T14:22:16.313Z</time>
    </trkpt>
    <trkpt lat="56.370922" lon="60.980903">
        <ele>257.1</ele>
        <time>1970-01-01T14:22:17.313Z</time>
    </trkpt>
    <trkpt lat="56.370923" lon="60.980962">
        <ele>257.1</ele>
        <time>1970-01-01T14:22:18.313Z</time>
    </trkpt>
    <trkpt lat="56.370923" lon="60.980989">
        <ele>257.1</ele>
        <time>1970-01-01T14:22:19.313Z</time>
    </trkpt>
    <trkpt lat="56.370924" lon="60.981061">
        <ele>257.1</ele>
        <time>1970-01-01T14:22:20.313Z</time>
    </trkpt>
    <trkpt lat="56.370932" lon="60.981086">
        <ele>257.1</ele>
        <time>1970-01-01T14:22:21.313Z</time>
    </trkpt>
    <trkpt lat="56.370945" lon="60.981113">
        <ele>257.2</ele>
        <time>1970-01-01T14:22:22.313Z</time>
    </trkpt>
    <trkpt lat="56.370947" lon="60.981139">
        <ele>257.2</ele>
        <time>1970-01-01T14:22:23.313Z</time>
    </trkpt>
    <trkpt lat="56.370951" lon="60.981174">
        <ele>257.2</ele>
        <time>1970-01-01T14:22:24.313Z</time>
    </trkpt>
    <trkpt lat="56.370957" lon="60.981195">
        <ele>257.2</ele>
        <time>1970-01-01T14:22:25.313Z</time>
    </trkpt>
    <trkpt lat="56.370964" lon="60.98122">
        <ele>257.2</ele>
        <time>1970-01-01T14:22:26.313Z</time>
    </trkpt>
    <trkpt lat="56.370961" lon="60.981239">
        <ele>257.2</ele>
        <time>1970-01-01T14:22:27.313Z</time>
    </trkpt>
    <trkpt lat="56.370957" lon="60.981294">
        <ele>257.2</ele>
        <time>1970-01-01T14:22:28.313Z</time>
    </trkpt>
    <trkpt lat="56.370955" lon="60.981311">
        <ele>257.2</ele>
        <time>1970-01-01T14:22:29.313Z</time>
    </trkpt>
    <trkpt lat="56.370947" lon="60.981365">
        <ele>257.3</ele>
        <time>1970-01-01T14:22:30.313Z</time>
    </trkpt>
    <trkpt lat="56.370944" lon="60.98139">
        <ele>257.3</ele>
        <time>1970-01-01T14:22:31.313Z</time>
    </trkpt>
    <trkpt lat="56.370932" lon="60.981453">
        <ele>257.3</ele>
        <time>1970-01-01T14:22:32.313Z</time>
    </trkpt>
    <trkpt lat="56.370931" lon="60.981487">
        <ele>257.3</ele>
        <time>1970-01-01T14:22:33.313Z</time>
    </trkpt>
    <trkpt lat="56.370928" lon="60.981548">
        <ele>257.4</ele>
        <time>1970-01-01T14:22:34.313Z</time>
    </trkpt>
    <trkpt lat="56.370936" lon="60.981567">
        <ele>257.4</ele>
        <time>1970-01-01T14:22:35.313Z</time>
    </trkpt>
    <trkpt lat="56.370944" lon="60.981615">
        <ele>257.4</ele>
        <time>1970-01-01T14:22:36.313Z</time>
    </trkpt>
    <trkpt lat="56.370947" lon="60.981645">
        <ele>257.4</ele>
        <time>1970-01-01T14:22:37.313Z</time>
    </trkpt>
    <trkpt lat="56.370952" lon="60.981668">
        <ele>257.4</ele>
        <time>1970-01-01T14:22:38.313Z</time>
    </trkpt>
    <trkpt lat="56.37095" lon="60.981696">
        <ele>257.4</ele>
        <time>1970-01-01T14:22:39.313Z</time>
    </trkpt>
    <trkpt lat="56.370946" lon="60.981755">
        <ele>257.4</ele>
        <time>1970-01-01T14:22:40.313Z</time>
    </trkpt>
    <trkpt lat="56.370936" lon="60.981815">
        <ele>257.5</ele>
        <time>1970-01-01T14:22:41.313Z</time>
    </trkpt>
    <trkpt lat="56.370931" lon="60.981864">
        <ele>257.5</ele>
        <time>1970-01-01T14:22:42.313Z</time>
    </trkpt>
    <trkpt lat="56.37093" lon="60.98188">
        <ele>257.5</ele>
        <time>1970-01-01T14:22:43.313Z</time>
    </trkpt>
    <trkpt lat="56.370934" lon="60.981935">
        <ele>257.5</ele>
        <time>1970-01-01T14:22:44.313Z</time>
    </trkpt>
    <trkpt lat="56.370936" lon="60.981955">
        <ele>257.5</ele>
        <time>1970-01-01T14:22:45.313Z</time>
    </trkpt>
    <trkpt lat="56.370943" lon="60.982014">
        <ele>257.6</ele>
        <time>1970-01-01T14:22:46.313Z</time>
    </trkpt>
    <trkpt lat="56.370956" lon="60.98206">
        <ele>257.6</ele>
        <time>1970-01-01T14:22:47.313Z</time>
    </trkpt>
    <trkpt lat="56.370962" lon="60.982087">
        <ele>257.6</ele>
        <time>1970-01-01T14:22:48.313Z</time>
    </trkpt>
    <trkpt lat="56.370968" lon="60.982114">
        <ele>257.6</ele>
        <time>1970-01-01T14:22:49.313Z</time>
    </trkpt>
    <trkpt lat="56.370976" lon="60.982145">
        <ele>257.6</ele>
        <time>1970-01-01T14:22:50.313Z</time>
    </trkpt>
    <trkpt lat="56.370979" lon="60.982168">
        <ele>257.6</ele>
        <time>1970-01-01T14:22:51.313Z</time>
    </trkpt>
    <trkpt lat="56.370979" lon="60.982195">
        <ele>257.6</ele>
        <time>1970-01-01T14:22:52.313Z</time>
    </trkpt>
    <trkpt lat="56.370975" lon="60.982224">
        <ele>257.6</ele>
        <time>1970-01-01T14:22:53.313Z</time>
    </trkpt>
    <trkpt lat="56.37097" lon="60.982228">
        <ele>257.7</ele>
        <time>1970-01-01T14:22:54.313Z</time>
    </trkpt>
    <trkpt lat="56.370971" lon="60.98225">
        <ele>257.7</ele>
        <time>1970-01-01T14:22:55.313Z</time>
    </trkpt>
    <trkpt lat="56.370972" lon="60.98232">
        <ele>257.7</ele>
        <time>1970-01-01T14:22:56.313Z</time>
    </trkpt>
    <trkpt lat="56.370972" lon="60.982357">
        <ele>257.7</ele>
        <time>1970-01-01T14:22:57.313Z</time>
    </trkpt>
    <trkpt lat="56.370972" lon="60.982436">
        <ele>257.7</ele>
        <time>1970-01-01T14:22:58.313Z</time>
    </trkpt>
    <trkpt lat="56.370974" lon="60.982468">
        <ele>257.8</ele>
        <time>1970-01-01T14:22:59.313Z</time>
    </trkpt>
    <trkpt lat="56.37098" lon="60.982542">
        <ele>257.8</ele>
        <time>1970-01-01T14:23:00.313Z</time>
    </trkpt>
    <trkpt lat="56.370981" lon="60.982616">
        <ele>257.8</ele>
        <time>1970-01-01T14:23:01.313Z</time>
    </trkpt>
    <trkpt lat="56.370979" lon="60.982666">
        <ele>257.8</ele>
        <time>1970-01-01T14:23:02.313Z</time>
    </trkpt>
    <trkpt lat="56.370981" lon="60.982689">
        <ele>257.8</ele>
        <time>1970-01-01T14:23:03.313Z</time>
    </trkpt>
    <trkpt lat="56.370985" lon="60.982741">
        <ele>257.9</ele>
        <time>1970-01-01T14:23:04.313Z</time>
    </trkpt>
    <trkpt lat="56.370983" lon="60.982806">
        <ele>257.9</ele>
        <time>1970-01-01T14:23:05.313Z</time>
    </trkpt>
    <trkpt lat="56.370985" lon="60.982833">
        <ele>257.9</ele>
        <time>1970-01-01T14:23:06.313Z</time>
    </trkpt>
    <trkpt lat="56.370989" lon="60.982894">
        <ele>257.9</ele>
        <time>1970-01-01T14:23:07.313Z</time>
    </trkpt>
    <trkpt lat="56.370996" lon="60.98291">
        <ele>257.9</ele>
        <time>1970-01-01T14:23:08.313Z</time>
    </trkpt>
    <trkpt lat="56.371011" lon="60.982955">
        <ele>258.0</ele>
        <time>1970-01-01T14:23:09.313Z</time>
    </trkpt>
    <trkpt lat="56.371017" lon="60.982971">
        <ele>258.0</ele>
        <time>1970-01-01T14:23:10.313Z</time>
    </trkpt>
    <trkpt lat="56.371027" lon="60.983015">
        <ele>258.0</ele>
        <time>1970-01-01T14:23:11.313Z</time>
    </trkpt>
    <trkpt lat="56.371035" lon="60.983045">
        <ele>258.0</ele>
        <time>1970-01-01T14:23:12.313Z</time>
    </trkpt>
    <trkpt lat="56.37104" lon="60.983063">
        <ele>258.0</ele>
        <time>1970-01-01T14:23:13.313Z</time>
    </trkpt>
    <trkpt lat="56.371044" lon="60.983096">
        <ele>258.0</ele>
        <time>1970-01-01T14:23:14.313Z</time>
    </trkpt>
    <trkpt lat="56.371054" lon="60.983169">
        <ele>258.1</ele>
        <time>1970-01-01T14:23:15.313Z</time>
    </trkpt>
    <trkpt lat="56.371052" lon="60.98319">
        <ele>258.1</ele>
        <time>1970-01-01T14:23:16.313Z</time>
    </trkpt>
    <trkpt lat="56.371048" lon="60.983249">
        <ele>258.1</ele>
        <time>1970-01-01T14:23:17.313Z</time>
    </trkpt>
    <trkpt lat="56.371054" lon="60.983305">
        <ele>258.1</ele>
        <time>1970-01-01T14:23:18.313Z</time>
    </trkpt>
    <trkpt lat="56.371056" lon="60.983328">
        <ele>258.1</ele>
        <time>1970-01-01T14:23:19.313Z</time>
    </trkpt>
    <trkpt lat="56.371061" lon="60.983382">
        <ele>258.1</ele>
        <time>1970-01-01T14:23:20.313Z</time>
    </trkpt>
    <trkpt lat="56.371065" lon="60.983442">
        <ele>258.2</ele>
        <time>1970-01-01T14:23:21.313Z</time>
    </trkpt>
    <trkpt lat="56.371066" lon="60.983476">
        <ele>258.2</ele>
        <time>1970-01-01T14:23:22.313Z</time>
    </trkpt>
    <trkpt lat="56.371077" lon="60.983536">
        <ele>258.2</ele>
        <time>1970-01-01T14:23:23.313Z</time>
    </trkpt>
    <trkpt lat="56.371082" lon="60.983547">
        <ele>258.2</ele>
        <time>1970-01-01T14:23:24.313Z</time>
    </trkpt>
    <trkpt lat="56.371099" lon="60.983598">
        <ele>258.2</ele>
        <time>1970-01-01T14:23:25.313Z</time>
    </trkpt>
    <trkpt lat="56.371101" lon="60.983614">
        <ele>258.2</ele>
        <time>1970-01-01T14:23:26.313Z</time>
    </trkpt>
    <trkpt lat="56.371104" lon="60.983631">
        <ele>258.3</ele>
        <time>1970-01-01T14:23:27.313Z</time>
    </trkpt>
    <trkpt lat="56.371115" lon="60.983667">
        <ele>258.3</ele>
        <time>1970-01-01T14:23:28.313Z</time>
    </trkpt>
    <trkpt lat="56.371116" lon="60.983681">
        <ele>258.3</ele>
        <time>1970-01-01T14:23:29.313Z</time>
    </trkpt>
    <trkpt lat="56.37112" lon="60.983737">
        <ele>258.3</ele>
        <time>1970-01-01T14:23:30.313Z</time>
    </trkpt>
    <trkpt lat="56.371118" lon="60.983758">
        <ele>258.3</ele>
        <time>1970-01-01T14:23:31.313Z</time>
    </trkpt>
    <trkpt lat="56.371121" lon="60.983798">
        <ele>258.3</ele>
        <time>1970-01-01T14:23:32.313Z</time>
    </trkpt>
    <trkpt lat="56.371123" lon="60.983809">
        <ele>258.3</ele>
        <time>1970-01-01T14:23:33.313Z</time>
    </trkpt>
    <trkpt lat="56.371129" lon="60.983867">
        <ele>258.4</ele>
        <time>1970-01-01T14:23:34.313Z</time>
    </trkpt>
    <trkpt lat="56.37113" lon="60.9839">
        <ele>258.4</ele>
        <time>1970-01-01T14:23:35.313Z</time>
    </trkpt>
    <trkpt lat="56.371128" lon="60.983918">
        <ele>258.4</ele>
        <time>1970-01-01T14:23:36.313Z</time>
    </trkpt>
    <trkpt lat="56.371114" lon="60.983981">
        <ele>258.4</ele>
        <time>1970-01-01T14:23:37.313Z</time>
    </trkpt>
    <trkpt lat="56.371114" lon="60.983996">
        <ele>258.4</ele>
        <time>1970-01-01T14:23:38.313Z</time>
    </trkpt>
    <trkpt lat="56.371111" lon="60.984051">
        <ele>258.4</ele>
        <time>1970-01-01T14:23:39.313Z</time>
    </trkpt>
    <trkpt lat="56.371108" lon="60.984068">
        <ele>258.4</ele>
        <time>1970-01-01T14:23:40.313Z</time>
    </trkpt>
    <trkpt lat="56.371099" lon="60.984131">
        <ele>258.5</ele>
        <time>1970-01-01T14:23:41.313Z</time>
    </trkpt>
    <trkpt lat="56.371099" lon="60.984187">
        <ele>258.5</ele>
        <time>1970-01-01T14:23:42.313Z</time>
    </trkpt>
    <trkpt lat="56.371102" lon="60.984202">
        <ele>258.5</ele>
        <time>1970-01-01T14:23:43.313Z</time>
    </trkpt>
    <trkpt lat="56.371105" lon="60.984217">
        <ele>258.5</ele>
        <time>1970-01-01T14:23:44.313Z</time>
    </trkpt>
    <trkpt lat="56.371122" lon="60.984262">
        <ele>258.5</ele>
        <time>1970-01-01T14:23:45.313Z</time>
    </trkpt>
    <trkpt lat="56.371125" lon="60.984295">
        <ele>258.5</ele>
        <time>1970-01-01T14:23:46.313Z</time>
    </trkpt>
    <trkpt lat="56.371132" lon="60.984317">
        <ele>258.6</ele>
        <time>1970-01-01T14:23:47.313Z</time>
    </trkpt>
    <trkpt lat="56.371143" lon="60.984364">
        <ele>258.6</ele>
        <time>1970-01-01T14:23:48.313Z</time>
    </trkpt>
    <trkpt lat="56.371147" lon="60.984376">
        <ele>258.6</ele>
        <time>1970-01-01T14:23:49.313Z</time>
    </trkpt>
    <trkpt lat="56.371159" lon="60.984422">
        <ele>258.6</ele>
        <time>1970-01-01T14:23:50.313Z</time>
    </trkpt>
    <trkpt lat="56.371164" lon="60.984444">
        <ele>258.6</ele>
        <time>1970-01-01T14:23:51.313Z</time>
    </trkpt>
    <trkpt lat="56.371182" lon="60.984468">
        <ele>258.6</ele>
        <time>1970-01-01T14:23:52.313Z</time>
    </trkpt>
    <trkpt lat="56.371209" lon="60.984482">
        <ele>258.7</ele>
        <time>1970-01-01T14:23:53.313Z</time>
    </trkpt>
    <trkpt lat="56.371227" lon="60.984521">
        <ele>258.7</ele>
        <time>1970-01-01T14:23:54.313Z</time>
    </trkpt>
    <trkpt lat="56.371237" lon="60.984535">
        <ele>258.7</ele>
        <time>1970-01-01T14:23:55.313Z</time>
    </trkpt>
    <trkpt lat="56.371253" lon="60.984594">
        <ele>258.7</ele>
        <time>1970-01-01T14:23:56.313Z</time>
    </trkpt>
    <trkpt lat="56.371256" lon="60.984605">
        <ele>258.7</ele>
        <time>1970-01-01T14:23:57.313Z</time>
    </trkpt>
    <trkpt lat="56.371271" lon="60.984653">
        <ele>258.7</ele>
        <time>1970-01-01T14:23:58.313Z</time>
    </trkpt>
    <trkpt lat="56.371282" lon="60.984704">
        <ele>258.8</ele>
        <time>1970-01-01T14:23:59.313Z</time>
    </trkpt>
    <trkpt lat="56.371278" lon="60.984753">
        <ele>258.8</ele>
        <time>1970-01-01T14:24:00.313Z</time>
    </trkpt>
    <trkpt lat="56.371275" lon="60.984767">
        <ele>258.8</ele>
        <time>1970-01-01T14:24:01.313Z</time>
    </trkpt>
    <trkpt lat="56.371272" lon="60.984782">
        <ele>258.8</ele>
        <time>1970-01-01T14:24:02.313Z</time>
    </trkpt>
    <trkpt lat="56.371275" lon="60.984824">
        <ele>258.8</ele>
        <time>1970-01-01T14:24:03.313Z</time>
    </trkpt>
    <trkpt lat="56.371281" lon="60.984847">
        <ele>258.8</ele>
        <time>1970-01-01T14:24:04.313Z</time>
    </trkpt>
    <trkpt lat="56.37128" lon="60.984875">
        <ele>258.8</ele>
        <time>1970-01-01T14:24:05.313Z</time>
    </trkpt>
    <trkpt lat="56.371274" lon="60.984878">
        <ele>258.8</ele>
        <time>1970-01-01T14:24:06.313Z</time>
    </trkpt>
    <trkpt lat="56.371271" lon="60.984896">
        <ele>258.8</ele>
        <time>1970-01-01T14:24:07.313Z</time>
    </trkpt>
    <trkpt lat="56.371272" lon="60.984895">
        <ele>258.8</ele>
        <time>1970-01-01T14:24:08.313Z</time>
    </trkpt>
    <trkpt lat="56.37127" lon="60.984901">
        <ele>258.9</ele>
        <time>1970-01-01T14:24:09.313Z</time>
    </trkpt>
    <trkpt lat="56.371269" lon="60.984919">
        <ele>258.9</ele>
        <time>1970-01-01T14:24:10.313Z</time>
    </trkpt>
    <trkpt lat="56.37127" lon="60.984932">
        <ele>258.9</ele>
        <time>1970-01-01T14:24:11.313Z</time>
    </trkpt>
    <trkpt lat="56.371272" lon="60.984944">
        <ele>258.9</ele>
        <time>1970-01-01T14:24:12.313Z</time>
    </trkpt>
    <trkpt lat="56.371274" lon="60.984984">
        <ele>258.9</ele>
        <time>1970-01-01T14:24:13.313Z</time>
    </trkpt>
    <trkpt lat="56.371271" lon="60.985007">
        <ele>258.9</ele>
        <time>1970-01-01T14:24:14.313Z</time>
    </trkpt>
    <trkpt lat="56.371267" lon="60.985024">
        <ele>258.9</ele>
        <time>1970-01-01T14:24:15.313Z</time>
    </trkpt>
    <trkpt lat="56.371265" lon="60.985045">
        <ele>258.9</ele>
        <time>1970-01-01T14:24:16.313Z</time>
    </trkpt>
    <trkpt lat="56.371267" lon="60.985072">
        <ele>258.9</ele>
        <time>1970-01-01T14:24:17.313Z</time>
    </trkpt>
    <trkpt lat="56.371269" lon="60.985095">
        <ele>258.9</ele>
        <time>1970-01-01T14:24:18.313Z</time>
    </trkpt>
    <trkpt lat="56.371266" lon="60.98511">
        <ele>258.9</ele>
        <time>1970-01-01T14:24:19.313Z</time>
    </trkpt>
    <trkpt lat="56.371269" lon="60.985138">
        <ele>259.0</ele>
        <time>1970-01-01T14:24:20.313Z</time>
    </trkpt>
    <trkpt lat="56.371267" lon="60.985158">
        <ele>259.0</ele>
        <time>1970-01-01T14:24:21.313Z</time>
    </trkpt>
    <trkpt lat="56.371271" lon="60.985184">
        <ele>259.0</ele>
        <time>1970-01-01T14:24:22.313Z</time>
    </trkpt>
    <trkpt lat="56.371272" lon="60.985196">
        <ele>259.0</ele>
        <time>1970-01-01T14:24:23.313Z</time>
    </trkpt>
    <trkpt lat="56.371272" lon="60.985213">
        <ele>259.0</ele>
        <time>1970-01-01T14:24:24.313Z</time>
    </trkpt>
    <trkpt lat="56.371274" lon="60.985227">
        <ele>259.0</ele>
        <time>1970-01-01T14:24:25.313Z</time>
    </trkpt>
    <trkpt lat="56.371276" lon="60.985242">
        <ele>259.0</ele>
        <time>1970-01-01T14:24:26.313Z</time>
    </trkpt>
    <trkpt lat="56.371285" lon="60.985275">
        <ele>259.0</ele>
        <time>1970-01-01T14:24:27.313Z</time>
    </trkpt>
    <trkpt lat="56.371286" lon="60.985291">
        <ele>259.0</ele>
        <time>1970-01-01T14:24:28.313Z</time>
    </trkpt>
    <trkpt lat="56.371286" lon="60.985307">
        <ele>259.0</ele>
        <time>1970-01-01T14:24:29.313Z</time>
    </trkpt>
    <trkpt lat="56.371288" lon="60.985346">
        <ele>259.0</ele>
        <time>1970-01-01T14:24:30.313Z</time>
    </trkpt>
    <trkpt lat="56.371288" lon="60.985359">
        <ele>259.0</ele>
        <time>1970-01-01T14:24:31.313Z</time>
    </trkpt>
    <trkpt lat="56.371288" lon="60.985373">
        <ele>259.1</ele>
        <time>1970-01-01T14:24:32.313Z</time>
    </trkpt>
    <trkpt lat="56.37129" lon="60.985413">
        <ele>259.1</ele>
        <time>1970-01-01T14:24:33.313Z</time>
    </trkpt>
    <trkpt lat="56.371293" lon="60.985436">
        <ele>259.1</ele>
        <time>1970-01-01T14:24:34.313Z</time>
    </trkpt>
    <trkpt lat="56.371293" lon="60.985456">
        <ele>259.1</ele>
        <time>1970-01-01T14:24:35.313Z</time>
    </trkpt>
    <trkpt lat="56.371294" lon="60.985476">
        <ele>259.1</ele>
        <time>1970-01-01T14:24:36.313Z</time>
    </trkpt>
    <trkpt lat="56.371297" lon="60.985503">
        <ele>259.1</ele>
        <time>1970-01-01T14:24:37.313Z</time>
    </trkpt>
    <trkpt lat="56.3713" lon="60.985529">
        <ele>259.1</ele>
        <time>1970-01-01T14:24:38.313Z</time>
    </trkpt>
    <trkpt lat="56.3713" lon="60.985542">
        <ele>259.1</ele>
        <time>1970-01-01T14:24:39.313Z</time>
    </trkpt>
    <trkpt lat="56.371299" lon="60.985556">
        <ele>259.1</ele>
        <time>1970-01-01T14:24:40.313Z</time>
    </trkpt>
    <trkpt lat="56.371305" lon="60.98558">
        <ele>259.1</ele>
        <time>1970-01-01T14:24:41.313Z</time>
    </trkpt>
    <trkpt lat="56.371309" lon="60.985604">
        <ele>259.2</ele>
        <time>1970-01-01T14:24:42.313Z</time>
    </trkpt>
    <trkpt lat="56.371311" lon="60.985622">
        <ele>259.2</ele>
        <time>1970-01-01T14:24:43.313Z</time>
    </trkpt>
    <trkpt lat="56.371316" lon="60.985633">
        <ele>259.2</ele>
        <time>1970-01-01T14:24:44.313Z</time>
    </trkpt>
    <trkpt lat="56.371321" lon="60.985647">
        <ele>259.2</ele>
        <time>1970-01-01T14:24:45.313Z</time>
    </trkpt>
    <trkpt lat="56.371326" lon="60.985662">
        <ele>259.2</ele>
        <time>1970-01-01T14:24:46.313Z</time>
    </trkpt>
    <trkpt lat="56.371335" lon="60.985691">
        <ele>259.2</ele>
        <time>1970-01-01T14:24:47.313Z</time>
    </trkpt>
    <trkpt lat="56.371338" lon="60.985703">
        <ele>259.2</ele>
        <time>1970-01-01T14:24:48.313Z</time>
    </trkpt>
    <trkpt lat="56.371341" lon="60.985715">
        <ele>259.2</ele>
        <time>1970-01-01T14:24:49.313Z</time>
    </trkpt>
    <trkpt lat="56.371344" lon="60.985727">
        <ele>259.2</ele>
        <time>1970-01-01T14:24:50.313Z</time>
    </trkpt>
    <trkpt lat="56.371346" lon="60.985753">
        <ele>259.2</ele>
        <time>1970-01-01T14:24:51.313Z</time>
    </trkpt>
    <trkpt lat="56.371344" lon="60.985768">
        <ele>259.2</ele>
        <time>1970-01-01T14:24:52.313Z</time>
    </trkpt>
    <trkpt lat="56.371341" lon="60.985781">
        <ele>259.2</ele>
        <time>1970-01-01T14:24:53.313Z</time>
    </trkpt>
    <trkpt lat="56.37134" lon="60.985802">
        <ele>259.2</ele>
        <time>1970-01-01T14:24:54.313Z</time>
    </trkpt>
    <trkpt lat="56.371343" lon="60.985823">
        <ele>259.3</ele>
        <time>1970-01-01T14:24:55.313Z</time>
    </trkpt>
    <trkpt lat="56.371346" lon="60.985843">
        <ele>259.3</ele>
        <time>1970-01-01T14:24:56.313Z</time>
    </trkpt>
    <trkpt lat="56.371353" lon="60.985877">
        <ele>259.3</ele>
        <time>1970-01-01T14:24:57.313Z</time>
    </trkpt>
    <trkpt lat="56.371351" lon="60.985894">
        <ele>259.3</ele>
        <time>1970-01-01T14:24:58.313Z</time>
    </trkpt>
    <trkpt lat="56.371355" lon="60.985915">
        <ele>259.3</ele>
        <time>1970-01-01T14:24:59.313Z</time>
    </trkpt>
    <trkpt lat="56.371359" lon="60.985938">
        <ele>259.3</ele>
        <time>1970-01-01T14:25:00.313Z</time>
    </trkpt>
    <trkpt lat="56.371362" lon="60.985955">
        <ele>259.3</ele>
        <time>1970-01-01T14:25:01.313Z</time>
    </trkpt>
    <trkpt lat="56.371366" lon="60.985973">
        <ele>259.3</ele>
        <time>1970-01-01T14:25:02.313Z</time>
    </trkpt>
    <trkpt lat="56.371376" lon="60.986011">
        <ele>259.3</ele>
        <time>1970-01-01T14:25:03.313Z</time>
    </trkpt>
    <trkpt lat="56.371377" lon="60.986026">
        <ele>259.3</ele>
        <time>1970-01-01T14:25:04.313Z</time>
    </trkpt>
    <trkpt lat="56.371379" lon="60.98604">
        <ele>259.3</ele>
        <time>1970-01-01T14:25:05.313Z</time>
    </trkpt>
    <trkpt lat="56.371384" lon="60.986075">
        <ele>259.4</ele>
        <time>1970-01-01T14:25:06.313Z</time>
    </trkpt>
    <trkpt lat="56.371387" lon="60.986085">
        <ele>259.4</ele>
        <time>1970-01-01T14:25:07.313Z</time>
    </trkpt>
    <trkpt lat="56.37139" lon="60.986098">
        <ele>259.4</ele>
        <time>1970-01-01T14:25:08.313Z</time>
    </trkpt>
    <trkpt lat="56.371396" lon="60.986128">
        <ele>259.4</ele>
        <time>1970-01-01T14:25:09.313Z</time>
    </trkpt>
    <trkpt lat="56.371402" lon="60.986148">
        <ele>259.4</ele>
        <time>1970-01-01T14:25:10.313Z</time>
    </trkpt>
    <trkpt lat="56.3714" lon="60.986177">
        <ele>259.4</ele>
        <time>1970-01-01T14:25:11.313Z</time>
    </trkpt>
    <trkpt lat="56.371395" lon="60.986192">
        <ele>259.4</ele>
        <time>1970-01-01T14:25:12.313Z</time>
    </trkpt>
    <trkpt lat="56.371397" lon="60.986205">
        <ele>259.4</ele>
        <time>1970-01-01T14:25:13.313Z</time>
    </trkpt>
    <trkpt lat="56.371392" lon="60.986227">
        <ele>259.4</ele>
        <time>1970-01-01T14:25:14.313Z</time>
    </trkpt>
    <trkpt lat="56.371385" lon="60.986254">
        <ele>259.4</ele>
        <time>1970-01-01T14:25:15.313Z</time>
    </trkpt>
    <trkpt lat="56.371378" lon="60.986277">
        <ele>259.5</ele>
        <time>1970-01-01T14:25:16.313Z</time>
    </trkpt>
    <trkpt lat="56.371375" lon="60.986293">
        <ele>259.5</ele>
        <time>1970-01-01T14:25:17.313Z</time>
    </trkpt>
    <trkpt lat="56.371373" lon="60.98631">
        <ele>259.5</ele>
        <time>1970-01-01T14:25:18.313Z</time>
    </trkpt>
    <trkpt lat="56.371371" lon="60.986346">
        <ele>259.5</ele>
        <time>1970-01-01T14:25:19.313Z</time>
    </trkpt>
    <trkpt lat="56.371372" lon="60.986363">
        <ele>259.5</ele>
        <time>1970-01-01T14:25:20.313Z</time>
    </trkpt>
    <trkpt lat="56.371373" lon="60.986379">
        <ele>259.5</ele>
        <time>1970-01-01T14:25:21.313Z</time>
    </trkpt>
    <trkpt lat="56.371377" lon="60.986412">
        <ele>259.5</ele>
        <time>1970-01-01T14:25:22.313Z</time>
    </trkpt>
    <trkpt lat="56.371379" lon="60.986436">
        <ele>259.5</ele>
        <time>1970-01-01T14:25:23.313Z</time>
    </trkpt>
    <trkpt lat="56.371385" lon="60.986464">
        <ele>259.5</ele>
        <time>1970-01-01T14:25:24.313Z</time>
    </trkpt>
    <trkpt lat="56.37139" lon="60.986488">
        <ele>259.5</ele>
        <time>1970-01-01T14:25:25.313Z</time>
    </trkpt>
    <trkpt lat="56.3714" lon="60.986506">
        <ele>259.6</ele>
        <time>1970-01-01T14:25:26.313Z</time>
    </trkpt>
    <trkpt lat="56.371403" lon="60.986516">
        <ele>259.6</ele>
        <time>1970-01-01T14:25:27.313Z</time>
    </trkpt>
    <trkpt lat="56.371407" lon="60.986536">
        <ele>259.6</ele>
        <time>1970-01-01T14:25:28.313Z</time>
    </trkpt>
    <trkpt lat="56.37141" lon="60.986562">
        <ele>259.6</ele>
        <time>1970-01-01T14:25:29.313Z</time>
    </trkpt>
    <trkpt lat="56.371412" lon="60.986576">
        <ele>259.6</ele>
        <time>1970-01-01T14:25:30.313Z</time>
    </trkpt>
    <trkpt lat="56.371413" lon="60.98659">
        <ele>259.6</ele>
        <time>1970-01-01T14:25:31.313Z</time>
    </trkpt>
    <trkpt lat="56.371413" lon="60.986629">
        <ele>259.6</ele>
        <time>1970-01-01T14:25:32.313Z</time>
    </trkpt>
    <trkpt lat="56.371412" lon="60.986652">
        <ele>259.6</ele>
        <time>1970-01-01T14:25:33.313Z</time>
    </trkpt>
    <trkpt lat="56.371408" lon="60.986667">
        <ele>259.6</ele>
        <time>1970-01-01T14:25:34.313Z</time>
    </trkpt>
    <trkpt lat="56.371407" lon="60.986687">
        <ele>259.6</ele>
        <time>1970-01-01T14:25:35.313Z</time>
    </trkpt>
    <trkpt lat="56.371411" lon="60.986704">
        <ele>259.6</ele>
        <time>1970-01-01T14:25:36.313Z</time>
    </trkpt>
    <trkpt lat="56.371415" lon="60.986728">
        <ele>259.7</ele>
        <time>1970-01-01T14:25:37.313Z</time>
    </trkpt>
    <trkpt lat="56.371418" lon="60.986745">
        <ele>259.7</ele>
        <time>1970-01-01T14:25:38.313Z</time>
    </trkpt>
    <trkpt lat="56.371416" lon="60.986763">
        <ele>259.7</ele>
        <time>1970-01-01T14:25:39.313Z</time>
    </trkpt>
    <trkpt lat="56.371414" lon="60.986781">
        <ele>259.7</ele>
        <time>1970-01-01T14:25:40.313Z</time>
    </trkpt>
    <trkpt lat="56.37141" lon="60.986819">
        <ele>259.7</ele>
        <time>1970-01-01T14:25:41.313Z</time>
    </trkpt>
    <trkpt lat="56.37141" lon="60.986832">
        <ele>259.7</ele>
        <time>1970-01-01T14:25:42.313Z</time>
    </trkpt>
    <trkpt lat="56.37141" lon="60.986846">
        <ele>259.7</ele>
        <time>1970-01-01T14:25:43.313Z</time>
    </trkpt>
    <trkpt lat="56.37141" lon="60.986859">
        <ele>259.7</ele>
        <time>1970-01-01T14:25:44.313Z</time>
    </trkpt>
    <trkpt lat="56.371409" lon="60.986885">
        <ele>259.7</ele>
        <time>1970-01-01T14:25:45.313Z</time>
    </trkpt>
    <trkpt lat="56.371411" lon="60.986902">
        <ele>259.7</ele>
        <time>1970-01-01T14:25:46.313Z</time>
    </trkpt>
    <trkpt lat="56.371413" lon="60.986918">
        <ele>259.7</ele>
        <time>1970-01-01T14:25:47.313Z</time>
    </trkpt>
    <trkpt lat="56.371422" lon="60.986951">
        <ele>259.7</ele>
        <time>1970-01-01T14:25:48.313Z</time>
    </trkpt>
    <trkpt lat="56.371423" lon="60.986974">
        <ele>259.8</ele>
        <time>1970-01-01T14:25:49.313Z</time>
    </trkpt>
    <trkpt lat="56.371427" lon="60.986996">
        <ele>259.8</ele>
        <time>1970-01-01T14:25:50.313Z</time>
    </trkpt>
    <trkpt lat="56.371424" lon="60.987003">
        <ele>259.8</ele>
        <time>1970-01-01T14:25:51.313Z</time>
    </trkpt>
    <trkpt lat="56.371427" lon="60.987018">
        <ele>259.8</ele>
        <time>1970-01-01T14:25:52.313Z</time>
    </trkpt>
    <trkpt lat="56.371425" lon="60.98704">
        <ele>259.8</ele>
        <time>1970-01-01T14:25:53.313Z</time>
    </trkpt>
    <trkpt lat="56.371431" lon="60.987059">
        <ele>259.8</ele>
        <time>1970-01-01T14:25:54.313Z</time>
    </trkpt>
    <trkpt lat="56.37143" lon="60.987075">
        <ele>259.8</ele>
        <time>1970-01-01T14:25:55.313Z</time>
    </trkpt>
    <trkpt lat="56.371428" lon="60.98709">
        <ele>259.8</ele>
        <time>1970-01-01T14:25:56.313Z</time>
    </trkpt>
    <trkpt lat="56.371423" lon="60.987109">
        <ele>259.8</ele>
        <time>1970-01-01T14:25:57.313Z</time>
    </trkpt>
    <trkpt lat="56.371419" lon="60.987129">
        <ele>259.8</ele>
        <time>1970-01-01T14:25:58.313Z</time>
    </trkpt>
    <trkpt lat="56.371424" lon="60.987148">
        <ele>259.8</ele>
        <time>1970-01-01T14:25:59.313Z</time>
    </trkpt>
    <trkpt lat="56.371424" lon="60.987168">
        <ele>259.8</ele>
        <time>1970-01-01T14:26:00.313Z</time>
    </trkpt>
    <trkpt lat="56.37143" lon="60.987186">
        <ele>259.9</ele>
        <time>1970-01-01T14:26:01.313Z</time>
    </trkpt>
    <trkpt lat="56.371433" lon="60.987204">
        <ele>259.9</ele>
        <time>1970-01-01T14:26:02.313Z</time>
    </trkpt>
    <trkpt lat="56.371437" lon="60.987214">
        <ele>259.9</ele>
        <time>1970-01-01T14:26:03.313Z</time>
    </trkpt>
    <trkpt lat="56.371436" lon="60.987224">
        <ele>259.9</ele>
        <time>1970-01-01T14:26:04.313Z</time>
    </trkpt>
    <trkpt lat="56.37144" lon="60.98725">
        <ele>259.9</ele>
        <time>1970-01-01T14:26:05.313Z</time>
    </trkpt>
    <trkpt lat="56.371447" lon="60.987274">
        <ele>259.9</ele>
        <time>1970-01-01T14:26:06.313Z</time>
    </trkpt>
    <trkpt lat="56.37145" lon="60.987292">
        <ele>259.9</ele>
        <time>1970-01-01T14:26:07.313Z</time>
    </trkpt>
    <trkpt lat="56.371452" lon="60.98731">
        <ele>259.9</ele>
        <time>1970-01-01T14:26:08.313Z</time>
    </trkpt>
    <trkpt lat="56.371455" lon="60.987343">
        <ele>259.9</ele>
        <time>1970-01-01T14:26:09.313Z</time>
    </trkpt>
    <trkpt lat="56.371459" lon="60.987367">
        <ele>259.9</ele>
        <time>1970-01-01T14:26:10.313Z</time>
    </trkpt>
    <trkpt lat="56.371465" lon="60.987376">
        <ele>259.9</ele>
        <time>1970-01-01T14:26:11.313Z</time>
    </trkpt>
    <trkpt lat="56.371466" lon="60.98739">
        <ele>259.9</ele>
        <time>1970-01-01T14:26:12.313Z</time>
    </trkpt>
    <trkpt lat="56.37147" lon="60.987408">
        <ele>260.0</ele>
        <time>1970-01-01T14:26:13.313Z</time>
    </trkpt>
    <trkpt lat="56.371473" lon="60.987426">
        <ele>260.0</ele>
        <time>1970-01-01T14:26:14.313Z</time>
    </trkpt>
    <trkpt lat="56.371488" lon="60.987458">
        <ele>260.0</ele>
        <time>1970-01-01T14:26:15.313Z</time>
    </trkpt>
    <trkpt lat="56.37149" lon="60.987473">
        <ele>260.0</ele>
        <time>1970-01-01T14:26:16.313Z</time>
    </trkpt>
    <trkpt lat="56.371492" lon="60.987493">
        <ele>260.0</ele>
        <time>1970-01-01T14:26:17.313Z</time>
    </trkpt>
    <trkpt lat="56.371495" lon="60.987509">
        <ele>260.0</ele>
        <time>1970-01-01T14:26:18.313Z</time>
    </trkpt>
    <trkpt lat="56.371498" lon="60.987521">
        <ele>260.0</ele>
        <time>1970-01-01T14:26:19.313Z</time>
    </trkpt>
    <trkpt lat="56.371502" lon="60.987533">
        <ele>260.0</ele>
        <time>1970-01-01T14:26:20.313Z</time>
    </trkpt>
    <trkpt lat="56.371513" lon="60.98757">
        <ele>260.0</ele>
        <time>1970-01-01T14:26:21.313Z</time>
    </trkpt>
    <trkpt lat="56.37151" lon="60.987599">
        <ele>260.0</ele>
        <time>1970-01-01T14:26:22.313Z</time>
    </trkpt>
    <trkpt lat="56.371505" lon="60.987619">
        <ele>260.1</ele>
        <time>1970-01-01T14:26:23.313Z</time>
    </trkpt>
    <trkpt lat="56.371503" lon="60.987652">
        <ele>260.1</ele>
        <time>1970-01-01T14:26:24.313Z</time>
    </trkpt>
    <trkpt lat="56.371508" lon="60.987681">
        <ele>260.1</ele>
        <time>1970-01-01T14:26:25.313Z</time>
    </trkpt>
    <trkpt lat="56.371512" lon="60.987696">
        <ele>260.1</ele>
        <time>1970-01-01T14:26:26.313Z</time>
    </trkpt>
    <trkpt lat="56.371516" lon="60.987711">
        <ele>260.1</ele>
        <time>1970-01-01T14:26:27.313Z</time>
    </trkpt>
    <trkpt lat="56.371519" lon="60.987746">
        <ele>260.1</ele>
        <time>1970-01-01T14:26:28.313Z</time>
    </trkpt>
    <trkpt lat="56.371519" lon="60.987776">
        <ele>260.1</ele>
        <time>1970-01-01T14:26:29.313Z</time>
    </trkpt>
    <trkpt lat="56.371517" lon="60.987802">
        <ele>260.1</ele>
        <time>1970-01-01T14:26:30.313Z</time>
    </trkpt>
    <trkpt lat="56.371519" lon="60.987811">
        <ele>260.1</ele>
        <time>1970-01-01T14:26:31.313Z</time>
    </trkpt>
    <trkpt lat="56.371524" lon="60.987835">
        <ele>260.1</ele>
        <time>1970-01-01T14:26:32.313Z</time>
    </trkpt>
    <trkpt lat="56.371524" lon="60.987857">
        <ele>260.2</ele>
        <time>1970-01-01T14:26:33.313Z</time>
    </trkpt>
    <trkpt lat="56.371521" lon="60.987876">
        <ele>260.2</ele>
        <time>1970-01-01T14:26:34.313Z</time>
    </trkpt>
    <trkpt lat="56.37152" lon="60.987902">
        <ele>260.2</ele>
        <time>1970-01-01T14:26:35.313Z</time>
    </trkpt>
    <trkpt lat="56.371521" lon="60.98792">
        <ele>260.2</ele>
        <time>1970-01-01T14:26:36.313Z</time>
    </trkpt>
    <trkpt lat="56.371518" lon="60.987937">
        <ele>260.2</ele>
        <time>1970-01-01T14:26:37.313Z</time>
    </trkpt>
    <trkpt lat="56.371515" lon="60.987954">
        <ele>260.2</ele>
        <time>1970-01-01T14:26:38.313Z</time>
    </trkpt>
    <trkpt lat="56.371512" lon="60.987972">
        <ele>260.2</ele>
        <time>1970-01-01T14:26:39.313Z</time>
    </trkpt>
    <trkpt lat="56.371512" lon="60.988001">
        <ele>260.2</ele>
        <time>1970-01-01T14:26:40.313Z</time>
    </trkpt>
    <trkpt lat="56.371507" lon="60.988016">
        <ele>260.2</ele>
        <time>1970-01-01T14:26:41.313Z</time>
    </trkpt>
    <trkpt lat="56.371503" lon="60.988044">
        <ele>260.2</ele>
        <time>1970-01-01T14:26:42.313Z</time>
    </trkpt>
    <trkpt lat="56.371502" lon="60.988061">
        <ele>260.2</ele>
        <time>1970-01-01T14:26:43.313Z</time>
    </trkpt>
    <trkpt lat="56.371506" lon="60.988088">
        <ele>260.3</ele>
        <time>1970-01-01T14:26:44.313Z</time>
    </trkpt>
    <trkpt lat="56.371506" lon="60.988098">
        <ele>260.3</ele>
        <time>1970-01-01T14:26:45.313Z</time>
    </trkpt>
    <trkpt lat="56.371508" lon="60.98811">
        <ele>260.3</ele>
        <time>1970-01-01T14:26:46.313Z</time>
    </trkpt>
    <trkpt lat="56.37151" lon="60.988124">
        <ele>260.3</ele>
        <time>1970-01-01T14:26:47.313Z</time>
    </trkpt>
    <trkpt lat="56.371512" lon="60.988138">
        <ele>260.3</ele>
        <time>1970-01-01T14:26:48.313Z</time>
    </trkpt>
    <trkpt lat="56.371514" lon="60.988174">
        <ele>260.3</ele>
        <time>1970-01-01T14:26:49.313Z</time>
    </trkpt>
    <trkpt lat="56.371514" lon="60.988211">
        <ele>260.3</ele>
        <time>1970-01-01T14:26:50.313Z</time>
    </trkpt>
    <trkpt lat="56.371512" lon="60.988231">
        <ele>260.3</ele>
        <time>1970-01-01T14:26:51.313Z</time>
    </trkpt>
    <trkpt lat="56.371511" lon="60.988253">
        <ele>260.3</ele>
        <time>1970-01-01T14:26:52.313Z</time>
    </trkpt>
    <trkpt lat="56.37151" lon="60.988276">
        <ele>260.3</ele>
        <time>1970-01-01T14:26:53.313Z</time>
    </trkpt>
    <trkpt lat="56.371509" lon="60.988298">
        <ele>260.3</ele>
        <time>1970-01-01T14:26:54.313Z</time>
    </trkpt>
    <trkpt lat="56.371512" lon="60.988335">
        <ele>260.4</ele>
        <time>1970-01-01T14:26:55.313Z</time>
    </trkpt>
    <trkpt lat="56.37151" lon="60.988356">
        <ele>260.4</ele>
        <time>1970-01-01T14:26:56.313Z</time>
    </trkpt>
    <trkpt lat="56.371509" lon="60.988402">
        <ele>260.4</ele>
        <time>1970-01-01T14:26:57.313Z</time>
    </trkpt>
    <trkpt lat="56.371506" lon="60.988439">
        <ele>260.4</ele>
        <time>1970-01-01T14:26:58.313Z</time>
    </trkpt>
    <trkpt lat="56.371502" lon="60.988477">
        <ele>260.4</ele>
        <time>1970-01-01T14:26:59.313Z</time>
    </trkpt>
    <trkpt lat="56.371499" lon="60.988514">
        <ele>260.4</ele>
        <time>1970-01-01T14:27:00.313Z</time>
    </trkpt>
    <trkpt lat="56.371506" lon="60.988595">
        <ele>260.5</ele>
        <time>1970-01-01T14:27:01.313Z</time>
    </trkpt>
    <trkpt lat="56.371497" lon="60.988625">
        <ele>260.5</ele>
        <time>1970-01-01T14:27:02.313Z</time>
    </trkpt>
    <trkpt lat="56.371484" lon="60.98864">
        <ele>260.5</ele>
        <time>1970-01-01T14:27:03.313Z</time>
    </trkpt>
    <trkpt lat="56.371481" lon="60.988664">
        <ele>260.5</ele>
        <time>1970-01-01T14:27:04.313Z</time>
    </trkpt>
    <trkpt lat="56.371477" lon="60.988676">
        <ele>260.5</ele>
        <time>1970-01-01T14:27:05.313Z</time>
    </trkpt>
    <trkpt lat="56.371475" lon="60.98869">
        <ele>260.5</ele>
        <time>1970-01-01T14:27:06.313Z</time>
    </trkpt>
    <trkpt lat="56.371475" lon="60.988712">
        <ele>260.5</ele>
        <time>1970-01-01T14:27:07.313Z</time>
    </trkpt>
    <trkpt lat="56.371468" lon="60.988777">
        <ele>260.6</ele>
        <time>1970-01-01T14:27:08.313Z</time>
    </trkpt>
    <trkpt lat="56.371467" lon="60.988806">
        <ele>260.6</ele>
        <time>1970-01-01T14:27:09.313Z</time>
    </trkpt>
    <trkpt lat="56.371463" lon="60.988836">
        <ele>260.6</ele>
        <time>1970-01-01T14:27:10.313Z</time>
    </trkpt>
    <trkpt lat="56.371467" lon="60.988854">
        <ele>260.6</ele>
        <time>1970-01-01T14:27:11.313Z</time>
    </trkpt>
    <trkpt lat="56.371465" lon="60.988913">
        <ele>260.6</ele>
        <time>1970-01-01T14:27:12.313Z</time>
    </trkpt>
    <trkpt lat="56.371461" lon="60.988945">
        <ele>260.6</ele>
        <time>1970-01-01T14:27:13.313Z</time>
    </trkpt>
    <trkpt lat="56.371455" lon="60.989006">
        <ele>260.7</ele>
        <time>1970-01-01T14:27:14.313Z</time>
    </trkpt>
    <trkpt lat="56.371454" lon="60.989027">
        <ele>260.7</ele>
        <time>1970-01-01T14:27:15.313Z</time>
    </trkpt>
    <trkpt lat="56.371447" lon="60.989082">
        <ele>260.7</ele>
        <time>1970-01-01T14:27:16.313Z</time>
    </trkpt>
    <trkpt lat="56.371443" lon="60.989094">
        <ele>260.7</ele>
        <time>1970-01-01T14:27:17.313Z</time>
    </trkpt>
    <trkpt lat="56.371429" lon="60.98914">
        <ele>260.7</ele>
        <time>1970-01-01T14:27:18.313Z</time>
    </trkpt>
    <trkpt lat="56.371427" lon="60.989155">
        <ele>260.7</ele>
        <time>1970-01-01T14:27:19.313Z</time>
    </trkpt>
    <trkpt lat="56.371421" lon="60.989204">
        <ele>260.7</ele>
        <time>1970-01-01T14:27:20.313Z</time>
    </trkpt>
    <trkpt lat="56.371425" lon="60.989223">
        <ele>260.7</ele>
        <time>1970-01-01T14:27:21.313Z</time>
    </trkpt>
    <trkpt lat="56.371424" lon="60.989257">
        <ele>260.8</ele>
        <time>1970-01-01T14:27:22.313Z</time>
    </trkpt>
    <trkpt lat="56.371422" lon="60.98928">
        <ele>260.8</ele>
        <time>1970-01-01T14:27:23.313Z</time>
    </trkpt>
    <trkpt lat="56.371415" lon="60.989339">
        <ele>260.8</ele>
        <time>1970-01-01T14:27:24.313Z</time>
    </trkpt>
    <trkpt lat="56.371411" lon="60.989354">
        <ele>260.8</ele>
        <time>1970-01-01T14:27:25.313Z</time>
    </trkpt>
    <trkpt lat="56.37141" lon="60.989387">
        <ele>260.8</ele>
        <time>1970-01-01T14:27:26.313Z</time>
    </trkpt>
    <trkpt lat="56.371405" lon="60.989443">
        <ele>260.8</ele>
        <time>1970-01-01T14:27:27.313Z</time>
    </trkpt>
    <trkpt lat="56.371404" lon="60.989471">
        <ele>260.9</ele>
        <time>1970-01-01T14:27:28.313Z</time>
    </trkpt>
    <trkpt lat="56.371404" lon="60.989539">
        <ele>260.9</ele>
        <time>1970-01-01T14:27:29.313Z</time>
    </trkpt>
    <trkpt lat="56.371405" lon="60.989556">
        <ele>260.9</ele>
        <time>1970-01-01T14:27:30.313Z</time>
    </trkpt>
    <trkpt lat="56.371408" lon="60.989618">
        <ele>260.9</ele>
        <time>1970-01-01T14:27:31.313Z</time>
    </trkpt>
    <trkpt lat="56.371405" lon="60.989645">
        <ele>260.9</ele>
        <time>1970-01-01T14:27:32.313Z</time>
    </trkpt>
    <trkpt lat="56.3714" lon="60.989706">
        <ele>261.0</ele>
        <time>1970-01-01T14:27:33.313Z</time>
    </trkpt>
    <trkpt lat="56.371396" lon="60.989734">
        <ele>261.0</ele>
        <time>1970-01-01T14:27:34.313Z</time>
    </trkpt>
    <trkpt lat="56.371386" lon="60.989796">
        <ele>261.0</ele>
        <time>1970-01-01T14:27:35.313Z</time>
    </trkpt>
    <trkpt lat="56.371381" lon="60.989859">
        <ele>261.0</ele>
        <time>1970-01-01T14:27:36.313Z</time>
    </trkpt>
    <trkpt lat="56.37138" lon="60.989908">
        <ele>261.0</ele>
        <time>1970-01-01T14:27:37.313Z</time>
    </trkpt>
    <trkpt lat="56.371383" lon="60.989935">
        <ele>261.0</ele>
        <time>1970-01-01T14:27:38.313Z</time>
    </trkpt>
    <trkpt lat="56.371382" lon="60.990005">
        <ele>260.9</ele>
        <time>1970-01-01T14:27:39.313Z</time>
    </trkpt>
    <trkpt lat="56.37138" lon="60.99004">
        <ele>260.9</ele>
        <time>1970-01-01T14:27:40.313Z</time>
    </trkpt>
    <trkpt lat="56.371379" lon="60.990107">
        <ele>260.9</ele>
        <time>1970-01-01T14:27:41.313Z</time>
    </trkpt>
    <trkpt lat="56.371387" lon="60.990129">
        <ele>260.9</ele>
        <time>1970-01-01T14:27:42.313Z</time>
    </trkpt>
    <trkpt lat="56.371397" lon="60.990145">
        <ele>260.9</ele>
        <time>1970-01-01T14:27:43.313Z</time>
    </trkpt>
    <trkpt lat="56.371402" lon="60.990164">
        <ele>260.9</ele>
        <time>1970-01-01T14:27:44.313Z</time>
    </trkpt>
    <trkpt lat="56.371415" lon="60.990213">
        <ele>260.9</ele>
        <time>1970-01-01T14:27:45.313Z</time>
    </trkpt>
    <trkpt lat="56.37142" lon="60.990233">
        <ele>260.9</ele>
        <time>1970-01-01T14:27:46.313Z</time>
    </trkpt>
    <trkpt lat="56.371434" lon="60.990291">
        <ele>260.9</ele>
        <time>1970-01-01T14:27:47.313Z</time>
    </trkpt>
    <trkpt lat="56.371442" lon="60.990316">
        <ele>260.9</ele>
        <time>1970-01-01T14:27:48.313Z</time>
    </trkpt>
    <trkpt lat="56.37146" lon="60.990332">
        <ele>260.9</ele>
        <time>1970-01-01T14:27:49.313Z</time>
    </trkpt>
    <trkpt lat="56.371464" lon="60.990342">
        <ele>260.9</ele>
        <time>1970-01-01T14:27:50.313Z</time>
    </trkpt>
    <trkpt lat="56.371467" lon="60.990351">
        <ele>260.9</ele>
        <time>1970-01-01T14:27:51.313Z</time>
    </trkpt>
    <trkpt lat="56.371486" lon="60.990354">
        <ele>260.9</ele>
        <time>1970-01-01T14:27:52.313Z</time>
    </trkpt>
    <trkpt lat="56.371495" lon="60.99036">
        <ele>260.9</ele>
        <time>1970-01-01T14:27:53.313Z</time>
    </trkpt>
    <trkpt lat="56.371513" lon="60.990409">
        <ele>260.9</ele>
        <time>1970-01-01T14:27:54.313Z</time>
    </trkpt>
    <trkpt lat="56.371518" lon="60.990441">
        <ele>260.9</ele>
        <time>1970-01-01T14:27:55.313Z</time>
    </trkpt>
    <trkpt lat="56.371531" lon="60.990519">
        <ele>260.9</ele>
        <time>1970-01-01T14:27:56.313Z</time>
    </trkpt>
    <trkpt lat="56.371528" lon="60.990571">
        <ele>260.9</ele>
        <time>1970-01-01T14:27:57.313Z</time>
    </trkpt>
    <trkpt lat="56.371527" lon="60.990598">
        <ele>260.8</ele>
        <time>1970-01-01T14:27:58.313Z</time>
    </trkpt>
    <trkpt lat="56.371535" lon="60.990665">
        <ele>260.8</ele>
        <time>1970-01-01T14:27:59.313Z</time>
    </trkpt>
    <trkpt lat="56.371532" lon="60.990714">
        <ele>260.8</ele>
        <time>1970-01-01T14:28:00.313Z</time>
    </trkpt>
    <trkpt lat="56.371554" lon="60.990746">
        <ele>260.8</ele>
        <time>1970-01-01T14:28:01.313Z</time>
    </trkpt>
    <trkpt lat="56.371565" lon="60.990797">
        <ele>260.8</ele>
        <time>1970-01-01T14:28:02.313Z</time>
    </trkpt>
    <trkpt lat="56.371563" lon="60.990818">
        <ele>260.8</ele>
        <time>1970-01-01T14:28:03.313Z</time>
    </trkpt>
    <trkpt lat="56.37157" lon="60.990846">
        <ele>260.8</ele>
        <time>1970-01-01T14:28:04.313Z</time>
    </trkpt>
    <trkpt lat="56.37159" lon="60.990889">
        <ele>260.8</ele>
        <time>1970-01-01T14:28:05.313Z</time>
    </trkpt>
    <trkpt lat="56.371585" lon="60.990917">
        <ele>260.8</ele>
        <time>1970-01-01T14:28:06.313Z</time>
    </trkpt>
    <trkpt lat="56.371593" lon="60.990969">
        <ele>260.8</ele>
        <time>1970-01-01T14:28:07.313Z</time>
    </trkpt>
    <trkpt lat="56.371599" lon="60.990996">
        <ele>260.8</ele>
        <time>1970-01-01T14:28:08.313Z</time>
    </trkpt>
    <trkpt lat="56.371609" lon="60.991024">
        <ele>260.8</ele>
        <time>1970-01-01T14:28:09.313Z</time>
    </trkpt>
    <trkpt lat="56.371632" lon="60.991066">
        <ele>260.8</ele>
        <time>1970-01-01T14:28:10.313Z</time>
    </trkpt>
    <trkpt lat="56.371638" lon="60.991099">
        <ele>260.8</ele>
        <time>1970-01-01T14:28:11.313Z</time>
    </trkpt>
    <trkpt lat="56.371647" lon="60.991118">
        <ele>260.8</ele>
        <time>1970-01-01T14:28:12.313Z</time>
    </trkpt>
    <trkpt lat="56.371665" lon="60.991136">
        <ele>260.8</ele>
        <time>1970-01-01T14:28:13.313Z</time>
    </trkpt>
    <trkpt lat="56.371655" lon="60.991174">
        <ele>260.8</ele>
        <time>1970-01-01T14:28:14.313Z</time>
    </trkpt>
    <trkpt lat="56.371652" lon="60.991187">
        <ele>260.8</ele>
        <time>1970-01-01T14:28:15.313Z</time>
    </trkpt>
    <trkpt lat="56.37165" lon="60.991241">
        <ele>260.7</ele>
        <time>1970-01-01T14:28:16.313Z</time>
    </trkpt>
    <trkpt lat="56.37166" lon="60.991287">
        <ele>260.7</ele>
        <time>1970-01-01T14:28:17.313Z</time>
    </trkpt>
    <trkpt lat="56.371667" lon="60.991337">
        <ele>260.7</ele>
        <time>1970-01-01T14:28:18.313Z</time>
    </trkpt>
    <trkpt lat="56.371667" lon="60.991359">
        <ele>260.7</ele>
        <time>1970-01-01T14:28:19.313Z</time>
    </trkpt>
    <trkpt lat="56.371659" lon="60.991391">
        <ele>260.7</ele>
        <time>1970-01-01T14:28:20.313Z</time>
    </trkpt>
    <trkpt lat="56.371663" lon="60.991411">
        <ele>260.7</ele>
        <time>1970-01-01T14:28:21.313Z</time>
    </trkpt>
    <trkpt lat="56.371678" lon="60.991466">
        <ele>260.7</ele>
        <time>1970-01-01T14:28:22.313Z</time>
    </trkpt>
    <trkpt lat="56.371683" lon="60.991488">
        <ele>260.7</ele>
        <time>1970-01-01T14:28:23.313Z</time>
    </trkpt>
    <trkpt lat="56.371694" lon="60.991554">
        <ele>260.7</ele>
        <time>1970-01-01T14:28:24.313Z</time>
    </trkpt>
    <trkpt lat="56.371698" lon="60.991572">
        <ele>260.7</ele>
        <time>1970-01-01T14:28:25.313Z</time>
    </trkpt>
    <trkpt lat="56.371709" lon="60.991624">
        <ele>260.7</ele>
        <time>1970-01-01T14:28:26.313Z</time>
    </trkpt>
    <trkpt lat="56.371712" lon="60.991672">
        <ele>260.7</ele>
        <time>1970-01-01T14:28:27.313Z</time>
    </trkpt>
    <trkpt lat="56.371711" lon="60.991689">
        <ele>260.7</ele>
        <time>1970-01-01T14:28:28.313Z</time>
    </trkpt>
    <trkpt lat="56.371703" lon="60.991738">
        <ele>260.7</ele>
        <time>1970-01-01T14:28:29.313Z</time>
    </trkpt>
    <trkpt lat="56.371703" lon="60.991758">
        <ele>260.7</ele>
        <time>1970-01-01T14:28:30.313Z</time>
    </trkpt>
    <trkpt lat="56.371706" lon="60.991811">
        <ele>260.7</ele>
        <time>1970-01-01T14:28:31.313Z</time>
    </trkpt>
    <trkpt lat="56.371707" lon="60.991823">
        <ele>260.7</ele>
        <time>1970-01-01T14:28:32.313Z</time>
    </trkpt>
    <trkpt lat="56.371707" lon="60.991835">
        <ele>260.7</ele>
        <time>1970-01-01T14:28:33.313Z</time>
    </trkpt>
    <trkpt lat="56.371708" lon="60.991847">
        <ele>260.7</ele>
        <time>1970-01-01T14:28:34.313Z</time>
    </trkpt>
    <trkpt lat="56.371708" lon="60.991859">
        <ele>260.7</ele>
        <time>1970-01-01T14:28:35.313Z</time>
    </trkpt>
    <trkpt lat="56.371709" lon="60.991871">
        <ele>260.7</ele>
        <time>1970-01-01T14:28:36.313Z</time>
    </trkpt>
    <trkpt lat="56.371709" lon="60.991883">
        <ele>260.7</ele>
        <time>1970-01-01T14:28:37.313Z</time>
    </trkpt>
    <trkpt lat="56.37171" lon="60.991895">
        <ele>260.7</ele>
        <time>1970-01-01T14:28:38.313Z</time>
    </trkpt>
    <trkpt lat="56.37171" lon="60.991907">
        <ele>260.6</ele>
        <time>1970-01-01T14:28:39.313Z</time>
    </trkpt>
    <trkpt lat="56.371711" lon="60.991919">
        <ele>260.6</ele>
        <time>1970-01-01T14:28:40.313Z</time>
    </trkpt>
    <trkpt lat="56.371711" lon="60.991931">
        <ele>260.6</ele>
        <time>1970-01-01T14:28:41.313Z</time>
    </trkpt>
    <trkpt lat="56.371711" lon="60.991946">
        <ele>260.6</ele>
        <time>1970-01-01T14:28:42.313Z</time>
    </trkpt>
    <trkpt lat="56.371716" lon="60.991955">
        <ele>260.6</ele>
        <time>1970-01-01T14:28:43.313Z</time>
    </trkpt>
    <trkpt lat="56.37172" lon="60.99196">
        <ele>260.6</ele>
        <time>1970-01-01T14:28:44.313Z</time>
    </trkpt>
    <trkpt lat="56.371718" lon="60.991974">
        <ele>260.6</ele>
        <time>1970-01-01T14:28:45.313Z</time>
    </trkpt>
    <trkpt lat="56.371727" lon="60.991989">
        <ele>260.6</ele>
        <time>1970-01-01T14:28:46.313Z</time>
    </trkpt>
    <trkpt lat="56.371718" lon="60.992">
        <ele>260.6</ele>
        <time>1970-01-01T14:28:47.313Z</time>
    </trkpt>
    <trkpt lat="56.371719" lon="60.99201">
        <ele>260.6</ele>
        <time>1970-01-01T14:28:48.313Z</time>
    </trkpt>
    <trkpt lat="56.371723" lon="60.992026">
        <ele>260.6</ele>
        <time>1970-01-01T14:28:49.313Z</time>
    </trkpt>
    <trkpt lat="56.371717" lon="60.992051">
        <ele>260.6</ele>
        <time>1970-01-01T14:28:50.313Z</time>
    </trkpt>
    <trkpt lat="56.371733" lon="60.992127">
        <ele>260.6</ele>
        <time>1970-01-01T14:28:51.313Z</time>
    </trkpt>
    <trkpt lat="56.371722" lon="60.992203">
        <ele>260.6</ele>
        <time>1970-01-01T14:28:52.313Z</time>
    </trkpt>
    <trkpt lat="56.371706" lon="60.992226">
        <ele>260.6</ele>
        <time>1970-01-01T14:28:53.313Z</time>
    </trkpt>
    <trkpt lat="56.371698" lon="60.992272">
        <ele>260.6</ele>
        <time>1970-01-01T14:28:54.313Z</time>
    </trkpt>
    <trkpt lat="56.371706" lon="60.992299">
        <ele>260.6</ele>
        <time>1970-01-01T14:28:55.313Z</time>
    </trkpt>
    <trkpt lat="56.371707" lon="60.992325">
        <ele>260.6</ele>
        <time>1970-01-01T14:28:56.313Z</time>
    </trkpt>
    <trkpt lat="56.371709" lon="60.992341">
        <ele>260.6</ele>
        <time>1970-01-01T14:28:57.313Z</time>
    </trkpt>
    <trkpt lat="56.371712" lon="60.992358">
        <ele>260.6</ele>
        <time>1970-01-01T14:28:58.313Z</time>
    </trkpt>
    <trkpt lat="56.371721" lon="60.992385">
        <ele>260.6</ele>
        <time>1970-01-01T14:28:59.313Z</time>
    </trkpt>
    <trkpt lat="56.371726" lon="60.992404">
        <ele>260.6</ele>
        <time>1970-01-01T14:29:00.313Z</time>
    </trkpt>
    <trkpt lat="56.371735" lon="60.992453">
        <ele>260.6</ele>
        <time>1970-01-01T14:29:01.313Z</time>
    </trkpt>
    <trkpt lat="56.371746" lon="60.992481">
        <ele>260.6</ele>
        <time>1970-01-01T14:29:02.313Z</time>
    </trkpt>
    <trkpt lat="56.371752" lon="60.992495">
        <ele>260.6</ele>
        <time>1970-01-01T14:29:03.313Z</time>
    </trkpt>
    <trkpt lat="56.371757" lon="60.992509">
        <ele>260.6</ele>
        <time>1970-01-01T14:29:04.313Z</time>
    </trkpt>
    <trkpt lat="56.371773" lon="60.992563">
        <ele>260.5</ele>
        <time>1970-01-01T14:29:05.313Z</time>
    </trkpt>
    <trkpt lat="56.371789" lon="60.992613">
        <ele>260.5</ele>
        <time>1970-01-01T14:29:06.313Z</time>
    </trkpt>
    <trkpt lat="56.37181" lon="60.992699">
        <ele>260.5</ele>
        <time>1970-01-01T14:29:07.313Z</time>
    </trkpt>
    <trkpt lat="56.371815" lon="60.992737">
        <ele>260.5</ele>
        <time>1970-01-01T14:29:08.313Z</time>
    </trkpt>
    <trkpt lat="56.37181" lon="60.992732">
        <ele>260.5</ele>
        <time>1970-01-01T14:29:09.313Z</time>
    </trkpt>
    <trkpt lat="56.37182" lon="60.992751">
        <ele>260.5</ele>
        <time>1970-01-01T14:29:10.313Z</time>
    </trkpt>
    <trkpt lat="56.371822" lon="60.992771">
        <ele>260.5</ele>
        <time>1970-01-01T14:29:11.313Z</time>
    </trkpt>
    <trkpt lat="56.371825" lon="60.99279">
        <ele>260.5</ele>
        <time>1970-01-01T14:29:12.313Z</time>
    </trkpt>
    <trkpt lat="56.371835" lon="60.992825">
        <ele>260.5</ele>
        <time>1970-01-01T14:29:13.313Z</time>
    </trkpt>
    <trkpt lat="56.371836" lon="60.992847">
        <ele>260.5</ele>
        <time>1970-01-01T14:29:14.313Z</time>
    </trkpt>
    <trkpt lat="56.371839" lon="60.992863">
        <ele>260.5</ele>
        <time>1970-01-01T14:29:15.313Z</time>
    </trkpt>
    <trkpt lat="56.371844" lon="60.992882">
        <ele>260.5</ele>
        <time>1970-01-01T14:29:16.313Z</time>
    </trkpt>
    <trkpt lat="56.371857" lon="60.992903">
        <ele>260.5</ele>
        <time>1970-01-01T14:29:17.313Z</time>
    </trkpt>
    <trkpt lat="56.37187" lon="60.99292">
        <ele>260.5</ele>
        <time>1970-01-01T14:29:18.313Z</time>
    </trkpt>
    <trkpt lat="56.371883" lon="60.992928">
        <ele>260.5</ele>
        <time>1970-01-01T14:29:19.313Z</time>
    </trkpt>
    <trkpt lat="56.371892" lon="60.992933">
        <ele>260.5</ele>
        <time>1970-01-01T14:29:20.313Z</time>
    </trkpt>
    <trkpt lat="56.3719" lon="60.99293">
        <ele>260.5</ele>
        <time>1970-01-01T14:29:21.313Z</time>
    </trkpt>
    <trkpt lat="56.371922" lon="60.992938">
        <ele>260.5</ele>
        <time>1970-01-01T14:29:22.313Z</time>
    </trkpt>
    <trkpt lat="56.371925" lon="60.992961">
        <ele>260.5</ele>
        <time>1970-01-01T14:29:23.313Z</time>
    </trkpt>
    <trkpt lat="56.371927" lon="60.992979">
        <ele>260.5</ele>
        <time>1970-01-01T14:29:24.313Z</time>
    </trkpt>
    <trkpt lat="56.371939" lon="60.993028">
        <ele>260.5</ele>
        <time>1970-01-01T14:29:25.313Z</time>
    </trkpt>
    <trkpt lat="56.371938" lon="60.993041">
        <ele>260.5</ele>
        <time>1970-01-01T14:29:26.313Z</time>
    </trkpt>
    <trkpt lat="56.371937" lon="60.993055">
        <ele>260.5</ele>
        <time>1970-01-01T14:29:27.313Z</time>
    </trkpt>
    <trkpt lat="56.371936" lon="60.993069">
        <ele>260.5</ele>
        <time>1970-01-01T14:29:28.313Z</time>
    </trkpt>
    <trkpt lat="56.371939" lon="60.993096">
        <ele>260.5</ele>
        <time>1970-01-01T14:29:29.313Z</time>
    </trkpt>
    <trkpt lat="56.371936" lon="60.993107">
        <ele>260.4</ele>
        <time>1970-01-01T14:29:30.313Z</time>
    </trkpt>
    <trkpt lat="56.371944" lon="60.993116">
        <ele>260.4</ele>
        <time>1970-01-01T14:29:31.313Z</time>
    </trkpt>
    <trkpt lat="56.37196" lon="60.993126">
        <ele>260.4</ele>
        <time>1970-01-01T14:29:32.313Z</time>
    </trkpt>
    <trkpt lat="56.371964" lon="60.993134">
        <ele>260.4</ele>
        <time>1970-01-01T14:29:33.313Z</time>
    </trkpt>
    <trkpt lat="56.37197" lon="60.993172">
        <ele>260.4</ele>
        <time>1970-01-01T14:29:34.313Z</time>
    </trkpt>
    <trkpt lat="56.371978" lon="60.993176">
        <ele>260.4</ele>
        <time>1970-01-01T14:29:35.313Z</time>
    </trkpt>
    <trkpt lat="56.372007" lon="60.993203">
        <ele>260.4</ele>
        <time>1970-01-01T14:29:36.313Z</time>
    </trkpt>
    <trkpt lat="56.372037" lon="60.993262">
        <ele>260.4</ele>
        <time>1970-01-01T14:29:37.313Z</time>
    </trkpt>
    <trkpt lat="56.372034" lon="60.993323">
        <ele>260.4</ele>
        <time>1970-01-01T14:29:38.313Z</time>
    </trkpt>
    <trkpt lat="56.372004" lon="60.993321">
        <ele>260.4</ele>
        <time>1970-01-01T14:29:39.313Z</time>
    </trkpt>
    <trkpt lat="56.37200283510224" lon="60.9933360425415">
        <ele>260.4</ele>
        <time>1970-01-01T14:29:39.813Z</time>
    </trkpt>
    <trkpt lat="56.372002" lon="60.993363">
        <ele>260.4</ele>
        <time>1970-01-01T14:29:40.313Z</time>
    </trkpt>
    <trkpt lat="56.372009320014115" lon="60.99337533116341">
        <ele>262.6</ele>
        <time>1970-01-01T14:29:40.888Z</time>
    </trkpt>
    <trkpt lat="56.372141520654814" lon="60.99352754652501">
        <ele>261.7</ele>
        <time>1970-01-01T14:29:49.746Z</time>
    </trkpt>
    <trkpt lat="56.37227372083685" lon="60.993679761886604">
        <ele>261.2</ele>
        <time>1970-01-01T14:29:58.604Z</time>
    </trkpt>
    <trkpt lat="56.372398493621674" lon="60.994114279747016">
        <ele>261.4</ele>
        <time>1970-01-01T14:30:13.919Z</time>
    </trkpt>
    <trkpt lat="56.37252326599796" lon="60.99454879760743">
        <ele>262.6</ele>
        <time>1970-01-01T14:30:29.234Z</time>
    </trkpt>
    <trkpt lat="56.37278469250926" lon="60.99551439285279">
        <ele>262.4</ele>
        <time>1970-01-01T14:31:02.864Z</time>
    </trkpt>
    <trkpt lat="56.37304611722709" lon="60.996479988098145">
        <ele>262.0</ele>
        <time>1970-01-01T14:31:36.494Z</time>
    </trkpt>
    <trkpt lat="56.37304611722709" lon="60.99674820899964">
        <ele>261.3</ele>
        <time>1970-01-01T14:31:44.886Z</time>
    </trkpt>
    <trkpt lat="56.37304611722709" lon="60.99701642990113">
        <ele>261.4</ele>
        <time>1970-01-01T14:31:53.278Z</time>
    </trkpt>
    <trkpt lat="56.373058000126214" lon="60.998169779777534">
        <ele>260.1</ele>
        <time>1970-01-01T14:32:29.371Z</time>
    </trkpt>
    <trkpt lat="56.37306988302162" lon="60.99932312965394">
        <ele>259.4</ele>
        <time>1970-01-01T14:33:05.464Z</time>
    </trkpt>
    <trkpt lat="56.373058000126214" lon="60.99977374076843">
        <ele>259.3</ele>
        <time>1970-01-01T14:33:19.579Z</time>
    </trkpt>
    <trkpt lat="56.37304611722709" lon="61.00022435188294">
        <ele>259.2</ele>
        <time>1970-01-01T14:33:33.694Z</time>
    </trkpt>
    <trkpt lat="56.37304017577617" lon="61.000615954399116">
        <ele>259.3</ele>
        <time>1970-01-01T14:33:45.951Z</time>
    </trkpt>
    <trkpt lat="56.37303423432431" lon="61.00100755691529">
        <ele>259.3</ele>
        <time>1970-01-01T14:33:58.208Z</time>
    </trkpt>
    <trkpt lat="56.37309364880132" lon="61.00150108337403">
        <ele>258.8</ele>
        <time>1970-01-01T14:34:14.010Z</time>
    </trkpt>
    <trkpt lat="56.37315306318567" lon="61.00199460983277">
        <ele>255.6</ele>
        <time>1970-01-01T14:34:29.812Z</time>
    </trkpt>
    <trkpt lat="56.37319762391313" lon="61.00206971168518">
        <ele>254.8</ele>
        <time>1970-01-01T14:34:33.265Z</time>
    </trkpt>
    <trkpt lat="56.37369456545637" lon="61.00278827354247">
        <ele>244.2</ele>
        <time>1970-01-01T14:35:09.234Z</time>
    </trkpt>
    <trkpt lat="56.37424371850126" lon="61.003582342490226">
        <ele>241.0</ele>
        <time>1970-01-01T14:35:48.983Z</time>
    </trkpt>
    <trkpt lat="56.37479286363194" lon="61.004376411437995">
        <ele>241.4</ele>
        <time>1970-01-01T14:36:28.731Z</time>
    </trkpt>
    <trkpt lat="56.37485639698816" lon="61.00507829749249">
        <ele>239.9</ele>
        <time>1970-01-01T14:36:50.982Z</time>
    </trkpt>
    <trkpt lat="56.37496988553104" lon="61.00633206740791">
        <ele>239.1</ele>
        <time>1970-01-01T14:37:30.730Z</time>
    </trkpt>
    <trkpt lat="56.37508337373591" lon="61.00758583732334">
        <ele>239.3</ele>
        <time>1970-01-01T14:38:10.477Z</time>
    </trkpt>
    <trkpt lat="56.37519686160279" lon="61.00883960723878">
        <ele>239.5</ele>
        <time>1970-01-01T14:38:50.224Z</time>
    </trkpt>
    <trkpt lat="56.375331736648924" lon="61.00885358234845">
        <ele>239.7</ele>
        <time>1970-01-01T14:38:57.857Z</time>
    </trkpt>
    <trkpt lat="56.3760340645221" lon="61.008926355015916">
        <ele>240.0</ele>
        <time>1970-01-01T14:39:37.604Z</time>
    </trkpt>
    <trkpt lat="56.37673637944956" lon="61.008999127683396">
        <ele>239.3</ele>
        <time>1970-01-01T14:40:17.350Z</time>
    </trkpt>
    <trkpt lat="56.3774386814314" lon="61.00907190035086">
        <ele>240.9</ele>
        <time>1970-01-01T14:40:57.095Z</time>
    </trkpt>
    <trkpt lat="56.3781409704678" lon="61.00914467301834">
        <ele>241.4</ele>
        <time>1970-01-01T14:41:36.840Z</time>
    </trkpt>
    <trkpt lat="56.378843246558844" lon="61.009217445685806">
        <ele>244.0</ele>
        <time>1970-01-01T14:42:16.584Z</time>
    </trkpt>
    <trkpt lat="56.37954550970471" lon="61.00929021835328">
        <ele>245.0</ele>
        <time>1970-01-01T14:42:56.327Z</time>
    </trkpt>
    <trkpt lat="56.37955505840844" lon="61.00987944352757">
        <ele>244.9</ele>
        <time>1970-01-01T14:43:14.768Z</time>
    </trkpt>
    <trkpt lat="56.379575637244336" lon="61.011149309397624">
        <ele>242.0</ele>
        <time>1970-01-01T14:43:54.511Z</time>
    </trkpt>
    <trkpt lat="56.37959621606913" lon="61.01241917526765">
        <ele>240.1</ele>
        <time>1970-01-01T14:44:34.254Z</time>
    </trkpt>
    <trkpt lat="56.379616794882786" lon="61.0136890411377">
        <ele>238.7</ele>
        <time>1970-01-01T14:45:13.997Z</time>
    </trkpt>
    <trkpt lat="56.379650640589816" lon="61.01433524936924">
        <ele>237.9</ele>
        <time>1970-01-01T14:45:34.303Z</time>
    </trkpt>
    <trkpt lat="56.379716883575625" lon="61.015600012990284">
        <ele>236.3</ele>
        <time>1970-01-01T14:46:14.046Z</time>
    </trkpt>
    <trkpt lat="56.37978312644627" lon="61.016864776611335">
        <ele>240.4</ele>
        <time>1970-01-01T14:46:53.789Z</time>
    </trkpt>
    <trkpt lat="56.380400923038195" lon="61.017369031906135">
        <ele>243.8</ele>
        <time>1970-01-01T14:47:32.093Z</time>
    </trkpt>
    <trkpt lat="56.381018709611475" lon="61.017873287200935">
        <ele>244.9</ele>
        <time>1970-01-01T14:48:10.397Z</time>
    </trkpt>
    <trkpt lat="56.381018709611475" lon="61.017862558364875">
        <ele>244.8</ele>
        <time>1970-01-01T14:48:10.677Z</time>
    </trkpt>
    <trkpt lat="56.3807868555113" lon="61.01895177918244">
        <ele>246.6</ele>
        <time>1970-01-01T14:48:33.436Z</time>
    </trkpt>
    <trkpt lat="56.38055500000001" lon="61.020041">
        <ele>246.8</ele>
        <time>1970-01-01T14:48:56.195Z</time>
    </trkpt>
    <trkpt lat="56.38065" lon="61.023731">
        <ele>248.7</ele>
        <time>1970-01-01T14:50:08.241Z</time>
    </trkpt>
    <trkpt lat="56.380864" lon="61.025147">
        <ele>251.1</ele>
        <time>1970-01-01T14:50:36.309Z</time>
    </trkpt>
    <trkpt lat="56.380769" lon="61.026907">
        <ele>263.0</ele>
        <time>1970-01-01T14:51:10.124Z</time>
    </trkpt>
    <trkpt lat="56.380175" lon="61.037722">
        <ele>270.4</ele>
        <time>1970-01-01T14:54:37.952Z</time>
    </trkpt>
    <trkpt lat="56.379819" lon="61.0427">
        <ele>270.7</ele>
        <time>1970-01-01T14:56:13.937Z</time>
    </trkpt>
    <trkpt lat="56.379557" lon="61.044803">
        <ele>266.6</ele>
        <time>1970-01-01T14:56:55.158Z</time>
    </trkpt>
    <trkpt lat="56.380033" lon="61.045361">
        <ele>265.6</ele>
        <time>1970-01-01T14:57:14.757Z</time>
    </trkpt>
    <trkpt lat="56.380555" lon="61.047678">
        <ele>262.9</ele>
        <time>1970-01-01T14:58:02.592Z</time>
    </trkpt>
    <trkpt lat="56.381078" lon="61.05094">
        <ele>261.8</ele>
        <time>1970-01-01T14:59:07.532Z</time>
    </trkpt>
    <trkpt lat="56.381078" lon="61.053343">
        <ele>261.8</ele>
        <time>1970-01-01T14:59:53.483Z</time>
    </trkpt>
    <trkpt lat="56.380674" lon="61.055317">
        <ele>261.1</ele>
        <time>1970-01-01T15:00:33.727Z</time>
    </trkpt>
    <trkpt lat="56.380128" lon="61.059523">
        <ele>259.0</ele>
        <time>1970-01-01T15:01:56.338Z</time>
    </trkpt>
    <trkpt lat="56.380246" lon="61.060638">
        <ele>256.7</ele>
        <time>1970-01-01T15:02:18.046Z</time>
    </trkpt>
    <trkpt lat="56.380365" lon="61.062355">
        <ele>262.0</ele>
        <time>1970-01-01T15:02:51.136Z</time>
    </trkpt>
    <trkpt lat="56.379652" lon="61.063857">
        <ele>262.5</ele>
        <time>1970-01-01T15:03:28.970Z</time>
    </trkpt>
    <trkpt lat="56.378654" lon="61.067419">
        <ele>264.1</ele>
        <time>1970-01-01T15:04:45.312Z</time>
    </trkpt>
    <trkpt lat="56.378108" lon="61.07008">
        <ele>257.8</ele>
        <time>1970-01-01T15:05:39.582Z</time>
    </trkpt>
    <trkpt lat="56.377751" lon="61.071239">
        <ele>259.0</ele>
        <time>1970-01-01T15:06:04.945Z</time>
    </trkpt>
    <trkpt lat="56.379201" lon="61.07038">
        <ele>257.1</ele>
        <time>1970-01-01T15:06:57.650Z</time>
    </trkpt>
    <trkpt lat="56.380389" lon="61.070552">
        <ele>259.9</ele>
        <time>1970-01-01T15:07:38.812Z</time>
    </trkpt>
    <trkpt lat="56.381197" lon="61.070294">
        <ele>259.1</ele>
        <time>1970-01-01T15:08:07.151Z</time>
    </trkpt>
    <trkpt lat="56.38191" lon="61.070895">
        <ele>257.7</ele>
        <time>1970-01-01T15:08:34.326Z</time>
    </trkpt>
    <trkpt lat="56.382979" lon="61.070852">
        <ele>261.7</ele>
        <time>1970-01-01T15:09:11.256Z</time>
    </trkpt>
    <trkpt lat="56.384167" lon="61.070294">
        <ele>263.6</ele>
        <time>1970-01-01T15:09:53.651Z</time>
    </trkpt>
    <trkpt lat="56.3864" lon="61.07214">
        <ele>259.3</ele>
        <time>1970-01-01T15:11:18.467Z</time>
    </trkpt>
    <trkpt lat="56.389203" lon="61.072655">
        <ele>255.4</ele>
        <time>1970-01-01T15:12:55.776Z</time>
    </trkpt>
    <trkpt lat="56.391128" lon="61.071367">
        <ele>256.9</ele>
        <time>1970-01-01T15:14:06.674Z</time>
    </trkpt>
    <trkpt lat="56.391531" lon="61.071668">
        <ele>257.2</ele>
        <time>1970-01-01T15:14:21.735Z</time>
    </trkpt>
    <trkpt lat="56.392078" lon="61.07244">
        <ele>252.7</ele>
        <time>1970-01-01T15:14:45.708Z</time>
    </trkpt>
    <trkpt lat="56.392885" lon="61.072183">
        <ele>251.8</ele>
        <time>1970-01-01T15:15:14.009Z</time>
    </trkpt>
    <trkpt lat="56.393812" lon="61.070766">
        <ele>253.9</ele>
        <time>1970-01-01T15:15:55.947Z</time>
    </trkpt>
    <trkpt lat="56.393931" lon="61.068492">
        <ele>252.6</ele>
        <time>1970-01-01T15:16:39.610Z</time>
    </trkpt>
    <trkpt lat="56.394358" lon="61.066689">
        <ele>260.3</ele>
        <time>1970-01-01T15:17:17.098Z</time>
    </trkpt>
    <trkpt lat="56.394643" lon="61.064458">
        <ele>261.4</ele>
        <time>1970-01-01T15:18:00.866Z</time>
    </trkpt>
    <trkpt lat="56.394311" lon="61.062655">
        <ele>261.3</ele>
        <time>1970-01-01T15:18:37.189Z</time>
    </trkpt>
    <trkpt lat="56.395546" lon="61.061282">
        <ele>261.2</ele>
        <time>1970-01-01T15:19:27.271Z</time>
    </trkpt>
    <trkpt lat="56.395593" lon="61.060596">
        <ele>258.7</ele>
        <time>1970-01-01T15:19:40.484Z</time>
    </trkpt>
    <trkpt lat="56.396258" lon="61.060081">
        <ele>251.3</ele>
        <time>1970-01-01T15:20:05.472Z</time>
    </trkpt>
    <trkpt lat="56.396757" lon="61.060338">
        <ele>248.8</ele>
        <time>1970-01-01T15:20:23.392Z</time>
    </trkpt>
    <trkpt lat="56.39804" lon="61.060424">
        <ele>245.1</ele>
        <time>1970-01-01T15:21:07.734Z</time>
    </trkpt>
    <trkpt lat="56.398728" lon="61.059866">
        <ele>247.1</ele>
        <time>1970-01-01T15:21:33.779Z</time>
    </trkpt>
    <trkpt lat="56.399346" lon="61.060038">
        <ele>248.7</ele>
        <time>1970-01-01T15:21:55.375Z</time>
    </trkpt>
    <trkpt lat="56.3993375784471" lon="61.05994076680468">
        <ele>248.6</ele>
        <time>1970-01-01T15:21:57.256Z</time>
    </trkpt>
    <trkpt lat="56.39922886902586" lon="61.058685636278625">
        <ele>249.2</ele>
        <time>1970-01-01T15:22:21.537Z</time>
    </trkpt>
    <trkpt lat="56.3991201592942" lon="61.05743050575257">
        <ele>251.9</ele>
        <time>1970-01-01T15:22:45.818Z</time>
    </trkpt>
    <trkpt lat="56.39924196429362" lon="61.056404137123444">
        <ele>252.5</ele>
        <time>1970-01-01T15:23:05.881Z</time>
    </trkpt>
    <trkpt lat="56.39938937897887" lon="61.0551619685417">
        <ele>251.3</ele>
        <time>1970-01-01T15:23:30.162Z</time>
    </trkpt>
    <trkpt lat="56.39953679309324" lon="61.05391979995994">
        <ele>249.8</ele>
        <time>1970-01-01T15:23:54.443Z</time>
    </trkpt>
    <trkpt lat="56.39968420663677" lon="61.05267763137818">
        <ele>255.0</ele>
        <time>1970-01-01T15:24:18.724Z</time>
    </trkpt>
    <trkpt lat="56.40006419171387" lon="61.051701307296774">
        <ele>252.4</ele>
        <time>1970-01-01T15:24:41.537Z</time>
    </trkpt>
    <trkpt lat="56.40044417299796" lon="61.05072498321534">
        <ele>254.6</ele>
        <time>1970-01-01T15:25:04.355Z</time>
    </trkpt>
    <trkpt lat="56.40052163827362" lon="61.05064819662947">
        <ele>255.2</ele>
        <time>1970-01-01T15:25:07.407Z</time>
    </trkpt>
    <trkpt lat="56.401138014990465" lon="61.050037214551885">
        <ele>257.2</ele>
        <time>1970-01-01T15:25:31.693Z</time>
    </trkpt>
    <trkpt lat="56.4017543817268" lon="61.04942623247432">
        <ele>252.6</ele>
        <time>1970-01-01T15:25:55.978Z</time>
    </trkpt>
    <trkpt lat="56.40237073848272" lon="61.048815250396736">
        <ele>251.2</ele>
        <time>1970-01-01T15:26:20.263Z</time>
    </trkpt>
    <trkpt lat="56.402508770633055" lon="61.04961186647416">
        <ele>252.8</ele>
        <time>1970-01-01T15:26:36.220Z</time>
    </trkpt>
    <trkpt lat="56.40264680228282" lon="61.05040848255158">
        <ele>254.8</ele>
        <time>1970-01-01T15:26:52.177Z</time>
    </trkpt>
    <trkpt lat="56.4027498677" lon="61.0503604265">
        <ele>254.6</ele>
        <time>1970-01-01T15:26:57.172Z</time>
    </trkpt>
    <trkpt lat="56.4027745524" lon="61.0503835606">
        <ele>255.1</ele>
        <time>1970-01-01T15:26:58.172Z</time>
    </trkpt>
    <trkpt lat="56.402797435" lon="61.0503961334">
        <ele>255.9</ele>
        <time>1970-01-01T15:26:59.172Z</time>
    </trkpt>
    <trkpt lat="56.4028398055" lon="61.0503823871">
        <ele>255.4</ele>
        <time>1970-01-01T15:27:00.172Z</time>
    </trkpt>
    <trkpt lat="56.4028398893" lon="61.0503785314">
        <ele>255.4</ele>
        <time>1970-01-01T15:27:01.172Z</time>
    </trkpt>
    <trkpt lat="56.4028509953" lon="61.0503679702">
        <ele>255.0</ele>
        <time>1970-01-01T15:27:02.172Z</time>
    </trkpt>
    <trkpt lat="56.4028730398" lon="61.0503620191">
        <ele>256.0</ele>
        <time>1970-01-01T15:27:03.172Z</time>
    </trkpt>
    <trkpt lat="56.4029069865" lon="61.0503428245">
        <ele>255.9</ele>
        <time>1970-01-01T15:27:04.172Z</time>
    </trkpt>
    <trkpt lat="56.4029424838" lon="61.0503130687">
        <ele>256.0</ele>
        <time>1970-01-01T15:27:05.172Z</time>
    </trkpt>
    <trkpt lat="56.4029771849" lon="61.0502833968">
        <ele>256.4</ele>
        <time>1970-01-01T15:27:06.172Z</time>
    </trkpt>
    <trkpt lat="56.40297789352981" lon="61.050282728213524">
        <ele>256.1</ele>
        <time>1970-01-01T15:27:06.672Z</time>
    </trkpt>
    <trkpt lat="56.40304210113874" lon="61.050226019846434">
        <ele>252.4</ele>
        <time>1970-01-01T15:30:21.672Z</time>
    </trkpt>
    <trkpt lat="56.4030427733" lon="61.0502243882">
        <ele>252.1</ele>
        <time>1970-01-01T15:30:22.172Z</time>
    </trkpt>
    <trkpt lat="56.4030712299" lon="61.0502115639">
        <ele>251.9</ele>
        <time>1970-01-01T15:30:23.172Z</time>
    </trkpt>
    <trkpt lat="56.4031184619" lon="61.0502105581">
        <ele>252.6</ele>
        <time>1970-01-01T15:30:24.172Z</time>
    </trkpt>
    <trkpt lat="56.4031599523" lon="61.0502096361">
        <ele>252.1</ele>
        <time>1970-01-01T15:30:25.172Z</time>
    </trkpt>
    <trkpt lat="56.4032044602" lon="61.0501863344">
        <ele>251.9</ele>
        <time>1970-01-01T15:30:26.172Z</time>
    </trkpt>
    <trkpt lat="56.4032554641" lon="61.0501618592">
        <ele>252.6</ele>
        <time>1970-01-01T15:30:27.172Z</time>
    </trkpt>
    <trkpt lat="56.4033052945" lon="61.0501467718">
        <ele>252.5</ele>
        <time>1970-01-01T15:30:28.172Z</time>
    </trkpt>
    <trkpt lat="56.4033576814" lon="61.0501429999">
        <ele>252.9</ele>
        <time>1970-01-01T15:30:29.172Z</time>
    </trkpt>
    <trkpt lat="56.4034132534" lon="61.0501150044">
        <ele>253.1</ele>
        <time>1970-01-01T15:30:30.172Z</time>
    </trkpt>
    <trkpt lat="56.403457426" lon="61.050103605">
        <ele>254.0</ele>
        <time>1970-01-01T15:30:31.172Z</time>
    </trkpt>
    <trkpt lat="56.4035091005" lon="61.0500728434">
        <ele>254.1</ele>
        <time>1970-01-01T15:30:32.172Z</time>
    </trkpt>
    <trkpt lat="56.4035545304" lon="61.0500512181">
        <ele>255.0</ele>
        <time>1970-01-01T15:30:33.172Z</time>
    </trkpt>
    <trkpt lat="56.4035932548" lon="61.0500492064">
        <ele>254.8</ele>
        <time>1970-01-01T15:30:34.172Z</time>
    </trkpt>
    <trkpt lat="56.4036375951" lon="61.050023474">
        <ele>255.5</ele>
        <time>1970-01-01T15:30:35.172Z</time>
    </trkpt>
    <trkpt lat="56.4036767385" lon="61.0500099791">
        <ele>256.0</ele>
        <time>1970-01-01T15:30:36.172Z</time>
    </trkpt>
    <trkpt lat="56.4037267785" lon="61.049987348">
        <ele>256.4</ele>
        <time>1970-01-01T15:30:37.172Z</time>
    </trkpt>
    <trkpt lat="56.4037335259" lon="61.0499835761">
        <ele>256.7</ele>
        <time>1970-01-01T15:30:38.172Z</time>
    </trkpt>
    <trkpt lat="56.4037319334" lon="61.049985504">
        <ele>257.2</ele>
        <time>1970-01-01T15:30:39.172Z</time>
    </trkpt>
    <trkpt lat="56.403731179" lon="61.0499818159">
        <ele>257.3</ele>
        <time>1970-01-01T15:30:40.172Z</time>
    </trkpt>
    <trkpt lat="56.403731179" lon="61.0499818159">
        <ele>257.3</ele>
        <time>1970-01-01T15:30:41.172Z</time>
    </trkpt>
    <trkpt lat="56.4037284549" lon="61.0499796366">
        <ele>256.6</ele>
        <time>1970-01-01T15:30:42.172Z</time>
    </trkpt>
    <trkpt lat="56.4037272814" lon="61.0499879347">
        <ele>257.3</ele>
        <time>1970-01-01T15:30:43.172Z</time>
    </trkpt>
    <trkpt lat="56.4037244316" lon="61.0499856716">
        <ele>257.0</ele>
        <time>1970-01-01T15:30:44.172Z</time>
    </trkpt>
    <trkpt lat="56.403720995" lon="61.0499858392">
        <ele>257.1</ele>
        <time>1970-01-01T15:30:45.172Z</time>
    </trkpt>
    <trkpt lat="56.4037220846" lon="61.0499825703">
        <ele>257.0</ele>
        <time>1970-01-01T15:30:46.172Z</time>
    </trkpt>
    <trkpt lat="56.4037249345" lon="61.0499804748">
        <ele>256.6</ele>
        <time>1970-01-01T15:30:47.172Z</time>
    </trkpt>
    <trkpt lat="56.4037250183" lon="61.0499812292">
        <ele>256.5</ele>
        <time>1970-01-01T15:30:48.172Z</time>
    </trkpt>
    <trkpt lat="56.403723761" lon="61.0499784632">
        <ele>256.7</ele>
        <time>1970-01-01T15:30:49.172Z</time>
    </trkpt>
    <trkpt lat="56.4037233838" lon="61.0499736017">
        <ele>256.7</ele>
        <time>1970-01-01T15:30:50.172Z</time>
    </trkpt>
    <trkpt lat="56.4037264432" lon="61.0499764515">
        <ele>256.8</ele>
        <time>1970-01-01T15:30:51.172Z</time>
    </trkpt>
    <trkpt lat="56.403726066" lon="61.0499798043">
        <ele>257.3</ele>
        <time>1970-01-01T15:30:52.172Z</time>
    </trkpt>
    <trkpt lat="56.4037291254" lon="61.049991958">
        <ele>257.6</ele>
        <time>1970-01-01T15:30:53.172Z</time>
    </trkpt>
    <trkpt lat="56.403724222" lon="61.0499967357">
        <ele>257.5</ele>
        <time>1970-01-01T15:30:54.172Z</time>
    </trkpt>
    <trkpt lat="56.4037305504" lon="61.0499969034">
        <ele>257.4</ele>
        <time>1970-01-01T15:30:55.172Z</time>
    </trkpt>
    <trkpt lat="56.403731179" lon="61.0499972386">
        <ele>257.2</ele>
        <time>1970-01-01T15:30:56.172Z</time>
    </trkpt>
    <trkpt lat="56.4037316819" lon="61.0499995856">
        <ele>257.3</ele>
        <time>1970-01-01T15:30:57.172Z</time>
    </trkpt>
    <trkpt lat="56.4037313466" lon="61.0499984121">
        <ele>257.3</ele>
        <time>1970-01-01T15:30:58.172Z</time>
    </trkpt>
    <trkpt lat="56.4037310533" lon="61.0499986636">
        <ele>257.4</ele>
        <time>1970-01-01T15:30:59.172Z</time>
    </trkpt>
    <trkpt lat="56.4037298379" lon="61.0499986636">
        <ele>257.5</ele>
        <time>1970-01-01T15:31:00.172Z</time>
    </trkpt>
    <trkpt lat="56.4037273652" lon="61.0500005914">
        <ele>258.0</ele>
        <time>1970-01-01T15:31:01.172Z</time>
    </trkpt>
    <trkpt lat="56.4037270719" lon="61.0500025192">
        <ele>258.3</ele>
        <time>1970-01-01T15:31:02.172Z</time>
    </trkpt>
    <trkpt lat="56.4037267366" lon="61.050004028">
        <ele>258.5</ele>
        <time>1970-01-01T15:31:03.172Z</time>
    </trkpt>
    <trkpt lat="56.4037262337" lon="61.0500069616">
        <ele>258.8</ele>
        <time>1970-01-01T15:31:04.172Z</time>
    </trkpt>
    <trkpt lat="56.4037276586" lon="61.0500135833">
        <ele>259.2</ele>
        <time>1970-01-01T15:31:05.172Z</time>
    </trkpt>
    <trkpt lat="56.4037269461" lon="61.0500175228">
        <ele>259.4</ele>
        <time>1970-01-01T15:31:06.172Z</time>
    </trkpt>
    <trkpt lat="56.403724683" lon="61.0500213785">
        <ele>259.5</ele>
        <time>1970-01-01T15:31:07.172Z</time>
    </trkpt>
    <trkpt lat="56.4037257727" lon="61.0500228873">
        <ele>259.4</ele>
        <time>1970-01-01T15:31:08.172Z</time>
    </trkpt>
    <trkpt lat="56.4037275329" lon="61.0500214623">
        <ele>259.2</ele>
        <time>1970-01-01T15:31:09.172Z</time>
    </trkpt>
    <trkpt lat="56.4037309695" lon="61.0500209594">
        <ele>259.2</ele>
        <time>1970-01-01T15:31:10.172Z</time>
    </trkpt>
    <trkpt lat="56.4037323944" lon="61.0500205403">
        <ele>259.1</ele>
        <time>1970-01-01T15:31:11.172Z</time>
    </trkpt>
    <trkpt lat="56.4037331068" lon="61.0500217138">
        <ele>258.8</ele>
        <time>1970-01-01T15:31:12.172Z</time>
    </trkpt>
    <trkpt lat="56.4037328973" lon="61.0500259047">
        <ele>258.9</ele>
        <time>1970-01-01T15:31:13.172Z</time>
    </trkpt>
    <trkpt lat="56.4037336098" lon="61.0500280002">
        <ele>258.8</ele>
        <time>1970-01-01T15:31:14.172Z</time>
    </trkpt>
    <trkpt lat="56.4037351185" lon="61.0500296766">
        <ele>258.9</ele>
        <time>1970-01-01T15:31:15.172Z</time>
    </trkpt>
    <trkpt lat="56.403735831" lon="61.0500319397">
        <ele>258.7</ele>
        <time>1970-01-01T15:31:16.172Z</time>
    </trkpt>
    <trkpt lat="56.4037375492" lon="61.050028587">
        <ele>258.2</ele>
        <time>1970-01-01T15:31:17.172Z</time>
    </trkpt>
    <trkpt lat="56.4037386389" lon="61.0500250666">
        <ele>258.4</ele>
        <time>1970-01-01T15:31:18.172Z</time>
    </trkpt>
    <trkpt lat="56.4037389742" lon="61.0500251504">
        <ele>258.3</ele>
        <time>1970-01-01T15:31:19.172Z</time>
    </trkpt>
    <trkpt lat="56.4037413211" lon="61.0500087218">
        <ele>258.3</ele>
        <time>1970-01-01T15:31:20.172Z</time>
    </trkpt>
    <trkpt lat="56.4037461826" lon="61.0500045309">
        <ele>258.3</ele>
        <time>1970-01-01T15:31:21.172Z</time>
    </trkpt>
    <trkpt lat="56.4037442548" lon="61.0500032736">
        <ele>258.1</ele>
        <time>1970-01-01T15:31:22.172Z</time>
    </trkpt>
    <trkpt lat="56.4037419917" lon="61.0500033574">
        <ele>257.9</ele>
        <time>1970-01-01T15:31:23.172Z</time>
    </trkpt>
    <trkpt lat="56.4037412373" lon="61.0500003399">
        <ele>257.6</ele>
        <time>1970-01-01T15:31:24.172Z</time>
    </trkpt>
    <trkpt lat="56.4037414887" lon="61.0499965681">
        <ele>257.3</ele>
        <time>1970-01-01T15:31:25.172Z</time>
    </trkpt>
    <trkpt lat="56.4037432489" lon="61.0499964843">
        <ele>257.2</ele>
        <time>1970-01-01T15:31:26.172Z</time>
    </trkpt>
    <trkpt lat="56.4037443386" lon="61.0499959814">
        <ele>257.1</ele>
        <time>1970-01-01T15:31:27.172Z</time>
    </trkpt>
    <trkpt lat="56.4037452187" lon="61.0499930477">
        <ele>257.1</ele>
        <time>1970-01-01T15:31:28.172Z</time>
    </trkpt>
    <trkpt lat="56.4037451768" lon="61.0499932991">
        <ele>257.1</ele>
        <time>1970-01-01T15:31:29.172Z</time>
    </trkpt>
    <trkpt lat="56.4037435842" lon="61.0499954784">
        <ele>256.9</ele>
        <time>1970-01-01T15:31:30.172Z</time>
    </trkpt>
    <trkpt lat="56.4037414887" lon="61.0499946402">
        <ele>256.7</ele>
        <time>1970-01-01T15:31:31.172Z</time>
    </trkpt>
    <trkpt lat="56.4037412373" lon="61.0499927962">
        <ele>256.6</ele>
        <time>1970-01-01T15:31:32.172Z</time>
    </trkpt>
    <trkpt lat="56.4037422431" lon="61.0499922933">
        <ele>256.3</ele>
        <time>1970-01-01T15:31:33.172Z</time>
    </trkpt>
    <trkpt lat="56.4037416564" lon="61.0499904493">
        <ele>256.2</ele>
        <time>1970-01-01T15:31:34.172Z</time>
    </trkpt>
    <trkpt lat="56.4037422431" lon="61.0499880185">
        <ele>255.8</ele>
        <time>1970-01-01T15:31:35.172Z</time>
    </trkpt>
    <trkpt lat="56.4037396028" lon="61.0499879347">
        <ele>255.6</ele>
        <time>1970-01-01T15:31:36.172Z</time>
    </trkpt>
    <trkpt lat="56.4037434585" lon="61.0499818998">
        <ele>255.3</ele>
        <time>1970-01-01T15:31:37.172Z</time>
    </trkpt>
    <trkpt lat="56.4037474399" lon="61.0499820674">
        <ele>255.2</ele>
        <time>1970-01-01T15:31:38.172Z</time>
    </trkpt>
    <trkpt lat="56.403746937" lon="61.0499834085">
        <ele>255.3</ele>
        <time>1970-01-01T15:31:39.172Z</time>
    </trkpt>
    <trkpt lat="56.4037465598" lon="61.0499848334">
        <ele>255.2</ele>
        <time>1970-01-01T15:31:40.172Z</time>
    </trkpt>
    <trkpt lat="56.4037462664" lon="61.0499874318">
        <ele>255.2</ele>
        <time>1970-01-01T15:31:41.172Z</time>
    </trkpt>
    <trkpt lat="56.4037484876" lon="61.0499863422">
        <ele>255.0</ele>
        <time>1970-01-01T15:31:42.172Z</time>
    </trkpt>
    <trkpt lat="56.4037504574" lon="61.0499814807">
        <ele>254.8</ele>
        <time>1970-01-01T15:31:43.172Z</time>
    </trkpt>
    <trkpt lat="56.4037517147" lon="61.0499792175">
        <ele>254.7</ele>
        <time>1970-01-01T15:31:44.172Z</time>
    </trkpt>
    <trkpt lat="56.4037561571" lon="61.0499749428">
        <ele>254.4</ele>
        <time>1970-01-01T15:31:45.172Z</time>
    </trkpt>
    <trkpt lat="56.4037564504" lon="61.0499779603">
        <ele>254.8</ele>
        <time>1970-01-01T15:31:46.172Z</time>
    </trkpt>
    <trkpt lat="56.4037586297" lon="61.0499651359">
        <ele>254.9</ele>
        <time>1970-01-01T15:31:47.172Z</time>
    </trkpt>
    <trkpt lat="56.4037597194" lon="61.0499659741">
        <ele>255.1</ele>
        <time>1970-01-01T15:31:48.172Z</time>
    </trkpt>
    <trkpt lat="56.4037613539" lon="61.0499676505">
        <ele>255.4</ele>
        <time>1970-01-01T15:31:49.172Z</time>
    </trkpt>
    <trkpt lat="56.4037588393" lon="61.0499670638">
        <ele>255.4</ele>
        <time>1970-01-01T15:31:50.172Z</time>
    </trkpt>
    <trkpt lat="56.4037590069" lon="61.049978547">
        <ele>255.9</ele>
        <time>1970-01-01T15:31:51.172Z</time>
    </trkpt>
    <trkpt lat="56.4037583364" lon="61.0499825703">
        <ele>255.8</ele>
        <time>1970-01-01T15:31:52.172Z</time>
    </trkpt>
    <trkpt lat="56.4037621501" lon="61.0499815645">
        <ele>256.1</ele>
        <time>1970-01-01T15:31:53.172Z</time>
    </trkpt>
    <trkpt lat="56.4037621501" lon="61.0499815645">
        <ele>256.1</ele>
        <time>1970-01-01T15:31:54.172Z</time>
    </trkpt>
    <trkpt lat="56.4037620244" lon="61.0499815645">
        <ele>256.1</ele>
        <time>1970-01-01T15:31:55.172Z</time>
    </trkpt>
    <trkpt lat="56.4037634912" lon="61.0499812292">
        <ele>256.1</ele>
        <time>1970-01-01T15:31:56.172Z</time>
    </trkpt>
    <trkpt lat="56.4037629883" lon="61.0499824027">
        <ele>256.1</ele>
        <time>1970-01-01T15:31:57.172Z</time>
    </trkpt>
    <trkpt lat="56.403763617" lon="61.0499823188">
        <ele>255.9</ele>
        <time>1970-01-01T15:31:58.172Z</time>
    </trkpt>
    <trkpt lat="56.4037642037" lon="61.0499842467">
        <ele>255.8</ele>
        <time>1970-01-01T15:31:59.172Z</time>
    </trkpt>
    <trkpt lat="56.4037611024" lon="61.0499869289">
        <ele>255.7</ele>
        <time>1970-01-01T15:32:00.172Z</time>
    </trkpt>
    <trkpt lat="56.4037611024" lon="61.0499869289">
        <ele>255.7</ele>
        <time>1970-01-01T15:32:01.172Z</time>
    </trkpt>
    <trkpt lat="56.403760809" lon="61.0499852525">
        <ele>255.7</ele>
        <time>1970-01-01T15:32:02.172Z</time>
    </trkpt>
    <trkpt lat="56.4037611024" lon="61.0499859231">
        <ele>255.7</ele>
        <time>1970-01-01T15:32:03.172Z</time>
    </trkpt>
    <trkpt lat="56.4037603899" lon="61.0499862583">
        <ele>255.6</ele>
        <time>1970-01-01T15:32:04.172Z</time>
    </trkpt>
    <trkpt lat="56.4037614377" lon="61.0499863422">
        <ele>255.6</ele>
        <time>1970-01-01T15:32:05.172Z</time>
    </trkpt>
    <trkpt lat="56.4037655448" lon="61.0499825703">
        <ele>255.4</ele>
        <time>1970-01-01T15:32:06.172Z</time>
    </trkpt>
    <trkpt lat="56.4037683947" lon="61.049979469">
        <ele>255.1</ele>
        <time>1970-01-01T15:32:07.172Z</time>
    </trkpt>
    <trkpt lat="56.4037686042" lon="61.049978547">
        <ele>254.9</ele>
        <time>1970-01-01T15:32:08.172Z</time>
    </trkpt>
    <trkpt lat="56.403770071" lon="61.0499788823">
        <ele>254.9</ele>
        <time>1970-01-01T15:32:09.172Z</time>
    </trkpt>
    <trkpt lat="56.4037781177" lon="61.0499710033">
        <ele>254.7</ele>
        <time>1970-01-01T15:32:10.172Z</time>
    </trkpt>
    <trkpt lat="56.4037806741" lon="61.0499712547">
        <ele>254.7</ele>
        <time>1970-01-01T15:32:11.172Z</time>
    </trkpt>
    <trkpt lat="56.4038022156" lon="61.0499683211">
        <ele>254.2</ele>
        <time>1970-01-01T15:32:12.172Z</time>
    </trkpt>
    <trkpt lat="56.4038329772" lon="61.0499455223">
        <ele>254.6</ele>
        <time>1970-01-01T15:32:13.172Z</time>
    </trkpt>
    <trkpt lat="56.4038537224" lon="61.0499344582">
        <ele>254.4</ele>
        <time>1970-01-01T15:32:14.172Z</time>
    </trkpt>
    <trkpt lat="56.4038713663" lon="61.0499166047">
        <ele>253.8</ele>
        <time>1970-01-01T15:32:15.172Z</time>
    </trkpt>
    <trkpt lat="56.4038892617" lon="61.0498973264">
        <ele>253.4</ele>
        <time>1970-01-01T15:32:16.172Z</time>
    </trkpt>
    <trkpt lat="56.4039206938" lon="61.0498761201">
        <ele>253.9</ele>
        <time>1970-01-01T15:32:17.172Z</time>
    </trkpt>
    <trkpt lat="56.4039301235" lon="61.0498720968">
        <ele>254.0</ele>
        <time>1970-01-01T15:32:18.172Z</time>
    </trkpt>
    <trkpt lat="56.4039350269" lon="61.0498750305">
        <ele>254.3</ele>
        <time>1970-01-01T15:32:19.172Z</time>
    </trkpt>
    <trkpt lat="56.4039366614" lon="61.0498782994">
        <ele>254.6</ele>
        <time>1970-01-01T15:32:20.172Z</time>
    </trkpt>
    <trkpt lat="56.4039352783" lon="61.0498795567">
        <ele>254.5</ele>
        <time>1970-01-01T15:32:21.172Z</time>
    </trkpt>
    <trkpt lat="56.4039330571" lon="61.0498705881">
        <ele>254.5</ele>
        <time>1970-01-01T15:32:22.172Z</time>
    </trkpt>
    <trkpt lat="56.403933602" lon="61.0498705043">
        <ele>254.7</ele>
        <time>1970-01-01T15:32:23.172Z</time>
    </trkpt>
    <trkpt lat="56.4039352364" lon="61.0498663971">
        <ele>254.7</ele>
        <time>1970-01-01T15:32:24.172Z</time>
    </trkpt>
    <trkpt lat="56.4039356136" lon="61.0498627929">
        <ele>254.7</ele>
        <time>1970-01-01T15:32:25.172Z</time>
    </trkpt>
    <trkpt lat="56.4039332248" lon="61.0498570094">
        <ele>254.9</ele>
        <time>1970-01-01T15:32:26.172Z</time>
    </trkpt>
    <trkpt lat="56.4039327219" lon="61.0498575123">
        <ele>254.6</ele>
        <time>1970-01-01T15:32:27.172Z</time>
    </trkpt>
    <trkpt lat="56.4039335601" lon="61.0498635473">
        <ele>254.3</ele>
        <time>1970-01-01T15:32:28.172Z</time>
    </trkpt>
    <trkpt lat="56.4039338953" lon="61.0498554168">
        <ele>254.2</ele>
        <time>1970-01-01T15:32:29.172Z</time>
    </trkpt>
    <trkpt lat="56.403931255" lon="61.0498466158">
        <ele>254.2</ele>
        <time>1970-01-01T15:32:30.172Z</time>
    </trkpt>
    <trkpt lat="56.4039302492" lon="61.0498504715">
        <ele>254.1</ele>
        <time>1970-01-01T15:32:31.172Z</time>
    </trkpt>
    <trkpt lat="56.4039313388" lon="61.0498501362">
        <ele>253.9</ele>
        <time>1970-01-01T15:32:32.172Z</time>
    </trkpt>
    <trkpt lat="56.403929872" lon="61.049855333">
        <ele>253.3</ele>
        <time>1970-01-01T15:32:33.172Z</time>
    </trkpt>
    <trkpt lat="56.4039340211" lon="61.0498487951">
        <ele>253.2</ele>
        <time>1970-01-01T15:32:34.172Z</time>
    </trkpt>
    <trkpt lat="56.4039378767" lon="61.0498458615">
        <ele>253.1</ele>
        <time>1970-01-01T15:32:35.172Z</time>
    </trkpt>
    <trkpt lat="56.4039381701" lon="61.0498476217">
        <ele>253.4</ele>
        <time>1970-01-01T15:32:36.172Z</time>
    </trkpt>
    <trkpt lat="56.4039419" lon="61.0498448556">
        <ele>253.6</ele>
        <time>1970-01-01T15:32:37.172Z</time>
    </trkpt>
    <trkpt lat="56.40394563" lon="61.0498426763">
        <ele>253.8</ele>
        <time>1970-01-01T15:32:38.172Z</time>
    </trkpt>
    <trkpt lat="56.4039457976" lon="61.0498450233">
        <ele>253.8</ele>
        <time>1970-01-01T15:32:39.172Z</time>
    </trkpt>
    <trkpt lat="56.4039478093" lon="61.0498456938">
        <ele>254.6</ele>
        <time>1970-01-01T15:32:40.172Z</time>
    </trkpt>
    <trkpt lat="56.403955353" lon="61.0498458615">
        <ele>255.2</ele>
        <time>1970-01-01T15:32:41.172Z</time>
    </trkpt>
    <trkpt lat="56.4039616394" lon="61.0498433469">
        <ele>255.4</ele>
        <time>1970-01-01T15:32:42.172Z</time>
    </trkpt>
    <trkpt lat="56.4039752181" lon="61.0498394912">
        <ele>254.7</ele>
        <time>1970-01-01T15:32:43.172Z</time>
    </trkpt>
    <trkpt lat="56.4039968853" lon="61.0498303549">
        <ele>254.6</ele>
        <time>1970-01-01T15:32:44.172Z</time>
    </trkpt>
    <trkpt lat="56.4040226597" lon="61.0498047063">
        <ele>254.2</ele>
        <time>1970-01-01T15:32:45.172Z</time>
    </trkpt>
    <trkpt lat="56.4040684249" lon="61.0497717654">
        <ele>254.4</ele>
        <time>1970-01-01T15:32:46.172Z</time>
    </trkpt>
    <trkpt lat="56.4041157826" lon="61.0497415068">
        <ele>253.9</ele>
        <time>1970-01-01T15:32:47.172Z</time>
    </trkpt>
    <trkpt lat="56.4041582789" lon="61.0497493858">
        <ele>253.3</ele>
        <time>1970-01-01T15:32:48.172Z</time>
    </trkpt>
    <trkpt lat="56.4042101629" lon="61.0497567618">
        <ele>253.9</ele>
        <time>1970-01-01T15:32:49.172Z</time>
    </trkpt>
    <trkpt lat="56.4042586941" lon="61.0497776328">
        <ele>253.3</ele>
        <time>1970-01-01T15:32:50.172Z</time>
    </trkpt>
    <trkpt lat="56.4043032858" lon="61.0498045387">
        <ele>253.4</ele>
        <time>1970-01-01T15:32:51.172Z</time>
    </trkpt>
    <trkpt lat="56.4043427646" lon="61.0498241523">
        <ele>253.3</ele>
        <time>1970-01-01T15:32:52.172Z</time>
    </trkpt>
    <trkpt lat="56.4043742805" lon="61.049849801">
        <ele>252.4</ele>
        <time>1970-01-01T15:32:53.172Z</time>
    </trkpt>
    <trkpt lat="56.4043946066" lon="61.0499341229">
        <ele>251.6</ele>
        <time>1970-01-01T15:32:54.172Z</time>
    </trkpt>
    <trkpt lat="56.404431026" lon="61.0499701651">
        <ele>251.9</ele>
        <time>1970-01-01T15:32:55.172Z</time>
    </trkpt>
    <trkpt lat="56.40446354343341" lon="61.0499809067746">
        <ele>252.1</ele>
        <time>1970-01-01T15:32:55.672Z</time>
    </trkpt>
    <trkpt lat="56.404470882" lon="61.0499835761">
        <ele>252.3</ele>
        <time>1970-01-01T15:32:56.172Z</time>
    </trkpt>
    <trkpt lat="56.4044751148" lon="61.0499888567">
        <ele>252.4</ele>
        <time>1970-01-01T15:32:57.172Z</time>
    </trkpt>
    <trkpt lat="56.4044748215" lon="61.0499940535">
        <ele>252.2</ele>
        <time>1970-01-01T15:32:58.172Z</time>
    </trkpt>
    <trkpt lat="56.4044752825" lon="61.049996149">
        <ele>252.2</ele>
        <time>1970-01-01T15:32:59.172Z</time>
    </trkpt>
    <trkpt lat="56.4044756177" lon="61.0500009267">
        <ele>252.2</ele>
        <time>1970-01-01T15:33:00.172Z</time>
    </trkpt>
    <trkpt lat="56.4044757854" lon="61.0500015134">
        <ele>252.0</ele>
        <time>1970-01-01T15:33:01.172Z</time>
    </trkpt>
    <trkpt lat="56.4044767493" lon="61.04999288">
        <ele>252.2</ele>
        <time>1970-01-01T15:33:02.172Z</time>
    </trkpt>
    <trkpt lat="56.4044884001" lon="61.0499673152">
        <ele>251.4</ele>
        <time>1970-01-01T15:34:29.172Z</time>
    </trkpt>
    <trkpt lat="56.4044948123" lon="61.0499700813">
        <ele>251.4</ele>
        <time>1970-01-01T15:34:30.172Z</time>
    </trkpt>
    <trkpt lat="56.4044994642" lon="61.0499721767">
        <ele>251.6</ele>
        <time>1970-01-01T15:34:31.172Z</time>
    </trkpt>
    <trkpt lat="56.404500973" lon="61.049970668">
        <ele>251.8</ele>
        <time>1970-01-01T15:34:32.172Z</time>
    </trkpt>
    <trkpt lat="56.4045004701" lon="61.0499684049">
        <ele>251.6</ele>
        <time>1970-01-01T15:34:33.172Z</time>
    </trkpt>
    <trkpt lat="56.4044999672" lon="61.0499664771">
        <ele>251.6</ele>
        <time>1970-01-01T15:34:34.172Z</time>
    </trkpt>
    <trkpt lat="56.4044991709" lon="61.0499668123">
        <ele>251.3</ele>
        <time>1970-01-01T15:34:35.172Z</time>
    </trkpt>
    <trkpt lat="56.4044981231" lon="61.049967902">
        <ele>251.2</ele>
        <time>1970-01-01T15:34:36.172Z</time>
    </trkpt>
    <trkpt lat="56.4044985841" lon="61.0499707518">
        <ele>251.3</ele>
        <time>1970-01-01T15:34:37.172Z</time>
    </trkpt>
    <trkpt lat="56.4044990032" lon="61.0499692431">
        <ele>251.1</ele>
        <time>1970-01-01T15:34:38.172Z</time>
    </trkpt>
    <trkpt lat="56.4045011825" lon="61.0499673991">
        <ele>251.1</ele>
        <time>1970-01-01T15:34:39.172Z</time>
    </trkpt>
    <trkpt lat="56.4045056669" lon="61.0499682373">
        <ele>251.0</ele>
        <time>1970-01-01T15:34:40.172Z</time>
    </trkpt>
    <trkpt lat="56.4045078042" lon="61.0499716738">
        <ele>250.9</ele>
        <time>1970-01-01T15:34:41.172Z</time>
    </trkpt>
    <trkpt lat="56.4045268731" lon="61.0499663094">
        <ele>250.9</ele>
        <time>1970-01-01T15:34:42.172Z</time>
    </trkpt>
    <trkpt lat="56.4045433435" lon="61.0499636272">
        <ele>251.2</ele>
        <time>1970-01-01T15:34:43.172Z</time>
    </trkpt>
    <trkpt lat="56.4045609874" lon="61.0499616994">
        <ele>251.1</ele>
        <time>1970-01-01T15:34:44.172Z</time>
    </trkpt>
    <trkpt lat="56.4045820679" lon="61.0499509705">
        <ele>251.2</ele>
        <time>1970-01-01T15:34:45.172Z</time>
    </trkpt>
    <trkpt lat="56.4046018911" lon="61.0499451032">
        <ele>251.1</ele>
        <time>1970-01-01T15:34:46.172Z</time>
    </trkpt>
    <trkpt lat="56.4046293418" lon="61.0499269983">
        <ele>251.1</ele>
        <time>1970-01-01T15:34:47.172Z</time>
    </trkpt>
    <trkpt lat="56.4046552838" lon="61.049907217">
        <ele>251.0</ele>
        <time>1970-01-01T15:34:48.172Z</time>
    </trkpt>
    <trkpt lat="56.4046906135" lon="61.0498743599">
        <ele>251.1</ele>
        <time>1970-01-01T15:34:49.172Z</time>
    </trkpt>
    <trkpt lat="56.4047254404" lon="61.0498472026">
        <ele>251.3</ele>
        <time>1970-01-01T15:34:50.172Z</time>
    </trkpt>
    <trkpt lat="56.4047637876" lon="61.0498238171">
        <ele>251.2</ele>
        <time>1970-01-01T15:34:51.172Z</time>
    </trkpt>
    <trkpt lat="56.4048027215" lon="61.0498032814">
        <ele>251.2</ele>
        <time>1970-01-01T15:34:52.172Z</time>
    </trkpt>
    <trkpt lat="56.4048317648" lon="61.0497824943">
        <ele>251.5</ele>
        <time>1970-01-01T15:34:53.172Z</time>
    </trkpt>
    <trkpt lat="56.4048611853" lon="61.0497609528">
        <ele>251.7</ele>
        <time>1970-01-01T15:34:54.172Z</time>
    </trkpt>
    <trkpt lat="56.4048952158" lon="61.0497591088">
        <ele>251.4</ele>
        <time>1970-01-01T15:34:55.172Z</time>
    </trkpt>
    <trkpt lat="56.4049343593" lon="61.0497437699">
        <ele>251.6</ele>
        <time>1970-01-01T15:34:56.172Z</time>
    </trkpt>
    <trkpt lat="56.4049618519" lon="61.0497090688">
        <ele>251.8</ele>
        <time>1970-01-01T15:34:57.172Z</time>
    </trkpt>
    <trkpt lat="56.404981256" lon="61.0496817438">
        <ele>252.3</ele>
        <time>1970-01-01T15:34:58.172Z</time>
    </trkpt>
    <trkpt lat="56.4049949605" lon="61.0496371521">
        <ele>252.8</ele>
        <time>1970-01-01T15:34:59.172Z</time>
    </trkpt>
    <trkpt lat="56.4050138616" lon="61.0496087374">
        <ele>253.5</ele>
        <time>1970-01-01T15:35:00.172Z</time>
    </trkpt>
    <trkpt lat="56.4050345649" lon="61.0495597871">
        <ele>252.6</ele>
        <time>1970-01-01T15:35:01.172Z</time>
    </trkpt>
    <trkpt lat="56.4050403485" lon="61.0495544227">
        <ele>252.7</ele>
        <time>1970-01-01T15:35:02.172Z</time>
    </trkpt>
    <trkpt lat="56.4050396779" lon="61.0495530816">
        <ele>252.8</ele>
        <time>1970-01-01T15:35:03.172Z</time>
    </trkpt>
    <trkpt lat="56.4050378339" lon="61.049562134">
        <ele>253.1</ele>
        <time>1970-01-01T15:35:04.172Z</time>
    </trkpt>
    <trkpt lat="56.4050379177" lon="61.0495583622">
        <ele>253.4</ele>
        <time>1970-01-01T15:35:05.172Z</time>
    </trkpt>
    <trkpt lat="56.4050355708" lon="61.0495588651">
        <ele>253.5</ele>
        <time>1970-01-01T15:35:06.172Z</time>
    </trkpt>
    <trkpt lat="56.4050355708" lon="61.0495581107">
        <ele>253.6</ele>
        <time>1970-01-01T15:35:07.172Z</time>
    </trkpt>
    <trkpt lat="56.4050341878" lon="61.0495562667">
        <ele>253.5</ele>
        <time>1970-01-01T15:35:08.172Z</time>
    </trkpt>
    <trkpt lat="56.4050343554" lon="61.0495504832">
        <ele>253.4</ele>
        <time>1970-01-01T15:35:09.172Z</time>
    </trkpt>
    <trkpt lat="56.4050334753" lon="61.0495472143">
        <ele>253.5</ele>
        <time>1970-01-01T15:35:10.172Z</time>
    </trkpt>
    <trkpt lat="56.4050335591" lon="61.0495435262">
        <ele>253.6</ele>
        <time>1970-01-01T15:35:11.172Z</time>
    </trkpt>
    <trkpt lat="56.4050341878" lon="61.0495415984">
        <ele>253.5</ele>
        <time>1970-01-01T15:35:12.172Z</time>
    </trkpt>
    <trkpt lat="56.405033601" lon="61.0495397544">
        <ele>253.8</ele>
        <time>1970-01-01T15:35:13.172Z</time>
    </trkpt>
    <trkpt lat="56.4050336848" lon="61.0495396705">
        <ele>253.8</ele>
        <time>1970-01-01T15:35:14.172Z</time>
    </trkpt>
    <trkpt lat="56.4050337268" lon="61.0495385809">
        <ele>253.7</ele>
        <time>1970-01-01T15:35:15.172Z</time>
    </trkpt>
    <trkpt lat="56.4050344392" lon="61.049535731">
        <ele>253.7</ele>
        <time>1970-01-01T15:35:16.172Z</time>
    </trkpt>
    <trkpt lat="56.4050343973" lon="61.0495325459">
        <ele>253.7</ele>
        <time>1970-01-01T15:35:17.172Z</time>
    </trkpt>
    <trkpt lat="56.4050359899" lon="61.0495301152">
        <ele>253.4</ele>
        <time>1970-01-01T15:35:18.172Z</time>
    </trkpt>
    <trkpt lat="56.4050369957" lon="61.049530199">
        <ele>253.3</ele>
        <time>1970-01-01T15:35:19.172Z</time>
    </trkpt>
    <trkpt lat="56.4050383368" lon="61.04952693">
        <ele>252.9</ele>
        <time>1970-01-01T15:35:20.172Z</time>
    </trkpt>
    <trkpt lat="56.4050390074" lon="61.0495220685">
        <ele>252.7</ele>
        <time>1970-01-01T15:35:21.172Z</time>
    </trkpt>
    <trkpt lat="56.4050402646" lon="61.0495191349">
        <ele>253.4</ele>
        <time>1970-01-01T15:35:22.172Z</time>
    </trkpt>
    <trkpt lat="56.405041019" lon="61.0495099986">
        <ele>252.7</ele>
        <time>1970-01-01T15:35:23.172Z</time>
    </trkpt>
    <trkpt lat="56.4050390493" lon="61.0495039636">
        <ele>251.5</ele>
        <time>1970-01-01T15:35:24.172Z</time>
    </trkpt>
    <trkpt lat="56.4050390493" lon="61.0495039636">
        <ele>251.5</ele>
        <time>1970-01-01T15:35:25.172Z</time>
    </trkpt>
    <trkpt lat="56.4050390493" lon="61.0495039636">
        <ele>251.5</ele>
        <time>1970-01-01T15:35:26.172Z</time>
    </trkpt>
    <trkpt lat="56.4050390493" lon="61.0495039636">
        <ele>251.5</ele>
        <time>1970-01-01T15:35:27.172Z</time>
    </trkpt>
    <trkpt lat="56.405039175" lon="61.0495033769">
        <ele>251.5</ele>
        <time>1970-01-01T15:35:28.172Z</time>
    </trkpt>
    <trkpt lat="56.4050391331" lon="61.0494999403">
        <ele>251.3</ele>
        <time>1970-01-01T15:35:29.172Z</time>
    </trkpt>
    <trkpt lat="56.405038253" lon="61.0495034607">
        <ele>251.2</ele>
        <time>1970-01-01T15:35:30.172Z</time>
    </trkpt>
    <trkpt lat="56.405035445" lon="61.049504718">
        <ele>251.1</ele>
        <time>1970-01-01T15:35:31.172Z</time>
    </trkpt>
    <trkpt lat="56.4050363671" lon="61.0495072326">
        <ele>251.0</ele>
        <time>1970-01-01T15:35:32.172Z</time>
    </trkpt>
    <trkpt lat="56.4050369957" lon="61.0495083222">
        <ele>251.0</ele>
        <time>1970-01-01T15:35:33.172Z</time>
    </trkpt>
    <trkpt lat="56.4050377082" lon="61.0495082384">
        <ele>250.9</ele>
        <time>1970-01-01T15:35:34.172Z</time>
    </trkpt>
    <trkpt lat="56.4050383787" lon="61.0495080708">
        <ele>250.9</ele>
        <time>1970-01-01T15:35:35.172Z</time>
    </trkpt>
    <trkpt lat="56.4050390493" lon="61.0495076517">
        <ele>250.8</ele>
        <time>1970-01-01T15:35:36.172Z</time>
    </trkpt>
    <trkpt lat="56.4050399713" lon="61.0495051371">
        <ele>250.7</ele>
        <time>1970-01-01T15:35:37.172Z</time>
    </trkpt>
    <trkpt lat="56.4050419829" lon="61.0495067297">
        <ele>250.7</ele>
        <time>1970-01-01T15:35:38.172Z</time>
    </trkpt>
    <trkpt lat="56.4050426116" lon="61.0495051371">
        <ele>250.9</ele>
        <time>1970-01-01T15:35:39.172Z</time>
    </trkpt>
    <trkpt lat="56.4050416896" lon="61.0495050533">
        <ele>250.9</ele>
        <time>1970-01-01T15:35:40.172Z</time>
    </trkpt>
    <trkpt lat="56.4050409352" lon="61.0495033769">
        <ele>250.9</ele>
        <time>1970-01-01T15:35:41.172Z</time>
    </trkpt>
    <trkpt lat="56.4050396779" lon="61.0495012814">
        <ele>250.7</ele>
        <time>1970-01-01T15:35:42.172Z</time>
    </trkpt>
    <trkpt lat="56.4050390074" lon="61.0494997727">
        <ele>250.5</ele>
        <time>1970-01-01T15:35:43.172Z</time>
    </trkpt>
    <trkpt lat="56.4050389654" lon="61.049498683">
        <ele>250.5</ele>
        <time>1970-01-01T15:35:44.172Z</time>
    </trkpt>
    <trkpt lat="56.4050390074" lon="61.0494973419">
        <ele>250.5</ele>
        <time>1970-01-01T15:35:45.172Z</time>
    </trkpt>
    <trkpt lat="56.405039175" lon="61.0494954979">
        <ele>250.4</ele>
        <time>1970-01-01T15:35:46.172Z</time>
    </trkpt>
    <trkpt lat="56.4050398875" lon="61.0494980125">
        <ele>250.6</ele>
        <time>1970-01-01T15:35:47.172Z</time>
    </trkpt>
    <trkpt lat="56.4050396779" lon="61.0495004432">
        <ele>250.6</ele>
        <time>1970-01-01T15:35:48.172Z</time>
    </trkpt>
    <trkpt lat="56.4050398875" lon="61.049501952">
        <ele>250.6</ele>
        <time>1970-01-01T15:35:49.172Z</time>
    </trkpt>
    <trkpt lat="56.4050408514" lon="61.0495036284">
        <ele>250.7</ele>
        <time>1970-01-01T15:35:50.172Z</time>
    </trkpt>
    <trkpt lat="56.40504148" lon="61.0495057238">
        <ele>250.8</ele>
        <time>1970-01-01T15:35:51.172Z</time>
    </trkpt>
    <trkpt lat="56.4050421925" lon="61.0495030416">
        <ele>250.8</ele>
        <time>1970-01-01T15:35:52.172Z</time>
    </trkpt>
    <trkpt lat="56.4050421925" lon="61.0495030416">
        <ele>250.8</ele>
        <time>1970-01-01T15:35:53.172Z</time>
    </trkpt>
    <trkpt lat="56.4050423601" lon="61.0495025387">
        <ele>250.8</ele>
        <time>1970-01-01T15:35:54.172Z</time>
    </trkpt>
    <trkpt lat="56.4050422344" lon="61.0495005271">
        <ele>250.9</ele>
        <time>1970-01-01T15:35:55.172Z</time>
    </trkpt>
    <trkpt lat="56.4050434079" lon="61.0495007785">
        <ele>251.0</ele>
        <time>1970-01-01T15:35:56.172Z</time>
    </trkpt>
    <trkpt lat="56.4050443299" lon="61.0494976772">
        <ele>251.0</ele>
        <time>1970-01-01T15:35:57.172Z</time>
    </trkpt>
    <trkpt lat="56.4050462577" lon="61.049494073">
        <ele>251.1</ele>
        <time>1970-01-01T15:35:58.172Z</time>
    </trkpt>
    <trkpt lat="56.4050471797" lon="61.0494943244">
        <ele>251.3</ele>
        <time>1970-01-01T15:35:59.172Z</time>
    </trkpt>
    <trkpt lat="56.4050486046" lon="61.0494926481">
        <ele>250.9</ele>
        <time>1970-01-01T15:36:00.172Z</time>
    </trkpt>
    <trkpt lat="56.4050487304" lon="61.0494944921">
        <ele>250.9</ele>
        <time>1970-01-01T15:36:01.172Z</time>
    </trkpt>
    <trkpt lat="56.4050481436" lon="61.049494995">
        <ele>250.9</ele>
        <time>1970-01-01T15:36:02.172Z</time>
    </trkpt>
    <trkpt lat="56.405047515" lon="61.0494923966">
        <ele>250.6</ele>
        <time>1970-01-01T15:36:03.172Z</time>
    </trkpt>
    <trkpt lat="56.4050465511" lon="61.0494923128">
        <ele>250.5</ele>
        <time>1970-01-01T15:36:04.172Z</time>
    </trkpt>
    <trkpt lat="56.4050463415" lon="61.0494924804">
        <ele>250.3</ele>
        <time>1970-01-01T15:36:05.172Z</time>
    </trkpt>
    <trkpt lat="56.4050476826" lon="61.049491307">
        <ele>250.2</ele>
        <time>1970-01-01T15:36:06.172Z</time>
    </trkpt>
    <trkpt lat="56.4050459643" lon="61.0494906364">
        <ele>250.1</ele>
        <time>1970-01-01T15:36:07.172Z</time>
    </trkpt>
    <trkpt lat="56.4050521669" lon="61.0494838471">
        <ele>250.0</ele>
        <time>1970-01-01T15:36:08.172Z</time>
    </trkpt>
    <trkpt lat="56.4050730379" lon="61.0494644011">
        <ele>249.9</ele>
        <time>1970-01-01T15:36:09.172Z</time>
    </trkpt>
    <trkpt lat="56.4051098344" lon="61.0494374113">
        <ele>250.2</ele>
        <time>1970-01-01T15:36:10.172Z</time>
    </trkpt>
    <trkpt lat="56.4051510734" lon="61.0494024588">
        <ele>250.3</ele>
        <time>1970-01-01T15:36:11.172Z</time>
    </trkpt>
    <trkpt lat="56.4051948269" lon="61.0493645726">
        <ele>250.3</ele>
        <time>1970-01-01T15:36:12.172Z</time>
    </trkpt>
    <trkpt lat="56.4052414722" lon="61.049334733">
        <ele>250.5</ele>
        <time>1970-01-01T15:36:13.172Z</time>
    </trkpt>
    <trkpt lat="56.4052875727" lon="61.0493019598">
        <ele>250.6</ele>
        <time>1970-01-01T15:36:14.172Z</time>
    </trkpt>
    <trkpt lat="56.4053329607" lon="61.0492697733">
        <ele>250.6</ele>
        <time>1970-01-01T15:36:15.172Z</time>
    </trkpt>
    <trkpt lat="56.4053809471" lon="61.0492335634">
        <ele>250.5</ele>
        <time>1970-01-01T15:36:16.172Z</time>
    </trkpt>
    <trkpt lat="56.4054273828" lon="61.0492064061">
        <ele>250.6</ele>
        <time>1970-01-01T15:36:17.172Z</time>
    </trkpt>
    <trkpt lat="56.4054728966" lon="61.0491859542">
        <ele>250.9</ele>
        <time>1970-01-01T15:36:18.172Z</time>
    </trkpt>
    <trkpt lat="56.4055161891" lon="61.049171705">
        <ele>250.7</ele>
        <time>1970-01-01T15:36:19.172Z</time>
    </trkpt>
    <trkpt lat="56.4055519379" lon="61.0491510855">
        <ele>250.9</ele>
        <time>1970-01-01T15:36:20.172Z</time>
    </trkpt>
    <trkpt lat="56.4055893631" lon="61.0491307175">
        <ele>251.1</ele>
        <time>1970-01-01T15:36:21.172Z</time>
    </trkpt>
    <trkpt lat="56.4056040314" lon="61.0491250178">
        <ele>250.9</ele>
        <time>1970-01-01T15:36:22.172Z</time>
    </trkpt>
    <trkpt lat="56.4056062107" lon="61.0491259398">
        <ele>250.7</ele>
        <time>1970-01-01T15:36:23.172Z</time>
    </trkpt>
    <trkpt lat="56.405621843" lon="61.049119821">
        <ele>250.7</ele>
        <time>1970-01-01T15:36:24.172Z</time>
    </trkpt>
    <trkpt lat="56.4056432168" lon="61.0491234252">
        <ele>250.6</ele>
        <time>1970-01-01T15:36:25.172Z</time>
    </trkpt>
    <trkpt lat="56.4056758644" lon="61.0491100142">
        <ele>250.6</ele>
        <time>1970-01-01T15:36:26.172Z</time>
    </trkpt>
    <trkpt lat="56.4057143373" lon="61.0490884727">
        <ele>250.8</ele>
        <time>1970-01-01T15:36:27.172Z</time>
    </trkpt>
    <trkpt lat="56.4057564564" lon="61.0490685238">
        <ele>250.9</ele>
        <time>1970-01-01T15:36:28.172Z</time>
    </trkpt>
    <trkpt lat="56.4057990783" lon="61.0490491616">
        <ele>251.1</ele>
        <time>1970-01-01T15:36:29.172Z</time>
    </trkpt>
    <trkpt lat="56.4058433348" lon="61.0490261113">
        <ele>251.1</ele>
        <time>1970-01-01T15:36:30.172Z</time>
    </trkpt>
    <trkpt lat="56.4058859568" lon="61.0490049889">
        <ele>251.2</ele>
        <time>1970-01-01T15:36:31.172Z</time>
    </trkpt>
    <trkpt lat="56.4059282016" lon="61.0489868002">
        <ele>251.3</ele>
        <time>1970-01-01T15:36:32.172Z</time>
    </trkpt>
    <trkpt lat="56.405970614" lon="61.0489600619">
        <ele>251.3</ele>
        <time>1970-01-01T15:36:33.172Z</time>
    </trkpt>
    <trkpt lat="56.4060121463" lon="61.0489305576">
        <ele>251.4</ele>
        <time>1970-01-01T15:36:34.172Z</time>
    </trkpt>
    <trkpt lat="56.4060576181" lon="61.0489028135">
        <ele>251.3</ele>
        <time>1970-01-01T15:36:35.172Z</time>
    </trkpt>
    <trkpt lat="56.4061012879" lon="61.0488754047">
        <ele>251.5</ele>
        <time>1970-01-01T15:36:36.172Z</time>
    </trkpt>
    <trkpt lat="56.4061455024" lon="61.0488441402">
        <ele>251.5</ele>
        <time>1970-01-01T15:36:37.172Z</time>
    </trkpt>
    <trkpt lat="56.4061911838" lon="61.0488165638">
        <ele>251.6</ele>
        <time>1970-01-01T15:36:38.172Z</time>
    </trkpt>
    <trkpt lat="56.4062358593" lon="61.048784964">
        <ele>251.3</ele>
        <time>1970-01-01T15:36:39.172Z</time>
    </trkpt>
    <trkpt lat="56.4062862765" lon="61.0487575552">
        <ele>251.8</ele>
        <time>1970-01-01T15:36:40.172Z</time>
    </trkpt>
    <trkpt lat="56.4063373642" lon="61.0487258716">
        <ele>251.8</ele>
        <time>1970-01-01T15:36:41.172Z</time>
    </trkpt>
    <trkpt lat="56.4063906312" lon="61.0486899132">
        <ele>252.0</ele>
        <time>1970-01-01T15:36:42.172Z</time>
    </trkpt>
    <trkpt lat="56.4064404616" lon="61.0486453215">
        <ele>252.6</ele>
        <time>1970-01-01T15:36:43.172Z</time>
    </trkpt>
    <trkpt lat="56.4064882803" lon="61.0485997239">
        <ele>252.8</ele>
        <time>1970-01-01T15:36:44.172Z</time>
    </trkpt>
    <trkpt lat="56.4065415054" lon="61.0485662801">
        <ele>252.9</ele>
        <time>1970-01-01T15:36:45.172Z</time>
    </trkpt>
    <trkpt lat="56.406590791" lon="61.0485391228">
        <ele>253.2</ele>
        <time>1970-01-01T15:36:46.172Z</time>
    </trkpt>
    <trkpt lat="56.4066448124" lon="61.0485180004">
        <ele>253.5</ele>
        <time>1970-01-01T15:36:47.172Z</time>
    </trkpt>
    <trkpt lat="56.4066895717" lon="61.0485053437">
        <ele>253.6</ele>
        <time>1970-01-01T15:36:48.172Z</time>
    </trkpt>
    <trkpt lat="56.4067277094" lon="61.0484963751">
        <ele>253.8</ele>
        <time>1970-01-01T15:36:49.172Z</time>
    </trkpt>
    <trkpt lat="56.4067640449" lon="61.0484934414">
        <ele>253.9</ele>
        <time>1970-01-01T15:36:50.172Z</time>
    </trkpt>
    <trkpt lat="56.4068023502" lon="61.0484888313">
        <ele>253.9</ele>
        <time>1970-01-01T15:36:51.172Z</time>
    </trkpt>
    <trkpt lat="56.4068442178" lon="61.0484807009">
        <ele>254.0</ele>
        <time>1970-01-01T15:36:52.172Z</time>
    </trkpt>
    <trkpt lat="56.4068829003" lon="61.0484748336">
        <ele>254.1</ele>
        <time>1970-01-01T15:36:53.172Z</time>
    </trkpt>
    <trkpt lat="56.4069228401" lon="61.0484720675">
        <ele>253.9</ele>
        <time>1970-01-01T15:36:54.172Z</time>
    </trkpt>
    <trkpt lat="56.4069642467" lon="61.0484919326">
        <ele>253.7</ele>
        <time>1970-01-01T15:36:55.172Z</time>
    </trkpt>
    <trkpt lat="56.4069962237" lon="61.048526969">
        <ele>254.1</ele>
        <time>1970-01-01T15:36:56.172Z</time>
    </trkpt>
    <trkpt lat="56.4070332717" lon="61.0485532882">
        <ele>254.3</ele>
        <time>1970-01-01T15:36:57.172Z</time>
    </trkpt>
    <trkpt lat="56.4070716189" lon="61.0485687947">
        <ele>254.5</ele>
        <time>1970-01-01T15:36:58.172Z</time>
    </trkpt>
    <trkpt lat="56.4071061104" lon="61.0485683756">
        <ele>254.6</ele>
        <time>1970-01-01T15:36:59.172Z</time>
    </trkpt>
    <trkpt lat="56.4071406438" lon="61.0485512765">
        <ele>254.7</ele>
        <time>1970-01-01T15:37:00.172Z</time>
    </trkpt>
    <trkpt lat="56.4071707349" lon="61.0485278072">
        <ele>254.6</ele>
        <time>1970-01-01T15:37:01.172Z</time>
    </trkpt>
    <trkpt lat="56.4072266422" lon="61.0485117139">
        <ele>254.6</ele>
        <time>1970-01-01T15:37:02.172Z</time>
    </trkpt>
    <trkpt lat="56.407260547" lon="61.0484988058">
        <ele>254.4</ele>
        <time>1970-01-01T15:37:03.172Z</time>
    </trkpt>
    <trkpt lat="56.4072902189" lon="61.0484818744">
        <ele>254.6</ele>
        <time>1970-01-01T15:37:04.172Z</time>
    </trkpt>
    <trkpt lat="56.4073129339" lon="61.0484687148">
        <ele>255.0</ele>
        <time>1970-01-01T15:37:05.172Z</time>
    </trkpt>
    <trkpt lat="56.4073366547" lon="61.0484456645">
        <ele>255.0</ele>
        <time>1970-01-01T15:37:06.172Z</time>
    </trkpt>
    <trkpt lat="56.4073543405" lon="61.0484287331">
        <ele>255.8</ele>
        <time>1970-01-01T15:37:07.172Z</time>
    </trkpt>
    <trkpt lat="56.40735767842327" lon="61.0484243020779">
        <ele>256.0</ele>
        <time>1970-01-01T15:37:07.672Z</time>
    </trkpt>
    <trkpt lat="56.4075419694" lon="61.0479212089">
        <ele>254.4</ele>
        <time>1970-01-01T15:43:03.172Z</time>
    </trkpt>
    <trkpt lat="56.4075819091" lon="61.0479036069">
        <ele>254.4</ele>
        <time>1970-01-01T15:43:04.172Z</time>
    </trkpt>
    <trkpt lat="56.4076114553" lon="61.0478967337">
        <ele>254.6</ele>
        <time>1970-01-01T15:43:05.172Z</time>
    </trkpt>
    <trkpt lat="56.4076497187" lon="61.0478932133">
        <ele>255.5</ele>
        <time>1970-01-01T15:43:06.172Z</time>
    </trkpt>
    <trkpt lat="56.4076772952" lon="61.0478896929">
        <ele>255.7</ele>
        <time>1970-01-01T15:43:07.172Z</time>
    </trkpt>
    <trkpt lat="56.4077140498" lon="61.04790587">
        <ele>256.7</ele>
        <time>1970-01-01T15:43:08.172Z</time>
    </trkpt>
    <trkpt lat="56.4077509721" lon="61.0479260704">
        <ele>257.1</ele>
        <time>1970-01-01T15:43:09.172Z</time>
    </trkpt>
    <trkpt lat="56.4077739805" lon="61.0479542336">
        <ele>258.3</ele>
        <time>1970-01-01T15:43:10.172Z</time>
    </trkpt>
    <trkpt lat="56.4077958991" lon="61.0479697401">
        <ele>258.6</ele>
        <time>1970-01-01T15:43:11.172Z</time>
    </trkpt>
    <trkpt lat="56.4078227631" lon="61.0479901919">
        <ele>259.0</ele>
        <time>1970-01-01T15:43:12.172Z</time>
    </trkpt>
    <trkpt lat="56.407833953" lon="61.0480005017">
        <ele>259.1</ele>
        <time>1970-01-01T15:43:13.172Z</time>
    </trkpt>
    <trkpt lat="56.4078388983" lon="61.0479996635">
        <ele>258.7</ele>
        <time>1970-01-01T15:43:14.172Z</time>
    </trkpt>
    <trkpt lat="56.4086735263" lon="61.048624702">
        <ele>254.4</ele>
        <time>1970-01-01T15:45:50.172Z</time>
    </trkpt>
    <trkpt lat="56.4086968699" lon="61.0486401247">
        <ele>254.8</ele>
        <time>1970-01-01T15:45:51.172Z</time>
    </trkpt>
    <trkpt lat="56.408716735" lon="61.0486543739">
        <ele>255.2</ele>
        <time>1970-01-01T15:45:52.172Z</time>
    </trkpt>
    <trkpt lat="56.4087423417" lon="61.0486613309">
        <ele>255.4</ele>
        <time>1970-01-01T15:45:53.172Z</time>
    </trkpt>
    <trkpt lat="56.4087546212" lon="61.0486632587">
        <ele>255.4</ele>
        <time>1970-01-01T15:45:54.172Z</time>
    </trkpt>
    <trkpt lat="56.408777881" lon="61.0486672821">
        <ele>255.3</ele>
        <time>1970-01-01T15:45:55.172Z</time>
    </trkpt>
    <trkpt lat="56.4087987519" lon="61.0486744905">
        <ele>255.1</ele>
        <time>1970-01-01T15:45:56.172Z</time>
    </trkpt>
    <trkpt lat="56.4088192457" lon="61.0486811122">
        <ele>255.0</ele>
        <time>1970-01-01T15:45:57.172Z</time>
    </trkpt>
    <trkpt lat="56.4088556651" lon="61.0486936851">
        <ele>255.3</ele>
        <time>1970-01-01T15:45:58.172Z</time>
    </trkpt>
    <trkpt lat="56.4089031066" lon="61.048724279">
        <ele>255.8</ele>
        <time>1970-01-01T15:45:59.172Z</time>
    </trkpt>
    <trkpt lat="56.4089414957" lon="61.0487518555">
        <ele>255.9</ele>
        <time>1970-01-01T15:46:00.172Z</time>
    </trkpt>
    <trkpt lat="56.4089947627" lon="61.0487763306">
        <ele>256.3</ele>
        <time>1970-01-01T15:46:01.172Z</time>
    </trkpt>
    <trkpt lat="56.4090328585" lon="61.0487996323">
        <ele>256.3</ele>
        <time>1970-01-01T15:46:02.172Z</time>
    </trkpt>
    <trkpt lat="56.4090657994" lon="61.0488195812">
        <ele>256.1</ele>
        <time>1970-01-01T15:46:03.172Z</time>
    </trkpt>
    <trkpt lat="56.4090976506" lon="61.0488431344">
        <ele>255.8</ele>
        <time>1970-01-01T15:46:04.172Z</time>
    </trkpt>
    <trkpt lat="56.4091346986" lon="61.0488612393">
        <ele>255.8</ele>
        <time>1970-01-01T15:46:05.172Z</time>
    </trkpt>
    <trkpt lat="56.4091473134" lon="61.0488597306">
        <ele>255.8</ele>
        <time>1970-01-01T15:46:06.172Z</time>
    </trkpt>
    <trkpt lat="56.4091473972" lon="61.0488604849">
        <ele>255.7</ele>
        <time>1970-01-01T15:46:07.172Z</time>
    </trkpt>
    <trkpt lat="56.4091486126" lon="61.0488587247">
        <ele>255.8</ele>
        <time>1970-01-01T15:46:08.172Z</time>
    </trkpt>
    <trkpt lat="56.4091495765" lon="61.0488531089">
        <ele>256.0</ele>
        <time>1970-01-01T15:46:09.172Z</time>
    </trkpt>
    <trkpt lat="56.4091494089" lon="61.0488490017">
        <ele>256.3</ele>
        <time>1970-01-01T15:46:10.172Z</time>
    </trkpt>
    <trkpt lat="56.4091497441" lon="61.0488418771">
        <ele>256.5</ele>
        <time>1970-01-01T15:46:11.172Z</time>
    </trkpt>
    <trkpt lat="56.409148403" lon="61.048835926">
        <ele>256.7</ele>
        <time>1970-01-01T15:46:12.172Z</time>
    </trkpt>
    <trkpt lat="56.4091462237" lon="61.0488327408">
        <ele>257.0</ele>
        <time>1970-01-01T15:46:13.172Z</time>
    </trkpt>
    <trkpt lat="56.409147942" lon="61.0488282146">
        <ele>257.0</ele>
        <time>1970-01-01T15:46:14.172Z</time>
    </trkpt>
    <trkpt lat="56.4091457208" lon="61.0488261191">
        <ele>256.9</ele>
        <time>1970-01-01T15:46:15.172Z</time>
    </trkpt>
    <trkpt lat="56.4091484868" lon="61.0488391949">
        <ele>256.3</ele>
        <time>1970-01-01T15:46:16.172Z</time>
    </trkpt>
    <trkpt lat="56.4091484868" lon="61.0488391949">
        <ele>256.3</ele>
        <time>1970-01-01T15:46:17.172Z</time>
    </trkpt>
    <trkpt lat="56.4091484868" lon="61.0488391949">
        <ele>256.3</ele>
        <time>1970-01-01T15:46:18.172Z</time>
    </trkpt>
    <trkpt lat="56.4091484868" lon="61.0488391949">
        <ele>256.3</ele>
        <time>1970-01-01T15:46:19.172Z</time>
    </trkpt>
    <trkpt lat="56.4091484868" lon="61.0488391949">
        <ele>256.3</ele>
        <time>1970-01-01T15:46:20.172Z</time>
    </trkpt>
    <trkpt lat="56.4091484868" lon="61.0488391949">
        <ele>256.3</ele>
        <time>1970-01-01T15:46:21.172Z</time>
    </trkpt>
    <trkpt lat="56.4091484868" lon="61.0488391949">
        <ele>256.3</ele>
        <time>1970-01-01T15:46:22.172Z</time>
    </trkpt>
    <trkpt lat="56.4091484868" lon="61.0488391949">
        <ele>256.3</ele>
        <time>1970-01-01T15:46:23.172Z</time>
    </trkpt>
    <trkpt lat="56.4091484868" lon="61.0488391949">
        <ele>256.3</ele>
        <time>1970-01-01T15:46:24.172Z</time>
    </trkpt>
    <trkpt lat="56.4091484868" lon="61.0488391949">
        <ele>256.3</ele>
        <time>1970-01-01T15:46:25.172Z</time>
    </trkpt>
    <trkpt lat="56.4091484868" lon="61.0488391949">
        <ele>256.3</ele>
        <time>1970-01-01T15:46:26.172Z</time>
    </trkpt>
    <trkpt lat="56.4091484868" lon="61.0488391949">
        <ele>256.3</ele>
        <time>1970-01-01T15:46:27.172Z</time>
    </trkpt>
    <trkpt lat="56.4091484868" lon="61.0488391949">
        <ele>256.3</ele>
        <time>1970-01-01T15:46:28.172Z</time>
    </trkpt>
    <trkpt lat="56.4091484868" lon="61.0488391949">
        <ele>256.3</ele>
        <time>1970-01-01T15:46:29.172Z</time>
    </trkpt>
    <trkpt lat="56.4091484868" lon="61.0488391949">
        <ele>256.3</ele>
        <time>1970-01-01T15:46:30.172Z</time>
    </trkpt>
    <trkpt lat="56.4091484868" lon="61.0488391949">
        <ele>256.3</ele>
        <time>1970-01-01T15:46:31.172Z</time>
    </trkpt>
    <trkpt lat="56.4091484868" lon="61.0488391949">
        <ele>256.3</ele>
        <time>1970-01-01T15:46:32.172Z</time>
    </trkpt>
    <trkpt lat="56.409147942" lon="61.0488390273">
        <ele>256.3</ele>
        <time>1970-01-01T15:46:33.172Z</time>
    </trkpt>
    <trkpt lat="56.409147942" lon="61.0488388596">
        <ele>256.3</ele>
        <time>1970-01-01T15:46:34.172Z</time>
    </trkpt>
    <trkpt lat="56.4091511271" lon="61.0488282984">
        <ele>255.9</ele>
        <time>1970-01-01T15:46:35.172Z</time>
    </trkpt>
    <trkpt lat="56.4091511271" lon="61.0488282984">
        <ele>255.9</ele>
        <time>1970-01-01T15:46:36.172Z</time>
    </trkpt>
    <trkpt lat="56.4091511271" lon="61.0488282984">
        <ele>255.9</ele>
        <time>1970-01-01T15:46:37.172Z</time>
    </trkpt>
    <trkpt lat="56.4091511271" lon="61.0488282984">
        <ele>255.9</ele>
        <time>1970-01-01T15:46:38.172Z</time>
    </trkpt>
    <trkpt lat="56.4091511271" lon="61.0488282984">
        <ele>255.9</ele>
        <time>1970-01-01T15:46:39.172Z</time>
    </trkpt>
    <trkpt lat="56.4091511271" lon="61.0488282984">
        <ele>255.9</ele>
        <time>1970-01-01T15:46:40.172Z</time>
    </trkpt>
    <trkpt lat="56.4091511271" lon="61.0488282984">
        <ele>255.9</ele>
        <time>1970-01-01T15:46:41.172Z</time>
    </trkpt>
    <trkpt lat="56.4091511271" lon="61.0488282984">
        <ele>255.9</ele>
        <time>1970-01-01T15:46:42.172Z</time>
    </trkpt>
    <trkpt lat="56.4091511271" lon="61.0488282984">
        <ele>255.9</ele>
        <time>1970-01-01T15:46:43.172Z</time>
    </trkpt>
    <trkpt lat="56.4091511271" lon="61.0488282984">
        <ele>255.9</ele>
        <time>1970-01-01T15:46:44.172Z</time>
    </trkpt>
    <trkpt lat="56.4091511271" lon="61.0488282984">
        <ele>255.9</ele>
        <time>1970-01-01T15:46:45.172Z</time>
    </trkpt>
    <trkpt lat="56.4091511271" lon="61.0488282984">
        <ele>255.9</ele>
        <time>1970-01-01T15:46:46.172Z</time>
    </trkpt>
    <trkpt lat="56.4091511271" lon="61.0488282984">
        <ele>255.9</ele>
        <time>1970-01-01T15:46:47.172Z</time>
    </trkpt>
    <trkpt lat="56.4091511271" lon="61.0488282984">
        <ele>255.9</ele>
        <time>1970-01-01T15:46:48.172Z</time>
    </trkpt>
    <trkpt lat="56.4091511691" lon="61.0488282146">
        <ele>255.8</ele>
        <time>1970-01-01T15:46:49.172Z</time>
    </trkpt>
    <trkpt lat="56.4091520911" lon="61.0488291366">
        <ele>255.8</ele>
        <time>1970-01-01T15:46:50.172Z</time>
    </trkpt>
    <trkpt lat="56.4091522587" lon="61.0488290528">
        <ele>255.8</ele>
        <time>1970-01-01T15:46:51.172Z</time>
    </trkpt>
    <trkpt lat="56.4091531388" lon="61.0488292204">
        <ele>255.9</ele>
        <time>1970-01-01T15:46:52.172Z</time>
    </trkpt>
    <trkpt lat="56.4091532645" lon="61.0488282984">
        <ele>255.8</ele>
        <time>1970-01-01T15:46:53.172Z</time>
    </trkpt>
    <trkpt lat="56.4091533064" lon="61.0488282984">
        <ele>255.8</ele>
        <time>1970-01-01T15:46:54.172Z</time>
    </trkpt>
    <trkpt lat="56.4091591738" lon="61.0488661008">
        <ele>254.2</ele>
        <time>1970-01-01T15:46:55.172Z</time>
    </trkpt>
    <trkpt lat="56.4091591738" lon="61.0488661008">
        <ele>254.2</ele>
        <time>1970-01-01T15:46:56.172Z</time>
    </trkpt>
    <trkpt lat="56.4091591738" lon="61.0488661008">
        <ele>254.2</ele>
        <time>1970-01-01T15:46:57.172Z</time>
    </trkpt>
    <trkpt lat="56.4091591738" lon="61.0488661008">
        <ele>254.2</ele>
        <time>1970-01-01T15:46:58.172Z</time>
    </trkpt>
    <trkpt lat="56.4091591738" lon="61.0488661008">
        <ele>254.2</ele>
        <time>1970-01-01T15:46:59.172Z</time>
    </trkpt>
    <trkpt lat="56.4091591738" lon="61.0488661008">
        <ele>254.2</ele>
        <time>1970-01-01T15:47:00.172Z</time>
    </trkpt>
    <trkpt lat="56.4091591738" lon="61.0488661008">
        <ele>254.2</ele>
        <time>1970-01-01T15:47:01.172Z</time>
    </trkpt>
    <trkpt lat="56.4091591738" lon="61.0488661008">
        <ele>254.2</ele>
        <time>1970-01-01T15:47:02.172Z</time>
    </trkpt>
    <trkpt lat="56.4091591738" lon="61.0488661008">
        <ele>254.2</ele>
        <time>1970-01-01T15:47:03.172Z</time>
    </trkpt>
    <trkpt lat="56.4091591738" lon="61.0488661008">
        <ele>254.2</ele>
        <time>1970-01-01T15:47:04.172Z</time>
    </trkpt>
    <trkpt lat="56.4091591738" lon="61.0488661008">
        <ele>254.2</ele>
        <time>1970-01-01T15:47:05.172Z</time>
    </trkpt>
    <trkpt lat="56.4091591738" lon="61.0488661008">
        <ele>254.2</ele>
        <time>1970-01-01T15:47:06.172Z</time>
    </trkpt>
    <trkpt lat="56.4091591738" lon="61.0488661008">
        <ele>254.2</ele>
        <time>1970-01-01T15:47:07.172Z</time>
    </trkpt>
    <trkpt lat="56.4091591738" lon="61.0488661008">
        <ele>254.2</ele>
        <time>1970-01-01T15:47:08.172Z</time>
    </trkpt>
    <trkpt lat="56.4091591738" lon="61.0488661008">
        <ele>254.2</ele>
        <time>1970-01-01T15:47:09.172Z</time>
    </trkpt>
    <trkpt lat="56.4091591738" lon="61.0488661008">
        <ele>254.2</ele>
        <time>1970-01-01T15:47:10.172Z</time>
    </trkpt>
    <trkpt lat="56.4091591738" lon="61.0488661008">
        <ele>254.2</ele>
        <time>1970-01-01T15:47:11.172Z</time>
    </trkpt>
    <trkpt lat="56.4091591738" lon="61.0488661008">
        <ele>254.2</ele>
        <time>1970-01-01T15:47:12.172Z</time>
    </trkpt>
    <trkpt lat="56.4091591738" lon="61.0488661008">
        <ele>254.2</ele>
        <time>1970-01-01T15:47:13.172Z</time>
    </trkpt>
    <trkpt lat="56.4091591738" lon="61.0488661008">
        <ele>254.2</ele>
        <time>1970-01-01T15:47:14.172Z</time>
    </trkpt>
    <trkpt lat="56.4091591738" lon="61.0488661008">
        <ele>254.2</ele>
        <time>1970-01-01T15:47:15.172Z</time>
    </trkpt>
    <trkpt lat="56.4091591738" lon="61.0488661008">
        <ele>254.2</ele>
        <time>1970-01-01T15:47:16.172Z</time>
    </trkpt>
    <trkpt lat="56.4091591738" lon="61.0488661008">
        <ele>254.2</ele>
        <time>1970-01-01T15:47:17.172Z</time>
    </trkpt>
    <trkpt lat="56.4091591738" lon="61.0488661008">
        <ele>254.2</ele>
        <time>1970-01-01T15:47:18.172Z</time>
    </trkpt>
    <trkpt lat="56.4091591738" lon="61.0488661008">
        <ele>254.2</ele>
        <time>1970-01-01T15:47:19.172Z</time>
    </trkpt>
    <trkpt lat="56.4091591738" lon="61.0488661008">
        <ele>254.2</ele>
        <time>1970-01-01T15:47:20.172Z</time>
    </trkpt>
    <trkpt lat="56.4091591738" lon="61.0488661008">
        <ele>254.2</ele>
        <time>1970-01-01T15:47:21.172Z</time>
    </trkpt>
    <trkpt lat="56.4091591738" lon="61.0488661008">
        <ele>254.2</ele>
        <time>1970-01-01T15:47:22.172Z</time>
    </trkpt>
    <trkpt lat="56.4091591738" lon="61.0488661008">
        <ele>254.2</ele>
        <time>1970-01-01T15:47:23.172Z</time>
    </trkpt>
    <trkpt lat="56.4091591738" lon="61.0488661008">
        <ele>254.2</ele>
        <time>1970-01-01T15:47:24.172Z</time>
    </trkpt>
    <trkpt lat="56.4091591738" lon="61.0488661008">
        <ele>254.2</ele>
        <time>1970-01-01T15:47:25.172Z</time>
    </trkpt>
    <trkpt lat="56.4091591738" lon="61.0488661008">
        <ele>254.2</ele>
        <time>1970-01-01T15:47:26.172Z</time>
    </trkpt>
    <trkpt lat="56.4091591738" lon="61.0488661008">
        <ele>254.2</ele>
        <time>1970-01-01T15:47:27.172Z</time>
    </trkpt>
    <trkpt lat="56.4091591738" lon="61.0488661008">
        <ele>254.2</ele>
        <time>1970-01-01T15:47:28.172Z</time>
    </trkpt>
    <trkpt lat="56.4091591738" lon="61.0488661008">
        <ele>254.2</ele>
        <time>1970-01-01T15:47:29.172Z</time>
    </trkpt>
    <trkpt lat="56.4091591738" lon="61.0488661008">
        <ele>254.2</ele>
        <time>1970-01-01T15:47:30.172Z</time>
    </trkpt>
    <trkpt lat="56.4091591738" lon="61.0488661008">
        <ele>254.2</ele>
        <time>1970-01-01T15:47:31.172Z</time>
    </trkpt>
    <trkpt lat="56.4091591738" lon="61.0488661008">
        <ele>254.2</ele>
        <time>1970-01-01T15:47:32.172Z</time>
    </trkpt>
    <trkpt lat="56.4091591738" lon="61.0488661008">
        <ele>254.2</ele>
        <time>1970-01-01T15:47:33.172Z</time>
    </trkpt>
    <trkpt lat="56.4091591738" lon="61.0488661008">
        <ele>254.2</ele>
        <time>1970-01-01T15:47:34.172Z</time>
    </trkpt>
    <trkpt lat="56.4091591738" lon="61.0488661008">
        <ele>254.2</ele>
        <time>1970-01-01T15:47:35.172Z</time>
    </trkpt>
    <trkpt lat="56.4091591738" lon="61.0488661008">
        <ele>254.2</ele>
        <time>1970-01-01T15:47:36.172Z</time>
    </trkpt>
    <trkpt lat="56.4091591738" lon="61.0488661008">
        <ele>254.2</ele>
        <time>1970-01-01T15:47:37.172Z</time>
    </trkpt>
    <trkpt lat="56.4091591738" lon="61.0488661008">
        <ele>254.2</ele>
        <time>1970-01-01T15:47:38.172Z</time>
    </trkpt>
    <trkpt lat="56.4091591738" lon="61.0488661008">
        <ele>254.2</ele>
        <time>1970-01-01T15:47:39.172Z</time>
    </trkpt>
    <trkpt lat="56.4091591738" lon="61.0488661008">
        <ele>254.2</ele>
        <time>1970-01-01T15:47:40.172Z</time>
    </trkpt>
    <trkpt lat="56.4091591738" lon="61.0488661008">
        <ele>254.2</ele>
        <time>1970-01-01T15:47:41.172Z</time>
    </trkpt>
    <trkpt lat="56.4091591738" lon="61.0488661008">
        <ele>254.2</ele>
        <time>1970-01-01T15:47:42.172Z</time>
    </trkpt>
    <trkpt lat="56.4091591738" lon="61.0488661008">
        <ele>254.2</ele>
        <time>1970-01-01T15:47:43.172Z</time>
    </trkpt>
    <trkpt lat="56.4091591738" lon="61.0488661008">
        <ele>254.2</ele>
        <time>1970-01-01T15:47:44.172Z</time>
    </trkpt>
    <trkpt lat="56.4091591738" lon="61.0488661008">
        <ele>254.2</ele>
        <time>1970-01-01T15:47:45.172Z</time>
    </trkpt>
    <trkpt lat="56.4091591738" lon="61.0488661008">
        <ele>254.2</ele>
        <time>1970-01-01T15:47:46.172Z</time>
    </trkpt>
    <trkpt lat="56.4091591738" lon="61.0488661008">
        <ele>254.2</ele>
        <time>1970-01-01T15:47:47.172Z</time>
    </trkpt>
    <trkpt lat="56.4091591738" lon="61.0488661008">
        <ele>254.2</ele>
        <time>1970-01-01T15:47:48.172Z</time>
    </trkpt>
    <trkpt lat="56.4091591738" lon="61.0488661008">
        <ele>254.2</ele>
        <time>1970-01-01T15:47:49.172Z</time>
    </trkpt>
    <trkpt lat="56.4091591738" lon="61.0488661008">
        <ele>254.2</ele>
        <time>1970-01-01T15:47:50.172Z</time>
    </trkpt>
    <trkpt lat="56.4091591738" lon="61.0488661008">
        <ele>254.2</ele>
        <time>1970-01-01T15:47:51.171Z</time>
    </trkpt>
    <trkpt lat="56.4091591738" lon="61.0488661008">
        <ele>254.2</ele>
        <time>1970-01-01T15:47:52.171Z</time>
    </trkpt>
    <trkpt lat="56.4091597186" lon="61.0488671066">
        <ele>254.1</ele>
        <time>1970-01-01T15:47:53.171Z</time>
    </trkpt>
    <trkpt lat="56.4091610178" lon="61.0488696212">
        <ele>254.2</ele>
        <time>1970-01-01T15:47:54.171Z</time>
    </trkpt>
    <trkpt lat="56.4091614369" lon="61.0488679448">
        <ele>254.3</ele>
        <time>1970-01-01T15:47:55.171Z</time>
    </trkpt>
    <trkpt lat="56.4091626942" lon="61.0488620775">
        <ele>254.2</ele>
        <time>1970-01-01T15:47:56.171Z</time>
    </trkpt>
    <trkpt lat="56.409162317" lon="61.0488666037">
        <ele>254.0</ele>
        <time>1970-01-01T15:47:57.171Z</time>
    </trkpt>
    <trkpt lat="56.4091622751" lon="61.0488702079">
        <ele>253.4</ele>
        <time>1970-01-01T15:47:58.171Z</time>
    </trkpt>
    <trkpt lat="56.4091622751" lon="61.0488702079">
        <ele>253.4</ele>
        <time>1970-01-01T15:47:59.171Z</time>
    </trkpt>
    <trkpt lat="56.4091621493" lon="61.0488705432">
        <ele>253.4</ele>
        <time>1970-01-01T15:48:00.171Z</time>
    </trkpt>
    <trkpt lat="56.4091615207" lon="61.0488730578">
        <ele>253.2</ele>
        <time>1970-01-01T15:48:01.171Z</time>
    </trkpt>
    <trkpt lat="56.4091614369" lon="61.048870627">
        <ele>253.5</ele>
        <time>1970-01-01T15:48:02.171Z</time>
    </trkpt>
    <trkpt lat="56.4091614369" lon="61.048872974">
        <ele>253.7</ele>
        <time>1970-01-01T15:48:03.171Z</time>
    </trkpt>
    <trkpt lat="56.4091624008" lon="61.0488738122">
        <ele>253.7</ele>
        <time>1970-01-01T15:48:04.171Z</time>
    </trkpt>
    <trkpt lat="56.4091644963" lon="61.0488762429">
        <ele>253.8</ele>
        <time>1970-01-01T15:48:05.171Z</time>
    </trkpt>
    <trkpt lat="56.409166005" lon="61.0488782546">
        <ele>253.9</ele>
        <time>1970-01-01T15:48:06.171Z</time>
    </trkpt>
    <trkpt lat="56.4091665079" lon="61.0488911627">
        <ele>253.8</ele>
        <time>1970-01-01T15:48:07.171Z</time>
    </trkpt>
    <trkpt lat="56.4091665079" lon="61.0488911627">
        <ele>253.8</ele>
        <time>1970-01-01T15:48:08.171Z</time>
    </trkpt>
    <trkpt lat="56.4091665918" lon="61.0488911627">
        <ele>253.8</ele>
        <time>1970-01-01T15:48:09.171Z</time>
    </trkpt>
    <trkpt lat="56.4091681843" lon="61.0488961918">
        <ele>254.0</ele>
        <time>1970-01-01T15:48:10.171Z</time>
    </trkpt>
    <trkpt lat="56.4091667594" lon="61.0489101896">
        <ele>254.7</ele>
        <time>1970-01-01T15:48:11.171Z</time>
    </trkpt>
    <trkpt lat="56.4091667594" lon="61.0489101896">
        <ele>254.7</ele>
        <time>1970-01-01T15:48:12.171Z</time>
    </trkpt>
    <trkpt lat="56.4091667594" lon="61.0489101896">
        <ele>254.7</ele>
        <time>1970-01-01T15:48:13.171Z</time>
    </trkpt>
    <trkpt lat="56.4091667594" lon="61.0489101896">
        <ele>254.7</ele>
        <time>1970-01-01T15:48:14.171Z</time>
    </trkpt>
    <trkpt lat="56.4091658374" lon="61.0489189906">
        <ele>254.8</ele>
        <time>1970-01-01T15:48:15.172Z</time>
    </trkpt>
    <trkpt lat="56.4091656697" lon="61.0489295518">
        <ele>255.1</ele>
        <time>1970-01-01T15:48:16.172Z</time>
    </trkpt>
    <trkpt lat="56.4091652506" lon="61.0489381014">
        <ele>255.5</ele>
        <time>1970-01-01T15:48:17.172Z</time>
    </trkpt>
    <trkpt lat="56.4091676395" lon="61.0489424599">
        <ele>256.0</ele>
        <time>1970-01-01T15:48:18.172Z</time>
    </trkpt>
    <trkpt lat="56.4091657536" lon="61.0489479082">
        <ele>255.8</ele>
        <time>1970-01-01T15:48:19.172Z</time>
    </trkpt>
    <trkpt lat="56.4091666337" lon="61.0489509257">
        <ele>255.4</ele>
        <time>1970-01-01T15:48:20.172Z</time>
    </trkpt>
    <trkpt lat="56.4091647058" lon="61.0489590561">
        <ele>255.3</ele>
        <time>1970-01-01T15:48:21.172Z</time>
    </trkpt>
    <trkpt lat="56.4091715371" lon="61.0489625765">
        <ele>255.8</ele>
        <time>1970-01-01T15:48:22.172Z</time>
    </trkpt>
    <trkpt lat="56.4091735487" lon="61.0489601458">
        <ele>255.8</ele>
        <time>1970-01-01T15:48:23.172Z</time>
    </trkpt>
    <trkpt lat="56.409172501" lon="61.0489645882">
        <ele>255.7</ele>
        <time>1970-01-01T15:48:24.172Z</time>
    </trkpt>
    <trkpt lat="56.4091753089" lon="61.0489607325">
        <ele>255.9</ele>
        <time>1970-01-01T15:48:25.172Z</time>
    </trkpt>
    <trkpt lat="56.4091705312" lon="61.0489676895">
        <ele>255.0</ele>
        <time>1970-01-01T15:48:26.172Z</time>
    </trkpt>
    <trkpt lat="56.4091690225" lon="61.0489732215">
        <ele>254.7</ele>
        <time>1970-01-01T15:48:27.172Z</time>
    </trkpt>
    <trkpt lat="56.4091688968" lon="61.0489770772">
        <ele>254.6</ele>
        <time>1970-01-01T15:48:28.172Z</time>
    </trkpt>
    <trkpt lat="56.4091670528" lon="61.048978083">
        <ele>254.3</ele>
        <time>1970-01-01T15:48:29.172Z</time>
    </trkpt>
    <trkpt lat="56.4091797513" lon="61.0489884766">
        <ele>254.2</ele>
        <time>1970-01-01T15:48:30.172Z</time>
    </trkpt>
    <trkpt lat="56.4091784941" lon="61.0489832798">
        <ele>254.1</ele>
        <time>1970-01-01T15:48:31.172Z</time>
    </trkpt>
    <trkpt lat="56.4091966409" lon="61.0489987025">
        <ele>253.9</ele>
        <time>1970-01-01T15:48:32.172Z</time>
    </trkpt>
    <trkpt lat="56.4092319287" lon="61.0490289612">
        <ele>253.7</ele>
        <time>1970-01-01T15:48:33.172Z</time>
    </trkpt>
    <trkpt lat="56.4092719523" lon="61.0490465632">
        <ele>253.5</ele>
        <time>1970-01-01T15:48:34.172Z</time>
    </trkpt>
    <trkpt lat="56.4093131074" lon="61.0490757322">
        <ele>253.4</ele>
        <time>1970-01-01T15:48:35.172Z</time>
    </trkpt>
    <trkpt lat="56.4093597946" lon="61.0491025543">
        <ele>253.2</ele>
        <time>1970-01-01T15:48:36.172Z</time>
    </trkpt>
    <trkpt lat="56.4094088288" lon="61.0491328968">
        <ele>253.1</ele>
        <time>1970-01-01T15:48:37.172Z</time>
    </trkpt>
    <trkpt lat="56.4094603775" lon="61.0491587969">
        <ele>253.1</ele>
        <time>1970-01-01T15:48:38.172Z</time>
    </trkpt>
    <trkpt lat="56.4095134349" lon="61.0491850322">
        <ele>253.5</ele>
        <time>1970-01-01T15:48:39.172Z</time>
    </trkpt>
    <trkpt lat="56.4095658637" lon="61.0492172187">
        <ele>253.4</ele>
        <time>1970-01-01T15:48:40.172Z</time>
    </trkpt>
    <trkpt lat="56.4096186697" lon="61.0492385926">
        <ele>253.1</ele>
        <time>1970-01-01T15:48:41.172Z</time>
    </trkpt>
    <trkpt lat="56.4096706375" lon="61.0492633192">
        <ele>253.1</ele>
        <time>1970-01-01T15:48:42.172Z</time>
    </trkpt>
    <trkpt lat="56.4097201326" lon="61.0492852798">
        <ele>252.9</ele>
        <time>1970-01-01T15:48:43.172Z</time>
    </trkpt>
    <trkpt lat="56.4097688734" lon="61.0493084977">
        <ele>252.5</ele>
        <time>1970-01-01T15:48:44.172Z</time>
    </trkpt>
    <trkpt lat="56.4098233558" lon="61.0493255129">
        <ele>252.8</ele>
        <time>1970-01-01T15:48:45.172Z</time>
    </trkpt>
    <trkpt lat="56.4098804784" lon="61.049353257">
        <ele>253.0</ele>
        <time>1970-01-01T15:48:46.172Z</time>
    </trkpt>
    <trkpt lat="56.4099378526" lon="61.0493801629">
        <ele>252.7</ele>
        <time>1970-01-01T15:48:47.172Z</time>
    </trkpt>
    <trkpt lat="56.4099964421" lon="61.0494026264">
        <ele>252.8</ele>
        <time>1970-01-01T15:48:48.172Z</time>
    </trkpt>
    <trkpt lat="56.41005763" lon="61.0494336395">
        <ele>252.5</ele>
        <time>1970-01-01T15:48:49.172Z</time>
    </trkpt>
    <trkpt lat="56.4101218773" lon="61.0494511576">
        <ele>252.3</ele>
        <time>1970-01-01T15:48:50.172Z</time>
    </trkpt>
    <trkpt lat="56.4101788742" lon="61.049468592">
        <ele>252.3</ele>
        <time>1970-01-01T15:48:51.172Z</time>
    </trkpt>
    <trkpt lat="56.4102362483" lon="61.0494928157">
        <ele>251.9</ele>
        <time>1970-01-01T15:48:52.172Z</time>
    </trkpt>
    <trkpt lat="56.4102998251" lon="61.0495137705">
        <ele>251.9</ele>
        <time>1970-01-01T15:48:53.172Z</time>
    </trkpt>
    <trkpt lat="56.41036051" lon="61.0495421013">
        <ele>251.3</ele>
        <time>1970-01-01T15:48:54.172Z</time>
    </trkpt>
    <trkpt lat="56.4104274814" lon="61.0495587813">
        <ele>251.4</ele>
        <time>1970-01-01T15:48:55.172Z</time>
    </trkpt>
    <trkpt lat="56.4104943271" lon="61.049594572">
        <ele>251.6</ele>
        <time>1970-01-01T15:48:56.172Z</time>
    </trkpt>
    <trkpt lat="56.4105552217" lon="61.0496289378">
        <ele>251.1</ele>
        <time>1970-01-01T15:48:57.172Z</time>
    </trkpt>
    <trkpt lat="56.4106230732" lon="61.0496566819">
        <ele>251.4</ele>
        <time>1970-01-01T15:48:58.172Z</time>
    </trkpt>
    <trkpt lat="56.4106919305" lon="61.0496915506">
        <ele>251.5</ele>
        <time>1970-01-01T15:48:59.172Z</time>
    </trkpt>
    <trkpt lat="56.410756094" lon="61.0497289339">
        <ele>251.3</ele>
        <time>1970-01-01T15:49:00.172Z</time>
    </trkpt>
    <trkpt lat="56.4108275078" lon="61.0497668201">
        <ele>251.6</ele>
        <time>1970-01-01T15:49:01.172Z</time>
    </trkpt>
    <trkpt lat="56.4109008494" lon="61.0498109927">
        <ele>251.6</ele>
        <time>1970-01-01T15:49:02.172Z</time>
    </trkpt>
    <trkpt lat="56.4109722213" lon="61.0498612842">
        <ele>251.7</ele>
        <time>1970-01-01T15:49:03.172Z</time>
    </trkpt>
    <trkpt lat="56.4110458983" lon="61.049905373">
        <ele>251.8</ele>
        <time>1970-01-01T15:49:04.172Z</time>
    </trkpt>
    <trkpt lat="56.4111174797" lon="61.0499563349">
        <ele>251.7</ele>
        <time>1970-01-01T15:49:05.172Z</time>
    </trkpt>
    <trkpt lat="56.4111915757" lon="61.0500019325">
        <ele>251.9</ele>
        <time>1970-01-01T15:49:06.172Z</time>
    </trkpt>
    <trkpt lat="56.4112592177" lon="61.0500542356">
        <ele>251.7</ele>
        <time>1970-01-01T15:49:07.172Z</time>
    </trkpt>
    <trkpt lat="56.4113292904" lon="61.0501006713">
        <ele>252.1</ele>
        <time>1970-01-01T15:49:08.172Z</time>
    </trkpt>
    <trkpt lat="56.4114002851" lon="61.0501518009">
        <ele>252.3</ele>
        <time>1970-01-01T15:49:09.172Z</time>
    </trkpt>
    <trkpt lat="56.4114693939" lon="61.0501997454">
        <ele>252.1</ele>
        <time>1970-01-01T15:49:10.172Z</time>
    </trkpt>
    <trkpt lat="56.4115428194" lon="61.0502434151">
        <ele>252.1</ele>
        <time>1970-01-01T15:49:11.172Z</time>
    </trkpt>
    <trkpt lat="56.4116100003" lon="61.0502728356">
        <ele>252.3</ele>
        <time>1970-01-01T15:49:12.172Z</time>
    </trkpt>
    <trkpt lat="56.4116755468" lon="61.0503136555">
        <ele>252.4</ele>
        <time>1970-01-01T15:49:13.172Z</time>
    </trkpt>
    <trkpt lat="56.411745871" lon="61.0503605941">
        <ele>252.2</ele>
        <time>1970-01-01T15:49:14.172Z</time>
    </trkpt>
    <trkpt lat="56.4118147702" lon="61.0504030904">
        <ele>252.5</ele>
        <time>1970-01-01T15:49:15.172Z</time>
    </trkpt>
    <trkpt lat="56.4118790594" lon="61.0504506996">
        <ele>252.2</ele>
        <time>1970-01-01T15:49:16.172Z</time>
    </trkpt>
    <trkpt lat="56.4119444802" lon="61.0504927768">
        <ele>251.9</ele>
        <time>1970-01-01T15:49:17.172Z</time>
    </trkpt>
    <trkpt lat="56.412009859" lon="61.0505348539">
        <ele>252.3</ele>
        <time>1970-01-01T15:49:18.172Z</time>
    </trkpt>
    <trkpt lat="56.4120667722" lon="61.0505970476">
        <ele>252.5</ele>
        <time>1970-01-01T15:49:19.172Z</time>
    </trkpt>
    <trkpt lat="56.4121310614" lon="61.0506342633">
        <ele>252.6</ele>
        <time>1970-01-01T15:49:20.172Z</time>
    </trkpt>
    <trkpt lat="56.4121995834" lon="61.0506752508">
        <ele>252.4</ele>
        <time>1970-01-01T15:49:21.172Z</time>
    </trkpt>
    <trkpt lat="56.4122698657" lon="61.05072286">
        <ele>252.6</ele>
        <time>1970-01-01T15:49:22.172Z</time>
    </trkpt>
    <trkpt lat="56.4123400641" lon="61.0507801922">
        <ele>252.8</ele>
        <time>1970-01-01T15:49:23.172Z</time>
    </trkpt>
    <trkpt lat="56.4124209076" lon="61.0508392846">
        <ele>253.5</ele>
        <time>1970-01-01T15:49:24.172Z</time>
    </trkpt>
    <trkpt lat="56.4124940397" lon="61.0508748239">
        <ele>253.4</ele>
        <time>1970-01-01T15:49:25.172Z</time>
    </trkpt>
    <trkpt lat="56.4125452531" lon="61.0509260373">
        <ele>252.9</ele>
        <time>1970-01-01T15:49:26.172Z</time>
    </trkpt>
    <trkpt lat="56.4126090813" lon="61.0509579724">
        <ele>253.3</ele>
        <time>1970-01-01T15:49:27.172Z</time>
    </trkpt>
    <trkpt lat="56.4126664973" lon="61.0509844592">
        <ele>254.0</ele>
        <time>1970-01-01T15:49:28.172Z</time>
    </trkpt>
    <trkpt lat="56.4127299902" lon="61.0510025641">
        <ele>254.0</ele>
        <time>1970-01-01T15:49:29.172Z</time>
    </trkpt>
    <trkpt lat="56.41273538170382" lon="61.05100558267529">
        <ele>253.9</ele>
        <time>1970-01-01T15:49:29.672Z</time>
    </trkpt>
    <trkpt lat="56.4128814512" lon="61.0511241017">
        <ele>251.7</ele>
        <time>1970-01-01T15:53:41.172Z</time>
    </trkpt>
    <trkpt lat="56.4129550443" lon="61.0511649216">
        <ele>254.7</ele>
        <time>1970-01-01T15:54:45.172Z</time>
    </trkpt>
    <trkpt lat="56.4129826208" lon="61.0512496626">
        <ele>254.4</ele>
        <time>1970-01-01T15:54:46.172Z</time>
    </trkpt>
    <trkpt lat="56.4129998037" lon="61.0513094256">
        <ele>253.9</ele>
        <time>1970-01-01T15:54:47.172Z</time>
    </trkpt>
    <trkpt lat="56.4130138853" lon="61.0513586274">
        <ele>254.2</ele>
        <time>1970-01-01T15:54:48.172Z</time>
    </trkpt>
    <trkpt lat="56.4130195012" lon="61.0513652491">
        <ele>254.6</ele>
        <time>1970-01-01T15:54:49.172Z</time>
    </trkpt>
    <trkpt lat="56.4130206747" lon="61.0513671769">
        <ele>254.5</ele>
        <time>1970-01-01T15:54:50.172Z</time>
    </trkpt>
    <trkpt lat="56.4130244884" lon="61.0513672607">
        <ele>254.6</ele>
        <time>1970-01-01T15:54:51.172Z</time>
    </trkpt>
    <trkpt lat="56.4130273802" lon="61.0513978547">
        <ele>254.4</ele>
        <time>1970-01-01T15:54:52.172Z</time>
    </trkpt>
    <trkpt lat="56.4130326608" lon="61.0514424464">
        <ele>254.4</ele>
        <time>1970-01-01T15:54:53.172Z</time>
    </trkpt>
    <trkpt lat="56.4130358459" lon="61.0514585396">
        <ele>254.1</ele>
        <time>1970-01-01T15:54:54.172Z</time>
    </trkpt>
    <trkpt lat="56.4130384862" lon="61.0514592102">
        <ele>254.1</ele>
        <time>1970-01-01T15:54:55.172Z</time>
    </trkpt>
    <trkpt lat="56.4130391567" lon="61.0514610542">
        <ele>253.8</ele>
        <time>1970-01-01T15:54:56.172Z</time>
    </trkpt>
    <trkpt lat="56.4130389472" lon="61.0514621439">
        <ele>254.4</ele>
        <time>1970-01-01T15:54:57.172Z</time>
    </trkpt>
    <trkpt lat="56.413041378" lon="61.051470861">
        <ele>254.6</ele>
        <time>1970-01-01T15:54:58.172Z</time>
    </trkpt>
    <trkpt lat="56.4130447307" lon="61.0514753873">
        <ele>254.4</ele>
        <time>1970-01-01T15:54:59.172Z</time>
    </trkpt>
    <trkpt lat="56.4130482092" lon="61.0515100883">
        <ele>254.4</ele>
        <time>1970-01-01T15:55:00.172Z</time>
    </trkpt>
    <trkpt lat="56.4130629194" lon="61.0515442027">
        <ele>254.1</ele>
        <time>1970-01-01T15:55:01.172Z</time>
    </trkpt>
    <trkpt lat="56.4130646377" lon="61.0515923148">
        <ele>254.1</ele>
        <time>1970-01-01T15:55:02.172Z</time>
    </trkpt>
    <trkpt lat="56.4130665656" lon="61.0515948294">
        <ele>254.2</ele>
        <time>1970-01-01T15:55:03.172Z</time>
    </trkpt>
    <trkpt lat="56.4130666075" lon="61.0515965896">
        <ele>253.9</ele>
        <time>1970-01-01T15:55:04.172Z</time>
    </trkpt>
    <trkpt lat="56.4130662722" lon="61.0515956676">
        <ele>253.8</ele>
        <time>1970-01-01T15:55:05.172Z</time>
    </trkpt>
    <trkpt lat="56.4130665656" lon="61.0515992718">
        <ele>254.3</ele>
        <time>1970-01-01T15:55:06.172Z</time>
    </trkpt>
    <trkpt lat="56.4130634643" lon="61.0516004453">
        <ele>254.2</ele>
        <time>1970-01-01T15:55:07.172Z</time>
    </trkpt>
    <trkpt lat="56.4130619555" lon="61.0516027922">
        <ele>254.5</ele>
        <time>1970-01-01T15:55:08.172Z</time>
    </trkpt>
    <trkpt lat="56.4130616622" lon="61.051602876">
        <ele>254.6</ele>
        <time>1970-01-01T15:55:09.172Z</time>
    </trkpt>
    <trkpt lat="56.413060363" lon="61.0516023731">
        <ele>254.4</ele>
        <time>1970-01-01T15:55:10.172Z</time>
    </trkpt>
    <trkpt lat="56.4130608659" lon="61.0516041333">
        <ele>254.4</ele>
        <time>1970-01-01T15:55:11.172Z</time>
    </trkpt>
    <trkpt lat="56.4130609497" lon="61.0516012834">
        <ele>254.0</ele>
        <time>1970-01-01T15:55:12.172Z</time>
    </trkpt>
    <trkpt lat="56.4130622908" lon="61.0515992718">
        <ele>253.6</ele>
        <time>1970-01-01T15:55:13.172Z</time>
    </trkpt>
    <trkpt lat="56.4130614107" lon="61.0515991042">
        <ele>253.6</ele>
        <time>1970-01-01T15:55:14.172Z</time>
    </trkpt>
    <trkpt lat="56.4130618717" lon="61.0515975954">
        <ele>253.3</ele>
        <time>1970-01-01T15:55:15.172Z</time>
    </trkpt>
    <trkpt lat="56.4130602372" lon="61.0515965058">
        <ele>253.2</ele>
        <time>1970-01-01T15:55:16.172Z</time>
    </trkpt>
    <trkpt lat="56.4130599439" lon="61.0515974278">
        <ele>253.4</ele>
        <time>1970-01-01T15:55:17.172Z</time>
    </trkpt>
    <trkpt lat="56.4130604049" lon="61.0515975116">
        <ele>253.2</ele>
        <time>1970-01-01T15:55:18.172Z</time>
    </trkpt>
    <trkpt lat="56.4130611592" lon="61.0515997747">
        <ele>253.0</ele>
        <time>1970-01-01T15:55:19.172Z</time>
    </trkpt>
    <trkpt lat="56.4130622489" lon="61.0515999423">
        <ele>252.6</ele>
        <time>1970-01-01T15:55:20.172Z</time>
    </trkpt>
    <trkpt lat="56.413058477" lon="61.0515996909">
        <ele>252.9</ele>
        <time>1970-01-01T15:55:21.172Z</time>
    </trkpt>
    <trkpt lat="56.4130573036" lon="61.0516011996">
        <ele>253.2</ele>
        <time>1970-01-01T15:55:22.172Z</time>
    </trkpt>
    <trkpt lat="56.4130588961" lon="61.0516021216">
        <ele>253.3</ele>
        <time>1970-01-01T15:55:23.172Z</time>
    </trkpt>
    <trkpt lat="56.4130573455" lon="61.0516063964">
        <ele>253.5</ele>
        <time>1970-01-01T15:55:24.172Z</time>
    </trkpt>
    <trkpt lat="56.4130567587" lon="61.0516064802">
        <ele>253.2</ele>
        <time>1970-01-01T15:55:25.172Z</time>
    </trkpt>
    <trkpt lat="56.413056633" lon="61.0516050553">
        <ele>253.1</ele>
        <time>1970-01-01T15:55:26.172Z</time>
    </trkpt>
    <trkpt lat="56.4130565073" lon="61.0516057259">
        <ele>253.4</ele>
        <time>1970-01-01T15:55:27.172Z</time>
    </trkpt>
    <trkpt lat="56.4130555434" lon="61.0516055582">
        <ele>253.2</ele>
        <time>1970-01-01T15:55:28.172Z</time>
    </trkpt>
    <trkpt lat="56.4130562977" lon="61.0516044686">
        <ele>253.1</ele>
        <time>1970-01-01T15:55:29.172Z</time>
    </trkpt>
    <trkpt lat="56.4130544118" lon="61.0516087433">
        <ele>253.2</ele>
        <time>1970-01-01T15:55:30.172Z</time>
    </trkpt>
    <trkpt lat="56.4130549566" lon="61.0516120123">
        <ele>253.3</ele>
        <time>1970-01-01T15:55:31.172Z</time>
    </trkpt>
    <trkpt lat="56.4130588542" lon="61.0516161194">
        <ele>253.5</ele>
        <time>1970-01-01T15:55:32.172Z</time>
    </trkpt>
    <trkpt lat="56.4130618717" lon="61.0516170414">
        <ele>253.8</ele>
        <time>1970-01-01T15:55:33.172Z</time>
    </trkpt>
    <trkpt lat="56.4130638834" lon="61.0516192207">
        <ele>254.1</ele>
        <time>1970-01-01T15:55:34.172Z</time>
    </trkpt>
    <trkpt lat="56.4130669847" lon="61.0516322127">
        <ele>254.3</ele>
        <time>1970-01-01T15:55:35.172Z</time>
    </trkpt>
    <trkpt lat="56.413072391" lon="61.0516291114">
        <ele>254.1</ele>
        <time>1970-01-01T15:55:36.172Z</time>
    </trkpt>
    <trkpt lat="56.4130718462" lon="61.0516595377">
        <ele>254.2</ele>
        <time>1970-01-01T15:55:37.172Z</time>
    </trkpt>
    <trkpt lat="56.4130694154" lon="61.0517090747">
        <ele>254.4</ele>
        <time>1970-01-01T15:55:38.172Z</time>
    </trkpt>
    <trkpt lat="56.4130651826" lon="61.0517537503">
        <ele>255.2</ele>
        <time>1970-01-01T15:55:39.172Z</time>
    </trkpt>
    <trkpt lat="56.4130798928" lon="61.0518221466">
        <ele>255.4</ele>
        <time>1970-01-01T15:55:40.172Z</time>
    </trkpt>
    <trkpt lat="56.4131000094" lon="61.0518852623">
        <ele>256.1</ele>
        <time>1970-01-01T15:55:41.172Z</time>
    </trkpt>
    <trkpt lat="56.4131272086" lon="61.051936811">
        <ele>256.4</ele>
        <time>1970-01-01T15:55:42.172Z</time>
    </trkpt>
    <trkpt lat="56.4131516" lon="61.0519642199">
        <ele>256.1</ele>
        <time>1970-01-01T15:55:43.172Z</time>
    </trkpt>
    <trkpt lat="56.4131703754" lon="61.0519921316">
        <ele>256.5</ele>
        <time>1970-01-01T15:55:44.172Z</time>
    </trkpt>
    <trkpt lat="56.4131968623" lon="61.052007219">
        <ele>256.9</ele>
        <time>1970-01-01T15:55:45.172Z</time>
    </trkpt>
    <trkpt lat="56.4132212117" lon="61.0520189537">
        <ele>256.7</ele>
        <time>1970-01-01T15:55:46.172Z</time>
    </trkpt>
    <trkpt lat="56.4132626183" lon="61.0520460272">
        <ele>256.9</ele>
        <time>1970-01-01T15:55:47.172Z</time>
    </trkpt>
    <trkpt lat="56.4132802203" lon="61.0520543253">
        <ele>257.5</ele>
        <time>1970-01-01T15:55:48.172Z</time>
    </trkpt>
    <trkpt lat="56.4133058689" lon="61.0520659762">
        <ele>257.7</ele>
        <time>1970-01-01T15:55:49.172Z</time>
    </trkpt>
    <trkpt lat="56.4133342416" lon="61.0520841649">
        <ele>258.7</ele>
        <time>1970-01-01T15:55:50.172Z</time>
    </trkpt>
    <trkpt lat="56.4133680626" lon="61.0520947261">
        <ele>259.8</ele>
        <time>1970-01-01T15:55:51.172Z</time>
    </trkpt>
    <trkpt lat="56.41339129592891" lon="61.052102807473275">
        <ele>259.8</ele>
        <time>1970-01-01T15:55:51.672Z</time>
    </trkpt>
    <trkpt lat="56.41348634350639" lon="61.05217344441992">
        <ele>257.4</ele>
        <time>1970-01-01T16:00:50.672Z</time>
    </trkpt>
    <trkpt lat="56.4134955933" lon="61.0521793833">
        <ele>257.6</ele>
        <time>1970-01-01T16:00:51.172Z</time>
    </trkpt>
    <trkpt lat="56.41352082280001" lon="61.0521923753">
        <ele>257.3</ele>
        <time>1970-01-01T16:00:52.407Z</time>
    </trkpt>
    <trkpt lat="56.41402861959175" lon="61.05307062673847">
        <ele>253.0</ele>
        <time>1970-01-01T16:01:25.518Z</time>
    </trkpt>
    <trkpt lat="56.41453640960626" lon="61.05394887817694">
        <ele>253.8</ele>
        <time>1970-01-01T16:01:58.629Z</time>
    </trkpt>
    <trkpt lat="56.415044192843546" lon="61.054827129615404">
        <ele>253.8</ele>
        <time>1970-01-01T16:02:31.740Z</time>
    </trkpt>
    <trkpt lat="56.41529015911565" lon="61.05525255203248">
        <ele>254.2</ele>
        <time>1970-01-01T16:02:47.778Z</time>
    </trkpt>
    <trkpt lat="56.41577156203172" lon="61.05501520330138">
        <ele>258.3</ele>
        <time>1970-01-01T16:03:11.288Z</time>
    </trkpt>
    <trkpt lat="56.41625295885631" lon="61.05477785457026">
        <ele>258.2</ele>
        <time>1970-01-01T16:03:34.797Z</time>
    </trkpt>
    <trkpt lat="56.41657206776028" lon="61.055080890655525">
        <ele>259.5</ele>
        <time>1970-01-01T16:03:51.780Z</time>
    </trkpt>
    <trkpt lat="56.41692814582932" lon="61.05478048324586">
        <ele>260.4</ele>
        <time>1970-01-01T16:04:10.287Z</time>
    </trkpt>
    <trkpt lat="56.41728422056549" lon="61.05448007583619">
        <ele>260.5</ele>
        <time>1970-01-01T16:04:28.794Z</time>
    </trkpt>
    <trkpt lat="56.41755720893953" lon="61.05451226234437">
        <ele>261.0</ele>
        <time>1970-01-01T16:04:41.679Z</time>
    </trkpt>
    <trkpt lat="56.417830195354604" lon="61.054544448852546">
        <ele>260.3</ele>
        <time>1970-01-01T16:04:54.561Z</time>
    </trkpt>
    <trkpt lat="56.41850965037301" lon="61.054220406098814">
        <ele>260.7</ele>
        <time>1970-01-01T16:05:27.652Z</time>
    </trkpt>
    <trkpt lat="56.419189093255646" lon="61.053896363345075">
        <ele>266.2</ele>
        <time>1970-01-01T16:06:00.742Z</time>
    </trkpt>
    <trkpt lat="56.41986852400263" lon="61.05357232059135">
        <ele>267.8</ele>
        <time>1970-01-01T16:06:33.832Z</time>
    </trkpt>
    <trkpt lat="56.42054794261412" lon="61.05324827783761">
        <ele>267.0</ele>
        <time>1970-01-01T16:07:06.921Z</time>
    </trkpt>
    <trkpt lat="56.420576769260805" lon="61.05323452909305">
        <ele>266.6</ele>
        <time>1970-01-01T16:07:08.324Z</time>
    </trkpt>
    <trkpt lat="56.420647116401575" lon="61.05326126743208">
        <ele>265.9</ele>
        <time>1970-01-01T16:07:11.709Z</time>
    </trkpt>
    <trkpt lat="56.42098720025582" lon="61.05338573455811">
        <ele>263.3</ele>
        <time>1970-01-01T16:07:25.293Z</time>
    </trkpt>
    <trkpt lat="56.42161051178245" lon="61.052799339115325">
        <ele>261.9</ele>
        <time>1970-01-01T16:07:52.801Z</time>
    </trkpt>
    <trkpt lat="56.42223381309481" lon="61.05221294367254">
        <ele>266.3</ele>
        <time>1970-01-01T16:08:20.309Z</time>
    </trkpt>
    <trkpt lat="56.422446929723925" lon="61.05201244354249">
        <ele>268.2</ele>
        <time>1970-01-01T16:08:29.714Z</time>
    </trkpt>
    <trkpt lat="56.42277328434077" lon="61.051336526870735">
        <ele>267.4</ele>
        <time>1970-01-01T16:08:49.141Z</time>
    </trkpt>
    <trkpt lat="56.42309963615734" lon="61.05066061019898">
        <ele>262.2</ele>
        <time>1970-01-01T16:09:08.385Z</time>
    </trkpt>
    <trkpt lat="56.4232895122893" lon="61.05071425437928">
        <ele>261.3</ele>
        <time>1970-01-01T16:09:15.838Z</time>
    </trkpt>
    <trkpt lat="56.42347938747336" lon="61.05076789855958">
        <ele>260.9</ele>
        <time>1970-01-01T16:09:23.213Z</time>
    </trkpt>
    <trkpt lat="56.42391789962197" lon="61.05176049458791">
        <ele>262.2</ele>
        <time>1970-01-01T16:09:50.177Z</time>
    </trkpt>
    <trkpt lat="56.42435640671468" lon="61.052753090616235">
        <ele>264.1</ele>
        <time>1970-01-01T16:10:17.129Z</time>
    </trkpt>
    <trkpt lat="56.424794908751494" lon="61.053745686644554">
        <ele>269.3</ele>
        <time>1970-01-01T16:10:44.081Z</time>
    </trkpt>
    <trkpt lat="56.425081421598364" lon="61.05439424514771">
        <ele>270.5</ele>
        <time>1970-01-01T16:11:01.691Z</time>
    </trkpt>
    <trkpt lat="56.425737260225596" lon="61.05484981103379">
        <ele>271.8</ele>
        <time>1970-01-01T16:11:28.642Z</time>
    </trkpt>
    <trkpt lat="56.42639308754293" lon="61.055305376919854">
        <ele>275.5</ele>
        <time>1970-01-01T16:11:54.954Z</time>
    </trkpt>
    <trkpt lat="56.42702750560451" lon="61.05574607849122">
        <ele>280.2</ele>
        <time>1970-01-01T16:12:20.407Z</time>
    </trkpt>
    <trkpt lat="56.42772912744081" lon="61.055810592247326">
        <ele>276.8</ele>
        <time>1970-01-01T16:12:46.718Z</time>
    </trkpt>
    <trkpt lat="56.42843073633205" lon="61.05587510600342">
        <ele>278.6</ele>
        <time>1970-01-01T16:13:13.008Z</time>
    </trkpt>
    <trkpt lat="56.42913233227843" lon="61.05593961975953">
        <ele>281.4</ele>
        <time>1970-01-01T16:13:39.297Z</time>
    </trkpt>
    <trkpt lat="56.42982779319291" lon="61.05600357055665">
        <ele>284.9</ele>
        <time>1970-01-01T16:14:05.356Z</time>
    </trkpt>
    <trkpt lat="56.43022710482567" lon="61.05495836598914">
        <ele>285.2</ele>
        <time>1970-01-01T16:14:31.644Z</time>
    </trkpt>
    <trkpt lat="56.430626412265035" lon="61.05391316142161">
        <ele>284.3</ele>
        <time>1970-01-01T16:15:01.526Z</time>
    </trkpt>
    <trkpt lat="56.430729536824764" lon="61.05364322662354">
        <ele>284.3</ele>
        <time>1970-01-01T16:15:09.243Z</time>
    </trkpt>
    <trkpt lat="56.43130552542249" lon="61.054370439052654">
        <ele>287.5</ele>
        <time>1970-01-01T16:15:39.125Z</time>
    </trkpt>
    <trkpt lat="56.43188150529481" lon="61.05509765148175">
        <ele>288.7</ele>
        <time>1970-01-01T16:16:12.128Z</time>
    </trkpt>
    <trkpt lat="56.43198719617702" lon="61.05523109436036">
        <ele>289.2</ele>
        <time>1970-01-01T16:16:18.184Z</time>
    </trkpt>
    <trkpt lat="56.43268870571134" lon="61.05516584523217">
        <ele>290.5</ele>
        <time>1970-01-01T16:16:51.186Z</time>
    </trkpt>
    <trkpt lat="56.433390202302334" lon="61.055100596103976">
        <ele>289.8</ele>
        <time>1970-01-01T16:17:22.698Z</time>
    </trkpt>
    <trkpt lat="56.43409168595012" lon="61.05503534697578">
        <ele>289.3</ele>
        <time>1970-01-01T16:17:54.210Z</time>
    </trkpt>
    <trkpt lat="56.434793156654884" lon="61.05497009784759">
        <ele>290.2</ele>
        <time>1970-01-01T16:18:25.721Z</time>
    </trkpt>
    <trkpt lat="56.435494614416726" lon="61.054904848719396">
        <ele>287.5</ele>
        <time>1970-01-01T16:18:57.231Z</time>
    </trkpt>
    <trkpt lat="56.43619605923577" lon="61.054839599591205">
        <ele>289.4</ele>
        <time>1970-01-01T16:19:28.741Z</time>
    </trkpt>
    <trkpt lat="56.43689749111217" lon="61.054774350463006">
        <ele>289.9</ele>
        <time>1970-01-01T16:20:00.250Z</time>
    </trkpt>
    <trkpt lat="56.43759891004608" lon="61.054709101334815">
        <ele>287.5</ele>
        <time>1970-01-01T16:20:31.759Z</time>
    </trkpt>
    <trkpt lat="56.43830031603757" lon="61.054643852206624">
        <ele>284.7</ele>
        <time>1970-01-01T16:21:03.267Z</time>
    </trkpt>
    <trkpt lat="56.43900170908685" lon="61.054578603078426">
        <ele>278.5</ele>
        <time>1970-01-01T16:21:34.774Z</time>
    </trkpt>
    <trkpt lat="56.43970308919397" lon="61.054513353950234">
        <ele>275.4</ele>
        <time>1970-01-01T16:22:06.281Z</time>
    </trkpt>
    <trkpt lat="56.44040445635913" lon="61.05444810482204">
        <ele>276.9</ele>
        <time>1970-01-01T16:22:37.787Z</time>
    </trkpt>
    <trkpt lat="56.44110581058247" lon="61.05438285569385">
        <ele>286.1</ele>
        <time>1970-01-01T16:23:09.293Z</time>
    </trkpt>
    <trkpt lat="56.441807151864055" lon="61.05431760656567">
        <ele>286.0</ele>
        <time>1970-01-01T16:23:40.798Z</time>
    </trkpt>
    <trkpt lat="56.44250848020411" lon="61.05425235743746">
        <ele>283.3</ele>
        <time>1970-01-01T16:24:12.303Z</time>
    </trkpt>
    <trkpt lat="56.44320979560267" lon="61.05418710830928">
        <ele>281.6</ele>
        <time>1970-01-01T16:24:43.807Z</time>
    </trkpt>
    <trkpt lat="56.44391109805993" lon="61.05412185918107">
        <ele>279.5</ele>
        <time>1970-01-01T16:25:15.310Z</time>
    </trkpt>
    <trkpt lat="56.44461238757602" lon="61.05405661005289">
        <ele>276.5</ele>
        <time>1970-01-01T16:25:46.813Z</time>
    </trkpt>
    <trkpt lat="56.44531366415108" lon="61.05399136092469">
        <ele>278.1</ele>
        <time>1970-01-01T16:26:18.315Z</time>
    </trkpt>
    <trkpt lat="56.445413125444645" lon="61.05398210661434">
        <ele>278.5</ele>
        <time>1970-01-01T16:26:22.783Z</time>
    </trkpt>
    <trkpt lat="56.44552015488054" lon="61.05399295051566">
        <ele>279.5</ele>
        <time>1970-01-01T16:26:27.592Z</time>
    </trkpt>
    <trkpt lat="56.446094" lon="61.05395">
        <ele>280.5</ele>
        <time>1970-01-01T16:26:47.428Z</time>
    </trkpt>
    <trkpt lat="56.446795" lon="61.053891">
        <ele>287.2</ele>
        <time>1970-01-01T16:27:11.664Z</time>
    </trkpt>
    <trkpt lat="56.447496" lon="61.053832">
        <ele>292.9</ele>
        <time>1970-01-01T16:27:35.900Z</time>
    </trkpt>
    <trkpt lat="56.448198" lon="61.053773">
        <ele>292.8</ele>
        <time>1970-01-01T16:28:00.171Z</time>
    </trkpt>
    <trkpt lat="56.448899" lon="61.053714">
        <ele>293.0</ele>
        <time>1970-01-01T16:28:24.407Z</time>
    </trkpt>
    <trkpt lat="56.449601" lon="61.053655">
        <ele>294.4</ele>
        <time>1970-01-01T16:28:48.678Z</time>
    </trkpt>
    <trkpt lat="56.450302" lon="61.053596">
        <ele>292.0</ele>
        <time>1970-01-01T16:29:12.914Z</time>
    </trkpt>
    <trkpt lat="56.451003" lon="61.053537">
        <ele>292.8</ele>
        <time>1970-01-01T16:29:37.150Z</time>
    </trkpt>
    <trkpt lat="56.451705" lon="61.053478">
        <ele>292.6</ele>
        <time>1970-01-01T16:30:01.421Z</time>
    </trkpt>
    <trkpt lat="56.452406" lon="61.053419">
        <ele>290.3</ele>
        <time>1970-01-01T16:30:25.657Z</time>
    </trkpt>
    <trkpt lat="56.453107" lon="61.053359">
        <ele>290.5</ele>
        <time>1970-01-01T16:30:49.894Z</time>
    </trkpt>
    <trkpt lat="56.453809" lon="61.0533">
        <ele>291.5</ele>
        <time>1970-01-01T16:31:14.165Z</time>
    </trkpt>
    <trkpt lat="56.45451" lon="61.053241">
        <ele>290.6</ele>
        <time>1970-01-01T16:31:38.401Z</time>
    </trkpt>
    <trkpt lat="56.455211" lon="61.053182">
        <ele>289.2</ele>
        <time>1970-01-01T16:32:02.637Z</time>
    </trkpt>
    <trkpt lat="56.455912" lon="61.053123">
        <ele>288.1</ele>
        <time>1970-01-01T16:32:26.873Z</time>
    </trkpt>
    <trkpt lat="56.456614" lon="61.053064">
        <ele>286.0</ele>
        <time>1970-01-01T16:32:51.144Z</time>
    </trkpt>
    <trkpt lat="56.457315" lon="61.053005">
        <ele>282.5</ele>
        <time>1970-01-01T16:33:15.380Z</time>
    </trkpt>
    <trkpt lat="56.458016" lon="61.052946">
        <ele>280.3</ele>
        <time>1970-01-01T16:33:39.616Z</time>
    </trkpt>
    <trkpt lat="56.458717" lon="61.052887">
        <ele>278.4</ele>
        <time>1970-01-01T16:34:03.852Z</time>
    </trkpt>
    <trkpt lat="56.459418" lon="61.052828">
        <ele>277.1</ele>
        <time>1970-01-01T16:34:28.088Z</time>
    </trkpt>
    <trkpt lat="56.46012" lon="61.052769">
        <ele>278.1</ele>
        <time>1970-01-01T16:34:52.359Z</time>
    </trkpt>
    <trkpt lat="56.460821" lon="61.05271">
        <ele>275.4</ele>
        <time>1970-01-01T16:35:16.595Z</time>
    </trkpt>
    <trkpt lat="56.461522" lon="61.052651">
        <ele>274.9</ele>
        <time>1970-01-01T16:35:40.831Z</time>
    </trkpt>
    <trkpt lat="56.462223" lon="61.052592">
        <ele>274.2</ele>
        <time>1970-01-01T16:36:05.067Z</time>
    </trkpt>
    <trkpt lat="56.462924" lon="61.052533">
        <ele>276.5</ele>
        <time>1970-01-01T16:36:29.303Z</time>
    </trkpt>
    <trkpt lat="56.463625" lon="61.052474">
        <ele>276.7</ele>
        <time>1970-01-01T16:36:53.539Z</time>
    </trkpt>
    <trkpt lat="56.464326" lon="61.052415">
        <ele>274.6</ele>
        <time>1970-01-01T16:37:17.775Z</time>
    </trkpt>
    <trkpt lat="56.465027" lon="61.052356">
        <ele>276.0</ele>
        <time>1970-01-01T16:37:42.011Z</time>
    </trkpt>
    <trkpt lat="56.46532353788394" lon="61.052312967803964">
        <ele>275.8</ele>
        <time>1970-01-01T16:37:52.285Z</time>
    </trkpt>
    <trkpt lat="56.46562007345217" lon="61.05226993560792">
        <ele>275.4</ele>
        <time>1970-01-01T16:38:02.559Z</time>
    </trkpt>
    <trkpt lat="56.46603496179622" lon="61.0522484779358">
        <ele>276.0</ele>
        <time>1970-01-01T16:38:16.893Z</time>
    </trkpt>
    <trkpt lat="56.46644984560718" lon="61.05222702026368">
        <ele>279.2</ele>
        <time>1970-01-01T16:38:31.227Z</time>
    </trkpt>
    <trkpt lat="56.466947700196734" lon="61.05222702026368">
        <ele>280.8</ele>
        <time>1970-01-01T16:38:48.421Z</time>
    </trkpt>
    <trkpt lat="56.46744554825872" lon="61.05222702026368">
        <ele>280.6</ele>
        <time>1970-01-01T16:39:05.615Z</time>
    </trkpt>
    <trkpt lat="56.46806177912994" lon="61.05211951013183">
        <ele>281.8</ele>
        <time>1970-01-01T16:39:26.996Z</time>
    </trkpt>
    <trkpt lat="56.46867800000001" lon="61.052012">
        <ele>283.9</ele>
        <time>1970-01-01T16:39:48.377Z</time>
    </trkpt>
    <trkpt lat="56.468692" lon="61.052012">
        <ele>283.9</ele>
        <time>1970-01-01T16:39:48.860Z</time>
    </trkpt>
    <trkpt lat="56.469394" lon="61.051972">
        <ele>284.3</ele>
        <time>1970-01-01T16:40:13.117Z</time>
    </trkpt>
    <trkpt lat="56.470095" lon="61.051932">
        <ele>289.8</ele>
        <time>1970-01-01T16:40:37.339Z</time>
    </trkpt>
    <trkpt lat="56.470796" lon="61.051892">
        <ele>290.7</ele>
        <time>1970-01-01T16:41:01.561Z</time>
    </trkpt>
    <trkpt lat="56.471498" lon="61.051852">
        <ele>287.3</ele>
        <time>1970-01-01T16:41:25.818Z</time>
    </trkpt>
    <trkpt lat="56.472199" lon="61.051812">
        <ele>286.8</ele>
        <time>1970-01-01T16:41:50.040Z</time>
    </trkpt>
    <trkpt lat="56.4729" lon="61.051772">
        <ele>288.2</ele>
        <time>1970-01-01T16:42:14.262Z</time>
    </trkpt>
    <trkpt lat="56.473602" lon="61.051732">
        <ele>287.3</ele>
        <time>1970-01-01T16:42:38.519Z</time>
    </trkpt>
    <trkpt lat="56.474303" lon="61.051692">
        <ele>286.3</ele>
        <time>1970-01-01T16:43:02.741Z</time>
    </trkpt>
    <trkpt lat="56.475004" lon="61.051652">
        <ele>285.3</ele>
        <time>1970-01-01T16:43:26.963Z</time>
    </trkpt>
    <trkpt lat="56.475706" lon="61.051612">
        <ele>282.2</ele>
        <time>1970-01-01T16:43:51.220Z</time>
    </trkpt>
    <trkpt lat="56.476407" lon="61.051572">
        <ele>277.7</ele>
        <time>1970-01-01T16:44:15.442Z</time>
    </trkpt>
    <trkpt lat="56.477108" lon="61.051532">
        <ele>273.6</ele>
        <time>1970-01-01T16:44:39.664Z</time>
    </trkpt>
    <trkpt lat="56.477809" lon="61.051492">
        <ele>268.5</ele>
        <time>1970-01-01T16:45:03.886Z</time>
    </trkpt>
    <trkpt lat="56.478511" lon="61.051452">
        <ele>266.6</ele>
        <time>1970-01-01T16:45:28.143Z</time>
    </trkpt>
    <trkpt lat="56.479212" lon="61.051412">
        <ele>265.5</ele>
        <time>1970-01-01T16:45:52.365Z</time>
    </trkpt>
    <trkpt lat="56.479913" lon="61.051372">
        <ele>264.3</ele>
        <time>1970-01-01T16:46:16.587Z</time>
    </trkpt>
    <trkpt lat="56.480614" lon="61.051332">
        <ele>264.2</ele>
        <time>1970-01-01T16:46:40.809Z</time>
    </trkpt>
    <trkpt lat="56.481316" lon="61.051292">
        <ele>264.6</ele>
        <time>1970-01-01T16:47:05.066Z</time>
    </trkpt>
    <trkpt lat="56.482017" lon="61.051252">
        <ele>267.6</ele>
        <time>1970-01-01T16:47:29.288Z</time>
    </trkpt>
    <trkpt lat="56.48203" lon="61.051242">
        <ele>267.6</ele>
        <time>1970-01-01T16:47:29.775Z</time>
    </trkpt>
    <trkpt lat="56.482049" lon="61.051231">
        <ele>267.5</ele>
        <time>1970-01-01T16:47:30.463Z</time>
    </trkpt>
    <trkpt lat="56.48206" lon="61.051202">
        <ele>267.5</ele>
        <time>1970-01-01T16:47:31.133Z</time>
    </trkpt>
    <trkpt lat="56.482076" lon="61.051186">
        <ele>267.5</ele>
        <time>1970-01-01T16:47:31.764Z</time>
    </trkpt>
    <trkpt lat="56.482092" lon="61.051153">
        <ele>267.5</ele>
        <time>1970-01-01T16:47:32.601Z</time>
    </trkpt>
    <trkpt lat="56.482112" lon="61.051106">
        <ele>267.6</ele>
        <time>1970-01-01T16:47:33.732Z</time>
    </trkpt>
    <trkpt lat="56.48214" lon="61.051063">
        <ele>267.6</ele>
        <time>1970-01-01T16:47:34.999Z</time>
    </trkpt>
    <trkpt lat="56.482168" lon="61.051015">
        <ele>267.7</ele>
        <time>1970-01-01T16:47:36.330Z</time>
    </trkpt>
    <trkpt lat="56.482195" lon="61.050959">
        <ele>267.8</ele>
        <time>1970-01-01T16:47:37.747Z</time>
    </trkpt>
    <trkpt lat="56.482228" lon="61.050911">
        <ele>267.9</ele>
        <time>1970-01-01T16:47:39.208Z</time>
    </trkpt>
    <trkpt lat="56.482274" lon="61.050866">
        <ele>268.0</ele>
        <time>1970-01-01T16:47:41.013Z</time>
    </trkpt>
    <trkpt lat="56.482317" lon="61.050818">
        <ele>268.1</ele>
        <time>1970-01-01T16:47:42.757Z</time>
    </trkpt>
    <trkpt lat="56.482361" lon="61.050754">
        <ele>268.1</ele>
        <time>1970-01-01T16:47:44.706Z</time>
    </trkpt>
    <trkpt lat="56.482419" lon="61.050694">
        <ele>268.2</ele>
        <time>1970-01-01T16:47:47.012Z</time>
    </trkpt>
    <trkpt lat="56.482472" lon="61.050629">
        <ele>268.2</ele>
        <time>1970-01-01T16:47:49.222Z</time>
    </trkpt>
    <trkpt lat="56.48251" lon="61.050571">
        <ele>268.3</ele>
        <time>1970-01-01T16:47:50.938Z</time>
    </trkpt>
    <trkpt lat="56.482549" lon="61.0505">
        <ele>268.4</ele>
        <time>1970-01-01T16:47:52.847Z</time>
    </trkpt>
    <trkpt lat="56.482586" lon="61.050425">
        <ele>268.4</ele>
        <time>1970-01-01T16:47:54.765Z</time>
    </trkpt>
    <trkpt lat="56.482623" lon="61.050373">
        <ele>268.4</ele>
        <time>1970-01-01T16:47:56.382Z</time>
    </trkpt>
    <trkpt lat="56.48266" lon="61.050319">
        <ele>268.5</ele>
        <time>1970-01-01T16:47:58.023Z</time>
    </trkpt>
    <trkpt lat="56.482687" lon="61.050285">
        <ele>268.5</ele>
        <time>1970-01-01T16:47:59.158Z</time>
    </trkpt>
    <trkpt lat="56.482731" lon="61.05023">
        <ele>268.7</ele>
        <time>1970-01-01T16:48:01.004Z</time>
    </trkpt>
    <trkpt lat="56.482772" lon="61.050173">
        <ele>269.1</ele>
        <time>1970-01-01T16:48:02.789Z</time>
    </trkpt>
    <trkpt lat="56.482806" lon="61.050123">
        <ele>269.7</ele>
        <time>1970-01-01T16:48:04.301Z</time>
    </trkpt>
    <trkpt lat="56.482836" lon="61.050076">
        <ele>273.7</ele>
        <time>1970-01-01T16:48:05.671Z</time>
    </trkpt>
    <trkpt lat="56.482861" lon="61.050041">
        <ele>274.2</ele>
        <time>1970-01-01T16:48:06.762Z</time>
    </trkpt>
    <trkpt lat="56.482889" lon="61.049998">
        <ele>274.7</ele>
        <time>1970-01-01T16:48:08.029Z</time>
    </trkpt>
    <trkpt lat="56.482932" lon="61.049926">
        <ele>275.2</ele>
        <time>1970-01-01T16:48:10.051Z</time>
    </trkpt>
    <trkpt lat="56.482951" lon="61.049882">
        <ele>275.7</ele>
        <time>1970-01-01T16:48:11.116Z</time>
    </trkpt>
    <trkpt lat="56.482972" lon="61.049857">
        <ele>276.2</ele>
        <time>1970-01-01T16:48:11.983Z</time>
    </trkpt>
    <trkpt lat="56.482995" lon="61.049818">
        <ele>276.8</ele>
        <time>1970-01-01T16:48:13.071Z</time>
    </trkpt>
    <trkpt lat="56.483025" lon="61.049774">
        <ele>277.3</ele>
        <time>1970-01-01T16:48:14.404Z</time>
    </trkpt>
    <trkpt lat="56.483049" lon="61.049732">
        <ele>277.9</ele>
        <time>1970-01-01T16:48:15.556Z</time>
    </trkpt>
    <trkpt lat="56.483069" lon="61.049702">
        <ele>278.6</ele>
        <time>1970-01-01T16:48:16.452Z</time>
    </trkpt>
    <trkpt lat="56.483082" lon="61.049673">
        <ele>279.3</ele>
        <time>1970-01-01T16:48:17.164Z</time>
    </trkpt>
    <trkpt lat="56.483103" lon="61.049628">
        <ele>280.0</ele>
        <time>1970-01-01T16:48:18.287Z</time>
    </trkpt>
    <trkpt lat="56.483133" lon="61.049564">
        <ele>280.7</ele>
        <time>1970-01-01T16:48:19.888Z</time>
    </trkpt>
    <trkpt lat="56.48317" lon="61.049497">
        <ele>281.5</ele>
        <time>1970-01-01T16:48:21.695Z</time>
    </trkpt>
    <trkpt lat="56.483202" lon="61.049442">
        <ele>281.7</ele>
        <time>1970-01-01T16:48:23.218Z</time>
    </trkpt>
    <trkpt lat="56.483234" lon="61.049359">
        <ele>282.3</ele>
        <time>1970-01-01T16:48:25.148Z</time>
    </trkpt>
    <trkpt lat="56.483262" lon="61.049274">
        <ele>282.9</ele>
        <time>1970-01-01T16:48:27.035Z</time>
    </trkpt>
    <trkpt lat="56.483277" lon="61.049219">
        <ele>283.4</ele>
        <time>1970-01-01T16:48:28.204Z</time>
    </trkpt>
    <trkpt lat="56.483298" lon="61.049133">
        <ele>283.5</ele>
        <time>1970-01-01T16:48:29.997Z</time>
    </trkpt>
    <trkpt lat="56.48332" lon="61.049045">
        <ele>283.6</ele>
        <time>1970-01-01T16:48:31.839Z</time>
    </trkpt>
    <trkpt lat="56.483348" lon="61.048967">
        <ele>283.8</ele>
        <time>1970-01-01T16:48:33.613Z</time>
    </trkpt>
    <trkpt lat="56.483366" lon="61.048894">
        <ele>283.9</ele>
        <time>1970-01-01T16:48:35.137Z</time>
    </trkpt>
    <trkpt lat="56.48337" lon="61.048822">
        <ele>283.8</ele>
        <time>1970-01-01T16:48:36.517Z</time>
    </trkpt>
    <trkpt lat="56.48336" lon="61.048747">
        <ele>283.8</ele>
        <time>1970-01-01T16:48:37.988Z</time>
    </trkpt>
    <trkpt lat="56.483363" lon="61.048639">
        <ele>283.4</ele>
        <time>1970-01-01T16:48:40.050Z</time>
    </trkpt>
    <trkpt lat="56.483357" lon="61.048516">
        <ele>283.0</ele>
        <time>1970-01-01T16:48:42.404Z</time>
    </trkpt>
    <trkpt lat="56.483341" lon="61.048406">
        <ele>282.6</ele>
        <time>1970-01-01T16:48:44.573Z</time>
    </trkpt>
    <trkpt lat="56.48332" lon="61.048322">
        <ele>282.2</ele>
        <time>1970-01-01T16:48:46.331Z</time>
    </trkpt>
    <trkpt lat="56.483295" lon="61.048234">
        <ele>281.8</ele>
        <time>1970-01-01T16:48:48.218Z</time>
    </trkpt>
    <trkpt lat="56.483279" lon="61.048151">
        <ele>281.4</ele>
        <time>1970-01-01T16:48:49.894Z</time>
    </trkpt>
    <trkpt lat="56.483276" lon="61.048077">
        <ele>281.0</ele>
        <time>1970-01-01T16:48:51.309Z</time>
    </trkpt>
    <trkpt lat="56.483283" lon="61.047985">
        <ele>280.6</ele>
        <time>1970-01-01T16:48:53.080Z</time>
    </trkpt>
    <trkpt lat="56.4833" lon="61.047864">
        <ele>280.2</ele>
        <time>1970-01-01T16:48:55.461Z</time>
    </trkpt>
    <trkpt lat="56.483322" lon="61.047742">
        <ele>280.0</ele>
        <time>1970-01-01T16:48:57.908Z</time>
    </trkpt>
    <trkpt lat="56.483346" lon="61.047607">
        <ele>279.9</ele>
        <time>1970-01-01T16:49:00.612Z</time>
    </trkpt>
    <trkpt lat="56.483374" lon="61.047477">
        <ele>279.9</ele>
        <time>1970-01-01T16:49:03.273Z</time>
    </trkpt>
    <trkpt lat="56.483409" lon="61.047374">
        <ele>279.9</ele>
        <time>1970-01-01T16:49:05.579Z</time>
    </trkpt>
    <trkpt lat="56.483443" lon="61.047281">
        <ele>279.9</ele>
        <time>1970-01-01T16:49:07.706Z</time>
    </trkpt>
    <trkpt lat="56.483474" lon="61.047177">
        <ele>279.8</ele>
        <time>1970-01-01T16:49:09.959Z</time>
    </trkpt>
    <trkpt lat="56.483509" lon="61.04707">
        <ele>279.7</ele>
        <time>1970-01-01T16:49:12.330Z</time>
    </trkpt>
    <trkpt lat="56.483535" lon="61.046969">
        <ele>279.7</ele>
        <time>1970-01-01T16:49:14.455Z</time>
    </trkpt>
    <trkpt lat="56.483562" lon="61.046883">
        <ele>279.5</ele>
        <time>1970-01-01T16:49:16.341Z</time>
    </trkpt>
    <trkpt lat="56.483593" lon="61.046819">
        <ele>279.4</ele>
        <time>1970-01-01T16:49:17.964Z</time>
    </trkpt>
    <trkpt lat="56.483624" lon="61.046724">
        <ele>279.2</ele>
        <time>1970-01-01T16:49:20.068Z</time>
    </trkpt>
    <trkpt lat="56.483656" lon="61.046615">
        <ele>279.0</ele>
        <time>1970-01-01T16:49:22.422Z</time>
    </trkpt>
    <trkpt lat="56.483676" lon="61.046481">
        <ele>278.9</ele>
        <time>1970-01-01T16:49:25.069Z</time>
    </trkpt>
    <trkpt lat="56.483686" lon="61.046364">
        <ele>278.8</ele>
        <time>1970-01-01T16:49:27.326Z</time>
    </trkpt>
    <trkpt lat="56.483692" lon="61.046257">
        <ele>278.7</ele>
        <time>1970-01-01T16:49:29.377Z</time>
    </trkpt>
    <trkpt lat="56.483698" lon="61.046136">
        <ele>278.7</ele>
        <time>1970-01-01T16:49:31.693Z</time>
    </trkpt>
    <trkpt lat="56.483682" lon="61.046006">
        <ele>278.7</ele>
        <time>1970-01-01T16:49:34.233Z</time>
    </trkpt>
    <trkpt lat="56.483673" lon="61.045855">
        <ele>278.7</ele>
        <time>1970-01-01T16:49:37.129Z</time>
    </trkpt>
    <trkpt lat="56.483659" lon="61.045719">
        <ele>278.7</ele>
        <time>1970-01-01T16:49:39.767Z</time>
    </trkpt>
    <trkpt lat="56.483655" lon="61.045547">
        <ele>278.7</ele>
        <time>1970-01-01T16:49:43.050Z</time>
    </trkpt>
    <trkpt lat="56.483655" lon="61.045391">
        <ele>278.7</ele>
        <time>1970-01-01T16:49:46.025Z</time>
    </trkpt>
    <trkpt lat="56.483647" lon="61.045245">
        <ele>278.7</ele>
        <time>1970-01-01T16:49:48.822Z</time>
    </trkpt>
    <trkpt lat="56.483652" lon="61.045111">
        <ele>278.7</ele>
        <time>1970-01-01T16:49:51.383Z</time>
    </trkpt>
    <trkpt lat="56.483655" lon="61.044988">
        <ele>278.4</ele>
        <time>1970-01-01T16:49:53.730Z</time>
    </trkpt>
    <trkpt lat="56.483654" lon="61.044863">
        <ele>278.2</ele>
        <time>1970-01-01T16:49:56.114Z</time>
    </trkpt>
    <trkpt lat="56.483651" lon="61.044738">
        <ele>278.6</ele>
        <time>1970-01-01T16:49:58.500Z</time>
    </trkpt>
    <trkpt lat="56.483652" lon="61.044617">
        <ele>279.1</ele>
        <time>1970-01-01T16:50:00.807Z</time>
    </trkpt>
    <trkpt lat="56.483652" lon="61.044496">
        <ele>279.7</ele>
        <time>1970-01-01T16:50:03.114Z</time>
    </trkpt>
    <trkpt lat="56.483637" lon="61.044383">
        <ele>280.7</ele>
        <time>1970-01-01T16:50:05.330Z</time>
    </trkpt>
    <trkpt lat="56.483625" lon="61.044283">
        <ele>281.8</ele>
        <time>1970-01-01T16:50:07.281Z</time>
    </trkpt>
    <trkpt lat="56.48363" lon="61.044185">
        <ele>283.1</ele>
        <time>1970-01-01T16:50:09.157Z</time>
    </trkpt>
    <trkpt lat="56.48364" lon="61.044085">
        <ele>283.9</ele>
        <time>1970-01-01T16:50:11.095Z</time>
    </trkpt>
    <trkpt lat="56.48365" lon="61.044021">
        <ele>284.2</ele>
        <time>1970-01-01T16:50:12.363Z</time>
    </trkpt>
    <trkpt lat="56.483651" lon="61.043998">
        <ele>284.2</ele>
        <time>1970-01-01T16:50:12.802Z</time>
    </trkpt>
    <trkpt lat="56.483651" lon="61.043996">
        <ele>284.2</ele>
        <time>1970-01-01T16:50:12.840Z</time>
    </trkpt>
    <trkpt lat="56.483651" lon="61.043994">
        <ele>284.2</ele>
        <time>1970-01-01T16:50:12.878Z</time>
    </trkpt>
    <trkpt lat="56.483653" lon="61.043995">
        <ele>284.1</ele>
        <time>1970-01-01T16:50:12.949Z</time>
    </trkpt>
    <trkpt lat="56.483659" lon="61.044004">
        <ele>283.9</ele>
        <time>1970-01-01T16:50:13.218Z</time>
    </trkpt>
    <trkpt lat="56.483664" lon="61.044017">
        <ele>283.9</ele>
        <time>1970-01-01T16:50:13.520Z</time>
    </trkpt>
    <trkpt lat="56.483664" lon="61.044023">
        <ele>283.9</ele>
        <time>1970-01-01T16:50:13.634Z</time>
    </trkpt>
    <trkpt lat="56.483664" lon="61.044024">
        <ele>283.8</ele>
        <time>1970-01-01T16:50:13.653Z</time>
    </trkpt>
    <trkpt lat="56.483659" lon="61.044035">
        <ele>284.4</ele>
        <time>1970-01-01T16:50:13.924Z</time>
    </trkpt>
    <trkpt lat="56.483657" lon="61.04403">
        <ele>284.5</ele>
        <time>1970-01-01T16:50:14.041Z</time>
    </trkpt>
    <trkpt lat="56.483659" lon="61.044022">
        <ele>284.6</ele>
        <time>1970-01-01T16:50:14.208Z</time>
    </trkpt>
    <trkpt lat="56.483668" lon="61.044">
        <ele>284.6</ele>
        <time>1970-01-01T16:50:14.730Z</time>
    </trkpt>
    <trkpt lat="56.483675" lon="61.043979">
        <ele>284.7</ele>
        <time>1970-01-01T16:50:15.197Z</time>
    </trkpt>
    <trkpt lat="56.483679" lon="61.043969">
        <ele>284.7</ele>
        <time>1970-01-01T16:50:15.432Z</time>
    </trkpt>
    <trkpt lat="56.483689" lon="61.043983">
        <ele>284.7</ele>
        <time>1970-01-01T16:50:15.868Z</time>
    </trkpt>
    <trkpt lat="56.483688" lon="61.043969">
        <ele>284.7</ele>
        <time>1970-01-01T16:50:16.137Z</time>
    </trkpt>
    <trkpt lat="56.483702" lon="61.043946">
        <ele>284.7</ele>
        <time>1970-01-01T16:50:16.789Z</time>
    </trkpt>
    <trkpt lat="56.483708" lon="61.043907">
        <ele>284.7</ele>
        <time>1970-01-01T16:50:17.561Z</time>
    </trkpt>
    <trkpt lat="56.483719" lon="61.04384">
        <ele>284.6</ele>
        <time>1970-01-01T16:50:18.894Z</time>
    </trkpt>
    <trkpt lat="56.483727" lon="61.043749">
        <ele>284.4</ele>
        <time>1970-01-01T16:50:20.651Z</time>
    </trkpt>
    <trkpt lat="56.483736" lon="61.04365">
        <ele>284.3</ele>
        <time>1970-01-01T16:50:22.564Z</time>
    </trkpt>
    <trkpt lat="56.483739" lon="61.04354">
        <ele>284.1</ele>
        <time>1970-01-01T16:50:24.664Z</time>
    </trkpt>
    <trkpt lat="56.483727" lon="61.04343">
        <ele>284.0</ele>
        <time>1970-01-01T16:50:26.802Z</time>
    </trkpt>
    <trkpt lat="56.483721" lon="61.043294">
        <ele>283.9</ele>
        <time>1970-01-01T16:50:29.403Z</time>
    </trkpt>
    <trkpt lat="56.483705" lon="61.043173">
        <ele>283.9</ele>
        <time>1970-01-01T16:50:31.775Z</time>
    </trkpt>
    <trkpt lat="56.483698" lon="61.043067">
        <ele>283.9</ele>
        <time>1970-01-01T16:50:33.810Z</time>
    </trkpt>
    <trkpt lat="56.483688" lon="61.042958">
        <ele>283.9</ele>
        <time>1970-01-01T16:50:35.917Z</time>
    </trkpt>
    <trkpt lat="56.483679" lon="61.042868">
        <ele>283.9</ele>
        <time>1970-01-01T16:50:37.661Z</time>
    </trkpt>
    <trkpt lat="56.483686" lon="61.042749">
        <ele>283.9</ele>
        <time>1970-01-01T16:50:39.943Z</time>
    </trkpt>
    <trkpt lat="56.48369" lon="61.042628">
        <ele>283.9</ele>
        <time>1970-01-01T16:50:42.254Z</time>
    </trkpt>
    <trkpt lat="56.483685" lon="61.042532">
        <ele>283.9</ele>
        <time>1970-01-01T16:50:44.092Z</time>
    </trkpt>
    <trkpt lat="56.483698" lon="61.042427">
        <ele>284.0</ele>
        <time>1970-01-01T16:50:46.144Z</time>
    </trkpt>
    <trkpt lat="56.483711" lon="61.042335">
        <ele>284.0</ele>
        <time>1970-01-01T16:50:47.955Z</time>
    </trkpt>
    <trkpt lat="56.483715" lon="61.042255">
        <ele>284.1</ele>
        <time>1970-01-01T16:50:49.486Z</time>
    </trkpt>
    <trkpt lat="56.483733" lon="61.042168">
        <ele>284.2</ele>
        <time>1970-01-01T16:50:51.257Z</time>
    </trkpt>
    <trkpt lat="56.483755" lon="61.042091">
        <ele>284.2</ele>
        <time>1970-01-01T16:50:52.910Z</time>
    </trkpt>
    <trkpt lat="56.483778" lon="61.041997">
        <ele>284.2</ele>
        <time>1970-01-01T16:50:54.870Z</time>
    </trkpt>
    <trkpt lat="56.483806" lon="61.041897">
        <ele>284.2</ele>
        <time>1970-01-01T16:50:57.008Z</time>
    </trkpt>
    <trkpt lat="56.483835" lon="61.041805">
        <ele>284.1</ele>
        <time>1970-01-01T16:50:59.028Z</time>
    </trkpt>
    <trkpt lat="56.483857" lon="61.041718">
        <ele>283.9</ele>
        <time>1970-01-01T16:51:00.852Z</time>
    </trkpt>
    <trkpt lat="56.483876" lon="61.041622">
        <ele>283.8</ele>
        <time>1970-01-01T16:51:02.796Z</time>
    </trkpt>
    <trkpt lat="56.483893" lon="61.041526">
        <ele>283.7</ele>
        <time>1970-01-01T16:51:04.718Z</time>
    </trkpt>
    <trkpt lat="56.483908" lon="61.041431">
        <ele>283.8</ele>
        <time>1970-01-01T16:51:06.602Z</time>
    </trkpt>
    <trkpt lat="56.48392" lon="61.041343">
        <ele>283.9</ele>
        <time>1970-01-01T16:51:08.330Z</time>
    </trkpt>
    <trkpt lat="56.483929" lon="61.041247">
        <ele>284.0</ele>
        <time>1970-01-01T16:51:10.186Z</time>
    </trkpt>
    <trkpt lat="56.483936" lon="61.041134">
        <ele>284.1</ele>
        <time>1970-01-01T16:51:12.354Z</time>
    </trkpt>
    <trkpt lat="56.483939" lon="61.041008">
        <ele>284.2</ele>
        <time>1970-01-01T16:51:14.759Z</time>
    </trkpt>
    <trkpt lat="56.483944" lon="61.040897">
        <ele>284.2</ele>
        <time>1970-01-01T16:51:16.882Z</time>
    </trkpt>
    <trkpt lat="56.483948" lon="61.040778">
        <ele>284.2</ele>
        <time>1970-01-01T16:51:19.155Z</time>
    </trkpt>
    <trkpt lat="56.483956" lon="61.040662">
        <ele>284.0</ele>
        <time>1970-01-01T16:51:21.384Z</time>
    </trkpt>
    <trkpt lat="56.483962" lon="61.040549">
        <ele>283.8</ele>
        <time>1970-01-01T16:51:23.548Z</time>
    </trkpt>
    <trkpt lat="56.483957" lon="61.040443">
        <ele>283.6</ele>
        <time>1970-01-01T16:51:25.576Z</time>
    </trkpt>
    <trkpt lat="56.483946" lon="61.040325">
        <ele>283.4</ele>
        <time>1970-01-01T16:51:27.858Z</time>
    </trkpt>
    <trkpt lat="56.483928" lon="61.04019">
        <ele>283.4</ele>
        <time>1970-01-01T16:51:30.506Z</time>
    </trkpt>
    <trkpt lat="56.483931" lon="61.040051">
        <ele>283.6</ele>
        <time>1970-01-01T16:51:33.158Z</time>
    </trkpt>
    <trkpt lat="56.483945" lon="61.039933">
        <ele>283.7</ele>
        <time>1970-01-01T16:51:35.459Z</time>
    </trkpt>
    <trkpt lat="56.483961" lon="61.039819">
        <ele>283.8</ele>
        <time>1970-01-01T16:51:37.702Z</time>
    </trkpt>
    <trkpt lat="56.483976" lon="61.039698">
        <ele>283.9</ele>
        <time>1970-01-01T16:51:40.066Z</time>
    </trkpt>
    <trkpt lat="56.483992" lon="61.039565">
        <ele>283.8</ele>
        <time>1970-01-01T16:51:42.661Z</time>
    </trkpt>
    <trkpt lat="56.484017" lon="61.039434">
        <ele>283.6</ele>
        <time>1970-01-01T16:51:45.304Z</time>
    </trkpt>
    <trkpt lat="56.484041" lon="61.039322">
        <ele>283.3</ele>
        <time>1970-01-01T16:51:47.595Z</time>
    </trkpt>
    <trkpt lat="56.484065" lon="61.039201">
        <ele>283.1</ele>
        <time>1970-01-01T16:51:50.046Z</time>
    </trkpt>
    <trkpt lat="56.484079" lon="61.039095">
        <ele>282.8</ele>
        <time>1970-01-01T16:51:52.124Z</time>
    </trkpt>
    <trkpt lat="56.484086" lon="61.039006">
        <ele>282.6</ele>
        <time>1970-01-01T16:51:53.838Z</time>
    </trkpt>
    <trkpt lat="56.484103" lon="61.038915">
        <ele>282.4</ele>
        <time>1970-01-01T16:51:55.670Z</time>
    </trkpt>
    <trkpt lat="56.484126" lon="61.038816">
        <ele>282.2</ele>
        <time>1970-01-01T16:51:57.718Z</time>
    </trkpt>
    <trkpt lat="56.484138" lon="61.038724">
        <ele>281.9</ele>
        <time>1970-01-01T16:51:59.520Z</time>
    </trkpt>
    <trkpt lat="56.484141" lon="61.038615">
        <ele>281.6</ele>
        <time>1970-01-01T16:52:01.601Z</time>
    </trkpt>
    <trkpt lat="56.484131" lon="61.038508">
        <ele>281.3</ele>
        <time>1970-01-01T16:52:03.670Z</time>
    </trkpt>
    <trkpt lat="56.484127" lon="61.038407">
        <ele>281.0</ele>
        <time>1970-01-01T16:52:05.601Z</time>
    </trkpt>
    <trkpt lat="56.484136" lon="61.038292">
        <ele>280.8</ele>
        <time>1970-01-01T16:52:07.816Z</time>
    </trkpt>
    <trkpt lat="56.484111" lon="61.038141">
        <ele>280.5</ele>
        <time>1970-01-01T16:52:10.822Z</time>
    </trkpt>
    <trkpt lat="56.484088" lon="61.038035">
        <ele>280.4</ele>
        <time>1970-01-01T16:52:12.993Z</time>
    </trkpt>
    <trkpt lat="56.48406" lon="61.037958">
        <ele>280.2</ele>
        <time>1970-01-01T16:52:14.751Z</time>
    </trkpt>
    <trkpt lat="56.484037" lon="61.037874">
        <ele>280.1</ele>
        <time>1970-01-01T16:52:16.539Z</time>
    </trkpt>
    <trkpt lat="56.484011" lon="61.037784">
        <ele>280.1</ele>
        <time>1970-01-01T16:52:18.476Z</time>
    </trkpt>
    <trkpt lat="56.483996" lon="61.037707">
        <ele>280.0</ele>
        <time>1970-01-01T16:52:20.033Z</time>
    </trkpt>
    <trkpt lat="56.483989" lon="61.037626">
        <ele>280.0</ele>
        <time>1970-01-01T16:52:21.596Z</time>
    </trkpt>
    <trkpt lat="56.483987" lon="61.037539">
        <ele>280.0</ele>
        <time>1970-01-01T16:52:23.256Z</time>
    </trkpt>
    <trkpt lat="56.48399" lon="61.037453">
        <ele>280.1</ele>
        <time>1970-01-01T16:52:24.899Z</time>
    </trkpt>
    <trkpt lat="56.483997" lon="61.037391">
        <ele>280.2</ele>
        <time>1970-01-01T16:52:26.105Z</time>
    </trkpt>
    <trkpt lat="56.484023" lon="61.037348">
        <ele>280.3</ele>
        <time>1970-01-01T16:52:27.321Z</time>
    </trkpt>
    <trkpt lat="56.484065" lon="61.037281">
        <ele>280.4</ele>
        <time>1970-01-01T16:52:29.254Z</time>
    </trkpt>
    <trkpt lat="56.4841" lon="61.037219">
        <ele>280.5</ele>
        <time>1970-01-01T16:52:30.944Z</time>
    </trkpt>
    <trkpt lat="56.484125" lon="61.037147">
        <ele>280.6</ele>
        <time>1970-01-01T16:52:32.565Z</time>
    </trkpt>
    <trkpt lat="56.484148" lon="61.037067">
        <ele>280.9</ele>
        <time>1970-01-01T16:52:34.285Z</time>
    </trkpt>
    <trkpt lat="56.48416" lon="61.037007">
        <ele>281.2</ele>
        <time>1970-01-01T16:52:35.501Z</time>
    </trkpt>
    <trkpt lat="56.484186" lon="61.036896">
        <ele>281.5</ele>
        <time>1970-01-01T16:52:37.800Z</time>
    </trkpt>
    <trkpt lat="56.484226" lon="61.036797">
        <ele>281.8</ele>
        <time>1970-01-01T16:52:40.139Z</time>
    </trkpt>
    <trkpt lat="56.484273" lon="61.036709">
        <ele>282.1</ele>
        <time>1970-01-01T16:52:42.473Z</time>
    </trkpt>
    <trkpt lat="56.484306" lon="61.036625">
        <ele>282.4</ele>
        <time>1970-01-01T16:52:44.438Z</time>
    </trkpt>
    <trkpt lat="56.484321" lon="61.036546">
        <ele>282.7</ele>
        <time>1970-01-01T16:52:46.031Z</time>
    </trkpt>
    <trkpt lat="56.484331" lon="61.036452">
        <ele>283.0</ele>
        <time>1970-01-01T16:52:47.856Z</time>
    </trkpt>
    <trkpt lat="56.48435" lon="61.036348">
        <ele>283.2</ele>
        <time>1970-01-01T16:52:49.945Z</time>
    </trkpt>
    <trkpt lat="56.484375" lon="61.036225">
        <ele>283.4</ele>
        <time>1970-01-01T16:52:52.444Z</time>
    </trkpt>
    <trkpt lat="56.484398" lon="61.036104">
        <ele>283.5</ele>
        <time>1970-01-01T16:52:54.884Z</time>
    </trkpt>
    <trkpt lat="56.484417" lon="61.035987">
        <ele>283.6</ele>
        <time>1970-01-01T16:52:57.209Z</time>
    </trkpt>
    <trkpt lat="56.484426" lon="61.03587">
        <ele>283.7</ele>
        <time>1970-01-01T16:52:59.461Z</time>
    </trkpt>
    <trkpt lat="56.484429" lon="61.035748">
        <ele>283.8</ele>
        <time>1970-01-01T16:53:01.789Z</time>
    </trkpt>
    <trkpt lat="56.484441" lon="61.035608">
        <ele>283.9</ele>
        <time>1970-01-01T16:53:04.490Z</time>
    </trkpt>
    <trkpt lat="56.484454" lon="61.03548">
        <ele>283.9</ele>
        <time>1970-01-01T16:53:06.971Z</time>
    </trkpt>
    <trkpt lat="56.484462" lon="61.035392">
        <ele>283.8</ele>
        <time>1970-01-01T16:53:08.671Z</time>
    </trkpt>
    <trkpt lat="56.484479" lon="61.035288">
        <ele>283.6</ele>
        <time>1970-01-01T16:53:10.739Z</time>
    </trkpt>
    <trkpt lat="56.484492" lon="61.035185">
        <ele>283.2</ele>
        <time>1970-01-01T16:53:12.753Z</time>
    </trkpt>
    <trkpt lat="56.484493" lon="61.03506">
        <ele>282.8</ele>
        <time>1970-01-01T16:53:15.137Z</time>
    </trkpt>
    <trkpt lat="56.484498" lon="61.034949">
        <ele>282.2</ele>
        <time>1970-01-01T16:53:17.260Z</time>
    </trkpt>
    <trkpt lat="56.484481" lon="61.034827">
        <ele>281.4</ele>
        <time>1970-01-01T16:53:19.659Z</time>
    </trkpt>
    <trkpt lat="56.484464" lon="61.034702">
        <ele>280.4</ele>
        <time>1970-01-01T16:53:22.114Z</time>
    </trkpt>
    <trkpt lat="56.484468" lon="61.034578">
        <ele>279.4</ele>
        <time>1970-01-01T16:53:24.482Z</time>
    </trkpt>
    <trkpt lat="56.484471" lon="61.034461">
        <ele>279.2</ele>
        <time>1970-01-01T16:53:26.715Z</time>
    </trkpt>
    <trkpt lat="56.484465" lon="61.034346">
        <ele>279.0</ele>
        <time>1970-01-01T16:53:28.917Z</time>
    </trkpt>
    <trkpt lat="56.484445" lon="61.034205">
        <ele>278.9</ele>
        <time>1970-01-01T16:53:31.693Z</time>
    </trkpt>
    <trkpt lat="56.484435" lon="61.034054">
        <ele>278.6</ele>
        <time>1970-01-01T16:53:34.593Z</time>
    </trkpt>
    <trkpt lat="56.484449" lon="61.03391">
        <ele>278.4</ele>
        <time>1970-01-01T16:53:37.381Z</time>
    </trkpt>
    <trkpt lat="56.484463" lon="61.033774">
        <ele>278.3</ele>
        <time>1970-01-01T16:53:40.019Z</time>
    </trkpt>
    <trkpt lat="56.484473" lon="61.033636">
        <ele>278.2</ele>
        <time>1970-01-01T16:53:42.673Z</time>
    </trkpt>
    <trkpt lat="56.48449" lon="61.03352">
        <ele>278.2</ele>
        <time>1970-01-01T16:53:44.961Z</time>
    </trkpt>
    <trkpt lat="56.484495" lon="61.033414">
        <ele>278.1</ele>
        <time>1970-01-01T16:53:46.989Z</time>
    </trkpt>
    <trkpt lat="56.484509" lon="61.033315">
        <ele>278.2</ele>
        <time>1970-01-01T16:53:48.937Z</time>
    </trkpt>
    <trkpt lat="56.484521" lon="61.03319">
        <ele>278.3</ele>
        <time>1970-01-01T16:53:51.356Z</time>
    </trkpt>
    <trkpt lat="56.484538" lon="61.033054">
        <ele>278.5</ele>
        <time>1970-01-01T16:53:54.015Z</time>
    </trkpt>
    <trkpt lat="56.484552" lon="61.032901">
        <ele>278.8</ele>
        <time>1970-01-01T16:53:56.972Z</time>
    </trkpt>
    <trkpt lat="56.484553" lon="61.032776">
        <ele>279.2</ele>
        <time>1970-01-01T16:53:59.356Z</time>
    </trkpt>
    <trkpt lat="56.484576" lon="61.032652">
        <ele>279.6</ele>
        <time>1970-01-01T16:54:01.850Z</time>
    </trkpt>
    <trkpt lat="56.48461" lon="61.03253">
        <ele>280.1</ele>
        <time>1970-01-01T16:54:04.456Z</time>
    </trkpt>
    <trkpt lat="56.48465" lon="61.032423">
        <ele>280.5</ele>
        <time>1970-01-01T16:54:06.920Z</time>
    </trkpt>
    <trkpt lat="56.484694" lon="61.032331">
        <ele>280.9</ele>
        <time>1970-01-01T16:54:09.241Z</time>
    </trkpt>
    <trkpt lat="56.484736" lon="61.032253">
        <ele>281.4</ele>
        <time>1970-01-01T16:54:11.318Z</time>
    </trkpt>
    <trkpt lat="56.484769" lon="61.032195">
        <ele>281.8</ele>
        <time>1970-01-01T16:54:12.906Z</time>
    </trkpt>
    <trkpt lat="56.484794" lon="61.032128">
        <ele>282.3</ele>
        <time>1970-01-01T16:54:14.448Z</time>
    </trkpt>
    <trkpt lat="56.484818" lon="61.03207">
        <ele>284.0</ele>
        <time>1970-01-01T16:54:15.830Z</time>
    </trkpt>
    <trkpt lat="56.484849" lon="61.031994">
        <ele>284.1</ele>
        <time>1970-01-01T16:54:17.631Z</time>
    </trkpt>
    <trkpt lat="56.484883" lon="61.03191">
        <ele>284.3</ele>
        <time>1970-01-01T16:54:19.617Z</time>
    </trkpt>
    <trkpt lat="56.484909" lon="61.031842">
        <ele>284.3</ele>
        <time>1970-01-01T16:54:21.194Z</time>
    </trkpt>
    <trkpt lat="56.484929" lon="61.031798">
        <ele>284.4</ele>
        <time>1970-01-01T16:54:22.280Z</time>
    </trkpt>
    <trkpt lat="56.484938" lon="61.031736">
        <ele>284.4</ele>
        <time>1970-01-01T16:54:23.502Z</time>
    </trkpt>
    <trkpt lat="56.484952" lon="61.031673">
        <ele>284.4</ele>
        <time>1970-01-01T16:54:24.797Z</time>
    </trkpt>
    <trkpt lat="56.48497" lon="61.031628">
        <ele>284.4</ele>
        <time>1970-01-01T16:54:25.856Z</time>
    </trkpt>
    <trkpt lat="56.484996" lon="61.031581">
        <ele>284.5</ele>
        <time>1970-01-01T16:54:27.124Z</time>
    </trkpt>
    <trkpt lat="56.485027" lon="61.031535">
        <ele>284.5</ele>
        <time>1970-01-01T16:54:28.508Z</time>
    </trkpt>
    <trkpt lat="56.485066" lon="61.031479">
        <ele>284.6</ele>
        <time>1970-01-01T16:54:30.226Z</time>
    </trkpt>
    <trkpt lat="56.485118" lon="61.031405">
        <ele>284.7</ele>
        <time>1970-01-01T16:54:32.510Z</time>
    </trkpt>
    <trkpt lat="56.485168" lon="61.031328">
        <ele>284.9</ele>
        <time>1970-01-01T16:54:34.776Z</time>
    </trkpt>
    <trkpt lat="56.485218" lon="61.03125">
        <ele>285.0</ele>
        <time>1970-01-01T16:54:37.055Z</time>
    </trkpt>
    <trkpt lat="56.485281" lon="61.031151">
        <ele>285.1</ele>
        <time>1970-01-01T16:54:39.935Z</time>
    </trkpt>
    <trkpt lat="56.485342" lon="61.031051">
        <ele>285.3</ele>
        <time>1970-01-01T16:54:42.776Z</time>
    </trkpt>
    <trkpt lat="56.485409" lon="61.030937">
        <ele>285.4</ele>
        <time>1970-01-01T16:54:45.951Z</time>
    </trkpt>
    <trkpt lat="56.485476" lon="61.030831">
        <ele>285.6</ele>
        <time>1970-01-01T16:54:49.023Z</time>
    </trkpt>
    <trkpt lat="56.485544" lon="61.030739">
        <ele>285.9</ele>
        <time>1970-01-01T16:54:51.954Z</time>
    </trkpt>
    <trkpt lat="56.485609" lon="61.03068">
        <ele>286.1</ele>
        <time>1970-01-01T16:54:54.465Z</time>
    </trkpt>
    <trkpt lat="56.485676" lon="61.030617">
        <ele>286.4</ele>
        <time>1970-01-01T16:54:57.072Z</time>
    </trkpt>
    <trkpt lat="56.485737" lon="61.030566">
        <ele>286.7</ele>
        <time>1970-01-01T16:54:59.392Z</time>
    </trkpt>
    <trkpt lat="56.485801" lon="61.030514">
        <ele>287.1</ele>
        <time>1970-01-01T16:55:01.814Z</time>
    </trkpt>
    <trkpt lat="56.485861" lon="61.030467">
        <ele>287.4</ele>
        <time>1970-01-01T16:55:04.071Z</time>
    </trkpt>
    <trkpt lat="56.485926" lon="61.030412">
        <ele>287.6</ele>
        <time>1970-01-01T16:55:06.548Z</time>
    </trkpt>
    <trkpt lat="56.485999" lon="61.030333">
        <ele>287.9</ele>
        <time>1970-01-01T16:55:09.485Z</time>
    </trkpt>
    <trkpt lat="56.486066" lon="61.030278">
        <ele>288.1</ele>
        <time>1970-01-01T16:55:12.025Z</time>
    </trkpt>
    <trkpt lat="56.486128" lon="61.030223">
        <ele>288.2</ele>
        <time>1970-01-01T16:55:14.409Z</time>
    </trkpt>
    <trkpt lat="56.48618" lon="61.030173">
        <ele>288.4</ele>
        <time>1970-01-01T16:55:16.442Z</time>
    </trkpt>
    <trkpt lat="56.48623" lon="61.030131">
        <ele>288.5</ele>
        <time>1970-01-01T16:55:18.345Z</time>
    </trkpt>
    <trkpt lat="56.486286" lon="61.030094">
        <ele>288.6</ele>
        <time>1970-01-01T16:55:20.403Z</time>
    </trkpt>
    <trkpt lat="56.486357" lon="61.030042">
        <ele>288.7</ele>
        <time>1970-01-01T16:55:23.048Z</time>
    </trkpt>
    <trkpt lat="56.486424" lon="61.029986">
        <ele>288.8</ele>
        <time>1970-01-01T16:55:25.596Z</time>
    </trkpt>
    <trkpt lat="56.486486" lon="61.029947">
        <ele>288.9</ele>
        <time>1970-01-01T16:55:27.862Z</time>
    </trkpt>
    <trkpt lat="56.486538" lon="61.029913">
        <ele>288.9</ele>
        <time>1970-01-01T16:55:29.771Z</time>
    </trkpt>
    <trkpt lat="56.486601" lon="61.029916">
        <ele>289.0</ele>
        <time>1970-01-01T16:55:31.947Z</time>
    </trkpt>
    <trkpt lat="56.486684" lon="61.029931">
        <ele>289.0</ele>
        <time>1970-01-01T16:55:34.827Z</time>
    </trkpt>
    <trkpt lat="56.486737" lon="61.02993">
        <ele>289.0</ele>
        <time>1970-01-01T16:55:36.657Z</time>
    </trkpt>
    <trkpt lat="56.486787" lon="61.029939">
        <ele>289.0</ele>
        <time>1970-01-01T16:55:38.392Z</time>
    </trkpt>
    <trkpt lat="56.486829" lon="61.029939">
        <ele>288.9</ele>
        <time>1970-01-01T16:55:39.842Z</time>
    </trkpt>
    <trkpt lat="56.48687" lon="61.02994">
        <ele>288.9</ele>
        <time>1970-01-01T16:55:41.258Z</time>
    </trkpt>
    <trkpt lat="56.486926" lon="61.029934">
        <ele>288.8</ele>
        <time>1970-01-01T16:55:43.195Z</time>
    </trkpt>
    <trkpt lat="56.48698" lon="61.029913">
        <ele>288.7</ele>
        <time>1970-01-01T16:55:45.102Z</time>
    </trkpt>
    <trkpt lat="56.487028" lon="61.029888">
        <ele>288.6</ele>
        <time>1970-01-01T16:55:46.826Z</time>
    </trkpt>
    <trkpt lat="56.487084" lon="61.029872">
        <ele>288.4</ele>
        <time>1970-01-01T16:55:48.784Z</time>
    </trkpt>
    <trkpt lat="56.48715" lon="61.029859">
        <ele>288.1</ele>
        <time>1970-01-01T16:55:51.076Z</time>
    </trkpt>
    <trkpt lat="56.48721" lon="61.029863">
        <ele>287.7</ele>
        <time>1970-01-01T16:55:53.149Z</time>
    </trkpt>
    <trkpt lat="56.487265" lon="61.029867">
        <ele>287.2</ele>
        <time>1970-01-01T16:55:55.050Z</time>
    </trkpt>
    <trkpt lat="56.487321" lon="61.029866">
        <ele>286.6</ele>
        <time>1970-01-01T16:55:56.984Z</time>
    </trkpt>
    <trkpt lat="56.487372" lon="61.029856">
        <ele>285.8</ele>
        <time>1970-01-01T16:55:58.755Z</time>
    </trkpt>
    <trkpt lat="56.487431" lon="61.029861">
        <ele>284.7</ele>
        <time>1970-01-01T16:56:00.794Z</time>
    </trkpt>
    <trkpt lat="56.48748" lon="61.029881">
        <ele>283.3</ele>
        <time>1970-01-01T16:56:02.528Z</time>
    </trkpt>
    <trkpt lat="56.487523" lon="61.029911">
        <ele>281.3</ele>
        <time>1970-01-01T16:56:04.119Z</time>
    </trkpt>
    <trkpt lat="56.487554" lon="61.029908">
        <ele>279.0</ele>
        <time>1970-01-01T16:56:05.191Z</time>
    </trkpt>
    <trkpt lat="56.487595" lon="61.029889">
        <ele>278.8</ele>
        <time>1970-01-01T16:56:06.652Z</time>
    </trkpt>
    <trkpt lat="56.487644" lon="61.029875">
        <ele>278.7</ele>
        <time>1970-01-01T16:56:08.365Z</time>
    </trkpt>
    <trkpt lat="56.487693" lon="61.029859">
        <ele>278.5</ele>
        <time>1970-01-01T16:56:10.084Z</time>
    </trkpt>
    <trkpt lat="56.487741" lon="61.029838">
        <ele>277.1</ele>
        <time>1970-01-01T16:56:11.789Z</time>
    </trkpt>
    <trkpt lat="56.487781" lon="61.029813">
        <ele>276.8</ele>
        <time>1970-01-01T16:56:13.250Z</time>
    </trkpt>
    <trkpt lat="56.48783" lon="61.02978">
        <ele>276.6</ele>
        <time>1970-01-01T16:56:15.055Z</time>
    </trkpt>
    <trkpt lat="56.487885" lon="61.029709">
        <ele>276.3</ele>
        <time>1970-01-01T16:56:17.387Z</time>
    </trkpt>
    <trkpt lat="56.487935" lon="61.029622">
        <ele>275.7</ele>
        <time>1970-01-01T16:56:19.781Z</time>
    </trkpt>
    <trkpt lat="56.487989" lon="61.029569">
        <ele>275.1</ele>
        <time>1970-01-01T16:56:21.902Z</time>
    </trkpt>
    <trkpt lat="56.4879879403155" lon="61.02956771850587">
        <ele>274.9</ele>
        <time>1970-01-01T16:56:21.946Z</time>
    </trkpt>
    <trkpt lat="56.488586019171265" lon="61.02886412774818">
        <ele>276.1</ele>
        <time>2022-06-29T13:27:55.577Z</time>
    </trkpt>
    <trkpt lat="56.488591" lon="61.028868">
        <ele>276.1</ele>
        <time>2022-06-29T13:27:55.846Z</time>
    </trkpt>
    <trkpt lat="56.488631" lon="61.028871">
        <ele>276.3</ele>
        <time>2022-06-29T13:27:57.837Z</time>
    </trkpt>
    <trkpt lat="56.488668" lon="61.028878">
        <ele>276.4</ele>
        <time>2022-06-29T13:27:59.687Z</time>
    </trkpt>
    <trkpt lat="56.488701" lon="61.028891">
        <ele>276.6</ele>
        <time>2022-06-29T13:28:01.366Z</time>
    </trkpt>
    <trkpt lat="56.488734" lon="61.028908">
        <ele>276.8</ele>
        <time>2022-06-29T13:28:03.072Z</time>
    </trkpt>
    <trkpt lat="56.488768" lon="61.028925">
        <ele>277.0</ele>
        <time>2022-06-29T13:28:04.826Z</time>
    </trkpt>
    <trkpt lat="56.488797" lon="61.028935">
        <ele>277.1</ele>
        <time>2022-06-29T13:28:06.294Z</time>
    </trkpt>
    <trkpt lat="56.488827" lon="61.028934">
        <ele>277.3</ele>
        <time>2022-06-29T13:28:07.786Z</time>
    </trkpt>
    <trkpt lat="56.488857" lon="61.028934">
        <ele>277.5</ele>
        <time>2022-06-29T13:28:09.278Z</time>
    </trkpt>
    <trkpt lat="56.488887" lon="61.028947">
        <ele>277.7</ele>
        <time>2022-06-29T13:28:10.812Z</time>
    </trkpt>
    <trkpt lat="56.488908" lon="61.028953">
        <ele>278.0</ele>
        <time>2022-06-29T13:28:11.869Z</time>
    </trkpt>
    <trkpt lat="56.488929" lon="61.028944">
        <ele>278.2</ele>
        <time>2022-06-29T13:28:12.942Z</time>
    </trkpt>
    <trkpt lat="56.488946" lon="61.028937">
        <ele>278.5</ele>
        <time>2022-06-29T13:28:13.809Z</time>
    </trkpt>
    <trkpt lat="56.488971" lon="61.028931">
        <ele>278.7</ele>
        <time>2022-06-29T13:28:15.063Z</time>
    </trkpt>
    <trkpt lat="56.488993" lon="61.028911">
        <ele>279.0</ele>
        <time>2022-06-29T13:28:16.287Z</time>
    </trkpt>
    <trkpt lat="56.489022" lon="61.028898">
        <ele>279.3</ele>
        <time>2022-06-29T13:28:17.772Z</time>
    </trkpt>
    <trkpt lat="56.48905" lon="61.028891">
        <ele>279.5</ele>
        <time>2022-06-29T13:28:19.177Z</time>
    </trkpt>
    <trkpt lat="56.48908" lon="61.02888">
        <ele>279.8</ele>
        <time>2022-06-29T13:28:20.699Z</time>
    </trkpt>
    <trkpt lat="56.489115" lon="61.028849">
        <ele>280.2</ele>
        <time>2022-06-29T13:28:22.636Z</time>
    </trkpt>
    <trkpt lat="56.489134" lon="61.028832">
        <ele>280.5</ele>
        <time>2022-06-29T13:28:23.690Z</time>
    </trkpt>
    <trkpt lat="56.489157" lon="61.028807">
        <ele>280.8</ele>
        <time>2022-06-29T13:28:25.024Z</time>
    </trkpt>
    <trkpt lat="56.489182" lon="61.028797">
        <ele>281.2</ele>
        <time>2022-06-29T13:28:26.297Z</time>
    </trkpt>
    <trkpt lat="56.489206" lon="61.028758">
        <ele>281.5</ele>
        <time>2022-06-29T13:28:27.900Z</time>
    </trkpt>
    <trkpt lat="56.489239" lon="61.028698">
        <ele>281.9</ele>
        <time>2022-06-29T13:28:30.225Z</time>
    </trkpt>
    <trkpt lat="56.489288" lon="61.028637">
        <ele>282.1</ele>
        <time>2022-06-29T13:28:33.182Z</time>
    </trkpt>
    <trkpt lat="56.489331" lon="61.028555">
        <ele>282.2</ele>
        <time>2022-06-29T13:28:36.287Z</time>
    </trkpt>
    <trkpt lat="56.489369" lon="61.028516">
        <ele>282.3</ele>
        <time>2022-06-29T13:28:38.459Z</time>
    </trkpt>
    <trkpt lat="56.489401" lon="61.028487">
        <ele>282.2</ele>
        <time>2022-06-29T13:28:40.238Z</time>
    </trkpt>
    <trkpt lat="56.489449" lon="61.028478">
        <ele>282.0</ele>
        <time>2022-06-29T13:28:42.638Z</time>
    </trkpt>
    <trkpt lat="56.489501" lon="61.028478">
        <ele>281.7</ele>
        <time>2022-06-29T13:28:45.224Z</time>
    </trkpt>
    <trkpt lat="56.489539" lon="61.028476">
        <ele>281.4</ele>
        <time>2022-06-29T13:28:47.114Z</time>
    </trkpt>
    <trkpt lat="56.489563" lon="61.028464">
        <ele>281.1</ele>
        <time>2022-06-29T13:28:48.352Z</time>
    </trkpt>
    <trkpt lat="56.489574" lon="61.028462">
        <ele>280.7</ele>
        <time>2022-06-29T13:28:48.901Z</time>
    </trkpt>
    <trkpt lat="56.489606" lon="61.028464">
        <ele>280.3</ele>
        <time>2022-06-29T13:28:50.493Z</time>
    </trkpt>
    <trkpt lat="56.489634" lon="61.028448">
        <ele>279.8</ele>
        <time>2022-06-29T13:28:51.953Z</time>
    </trkpt>
    <trkpt lat="56.489668" lon="61.028453">
        <ele>279.2</ele>
        <time>2022-06-29T13:28:53.649Z</time>
    </trkpt>
    <trkpt lat="56.489715" lon="61.028432">
        <ele>278.5</ele>
        <time>2022-06-29T13:28:56.056Z</time>
    </trkpt>
    <trkpt lat="56.489764" lon="61.028435">
        <ele>277.8</ele>
        <time>2022-06-29T13:28:58.494Z</time>
    </trkpt>
    <trkpt lat="56.489822" lon="61.028448">
        <ele>277.0</ele>
        <time>2022-06-29T13:29:01.400Z</time>
    </trkpt>
    <trkpt lat="56.489877" lon="61.028474">
        <ele>276.9</ele>
        <time>2022-06-29T13:29:04.227Z</time>
    </trkpt>
    <trkpt lat="56.489929" lon="61.028505">
        <ele>276.8</ele>
        <time>2022-06-29T13:29:06.949Z</time>
    </trkpt>
    <trkpt lat="56.489981" lon="61.028541">
        <ele>276.7</ele>
        <time>2022-06-29T13:29:09.717Z</time>
    </trkpt>
    <trkpt lat="56.490026" lon="61.028572">
        <ele>276.5</ele>
        <time>2022-06-29T13:29:12.111Z</time>
    </trkpt>
    <trkpt lat="56.490061" lon="61.028597">
        <ele>276.4</ele>
        <time>2022-06-29T13:29:13.982Z</time>
    </trkpt>
    <trkpt lat="56.490096" lon="61.028599">
        <ele>276.4</ele>
        <time>2022-06-29T13:29:15.723Z</time>
    </trkpt>
    <trkpt lat="56.490127" lon="61.028599">
        <ele>276.3</ele>
        <time>2022-06-29T13:29:17.264Z</time>
    </trkpt>
    <trkpt lat="56.490154" lon="61.028614">
        <ele>276.2</ele>
        <time>2022-06-29T13:29:18.668Z</time>
    </trkpt>
    <trkpt lat="56.490182" lon="61.028636">
        <ele>276.2</ele>
        <time>2022-06-29T13:29:20.186Z</time>
    </trkpt>
    <trkpt lat="56.490222" lon="61.02866">
        <ele>276.2</ele>
        <time>2022-06-29T13:29:22.281Z</time>
    </trkpt>
    <trkpt lat="56.490267" lon="61.028675">
        <ele>276.2</ele>
        <time>2022-06-29T13:29:24.556Z</time>
    </trkpt>
    <trkpt lat="56.490313" lon="61.028683">
        <ele>276.2</ele>
        <time>2022-06-29T13:29:26.854Z</time>
    </trkpt>
    <trkpt lat="56.490356" lon="61.028687">
        <ele>276.2</ele>
        <time>2022-06-29T13:29:28.995Z</time>
    </trkpt>
    <trkpt lat="56.490403" lon="61.028698">
        <ele>276.2</ele>
        <time>2022-06-29T13:29:31.352Z</time>
    </trkpt>
    <trkpt lat="56.490453" lon="61.028722">
        <ele>276.2</ele>
        <time>2022-06-29T13:29:33.924Z</time>
    </trkpt>
    <trkpt lat="56.490506" lon="61.028737">
        <ele>276.2</ele>
        <time>2022-06-29T13:29:36.592Z</time>
    </trkpt>
    <trkpt lat="56.490548" lon="61.02873">
        <ele>276.2</ele>
        <time>2022-06-29T13:29:38.689Z</time>
    </trkpt>
    <trkpt lat="56.490588" lon="61.028727">
        <ele>276.2</ele>
        <time>2022-06-29T13:29:40.680Z</time>
    </trkpt>
    <trkpt lat="56.490636" lon="61.028712">
        <ele>276.2</ele>
        <time>2022-06-29T13:29:43.102Z</time>
    </trkpt>
    <trkpt lat="56.49069" lon="61.028689">
        <ele>276.3</ele>
        <time>2022-06-29T13:29:45.861Z</time>
    </trkpt>
    <trkpt lat="56.490752" lon="61.028687">
        <ele>276.4</ele>
        <time>2022-06-29T13:29:48.945Z</time>
    </trkpt>
    <trkpt lat="56.490821" lon="61.028682">
        <ele>276.6</ele>
        <time>2022-06-29T13:29:52.379Z</time>
    </trkpt>
    <trkpt lat="56.490887" lon="61.028688">
        <ele>276.8</ele>
        <time>2022-06-29T13:29:55.665Z</time>
    </trkpt>
    <trkpt lat="56.490936" lon="61.028686">
        <ele>276.9</ele>
        <time>2022-06-29T13:29:58.102Z</time>
    </trkpt>
    <trkpt lat="56.490987" lon="61.028682">
        <ele>276.9</ele>
        <time>2022-06-29T13:30:00.641Z</time>
    </trkpt>
    <trkpt lat="56.491026" lon="61.02866">
        <ele>276.8</ele>
        <time>2022-06-29T13:30:02.672Z</time>
    </trkpt>
    <trkpt lat="56.49107" lon="61.028674">
        <ele>276.6</ele>
        <time>2022-06-29T13:30:04.893Z</time>
    </trkpt>
    <trkpt lat="56.491105" lon="61.028675">
        <ele>276.4</ele>
        <time>2022-06-29T13:30:06.634Z</time>
    </trkpt>
    <trkpt lat="56.491142" lon="61.028666">
        <ele>276.2</ele>
        <time>2022-06-29T13:30:08.490Z</time>
    </trkpt>
    <trkpt lat="56.491172" lon="61.028647">
        <ele>276.0</ele>
        <time>2022-06-29T13:30:10.070Z</time>
    </trkpt>
    <trkpt lat="56.491195" lon="61.028632">
        <ele>275.8</ele>
        <time>2022-06-29T13:30:11.285Z</time>
    </trkpt>
    <trkpt lat="56.491227" lon="61.028631">
        <ele>275.6</ele>
        <time>2022-06-29T13:30:12.876Z</time>
    </trkpt>
    <trkpt lat="56.491259" lon="61.028614">
        <ele>275.4</ele>
        <time>2022-06-29T13:30:14.534Z</time>
    </trkpt>
    <trkpt lat="56.491287" lon="61.028597">
        <ele>275.3</ele>
        <time>2022-06-29T13:30:16.002Z</time>
    </trkpt>
    <trkpt lat="56.491323" lon="61.028553">
        <ele>275.3</ele>
        <time>2022-06-29T13:30:18.162Z</time>
    </trkpt>
    <trkpt lat="56.491359" lon="61.028506">
        <ele>275.4</ele>
        <time>2022-06-29T13:30:20.369Z</time>
    </trkpt>
    <trkpt lat="56.491398" lon="61.028478">
        <ele>275.8</ele>
        <time>2022-06-29T13:30:22.455Z</time>
    </trkpt>
    <trkpt lat="56.491441" lon="61.028422">
        <ele>276.2</ele>
        <time>2022-06-29T13:30:25.089Z</time>
    </trkpt>
    <trkpt lat="56.491484" lon="61.0284">
        <ele>276.8</ele>
        <time>2022-06-29T13:30:27.311Z</time>
    </trkpt>
    <trkpt lat="56.491517" lon="61.02838">
        <ele>276.9</ele>
        <time>2022-06-29T13:30:29.041Z</time>
    </trkpt>
    <trkpt lat="56.491562" lon="61.028345">
        <ele>277.3</ele>
        <time>2022-06-29T13:30:31.476Z</time>
    </trkpt>
    <trkpt lat="56.491593" lon="61.028294">
        <ele>277.8</ele>
        <time>2022-06-29T13:30:33.558Z</time>
    </trkpt>
    <trkpt lat="56.491632" lon="61.028267">
        <ele>278.0</ele>
        <time>2022-06-29T13:30:35.634Z</time>
    </trkpt>
    <trkpt lat="56.491648" lon="61.028237">
        <ele>278.3</ele>
        <time>2022-06-29T13:30:36.779Z</time>
    </trkpt>
    <trkpt lat="56.491691" lon="61.028167">
        <ele>278.2</ele>
        <time>2022-06-29T13:30:39.654Z</time>
    </trkpt>
    <trkpt lat="56.491738" lon="61.028103">
        <ele>278.2</ele>
        <time>2022-06-29T13:30:42.578Z</time>
    </trkpt>
    <trkpt lat="56.49177" lon="61.028016">
        <ele>278.5</ele>
        <time>2022-06-29T13:30:45.448Z</time>
    </trkpt>
    <trkpt lat="56.491808" lon="61.02795">
        <ele>278.9</ele>
        <time>2022-06-29T13:30:48.066Z</time>
    </trkpt>
    <trkpt lat="56.491852" lon="61.027882">
        <ele>279.3</ele>
        <time>2022-06-29T13:30:50.942Z</time>
    </trkpt>
    <trkpt lat="56.491882" lon="61.027782">
        <ele>279.9</ele>
        <time>2022-06-29T13:30:54.067Z</time>
    </trkpt>
    <trkpt lat="56.491919" lon="61.027703">
        <ele>280.3</ele>
        <time>2022-06-29T13:30:56.911Z</time>
    </trkpt>
    <trkpt lat="56.49195" lon="61.02763">
        <ele>280.5</ele>
        <time>2022-06-29T13:30:59.439Z</time>
    </trkpt>
    <trkpt lat="56.491968" lon="61.027595">
        <ele>280.6</ele>
        <time>2022-06-29T13:31:00.752Z</time>
    </trkpt>
    <trkpt lat="56.49198" lon="61.027554">
        <ele>280.7</ele>
        <time>2022-06-29T13:31:02.026Z</time>
    </trkpt>
    <trkpt lat="56.49199" lon="61.027528">
        <ele>280.9</ele>
        <time>2022-06-29T13:31:02.896Z</time>
    </trkpt>
    <trkpt lat="56.492006" lon="61.027485">
        <ele>281.1</ele>
        <time>2022-06-29T13:31:04.319Z</time>
    </trkpt>
    <trkpt lat="56.492017" lon="61.027452">
        <ele>281.3</ele>
        <time>2022-06-29T13:31:05.377Z</time>
    </trkpt>
    <trkpt lat="56.49203" lon="61.027435">
        <ele>281.5</ele>
        <time>2022-06-29T13:31:06.174Z</time>
    </trkpt>
    <trkpt lat="56.492038" lon="61.027415">
        <ele>281.7</ele>
        <time>2022-06-29T13:31:06.852Z</time>
    </trkpt>
    <trkpt lat="56.492062" lon="61.027391">
        <ele>282.0</ele>
        <time>2022-06-29T13:31:08.215Z</time>
    </trkpt>
    <trkpt lat="56.492101" lon="61.027368">
        <ele>282.4</ele>
        <time>2022-06-29T13:31:10.255Z</time>
    </trkpt>
    <trkpt lat="56.492137" lon="61.027328">
        <ele>282.8</ele>
        <time>2022-06-29T13:31:12.355Z</time>
    </trkpt>
    <trkpt lat="56.492165" lon="61.027296">
        <ele>283.2</ele>
        <time>2022-06-29T13:31:14.001Z</time>
    </trkpt>
    <trkpt lat="56.492197" lon="61.027268">
        <ele>283.2</ele>
        <time>2022-06-29T13:31:15.768Z</time>
    </trkpt>
    <trkpt lat="56.492222" lon="61.027223">
        <ele>283.1</ele>
        <time>2022-06-29T13:31:17.520Z</time>
    </trkpt>
    <trkpt lat="56.492242" lon="61.027208">
        <ele>283.1</ele>
        <time>2022-06-29T13:31:18.596Z</time>
    </trkpt>
    <trkpt lat="56.492271" lon="61.027181">
        <ele>283.0</ele>
        <time>2022-06-29T13:31:20.217Z</time>
    </trkpt>
    <trkpt lat="56.492301" lon="61.027146">
        <ele>282.9</ele>
        <time>2022-06-29T13:31:21.991Z</time>
    </trkpt>
    <trkpt lat="56.492337" lon="61.027132">
        <ele>282.8</ele>
        <time>2022-06-29T13:31:23.822Z</time>
    </trkpt>
    <trkpt lat="56.492367" lon="61.027125">
        <ele>282.8</ele>
        <time>2022-06-29T13:31:25.326Z</time>
    </trkpt>
    <trkpt lat="56.49241" lon="61.027097">
        <ele>282.8</ele>
        <time>2022-06-29T13:31:27.598Z</time>
    </trkpt>
    <trkpt lat="56.492438" lon="61.027084">
        <ele>282.8</ele>
        <time>2022-06-29T13:31:29.035Z</time>
    </trkpt>
    <trkpt lat="56.492465" lon="61.027067">
        <ele>282.8</ele>
        <time>2022-06-29T13:31:30.456Z</time>
    </trkpt>
    <trkpt lat="56.492499" lon="61.027046">
        <ele>283.1</ele>
        <time>2022-06-29T13:31:32.242Z</time>
    </trkpt>
    <trkpt lat="56.49253" lon="61.027023">
        <ele>282.9</ele>
        <time>2022-06-29T13:31:33.908Z</time>
    </trkpt>
    <trkpt lat="56.492567" lon="61.027019">
        <ele>282.7</ele>
        <time>2022-06-29T13:31:35.751Z</time>
    </trkpt>
    <trkpt lat="56.492615" lon="61.027006">
        <ele>282.4</ele>
        <time>2022-06-29T13:31:38.164Z</time>
    </trkpt>
    <trkpt lat="56.492668" lon="61.026994">
        <ele>282.2</ele>
        <time>2022-06-29T13:31:40.820Z</time>
    </trkpt>
    <trkpt lat="56.49272" lon="61.026966">
        <ele>281.8</ele>
        <time>2022-06-29T13:31:43.518Z</time>
    </trkpt>
    <trkpt lat="56.492782" lon="61.026944">
        <ele>282.3</ele>
        <time>2022-06-29T13:31:46.660Z</time>
    </trkpt>
    <trkpt lat="56.492853" lon="61.026917">
        <ele>282.7</ele>
        <time>2022-06-29T13:31:50.268Z</time>
    </trkpt>
    <trkpt lat="56.492922" lon="61.026901">
        <ele>283.5</ele>
        <time>2022-06-29T13:31:53.727Z</time>
    </trkpt>
    <trkpt lat="56.492989" lon="61.026878">
        <ele>283.5</ele>
        <time>2022-06-29T13:31:57.118Z</time>
    </trkpt>
    <trkpt lat="56.493042" lon="61.026873">
        <ele>282.8</ele>
        <time>2022-06-29T13:31:59.757Z</time>
    </trkpt>
    <trkpt lat="56.493091" lon="61.02687">
        <ele>282.7</ele>
        <time>2022-06-29T13:32:02.195Z</time>
    </trkpt>
    <trkpt lat="56.493119" lon="61.026868">
        <ele>282.6</ele>
        <time>2022-06-29T13:32:03.588Z</time>
    </trkpt>
    <trkpt lat="56.493142" lon="61.026876">
        <ele>282.6</ele>
        <time>2022-06-29T13:32:04.752Z</time>
    </trkpt>
    <trkpt lat="56.493155" lon="61.026861">
        <ele>282.5</ele>
        <time>2022-06-29T13:32:05.518Z</time>
    </trkpt>
    <trkpt lat="56.493158" lon="61.026867">
        <ele>282.4</ele>
        <time>2022-06-29T13:32:05.740Z</time>
    </trkpt>
    <trkpt lat="56.493166" lon="61.026859">
        <ele>282.3</ele>
        <time>2022-06-29T13:32:06.194Z</time>
    </trkpt>
    <trkpt lat="56.493193" lon="61.026869">
        <ele>282.3</ele>
        <time>2022-06-29T13:32:07.564Z</time>
    </trkpt>
    <trkpt lat="56.493233" lon="61.026877">
        <ele>282.3</ele>
        <time>2022-06-29T13:32:09.565Z</time>
    </trkpt>
    <trkpt lat="56.49328" lon="61.026883">
        <ele>282.4</ele>
        <time>2022-06-29T13:32:11.908Z</time>
    </trkpt>
    <trkpt lat="56.493331" lon="61.026869">
        <ele>282.5</ele>
        <time>2022-06-29T13:32:14.473Z</time>
    </trkpt>
    <trkpt lat="56.493366" lon="61.026869">
        <ele>282.5</ele>
        <time>2022-06-29T13:32:16.213Z</time>
    </trkpt>
    <trkpt lat="56.493392" lon="61.026872">
        <ele>282.6</ele>
        <time>2022-06-29T13:32:17.508Z</time>
    </trkpt>
    <trkpt lat="56.493412" lon="61.026861">
        <ele>282.6</ele>
        <time>2022-06-29T13:32:18.547Z</time>
    </trkpt>
    <trkpt lat="56.493455" lon="61.026841">
        <ele>282.5</ele>
        <time>2022-06-29T13:32:20.755Z</time>
    </trkpt>
    <trkpt lat="56.493504" lon="61.026812">
        <ele>282.3</ele>
        <time>2022-06-29T13:32:23.318Z</time>
    </trkpt>
    <trkpt lat="56.493556" lon="61.026797">
        <ele>282.1</ele>
        <time>2022-06-29T13:32:25.936Z</time>
    </trkpt>
    <trkpt lat="56.493612" lon="61.026791">
        <ele>281.8</ele>
        <time>2022-06-29T13:32:28.726Z</time>
    </trkpt>
    <trkpt lat="56.493659" lon="61.026782">
        <ele>281.5</ele>
        <time>2022-06-29T13:32:31.076Z</time>
    </trkpt>
    <trkpt lat="56.49371" lon="61.026777">
        <ele>281.3</ele>
        <time>2022-06-29T13:32:33.616Z</time>
    </trkpt>
    <trkpt lat="56.493756" lon="61.02677">
        <ele>281.1</ele>
        <time>2022-06-29T13:32:35.912Z</time>
    </trkpt>
    <trkpt lat="56.493817" lon="61.026774">
        <ele>280.9</ele>
        <time>2022-06-29T13:32:38.948Z</time>
    </trkpt>
    <trkpt lat="56.493883" lon="61.026762">
        <ele>280.8</ele>
        <time>2022-06-29T13:32:42.247Z</time>
    </trkpt>
    <trkpt lat="56.493953" lon="61.026754">
        <ele>280.7</ele>
        <time>2022-06-29T13:32:45.735Z</time>
    </trkpt>
    <trkpt lat="56.494014" lon="61.026731">
        <ele>280.6</ele>
        <time>2022-06-29T13:32:48.834Z</time>
    </trkpt>
    <trkpt lat="56.494067" lon="61.026725">
        <ele>280.5</ele>
        <time>2022-06-29T13:32:51.475Z</time>
    </trkpt>
    <trkpt lat="56.494105" lon="61.026713">
        <ele>280.4</ele>
        <time>2022-06-29T13:32:53.393Z</time>
    </trkpt>
    <trkpt lat="56.494143" lon="61.026704">
        <ele>280.3</ele>
        <time>2022-06-29T13:32:55.299Z</time>
    </trkpt>
    <trkpt lat="56.494183" lon="61.026711">
        <ele>280.2</ele>
        <time>2022-06-29T13:32:57.297Z</time>
    </trkpt>
    <trkpt lat="56.494221" lon="61.026728">
        <ele>280.2</ele>
        <time>2022-06-29T13:32:59.243Z</time>
    </trkpt>
    <trkpt lat="56.494263" lon="61.026728">
        <ele>280.2</ele>
        <time>2022-06-29T13:33:01.332Z</time>
    </trkpt>
    <trkpt lat="56.494305" lon="61.026734">
        <ele>280.2</ele>
        <time>2022-06-29T13:33:03.427Z</time>
    </trkpt>
    <trkpt lat="56.494357" lon="61.02673">
        <ele>280.3</ele>
        <time>2022-06-29T13:33:06.015Z</time>
    </trkpt>
    <trkpt lat="56.494406" lon="61.026739">
        <ele>280.4</ele>
        <time>2022-06-29T13:33:08.464Z</time>
    </trkpt>
    <trkpt lat="56.494456" lon="61.026738">
        <ele>280.6</ele>
        <time>2022-06-29T13:33:10.951Z</time>
    </trkpt>
    <trkpt lat="56.494504" lon="61.026745">
        <ele>280.7</ele>
        <time>2022-06-29T13:33:13.346Z</time>
    </trkpt>
    <trkpt lat="56.494545" lon="61.02674">
        <ele>280.9</ele>
        <time>2022-06-29T13:33:15.389Z</time>
    </trkpt>
    <trkpt lat="56.494586" lon="61.026743">
        <ele>281.0</ele>
        <time>2022-06-29T13:33:17.429Z</time>
    </trkpt>
    <trkpt lat="56.494628" lon="61.026753">
        <ele>281.2</ele>
        <time>2022-06-29T13:33:19.535Z</time>
    </trkpt>
    <trkpt lat="56.494673" lon="61.026754">
        <ele>281.4</ele>
        <time>2022-06-29T13:33:21.773Z</time>
    </trkpt>
    <trkpt lat="56.494713" lon="61.026732">
        <ele>281.5</ele>
        <time>2022-06-29T13:33:23.852Z</time>
    </trkpt>
    <trkpt lat="56.494761" lon="61.026737">
        <ele>281.6</ele>
        <time>2022-06-29T13:33:26.243Z</time>
    </trkpt>
    <trkpt lat="56.494812" lon="61.026734">
        <ele>281.8</ele>
        <time>2022-06-29T13:33:28.780Z</time>
    </trkpt>
    <trkpt lat="56.494873" lon="61.026741">
        <ele>281.9</ele>
        <time>2022-06-29T13:33:31.820Z</time>
    </trkpt>
    <trkpt lat="56.494928" lon="61.026753">
        <ele>282.0</ele>
        <time>2022-06-29T13:33:34.575Z</time>
    </trkpt>
    <trkpt lat="56.494989" lon="61.026781">
        <ele>282.2</ele>
        <time>2022-06-29T13:33:37.704Z</time>
    </trkpt>
    <trkpt lat="56.495045" lon="61.026784">
        <ele>282.3</ele>
        <time>2022-06-29T13:33:40.490Z</time>
    </trkpt>
    <trkpt lat="56.495089" lon="61.026782">
        <ele>282.5</ele>
        <time>2022-06-29T13:33:42.679Z</time>
    </trkpt>
    <trkpt lat="56.495143" lon="61.026778">
        <ele>282.6</ele>
        <time>2022-06-29T13:33:45.367Z</time>
    </trkpt>
    <trkpt lat="56.495188" lon="61.026782">
        <ele>282.8</ele>
        <time>2022-06-29T13:33:47.607Z</time>
    </trkpt>
    <trkpt lat="56.495232" lon="61.02676">
        <ele>282.9</ele>
        <time>2022-06-29T13:33:49.877Z</time>
    </trkpt>
    <trkpt lat="56.495283" lon="61.02674">
        <ele>282.9</ele>
        <time>2022-06-29T13:33:52.472Z</time>
    </trkpt>
    <trkpt lat="56.495335" lon="61.026741">
        <ele>282.9</ele>
        <time>2022-06-29T13:33:55.058Z</time>
    </trkpt>
    <trkpt lat="56.495385" lon="61.026739">
        <ele>282.9</ele>
        <time>2022-06-29T13:33:57.545Z</time>
    </trkpt>
    <trkpt lat="56.495417" lon="61.026736">
        <ele>282.8</ele>
        <time>2022-06-29T13:33:59.138Z</time>
    </trkpt>
    <trkpt lat="56.495444" lon="61.026756">
        <ele>282.7</ele>
        <time>2022-06-29T13:34:00.588Z</time>
    </trkpt>
    <trkpt lat="56.495475" lon="61.026763">
        <ele>282.6</ele>
        <time>2022-06-29T13:34:02.141Z</time>
    </trkpt>
    <trkpt lat="56.495503" lon="61.026768">
        <ele>282.4</ele>
        <time>2022-06-29T13:34:03.540Z</time>
    </trkpt>
    <trkpt lat="56.495535" lon="61.026774">
        <ele>282.2</ele>
        <time>2022-06-29T13:34:05.140Z</time>
    </trkpt>
    <trkpt lat="56.495562" lon="61.026795">
        <ele>282.1</ele>
        <time>2022-06-29T13:34:06.601Z</time>
    </trkpt>
    <trkpt lat="56.495596" lon="61.02682">
        <ele>282.0</ele>
        <time>2022-06-29T13:34:08.426Z</time>
    </trkpt>
    <trkpt lat="56.49565" lon="61.026832">
        <ele>281.9</ele>
        <time>2022-06-29T13:34:11.131Z</time>
    </trkpt>
    <trkpt lat="56.495694" lon="61.026856">
        <ele>281.9</ele>
        <time>2022-06-29T13:34:13.416Z</time>
    </trkpt>
    <trkpt lat="56.495744" lon="61.026888">
        <ele>281.9</ele>
        <time>2022-06-29T13:34:16.053Z</time>
    </trkpt>
    <trkpt lat="56.495804" lon="61.026914">
        <ele>282.0</ele>
        <time>2022-06-29T13:34:19.121Z</time>
    </trkpt>
    <trkpt lat="56.495862" lon="61.026928">
        <ele>282.1</ele>
        <time>2022-06-29T13:34:22.031Z</time>
    </trkpt>
    <trkpt lat="56.495936" lon="61.026949">
        <ele>282.2</ele>
        <time>2022-06-29T13:34:25.756Z</time>
    </trkpt>
    <trkpt lat="56.496" lon="61.026958">
        <ele>282.2</ele>
        <time>2022-06-29T13:34:28.948Z</time>
    </trkpt>
    <trkpt lat="56.49605" lon="61.026962">
        <ele>282.2</ele>
        <time>2022-06-29T13:34:31.437Z</time>
    </trkpt>
    <trkpt lat="56.496097" lon="61.026962">
        <ele>282.2</ele>
        <time>2022-06-29T13:34:33.774Z</time>
    </trkpt>
    <trkpt lat="56.49614" lon="61.026956">
        <ele>282.2</ele>
        <time>2022-06-29T13:34:35.919Z</time>
    </trkpt>
    <trkpt lat="56.496181" lon="61.026961">
        <ele>282.1</ele>
        <time>2022-06-29T13:34:37.962Z</time>
    </trkpt>
    <trkpt lat="56.49622" lon="61.026975">
        <ele>282.1</ele>
        <time>2022-06-29T13:34:39.939Z</time>
    </trkpt>
    <trkpt lat="56.496251" lon="61.026981">
        <ele>282.1</ele>
        <time>2022-06-29T13:34:41.489Z</time>
    </trkpt>
    <trkpt lat="56.496285" lon="61.026989">
        <ele>282.2</ele>
        <time>2022-06-29T13:34:43.194Z</time>
    </trkpt>
    <trkpt lat="56.496325" lon="61.026969">
        <ele>282.2</ele>
        <time>2022-06-29T13:34:45.257Z</time>
    </trkpt>
    <trkpt lat="56.496355" lon="61.026964">
        <ele>282.2</ele>
        <time>2022-06-29T13:34:46.755Z</time>
    </trkpt>
    <trkpt lat="56.496378" lon="61.026954">
        <ele>282.1</ele>
        <time>2022-06-29T13:34:47.931Z</time>
    </trkpt>
    <trkpt lat="56.496396" lon="61.026906">
        <ele>282.0</ele>
        <time>2022-06-29T13:34:49.524Z</time>
    </trkpt>
    <trkpt lat="56.496398" lon="61.026883">
        <ele>281.8</ele>
        <time>2022-06-29T13:34:50.163Z</time>
    </trkpt>
    <trkpt lat="56.496396" lon="61.026864">
        <ele>281.6</ele>
        <time>2022-06-29T13:34:50.694Z</time>
    </trkpt>
    <trkpt lat="56.496396" lon="61.026855">
        <ele>281.3</ele>
        <time>2022-06-29T13:34:50.941Z</time>
    </trkpt>
    <trkpt lat="56.496404" lon="61.026853">
        <ele>281.0</ele>
        <time>2022-06-29T13:34:51.342Z</time>
    </trkpt>
    <trkpt lat="56.49642" lon="61.02687">
        <ele>280.7</ele>
        <time>2022-06-29T13:34:52.264Z</time>
    </trkpt>
    <trkpt lat="56.496442" lon="61.026901">
        <ele>280.3</ele>
        <time>2022-06-29T13:34:53.650Z</time>
    </trkpt>
    <trkpt lat="56.496466" lon="61.026942">
        <ele>280.0</ele>
        <time>2022-06-29T13:34:55.290Z</time>
    </trkpt>
    <trkpt lat="56.496485" lon="61.026977">
        <ele>279.7</ele>
        <time>2022-06-29T13:34:56.637Z</time>
    </trkpt>
    <trkpt lat="56.496504" lon="61.027011">
        <ele>279.5</ele>
        <time>2022-06-29T13:34:57.965Z</time>
    </trkpt>
    <trkpt lat="56.496535" lon="61.027039">
        <ele>279.2</ele>
        <time>2022-06-29T13:34:59.687Z</time>
    </trkpt>
    <trkpt lat="56.496574" lon="61.027052">
        <ele>279.0</ele>
        <time>2022-06-29T13:35:01.659Z</time>
    </trkpt>
    <trkpt lat="56.496622" lon="61.027061">
        <ele>278.8</ele>
        <time>2022-06-29T13:35:04.059Z</time>
    </trkpt>
    <trkpt lat="56.496659" lon="61.02706">
        <ele>278.5</ele>
        <time>2022-06-29T13:35:05.899Z</time>
    </trkpt>
    <trkpt lat="56.4967" lon="61.027084">
        <ele>278.2</ele>
        <time>2022-06-29T13:35:08.042Z</time>
    </trkpt>
    <trkpt lat="56.49673" lon="61.027106">
        <ele>277.9</ele>
        <time>2022-06-29T13:35:09.651Z</time>
    </trkpt>
    <trkpt lat="56.496759" lon="61.027135">
        <ele>277.7</ele>
        <time>2022-06-29T13:35:11.298Z</time>
    </trkpt>
    <trkpt lat="56.496782" lon="61.027155">
        <ele>277.5</ele>
        <time>2022-06-29T13:35:12.566Z</time>
    </trkpt>
    <trkpt lat="56.496801" lon="61.02716">
        <ele>277.3</ele>
        <time>2022-06-29T13:35:13.520Z</time>
    </trkpt>
    <trkpt lat="56.496816" lon="61.027177">
        <ele>277.1</ele>
        <time>2022-06-29T13:35:14.400Z</time>
    </trkpt>
    <trkpt lat="56.496834" lon="61.027194">
        <ele>277.0</ele>
        <time>2022-06-29T13:35:15.409Z</time>
    </trkpt>
    <trkpt lat="56.496856" lon="61.02722">
        <ele>276.9</ele>
        <time>2022-06-29T13:35:16.715Z</time>
    </trkpt>
    <trkpt lat="56.496884" lon="61.027244">
        <ele>276.9</ele>
        <time>2022-06-29T13:35:18.255Z</time>
    </trkpt>
    <trkpt lat="56.496912" lon="61.027266">
        <ele>277.0</ele>
        <time>2022-06-29T13:35:19.773Z</time>
    </trkpt>
    <trkpt lat="56.496946" lon="61.027301">
        <ele>277.1</ele>
        <time>2022-06-29T13:35:21.718Z</time>
    </trkpt>
    <trkpt lat="56.496978" lon="61.027323">
        <ele>277.2</ele>
        <time>2022-06-29T13:35:23.420Z</time>
    </trkpt>
    <trkpt lat="56.497004" lon="61.027343">
        <ele>277.3</ele>
        <time>2022-06-29T13:35:24.824Z</time>
    </trkpt>
    <trkpt lat="56.497031" lon="61.027362">
        <ele>277.4</ele>
        <time>2022-06-29T13:35:26.264Z</time>
    </trkpt>
    <trkpt lat="56.497055" lon="61.027385">
        <ele>277.5</ele>
        <time>2022-06-29T13:35:27.614Z</time>
    </trkpt>
    <trkpt lat="56.497083" lon="61.027417">
        <ele>277.7</ele>
        <time>2022-06-29T13:35:29.260Z</time>
    </trkpt>
    <trkpt lat="56.497121" lon="61.027423">
        <ele>277.8</ele>
        <time>2022-06-29T13:35:31.157Z</time>
    </trkpt>
    <trkpt lat="56.49716" lon="61.027446">
        <ele>277.9</ele>
        <time>2022-06-29T13:35:33.196Z</time>
    </trkpt>
    <trkpt lat="56.497203" lon="61.027473">
        <ele>278.0</ele>
        <time>2022-06-29T13:35:35.459Z</time>
    </trkpt>
    <trkpt lat="56.497243" lon="61.027493">
        <ele>278.1</ele>
        <time>2022-06-29T13:35:37.522Z</time>
    </trkpt>
    <trkpt lat="56.497287" lon="61.027506">
        <ele>278.2</ele>
        <time>2022-06-29T13:35:39.739Z</time>
    </trkpt>
    <trkpt lat="56.497329" lon="61.027532">
        <ele>278.4</ele>
        <time>2022-06-29T13:35:41.946Z</time>
    </trkpt>
    <trkpt lat="56.497368" lon="61.027572">
        <ele>278.7</ele>
        <time>2022-06-29T13:35:44.175Z</time>
    </trkpt>
    <trkpt lat="56.497404" lon="61.027589">
        <ele>279.0</ele>
        <time>2022-06-29T13:35:46.025Z</time>
    </trkpt>
    <trkpt lat="56.497444" lon="61.027609">
        <ele>279.4</ele>
        <time>2022-06-29T13:35:48.088Z</time>
    </trkpt>
    <trkpt lat="56.49749" lon="61.027618">
        <ele>279.9</ele>
        <time>2022-06-29T13:35:50.389Z</time>
    </trkpt>
    <trkpt lat="56.497529" lon="61.027622">
        <ele>280.3</ele>
        <time>2022-06-29T13:35:52.331Z</time>
    </trkpt>
    <trkpt lat="56.497563" lon="61.0276">
        <ele>280.6</ele>
        <time>2022-06-29T13:35:54.126Z</time>
    </trkpt>
    <trkpt lat="56.497598" lon="61.027599">
        <ele>280.9</ele>
        <time>2022-06-29T13:35:55.867Z</time>
    </trkpt>
    <trkpt lat="56.497635" lon="61.027595">
        <ele>281.1</ele>
        <time>2022-06-29T13:35:57.710Z</time>
    </trkpt>
    <trkpt lat="56.497676" lon="61.027592">
        <ele>281.2</ele>
        <time>2022-06-29T13:35:59.750Z</time>
    </trkpt>
    <trkpt lat="56.497717" lon="61.027613">
        <ele>281.4</ele>
        <time>2022-06-29T13:36:01.869Z</time>
    </trkpt>
    <trkpt lat="56.497766" lon="61.027633">
        <ele>281.4</ele>
        <time>2022-06-29T13:36:04.367Z</time>
    </trkpt>
    <trkpt lat="56.497819" lon="61.027631">
        <ele>281.4</ele>
        <time>2022-06-29T13:36:07.003Z</time>
    </trkpt>
    <trkpt lat="56.497864" lon="61.027635">
        <ele>281.4</ele>
        <time>2022-06-29T13:36:09.243Z</time>
    </trkpt>
    <trkpt lat="56.497906" lon="61.027637">
        <ele>281.2</ele>
        <time>2022-06-29T13:36:11.332Z</time>
    </trkpt>
    <trkpt lat="56.497947" lon="61.027642">
        <ele>281.0</ele>
        <time>2022-06-29T13:36:13.375Z</time>
    </trkpt>
    <trkpt lat="56.497987" lon="61.027651">
        <ele>280.8</ele>
        <time>2022-06-29T13:36:15.379Z</time>
    </trkpt>
    <trkpt lat="56.498028" lon="61.027658">
        <ele>280.4</ele>
        <time>2022-06-29T13:36:17.427Z</time>
    </trkpt>
    <trkpt lat="56.498063" lon="61.027654">
        <ele>280.0</ele>
        <time>2022-06-29T13:36:19.171Z</time>
    </trkpt>
    <trkpt lat="56.498092" lon="61.027666">
        <ele>279.6</ele>
        <time>2022-06-29T13:36:20.650Z</time>
    </trkpt>
    <trkpt lat="56.498134" lon="61.027691">
        <ele>279.3</ele>
        <time>2022-06-29T13:36:22.848Z</time>
    </trkpt>
    <trkpt lat="56.498172" lon="61.027724">
        <ele>279.1</ele>
        <time>2022-06-29T13:36:24.943Z</time>
    </trkpt>
    <trkpt lat="56.498212" lon="61.027755">
        <ele>279.1</ele>
        <time>2022-06-29T13:36:27.106Z</time>
    </trkpt>
    <trkpt lat="56.498246" lon="61.027773">
        <ele>279.1</ele>
        <time>2022-06-29T13:36:28.867Z</time>
    </trkpt>
    <trkpt lat="56.498304" lon="61.027828">
        <ele>279.4</ele>
        <time>2022-06-29T13:36:32.123Z</time>
    </trkpt>
    <trkpt lat="56.498358" lon="61.027828">
        <ele>279.8</ele>
        <time>2022-06-29T13:36:34.808Z</time>
    </trkpt>
    <trkpt lat="56.498411" lon="61.027841">
        <ele>280.2</ele>
        <time>2022-06-29T13:36:37.468Z</time>
    </trkpt>
    <trkpt lat="56.498456" lon="61.027832">
        <ele>280.5</ele>
        <time>2022-06-29T13:36:39.719Z</time>
    </trkpt>
    <trkpt lat="56.49852" lon="61.027812">
        <ele>280.5</ele>
        <time>2022-06-29T13:36:42.949Z</time>
    </trkpt>
    <trkpt lat="56.498577" lon="61.027795">
        <ele>280.6</ele>
        <time>2022-06-29T13:36:45.822Z</time>
    </trkpt>
    <trkpt lat="56.498637" lon="61.027783">
        <ele>280.6</ele>
        <time>2022-06-29T13:36:48.824Z</time>
    </trkpt>
    <trkpt lat="56.498695" lon="61.027774">
        <ele>280.6</ele>
        <time>2022-06-29T13:36:51.719Z</time>
    </trkpt>
    <trkpt lat="56.498757" lon="61.027771">
        <ele>280.6</ele>
        <time>2022-06-29T13:36:54.803Z</time>
    </trkpt>
    <trkpt lat="56.49881" lon="61.027759">
        <ele>280.6</ele>
        <time>2022-06-29T13:36:57.459Z</time>
    </trkpt>
    <trkpt lat="56.49886" lon="61.027765">
        <ele>280.6</ele>
        <time>2022-06-29T13:36:59.951Z</time>
    </trkpt>
    <trkpt lat="56.498909" lon="61.02777">
        <ele>280.6</ele>
        <time>2022-06-29T13:37:02.392Z</time>
    </trkpt>
    <trkpt lat="56.498958" lon="61.02777">
        <ele>280.6</ele>
        <time>2022-06-29T13:37:04.829Z</time>
    </trkpt>
    <trkpt lat="56.498997" lon="61.027757">
        <ele>280.5</ele>
        <time>2022-06-29T13:37:06.801Z</time>
    </trkpt>
    <trkpt lat="56.499034" lon="61.027757">
        <ele>280.2</ele>
        <time>2022-06-29T13:37:08.641Z</time>
    </trkpt>
    <trkpt lat="56.499076" lon="61.027788">
        <ele>279.9</ele>
        <time>2022-06-29T13:37:10.896Z</time>
    </trkpt>
    <trkpt lat="56.499115" lon="61.027812">
        <ele>279.7</ele>
        <time>2022-06-29T13:37:12.944Z</time>
    </trkpt>
    <trkpt lat="56.499146" lon="61.027837">
        <ele>279.4</ele>
        <time>2022-06-29T13:37:14.631Z</time>
    </trkpt>
    <trkpt lat="56.499171" lon="61.027854">
        <ele>278.2</ele>
        <time>2022-06-29T13:37:15.959Z</time>
    </trkpt>
    <trkpt lat="56.499212" lon="61.02789">
        <ele>276.9</ele>
        <time>2022-06-29T13:37:18.225Z</time>
    </trkpt>
    <trkpt lat="56.499256" lon="61.027929">
        <ele>275.9</ele>
        <time>2022-06-29T13:37:20.661Z</time>
    </trkpt>
    <trkpt lat="56.49929" lon="61.027961">
        <ele>275.7</ele>
        <time>2022-06-29T13:37:22.566Z</time>
    </trkpt>
    <trkpt lat="56.499317" lon="61.027963">
        <ele>275.3</ele>
        <time>2022-06-29T13:37:23.910Z</time>
    </trkpt>
    <trkpt lat="56.499339" lon="61.027972">
        <ele>274.7</ele>
        <time>2022-06-29T13:37:25.031Z</time>
    </trkpt>
    <trkpt lat="56.499365" lon="61.02799">
        <ele>274.3</ele>
        <time>2022-06-29T13:37:26.415Z</time>
    </trkpt>
    <trkpt lat="56.499392" lon="61.027998">
        <ele>273.7</ele>
        <time>2022-06-29T13:37:27.775Z</time>
    </trkpt>
    <trkpt lat="56.499421" lon="61.02801">
        <ele>272.5</ele>
        <time>2022-06-29T13:37:29.254Z</time>
    </trkpt>
    <trkpt lat="56.499463" lon="61.028043">
        <ele>272.0</ele>
        <time>2022-06-29T13:37:31.530Z</time>
    </trkpt>
    <trkpt lat="56.499511" lon="61.028071">
        <ele>271.9</ele>
        <time>2022-06-29T13:37:34.038Z</time>
    </trkpt>
    <trkpt lat="56.499552" lon="61.028094">
        <ele>271.7</ele>
        <time>2022-06-29T13:37:36.172Z</time>
    </trkpt>
    <trkpt lat="56.499596" lon="61.028118">
        <ele>271.2</ele>
        <time>2022-06-29T13:37:38.457Z</time>
    </trkpt>
    <trkpt lat="56.499645" lon="61.028161">
        <ele>270.8</ele>
        <time>2022-06-29T13:37:41.165Z</time>
    </trkpt>
    <trkpt lat="56.499691" lon="61.028202">
        <ele>270.4</ele>
        <time>2022-06-29T13:37:43.714Z</time>
    </trkpt>
    <trkpt lat="56.499737" lon="61.02823">
        <ele>270.0</ele>
        <time>2022-06-29T13:37:46.127Z</time>
    </trkpt>
    <trkpt lat="56.499785" lon="61.028262">
        <ele>270.0</ele>
        <time>2022-06-29T13:37:48.670Z</time>
    </trkpt>
    <trkpt lat="56.499831" lon="61.028291">
        <ele>270.2</ele>
        <time>2022-06-29T13:37:51.092Z</time>
    </trkpt>
    <trkpt lat="56.499886" lon="61.02833">
        <ele>270.3</ele>
        <time>2022-06-29T13:37:54.029Z</time>
    </trkpt>
    <trkpt lat="56.499942" lon="61.028358">
        <ele>270.5</ele>
        <time>2022-06-29T13:37:56.918Z</time>
    </trkpt>
    <trkpt lat="56.499985" lon="61.028367">
        <ele>270.2</ele>
        <time>2022-06-29T13:37:59.070Z</time>
    </trkpt>
    <trkpt lat="56.500011" lon="61.02839">
        <ele>269.7</ele>
        <time>2022-06-29T13:38:00.509Z</time>
    </trkpt>
    <trkpt lat="56.500029" lon="61.028416">
        <ele>269.4</ele>
        <time>2022-06-29T13:38:01.653Z</time>
    </trkpt>
    <trkpt lat="56.500047" lon="61.028436">
        <ele>269.1</ele>
        <time>2022-06-29T13:38:02.703Z</time>
    </trkpt>
    <trkpt lat="56.500065" lon="61.028445">
        <ele>268.8</ele>
        <time>2022-06-29T13:38:03.631Z</time>
    </trkpt>
    <trkpt lat="56.500084" lon="61.028474">
        <ele>268.7</ele>
        <time>2022-06-29T13:38:04.866Z</time>
    </trkpt>
    <trkpt lat="56.500093" lon="61.028481">
        <ele>268.7</ele>
        <time>2022-06-29T13:38:05.353Z</time>
    </trkpt>
    <trkpt lat="56.500101" lon="61.02848">
        <ele>268.7</ele>
        <time>2022-06-29T13:38:05.751Z</time>
    </trkpt>
    <trkpt lat="56.500101" lon="61.028479">
        <ele>268.7</ele>
        <time>2022-06-29T13:38:05.778Z</time>
    </trkpt>
    <trkpt lat="56.500102" lon="61.028479">
        <ele>268.6</ele>
        <time>2022-06-29T13:38:05.827Z</time>
    </trkpt>
    <trkpt lat="56.500103" lon="61.02848">
        <ele>268.1</ele>
        <time>2022-06-29T13:38:05.883Z</time>
    </trkpt>
    <trkpt lat="56.500106" lon="61.02847">
        <ele>268.0</ele>
        <time>2022-06-29T13:38:06.195Z</time>
    </trkpt>
    <trkpt lat="56.50011" lon="61.028482">
        <ele>267.9</ele>
        <time>2022-06-29T13:38:06.579Z</time>
    </trkpt>
    <trkpt lat="56.500102" lon="61.028493">
        <ele>267.8</ele>
        <time>2022-06-29T13:38:07.078Z</time>
    </trkpt>
    <trkpt lat="56.500107" lon="61.02853">
        <ele>267.8</ele>
        <time>2022-06-29T13:38:08.123Z</time>
    </trkpt>
    <trkpt lat="56.500109" lon="61.028536">
        <ele>267.7</ele>
        <time>2022-06-29T13:38:08.315Z</time>
    </trkpt>
    <trkpt lat="56.500115" lon="61.028549">
        <ele>267.6</ele>
        <time>2022-06-29T13:38:08.780Z</time>
    </trkpt>
    <trkpt lat="56.50013" lon="61.028562">
        <ele>267.6</ele>
        <time>2022-06-29T13:38:09.607Z</time>
    </trkpt>
    <trkpt lat="56.500147" lon="61.028572">
        <ele>267.5</ele>
        <time>2022-06-29T13:38:10.495Z</time>
    </trkpt>
    <trkpt lat="56.500171" lon="61.028587">
        <ele>267.4</ele>
        <time>2022-06-29T13:38:11.757Z</time>
    </trkpt>
    <trkpt lat="56.500185" lon="61.028597">
        <ele>267.4</ele>
        <time>2022-06-29T13:38:12.505Z</time>
    </trkpt>
    <trkpt lat="56.500195" lon="61.028606">
        <ele>267.3</ele>
        <time>2022-06-29T13:38:13.060Z</time>
    </trkpt>
    <trkpt lat="56.500216" lon="61.028612">
        <ele>267.2</ele>
        <time>2022-06-29T13:38:14.117Z</time>
    </trkpt>
    <trkpt lat="56.500247" lon="61.028634">
        <ele>267.1</ele>
        <time>2022-06-29T13:38:15.772Z</time>
    </trkpt>
    <trkpt lat="56.500289" lon="61.02867">
        <ele>267.0</ele>
        <time>2022-06-29T13:38:18.082Z</time>
    </trkpt>
    <trkpt lat="56.500329" lon="61.028715">
        <ele>266.9</ele>
        <time>2022-06-29T13:38:20.423Z</time>
    </trkpt>
    <trkpt lat="56.50036" lon="61.028757">
        <ele>266.8</ele>
        <time>2022-06-29T13:38:22.348Z</time>
    </trkpt>
    <trkpt lat="56.500387" lon="61.028777">
        <ele>266.8</ele>
        <time>2022-06-29T13:38:23.798Z</time>
    </trkpt>
    <trkpt lat="56.500413" lon="61.028792">
        <ele>266.7</ele>
        <time>2022-06-29T13:38:25.155Z</time>
    </trkpt>
    <trkpt lat="56.500433" lon="61.028792">
        <ele>266.6</ele>
        <time>2022-06-29T13:38:26.149Z</time>
    </trkpt>
    <trkpt lat="56.50045" lon="61.028824">
        <ele>266.6</ele>
        <time>2022-06-29T13:38:27.368Z</time>
    </trkpt>
    <trkpt lat="56.500493" lon="61.028858">
        <ele>266.5</ele>
        <time>2022-06-29T13:38:29.701Z</time>
    </trkpt>
    <trkpt lat="56.500514" lon="61.028898">
        <ele>266.4</ele>
        <time>2022-06-29T13:38:31.216Z</time>
    </trkpt>
    <trkpt lat="56.500545" lon="61.028928">
        <ele>266.3</ele>
        <time>2022-06-29T13:38:32.964Z</time>
    </trkpt>
    <trkpt lat="56.500571" lon="61.028962">
        <ele>266.1</ele>
        <time>2022-06-29T13:38:34.558Z</time>
    </trkpt>
    <trkpt lat="56.500588" lon="61.029001">
        <ele>265.8</ele>
        <time>2022-06-29T13:38:35.922Z</time>
    </trkpt>
    <trkpt lat="56.500611" lon="61.02901">
        <ele>265.6</ele>
        <time>2022-06-29T13:38:37.092Z</time>
    </trkpt>
    <trkpt lat="56.500632" lon="61.029024">
        <ele>265.4</ele>
        <time>2022-06-29T13:38:38.204Z</time>
    </trkpt>
    <trkpt lat="56.500655" lon="61.02903">
        <ele>265.2</ele>
        <time>2022-06-29T13:38:39.359Z</time>
    </trkpt>
    <trkpt lat="56.500667" lon="61.02905">
        <ele>264.9</ele>
        <time>2022-06-29T13:38:40.169Z</time>
    </trkpt>
    <trkpt lat="56.500671" lon="61.029062">
        <ele>264.6</ele>
        <time>2022-06-29T13:38:40.553Z</time>
    </trkpt>
    <trkpt lat="56.500687" lon="61.02908">
        <ele>264.3</ele>
        <time>2022-06-29T13:38:41.489Z</time>
    </trkpt>
    <trkpt lat="56.500698" lon="61.029111">
        <ele>264.0</ele>
        <time>2022-06-29T13:38:42.500Z</time>
    </trkpt>
    <trkpt lat="56.500723" lon="61.029141">
        <ele>263.6</ele>
        <time>2022-06-29T13:38:43.991Z</time>
    </trkpt>
    <trkpt lat="56.500753" lon="61.029163">
        <ele>263.3</ele>
        <time>2022-06-29T13:38:45.600Z</time>
    </trkpt>
    <trkpt lat="56.500787" lon="61.029176">
        <ele>262.9</ele>
        <time>2022-06-29T13:38:47.328Z</time>
    </trkpt>
    <trkpt lat="56.500826" lon="61.029179">
        <ele>262.7</ele>
        <time>2022-06-29T13:38:49.269Z</time>
    </trkpt>
    <trkpt lat="56.500873" lon="61.029172">
        <ele>262.4</ele>
        <time>2022-06-29T13:38:51.614Z</time>
    </trkpt>
    <trkpt lat="56.500933" lon="61.029152">
        <ele>262.3</ele>
        <time>2022-06-29T13:38:54.648Z</time>
    </trkpt>
    <trkpt lat="56.500982" lon="61.029128">
        <ele>262.2</ele>
        <time>2022-06-29T13:38:57.172Z</time>
    </trkpt>
    <trkpt lat="56.501034" lon="61.029089">
        <ele>262.1</ele>
        <time>2022-06-29T13:38:59.971Z</time>
    </trkpt>
    <trkpt lat="56.501081" lon="61.02907">
        <ele>262.1</ele>
        <time>2022-06-29T13:39:02.366Z</time>
    </trkpt>
    <trkpt lat="56.501125" lon="61.029041">
        <ele>262.1</ele>
        <time>2022-06-29T13:39:04.694Z</time>
    </trkpt>
    <trkpt lat="56.501167" lon="61.029005">
        <ele>262.2</ele>
        <time>2022-06-29T13:39:07.004Z</time>
    </trkpt>
    <trkpt lat="56.501208" lon="61.028977">
        <ele>262.2</ele>
        <time>2022-06-29T13:39:09.183Z</time>
    </trkpt>
    <trkpt lat="56.50126" lon="61.028937">
        <ele>262.3</ele>
        <time>2022-06-29T13:39:11.992Z</time>
    </trkpt>
    <trkpt lat="56.501324" lon="61.02888">
        <ele>262.3</ele>
        <time>2022-06-29T13:39:15.539Z</time>
    </trkpt>
    <trkpt lat="56.501381" lon="61.028819">
        <ele>262.3</ele>
        <time>2022-06-29T13:39:18.831Z</time>
    </trkpt>
    <trkpt lat="56.501447" lon="61.028739">
        <ele>262.3</ele>
        <time>2022-06-29T13:39:22.780Z</time>
    </trkpt>
    <trkpt lat="56.501501" lon="61.028686">
        <ele>262.4</ele>
        <time>2022-06-29T13:39:25.834Z</time>
    </trkpt>
    <trkpt lat="56.501548" lon="61.02864">
        <ele>262.4</ele>
        <time>2022-06-29T13:39:28.490Z</time>
    </trkpt>
    <trkpt lat="56.501603" lon="61.028614">
        <ele>262.6</ele>
        <time>2022-06-29T13:39:31.317Z</time>
    </trkpt>
    <trkpt lat="56.501652" lon="61.028572">
        <ele>262.7</ele>
        <time>2022-06-29T13:39:34.013Z</time>
    </trkpt>
    <trkpt lat="56.501698" lon="61.028532">
        <ele>262.9</ele>
        <time>2022-06-29T13:39:36.550Z</time>
    </trkpt>
    <trkpt lat="56.50174" lon="61.028494">
        <ele>263.1</ele>
        <time>2022-06-29T13:39:38.884Z</time>
    </trkpt>
    <trkpt lat="56.501779" lon="61.028465">
        <ele>263.3</ele>
        <time>2022-06-29T13:39:40.980Z</time>
    </trkpt>
    <trkpt lat="56.501824" lon="61.028433">
        <ele>263.5</ele>
        <time>2022-06-29T13:39:43.384Z</time>
    </trkpt>
    <trkpt lat="56.501881" lon="61.028379">
        <ele>263.7</ele>
        <time>2022-06-29T13:39:46.583Z</time>
    </trkpt>
    <trkpt lat="56.501915" lon="61.02832">
        <ele>263.9</ele>
        <time>2022-06-29T13:39:48.924Z</time>
    </trkpt>
    <trkpt lat="56.501953" lon="61.028233">
        <ele>264.0</ele>
        <time>2022-06-29T13:39:51.969Z</time>
    </trkpt>
    <trkpt lat="56.501999" lon="61.028174">
        <ele>264.1</ele>
        <time>2022-06-29T13:39:54.772Z</time>
    </trkpt>
    <trkpt lat="56.502047" lon="61.028147">
        <ele>264.3</ele>
        <time>2022-06-29T13:39:57.271Z</time>
    </trkpt>
    <trkpt lat="56.502107" lon="61.028139">
        <ele>264.6</ele>
        <time>2022-06-29T13:40:00.263Z</time>
    </trkpt>
    <trkpt lat="56.502165" lon="61.02814">
        <ele>264.9</ele>
        <time>2022-06-29T13:40:03.147Z</time>
    </trkpt>
    <trkpt lat="56.502221" lon="61.028145">
        <ele>265.3</ele>
        <time>2022-06-29T13:40:05.935Z</time>
    </trkpt>
    <trkpt lat="56.502278" lon="61.02814">
        <ele>265.6</ele>
        <time>2022-06-29T13:40:08.773Z</time>
    </trkpt>
    <trkpt lat="56.502334" lon="61.028122">
        <ele>265.8</ele>
        <time>2022-06-29T13:40:11.601Z</time>
    </trkpt>
    <trkpt lat="56.50239" lon="61.028096">
        <ele>265.9</ele>
        <time>2022-06-29T13:40:14.476Z</time>
    </trkpt>
    <trkpt lat="56.502445" lon="61.028095">
        <ele>266.0</ele>
        <time>2022-06-29T13:40:17.211Z</time>
    </trkpt>
    <trkpt lat="56.502499" lon="61.028119">
        <ele>265.9</ele>
        <time>2022-06-29T13:40:19.976Z</time>
    </trkpt>
    <trkpt lat="56.502553" lon="61.028089">
        <ele>265.9</ele>
        <time>2022-06-29T13:40:22.785Z</time>
    </trkpt>
    <trkpt lat="56.50262" lon="61.028048">
        <ele>265.9</ele>
        <time>2022-06-29T13:40:26.302Z</time>
    </trkpt>
    <trkpt lat="56.502681" lon="61.028029">
        <ele>265.9</ele>
        <time>2022-06-29T13:40:29.380Z</time>
    </trkpt>
    <trkpt lat="56.502737" lon="61.028002">
        <ele>266.0</ele>
        <time>2022-06-29T13:40:32.262Z</time>
    </trkpt>
    <trkpt lat="56.502792" lon="61.027978">
        <ele>266.0</ele>
        <time>2022-06-29T13:40:35.075Z</time>
    </trkpt>
    <trkpt lat="56.502843" lon="61.027954">
        <ele>266.1</ele>
        <time>2022-06-29T13:40:37.695Z</time>
    </trkpt>
    <trkpt lat="56.502893" lon="61.027942">
        <ele>266.2</ele>
        <time>2022-06-29T13:40:40.203Z</time>
    </trkpt>
    <trkpt lat="56.502936" lon="61.027935">
        <ele>266.2</ele>
        <time>2022-06-29T13:40:42.350Z</time>
    </trkpt>
    <trkpt lat="56.502973" lon="61.027926">
        <ele>266.3</ele>
        <time>2022-06-29T13:40:44.206Z</time>
    </trkpt>
    <trkpt lat="56.503011" lon="61.027917">
        <ele>266.3</ele>
        <time>2022-06-29T13:40:46.112Z</time>
    </trkpt>
    <trkpt lat="56.503062" lon="61.02792">
        <ele>266.4</ele>
        <time>2022-06-29T13:40:48.649Z</time>
    </trkpt>
    <trkpt lat="56.503116" lon="61.027917">
        <ele>266.5</ele>
        <time>2022-06-29T13:40:51.336Z</time>
    </trkpt>
    <trkpt lat="56.503176" lon="61.027916">
        <ele>266.6</ele>
        <time>2022-06-29T13:40:54.320Z</time>
    </trkpt>
    <trkpt lat="56.503236" lon="61.027899">
        <ele>266.8</ele>
        <time>2022-06-29T13:40:57.340Z</time>
    </trkpt>
    <trkpt lat="56.50329" lon="61.027898">
        <ele>267.0</ele>
        <time>2022-06-29T13:41:00.026Z</time>
    </trkpt>
    <trkpt lat="56.503346" lon="61.027866">
        <ele>267.3</ele>
        <time>2022-06-29T13:41:02.946Z</time>
    </trkpt>
    <trkpt lat="56.503393" lon="61.027825">
        <ele>267.5</ele>
        <time>2022-06-29T13:41:05.540Z</time>
    </trkpt>
    <trkpt lat="56.503446" lon="61.027802">
        <ele>267.7</ele>
        <time>2022-06-29T13:41:08.250Z</time>
    </trkpt>
    <trkpt lat="56.503493" lon="61.027817">
        <ele>267.9</ele>
        <time>2022-06-29T13:41:10.623Z</time>
    </trkpt>
    <trkpt lat="56.503529" lon="61.027813">
        <ele>268.0</ele>
        <time>2022-06-29T13:41:12.416Z</time>
    </trkpt>
    <trkpt lat="56.503574" lon="61.027808">
        <ele>268.1</ele>
        <time>2022-06-29T13:41:14.658Z</time>
    </trkpt>
    <trkpt lat="56.503631" lon="61.027809">
        <ele>268.1</ele>
        <time>2022-06-29T13:41:17.493Z</time>
    </trkpt>
    <trkpt lat="56.503679" lon="61.027815">
        <ele>268.2</ele>
        <time>2022-06-29T13:41:19.886Z</time>
    </trkpt>
    <trkpt lat="56.503727" lon="61.027814">
        <ele>268.2</ele>
        <time>2022-06-29T13:41:22.273Z</time>
    </trkpt>
    <trkpt lat="56.503767" lon="61.027838">
        <ele>268.2</ele>
        <time>2022-06-29T13:41:24.368Z</time>
    </trkpt>
    <trkpt lat="56.503803" lon="61.027849">
        <ele>268.3</ele>
        <time>2022-06-29T13:41:26.183Z</time>
    </trkpt>
    <trkpt lat="56.503846" lon="61.02787">
        <ele>268.3</ele>
        <time>2022-06-29T13:41:28.398Z</time>
    </trkpt>
    <trkpt lat="56.503884" lon="61.027872">
        <ele>268.3</ele>
        <time>2022-06-29T13:41:30.288Z</time>
    </trkpt>
    <trkpt lat="56.503922" lon="61.027866">
        <ele>268.2</ele>
        <time>2022-06-29T13:41:32.185Z</time>
    </trkpt>
    <trkpt lat="56.50396" lon="61.027859">
        <ele>268.2</ele>
        <time>2022-06-29T13:41:34.084Z</time>
    </trkpt>
    <trkpt lat="56.504004" lon="61.027857">
        <ele>268.2</ele>
        <time>2022-06-29T13:41:36.273Z</time>
    </trkpt>
    <trkpt lat="56.504046" lon="61.027855">
        <ele>268.1</ele>
        <time>2022-06-29T13:41:38.362Z</time>
    </trkpt>
    <trkpt lat="56.504081" lon="61.027851">
        <ele>268.0</ele>
        <time>2022-06-29T13:41:40.106Z</time>
    </trkpt>
    <trkpt lat="56.504119" lon="61.027863">
        <ele>267.9</ele>
        <time>2022-06-29T13:41:42.024Z</time>
    </trkpt>
    <trkpt lat="56.504154" lon="61.027876">
        <ele>267.8</ele>
        <time>2022-06-29T13:41:43.801Z</time>
    </trkpt>
    <trkpt lat="56.504201" lon="61.027897">
        <ele>267.7</ele>
        <time>2022-06-29T13:41:46.208Z</time>
    </trkpt>
    <trkpt lat="56.504247" lon="61.027911">
        <ele>267.6</ele>
        <time>2022-06-29T13:41:48.528Z</time>
    </trkpt>
    <trkpt lat="56.504296" lon="61.027923">
        <ele>267.5</ele>
        <time>2022-06-29T13:41:50.987Z</time>
    </trkpt>
    <trkpt lat="56.504337" lon="61.027933">
        <ele>267.4</ele>
        <time>2022-06-29T13:41:53.044Z</time>
    </trkpt>
    <trkpt lat="56.504381" lon="61.027945">
        <ele>267.4</ele>
        <time>2022-06-29T13:41:55.257Z</time>
    </trkpt>
    <trkpt lat="56.504424" lon="61.027949">
        <ele>267.4</ele>
        <time>2022-06-29T13:41:57.398Z</time>
    </trkpt>
    <trkpt lat="56.50447" lon="61.027963">
        <ele>267.4</ele>
        <time>2022-06-29T13:41:59.718Z</time>
    </trkpt>
    <trkpt lat="56.504532" lon="61.027979">
        <ele>267.5</ele>
        <time>2022-06-29T13:42:02.832Z</time>
    </trkpt>
    <trkpt lat="56.504588" lon="61.027998">
        <ele>267.6</ele>
        <time>2022-06-29T13:42:05.665Z</time>
    </trkpt>
    <trkpt lat="56.50463" lon="61.028012">
        <ele>267.7</ele>
        <time>2022-06-29T13:42:07.789Z</time>
    </trkpt>
    <trkpt lat="56.504682" lon="61.028023">
        <ele>267.8</ele>
        <time>2022-06-29T13:42:10.392Z</time>
    </trkpt>
    <trkpt lat="56.504729" lon="61.028032">
        <ele>267.9</ele>
        <time>2022-06-29T13:42:12.742Z</time>
    </trkpt>
    <trkpt lat="56.504779" lon="61.028038">
        <ele>268.0</ele>
        <time>2022-06-29T13:42:15.234Z</time>
    </trkpt>
    <trkpt lat="56.504837" lon="61.028057">
        <ele>268.0</ele>
        <time>2022-06-29T13:42:18.165Z</time>
    </trkpt>
    <trkpt lat="56.504896" lon="61.028065">
        <ele>267.9</ele>
        <time>2022-06-29T13:42:21.107Z</time>
    </trkpt>
    <trkpt lat="56.504948" lon="61.028085">
        <ele>267.9</ele>
        <time>2022-06-29T13:42:23.751Z</time>
    </trkpt>
    <trkpt lat="56.505003" lon="61.028143">
        <ele>267.8</ele>
        <time>2022-06-29T13:42:26.916Z</time>
    </trkpt>
    <trkpt lat="56.505056" lon="61.028171">
        <ele>267.7</ele>
        <time>2022-06-29T13:42:29.661Z</time>
    </trkpt>
    <trkpt lat="56.505096" lon="61.028163">
        <ele>267.7</ele>
        <time>2022-06-29T13:42:31.662Z</time>
    </trkpt>
    <trkpt lat="56.505147" lon="61.028209">
        <ele>267.7</ele>
        <time>2022-06-29T13:42:34.495Z</time>
    </trkpt>
    <trkpt lat="56.505196" lon="61.028225">
        <ele>267.8</ele>
        <time>2022-06-29T13:42:36.971Z</time>
    </trkpt>
    <trkpt lat="56.505237" lon="61.028244">
        <ele>267.8</ele>
        <time>2022-06-29T13:42:39.075Z</time>
    </trkpt>
    <trkpt lat="56.505278" lon="61.028263">
        <ele>268.0</ele>
        <time>2022-06-29T13:42:41.179Z</time>
    </trkpt>
    <trkpt lat="56.505318" lon="61.028265">
        <ele>268.0</ele>
        <time>2022-06-29T13:42:43.169Z</time>
    </trkpt>
    <trkpt lat="56.505355" lon="61.028244">
        <ele>268.1</ele>
        <time>2022-06-29T13:42:45.097Z</time>
    </trkpt>
    <trkpt lat="56.505388" lon="61.028243">
        <ele>268.2</ele>
        <time>2022-06-29T13:42:46.738Z</time>
    </trkpt>
    <trkpt lat="56.505419" lon="61.028242">
        <ele>268.2</ele>
        <time>2022-06-29T13:42:48.280Z</time>
    </trkpt>
    <trkpt lat="56.505454" lon="61.028255">
        <ele>268.2</ele>
        <time>2022-06-29T13:42:50.057Z</time>
    </trkpt>
    <trkpt lat="56.505501" lon="61.02828">
        <ele>268.2</ele>
        <time>2022-06-29T13:42:52.493Z</time>
    </trkpt>
    <trkpt lat="56.505538" lon="61.028299">
        <ele>268.1</ele>
        <time>2022-06-29T13:42:54.405Z</time>
    </trkpt>
    <trkpt lat="56.505578" lon="61.028314">
        <ele>268.1</ele>
        <time>2022-06-29T13:42:56.436Z</time>
    </trkpt>
    <trkpt lat="56.505618" lon="61.028318">
        <ele>268.0</ele>
        <time>2022-06-29T13:42:58.428Z</time>
    </trkpt>
    <trkpt lat="56.505652" lon="61.028333">
        <ele>267.9</ele>
        <time>2022-06-29T13:43:00.168Z</time>
    </trkpt>
    <trkpt lat="56.505681" lon="61.028359">
        <ele>267.8</ele>
        <time>2022-06-29T13:43:01.777Z</time>
    </trkpt>
    <trkpt lat="56.505704" lon="61.028376">
        <ele>267.7</ele>
        <time>2022-06-29T13:43:03.012Z</time>
    </trkpt>
    <trkpt lat="56.505737" lon="61.028385">
        <ele>267.7</ele>
        <time>2022-06-29T13:43:04.671Z</time>
    </trkpt>
    <trkpt lat="56.505774" lon="61.028397">
        <ele>267.6</ele>
        <time>2022-06-29T13:43:06.540Z</time>
    </trkpt>
    <trkpt lat="56.505806" lon="61.028393">
        <ele>267.5</ele>
        <time>2022-06-29T13:43:08.135Z</time>
    </trkpt>
    <trkpt lat="56.505835" lon="61.028396">
        <ele>267.4</ele>
        <time>2022-06-29T13:43:09.579Z</time>
    </trkpt>
    <trkpt lat="56.505861" lon="61.028408">
        <ele>267.3</ele>
        <time>2022-06-29T13:43:10.913Z</time>
    </trkpt>
    <trkpt lat="56.505884" lon="61.028414">
        <ele>267.3</ele>
        <time>2022-06-29T13:43:12.068Z</time>
    </trkpt>
    <trkpt lat="56.505894" lon="61.028412">
        <ele>267.2</ele>
        <time>2022-06-29T13:43:12.568Z</time>
    </trkpt>
    <trkpt lat="56.505917" lon="61.02841">
        <ele>267.1</ele>
        <time>2022-06-29T13:43:13.713Z</time>
    </trkpt>
    <trkpt lat="56.505938" lon="61.028413">
        <ele>267.1</ele>
        <time>2022-06-29T13:43:14.760Z</time>
    </trkpt>
    <trkpt lat="56.505967" lon="61.02841">
        <ele>267.1</ele>
        <time>2022-06-29T13:43:16.204Z</time>
    </trkpt>
    <trkpt lat="56.506003" lon="61.028404">
        <ele>267.0</ele>
        <time>2022-06-29T13:43:18.002Z</time>
    </trkpt>
    <trkpt lat="56.506047" lon="61.028397">
        <ele>267.1</ele>
        <time>2022-06-29T13:43:20.198Z</time>
    </trkpt>
    <trkpt lat="56.506088" lon="61.028401">
        <ele>267.1</ele>
        <time>2022-06-29T13:43:22.240Z</time>
    </trkpt>
    <trkpt lat="56.50613" lon="61.028385">
        <ele>267.2</ele>
        <time>2022-06-29T13:43:24.374Z</time>
    </trkpt>
    <trkpt lat="56.506166" lon="61.028346">
        <ele>267.4</ele>
        <time>2022-06-29T13:43:26.460Z</time>
    </trkpt>
    <trkpt lat="56.506197" lon="61.0283">
        <ele>267.6</ele>
        <time>2022-06-29T13:43:28.452Z</time>
    </trkpt>
    <trkpt lat="56.506232" lon="61.028244">
        <ele>267.8</ele>
        <time>2022-06-29T13:43:30.774Z</time>
    </trkpt>
    <trkpt lat="56.50626" lon="61.028179">
        <ele>268.0</ele>
        <time>2022-06-29T13:43:33.037Z</time>
    </trkpt>
    <trkpt lat="56.506288" lon="61.028119">
        <ele>268.1</ele>
        <time>2022-06-29T13:43:35.193Z</time>
    </trkpt>
    <trkpt lat="56.506317" lon="61.02807">
        <ele>268.3</ele>
        <time>2022-06-29T13:43:37.165Z</time>
    </trkpt>
    <trkpt lat="56.506354" lon="61.02804">
        <ele>268.5</ele>
        <time>2022-06-29T13:43:39.181Z</time>
    </trkpt>
    <trkpt lat="56.506395" lon="61.027991">
        <ele>268.6</ele>
        <time>2022-06-29T13:43:41.623Z</time>
    </trkpt>
    <trkpt lat="56.506445" lon="61.02792">
        <ele>268.7</ele>
        <time>2022-06-29T13:43:44.782Z</time>
    </trkpt>
    <trkpt lat="56.50649" lon="61.027889">
        <ele>268.8</ele>
        <time>2022-06-29T13:43:47.176Z</time>
    </trkpt>
    <trkpt lat="56.506542" lon="61.027848">
        <ele>268.7</ele>
        <time>2022-06-29T13:43:49.996Z</time>
    </trkpt>
    <trkpt lat="56.506585" lon="61.027824">
        <ele>268.7</ele>
        <time>2022-06-29T13:43:52.233Z</time>
    </trkpt>
    <trkpt lat="56.506632" lon="61.027804">
        <ele>268.5</ele>
        <time>2022-06-29T13:43:54.634Z</time>
    </trkpt>
    <trkpt lat="56.506677" lon="61.027793">
        <ele>268.4</ele>
        <time>2022-06-29T13:43:56.892Z</time>
    </trkpt>
    <trkpt lat="56.506735" lon="61.027798">
        <ele>268.3</ele>
        <time>2022-06-29T13:43:59.780Z</time>
    </trkpt>
    <trkpt lat="56.506796" lon="61.027806">
        <ele>268.3</ele>
        <time>2022-06-29T13:44:02.821Z</time>
    </trkpt>
    <trkpt lat="56.506859" lon="61.027813">
        <ele>268.4</ele>
        <time>2022-06-29T13:44:05.960Z</time>
    </trkpt>
    <trkpt lat="56.506919" lon="61.027834">
        <ele>268.7</ele>
        <time>2022-06-29T13:44:08.999Z</time>
    </trkpt>
    <trkpt lat="56.50698" lon="61.02784">
        <ele>268.9</ele>
        <time>2022-06-29T13:44:12.037Z</time>
    </trkpt>
    <trkpt lat="56.507039" lon="61.027861">
        <ele>269.2</ele>
        <time>2022-06-29T13:44:15.027Z</time>
    </trkpt>
    <trkpt lat="56.507095" lon="61.02786">
        <ele>269.5</ele>
        <time>2022-06-29T13:44:17.812Z</time>
    </trkpt>
    <trkpt lat="56.507155" lon="61.027888">
        <ele>269.8</ele>
        <time>2022-06-29T13:44:20.893Z</time>
    </trkpt>
    <trkpt lat="56.507217" lon="61.027886">
        <ele>270.1</ele>
        <time>2022-06-29T13:44:23.977Z</time>
    </trkpt>
    <trkpt lat="56.507278" lon="61.027894">
        <ele>270.4</ele>
        <time>2022-06-29T13:44:27.018Z</time>
    </trkpt>
    <trkpt lat="56.507324" lon="61.027903">
        <ele>270.7</ele>
        <time>2022-06-29T13:44:29.319Z</time>
    </trkpt>
    <trkpt lat="56.507372" lon="61.027918">
        <ele>271.0</ele>
        <time>2022-06-29T13:44:31.741Z</time>
    </trkpt>
    <trkpt lat="56.507421" lon="61.02792">
        <ele>271.2</ele>
        <time>2022-06-29T13:44:34.178Z</time>
    </trkpt>
    <trkpt lat="56.50747" lon="61.02794">
        <ele>271.5</ele>
        <time>2022-06-29T13:44:36.676Z</time>
    </trkpt>
    <trkpt lat="56.507524" lon="61.027923">
        <ele>271.7</ele>
        <time>2022-06-29T13:44:39.402Z</time>
    </trkpt>
    <trkpt lat="56.507596" lon="61.027883">
        <ele>271.8</ele>
        <time>2022-06-29T13:44:43.147Z</time>
    </trkpt>
    <trkpt lat="56.50766" lon="61.027853">
        <ele>271.8</ele>
        <time>2022-06-29T13:44:46.435Z</time>
    </trkpt>
    <trkpt lat="56.507728" lon="61.027816">
        <ele>271.7</ele>
        <time>2022-06-29T13:44:49.966Z</time>
    </trkpt>
    <trkpt lat="56.507784" lon="61.027784">
        <ele>271.6</ele>
        <time>2022-06-29T13:44:52.886Z</time>
    </trkpt>
    <trkpt lat="56.507824" lon="61.027768">
        <ele>271.5</ele>
        <time>2022-06-29T13:44:54.923Z</time>
    </trkpt>
    <trkpt lat="56.507868" lon="61.027752">
        <ele>271.3</ele>
        <time>2022-06-29T13:44:57.155Z</time>
    </trkpt>
    <trkpt lat="56.507906" lon="61.027736">
        <ele>271.3</ele>
        <time>2022-06-29T13:44:59.095Z</time>
    </trkpt>
    <trkpt lat="56.507932" lon="61.027711">
        <ele>271.2</ele>
        <time>2022-06-29T13:45:00.558Z</time>
    </trkpt>
    <trkpt lat="56.507956" lon="61.027701">
        <ele>271.1</ele>
        <time>2022-06-29T13:45:01.782Z</time>
    </trkpt>
    <trkpt lat="56.507981" lon="61.027682">
        <ele>271.0</ele>
        <time>2022-06-29T13:45:03.130Z</time>
    </trkpt>
    <trkpt lat="56.508011" lon="61.027661">
        <ele>270.9</ele>
        <time>2022-06-29T13:45:04.729Z</time>
    </trkpt>
    <trkpt lat="56.508048" lon="61.02765">
        <ele>270.9</ele>
        <time>2022-06-29T13:45:06.593Z</time>
    </trkpt>
    <trkpt lat="56.508082" lon="61.027623">
        <ele>270.8</ele>
        <time>2022-06-29T13:45:08.439Z</time>
    </trkpt>
    <trkpt lat="56.508131" lon="61.027596">
        <ele>270.8</ele>
        <time>2022-06-29T13:45:10.986Z</time>
    </trkpt>
    <trkpt lat="56.508162" lon="61.027563">
        <ele>270.8</ele>
        <time>2022-06-29T13:45:12.774Z</time>
    </trkpt>
    <trkpt lat="56.508193" lon="61.027526">
        <ele>270.8</ele>
        <time>2022-06-29T13:45:14.620Z</time>
    </trkpt>
    <trkpt lat="56.508236" lon="61.02748">
        <ele>270.8</ele>
        <time>2022-06-29T13:45:17.103Z</time>
    </trkpt>
    <trkpt lat="56.508285" lon="61.027418">
        <ele>270.8</ele>
        <time>2022-06-29T13:45:20.075Z</time>
    </trkpt>
    <trkpt lat="56.508337" lon="61.027362">
        <ele>270.8</ele>
        <time>2022-06-29T13:45:23.083Z</time>
    </trkpt>
    <trkpt lat="56.50838" lon="61.027315">
        <ele>270.7</ele>
        <time>2022-06-29T13:45:25.580Z</time>
    </trkpt>
    <trkpt lat="56.508423" lon="61.027271">
        <ele>270.7</ele>
        <time>2022-06-29T13:45:28.036Z</time>
    </trkpt>
    <trkpt lat="56.508466" lon="61.027223">
        <ele>270.8</ele>
        <time>2022-06-29T13:45:30.547Z</time>
    </trkpt>
    <trkpt lat="56.508505" lon="61.027151">
        <ele>270.8</ele>
        <time>2022-06-29T13:45:33.316Z</time>
    </trkpt>
    <trkpt lat="56.508536" lon="61.02705">
        <ele>270.8</ele>
        <time>2022-06-29T13:45:36.488Z</time>
    </trkpt>
    <trkpt lat="56.508566" lon="61.026988">
        <ele>270.8</ele>
        <time>2022-06-29T13:45:38.751Z</time>
    </trkpt>
    <trkpt lat="56.508584" lon="61.026943">
        <ele>270.7</ele>
        <time>2022-06-29T13:45:40.276Z</time>
    </trkpt>
    <trkpt lat="56.508611" lon="61.026911">
        <ele>270.7</ele>
        <time>2022-06-29T13:45:41.880Z</time>
    </trkpt>
    <trkpt lat="56.508643" lon="61.026893">
        <ele>270.6</ele>
        <time>2022-06-29T13:45:43.546Z</time>
    </trkpt>
    <trkpt lat="56.508674" lon="61.026867">
        <ele>270.6</ele>
        <time>2022-06-29T13:45:45.245Z</time>
    </trkpt>
    <trkpt lat="56.50869" lon="61.026848">
        <ele>270.6</ele>
        <time>2022-06-29T13:45:46.196Z</time>
    </trkpt>
    <trkpt lat="56.5087" lon="61.026839">
        <ele>270.7</ele>
        <time>2022-06-29T13:45:46.751Z</time>
    </trkpt>
    <trkpt lat="56.508705" lon="61.026821">
        <ele>270.7</ele>
        <time>2022-06-29T13:45:47.304Z</time>
    </trkpt>
    <trkpt lat="56.50871" lon="61.026782">
        <ele>270.7</ele>
        <time>2022-06-29T13:45:48.402Z</time>
    </trkpt>
    <trkpt lat="56.508718" lon="61.02677">
        <ele>270.8</ele>
        <time>2022-06-29T13:45:48.918Z</time>
    </trkpt>
    <trkpt lat="56.508726" lon="61.026757">
        <ele>270.9</ele>
        <time>2022-06-29T13:45:49.452Z</time>
    </trkpt>
    <trkpt lat="56.508725" lon="61.026733">
        <ele>270.9</ele>
        <time>2022-06-29T13:45:50.112Z</time>
    </trkpt>
    <trkpt lat="56.508724" lon="61.026716">
        <ele>271.0</ele>
        <time>2022-06-29T13:45:50.581Z</time>
    </trkpt>
    <trkpt lat="56.508728" lon="61.026705">
        <ele>271.1</ele>
        <time>2022-06-29T13:45:50.942Z</time>
    </trkpt>
    <trkpt lat="56.508732" lon="61.026683">
        <ele>271.2</ele>
        <time>2022-06-29T13:45:51.577Z</time>
    </trkpt>
    <trkpt lat="56.508735" lon="61.026683">
        <ele>271.3</ele>
        <time>2022-06-29T13:45:51.726Z</time>
    </trkpt>
    <trkpt lat="56.508738" lon="61.026662">
        <ele>271.4</ele>
        <time>2022-06-29T13:45:52.321Z</time>
    </trkpt>
    <trkpt lat="56.508748" lon="61.026631">
        <ele>271.5</ele>
        <time>2022-06-29T13:45:53.306Z</time>
    </trkpt>
    <trkpt lat="56.508759" lon="61.026589">
        <ele>271.6</ele>
        <time>2022-06-29T13:45:54.581Z</time>
    </trkpt>
    <trkpt lat="56.508768" lon="61.026543">
        <ele>271.7</ele>
        <time>2022-06-29T13:45:55.920Z</time>
    </trkpt>
    <trkpt lat="56.50877" lon="61.026556">
        <ele>271.8</ele>
        <time>2022-06-29T13:45:56.290Z</time>
    </trkpt>
    <trkpt lat="56.508768" lon="61.026555">
        <ele>271.9</ele>
        <time>2022-06-29T13:45:56.393Z</time>
    </trkpt>
    <trkpt lat="56.508773" lon="61.026542">
        <ele>272.0</ele>
        <time>2022-06-29T13:45:56.827Z</time>
    </trkpt>
    <trkpt lat="56.508777" lon="61.026525">
        <ele>272.1</ele>
        <time>2022-06-29T13:45:57.334Z</time>
    </trkpt>
    <trkpt lat="56.508787" lon="61.026505">
        <ele>272.3</ele>
        <time>2022-06-29T13:45:58.074Z</time>
    </trkpt>
    <trkpt lat="56.508809" lon="61.026491">
        <ele>272.4</ele>
        <time>2022-06-29T13:45:59.233Z</time>
    </trkpt>
    <trkpt lat="56.508821" lon="61.026464">
        <ele>272.5</ele>
        <time>2022-06-29T13:46:00.184Z</time>
    </trkpt>
    <trkpt lat="56.508837" lon="61.026425">
        <ele>272.6</ele>
        <time>2022-06-29T13:46:01.517Z</time>
    </trkpt>
    <trkpt lat="56.508843" lon="61.026373">
        <ele>272.6</ele>
        <time>2022-06-29T13:46:02.975Z</time>
    </trkpt>
    <trkpt lat="56.50886" lon="61.026374">
        <ele>272.7</ele>
        <time>2022-06-29T13:46:03.820Z</time>
    </trkpt>
    <trkpt lat="56.508861" lon="61.026347">
        <ele>272.8</ele>
        <time>2022-06-29T13:46:04.562Z</time>
    </trkpt>
    <trkpt lat="56.508873" lon="61.026327">
        <ele>272.9</ele>
        <time>2022-06-29T13:46:05.372Z</time>
    </trkpt>
    <trkpt lat="56.508882" lon="61.026305">
        <ele>273.0</ele>
        <time>2022-06-29T13:46:06.123Z</time>
    </trkpt>
    <trkpt lat="56.508893" lon="61.026256">
        <ele>273.1</ele>
        <time>2022-06-29T13:46:07.574Z</time>
    </trkpt>
    <trkpt lat="56.508906" lon="61.026196">
        <ele>273.2</ele>
        <time>2022-06-29T13:46:09.343Z</time>
    </trkpt>
    <trkpt lat="56.508925" lon="61.026128">
        <ele>273.2</ele>
        <time>2022-06-29T13:46:11.434Z</time>
    </trkpt>
    <trkpt lat="56.508945" lon="61.026048">
        <ele>273.3</ele>
        <time>2022-06-29T13:46:13.844Z</time>
    </trkpt>
    <trkpt lat="56.508949" lon="61.026003">
        <ele>273.4</ele>
        <time>2022-06-29T13:46:15.094Z</time>
    </trkpt>
    <trkpt lat="56.508954" lon="61.025976">
        <ele>273.4</ele>
        <time>2022-06-29T13:46:15.875Z</time>
    </trkpt>
    <trkpt lat="56.508974" lon="61.025934">
        <ele>273.5</ele>
        <time>2022-06-29T13:46:17.397Z</time>
    </trkpt>
    <trkpt lat="56.508998" lon="61.025855">
        <ele>273.6</ele>
        <time>2022-06-29T13:46:19.872Z</time>
    </trkpt>
    <trkpt lat="56.50901" lon="61.025778">
        <ele>273.6</ele>
        <time>2022-06-29T13:46:22.067Z</time>
    </trkpt>
    <trkpt lat="56.509023" lon="61.02573">
        <ele>273.7</ele>
        <time>2022-06-29T13:46:23.534Z</time>
    </trkpt>
    <trkpt lat="56.509044" lon="61.025686">
        <ele>273.8</ele>
        <time>2022-06-29T13:46:25.130Z</time>
    </trkpt>
    <trkpt lat="56.509066" lon="61.025649">
        <ele>273.8</ele>
        <time>2022-06-29T13:46:26.622Z</time>
    </trkpt>
    <trkpt lat="56.509075" lon="61.025609">
        <ele>273.8</ele>
        <time>2022-06-29T13:46:27.807Z</time>
    </trkpt>
    <trkpt lat="56.509102" lon="61.025541">
        <ele>273.8</ele>
        <time>2022-06-29T13:46:30.106Z</time>
    </trkpt>
    <trkpt lat="56.509134" lon="61.02547">
        <ele>273.8</ele>
        <time>2022-06-29T13:46:32.622Z</time>
    </trkpt>
    <trkpt lat="56.509159" lon="61.025389">
        <ele>273.6</ele>
        <time>2022-06-29T13:46:35.169Z</time>
    </trkpt>
    <trkpt lat="56.509174" lon="61.025298">
        <ele>273.5</ele>
        <time>2022-06-29T13:46:37.775Z</time>
    </trkpt>
    <trkpt lat="56.50919" lon="61.025204">
        <ele>273.3</ele>
        <time>2022-06-29T13:46:40.474Z</time>
    </trkpt>
    <trkpt lat="56.509204" lon="61.025116">
        <ele>273.2</ele>
        <time>2022-06-29T13:46:42.987Z</time>
    </trkpt>
    <trkpt lat="56.509217" lon="61.025012">
        <ele>273.2</ele>
        <time>2022-06-29T13:46:45.913Z</time>
    </trkpt>
    <trkpt lat="56.50923" lon="61.02493">
        <ele>273.2</ele>
        <time>2022-06-29T13:46:48.254Z</time>
    </trkpt>
    <trkpt lat="56.509239" lon="61.024856">
        <ele>273.2</ele>
        <time>2022-06-29T13:46:50.333Z</time>
    </trkpt>
    <trkpt lat="56.509248" lon="61.024773">
        <ele>273.2</ele>
        <time>2022-06-29T13:46:52.654Z</time>
    </trkpt>
    <trkpt lat="56.509259" lon="61.024673">
        <ele>273.2</ele>
        <time>2022-06-29T13:46:55.452Z</time>
    </trkpt>
    <trkpt lat="56.509278" lon="61.024571">
        <ele>273.3</ele>
        <time>2022-06-29T13:46:58.406Z</time>
    </trkpt>
    <trkpt lat="56.509296" lon="61.024471">
        <ele>273.3</ele>
        <time>2022-06-29T13:47:01.292Z</time>
    </trkpt>
    <trkpt lat="56.509315" lon="61.024375">
        <ele>273.4</ele>
        <time>2022-06-29T13:47:04.091Z</time>
    </trkpt>
    <trkpt lat="56.509329" lon="61.024313">
        <ele>273.4</ele>
        <time>2022-06-29T13:47:05.929Z</time>
    </trkpt>
    <trkpt lat="56.509333" lon="61.02425">
        <ele>273.5</ele>
        <time>2022-06-29T13:47:07.669Z</time>
    </trkpt>
    <trkpt lat="56.509339" lon="61.024211">
        <ele>273.5</ele>
        <time>2022-06-29T13:47:08.780Z</time>
    </trkpt>
    <trkpt lat="56.509344" lon="61.024151">
        <ele>273.6</ele>
        <time>2022-06-29T13:47:10.445Z</time>
    </trkpt>
    <trkpt lat="56.509358" lon="61.024084">
        <ele>273.6</ele>
        <time>2022-06-29T13:47:12.411Z</time>
    </trkpt>
    <trkpt lat="56.509377" lon="61.024013">
        <ele>273.6</ele>
        <time>2022-06-29T13:47:14.576Z</time>
    </trkpt>
    <trkpt lat="56.509397" lon="61.023956">
        <ele>273.6</ele>
        <time>2022-06-29T13:47:16.429Z</time>
    </trkpt>
    <trkpt lat="56.509423" lon="61.023882">
        <ele>273.5</ele>
        <time>2022-06-29T13:47:18.836Z</time>
    </trkpt>
    <trkpt lat="56.509444" lon="61.023805">
        <ele>273.5</ele>
        <time>2022-06-29T13:47:21.193Z</time>
    </trkpt>
    <trkpt lat="56.509478" lon="61.023715">
        <ele>273.4</ele>
        <time>2022-06-29T13:47:24.186Z</time>
    </trkpt>
    <trkpt lat="56.509508" lon="61.023636">
        <ele>273.2</ele>
        <time>2022-06-29T13:47:26.818Z</time>
    </trkpt>
    <trkpt lat="56.509529" lon="61.023553">
        <ele>273.0</ele>
        <time>2022-06-29T13:47:29.324Z</time>
    </trkpt>
    <trkpt lat="56.509542" lon="61.023467">
        <ele>272.8</ele>
        <time>2022-06-29T13:47:31.771Z</time>
    </trkpt>
    <trkpt lat="56.509556" lon="61.023373">
        <ele>272.6</ele>
        <time>2022-06-29T13:47:34.443Z</time>
    </trkpt>
    <trkpt lat="56.509579" lon="61.023242">
        <ele>272.3</ele>
        <time>2022-06-29T13:47:38.215Z</time>
    </trkpt>
    <trkpt lat="56.509602" lon="61.023118">
        <ele>272.0</ele>
        <time>2022-06-29T13:47:41.805Z</time>
    </trkpt>
    <trkpt lat="56.509612" lon="61.023026">
        <ele>271.7</ele>
        <time>2022-06-29T13:47:44.378Z</time>
    </trkpt>
    <trkpt lat="56.50963" lon="61.022928">
        <ele>271.4</ele>
        <time>2022-06-29T13:47:47.212Z</time>
    </trkpt>
    <trkpt lat="56.509627" lon="61.022835">
        <ele>271.2</ele>
        <time>2022-06-29T13:47:49.768Z</time>
    </trkpt>
    <trkpt lat="56.509628" lon="61.022753">
        <ele>271.0</ele>
        <time>2022-06-29T13:47:52.019Z</time>
    </trkpt>
    <trkpt lat="56.509622" lon="61.022667">
        <ele>270.8</ele>
        <time>2022-06-29T13:47:54.398Z</time>
    </trkpt>
    <trkpt lat="56.509616" lon="61.022579">
        <ele>270.7</ele>
        <time>2022-06-29T13:47:56.831Z</time>
    </trkpt>
    <trkpt lat="56.509614" lon="61.022484">
        <ele>270.7</ele>
        <time>2022-06-29T13:47:59.440Z</time>
    </trkpt>
    <trkpt lat="56.509606" lon="61.022405">
        <ele>270.7</ele>
        <time>2022-06-29T13:48:01.644Z</time>
    </trkpt>
    <trkpt lat="56.509608" lon="61.022323">
        <ele>270.8</ele>
        <time>2022-06-29T13:48:03.896Z</time>
    </trkpt>
    <trkpt lat="56.509612" lon="61.022247">
        <ele>270.7</ele>
        <time>2022-06-29T13:48:05.991Z</time>
    </trkpt>
    <trkpt lat="56.509607" lon="61.022167">
        <ele>270.7</ele>
        <time>2022-06-29T13:48:08.200Z</time>
    </trkpt>
    <trkpt lat="56.509609" lon="61.022085">
        <ele>270.7</ele>
        <time>2022-06-29T13:48:10.452Z</time>
    </trkpt>
    <trkpt lat="56.509604" lon="61.022019">
        <ele>270.6</ele>
        <time>2022-06-29T13:48:12.280Z</time>
    </trkpt>
    <trkpt lat="56.509596" lon="61.02196">
        <ele>270.7</ele>
        <time>2022-06-29T13:48:13.947Z</time>
    </trkpt>
    <trkpt lat="56.509575" lon="61.021888">
        <ele>271.0</ele>
        <time>2022-06-29T13:48:16.182Z</time>
    </trkpt>
    <trkpt lat="56.509562" lon="61.021821">
        <ele>271.2</ele>
        <time>2022-06-29T13:48:18.131Z</time>
    </trkpt>
    <trkpt lat="56.509544" lon="61.021751">
        <ele>271.7</ele>
        <time>2022-06-29T13:48:20.250Z</time>
    </trkpt>
    <trkpt lat="56.509526" lon="61.02165">
        <ele>272.0</ele>
        <time>2022-06-29T13:48:23.162Z</time>
    </trkpt>
    <trkpt lat="56.509507" lon="61.021546">
        <ele>272.3</ele>
        <time>2022-06-29T13:48:26.168Z</time>
    </trkpt>
    <trkpt lat="56.509508" lon="61.021466">
        <ele>272.6</ele>
        <time>2022-06-29T13:48:28.364Z</time>
    </trkpt>
    <trkpt lat="56.509503" lon="61.021396">
        <ele>272.6</ele>
        <time>2022-06-29T13:48:30.301Z</time>
    </trkpt>
    <trkpt lat="56.509502" lon="61.021344">
        <ele>272.5</ele>
        <time>2022-06-29T13:48:31.729Z</time>
    </trkpt>
    <trkpt lat="56.509496" lon="61.021297">
        <ele>272.5</ele>
        <time>2022-06-29T13:48:33.053Z</time>
    </trkpt>
    <trkpt lat="56.509495" lon="61.021259">
        <ele>272.5</ele>
        <time>2022-06-29T13:48:34.097Z</time>
    </trkpt>
    <trkpt lat="56.509496" lon="61.021229">
        <ele>272.5</ele>
        <time>2022-06-29T13:48:34.921Z</time>
    </trkpt>
    <trkpt lat="56.509496" lon="61.021204">
        <ele>272.5</ele>
        <time>2022-06-29T13:48:35.607Z</time>
    </trkpt>
    <trkpt lat="56.509492" lon="61.021191">
        <ele>272.4</ele>
        <time>2022-06-29T13:48:36.015Z</time>
    </trkpt>
    <trkpt lat="56.50949" lon="61.021175">
        <ele>272.4</ele>
        <time>2022-06-29T13:48:36.465Z</time>
    </trkpt>
    <trkpt lat="56.509485" lon="61.021148">
        <ele>272.3</ele>
        <time>2022-06-29T13:48:37.246Z</time>
    </trkpt>
    <trkpt lat="56.509476" lon="61.021114">
        <ele>272.3</ele>
        <time>2022-06-29T13:48:38.280Z</time>
    </trkpt>
    <trkpt lat="56.509469" lon="61.021085">
        <ele>272.5</ele>
        <time>2022-06-29T13:48:39.148Z</time>
    </trkpt>
    <trkpt lat="56.509466" lon="61.021044">
        <ele>272.5</ele>
        <time>2022-06-29T13:48:40.283Z</time>
    </trkpt>
    <trkpt lat="56.509455" lon="61.020999">
        <ele>272.6</ele>
        <time>2022-06-29T13:48:41.633Z</time>
    </trkpt>
    <trkpt lat="56.509444" lon="61.020949">
        <ele>272.7</ele>
        <time>2022-06-29T13:48:43.110Z</time>
    </trkpt>
    <trkpt lat="56.50944" lon="61.020895">
        <ele>272.9</ele>
        <time>2022-06-29T13:48:44.605Z</time>
    </trkpt>
    <trkpt lat="56.509431" lon="61.020836">
        <ele>273.4</ele>
        <time>2022-06-29T13:48:46.285Z</time>
    </trkpt>
    <trkpt lat="56.509424" lon="61.020774">
        <ele>273.9</ele>
        <time>2022-06-29T13:48:48.021Z</time>
    </trkpt>
    <trkpt lat="56.509429" lon="61.020697">
        <ele>274.3</ele>
        <time>2022-06-29T13:48:50.148Z</time>
    </trkpt>
    <trkpt lat="56.509423" lon="61.02063">
        <ele>274.6</ele>
        <time>2022-06-29T13:48:52.010Z</time>
    </trkpt>
    <trkpt lat="56.509405" lon="61.020561">
        <ele>274.6</ele>
        <time>2022-06-29T13:48:54.104Z</time>
    </trkpt>
    <trkpt lat="56.509398" lon="61.020519">
        <ele>274.6</ele>
        <time>2022-06-29T13:48:55.308Z</time>
    </trkpt>
    <trkpt lat="56.509393" lon="61.020451">
        <ele>274.6</ele>
        <time>2022-06-29T13:48:57.190Z</time>
    </trkpt>
    <trkpt lat="56.509387" lon="61.020409">
        <ele>274.6</ele>
        <time>2022-06-29T13:48:58.380Z</time>
    </trkpt>
    <trkpt lat="56.50937" lon="61.020371">
        <ele>274.6</ele>
        <time>2022-06-29T13:48:59.722Z</time>
    </trkpt>
    <trkpt lat="56.509355" lon="61.02032">
        <ele>274.7</ele>
        <time>2022-06-29T13:49:01.308Z</time>
    </trkpt>
    <trkpt lat="56.509337" lon="61.020251">
        <ele>274.8</ele>
        <time>2022-06-29T13:49:03.402Z</time>
    </trkpt>
    <trkpt lat="56.509319" lon="61.020189">
        <ele>274.9</ele>
        <time>2022-06-29T13:49:05.324Z</time>
    </trkpt>
    <trkpt lat="56.509309" lon="61.020118">
        <ele>275.0</ele>
        <time>2022-06-29T13:49:07.335Z</time>
    </trkpt>
    <trkpt lat="56.509307" lon="61.020029">
        <ele>275.1</ele>
        <time>2022-06-29T13:49:09.779Z</time>
    </trkpt>
    <trkpt lat="56.509306" lon="61.019957">
        <ele>275.2</ele>
        <time>2022-06-29T13:49:11.755Z</time>
    </trkpt>
    <trkpt lat="56.509311" lon="61.019879">
        <ele>275.3</ele>
        <time>2022-06-29T13:49:13.910Z</time>
    </trkpt>
    <trkpt lat="56.509313" lon="61.019813">
        <ele>275.6</ele>
        <time>2022-06-29T13:49:15.724Z</time>
    </trkpt>
    <trkpt lat="56.509325" lon="61.019736">
        <ele>275.8</ele>
        <time>2022-06-29T13:49:17.919Z</time>
    </trkpt>
    <trkpt lat="56.509351" lon="61.019666">
        <ele>276.2</ele>
        <time>2022-06-29T13:49:20.234Z</time>
    </trkpt>
    <trkpt lat="56.509372" lon="61.019599">
        <ele>276.5</ele>
        <time>2022-06-29T13:49:22.348Z</time>
    </trkpt>
    <trkpt lat="56.509393" lon="61.019532">
        <ele>277.0</ele>
        <time>2022-06-29T13:49:24.462Z</time>
    </trkpt>
    <trkpt lat="56.509415" lon="61.019453">
        <ele>277.5</ele>
        <time>2022-06-29T13:49:26.890Z</time>
    </trkpt>
    <trkpt lat="56.50944" lon="61.019389">
        <ele>278.0</ele>
        <time>2022-06-29T13:49:29.042Z</time>
    </trkpt>
    <trkpt lat="56.509458" lon="61.019321">
        <ele>278.5</ele>
        <time>2022-06-29T13:49:31.111Z</time>
    </trkpt>
    <trkpt lat="56.50948" lon="61.019231">
        <ele>279.0</ele>
        <time>2022-06-29T13:49:33.812Z</time>
    </trkpt>
    <trkpt lat="56.509501" lon="61.019146">
        <ele>279.6</ele>
        <time>2022-06-29T13:49:36.368Z</time>
    </trkpt>
    <trkpt lat="56.509511" lon="61.019074">
        <ele>280.1</ele>
        <time>2022-06-29T13:49:38.405Z</time>
    </trkpt>
    <trkpt lat="56.509536" lon="61.01901">
        <ele>280.6</ele>
        <time>2022-06-29T13:49:40.557Z</time>
    </trkpt>
    <trkpt lat="56.509565" lon="61.01894">
        <ele>281.2</ele>
        <time>2022-06-29T13:49:42.959Z</time>
    </trkpt>
    <trkpt lat="56.5096" lon="61.018866">
        <ele>281.7</ele>
        <time>2022-06-29T13:49:45.633Z</time>
    </trkpt>
    <trkpt lat="56.509639" lon="61.018778">
        <ele>282.4</ele>
        <time>2022-06-29T13:49:48.730Z</time>
    </trkpt>
    <trkpt lat="56.509684" lon="61.018702">
        <ele>283.0</ele>
        <time>2022-06-29T13:49:51.789Z</time>
    </trkpt>
    <trkpt lat="56.50972" lon="61.018638">
        <ele>283.7</ele>
        <time>2022-06-29T13:49:54.297Z</time>
    </trkpt>
    <trkpt lat="56.509753" lon="61.018588">
        <ele>283.8</ele>
        <time>2022-06-29T13:49:56.436Z</time>
    </trkpt>
    <trkpt lat="56.509795" lon="61.018534">
        <ele>283.9</ele>
        <time>2022-06-29T13:49:58.997Z</time>
    </trkpt>
    <trkpt lat="56.509838" lon="61.018491">
        <ele>284.2</ele>
        <time>2022-06-29T13:50:01.439Z</time>
    </trkpt>
    <trkpt lat="56.509872" lon="61.018457">
        <ele>284.4</ele>
        <time>2022-06-29T13:50:03.370Z</time>
    </trkpt>
    <trkpt lat="56.509897" lon="61.018404">
        <ele>284.5</ele>
        <time>2022-06-29T13:50:05.283Z</time>
    </trkpt>
    <trkpt lat="56.509923" lon="61.018332">
        <ele>284.5</ele>
        <time>2022-06-29T13:50:07.644Z</time>
    </trkpt>
    <trkpt lat="56.509946" lon="61.018278">
        <ele>284.6</ele>
        <time>2022-06-29T13:50:09.516Z</time>
    </trkpt>
    <trkpt lat="56.50996" lon="61.018215">
        <ele>284.5</ele>
        <time>2022-06-29T13:50:11.379Z</time>
    </trkpt>
    <trkpt lat="56.509983" lon="61.018136">
        <ele>284.5</ele>
        <time>2022-06-29T13:50:13.830Z</time>
    </trkpt>
    <trkpt lat="56.510002" lon="61.018048">
        <ele>284.4</ele>
        <time>2022-06-29T13:50:16.423Z</time>
    </trkpt>
    <trkpt lat="56.510015" lon="61.017977">
        <ele>284.4</ele>
        <time>2022-06-29T13:50:18.476Z</time>
    </trkpt>
    <trkpt lat="56.510025" lon="61.017901">
        <ele>284.4</ele>
        <time>2022-06-29T13:50:20.620Z</time>
    </trkpt>
    <trkpt lat="56.510028" lon="61.017824">
        <ele>284.5</ele>
        <time>2022-06-29T13:50:22.738Z</time>
    </trkpt>
    <trkpt lat="56.510036" lon="61.017743">
        <ele>284.6</ele>
        <time>2022-06-29T13:50:24.996Z</time>
    </trkpt>
    <trkpt lat="56.510041" lon="61.017678">
        <ele>284.7</ele>
        <time>2022-06-29T13:50:26.797Z</time>
    </trkpt>
    <trkpt lat="56.510045" lon="61.017602">
        <ele>284.9</ele>
        <time>2022-06-29T13:50:28.892Z</time>
    </trkpt>
    <trkpt lat="56.510054" lon="61.017525">
        <ele>285.1</ele>
        <time>2022-06-29T13:50:31.052Z</time>
    </trkpt>
    <trkpt lat="56.510069" lon="61.017466">
        <ele>285.4</ele>
        <time>2022-06-29T13:50:32.834Z</time>
    </trkpt>
    <trkpt lat="56.510072" lon="61.017395">
        <ele>285.8</ele>
        <time>2022-06-29T13:50:34.788Z</time>
    </trkpt>
    <trkpt lat="56.510069" lon="61.017335">
        <ele>286.2</ele>
        <time>2022-06-29T13:50:36.441Z</time>
    </trkpt>
    <trkpt lat="56.510075" lon="61.017272">
        <ele>286.7</ele>
        <time>2022-06-29T13:50:38.195Z</time>
    </trkpt>
    <trkpt lat="56.510084" lon="61.017205">
        <ele>287.3</ele>
        <time>2022-06-29T13:50:40.087Z</time>
    </trkpt>
    <trkpt lat="56.51009" lon="61.017151">
        <ele>288.0</ele>
        <time>2022-06-29T13:50:41.598Z</time>
    </trkpt>
    <trkpt lat="56.510088" lon="61.017113">
        <ele>288.7</ele>
        <time>2022-06-29T13:50:42.645Z</time>
    </trkpt>
    <trkpt lat="56.510097" lon="61.017064">
        <ele>289.6</ele>
        <time>2022-06-29T13:50:44.062Z</time>
    </trkpt>
    <trkpt lat="56.510102" lon="61.017011">
        <ele>290.5</ele>
        <time>2022-06-29T13:50:45.537Z</time>
    </trkpt>
    <trkpt lat="56.510119" lon="61.016942">
        <ele>290.7</ele>
        <time>2022-06-29T13:50:47.610Z</time>
    </trkpt>
    <trkpt lat="56.510143" lon="61.016867">
        <ele>290.9</ele>
        <time>2022-06-29T13:50:49.989Z</time>
    </trkpt>
    <trkpt lat="56.510173" lon="61.01679">
        <ele>291.0</ele>
        <time>2022-06-29T13:50:52.575Z</time>
    </trkpt>
    <trkpt lat="56.51021" lon="61.01672">
        <ele>291.1</ele>
        <time>2022-06-29T13:50:55.235Z</time>
    </trkpt>
    <trkpt lat="56.510246" lon="61.016645">
        <ele>291.4</ele>
        <time>2022-06-29T13:50:57.963Z</time>
    </trkpt>
    <trkpt lat="56.510279" lon="61.016568">
        <ele>291.7</ele>
        <time>2022-06-29T13:51:00.638Z</time>
    </trkpt>
    <trkpt lat="56.510315" lon="61.0165">
        <ele>292.0</ele>
        <time>2022-06-29T13:51:03.224Z</time>
    </trkpt>
    <trkpt lat="56.510346" lon="61.016437">
        <ele>292.2</ele>
        <time>2022-06-29T13:51:05.540Z</time>
    </trkpt>
    <trkpt lat="56.510375" lon="61.016383">
        <ele>292.4</ele>
        <time>2022-06-29T13:51:07.608Z</time>
    </trkpt>
    <trkpt lat="56.510405" lon="61.016322">
        <ele>292.6</ele>
        <time>2022-06-29T13:51:09.850Z</time>
    </trkpt>
    <trkpt lat="56.510425" lon="61.016267">
        <ele>292.8</ele>
        <time>2022-06-29T13:51:11.657Z</time>
    </trkpt>
    <trkpt lat="56.510447" lon="61.016198">
        <ele>293.0</ele>
        <time>2022-06-29T13:51:13.844Z</time>
    </trkpt>
    <trkpt lat="56.510469" lon="61.016126">
        <ele>293.2</ele>
        <time>2022-06-29T13:51:16.102Z</time>
    </trkpt>
    <trkpt lat="56.510486" lon="61.016067">
        <ele>293.4</ele>
        <time>2022-06-29T13:51:17.928Z</time>
    </trkpt>
    <trkpt lat="56.510494" lon="61.016002">
        <ele>293.6</ele>
        <time>2022-06-29T13:51:19.755Z</time>
    </trkpt>
    <trkpt lat="56.510497" lon="61.015933">
        <ele>293.9</ele>
        <time>2022-06-29T13:51:21.654Z</time>
    </trkpt>
    <trkpt lat="56.510517" lon="61.015864">
        <ele>294.1</ele>
        <time>2022-06-29T13:51:23.793Z</time>
    </trkpt>
    <trkpt lat="56.510557" lon="61.015792">
        <ele>294.4</ele>
        <time>2022-06-29T13:51:26.597Z</time>
    </trkpt>
    <trkpt lat="56.510583" lon="61.015714">
        <ele>294.7</ele>
        <time>2022-06-29T13:51:29.097Z</time>
    </trkpt>
    <trkpt lat="56.510619" lon="61.015644">
        <ele>294.9</ele>
        <time>2022-06-29T13:51:31.723Z</time>
    </trkpt>
    <trkpt lat="56.510668" lon="61.015603">
        <ele>295.1</ele>
        <time>2022-06-29T13:51:34.407Z</time>
    </trkpt>
    <trkpt lat="56.510717" lon="61.015589">
        <ele>295.3</ele>
        <time>2022-06-29T13:51:36.874Z</time>
    </trkpt>
    <trkpt lat="56.510757" lon="61.015582">
        <ele>295.4</ele>
        <time>2022-06-29T13:51:38.872Z</time>
    </trkpt>
    <trkpt lat="56.510802" lon="61.015572">
        <ele>295.5</ele>
        <time>2022-06-29T13:51:41.126Z</time>
    </trkpt>
    <trkpt lat="56.510847" lon="61.015566">
        <ele>295.5</ele>
        <time>2022-06-29T13:51:43.370Z</time>
    </trkpt>
    <trkpt lat="56.510885" lon="61.015559">
        <ele>295.6</ele>
        <time>2022-06-29T13:51:45.269Z</time>
    </trkpt>
    <trkpt lat="56.510921" lon="61.015561">
        <ele>295.7</ele>
        <time>2022-06-29T13:51:47.060Z</time>
    </trkpt>
    <trkpt lat="56.510956" lon="61.015562">
        <ele>295.8</ele>
        <time>2022-06-29T13:51:48.801Z</time>
    </trkpt>
    <trkpt lat="56.510992" lon="61.015549">
        <ele>295.9</ele>
        <time>2022-06-29T13:51:50.626Z</time>
    </trkpt>
    <trkpt lat="56.511021" lon="61.015545">
        <ele>296.0</ele>
        <time>2022-06-29T13:51:52.072Z</time>
    </trkpt>
    <trkpt lat="56.511052" lon="61.015549">
        <ele>296.1</ele>
        <time>2022-06-29T13:51:53.617Z</time>
    </trkpt>
    <trkpt lat="56.511077" lon="61.015542">
        <ele>296.2</ele>
        <time>2022-06-29T13:51:54.875Z</time>
    </trkpt>
    <trkpt lat="56.5111" lon="61.015542">
        <ele>296.4</ele>
        <time>2022-06-29T13:51:56.018Z</time>
    </trkpt>
    <trkpt lat="56.511129" lon="61.01553">
        <ele>296.5</ele>
        <time>2022-06-29T13:51:57.497Z</time>
    </trkpt>
    <trkpt lat="56.511161" lon="61.015499">
        <ele>296.7</ele>
        <time>2022-06-29T13:51:59.301Z</time>
    </trkpt>
    <trkpt lat="56.511187" lon="61.015497">
        <ele>296.8</ele>
        <time>2022-06-29T13:52:00.595Z</time>
    </trkpt>
    <trkpt lat="56.511216" lon="61.015494">
        <ele>296.9</ele>
        <time>2022-06-29T13:52:02.039Z</time>
    </trkpt>
    <trkpt lat="56.511251" lon="61.015482">
        <ele>297.1</ele>
        <time>2022-06-29T13:52:03.810Z</time>
    </trkpt>
    <trkpt lat="56.511284" lon="61.015459">
        <ele>297.2</ele>
        <time>2022-06-29T13:52:05.568Z</time>
    </trkpt>
    <trkpt lat="56.511308" lon="61.015429">
        <ele>297.2</ele>
        <time>2022-06-29T13:52:07.018Z</time>
    </trkpt>
    <trkpt lat="56.511331" lon="61.015417">
        <ele>297.3</ele>
        <time>2022-06-29T13:52:08.208Z</time>
    </trkpt>
    <trkpt lat="56.511361" lon="61.015402">
        <ele>297.4</ele>
        <time>2022-06-29T13:52:09.755Z</time>
    </trkpt>
    <trkpt lat="56.511393" lon="61.01537">
        <ele>297.5</ele>
        <time>2022-06-29T13:52:11.572Z</time>
    </trkpt>
    <trkpt lat="56.511422" lon="61.015344">
        <ele>297.5</ele>
        <time>2022-06-29T13:52:13.181Z</time>
    </trkpt>
    <trkpt lat="56.51145" lon="61.015295">
        <ele>297.5</ele>
        <time>2022-06-29T13:52:15.116Z</time>
    </trkpt>
    <trkpt lat="56.511473" lon="61.015261">
        <ele>297.6</ele>
        <time>2022-06-29T13:52:16.592Z</time>
    </trkpt>
    <trkpt lat="56.511495" lon="61.015231">
        <ele>297.6</ele>
        <time>2022-06-29T13:52:17.961Z</time>
    </trkpt>
    <trkpt lat="56.511519" lon="61.015209">
        <ele>297.6</ele>
        <time>2022-06-29T13:52:19.298Z</time>
    </trkpt>
    <trkpt lat="56.511535" lon="61.01518">
        <ele>297.6</ele>
        <time>2022-06-29T13:52:20.423Z</time>
    </trkpt>
    <trkpt lat="56.511559" lon="61.015158">
        <ele>297.6</ele>
        <time>2022-06-29T13:52:21.760Z</time>
    </trkpt>
    <trkpt lat="56.511573" lon="61.015123">
        <ele>297.6</ele>
        <time>2022-06-29T13:52:22.946Z</time>
    </trkpt>
    <trkpt lat="56.511595" lon="61.015064">
        <ele>297.6</ele>
        <time>2022-06-29T13:52:24.900Z</time>
    </trkpt>
    <trkpt lat="56.51161" lon="61.014982">
        <ele>297.6</ele>
        <time>2022-06-29T13:52:27.270Z</time>
    </trkpt>
    <trkpt lat="56.511625" lon="61.014878">
        <ele>297.7</ele>
        <time>2022-06-29T13:52:30.220Z</time>
    </trkpt>
    <trkpt lat="56.511647" lon="61.01478">
        <ele>297.7</ele>
        <time>2022-06-29T13:52:33.123Z</time>
    </trkpt>
    <trkpt lat="56.511671" lon="61.014679">
        <ele>297.9</ele>
        <time>2022-06-29T13:52:36.140Z</time>
    </trkpt>
    <trkpt lat="56.511709" lon="61.014575">
        <ele>298.0</ele>
        <time>2022-06-29T13:52:39.563Z</time>
    </trkpt>
    <trkpt lat="56.511748" lon="61.014501">
        <ele>298.1</ele>
        <time>2022-06-29T13:52:42.371Z</time>
    </trkpt>
    <trkpt lat="56.511775" lon="61.014436">
        <ele>298.3</ele>
        <time>2022-06-29T13:52:44.603Z</time>
    </trkpt>
    <trkpt lat="56.51181" lon="61.014377">
        <ele>298.3</ele>
        <time>2022-06-29T13:52:46.980Z</time>
    </trkpt>
    <trkpt lat="56.511842" lon="61.014317">
        <ele>298.4</ele>
        <time>2022-06-29T13:52:49.270Z</time>
    </trkpt>
    <trkpt lat="56.511872" lon="61.014246">
        <ele>298.4</ele>
        <time>2022-06-29T13:52:51.724Z</time>
    </trkpt>
    <trkpt lat="56.511903" lon="61.014163">
        <ele>298.3</ele>
        <time>2022-06-29T13:52:54.474Z</time>
    </trkpt>
    <trkpt lat="56.51193" lon="61.014076">
        <ele>298.3</ele>
        <time>2022-06-29T13:52:57.213Z</time>
    </trkpt>
    <trkpt lat="56.511957" lon="61.013989">
        <ele>298.3</ele>
        <time>2022-06-29T13:52:59.952Z</time>
    </trkpt>
    <trkpt lat="56.511988" lon="61.0139">
        <ele>298.3</ele>
        <time>2022-06-29T13:53:02.840Z</time>
    </trkpt>
    <trkpt lat="56.512029" lon="61.013821">
        <ele>298.3</ele>
        <time>2022-06-29T13:53:05.816Z</time>
    </trkpt>
    <trkpt lat="56.51207" lon="61.013761">
        <ele>298.3</ele>
        <time>2022-06-29T13:53:08.437Z</time>
    </trkpt>
    <trkpt lat="56.512126" lon="61.013742">
        <ele>298.2</ele>
        <time>2022-06-29T13:53:11.270Z</time>
    </trkpt>
    <trkpt lat="56.512173" lon="61.013709">
        <ele>298.1</ele>
        <time>2022-06-29T13:53:13.776Z</time>
    </trkpt>
    <trkpt lat="56.512225" lon="61.013671">
        <ele>297.8</ele>
        <time>2022-06-29T13:53:16.564Z</time>
    </trkpt>
    <trkpt lat="56.512278" lon="61.013631">
        <ele>297.5</ele>
        <time>2022-06-29T13:53:19.419Z</time>
    </trkpt>
    <trkpt lat="56.51233" lon="61.013605">
        <ele>297.2</ele>
        <time>2022-06-29T13:53:22.102Z</time>
    </trkpt>
    <trkpt lat="56.512378" lon="61.013586">
        <ele>296.8</ele>
        <time>2022-06-29T13:53:24.545Z</time>
    </trkpt>
    <trkpt lat="56.512427" lon="61.013567">
        <ele>296.4</ele>
        <time>2022-06-29T13:53:27.037Z</time>
    </trkpt>
    <trkpt lat="56.512476" lon="61.013558">
        <ele>296.7</ele>
        <time>2022-06-29T13:53:29.486Z</time>
    </trkpt>
    <trkpt lat="56.512543" lon="61.013518">
        <ele>297.2</ele>
        <time>2022-06-29T13:53:32.994Z</time>
    </trkpt>
    <trkpt lat="56.512594" lon="61.013468">
        <ele>297.7</ele>
        <time>2022-06-29T13:53:35.877Z</time>
    </trkpt>
    <trkpt lat="56.512642" lon="61.013426">
        <ele>298.2</ele>
        <time>2022-06-29T13:53:38.528Z</time>
    </trkpt>
    <trkpt lat="56.512693" lon="61.013395">
        <ele>298.6</ele>
        <time>2022-06-29T13:53:41.203Z</time>
    </trkpt>
    <trkpt lat="56.512744" lon="61.013357">
        <ele>298.8</ele>
        <time>2022-06-29T13:53:43.945Z</time>
    </trkpt>
    <trkpt lat="56.512794" lon="61.013344">
        <ele>298.7</ele>
        <time>2022-06-29T13:53:46.457Z</time>
    </trkpt>
    <trkpt lat="56.512848" lon="61.013343">
        <ele>298.6</ele>
        <time>2022-06-29T13:53:49.143Z</time>
    </trkpt>
    <trkpt lat="56.512875" lon="61.013334">
        <ele>298.4</ele>
        <time>2022-06-29T13:53:50.508Z</time>
    </trkpt>
    <trkpt lat="56.512905" lon="61.013308">
        <ele>298.3</ele>
        <time>2022-06-29T13:53:52.161Z</time>
    </trkpt>
    <trkpt lat="56.512929" lon="61.013292">
        <ele>298.3</ele>
        <time>2022-06-29T13:53:53.432Z</time>
    </trkpt>
    <trkpt lat="56.51295" lon="61.013289">
        <ele>298.2</ele>
        <time>2022-06-29T13:53:54.479Z</time>
    </trkpt>
    <trkpt lat="56.512969" lon="61.013292">
        <ele>298.1</ele>
        <time>2022-06-29T13:53:55.427Z</time>
    </trkpt>
    <trkpt lat="56.512998" lon="61.013302">
        <ele>298.1</ele>
        <time>2022-06-29T13:53:56.895Z</time>
    </trkpt>
    <trkpt lat="56.513014" lon="61.013299">
        <ele>298.0</ele>
        <time>2022-06-29T13:53:57.695Z</time>
    </trkpt>
    <trkpt lat="56.513028" lon="61.013296">
        <ele>298.0</ele>
        <time>2022-06-29T13:53:58.396Z</time>
    </trkpt>
    <trkpt lat="56.51306" lon="61.013284">
        <ele>298.0</ele>
        <time>2022-06-29T13:54:00.021Z</time>
    </trkpt>
    <trkpt lat="56.513091" lon="61.013279">
        <ele>298.0</ele>
        <time>2022-06-29T13:54:01.568Z</time>
    </trkpt>
    <trkpt lat="56.513115" lon="61.013286">
        <ele>298.0</ele>
        <time>2022-06-29T13:54:02.777Z</time>
    </trkpt>
    <trkpt lat="56.513141" lon="61.013277">
        <ele>298.0</ele>
        <time>2022-06-29T13:54:04.093Z</time>
    </trkpt>
    <trkpt lat="56.513167" lon="61.013271">
        <ele>298.0</ele>
        <time>2022-06-29T13:54:05.396Z</time>
    </trkpt>
    <trkpt lat="56.513183" lon="61.013261">
        <ele>298.2</ele>
        <time>2022-06-29T13:54:06.237Z</time>
    </trkpt>
    <trkpt lat="56.513205" lon="61.013248">
        <ele>298.2</ele>
        <time>2022-06-29T13:54:07.387Z</time>
    </trkpt>
    <trkpt lat="56.513225" lon="61.013233">
        <ele>298.2</ele>
        <time>2022-06-29T13:54:08.463Z</time>
    </trkpt>
    <trkpt lat="56.513251" lon="61.013227">
        <ele>298.3</ele>
        <time>2022-06-29T13:54:09.766Z</time>
    </trkpt>
    <trkpt lat="56.513294" lon="61.013195">
        <ele>298.3</ele>
        <time>2022-06-29T13:54:12.078Z</time>
    </trkpt>
    <trkpt lat="56.513316" lon="61.013174">
        <ele>298.3</ele>
        <time>2022-06-29T13:54:13.314Z</time>
    </trkpt>
    <trkpt lat="56.513328" lon="61.013164">
        <ele>298.4</ele>
        <time>2022-06-29T13:54:13.970Z</time>
    </trkpt>
    <trkpt lat="56.513346" lon="61.013144">
        <ele>298.4</ele>
        <time>2022-06-29T13:54:15.020Z</time>
    </trkpt>
    <trkpt lat="56.513359" lon="61.01312">
        <ele>298.5</ele>
        <time>2022-06-29T13:54:15.942Z</time>
    </trkpt>
    <trkpt lat="56.513386" lon="61.013071">
        <ele>298.5</ele>
        <time>2022-06-29T13:54:17.842Z</time>
    </trkpt>
    <trkpt lat="56.513418" lon="61.013037">
        <ele>298.5</ele>
        <time>2022-06-29T13:54:19.686Z</time>
    </trkpt>
    <trkpt lat="56.513458" lon="61.013007">
        <ele>298.5</ele>
        <time>2022-06-29T13:54:21.839Z</time>
    </trkpt>
    <trkpt lat="56.513501" lon="61.012981">
        <ele>298.4</ele>
        <time>2022-06-29T13:54:24.093Z</time>
    </trkpt>
    <trkpt lat="56.513547" lon="61.012953">
        <ele>298.3</ele>
        <time>2022-06-29T13:54:26.506Z</time>
    </trkpt>
    <trkpt lat="56.513588" lon="61.012944">
        <ele>298.1</ele>
        <time>2022-06-29T13:54:28.560Z</time>
    </trkpt>
    <trkpt lat="56.513629" lon="61.012924">
        <ele>297.9</ele>
        <time>2022-06-29T13:54:30.671Z</time>
    </trkpt>
    <trkpt lat="56.513672" lon="61.012914">
        <ele>297.6</ele>
        <time>2022-06-29T13:54:32.827Z</time>
    </trkpt>
    <trkpt lat="56.513719" lon="61.012913">
        <ele>297.4</ele>
        <time>2022-06-29T13:54:35.164Z</time>
    </trkpt>
    <trkpt lat="56.513774" lon="61.012907">
        <ele>297.1</ele>
        <time>2022-06-29T13:54:37.904Z</time>
    </trkpt>
    <trkpt lat="56.513828" lon="61.012909">
        <ele>296.8</ele>
        <time>2022-06-29T13:54:40.590Z</time>
    </trkpt>
    <trkpt lat="56.513879" lon="61.012902">
        <ele>295.3</ele>
        <time>2022-06-29T13:54:43.133Z</time>
    </trkpt>
    <trkpt lat="56.513916" lon="61.012911">
        <ele>283.1</ele>
        <time>2022-06-29T13:54:44.989Z</time>
    </trkpt>
    <trkpt lat="56.513956" lon="61.012894">
        <ele>292.3</ele>
        <time>2022-06-29T13:54:47.032Z</time>
    </trkpt>
    <trkpt lat="56.513993" lon="61.012894">
        <ele>257.8</ele>
        <time>2022-06-29T13:54:48.872Z</time>
    </trkpt>
    <trkpt lat="56.514029" lon="61.012899">
        <ele>261.3</ele>
        <time>2022-06-29T13:54:50.667Z</time>
    </trkpt>
    <trkpt lat="56.514055" lon="61.012938">
        <ele>266.1</ele>
        <time>2022-06-29T13:54:52.345Z</time>
    </trkpt>
    <trkpt lat="56.514086" lon="61.012942">
        <ele>272.4</ele>
        <time>2022-06-29T13:54:53.890Z</time>
    </trkpt>
    <trkpt lat="56.514123" lon="61.012968">
        <ele>280.5</ele>
        <time>2022-06-29T13:54:55.863Z</time>
    </trkpt>
    <trkpt lat="56.514168" lon="61.012979">
        <ele>290.8</ele>
        <time>2022-06-29T13:54:58.121Z</time>
    </trkpt>
    <trkpt lat="56.514209" lon="61.012984">
        <ele>260.0</ele>
        <time>2022-06-29T13:55:00.164Z</time>
    </trkpt>
    <trkpt lat="56.514247" lon="61.013009">
        <ele>265.3</ele>
        <time>2022-06-29T13:55:02.174Z</time>
    </trkpt>
    <trkpt lat="56.514276" lon="61.013036">
        <ele>272.1</ele>
        <time>2022-06-29T13:55:03.795Z</time>
    </trkpt>
    <trkpt lat="56.514311" lon="61.013063">
        <ele>280.8</ele>
        <time>2022-06-29T13:55:05.686Z</time>
    </trkpt>
    <trkpt lat="56.514348" lon="61.013104">
        <ele>291.9</ele>
        <time>2022-06-29T13:55:07.842Z</time>
    </trkpt>
    <trkpt lat="56.514384" lon="61.013112">
        <ele>291.5</ele>
        <time>2022-06-29T13:55:09.645Z</time>
    </trkpt>
    <trkpt lat="56.514441" lon="61.013107">
        <ele>291.0</ele>
        <time>2022-06-29T13:55:12.483Z</time>
    </trkpt>
    <trkpt lat="56.514486" lon="61.013084">
        <ele>290.5</ele>
        <time>2022-06-29T13:55:14.808Z</time>
    </trkpt>
    <trkpt lat="56.514519" lon="61.0131">
        <ele>290.1</ele>
        <time>2022-06-29T13:55:16.507Z</time>
    </trkpt>
    <trkpt lat="56.514551" lon="61.01309">
        <ele>290.0</ele>
        <time>2022-06-29T13:55:18.122Z</time>
    </trkpt>
    <trkpt lat="56.514596" lon="61.013096">
        <ele>289.8</ele>
        <time>2022-06-29T13:55:20.366Z</time>
    </trkpt>
    <trkpt lat="56.514626" lon="61.013091">
        <ele>289.6</ele>
        <time>2022-06-29T13:55:21.864Z</time>
    </trkpt>
    <trkpt lat="56.514672" lon="61.013083">
        <ele>289.5</ele>
        <time>2022-06-29T13:55:24.162Z</time>
    </trkpt>
    <trkpt lat="56.51471" lon="61.013073">
        <ele>289.4</ele>
        <time>2022-06-29T13:55:26.071Z</time>
    </trkpt>
    <trkpt lat="56.514748" lon="61.013045">
        <ele>289.4</ele>
        <time>2022-06-29T13:55:28.111Z</time>
    </trkpt>
    <trkpt lat="56.514781" lon="61.013">
        <ele>289.1</ele>
        <time>2022-06-29T13:55:30.165Z</time>
    </trkpt>
    <trkpt lat="56.51482" lon="61.012943">
        <ele>286.9</ele>
        <time>2022-06-29T13:55:32.656Z</time>
    </trkpt>
    <trkpt lat="56.514863" lon="61.012894">
        <ele>264.1</ele>
        <time>2022-06-29T13:55:35.182Z</time>
    </trkpt>
    <trkpt lat="56.514917" lon="61.01284">
        <ele>270.8</ele>
        <time>2022-06-29T13:55:38.249Z</time>
    </trkpt>
    <trkpt lat="56.514969" lon="61.012781">
        <ele>279.2</ele>
        <time>2022-06-29T13:55:41.300Z</time>
    </trkpt>
    <trkpt lat="56.515013" lon="61.012708">
        <ele>289.9</ele>
        <time>2022-06-29T13:55:44.266Z</time>
    </trkpt>
    <trkpt lat="56.515036" lon="61.01261">
        <ele>287.6</ele>
        <time>2022-06-29T13:55:47.188Z</time>
    </trkpt>
    <trkpt lat="56.515049" lon="61.012518">
        <ele>263.7</ele>
        <time>2022-06-29T13:55:49.794Z</time>
    </trkpt>
    <trkpt lat="56.515067" lon="61.012406">
        <ele>270.5</ele>
        <time>2022-06-29T13:55:52.995Z</time>
    </trkpt>
    <trkpt lat="56.515076" lon="61.012336">
        <ele>278.9</ele>
        <time>2022-06-29T13:55:54.967Z</time>
    </trkpt>
    <trkpt lat="56.515087" lon="61.012274">
        <ele>289.2</ele>
        <time>2022-06-29T13:55:56.754Z</time>
    </trkpt>
    <trkpt lat="56.515109" lon="61.012216">
        <ele>279.9</ele>
        <time>2022-06-29T13:55:58.685Z</time>
    </trkpt>
    <trkpt lat="56.515132" lon="61.01215">
        <ele>290.1</ele>
        <time>2022-06-29T13:56:00.827Z</time>
    </trkpt>
    <trkpt lat="56.515154" lon="61.012082">
        <ele>290.1</ele>
        <time>2022-06-29T13:56:02.990Z</time>
    </trkpt>
    <trkpt lat="56.515189" lon="61.012021">
        <ele>290.1</ele>
        <time>2022-06-29T13:56:05.405Z</time>
    </trkpt>
    <trkpt lat="56.515198" lon="61.01196">
        <ele>290.2</ele>
        <time>2022-06-29T13:56:07.137Z</time>
    </trkpt>
    <trkpt lat="56.515225" lon="61.011884">
        <ele>290.3</ele>
        <time>2022-06-29T13:56:09.617Z</time>
    </trkpt>
    <trkpt lat="56.515246" lon="61.011789">
        <ele>290.4</ele>
        <time>2022-06-29T13:56:12.425Z</time>
    </trkpt>
    <trkpt lat="56.515273" lon="61.011698">
        <ele>290.6</ele>
        <time>2022-06-29T13:56:15.260Z</time>
    </trkpt>
    <trkpt lat="56.515308" lon="61.011621">
        <ele>290.8</ele>
        <time>2022-06-29T13:56:17.997Z</time>
    </trkpt>
    <trkpt lat="56.51534" lon="61.01151">
        <ele>290.9</ele>
        <time>2022-06-29T13:56:21.433Z</time>
    </trkpt>
    <trkpt lat="56.515382" lon="61.011441">
        <ele>291.1</ele>
        <time>2022-06-29T13:56:24.252Z</time>
    </trkpt>
    <trkpt lat="56.51541" lon="61.011352">
        <ele>291.1</ele>
        <time>2022-06-29T13:56:27.063Z</time>
    </trkpt>
    <trkpt lat="56.51543" lon="61.011267">
        <ele>291.2</ele>
        <time>2022-06-29T13:56:29.598Z</time>
    </trkpt>
    <trkpt lat="56.515449" lon="61.01121">
        <ele>291.2</ele>
        <time>2022-06-29T13:56:31.425Z</time>
    </trkpt>
    <trkpt lat="56.515461" lon="61.011147">
        <ele>291.2</ele>
        <time>2022-06-29T13:56:33.253Z</time>
    </trkpt>
    <trkpt lat="56.515479" lon="61.011106">
        <ele>291.1</ele>
        <time>2022-06-29T13:56:34.690Z</time>
    </trkpt>
    <trkpt lat="56.515502" lon="61.011073">
        <ele>291.1</ele>
        <time>2022-06-29T13:56:36.149Z</time>
    </trkpt>
    <trkpt lat="56.515525" lon="61.011043">
        <ele>291.0</ele>
        <time>2022-06-29T13:56:37.558Z</time>
    </trkpt>
    <trkpt lat="56.515542" lon="61.010995">
        <ele>291.0</ele>
        <time>2022-06-29T13:56:39.123Z</time>
    </trkpt>
    <trkpt lat="56.515552" lon="61.010931">
        <ele>290.9</ele>
        <time>2022-06-29T13:56:40.948Z</time>
    </trkpt>
    <trkpt lat="56.515567" lon="61.010848">
        <ele>290.9</ele>
        <time>2022-06-29T13:56:43.344Z</time>
    </trkpt>
    <trkpt lat="56.515585" lon="61.010766">
        <ele>291.0</ele>
        <time>2022-06-29T13:56:45.765Z</time>
    </trkpt>
    <trkpt lat="56.515604" lon="61.010685">
        <ele>291.1</ele>
        <time>2022-06-29T13:56:48.180Z</time>
    </trkpt>
    <trkpt lat="56.515626" lon="61.010589">
        <ele>291.2</ele>
        <time>2022-06-29T13:56:51.032Z</time>
    </trkpt>
    <trkpt lat="56.515649" lon="61.010514">
        <ele>291.4</ele>
        <time>2022-06-29T13:56:53.386Z</time>
    </trkpt>
    <trkpt lat="56.515677" lon="61.010431">
        <ele>291.5</ele>
        <time>2022-06-29T13:56:56.055Z</time>
    </trkpt>
    <trkpt lat="56.51571" lon="61.010362">
        <ele>291.6</ele>
        <time>2022-06-29T13:56:58.560Z</time>
    </trkpt>
    <trkpt lat="56.51574" lon="61.010281">
        <ele>291.6</ele>
        <time>2022-06-29T13:57:01.237Z</time>
    </trkpt>
    <trkpt lat="56.515776" lon="61.010193">
        <ele>291.5</ele>
        <time>2022-06-29T13:57:04.243Z</time>
    </trkpt>
    <trkpt lat="56.51581" lon="61.01014">
        <ele>291.4</ele>
        <time>2022-06-29T13:57:06.473Z</time>
    </trkpt>
    <trkpt lat="56.515833" lon="61.010071">
        <ele>291.3</ele>
        <time>2022-06-29T13:57:08.685Z</time>
    </trkpt>
    <trkpt lat="56.515862" lon="61.010012">
        <ele>291.1</ele>
        <time>2022-06-29T13:57:10.853Z</time>
    </trkpt>
    <trkpt lat="56.515892" lon="61.009941">
        <ele>290.9</ele>
        <time>2022-06-29T13:57:13.307Z</time>
    </trkpt>
    <trkpt lat="56.515921" lon="61.00985">
        <ele>290.8</ele>
        <time>2022-06-29T13:57:16.190Z</time>
    </trkpt>
    <trkpt lat="56.515952" lon="61.009787">
        <ele>290.6</ele>
        <time>2022-06-29T13:57:18.506Z</time>
    </trkpt>
    <trkpt lat="56.515986" lon="61.00974">
        <ele>290.5</ele>
        <time>2022-06-29T13:57:20.632Z</time>
    </trkpt>
    <trkpt lat="56.516012" lon="61.009685">
        <ele>290.4</ele>
        <time>2022-06-29T13:57:22.619Z</time>
    </trkpt>
    <trkpt lat="56.516033" lon="61.009628">
        <ele>290.3</ele>
        <time>2022-06-29T13:57:24.499Z</time>
    </trkpt>
    <trkpt lat="56.516059" lon="61.009573">
        <ele>290.3</ele>
        <time>2022-06-29T13:57:26.486Z</time>
    </trkpt>
    <trkpt lat="56.516082" lon="61.009518">
        <ele>290.1</ele>
        <time>2022-06-29T13:57:28.379Z</time>
    </trkpt>
    <trkpt lat="56.516093" lon="61.009438">
        <ele>290.0</ele>
        <time>2022-06-29T13:57:30.641Z</time>
    </trkpt>
    <trkpt lat="56.516106" lon="61.009362">
        <ele>289.9</ele>
        <time>2022-06-29T13:57:32.824Z</time>
    </trkpt>
    <trkpt lat="56.516098" lon="61.009285">
        <ele>289.7</ele>
        <time>2022-06-29T13:57:34.974Z</time>
    </trkpt>
    <trkpt lat="56.516092" lon="61.009215">
        <ele>289.6</ele>
        <time>2022-06-29T13:57:36.917Z</time>
    </trkpt>
    <trkpt lat="56.516077" lon="61.009144">
        <ele>289.6</ele>
        <time>2022-06-29T13:57:39.003Z</time>
    </trkpt>
    <trkpt lat="56.516074" lon="61.009066">
        <ele>289.6</ele>
        <time>2022-06-29T13:57:41.148Z</time>
    </trkpt>
    <trkpt lat="56.516074" lon="61.008987">
        <ele>289.5</ele>
        <time>2022-06-29T13:57:43.315Z</time>
    </trkpt>
    <trkpt lat="56.516065" lon="61.008908">
        <ele>289.5</ele>
        <time>2022-06-29T13:57:45.528Z</time>
    </trkpt>
    <trkpt lat="56.516068" lon="61.008846">
        <ele>289.3</ele>
        <time>2022-06-29T13:57:47.235Z</time>
    </trkpt>
    <trkpt lat="56.516061" lon="61.008792">
        <ele>289.2</ele>
        <time>2022-06-29T13:57:48.757Z</time>
    </trkpt>
    <trkpt lat="56.516055" lon="61.008735">
        <ele>289.1</ele>
        <time>2022-06-29T13:57:50.349Z</time>
    </trkpt>
    <trkpt lat="56.516052" lon="61.008656">
        <ele>289.0</ele>
        <time>2022-06-29T13:57:52.521Z</time>
    </trkpt>
    <trkpt lat="56.516047" lon="61.008578">
        <ele>289.1</ele>
        <time>2022-06-29T13:57:54.675Z</time>
    </trkpt>
    <trkpt lat="56.51605" lon="61.008516">
        <ele>289.2</ele>
        <time>2022-06-29T13:57:56.382Z</time>
    </trkpt>
    <trkpt lat="56.516056" lon="61.008468">
        <ele>289.2</ele>
        <time>2022-06-29T13:57:57.732Z</time>
    </trkpt>
    <trkpt lat="56.516057" lon="61.008413">
        <ele>289.2</ele>
        <time>2022-06-29T13:57:59.242Z</time>
    </trkpt>
    <trkpt lat="56.516058" lon="61.00834">
        <ele>289.7</ele>
        <time>2022-06-29T13:58:01.245Z</time>
    </trkpt>
    <trkpt lat="56.51607" lon="61.008291">
        <ele>290.1</ele>
        <time>2022-06-29T13:58:02.716Z</time>
    </trkpt>
    <trkpt lat="56.516077" lon="61.008246">
        <ele>290.1</ele>
        <time>2022-06-29T13:58:03.998Z</time>
    </trkpt>
    <trkpt lat="56.51608" lon="61.008239">
        <ele>290.2</ele>
        <time>2022-06-29T13:58:04.241Z</time>
    </trkpt>
    <trkpt lat="56.51608" lon="61.008236">
        <ele>290.2</ele>
        <time>2022-06-29T13:58:04.323Z</time>
    </trkpt>
    <trkpt lat="56.516081" lon="61.008233">
        <ele>290.2</ele>
        <time>2022-06-29T13:58:04.419Z</time>
    </trkpt>
    <trkpt lat="56.516081" lon="61.008237">
        <ele>290.2</ele>
        <time>2022-06-29T13:58:04.528Z</time>
    </trkpt>
    <trkpt lat="56.51608" lon="61.008237">
        <ele>290.2</ele>
        <time>2022-06-29T13:58:04.577Z</time>
    </trkpt>
    <trkpt lat="56.516078" lon="61.008233">
        <ele>290.2</ele>
        <time>2022-06-29T13:58:04.725Z</time>
    </trkpt>
    <trkpt lat="56.516078" lon="61.008232">
        <ele>290.2</ele>
        <time>2022-06-29T13:58:04.752Z</time>
    </trkpt>
    <trkpt lat="56.516077" lon="61.008231">
        <ele>290.2</ele>
        <time>2022-06-29T13:58:04.808Z</time>
    </trkpt>
    <trkpt lat="56.516077" lon="61.00823">
        <ele>290.2</ele>
        <time>2022-06-29T13:58:04.835Z</time>
    </trkpt>
    <trkpt lat="56.516077" lon="61.008229">
        <ele>290.2</ele>
        <time>2022-06-29T13:58:04.862Z</time>
    </trkpt>
    <trkpt lat="56.516076" lon="61.008227">
        <ele>290.2</ele>
        <time>2022-06-29T13:58:04.936Z</time>
    </trkpt>
    <trkpt lat="56.516076" lon="61.008225">
        <ele>290.2</ele>
        <time>2022-06-29T13:58:04.990Z</time>
    </trkpt>
    <trkpt lat="56.516076" lon="61.008222">
        <ele>290.3</ele>
        <time>2022-06-29T13:58:05.072Z</time>
    </trkpt>
    <trkpt lat="56.516075" lon="61.008209">
        <ele>290.3</ele>
        <time>2022-06-29T13:58:05.432Z</time>
    </trkpt>
    <trkpt lat="56.516071" lon="61.008197">
        <ele>290.3</ele>
        <time>2022-06-29T13:58:05.816Z</time>
    </trkpt>
    <trkpt lat="56.516064" lon="61.008185">
        <ele>290.3</ele>
        <time>2022-06-29T13:58:06.295Z</time>
    </trkpt>
    <trkpt lat="56.516064" lon="61.008184">
        <ele>290.3</ele>
        <time>2022-06-29T13:58:06.322Z</time>
    </trkpt>
    <trkpt lat="56.516063" lon="61.008182">
        <ele>290.3</ele>
        <time>2022-06-29T13:58:06.396Z</time>
    </trkpt>
    <trkpt lat="56.516062" lon="61.00818">
        <ele>290.5</ele>
        <time>2022-06-29T13:58:06.470Z</time>
    </trkpt>
    <trkpt lat="56.516061" lon="61.008176">
        <ele>292.7</ele>
        <time>2022-06-29T13:58:06.590Z</time>
    </trkpt>
    <trkpt lat="56.516058" lon="61.008158">
        <ele>292.9</ele>
        <time>2022-06-29T13:58:07.105Z</time>
    </trkpt>
    <trkpt lat="56.516059" lon="61.008151">
        <ele>293.2</ele>
        <time>2022-06-29T13:58:07.303Z</time>
    </trkpt>
    <trkpt lat="56.516068" lon="61.008133">
        <ele>293.5</ele>
        <time>2022-06-29T13:58:07.969Z</time>
    </trkpt>
    <trkpt lat="56.516075" lon="61.008109">
        <ele>293.8</ele>
        <time>2022-06-29T13:58:08.713Z</time>
    </trkpt>
    <trkpt lat="56.516081" lon="61.008073">
        <ele>294.1</ele>
        <time>2022-06-29T13:58:09.744Z</time>
    </trkpt>
    <trkpt lat="56.516085" lon="61.008053">
        <ele>294.5</ele>
        <time>2022-06-29T13:58:10.327Z</time>
    </trkpt>
    <trkpt lat="56.5161" lon="61.008028">
        <ele>294.8</ele>
        <time>2022-06-29T13:58:11.340Z</time>
    </trkpt>
    <trkpt lat="56.516114" lon="61.008013">
        <ele>295.1</ele>
        <time>2022-06-29T13:58:12.148Z</time>
    </trkpt>
    <trkpt lat="56.516128" lon="61.007977">
        <ele>295.5</ele>
        <time>2022-06-29T13:58:13.356Z</time>
    </trkpt>
    <trkpt lat="56.516151" lon="61.007911">
        <ele>295.9</ele>
        <time>2022-06-29T13:58:15.498Z</time>
    </trkpt>
    <trkpt lat="56.516166" lon="61.007848">
        <ele>296.3</ele>
        <time>2022-06-29T13:58:17.380Z</time>
    </trkpt>
    <trkpt lat="56.516189" lon="61.007774">
        <ele>296.7</ele>
        <time>2022-06-29T13:58:19.710Z</time>
    </trkpt>
    <trkpt lat="56.516201" lon="61.007692">
        <ele>297.0</ele>
        <time>2022-06-29T13:58:22.037Z</time>
    </trkpt>
    <trkpt lat="56.516211" lon="61.007614">
        <ele>297.3</ele>
        <time>2022-06-29T13:58:24.234Z</time>
    </trkpt>
    <trkpt lat="56.516216" lon="61.00756">
        <ele>297.6</ele>
        <time>2022-06-29T13:58:25.736Z</time>
    </trkpt>
    <trkpt lat="56.516221" lon="61.007505">
        <ele>297.8</ele>
        <time>2022-06-29T13:58:27.265Z</time>
    </trkpt>
    <trkpt lat="56.516212" lon="61.007444">
        <ele>298.0</ele>
        <time>2022-06-29T13:58:28.997Z</time>
    </trkpt>
    <trkpt lat="56.516203" lon="61.007408">
        <ele>298.1</ele>
        <time>2022-06-29T13:58:30.081Z</time>
    </trkpt>
    <trkpt lat="56.516202" lon="61.007357">
        <ele>298.2</ele>
        <time>2022-06-29T13:58:31.481Z</time>
    </trkpt>
    <trkpt lat="56.516198" lon="61.0073">
        <ele>298.3</ele>
        <time>2022-06-29T13:58:33.057Z</time>
    </trkpt>
    <trkpt lat="56.516203" lon="61.007241">
        <ele>298.2</ele>
        <time>2022-06-29T13:58:34.694Z</time>
    </trkpt>
    <trkpt lat="56.516213" lon="61.007195">
        <ele>298.2</ele>
        <time>2022-06-29T13:58:36.050Z</time>
    </trkpt>
    <trkpt lat="56.51623" lon="61.007172">
        <ele>298.1</ele>
        <time>2022-06-29T13:58:37.105Z</time>
    </trkpt>
    <trkpt lat="56.516251" lon="61.007121">
        <ele>298.0</ele>
        <time>2022-06-29T13:58:38.851Z</time>
    </trkpt>
    <trkpt lat="56.516282" lon="61.007065">
        <ele>297.9</ele>
        <time>2022-06-29T13:58:41.027Z</time>
    </trkpt>
    <trkpt lat="56.516312" lon="61.007008">
        <ele>297.8</ele>
        <time>2022-06-29T13:58:43.188Z</time>
    </trkpt>
    <trkpt lat="56.516348" lon="61.006943">
        <ele>297.6</ele>
        <time>2022-06-29T13:58:45.715Z</time>
    </trkpt>
    <trkpt lat="56.516384" lon="61.006887">
        <ele>297.4</ele>
        <time>2022-06-29T13:58:48.074Z</time>
    </trkpt>
    <trkpt lat="56.51642" lon="61.006814">
        <ele>297.2</ele>
        <time>2022-06-29T13:58:50.760Z</time>
    </trkpt>
    <trkpt lat="56.516459" lon="61.006741">
        <ele>297.0</ele>
        <time>2022-06-29T13:58:53.548Z</time>
    </trkpt>
    <trkpt lat="56.516483" lon="61.006658">
        <ele>296.8</ele>
        <time>2022-06-29T13:58:56.119Z</time>
    </trkpt>
    <trkpt lat="56.516519" lon="61.006593">
        <ele>296.5</ele>
        <time>2022-06-29T13:58:58.646Z</time>
    </trkpt>
    <trkpt lat="56.516553" lon="61.006512">
        <ele>296.3</ele>
        <time>2022-06-29T13:59:01.438Z</time>
    </trkpt>
    <trkpt lat="56.516586" lon="61.006428">
        <ele>296.0</ele>
        <time>2022-06-29T13:59:04.267Z</time>
    </trkpt>
    <trkpt lat="56.516629" lon="61.006347">
        <ele>295.8</ele>
        <time>2022-06-29T13:59:07.351Z</time>
    </trkpt>
    <trkpt lat="56.516666" lon="61.006273">
        <ele>295.6</ele>
        <time>2022-06-29T13:59:10.091Z</time>
    </trkpt>
    <trkpt lat="56.516714" lon="61.006183">
        <ele>295.4</ele>
        <time>2022-06-29T13:59:13.525Z</time>
    </trkpt>
    <trkpt lat="56.516755" lon="61.006095">
        <ele>295.3</ele>
        <time>2022-06-29T13:59:16.685Z</time>
    </trkpt>
    <trkpt lat="56.516795" lon="61.006013">
        <ele>295.1</ele>
        <time>2022-06-29T13:59:19.688Z</time>
    </trkpt>
    <trkpt lat="56.516827" lon="61.005954">
        <ele>295.0</ele>
        <time>2022-06-29T13:59:21.958Z</time>
    </trkpt>
    <trkpt lat="56.516873" lon="61.005889">
        <ele>294.9</ele>
        <time>2022-06-29T13:59:24.859Z</time>
    </trkpt>
    <trkpt lat="56.516924" lon="61.005828">
        <ele>294.9</ele>
        <time>2022-06-29T13:59:27.898Z</time>
    </trkpt>
    <trkpt lat="56.51698" lon="61.005789">
        <ele>294.8</ele>
        <time>2022-06-29T13:59:30.881Z</time>
    </trkpt>
    <trkpt lat="56.517032" lon="61.005762">
        <ele>294.8</ele>
        <time>2022-06-29T13:59:33.571Z</time>
    </trkpt>
    <trkpt lat="56.517093" lon="61.005725">
        <ele>294.7</ele>
        <time>2022-06-29T13:59:36.770Z</time>
    </trkpt>
    <trkpt lat="56.51716" lon="61.00568">
        <ele>294.6</ele>
        <time>2022-06-29T13:59:40.323Z</time>
    </trkpt>
    <trkpt lat="56.517228" lon="61.005627">
        <ele>294.5</ele>
        <time>2022-06-29T13:59:44.004Z</time>
    </trkpt>
    <trkpt lat="56.517283" lon="61.005581">
        <ele>294.5</ele>
        <time>2022-06-29T13:59:47.016Z</time>
    </trkpt>
    <trkpt lat="56.517336" lon="61.005547">
        <ele>294.4</ele>
        <time>2022-06-29T13:59:49.812Z</time>
    </trkpt>
    <trkpt lat="56.517386" lon="61.0055">
        <ele>294.4</ele>
        <time>2022-06-29T13:59:52.613Z</time>
    </trkpt>
    <trkpt lat="56.517443" lon="61.005453">
        <ele>294.4</ele>
        <time>2022-06-29T13:59:55.727Z</time>
    </trkpt>
    <trkpt lat="56.517488" lon="61.005413">
        <ele>294.5</ele>
        <time>2022-06-29T13:59:58.219Z</time>
    </trkpt>
    <trkpt lat="56.517539" lon="61.005375">
        <ele>294.7</ele>
        <time>2022-06-29T14:00:00.961Z</time>
    </trkpt>
    <trkpt lat="56.517589" lon="61.005342">
        <ele>295.0</ele>
        <time>2022-06-29T14:00:03.607Z</time>
    </trkpt>
    <trkpt lat="56.517639" lon="61.005304">
        <ele>295.4</ele>
        <time>2022-06-29T14:00:06.303Z</time>
    </trkpt>
    <trkpt lat="56.517685" lon="61.005266">
        <ele>296.0</ele>
        <time>2022-06-29T14:00:08.817Z</time>
    </trkpt>
    <trkpt lat="56.517734" lon="61.005215">
        <ele>296.6</ele>
        <time>2022-06-29T14:00:11.627Z</time>
    </trkpt>
    <trkpt lat="56.517782" lon="61.005171">
        <ele>297.2</ele>
        <time>2022-06-29T14:00:14.302Z</time>
    </trkpt>
    <trkpt lat="56.517826" lon="61.005128">
        <ele>298.0</ele>
        <time>2022-06-29T14:00:16.788Z</time>
    </trkpt>
    <trkpt lat="56.517869" lon="61.005087">
        <ele>298.7</ele>
        <time>2022-06-29T14:00:19.204Z</time>
    </trkpt>
    <trkpt lat="56.51791" lon="61.005059">
        <ele>299.5</ele>
        <time>2022-06-29T14:00:21.383Z</time>
    </trkpt>
    <trkpt lat="56.517948" lon="61.005">
        <ele>300.2</ele>
        <time>2022-06-29T14:00:23.871Z</time>
    </trkpt>
    <trkpt lat="56.517977" lon="61.004981">
        <ele>301.1</ele>
        <time>2022-06-29T14:00:25.404Z</time>
    </trkpt>
    <trkpt lat="56.518001" lon="61.004956">
        <ele>301.9</ele>
        <time>2022-06-29T14:00:26.780Z</time>
    </trkpt>
    <trkpt lat="56.518027" lon="61.004925">
        <ele>302.0</ele>
        <time>2022-06-29T14:00:28.327Z</time>
    </trkpt>
    <trkpt lat="56.518063" lon="61.004873">
        <ele>302.2</ele>
        <time>2022-06-29T14:00:30.616Z</time>
    </trkpt>
    <trkpt lat="56.518104" lon="61.004831">
        <ele>302.6</ele>
        <time>2022-06-29T14:00:32.958Z</time>
    </trkpt>
    <trkpt lat="56.518136" lon="61.004792">
        <ele>303.0</ele>
        <time>2022-06-29T14:00:34.875Z</time>
    </trkpt>
    <trkpt lat="56.518162" lon="61.004762">
        <ele>303.3</ele>
        <time>2022-06-29T14:00:36.407Z</time>
    </trkpt>
    <trkpt lat="56.518199" lon="61.004717">
        <ele>303.6</ele>
        <time>2022-06-29T14:00:38.623Z</time>
    </trkpt>
    <trkpt lat="56.518234" lon="61.004677">
        <ele>303.9</ele>
        <time>2022-06-29T14:00:40.680Z</time>
    </trkpt>
    <trkpt lat="56.518266" lon="61.004639">
        <ele>304.2</ele>
        <time>2022-06-29T14:00:42.582Z</time>
    </trkpt>
    <trkpt lat="56.518295" lon="61.004584">
        <ele>304.5</ele>
        <time>2022-06-29T14:00:44.669Z</time>
    </trkpt>
    <trkpt lat="56.51833" lon="61.004545">
        <ele>304.8</ele>
        <time>2022-06-29T14:00:46.712Z</time>
    </trkpt>
    <trkpt lat="56.518379" lon="61.004529">
        <ele>305.1</ele>
        <time>2022-06-29T14:00:49.188Z</time>
    </trkpt>
    <trkpt lat="56.518425" lon="61.004519">
        <ele>305.4</ele>
        <time>2022-06-29T14:00:51.492Z</time>
    </trkpt>
    <trkpt lat="56.518473" lon="61.004511">
        <ele>305.6</ele>
        <time>2022-06-29T14:00:53.889Z</time>
    </trkpt>
    <trkpt lat="56.518522" lon="61.004502">
        <ele>305.8</ele>
        <time>2022-06-29T14:00:56.338Z</time>
    </trkpt>
    <trkpt lat="56.518569" lon="61.0045">
        <ele>305.8</ele>
        <time>2022-06-29T14:00:58.676Z</time>
    </trkpt>
    <trkpt lat="56.518614" lon="61.004516">
        <ele>305.8</ele>
        <time>2022-06-29T14:01:00.956Z</time>
    </trkpt>
    <trkpt lat="56.518667" lon="61.004544">
        <ele>305.9</ele>
        <time>2022-06-29T14:01:03.701Z</time>
    </trkpt>
    <trkpt lat="56.518716" lon="61.004573">
        <ele>305.9</ele>
        <time>2022-06-29T14:01:06.264Z</time>
    </trkpt>
    <trkpt lat="56.518756" lon="61.004596">
        <ele>305.8</ele>
        <time>2022-06-29T14:01:08.351Z</time>
    </trkpt>
    <trkpt lat="56.518805" lon="61.004631">
        <ele>305.8</ele>
        <time>2022-06-29T14:01:10.970Z</time>
    </trkpt>
    <trkpt lat="56.518838" lon="61.00465">
        <ele>305.8</ele>
        <time>2022-06-29T14:01:12.692Z</time>
    </trkpt>
    <trkpt lat="56.518873" lon="61.004661">
        <ele>305.8</ele>
        <time>2022-06-29T14:01:14.458Z</time>
    </trkpt>
    <trkpt lat="56.518903" lon="61.004665">
        <ele>305.7</ele>
        <time>2022-06-29T14:01:15.954Z</time>
    </trkpt>
    <trkpt lat="56.518928" lon="61.00467">
        <ele>305.7</ele>
        <time>2022-06-29T14:01:17.205Z</time>
    </trkpt>
    <trkpt lat="56.518959" lon="61.004668">
        <ele>305.7</ele>
        <time>2022-06-29T14:01:18.747Z</time>
    </trkpt>
    <trkpt lat="56.518991" lon="61.004653">
        <ele>305.6</ele>
        <time>2022-06-29T14:01:20.390Z</time>
    </trkpt>
    <trkpt lat="56.519035" lon="61.004667">
        <ele>305.6</ele>
        <time>2022-06-29T14:01:22.611Z</time>
    </trkpt>
    <trkpt lat="56.519082" lon="61.004689">
        <ele>305.7</ele>
        <time>2022-06-29T14:01:25.025Z</time>
    </trkpt>
    <trkpt lat="56.519125" lon="61.004681">
        <ele>305.7</ele>
        <time>2022-06-29T14:01:27.174Z</time>
    </trkpt>
    <trkpt lat="56.519171" lon="61.004672">
        <ele>305.8</ele>
        <time>2022-06-29T14:01:29.475Z</time>
    </trkpt>
    <trkpt lat="56.519211" lon="61.00465">
        <ele>305.9</ele>
        <time>2022-06-29T14:01:31.554Z</time>
    </trkpt>
    <trkpt lat="56.519246" lon="61.00465">
        <ele>306.0</ele>
        <time>2022-06-29T14:01:33.294Z</time>
    </trkpt>
    <trkpt lat="56.519277" lon="61.004611">
        <ele>306.1</ele>
        <time>2022-06-29T14:01:35.170Z</time>
    </trkpt>
    <trkpt lat="56.519321" lon="61.004573">
        <ele>306.2</ele>
        <time>2022-06-29T14:01:37.594Z</time>
    </trkpt>
    <trkpt lat="56.519358" lon="61.00454">
        <ele>306.3</ele>
        <time>2022-06-29T14:01:39.645Z</time>
    </trkpt>
    <trkpt lat="56.519395" lon="61.004514">
        <ele>306.4</ele>
        <time>2022-06-29T14:01:41.618Z</time>
    </trkpt>
    <trkpt lat="56.519425" lon="61.004482">
        <ele>306.5</ele>
        <time>2022-06-29T14:01:43.349Z</time>
    </trkpt>
    <trkpt lat="56.519453" lon="61.004454">
        <ele>306.5</ele>
        <time>2022-06-29T14:01:44.939Z</time>
    </trkpt>
    <trkpt lat="56.519481" lon="61.004439">
        <ele>306.6</ele>
        <time>2022-06-29T14:01:46.391Z</time>
    </trkpt>
    <trkpt lat="56.519504" lon="61.004424">
        <ele>306.6</ele>
        <time>2022-06-29T14:01:47.606Z</time>
    </trkpt>
    <trkpt lat="56.519522" lon="61.004413">
        <ele>306.6</ele>
        <time>2022-06-29T14:01:48.550Z</time>
    </trkpt>
    <trkpt lat="56.51954" lon="61.004378">
        <ele>306.6</ele>
        <time>2022-06-29T14:01:49.862Z</time>
    </trkpt>
    <trkpt lat="56.519563" lon="61.004351">
        <ele>306.7</ele>
        <time>2022-06-29T14:01:51.224Z</time>
    </trkpt>
    <trkpt lat="56.519594" lon="61.004313">
        <ele>306.7</ele>
        <time>2022-06-29T14:01:53.085Z</time>
    </trkpt>
    <trkpt lat="56.519629" lon="61.004286">
        <ele>306.7</ele>
        <time>2022-06-29T14:01:54.976Z</time>
    </trkpt>
    <trkpt lat="56.519665" lon="61.004266">
        <ele>306.6</ele>
        <time>2022-06-29T14:01:56.848Z</time>
    </trkpt>
    <trkpt lat="56.519687" lon="61.004254">
        <ele>306.6</ele>
        <time>2022-06-29T14:01:57.990Z</time>
    </trkpt>
    <trkpt lat="56.519715" lon="61.004235">
        <ele>306.5</ele>
        <time>2022-06-29T14:01:59.477Z</time>
    </trkpt>
    <trkpt lat="56.519742" lon="61.004231">
        <ele>306.5</ele>
        <time>2022-06-29T14:02:00.824Z</time>
    </trkpt>
    <trkpt lat="56.519779" lon="61.004208">
        <ele>306.4</ele>
        <time>2022-06-29T14:02:02.769Z</time>
    </trkpt>
    <trkpt lat="56.519822" lon="61.004178">
        <ele>306.5</ele>
        <time>2022-06-29T14:02:05.060Z</time>
    </trkpt>
    <trkpt lat="56.519862" lon="61.004187">
        <ele>306.5</ele>
        <time>2022-06-29T14:02:07.064Z</time>
    </trkpt>
    <trkpt lat="56.519895" lon="61.004198">
        <ele>306.6</ele>
        <time>2022-06-29T14:02:08.732Z</time>
    </trkpt>
    <trkpt lat="56.51993" lon="61.00422">
        <ele>306.7</ele>
        <time>2022-06-29T14:02:10.574Z</time>
    </trkpt>
    <trkpt lat="56.519977" lon="61.004251">
        <ele>306.8</ele>
        <time>2022-06-29T14:02:13.061Z</time>
    </trkpt>
    <trkpt lat="56.520015" lon="61.004265">
        <ele>306.9</ele>
        <time>2022-06-29T14:02:14.989Z</time>
    </trkpt>
    <trkpt lat="56.52006" lon="61.004267">
        <ele>307.1</ele>
        <time>2022-06-29T14:02:17.227Z</time>
    </trkpt>
    <trkpt lat="56.520102" lon="61.004294">
        <ele>307.3</ele>
        <time>2022-06-29T14:02:19.443Z</time>
    </trkpt>
    <trkpt lat="56.520151" lon="61.004295">
        <ele>307.5</ele>
        <time>2022-06-29T14:02:21.880Z</time>
    </trkpt>
    <trkpt lat="56.520199" lon="61.004326">
        <ele>307.8</ele>
        <time>2022-06-29T14:02:24.414Z</time>
    </trkpt>
    <trkpt lat="56.520231" lon="61.004357">
        <ele>308.1</ele>
        <time>2022-06-29T14:02:26.218Z</time>
    </trkpt>
    <trkpt lat="56.520269" lon="61.004372">
        <ele>308.5</ele>
        <time>2022-06-29T14:02:28.152Z</time>
    </trkpt>
    <trkpt lat="56.520309" lon="61.00439">
        <ele>308.9</ele>
        <time>2022-06-29T14:02:30.201Z</time>
    </trkpt>
    <trkpt lat="56.520359" lon="61.004424">
        <ele>309.2</ele>
        <time>2022-06-29T14:02:32.857Z</time>
    </trkpt>
    <trkpt lat="56.520426" lon="61.004457">
        <ele>309.4</ele>
        <time>2022-06-29T14:02:36.310Z</time>
    </trkpt>
    <trkpt lat="56.520497" lon="61.004483">
        <ele>309.5</ele>
        <time>2022-06-29T14:02:39.912Z</time>
    </trkpt>
    <trkpt lat="56.520558" lon="61.004495">
        <ele>309.6</ele>
        <time>2022-06-29T14:02:42.963Z</time>
    </trkpt>
    <trkpt lat="56.520603" lon="61.00452">
        <ele>309.6</ele>
        <time>2022-06-29T14:02:45.303Z</time>
    </trkpt>
    <trkpt lat="56.520636" lon="61.004556">
        <ele>309.6</ele>
        <time>2022-06-29T14:02:47.218Z</time>
    </trkpt>
    <trkpt lat="56.520668" lon="61.004558">
        <ele>309.6</ele>
        <time>2022-06-29T14:02:48.810Z</time>
    </trkpt>
    <trkpt lat="56.52071" lon="61.004541">
        <ele>309.5</ele>
        <time>2022-06-29T14:02:50.950Z</time>
    </trkpt>
    <trkpt lat="56.520729" lon="61.004531">
        <ele>309.5</ele>
        <time>2022-06-29T14:02:51.934Z</time>
    </trkpt>
    <trkpt lat="56.520757" lon="61.004507">
        <ele>309.4</ele>
        <time>2022-06-29T14:02:53.474Z</time>
    </trkpt>
    <trkpt lat="56.520775" lon="61.004509">
        <ele>309.3</ele>
        <time>2022-06-29T14:02:54.370Z</time>
    </trkpt>
    <trkpt lat="56.520796" lon="61.004521">
        <ele>309.3</ele>
        <time>2022-06-29T14:02:55.465Z</time>
    </trkpt>
    <trkpt lat="56.520837" lon="61.00456">
        <ele>309.1</ele>
        <time>2022-06-29T14:02:57.767Z</time>
    </trkpt>
    <trkpt lat="56.520868" lon="61.004606">
        <ele>309.0</ele>
        <time>2022-06-29T14:02:59.759Z</time>
    </trkpt>
    <trkpt lat="56.5209" lon="61.004647">
        <ele>308.8</ele>
        <time>2022-06-29T14:03:01.708Z</time>
    </trkpt>
    <trkpt lat="56.520928" lon="61.004651">
        <ele>308.7</ele>
        <time>2022-06-29T14:03:03.104Z</time>
    </trkpt>
    <trkpt lat="56.520961" lon="61.004642">
        <ele>308.6</ele>
        <time>2022-06-29T14:03:04.763Z</time>
    </trkpt>
    <trkpt lat="56.521003" lon="61.004656">
        <ele>308.4</ele>
        <time>2022-06-29T14:03:06.887Z</time>
    </trkpt>
    <trkpt lat="56.52104" lon="61.004663">
        <ele>308.4</ele>
        <time>2022-06-29T14:03:08.737Z</time>
    </trkpt>
    <trkpt lat="56.521064" lon="61.004673">
        <ele>308.3</ele>
        <time>2022-06-29T14:03:09.961Z</time>
    </trkpt>
    <trkpt lat="56.52108" lon="61.004683">
        <ele>308.3</ele>
        <time>2022-06-29T14:03:10.802Z</time>
    </trkpt>
    <trkpt lat="56.521089" lon="61.004699">
        <ele>308.3</ele>
        <time>2022-06-29T14:03:11.428Z</time>
    </trkpt>
    <trkpt lat="56.521098" lon="61.004715">
        <ele>308.3</ele>
        <time>2022-06-29T14:03:12.054Z</time>
    </trkpt>
    <trkpt lat="56.521115" lon="61.004729">
        <ele>308.3</ele>
        <time>2022-06-29T14:03:12.982Z</time>
    </trkpt>
    <trkpt lat="56.521126" lon="61.004745">
        <ele>308.4</ele>
        <time>2022-06-29T14:03:13.683Z</time>
    </trkpt>
    <trkpt lat="56.521145" lon="61.004779">
        <ele>308.4</ele>
        <time>2022-06-29T14:03:15.010Z</time>
    </trkpt>
    <trkpt lat="56.521162" lon="61.004786">
        <ele>308.5</ele>
        <time>2022-06-29T14:03:15.877Z</time>
    </trkpt>
    <trkpt lat="56.521188" lon="61.004801">
        <ele>308.6</ele>
        <time>2022-06-29T14:03:17.234Z</time>
    </trkpt>
    <trkpt lat="56.521202" lon="61.004812">
        <ele>308.8</ele>
        <time>2022-06-29T14:03:17.992Z</time>
    </trkpt>
    <trkpt lat="56.521215" lon="61.004833">
        <ele>308.9</ele>
        <time>2022-06-29T14:03:18.858Z</time>
    </trkpt>
    <trkpt lat="56.52124" lon="61.004844">
        <ele>309.1</ele>
        <time>2022-06-29T14:03:20.137Z</time>
    </trkpt>
    <trkpt lat="56.521281" lon="61.004845">
        <ele>309.3</ele>
        <time>2022-06-29T14:03:22.176Z</time>
    </trkpt>
    <trkpt lat="56.521328" lon="61.004863">
        <ele>309.4</ele>
        <time>2022-06-29T14:03:24.565Z</time>
    </trkpt>
    <trkpt lat="56.521381" lon="61.004866">
        <ele>309.6</ele>
        <time>2022-06-29T14:03:27.202Z</time>
    </trkpt>
    <trkpt lat="56.521431" lon="61.004872">
        <ele>309.8</ele>
        <time>2022-06-29T14:03:29.694Z</time>
    </trkpt>
    <trkpt lat="56.521462" lon="61.004872">
        <ele>309.9</ele>
        <time>2022-06-29T14:03:31.235Z</time>
    </trkpt>
    <trkpt lat="56.521501" lon="61.004901">
        <ele>310.0</ele>
        <time>2022-06-29T14:03:33.331Z</time>
    </trkpt>
    <trkpt lat="56.521535" lon="61.004917">
        <ele>310.1</ele>
        <time>2022-06-29T14:03:35.078Z</time>
    </trkpt>
    <trkpt lat="56.521566" lon="61.004936">
        <ele>310.2</ele>
        <time>2022-06-29T14:03:36.705Z</time>
    </trkpt>
    <trkpt lat="56.5216" lon="61.004961">
        <ele>310.3</ele>
        <time>2022-06-29T14:03:38.529Z</time>
    </trkpt>
    <trkpt lat="56.521632" lon="61.004997">
        <ele>310.4</ele>
        <time>2022-06-29T14:03:40.402Z</time>
    </trkpt>
    <trkpt lat="56.521666" lon="61.00501">
        <ele>310.4</ele>
        <time>2022-06-29T14:03:42.130Z</time>
    </trkpt>
    <trkpt lat="56.521707" lon="61.005045">
        <ele>310.5</ele>
        <time>2022-06-29T14:03:44.384Z</time>
    </trkpt>
    <trkpt lat="56.521743" lon="61.005081">
        <ele>310.5</ele>
        <time>2022-06-29T14:03:46.428Z</time>
    </trkpt>
    <trkpt lat="56.52179" lon="61.005114">
        <ele>310.5</ele>
        <time>2022-06-29T14:03:48.934Z</time>
    </trkpt>
    <trkpt lat="56.521823" lon="61.005158">
        <ele>310.6</ele>
        <time>2022-06-29T14:03:50.971Z</time>
    </trkpt>
    <trkpt lat="56.521861" lon="61.005151">
        <ele>310.6</ele>
        <time>2022-06-29T14:03:52.870Z</time>
    </trkpt>
    <trkpt lat="56.521894" lon="61.005184">
        <ele>310.7</ele>
        <time>2022-06-29T14:03:54.744Z</time>
    </trkpt>
    <trkpt lat="56.521932" lon="61.005199">
        <ele>310.7</ele>
        <time>2022-06-29T14:03:56.678Z</time>
    </trkpt>
    <trkpt lat="56.521973" lon="61.005207">
        <ele>310.8</ele>
        <time>2022-06-29T14:03:58.729Z</time>
    </trkpt>
    <trkpt lat="56.522" lon="61.005212">
        <ele>310.8</ele>
        <time>2022-06-29T14:04:00.078Z</time>
    </trkpt>
    <trkpt lat="56.522027" lon="61.005221">
        <ele>310.9</ele>
        <time>2022-06-29T14:04:01.443Z</time>
    </trkpt>
    <trkpt lat="56.522052" lon="61.005235">
        <ele>310.9</ele>
        <time>2022-06-29T14:04:02.744Z</time>
    </trkpt>
    <trkpt lat="56.522085" lon="61.005239">
        <ele>310.9</ele>
        <time>2022-06-29T14:04:04.389Z</time>
    </trkpt>
    <trkpt lat="56.52212" lon="61.00525">
        <ele>311.0</ele>
        <time>2022-06-29T14:04:06.155Z</time>
    </trkpt>
    <trkpt lat="56.522145" lon="61.005267">
        <ele>311.0</ele>
        <time>2022-06-29T14:04:07.483Z</time>
    </trkpt>
    <trkpt lat="56.522161" lon="61.005267">
        <ele>311.0</ele>
        <time>2022-06-29T14:04:08.278Z</time>
    </trkpt>
    <trkpt lat="56.522187" lon="61.005273">
        <ele>311.0</ele>
        <time>2022-06-29T14:04:09.581Z</time>
    </trkpt>
    <trkpt lat="56.522205" lon="61.005272">
        <ele>311.0</ele>
        <time>2022-06-29T14:04:10.476Z</time>
    </trkpt>
    <trkpt lat="56.522222" lon="61.005266">
        <ele>311.0</ele>
        <time>2022-06-29T14:04:11.337Z</time>
    </trkpt>
    <trkpt lat="56.522242" lon="61.005252">
        <ele>311.0</ele>
        <time>2022-06-29T14:04:12.403Z</time>
    </trkpt>
    <trkpt lat="56.522268" lon="61.00523">
        <ele>311.0</ele>
        <time>2022-06-29T14:04:13.830Z</time>
    </trkpt>
    <trkpt lat="56.522295" lon="61.005209">
        <ele>311.0</ele>
        <time>2022-06-29T14:04:15.291Z</time>
    </trkpt>
    <trkpt lat="56.522335" lon="61.005197">
        <ele>311.0</ele>
        <time>2022-06-29T14:04:17.307Z</time>
    </trkpt>
    <trkpt lat="56.522379" lon="61.005196">
        <ele>311.0</ele>
        <time>2022-06-29T14:04:19.495Z</time>
    </trkpt>
    <trkpt lat="56.522414" lon="61.00521">
        <ele>310.9</ele>
        <time>2022-06-29T14:04:21.277Z</time>
    </trkpt>
    <trkpt lat="56.522442" lon="61.005216">
        <ele>310.9</ele>
        <time>2022-06-29T14:04:22.679Z</time>
    </trkpt>
    <trkpt lat="56.522473" lon="61.005214">
        <ele>310.9</ele>
        <time>2022-06-29T14:04:24.221Z</time>
    </trkpt>
    <trkpt lat="56.522506" lon="61.005205">
        <ele>310.8</ele>
        <time>2022-06-29T14:04:25.880Z</time>
    </trkpt>
    <trkpt lat="56.522536" lon="61.005195">
        <ele>310.8</ele>
        <time>2022-06-29T14:04:27.397Z</time>
    </trkpt>
    <trkpt lat="56.522564" lon="61.005186">
        <ele>310.7</ele>
        <time>2022-06-29T14:04:28.811Z</time>
    </trkpt>
    <trkpt lat="56.52258" lon="61.005171">
        <ele>310.7</ele>
        <time>2022-06-29T14:04:29.706Z</time>
    </trkpt>
    <trkpt lat="56.522588" lon="61.005172">
        <ele>310.7</ele>
        <time>2022-06-29T14:04:30.104Z</time>
    </trkpt>
    <trkpt lat="56.522601" lon="61.005173">
        <ele>310.6</ele>
        <time>2022-06-29T14:04:30.751Z</time>
    </trkpt>
    <trkpt lat="56.522621" lon="61.005164">
        <ele>310.6</ele>
        <time>2022-06-29T14:04:31.775Z</time>
    </trkpt>
    <trkpt lat="56.522635" lon="61.005175">
        <ele>310.6</ele>
        <time>2022-06-29T14:04:32.533Z</time>
    </trkpt>
    <trkpt lat="56.522662" lon="61.005183">
        <ele>310.6</ele>
        <time>2022-06-29T14:04:33.893Z</time>
    </trkpt>
    <trkpt lat="56.522661" lon="61.005233">
        <ele>310.6</ele>
        <time>2022-06-29T14:04:35.265Z</time>
    </trkpt>
    <trkpt lat="56.522672" lon="61.005239">
        <ele>310.6</ele>
        <time>2022-06-29T14:04:35.836Z</time>
    </trkpt>
    <trkpt lat="56.522697" lon="61.005269">
        <ele>310.6</ele>
        <time>2022-06-29T14:04:37.327Z</time>
    </trkpt>
    <trkpt lat="56.522723" lon="61.005286">
        <ele>310.7</ele>
        <time>2022-06-29T14:04:38.701Z</time>
    </trkpt>
    <trkpt lat="56.522755" lon="61.005305">
        <ele>310.8</ele>
        <time>2022-06-29T14:04:40.375Z</time>
    </trkpt>
    <trkpt lat="56.522786" lon="61.005308">
        <ele>310.8</ele>
        <time>2022-06-29T14:04:41.919Z</time>
    </trkpt>
    <trkpt lat="56.522821" lon="61.005312">
        <ele>310.9</ele>
        <time>2022-06-29T14:04:43.663Z</time>
    </trkpt>
    <trkpt lat="56.52287" lon="61.005303">
        <ele>310.9</ele>
        <time>2022-06-29T14:04:46.112Z</time>
    </trkpt>
    <trkpt lat="56.522918" lon="61.00531">
        <ele>310.9</ele>
        <time>2022-06-29T14:04:48.507Z</time>
    </trkpt>
    <trkpt lat="56.522965" lon="61.00531">
        <ele>310.9</ele>
        <time>2022-06-29T14:04:50.844Z</time>
    </trkpt>
    <trkpt lat="56.523012" lon="61.005298">
        <ele>310.8</ele>
        <time>2022-06-29T14:04:53.204Z</time>
    </trkpt>
    <trkpt lat="56.523052" lon="61.005289">
        <ele>310.7</ele>
        <time>2022-06-29T14:04:55.208Z</time>
    </trkpt>
    <trkpt lat="56.523094" lon="61.005291">
        <ele>310.5</ele>
        <time>2022-06-29T14:04:57.297Z</time>
    </trkpt>
    <trkpt lat="56.523133" lon="61.005291">
        <ele>310.3</ele>
        <time>2022-06-29T14:04:59.236Z</time>
    </trkpt>
    <trkpt lat="56.523162" lon="61.005288">
        <ele>310.1</ele>
        <time>2022-06-29T14:05:00.680Z</time>
    </trkpt>
    <trkpt lat="56.523198" lon="61.005285">
        <ele>309.9</ele>
        <time>2022-06-29T14:05:02.472Z</time>
    </trkpt>
    <trkpt lat="56.523237" lon="61.005291">
        <ele>309.6</ele>
        <time>2022-06-29T14:05:04.418Z</time>
    </trkpt>
    <trkpt lat="56.523293" lon="61.005286">
        <ele>309.4</ele>
        <time>2022-06-29T14:05:07.206Z</time>
    </trkpt>
    <trkpt lat="56.523344" lon="61.005265">
        <ele>309.1</ele>
        <time>2022-06-29T14:05:09.807Z</time>
    </trkpt>
    <trkpt lat="56.523391" lon="61.005239">
        <ele>308.8</ele>
        <time>2022-06-29T14:05:12.251Z</time>
    </trkpt>
    <trkpt lat="56.523439" lon="61.005219">
        <ele>308.5</ele>
        <time>2022-06-29T14:05:14.700Z</time>
    </trkpt>
    <trkpt lat="56.52348" lon="61.005204">
        <ele>308.2</ele>
        <time>2022-06-29T14:05:16.780Z</time>
    </trkpt>
    <trkpt lat="56.523526" lon="61.005202">
        <ele>308.0</ele>
        <time>2022-06-29T14:05:19.068Z</time>
    </trkpt>
    <trkpt lat="56.52357" lon="61.005199">
        <ele>307.7</ele>
        <time>2022-06-29T14:05:21.258Z</time>
    </trkpt>
    <trkpt lat="56.523607" lon="61.005199">
        <ele>307.4</ele>
        <time>2022-06-29T14:05:23.098Z</time>
    </trkpt>
    <trkpt lat="56.523645" lon="61.005203">
        <ele>307.1</ele>
        <time>2022-06-29T14:05:24.991Z</time>
    </trkpt>
    <trkpt lat="56.523686" lon="61.005194">
        <ele>306.8</ele>
        <time>2022-06-29T14:05:27.045Z</time>
    </trkpt>
    <trkpt lat="56.523722" lon="61.0052">
        <ele>306.4</ele>
        <time>2022-06-29T14:05:28.843Z</time>
    </trkpt>
    <trkpt lat="56.523757" lon="61.005212">
        <ele>306.1</ele>
        <time>2022-06-29T14:05:30.614Z</time>
    </trkpt>
    <trkpt lat="56.52379" lon="61.005229">
        <ele>305.6</ele>
        <time>2022-06-29T14:05:32.320Z</time>
    </trkpt>
    <trkpt lat="56.523825" lon="61.005259">
        <ele>305.2</ele>
        <time>2022-06-29T14:05:34.245Z</time>
    </trkpt>
    <trkpt lat="56.523862" lon="61.005296">
        <ele>304.7</ele>
        <time>2022-06-29T14:05:36.346Z</time>
    </trkpt>
    <trkpt lat="56.523896" lon="61.005333">
        <ele>304.2</ele>
        <time>2022-06-29T14:05:38.318Z</time>
    </trkpt>
    <trkpt lat="56.523931" lon="61.005371">
        <ele>303.7</ele>
        <time>2022-06-29T14:05:40.347Z</time>
    </trkpt>
    <trkpt lat="56.523966" lon="61.005409">
        <ele>303.2</ele>
        <time>2022-06-29T14:05:42.376Z</time>
    </trkpt>
    <trkpt lat="56.523995" lon="61.005448">
        <ele>302.7</ele>
        <time>2022-06-29T14:05:44.171Z</time>
    </trkpt>
    <trkpt lat="56.524029" lon="61.00549">
        <ele>302.3</ele>
        <time>2022-06-29T14:05:46.217Z</time>
    </trkpt>
    <trkpt lat="56.524067" lon="61.005517">
        <ele>302.2</ele>
        <time>2022-06-29T14:05:48.247Z</time>
    </trkpt>
    <trkpt lat="56.524111" lon="61.005539">
        <ele>302.2</ele>
        <time>2022-06-29T14:05:50.517Z</time>
    </trkpt>
    <trkpt lat="56.524179" lon="61.005558">
        <ele>302.3</ele>
        <time>2022-06-29T14:05:53.939Z</time>
    </trkpt>
    <trkpt lat="56.524251" lon="61.005564">
        <ele>302.3</ele>
        <time>2022-06-29T14:05:57.523Z</time>
    </trkpt>
    <trkpt lat="56.524332" lon="61.005558">
        <ele>302.4</ele>
        <time>2022-06-29T14:06:01.555Z</time>
    </trkpt>
    <trkpt lat="56.524403" lon="61.00555">
        <ele>302.4</ele>
        <time>2022-06-29T14:06:05.093Z</time>
    </trkpt>
    <trkpt lat="56.524464" lon="61.005538">
        <ele>302.4</ele>
        <time>2022-06-29T14:06:08.144Z</time>
    </trkpt>
    <trkpt lat="56.524518" lon="61.005548">
        <ele>302.3</ele>
        <time>2022-06-29T14:06:10.843Z</time>
    </trkpt>
    <trkpt lat="56.524577" lon="61.005579">
        <ele>302.4</ele>
        <time>2022-06-29T14:06:13.898Z</time>
    </trkpt>
    <trkpt lat="56.524634" lon="61.0056">
        <ele>302.5</ele>
        <time>2022-06-29T14:06:16.791Z</time>
    </trkpt>
    <trkpt lat="56.524683" lon="61.005613">
        <ele>302.7</ele>
        <time>2022-06-29T14:06:19.254Z</time>
    </trkpt>
    <trkpt lat="56.524741" lon="61.005634">
        <ele>303.0</ele>
        <time>2022-06-29T14:06:22.195Z</time>
    </trkpt>
    <trkpt lat="56.524795" lon="61.005641">
        <ele>303.3</ele>
        <time>2022-06-29T14:06:24.887Z</time>
    </trkpt>
    <trkpt lat="56.524839" lon="61.005642">
        <ele>303.6</ele>
        <time>2022-06-29T14:06:27.075Z</time>
    </trkpt>
    <trkpt lat="56.524887" lon="61.005635">
        <ele>303.8</ele>
        <time>2022-06-29T14:06:29.470Z</time>
    </trkpt>
    <trkpt lat="56.524942" lon="61.005637">
        <ele>303.8</ele>
        <time>2022-06-29T14:06:32.206Z</time>
    </trkpt>
    <trkpt lat="56.524995" lon="61.005663">
        <ele>303.8</ele>
        <time>2022-06-29T14:06:34.936Z</time>
    </trkpt>
    <trkpt lat="56.525042" lon="61.005679">
        <ele>303.6</ele>
        <time>2022-06-29T14:06:37.314Z</time>
    </trkpt>
    <trkpt lat="56.525087" lon="61.005709">
        <ele>303.8</ele>
        <time>2022-06-29T14:06:39.698Z</time>
    </trkpt>
    <trkpt lat="56.525134" lon="61.005733">
        <ele>304.2</ele>
        <time>2022-06-29T14:06:42.126Z</time>
    </trkpt>
    <trkpt lat="56.52518" lon="61.005744">
        <ele>304.9</ele>
        <time>2022-06-29T14:06:44.433Z</time>
    </trkpt>
    <trkpt lat="56.525229" lon="61.005751">
        <ele>305.3</ele>
        <time>2022-06-29T14:06:46.877Z</time>
    </trkpt>
    <trkpt lat="56.525264" lon="61.005758">
        <ele>305.7</ele>
        <time>2022-06-29T14:06:48.628Z</time>
    </trkpt>
    <trkpt lat="56.5253" lon="61.005763">
        <ele>306.0</ele>
        <time>2022-06-29T14:06:50.423Z</time>
    </trkpt>
    <trkpt lat="56.525349" lon="61.005763">
        <ele>306.4</ele>
        <time>2022-06-29T14:06:52.860Z</time>
    </trkpt>
    <trkpt lat="56.525397" lon="61.005756">
        <ele>306.7</ele>
        <time>2022-06-29T14:06:55.255Z</time>
    </trkpt>
    <trkpt lat="56.525448" lon="61.005762">
        <ele>307.0</ele>
        <time>2022-06-29T14:06:57.796Z</time>
    </trkpt>
    <trkpt lat="56.525501" lon="61.005774">
        <ele>307.2</ele>
        <time>2022-06-29T14:07:00.452Z</time>
    </trkpt>
    <trkpt lat="56.525547" lon="61.005796">
        <ele>307.3</ele>
        <time>2022-06-29T14:07:02.818Z</time>
    </trkpt>
    <trkpt lat="56.525594" lon="61.005843">
        <ele>307.2</ele>
        <time>2022-06-29T14:07:05.487Z</time>
    </trkpt>
    <trkpt lat="56.525628" lon="61.005895">
        <ele>307.0</ele>
        <time>2022-06-29T14:07:07.699Z</time>
    </trkpt>
    <trkpt lat="56.52566" lon="61.005954">
        <ele>307.0</ele>
        <time>2022-06-29T14:07:09.969Z</time>
    </trkpt>
    <trkpt lat="56.5257" lon="61.006002">
        <ele>306.9</ele>
        <time>2022-06-29T14:07:12.354Z</time>
    </trkpt>
    <trkpt lat="56.525737" lon="61.00604">
        <ele>306.9</ele>
        <time>2022-06-29T14:07:14.469Z</time>
    </trkpt>
    <trkpt lat="56.525771" lon="61.006068">
        <ele>306.8</ele>
        <time>2022-06-29T14:07:16.326Z</time>
    </trkpt>
    <trkpt lat="56.525804" lon="61.006107">
        <ele>306.5</ele>
        <time>2022-06-29T14:07:18.285Z</time>
    </trkpt>
    <trkpt lat="56.525842" lon="61.006127">
        <ele>306.2</ele>
        <time>2022-06-29T14:07:20.253Z</time>
    </trkpt>
    <trkpt lat="56.525883" lon="61.00613">
        <ele>305.6</ele>
        <time>2022-06-29T14:07:22.293Z</time>
    </trkpt>
    <trkpt lat="56.525919" lon="61.006143">
        <ele>305.3</ele>
        <time>2022-06-29T14:07:24.118Z</time>
    </trkpt>
    <trkpt lat="56.52595" lon="61.00615">
        <ele>305.1</ele>
        <time>2022-06-29T14:07:25.671Z</time>
    </trkpt>
    <trkpt lat="56.525977" lon="61.006148">
        <ele>304.3</ele>
        <time>2022-06-29T14:07:27.015Z</time>
    </trkpt>
    <trkpt lat="56.525998" lon="61.006151">
        <ele>304.2</ele>
        <time>2022-06-29T14:07:28.062Z</time>
    </trkpt>
    <trkpt lat="56.526014" lon="61.006145">
        <ele>304.1</ele>
        <time>2022-06-29T14:07:28.874Z</time>
    </trkpt>
    <trkpt lat="56.526027" lon="61.006143">
        <ele>304.0</ele>
        <time>2022-06-29T14:07:29.522Z</time>
    </trkpt>
    <trkpt lat="56.526031" lon="61.006139">
        <ele>303.9</ele>
        <time>2022-06-29T14:07:29.749Z</time>
    </trkpt>
    <trkpt lat="56.526032" lon="61.006137">
        <ele>303.8</ele>
        <time>2022-06-29T14:07:29.823Z</time>
    </trkpt>
    <trkpt lat="56.52603" lon="61.006131">
        <ele>303.6</ele>
        <time>2022-06-29T14:07:30.015Z</time>
    </trkpt>
    <trkpt lat="56.526032" lon="61.006123">
        <ele>303.4</ele>
        <time>2022-06-29T14:07:30.255Z</time>
    </trkpt>
    <trkpt lat="56.526029" lon="61.006111">
        <ele>303.1</ele>
        <time>2022-06-29T14:07:30.616Z</time>
    </trkpt>
    <trkpt lat="56.526031" lon="61.006098">
        <ele>302.8</ele>
        <time>2022-06-29T14:07:30.986Z</time>
    </trkpt>
    <trkpt lat="56.526033" lon="61.006099">
        <ele>302.5</ele>
        <time>2022-06-29T14:07:31.089Z</time>
    </trkpt>
    <trkpt lat="56.526036" lon="61.0061">
        <ele>302.1</ele>
        <time>2022-06-29T14:07:31.240Z</time>
    </trkpt>
    <trkpt lat="56.526047" lon="61.006104">
        <ele>301.6</ele>
        <time>2022-06-29T14:07:31.798Z</time>
    </trkpt>
    <trkpt lat="56.526067" lon="61.006111">
        <ele>301.2</ele>
        <time>2022-06-29T14:07:32.811Z</time>
    </trkpt>
    <trkpt lat="56.526089" lon="61.006117">
        <ele>300.7</ele>
        <time>2022-06-29T14:07:33.917Z</time>
    </trkpt>
    <trkpt lat="56.526119" lon="61.006121">
        <ele>300.2</ele>
        <time>2022-06-29T14:07:35.413Z</time>
    </trkpt>
    <trkpt lat="56.526151" lon="61.00614">
        <ele>299.7</ele>
        <time>2022-06-29T14:07:37.087Z</time>
    </trkpt>
    <trkpt lat="56.526189" lon="61.006176">
        <ele>299.1</ele>
        <time>2022-06-29T14:07:39.219Z</time>
    </trkpt>
    <trkpt lat="56.526227" lon="61.006235">
        <ele>298.5</ele>
        <time>2022-06-29T14:07:41.707Z</time>
    </trkpt>
    <trkpt lat="56.526265" lon="61.006289">
        <ele>297.9</ele>
        <time>2022-06-29T14:07:44.108Z</time>
    </trkpt>
    <trkpt lat="56.526303" lon="61.006336">
        <ele>297.2</ele>
        <time>2022-06-29T14:07:46.395Z</time>
    </trkpt>
    <trkpt lat="56.526338" lon="61.006386">
        <ele>296.5</ele>
        <time>2022-06-29T14:07:48.611Z</time>
    </trkpt>
    <trkpt lat="56.526374" lon="61.006432">
        <ele>295.7</ele>
        <time>2022-06-29T14:07:50.801Z</time>
    </trkpt>
    <trkpt lat="56.526417" lon="61.006477">
        <ele>294.8</ele>
        <time>2022-06-29T14:07:53.270Z</time>
    </trkpt>
    <trkpt lat="56.52646" lon="61.00652">
        <ele>293.9</ele>
        <time>2022-06-29T14:07:55.712Z</time>
    </trkpt>
    <trkpt lat="56.5265" lon="61.006556">
        <ele>292.8</ele>
        <time>2022-06-29T14:07:57.933Z</time>
    </trkpt>
    <trkpt lat="56.526543" lon="61.00658">
        <ele>291.7</ele>
        <time>2022-06-29T14:08:00.170Z</time>
    </trkpt>
    <trkpt lat="56.526592" lon="61.006602">
        <ele>290.5</ele>
        <time>2022-06-29T14:08:02.680Z</time>
    </trkpt>
    <trkpt lat="56.526643" lon="61.006621">
        <ele>290.1</ele>
        <time>2022-06-29T14:08:05.269Z</time>
    </trkpt>
    <trkpt lat="56.526691" lon="61.006629">
        <ele>288.7</ele>
        <time>2022-06-29T14:08:07.666Z</time>
    </trkpt>
    <trkpt lat="56.526746" lon="61.006616">
        <ele>287.0</ele>
        <time>2022-06-29T14:08:10.424Z</time>
    </trkpt>
    <trkpt lat="56.5268" lon="61.006598">
        <ele>286.7</ele>
        <time>2022-06-29T14:08:13.154Z</time>
    </trkpt>
    <trkpt lat="56.526853" lon="61.006572">
        <ele>286.3</ele>
        <time>2022-06-29T14:08:15.884Z</time>
    </trkpt>
    <trkpt lat="56.526909" lon="61.006556">
        <ele>285.9</ele>
        <time>2022-06-29T14:08:18.703Z</time>
    </trkpt>
    <trkpt lat="56.526962" lon="61.006539">
        <ele>284.6</ele>
        <time>2022-06-29T14:08:21.380Z</time>
    </trkpt>
    <trkpt lat="56.527006" lon="61.006554">
        <ele>284.3</ele>
        <time>2022-06-29T14:08:23.606Z</time>
    </trkpt>
    <trkpt lat="56.527052" lon="61.006567">
        <ele>284.0</ele>
        <time>2022-06-29T14:08:25.921Z</time>
    </trkpt>
    <trkpt lat="56.527112" lon="61.006584">
        <ele>283.9</ele>
        <time>2022-06-29T14:08:28.941Z</time>
    </trkpt>
    <trkpt lat="56.527167" lon="61.006603">
        <ele>283.8</ele>
        <time>2022-06-29T14:08:31.725Z</time>
    </trkpt>
    <trkpt lat="56.527225" lon="61.006622">
        <ele>283.7</ele>
        <time>2022-06-29T14:08:34.656Z</time>
    </trkpt>
    <trkpt lat="56.527278" lon="61.006646">
        <ele>283.6</ele>
        <time>2022-06-29T14:08:37.373Z</time>
    </trkpt>
    <trkpt lat="56.52734" lon="61.006676">
        <ele>283.4</ele>
        <time>2022-06-29T14:08:40.564Z</time>
    </trkpt>
    <trkpt lat="56.527395" lon="61.006686">
        <ele>283.2</ele>
        <time>2022-06-29T14:08:43.313Z</time>
    </trkpt>
    <trkpt lat="56.527452" lon="61.006693">
        <ele>283.1</ele>
        <time>2022-06-29T14:08:46.154Z</time>
    </trkpt>
    <trkpt lat="56.52751" lon="61.006703">
        <ele>283.1</ele>
        <time>2022-06-29T14:08:49.051Z</time>
    </trkpt>
    <trkpt lat="56.527562" lon="61.006735">
        <ele>283.0</ele>
        <time>2022-06-29T14:08:51.782Z</time>
    </trkpt>
    <trkpt lat="56.527617" lon="61.006747">
        <ele>282.9</ele>
        <time>2022-06-29T14:08:54.537Z</time>
    </trkpt>
    <trkpt lat="56.527668" lon="61.006757">
        <ele>282.7</ele>
        <time>2022-06-29T14:08:57.088Z</time>
    </trkpt>
    <trkpt lat="56.527715" lon="61.006767">
        <ele>282.6</ele>
        <time>2022-06-29T14:08:59.441Z</time>
    </trkpt>
    <trkpt lat="56.527765" lon="61.006775">
        <ele>282.9</ele>
        <time>2022-06-29T14:09:01.937Z</time>
    </trkpt>
    <trkpt lat="56.527806" lon="61.006801">
        <ele>283.5</ele>
        <time>2022-06-29T14:09:04.097Z</time>
    </trkpt>
    <trkpt lat="56.527851" lon="61.006816">
        <ele>284.0</ele>
        <time>2022-06-29T14:09:06.372Z</time>
    </trkpt>
    <trkpt lat="56.527894" lon="61.006826">
        <ele>284.5</ele>
        <time>2022-06-29T14:09:08.528Z</time>
    </trkpt>
    <trkpt lat="56.527937" lon="61.006844">
        <ele>284.9</ele>
        <time>2022-06-29T14:09:10.723Z</time>
    </trkpt>
    <trkpt lat="56.527981" lon="61.006866">
        <ele>285.1</ele>
        <time>2022-06-29T14:09:12.993Z</time>
    </trkpt>
    <trkpt lat="56.52802" lon="61.006891">
        <ele>285.3</ele>
        <time>2022-06-29T14:09:15.050Z</time>
    </trkpt>
    <trkpt lat="56.528059" lon="61.006919">
        <ele>285.8</ele>
        <time>2022-06-29T14:09:17.136Z</time>
    </trkpt>
    <trkpt lat="56.528095" lon="61.006956">
        <ele>286.5</ele>
        <time>2022-06-29T14:09:19.194Z</time>
    </trkpt>
    <trkpt lat="56.528136" lon="61.006954">
        <ele>287.4</ele>
        <time>2022-06-29T14:09:21.234Z</time>
    </trkpt>
    <trkpt lat="56.528186" lon="61.006944">
        <ele>288.1</ele>
        <time>2022-06-29T14:09:23.735Z</time>
    </trkpt>
    <trkpt lat="56.528257" lon="61.006879">
        <ele>287.9</ele>
        <time>2022-06-29T14:09:27.691Z</time>
    </trkpt>
    <trkpt lat="56.528329" lon="61.006817">
        <ele>286.4</ele>
        <time>2022-06-29T14:09:31.655Z</time>
    </trkpt>
    <trkpt lat="56.5284" lon="61.006779">
        <ele>284.7</ele>
        <time>2022-06-29T14:09:35.337Z</time>
    </trkpt>
    <trkpt lat="56.528473" lon="61.006744">
        <ele>283.7</ele>
        <time>2022-06-29T14:09:39.092Z</time>
    </trkpt>
    <trkpt lat="56.528541" lon="61.006706">
        <ele>283.8</ele>
        <time>2022-06-29T14:09:42.631Z</time>
    </trkpt>
    <trkpt lat="56.528617" lon="61.006659">
        <ele>284.3</ele>
        <time>2022-06-29T14:09:46.624Z</time>
    </trkpt>
    <trkpt lat="56.528696" lon="61.00662">
        <ele>284.7</ele>
        <time>2022-06-29T14:09:50.696Z</time>
    </trkpt>
    <trkpt lat="56.528777" lon="61.006588">
        <ele>285.0</ele>
        <time>2022-06-29T14:09:54.819Z</time>
    </trkpt>
    <trkpt lat="56.528864" lon="61.006549">
        <ele>285.0</ele>
        <time>2022-06-29T14:09:59.276Z</time>
    </trkpt>
    <trkpt lat="56.528946" lon="61.006511">
        <ele>285.0</ele>
        <time>2022-06-29T14:10:03.485Z</time>
    </trkpt>
    <trkpt lat="56.529023" lon="61.006469">
        <ele>285.0</ele>
        <time>2022-06-29T14:10:07.484Z</time>
    </trkpt>
    <trkpt lat="56.529099" lon="61.006429">
        <ele>285.1</ele>
        <time>2022-06-29T14:10:11.420Z</time>
    </trkpt>
    <trkpt lat="56.529171" lon="61.006409">
        <ele>285.0</ele>
        <time>2022-06-29T14:10:15.042Z</time>
    </trkpt>
    <trkpt lat="56.529235" lon="61.006393">
        <ele>284.7</ele>
        <time>2022-06-29T14:10:18.255Z</time>
    </trkpt>
    <trkpt lat="56.529318" lon="61.006377">
        <ele>282.9</ele>
        <time>2022-06-29T14:10:22.406Z</time>
    </trkpt>
    <trkpt lat="56.529394" lon="61.006361">
        <ele>282.7</ele>
        <time>2022-06-29T14:10:26.211Z</time>
    </trkpt>
    <trkpt lat="56.529458" lon="61.006357">
        <ele>282.5</ele>
        <time>2022-06-29T14:10:29.396Z</time>
    </trkpt>
    <trkpt lat="56.529524" lon="61.006327">
        <ele>282.2</ele>
        <time>2022-06-29T14:10:32.780Z</time>
    </trkpt>
    <trkpt lat="56.529586" lon="61.006305">
        <ele>281.9</ele>
        <time>2022-06-29T14:10:35.922Z</time>
    </trkpt>
    <trkpt lat="56.52965" lon="61.006281">
        <ele>281.6</ele>
        <time>2022-06-29T14:10:39.172Z</time>
    </trkpt>
    <trkpt lat="56.529709" lon="61.006263">
        <ele>281.3</ele>
        <time>2022-06-29T14:10:42.147Z</time>
    </trkpt>
    <trkpt lat="56.529753" lon="61.006232">
        <ele>280.9</ele>
        <time>2022-06-29T14:10:44.494Z</time>
    </trkpt>
    <trkpt lat="56.5298" lon="61.006204">
        <ele>280.5</ele>
        <time>2022-06-29T14:10:46.954Z</time>
    </trkpt>
    <trkpt lat="56.529861" lon="61.006184">
        <ele>280.1</ele>
        <time>2022-06-29T14:10:50.037Z</time>
    </trkpt>
    <trkpt lat="56.529915" lon="61.006158">
        <ele>279.7</ele>
        <time>2022-06-29T14:10:52.815Z</time>
    </trkpt>
    <trkpt lat="56.529974" lon="61.006124">
        <ele>279.3</ele>
        <time>2022-06-29T14:10:55.894Z</time>
    </trkpt>
    <trkpt lat="56.53005" lon="61.00608">
        <ele>278.9</ele>
        <time>2022-06-29T14:10:59.862Z</time>
    </trkpt>
    <trkpt lat="56.530106" lon="61.006051">
        <ele>278.6</ele>
        <time>2022-06-29T14:11:02.758Z</time>
    </trkpt>
    <trkpt lat="56.530155" lon="61.005987">
        <ele>278.3</ele>
        <time>2022-06-29T14:11:05.761Z</time>
    </trkpt>
    <trkpt lat="56.530206" lon="61.00591">
        <ele>278.1</ele>
        <time>2022-06-29T14:11:09.061Z</time>
    </trkpt>
    <trkpt lat="56.530254" lon="61.005843">
        <ele>277.9</ele>
        <time>2022-06-29T14:11:12.073Z</time>
    </trkpt>
    <trkpt lat="56.5303" lon="61.005781">
        <ele>277.9</ele>
        <time>2022-06-29T14:11:14.923Z</time>
    </trkpt>
    <trkpt lat="56.530344" lon="61.005719">
        <ele>277.8</ele>
        <time>2022-06-29T14:11:17.694Z</time>
    </trkpt>
    <trkpt lat="56.530386" lon="61.005665">
        <ele>277.8</ele>
        <time>2022-06-29T14:11:20.254Z</time>
    </trkpt>
    <trkpt lat="56.530428" lon="61.005602">
        <ele>277.7</ele>
        <time>2022-06-29T14:11:22.965Z</time>
    </trkpt>
    <trkpt lat="56.530466" lon="61.005549">
        <ele>277.7</ele>
        <time>2022-06-29T14:11:25.349Z</time>
    </trkpt>
    <trkpt lat="56.530509" lon="61.005507">
        <ele>277.6</ele>
        <time>2022-06-29T14:11:27.778Z</time>
    </trkpt>
    <trkpt lat="56.53055" lon="61.00546">
        <ele>277.6</ele>
        <time>2022-06-29T14:11:30.190Z</time>
    </trkpt>
    <trkpt lat="56.530592" lon="61.005405">
        <ele>277.5</ele>
        <time>2022-06-29T14:11:32.766Z</time>
    </trkpt>
    <trkpt lat="56.530629" lon="61.005342">
        <ele>277.5</ele>
        <time>2022-06-29T14:11:35.290Z</time>
    </trkpt>
    <trkpt lat="56.530666" lon="61.005295">
        <ele>277.5</ele>
        <time>2022-06-29T14:11:37.536Z</time>
    </trkpt>
    <trkpt lat="56.5307" lon="61.005227">
        <ele>277.4</ele>
        <time>2022-06-29T14:11:40.053Z</time>
    </trkpt>
    <trkpt lat="56.530738" lon="61.005157">
        <ele>277.3</ele>
        <time>2022-06-29T14:11:42.747Z</time>
    </trkpt>
    <trkpt lat="56.530775" lon="61.005075">
        <ele>277.1</ele>
        <time>2022-06-29T14:11:45.653Z</time>
    </trkpt>
    <trkpt lat="56.53081" lon="61.005012">
        <ele>277.0</ele>
        <time>2022-06-29T14:11:48.105Z</time>
    </trkpt>
    <trkpt lat="56.530844" lon="61.004953">
        <ele>277.2</ele>
        <time>2022-06-29T14:11:50.445Z</time>
    </trkpt>
    <trkpt lat="56.53088" lon="61.004876">
        <ele>277.6</ele>
        <time>2022-06-29T14:11:53.213Z</time>
    </trkpt>
    <trkpt lat="56.530913" lon="61.004812">
        <ele>278.5</ele>
        <time>2022-06-29T14:11:55.616Z</time>
    </trkpt>
    <trkpt lat="56.530954" lon="61.004717">
        <ele>280.1</ele>
        <time>2022-06-29T14:11:58.924Z</time>
    </trkpt>
    <trkpt lat="56.530993" lon="61.004657">
        <ele>281.2</ele>
        <time>2022-06-29T14:12:01.467Z</time>
    </trkpt>
    <trkpt lat="56.53102" lon="61.004628">
        <ele>282.7</ele>
        <time>2022-06-29T14:12:03.027Z</time>
    </trkpt>
    <trkpt lat="56.531047" lon="61.004577">
        <ele>283.6</ele>
        <time>2022-06-29T14:12:04.966Z</time>
    </trkpt>
    <trkpt lat="56.531075" lon="61.004557">
        <ele>284.2</ele>
        <time>2022-06-29T14:12:06.462Z</time>
    </trkpt>
    <trkpt lat="56.53109" lon="61.004542">
        <ele>284.6</ele>
        <time>2022-06-29T14:12:07.314Z</time>
    </trkpt>
    <trkpt lat="56.5311" lon="61.004531">
        <ele>284.9</ele>
        <time>2022-06-29T14:12:07.895Z</time>
    </trkpt>
    <trkpt lat="56.531103" lon="61.004522">
        <ele>285.2</ele>
        <time>2022-06-29T14:12:08.183Z</time>
    </trkpt>
    <trkpt lat="56.531106" lon="61.004511">
        <ele>285.1</ele>
        <time>2022-06-29T14:12:08.519Z</time>
    </trkpt>
    <trkpt lat="56.531108" lon="61.004519">
        <ele>286.4</ele>
        <time>2022-06-29T14:12:08.759Z</time>
    </trkpt>
    <trkpt lat="56.531119" lon="61.004502">
        <ele>286.4</ele>
        <time>2022-06-29T14:12:09.477Z</time>
    </trkpt>
    <trkpt lat="56.531127" lon="61.00449">
        <ele>286.5</ele>
        <time>2022-06-29T14:12:09.993Z</time>
    </trkpt>
    <trkpt lat="56.531127" lon="61.004494">
        <ele>286.5</ele>
        <time>2022-06-29T14:12:10.102Z</time>
    </trkpt>
    <trkpt lat="56.531126" lon="61.004492">
        <ele>286.6</ele>
        <time>2022-06-29T14:12:10.176Z</time>
    </trkpt>
    <trkpt lat="56.531132" lon="61.004503">
        <ele>286.6</ele>
        <time>2022-06-29T14:12:10.600Z</time>
    </trkpt>
    <trkpt lat="56.531134" lon="61.004494">
        <ele>286.7</ele>
        <time>2022-06-29T14:12:10.866Z</time>
    </trkpt>
    <trkpt lat="56.531136" lon="61.004475">
        <ele>286.7</ele>
        <time>2022-06-29T14:12:11.396Z</time>
    </trkpt>
    <trkpt lat="56.531133" lon="61.004483">
        <ele>286.7</ele>
        <time>2022-06-29T14:12:11.661Z</time>
    </trkpt>
    <trkpt lat="56.531119" lon="61.004462">
        <ele>286.7</ele>
        <time>2022-06-29T14:12:12.564Z</time>
    </trkpt>
    <trkpt lat="56.531133" lon="61.004482">
        <ele>286.7</ele>
        <time>2022-06-29T14:12:13.450Z</time>
    </trkpt>
    <trkpt lat="56.531161" lon="61.004479">
        <ele>286.6</ele>
        <time>2022-06-29T14:12:14.845Z</time>
    </trkpt>
    <trkpt lat="56.531202" lon="61.004484">
        <ele>286.6</ele>
        <time>2022-06-29T14:12:16.888Z</time>
    </trkpt>
    <trkpt lat="56.531251" lon="61.00446">
        <ele>286.5</ele>
        <time>2022-06-29T14:12:19.412Z</time>
    </trkpt>
    <trkpt lat="56.531308" lon="61.004457">
        <ele>286.3</ele>
        <time>2022-06-29T14:12:22.248Z</time>
    </trkpt>
    <trkpt lat="56.531353" lon="61.00446">
        <ele>285.6</ele>
        <time>2022-06-29T14:12:24.487Z</time>
    </trkpt>
    <trkpt lat="56.531399" lon="61.004458">
        <ele>284.7</ele>
        <time>2022-06-29T14:12:26.775Z</time>
    </trkpt>
    <trkpt lat="56.531453" lon="61.004467">
        <ele>283.7</ele>
        <time>2022-06-29T14:12:29.472Z</time>
    </trkpt>
    <trkpt lat="56.53152" lon="61.004469">
        <ele>282.7</ele>
        <time>2022-06-29T14:12:32.804Z</time>
    </trkpt>
    <trkpt lat="56.531579" lon="61.004482">
        <ele>281.6</ele>
        <time>2022-06-29T14:12:35.760Z</time>
    </trkpt>
    <trkpt lat="56.531632" lon="61.004472">
        <ele>280.5</ele>
        <time>2022-06-29T14:12:38.410Z</time>
    </trkpt>
    <trkpt lat="56.531678" lon="61.004464">
        <ele>279.2</ele>
        <time>2022-06-29T14:12:40.708Z</time>
    </trkpt>
    <trkpt lat="56.531706" lon="61.004459">
        <ele>277.9</ele>
        <time>2022-06-29T14:12:42.107Z</time>
    </trkpt>
    <trkpt lat="56.531733" lon="61.004452">
        <ele>276.6</ele>
        <time>2022-06-29T14:12:43.463Z</time>
    </trkpt>
    <trkpt lat="56.531767" lon="61.004447">
        <ele>276.5</ele>
        <time>2022-06-29T14:12:45.159Z</time>
    </trkpt>
    <trkpt lat="56.531812" lon="61.004438">
        <ele>276.4</ele>
        <time>2022-06-29T14:12:47.410Z</time>
    </trkpt>
    <trkpt lat="56.531875" lon="61.004446">
        <ele>276.4</ele>
        <time>2022-06-29T14:12:50.551Z</time>
    </trkpt>
    <trkpt lat="56.531935" lon="61.004449">
        <ele>276.0</ele>
        <time>2022-06-29T14:12:53.536Z</time>
    </trkpt>
    <trkpt lat="56.532007" lon="61.004468">
        <ele>275.8</ele>
        <time>2022-06-29T14:12:57.154Z</time>
    </trkpt>
    <trkpt lat="56.532072" lon="61.004491">
        <ele>275.6</ele>
        <time>2022-06-29T14:13:00.447Z</time>
    </trkpt>
    <trkpt lat="56.532124" lon="61.004524">
        <ele>275.5</ele>
        <time>2022-06-29T14:13:03.187Z</time>
    </trkpt>
    <trkpt lat="56.532176" lon="61.004549">
        <ele>275.4</ele>
        <time>2022-06-29T14:13:05.862Z</time>
    </trkpt>
    <trkpt lat="56.532245" lon="61.004579">
        <ele>275.3</ele>
        <time>2022-06-29T14:13:09.391Z</time>
    </trkpt>
    <trkpt lat="56.532301" lon="61.004604">
        <ele>275.2</ele>
        <time>2022-06-29T14:13:12.259Z</time>
    </trkpt>
    <trkpt lat="56.532351" lon="61.004625">
        <ele>275.1</ele>
        <time>2022-06-29T14:13:14.811Z</time>
    </trkpt>
    <trkpt lat="56.532402" lon="61.004638">
        <ele>275.0</ele>
        <time>2022-06-29T14:13:17.372Z</time>
    </trkpt>
    <trkpt lat="56.532467" lon="61.00465">
        <ele>274.9</ele>
        <time>2022-06-29T14:13:20.621Z</time>
    </trkpt>
    <trkpt lat="56.532535" lon="61.004659">
        <ele>274.8</ele>
        <time>2022-06-29T14:13:24.012Z</time>
    </trkpt>
    <trkpt lat="56.532592" lon="61.004671">
        <ele>274.7</ele>
        <time>2022-06-29T14:13:26.866Z</time>
    </trkpt>
    <trkpt lat="56.53265" lon="61.004689">
        <ele>274.6</ele>
        <time>2022-06-29T14:13:29.792Z</time>
    </trkpt>
    <trkpt lat="56.53273" lon="61.004705">
        <ele>274.4</ele>
        <time>2022-06-29T14:13:33.795Z</time>
    </trkpt>
    <trkpt lat="56.532798" lon="61.004723">
        <ele>274.3</ele>
        <time>2022-06-29T14:13:37.213Z</time>
    </trkpt>
    <trkpt lat="56.532859" lon="61.004737">
        <ele>274.1</ele>
        <time>2022-06-29T14:13:40.271Z</time>
    </trkpt>
    <trkpt lat="56.532921" lon="61.004759">
        <ele>274.0</ele>
        <time>2022-06-29T14:13:43.413Z</time>
    </trkpt>
    <trkpt lat="56.532986" lon="61.004775">
        <ele>273.9</ele>
        <time>2022-06-29T14:13:46.675Z</time>
    </trkpt>
    <trkpt lat="56.533055" lon="61.004789">
        <ele>273.9</ele>
        <time>2022-06-29T14:13:50.128Z</time>
    </trkpt>
    <trkpt lat="56.533124" lon="61.00481">
        <ele>273.8</ele>
        <time>2022-06-29T14:13:53.607Z</time>
    </trkpt>
    <trkpt lat="56.533188" lon="61.004832">
        <ele>273.7</ele>
        <time>2022-06-29T14:13:56.846Z</time>
    </trkpt>
    <trkpt lat="56.533243" lon="61.004841">
        <ele>273.6</ele>
        <time>2022-06-29T14:13:59.592Z</time>
    </trkpt>
    <trkpt lat="56.533307" lon="61.004845">
        <ele>273.5</ele>
        <time>2022-06-29T14:14:02.777Z</time>
    </trkpt>
    <trkpt lat="56.533379" lon="61.004848">
        <ele>273.3</ele>
        <time>2022-06-29T14:14:06.359Z</time>
    </trkpt>
    <trkpt lat="56.533437" lon="61.004847">
        <ele>273.1</ele>
        <time>2022-06-29T14:14:09.243Z</time>
    </trkpt>
    <trkpt lat="56.533488" lon="61.004848">
        <ele>273.0</ele>
        <time>2022-06-29T14:14:11.779Z</time>
    </trkpt>
    <trkpt lat="56.533549" lon="61.00485">
        <ele>272.8</ele>
        <time>2022-06-29T14:14:14.813Z</time>
    </trkpt>
    <trkpt lat="56.533609" lon="61.004841">
        <ele>272.6</ele>
        <time>2022-06-29T14:14:17.807Z</time>
    </trkpt>
    <trkpt lat="56.533669" lon="61.004843">
        <ele>272.4</ele>
        <time>2022-06-29T14:14:20.791Z</time>
    </trkpt>
    <trkpt lat="56.533731" lon="61.00485">
        <ele>272.2</ele>
        <time>2022-06-29T14:14:23.880Z</time>
    </trkpt>
    <trkpt lat="56.533786" lon="61.004857">
        <ele>271.9</ele>
        <time>2022-06-29T14:14:26.622Z</time>
    </trkpt>
    <trkpt lat="56.533852" lon="61.004868">
        <ele>271.5</ele>
        <time>2022-06-29T14:14:29.918Z</time>
    </trkpt>
    <trkpt lat="56.533902" lon="61.004895">
        <ele>271.0</ele>
        <time>2022-06-29T14:14:32.512Z</time>
    </trkpt>
    <trkpt lat="56.533969" lon="61.004921">
        <ele>270.6</ele>
        <time>2022-06-29T14:14:35.919Z</time>
    </trkpt>
    <trkpt lat="56.534036" lon="61.004957">
        <ele>270.3</ele>
        <time>2022-06-29T14:14:39.394Z</time>
    </trkpt>
    <trkpt lat="56.53409" lon="61.004999">
        <ele>269.9</ele>
        <time>2022-06-29T14:14:42.316Z</time>
    </trkpt>
    <trkpt lat="56.534147" lon="61.005046">
        <ele>269.7</ele>
        <time>2022-06-29T14:14:45.430Z</time>
    </trkpt>
    <trkpt lat="56.534203" lon="61.005105">
        <ele>269.6</ele>
        <time>2022-06-29T14:14:48.651Z</time>
    </trkpt>
    <trkpt lat="56.534256" lon="61.00516">
        <ele>269.4</ele>
        <time>2022-06-29T14:14:51.688Z</time>
    </trkpt>
    <trkpt lat="56.534321" lon="61.005211">
        <ele>269.3</ele>
        <time>2022-06-29T14:14:55.210Z</time>
    </trkpt>
    <trkpt lat="56.534377" lon="61.005259">
        <ele>269.2</ele>
        <time>2022-06-29T14:14:58.290Z</time>
    </trkpt>
    <trkpt lat="56.534431" lon="61.005308">
        <ele>269.2</ele>
        <time>2022-06-29T14:15:01.293Z</time>
    </trkpt>
    <trkpt lat="56.534482" lon="61.005342">
        <ele>269.3</ele>
        <time>2022-06-29T14:15:03.995Z</time>
    </trkpt>
    <trkpt lat="56.534544" lon="61.005401">
        <ele>269.3</ele>
        <time>2022-06-29T14:15:07.477Z</time>
    </trkpt>
    <trkpt lat="56.534605" lon="61.005451">
        <ele>269.4</ele>
        <time>2022-06-29T14:15:10.806Z</time>
    </trkpt>
    <trkpt lat="56.534667" lon="61.005483">
        <ele>269.6</ele>
        <time>2022-06-29T14:15:14.012Z</time>
    </trkpt>
    <trkpt lat="56.534729" lon="61.005532">
        <ele>269.8</ele>
        <time>2022-06-29T14:15:17.375Z</time>
    </trkpt>
    <trkpt lat="56.53481" lon="61.005586">
        <ele>269.9</ele>
        <time>2022-06-29T14:15:21.667Z</time>
    </trkpt>
    <trkpt lat="56.534871" lon="61.005623">
        <ele>270.0</ele>
        <time>2022-06-29T14:15:24.866Z</time>
    </trkpt>
    <trkpt lat="56.53493" lon="61.005664">
        <ele>270.0</ele>
        <time>2022-06-29T14:15:28.008Z</time>
    </trkpt>
    <trkpt lat="56.534986" lon="61.005689">
        <ele>269.8</ele>
        <time>2022-06-29T14:15:30.876Z</time>
    </trkpt>
    <trkpt lat="56.535049" lon="61.005734">
        <ele>269.6</ele>
        <time>2022-06-29T14:15:34.243Z</time>
    </trkpt>
    <trkpt lat="56.535101" lon="61.005758">
        <ele>269.4</ele>
        <time>2022-06-29T14:15:36.911Z</time>
    </trkpt>
    <trkpt lat="56.535168" lon="61.005774">
        <ele>269.0</ele>
        <time>2022-06-29T14:15:40.272Z</time>
    </trkpt>
    <trkpt lat="56.535248" lon="61.005795">
        <ele>268.6</ele>
        <time>2022-06-29T14:15:44.292Z</time>
    </trkpt>
    <trkpt lat="56.535306" lon="61.005826">
        <ele>268.1</ele>
        <time>2022-06-29T14:15:47.299Z</time>
    </trkpt>
    <trkpt lat="56.535372" lon="61.00585">
        <ele>267.7</ele>
        <time>2022-06-29T14:15:50.647Z</time>
    </trkpt>
    <trkpt lat="56.535435" lon="61.005868">
        <ele>267.2</ele>
        <time>2022-06-29T14:15:53.819Z</time>
    </trkpt>
    <trkpt lat="56.535492" lon="61.005889">
        <ele>266.7</ele>
        <time>2022-06-29T14:15:56.711Z</time>
    </trkpt>
    <trkpt lat="56.535564" lon="61.005921">
        <ele>266.2</ele>
        <time>2022-06-29T14:16:00.398Z</time>
    </trkpt>
    <trkpt lat="56.535621" lon="61.005957">
        <ele>265.8</ele>
        <time>2022-06-29T14:16:03.400Z</time>
    </trkpt>
    <trkpt lat="56.535691" lon="61.006035">
        <ele>265.4</ele>
        <time>2022-06-29T14:16:07.486Z</time>
    </trkpt>
    <trkpt lat="56.535777" lon="61.006128">
        <ele>265.2</ele>
        <time>2022-06-29T14:16:12.466Z</time>
    </trkpt>
    <trkpt lat="56.535854" lon="61.006202">
        <ele>265.1</ele>
        <time>2022-06-29T14:16:16.800Z</time>
    </trkpt>
    <trkpt lat="56.535928" lon="61.006268">
        <ele>265.1</ele>
        <time>2022-06-29T14:16:20.901Z</time>
    </trkpt>
    <trkpt lat="56.536002" lon="61.006331">
        <ele>265.0</ele>
        <time>2022-06-29T14:16:24.967Z</time>
    </trkpt>
    <trkpt lat="56.536066" lon="61.006398">
        <ele>265.0</ele>
        <time>2022-06-29T14:16:28.642Z</time>
    </trkpt>
    <trkpt lat="56.536133" lon="61.006466">
        <ele>265.0</ele>
        <time>2022-06-29T14:16:32.460Z</time>
    </trkpt>
    <trkpt lat="56.536199" lon="61.006529">
        <ele>264.9</ele>
        <time>2022-06-29T14:16:36.169Z</time>
    </trkpt>
    <trkpt lat="56.536253" lon="61.006579">
        <ele>264.8</ele>
        <time>2022-06-29T14:16:39.184Z</time>
    </trkpt>
    <trkpt lat="56.536315" lon="61.006623">
        <ele>264.7</ele>
        <time>2022-06-29T14:16:42.495Z</time>
    </trkpt>
    <trkpt lat="56.536368" lon="61.006688">
        <ele>264.6</ele>
        <time>2022-06-29T14:16:45.677Z</time>
    </trkpt>
    <trkpt lat="56.536423" lon="61.006738">
        <ele>264.5</ele>
        <time>2022-06-29T14:16:48.737Z</time>
    </trkpt>
    <trkpt lat="56.536483" lon="61.006784">
        <ele>264.3</ele>
        <time>2022-06-29T14:16:51.977Z</time>
    </trkpt>
    <trkpt lat="56.536547" lon="61.006815">
        <ele>264.1</ele>
        <time>2022-06-29T14:16:55.271Z</time>
    </trkpt>
    <trkpt lat="56.536606" lon="61.006844">
        <ele>263.9</ele>
        <time>2022-06-29T14:16:58.311Z</time>
    </trkpt>
    <trkpt lat="56.536666" lon="61.006864">
        <ele>263.6</ele>
        <time>2022-06-29T14:17:01.345Z</time>
    </trkpt>
    <trkpt lat="56.536734" lon="61.006897">
        <ele>263.3</ele>
        <time>2022-06-29T14:17:04.846Z</time>
    </trkpt>
    <trkpt lat="56.536798" lon="61.006926">
        <ele>263.0</ele>
        <time>2022-06-29T14:17:08.127Z</time>
    </trkpt>
    <trkpt lat="56.536852" lon="61.006948">
        <ele>262.7</ele>
        <time>2022-06-29T14:17:10.879Z</time>
    </trkpt>
    <trkpt lat="56.536911" lon="61.006962">
        <ele>262.5</ele>
        <time>2022-06-29T14:17:13.838Z</time>
    </trkpt>
    <trkpt lat="56.536961" lon="61.006981">
        <ele>262.4</ele>
        <time>2022-06-29T14:17:16.378Z</time>
    </trkpt>
    <trkpt lat="56.537" lon="61.007005">
        <ele>262.2</ele>
        <time>2022-06-29T14:17:18.426Z</time>
    </trkpt>
    <trkpt lat="56.537046" lon="61.007004">
        <ele>261.9</ele>
        <time>2022-06-29T14:17:20.714Z</time>
    </trkpt>
    <trkpt lat="56.53709" lon="61.007031">
        <ele>261.7</ele>
        <time>2022-06-29T14:17:23.024Z</time>
    </trkpt>
    <trkpt lat="56.537138" lon="61.007051">
        <ele>261.5</ele>
        <time>2022-06-29T14:17:25.473Z</time>
    </trkpt>
    <trkpt lat="56.537184" lon="61.007074">
        <ele>261.4</ele>
        <time>2022-06-29T14:17:27.846Z</time>
    </trkpt>
    <trkpt lat="56.537237" lon="61.007088">
        <ele>261.2</ele>
        <time>2022-06-29T14:17:30.509Z</time>
    </trkpt>
    <trkpt lat="56.537285" lon="61.007104">
        <ele>261.0</ele>
        <time>2022-06-29T14:17:32.936Z</time>
    </trkpt>
    <trkpt lat="56.537342" lon="61.007126">
        <ele>260.8</ele>
        <time>2022-06-29T14:17:35.834Z</time>
    </trkpt>
    <trkpt lat="56.537399" lon="61.007135">
        <ele>260.6</ele>
        <time>2022-06-29T14:17:38.679Z</time>
    </trkpt>
    <trkpt lat="56.537453" lon="61.007141">
        <ele>260.5</ele>
        <time>2022-06-29T14:17:41.369Z</time>
    </trkpt>
    <trkpt lat="56.537501" lon="61.007145">
        <ele>260.2</ele>
        <time>2022-06-29T14:17:43.758Z</time>
    </trkpt>
    <trkpt lat="56.537543" lon="61.007155">
        <ele>260.0</ele>
        <time>2022-06-29T14:17:45.864Z</time>
    </trkpt>
    <trkpt lat="56.537577" lon="61.00717">
        <ele>259.9</ele>
        <time>2022-06-29T14:17:47.604Z</time>
    </trkpt>
    <trkpt lat="56.537585" lon="61.007174">
        <ele>259.9</ele>
        <time>2022-06-29T14:17:48.016Z</time>
    </trkpt>
    <trkpt lat="56.537591" lon="61.007177">
        <ele>259.9</ele>
        <time>2022-06-29T14:17:48.325Z</time>
    </trkpt>
    <trkpt lat="56.53759" lon="61.007177">
        <ele>259.9</ele>
        <time>2022-06-29T14:17:48.374Z</time>
    </trkpt>
    <trkpt lat="56.537595" lon="61.007173">
        <ele>259.7</ele>
        <time>2022-06-29T14:17:48.645Z</time>
    </trkpt>
    <trkpt lat="56.537612" lon="61.007192">
        <ele>259.5</ele>
        <time>2022-06-29T14:17:49.638Z</time>
    </trkpt>
    <trkpt lat="56.537637" lon="61.007204">
        <ele>259.2</ele>
        <time>2022-06-29T14:17:50.924Z</time>
    </trkpt>
    <trkpt lat="56.537677" lon="61.007235">
        <ele>259.0</ele>
        <time>2022-06-29T14:17:53.087Z</time>
    </trkpt>
    <trkpt lat="56.53773" lon="61.007256">
        <ele>258.7</ele>
        <time>2022-06-29T14:17:55.785Z</time>
    </trkpt>
    <trkpt lat="56.537771" lon="61.007296">
        <ele>258.4</ele>
        <time>2022-06-29T14:17:58.100Z</time>
    </trkpt>
    <trkpt lat="56.537805" lon="61.007333">
        <ele>258.1</ele>
        <time>2022-06-29T14:18:00.072Z</time>
    </trkpt>
    <trkpt lat="56.537846" lon="61.007372">
        <ele>257.8</ele>
        <time>2022-06-29T14:18:02.374Z</time>
    </trkpt>
    <trkpt lat="56.537903" lon="61.007401">
        <ele>257.6</ele>
        <time>2022-06-29T14:18:05.318Z</time>
    </trkpt>
    <trkpt lat="56.537953" lon="61.007429">
        <ele>257.3</ele>
        <time>2022-06-29T14:18:07.920Z</time>
    </trkpt>
    <trkpt lat="56.538004" lon="61.007453">
        <ele>257.1</ele>
        <time>2022-06-29T14:18:10.540Z</time>
    </trkpt>
    <trkpt lat="56.538044" lon="61.007478">
        <ele>257.0</ele>
        <time>2022-06-29T14:18:12.644Z</time>
    </trkpt>
    <trkpt lat="56.538104" lon="61.007489">
        <ele>257.0</ele>
        <time>2022-06-29T14:18:15.643Z</time>
    </trkpt>
    <trkpt lat="56.538153" lon="61.007503">
        <ele>257.0</ele>
        <time>2022-06-29T14:18:18.110Z</time>
    </trkpt>
    <trkpt lat="56.538211" lon="61.007502">
        <ele>257.0</ele>
        <time>2022-06-29T14:18:20.994Z</time>
    </trkpt>
    <trkpt lat="56.538269" lon="61.007508">
        <ele>257.0</ele>
        <time>2022-06-29T14:18:23.883Z</time>
    </trkpt>
    <trkpt lat="56.538339" lon="61.007499">
        <ele>257.0</ele>
        <time>2022-06-29T14:18:27.373Z</time>
    </trkpt>
    <trkpt lat="56.538414" lon="61.007486">
        <ele>256.5</ele>
        <time>2022-06-29T14:18:31.120Z</time>
    </trkpt>
    <trkpt lat="56.538489" lon="61.007458">
        <ele>256.4</ele>
        <time>2022-06-29T14:18:34.928Z</time>
    </trkpt>
    <trkpt lat="56.53856" lon="61.007429">
        <ele>256.3</ele>
        <time>2022-06-29T14:18:38.547Z</time>
    </trkpt>
    <trkpt lat="56.538639" lon="61.007418">
        <ele>256.2</ele>
        <time>2022-06-29T14:18:42.487Z</time>
    </trkpt>
    <trkpt lat="56.538717" lon="61.007415">
        <ele>256.2</ele>
        <time>2022-06-29T14:18:46.367Z</time>
    </trkpt>
    <trkpt lat="56.538794" lon="61.007406">
        <ele>256.1</ele>
        <time>2022-06-29T14:18:50.204Z</time>
    </trkpt>
    <trkpt lat="56.538871" lon="61.007401">
        <ele>256.1</ele>
        <time>2022-06-29T14:18:54.036Z</time>
    </trkpt>
    <trkpt lat="56.538946" lon="61.007401">
        <ele>256.0</ele>
        <time>2022-06-29T14:18:57.766Z</time>
    </trkpt>
    <trkpt lat="56.539022" lon="61.007403">
        <ele>256.0</ele>
        <time>2022-06-29T14:19:01.546Z</time>
    </trkpt>
    <trkpt lat="56.539094" lon="61.007406">
        <ele>256.0</ele>
        <time>2022-06-29T14:19:05.128Z</time>
    </trkpt>
    <trkpt lat="56.539166" lon="61.007364">
        <ele>255.9</ele>
        <time>2022-06-29T14:19:08.889Z</time>
    </trkpt>
    <trkpt lat="56.539235" lon="61.007324">
        <ele>255.8</ele>
        <time>2022-06-29T14:19:12.491Z</time>
    </trkpt>
    <trkpt lat="56.539306" lon="61.00729">
        <ele>255.7</ele>
        <time>2022-06-29T14:19:16.143Z</time>
    </trkpt>
    <trkpt lat="56.539372" lon="61.007254">
        <ele>255.6</ele>
        <time>2022-06-29T14:19:19.570Z</time>
    </trkpt>
    <trkpt lat="56.539427" lon="61.007234">
        <ele>255.5</ele>
        <time>2022-06-29T14:19:22.360Z</time>
    </trkpt>
    <trkpt lat="56.539497" lon="61.007197">
        <ele>255.4</ele>
        <time>2022-06-29T14:19:25.986Z</time>
    </trkpt>
    <trkpt lat="56.539568" lon="61.007167">
        <ele>254.8</ele>
        <time>2022-06-29T14:19:29.611Z</time>
    </trkpt>
    <trkpt lat="56.539634" lon="61.007142">
        <ele>249.6</ele>
        <time>2022-06-29T14:19:32.964Z</time>
    </trkpt>
    <trkpt lat="56.539707" lon="61.007132">
        <ele>198.4</ele>
        <time>2022-06-29T14:19:36.605Z</time>
    </trkpt>
    <trkpt lat="56.539775" lon="61.007129">
        <ele>198.7</ele>
        <time>2022-06-29T14:19:39.988Z</time>
    </trkpt>
    <trkpt lat="56.539838" lon="61.007123">
        <ele>199.2</ele>
        <time>2022-06-29T14:19:43.125Z</time>
    </trkpt>
    <trkpt lat="56.539882" lon="61.00713">
        <ele>200.1</ele>
        <time>2022-06-29T14:19:45.321Z</time>
    </trkpt>
    <trkpt lat="56.539941" lon="61.007138">
        <ele>201.3</ele>
        <time>2022-06-29T14:19:48.263Z</time>
    </trkpt>
    <trkpt lat="56.540007" lon="61.007151">
        <ele>202.9</ele>
        <time>2022-06-29T14:19:51.565Z</time>
    </trkpt>
    <trkpt lat="56.54008" lon="61.007144">
        <ele>204.8</ele>
        <time>2022-06-29T14:19:55.200Z</time>
    </trkpt>
    <trkpt lat="56.54015" lon="61.007141">
        <ele>207.2</ele>
        <time>2022-06-29T14:19:58.682Z</time>
    </trkpt>
    <trkpt lat="56.540202" lon="61.007132">
        <ele>210.1</ele>
        <time>2022-06-29T14:20:01.280Z</time>
    </trkpt>
    <trkpt lat="56.540245" lon="61.00712">
        <ele>213.4</ele>
        <time>2022-06-29T14:20:03.443Z</time>
    </trkpt>
    <trkpt lat="56.540289" lon="61.007109">
        <ele>217.3</ele>
        <time>2022-06-29T14:20:05.652Z</time>
    </trkpt>
    <trkpt lat="56.540319" lon="61.007099">
        <ele>222.0</ele>
        <time>2022-06-29T14:20:07.169Z</time>
    </trkpt>
    <trkpt lat="56.540327" lon="61.007102">
        <ele>227.7</ele>
        <time>2022-06-29T14:20:07.575Z</time>
    </trkpt>
    <trkpt lat="56.540337" lon="61.00711">
        <ele>234.8</ele>
        <time>2022-06-29T14:20:08.118Z</time>
    </trkpt>
    <trkpt lat="56.540348" lon="61.007113">
        <ele>243.5</ele>
        <time>2022-06-29T14:20:08.671Z</time>
    </trkpt>
    <trkpt lat="56.540355" lon="61.007112">
        <ele>254.2</ele>
        <time>2022-06-29T14:20:09.020Z</time>
    </trkpt>
    <trkpt lat="56.540363" lon="61.007115">
        <ele>254.2</ele>
        <time>2022-06-29T14:20:09.426Z</time>
    </trkpt>
    <trkpt lat="56.540372" lon="61.00712">
        <ele>254.2</ele>
        <time>2022-06-29T14:20:09.894Z</time>
    </trkpt>
    <trkpt lat="56.540375" lon="61.007132">
        <ele>254.1</ele>
        <time>2022-06-29T14:20:10.255Z</time>
    </trkpt>
    <trkpt lat="56.540392" lon="61.007142">
        <ele>254.1</ele>
        <time>2022-06-29T14:20:11.143Z</time>
    </trkpt>
    <trkpt lat="56.540393" lon="61.007143">
        <ele>254.1</ele>
        <time>2022-06-29T14:20:11.199Z</time>
    </trkpt>
    <trkpt lat="56.540393" lon="61.007142">
        <ele>254.1</ele>
        <time>2022-06-29T14:20:11.226Z</time>
    </trkpt>
    <trkpt lat="56.540402" lon="61.007138">
        <ele>254.1</ele>
        <time>2022-06-29T14:20:11.686Z</time>
    </trkpt>
    <trkpt lat="56.540408" lon="61.007135">
        <ele>254.1</ele>
        <time>2022-06-29T14:20:11.995Z</time>
    </trkpt>
    <trkpt lat="56.540413" lon="61.007147">
        <ele>254.1</ele>
        <time>2022-06-29T14:20:12.407Z</time>
    </trkpt>
    <trkpt lat="56.540421" lon="61.007156">
        <ele>254.1</ele>
        <time>2022-06-29T14:20:12.875Z</time>
    </trkpt>
    <trkpt lat="56.540426" lon="61.007157">
        <ele>254.1</ele>
        <time>2022-06-29T14:20:13.125Z</time>
    </trkpt>
    <trkpt lat="56.54043" lon="61.007154">
        <ele>254.1</ele>
        <time>2022-06-29T14:20:13.340Z</time>
    </trkpt>
    <trkpt lat="56.540437" lon="61.007153">
        <ele>254.1</ele>
        <time>2022-06-29T14:20:13.689Z</time>
    </trkpt>
    <trkpt lat="56.540437" lon="61.007151">
        <ele>254.1</ele>
        <time>2022-06-29T14:20:13.743Z</time>
    </trkpt>
    <trkpt lat="56.54044" lon="61.007143">
        <ele>254.1</ele>
        <time>2022-06-29T14:20:14.008Z</time>
    </trkpt>
    <trkpt lat="56.540442" lon="61.007135">
        <ele>254.1</ele>
        <time>2022-06-29T14:20:14.248Z</time>
    </trkpt>
    <trkpt lat="56.540447" lon="61.007135">
        <ele>254.1</ele>
        <time>2022-06-29T14:20:14.496Z</time>
    </trkpt>
    <trkpt lat="56.540452" lon="61.007134">
        <ele>254.1</ele>
        <time>2022-06-29T14:20:14.746Z</time>
    </trkpt>
    <trkpt lat="56.540464" lon="61.007143">
        <ele>254.1</ele>
        <time>2022-06-29T14:20:15.391Z</time>
    </trkpt>
    <trkpt lat="56.540463" lon="61.007142">
        <ele>254.1</ele>
        <time>2022-06-29T14:20:15.447Z</time>
    </trkpt>
    <trkpt lat="56.540464" lon="61.007143">
        <ele>254.1</ele>
        <time>2022-06-29T14:20:15.503Z</time>
    </trkpt>
    <trkpt lat="56.540462" lon="61.007143">
        <ele>254.1</ele>
        <time>2022-06-29T14:20:15.602Z</time>
    </trkpt>
    <trkpt lat="56.540462" lon="61.007142">
        <ele>254.1</ele>
        <time>2022-06-29T14:20:15.629Z</time>
    </trkpt>
    <trkpt lat="56.54046" lon="61.00714">
        <ele>254.0</ele>
        <time>2022-06-29T14:20:15.742Z</time>
    </trkpt>
    <trkpt lat="56.540468" lon="61.007142">
        <ele>254.0</ele>
        <time>2022-06-29T14:20:16.143Z</time>
    </trkpt>
    <trkpt lat="56.540478" lon="61.007143">
        <ele>254.0</ele>
        <time>2022-06-29T14:20:16.641Z</time>
    </trkpt>
    <trkpt lat="56.540479" lon="61.007144">
        <ele>254.0</ele>
        <time>2022-06-29T14:20:16.697Z</time>
    </trkpt>
    <trkpt lat="56.54048" lon="61.007146">
        <ele>254.0</ele>
        <time>2022-06-29T14:20:16.771Z</time>
    </trkpt>
    <trkpt lat="56.540482" lon="61.007149">
        <ele>254.0</ele>
        <time>2022-06-29T14:20:16.900Z</time>
    </trkpt>
    <trkpt lat="56.540483" lon="61.007149">
        <ele>254.0</ele>
        <time>2022-06-29T14:20:16.949Z</time>
    </trkpt>
    <trkpt lat="56.540485" lon="61.007151">
        <ele>254.0</ele>
        <time>2022-06-29T14:20:17.062Z</time>
    </trkpt>
    <trkpt lat="56.540485" lon="61.007152">
        <ele>254.0</ele>
        <time>2022-06-29T14:20:17.089Z</time>
    </trkpt>
    <trkpt lat="56.540492" lon="61.007156">
        <ele>254.0</ele>
        <time>2022-06-29T14:20:17.454Z</time>
    </trkpt>
    <trkpt lat="56.540497" lon="61.007161">
        <ele>254.0</ele>
        <time>2022-06-29T14:20:17.737Z</time>
    </trkpt>
    <trkpt lat="56.540501" lon="61.007159">
        <ele>254.0</ele>
        <time>2022-06-29T14:20:17.943Z</time>
    </trkpt>
    <trkpt lat="56.540501" lon="61.007157">
        <ele>254.0</ele>
        <time>2022-06-29T14:20:17.997Z</time>
    </trkpt>
    <trkpt lat="56.540501" lon="61.007156">
        <ele>254.0</ele>
        <time>2022-06-29T14:20:18.024Z</time>
    </trkpt>
    <trkpt lat="56.540503" lon="61.007158">
        <ele>254.0</ele>
        <time>2022-06-29T14:20:18.137Z</time>
    </trkpt>
    <trkpt lat="56.540507" lon="61.007177">
        <ele>254.0</ele>
        <time>2022-06-29T14:20:18.694Z</time>
    </trkpt>
    <trkpt lat="56.540511" lon="61.00718">
        <ele>254.0</ele>
        <time>2022-06-29T14:20:18.909Z</time>
    </trkpt>
    <trkpt lat="56.54051" lon="61.007185">
        <ele>254.0</ele>
        <time>2022-06-29T14:20:19.054Z</time>
    </trkpt>
    <trkpt lat="56.540513" lon="61.007192">
        <ele>254.0</ele>
        <time>2022-06-29T14:20:19.297Z</time>
    </trkpt>
    <trkpt lat="56.540519" lon="61.007204">
        <ele>254.0</ele>
        <time>2022-06-29T14:20:19.741Z</time>
    </trkpt>
    <trkpt lat="56.540526" lon="61.007206">
        <ele>254.0</ele>
        <time>2022-06-29T14:20:20.093Z</time>
    </trkpt>
    <trkpt lat="56.540538" lon="61.007223">
        <ele>254.0</ele>
        <time>2022-06-29T14:20:20.850Z</time>
    </trkpt>
    <trkpt lat="56.540545" lon="61.007225">
        <ele>254.0</ele>
        <time>2022-06-29T14:20:21.202Z</time>
    </trkpt>
    <trkpt lat="56.540557" lon="61.007234">
        <ele>254.0</ele>
        <time>2022-06-29T14:20:21.847Z</time>
    </trkpt>
    <trkpt lat="56.540545" lon="61.00721">
        <ele>254.0</ele>
        <time>2022-06-29T14:20:22.735Z</time>
    </trkpt>
    <trkpt lat="56.540547" lon="61.007203">
        <ele>254.0</ele>
        <time>2022-06-29T14:20:22.951Z</time>
    </trkpt>
    <trkpt lat="56.540552" lon="61.007207">
        <ele>254.0</ele>
        <time>2022-06-29T14:20:23.222Z</time>
    </trkpt>
    <trkpt lat="56.540552" lon="61.007208">
        <ele>254.0</ele>
        <time>2022-06-29T14:20:23.249Z</time>
    </trkpt>
    <trkpt lat="56.540553" lon="61.007209">
        <ele>254.0</ele>
        <time>2022-06-29T14:20:23.305Z</time>
    </trkpt>
    <trkpt lat="56.540554" lon="61.007209">
        <ele>254.0</ele>
        <time>2022-06-29T14:20:23.354Z</time>
    </trkpt>
    <trkpt lat="56.540555" lon="61.00721">
        <ele>254.0</ele>
        <time>2022-06-29T14:20:23.410Z</time>
    </trkpt>
    <trkpt lat="56.540556" lon="61.007212">
        <ele>254.0</ele>
        <time>2022-06-29T14:20:23.484Z</time>
    </trkpt>
    <trkpt lat="56.540557" lon="61.007213">
        <ele>254.0</ele>
        <time>2022-06-29T14:20:23.540Z</time>
    </trkpt>
    <trkpt lat="56.540557" lon="61.007214">
        <ele>254.0</ele>
        <time>2022-06-29T14:20:23.567Z</time>
    </trkpt>
    <trkpt lat="56.540557" lon="61.007215">
        <ele>254.0</ele>
        <time>2022-06-29T14:20:23.594Z</time>
    </trkpt>
    <trkpt lat="56.540557" lon="61.007216">
        <ele>254.0</ele>
        <time>2022-06-29T14:20:23.621Z</time>
    </trkpt>
    <trkpt lat="56.540558" lon="61.007217">
        <ele>254.0</ele>
        <time>2022-06-29T14:20:23.677Z</time>
    </trkpt>
    <trkpt lat="56.540558" lon="61.007218">
        <ele>254.0</ele>
        <time>2022-06-29T14:20:23.704Z</time>
    </trkpt>
    <trkpt lat="56.540559" lon="61.007219">
        <ele>254.0</ele>
        <time>2022-06-29T14:20:23.760Z</time>
    </trkpt>
    <trkpt lat="56.540559" lon="61.00722">
        <ele>254.0</ele>
        <time>2022-06-29T14:20:23.787Z</time>
    </trkpt>
    <trkpt lat="56.54056" lon="61.007222">
        <ele>254.0</ele>
        <time>2022-06-29T14:20:23.861Z</time>
    </trkpt>
    <trkpt lat="56.540559" lon="61.007223">
        <ele>254.0</ele>
        <time>2022-06-29T14:20:23.917Z</time>
    </trkpt>
    <trkpt lat="56.540567" lon="61.007223">
        <ele>254.0</ele>
        <time>2022-06-29T14:20:24.314Z</time>
    </trkpt>
    <trkpt lat="56.540575" lon="61.007216">
        <ele>254.0</ele>
        <time>2022-06-29T14:20:24.755Z</time>
    </trkpt>
    <trkpt lat="56.540577" lon="61.007216">
        <ele>254.0</ele>
        <time>2022-06-29T14:20:24.854Z</time>
    </trkpt>
    <trkpt lat="56.540578" lon="61.007218">
        <ele>254.0</ele>
        <time>2022-06-29T14:20:24.928Z</time>
    </trkpt>
    <trkpt lat="56.540579" lon="61.007216">
        <ele>254.0</ele>
        <time>2022-06-29T14:20:25.002Z</time>
    </trkpt>
    <trkpt lat="56.540579" lon="61.007217">
        <ele>254.0</ele>
        <time>2022-06-29T14:20:25.029Z</time>
    </trkpt>
    <trkpt lat="56.54058" lon="61.007216">
        <ele>254.0</ele>
        <time>2022-06-29T14:20:25.085Z</time>
    </trkpt>
    <trkpt lat="56.54058" lon="61.007218">
        <ele>254.0</ele>
        <time>2022-06-29T14:20:25.139Z</time>
    </trkpt>
    <trkpt lat="56.540582" lon="61.007216">
        <ele>254.0</ele>
        <time>2022-06-29T14:20:25.252Z</time>
    </trkpt>
    <trkpt lat="56.540581" lon="61.007226">
        <ele>254.0</ele>
        <time>2022-06-29T14:20:25.530Z</time>
    </trkpt>
    <trkpt lat="56.54058" lon="61.007225">
        <ele>254.0</ele>
        <time>2022-06-29T14:20:25.586Z</time>
    </trkpt>
    <trkpt lat="56.540574" lon="61.007205">
        <ele>254.0</ele>
        <time>2022-06-29T14:20:26.210Z</time>
    </trkpt>
    <trkpt lat="56.540575" lon="61.007207">
        <ele>254.0</ele>
        <time>2022-06-29T14:20:26.284Z</time>
    </trkpt>
    <trkpt lat="56.540575" lon="61.007208">
        <ele>254.0</ele>
        <time>2022-06-29T14:20:26.311Z</time>
    </trkpt>
    <trkpt lat="56.540574" lon="61.007208">
        <ele>254.0</ele>
        <time>2022-06-29T14:20:26.360Z</time>
    </trkpt>
    <trkpt lat="56.540573" lon="61.007207">
        <ele>254.0</ele>
        <time>2022-06-29T14:20:26.416Z</time>
    </trkpt>
    <trkpt lat="56.540569" lon="61.0072">
        <ele>254.0</ele>
        <time>2022-06-29T14:20:26.692Z</time>
    </trkpt>
    <trkpt lat="56.540568" lon="61.007198">
        <ele>254.0</ele>
        <time>2022-06-29T14:20:26.766Z</time>
    </trkpt>
    <trkpt lat="56.540569" lon="61.007205">
        <ele>254.0</ele>
        <time>2022-06-29T14:20:26.964Z</time>
    </trkpt>
    <trkpt lat="56.540572" lon="61.007213">
        <ele>254.0</ele>
        <time>2022-06-29T14:20:27.229Z</time>
    </trkpt>
    <trkpt lat="56.540577" lon="61.007222">
        <ele>254.0</ele>
        <time>2022-06-29T14:20:27.579Z</time>
    </trkpt>
    <trkpt lat="56.540579" lon="61.007224">
        <ele>254.0</ele>
        <time>2022-06-29T14:20:27.692Z</time>
    </trkpt>
    <trkpt lat="56.54058" lon="61.007226">
        <ele>254.0</ele>
        <time>2022-06-29T14:20:27.766Z</time>
    </trkpt>
    <trkpt lat="56.540581" lon="61.007223">
        <ele>254.0</ele>
        <time>2022-06-29T14:20:27.862Z</time>
    </trkpt>
    <trkpt lat="56.540581" lon="61.007225">
        <ele>254.0</ele>
        <time>2022-06-29T14:20:27.916Z</time>
    </trkpt>
    <trkpt lat="56.540582" lon="61.007227">
        <ele>254.0</ele>
        <time>2022-06-29T14:20:27.990Z</time>
    </trkpt>
    <trkpt lat="56.540582" lon="61.007228">
        <ele>254.0</ele>
        <time>2022-06-29T14:20:28.017Z</time>
    </trkpt>
    <trkpt lat="56.540582" lon="61.007226">
        <ele>254.0</ele>
        <time>2022-06-29T14:20:28.071Z</time>
    </trkpt>
    <trkpt lat="56.540583" lon="61.00723">
        <ele>253.9</ele>
        <time>2022-06-29T14:20:28.191Z</time>
    </trkpt>
    <trkpt lat="56.540588" lon="61.007244">
        <ele>253.9</ele>
        <time>2022-06-29T14:20:28.648Z</time>
    </trkpt>
    <trkpt lat="56.540592" lon="61.007237">
        <ele>254.0</ele>
        <time>2022-06-29T14:20:28.924Z</time>
    </trkpt>
    <trkpt lat="56.540596" lon="61.007228">
        <ele>254.0</ele>
        <time>2022-06-29T14:20:29.241Z</time>
    </trkpt>
    <trkpt lat="56.540596" lon="61.007226">
        <ele>254.0</ele>
        <time>2022-06-29T14:20:29.295Z</time>
    </trkpt>
    <trkpt lat="56.540596" lon="61.007227">
        <ele>254.0</ele>
        <time>2022-06-29T14:20:29.322Z</time>
    </trkpt>
    <trkpt lat="56.540597" lon="61.007227">
        <ele>254.0</ele>
        <time>2022-06-29T14:20:29.371Z</time>
    </trkpt>
    <trkpt lat="56.540604" lon="61.007229">
        <ele>253.9</ele>
        <time>2022-06-29T14:20:29.723Z</time>
    </trkpt>
    <trkpt lat="56.54061" lon="61.007236">
        <ele>254.0</ele>
        <time>2022-06-29T14:20:30.077Z</time>
    </trkpt>
    <trkpt lat="56.540617" lon="61.007223">
        <ele>254.0</ele>
        <time>2022-06-29T14:20:30.575Z</time>
    </trkpt>
    <trkpt lat="56.540619" lon="61.007224">
        <ele>253.9</ele>
        <time>2022-06-29T14:20:30.678Z</time>
    </trkpt>
    <trkpt lat="56.540622" lon="61.00723">
        <ele>253.9</ele>
        <time>2022-06-29T14:20:30.900Z</time>
    </trkpt>
    <trkpt lat="56.540622" lon="61.007229">
        <ele>253.9</ele>
        <time>2022-06-29T14:20:30.927Z</time>
    </trkpt>
    <trkpt lat="56.540622" lon="61.00723">
        <ele>253.9</ele>
        <time>2022-06-29T14:20:30.954Z</time>
    </trkpt>
    <trkpt lat="56.540622" lon="61.007231">
        <ele>253.9</ele>
        <time>2022-06-29T14:20:30.981Z</time>
    </trkpt>
    <trkpt lat="56.540622" lon="61.007232">
        <ele>253.9</ele>
        <time>2022-06-29T14:20:31.008Z</time>
    </trkpt>
    <trkpt lat="56.540623" lon="61.007235">
        <ele>253.9</ele>
        <time>2022-06-29T14:20:31.104Z</time>
    </trkpt>
    <trkpt lat="56.540623" lon="61.007236">
        <ele>253.9</ele>
        <time>2022-06-29T14:20:31.131Z</time>
    </trkpt>
    <trkpt lat="56.540624" lon="61.007235">
        <ele>253.9</ele>
        <time>2022-06-29T14:20:31.187Z</time>
    </trkpt>
    <trkpt lat="56.540625" lon="61.007233">
        <ele>253.9</ele>
        <time>2022-06-29T14:20:31.261Z</time>
    </trkpt>
    <trkpt lat="56.540626" lon="61.007231">
        <ele>253.9</ele>
        <time>2022-06-29T14:20:31.335Z</time>
    </trkpt>
    <trkpt lat="56.540627" lon="61.00723">
        <ele>253.9</ele>
        <time>2022-06-29T14:20:31.391Z</time>
    </trkpt>
    <trkpt lat="56.540628" lon="61.00723">
        <ele>253.9</ele>
        <time>2022-06-29T14:20:31.440Z</time>
    </trkpt>
    <trkpt lat="56.540628" lon="61.007229">
        <ele>253.9</ele>
        <time>2022-06-29T14:20:31.467Z</time>
    </trkpt>
    <trkpt lat="56.540627" lon="61.007229">
        <ele>254.0</ele>
        <time>2022-06-29T14:20:31.516Z</time>
    </trkpt>
    <trkpt lat="56.540626" lon="61.007228">
        <ele>254.0</ele>
        <time>2022-06-29T14:20:31.572Z</time>
    </trkpt>
    <trkpt lat="56.540626" lon="61.007227">
        <ele>254.0</ele>
        <time>2022-06-29T14:20:31.599Z</time>
    </trkpt>
    <trkpt lat="56.540626" lon="61.007226">
        <ele>253.9</ele>
        <time>2022-06-29T14:20:31.626Z</time>
    </trkpt>
    <trkpt lat="56.540627" lon="61.007228">
        <ele>253.9</ele>
        <time>2022-06-29T14:20:31.700Z</time>
    </trkpt>
    <trkpt lat="56.540624" lon="61.007234">
        <ele>253.9</ele>
        <time>2022-06-29T14:20:31.922Z</time>
    </trkpt>
    <trkpt lat="56.540621" lon="61.007243">
        <ele>253.9</ele>
        <time>2022-06-29T14:20:32.210Z</time>
    </trkpt>
    <trkpt lat="56.540622" lon="61.007244">
        <ele>253.9</ele>
        <time>2022-06-29T14:20:32.266Z</time>
    </trkpt>
    <trkpt lat="56.540628" lon="61.007228">
        <ele>253.9</ele>
        <time>2022-06-29T14:20:32.796Z</time>
    </trkpt>
    <trkpt lat="56.54063" lon="61.007241">
        <ele>253.9</ele>
        <time>2022-06-29T14:20:33.166Z</time>
    </trkpt>
    <trkpt lat="56.540636" lon="61.007233">
        <ele>253.9</ele>
        <time>2022-06-29T14:20:33.536Z</time>
    </trkpt>
    <trkpt lat="56.540643" lon="61.007225">
        <ele>253.9</ele>
        <time>2022-06-29T14:20:33.947Z</time>
    </trkpt>
    <trkpt lat="56.540648" lon="61.007224">
        <ele>253.9</ele>
        <time>2022-06-29T14:20:34.197Z</time>
    </trkpt>
    <trkpt lat="56.540651" lon="61.007224">
        <ele>253.9</ele>
        <time>2022-06-29T14:20:34.346Z</time>
    </trkpt>
    <trkpt lat="56.540659" lon="61.007212">
        <ele>253.9</ele>
        <time>2022-06-29T14:20:34.862Z</time>
    </trkpt>
    <trkpt lat="56.540662" lon="61.007203">
        <ele>253.9</ele>
        <time>2022-06-29T14:20:35.150Z</time>
    </trkpt>
    <trkpt lat="56.540675" lon="61.00719">
        <ele>253.9</ele>
        <time>2022-06-29T14:20:35.888Z</time>
    </trkpt>
    <trkpt lat="56.540689" lon="61.007165">
        <ele>253.9</ele>
        <time>2022-06-29T14:20:36.865Z</time>
    </trkpt>
    <trkpt lat="56.540709" lon="61.007159">
        <ele>253.9</ele>
        <time>2022-06-29T14:20:37.873Z</time>
    </trkpt>
    <trkpt lat="56.540726" lon="61.00714">
        <ele>253.9</ele>
        <time>2022-06-29T14:20:38.866Z</time>
    </trkpt>
    <trkpt lat="56.540729" lon="61.007138">
        <ele>253.9</ele>
        <time>2022-06-29T14:20:39.024Z</time>
    </trkpt>
    <trkpt lat="56.54074" lon="61.007122">
        <ele>253.9</ele>
        <time>2022-06-29T14:20:39.725Z</time>
    </trkpt>
    <trkpt lat="56.540754" lon="61.007124">
        <ele>253.9</ele>
        <time>2022-06-29T14:20:40.423Z</time>
    </trkpt>
    <trkpt lat="56.540771" lon="61.007125">
        <ele>253.8</ele>
        <time>2022-06-29T14:20:41.268Z</time>
    </trkpt>
    <trkpt lat="56.540788" lon="61.007128">
        <ele>253.8</ele>
        <time>2022-06-29T14:20:42.117Z</time>
    </trkpt>
    <trkpt lat="56.540805" lon="61.00711">
        <ele>253.8</ele>
        <time>2022-06-29T14:20:43.096Z</time>
    </trkpt>
    <trkpt lat="56.540827" lon="61.007088">
        <ele>253.8</ele>
        <time>2022-06-29T14:20:44.345Z</time>
    </trkpt>
    <trkpt lat="56.540851" lon="61.00707">
        <ele>253.8</ele>
        <time>2022-06-29T14:20:45.636Z</time>
    </trkpt>
    <trkpt lat="56.540861" lon="61.007053">
        <ele>253.7</ele>
        <time>2022-06-29T14:20:46.317Z</time>
    </trkpt>
    <trkpt lat="56.540878" lon="61.007038">
        <ele>253.7</ele>
        <time>2022-06-29T14:20:47.257Z</time>
    </trkpt>
    <trkpt lat="56.540884" lon="61.007002">
        <ele>253.7</ele>
        <time>2022-06-29T14:20:48.288Z</time>
    </trkpt>
    <trkpt lat="56.540893" lon="61.006967">
        <ele>253.7</ele>
        <time>2022-06-29T14:20:49.347Z</time>
    </trkpt>
    <trkpt lat="56.540903" lon="61.00693">
        <ele>253.7</ele>
        <time>2022-06-29T14:20:50.476Z</time>
    </trkpt>
    <trkpt lat="56.540905" lon="61.006871">
        <ele>253.7</ele>
        <time>2022-06-29T14:20:52.096Z</time>
    </trkpt>
    <trkpt lat="56.540909" lon="61.006805">
        <ele>253.7</ele>
        <time>2022-06-29T14:20:53.916Z</time>
    </trkpt>
    <trkpt lat="56.540915" lon="61.006735">
        <ele>253.7</ele>
        <time>2022-06-29T14:20:55.858Z</time>
    </trkpt>
    <trkpt lat="56.540918" lon="61.006666">
        <ele>253.9</ele>
        <time>2022-06-29T14:20:57.756Z</time>
    </trkpt>
    <trkpt lat="56.540914" lon="61.0066">
        <ele>254.2</ele>
        <time>2022-06-29T14:20:59.576Z</time>
    </trkpt>
    <trkpt lat="56.540911" lon="61.006517">
        <ele>254.5</ele>
        <time>2022-06-29T14:21:01.856Z</time>
    </trkpt>
    <trkpt lat="56.54091" lon="61.006442">
        <ele>254.8</ele>
        <time>2022-06-29T14:21:03.913Z</time>
    </trkpt>
    <trkpt lat="56.540912" lon="61.006338">
        <ele>255.2</ele>
        <time>2022-06-29T14:21:06.766Z</time>
    </trkpt>
    <trkpt lat="56.540908" lon="61.006214">
        <ele>255.2</ele>
        <time>2022-06-29T14:21:10.172Z</time>
    </trkpt>
    <trkpt lat="56.540888" lon="61.006089">
        <ele>255.2</ele>
        <time>2022-06-29T14:21:13.741Z</time>
    </trkpt>
    <trkpt lat="56.540873" lon="61.00596">
        <ele>255.3</ele>
        <time>2022-06-29T14:21:17.356Z</time>
    </trkpt>
    <trkpt lat="56.540861" lon="61.005823">
        <ele>255.3</ele>
        <time>2022-06-29T14:21:21.160Z</time>
    </trkpt>
    <trkpt lat="56.540847" lon="61.005693">
        <ele>255.4</ele>
        <time>2022-06-29T14:21:24.792Z</time>
    </trkpt>
    <trkpt lat="56.540827" lon="61.005554">
        <ele>255.4</ele>
        <time>2022-06-29T14:21:28.731Z</time>
    </trkpt>
    <trkpt lat="56.540804" lon="61.005403">
        <ele>255.5</ele>
        <time>2022-06-29T14:21:33.026Z</time>
    </trkpt>
    <trkpt lat="56.540792" lon="61.005257">
        <ele>255.5</ele>
        <time>2022-06-29T14:21:37.073Z</time>
    </trkpt>
    <trkpt lat="56.540786" lon="61.005103">
        <ele>255.6</ele>
        <time>2022-06-29T14:21:41.306Z</time>
    </trkpt>
    <trkpt lat="56.54077" lon="61.004961">
        <ele>255.7</ele>
        <time>2022-06-29T14:21:45.280Z</time>
    </trkpt>
    <trkpt lat="56.540751" lon="61.004803">
        <ele>255.8</ele>
        <time>2022-06-29T14:21:49.714Z</time>
    </trkpt>
    <trkpt lat="56.54073" lon="61.004636">
        <ele>255.9</ele>
        <time>2022-06-29T14:21:54.411Z</time>
    </trkpt>
    <trkpt lat="56.54071" lon="61.004489">
        <ele>256.0</ele>
        <time>2022-06-29T14:21:58.563Z</time>
    </trkpt>
    <trkpt lat="56.540701" lon="61.004405">
        <ele>256.0</ele>
        <time>2022-06-29T14:22:00.909Z</time>
    </trkpt>
    <trkpt lat="56.540687" lon="61.004265">
        <ele>256.0</ele>
        <time>2022-06-29T14:22:04.810Z</time>
    </trkpt>
    <trkpt lat="56.540673" lon="61.004141">
        <ele>256.0</ele>
        <time>2022-06-29T14:22:08.281Z</time>
    </trkpt>
    <trkpt lat="56.540659" lon="61.004011">
        <ele>256.0</ele>
        <time>2022-06-29T14:22:11.913Z</time>
    </trkpt>
    <trkpt lat="56.540657" lon="61.003883">
        <ele>256.0</ele>
        <time>2022-06-29T14:22:15.424Z</time>
    </trkpt>
    <trkpt lat="56.540652" lon="61.003758">
        <ele>256.0</ele>
        <time>2022-06-29T14:22:18.860Z</time>
    </trkpt>
    <trkpt lat="56.540648" lon="61.003654">
        <ele>256.0</ele>
        <time>2022-06-29T14:22:21.718Z</time>
    </trkpt>
    <trkpt lat="56.540641" lon="61.003573">
        <ele>256.0</ele>
        <time>2022-06-29T14:22:23.966Z</time>
    </trkpt>
    <trkpt lat="56.540638" lon="61.003497">
        <ele>255.9</ele>
        <time>2022-06-29T14:22:26.055Z</time>
    </trkpt>
    <trkpt lat="56.540627" lon="61.003397">
        <ele>255.8</ele>
        <time>2022-06-29T14:22:28.851Z</time>
    </trkpt>
    <trkpt lat="56.54062" lon="61.003303">
        <ele>255.3</ele>
        <time>2022-06-29T14:22:31.452Z</time>
    </trkpt>
    <trkpt lat="56.540611" lon="61.003172">
        <ele>255.1</ele>
        <time>2022-06-29T14:22:35.072Z</time>
    </trkpt>
    <trkpt lat="56.540605" lon="61.003034">
        <ele>255.5</ele>
        <time>2022-06-29T14:22:38.868Z</time>
    </trkpt>
    <trkpt lat="56.540601" lon="61.002895">
        <ele>255.8</ele>
        <time>2022-06-29T14:22:42.684Z</time>
    </trkpt>
    <trkpt lat="56.540598" lon="61.002788">
        <ele>255.8</ele>
        <time>2022-06-29T14:22:45.622Z</time>
    </trkpt>
    <trkpt lat="56.540592" lon="61.002683">
        <ele>255.8</ele>
        <time>2022-06-29T14:22:48.516Z</time>
    </trkpt>
    <trkpt lat="56.540587" lon="61.002559">
        <ele>255.8</ele>
        <time>2022-06-29T14:22:51.925Z</time>
    </trkpt>
    <trkpt lat="56.540593" lon="61.002429">
        <ele>255.8</ele>
        <time>2022-06-29T14:22:55.502Z</time>
    </trkpt>
    <trkpt lat="56.540591" lon="61.0023">
        <ele>255.9</ele>
        <time>2022-06-29T14:22:59.040Z</time>
    </trkpt>
    <trkpt lat="56.540589" lon="61.002143">
        <ele>255.9</ele>
        <time>2022-06-29T14:23:03.346Z</time>
    </trkpt>
    <trkpt lat="56.540599" lon="61.001967">
        <ele>255.9</ele>
        <time>2022-06-29T14:23:08.198Z</time>
    </trkpt>
    <trkpt lat="56.540601" lon="61.001796">
        <ele>255.7</ele>
        <time>2022-06-29T14:23:12.888Z</time>
    </trkpt>
    <trkpt lat="56.540594" lon="61.001612">
        <ele>255.7</ele>
        <time>2022-06-29T14:23:17.945Z</time>
    </trkpt>
    <trkpt lat="56.540597" lon="61.00143">
        <ele>256.2</ele>
        <time>2022-06-29T14:23:22.938Z</time>
    </trkpt>
    <trkpt lat="56.540585" lon="61.001253">
        <ele>256.6</ele>
        <time>2022-06-29T14:23:27.828Z</time>
    </trkpt>
    <trkpt lat="56.540568" lon="61.001084">
        <ele>256.7</ele>
        <time>2022-06-29T14:23:32.538Z</time>
    </trkpt>
    <trkpt lat="56.540554" lon="61.00092">
        <ele>256.7</ele>
        <time>2022-06-29T14:23:37.088Z</time>
    </trkpt>
    <trkpt lat="56.540543" lon="61.000735">
        <ele>256.7</ele>
        <time>2022-06-29T14:23:42.190Z</time>
    </trkpt>
    <trkpt lat="56.540529" lon="61.000549">
        <ele>256.7</ele>
        <time>2022-06-29T14:23:47.337Z</time>
    </trkpt>
    <trkpt lat="56.540518" lon="61.000345">
        <ele>256.8</ele>
        <time>2022-06-29T14:23:52.957Z</time>
    </trkpt>
    <trkpt lat="56.5405" lon="61.000132">
        <ele>256.9</ele>
        <time>2022-06-29T14:23:58.866Z</time>
    </trkpt>
    <trkpt lat="56.540484" lon="60.999932">
        <ele>257.0</ele>
        <time>2022-06-29T14:24:04.408Z</time>
    </trkpt>
    <trkpt lat="56.54048" lon="60.999759">
        <ele>257.0</ele>
        <time>2022-06-29T14:24:09.156Z</time>
    </trkpt>
    <trkpt lat="56.540468" lon="60.999597">
        <ele>257.0</ele>
        <time>2022-06-29T14:24:13.638Z</time>
    </trkpt>
    <trkpt lat="56.540472" lon="60.999451">
        <ele>257.0</ele>
        <time>2022-06-29T14:24:17.646Z</time>
    </trkpt>
    <trkpt lat="56.540479" lon="60.999319">
        <ele>256.9</ele>
        <time>2022-06-29T14:24:21.282Z</time>
    </trkpt>
    <trkpt lat="56.540486" lon="60.999198">
        <ele>256.9</ele>
        <time>2022-06-29T14:24:24.618Z</time>
    </trkpt>
    <trkpt lat="56.540502" lon="60.999084">
        <ele>256.8</ele>
        <time>2022-06-29T14:24:27.843Z</time>
    </trkpt>
    <trkpt lat="56.540516" lon="60.998925">
        <ele>256.8</ele>
        <time>2022-06-29T14:24:32.258Z</time>
    </trkpt>
    <trkpt lat="56.540527" lon="60.998792">
        <ele>256.7</ele>
        <time>2022-06-29T14:24:35.946Z</time>
    </trkpt>
    <trkpt lat="56.54055" lon="60.998667">
        <ele>257.0</ele>
        <time>2022-06-29T14:24:39.559Z</time>
    </trkpt>
    <trkpt lat="56.540571" lon="60.998518">
        <ele>257.4</ele>
        <time>2022-06-29T14:24:43.776Z</time>
    </trkpt>
    <trkpt lat="56.540596" lon="60.99837">
        <ele>257.4</ele>
        <time>2022-06-29T14:24:48.020Z</time>
    </trkpt>
    <trkpt lat="56.540624" lon="60.998228">
        <ele>257.3</ele>
        <time>2022-06-29T14:24:52.155Z</time>
    </trkpt>
    <trkpt lat="56.540654" lon="60.998073">
        <ele>257.2</ele>
        <time>2022-06-29T14:24:56.659Z</time>
    </trkpt>
    <trkpt lat="56.540681" lon="60.997923">
        <ele>257.2</ele>
        <time>2022-06-29T14:25:00.986Z</time>
    </trkpt>
    <trkpt lat="56.540711" lon="60.997779">
        <ele>257.6</ele>
        <time>2022-06-29T14:25:05.207Z</time>
    </trkpt>
    <trkpt lat="56.54074" lon="60.997618">
        <ele>257.9</ele>
        <time>2022-06-29T14:25:09.851Z</time>
    </trkpt>
    <trkpt lat="56.54077" lon="60.997454">
        <ele>257.8</ele>
        <time>2022-06-29T14:25:14.589Z</time>
    </trkpt>
    <trkpt lat="56.540797" lon="60.9973">
        <ele>257.7</ele>
        <time>2022-06-29T14:25:19.020Z</time>
    </trkpt>
    <trkpt lat="56.540822" lon="60.997145">
        <ele>257.6</ele>
        <time>2022-06-29T14:25:23.448Z</time>
    </trkpt>
    <trkpt lat="56.540847" lon="60.996983">
        <ele>257.5</ele>
        <time>2022-06-29T14:25:28.061Z</time>
    </trkpt>
    <trkpt lat="56.540878" lon="60.996825">
        <ele>257.4</ele>
        <time>2022-06-29T14:25:32.659Z</time>
    </trkpt>
    <trkpt lat="56.540913" lon="60.996657">
        <ele>257.2</ele>
        <time>2022-06-29T14:25:37.583Z</time>
    </trkpt>
    <trkpt lat="56.540945" lon="60.996485">
        <ele>257.3</ele>
        <time>2022-06-29T14:25:42.561Z</time>
    </trkpt>
    <trkpt lat="56.540968" lon="60.996315">
        <ele>257.6</ele>
        <time>2022-06-29T14:25:47.361Z</time>
    </trkpt>
    <trkpt lat="56.540996" lon="60.99614">
        <ele>257.7</ele>
        <time>2022-06-29T14:25:52.357Z</time>
    </trkpt>
    <trkpt lat="56.541027" lon="60.995976">
        <ele>257.7</ele>
        <time>2022-06-29T14:25:57.111Z</time>
    </trkpt>
    <trkpt lat="56.541055" lon="60.995821">
        <ele>257.7</ele>
        <time>2022-06-29T14:26:01.583Z</time>
    </trkpt>
    <trkpt lat="56.54108" lon="60.995676">
        <ele>257.7</ele>
        <time>2022-06-29T14:26:05.749Z</time>
    </trkpt>
    <trkpt lat="56.541102" lon="60.99553">
        <ele>257.3</ele>
        <time>2022-06-29T14:26:09.899Z</time>
    </trkpt>
    <trkpt lat="56.541121" lon="60.995374">
        <ele>257.2</ele>
        <time>2022-06-29T14:26:14.280Z</time>
    </trkpt>
    <trkpt lat="56.541134" lon="60.995221">
        <ele>257.2</ele>
        <time>2022-06-29T14:26:18.525Z</time>
    </trkpt>
    <trkpt lat="56.54115" lon="60.995064">
        <ele>257.3</ele>
        <time>2022-06-29T14:26:22.903Z</time>
    </trkpt>
    <trkpt lat="56.541166" lon="60.994897">
        <ele>257.4</ele>
        <time>2022-06-29T14:26:27.551Z</time>
    </trkpt>
    <trkpt lat="56.541191" lon="60.994746">
        <ele>257.5</ele>
        <time>2022-06-29T14:26:31.874Z</time>
    </trkpt>
    <trkpt lat="56.541211" lon="60.99459">
        <ele>257.6</ele>
        <time>2022-06-29T14:26:36.266Z</time>
    </trkpt>
    <trkpt lat="56.541229" lon="60.994443">
        <ele>257.6</ele>
        <time>2022-06-29T14:26:40.395Z</time>
    </trkpt>
    <trkpt lat="56.541261" lon="60.994296">
        <ele>257.7</ele>
        <time>2022-06-29T14:26:44.728Z</time>
    </trkpt>
    <trkpt lat="56.541288" lon="60.994089">
        <ele>257.7</ele>
        <time>2022-06-29T14:26:50.561Z</time>
    </trkpt>
    <trkpt lat="56.541303" lon="60.993974">
        <ele>257.9</ele>
        <time>2022-06-29T14:26:53.801Z</time>
    </trkpt>
    <trkpt lat="56.54132" lon="60.993866">
        <ele>258.0</ele>
        <time>2022-06-29T14:26:56.880Z</time>
    </trkpt>
    <trkpt lat="56.541336" lon="60.993779">
        <ele>258.2</ele>
        <time>2022-06-29T14:26:59.394Z</time>
    </trkpt>
    <trkpt lat="56.541349" lon="60.993665">
        <ele>258.3</ele>
        <time>2022-06-29T14:27:02.586Z</time>
    </trkpt>
    <trkpt lat="56.541358" lon="60.993556">
        <ele>258.5</ele>
        <time>2022-06-29T14:27:05.608Z</time>
    </trkpt>
    <trkpt lat="56.541359" lon="60.993449">
        <ele>258.8</ele>
        <time>2022-06-29T14:27:08.542Z</time>
    </trkpt>
    <trkpt lat="56.541366" lon="60.993336">
        <ele>259.0</ele>
        <time>2022-06-29T14:27:11.660Z</time>
    </trkpt>
    <trkpt lat="56.54136" lon="60.993235">
        <ele>259.2</ele>
        <time>2022-06-29T14:27:14.445Z</time>
    </trkpt>
    <trkpt lat="56.541347" lon="60.993153">
        <ele>259.3</ele>
        <time>2022-06-29T14:27:16.784Z</time>
    </trkpt>
    <trkpt lat="56.54135" lon="60.993095">
        <ele>259.4</ele>
        <time>2022-06-29T14:27:18.381Z</time>
    </trkpt>
    <trkpt lat="56.541346" lon="60.993062">
        <ele>259.4</ele>
        <time>2022-06-29T14:27:19.307Z</time>
    </trkpt>
    <trkpt lat="56.541345" lon="60.993041">
        <ele>259.4</ele>
        <time>2022-06-29T14:27:19.885Z</time>
    </trkpt>
    <trkpt lat="56.541349" lon="60.993047">
        <ele>259.4</ele>
        <time>2022-06-29T14:27:20.143Z</time>
    </trkpt>
    <trkpt lat="56.541356" lon="60.993043">
        <ele>259.4</ele>
        <time>2022-06-29T14:27:20.508Z</time>
    </trkpt>
    <trkpt lat="56.541343" lon="60.993024">
        <ele>259.2</ele>
        <time>2022-06-29T14:27:21.338Z</time>
    </trkpt>
    <trkpt lat="56.541317" lon="60.993031">
        <ele>259.0</ele>
        <time>2022-06-29T14:27:22.645Z</time>
    </trkpt>
    <trkpt lat="56.541324" lon="60.993065">
        <ele>258.7</ele>
        <time>2022-06-29T14:27:23.640Z</time>
    </trkpt>
    <trkpt lat="56.541326" lon="60.993124">
        <ele>258.5</ele>
        <time>2022-06-29T14:27:25.260Z</time>
    </trkpt>
    <trkpt lat="56.541339" lon="60.993163">
        <ele>258.3</ele>
        <time>2022-06-29T14:27:26.509Z</time>
    </trkpt>
    <trkpt lat="56.541344" lon="60.993175">
        <ele>258.1</ele>
        <time>2022-06-29T14:27:26.921Z</time>
    </trkpt>
    <trkpt lat="56.541354" lon="60.993185">
        <ele>258.0</ele>
        <time>2022-06-29T14:27:27.488Z</time>
    </trkpt>
    <trkpt lat="56.541358" lon="60.993193">
        <ele>257.9</ele>
        <time>2022-06-29T14:27:27.784Z</time>
    </trkpt>
    <trkpt lat="56.541361" lon="60.993197">
        <ele>257.8</ele>
        <time>2022-06-29T14:27:27.969Z</time>
    </trkpt>
    <trkpt lat="56.541366" lon="60.993207">
        <ele>257.7</ele>
        <time>2022-06-29T14:27:28.339Z</time>
    </trkpt>
    <trkpt lat="56.541373" lon="60.993217">
        <ele>257.8</ele>
        <time>2022-06-29T14:27:28.782Z</time>
    </trkpt>
    <trkpt lat="56.54137" lon="60.993209">
        <ele>258.1</ele>
        <time>2022-06-29T14:27:29.047Z</time>
    </trkpt>
    <trkpt lat="56.541368" lon="60.993181">
        <ele>258.7</ele>
        <time>2022-06-29T14:27:29.821Z</time>
    </trkpt>
    <trkpt lat="56.541366" lon="60.993107">
        <ele>259.7</ele>
        <time>2022-06-29T14:27:31.852Z</time>
    </trkpt>
    <trkpt lat="56.541366" lon="60.993006">
        <ele>261.0</ele>
        <time>2022-06-29T14:27:34.621Z</time>
    </trkpt>
    <trkpt lat="56.541371" lon="60.992886">
        <ele>262.1</ele>
        <time>2022-06-29T14:27:37.921Z</time>
    </trkpt>
    <trkpt lat="56.54137" lon="60.992753">
        <ele>262.2</ele>
        <time>2022-06-29T14:27:41.568Z</time>
    </trkpt>
    <trkpt lat="56.541372" lon="60.992622">
        <ele>262.2</ele>
        <time>2022-06-29T14:27:45.161Z</time>
    </trkpt>
    <trkpt lat="56.541372" lon="60.992485">
        <ele>261.8</ele>
        <time>2022-06-29T14:27:48.917Z</time>
    </trkpt>
    <trkpt lat="56.54136" lon="60.992355">
        <ele>261.1</ele>
        <time>2022-06-29T14:27:52.531Z</time>
    </trkpt>
    <trkpt lat="56.541361" lon="60.992221">
        <ele>260.9</ele>
        <time>2022-06-29T14:27:56.205Z</time>
    </trkpt>
    <trkpt lat="56.541344" lon="60.992068">
        <ele>260.9</ele>
        <time>2022-06-29T14:28:00.484Z</time>
    </trkpt>
    <trkpt lat="56.541328" lon="60.991915">
        <ele>260.9</ele>
        <time>2022-06-29T14:28:04.754Z</time>
    </trkpt>
    <trkpt lat="56.541318" lon="60.991757">
        <ele>260.8</ele>
        <time>2022-06-29T14:28:09.115Z</time>
    </trkpt>
    <trkpt lat="56.541302" lon="60.991583">
        <ele>259.9</ele>
        <time>2022-06-29T14:28:13.952Z</time>
    </trkpt>
    <trkpt lat="56.541287" lon="60.991398">
        <ele>259.2</ele>
        <time>2022-06-29T14:28:19.079Z</time>
    </trkpt>
    <trkpt lat="56.541273" lon="60.991185">
        <ele>258.6</ele>
        <time>2022-06-29T14:28:24.961Z</time>
    </trkpt>
    <trkpt lat="56.541249" lon="60.990963">
        <ele>257.8</ele>
        <time>2022-06-29T14:28:31.164Z</time>
    </trkpt>
    <trkpt lat="56.541227" lon="60.990731">
        <ele>257.3</ele>
        <time>2022-06-29T14:28:37.619Z</time>
    </trkpt>
    <trkpt lat="56.541209" lon="60.990492">
        <ele>257.4</ele>
        <time>2022-06-29T14:28:44.233Z</time>
    </trkpt>
    <trkpt lat="56.541188" lon="60.990264">
        <ele>257.4</ele>
        <time>2022-06-29T14:28:50.571Z</time>
    </trkpt>
    <trkpt lat="56.541168" lon="60.990027">
        <ele>256.9</ele>
        <time>2022-06-29T14:28:57.145Z</time>
    </trkpt>
    <trkpt lat="56.541143" lon="60.989783">
        <ele>257.3</ele>
        <time>2022-06-29T14:29:03.950Z</time>
    </trkpt>
    <trkpt lat="56.541121" lon="60.989555">
        <ele>257.7</ele>
        <time>2022-06-29T14:29:10.297Z</time>
    </trkpt>
    <trkpt lat="56.541099" lon="60.989346">
        <ele>257.7</ele>
        <time>2022-06-29T14:29:16.131Z</time>
    </trkpt>
    <trkpt lat="56.541078" lon="60.98913">
        <ele>257.6</ele>
        <time>2022-06-29T14:29:22.145Z</time>
    </trkpt>
    <trkpt lat="56.54106" lon="60.988905">
        <ele>257.2</ele>
        <time>2022-06-29T14:29:28.379Z</time>
    </trkpt>
    <trkpt lat="56.541041" lon="60.9887">
        <ele>257.0</ele>
        <time>2022-06-29T14:29:34.079Z</time>
    </trkpt>
    <trkpt lat="56.541023" lon="60.9885">
        <ele>257.0</ele>
        <time>2022-06-29T14:29:39.636Z</time>
    </trkpt>
    <trkpt lat="56.541011" lon="60.988294">
        <ele>257.0</ele>
        <time>2022-06-29T14:29:45.316Z</time>
    </trkpt>
    <trkpt lat="56.541008" lon="60.988086">
        <ele>256.8</ele>
        <time>2022-06-29T14:29:51.021Z</time>
    </trkpt>
    <trkpt lat="56.541" lon="60.987906">
        <ele>256.7</ele>
        <time>2022-06-29T14:29:55.973Z</time>
    </trkpt>
    <trkpt lat="56.540986" lon="60.987713">
        <ele>256.7</ele>
        <time>2022-06-29T14:30:01.311Z</time>
    </trkpt>
    <trkpt lat="56.54097" lon="60.987518">
        <ele>256.4</ele>
        <time>2022-06-29T14:30:06.717Z</time>
    </trkpt>
    <trkpt lat="56.540958" lon="60.987324">
        <ele>256.5</ele>
        <time>2022-06-29T14:30:12.070Z</time>
    </trkpt>
    <trkpt lat="56.540942" lon="60.987112">
        <ele>256.9</ele>
        <time>2022-06-29T14:30:17.937Z</time>
    </trkpt>
    <trkpt lat="56.540922" lon="60.986904">
        <ele>257.5</ele>
        <time>2022-06-29T14:30:23.727Z</time>
    </trkpt>
    <trkpt lat="56.540901" lon="60.986699">
        <ele>257.2</ele>
        <time>2022-06-29T14:30:29.444Z</time>
    </trkpt>
    <trkpt lat="56.540893" lon="60.986501">
        <ele>257.1</ele>
        <time>2022-06-29T14:30:34.888Z</time>
    </trkpt>
    <trkpt lat="56.540881" lon="60.9863">
        <ele>257.6</ele>
        <time>2022-06-29T14:30:40.432Z</time>
    </trkpt>
    <trkpt lat="56.540871" lon="60.986101">
        <ele>257.6</ele>
        <time>2022-06-29T14:30:45.911Z</time>
    </trkpt>
    <trkpt lat="56.540858" lon="60.985891">
        <ele>257.7</ele>
        <time>2022-06-29T14:30:51.705Z</time>
    </trkpt>
    <trkpt lat="56.540841" lon="60.98568">
        <ele>257.7</ele>
        <time>2022-06-29T14:30:57.552Z</time>
    </trkpt>
    <trkpt lat="56.54083" lon="60.985516">
        <ele>257.7</ele>
        <time>2022-06-29T14:31:02.082Z</time>
    </trkpt>
    <trkpt lat="56.540815" lon="60.985344">
        <ele>257.8</ele>
        <time>2022-06-29T14:31:06.857Z</time>
    </trkpt>
    <trkpt lat="56.540792" lon="60.985168">
        <ele>257.7</ele>
        <time>2022-06-29T14:31:11.817Z</time>
    </trkpt>
    <trkpt lat="56.540769" lon="60.98498">
        <ele>257.7</ele>
        <time>2022-06-29T14:31:17.097Z</time>
    </trkpt>
    <trkpt lat="56.540747" lon="60.984776">
        <ele>258.0</ele>
        <time>2022-06-29T14:31:22.797Z</time>
    </trkpt>
    <trkpt lat="56.54072" lon="60.984539">
        <ele>258.2</ele>
        <time>2022-06-29T14:31:29.433Z</time>
    </trkpt>
    <trkpt lat="56.540702" lon="60.984318">
        <ele>258.2</ele>
        <time>2022-06-29T14:31:35.559Z</time>
    </trkpt>
    <trkpt lat="56.540681" lon="60.984104">
        <ele>258.3</ele>
        <time>2022-06-29T14:31:41.519Z</time>
    </trkpt>
    <trkpt lat="56.540665" lon="60.983894">
        <ele>258.4</ele>
        <time>2022-06-29T14:31:47.332Z</time>
    </trkpt>
    <trkpt lat="56.540639" lon="60.983687">
        <ele>258.5</ele>
        <time>2022-06-29T14:31:53.153Z</time>
    </trkpt>
    <trkpt lat="56.540611" lon="60.98349">
        <ele>258.4</ele>
        <time>2022-06-29T14:31:58.731Z</time>
    </trkpt>
    <trkpt lat="56.540588" lon="60.983303">
        <ele>257.9</ele>
        <time>2022-06-29T14:32:03.985Z</time>
    </trkpt>
    <trkpt lat="56.540576" lon="60.983126">
        <ele>257.7</ele>
        <time>2022-06-29T14:32:08.875Z</time>
    </trkpt>
    <trkpt lat="56.540566" lon="60.982946">
        <ele>257.7</ele>
        <time>2022-06-29T14:32:13.836Z</time>
    </trkpt>
    <trkpt lat="56.540568" lon="60.982771">
        <ele>257.7</ele>
        <time>2022-06-29T14:32:18.636Z</time>
    </trkpt>
    <trkpt lat="56.540566" lon="60.982614">
        <ele>257.7</ele>
        <time>2022-06-29T14:32:22.942Z</time>
    </trkpt>
    <trkpt lat="56.540566" lon="60.982419">
        <ele>257.7</ele>
        <time>2022-06-29T14:32:28.289Z</time>
    </trkpt>
    <trkpt lat="56.540557" lon="60.982233">
        <ele>257.7</ele>
        <time>2022-06-29T14:32:33.409Z</time>
    </trkpt>
    <trkpt lat="56.540543" lon="60.982057">
        <ele>257.7</ele>
        <time>2022-06-29T14:32:38.285Z</time>
    </trkpt>
    <trkpt lat="56.540539" lon="60.981888">
        <ele>257.7</ele>
        <time>2022-06-29T14:32:42.923Z</time>
    </trkpt>
    <trkpt lat="56.540544" lon="60.981737">
        <ele>257.7</ele>
        <time>2022-06-29T14:32:47.071Z</time>
    </trkpt>
    <trkpt lat="56.540558" lon="60.981567">
        <ele>257.6</ele>
        <time>2022-06-29T14:32:51.784Z</time>
    </trkpt>
    <trkpt lat="56.540588" lon="60.981422">
        <ele>257.7</ele>
        <time>2022-06-29T14:32:56.031Z</time>
    </trkpt>
    <trkpt lat="56.540608" lon="60.981266">
        <ele>257.7</ele>
        <time>2022-06-29T14:33:00.423Z</time>
    </trkpt>
    <trkpt lat="56.540631" lon="60.981134">
        <ele>257.7</ele>
        <time>2022-06-29T14:33:04.219Z</time>
    </trkpt>
    <trkpt lat="56.540667" lon="60.98098">
        <ele>257.8</ele>
        <time>2022-06-29T14:33:08.806Z</time>
    </trkpt>
    <trkpt lat="56.540694" lon="60.98085">
        <ele>257.8</ele>
        <time>2022-06-29T14:33:12.615Z</time>
    </trkpt>
    <trkpt lat="56.540728" lon="60.980735">
        <ele>257.8</ele>
        <time>2022-06-29T14:33:16.193Z</time>
    </trkpt>
    <trkpt lat="56.540763" lon="60.980574">
        <ele>257.8</ele>
        <time>2022-06-29T14:33:20.938Z</time>
    </trkpt>
    <trkpt lat="56.540786" lon="60.980497">
        <ele>257.8</ele>
        <time>2022-06-29T14:33:23.339Z</time>
    </trkpt>
    <trkpt lat="56.540818" lon="60.980401">
        <ele>257.8</ele>
        <time>2022-06-29T14:33:26.415Z</time>
    </trkpt>
    <trkpt lat="56.540851" lon="60.980306">
        <ele>257.8</ele>
        <time>2022-06-29T14:33:29.494Z</time>
    </trkpt>
    <trkpt lat="56.540874" lon="60.980197">
        <ele>257.8</ele>
        <time>2022-06-29T14:33:32.694Z</time>
    </trkpt>
    <trkpt lat="56.540895" lon="60.980078">
        <ele>257.8</ele>
        <time>2022-06-29T14:33:36.120Z</time>
    </trkpt>
    <trkpt lat="56.540912" lon="60.979978">
        <ele>257.9</ele>
        <time>2022-06-29T14:33:38.989Z</time>
    </trkpt>
    <trkpt lat="56.540941" lon="60.979899">
        <ele>257.9</ele>
        <time>2022-06-29T14:33:41.591Z</time>
    </trkpt>
    <trkpt lat="56.540968" lon="60.979817">
        <ele>257.9</ele>
        <time>2022-06-29T14:33:44.210Z</time>
    </trkpt>
    <trkpt lat="56.540998" lon="60.979741">
        <ele>257.9</ele>
        <time>2022-06-29T14:33:46.773Z</time>
    </trkpt>
    <trkpt lat="56.54103" lon="60.979668">
        <ele>258.0</ele>
        <time>2022-06-29T14:33:49.330Z</time>
    </trkpt>
    <trkpt lat="56.54107" lon="60.979607">
        <ele>258.0</ele>
        <time>2022-06-29T14:33:51.929Z</time>
    </trkpt>
    <trkpt lat="56.541103" lon="60.979518">
        <ele>258.1</ele>
        <time>2022-06-29T14:33:54.870Z</time>
    </trkpt>
    <trkpt lat="56.541135" lon="60.979429">
        <ele>258.1</ele>
        <time>2022-06-29T14:33:57.783Z</time>
    </trkpt>
    <trkpt lat="56.541167" lon="60.979342">
        <ele>258.2</ele>
        <time>2022-06-29T14:34:00.650Z</time>
    </trkpt>
    <trkpt lat="56.541189" lon="60.979247">
        <ele>258.3</ele>
        <time>2022-06-29T14:34:03.475Z</time>
    </trkpt>
    <trkpt lat="56.541217" lon="60.979177">
        <ele>258.4</ele>
        <time>2022-06-29T14:34:05.846Z</time>
    </trkpt>
    <trkpt lat="56.541245" lon="60.979122">
        <ele>258.5</ele>
        <time>2022-06-29T14:34:07.898Z</time>
    </trkpt>
    <trkpt lat="56.541277" lon="60.979058">
        <ele>258.6</ele>
        <time>2022-06-29T14:34:10.267Z</time>
    </trkpt>
    <trkpt lat="56.541308" lon="60.979003">
        <ele>258.7</ele>
        <time>2022-06-29T14:34:12.423Z</time>
    </trkpt>
    <trkpt lat="56.541332" lon="60.978939">
        <ele>258.8</ele>
        <time>2022-06-29T14:34:14.545Z</time>
    </trkpt>
    <trkpt lat="56.54137" lon="60.97889">
        <ele>258.9</ele>
        <time>2022-06-29T14:34:16.864Z</time>
    </trkpt>
    <trkpt lat="56.541399" lon="60.978842">
        <ele>258.9</ele>
        <time>2022-06-29T14:34:18.816Z</time>
    </trkpt>
    <trkpt lat="56.541437" lon="60.978807">
        <ele>259.0</ele>
        <time>2022-06-29T14:34:20.935Z</time>
    </trkpt>
    <trkpt lat="56.541474" lon="60.978755">
        <ele>259.1</ele>
        <time>2022-06-29T14:34:23.263Z</time>
    </trkpt>
    <trkpt lat="56.54151" lon="60.978677">
        <ele>259.2</ele>
        <time>2022-06-29T14:34:26.052Z</time>
    </trkpt>
    <trkpt lat="56.541548" lon="60.978602">
        <ele>259.2</ele>
        <time>2022-06-29T14:34:28.845Z</time>
    </trkpt>
    <trkpt lat="56.54158" lon="60.978537">
        <ele>259.0</ele>
        <time>2022-06-29T14:34:31.234Z</time>
    </trkpt>
    <trkpt lat="56.541614" lon="60.97845">
        <ele>258.8</ele>
        <time>2022-06-29T14:34:34.158Z</time>
    </trkpt>
    <trkpt lat="56.54165" lon="60.978363">
        <ele>258.7</ele>
        <time>2022-06-29T14:34:37.140Z</time>
    </trkpt>
    <trkpt lat="56.541677" lon="60.978292">
        <ele>258.7</ele>
        <time>2022-06-29T14:34:39.505Z</time>
    </trkpt>
    <trkpt lat="56.541717" lon="60.978211">
        <ele>258.4</ele>
        <time>2022-06-29T14:34:42.486Z</time>
    </trkpt>
    <trkpt lat="56.541762" lon="60.978121">
        <ele>257.6</ele>
        <time>2022-06-29T14:34:45.817Z</time>
    </trkpt>
    <trkpt lat="56.541817" lon="60.978001">
        <ele>257.6</ele>
        <time>2022-06-29T14:34:50.096Z</time>
    </trkpt>
    <trkpt lat="56.541873" lon="60.977905">
        <ele>257.6</ele>
        <time>2022-06-29T14:34:53.928Z</time>
    </trkpt>
    <trkpt lat="56.541923" lon="60.977823">
        <ele>257.5</ele>
        <time>2022-06-29T14:34:57.280Z</time>
    </trkpt>
    <trkpt lat="56.541982" lon="60.977736">
        <ele>257.5</ele>
        <time>2022-06-29T14:35:01.061Z</time>
    </trkpt>
    <trkpt lat="56.542036" lon="60.977666">
        <ele>257.5</ele>
        <time>2022-06-29T14:35:04.362Z</time>
    </trkpt>
    <trkpt lat="56.542098" lon="60.977593">
        <ele>257.5</ele>
        <time>2022-06-29T14:35:08.038Z</time>
    </trkpt>
    <trkpt lat="56.542166" lon="60.977517">
        <ele>257.5</ele>
        <time>2022-06-29T14:35:12.010Z</time>
    </trkpt>
    <trkpt lat="56.542228" lon="60.977445">
        <ele>257.4</ele>
        <time>2022-06-29T14:35:15.671Z</time>
    </trkpt>
    <trkpt lat="56.542299" lon="60.977358">
        <ele>257.4</ele>
        <time>2022-06-29T14:35:19.932Z</time>
    </trkpt>
    <trkpt lat="56.542352" lon="60.977291">
        <ele>257.4</ele>
        <time>2022-06-29T14:35:23.145Z</time>
    </trkpt>
    <trkpt lat="56.542405" lon="60.977239">
        <ele>257.3</ele>
        <time>2022-06-29T14:35:26.142Z</time>
    </trkpt>
    <trkpt lat="56.542451" lon="60.977184">
        <ele>257.3</ele>
        <time>2022-06-29T14:35:28.882Z</time>
    </trkpt>
    <trkpt lat="56.542506" lon="60.977139">
        <ele>257.2</ele>
        <time>2022-06-29T14:35:31.883Z</time>
    </trkpt>
    <trkpt lat="56.542561" lon="60.977063">
        <ele>257.1</ele>
        <time>2022-06-29T14:35:35.322Z</time>
    </trkpt>
    <trkpt lat="56.542605" lon="60.976992">
        <ele>257.1</ele>
        <time>2022-06-29T14:35:38.251Z</time>
    </trkpt>
    <trkpt lat="56.542651" lon="60.976913">
        <ele>257.1</ele>
        <time>2022-06-29T14:35:41.401Z</time>
    </trkpt>
    <trkpt lat="56.542695" lon="60.97687">
        <ele>257.0</ele>
        <time>2022-06-29T14:35:43.886Z</time>
    </trkpt>
    <trkpt lat="56.542735" lon="60.97685">
        <ele>257.0</ele>
        <time>2022-06-29T14:35:45.949Z</time>
    </trkpt>
    <trkpt lat="56.542795" lon="60.976861">
        <ele>257.0</ele>
        <time>2022-06-29T14:35:48.948Z</time>
    </trkpt>
    <trkpt lat="56.54286" lon="60.976852">
        <ele>257.1</ele>
        <time>2022-06-29T14:35:52.190Z</time>
    </trkpt>
    <trkpt lat="56.542922" lon="60.976833">
        <ele>257.2</ele>
        <time>2022-06-29T14:35:55.317Z</time>
    </trkpt>
    <trkpt lat="56.542986" lon="60.976813">
        <ele>257.2</ele>
        <time>2022-06-29T14:35:58.547Z</time>
    </trkpt>
    <trkpt lat="56.543048" lon="60.976799">
        <ele>257.6</ele>
        <time>2022-06-29T14:36:01.654Z</time>
    </trkpt>
    <trkpt lat="56.543114" lon="60.976785">
        <ele>257.8</ele>
        <time>2022-06-29T14:36:04.959Z</time>
    </trkpt>
    <trkpt lat="56.543173" lon="60.976771">
        <ele>258.0</ele>
        <time>2022-06-29T14:36:07.918Z</time>
    </trkpt>
    <trkpt lat="56.543228" lon="60.976748">
        <ele>258.4</ele>
        <time>2022-06-29T14:36:10.725Z</time>
    </trkpt>
    <trkpt lat="56.543294" lon="60.976723">
        <ele>258.6</ele>
        <time>2022-06-29T14:36:14.078Z</time>
    </trkpt>
    <trkpt lat="56.543363" lon="60.976712">
        <ele>258.6</ele>
        <time>2022-06-29T14:36:17.523Z</time>
    </trkpt>
    <trkpt lat="56.543425" lon="60.976704">
        <ele>258.7</ele>
        <time>2022-06-29T14:36:20.614Z</time>
    </trkpt>
    <trkpt lat="56.543482" lon="60.976701">
        <ele>258.8</ele>
        <time>2022-06-29T14:36:23.450Z</time>
    </trkpt>
    <trkpt lat="56.54354" lon="60.976709">
        <ele>258.8</ele>
        <time>2022-06-29T14:36:26.343Z</time>
    </trkpt>
    <trkpt lat="56.543595" lon="60.976712">
        <ele>258.8</ele>
        <time>2022-06-29T14:36:29.079Z</time>
    </trkpt>
    <trkpt lat="56.543638" lon="60.976704">
        <ele>258.9</ele>
        <time>2022-06-29T14:36:31.228Z</time>
    </trkpt>
    <trkpt lat="56.54369" lon="60.976718">
        <ele>258.9</ele>
        <time>2022-06-29T14:36:33.842Z</time>
    </trkpt>
    <trkpt lat="56.543744" lon="60.976737">
        <ele>259.0</ele>
        <time>2022-06-29T14:36:36.577Z</time>
    </trkpt>
    <trkpt lat="56.54378" lon="60.976753">
        <ele>259.0</ele>
        <time>2022-06-29T14:36:38.420Z</time>
    </trkpt>
    <trkpt lat="56.543819" lon="60.976755">
        <ele>259.0</ele>
        <time>2022-06-29T14:36:40.360Z</time>
    </trkpt>
    <trkpt lat="56.543847" lon="60.97675">
        <ele>258.8</ele>
        <time>2022-06-29T14:36:41.759Z</time>
    </trkpt>
    <trkpt lat="56.543873" lon="60.976747">
        <ele>258.8</ele>
        <time>2022-06-29T14:36:43.054Z</time>
    </trkpt>
    <trkpt lat="56.543878" lon="60.976746">
        <ele>258.8</ele>
        <time>2022-06-29T14:36:43.304Z</time>
    </trkpt>
    <trkpt lat="56.543874" lon="60.976739">
        <ele>258.8</ele>
        <time>2022-06-29T14:36:43.580Z</time>
    </trkpt>
    <trkpt lat="56.543878" lon="60.976739">
        <ele>258.7</ele>
        <time>2022-06-29T14:36:43.778Z</time>
    </trkpt>
    <trkpt lat="56.543883" lon="60.976737">
        <ele>258.7</ele>
        <time>2022-06-29T14:36:44.032Z</time>
    </trkpt>
    <trkpt lat="56.543895" lon="60.976711">
        <ele>258.7</ele>
        <time>2022-06-29T14:36:44.961Z</time>
    </trkpt>
    <trkpt lat="56.543909" lon="60.976676">
        <ele>258.7</ele>
        <time>2022-06-29T14:36:46.146Z</time>
    </trkpt>
    <trkpt lat="56.543917" lon="60.976673">
        <ele>258.7</ele>
        <time>2022-06-29T14:36:46.552Z</time>
    </trkpt>
    <trkpt lat="56.543924" lon="60.976688">
        <ele>258.7</ele>
        <time>2022-06-29T14:36:47.090Z</time>
    </trkpt>
    <trkpt lat="56.543936" lon="60.976674">
        <ele>258.7</ele>
        <time>2022-06-29T14:36:47.799Z</time>
    </trkpt>
    <trkpt lat="56.543961" lon="60.976674">
        <ele>258.7</ele>
        <time>2022-06-29T14:36:49.042Z</time>
    </trkpt>
    <trkpt lat="56.543993" lon="60.97668">
        <ele>258.7</ele>
        <time>2022-06-29T14:36:50.642Z</time>
    </trkpt>
    <trkpt lat="56.544033" lon="60.97668">
        <ele>258.6</ele>
        <time>2022-06-29T14:36:52.631Z</time>
    </trkpt>
    <trkpt lat="56.544081" lon="60.976699">
        <ele>258.6</ele>
        <time>2022-06-29T14:36:55.074Z</time>
    </trkpt>
    <trkpt lat="56.544126" lon="60.976709">
        <ele>258.4</ele>
        <time>2022-06-29T14:36:57.328Z</time>
    </trkpt>
    <trkpt lat="56.544178" lon="60.976704">
        <ele>258.2</ele>
        <time>2022-06-29T14:36:59.918Z</time>
    </trkpt>
    <trkpt lat="56.544224" lon="60.976696">
        <ele>257.9</ele>
        <time>2022-06-29T14:37:02.216Z</time>
    </trkpt>
    <trkpt lat="56.54427" lon="60.976671">
        <ele>257.5</ele>
        <time>2022-06-29T14:37:04.604Z</time>
    </trkpt>
    <trkpt lat="56.544313" lon="60.976644">
        <ele>257.1</ele>
        <time>2022-06-29T14:37:06.867Z</time>
    </trkpt>
    <trkpt lat="56.544358" lon="60.976607">
        <ele>256.9</ele>
        <time>2022-06-29T14:37:09.324Z</time>
    </trkpt>
    <trkpt lat="56.544399" lon="60.976584">
        <ele>256.7</ele>
        <time>2022-06-29T14:37:11.458Z</time>
    </trkpt>
    <trkpt lat="56.544445" lon="60.976555">
        <ele>256.8</ele>
        <time>2022-06-29T14:37:13.880Z</time>
    </trkpt>
    <trkpt lat="56.54449" lon="60.976529">
        <ele>256.9</ele>
        <time>2022-06-29T14:37:16.229Z</time>
    </trkpt>
    <trkpt lat="56.544529" lon="60.976499">
        <ele>257.0</ele>
        <time>2022-06-29T14:37:18.336Z</time>
    </trkpt>
    <trkpt lat="56.544567" lon="60.976462">
        <ele>257.2</ele>
        <time>2022-06-29T14:37:20.481Z</time>
    </trkpt>
    <trkpt lat="56.54461" lon="60.97642">
        <ele>257.4</ele>
        <time>2022-06-29T14:37:22.910Z</time>
    </trkpt>
    <trkpt lat="56.54464" lon="60.976367">
        <ele>257.6</ele>
        <time>2022-06-29T14:37:24.992Z</time>
    </trkpt>
    <trkpt lat="56.544687" lon="60.976308">
        <ele>257.7</ele>
        <time>2022-06-29T14:37:27.834Z</time>
    </trkpt>
    <trkpt lat="56.544739" lon="60.976262">
        <ele>257.7</ele>
        <time>2022-06-29T14:37:30.711Z</time>
    </trkpt>
    <trkpt lat="56.544795" lon="60.976216">
        <ele>257.7</ele>
        <time>2022-06-29T14:37:33.768Z</time>
    </trkpt>
    <trkpt lat="56.54487" lon="60.97615">
        <ele>257.7</ele>
        <time>2022-06-29T14:37:37.914Z</time>
    </trkpt>
    <trkpt lat="56.544949" lon="60.976083">
        <ele>257.8</ele>
        <time>2022-06-29T14:37:42.251Z</time>
    </trkpt>
    <trkpt lat="56.545031" lon="60.976016">
        <ele>258.1</ele>
        <time>2022-06-29T14:37:46.724Z</time>
    </trkpt>
    <trkpt lat="56.545106" lon="60.975948">
        <ele>258.4</ele>
        <time>2022-06-29T14:37:50.894Z</time>
    </trkpt>
    <trkpt lat="56.545189" lon="60.975878">
        <ele>258.5</ele>
        <time>2022-06-29T14:37:55.446Z</time>
    </trkpt>
    <trkpt lat="56.545271" lon="60.975804">
        <ele>258.4</ele>
        <time>2022-06-29T14:38:00.001Z</time>
    </trkpt>
    <trkpt lat="56.545352" lon="60.97572">
        <ele>258.4</ele>
        <time>2022-06-29T14:38:04.641Z</time>
    </trkpt>
    <trkpt lat="56.545419" lon="60.975654">
        <ele>258.4</ele>
        <time>2022-06-29T14:38:08.433Z</time>
    </trkpt>
    <trkpt lat="56.545471" lon="60.975601">
        <ele>258.5</ele>
        <time>2022-06-29T14:38:11.399Z</time>
    </trkpt>
    <trkpt lat="56.545514" lon="60.975555">
        <ele>258.7</ele>
        <time>2022-06-29T14:38:13.881Z</time>
    </trkpt>
    <trkpt lat="56.545556" lon="60.975517">
        <ele>258.7</ele>
        <time>2022-06-29T14:38:16.215Z</time>
    </trkpt>
    <trkpt lat="56.5456" lon="60.975469">
        <ele>258.7</ele>
        <time>2022-06-29T14:38:18.768Z</time>
    </trkpt>
    <trkpt lat="56.54563" lon="60.975459">
        <ele>258.7</ele>
        <time>2022-06-29T14:38:20.285Z</time>
    </trkpt>
    <trkpt lat="56.545635" lon="60.975433">
        <ele>258.7</ele>
        <time>2022-06-29T14:38:21.040Z</time>
    </trkpt>
    <trkpt lat="56.54564" lon="60.97541">
        <ele>258.7</ele>
        <time>2022-06-29T14:38:21.717Z</time>
    </trkpt>
    <trkpt lat="56.545648" lon="60.975414">
        <ele>258.7</ele>
        <time>2022-06-29T14:38:22.129Z</time>
    </trkpt>
    <trkpt lat="56.545653" lon="60.975414">
        <ele>258.7</ele>
        <time>2022-06-29T14:38:22.377Z</time>
    </trkpt>
    <trkpt lat="56.545669" lon="60.975401">
        <ele>258.7</ele>
        <time>2022-06-29T14:38:23.248Z</time>
    </trkpt>
    <trkpt lat="56.545666" lon="60.975401">
        <ele>258.7</ele>
        <time>2022-06-29T14:38:23.397Z</time>
    </trkpt>
    <trkpt lat="56.545667" lon="60.975398">
        <ele>258.7</ele>
        <time>2022-06-29T14:38:23.493Z</time>
    </trkpt>
    <trkpt lat="56.545668" lon="60.975402">
        <ele>258.7</ele>
        <time>2022-06-29T14:38:23.613Z</time>
    </trkpt>
    <trkpt lat="56.545668" lon="60.975401">
        <ele>258.7</ele>
        <time>2022-06-29T14:38:23.640Z</time>
    </trkpt>
    <trkpt lat="56.54567" lon="60.975395">
        <ele>258.7</ele>
        <time>2022-06-29T14:38:23.832Z</time>
    </trkpt>
    <trkpt lat="56.545666" lon="60.975394">
        <ele>258.7</ele>
        <time>2022-06-29T14:38:24.032Z</time>
    </trkpt>
    <trkpt lat="56.545664" lon="60.975395">
        <ele>258.7</ele>
        <time>2022-06-29T14:38:24.135Z</time>
    </trkpt>
    <trkpt lat="56.545666" lon="60.975394">
        <ele>258.7</ele>
        <time>2022-06-29T14:38:24.238Z</time>
    </trkpt>
    <trkpt lat="56.54567" lon="60.975395">
        <ele>258.7</ele>
        <time>2022-06-29T14:38:24.438Z</time>
    </trkpt>
    <trkpt lat="56.545674" lon="60.975398">
        <ele>258.7</ele>
        <time>2022-06-29T14:38:24.653Z</time>
    </trkpt>
    <trkpt lat="56.545675" lon="60.975407">
        <ele>258.7</ele>
        <time>2022-06-29T14:38:24.904Z</time>
    </trkpt>
    <trkpt lat="56.545673" lon="60.975417">
        <ele>258.7</ele>
        <time>2022-06-29T14:38:25.195Z</time>
    </trkpt>
    <trkpt lat="56.545673" lon="60.975416">
        <ele>258.7</ele>
        <time>2022-06-29T14:38:25.222Z</time>
    </trkpt>
    <trkpt lat="56.545673" lon="60.975421">
        <ele>258.7</ele>
        <time>2022-06-29T14:38:25.359Z</time>
    </trkpt>
    <trkpt lat="56.545675" lon="60.975431">
        <ele>258.7</ele>
        <time>2022-06-29T14:38:25.650Z</time>
    </trkpt>
    <trkpt lat="56.54567" lon="60.975434">
        <ele>258.7</ele>
        <time>2022-06-29T14:38:25.911Z</time>
    </trkpt>
    <trkpt lat="56.545677" lon="60.975422">
        <ele>258.7</ele>
        <time>2022-06-29T14:38:26.390Z</time>
    </trkpt>
    <trkpt lat="56.545678" lon="60.975424">
        <ele>258.7</ele>
        <time>2022-06-29T14:38:26.464Z</time>
    </trkpt>
    <trkpt lat="56.545686" lon="60.975426">
        <ele>258.7</ele>
        <time>2022-06-29T14:38:26.865Z</time>
    </trkpt>
    <trkpt lat="56.545694" lon="60.975421">
        <ele>258.7</ele>
        <time>2022-06-29T14:38:27.285Z</time>
    </trkpt>
    <trkpt lat="56.545696" lon="60.975426">
        <ele>258.7</ele>
        <time>2022-06-29T14:38:27.454Z</time>
    </trkpt>
    <trkpt lat="56.545698" lon="60.975426">
        <ele>258.7</ele>
        <time>2022-06-29T14:38:27.553Z</time>
    </trkpt>
    <trkpt lat="56.545697" lon="60.975422">
        <ele>258.7</ele>
        <time>2022-06-29T14:38:27.673Z</time>
    </trkpt>
    <trkpt lat="56.545701" lon="60.975401">
        <ele>258.7</ele>
        <time>2022-06-29T14:38:28.282Z</time>
    </trkpt>
    <trkpt lat="56.545702" lon="60.975401">
        <ele>258.7</ele>
        <time>2022-06-29T14:38:28.331Z</time>
    </trkpt>
    <trkpt lat="56.5457" lon="60.975399">
        <ele>258.7</ele>
        <time>2022-06-29T14:38:28.444Z</time>
    </trkpt>
    <trkpt lat="56.545705" lon="60.975388">
        <ele>258.7</ele>
        <time>2022-06-29T14:38:28.834Z</time>
    </trkpt>
    <trkpt lat="56.545702" lon="60.975395">
        <ele>258.7</ele>
        <time>2022-06-29T14:38:29.077Z</time>
    </trkpt>
    <trkpt lat="56.545699" lon="60.975408">
        <ele>258.7</ele>
        <time>2022-06-29T14:38:29.463Z</time>
    </trkpt>
    <trkpt lat="56.545694" lon="60.97542">
        <ele>258.7</ele>
        <time>2022-06-29T14:38:29.875Z</time>
    </trkpt>
    <trkpt lat="56.545688" lon="60.975422">
        <ele>258.7</ele>
        <time>2022-06-29T14:38:30.178Z</time>
    </trkpt>
    <trkpt lat="56.545683" lon="60.975424">
        <ele>258.7</ele>
        <time>2022-06-29T14:38:30.432Z</time>
    </trkpt>
    <trkpt lat="56.545682" lon="60.975425">
        <ele>258.7</ele>
        <time>2022-06-29T14:38:30.488Z</time>
    </trkpt>
    <trkpt lat="56.545682" lon="60.975424">
        <ele>258.7</ele>
        <time>2022-06-29T14:38:30.515Z</time>
    </trkpt>
    <trkpt lat="56.545682" lon="60.975428">
        <ele>258.7</ele>
        <time>2022-06-29T14:38:30.624Z</time>
    </trkpt>
    <trkpt lat="56.545685" lon="60.975431">
        <ele>258.7</ele>
        <time>2022-06-29T14:38:30.794Z</time>
    </trkpt>
    <trkpt lat="56.545683" lon="60.975438">
        <ele>258.7</ele>
        <time>2022-06-29T14:38:31.010Z</time>
    </trkpt>
    <trkpt lat="56.54568" lon="60.975456">
        <ele>258.7</ele>
        <time>2022-06-29T14:38:31.525Z</time>
    </trkpt>
    <trkpt lat="56.545678" lon="60.975473">
        <ele>258.7</ele>
        <time>2022-06-29T14:38:32.001Z</time>
    </trkpt>
    <trkpt lat="56.545671" lon="60.975491">
        <ele>258.7</ele>
        <time>2022-06-29T14:38:32.604Z</time>
    </trkpt>
    <trkpt lat="56.545675" lon="60.97549">
        <ele>258.7</ele>
        <time>2022-06-29T14:38:32.804Z</time>
    </trkpt>
    <trkpt lat="56.54567" lon="60.975504">
        <ele>258.7</ele>
        <time>2022-06-29T14:38:33.261Z</time>
    </trkpt>
    <trkpt lat="56.545672" lon="60.975505">
        <ele>258.7</ele>
        <time>2022-06-29T14:38:33.364Z</time>
    </trkpt>
    <trkpt lat="56.54567" lon="60.97551">
        <ele>258.7</ele>
        <time>2022-06-29T14:38:33.533Z</time>
    </trkpt>
    <trkpt lat="56.545667" lon="60.975515">
        <ele>258.7</ele>
        <time>2022-06-29T14:38:33.735Z</time>
    </trkpt>
    <trkpt lat="56.54566" lon="60.975526">
        <ele>258.7</ele>
        <time>2022-06-29T14:38:34.195Z</time>
    </trkpt>
    <trkpt lat="56.545654" lon="60.975538">
        <ele>258.7</ele>
        <time>2022-06-29T14:38:34.639Z</time>
    </trkpt>
    <trkpt lat="56.54565" lon="60.975547">
        <ele>258.7</ele>
        <time>2022-06-29T14:38:34.955Z</time>
    </trkpt>
    <trkpt lat="56.545646" lon="60.975563">
        <ele>258.7</ele>
        <time>2022-06-29T14:38:35.436Z</time>
    </trkpt>
    <trkpt lat="56.545646" lon="60.975573">
        <ele>258.7</ele>
        <time>2022-06-29T14:38:35.710Z</time>
    </trkpt>
    <trkpt lat="56.545649" lon="60.975576">
        <ele>258.7</ele>
        <time>2022-06-29T14:38:35.880Z</time>
    </trkpt>
    <trkpt lat="56.545652" lon="60.975582">
        <ele>258.7</ele>
        <time>2022-06-29T14:38:36.102Z</time>
    </trkpt>
    <trkpt lat="56.545653" lon="60.975587">
        <ele>258.7</ele>
        <time>2022-06-29T14:38:36.247Z</time>
    </trkpt>
    <trkpt lat="56.545658" lon="60.975587">
        <ele>258.7</ele>
        <time>2022-06-29T14:38:36.495Z</time>
    </trkpt>
    <trkpt lat="56.545662" lon="60.975576">
        <ele>258.7</ele>
        <time>2022-06-29T14:38:36.856Z</time>
    </trkpt>
    <trkpt lat="56.545666" lon="60.975572">
        <ele>258.7</ele>
        <time>2022-06-29T14:38:37.083Z</time>
    </trkpt>
    <trkpt lat="56.545671" lon="60.975575">
        <ele>258.7</ele>
        <time>2022-06-29T14:38:37.344Z</time>
    </trkpt>
    <trkpt lat="56.545676" lon="60.975568">
        <ele>258.7</ele>
        <time>2022-06-29T14:38:37.658Z</time>
    </trkpt>
    <trkpt lat="56.545676" lon="60.975559">
        <ele>258.7</ele>
        <time>2022-06-29T14:38:37.904Z</time>
    </trkpt>
    <trkpt lat="56.545678" lon="60.975557">
        <ele>258.7</ele>
        <time>2022-06-29T14:38:38.017Z</time>
    </trkpt>
    <trkpt lat="56.545677" lon="60.975551">
        <ele>258.7</ele>
        <time>2022-06-29T14:38:38.188Z</time>
    </trkpt>
    <trkpt lat="56.545678" lon="60.975544">
        <ele>258.7</ele>
        <time>2022-06-29T14:38:38.386Z</time>
    </trkpt>
    <trkpt lat="56.545682" lon="60.975532">
        <ele>258.7</ele>
        <time>2022-06-29T14:38:38.770Z</time>
    </trkpt>
    <trkpt lat="56.545686" lon="60.975518">
        <ele>258.7</ele>
        <time>2022-06-29T14:38:39.202Z</time>
    </trkpt>
    <trkpt lat="56.545687" lon="60.975492">
        <ele>258.7</ele>
        <time>2022-06-29T14:38:39.916Z</time>
    </trkpt>
    <trkpt lat="56.545688" lon="60.975476">
        <ele>258.7</ele>
        <time>2022-06-29T14:38:40.357Z</time>
    </trkpt>
    <trkpt lat="56.545692" lon="60.975456">
        <ele>258.7</ele>
        <time>2022-06-29T14:38:40.940Z</time>
    </trkpt>
    <trkpt lat="56.545695" lon="60.975458">
        <ele>258.7</ele>
        <time>2022-06-29T14:38:41.098Z</time>
    </trkpt>
    <trkpt lat="56.545697" lon="60.975471">
        <ele>258.7</ele>
        <time>2022-06-29T14:38:41.468Z</time>
    </trkpt>
    <trkpt lat="56.545701" lon="60.975454">
        <ele>258.7</ele>
        <time>2022-06-29T14:38:41.974Z</time>
    </trkpt>
    <trkpt lat="56.545702" lon="60.975439">
        <ele>258.7</ele>
        <time>2022-06-29T14:38:42.388Z</time>
    </trkpt>
    <trkpt lat="56.545703" lon="60.975427">
        <ele>258.7</ele>
        <time>2022-06-29T14:38:42.720Z</time>
    </trkpt>
    <trkpt lat="56.545704" lon="60.975413">
        <ele>258.7</ele>
        <time>2022-06-29T14:38:43.107Z</time>
    </trkpt>
    <trkpt lat="56.545705" lon="60.975398">
        <ele>258.7</ele>
        <time>2022-06-29T14:38:43.521Z</time>
    </trkpt>
    <trkpt lat="56.545706" lon="60.975383">
        <ele>258.7</ele>
        <time>2022-06-29T14:38:43.935Z</time>
    </trkpt>
    <trkpt lat="56.545706" lon="60.975376">
        <ele>258.7</ele>
        <time>2022-06-29T14:38:44.126Z</time>
    </trkpt>
    <trkpt lat="56.545707" lon="60.97537">
        <ele>258.7</ele>
        <time>2022-06-29T14:38:44.297Z</time>
    </trkpt>
    <trkpt lat="56.545708" lon="60.975363">
        <ele>258.7</ele>
        <time>2022-06-29T14:38:44.495Z</time>
    </trkpt>
    <trkpt lat="56.545708" lon="60.975366">
        <ele>258.7</ele>
        <time>2022-06-29T14:38:44.577Z</time>
    </trkpt>
    <trkpt lat="56.545711" lon="60.975353">
        <ele>258.7</ele>
        <time>2022-06-29T14:38:44.963Z</time>
    </trkpt>
    <trkpt lat="56.545709" lon="60.975348">
        <ele>258.7</ele>
        <time>2022-06-29T14:38:45.132Z</time>
    </trkpt>
    <trkpt lat="56.545707" lon="60.975347">
        <ele>258.7</ele>
        <time>2022-06-29T14:38:45.235Z</time>
    </trkpt>
    <trkpt lat="56.545704" lon="60.975349">
        <ele>258.7</ele>
        <time>2022-06-29T14:38:45.393Z</time>
    </trkpt>
    <trkpt lat="56.5457" lon="60.975353">
        <ele>258.7</ele>
        <time>2022-06-29T14:38:45.620Z</time>
    </trkpt>
    <trkpt lat="56.545695" lon="60.975355">
        <ele>258.7</ele>
        <time>2022-06-29T14:38:45.874Z</time>
    </trkpt>
    <trkpt lat="56.545691" lon="60.975359">
        <ele>258.7</ele>
        <time>2022-06-29T14:38:46.101Z</time>
    </trkpt>
    <trkpt lat="56.545687" lon="60.975363">
        <ele>258.7</ele>
        <time>2022-06-29T14:38:46.328Z</time>
    </trkpt>
    <trkpt lat="56.545679" lon="60.975365">
        <ele>258.7</ele>
        <time>2022-06-29T14:38:46.729Z</time>
    </trkpt>
    <trkpt lat="56.54568" lon="60.975356">
        <ele>258.7</ele>
        <time>2022-06-29T14:38:46.980Z</time>
    </trkpt>
    <trkpt lat="56.545678" lon="60.975364">
        <ele>258.7</ele>
        <time>2022-06-29T14:38:47.220Z</time>
    </trkpt>
    <trkpt lat="56.545684" lon="60.975354">
        <ele>258.7</ele>
        <time>2022-06-29T14:38:47.625Z</time>
    </trkpt>
    <trkpt lat="56.545685" lon="60.975356">
        <ele>258.7</ele>
        <time>2022-06-29T14:38:47.699Z</time>
    </trkpt>
    <trkpt lat="56.545678" lon="60.975358">
        <ele>258.7</ele>
        <time>2022-06-29T14:38:48.051Z</time>
    </trkpt>
    <trkpt lat="56.545672" lon="60.975358">
        <ele>258.7</ele>
        <time>2022-06-29T14:38:48.349Z</time>
    </trkpt>
    <trkpt lat="56.545671" lon="60.975353">
        <ele>258.7</ele>
        <time>2022-06-29T14:38:48.494Z</time>
    </trkpt>
    <trkpt lat="56.545667" lon="60.975347">
        <ele>258.7</ele>
        <time>2022-06-29T14:38:48.752Z</time>
    </trkpt>
    <trkpt lat="56.545669" lon="60.975354">
        <ele>258.7</ele>
        <time>2022-06-29T14:38:48.968Z</time>
    </trkpt>
    <trkpt lat="56.54567" lon="60.975352">
        <ele>258.7</ele>
        <time>2022-06-29T14:38:49.042Z</time>
    </trkpt>
    <trkpt lat="56.545667" lon="60.975356">
        <ele>258.7</ele>
        <time>2022-06-29T14:38:49.227Z</time>
    </trkpt>
    <trkpt lat="56.545671" lon="60.975353">
        <ele>258.7</ele>
        <time>2022-06-29T14:38:49.442Z</time>
    </trkpt>
    <trkpt lat="56.545671" lon="60.97535">
        <ele>258.7</ele>
        <time>2022-06-29T14:38:49.524Z</time>
    </trkpt>
    <trkpt lat="56.545671" lon="60.975342">
        <ele>258.7</ele>
        <time>2022-06-29T14:38:49.743Z</time>
    </trkpt>
    <trkpt lat="56.54567" lon="60.975332">
        <ele>258.7</ele>
        <time>2022-06-29T14:38:50.021Z</time>
    </trkpt>
    <trkpt lat="56.545664" lon="60.975326">
        <ele>258.7</ele>
        <time>2022-06-29T14:38:50.361Z</time>
    </trkpt>
    <trkpt lat="56.545654" lon="60.975328">
        <ele>258.7</ele>
        <time>2022-06-29T14:38:50.861Z</time>
    </trkpt>
    <trkpt lat="56.545655" lon="60.975313">
        <ele>258.7</ele>
        <time>2022-06-29T14:38:51.275Z</time>
    </trkpt>
    <trkpt lat="56.545648" lon="60.975314">
        <ele>258.7</ele>
        <time>2022-06-29T14:38:51.624Z</time>
    </trkpt>
    <trkpt lat="56.545643" lon="60.975328">
        <ele>258.7</ele>
        <time>2022-06-29T14:38:52.081Z</time>
    </trkpt>
    <trkpt lat="56.545638" lon="60.975338">
        <ele>258.7</ele>
        <time>2022-06-29T14:38:52.451Z</time>
    </trkpt>
    <trkpt lat="56.545639" lon="60.975342">
        <ele>258.7</ele>
        <time>2022-06-29T14:38:52.571Z</time>
    </trkpt>
    <trkpt lat="56.545639" lon="60.975336">
        <ele>258.7</ele>
        <time>2022-06-29T14:38:52.735Z</time>
    </trkpt>
    <trkpt lat="56.545645" lon="60.975332">
        <ele>258.7</ele>
        <time>2022-06-29T14:38:53.052Z</time>
    </trkpt>
    <trkpt lat="56.545649" lon="60.975331">
        <ele>258.7</ele>
        <time>2022-06-29T14:38:53.252Z</time>
    </trkpt>
    <trkpt lat="56.54565" lon="60.975328">
        <ele>258.7</ele>
        <time>2022-06-29T14:38:53.348Z</time>
    </trkpt>
    <trkpt lat="56.545652" lon="60.975322">
        <ele>258.7</ele>
        <time>2022-06-29T14:38:53.540Z</time>
    </trkpt>
    <trkpt lat="56.545652" lon="60.975317">
        <ele>258.7</ele>
        <time>2022-06-29T14:38:53.677Z</time>
    </trkpt>
    <trkpt lat="56.545653" lon="60.975312">
        <ele>258.7</ele>
        <time>2022-06-29T14:38:53.822Z</time>
    </trkpt>
    <trkpt lat="56.54565" lon="60.975308">
        <ele>258.7</ele>
        <time>2022-06-29T14:38:54.007Z</time>
    </trkpt>
    <trkpt lat="56.545648" lon="60.975315">
        <ele>258.7</ele>
        <time>2022-06-29T14:38:54.223Z</time>
    </trkpt>
    <trkpt lat="56.545647" lon="60.975317">
        <ele>258.7</ele>
        <time>2022-06-29T14:38:54.297Z</time>
    </trkpt>
    <trkpt lat="56.545643" lon="60.975323">
        <ele>258.7</ele>
        <time>2022-06-29T14:38:54.555Z</time>
    </trkpt>
    <trkpt lat="56.54564" lon="60.97533">
        <ele>258.7</ele>
        <time>2022-06-29T14:38:54.798Z</time>
    </trkpt>
    <trkpt lat="56.545638" lon="60.975324">
        <ele>258.7</ele>
        <time>2022-06-29T14:38:54.990Z</time>
    </trkpt>
    <trkpt lat="56.545641" lon="60.975323">
        <ele>258.7</ele>
        <time>2022-06-29T14:38:55.141Z</time>
    </trkpt>
    <trkpt lat="56.545642" lon="60.975326">
        <ele>258.7</ele>
        <time>2022-06-29T14:38:55.237Z</time>
    </trkpt>
    <trkpt lat="56.545643" lon="60.975318">
        <ele>258.7</ele>
        <time>2022-06-29T14:38:55.461Z</time>
    </trkpt>
    <trkpt lat="56.545649" lon="60.975302">
        <ele>258.7</ele>
        <time>2022-06-29T14:38:55.991Z</time>
    </trkpt>
    <trkpt lat="56.545645" lon="60.975298">
        <ele>258.7</ele>
        <time>2022-06-29T14:38:56.218Z</time>
    </trkpt>
    <trkpt lat="56.545643" lon="60.975296">
        <ele>258.7</ele>
        <time>2022-06-29T14:38:56.331Z</time>
    </trkpt>
    <trkpt lat="56.545639" lon="60.975296">
        <ele>258.7</ele>
        <time>2022-06-29T14:38:56.529Z</time>
    </trkpt>
    <trkpt lat="56.54564" lon="60.975295">
        <ele>258.7</ele>
        <time>2022-06-29T14:38:56.585Z</time>
    </trkpt>
    <trkpt lat="56.545639" lon="60.975293">
        <ele>258.7</ele>
        <time>2022-06-29T14:38:56.659Z</time>
    </trkpt>
    <trkpt lat="56.54563" lon="60.975304">
        <ele>258.7</ele>
        <time>2022-06-29T14:38:57.198Z</time>
    </trkpt>
    <trkpt lat="56.545628" lon="60.975309">
        <ele>258.7</ele>
        <time>2022-06-29T14:38:57.367Z</time>
    </trkpt>
    <trkpt lat="56.545624" lon="60.97532">
        <ele>258.7</ele>
        <time>2022-06-29T14:38:57.728Z</time>
    </trkpt>
    <trkpt lat="56.545623" lon="60.975334">
        <ele>258.7</ele>
        <time>2022-06-29T14:38:58.115Z</time>
    </trkpt>
    <trkpt lat="56.545622" lon="60.975343">
        <ele>258.7</ele>
        <time>2022-06-29T14:38:58.366Z</time>
    </trkpt>
    <trkpt lat="56.545629" lon="60.975337">
        <ele>259.0</ele>
        <time>2022-06-29T14:38:58.751Z</time>
    </trkpt>
    <trkpt lat="56.545634" lon="60.975327">
        <ele>261.9</ele>
        <time>2022-06-29T14:38:59.121Z</time>
    </trkpt>
    <trkpt lat="56.54564" lon="60.975314">
        <ele>262.4</ele>
        <time>2022-06-29T14:38:59.585Z</time>
    </trkpt>
    <trkpt lat="56.54564" lon="60.975313">
        <ele>262.8</ele>
        <time>2022-06-29T14:38:59.612Z</time>
    </trkpt>
    <trkpt lat="56.54563" lon="60.975333">
        <ele>263.3</ele>
        <time>2022-06-29T14:39:00.352Z</time>
    </trkpt>
    <trkpt lat="56.54565" lon="60.975325">
        <ele>263.9</ele>
        <time>2022-06-29T14:39:01.370Z</time>
    </trkpt>
    <trkpt lat="56.545672" lon="60.975294">
        <ele>264.6</ele>
        <time>2022-06-29T14:39:02.755Z</time>
    </trkpt>
    <trkpt lat="56.545689" lon="60.975246">
        <ele>265.4</ele>
        <time>2022-06-29T14:39:04.319Z</time>
    </trkpt>
    <trkpt lat="56.545724" lon="60.975179">
        <ele>266.3</ele>
        <time>2022-06-29T14:39:06.849Z</time>
    </trkpt>
    <trkpt lat="56.545759" lon="60.975094">
        <ele>267.2</ele>
        <time>2022-06-29T14:39:09.758Z</time>
    </trkpt>
    <trkpt lat="56.545785" lon="60.975004">
        <ele>268.3</ele>
        <time>2022-06-29T14:39:12.544Z</time>
    </trkpt>
    <trkpt lat="56.545815" lon="60.974935">
        <ele>269.4</ele>
        <time>2022-06-29T14:39:14.953Z</time>
    </trkpt>
    <trkpt lat="56.545865" lon="60.974856">
        <ele>269.6</ele>
        <time>2022-06-29T14:39:18.250Z</time>
    </trkpt>
    <trkpt lat="56.545922" lon="60.974794">
        <ele>269.8</ele>
        <time>2022-06-29T14:39:21.555Z</time>
    </trkpt>
    <trkpt lat="56.54598" lon="60.974733">
        <ele>269.9</ele>
        <time>2022-06-29T14:39:24.889Z</time>
    </trkpt>
    <trkpt lat="56.546033" lon="60.97469">
        <ele>269.9</ele>
        <time>2022-06-29T14:39:27.776Z</time>
    </trkpt>
    <trkpt lat="56.546088" lon="60.974647">
        <ele>270.1</ele>
        <time>2022-06-29T14:39:30.754Z</time>
    </trkpt>
    <trkpt lat="56.546166" lon="60.974596">
        <ele>270.1</ele>
        <time>2022-06-29T14:39:34.877Z</time>
    </trkpt>
    <trkpt lat="56.546231" lon="60.97457">
        <ele>270.1</ele>
        <time>2022-06-29T14:39:38.187Z</time>
    </trkpt>
    <trkpt lat="56.546292" lon="60.974533">
        <ele>270.1</ele>
        <time>2022-06-29T14:39:41.386Z</time>
    </trkpt>
    <trkpt lat="56.546348" lon="60.974507">
        <ele>270.0</ele>
        <time>2022-06-29T14:39:44.261Z</time>
    </trkpt>
    <trkpt lat="56.546406" lon="60.974482">
        <ele>270.0</ele>
        <time>2022-06-29T14:39:47.226Z</time>
    </trkpt>
    <trkpt lat="56.54646" lon="60.974447">
        <ele>270.0</ele>
        <time>2022-06-29T14:39:50.078Z</time>
    </trkpt>
    <trkpt lat="56.546525" lon="60.974414">
        <ele>270.0</ele>
        <time>2022-06-29T14:39:53.435Z</time>
    </trkpt>
    <trkpt lat="56.546588" lon="60.974395">
        <ele>270.0</ele>
        <time>2022-06-29T14:39:56.611Z</time>
    </trkpt>
    <trkpt lat="56.54665" lon="60.974353">
        <ele>269.9</ele>
        <time>2022-06-29T14:39:59.902Z</time>
    </trkpt>
    <trkpt lat="56.5467" lon="60.974296">
        <ele>269.9</ele>
        <time>2022-06-29T14:40:02.839Z</time>
    </trkpt>
    <trkpt lat="56.546756" lon="60.974239">
        <ele>269.9</ele>
        <time>2022-06-29T14:40:06.032Z</time>
    </trkpt>
    <trkpt lat="56.546818" lon="60.97418">
        <ele>269.9</ele>
        <time>2022-06-29T14:40:09.514Z</time>
    </trkpt>
    <trkpt lat="56.546883" lon="60.974127">
        <ele>269.9</ele>
        <time>2022-06-29T14:40:13.058Z</time>
    </trkpt>
    <trkpt lat="56.546937" lon="60.974088">
        <ele>270.0</ele>
        <time>2022-06-29T14:40:15.948Z</time>
    </trkpt>
    <trkpt lat="56.546992" lon="60.974048">
        <ele>270.1</ele>
        <time>2022-06-29T14:40:18.895Z</time>
    </trkpt>
    <trkpt lat="56.547051" lon="60.973991">
        <ele>270.1</ele>
        <time>2022-06-29T14:40:22.219Z</time>
    </trkpt>
    <trkpt lat="56.547105" lon="60.973963">
        <ele>270.2</ele>
        <time>2022-06-29T14:40:25.012Z</time>
    </trkpt>
    <trkpt lat="56.547173" lon="60.973928">
        <ele>270.3</ele>
        <time>2022-06-29T14:40:28.527Z</time>
    </trkpt>
    <trkpt lat="56.547226" lon="60.973918">
        <ele>270.4</ele>
        <time>2022-06-29T14:40:31.177Z</time>
    </trkpt>
    <trkpt lat="56.547282" lon="60.9739">
        <ele>270.5</ele>
        <time>2022-06-29T14:40:34.005Z</time>
    </trkpt>
    <trkpt lat="56.547338" lon="60.973882">
        <ele>270.7</ele>
        <time>2022-06-29T14:40:36.833Z</time>
    </trkpt>
    <trkpt lat="56.547389" lon="60.973879">
        <ele>271.0</ele>
        <time>2022-06-29T14:40:39.370Z</time>
    </trkpt>
    <trkpt lat="56.547443" lon="60.973874">
        <ele>271.3</ele>
        <time>2022-06-29T14:40:42.059Z</time>
    </trkpt>
    <trkpt lat="56.547514" lon="60.973857">
        <ele>271.6</ele>
        <time>2022-06-29T14:40:45.621Z</time>
    </trkpt>
    <trkpt lat="56.547576" lon="60.973825">
        <ele>271.9</ele>
        <time>2022-06-29T14:40:48.827Z</time>
    </trkpt>
    <trkpt lat="56.547631" lon="60.973797">
        <ele>272.2</ele>
        <time>2022-06-29T14:40:51.668Z</time>
    </trkpt>
    <trkpt lat="56.547687" lon="60.973759">
        <ele>272.4</ele>
        <time>2022-06-29T14:40:54.641Z</time>
    </trkpt>
    <trkpt lat="56.547736" lon="60.973725">
        <ele>272.8</ele>
        <time>2022-06-29T14:40:57.250Z</time>
    </trkpt>
    <trkpt lat="56.547794" lon="60.973693">
        <ele>273.2</ele>
        <time>2022-06-29T14:41:00.265Z</time>
    </trkpt>
    <trkpt lat="56.547855" lon="60.973662">
        <ele>273.6</ele>
        <time>2022-06-29T14:41:03.415Z</time>
    </trkpt>
    <trkpt lat="56.547916" lon="60.973626">
        <ele>274.0</ele>
        <time>2022-06-29T14:41:06.605Z</time>
    </trkpt>
    <trkpt lat="56.547971" lon="60.973603">
        <ele>274.4</ele>
        <time>2022-06-29T14:41:09.412Z</time>
    </trkpt>
    <trkpt lat="56.548018" lon="60.973576">
        <ele>274.8</ele>
        <time>2022-06-29T14:41:11.864Z</time>
    </trkpt>
    <trkpt lat="56.548068" lon="60.973518">
        <ele>275.2</ele>
        <time>2022-06-29T14:41:14.815Z</time>
    </trkpt>
    <trkpt lat="56.54812" lon="60.973442">
        <ele>275.6</ele>
        <time>2022-06-29T14:41:18.136Z</time>
    </trkpt>
    <trkpt lat="56.548171" lon="60.973381">
        <ele>275.9</ele>
        <time>2022-06-29T14:41:21.174Z</time>
    </trkpt>
    <trkpt lat="56.548223" lon="60.97333">
        <ele>276.2</ele>
        <time>2022-06-29T14:41:24.114Z</time>
    </trkpt>
    <trkpt lat="56.54826" lon="60.973275">
        <ele>276.4</ele>
        <time>2022-06-29T14:41:26.493Z</time>
    </trkpt>
    <trkpt lat="56.548303" lon="60.973198">
        <ele>276.6</ele>
        <time>2022-06-29T14:41:29.498Z</time>
    </trkpt>
    <trkpt lat="56.548354" lon="60.973139">
        <ele>276.7</ele>
        <time>2022-06-29T14:41:32.506Z</time>
    </trkpt>
    <trkpt lat="56.548401" lon="60.973095">
        <ele>276.8</ele>
        <time>2022-06-29T14:41:35.136Z</time>
    </trkpt>
    <trkpt lat="56.548453" lon="60.973045">
        <ele>276.9</ele>
        <time>2022-06-29T14:41:38.063Z</time>
    </trkpt>
    <trkpt lat="56.548505" lon="60.973002">
        <ele>277.0</ele>
        <time>2022-06-29T14:41:40.905Z</time>
    </trkpt>
    <trkpt lat="56.548555" lon="60.972974">
        <ele>277.1</ele>
        <time>2022-06-29T14:41:43.507Z</time>
    </trkpt>
    <trkpt lat="56.548604" lon="60.972946">
        <ele>277.3</ele>
        <time>2022-06-29T14:41:46.062Z</time>
    </trkpt>
    <trkpt lat="56.548663" lon="60.972911">
        <ele>277.4</ele>
        <time>2022-06-29T14:41:49.149Z</time>
    </trkpt>
    <trkpt lat="56.54872" lon="60.972882">
        <ele>277.5</ele>
        <time>2022-06-29T14:41:52.093Z</time>
    </trkpt>
    <trkpt lat="56.54878" lon="60.972853">
        <ele>277.6</ele>
        <time>2022-06-29T14:41:55.181Z</time>
    </trkpt>
    <trkpt lat="56.548834" lon="60.972816">
        <ele>277.6</ele>
        <time>2022-06-29T14:41:58.052Z</time>
    </trkpt>
    <trkpt lat="56.548879" lon="60.972777">
        <ele>277.7</ele>
        <time>2022-06-29T14:42:00.532Z</time>
    </trkpt>
    <trkpt lat="56.548922" lon="60.972748">
        <ele>277.6</ele>
        <time>2022-06-29T14:42:02.813Z</time>
    </trkpt>
    <trkpt lat="56.54897" lon="60.972706">
        <ele>277.5</ele>
        <time>2022-06-29T14:42:05.463Z</time>
    </trkpt>
    <trkpt lat="56.549011" lon="60.972666">
        <ele>277.5</ele>
        <time>2022-06-29T14:42:07.778Z</time>
    </trkpt>
    <trkpt lat="56.549055" lon="60.972636">
        <ele>277.3</ele>
        <time>2022-06-29T14:42:10.115Z</time>
    </trkpt>
    <trkpt lat="56.549104" lon="60.972605">
        <ele>277.2</ele>
        <time>2022-06-29T14:42:12.696Z</time>
    </trkpt>
    <trkpt lat="56.54916" lon="60.972581">
        <ele>276.9</ele>
        <time>2022-06-29T14:42:15.558Z</time>
    </trkpt>
    <trkpt lat="56.549218" lon="60.97253">
        <ele>276.6</ele>
        <time>2022-06-29T14:42:18.763Z</time>
    </trkpt>
    <trkpt lat="56.549281" lon="60.97248">
        <ele>276.4</ele>
        <time>2022-06-29T14:42:22.183Z</time>
    </trkpt>
    <trkpt lat="56.549327" lon="60.972444">
        <ele>276.3</ele>
        <time>2022-06-29T14:42:24.674Z</time>
    </trkpt>
    <trkpt lat="56.549366" lon="60.972432">
        <ele>276.3</ele>
        <time>2022-06-29T14:42:26.641Z</time>
    </trkpt>
    <trkpt lat="56.549385" lon="60.972437">
        <ele>276.3</ele>
        <time>2022-06-29T14:42:27.595Z</time>
    </trkpt>
    <trkpt lat="56.549392" lon="60.972437">
        <ele>276.3</ele>
        <time>2022-06-29T14:42:27.943Z</time>
    </trkpt>
    <trkpt lat="56.549391" lon="60.972447">
        <ele>276.4</ele>
        <time>2022-06-29T14:42:28.221Z</time>
    </trkpt>
    <trkpt lat="56.549384" lon="60.972451">
        <ele>276.4</ele>
        <time>2022-06-29T14:42:28.586Z</time>
    </trkpt>
    <trkpt lat="56.549383" lon="60.97245">
        <ele>276.4</ele>
        <time>2022-06-29T14:42:28.642Z</time>
    </trkpt>
    <trkpt lat="56.549381" lon="60.972453">
        <ele>276.2</ele>
        <time>2022-06-29T14:42:28.771Z</time>
    </trkpt>
    <trkpt lat="56.549365" lon="60.97246">
        <ele>276.2</ele>
        <time>2022-06-29T14:42:29.589Z</time>
    </trkpt>
    <trkpt lat="56.549349" lon="60.972468">
        <ele>276.1</ele>
        <time>2022-06-29T14:42:30.414Z</time>
    </trkpt>
    <trkpt lat="56.549334" lon="60.97247">
        <ele>276.1</ele>
        <time>2022-06-29T14:42:31.162Z</time>
    </trkpt>
    <trkpt lat="56.549337" lon="60.972477">
        <ele>276.0</ele>
        <time>2022-06-29T14:42:31.405Z</time>
    </trkpt>
    <trkpt lat="56.549345" lon="60.972477">
        <ele>276.0</ele>
        <time>2022-06-29T14:42:31.802Z</time>
    </trkpt>
    <trkpt lat="56.549363" lon="60.97246">
        <ele>275.9</ele>
        <time>2022-06-29T14:42:32.811Z</time>
    </trkpt>
    <trkpt lat="56.549385" lon="60.972429">
        <ele>275.9</ele>
        <time>2022-06-29T14:42:34.196Z</time>
    </trkpt>
    <trkpt lat="56.549398" lon="60.972425">
        <ele>275.9</ele>
        <time>2022-06-29T14:42:34.851Z</time>
    </trkpt>
    <trkpt lat="56.549413" lon="60.972417">
        <ele>275.8</ele>
        <time>2022-06-29T14:42:35.628Z</time>
    </trkpt>
    <trkpt lat="56.549432" lon="60.972407">
        <ele>275.8</ele>
        <time>2022-06-29T14:42:36.611Z</time>
    </trkpt>
    <trkpt lat="56.549462" lon="60.972392">
        <ele>275.8</ele>
        <time>2022-06-29T14:42:38.158Z</time>
    </trkpt>
    <trkpt lat="56.549499" lon="60.972382">
        <ele>275.8</ele>
        <time>2022-06-29T14:42:40.018Z</time>
    </trkpt>
    <trkpt lat="56.549532" lon="60.972361">
        <ele>275.8</ele>
        <time>2022-06-29T14:42:41.757Z</time>
    </trkpt>
    <trkpt lat="56.549567" lon="60.97235">
        <ele>275.8</ele>
        <time>2022-06-29T14:42:43.523Z</time>
    </trkpt>
    <trkpt lat="56.549599" lon="60.972335">
        <ele>275.9</ele>
        <time>2022-06-29T14:42:45.166Z</time>
    </trkpt>
    <trkpt lat="56.549644" lon="60.972327">
        <ele>275.9</ele>
        <time>2022-06-29T14:42:47.414Z</time>
    </trkpt>
    <trkpt lat="56.549681" lon="60.972325">
        <ele>276.0</ele>
        <time>2022-06-29T14:42:49.255Z</time>
    </trkpt>
    <trkpt lat="56.549716" lon="60.972328">
        <ele>276.0</ele>
        <time>2022-06-29T14:42:50.997Z</time>
    </trkpt>
    <trkpt lat="56.549761" lon="60.972322">
        <ele>276.1</ele>
        <time>2022-06-29T14:42:53.241Z</time>
    </trkpt>
    <trkpt lat="56.549799" lon="60.972319">
        <ele>276.2</ele>
        <time>2022-06-29T14:42:55.132Z</time>
    </trkpt>
    <trkpt lat="56.549842" lon="60.97232">
        <ele>276.2</ele>
        <time>2022-06-29T14:42:57.270Z</time>
    </trkpt>
    <trkpt lat="56.549891" lon="60.972324">
        <ele>276.2</ele>
        <time>2022-06-29T14:42:59.709Z</time>
    </trkpt>
    <trkpt lat="56.549938" lon="60.972334">
        <ele>276.2</ele>
        <time>2022-06-29T14:43:02.062Z</time>
    </trkpt>
    <trkpt lat="56.549985" lon="60.972352">
        <ele>276.2</ele>
        <time>2022-06-29T14:43:04.451Z</time>
    </trkpt>
    <trkpt lat="56.550024" lon="60.972359">
        <ele>276.1</ele>
        <time>2022-06-29T14:43:06.400Z</time>
    </trkpt>
    <trkpt lat="56.550064" lon="60.972361">
        <ele>276.0</ele>
        <time>2022-06-29T14:43:08.390Z</time>
    </trkpt>
    <trkpt lat="56.550113" lon="60.972358">
        <ele>275.8</ele>
        <time>2022-06-29T14:43:10.828Z</time>
    </trkpt>
    <trkpt lat="56.550153" lon="60.972346">
        <ele>275.7</ele>
        <time>2022-06-29T14:43:12.844Z</time>
    </trkpt>
    <trkpt lat="56.550189" lon="60.972324">
        <ele>275.5</ele>
        <time>2022-06-29T14:43:14.733Z</time>
    </trkpt>
    <trkpt lat="56.55025" lon="60.972291">
        <ele>275.3</ele>
        <time>2022-06-29T14:43:17.899Z</time>
    </trkpt>
    <trkpt lat="56.550313" lon="60.972249">
        <ele>275.2</ele>
        <time>2022-06-29T14:43:21.237Z</time>
    </trkpt>
    <trkpt lat="56.550378" lon="60.972195">
        <ele>275.0</ele>
        <time>2022-06-29T14:43:24.792Z</time>
    </trkpt>
    <trkpt lat="56.550452" lon="60.972141">
        <ele>274.8</ele>
        <time>2022-06-29T14:43:28.759Z</time>
    </trkpt>
    <trkpt lat="56.550529" lon="60.972088">
        <ele>274.7</ele>
        <time>2022-06-29T14:43:32.855Z</time>
    </trkpt>
    <trkpt lat="56.550599" lon="60.972046">
        <ele>274.5</ele>
        <time>2022-06-29T14:43:36.522Z</time>
    </trkpt>
    <trkpt lat="56.55067" lon="60.971986">
        <ele>274.4</ele>
        <time>2022-06-29T14:43:40.417Z</time>
    </trkpt>
    <trkpt lat="56.550749" lon="60.971929">
        <ele>274.2</ele>
        <time>2022-06-29T14:43:44.645Z</time>
    </trkpt>
    <trkpt lat="56.550821" lon="60.971894">
        <ele>274.1</ele>
        <time>2022-06-29T14:43:48.352Z</time>
    </trkpt>
    <trkpt lat="56.550898" lon="60.971872">
        <ele>273.9</ele>
        <time>2022-06-29T14:43:52.229Z</time>
    </trkpt>
    <trkpt lat="56.550969" lon="60.971848">
        <ele>273.8</ele>
        <time>2022-06-29T14:43:55.821Z</time>
    </trkpt>
    <trkpt lat="56.551035" lon="60.971815">
        <ele>273.8</ele>
        <time>2022-06-29T14:43:59.226Z</time>
    </trkpt>
    <trkpt lat="56.551104" lon="60.971775">
        <ele>273.7</ele>
        <time>2022-06-29T14:44:02.828Z</time>
    </trkpt>
    <trkpt lat="56.551184" lon="60.971734">
        <ele>273.8</ele>
        <time>2022-06-29T14:44:06.962Z</time>
    </trkpt>
    <trkpt lat="56.551262" lon="60.9717">
        <ele>273.9</ele>
        <time>2022-06-29T14:44:10.951Z</time>
    </trkpt>
    <trkpt lat="56.551337" lon="60.971657">
        <ele>274.1</ele>
        <time>2022-06-29T14:44:14.863Z</time>
    </trkpt>
    <trkpt lat="56.551411" lon="60.971575">
        <ele>274.4</ele>
        <time>2022-06-29T14:44:19.175Z</time>
    </trkpt>
    <trkpt lat="56.551487" lon="60.971497">
        <ele>274.6</ele>
        <time>2022-06-29T14:44:23.518Z</time>
    </trkpt>
    <trkpt lat="56.551568" lon="60.971429">
        <ele>274.8</ele>
        <time>2022-06-29T14:44:27.957Z</time>
    </trkpt>
    <trkpt lat="56.551662" lon="60.971355">
        <ele>275.0</ele>
        <time>2022-06-29T14:44:33.053Z</time>
    </trkpt>
    <trkpt lat="56.551751" lon="60.971283">
        <ele>275.1</ele>
        <time>2022-06-29T14:44:37.899Z</time>
    </trkpt>
    <trkpt lat="56.55184" lon="60.971199">
        <ele>275.2</ele>
        <time>2022-06-29T14:44:42.888Z</time>
    </trkpt>
    <trkpt lat="56.551931" lon="60.971106">
        <ele>275.3</ele>
        <time>2022-06-29T14:44:48.082Z</time>
    </trkpt>
    <trkpt lat="56.552014" lon="60.971032">
        <ele>275.5</ele>
        <time>2022-06-29T14:44:52.681Z</time>
    </trkpt>
    <trkpt lat="56.552103" lon="60.970959">
        <ele>275.6</ele>
        <time>2022-06-29T14:44:57.539Z</time>
    </trkpt>
    <trkpt lat="56.552187" lon="60.970894">
        <ele>275.7</ele>
        <time>2022-06-29T14:45:02.081Z</time>
    </trkpt>
    <trkpt lat="56.552269" lon="60.970828">
        <ele>275.8</ele>
        <time>2022-06-29T14:45:06.542Z</time>
    </trkpt>
    <trkpt lat="56.552347" lon="60.970774">
        <ele>276.0</ele>
        <time>2022-06-29T14:45:10.694Z</time>
    </trkpt>
    <trkpt lat="56.552432" lon="60.97072">
        <ele>276.1</ele>
        <time>2022-06-29T14:45:15.173Z</time>
    </trkpt>
    <trkpt lat="56.552516" lon="60.97068">
        <ele>276.4</ele>
        <time>2022-06-29T14:45:19.492Z</time>
    </trkpt>
    <trkpt lat="56.552586" lon="60.970647">
        <ele>276.6</ele>
        <time>2022-06-29T14:45:23.089Z</time>
    </trkpt>
    <trkpt lat="56.552647" lon="60.970611">
        <ele>276.7</ele>
        <time>2022-06-29T14:45:26.279Z</time>
    </trkpt>
    <trkpt lat="56.552713" lon="60.970567">
        <ele>276.9</ele>
        <time>2022-06-29T14:45:29.776Z</time>
    </trkpt>
    <trkpt lat="56.552781" lon="60.970525">
        <ele>277.1</ele>
        <time>2022-06-29T14:45:33.348Z</time>
    </trkpt>
    <trkpt lat="56.552865" lon="60.970498">
        <ele>277.2</ele>
        <time>2022-06-29T14:45:37.591Z</time>
    </trkpt>
    <trkpt lat="56.552931" lon="60.970491">
        <ele>277.3</ele>
        <time>2022-06-29T14:45:40.879Z</time>
    </trkpt>
    <trkpt lat="56.553007" lon="60.970482">
        <ele>277.5</ele>
        <time>2022-06-29T14:45:44.667Z</time>
    </trkpt>
    <trkpt lat="56.55308" lon="60.970474">
        <ele>277.6</ele>
        <time>2022-06-29T14:45:48.304Z</time>
    </trkpt>
    <trkpt lat="56.553133" lon="60.970473">
        <ele>277.7</ele>
        <time>2022-06-29T14:45:50.940Z</time>
    </trkpt>
    <trkpt lat="56.553183" lon="60.970469">
        <ele>277.8</ele>
        <time>2022-06-29T14:45:53.429Z</time>
    </trkpt>
    <trkpt lat="56.553236" lon="60.970468">
        <ele>278.0</ele>
        <time>2022-06-29T14:45:56.065Z</time>
    </trkpt>
    <trkpt lat="56.553305" lon="60.970465">
        <ele>278.1</ele>
        <time>2022-06-29T14:45:59.497Z</time>
    </trkpt>
    <trkpt lat="56.553359" lon="60.97046">
        <ele>278.2</ele>
        <time>2022-06-29T14:46:02.186Z</time>
    </trkpt>
    <trkpt lat="56.553409" lon="60.970461">
        <ele>278.3</ele>
        <time>2022-06-29T14:46:04.673Z</time>
    </trkpt>
    <trkpt lat="56.553451" lon="60.970457">
        <ele>278.4</ele>
        <time>2022-06-29T14:46:06.764Z</time>
    </trkpt>
    <trkpt lat="56.553502" lon="60.970471">
        <ele>278.5</ele>
        <time>2022-06-29T14:46:09.329Z</time>
    </trkpt>
    <trkpt lat="56.553562" lon="60.970483">
        <ele>278.5</ele>
        <time>2022-06-29T14:46:12.331Z</time>
    </trkpt>
    <trkpt lat="56.55364" lon="60.97048">
        <ele>278.4</ele>
        <time>2022-06-29T14:46:16.211Z</time>
    </trkpt>
    <trkpt lat="56.553716" lon="60.970457">
        <ele>278.3</ele>
        <time>2022-06-29T14:46:20.043Z</time>
    </trkpt>
    <trkpt lat="56.553791" lon="60.970422">
        <ele>278.1</ele>
        <time>2022-06-29T14:46:23.894Z</time>
    </trkpt>
    <trkpt lat="56.553856" lon="60.970372">
        <ele>277.9</ele>
        <time>2022-06-29T14:46:27.405Z</time>
    </trkpt>
    <trkpt lat="56.553929" lon="60.970315">
        <ele>277.6</ele>
        <time>2022-06-29T14:46:31.357Z</time>
    </trkpt>
    <trkpt lat="56.553986" lon="60.970256">
        <ele>277.2</ele>
        <time>2022-06-29T14:46:34.620Z</time>
    </trkpt>
    <trkpt lat="56.554052" lon="60.970181">
        <ele>276.7</ele>
        <time>2022-06-29T14:46:38.493Z</time>
    </trkpt>
    <trkpt lat="56.554124" lon="60.970104">
        <ele>276.2</ele>
        <time>2022-06-29T14:46:42.649Z</time>
    </trkpt>
    <trkpt lat="56.55419" lon="60.97003">
        <ele>276.0</ele>
        <time>2022-06-29T14:46:46.507Z</time>
    </trkpt>
    <trkpt lat="56.554255" lon="60.969945">
        <ele>275.9</ele>
        <time>2022-06-29T14:46:50.492Z</time>
    </trkpt>
    <trkpt lat="56.554316" lon="60.969853">
        <ele>275.6</ele>
        <time>2022-06-29T14:46:54.437Z</time>
    </trkpt>
    <trkpt lat="56.554376" lon="60.969747">
        <ele>275.8</ele>
        <time>2022-06-29T14:46:58.602Z</time>
    </trkpt>
    <trkpt lat="56.554426" lon="60.969642">
        <ele>275.2</ele>
        <time>2022-06-29T14:47:02.405Z</time>
    </trkpt>
    <trkpt lat="56.554497" lon="60.969561">
        <ele>274.1</ele>
        <time>2022-06-29T14:47:06.576Z</time>
    </trkpt>
    <trkpt lat="56.554556" lon="60.969501">
        <ele>273.0</ele>
        <time>2022-06-29T14:47:09.940Z</time>
    </trkpt>
    <trkpt lat="56.554613" lon="60.969444">
        <ele>272.2</ele>
        <time>2022-06-29T14:47:13.177Z</time>
    </trkpt>
    <trkpt lat="56.554649" lon="60.969414">
        <ele>271.4</ele>
        <time>2022-06-29T14:47:15.147Z</time>
    </trkpt>
    <trkpt lat="56.554683" lon="60.96938">
        <ele>270.7</ele>
        <time>2022-06-29T14:47:17.077Z</time>
    </trkpt>
    <trkpt lat="56.55472" lon="60.96934">
        <ele>270.3</ele>
        <time>2022-06-29T14:47:19.219Z</time>
    </trkpt>
    <trkpt lat="56.554758" lon="60.969295">
        <ele>270.1</ele>
        <time>2022-06-29T14:47:21.475Z</time>
    </trkpt>
    <trkpt lat="56.554778" lon="60.969281">
        <ele>270.0</ele>
        <time>2022-06-29T14:47:22.541Z</time>
    </trkpt>
    <trkpt lat="56.554789" lon="60.969273">
        <ele>270.0</ele>
        <time>2022-06-29T14:47:23.130Z</time>
    </trkpt>
    <trkpt lat="56.554791" lon="60.969277">
        <ele>270.0</ele>
        <time>2022-06-29T14:47:23.278Z</time>
    </trkpt>
    <trkpt lat="56.554792" lon="60.969278">
        <ele>270.0</ele>
        <time>2022-06-29T14:47:23.334Z</time>
    </trkpt>
    <trkpt lat="56.554792" lon="60.96928">
        <ele>270.0</ele>
        <time>2022-06-29T14:47:23.388Z</time>
    </trkpt>
    <trkpt lat="56.554789" lon="60.969281">
        <ele>270.0</ele>
        <time>2022-06-29T14:47:23.539Z</time>
    </trkpt>
    <trkpt lat="56.554787" lon="60.969281">
        <ele>270.0</ele>
        <time>2022-06-29T14:47:23.638Z</time>
    </trkpt>
    <trkpt lat="56.554788" lon="60.969279">
        <ele>270.0</ele>
        <time>2022-06-29T14:47:23.712Z</time>
    </trkpt>
    <trkpt lat="56.554791" lon="60.969276">
        <ele>269.9</ele>
        <time>2022-06-29T14:47:23.882Z</time>
    </trkpt>
    <trkpt lat="56.554798" lon="60.969272">
        <ele>269.9</ele>
        <time>2022-06-29T14:47:24.247Z</time>
    </trkpt>
    <trkpt lat="56.5548" lon="60.969257">
        <ele>269.9</ele>
        <time>2022-06-29T14:47:24.670Z</time>
    </trkpt>
    <trkpt lat="56.554801" lon="60.969253">
        <ele>269.9</ele>
        <time>2022-06-29T14:47:24.790Z</time>
    </trkpt>
    <trkpt lat="56.554808" lon="60.969254">
        <ele>269.8</ele>
        <time>2022-06-29T14:47:25.139Z</time>
    </trkpt>
    <trkpt lat="56.554806" lon="60.969271">
        <ele>269.8</ele>
        <time>2022-06-29T14:47:25.615Z</time>
    </trkpt>
    <trkpt lat="56.554808" lon="60.96928">
        <ele>269.8</ele>
        <time>2022-06-29T14:47:25.881Z</time>
    </trkpt>
    <trkpt lat="56.554807" lon="60.969279">
        <ele>269.8</ele>
        <time>2022-06-29T14:47:25.937Z</time>
    </trkpt>
    <trkpt lat="56.554808" lon="60.969278">
        <ele>269.8</ele>
        <time>2022-06-29T14:47:25.993Z</time>
    </trkpt>
    <trkpt lat="56.554809" lon="60.969278">
        <ele>269.8</ele>
        <time>2022-06-29T14:47:26.042Z</time>
    </trkpt>
    <trkpt lat="56.554812" lon="60.969278">
        <ele>269.8</ele>
        <time>2022-06-29T14:47:26.191Z</time>
    </trkpt>
    <trkpt lat="56.554814" lon="60.969276">
        <ele>269.7</ele>
        <time>2022-06-29T14:47:26.304Z</time>
    </trkpt>
    <trkpt lat="56.554815" lon="60.969275">
        <ele>269.7</ele>
        <time>2022-06-29T14:47:26.360Z</time>
    </trkpt>
    <trkpt lat="56.554817" lon="60.969274">
        <ele>269.7</ele>
        <time>2022-06-29T14:47:26.463Z</time>
    </trkpt>
    <trkpt lat="56.554818" lon="60.969274">
        <ele>269.7</ele>
        <time>2022-06-29T14:47:26.512Z</time>
    </trkpt>
    <trkpt lat="56.554818" lon="60.969273">
        <ele>269.7</ele>
        <time>2022-06-29T14:47:26.539Z</time>
    </trkpt>
    <trkpt lat="56.554819" lon="60.969272">
        <ele>269.7</ele>
        <time>2022-06-29T14:47:26.595Z</time>
    </trkpt>
    <trkpt lat="56.554819" lon="60.969271">
        <ele>269.7</ele>
        <time>2022-06-29T14:47:26.622Z</time>
    </trkpt>
    <trkpt lat="56.55482" lon="60.969271">
        <ele>269.7</ele>
        <time>2022-06-29T14:47:26.671Z</time>
    </trkpt>
    <trkpt lat="56.55482" lon="60.96927">
        <ele>269.7</ele>
        <time>2022-06-29T14:47:26.698Z</time>
    </trkpt>
    <trkpt lat="56.554821" lon="60.969271">
        <ele>269.7</ele>
        <time>2022-06-29T14:47:26.754Z</time>
    </trkpt>
    <trkpt lat="56.554822" lon="60.969272">
        <ele>269.7</ele>
        <time>2022-06-29T14:47:26.810Z</time>
    </trkpt>
    <trkpt lat="56.554824" lon="60.969272">
        <ele>269.7</ele>
        <time>2022-06-29T14:47:26.909Z</time>
    </trkpt>
    <trkpt lat="56.554826" lon="60.969272">
        <ele>269.7</ele>
        <time>2022-06-29T14:47:27.008Z</time>
    </trkpt>
    <trkpt lat="56.554827" lon="60.969258">
        <ele>269.7</ele>
        <time>2022-06-29T14:47:27.394Z</time>
    </trkpt>
    <trkpt lat="56.55483" lon="60.969256">
        <ele>269.7</ele>
        <time>2022-06-29T14:47:27.552Z</time>
    </trkpt>
    <trkpt lat="56.554829" lon="60.969258">
        <ele>269.7</ele>
        <time>2022-06-29T14:47:27.626Z</time>
    </trkpt>
    <trkpt lat="56.55483" lon="60.969256">
        <ele>269.7</ele>
        <time>2022-06-29T14:47:27.700Z</time>
    </trkpt>
    <trkpt lat="56.554833" lon="60.969245">
        <ele>269.7</ele>
        <time>2022-06-29T14:47:28.036Z</time>
    </trkpt>
    <trkpt lat="56.554827" lon="60.969243">
        <ele>269.7</ele>
        <time>2022-06-29T14:47:28.339Z</time>
    </trkpt>
    <trkpt lat="56.554824" lon="60.969243">
        <ele>269.7</ele>
        <time>2022-06-29T14:47:28.488Z</time>
    </trkpt>
    <trkpt lat="56.554836" lon="60.969229">
        <ele>269.6</ele>
        <time>2022-06-29T14:47:29.197Z</time>
    </trkpt>
    <trkpt lat="56.554844" lon="60.969227">
        <ele>269.5</ele>
        <time>2022-06-29T14:47:29.598Z</time>
    </trkpt>
    <trkpt lat="56.554853" lon="60.969232">
        <ele>269.4</ele>
        <time>2022-06-29T14:47:30.066Z</time>
    </trkpt>
    <trkpt lat="56.554863" lon="60.969236">
        <ele>269.4</ele>
        <time>2022-06-29T14:47:30.575Z</time>
    </trkpt>
    <trkpt lat="56.55487" lon="60.96923">
        <ele>269.4</ele>
        <time>2022-06-29T14:47:30.960Z</time>
    </trkpt>
    <trkpt lat="56.554876" lon="60.96921">
        <ele>269.5</ele>
        <time>2022-06-29T14:47:31.584Z</time>
    </trkpt>
    <trkpt lat="56.554884" lon="60.969178">
        <ele>269.6</ele>
        <time>2022-06-29T14:47:32.547Z</time>
    </trkpt>
    <trkpt lat="56.554889" lon="60.969147">
        <ele>269.7</ele>
        <time>2022-06-29T14:47:33.432Z</time>
    </trkpt>
    <trkpt lat="56.554892" lon="60.969128">
        <ele>269.9</ele>
        <time>2022-06-29T14:47:33.973Z</time>
    </trkpt>
    <trkpt lat="56.554894" lon="60.969105">
        <ele>270.5</ele>
        <time>2022-06-29T14:47:34.611Z</time>
    </trkpt>
    <trkpt lat="56.554879" lon="60.969013">
        <ele>271.2</ele>
        <time>2022-06-29T14:47:37.241Z</time>
    </trkpt>
    <trkpt lat="56.554854" lon="60.968897">
        <ele>271.6</ele>
        <time>2022-06-29T14:47:40.655Z</time>
    </trkpt>
    <trkpt lat="56.554831" lon="60.968781">
        <ele>272.0</ele>
        <time>2022-06-29T14:47:44.034Z</time>
    </trkpt>
    <trkpt lat="56.554807" lon="60.968668">
        <ele>272.3</ele>
        <time>2022-06-29T14:47:47.353Z</time>
    </trkpt>
    <trkpt lat="56.554783" lon="60.968545">
        <ele>272.5</ele>
        <time>2022-06-29T14:47:50.929Z</time>
    </trkpt>
    <trkpt lat="56.554772" lon="60.968388">
        <ele>272.8</ele>
        <time>2022-06-29T14:47:55.267Z</time>
    </trkpt>
    <trkpt lat="56.554766" lon="60.968261">
        <ele>273.1</ele>
        <time>2022-06-29T14:47:58.761Z</time>
    </trkpt>
    <trkpt lat="56.554764" lon="60.968136">
        <ele>273.3</ele>
        <time>2022-06-29T14:48:02.189Z</time>
    </trkpt>
    <trkpt lat="56.554752" lon="60.968002">
        <ele>273.0</ele>
        <time>2022-06-29T14:48:05.910Z</time>
    </trkpt>
    <trkpt lat="56.554733" lon="60.967865">
        <ele>272.9</ele>
        <time>2022-06-29T14:48:09.782Z</time>
    </trkpt>
    <trkpt lat="56.554705" lon="60.967737">
        <ele>273.2</ele>
        <time>2022-06-29T14:48:13.557Z</time>
    </trkpt>
    <trkpt lat="56.55468" lon="60.967594">
        <ele>273.5</ele>
        <time>2022-06-29T14:48:17.669Z</time>
    </trkpt>
    <trkpt lat="56.55465" lon="60.967474">
        <ele>273.6</ele>
        <time>2022-06-29T14:48:21.281Z</time>
    </trkpt>
    <trkpt lat="56.554618" lon="60.967362">
        <ele>273.5</ele>
        <time>2022-06-29T14:48:24.739Z</time>
    </trkpt>
    <trkpt lat="56.554597" lon="60.967214">
        <ele>273.0</ele>
        <time>2022-06-29T14:48:28.928Z</time>
    </trkpt>
    <trkpt lat="56.554582" lon="60.96706">
        <ele>272.6</ele>
        <time>2022-06-29T14:48:33.214Z</time>
    </trkpt>
    <trkpt lat="56.554553" lon="60.966922">
        <ele>272.2</ele>
        <time>2022-06-29T14:48:37.262Z</time>
    </trkpt>
    <trkpt lat="56.554518" lon="60.966761">
        <ele>271.8</ele>
        <time>2022-06-29T14:48:42.006Z</time>
    </trkpt>
    <trkpt lat="56.554483" lon="60.966599">
        <ele>271.6</ele>
        <time>2022-06-29T14:48:46.775Z</time>
    </trkpt>
    <trkpt lat="56.554445" lon="60.966454">
        <ele>271.3</ele>
        <time>2022-06-29T14:48:51.176Z</time>
    </trkpt>
    <trkpt lat="56.554415" lon="60.96631">
        <ele>270.9</ele>
        <time>2022-06-29T14:48:55.396Z</time>
    </trkpt>
    <trkpt lat="56.554383" lon="60.966163">
        <ele>271.5</ele>
        <time>2022-06-29T14:48:59.728Z</time>
    </trkpt>
    <trkpt lat="56.554345" lon="60.966025">
        <ele>272.4</ele>
        <time>2022-06-29T14:49:03.956Z</time>
    </trkpt>
    <trkpt lat="56.554317" lon="60.965902">
        <ele>274.2</ele>
        <time>2022-06-29T14:49:07.604Z</time>
    </trkpt>
    <trkpt lat="56.554293" lon="60.965778">
        <ele>274.4</ele>
        <time>2022-06-29T14:49:11.206Z</time>
    </trkpt>
    <trkpt lat="56.554268" lon="60.965635">
        <ele>274.5</ele>
        <time>2022-06-29T14:49:15.318Z</time>
    </trkpt>
    <trkpt lat="56.554242" lon="60.965529">
        <ele>274.6</ele>
        <time>2022-06-29T14:49:18.498Z</time>
    </trkpt>
    <trkpt lat="56.55421" lon="60.965382">
        <ele>274.7</ele>
        <time>2022-06-29T14:49:22.830Z</time>
    </trkpt>
    <trkpt lat="56.554188" lon="60.96522">
        <ele>274.8</ele>
        <time>2022-06-29T14:49:27.403Z</time>
    </trkpt>
    <trkpt lat="56.554157" lon="60.965082">
        <ele>275.0</ele>
        <time>2022-06-29T14:49:31.488Z</time>
    </trkpt>
    <trkpt lat="56.55413" lon="60.964966">
        <ele>275.1</ele>
        <time>2022-06-29T14:49:34.939Z</time>
    </trkpt>
    <trkpt lat="56.554096" lon="60.964829">
        <ele>275.5</ele>
        <time>2022-06-29T14:49:39.057Z</time>
    </trkpt>
    <trkpt lat="56.554078" lon="60.964664">
        <ele>275.9</ele>
        <time>2022-06-29T14:49:43.667Z</time>
    </trkpt>
    <trkpt lat="56.55405" lon="60.964526">
        <ele>276.1</ele>
        <time>2022-06-29T14:49:47.698Z</time>
    </trkpt>
    <trkpt lat="56.554028" lon="60.964363">
        <ele>276.2</ele>
        <time>2022-06-29T14:49:52.298Z</time>
    </trkpt>
    <trkpt lat="56.554012" lon="60.964248">
        <ele>276.1</ele>
        <time>2022-06-29T14:49:55.549Z</time>
    </trkpt>
    <trkpt lat="56.55399" lon="60.964125">
        <ele>276.1</ele>
        <time>2022-06-29T14:49:59.093Z</time>
    </trkpt>
    <trkpt lat="56.553972" lon="60.964036">
        <ele>276.0</ele>
        <time>2022-06-29T14:50:01.691Z</time>
    </trkpt>
    <trkpt lat="56.55396" lon="60.963959">
        <ele>275.7</ele>
        <time>2022-06-29T14:50:03.884Z</time>
    </trkpt>
    <trkpt lat="56.553939" lon="60.963893">
        <ele>275.3</ele>
        <time>2022-06-29T14:50:05.973Z</time>
    </trkpt>
    <trkpt lat="56.553908" lon="60.963831">
        <ele>275.4</ele>
        <time>2022-06-29T14:50:08.267Z</time>
    </trkpt>
    <trkpt lat="56.553877" lon="60.963748">
        <ele>276.2</ele>
        <time>2022-06-29T14:50:11.015Z</time>
    </trkpt>
    <trkpt lat="56.553845" lon="60.963643">
        <ele>276.6</ele>
        <time>2022-06-29T14:50:14.304Z</time>
    </trkpt>
    <trkpt lat="56.553812" lon="60.963536">
        <ele>276.6</ele>
        <time>2022-06-29T14:50:17.665Z</time>
    </trkpt>
    <trkpt lat="56.553778" lon="60.963464">
        <ele>276.4</ele>
        <time>2022-06-29T14:50:20.264Z</time>
    </trkpt>
    <trkpt lat="56.553745" lon="60.963375">
        <ele>276.1</ele>
        <time>2022-06-29T14:50:23.204Z</time>
    </trkpt>
    <trkpt lat="56.553708" lon="60.963279">
        <ele>275.6</ele>
        <time>2022-06-29T14:50:26.415Z</time>
    </trkpt>
    <trkpt lat="56.553687" lon="60.963161">
        <ele>274.6</ele>
        <time>2022-06-29T14:50:29.814Z</time>
    </trkpt>
    <trkpt lat="56.553672" lon="60.96303">
        <ele>273.2</ele>
        <time>2022-06-29T14:50:33.481Z</time>
    </trkpt>
    <trkpt lat="56.553668" lon="60.962922">
        <ele>271.7</ele>
        <time>2022-06-29T14:50:36.448Z</time>
    </trkpt>
    <trkpt lat="56.553657" lon="60.962817">
        <ele>270.3</ele>
        <time>2022-06-29T14:50:39.377Z</time>
    </trkpt>
    <trkpt lat="56.553646" lon="60.962733">
        <ele>268.4</ele>
        <time>2022-06-29T14:50:41.743Z</time>
    </trkpt>
    <trkpt lat="56.553635" lon="60.962639">
        <ele>265.9</ele>
        <time>2022-06-29T14:50:44.377Z</time>
    </trkpt>
    <trkpt lat="56.55362" lon="60.962491">
        <ele>265.5</ele>
        <time>2022-06-29T14:50:48.502Z</time>
    </trkpt>
    <trkpt lat="56.553602" lon="60.96235">
        <ele>265.9</ele>
        <time>2022-06-29T14:50:52.469Z</time>
    </trkpt>
    <trkpt lat="56.553582" lon="60.962204">
        <ele>267.0</ele>
        <time>2022-06-29T14:50:56.593Z</time>
    </trkpt>
    <trkpt lat="56.553567" lon="60.96205">
        <ele>266.3</ele>
        <time>2022-06-29T14:51:00.880Z</time>
    </trkpt>
    <trkpt lat="56.553554" lon="60.961893">
        <ele>263.4</ele>
        <time>2022-06-29T14:51:05.232Z</time>
    </trkpt>
    <trkpt lat="56.553537" lon="60.96175">
        <ele>261.3</ele>
        <time>2022-06-29T14:51:09.242Z</time>
    </trkpt>
    <trkpt lat="56.553522" lon="60.961601">
        <ele>259.7</ele>
        <time>2022-06-29T14:51:13.394Z</time>
    </trkpt>
    <trkpt lat="56.553505" lon="60.96144">
        <ele>258.3</ele>
        <time>2022-06-29T14:51:17.887Z</time>
    </trkpt>
    <trkpt lat="56.553488" lon="60.961268">
        <ele>257.0</ele>
        <time>2022-06-29T14:51:22.677Z</time>
    </trkpt>
    <trkpt lat="56.553463" lon="60.961074">
        <ele>256.3</ele>
        <time>2022-06-29T14:51:28.138Z</time>
    </trkpt>
    <trkpt lat="56.553444" lon="60.960891">
        <ele>256.0</ele>
        <time>2022-06-29T14:51:33.242Z</time>
    </trkpt>
    <trkpt lat="56.553426" lon="60.960721">
        <ele>256.0</ele>
        <time>2022-06-29T14:51:37.987Z</time>
    </trkpt>
    <trkpt lat="56.553409" lon="60.960576">
        <ele>256.2</ele>
        <time>2022-06-29T14:51:42.050Z</time>
    </trkpt>
    <trkpt lat="56.553391" lon="60.96045">
        <ele>256.6</ele>
        <time>2022-06-29T14:51:45.618Z</time>
    </trkpt>
    <trkpt lat="56.553361" lon="60.960308">
        <ele>256.7</ele>
        <time>2022-06-29T14:51:49.786Z</time>
    </trkpt>
    <trkpt lat="56.553325" lon="60.960162">
        <ele>256.9</ele>
        <time>2022-06-29T14:51:54.170Z</time>
    </trkpt>
    <trkpt lat="56.553299" lon="60.96001">
        <ele>257.4</ele>
        <time>2022-06-29T14:51:58.532Z</time>
    </trkpt>
    <trkpt lat="56.553286" lon="60.95987">
        <ele>257.5</ele>
        <time>2022-06-29T14:52:02.424Z</time>
    </trkpt>
    <trkpt lat="56.553278" lon="60.959748">
        <ele>257.6</ele>
        <time>2022-06-29T14:52:05.792Z</time>
    </trkpt>
    <trkpt lat="56.553261" lon="60.959627">
        <ele>257.7</ele>
        <time>2022-06-29T14:52:09.215Z</time>
    </trkpt>
    <trkpt lat="56.553235" lon="60.959495">
        <ele>257.7</ele>
        <time>2022-06-29T14:52:13.057Z</time>
    </trkpt>
    <trkpt lat="56.5532" lon="60.959358">
        <ele>257.8</ele>
        <time>2022-06-29T14:52:17.196Z</time>
    </trkpt>
    <trkpt lat="56.553158" lon="60.9592">
        <ele>257.9</ele>
        <time>2022-06-29T14:52:22.004Z</time>
    </trkpt>
    <trkpt lat="56.553118" lon="60.959037">
        <ele>258.0</ele>
        <time>2022-06-29T14:52:26.895Z</time>
    </trkpt>
    <trkpt lat="56.553092" lon="60.958896">
        <ele>258.2</ele>
        <time>2022-06-29T14:52:30.970Z</time>
    </trkpt>
    <trkpt lat="56.553072" lon="60.958771">
        <ele>258.3</ele>
        <time>2022-06-29T14:52:34.538Z</time>
    </trkpt>
    <trkpt lat="56.553053" lon="60.958655">
        <ele>258.5</ele>
        <time>2022-06-29T14:52:37.855Z</time>
    </trkpt>
    <trkpt lat="56.553023" lon="60.958594">
        <ele>258.7</ele>
        <time>2022-06-29T14:52:40.096Z</time>
    </trkpt>
    <trkpt lat="56.552986" lon="60.958478">
        <ele>259.0</ele>
        <time>2022-06-29T14:52:43.770Z</time>
    </trkpt>
    <trkpt lat="56.552949" lon="60.958369">
        <ele>259.3</ele>
        <time>2022-06-29T14:52:47.279Z</time>
    </trkpt>
    <trkpt lat="56.552917" lon="60.958264">
        <ele>259.6</ele>
        <time>2022-06-29T14:52:50.568Z</time>
    </trkpt>
    <trkpt lat="56.55289" lon="60.958142">
        <ele>259.9</ele>
        <time>2022-06-29T14:52:54.172Z</time>
    </trkpt>
    <trkpt lat="56.552863" lon="60.958038">
        <ele>260.4</ele>
        <time>2022-06-29T14:52:57.323Z</time>
    </trkpt>
    <trkpt lat="56.552828" lon="60.95796">
        <ele>260.8</ele>
        <time>2022-06-29T14:53:00.080Z</time>
    </trkpt>
    <trkpt lat="56.552782" lon="60.957885">
        <ele>261.2</ele>
        <time>2022-06-29T14:53:03.156Z</time>
    </trkpt>
    <trkpt lat="56.552763" lon="60.957788">
        <ele>261.7</ele>
        <time>2022-06-29T14:53:05.978Z</time>
    </trkpt>
    <trkpt lat="56.552744" lon="60.957695">
        <ele>262.1</ele>
        <time>2022-06-29T14:53:08.697Z</time>
    </trkpt>
    <trkpt lat="56.552724" lon="60.957608">
        <ele>262.6</ele>
        <time>2022-06-29T14:53:11.281Z</time>
    </trkpt>
    <trkpt lat="56.552695" lon="60.957523">
        <ele>263.1</ele>
        <time>2022-06-29T14:53:14.021Z</time>
    </trkpt>
    <trkpt lat="56.552668" lon="60.957428">
        <ele>263.6</ele>
        <time>2022-06-29T14:53:16.951Z</time>
    </trkpt>
    <trkpt lat="56.55264" lon="60.957328">
        <ele>264.0</ele>
        <time>2022-06-29T14:53:20.025Z</time>
    </trkpt>
    <trkpt lat="56.552614" lon="60.957225">
        <ele>264.1</ele>
        <time>2022-06-29T14:53:23.130Z</time>
    </trkpt>
    <trkpt lat="56.552594" lon="60.95711">
        <ele>264.1</ele>
        <time>2022-06-29T14:53:26.435Z</time>
    </trkpt>
    <trkpt lat="56.552573" lon="60.957004">
        <ele>264.2</ele>
        <time>2022-06-29T14:53:29.522Z</time>
    </trkpt>
    <trkpt lat="56.552546" lon="60.956896">
        <ele>264.1</ele>
        <time>2022-06-29T14:53:32.773Z</time>
    </trkpt>
    <trkpt lat="56.552535" lon="60.95681">
        <ele>264.1</ele>
        <time>2022-06-29T14:53:35.193Z</time>
    </trkpt>
    <trkpt lat="56.552527" lon="60.956757">
        <ele>264.1</ele>
        <time>2022-06-29T14:53:36.699Z</time>
    </trkpt>
    <trkpt lat="56.552524" lon="60.956728">
        <ele>264.1</ele>
        <time>2022-06-29T14:53:37.507Z</time>
    </trkpt>
    <trkpt lat="56.552518" lon="60.956695">
        <ele>264.1</ele>
        <time>2022-06-29T14:53:38.459Z</time>
    </trkpt>
    <trkpt lat="56.552498" lon="60.956662">
        <ele>264.2</ele>
        <time>2022-06-29T14:53:39.803Z</time>
    </trkpt>
    <trkpt lat="56.552459" lon="60.956604">
        <ele>264.1</ele>
        <time>2022-06-29T14:53:42.311Z</time>
    </trkpt>
    <trkpt lat="56.55241" lon="60.956571">
        <ele>263.9</ele>
        <time>2022-06-29T14:53:44.910Z</time>
    </trkpt>
    <trkpt lat="56.552366" lon="60.956569">
        <ele>263.7</ele>
        <time>2022-06-29T14:53:47.099Z</time>
    </trkpt>
    <trkpt lat="56.552328" lon="60.956551">
        <ele>263.3</ele>
        <time>2022-06-29T14:53:49.052Z</time>
    </trkpt>
    <trkpt lat="56.552284" lon="60.956552">
        <ele>262.8</ele>
        <time>2022-06-29T14:53:51.240Z</time>
    </trkpt>
    <trkpt lat="56.552231" lon="60.956554">
        <ele>262.1</ele>
        <time>2022-06-29T14:53:53.876Z</time>
    </trkpt>
    <trkpt lat="56.552167" lon="60.956543">
        <ele>261.5</ele>
        <time>2022-06-29T14:53:57.073Z</time>
    </trkpt>
    <trkpt lat="56.552131" lon="60.956511">
        <ele>261.0</ele>
        <time>2022-06-29T14:53:59.066Z</time>
    </trkpt>
    <trkpt lat="56.552113" lon="60.956492">
        <ele>260.4</ele>
        <time>2022-06-29T14:54:00.101Z</time>
    </trkpt>
    <trkpt lat="56.552079" lon="60.95644">
        <ele>259.9</ele>
        <time>2022-06-29T14:54:02.312Z</time>
    </trkpt>
    <trkpt lat="56.552055" lon="60.95638">
        <ele>259.4</ele>
        <time>2022-06-29T14:54:04.344Z</time>
    </trkpt>
    <trkpt lat="56.55203" lon="60.956331">
        <ele>258.8</ele>
        <time>2022-06-29T14:54:06.174Z</time>
    </trkpt>
    <trkpt lat="56.551996" lon="60.956276">
        <ele>258.2</ele>
        <time>2022-06-29T14:54:08.439Z</time>
    </trkpt>
    <trkpt lat="56.551965" lon="60.956208">
        <ele>257.6</ele>
        <time>2022-06-29T14:54:10.858Z</time>
    </trkpt>
    <trkpt lat="56.551926" lon="60.956128">
        <ele>257.1</ele>
        <time>2022-06-29T14:54:13.785Z</time>
    </trkpt>
    <trkpt lat="56.55188" lon="60.956032">
        <ele>257.0</ele>
        <time>2022-06-29T14:54:17.272Z</time>
    </trkpt>
    <trkpt lat="56.551821" lon="60.955923">
        <ele>256.9</ele>
        <time>2022-06-29T14:54:21.460Z</time>
    </trkpt>
    <trkpt lat="56.551779" lon="60.95585">
        <ele>256.8</ele>
        <time>2022-06-29T14:54:24.352Z</time>
    </trkpt>
    <trkpt lat="56.55174" lon="60.955776">
        <ele>256.7</ele>
        <time>2022-06-29T14:54:27.158Z</time>
    </trkpt>
    <trkpt lat="56.551705" lon="60.955706">
        <ele>256.8</ele>
        <time>2022-06-29T14:54:29.748Z</time>
    </trkpt>
    <trkpt lat="56.551674" lon="60.955657">
        <ele>256.8</ele>
        <time>2022-06-29T14:54:31.792Z</time>
    </trkpt>
    <trkpt lat="56.551654" lon="60.95562">
        <ele>256.9</ele>
        <time>2022-06-29T14:54:33.212Z</time>
    </trkpt>
    <trkpt lat="56.551622" lon="60.955569">
        <ele>257.0</ele>
        <time>2022-06-29T14:54:35.330Z</time>
    </trkpt>
    <trkpt lat="56.551578" lon="60.955517">
        <ele>257.2</ele>
        <time>2022-06-29T14:54:37.941Z</time>
    </trkpt>
    <trkpt lat="56.551528" lon="60.955436">
        <ele>257.4</ele>
        <time>2022-06-29T14:54:41.275Z</time>
    </trkpt>
    <trkpt lat="56.551476" lon="60.955361">
        <ele>257.7</ele>
        <time>2022-06-29T14:54:44.579Z</time>
    </trkpt>
    <trkpt lat="56.551424" lon="60.955285">
        <ele>258.1</ele>
        <time>2022-06-29T14:54:47.900Z</time>
    </trkpt>
    <trkpt lat="56.551369" lon="60.955222">
        <ele>258.6</ele>
        <time>2022-06-29T14:54:51.135Z</time>
    </trkpt>
    <trkpt lat="56.551311" lon="60.955155">
        <ele>259.2</ele>
        <time>2022-06-29T14:54:54.554Z</time>
    </trkpt>
    <trkpt lat="56.551243" lon="60.955093">
        <ele>259.8</ele>
        <time>2022-06-29T14:54:58.339Z</time>
    </trkpt>
    <trkpt lat="56.551169" lon="60.955014">
        <ele>259.9</ele>
        <time>2022-06-29T14:55:02.609Z</time>
    </trkpt>
    <trkpt lat="56.551113" lon="60.954936">
        <ele>260.4</ele>
        <time>2022-06-29T14:55:06.120Z</time>
    </trkpt>
    <trkpt lat="56.551066" lon="60.954877">
        <ele>260.8</ele>
        <time>2022-06-29T14:55:08.962Z</time>
    </trkpt>
    <trkpt lat="56.551028" lon="60.954815">
        <ele>261.2</ele>
        <time>2022-06-29T14:55:11.503Z</time>
    </trkpt>
    <trkpt lat="56.551007" lon="60.954731">
        <ele>261.6</ele>
        <time>2022-06-29T14:55:14.031Z</time>
    </trkpt>
    <trkpt lat="56.550974" lon="60.954622">
        <ele>262.0</ele>
        <time>2022-06-29T14:55:17.440Z</time>
    </trkpt>
    <trkpt lat="56.550982" lon="60.95456">
        <ele>262.4</ele>
        <time>2022-06-29T14:55:19.185Z</time>
    </trkpt>
    <trkpt lat="56.550987" lon="60.954482">
        <ele>262.6</ele>
        <time>2022-06-29T14:55:21.337Z</time>
    </trkpt>
    <trkpt lat="56.550994" lon="60.954445">
        <ele>262.9</ele>
        <time>2022-06-29T14:55:22.409Z</time>
    </trkpt>
    <trkpt lat="56.550996" lon="60.954377">
        <ele>263.1</ele>
        <time>2022-06-29T14:55:24.275Z</time>
    </trkpt>
    <trkpt lat="56.55099" lon="60.954289">
        <ele>263.2</ele>
        <time>2022-06-29T14:55:26.705Z</time>
    </trkpt>
    <trkpt lat="56.551002" lon="60.954137">
        <ele>263.1</ele>
        <time>2022-06-29T14:55:30.914Z</time>
    </trkpt>
    <trkpt lat="56.551033" lon="60.954002">
        <ele>262.9</ele>
        <time>2022-06-29T14:55:34.923Z</time>
    </trkpt>
    <trkpt lat="56.551056" lon="60.953886">
        <ele>262.6</ele>
        <time>2022-06-29T14:55:38.302Z</time>
    </trkpt>
    <trkpt lat="56.551074" lon="60.953796">
        <ele>262.4</ele>
        <time>2022-06-29T14:55:40.926Z</time>
    </trkpt>
    <trkpt lat="56.551105" lon="60.953721">
        <ele>262.2</ele>
        <time>2022-06-29T14:55:43.496Z</time>
    </trkpt>
    <trkpt lat="56.551129" lon="60.953654">
        <ele>262.0</ele>
        <time>2022-06-29T14:55:45.686Z</time>
    </trkpt>
    <trkpt lat="56.551148" lon="60.953603">
        <ele>261.9</ele>
        <time>2022-06-29T14:55:47.373Z</time>
    </trkpt>
    <trkpt lat="56.551158" lon="60.953565">
        <ele>261.8</ele>
        <time>2022-06-29T14:55:48.527Z</time>
    </trkpt>
    <trkpt lat="56.55116" lon="60.953524">
        <ele>261.7</ele>
        <time>2022-06-29T14:55:49.655Z</time>
    </trkpt>
    <trkpt lat="56.551158" lon="60.953504">
        <ele>261.7</ele>
        <time>2022-06-29T14:55:50.212Z</time>
    </trkpt>
    <trkpt lat="56.551159" lon="60.953479">
        <ele>261.6</ele>
        <time>2022-06-29T14:55:50.899Z</time>
    </trkpt>
    <trkpt lat="56.551158" lon="60.953449">
        <ele>261.6</ele>
        <time>2022-06-29T14:55:51.722Z</time>
    </trkpt>
    <trkpt lat="56.551154" lon="60.953423">
        <ele>261.5</ele>
        <time>2022-06-29T14:55:52.462Z</time>
    </trkpt>
    <trkpt lat="56.551157" lon="60.953383">
        <ele>261.6</ele>
        <time>2022-06-29T14:55:53.568Z</time>
    </trkpt>
    <trkpt lat="56.551143" lon="60.953349">
        <ele>261.6</ele>
        <time>2022-06-29T14:55:54.731Z</time>
    </trkpt>
    <trkpt lat="56.551134" lon="60.953304">
        <ele>261.7</ele>
        <time>2022-06-29T14:55:56.043Z</time>
    </trkpt>
    <trkpt lat="56.551131" lon="60.953266">
        <ele>261.8</ele>
        <time>2022-06-29T14:55:57.095Z</time>
    </trkpt>
    <trkpt lat="56.55111" lon="60.953185">
        <ele>261.9</ele>
        <time>2022-06-29T14:55:59.549Z</time>
    </trkpt>
    <trkpt lat="56.551107" lon="60.953154">
        <ele>261.9</ele>
        <time>2022-06-29T14:56:00.411Z</time>
    </trkpt>
    <trkpt lat="56.551101" lon="60.953122">
        <ele>262.0</ele>
        <time>2022-06-29T14:56:01.337Z</time>
    </trkpt>
    <trkpt lat="56.551083" lon="60.953092">
        <ele>262.0</ele>
        <time>2022-06-29T14:56:02.552Z</time>
    </trkpt>
    <trkpt lat="56.551069" lon="60.95302">
        <ele>262.0</ele>
        <time>2022-06-29T14:56:04.645Z</time>
    </trkpt>
    <trkpt lat="56.551057" lon="60.952974">
        <ele>262.0</ele>
        <time>2022-06-29T14:56:06.040Z</time>
    </trkpt>
    <trkpt lat="56.551044" lon="60.9529">
        <ele>262.0</ele>
        <time>2022-06-29T14:56:08.169Z</time>
    </trkpt>
    <trkpt lat="56.551031" lon="60.952867">
        <ele>262.0</ele>
        <time>2022-06-29T14:56:09.281Z</time>
    </trkpt>
    <trkpt lat="56.551" lon="60.952782">
        <ele>261.9</ele>
        <time>2022-06-29T14:56:12.075Z</time>
    </trkpt>
    <trkpt lat="56.550954" lon="60.952646">
        <ele>261.9</ele>
        <time>2022-06-29T14:56:16.449Z</time>
    </trkpt>
    <trkpt lat="56.550907" lon="60.952513">
        <ele>262.0</ele>
        <time>2022-06-29T14:56:20.780Z</time>
    </trkpt>
    <trkpt lat="56.550866" lon="60.952402">
        <ele>262.0</ele>
        <time>2022-06-29T14:56:24.443Z</time>
    </trkpt>
    <trkpt lat="56.550821" lon="60.952299">
        <ele>262.0</ele>
        <time>2022-06-29T14:56:28.046Z</time>
    </trkpt>
    <trkpt lat="56.550781" lon="60.952184">
        <ele>261.9</ele>
        <time>2022-06-29T14:56:31.774Z</time>
    </trkpt>
    <trkpt lat="56.550757" lon="60.952096">
        <ele>261.7</ele>
        <time>2022-06-29T14:56:34.465Z</time>
    </trkpt>
    <trkpt lat="56.55073" lon="60.95199">
        <ele>261.4</ele>
        <time>2022-06-29T14:56:37.666Z</time>
    </trkpt>
    <trkpt lat="56.550708" lon="60.951879">
        <ele>261.0</ele>
        <time>2022-06-29T14:56:40.899Z</time>
    </trkpt>
    <trkpt lat="56.550695" lon="60.951771">
        <ele>260.5</ele>
        <time>2022-06-29T14:56:43.929Z</time>
    </trkpt>
    <trkpt lat="56.550679" lon="60.951675">
        <ele>259.9</ele>
        <time>2022-06-29T14:56:46.678Z</time>
    </trkpt>
    <trkpt lat="56.550685" lon="60.951546">
        <ele>259.8</ele>
        <time>2022-06-29T14:56:50.227Z</time>
    </trkpt>
    <trkpt lat="56.550685" lon="60.951413">
        <ele>259.4</ele>
        <time>2022-06-29T14:56:53.873Z</time>
    </trkpt>
    <trkpt lat="56.550674" lon="60.951297">
        <ele>259.2</ele>
        <time>2022-06-29T14:56:57.099Z</time>
    </trkpt>
    <trkpt lat="56.55066" lon="60.951197">
        <ele>259.0</ele>
        <time>2022-06-29T14:56:59.927Z</time>
    </trkpt>
    <trkpt lat="56.550642" lon="60.951099">
        <ele>258.9</ele>
        <time>2022-06-29T14:57:02.758Z</time>
    </trkpt>
    <trkpt lat="56.55064" lon="60.951002">
        <ele>258.8</ele>
        <time>2022-06-29T14:57:05.419Z</time>
    </trkpt>
    <trkpt lat="56.550624" lon="60.950911">
        <ele>258.7</ele>
        <time>2022-06-29T14:57:08.037Z</time>
    </trkpt>
    <trkpt lat="56.550611" lon="60.950842">
        <ele>258.6</ele>
        <time>2022-06-29T14:57:10.036Z</time>
    </trkpt>
    <trkpt lat="56.550588" lon="60.950756">
        <ele>258.5</ele>
        <time>2022-06-29T14:57:12.656Z</time>
    </trkpt>
    <trkpt lat="56.550566" lon="60.950655">
        <ele>258.2</ele>
        <time>2022-06-29T14:57:15.633Z</time>
    </trkpt>
    <trkpt lat="56.550545" lon="60.950537">
        <ele>258.0</ele>
        <time>2022-06-29T14:57:19.032Z</time>
    </trkpt>
    <trkpt lat="56.550516" lon="60.950453">
        <ele>257.7</ele>
        <time>2022-06-29T14:57:21.749Z</time>
    </trkpt>
    <trkpt lat="56.550496" lon="60.950354">
        <ele>257.5</ele>
        <time>2022-06-29T14:57:24.639Z</time>
    </trkpt>
    <trkpt lat="56.550481" lon="60.950273">
        <ele>257.2</ele>
        <time>2022-06-29T14:57:26.981Z</time>
    </trkpt>
    <trkpt lat="56.550464" lon="60.950205">
        <ele>256.9</ele>
        <time>2022-06-29T14:57:29.028Z</time>
    </trkpt>
    <trkpt lat="56.550436" lon="60.95015">
        <ele>256.7</ele>
        <time>2022-06-29T14:57:31.080Z</time>
    </trkpt>
    <trkpt lat="56.550393" lon="60.950088">
        <ele>256.5</ele>
        <time>2022-06-29T14:57:33.811Z</time>
    </trkpt>
    <trkpt lat="56.550367" lon="60.949987">
        <ele>256.3</ele>
        <time>2022-06-29T14:57:36.867Z</time>
    </trkpt>
    <trkpt lat="56.550341" lon="60.949881">
        <ele>256.1</ele>
        <time>2022-06-29T14:57:40.047Z</time>
    </trkpt>
    <trkpt lat="56.550305" lon="60.949767">
        <ele>255.9</ele>
        <time>2022-06-29T14:57:43.648Z</time>
    </trkpt>
    <trkpt lat="56.550265" lon="60.949666">
        <ele>255.8</ele>
        <time>2022-06-29T14:57:47.057Z</time>
    </trkpt>
    <trkpt lat="56.550224" lon="60.949547">
        <ele>255.8</ele>
        <time>2022-06-29T14:57:50.904Z</time>
    </trkpt>
    <trkpt lat="56.550188" lon="60.949425">
        <ele>255.7</ele>
        <time>2022-06-29T14:57:54.697Z</time>
    </trkpt>
    <trkpt lat="56.550156" lon="60.949341">
        <ele>255.7</ele>
        <time>2022-06-29T14:57:57.496Z</time>
    </trkpt>
    <trkpt lat="56.550127" lon="60.949251">
        <ele>255.6</ele>
        <time>2022-06-29T14:58:00.354Z</time>
    </trkpt>
    <trkpt lat="56.550099" lon="60.94915">
        <ele>255.5</ele>
        <time>2022-06-29T14:58:03.453Z</time>
    </trkpt>
    <trkpt lat="56.550071" lon="60.949059">
        <ele>255.5</ele>
        <time>2022-06-29T14:58:06.310Z</time>
    </trkpt>
    <trkpt lat="56.550031" lon="60.949004">
        <ele>255.5</ele>
        <time>2022-06-29T14:58:08.806Z</time>
    </trkpt>
    <trkpt lat="56.550022" lon="60.948969">
        <ele>255.6</ele>
        <time>2022-06-29T14:58:09.864Z</time>
    </trkpt>
    <trkpt lat="56.550016" lon="60.948943">
        <ele>255.6</ele>
        <time>2022-06-29T14:58:10.636Z</time>
    </trkpt>
    <trkpt lat="56.550013" lon="60.948916">
        <ele>255.7</ele>
        <time>2022-06-29T14:58:11.391Z</time>
    </trkpt>
    <trkpt lat="56.550011" lon="60.948882">
        <ele>255.4</ele>
        <time>2022-06-29T14:58:12.328Z</time>
    </trkpt>
    <trkpt lat="56.550011" lon="60.948802">
        <ele>255.1</ele>
        <time>2022-06-29T14:58:14.521Z</time>
    </trkpt>
    <trkpt lat="56.550003" lon="60.948738">
        <ele>254.8</ele>
        <time>2022-06-29T14:58:16.320Z</time>
    </trkpt>
    <trkpt lat="56.549997" lon="60.94866">
        <ele>254.7</ele>
        <time>2022-06-29T14:58:18.479Z</time>
    </trkpt>
    <trkpt lat="56.54999" lon="60.948599">
        <ele>255.1</ele>
        <time>2022-06-29T14:58:20.187Z</time>
    </trkpt>
    <trkpt lat="56.549995" lon="60.948494">
        <ele>255.3</ele>
        <time>2022-06-29T14:58:23.076Z</time>
    </trkpt>
    <trkpt lat="56.549988" lon="60.948413">
        <ele>255.5</ele>
        <time>2022-06-29T14:58:25.323Z</time>
    </trkpt>
    <trkpt lat="56.549985" lon="60.948341">
        <ele>255.4</ele>
        <time>2022-06-29T14:58:27.302Z</time>
    </trkpt>
    <trkpt lat="56.549981" lon="60.948306">
        <ele>255.3</ele>
        <time>2022-06-29T14:58:28.281Z</time>
    </trkpt>
    <trkpt lat="56.549979" lon="60.948263">
        <ele>255.2</ele>
        <time>2022-06-29T14:58:29.464Z</time>
    </trkpt>
    <trkpt lat="56.549977" lon="60.948228">
        <ele>255.0</ele>
        <time>2022-06-29T14:58:30.428Z</time>
    </trkpt>
    <trkpt lat="56.54997" lon="60.948204">
        <ele>254.9</ele>
        <time>2022-06-29T14:58:31.172Z</time>
    </trkpt>
    <trkpt lat="56.549956" lon="60.94819">
        <ele>254.8</ele>
        <time>2022-06-29T14:58:31.967Z</time>
    </trkpt>
    <trkpt lat="56.549944" lon="60.948177">
        <ele>254.7</ele>
        <time>2022-06-29T14:58:32.662Z</time>
    </trkpt>
    <trkpt lat="56.549931" lon="60.948176">
        <ele>254.7</ele>
        <time>2022-06-29T14:58:33.309Z</time>
    </trkpt>
    <trkpt lat="56.549919" lon="60.948175">
        <ele>254.6</ele>
        <time>2022-06-29T14:58:33.906Z</time>
    </trkpt>
    <trkpt lat="56.549898" lon="60.948171">
        <ele>254.4</ele>
        <time>2022-06-29T14:58:34.956Z</time>
    </trkpt>
    <trkpt lat="56.549871" lon="60.94814">
        <ele>254.3</ele>
        <time>2022-06-29T14:58:36.545Z</time>
    </trkpt>
    <trkpt lat="56.549847" lon="60.948144">
        <ele>254.1</ele>
        <time>2022-06-29T14:58:37.743Z</time>
    </trkpt>
    <trkpt lat="56.549816" lon="60.948132">
        <ele>253.9</ele>
        <time>2022-06-29T14:58:39.319Z</time>
    </trkpt>
    <trkpt lat="56.549773" lon="60.948113">
        <ele>253.7</ele>
        <time>2022-06-29T14:58:41.520Z</time>
    </trkpt>
    <trkpt lat="56.549736" lon="60.948091">
        <ele>253.4</ele>
        <time>2022-06-29T14:58:43.456Z</time>
    </trkpt>
    <trkpt lat="56.549703" lon="60.948059">
        <ele>253.0</ele>
        <time>2022-06-29T14:58:45.317Z</time>
    </trkpt>
    <trkpt lat="56.549662" lon="60.947997">
        <ele>252.7</ele>
        <time>2022-06-29T14:58:47.971Z</time>
    </trkpt>
    <trkpt lat="56.549619" lon="60.94793">
        <ele>252.4</ele>
        <time>2022-06-29T14:58:50.790Z</time>
    </trkpt>
    <trkpt lat="56.54958" lon="60.947883">
        <ele>252.1</ele>
        <time>2022-06-29T14:58:53.118Z</time>
    </trkpt>
    <trkpt lat="56.549542" lon="60.947869">
        <ele>251.9</ele>
        <time>2022-06-29T14:58:55.046Z</time>
    </trkpt>
    <trkpt lat="56.549499" lon="60.947827">
        <ele>251.9</ele>
        <time>2022-06-29T14:58:57.475Z</time>
    </trkpt>
    <trkpt lat="56.549471" lon="60.947769">
        <ele>252.1</ele>
        <time>2022-06-29T14:58:59.588Z</time>
    </trkpt>
    <trkpt lat="56.54945" lon="60.947686">
        <ele>252.2</ele>
        <time>2022-06-29T14:59:02.091Z</time>
    </trkpt>
    <trkpt lat="56.549445" lon="60.947642">
        <ele>252.3</ele>
        <time>2022-06-29T14:59:03.322Z</time>
    </trkpt>
    <trkpt lat="56.549434" lon="60.947625">
        <ele>252.3</ele>
        <time>2022-06-29T14:59:04.040Z</time>
    </trkpt>
    <trkpt lat="56.549429" lon="60.947627">
        <ele>252.3</ele>
        <time>2022-06-29T14:59:04.294Z</time>
    </trkpt>
    <trkpt lat="56.549429" lon="60.947642">
        <ele>252.3</ele>
        <time>2022-06-29T14:59:04.705Z</time>
    </trkpt>
    <trkpt lat="56.54943" lon="60.94764">
        <ele>252.3</ele>
        <time>2022-06-29T14:59:04.779Z</time>
    </trkpt>
    <trkpt lat="56.549432" lon="60.94764">
        <ele>253.0</ele>
        <time>2022-06-29T14:59:04.878Z</time>
    </trkpt>
    <trkpt lat="56.549434" lon="60.947649">
        <ele>253.1</ele>
        <time>2022-06-29T14:59:05.144Z</time>
    </trkpt>
    <trkpt lat="56.549435" lon="60.947671">
        <ele>253.2</ele>
        <time>2022-06-29T14:59:05.749Z</time>
    </trkpt>
    <trkpt lat="56.54944" lon="60.947633">
        <ele>253.3</ele>
        <time>2022-06-29T14:59:06.820Z</time>
    </trkpt>
    <trkpt lat="56.549426" lon="60.947581">
        <ele>253.4</ele>
        <time>2022-06-29T14:59:08.406Z</time>
    </trkpt>
    <trkpt lat="56.549427" lon="60.947573">
        <ele>253.5</ele>
        <time>2022-06-29T14:59:08.630Z</time>
    </trkpt>
    <trkpt lat="56.549418" lon="60.947516">
        <ele>253.5</ele>
        <time>2022-06-29T14:59:10.255Z</time>
    </trkpt>
    <trkpt lat="56.549411" lon="60.947431">
        <ele>253.6</ele>
        <time>2022-06-29T14:59:12.611Z</time>
    </trkpt>
    <trkpt lat="56.549389" lon="60.947351">
        <ele>253.7</ele>
        <time>2022-06-29T14:59:15.062Z</time>
    </trkpt>
    <trkpt lat="56.549378" lon="60.947313">
        <ele>253.8</ele>
        <time>2022-06-29T14:59:16.238Z</time>
    </trkpt>
    <trkpt lat="56.549351" lon="60.947279">
        <ele>253.9</ele>
        <time>2022-06-29T14:59:17.872Z</time>
    </trkpt>
    <trkpt lat="56.549333" lon="60.947208">
        <ele>254.0</ele>
        <time>2022-06-29T14:59:20.014Z</time>
    </trkpt>
    <trkpt lat="56.54933" lon="60.947115">
        <ele>254.0</ele>
        <time>2022-06-29T14:59:22.568Z</time>
    </trkpt>
    <trkpt lat="56.549305" lon="60.947074">
        <ele>254.1</ele>
        <time>2022-06-29T14:59:24.244Z</time>
    </trkpt>
    <trkpt lat="56.549275" lon="60.947027">
        <ele>254.2</ele>
        <time>2022-06-29T14:59:26.215Z</time>
    </trkpt>
    <trkpt lat="56.549224" lon="60.946966">
        <ele>254.2</ele>
        <time>2022-06-29T14:59:29.253Z</time>
    </trkpt>
    <trkpt lat="56.549163" lon="60.946888">
        <ele>254.3</ele>
        <time>2022-06-29T14:59:32.964Z</time>
    </trkpt>
    <trkpt lat="56.549112" lon="60.946818">
        <ele>254.5</ele>
        <time>2022-06-29T14:59:36.144Z</time>
    </trkpt>
    <trkpt lat="56.549065" lon="60.94668">
        <ele>254.6</ele>
        <time>2022-06-29T14:59:40.591Z</time>
    </trkpt>
    <trkpt lat="56.549002" lon="60.946584">
        <ele>254.7</ele>
        <time>2022-06-29T14:59:44.683Z</time>
    </trkpt>
    <trkpt lat="56.548937" lon="60.946487">
        <ele>254.8</ele>
        <time>2022-06-29T14:59:48.869Z</time>
    </trkpt>
    <trkpt lat="56.548881" lon="60.946404">
        <ele>254.7</ele>
        <time>2022-06-29T14:59:52.465Z</time>
    </trkpt>
    <trkpt lat="56.548827" lon="60.946294">
        <ele>254.6</ele>
        <time>2022-06-29T14:59:56.503Z</time>
    </trkpt>
    <trkpt lat="56.548771" lon="60.946187">
        <ele>254.3</ele>
        <time>2022-06-29T15:00:00.548Z</time>
    </trkpt>
    <trkpt lat="56.548732" lon="60.946075">
        <ele>254.1</ele>
        <time>2022-06-29T15:00:04.180Z</time>
    </trkpt>
    <trkpt lat="56.548717" lon="60.945996">
        <ele>253.9</ele>
        <time>2022-06-29T15:00:06.470Z</time>
    </trkpt>
    <trkpt lat="56.548697" lon="60.945931">
        <ele>253.7</ele>
        <time>2022-06-29T15:00:08.510Z</time>
    </trkpt>
    <trkpt lat="56.548669" lon="60.945837">
        <ele>253.7</ele>
        <time>2022-06-29T15:00:11.439Z</time>
    </trkpt>
    <trkpt lat="56.548644" lon="60.94572">
        <ele>253.7</ele>
        <time>2022-06-29T15:00:14.879Z</time>
    </trkpt>
    <trkpt lat="56.548621" lon="60.945628">
        <ele>253.7</ele>
        <time>2022-06-29T15:00:17.648Z</time>
    </trkpt>
    <trkpt lat="56.548596" lon="60.945529">
        <ele>253.6</ele>
        <time>2022-06-29T15:00:20.633Z</time>
    </trkpt>
    <trkpt lat="56.548568" lon="60.94544">
        <ele>253.6</ele>
        <time>2022-06-29T15:00:23.442Z</time>
    </trkpt>
    <trkpt lat="56.548534" lon="60.945367">
        <ele>253.4</ele>
        <time>2022-06-29T15:00:26.062Z</time>
    </trkpt>
    <trkpt lat="56.548488" lon="60.945274">
        <ele>253.0</ele>
        <time>2022-06-29T15:00:29.487Z</time>
    </trkpt>
    <trkpt lat="56.548458" lon="60.945153">
        <ele>252.7</ele>
        <time>2022-06-29T15:00:33.124Z</time>
    </trkpt>
    <trkpt lat="56.548433" lon="60.945067">
        <ele>252.6</ele>
        <time>2022-06-29T15:00:35.789Z</time>
    </trkpt>
    <trkpt lat="56.548412" lon="60.945017">
        <ele>252.6</ele>
        <time>2022-06-29T15:00:37.512Z</time>
    </trkpt>
    <trkpt lat="56.548382" lon="60.94497">
        <ele>252.7</ele>
        <time>2022-06-29T15:00:39.483Z</time>
    </trkpt>
    <trkpt lat="56.548362" lon="60.944916">
        <ele>253.1</ele>
        <time>2022-06-29T15:00:41.266Z</time>
    </trkpt>
    <trkpt lat="56.548337" lon="60.94485">
        <ele>253.1</ele>
        <time>2022-06-29T15:00:43.461Z</time>
    </trkpt>
    <trkpt lat="56.548307" lon="60.944774">
        <ele>253.3</ele>
        <time>2022-06-29T15:00:46.023Z</time>
    </trkpt>
    <trkpt lat="56.548275" lon="60.944686">
        <ele>253.4</ele>
        <time>2022-06-29T15:00:48.913Z</time>
    </trkpt>
    <trkpt lat="56.548235" lon="60.944601">
        <ele>253.5</ele>
        <time>2022-06-29T15:00:51.977Z</time>
    </trkpt>
    <trkpt lat="56.548211" lon="60.944513">
        <ele>253.6</ele>
        <time>2022-06-29T15:00:54.668Z</time>
    </trkpt>
    <trkpt lat="56.5482" lon="60.94442">
        <ele>253.5</ele>
        <time>2022-06-29T15:00:57.275Z</time>
    </trkpt>
    <trkpt lat="56.548183" lon="60.944347">
        <ele>253.3</ele>
        <time>2022-06-29T15:00:59.447Z</time>
    </trkpt>
    <trkpt lat="56.54817" lon="60.944262">
        <ele>252.9</ele>
        <time>2022-06-29T15:01:01.865Z</time>
    </trkpt>
    <trkpt lat="56.548155" lon="60.944167">
        <ele>251.9</ele>
        <time>2022-06-29T15:01:04.574Z</time>
    </trkpt>
    <trkpt lat="56.548141" lon="60.944068">
        <ele>250.4</ele>
        <time>2022-06-29T15:01:07.376Z</time>
    </trkpt>
    <trkpt lat="56.548125" lon="60.943925">
        <ele>249.6</ele>
        <time>2022-06-29T15:01:11.376Z</time>
    </trkpt>
    <trkpt lat="56.548113" lon="60.943788">
        <ele>249.5</ele>
        <time>2022-06-29T15:01:15.179Z</time>
    </trkpt>
    <trkpt lat="56.548092" lon="60.943642">
        <ele>254.3</ele>
        <time>2022-06-29T15:01:19.315Z</time>
    </trkpt>
    <trkpt lat="56.54806" lon="60.943478">
        <ele>255.1</ele>
        <time>2022-06-29T15:01:24.084Z</time>
    </trkpt>
    <trkpt lat="56.548034" lon="60.943329">
        <ele>255.3</ele>
        <time>2022-06-29T15:01:28.369Z</time>
    </trkpt>
    <trkpt lat="56.548004" lon="60.943162">
        <ele>255.6</ele>
        <time>2022-06-29T15:01:33.184Z</time>
    </trkpt>
    <trkpt lat="56.547987" lon="60.943004">
        <ele>255.7</ele>
        <time>2022-06-29T15:01:37.597Z</time>
    </trkpt>
    <trkpt lat="56.547972" lon="60.94286">
        <ele>255.5</ele>
        <time>2022-06-29T15:01:41.615Z</time>
    </trkpt>
    <trkpt lat="56.547964" lon="60.942715">
        <ele>255.2</ele>
        <time>2022-06-29T15:01:45.610Z</time>
    </trkpt>
    <trkpt lat="56.547953" lon="60.942575">
        <ele>254.8</ele>
        <time>2022-06-29T15:01:49.487Z</time>
    </trkpt>
    <trkpt lat="56.547935" lon="60.942443">
        <ele>254.0</ele>
        <time>2022-06-29T15:01:53.215Z</time>
    </trkpt>
    <trkpt lat="56.547918" lon="60.942327">
        <ele>253.0</ele>
        <time>2022-06-29T15:01:56.505Z</time>
    </trkpt>
    <trkpt lat="56.547901" lon="60.9422">
        <ele>251.5</ele>
        <time>2022-06-29T15:02:00.088Z</time>
    </trkpt>
    <trkpt lat="56.547885" lon="60.942071">
        <ele>249.8</ele>
        <time>2022-06-29T15:02:03.713Z</time>
    </trkpt>
    <trkpt lat="56.54787" lon="60.941944">
        <ele>248.3</ele>
        <time>2022-06-29T15:02:07.274Z</time>
    </trkpt>
    <trkpt lat="56.547854" lon="60.94184">
        <ele>247.2</ele>
        <time>2022-06-29T15:02:10.234Z</time>
    </trkpt>
    <trkpt lat="56.547852" lon="60.94174">
        <ele>246.3</ele>
        <time>2022-06-29T15:02:12.977Z</time>
    </trkpt>
    <trkpt lat="56.547846" lon="60.941651">
        <ele>246.8</ele>
        <time>2022-06-29T15:02:15.435Z</time>
    </trkpt>
    <trkpt lat="56.547839" lon="60.941567">
        <ele>248.1</ele>
        <time>2022-06-29T15:02:17.764Z</time>
    </trkpt>
    <trkpt lat="56.547845" lon="60.941485">
        <ele>249.5</ele>
        <time>2022-06-29T15:02:20.031Z</time>
    </trkpt>
    <trkpt lat="56.54785" lon="60.941397">
        <ele>251.2</ele>
        <time>2022-06-29T15:02:22.456Z</time>
    </trkpt>
    <trkpt lat="56.547853" lon="60.941301">
        <ele>253.0</ele>
        <time>2022-06-29T15:02:25.092Z</time>
    </trkpt>
    <trkpt lat="56.547859" lon="60.941212">
        <ele>254.1</ele>
        <time>2022-06-29T15:02:27.550Z</time>
    </trkpt>
    <trkpt lat="56.547856" lon="60.941122">
        <ele>255.2</ele>
        <time>2022-06-29T15:02:30.022Z</time>
    </trkpt>
    <trkpt lat="56.547846" lon="60.941015">
        <ele>256.5</ele>
        <time>2022-06-29T15:02:32.997Z</time>
    </trkpt>
    <trkpt lat="56.547839" lon="60.940916">
        <ele>257.9</ele>
        <time>2022-06-29T15:02:35.733Z</time>
    </trkpt>
    <trkpt lat="56.547839" lon="60.940816">
        <ele>258.7</ele>
        <time>2022-06-29T15:02:38.474Z</time>
    </trkpt>
    <trkpt lat="56.547845" lon="60.940747">
        <ele>259.4</ele>
        <time>2022-06-29T15:02:40.389Z</time>
    </trkpt>
    <trkpt lat="56.547846" lon="60.940677">
        <ele>259.9</ele>
        <time>2022-06-29T15:02:42.308Z</time>
    </trkpt>
    <trkpt lat="56.547845" lon="60.940615">
        <ele>260.3</ele>
        <time>2022-06-29T15:02:44.008Z</time>
    </trkpt>
    <trkpt lat="56.547838" lon="60.940547">
        <ele>260.2</ele>
        <time>2022-06-29T15:02:45.904Z</time>
    </trkpt>
    <trkpt lat="56.547834" lon="60.9405">
        <ele>260.1</ele>
        <time>2022-06-29T15:02:47.207Z</time>
    </trkpt>
    <trkpt lat="56.547832" lon="60.940447">
        <ele>259.9</ele>
        <time>2022-06-29T15:02:48.663Z</time>
    </trkpt>
    <trkpt lat="56.547822" lon="60.940383">
        <ele>259.8</ele>
        <time>2022-06-29T15:02:50.486Z</time>
    </trkpt>
    <trkpt lat="56.547807" lon="60.940316">
        <ele>259.6</ele>
        <time>2022-06-29T15:02:52.468Z</time>
    </trkpt>
    <trkpt lat="56.547803" lon="60.940265">
        <ele>259.3</ele>
        <time>2022-06-29T15:02:53.880Z</time>
    </trkpt>
    <trkpt lat="56.547796" lon="60.940218">
        <ele>259.1</ele>
        <time>2022-06-29T15:02:55.214Z</time>
    </trkpt>
    <trkpt lat="56.547799" lon="60.940179">
        <ele>259.0</ele>
        <time>2022-06-29T15:02:56.293Z</time>
    </trkpt>
    <trkpt lat="56.547804" lon="60.940169">
        <ele>259.1</ele>
        <time>2022-06-29T15:02:56.663Z</time>
    </trkpt>
    <trkpt lat="56.5478" lon="60.940177">
        <ele>259.0</ele>
        <time>2022-06-29T15:02:56.959Z</time>
    </trkpt>
    <trkpt lat="56.547801" lon="60.940172">
        <ele>259.0</ele>
        <time>2022-06-29T15:02:57.104Z</time>
    </trkpt>
    <trkpt lat="56.547799" lon="60.940168">
        <ele>258.9</ele>
        <time>2022-06-29T15:02:57.252Z</time>
    </trkpt>
    <trkpt lat="56.547797" lon="60.940152">
        <ele>258.8</ele>
        <time>2022-06-29T15:02:57.701Z</time>
    </trkpt>
    <trkpt lat="56.547791" lon="60.940147">
        <ele>258.8</ele>
        <time>2022-06-29T15:02:58.029Z</time>
    </trkpt>
    <trkpt lat="56.547793" lon="60.940144">
        <ele>258.8</ele>
        <time>2022-06-29T15:02:58.158Z</time>
    </trkpt>
    <trkpt lat="56.547797" lon="60.940148">
        <ele>258.8</ele>
        <time>2022-06-29T15:02:58.385Z</time>
    </trkpt>
    <trkpt lat="56.547801" lon="60.940139">
        <ele>258.8</ele>
        <time>2022-06-29T15:02:58.701Z</time>
    </trkpt>
    <trkpt lat="56.547801" lon="60.94014">
        <ele>258.9</ele>
        <time>2022-06-29T15:02:58.728Z</time>
    </trkpt>
    <trkpt lat="56.547796" lon="60.940151">
        <ele>258.9</ele>
        <time>2022-06-29T15:02:59.118Z</time>
    </trkpt>
    <trkpt lat="56.547789" lon="60.940158">
        <ele>258.9</ele>
        <time>2022-06-29T15:02:59.515Z</time>
    </trkpt>
    <trkpt lat="56.547792" lon="60.940157">
        <ele>258.9</ele>
        <time>2022-06-29T15:02:59.666Z</time>
    </trkpt>
    <trkpt lat="56.547795" lon="60.940152">
        <ele>258.8</ele>
        <time>2022-06-29T15:02:59.868Z</time>
    </trkpt>
    <trkpt lat="56.547793" lon="60.940146">
        <ele>258.6</ele>
        <time>2022-06-29T15:03:00.060Z</time>
    </trkpt>
    <trkpt lat="56.547792" lon="60.940123">
        <ele>258.6</ele>
        <time>2022-06-29T15:03:00.692Z</time>
    </trkpt>
    <trkpt lat="56.54779" lon="60.940113">
        <ele>258.5</ele>
        <time>2022-06-29T15:03:00.983Z</time>
    </trkpt>
    <trkpt lat="56.547789" lon="60.940108">
        <ele>258.5</ele>
        <time>2022-06-29T15:03:01.128Z</time>
    </trkpt>
    <trkpt lat="56.547789" lon="60.940099">
        <ele>258.4</ele>
        <time>2022-06-29T15:03:01.374Z</time>
    </trkpt>
    <trkpt lat="56.547792" lon="60.940092">
        <ele>258.4</ele>
        <time>2022-06-29T15:03:01.617Z</time>
    </trkpt>
    <trkpt lat="56.547792" lon="60.940087">
        <ele>258.4</ele>
        <time>2022-06-29T15:03:01.754Z</time>
    </trkpt>
    <trkpt lat="56.547792" lon="60.940082">
        <ele>258.3</ele>
        <time>2022-06-29T15:03:01.891Z</time>
    </trkpt>
    <trkpt lat="56.547794" lon="60.940077">
        <ele>258.3</ele>
        <time>2022-06-29T15:03:02.060Z</time>
    </trkpt>
    <trkpt lat="56.547799" lon="60.940073">
        <ele>258.3</ele>
        <time>2022-06-29T15:03:02.331Z</time>
    </trkpt>
    <trkpt lat="56.547803" lon="60.940068">
        <ele>258.3</ele>
        <time>2022-06-29T15:03:02.572Z</time>
    </trkpt>
    <trkpt lat="56.547809" lon="60.940062">
        <ele>258.3</ele>
        <time>2022-06-29T15:03:02.912Z</time>
    </trkpt>
    <trkpt lat="56.547818" lon="60.940058">
        <ele>258.2</ele>
        <time>2022-06-29T15:03:03.372Z</time>
    </trkpt>
    <trkpt lat="56.547821" lon="60.940032">
        <ele>258.0</ele>
        <time>2022-06-29T15:03:04.100Z</time>
    </trkpt>
    <trkpt lat="56.547827" lon="60.939998">
        <ele>257.9</ele>
        <time>2022-06-29T15:03:05.078Z</time>
    </trkpt>
    <trkpt lat="56.547832" lon="60.939976">
        <ele>257.9</ele>
        <time>2022-06-29T15:03:05.730Z</time>
    </trkpt>
    <trkpt lat="56.547836" lon="60.939956">
        <ele>257.8</ele>
        <time>2022-06-29T15:03:06.313Z</time>
    </trkpt>
    <trkpt lat="56.547839" lon="60.939936">
        <ele>257.8</ele>
        <time>2022-06-29T15:03:06.881Z</time>
    </trkpt>
    <trkpt lat="56.54784" lon="60.939929">
        <ele>257.7</ele>
        <time>2022-06-29T15:03:07.079Z</time>
    </trkpt>
    <trkpt lat="56.54784" lon="60.939922">
        <ele>257.7</ele>
        <time>2022-06-29T15:03:07.270Z</time>
    </trkpt>
    <trkpt lat="56.547842" lon="60.939914">
        <ele>257.6</ele>
        <time>2022-06-29T15:03:07.510Z</time>
    </trkpt>
    <trkpt lat="56.547842" lon="60.939905">
        <ele>257.6</ele>
        <time>2022-06-29T15:03:07.756Z</time>
    </trkpt>
    <trkpt lat="56.547842" lon="60.939896">
        <ele>257.6</ele>
        <time>2022-06-29T15:03:08.002Z</time>
    </trkpt>
    <trkpt lat="56.547845" lon="60.939901">
        <ele>257.6</ele>
        <time>2022-06-29T15:03:08.204Z</time>
    </trkpt>
    <trkpt lat="56.547848" lon="60.939898">
        <ele>257.7</ele>
        <time>2022-06-29T15:03:08.374Z</time>
    </trkpt>
    <trkpt lat="56.547852" lon="60.939899">
        <ele>257.6</ele>
        <time>2022-06-29T15:03:08.574Z</time>
    </trkpt>
    <trkpt lat="56.547852" lon="60.939893">
        <ele>257.7</ele>
        <time>2022-06-29T15:03:08.738Z</time>
    </trkpt>
    <trkpt lat="56.547854" lon="60.939897">
        <ele>257.7</ele>
        <time>2022-06-29T15:03:08.886Z</time>
    </trkpt>
    <trkpt lat="56.547853" lon="60.9399">
        <ele>257.7</ele>
        <time>2022-06-29T15:03:08.982Z</time>
    </trkpt>
    <trkpt lat="56.547857" lon="60.939907">
        <ele>257.7</ele>
        <time>2022-06-29T15:03:09.258Z</time>
    </trkpt>
    <trkpt lat="56.547853" lon="60.939916">
        <ele>257.6</ele>
        <time>2022-06-29T15:03:09.574Z</time>
    </trkpt>
    <trkpt lat="56.547853" lon="60.939921">
        <ele>255.8</ele>
        <time>2022-06-29T15:03:09.711Z</time>
    </trkpt>
    <trkpt lat="56.547848" lon="60.939925">
        <ele>255.6</ele>
        <time>2022-06-29T15:03:09.982Z</time>
    </trkpt>
    <trkpt lat="56.547857" lon="60.939928">
        <ele>255.3</ele>
        <time>2022-06-29T15:03:10.437Z</time>
    </trkpt>
    <trkpt lat="56.54786" lon="60.939913">
        <ele>255.0</ele>
        <time>2022-06-29T15:03:10.874Z</time>
    </trkpt>
    <trkpt lat="56.547865" lon="60.939887">
        <ele>254.7</ele>
        <time>2022-06-29T15:03:11.628Z</time>
    </trkpt>
    <trkpt lat="56.547867" lon="60.939855">
        <ele>254.4</ele>
        <time>2022-06-29T15:03:12.510Z</time>
    </trkpt>
    <trkpt lat="56.54787" lon="60.939846">
        <ele>254.0</ele>
        <time>2022-06-29T15:03:12.798Z</time>
    </trkpt>
    <trkpt lat="56.547866" lon="60.939832">
        <ele>253.6</ele>
        <time>2022-06-29T15:03:13.230Z</time>
    </trkpt>
    <trkpt lat="56.54785" lon="60.939772">
        <ele>253.2</ele>
        <time>2022-06-29T15:03:15.057Z</time>
    </trkpt>
    <trkpt lat="56.547847" lon="60.939741">
        <ele>252.8</ele>
        <time>2022-06-29T15:03:15.919Z</time>
    </trkpt>
    <trkpt lat="56.547849" lon="60.939702">
        <ele>252.3</ele>
        <time>2022-06-29T15:03:16.992Z</time>
    </trkpt>
    <trkpt lat="56.547846" lon="60.93967">
        <ele>251.9</ele>
        <time>2022-06-29T15:03:17.881Z</time>
    </trkpt>
    <trkpt lat="56.547855" lon="60.939633">
        <ele>251.5</ele>
        <time>2022-06-29T15:03:18.989Z</time>
    </trkpt>
    <trkpt lat="56.547858" lon="60.939625">
        <ele>251.0</ele>
        <time>2022-06-29T15:03:19.254Z</time>
    </trkpt>
    <trkpt lat="56.547863" lon="60.939585">
        <ele>250.5</ele>
        <time>2022-06-29T15:03:20.378Z</time>
    </trkpt>
    <trkpt lat="56.547865" lon="60.93957">
        <ele>249.9</ele>
        <time>2022-06-29T15:03:20.801Z</time>
    </trkpt>
    <trkpt lat="56.547872" lon="60.939531">
        <ele>249.3</ele>
        <time>2022-06-29T15:03:21.925Z</time>
    </trkpt>
    <trkpt lat="56.547871" lon="60.939455">
        <ele>248.8</ele>
        <time>2022-06-29T15:03:24.009Z</time>
    </trkpt>
    <trkpt lat="56.547873" lon="60.939362">
        <ele>248.3</ele>
        <time>2022-06-29T15:03:26.560Z</time>
    </trkpt>
    <trkpt lat="56.547891" lon="60.939254">
        <ele>247.8</ele>
        <time>2022-06-29T15:03:29.653Z</time>
    </trkpt>
    <trkpt lat="56.547902" lon="60.93915">
        <ele>247.2</ele>
        <time>2022-06-29T15:03:32.556Z</time>
    </trkpt>
    <trkpt lat="56.547918" lon="60.939016">
        <ele>246.8</ele>
        <time>2022-06-29T15:03:36.315Z</time>
    </trkpt>
    <trkpt lat="56.547927" lon="60.938879">
        <ele>246.4</ele>
        <time>2022-06-29T15:03:40.097Z</time>
    </trkpt>
    <trkpt lat="56.547936" lon="60.938748">
        <ele>246.2</ele>
        <time>2022-06-29T15:03:43.716Z</time>
    </trkpt>
    <trkpt lat="56.547944" lon="60.938596">
        <ele>246.1</ele>
        <time>2022-06-29T15:03:47.902Z</time>
    </trkpt>
    <trkpt lat="56.547945" lon="60.938447">
        <ele>246.0</ele>
        <time>2022-06-29T15:03:51.987Z</time>
    </trkpt>
    <trkpt lat="56.547941" lon="60.938337">
        <ele>245.8</ele>
        <time>2022-06-29T15:03:55.009Z</time>
    </trkpt>
    <trkpt lat="56.547932" lon="60.938236">
        <ele>245.8</ele>
        <time>2022-06-29T15:03:57.814Z</time>
    </trkpt>
    <trkpt lat="56.547942" lon="60.938124">
        <ele>245.7</ele>
        <time>2022-06-29T15:04:00.924Z</time>
    </trkpt>
    <trkpt lat="56.547955" lon="60.938009">
        <ele>245.6</ele>
        <time>2022-06-29T15:04:04.142Z</time>
    </trkpt>
    <trkpt lat="56.54795" lon="60.937912">
        <ele>245.5</ele>
        <time>2022-06-29T15:04:06.813Z</time>
    </trkpt>
    <trkpt lat="56.547939" lon="60.937805">
        <ele>245.3</ele>
        <time>2022-06-29T15:04:09.797Z</time>
    </trkpt>
    <trkpt lat="56.547917" lon="60.937669">
        <ele>245.1</ele>
        <time>2022-06-29T15:04:13.683Z</time>
    </trkpt>
    <trkpt lat="56.547908" lon="60.937573">
        <ele>244.8</ele>
        <time>2022-06-29T15:04:16.352Z</time>
    </trkpt>
    <trkpt lat="56.547898" lon="60.937492">
        <ele>244.4</ele>
        <time>2022-06-29T15:04:18.627Z</time>
    </trkpt>
    <trkpt lat="56.547892" lon="60.937384">
        <ele>244.0</ele>
        <time>2022-06-29T15:04:21.603Z</time>
    </trkpt>
    <trkpt lat="56.547887" lon="60.937291">
        <ele>243.6</ele>
        <time>2022-06-29T15:04:24.164Z</time>
    </trkpt>
    <trkpt lat="56.547881" lon="60.937188">
        <ele>243.2</ele>
        <time>2022-06-29T15:04:27.003Z</time>
    </trkpt>
    <trkpt lat="56.54788" lon="60.93708">
        <ele>242.8</ele>
        <time>2022-06-29T15:04:29.964Z</time>
    </trkpt>
    <trkpt lat="56.547889" lon="60.936996">
        <ele>242.5</ele>
        <time>2022-06-29T15:04:32.310Z</time>
    </trkpt>
    <trkpt lat="56.547892" lon="60.936903">
        <ele>242.4</ele>
        <time>2022-06-29T15:04:34.864Z</time>
    </trkpt>
    <trkpt lat="56.547886" lon="60.936799">
        <ele>242.4</ele>
        <time>2022-06-29T15:04:37.731Z</time>
    </trkpt>
    <trkpt lat="56.547876" lon="60.936707">
        <ele>242.3</ele>
        <time>2022-06-29T15:04:40.301Z</time>
    </trkpt>
    <trkpt lat="56.547876" lon="60.93656">
        <ele>242.2</ele>
        <time>2022-06-29T15:04:44.331Z</time>
    </trkpt>
    <trkpt lat="56.547859" lon="60.936406">
        <ele>242.0</ele>
        <time>2022-06-29T15:04:48.637Z</time>
    </trkpt>
    <trkpt lat="56.547842" lon="60.936271">
        <ele>241.8</ele>
        <time>2022-06-29T15:04:52.433Z</time>
    </trkpt>
    <trkpt lat="56.547841" lon="60.936195">
        <ele>241.5</ele>
        <time>2022-06-29T15:04:54.517Z</time>
    </trkpt>
    <trkpt lat="56.547841" lon="60.936126">
        <ele>241.2</ele>
        <time>2022-06-29T15:04:56.408Z</time>
    </trkpt>
    <trkpt lat="56.547827" lon="60.936052">
        <ele>240.9</ele>
        <time>2022-06-29T15:04:58.553Z</time>
    </trkpt>
    <trkpt lat="56.547814" lon="60.936011">
        <ele>240.7</ele>
        <time>2022-06-29T15:04:59.849Z</time>
    </trkpt>
    <trkpt lat="56.547801" lon="60.935927">
        <ele>240.4</ele>
        <time>2022-06-29T15:05:02.241Z</time>
    </trkpt>
    <trkpt lat="56.547794" lon="60.935808">
        <ele>240.2</ele>
        <time>2022-06-29T15:05:05.522Z</time>
    </trkpt>
    <trkpt lat="56.547793" lon="60.935719">
        <ele>240.0</ele>
        <time>2022-06-29T15:05:07.962Z</time>
    </trkpt>
    <trkpt lat="56.54779" lon="60.935633">
        <ele>239.8</ele>
        <time>2022-06-29T15:05:10.324Z</time>
    </trkpt>
    <trkpt lat="56.547785" lon="60.935549">
        <ele>239.7</ele>
        <time>2022-06-29T15:05:12.640Z</time>
    </trkpt>
    <trkpt lat="56.547796" lon="60.935459">
        <ele>239.6</ele>
        <time>2022-06-29T15:05:15.167Z</time>
    </trkpt>
    <trkpt lat="56.547805" lon="60.935377">
        <ele>239.5</ele>
        <time>2022-06-29T15:05:17.459Z</time>
    </trkpt>
    <trkpt lat="56.547815" lon="60.935228">
        <ele>239.4</ele>
        <time>2022-06-29T15:05:21.574Z</time>
    </trkpt>
    <trkpt lat="56.547818" lon="60.935113">
        <ele>239.5</ele>
        <time>2022-06-29T15:05:24.730Z</time>
    </trkpt>
    <trkpt lat="56.547842" lon="60.935007">
        <ele>239.6</ele>
        <time>2022-06-29T15:05:27.871Z</time>
    </trkpt>
    <trkpt lat="56.547866" lon="60.934897">
        <ele>239.7</ele>
        <time>2022-06-29T15:05:31.114Z</time>
    </trkpt>
    <trkpt lat="56.547887" lon="60.934799">
        <ele>239.8</ele>
        <time>2022-06-29T15:05:33.996Z</time>
    </trkpt>
    <trkpt lat="56.54792" lon="60.934729">
        <ele>239.9</ele>
        <time>2022-06-29T15:05:36.521Z</time>
    </trkpt>
    <trkpt lat="56.547958" lon="60.934646">
        <ele>240.0</ele>
        <time>2022-06-29T15:05:39.479Z</time>
    </trkpt>
    <trkpt lat="56.548" lon="60.934564">
        <ele>240.2</ele>
        <time>2022-06-29T15:05:42.547Z</time>
    </trkpt>
    <trkpt lat="56.548051" lon="60.934474">
        <ele>240.4</ele>
        <time>2022-06-29T15:05:46.085Z</time>
    </trkpt>
    <trkpt lat="56.54811" lon="60.934368">
        <ele>240.7</ele>
        <time>2022-06-29T15:05:50.215Z</time>
    </trkpt>
    <trkpt lat="56.548168" lon="60.934267">
        <ele>240.9</ele>
        <time>2022-06-29T15:05:54.213Z</time>
    </trkpt>
    <trkpt lat="56.548242" lon="60.934176">
        <ele>241.0</ele>
        <time>2022-06-29T15:05:58.659Z</time>
    </trkpt>
    <trkpt lat="56.548299" lon="60.934117">
        <ele>241.2</ele>
        <time>2022-06-29T15:06:01.923Z</time>
    </trkpt>
    <trkpt lat="56.54836" lon="60.934044">
        <ele>241.2</ele>
        <time>2022-06-29T15:06:05.557Z</time>
    </trkpt>
    <trkpt lat="56.548421" lon="60.933972">
        <ele>241.2</ele>
        <time>2022-06-29T15:06:09.176Z</time>
    </trkpt>
    <trkpt lat="56.548478" lon="60.933899">
        <ele>241.2</ele>
        <time>2022-06-29T15:06:12.646Z</time>
    </trkpt>
    <trkpt lat="56.54854" lon="60.933821">
        <ele>241.2</ele>
        <time>2022-06-29T15:06:16.398Z</time>
    </trkpt>
    <trkpt lat="56.548603" lon="60.933751">
        <ele>241.3</ele>
        <time>2022-06-29T15:06:20.072Z</time>
    </trkpt>
    <trkpt lat="56.548653" lon="60.933701">
        <ele>241.4</ele>
        <time>2022-06-29T15:06:22.911Z</time>
    </trkpt>
    <trkpt lat="56.548722" lon="60.933633">
        <ele>241.6</ele>
        <time>2022-06-29T15:06:26.816Z</time>
    </trkpt>
    <trkpt lat="56.548787" lon="60.933569">
        <ele>241.8</ele>
        <time>2022-06-29T15:06:30.494Z</time>
    </trkpt>
    <trkpt lat="56.54885" lon="60.933523">
        <ele>241.9</ele>
        <time>2022-06-29T15:06:33.871Z</time>
    </trkpt>
    <trkpt lat="56.548917" lon="60.933485">
        <ele>242.1</ele>
        <time>2022-06-29T15:06:37.362Z</time>
    </trkpt>
    <trkpt lat="56.548996" lon="60.933438">
        <ele>242.2</ele>
        <time>2022-06-29T15:06:41.497Z</time>
    </trkpt>
    <trkpt lat="56.549073" lon="60.933414">
        <ele>242.3</ele>
        <time>2022-06-29T15:06:45.382Z</time>
    </trkpt>
    <trkpt lat="56.549152" lon="60.933409">
        <ele>242.3</ele>
        <time>2022-06-29T15:06:49.313Z</time>
    </trkpt>
    <trkpt lat="56.549225" lon="60.933392">
        <ele>242.3</ele>
        <time>2022-06-29T15:06:52.973Z</time>
    </trkpt>
    <trkpt lat="56.549294" lon="60.933377">
        <ele>242.2</ele>
        <time>2022-06-29T15:06:56.429Z</time>
    </trkpt>
    <trkpt lat="56.549356" lon="60.93334">
        <ele>242.1</ele>
        <time>2022-06-29T15:06:59.675Z</time>
    </trkpt>
    <trkpt lat="56.549419" lon="60.933307">
        <ele>242.0</ele>
        <time>2022-06-29T15:07:02.936Z</time>
    </trkpt>
    <trkpt lat="56.549473" lon="60.933268">
        <ele>241.8</ele>
        <time>2022-06-29T15:07:05.826Z</time>
    </trkpt>
    <trkpt lat="56.549532" lon="60.933234">
        <ele>241.6</ele>
        <time>2022-06-29T15:07:08.905Z</time>
    </trkpt>
    <trkpt lat="56.549582" lon="60.933176">
        <ele>241.4</ele>
        <time>2022-06-29T15:07:11.856Z</time>
    </trkpt>
    <trkpt lat="56.549621" lon="60.933095">
        <ele>241.2</ele>
        <time>2022-06-29T15:07:14.804Z</time>
    </trkpt>
    <trkpt lat="56.549667" lon="60.933033">
        <ele>241.0</ele>
        <time>2022-06-29T15:07:17.654Z</time>
    </trkpt>
    <trkpt lat="56.549717" lon="60.932972">
        <ele>240.8</ele>
        <time>2022-06-29T15:07:20.650Z</time>
    </trkpt>
    <trkpt lat="56.549762" lon="60.932917">
        <ele>240.6</ele>
        <time>2022-06-29T15:07:23.348Z</time>
    </trkpt>
    <trkpt lat="56.549807" lon="60.932863">
        <ele>240.4</ele>
        <time>2022-06-29T15:07:26.031Z</time>
    </trkpt>
    <trkpt lat="56.549848" lon="60.932809">
        <ele>240.2</ele>
        <time>2022-06-29T15:07:28.551Z</time>
    </trkpt>
    <trkpt lat="56.549887" lon="60.932754">
        <ele>240.1</ele>
        <time>2022-06-29T15:07:31.007Z</time>
    </trkpt>
    <trkpt lat="56.549921" lon="60.932703">
        <ele>239.9</ele>
        <time>2022-06-29T15:07:33.201Z</time>
    </trkpt>
    <trkpt lat="56.54996" lon="60.932647">
        <ele>239.7</ele>
        <time>2022-06-29T15:07:35.674Z</time>
    </trkpt>
    <trkpt lat="56.55" lon="60.932606">
        <ele>239.5</ele>
        <time>2022-06-29T15:07:37.959Z</time>
    </trkpt>
    <trkpt lat="56.550037" lon="60.932556">
        <ele>239.3</ele>
        <time>2022-06-29T15:07:40.253Z</time>
    </trkpt>
    <trkpt lat="56.550074" lon="60.932501">
        <ele>239.1</ele>
        <time>2022-06-29T15:07:42.632Z</time>
    </trkpt>
    <trkpt lat="56.550116" lon="60.932458">
        <ele>238.9</ele>
        <time>2022-06-29T15:07:45.030Z</time>
    </trkpt>
    <trkpt lat="56.550156" lon="60.932418">
        <ele>238.7</ele>
        <time>2022-06-29T15:07:47.301Z</time>
    </trkpt>
    <trkpt lat="56.550203" lon="60.932371">
        <ele>238.5</ele>
        <time>2022-06-29T15:07:49.970Z</time>
    </trkpt>
    <trkpt lat="56.55025" lon="60.932311">
        <ele>238.3</ele>
        <time>2022-06-29T15:07:52.828Z</time>
    </trkpt>
    <trkpt lat="56.550306" lon="60.932239">
        <ele>238.1</ele>
        <time>2022-06-29T15:07:56.241Z</time>
    </trkpt>
    <trkpt lat="56.550361" lon="60.932166">
        <ele>237.9</ele>
        <time>2022-06-29T15:07:59.630Z</time>
    </trkpt>
    <trkpt lat="56.550411" lon="60.932096">
        <ele>237.8</ele>
        <time>2022-06-29T15:08:02.771Z</time>
    </trkpt>
    <trkpt lat="56.550443" lon="60.932072">
        <ele>237.8</ele>
        <time>2022-06-29T15:08:04.493Z</time>
    </trkpt>
    <trkpt lat="56.550481" lon="60.932025">
        <ele>237.7</ele>
        <time>2022-06-29T15:08:06.780Z</time>
    </trkpt>
    <trkpt lat="56.550512" lon="60.931972">
        <ele>237.7</ele>
        <time>2022-06-29T15:08:08.898Z</time>
    </trkpt>
    <trkpt lat="56.550536" lon="60.931924">
        <ele>237.7</ele>
        <time>2022-06-29T15:08:10.674Z</time>
    </trkpt>
    <trkpt lat="56.55055" lon="60.931864">
        <ele>237.7</ele>
        <time>2022-06-29T15:08:12.460Z</time>
    </trkpt>
    <trkpt lat="56.550587" lon="60.931812">
        <ele>237.7</ele>
        <time>2022-06-29T15:08:14.787Z</time>
    </trkpt>
    <trkpt lat="56.550612" lon="60.931729">
        <ele>237.7</ele>
        <time>2022-06-29T15:08:17.380Z</time>
    </trkpt>
    <trkpt lat="56.550636" lon="60.931657">
        <ele>237.7</ele>
        <time>2022-06-29T15:08:19.686Z</time>
    </trkpt>
    <trkpt lat="56.55066" lon="60.931572">
        <ele>237.7</ele>
        <time>2022-06-29T15:08:22.304Z</time>
    </trkpt>
    <trkpt lat="56.550672" lon="60.931486">
        <ele>237.7</ele>
        <time>2022-06-29T15:08:24.736Z</time>
    </trkpt>
    <trkpt lat="56.550675" lon="60.931383">
        <ele>237.7</ele>
        <time>2022-06-29T15:08:27.563Z</time>
    </trkpt>
    <trkpt lat="56.550698" lon="60.931305">
        <ele>237.7</ele>
        <time>2022-06-29T15:08:29.988Z</time>
    </trkpt>
    <trkpt lat="56.550732" lon="60.931234">
        <ele>237.7</ele>
        <time>2022-06-29T15:08:32.566Z</time>
    </trkpt>
    <trkpt lat="56.550766" lon="60.931141">
        <ele>237.7</ele>
        <time>2022-06-29T15:08:35.625Z</time>
    </trkpt>
    <trkpt lat="56.550794" lon="60.931081">
        <ele>237.7</ele>
        <time>2022-06-29T15:08:37.780Z</time>
    </trkpt>
    <trkpt lat="56.550825" lon="60.931028">
        <ele>237.8</ele>
        <time>2022-06-29T15:08:39.898Z</time>
    </trkpt>
    <trkpt lat="56.55086" lon="60.930986">
        <ele>237.8</ele>
        <time>2022-06-29T15:08:41.985Z</time>
    </trkpt>
    <trkpt lat="56.550895" lon="60.930956">
        <ele>237.8</ele>
        <time>2022-06-29T15:08:43.910Z</time>
    </trkpt>
    <trkpt lat="56.55093" lon="60.930922">
        <ele>237.7</ele>
        <time>2022-06-29T15:08:45.884Z</time>
    </trkpt>
    <trkpt lat="56.550967" lon="60.930884">
        <ele>237.7</ele>
        <time>2022-06-29T15:08:47.998Z</time>
    </trkpt>
    <trkpt lat="56.551013" lon="60.930856">
        <ele>237.8</ele>
        <time>2022-06-29T15:08:50.411Z</time>
    </trkpt>
    <trkpt lat="56.551058" lon="60.930801">
        <ele>237.8</ele>
        <time>2022-06-29T15:08:53.109Z</time>
    </trkpt>
    <trkpt lat="56.551105" lon="60.93075">
        <ele>237.8</ele>
        <time>2022-06-29T15:08:55.832Z</time>
    </trkpt>
    <trkpt lat="56.551144" lon="60.930704">
        <ele>237.8</ele>
        <time>2022-06-29T15:08:58.145Z</time>
    </trkpt>
    <trkpt lat="56.55118" lon="60.930658">
        <ele>237.7</ele>
        <time>2022-06-29T15:09:00.335Z</time>
    </trkpt>
    <trkpt lat="56.551229" lon="60.930622">
        <ele>237.7</ele>
        <time>2022-06-29T15:09:02.964Z</time>
    </trkpt>
    <trkpt lat="56.55127" lon="60.930583">
        <ele>237.6</ele>
        <time>2022-06-29T15:09:05.266Z</time>
    </trkpt>
    <trkpt lat="56.551292" lon="60.930544">
        <ele>237.5</ele>
        <time>2022-06-29T15:09:06.795Z</time>
    </trkpt>
    <trkpt lat="56.551304" lon="60.93051">
        <ele>237.5</ele>
        <time>2022-06-29T15:09:07.901Z</time>
    </trkpt>
    <trkpt lat="56.55131" lon="60.930462">
        <ele>237.3</ele>
        <time>2022-06-29T15:09:09.250Z</time>
    </trkpt>
    <trkpt lat="56.551321" lon="60.930379">
        <ele>237.2</ele>
        <time>2022-06-29T15:09:11.590Z</time>
    </trkpt>
    <trkpt lat="56.551333" lon="60.930265">
        <ele>237.1</ele>
        <time>2022-06-29T15:09:14.771Z</time>
    </trkpt>
    <trkpt lat="56.551345" lon="60.930159">
        <ele>237.0</ele>
        <time>2022-06-29T15:09:17.737Z</time>
    </trkpt>
    <trkpt lat="56.551362" lon="60.930058">
        <ele>236.9</ele>
        <time>2022-06-29T15:09:20.632Z</time>
    </trkpt>
    <trkpt lat="56.551377" lon="60.929998">
        <ele>236.8</ele>
        <time>2022-06-29T15:09:22.438Z</time>
    </trkpt>
    <trkpt lat="56.551398" lon="60.929938">
        <ele>236.7</ele>
        <time>2022-06-29T15:09:24.386Z</time>
    </trkpt>
    <trkpt lat="56.551415" lon="60.929874">
        <ele>236.6</ele>
        <time>2022-06-29T15:09:26.333Z</time>
    </trkpt>
    <trkpt lat="56.551425" lon="60.92983">
        <ele>236.5</ele>
        <time>2022-06-29T15:09:27.637Z</time>
    </trkpt>
    <trkpt lat="56.551412" lon="60.929746">
        <ele>236.3</ele>
        <time>2022-06-29T15:09:30.028Z</time>
    </trkpt>
    <trkpt lat="56.551389" lon="60.929668">
        <ele>236.2</ele>
        <time>2022-06-29T15:09:32.453Z</time>
    </trkpt>
    <trkpt lat="56.551362" lon="60.9296">
        <ele>236.1</ele>
        <time>2022-06-29T15:09:34.750Z</time>
    </trkpt>
    <trkpt lat="56.551342" lon="60.929526">
        <ele>236.0</ele>
        <time>2022-06-29T15:09:37.009Z</time>
    </trkpt>
    <trkpt lat="56.551321" lon="60.929439">
        <ele>235.9</ele>
        <time>2022-06-29T15:09:39.612Z</time>
    </trkpt>
    <trkpt lat="56.551307" lon="60.929351">
        <ele>235.9</ele>
        <time>2022-06-29T15:09:42.123Z</time>
    </trkpt>
    <trkpt lat="56.551316" lon="60.929301">
        <ele>236.0</ele>
        <time>2022-06-29T15:09:43.565Z</time>
    </trkpt>
    <trkpt lat="56.551326" lon="60.929267">
        <ele>236.0</ele>
        <time>2022-06-29T15:09:44.621Z</time>
    </trkpt>
    <trkpt lat="56.551322" lon="60.929237">
        <ele>236.1</ele>
        <time>2022-06-29T15:09:45.467Z</time>
    </trkpt>
    <trkpt lat="56.551319" lon="60.929199">
        <ele>236.2</ele>
        <time>2022-06-29T15:09:46.519Z</time>
    </trkpt>
    <trkpt lat="56.551303" lon="60.929165">
        <ele>236.3</ele>
        <time>2022-06-29T15:09:47.744Z</time>
    </trkpt>
    <trkpt lat="56.551275" lon="60.929124">
        <ele>236.4</ele>
        <time>2022-06-29T15:09:49.533Z</time>
    </trkpt>
    <trkpt lat="56.551236" lon="60.929104">
        <ele>236.5</ele>
        <time>2022-06-29T15:09:51.548Z</time>
    </trkpt>
    <trkpt lat="56.551215" lon="60.929062">
        <ele>236.5</ele>
        <time>2022-06-29T15:09:53.102Z</time>
    </trkpt>
    <trkpt lat="56.551198" lon="60.929009">
        <ele>236.6</ele>
        <time>2022-06-29T15:09:54.783Z</time>
    </trkpt>
    <trkpt lat="56.551175" lon="60.928939">
        <ele>236.7</ele>
        <time>2022-06-29T15:09:57.017Z</time>
    </trkpt>
    <trkpt lat="56.551151" lon="60.92885">
        <ele>236.7</ele>
        <time>2022-06-29T15:09:59.733Z</time>
    </trkpt>
    <trkpt lat="56.551121" lon="60.928746">
        <ele>236.8</ele>
        <time>2022-06-29T15:10:02.951Z</time>
    </trkpt>
    <trkpt lat="56.551082" lon="60.928613">
        <ele>236.9</ele>
        <time>2022-06-29T15:10:07.081Z</time>
    </trkpt>
    <trkpt lat="56.551055" lon="60.92852">
        <ele>237.1</ele>
        <time>2022-06-29T15:10:09.962Z</time>
    </trkpt>
    <trkpt lat="56.55103" lon="60.928415">
        <ele>237.3</ele>
        <time>2022-06-29T15:10:13.097Z</time>
    </trkpt>
    <trkpt lat="56.551005" lon="60.928334">
        <ele>237.5</ele>
        <time>2022-06-29T15:10:15.642Z</time>
    </trkpt>
    <trkpt lat="56.551008" lon="60.928228">
        <ele>237.8</ele>
        <time>2022-06-29T15:10:18.551Z</time>
    </trkpt>
    <trkpt lat="56.551037" lon="60.928111">
        <ele>238.2</ele>
        <time>2022-06-29T15:10:22.067Z</time>
    </trkpt>
    <trkpt lat="56.551064" lon="60.928014">
        <ele>238.7</ele>
        <time>2022-06-29T15:10:25.046Z</time>
    </trkpt>
    <trkpt lat="56.551088" lon="60.927897">
        <ele>239.1</ele>
        <time>2022-06-29T15:10:28.468Z</time>
    </trkpt>
    <trkpt lat="56.551108" lon="60.927792">
        <ele>239.3</ele>
        <time>2022-06-29T15:10:31.513Z</time>
    </trkpt>
    <trkpt lat="56.55113" lon="60.927673">
        <ele>239.5</ele>
        <time>2022-06-29T15:10:34.954Z</time>
    </trkpt>
    <trkpt lat="56.551146" lon="60.927563">
        <ele>239.6</ele>
        <time>2022-06-29T15:10:38.072Z</time>
    </trkpt>
    <trkpt lat="56.551164" lon="60.927427">
        <ele>239.6</ele>
        <time>2022-06-29T15:10:41.906Z</time>
    </trkpt>
    <trkpt lat="56.551175" lon="60.927312">
        <ele>239.6</ele>
        <time>2022-06-29T15:10:45.105Z</time>
    </trkpt>
    <trkpt lat="56.551177" lon="60.927211">
        <ele>239.6</ele>
        <time>2022-06-29T15:10:47.875Z</time>
    </trkpt>
    <trkpt lat="56.551188" lon="60.927153">
        <ele>239.6</ele>
        <time>2022-06-29T15:10:49.556Z</time>
    </trkpt>
    <trkpt lat="56.55119" lon="60.927117">
        <ele>239.6</ele>
        <time>2022-06-29T15:10:50.547Z</time>
    </trkpt>
    <trkpt lat="56.551204" lon="60.927092">
        <ele>239.6</ele>
        <time>2022-06-29T15:10:51.524Z</time>
    </trkpt>
    <trkpt lat="56.551206" lon="60.927072">
        <ele>239.6</ele>
        <time>2022-06-29T15:10:52.081Z</time>
    </trkpt>
    <trkpt lat="56.551208" lon="60.927071">
        <ele>239.6</ele>
        <time>2022-06-29T15:10:52.184Z</time>
    </trkpt>
    <trkpt lat="56.551211" lon="60.927073">
        <ele>239.6</ele>
        <time>2022-06-29T15:10:52.342Z</time>
    </trkpt>
    <trkpt lat="56.551225" lon="60.927066">
        <ele>239.7</ele>
        <time>2022-06-29T15:10:53.064Z</time>
    </trkpt>
    <trkpt lat="56.551226" lon="60.927035">
        <ele>239.7</ele>
        <time>2022-06-29T15:10:53.915Z</time>
    </trkpt>
    <trkpt lat="56.551236" lon="60.926995">
        <ele>239.8</ele>
        <time>2022-06-29T15:10:55.119Z</time>
    </trkpt>
    <trkpt lat="56.55123" lon="60.926935">
        <ele>239.9</ele>
        <time>2022-06-29T15:10:56.790Z</time>
    </trkpt>
    <trkpt lat="56.551247" lon="60.92689">
        <ele>240.0</ele>
        <time>2022-06-29T15:10:58.285Z</time>
    </trkpt>
    <trkpt lat="56.551271" lon="60.92685">
        <ele>240.1</ele>
        <time>2022-06-29T15:10:59.905Z</time>
    </trkpt>
    <trkpt lat="56.551295" lon="60.926794">
        <ele>240.3</ele>
        <time>2022-06-29T15:11:01.849Z</time>
    </trkpt>
    <trkpt lat="56.551326" lon="60.926729">
        <ele>240.4</ele>
        <time>2022-06-29T15:11:04.205Z</time>
    </trkpt>
    <trkpt lat="56.551359" lon="60.92667">
        <ele>240.5</ele>
        <time>2022-06-29T15:11:06.509Z</time>
    </trkpt>
    <trkpt lat="56.551389" lon="60.926639">
        <ele>240.5</ele>
        <time>2022-06-29T15:11:08.226Z</time>
    </trkpt>
    <trkpt lat="56.551415" lon="60.926629">
        <ele>240.6</ele>
        <time>2022-06-29T15:11:09.547Z</time>
    </trkpt>
    <trkpt lat="56.55143" lon="60.926634">
        <ele>240.7</ele>
        <time>2022-06-29T15:11:10.305Z</time>
    </trkpt>
    <trkpt lat="56.551471" lon="60.92663">
        <ele>240.9</ele>
        <time>2022-06-29T15:11:12.347Z</time>
    </trkpt>
    <trkpt lat="56.551524" lon="60.926615">
        <ele>241.1</ele>
        <time>2022-06-29T15:11:15.015Z</time>
    </trkpt>
    <trkpt lat="56.551578" lon="60.926584">
        <ele>241.3</ele>
        <time>2022-06-29T15:11:17.832Z</time>
    </trkpt>
    <trkpt lat="56.551634" lon="60.926556">
        <ele>241.4</ele>
        <time>2022-06-29T15:11:20.721Z</time>
    </trkpt>
    <trkpt lat="56.551676" lon="60.926529">
        <ele>241.5</ele>
        <time>2022-06-29T15:11:22.937Z</time>
    </trkpt>
    <trkpt lat="56.551728" lon="60.926503">
        <ele>241.5</ele>
        <time>2022-06-29T15:11:25.619Z</time>
    </trkpt>
    <trkpt lat="56.551782" lon="60.926484">
        <ele>241.5</ele>
        <time>2022-06-29T15:11:28.354Z</time>
    </trkpt>
    <trkpt lat="56.551856" lon="60.926465">
        <ele>241.4</ele>
        <time>2022-06-29T15:11:32.071Z</time>
    </trkpt>
    <trkpt lat="56.551924" lon="60.926451">
        <ele>241.2</ele>
        <time>2022-06-29T15:11:35.474Z</time>
    </trkpt>
    <trkpt lat="56.551982" lon="60.926434">
        <ele>241.0</ele>
        <time>2022-06-29T15:11:38.396Z</time>
    </trkpt>
    <trkpt lat="56.552054" lon="60.926399">
        <ele>241.0</ele>
        <time>2022-06-29T15:11:42.103Z</time>
    </trkpt>
    <trkpt lat="56.552104" lon="60.926376">
        <ele>241.1</ele>
        <time>2022-06-29T15:11:44.668Z</time>
    </trkpt>
    <trkpt lat="56.552149" lon="60.926356">
        <ele>241.2</ele>
        <time>2022-06-29T15:11:46.972Z</time>
    </trkpt>
    <trkpt lat="56.552208" lon="60.926343">
        <ele>241.4</ele>
        <time>2022-06-29T15:11:49.928Z</time>
    </trkpt>
    <trkpt lat="56.552268" lon="60.926326">
        <ele>241.6</ele>
        <time>2022-06-29T15:11:52.948Z</time>
    </trkpt>
    <trkpt lat="56.552325" lon="60.926317">
        <ele>241.7</ele>
        <time>2022-06-29T15:11:55.793Z</time>
    </trkpt>
    <trkpt lat="56.552388" lon="60.926299">
        <ele>241.7</ele>
        <time>2022-06-29T15:11:58.965Z</time>
    </trkpt>
    <trkpt lat="56.55245" lon="60.926298">
        <ele>241.7</ele>
        <time>2022-06-29T15:12:02.048Z</time>
    </trkpt>
    <trkpt lat="56.552515" lon="60.926294">
        <ele>241.6</ele>
        <time>2022-06-29T15:12:05.282Z</time>
    </trkpt>
    <trkpt lat="56.552581" lon="60.926295">
        <ele>241.5</ele>
        <time>2022-06-29T15:12:08.564Z</time>
    </trkpt>
    <trkpt lat="56.552645" lon="60.926303">
        <ele>241.6</ele>
        <time>2022-06-29T15:12:11.754Z</time>
    </trkpt>
    <trkpt lat="56.552699" lon="60.926303">
        <ele>241.6</ele>
        <time>2022-06-29T15:12:14.439Z</time>
    </trkpt>
    <trkpt lat="56.552756" lon="60.926316">
        <ele>241.9</ele>
        <time>2022-06-29T15:12:17.296Z</time>
    </trkpt>
    <trkpt lat="56.552818" lon="60.926314">
        <ele>242.1</ele>
        <time>2022-06-29T15:12:20.380Z</time>
    </trkpt>
    <trkpt lat="56.552883" lon="60.926299">
        <ele>242.4</ele>
        <time>2022-06-29T15:12:23.639Z</time>
    </trkpt>
    <trkpt lat="56.552949" lon="60.926284">
        <ele>242.6</ele>
        <time>2022-06-29T15:12:26.947Z</time>
    </trkpt>
    <trkpt lat="56.553004" lon="60.926274">
        <ele>242.9</ele>
        <time>2022-06-29T15:12:29.696Z</time>
    </trkpt>
    <trkpt lat="56.553055" lon="60.926263">
        <ele>243.3</ele>
        <time>2022-06-29T15:12:32.250Z</time>
    </trkpt>
    <trkpt lat="56.553105" lon="60.92626">
        <ele>243.9</ele>
        <time>2022-06-29T15:12:34.738Z</time>
    </trkpt>
    <trkpt lat="56.553146" lon="60.926247">
        <ele>244.1</ele>
        <time>2022-06-29T15:12:36.808Z</time>
    </trkpt>
    <trkpt lat="56.553187" lon="60.926212">
        <ele>244.8</ele>
        <time>2022-06-29T15:12:39.061Z</time>
    </trkpt>
    <trkpt lat="56.553225" lon="60.926168">
        <ele>245.7</ele>
        <time>2022-06-29T15:12:41.303Z</time>
    </trkpt>
    <trkpt lat="56.553255" lon="60.926109">
        <ele>246.3</ele>
        <time>2022-06-29T15:12:43.503Z</time>
    </trkpt>
    <trkpt lat="56.553285" lon="60.926065">
        <ele>246.0</ele>
        <time>2022-06-29T15:12:45.421Z</time>
    </trkpt>
    <trkpt lat="56.553319" lon="60.926044">
        <ele>241.5</ele>
        <time>2022-06-29T15:12:47.207Z</time>
    </trkpt>
    <trkpt lat="56.553352" lon="60.926047">
        <ele>240.8</ele>
        <time>2022-06-29T15:12:48.850Z</time>
    </trkpt>
    <trkpt lat="56.553382" lon="60.926058">
        <ele>240.3</ele>
        <time>2022-06-29T15:12:50.372Z</time>
    </trkpt>
    <trkpt lat="56.553413" lon="60.926061">
        <ele>239.9</ele>
        <time>2022-06-29T15:12:51.916Z</time>
    </trkpt>
    <trkpt lat="56.553435" lon="60.926071">
        <ele>239.5</ele>
        <time>2022-06-29T15:12:53.044Z</time>
    </trkpt>
    <trkpt lat="56.553451" lon="60.926053">
        <ele>239.0</ele>
        <time>2022-06-29T15:12:53.980Z</time>
    </trkpt>
    <trkpt lat="56.553466" lon="60.926049">
        <ele>238.4</ele>
        <time>2022-06-29T15:12:54.734Z</time>
    </trkpt>
    <trkpt lat="56.553481" lon="60.926022">
        <ele>237.7</ele>
        <time>2022-06-29T15:12:55.784Z</time>
    </trkpt>
    <trkpt lat="56.55349" lon="60.92595">
        <ele>237.4</ele>
        <time>2022-06-29T15:12:57.807Z</time>
    </trkpt>
    <trkpt lat="56.55353" lon="60.925881">
        <ele>237.2</ele>
        <time>2022-06-29T15:13:00.552Z</time>
    </trkpt>
    <trkpt lat="56.553579" lon="60.925799">
        <ele>237.2</ele>
        <time>2022-06-29T15:13:03.867Z</time>
    </trkpt>
    <trkpt lat="56.553631" lon="60.925719">
        <ele>238.3</ele>
        <time>2022-06-29T15:13:07.258Z</time>
    </trkpt>
    <trkpt lat="56.55369" lon="60.925633">
        <ele>239.3</ele>
        <time>2022-06-29T15:13:11.022Z</time>
    </trkpt>
    <trkpt lat="56.553748" lon="60.925538">
        <ele>240.4</ele>
        <time>2022-06-29T15:13:14.908Z</time>
    </trkpt>
    <trkpt lat="56.553804" lon="60.925445">
        <ele>240.7</ele>
        <time>2022-06-29T15:13:18.683Z</time>
    </trkpt>
    <trkpt lat="56.553862" lon="60.925342">
        <ele>240.9</ele>
        <time>2022-06-29T15:13:22.719Z</time>
    </trkpt>
    <trkpt lat="56.553921" lon="60.925254">
        <ele>241.5</ele>
        <time>2022-06-29T15:13:26.517Z</time>
    </trkpt>
    <trkpt lat="56.553984" lon="60.925173">
        <ele>241.0</ele>
        <time>2022-06-29T15:13:30.357Z</time>
    </trkpt>
    <trkpt lat="56.554056" lon="60.9251">
        <ele>240.0</ele>
        <time>2022-06-29T15:13:34.459Z</time>
    </trkpt>
    <trkpt lat="56.55412" lon="60.925027">
        <ele>239.1</ele>
        <time>2022-06-29T15:13:38.219Z</time>
    </trkpt>
    <trkpt lat="56.55418" lon="60.924986">
        <ele>239.4</ele>
        <time>2022-06-29T15:13:41.407Z</time>
    </trkpt>
    <trkpt lat="56.554245" lon="60.924958">
        <ele>239.1</ele>
        <time>2022-06-29T15:13:44.729Z</time>
    </trkpt>
    <trkpt lat="56.554324" lon="60.92493">
        <ele>238.9</ele>
        <time>2022-06-29T15:13:48.732Z</time>
    </trkpt>
    <trkpt lat="56.554404" lon="60.924886">
        <ele>238.9</ele>
        <time>2022-06-29T15:13:52.889Z</time>
    </trkpt>
    <trkpt lat="56.554489" lon="60.924841">
        <ele>238.8</ele>
        <time>2022-06-29T15:13:57.293Z</time>
    </trkpt>
    <trkpt lat="56.554563" lon="60.924824">
        <ele>238.6</ele>
        <time>2022-06-29T15:14:01.003Z</time>
    </trkpt>
    <trkpt lat="56.554635" lon="60.924806">
        <ele>238.4</ele>
        <time>2022-06-29T15:14:04.617Z</time>
    </trkpt>
    <trkpt lat="56.554705" lon="60.924781">
        <ele>238.9</ele>
        <time>2022-06-29T15:14:08.165Z</time>
    </trkpt>
    <trkpt lat="56.554774" lon="60.924759">
        <ele>239.5</ele>
        <time>2022-06-29T15:14:11.649Z</time>
    </trkpt>
    <trkpt lat="56.554837" lon="60.924735">
        <ele>240.1</ele>
        <time>2022-06-29T15:14:14.850Z</time>
    </trkpt>
    <trkpt lat="56.554897" lon="60.924716">
        <ele>240.7</ele>
        <time>2022-06-29T15:14:17.879Z</time>
    </trkpt>
    <trkpt lat="56.554962" lon="60.924701">
        <ele>240.6</ele>
        <time>2022-06-29T15:14:21.138Z</time>
    </trkpt>
    <trkpt lat="56.555025" lon="60.924713">
        <ele>240.2</ele>
        <time>2022-06-29T15:14:24.288Z</time>
    </trkpt>
    <trkpt lat="56.555099" lon="60.924727">
        <ele>239.7</ele>
        <time>2022-06-29T15:14:27.988Z</time>
    </trkpt>
    <trkpt lat="56.555164" lon="60.924769">
        <ele>239.2</ele>
        <time>2022-06-29T15:14:31.419Z</time>
    </trkpt>
    <trkpt lat="56.555216" lon="60.924808">
        <ele>238.6</ele>
        <time>2022-06-29T15:14:34.217Z</time>
    </trkpt>
    <trkpt lat="56.555276" lon="60.924869">
        <ele>238.2</ele>
        <time>2022-06-29T15:14:37.637Z</time>
    </trkpt>
    <trkpt lat="56.555332" lon="60.924924">
        <ele>238.0</ele>
        <time>2022-06-29T15:14:40.804Z</time>
    </trkpt>
    <trkpt lat="56.555375" lon="60.924959">
        <ele>237.8</ele>
        <time>2022-06-29T15:14:43.148Z</time>
    </trkpt>
    <trkpt lat="56.555418" lon="60.924977">
        <ele>237.7</ele>
        <time>2022-06-29T15:14:45.342Z</time>
    </trkpt>
    <trkpt lat="56.555464" lon="60.925009">
        <ele>237.8</ele>
        <time>2022-06-29T15:14:47.792Z</time>
    </trkpt>
    <trkpt lat="56.555518" lon="60.924988">
        <ele>237.9</ele>
        <time>2022-06-29T15:14:50.538Z</time>
    </trkpt>
    <trkpt lat="56.55557" lon="60.924977">
        <ele>238.0</ele>
        <time>2022-06-29T15:14:53.141Z</time>
    </trkpt>
    <trkpt lat="56.555619" lon="60.924952">
        <ele>238.2</ele>
        <time>2022-06-29T15:14:55.672Z</time>
    </trkpt>
    <trkpt lat="56.55567" lon="60.924929">
        <ele>238.3</ele>
        <time>2022-06-29T15:14:58.285Z</time>
    </trkpt>
    <trkpt lat="56.555716" lon="60.924913">
        <ele>238.4</ele>
        <time>2022-06-29T15:15:00.614Z</time>
    </trkpt>
    <trkpt lat="56.55576" lon="60.924907">
        <ele>238.4</ele>
        <time>2022-06-29T15:15:02.808Z</time>
    </trkpt>
    <trkpt lat="56.555798" lon="60.924901">
        <ele>238.3</ele>
        <time>2022-06-29T15:15:04.705Z</time>
    </trkpt>
    <trkpt lat="56.555825" lon="60.924914">
        <ele>238.2</ele>
        <time>2022-06-29T15:15:06.094Z</time>
    </trkpt>
    <trkpt lat="56.555846" lon="60.92493">
        <ele>238.1</ele>
        <time>2022-06-29T15:15:07.226Z</time>
    </trkpt>
    <trkpt lat="56.555863" lon="60.924941">
        <ele>238.1</ele>
        <time>2022-06-29T15:15:08.123Z</time>
    </trkpt>
    <trkpt lat="56.55587" lon="60.924941">
        <ele>238.1</ele>
        <time>2022-06-29T15:15:08.471Z</time>
    </trkpt>
    <trkpt lat="56.555875" lon="60.924947">
        <ele>238.1</ele>
        <time>2022-06-29T15:15:08.769Z</time>
    </trkpt>
    <trkpt lat="56.555878" lon="60.924946">
        <ele>238.1</ele>
        <time>2022-06-29T15:15:08.920Z</time>
    </trkpt>
    <trkpt lat="56.555882" lon="60.924938">
        <ele>238.1</ele>
        <time>2022-06-29T15:15:09.216Z</time>
    </trkpt>
    <trkpt lat="56.555881" lon="60.924938">
        <ele>238.1</ele>
        <time>2022-06-29T15:15:09.265Z</time>
    </trkpt>
    <trkpt lat="56.555884" lon="60.924936">
        <ele>237.9</ele>
        <time>2022-06-29T15:15:09.423Z</time>
    </trkpt>
    <trkpt lat="56.555891" lon="60.924944">
        <ele>237.9</ele>
        <time>2022-06-29T15:15:09.834Z</time>
    </trkpt>
    <trkpt lat="56.555896" lon="60.924949">
        <ele>237.9</ele>
        <time>2022-06-29T15:15:10.117Z</time>
    </trkpt>
    <trkpt lat="56.555903" lon="60.92496">
        <ele>237.9</ele>
        <time>2022-06-29T15:15:10.577Z</time>
    </trkpt>
    <trkpt lat="56.555927" lon="60.92499">
        <ele>237.9</ele>
        <time>2022-06-29T15:15:12.026Z</time>
    </trkpt>
    <trkpt lat="56.555924" lon="60.924993">
        <ele>237.9</ele>
        <time>2022-06-29T15:15:12.196Z</time>
    </trkpt>
    <trkpt lat="56.555931" lon="60.924985">
        <ele>238.0</ele>
        <time>2022-06-29T15:15:12.607Z</time>
    </trkpt>
    <trkpt lat="56.555932" lon="60.924981">
        <ele>238.1</ele>
        <time>2022-06-29T15:15:12.727Z</time>
    </trkpt>
    <trkpt lat="56.55593" lon="60.924961">
        <ele>238.1</ele>
        <time>2022-06-29T15:15:13.284Z</time>
    </trkpt>
    <trkpt lat="56.555926" lon="60.924949">
        <ele>238.1</ele>
        <time>2022-06-29T15:15:13.668Z</time>
    </trkpt>
    <trkpt lat="56.555933" lon="60.924937">
        <ele>238.1</ele>
        <time>2022-06-29T15:15:14.146Z</time>
    </trkpt>
    <trkpt lat="56.555945" lon="60.924946">
        <ele>237.9</ele>
        <time>2022-06-29T15:15:14.791Z</time>
    </trkpt>
    <trkpt lat="56.555965" lon="60.924961">
        <ele>237.8</ele>
        <time>2022-06-29T15:15:15.867Z</time>
    </trkpt>
    <trkpt lat="56.555994" lon="60.924985">
        <ele>237.7</ele>
        <time>2022-06-29T15:15:17.452Z</time>
    </trkpt>
    <trkpt lat="56.556017" lon="60.924996">
        <ele>237.6</ele>
        <time>2022-06-29T15:15:18.635Z</time>
    </trkpt>
    <trkpt lat="56.556047" lon="60.925022">
        <ele>237.4</ele>
        <time>2022-06-29T15:15:20.288Z</time>
    </trkpt>
    <trkpt lat="56.55609" lon="60.925066">
        <ele>237.3</ele>
        <time>2022-06-29T15:15:22.743Z</time>
    </trkpt>
    <trkpt lat="56.55614" lon="60.925121">
        <ele>237.1</ele>
        <time>2022-06-29T15:15:25.651Z</time>
    </trkpt>
    <trkpt lat="56.55619" lon="60.925181">
        <ele>236.9</ele>
        <time>2022-06-29T15:15:28.632Z</time>
    </trkpt>
    <trkpt lat="56.556243" lon="60.925226">
        <ele>236.8</ele>
        <time>2022-06-29T15:15:31.542Z</time>
    </trkpt>
    <trkpt lat="56.556298" lon="60.925246">
        <ele>236.5</ele>
        <time>2022-06-29T15:15:34.331Z</time>
    </trkpt>
    <trkpt lat="56.556357" lon="60.925283">
        <ele>235.6</ele>
        <time>2022-06-29T15:15:37.435Z</time>
    </trkpt>
    <trkpt lat="56.556421" lon="60.925312">
        <ele>234.6</ele>
        <time>2022-06-29T15:15:40.716Z</time>
    </trkpt>
    <trkpt lat="56.556503" lon="60.925313">
        <ele>233.6</ele>
        <time>2022-06-29T15:15:44.794Z</time>
    </trkpt>
    <trkpt lat="56.556587" lon="60.925302">
        <ele>232.7</ele>
        <time>2022-06-29T15:15:48.982Z</time>
    </trkpt>
    <trkpt lat="56.556673" lon="60.925277">
        <ele>233.0</ele>
        <time>2022-06-29T15:15:53.314Z</time>
    </trkpt>
    <trkpt lat="56.556756" lon="60.92525">
        <ele>234.6</ele>
        <time>2022-06-29T15:15:57.508Z</time>
    </trkpt>
    <trkpt lat="56.556837" lon="60.925227">
        <ele>234.8</ele>
        <time>2022-06-29T15:16:01.585Z</time>
    </trkpt>
    <trkpt lat="56.556918" lon="60.925204">
        <ele>235.1</ele>
        <time>2022-06-29T15:16:05.662Z</time>
    </trkpt>
    <trkpt lat="56.556989" lon="60.9252">
        <ele>235.4</ele>
        <time>2022-06-29T15:16:09.195Z</time>
    </trkpt>
    <trkpt lat="56.557066" lon="60.925187">
        <ele>235.8</ele>
        <time>2022-06-29T15:16:13.041Z</time>
    </trkpt>
    <trkpt lat="56.557155" lon="60.925159">
        <ele>236.1</ele>
        <time>2022-06-29T15:16:17.533Z</time>
    </trkpt>
    <trkpt lat="56.557251" lon="60.925124">
        <ele>236.4</ele>
        <time>2022-06-29T15:16:22.403Z</time>
    </trkpt>
    <trkpt lat="56.557345" lon="60.925085">
        <ele>236.6</ele>
        <time>2022-06-29T15:16:27.199Z</time>
    </trkpt>
    <trkpt lat="56.55744" lon="60.925048">
        <ele>236.8</ele>
        <time>2022-06-29T15:16:32.031Z</time>
    </trkpt>
    <trkpt lat="56.557528" lon="60.925016">
        <ele>236.8</ele>
        <time>2022-06-29T15:16:36.494Z</time>
    </trkpt>
    <trkpt lat="56.557613" lon="60.924967">
        <ele>236.9</ele>
        <time>2022-06-29T15:16:40.929Z</time>
    </trkpt>
    <trkpt lat="56.557706" lon="60.924918">
        <ele>237.1</ele>
        <time>2022-06-29T15:16:45.745Z</time>
    </trkpt>
    <trkpt lat="56.557802" lon="60.92487">
        <ele>237.1</ele>
        <time>2022-06-29T15:16:50.697Z</time>
    </trkpt>
    <trkpt lat="56.557889" lon="60.924845">
        <ele>237.2</ele>
        <time>2022-06-29T15:16:55.078Z</time>
    </trkpt>
    <trkpt lat="56.557984" lon="60.924817">
        <ele>237.0</ele>
        <time>2022-06-29T15:16:59.865Z</time>
    </trkpt>
    <trkpt lat="56.558072" lon="60.924796">
        <ele>236.5</ele>
        <time>2022-06-29T15:17:04.279Z</time>
    </trkpt>
    <trkpt lat="56.558162" lon="60.924777">
        <ele>236.1</ele>
        <time>2022-06-29T15:17:08.785Z</time>
    </trkpt>
    <trkpt lat="56.558247" lon="60.924756">
        <ele>235.6</ele>
        <time>2022-06-29T15:17:13.051Z</time>
    </trkpt>
    <trkpt lat="56.558327" lon="60.924748">
        <ele>235.3</ele>
        <time>2022-06-29T15:17:17.036Z</time>
    </trkpt>
    <trkpt lat="56.558409" lon="60.924734">
        <ele>235.1</ele>
        <time>2022-06-29T15:17:21.132Z</time>
    </trkpt>
    <trkpt lat="56.558485" lon="60.924729">
        <ele>234.8</ele>
        <time>2022-06-29T15:17:24.914Z</time>
    </trkpt>
    <trkpt lat="56.55857" lon="60.924736">
        <ele>234.5</ele>
        <time>2022-06-29T15:17:29.146Z</time>
    </trkpt>
    <trkpt lat="56.558653" lon="60.924725">
        <ele>234.3</ele>
        <time>2022-06-29T15:17:33.285Z</time>
    </trkpt>
    <trkpt lat="56.558718" lon="60.924719">
        <ele>234.2</ele>
        <time>2022-06-29T15:17:36.522Z</time>
    </trkpt>
    <trkpt lat="56.558746" lon="60.924737">
        <ele>234.2</ele>
        <time>2022-06-29T15:17:37.999Z</time>
    </trkpt>
    <trkpt lat="56.558758" lon="60.924763">
        <ele>234.2</ele>
        <time>2022-06-29T15:17:38.928Z</time>
    </trkpt>
    <trkpt lat="56.55876" lon="60.924783">
        <ele>234.2</ele>
        <time>2022-06-29T15:17:39.485Z</time>
    </trkpt>
    <trkpt lat="56.558762" lon="60.924788">
        <ele>234.2</ele>
        <time>2022-06-29T15:17:39.654Z</time>
    </trkpt>
    <trkpt lat="56.558753" lon="60.9248">
        <ele>234.2</ele>
        <time>2022-06-29T15:17:40.209Z</time>
    </trkpt>
    <trkpt lat="56.558748" lon="60.924788">
        <ele>234.2</ele>
        <time>2022-06-29T15:17:40.621Z</time>
    </trkpt>
    <trkpt lat="56.558738" lon="60.924759">
        <ele>234.1</ele>
        <time>2022-06-29T15:17:41.558Z</time>
    </trkpt>
    <trkpt lat="56.558763" lon="60.924749">
        <ele>234.1</ele>
        <time>2022-06-29T15:17:42.831Z</time>
    </trkpt>
    <trkpt lat="56.558772" lon="60.924681">
        <ele>234.1</ele>
        <time>2022-06-29T15:17:44.747Z</time>
    </trkpt>
    <trkpt lat="56.558778" lon="60.924693">
        <ele>234.1</ele>
        <time>2022-06-29T15:17:45.191Z</time>
    </trkpt>
    <trkpt lat="56.558778" lon="60.924698">
        <ele>234.1</ele>
        <time>2022-06-29T15:17:45.328Z</time>
    </trkpt>
    <trkpt lat="56.558781" lon="60.924698">
        <ele>234.0</ele>
        <time>2022-06-29T15:17:45.477Z</time>
    </trkpt>
    <trkpt lat="56.558792" lon="60.924691">
        <ele>233.9</ele>
        <time>2022-06-29T15:17:46.056Z</time>
    </trkpt>
    <trkpt lat="56.558812" lon="60.924684">
        <ele>233.9</ele>
        <time>2022-06-29T15:17:47.069Z</time>
    </trkpt>
    <trkpt lat="56.558827" lon="60.924656">
        <ele>233.8</ele>
        <time>2022-06-29T15:17:48.139Z</time>
    </trkpt>
    <trkpt lat="56.558859" lon="60.924601">
        <ele>233.7</ele>
        <time>2022-06-29T15:17:50.331Z</time>
    </trkpt>
    <trkpt lat="56.558886" lon="60.924539">
        <ele>233.7</ele>
        <time>2022-06-29T15:17:52.496Z</time>
    </trkpt>
    <trkpt lat="56.558914" lon="60.924461">
        <ele>233.5</ele>
        <time>2022-06-29T15:17:55.047Z</time>
    </trkpt>
    <trkpt lat="56.558945" lon="60.924379">
        <ele>233.0</ele>
        <time>2022-06-29T15:17:57.772Z</time>
    </trkpt>
    <trkpt lat="56.558984" lon="60.924295">
        <ele>232.3</ele>
        <time>2022-06-29T15:18:00.782Z</time>
    </trkpt>
    <trkpt lat="56.559022" lon="60.924185">
        <ele>231.5</ele>
        <time>2022-06-29T15:18:04.340Z</time>
    </trkpt>
    <trkpt lat="56.559069" lon="60.924039">
        <ele>230.3</ele>
        <time>2022-06-29T15:18:08.974Z</time>
    </trkpt>
    <trkpt lat="56.559123" lon="60.923899">
        <ele>230.3</ele>
        <time>2022-06-29T15:18:13.657Z</time>
    </trkpt>
    <trkpt lat="56.559182" lon="60.923746">
        <ele>230.4</ele>
        <time>2022-06-29T15:18:18.775Z</time>
    </trkpt>
    <trkpt lat="56.559225" lon="60.923623">
        <ele>230.4</ele>
        <time>2022-06-29T15:18:22.767Z</time>
    </trkpt>
    <trkpt lat="56.559273" lon="60.923487">
        <ele>230.3</ele>
        <time>2022-06-29T15:18:27.193Z</time>
    </trkpt>
    <trkpt lat="56.55932" lon="60.923359">
        <ele>230.2</ele>
        <time>2022-06-29T15:18:31.408Z</time>
    </trkpt>
    <trkpt lat="56.559364" lon="60.923243">
        <ele>230.1</ele>
        <time>2022-06-29T15:18:35.267Z</time>
    </trkpt>
    <trkpt lat="56.5594" lon="60.923138">
        <ele>230.2</ele>
        <time>2022-06-29T15:18:38.656Z</time>
    </trkpt>
    <trkpt lat="56.559435" lon="60.923042">
        <ele>232.4</ele>
        <time>2022-06-29T15:18:41.811Z</time>
    </trkpt>
    <trkpt lat="56.559474" lon="60.922936">
        <ele>234.7</ele>
        <time>2022-06-29T15:18:45.304Z</time>
    </trkpt>
    <trkpt lat="56.559512" lon="60.922811">
        <ele>236.8</ele>
        <time>2022-06-29T15:18:49.216Z</time>
    </trkpt>
    <trkpt lat="56.559539" lon="60.922706">
        <ele>238.5</ele>
        <time>2022-06-29T15:18:52.391Z</time>
    </trkpt>
    <trkpt lat="56.559576" lon="60.922618">
        <ele>239.9</ele>
        <time>2022-06-29T15:18:55.424Z</time>
    </trkpt>
    <trkpt lat="56.559612" lon="60.922537">
        <ele>240.9</ele>
        <time>2022-06-29T15:18:58.276Z</time>
    </trkpt>
    <trkpt lat="56.559652" lon="60.922467">
        <ele>242.0</ele>
        <time>2022-06-29T15:19:01.039Z</time>
    </trkpt>
    <trkpt lat="56.559695" lon="60.92239">
        <ele>243.1</ele>
        <time>2022-06-29T15:19:04.043Z</time>
    </trkpt>
    <trkpt lat="56.559737" lon="60.922307">
        <ele>243.9</ele>
        <time>2022-06-29T15:19:07.131Z</time>
    </trkpt>
    <trkpt lat="56.559769" lon="60.922231">
        <ele>244.2</ele>
        <time>2022-06-29T15:19:09.752Z</time>
    </trkpt>
    <trkpt lat="56.5598" lon="60.922168">
        <ele>244.4</ele>
        <time>2022-06-29T15:19:12.066Z</time>
    </trkpt>
    <trkpt lat="56.559834" lon="60.9221">
        <ele>244.7</ele>
        <time>2022-06-29T15:19:14.582Z</time>
    </trkpt>
    <trkpt lat="56.559867" lon="60.922032">
        <ele>244.7</ele>
        <time>2022-06-29T15:19:17.065Z</time>
    </trkpt>
    <trkpt lat="56.55991" lon="60.921968">
        <ele>244.6</ele>
        <time>2022-06-29T15:19:19.831Z</time>
    </trkpt>
    <trkpt lat="56.559947" lon="60.921924">
        <ele>244.5</ele>
        <time>2022-06-29T15:19:22.031Z</time>
    </trkpt>
    <trkpt lat="56.559953" lon="60.921923">
        <ele>244.6</ele>
        <time>2022-06-29T15:19:22.330Z</time>
    </trkpt>
    <trkpt lat="56.559951" lon="60.921923">
        <ele>244.6</ele>
        <time>2022-06-29T15:19:22.429Z</time>
    </trkpt>
    <trkpt lat="56.559945" lon="60.921932">
        <ele>244.6</ele>
        <time>2022-06-29T15:19:22.816Z</time>
    </trkpt>
    <trkpt lat="56.559941" lon="60.921936">
        <ele>244.6</ele>
        <time>2022-06-29T15:19:23.043Z</time>
    </trkpt>
    <trkpt lat="56.55994" lon="60.921935">
        <ele>244.6</ele>
        <time>2022-06-29T15:19:23.099Z</time>
    </trkpt>
    <trkpt lat="56.55994" lon="60.92193">
        <ele>244.6</ele>
        <time>2022-06-29T15:19:23.236Z</time>
    </trkpt>
    <trkpt lat="56.559946" lon="60.921925">
        <ele>244.6</ele>
        <time>2022-06-29T15:19:23.564Z</time>
    </trkpt>
    <trkpt lat="56.559946" lon="60.921923">
        <ele>244.6</ele>
        <time>2022-06-29T15:19:23.618Z</time>
    </trkpt>
    <trkpt lat="56.559944" lon="60.921925">
        <ele>244.6</ele>
        <time>2022-06-29T15:19:23.731Z</time>
    </trkpt>
    <trkpt lat="56.559944" lon="60.921924">
        <ele>244.7</ele>
        <time>2022-06-29T15:19:23.758Z</time>
    </trkpt>
    <trkpt lat="56.559946" lon="60.921919">
        <ele>244.7</ele>
        <time>2022-06-29T15:19:23.927Z</time>
    </trkpt>
    <trkpt lat="56.559947" lon="60.921919">
        <ele>244.6</ele>
        <time>2022-06-29T15:19:23.976Z</time>
    </trkpt>
    <trkpt lat="56.559953" lon="60.921911">
        <ele>244.7</ele>
        <time>2022-06-29T15:19:24.346Z</time>
    </trkpt>
    <trkpt lat="56.55995" lon="60.921908">
        <ele>244.7</ele>
        <time>2022-06-29T15:19:24.516Z</time>
    </trkpt>
    <trkpt lat="56.559954" lon="60.921906">
        <ele>244.7</ele>
        <time>2022-06-29T15:19:24.722Z</time>
    </trkpt>
    <trkpt lat="56.55995" lon="60.921909">
        <ele>244.7</ele>
        <time>2022-06-29T15:19:24.937Z</time>
    </trkpt>
    <trkpt lat="56.559948" lon="60.921909">
        <ele>244.7</ele>
        <time>2022-06-29T15:19:25.036Z</time>
    </trkpt>
    <trkpt lat="56.559952" lon="60.921908">
        <ele>244.7</ele>
        <time>2022-06-29T15:19:25.236Z</time>
    </trkpt>
    <trkpt lat="56.559954" lon="60.921904">
        <ele>244.6</ele>
        <time>2022-06-29T15:19:25.384Z</time>
    </trkpt>
    <trkpt lat="56.559956" lon="60.921906">
        <ele>244.5</ele>
        <time>2022-06-29T15:19:25.497Z</time>
    </trkpt>
    <trkpt lat="56.559963" lon="60.921907">
        <ele>244.4</ele>
        <time>2022-06-29T15:19:25.846Z</time>
    </trkpt>
    <trkpt lat="56.559962" lon="60.92192">
        <ele>244.4</ele>
        <time>2022-06-29T15:19:26.205Z</time>
    </trkpt>
    <trkpt lat="56.559959" lon="60.92193">
        <ele>244.4</ele>
        <time>2022-06-29T15:19:26.517Z</time>
    </trkpt>
    <trkpt lat="56.559958" lon="60.921934">
        <ele>244.3</ele>
        <time>2022-06-29T15:19:26.637Z</time>
    </trkpt>
    <trkpt lat="56.559959" lon="60.921938">
        <ele>244.4</ele>
        <time>2022-06-29T15:19:26.757Z</time>
    </trkpt>
    <trkpt lat="56.559953" lon="60.921942">
        <ele>244.4</ele>
        <time>2022-06-29T15:19:27.074Z</time>
    </trkpt>
    <trkpt lat="56.559952" lon="60.921937">
        <ele>244.5</ele>
        <time>2022-06-29T15:19:27.219Z</time>
    </trkpt>
    <trkpt lat="56.559951" lon="60.921935">
        <ele>244.4</ele>
        <time>2022-06-29T15:19:27.293Z</time>
    </trkpt>
    <trkpt lat="56.559953" lon="60.92194">
        <ele>244.3</ele>
        <time>2022-06-29T15:19:27.462Z</time>
    </trkpt>
    <trkpt lat="56.559954" lon="60.921943">
        <ele>244.3</ele>
        <time>2022-06-29T15:19:27.558Z</time>
    </trkpt>
    <trkpt lat="56.559956" lon="60.921945">
        <ele>244.2</ele>
        <time>2022-06-29T15:19:27.671Z</time>
    </trkpt>
    <trkpt lat="56.55996" lon="60.921948">
        <ele>244.3</ele>
        <time>2022-06-29T15:19:27.886Z</time>
    </trkpt>
    <trkpt lat="56.559961" lon="60.921942">
        <ele>244.3</ele>
        <time>2022-06-29T15:19:28.057Z</time>
    </trkpt>
    <trkpt lat="56.559968" lon="60.921932">
        <ele>244.4</ele>
        <time>2022-06-29T15:19:28.500Z</time>
    </trkpt>
    <trkpt lat="56.55996" lon="60.921927">
        <ele>244.6</ele>
        <time>2022-06-29T15:19:28.920Z</time>
    </trkpt>
    <trkpt lat="56.559947" lon="60.921926">
        <ele>244.7</ele>
        <time>2022-06-29T15:19:29.567Z</time>
    </trkpt>
    <trkpt lat="56.559942" lon="60.921916">
        <ele>244.9</ele>
        <time>2022-06-29T15:19:29.937Z</time>
    </trkpt>
    <trkpt lat="56.559944" lon="60.921898">
        <ele>245.3</ele>
        <time>2022-06-29T15:19:30.440Z</time>
    </trkpt>
    <trkpt lat="56.559935" lon="60.921878">
        <ele>245.3</ele>
        <time>2022-06-29T15:19:31.147Z</time>
    </trkpt>
    <trkpt lat="56.559937" lon="60.921882">
        <ele>245.3</ele>
        <time>2022-06-29T15:19:31.295Z</time>
    </trkpt>
    <trkpt lat="56.559962" lon="60.921871">
        <ele>245.4</ele>
        <time>2022-06-29T15:19:32.574Z</time>
    </trkpt>
    <trkpt lat="56.559987" lon="60.921853">
        <ele>245.5</ele>
        <time>2022-06-29T15:19:33.911Z</time>
    </trkpt>
    <trkpt lat="56.559992" lon="60.921847">
        <ele>245.5</ele>
        <time>2022-06-29T15:19:34.209Z</time>
    </trkpt>
    <trkpt lat="56.560004" lon="60.921834">
        <ele>245.6</ele>
        <time>2022-06-29T15:19:34.904Z</time>
    </trkpt>
    <trkpt lat="56.560033" lon="60.921807">
        <ele>245.7</ele>
        <time>2022-06-29T15:19:36.525Z</time>
    </trkpt>
    <trkpt lat="56.560072" lon="60.921788">
        <ele>245.7</ele>
        <time>2022-06-29T15:19:38.533Z</time>
    </trkpt>
    <trkpt lat="56.560121" lon="60.921784">
        <ele>245.7</ele>
        <time>2022-06-29T15:19:40.972Z</time>
    </trkpt>
    <trkpt lat="56.560165" lon="60.921792">
        <ele>245.7</ele>
        <time>2022-06-29T15:19:43.171Z</time>
    </trkpt>
    <trkpt lat="56.560217" lon="60.921782">
        <ele>245.7</ele>
        <time>2022-06-29T15:19:45.771Z</time>
    </trkpt>
    <trkpt lat="56.560274" lon="60.921767">
        <ele>245.7</ele>
        <time>2022-06-29T15:19:48.635Z</time>
    </trkpt>
    <trkpt lat="56.560318" lon="60.921738">
        <ele>245.7</ele>
        <time>2022-06-29T15:19:50.963Z</time>
    </trkpt>
    <trkpt lat="56.560352" lon="60.921693">
        <ele>245.7</ele>
        <time>2022-06-29T15:19:53.056Z</time>
    </trkpt>
    <trkpt lat="56.560392" lon="60.921646">
        <ele>245.6</ele>
        <time>2022-06-29T15:19:55.426Z</time>
    </trkpt>
    <trkpt lat="56.560436" lon="60.921598">
        <ele>245.4</ele>
        <time>2022-06-29T15:19:57.979Z</time>
    </trkpt>
    <trkpt lat="56.560473" lon="60.921574">
        <ele>245.3</ele>
        <time>2022-06-29T15:19:59.933Z</time>
    </trkpt>
    <trkpt lat="56.560514" lon="60.921543">
        <ele>245.1</ele>
        <time>2022-06-29T15:20:02.142Z</time>
    </trkpt>
    <trkpt lat="56.560563" lon="60.921494">
        <ele>244.8</ele>
        <time>2022-06-29T15:20:04.924Z</time>
    </trkpt>
    <trkpt lat="56.56061" lon="60.921423">
        <ele>244.6</ele>
        <time>2022-06-29T15:20:07.965Z</time>
    </trkpt>
    <trkpt lat="56.560654" lon="60.921358">
        <ele>244.5</ele>
        <time>2022-06-29T15:20:10.786Z</time>
    </trkpt>
    <trkpt lat="56.560705" lon="60.921307">
        <ele>244.3</ele>
        <time>2022-06-29T15:20:13.682Z</time>
    </trkpt>
    <trkpt lat="56.560747" lon="60.92129">
        <ele>244.1</ele>
        <time>2022-06-29T15:20:15.822Z</time>
    </trkpt>
    <trkpt lat="56.560783" lon="60.92126">
        <ele>244.0</ele>
        <time>2022-06-29T15:20:17.792Z</time>
    </trkpt>
    <trkpt lat="56.5608" lon="60.921238">
        <ele>243.8</ele>
        <time>2022-06-29T15:20:18.830Z</time>
    </trkpt>
    <trkpt lat="56.560831" lon="60.921206">
        <ele>243.7</ele>
        <time>2022-06-29T15:20:20.603Z</time>
    </trkpt>
    <trkpt lat="56.56087" lon="60.921131">
        <ele>243.6</ele>
        <time>2022-06-29T15:20:23.429Z</time>
    </trkpt>
    <trkpt lat="56.56093" lon="60.921044">
        <ele>243.5</ele>
        <time>2022-06-29T15:20:27.248Z</time>
    </trkpt>
    <trkpt lat="56.560981" lon="60.920996">
        <ele>243.5</ele>
        <time>2022-06-29T15:20:30.105Z</time>
    </trkpt>
    <trkpt lat="56.561032" lon="60.920941">
        <ele>243.5</ele>
        <time>2022-06-29T15:20:33.055Z</time>
    </trkpt>
    <trkpt lat="56.561073" lon="60.920895">
        <ele>243.5</ele>
        <time>2022-06-29T15:20:35.452Z</time>
    </trkpt>
    <trkpt lat="56.561122" lon="60.920839">
        <ele>243.5</ele>
        <time>2022-06-29T15:20:38.332Z</time>
    </trkpt>
    <trkpt lat="56.561177" lon="60.920782">
        <ele>243.5</ele>
        <time>2022-06-29T15:20:41.482Z</time>
    </trkpt>
    <trkpt lat="56.561238" lon="60.920724">
        <ele>243.5</ele>
        <time>2022-06-29T15:20:44.907Z</time>
    </trkpt>
    <trkpt lat="56.561302" lon="60.920657">
        <ele>243.5</ele>
        <time>2022-06-29T15:20:48.581Z</time>
    </trkpt>
    <trkpt lat="56.561373" lon="60.920571">
        <ele>243.4</ele>
        <time>2022-06-29T15:20:52.826Z</time>
    </trkpt>
    <trkpt lat="56.561443" lon="60.920485">
        <ele>243.3</ele>
        <time>2022-06-29T15:20:57.030Z</time>
    </trkpt>
    <trkpt lat="56.561526" lon="60.920401">
        <ele>243.2</ele>
        <time>2022-06-29T15:21:01.756Z</time>
    </trkpt>
    <trkpt lat="56.561617" lon="60.920288">
        <ele>243.0</ele>
        <time>2022-06-29T15:21:07.240Z</time>
    </trkpt>
    <trkpt lat="56.561689" lon="60.920209">
        <ele>242.8</ele>
        <time>2022-06-29T15:21:11.424Z</time>
    </trkpt>
    <trkpt lat="56.561742" lon="60.920164">
        <ele>242.7</ele>
        <time>2022-06-29T15:21:14.334Z</time>
    </trkpt>
    <trkpt lat="56.561796" lon="60.920112">
        <ele>242.6</ele>
        <time>2022-06-29T15:21:17.374Z</time>
    </trkpt>
    <trkpt lat="56.561864" lon="60.920059">
        <ele>242.5</ele>
        <time>2022-06-29T15:21:21.054Z</time>
    </trkpt>
    <trkpt lat="56.561932" lon="60.919989">
        <ele>242.3</ele>
        <time>2022-06-29T15:21:24.942Z</time>
    </trkpt>
    <trkpt lat="56.562011" lon="60.919891">
        <ele>242.3</ele>
        <time>2022-06-29T15:21:29.701Z</time>
    </trkpt>
    <trkpt lat="56.562082" lon="60.919809">
        <ele>242.2</ele>
        <time>2022-06-29T15:21:33.886Z</time>
    </trkpt>
    <trkpt lat="56.562147" lon="60.919716">
        <ele>242.0</ele>
        <time>2022-06-29T15:21:38.002Z</time>
    </trkpt>
    <trkpt lat="56.562217" lon="60.919602">
        <ele>241.7</ele>
        <time>2022-06-29T15:21:42.680Z</time>
    </trkpt>
    <trkpt lat="56.56227" lon="60.919532">
        <ele>241.4</ele>
        <time>2022-06-29T15:21:45.940Z</time>
    </trkpt>
    <trkpt lat="56.562321" lon="60.919454">
        <ele>241.2</ele>
        <time>2022-06-29T15:21:49.257Z</time>
    </trkpt>
    <trkpt lat="56.562374" lon="60.919379">
        <ele>241.0</ele>
        <time>2022-06-29T15:21:52.599Z</time>
    </trkpt>
    <trkpt lat="56.562427" lon="60.91928">
        <ele>240.7</ele>
        <time>2022-06-29T15:21:56.382Z</time>
    </trkpt>
    <trkpt lat="56.562487" lon="60.919196">
        <ele>240.0</ele>
        <time>2022-06-29T15:22:00.151Z</time>
    </trkpt>
    <trkpt lat="56.562549" lon="60.919121">
        <ele>239.9</ele>
        <time>2022-06-29T15:22:03.857Z</time>
    </trkpt>
    <trkpt lat="56.562609" lon="60.919057">
        <ele>239.8</ele>
        <time>2022-06-29T15:22:07.318Z</time>
    </trkpt>
    <trkpt lat="56.562669" lon="60.918984">
        <ele>239.9</ele>
        <time>2022-06-29T15:22:10.910Z</time>
    </trkpt>
    <trkpt lat="56.562723" lon="60.918934">
        <ele>240.3</ele>
        <time>2022-06-29T15:22:13.925Z</time>
    </trkpt>
    <trkpt lat="56.56278" lon="60.918859">
        <ele>240.0</ele>
        <time>2022-06-29T15:22:17.426Z</time>
    </trkpt>
    <trkpt lat="56.562829" lon="60.918773">
        <ele>236.6</ele>
        <time>2022-06-29T15:22:20.816Z</time>
    </trkpt>
    <trkpt lat="56.562881" lon="60.918733">
        <ele>202.6</ele>
        <time>2022-06-29T15:22:23.625Z</time>
    </trkpt>
    <trkpt lat="56.562938" lon="60.918672">
        <ele>205.0</ele>
        <time>2022-06-29T15:22:26.916Z</time>
    </trkpt>
    <trkpt lat="56.562976" lon="60.918605">
        <ele>208.1</ele>
        <time>2022-06-29T15:22:29.551Z</time>
    </trkpt>
    <trkpt lat="56.56301" lon="60.91854">
        <ele>212.2</ele>
        <time>2022-06-29T15:22:32.007Z</time>
    </trkpt>
    <trkpt lat="56.56304" lon="60.918467">
        <ele>217.4</ele>
        <time>2022-06-29T15:22:34.502Z</time>
    </trkpt>
    <trkpt lat="56.563066" lon="60.918387">
        <ele>224.0</ele>
        <time>2022-06-29T15:22:37.047Z</time>
    </trkpt>
    <trkpt lat="56.56309" lon="60.918344">
        <ele>232.2</ele>
        <time>2022-06-29T15:22:38.724Z</time>
    </trkpt>
    <trkpt lat="56.563113" lon="60.918284">
        <ele>242.2</ele>
        <time>2022-06-29T15:22:40.727Z</time>
    </trkpt>
    <trkpt lat="56.563145" lon="60.918226">
        <ele>241.2</ele>
        <time>2022-06-29T15:22:42.976Z</time>
    </trkpt>
    <trkpt lat="56.563179" lon="60.918158">
        <ele>240.6</ele>
        <time>2022-06-29T15:22:45.492Z</time>
    </trkpt>
    <trkpt lat="56.563211" lon="60.918103">
        <ele>240.2</ele>
        <time>2022-06-29T15:22:47.684Z</time>
    </trkpt>
    <trkpt lat="56.563246" lon="60.918037">
        <ele>239.8</ele>
        <time>2022-06-29T15:22:50.194Z</time>
    </trkpt>
    <trkpt lat="56.563263" lon="60.917972">
        <ele>239.5</ele>
        <time>2022-06-29T15:22:52.165Z</time>
    </trkpt>
    <trkpt lat="56.56328" lon="60.917939">
        <ele>239.2</ele>
        <time>2022-06-29T15:22:53.403Z</time>
    </trkpt>
    <trkpt lat="56.563295" lon="60.917887">
        <ele>238.9</ele>
        <time>2022-06-29T15:22:55.011Z</time>
    </trkpt>
    <trkpt lat="56.56331" lon="60.917853">
        <ele>238.6</ele>
        <time>2022-06-29T15:22:56.204Z</time>
    </trkpt>
    <trkpt lat="56.563328" lon="60.917817">
        <ele>238.5</ele>
        <time>2022-06-29T15:22:57.536Z</time>
    </trkpt>
    <trkpt lat="56.563345" lon="60.917781">
        <ele>238.2</ele>
        <time>2022-06-29T15:22:58.835Z</time>
    </trkpt>
    <trkpt lat="56.563357" lon="60.917746">
        <ele>238.1</ele>
        <time>2022-06-29T15:22:59.964Z</time>
    </trkpt>
    <trkpt lat="56.563358" lon="60.917715">
        <ele>237.9</ele>
        <time>2022-06-29T15:23:00.815Z</time>
    </trkpt>
    <trkpt lat="56.563366" lon="60.917681">
        <ele>237.9</ele>
        <time>2022-06-29T15:23:01.828Z</time>
    </trkpt>
    <trkpt lat="56.563356" lon="60.917645">
        <ele>238.0</ele>
        <time>2022-06-29T15:23:02.932Z</time>
    </trkpt>
    <trkpt lat="56.563344" lon="60.917609">
        <ele>238.2</ele>
        <time>2022-06-29T15:23:04.085Z</time>
    </trkpt>
    <trkpt lat="56.563322" lon="60.917571">
        <ele>238.4</ele>
        <time>2022-06-29T15:23:05.595Z</time>
    </trkpt>
    <trkpt lat="56.563306" lon="60.917543">
        <ele>238.5</ele>
        <time>2022-06-29T15:23:06.700Z</time>
    </trkpt>
    <trkpt lat="56.563296" lon="60.917504">
        <ele>238.6</ele>
        <time>2022-06-29T15:23:07.878Z</time>
    </trkpt>
    <trkpt lat="56.563293" lon="60.917484">
        <ele>238.9</ele>
        <time>2022-06-29T15:23:08.446Z</time>
    </trkpt>
    <trkpt lat="56.563283" lon="60.917455">
        <ele>239.2</ele>
        <time>2022-06-29T15:23:09.383Z</time>
    </trkpt>
    <trkpt lat="56.563268" lon="60.917415">
        <ele>239.4</ele>
        <time>2022-06-29T15:23:10.709Z</time>
    </trkpt>
    <trkpt lat="56.563259" lon="60.917386">
        <ele>239.5</ele>
        <time>2022-06-29T15:23:11.621Z</time>
    </trkpt>
    <trkpt lat="56.563253" lon="60.917353">
        <ele>239.6</ele>
        <time>2022-06-29T15:23:12.573Z</time>
    </trkpt>
    <trkpt lat="56.563246" lon="60.917323">
        <ele>239.8</ele>
        <time>2022-06-29T15:23:13.465Z</time>
    </trkpt>
    <trkpt lat="56.563231" lon="60.917278">
        <ele>239.8</ele>
        <time>2022-06-29T15:23:14.906Z</time>
    </trkpt>
    <trkpt lat="56.563228" lon="60.917246">
        <ele>240.0</ele>
        <time>2022-06-29T15:23:15.795Z</time>
    </trkpt>
    <trkpt lat="56.563225" lon="60.917206">
        <ele>240.2</ele>
        <time>2022-06-29T15:23:16.901Z</time>
    </trkpt>
    <trkpt lat="56.563223" lon="60.917148">
        <ele>240.5</ele>
        <time>2022-06-29T15:23:18.493Z</time>
    </trkpt>
    <trkpt lat="56.563223" lon="60.917074">
        <ele>240.7</ele>
        <time>2022-06-29T15:23:20.521Z</time>
    </trkpt>
    <trkpt lat="56.563229" lon="60.91702">
        <ele>240.8</ele>
        <time>2022-06-29T15:23:22.030Z</time>
    </trkpt>
    <trkpt lat="56.563241" lon="60.916985">
        <ele>240.9</ele>
        <time>2022-06-29T15:23:23.159Z</time>
    </trkpt>
    <trkpt lat="56.563253" lon="60.916921">
        <ele>240.7</ele>
        <time>2022-06-29T15:23:25.011Z</time>
    </trkpt>
    <trkpt lat="56.563258" lon="60.916842">
        <ele>240.4</ele>
        <time>2022-06-29T15:23:27.190Z</time>
    </trkpt>
    <trkpt lat="56.563259" lon="60.916749">
        <ele>240.4</ele>
        <time>2022-06-29T15:23:29.739Z</time>
    </trkpt>
    <trkpt lat="56.56326" lon="60.916648">
        <ele>240.8</ele>
        <time>2022-06-29T15:23:32.507Z</time>
    </trkpt>
    <trkpt lat="56.563272" lon="60.916526">
        <ele>240.8</ele>
        <time>2022-06-29T15:23:35.903Z</time>
    </trkpt>
    <trkpt lat="56.563279" lon="60.916408">
        <ele>240.7</ele>
        <time>2022-06-29T15:23:39.155Z</time>
    </trkpt>
    <trkpt lat="56.563282" lon="60.916309">
        <ele>240.6</ele>
        <time>2022-06-29T15:23:41.872Z</time>
    </trkpt>
    <trkpt lat="56.563287" lon="60.916219">
        <ele>240.5</ele>
        <time>2022-06-29T15:23:44.351Z</time>
    </trkpt>
    <trkpt lat="56.563294" lon="60.916141">
        <ele>240.4</ele>
        <time>2022-06-29T15:23:46.516Z</time>
    </trkpt>
    <trkpt lat="56.563292" lon="60.916107">
        <ele>240.3</ele>
        <time>2022-06-29T15:23:47.453Z</time>
    </trkpt>
    <trkpt lat="56.563287" lon="60.916031">
        <ele>240.2</ele>
        <time>2022-06-29T15:23:49.550Z</time>
    </trkpt>
    <trkpt lat="56.563282" lon="60.915997">
        <ele>240.2</ele>
        <time>2022-06-29T15:23:50.514Z</time>
    </trkpt>
    <trkpt lat="56.563274" lon="60.915952">
        <ele>240.2</ele>
        <time>2022-06-29T15:23:51.809Z</time>
    </trkpt>
    <trkpt lat="56.56326" lon="60.915866">
        <ele>240.2</ele>
        <time>2022-06-29T15:23:54.266Z</time>
    </trkpt>
    <trkpt lat="56.563252" lon="60.915758">
        <ele>240.2</ele>
        <time>2022-06-29T15:23:57.252Z</time>
    </trkpt>
    <trkpt lat="56.563246" lon="60.915686">
        <ele>240.3</ele>
        <time>2022-06-29T15:23:59.247Z</time>
    </trkpt>
    <trkpt lat="56.563247" lon="60.915645">
        <ele>240.4</ele>
        <time>2022-06-29T15:24:00.371Z</time>
    </trkpt>
    <trkpt lat="56.56325" lon="60.915593">
        <ele>240.5</ele>
        <time>2022-06-29T15:24:01.803Z</time>
    </trkpt>
    <trkpt lat="56.563255" lon="60.915514">
        <ele>240.7</ele>
        <time>2022-06-29T15:24:03.982Z</time>
    </trkpt>
    <trkpt lat="56.563262" lon="60.915426">
        <ele>240.8</ele>
        <time>2022-06-29T15:24:06.418Z</time>
    </trkpt>
    <trkpt lat="56.56327" lon="60.915357">
        <ele>240.9</ele>
        <time>2022-06-29T15:24:08.350Z</time>
    </trkpt>
    <trkpt lat="56.563287" lon="60.915288">
        <ele>240.9</ele>
        <time>2022-06-29T15:24:10.421Z</time>
    </trkpt>
    <trkpt lat="56.563303" lon="60.915233">
        <ele>240.9</ele>
        <time>2022-06-29T15:24:12.125Z</time>
    </trkpt>
    <trkpt lat="56.563324" lon="60.915166">
        <ele>240.9</ele>
        <time>2022-06-29T15:24:14.237Z</time>
    </trkpt>
    <trkpt lat="56.563343" lon="60.915091">
        <ele>240.7</ele>
        <time>2022-06-29T15:24:16.499Z</time>
    </trkpt>
    <trkpt lat="56.563359" lon="60.915023">
        <ele>240.5</ele>
        <time>2022-06-29T15:24:18.525Z</time>
    </trkpt>
    <trkpt lat="56.563377" lon="60.91494">
        <ele>240.4</ele>
        <time>2022-06-29T15:24:20.969Z</time>
    </trkpt>
    <trkpt lat="56.563401" lon="60.914802">
        <ele>240.5</ele>
        <time>2022-06-29T15:24:24.934Z</time>
    </trkpt>
    <trkpt lat="56.563414" lon="60.914681">
        <ele>240.6</ele>
        <time>2022-06-29T15:24:28.312Z</time>
    </trkpt>
    <trkpt lat="56.56342" lon="60.914579">
        <ele>240.7</ele>
        <time>2022-06-29T15:24:31.123Z</time>
    </trkpt>
    <trkpt lat="56.563425" lon="60.914476">
        <ele>240.8</ele>
        <time>2022-06-29T15:24:33.956Z</time>
    </trkpt>
    <trkpt lat="56.563432" lon="60.914356">
        <ele>241.0</ele>
        <time>2022-06-29T15:24:37.263Z</time>
    </trkpt>
    <trkpt lat="56.56343" lon="60.914268">
        <ele>241.1</ele>
        <time>2022-06-29T15:24:39.676Z</time>
    </trkpt>
    <trkpt lat="56.56344" lon="60.914143">
        <ele>241.3</ele>
        <time>2022-06-29T15:24:43.137Z</time>
    </trkpt>
    <trkpt lat="56.563445" lon="60.914027">
        <ele>241.4</ele>
        <time>2022-06-29T15:24:46.325Z</time>
    </trkpt>
    <trkpt lat="56.563455" lon="60.913921">
        <ele>241.5</ele>
        <time>2022-06-29T15:24:49.272Z</time>
    </trkpt>
    <trkpt lat="56.56346" lon="60.913803">
        <ele>241.7</ele>
        <time>2022-06-29T15:24:52.515Z</time>
    </trkpt>
    <trkpt lat="56.563466" lon="60.913698">
        <ele>241.9</ele>
        <time>2022-06-29T15:24:55.408Z</time>
    </trkpt>
    <trkpt lat="56.563474" lon="60.913568">
        <ele>242.1</ele>
        <time>2022-06-29T15:24:58.992Z</time>
    </trkpt>
    <trkpt lat="56.56348" lon="60.913406">
        <ele>242.4</ele>
        <time>2022-06-29T15:25:03.441Z</time>
    </trkpt>
    <trkpt lat="56.563486" lon="60.913251">
        <ele>242.5</ele>
        <time>2022-06-29T15:25:07.699Z</time>
    </trkpt>
    <trkpt lat="56.563506" lon="60.913116">
        <ele>242.7</ele>
        <time>2022-06-29T15:25:11.530Z</time>
    </trkpt>
    <trkpt lat="56.563523" lon="60.913028">
        <ele>242.8</ele>
        <time>2022-06-29T15:25:14.085Z</time>
    </trkpt>
    <trkpt lat="56.563553" lon="60.912924">
        <ele>242.8</ele>
        <time>2022-06-29T15:25:17.302Z</time>
    </trkpt>
    <trkpt lat="56.563583" lon="60.91282">
        <ele>242.9</ele>
        <time>2022-06-29T15:25:20.519Z</time>
    </trkpt>
    <trkpt lat="56.563611" lon="60.912721">
        <ele>242.8</ele>
        <time>2022-06-29T15:25:23.568Z</time>
    </trkpt>
    <trkpt lat="56.563629" lon="60.912617">
        <ele>242.8</ele>
        <time>2022-06-29T15:25:26.555Z</time>
    </trkpt>
    <trkpt lat="56.56365" lon="60.912516">
        <ele>242.5</ele>
        <time>2022-06-29T15:25:29.513Z</time>
    </trkpt>
    <trkpt lat="56.563675" lon="60.912424">
        <ele>242.3</ele>
        <time>2022-06-29T15:25:32.324Z</time>
    </trkpt>
    <trkpt lat="56.563701" lon="60.912346">
        <ele>241.9</ele>
        <time>2022-06-29T15:25:34.822Z</time>
    </trkpt>
    <trkpt lat="56.563728" lon="60.912275">
        <ele>241.5</ele>
        <time>2022-06-29T15:25:37.186Z</time>
    </trkpt>
    <trkpt lat="56.563754" lon="60.912212">
        <ele>241.0</ele>
        <time>2022-06-29T15:25:39.343Z</time>
    </trkpt>
    <trkpt lat="56.563777" lon="60.912118">
        <ele>240.5</ele>
        <time>2022-06-29T15:25:42.161Z</time>
    </trkpt>
    <trkpt lat="56.563789" lon="60.912005">
        <ele>240.3</ele>
        <time>2022-06-29T15:25:45.314Z</time>
    </trkpt>
    <trkpt lat="56.563805" lon="60.911906">
        <ele>240.2</ele>
        <time>2022-06-29T15:25:48.141Z</time>
    </trkpt>
    <trkpt lat="56.563819" lon="60.911811">
        <ele>240.3</ele>
        <time>2022-06-29T15:25:50.836Z</time>
    </trkpt>
    <trkpt lat="56.563841" lon="60.911714">
        <ele>240.8</ele>
        <time>2022-06-29T15:25:53.710Z</time>
    </trkpt>
    <trkpt lat="56.563845" lon="60.911619">
        <ele>241.8</ele>
        <time>2022-06-29T15:25:56.321Z</time>
    </trkpt>
    <trkpt lat="56.563841" lon="60.911513">
        <ele>242.7</ele>
        <time>2022-06-29T15:25:59.232Z</time>
    </trkpt>
    <trkpt lat="56.563835" lon="60.911416">
        <ele>243.2</ele>
        <time>2022-06-29T15:26:01.907Z</time>
    </trkpt>
    <trkpt lat="56.563829" lon="60.911323">
        <ele>243.7</ele>
        <time>2022-06-29T15:26:04.473Z</time>
    </trkpt>
    <trkpt lat="56.563823" lon="60.911219">
        <ele>244.2</ele>
        <time>2022-06-29T15:26:07.338Z</time>
    </trkpt>
    <trkpt lat="56.563826" lon="60.911115">
        <ele>244.4</ele>
        <time>2022-06-29T15:26:10.192Z</time>
    </trkpt>
    <trkpt lat="56.563834" lon="60.911015">
        <ele>244.6</ele>
        <time>2022-06-29T15:26:12.961Z</time>
    </trkpt>
    <trkpt lat="56.563852" lon="60.910919">
        <ele>244.6</ele>
        <time>2022-06-29T15:26:15.740Z</time>
    </trkpt>
    <trkpt lat="56.563856" lon="60.910881">
        <ele>244.7</ele>
        <time>2022-06-29T15:26:16.800Z</time>
    </trkpt>
    <trkpt lat="56.563855" lon="60.910829">
        <ele>245.1</ele>
        <time>2022-06-29T15:26:18.225Z</time>
    </trkpt>
    <trkpt lat="56.563848" lon="60.910741">
        <ele>245.5</ele>
        <time>2022-06-29T15:26:20.661Z</time>
    </trkpt>
    <trkpt lat="56.56384753472764" lon="60.91070554549431">
        <ele>245.6</ele>
        <time>2022-06-29T15:26:22.144Z</time>
    </trkpt>
    <trkpt lat="56.56384693055581" lon="60.910689300195315">
        <ele>245.6</ele>
        <time>2022-06-29T15:26:22.886Z</time>
    </trkpt>
    <trkpt lat="56.563847" lon="60.910656">
        <ele>245.4</ele>
        <time>2022-06-29T15:26:33.835Z</time>
    </trkpt>
    <trkpt lat="56.563876" lon="60.910588">
        <ele>245.6</ele>
        <time>2022-06-29T15:27:06.510Z</time>
    </trkpt>
    <trkpt lat="56.56389052237441" lon="60.91052770384787">
        <ele>247.6</ele>
        <time>2022-06-29T15:28:17.032Z</time>
    </trkpt>
    <trkpt lat="56.563893" lon="60.91052">
        <ele>247.7</ele>
        <time>2022-06-29T15:28:17.320Z</time>
    </trkpt>
    <trkpt lat="56.563889" lon="60.910496">
        <ele>247.9</ele>
        <time>2022-06-29T15:28:18.007Z</time>
    </trkpt>
    <trkpt lat="56.563894" lon="60.910472">
        <ele>248.2</ele>
        <time>2022-06-29T15:28:18.710Z</time>
    </trkpt>
    <trkpt lat="56.5638974642643" lon="60.91046170883588">
        <ele>248.3</ele>
        <time>2022-06-29T15:28:19.118Z</time>
    </trkpt>
    <trkpt lat="56.563902" lon="60.910446">
        <ele>248.4</ele>
        <time>2022-06-29T15:28:19.526Z</time>
    </trkpt>
    <trkpt lat="56.563904" lon="60.910442">
        <ele>248.7</ele>
        <time>2022-06-29T15:28:19.674Z</time>
    </trkpt>
    <trkpt lat="56.563902" lon="60.910401">
        <ele>249.1</ele>
        <time>2022-06-29T15:28:20.802Z</time>
    </trkpt>
    <trkpt lat="56.563903" lon="60.91037">
        <ele>249.4</ele>
        <time>2022-06-29T15:28:21.653Z</time>
    </trkpt>
    <trkpt lat="56.56391" lon="60.910337">
        <ele>249.8</ele>
        <time>2022-06-29T15:28:22.622Z</time>
    </trkpt>
    <trkpt lat="56.563904" lon="60.910293">
        <ele>250.2</ele>
        <time>2022-06-29T15:28:23.864Z</time>
    </trkpt>
    <trkpt lat="56.563894" lon="60.910228">
        <ele>250.6</ele>
        <time>2022-06-29T15:28:25.713Z</time>
    </trkpt>
    <trkpt lat="56.563881" lon="60.910134">
        <ele>251.0</ele>
        <time>2022-06-29T15:28:28.369Z</time>
    </trkpt>
    <trkpt lat="56.563868" lon="60.910036">
        <ele>251.5</ele>
        <time>2022-06-29T15:28:31.131Z</time>
    </trkpt>
    <trkpt lat="56.563871" lon="60.909923">
        <ele>251.9</ele>
        <time>2022-06-29T15:28:34.231Z</time>
    </trkpt>
    <trkpt lat="56.563872" lon="60.909828">
        <ele>252.3</ele>
        <time>2022-06-29T15:28:36.835Z</time>
    </trkpt>
    <trkpt lat="56.563875" lon="60.909751">
        <ele>252.6</ele>
        <time>2022-06-29T15:28:38.950Z</time>
    </trkpt>
    <trkpt lat="56.563877" lon="60.909661">
        <ele>252.9</ele>
        <time>2022-06-29T15:28:41.418Z</time>
    </trkpt>
    <trkpt lat="56.563879" lon="60.909575">
        <ele>253.2</ele>
        <time>2022-06-29T15:28:43.777Z</time>
    </trkpt>
    <trkpt lat="56.563891" lon="60.909487">
        <ele>253.6</ele>
        <time>2022-06-29T15:28:46.261Z</time>
    </trkpt>
    <trkpt lat="56.563892" lon="60.909403">
        <ele>253.9</ele>
        <time>2022-06-29T15:28:48.563Z</time>
    </trkpt>
    <trkpt lat="56.563884" lon="60.909339">
        <ele>254.2</ele>
        <time>2022-06-29T15:28:50.361Z</time>
    </trkpt>
    <trkpt lat="56.563878" lon="60.90929">
        <ele>254.6</ele>
        <time>2022-06-29T15:28:51.736Z</time>
    </trkpt>
    <trkpt lat="56.563869" lon="60.909227">
        <ele>254.9</ele>
        <time>2022-06-29T15:28:53.519Z</time>
    </trkpt>
    <trkpt lat="56.563854" lon="60.909169">
        <ele>255.2</ele>
        <time>2022-06-29T15:28:55.274Z</time>
    </trkpt>
    <trkpt lat="56.56383" lon="60.909105">
        <ele>255.5</ele>
        <time>2022-06-29T15:28:57.395Z</time>
    </trkpt>
    <trkpt lat="56.563821" lon="60.909042">
        <ele>255.7</ele>
        <time>2022-06-29T15:28:59.178Z</time>
    </trkpt>
    <trkpt lat="56.563817" lon="60.908973">
        <ele>255.9</ele>
        <time>2022-06-29T15:29:01.079Z</time>
    </trkpt>
    <trkpt lat="56.563814" lon="60.908887">
        <ele>256.0</ele>
        <time>2022-06-29T15:29:03.440Z</time>
    </trkpt>
    <trkpt lat="56.563813" lon="60.908801">
        <ele>256.2</ele>
        <time>2022-06-29T15:29:05.797Z</time>
    </trkpt>
    <trkpt lat="56.563819" lon="60.908728">
        <ele>256.3</ele>
        <time>2022-06-29T15:29:07.819Z</time>
    </trkpt>
    <trkpt lat="56.56384" lon="60.908639">
        <ele>256.5</ele>
        <time>2022-06-29T15:29:10.472Z</time>
    </trkpt>
    <trkpt lat="56.563858" lon="60.908558">
        <ele>256.7</ele>
        <time>2022-06-29T15:29:12.865Z</time>
    </trkpt>
    <trkpt lat="56.563874" lon="60.908491">
        <ele>257.0</ele>
        <time>2022-06-29T15:29:14.866Z</time>
    </trkpt>
    <trkpt lat="56.563897" lon="60.908432">
        <ele>257.2</ele>
        <time>2022-06-29T15:29:16.846Z</time>
    </trkpt>
    <trkpt lat="56.56391" lon="60.90838">
        <ele>257.5</ele>
        <time>2022-06-29T15:29:18.410Z</time>
    </trkpt>
    <trkpt lat="56.563914" lon="60.908345">
        <ele>257.7</ele>
        <time>2022-06-29T15:29:19.389Z</time>
    </trkpt>
    <trkpt lat="56.563913" lon="60.908301">
        <ele>257.9</ele>
        <time>2022-06-29T15:29:20.595Z</time>
    </trkpt>
    <trkpt lat="56.563908" lon="60.908254">
        <ele>258.2</ele>
        <time>2022-06-29T15:29:21.906Z</time>
    </trkpt>
    <trkpt lat="56.563906" lon="60.908186">
        <ele>258.4</ele>
        <time>2022-06-29T15:29:23.772Z</time>
    </trkpt>
    <trkpt lat="56.563912" lon="60.908113">
        <ele>258.7</ele>
        <time>2022-06-29T15:29:25.794Z</time>
    </trkpt>
    <trkpt lat="56.563935" lon="60.908043">
        <ele>258.9</ele>
        <time>2022-06-29T15:29:28.027Z</time>
    </trkpt>
    <trkpt lat="56.563959" lon="60.907955">
        <ele>259.1</ele>
        <time>2022-06-29T15:29:30.717Z</time>
    </trkpt>
    <trkpt lat="56.563991" lon="60.907882">
        <ele>259.2</ele>
        <time>2022-06-29T15:29:33.273Z</time>
    </trkpt>
    <trkpt lat="56.564025" lon="60.907828">
        <ele>259.2</ele>
        <time>2022-06-29T15:29:35.520Z</time>
    </trkpt>
    <trkpt lat="56.564056" lon="60.907767">
        <ele>259.2</ele>
        <time>2022-06-29T15:29:37.794Z</time>
    </trkpt>
    <trkpt lat="56.564085" lon="60.907686">
        <ele>259.2</ele>
        <time>2022-06-29T15:29:40.441Z</time>
    </trkpt>
    <trkpt lat="56.564109" lon="60.907589">
        <ele>259.2</ele>
        <time>2022-06-29T15:29:43.355Z</time>
    </trkpt>
    <trkpt lat="56.564139" lon="60.907493">
        <ele>259.1</ele>
        <time>2022-06-29T15:29:46.379Z</time>
    </trkpt>
    <trkpt lat="56.564177" lon="60.907407">
        <ele>259.0</ele>
        <time>2022-06-29T15:29:49.400Z</time>
    </trkpt>
    <trkpt lat="56.564211" lon="60.907311">
        <ele>258.9</ele>
        <time>2022-06-29T15:29:52.527Z</time>
    </trkpt>
    <trkpt lat="56.564239" lon="60.9072">
        <ele>258.8</ele>
        <time>2022-06-29T15:29:55.872Z</time>
    </trkpt>
    <trkpt lat="56.564265" lon="60.907101">
        <ele>258.7</ele>
        <time>2022-06-29T15:29:58.877Z</time>
    </trkpt>
    <trkpt lat="56.564294" lon="60.907011">
        <ele>258.6</ele>
        <time>2022-06-29T15:30:01.734Z</time>
    </trkpt>
    <trkpt lat="56.564323" lon="60.906933">
        <ele>258.4</ele>
        <time>2022-06-29T15:30:04.312Z</time>
    </trkpt>
    <trkpt lat="56.564356" lon="60.906854">
        <ele>258.2</ele>
        <time>2022-06-29T15:30:07.028Z</time>
    </trkpt>
    <trkpt lat="56.564395" lon="60.906784">
        <ele>257.8</ele>
        <time>2022-06-29T15:30:09.756Z</time>
    </trkpt>
    <trkpt lat="56.564432" lon="60.906714">
        <ele>257.2</ele>
        <time>2022-06-29T15:30:12.414Z</time>
    </trkpt>
    <trkpt lat="56.564466" lon="60.906652">
        <ele>257.1</ele>
        <time>2022-06-29T15:30:14.811Z</time>
    </trkpt>
    <trkpt lat="56.564501" lon="60.906594">
        <ele>256.7</ele>
        <time>2022-06-29T15:30:17.168Z</time>
    </trkpt>
    <trkpt lat="56.564535" lon="60.906541">
        <ele>256.6</ele>
        <time>2022-06-29T15:30:19.397Z</time>
    </trkpt>
    <trkpt lat="56.564578" lon="60.906474">
        <ele>256.5</ele>
        <time>2022-06-29T15:30:22.215Z</time>
    </trkpt>
    <trkpt lat="56.564618" lon="60.906411">
        <ele>256.4</ele>
        <time>2022-06-29T15:30:24.849Z</time>
    </trkpt>
    <trkpt lat="56.564659" lon="60.906349">
        <ele>256.5</ele>
        <time>2022-06-29T15:30:27.503Z</time>
    </trkpt>
    <trkpt lat="56.564683" lon="60.906298">
        <ele>256.6</ele>
        <time>2022-06-29T15:30:29.341Z</time>
    </trkpt>
    <trkpt lat="56.564707" lon="60.906255">
        <ele>256.8</ele>
        <time>2022-06-29T15:30:31.018Z</time>
    </trkpt>
    <trkpt lat="56.564722" lon="60.906198">
        <ele>257.1</ele>
        <time>2022-06-29T15:30:32.749Z</time>
    </trkpt>
    <trkpt lat="56.564733" lon="60.906146">
        <ele>257.4</ele>
        <time>2022-06-29T15:30:34.275Z</time>
    </trkpt>
    <trkpt lat="56.564743" lon="60.906079">
        <ele>257.7</ele>
        <time>2022-06-29T15:30:36.177Z</time>
    </trkpt>
    <trkpt lat="56.564742" lon="60.906011">
        <ele>258.1</ele>
        <time>2022-06-29T15:30:38.041Z</time>
    </trkpt>
    <trkpt lat="56.564739" lon="60.905936">
        <ele>258.6</ele>
        <time>2022-06-29T15:30:40.101Z</time>
    </trkpt>
    <trkpt lat="56.564727" lon="60.905851">
        <ele>259.1</ele>
        <time>2022-06-29T15:30:42.505Z</time>
    </trkpt>
    <trkpt lat="56.564709" lon="60.905768">
        <ele>259.5</ele>
        <time>2022-06-29T15:30:44.949Z</time>
    </trkpt>
    <trkpt lat="56.564704" lon="60.9057">
        <ele>259.9</ele>
        <time>2022-06-29T15:30:46.829Z</time>
    </trkpt>
    <trkpt lat="56.564701" lon="60.905637">
        <ele>260.3</ele>
        <time>2022-06-29T15:30:48.561Z</time>
    </trkpt>
    <trkpt lat="56.564711" lon="60.905569">
        <ele>260.7</ele>
        <time>2022-06-29T15:30:50.489Z</time>
    </trkpt>
    <trkpt lat="56.564711" lon="60.905505">
        <ele>261.1</ele>
        <time>2022-06-29T15:30:52.242Z</time>
    </trkpt>
    <trkpt lat="56.564702" lon="60.905459">
        <ele>261.4</ele>
        <time>2022-06-29T15:30:53.579Z</time>
    </trkpt>
    <trkpt lat="56.564697" lon="60.905436">
        <ele>261.7</ele>
        <time>2022-06-29T15:30:54.256Z</time>
    </trkpt>
    <trkpt lat="56.564688" lon="60.905408">
        <ele>262.0</ele>
        <time>2022-06-29T15:30:55.144Z</time>
    </trkpt>
    <trkpt lat="56.56467740959492" lon="60.905397433154995">
        <ele>262.1</ele>
        <time>2022-06-29T15:30:55.745Z</time>
    </trkpt>
    <trkpt lat="56.5648003411014" lon="60.90518178009406">
        <ele>236.7</ele>
        <time>2022-06-29T15:31:04.248Z</time>
    </trkpt>
    <trkpt lat="56.56469" lon="60.904936">
        <ele>237.3</ele>
        <time>2022-06-29T15:31:23.748Z</time>
    </trkpt>
    <trkpt lat="56.56469" lon="60.904936">
        <ele>237.3</ele>
        <time>2022-06-29T15:31:24.748Z</time>
    </trkpt>
    <trkpt lat="56.564686" lon="60.904919">
        <ele>237.4</ele>
        <time>2022-06-29T15:31:25.748Z</time>
    </trkpt>
    <trkpt lat="56.56468" lon="60.904876">
        <ele>237.5</ele>
        <time>2022-06-29T15:31:26.748Z</time>
    </trkpt>
    <trkpt lat="56.564679" lon="60.904855">
        <ele>237.6</ele>
        <time>2022-06-29T15:31:27.748Z</time>
    </trkpt>
    <trkpt lat="56.56467" lon="60.904825">
        <ele>237.7</ele>
        <time>2022-06-29T15:31:28.748Z</time>
    </trkpt>
    <trkpt lat="56.564669" lon="60.904802">
        <ele>237.8</ele>
        <time>2022-06-29T15:31:29.748Z</time>
    </trkpt>
    <trkpt lat="56.564661" lon="60.904753">
        <ele>238.0</ele>
        <time>2022-06-29T15:31:30.748Z</time>
    </trkpt>
    <trkpt lat="56.564669" lon="60.904726">
        <ele>238.1</ele>
        <time>2022-06-29T15:31:31.748Z</time>
    </trkpt>
    <trkpt lat="56.564676" lon="60.904701">
        <ele>238.2</ele>
        <time>2022-06-29T15:31:32.748Z</time>
    </trkpt>
    <trkpt lat="56.564656" lon="60.904689">
        <ele>238.3</ele>
        <time>2022-06-29T15:31:33.748Z</time>
    </trkpt>
    <trkpt lat="56.564617" lon="60.904669">
        <ele>238.6</ele>
        <time>2022-06-29T15:31:34.748Z</time>
    </trkpt>
    <trkpt lat="56.564586" lon="60.904638">
        <ele>238.8</ele>
        <time>2022-06-29T15:31:35.748Z</time>
    </trkpt>
    <trkpt lat="56.564558" lon="60.904596">
        <ele>239.0</ele>
        <time>2022-06-29T15:31:36.748Z</time>
    </trkpt>
    <trkpt lat="56.564526" lon="60.904544">
        <ele>239.3</ele>
        <time>2022-06-29T15:31:37.748Z</time>
    </trkpt>
    <trkpt lat="56.564482" lon="60.904532">
        <ele>239.5</ele>
        <time>2022-06-29T15:31:38.748Z</time>
    </trkpt>
    <trkpt lat="56.564444" lon="60.904492">
        <ele>239.8</ele>
        <time>2022-06-29T15:31:39.748Z</time>
    </trkpt>
    <trkpt lat="56.564416" lon="60.904456">
        <ele>240.0</ele>
        <time>2022-06-29T15:31:40.748Z</time>
    </trkpt>
    <trkpt lat="56.564383" lon="60.904402">
        <ele>240.3</ele>
        <time>2022-06-29T15:31:41.748Z</time>
    </trkpt>
    <trkpt lat="56.564348" lon="60.904333">
        <ele>240.6</ele>
        <time>2022-06-29T15:31:42.748Z</time>
    </trkpt>
    <trkpt lat="56.564333" lon="60.90431">
        <ele>240.7</ele>
        <time>2022-06-29T15:31:43.748Z</time>
    </trkpt>
    <trkpt lat="56.564306" lon="60.904251">
        <ele>241.0</ele>
        <time>2022-06-29T15:31:44.748Z</time>
    </trkpt>
    <trkpt lat="56.564289" lon="60.904221">
        <ele>241.1</ele>
        <time>2022-06-29T15:31:45.748Z</time>
    </trkpt>
    <trkpt lat="56.564259" lon="60.904156">
        <ele>241.4</ele>
        <time>2022-06-29T15:31:46.748Z</time>
    </trkpt>
    <trkpt lat="56.564249" lon="60.90412">
        <ele>241.5</ele>
        <time>2022-06-29T15:31:47.748Z</time>
    </trkpt>
    <trkpt lat="56.564235" lon="60.904052">
        <ele>241.8</ele>
        <time>2022-06-29T15:31:48.748Z</time>
    </trkpt>
    <trkpt lat="56.564205" lon="60.904011">
        <ele>242.0</ele>
        <time>2022-06-29T15:31:49.748Z</time>
    </trkpt>
    <trkpt lat="56.564174" lon="60.903951">
        <ele>242.3</ele>
        <time>2022-06-29T15:31:50.748Z</time>
    </trkpt>
    <trkpt lat="56.564146" lon="60.9039">
        <ele>242.5</ele>
        <time>2022-06-29T15:31:51.748Z</time>
    </trkpt>
    <trkpt lat="56.564125" lon="60.903843">
        <ele>242.8</ele>
        <time>2022-06-29T15:31:52.748Z</time>
    </trkpt>
    <trkpt lat="56.564107" lon="60.903788">
        <ele>243.0</ele>
        <time>2022-06-29T15:31:53.748Z</time>
    </trkpt>
    <trkpt lat="56.564086" lon="60.903733">
        <ele>243.2</ele>
        <time>2022-06-29T15:31:54.748Z</time>
    </trkpt>
    <trkpt lat="56.564064" lon="60.903692">
        <ele>243.4</ele>
        <time>2022-06-29T15:31:55.748Z</time>
    </trkpt>
    <trkpt lat="56.564042" lon="60.903632">
        <ele>243.7</ele>
        <time>2022-06-29T15:31:56.748Z</time>
    </trkpt>
    <trkpt lat="56.564013" lon="60.903553">
        <ele>244.0</ele>
        <time>2022-06-29T15:31:57.748Z</time>
    </trkpt>
    <trkpt lat="56.563992" lon="60.903489">
        <ele>244.2</ele>
        <time>2022-06-29T15:31:58.748Z</time>
    </trkpt>
    <trkpt lat="56.563957" lon="60.903423">
        <ele>244.5</ele>
        <time>2022-06-29T15:31:59.748Z</time>
    </trkpt>
    <trkpt lat="56.563925" lon="60.903398">
        <ele>244.7</ele>
        <time>2022-06-29T15:32:00.748Z</time>
    </trkpt>
    <trkpt lat="56.563905" lon="60.903351">
        <ele>245.0</ele>
        <time>2022-06-29T15:32:01.748Z</time>
    </trkpt>
    <trkpt lat="56.56388" lon="60.903293">
        <ele>245.2</ele>
        <time>2022-06-29T15:32:02.748Z</time>
    </trkpt>
    <trkpt lat="56.563856" lon="60.903248">
        <ele>245.4</ele>
        <time>2022-06-29T15:32:03.748Z</time>
    </trkpt>
    <trkpt lat="56.563831" lon="60.903182">
        <ele>245.7</ele>
        <time>2022-06-29T15:32:04.748Z</time>
    </trkpt>
    <trkpt lat="56.563798" lon="60.903079">
        <ele>246.1</ele>
        <time>2022-06-29T15:32:05.748Z</time>
    </trkpt>
    <trkpt lat="56.563761" lon="60.903023">
        <ele>246.4</ele>
        <time>2022-06-29T15:32:06.748Z</time>
    </trkpt>
    <trkpt lat="56.563734" lon="60.902971">
        <ele>246.6</ele>
        <time>2022-06-29T15:32:07.748Z</time>
    </trkpt>
    <trkpt lat="56.563703" lon="60.902926">
        <ele>246.9</ele>
        <time>2022-06-29T15:32:08.748Z</time>
    </trkpt>
    <trkpt lat="56.563661" lon="60.902866">
        <ele>247.2</ele>
        <time>2022-06-29T15:32:09.748Z</time>
    </trkpt>
    <trkpt lat="56.563636" lon="60.902803">
        <ele>247.5</ele>
        <time>2022-06-29T15:32:10.748Z</time>
    </trkpt>
    <trkpt lat="56.563615" lon="60.90271">
        <ele>247.8</ele>
        <time>2022-06-29T15:32:11.748Z</time>
    </trkpt>
    <trkpt lat="56.563599" lon="60.902615">
        <ele>248.1</ele>
        <time>2022-06-29T15:32:12.748Z</time>
    </trkpt>
    <trkpt lat="56.563575" lon="60.902526">
        <ele>248.5</ele>
        <time>2022-06-29T15:32:13.748Z</time>
    </trkpt>
    <trkpt lat="56.563545" lon="60.902471">
        <ele>248.7</ele>
        <time>2022-06-29T15:32:14.748Z</time>
    </trkpt>
    <trkpt lat="56.563521" lon="60.902424">
        <ele>248.9</ele>
        <time>2022-06-29T15:32:15.748Z</time>
    </trkpt>
    <trkpt lat="56.563482" lon="60.90241">
        <ele>249.2</ele>
        <time>2022-06-29T15:32:16.748Z</time>
    </trkpt>
    <trkpt lat="56.563453" lon="60.90238">
        <ele>249.4</ele>
        <time>2022-06-29T15:32:17.748Z</time>
    </trkpt>
    <trkpt lat="56.563422" lon="60.902367">
        <ele>249.6</ele>
        <time>2022-06-29T15:32:18.748Z</time>
    </trkpt>
    <trkpt lat="56.5634" lon="60.902333">
        <ele>249.8</ele>
        <time>2022-06-29T15:32:19.748Z</time>
    </trkpt>
    <trkpt lat="56.563367" lon="60.90231">
        <ele>250.0</ele>
        <time>2022-06-29T15:32:20.748Z</time>
    </trkpt>
    <trkpt lat="56.563331" lon="60.902297">
        <ele>250.2</ele>
        <time>2022-06-29T15:32:21.748Z</time>
    </trkpt>
    <trkpt lat="56.563287" lon="60.902259">
        <ele>250.5</ele>
        <time>2022-06-29T15:32:22.748Z</time>
    </trkpt>
    <trkpt lat="56.563236" lon="60.902193">
        <ele>250.9</ele>
        <time>2022-06-29T15:32:23.748Z</time>
    </trkpt>
    <trkpt lat="56.563204" lon="60.902166">
        <ele>251.1</ele>
        <time>2022-06-29T15:32:24.748Z</time>
    </trkpt>
    <trkpt lat="56.563161" lon="60.902117">
        <ele>251.4</ele>
        <time>2022-06-29T15:32:25.748Z</time>
    </trkpt>
    <trkpt lat="56.563116" lon="60.902031">
        <ele>251.8</ele>
        <time>2022-06-29T15:32:26.748Z</time>
    </trkpt>
    <trkpt lat="56.563089" lon="60.901969">
        <ele>252.1</ele>
        <time>2022-06-29T15:32:27.748Z</time>
    </trkpt>
    <trkpt lat="56.563063" lon="60.901916">
        <ele>252.3</ele>
        <time>2022-06-29T15:32:28.748Z</time>
    </trkpt>
    <trkpt lat="56.563013" lon="60.90183">
        <ele>252.7</ele>
        <time>2022-06-29T15:32:29.748Z</time>
    </trkpt>
    <trkpt lat="56.562987" lon="60.901767">
        <ele>253.0</ele>
        <time>2022-06-29T15:32:30.748Z</time>
    </trkpt>
    <trkpt lat="56.562952" lon="60.90169">
        <ele>253.3</ele>
        <time>2022-06-29T15:32:31.748Z</time>
    </trkpt>
    <trkpt lat="56.562917" lon="60.901644">
        <ele>253.6</ele>
        <time>2022-06-29T15:32:32.748Z</time>
    </trkpt>
    <trkpt lat="56.562873" lon="60.901602">
        <ele>253.9</ele>
        <time>2022-06-29T15:32:33.748Z</time>
    </trkpt>
    <trkpt lat="56.562842" lon="60.901584">
        <ele>254.1</ele>
        <time>2022-06-29T15:32:34.748Z</time>
    </trkpt>
    <trkpt lat="56.562798" lon="60.901557">
        <ele>254.4</ele>
        <time>2022-06-29T15:32:35.748Z</time>
    </trkpt>
    <trkpt lat="56.562755" lon="60.90151">
        <ele>254.7</ele>
        <time>2022-06-29T15:32:36.748Z</time>
    </trkpt>
    <trkpt lat="56.562727" lon="60.901455">
        <ele>255.0</ele>
        <time>2022-06-29T15:32:37.748Z</time>
    </trkpt>
    <trkpt lat="56.562696" lon="60.901391">
        <ele>255.2</ele>
        <time>2022-06-29T15:32:38.748Z</time>
    </trkpt>
    <trkpt lat="56.562671" lon="60.901341">
        <ele>255.5</ele>
        <time>2022-06-29T15:32:39.748Z</time>
    </trkpt>
    <trkpt lat="56.562637" lon="60.901312">
        <ele>255.7</ele>
        <time>2022-06-29T15:32:40.748Z</time>
    </trkpt>
    <trkpt lat="56.562613" lon="60.901269">
        <ele>255.9</ele>
        <time>2022-06-29T15:32:41.748Z</time>
    </trkpt>
    <trkpt lat="56.562582" lon="60.901208">
        <ele>256.2</ele>
        <time>2022-06-29T15:32:42.748Z</time>
    </trkpt>
    <trkpt lat="56.562554" lon="60.901198">
        <ele>256.4</ele>
        <time>2022-06-29T15:32:43.748Z</time>
    </trkpt>
    <trkpt lat="56.562521" lon="60.901165">
        <ele>256.6</ele>
        <time>2022-06-29T15:32:44.748Z</time>
    </trkpt>
    <trkpt lat="56.56251" lon="60.901155">
        <ele>256.7</ele>
        <time>2022-06-29T15:32:45.748Z</time>
    </trkpt>
    <trkpt lat="56.562478" lon="60.901132">
        <ele>256.9</ele>
        <time>2022-06-29T15:32:46.748Z</time>
    </trkpt>
    <trkpt lat="56.562452" lon="60.901109">
        <ele>257.1</ele>
        <time>2022-06-29T15:32:47.748Z</time>
    </trkpt>
    <trkpt lat="56.562441" lon="60.901102">
        <ele>257.1</ele>
        <time>2022-06-29T15:32:48.748Z</time>
    </trkpt>
    <trkpt lat="56.562408" lon="60.901096">
        <ele>257.3</ele>
        <time>2022-06-29T15:32:49.748Z</time>
    </trkpt>
    <trkpt lat="56.562376" lon="60.901059">
        <ele>257.6</ele>
        <time>2022-06-29T15:32:50.748Z</time>
    </trkpt>
    <trkpt lat="56.562364" lon="60.901049">
        <ele>257.7</ele>
        <time>2022-06-29T15:32:51.748Z</time>
    </trkpt>
    <trkpt lat="56.56234" lon="60.901031">
        <ele>257.8</ele>
        <time>2022-06-29T15:32:52.748Z</time>
    </trkpt>
    <trkpt lat="56.562312" lon="60.901004">
        <ele>258.0</ele>
        <time>2022-06-29T15:32:53.748Z</time>
    </trkpt>
    <trkpt lat="56.56228" lon="60.90096">
        <ele>258.3</ele>
        <time>2022-06-29T15:32:54.748Z</time>
    </trkpt>
    <trkpt lat="56.562243" lon="60.900914">
        <ele>258.5</ele>
        <time>2022-06-29T15:32:55.748Z</time>
    </trkpt>
    <trkpt lat="56.562215" lon="60.900859">
        <ele>258.8</ele>
        <time>2022-06-29T15:32:56.748Z</time>
    </trkpt>
    <trkpt lat="56.562179" lon="60.900815">
        <ele>259.0</ele>
        <time>2022-06-29T15:32:57.748Z</time>
    </trkpt>
    <trkpt lat="56.562139" lon="60.900766">
        <ele>259.3</ele>
        <time>2022-06-29T15:32:58.748Z</time>
    </trkpt>
    <trkpt lat="56.562095" lon="60.900716">
        <ele>259.7</ele>
        <time>2022-06-29T15:32:59.748Z</time>
    </trkpt>
    <trkpt lat="56.562045" lon="60.900635">
        <ele>260.1</ele>
        <time>2022-06-29T15:33:00.748Z</time>
    </trkpt>
    <trkpt lat="56.562006" lon="60.900577">
        <ele>260.4</ele>
        <time>2022-06-29T15:33:01.748Z</time>
    </trkpt>
    <trkpt lat="56.561963" lon="60.900501">
        <ele>260.7</ele>
        <time>2022-06-29T15:33:02.748Z</time>
    </trkpt>
    <trkpt lat="56.561941" lon="60.900442">
        <ele>261.0</ele>
        <time>2022-06-29T15:33:03.748Z</time>
    </trkpt>
    <trkpt lat="56.561919" lon="60.900388">
        <ele>261.2</ele>
        <time>2022-06-29T15:33:04.748Z</time>
    </trkpt>
    <trkpt lat="56.561883" lon="60.900341">
        <ele>261.5</ele>
        <time>2022-06-29T15:33:05.748Z</time>
    </trkpt>
    <trkpt lat="56.561852" lon="60.900298">
        <ele>261.7</ele>
        <time>2022-06-29T15:33:06.748Z</time>
    </trkpt>
    <trkpt lat="56.561815" lon="60.900248">
        <ele>262.0</ele>
        <time>2022-06-29T15:33:07.748Z</time>
    </trkpt>
    <trkpt lat="56.561772" lon="60.900189">
        <ele>262.3</ele>
        <time>2022-06-29T15:33:08.748Z</time>
    </trkpt>
    <trkpt lat="56.561731" lon="60.90014">
        <ele>262.6</ele>
        <time>2022-06-29T15:33:09.748Z</time>
    </trkpt>
    <trkpt lat="56.561704" lon="60.900102">
        <ele>262.8</ele>
        <time>2022-06-29T15:33:10.748Z</time>
    </trkpt>
    <trkpt lat="56.561679" lon="60.900071">
        <ele>263.0</ele>
        <time>2022-06-29T15:33:11.748Z</time>
    </trkpt>
    <trkpt lat="56.561656" lon="60.900015">
        <ele>263.3</ele>
        <time>2022-06-29T15:33:12.748Z</time>
    </trkpt>
    <trkpt lat="56.561617" lon="60.899971">
        <ele>263.6</ele>
        <time>2022-06-29T15:33:13.748Z</time>
    </trkpt>
    <trkpt lat="56.561583" lon="60.899935">
        <ele>263.8</ele>
        <time>2022-06-29T15:33:14.748Z</time>
    </trkpt>
    <trkpt lat="56.561544" lon="60.899894">
        <ele>264.1</ele>
        <time>2022-06-29T15:33:15.748Z</time>
    </trkpt>
    <trkpt lat="56.561516" lon="60.899872">
        <ele>264.3</ele>
        <time>2022-06-29T15:33:16.748Z</time>
    </trkpt>
    <trkpt lat="56.561477" lon="60.899875">
        <ele>264.5</ele>
        <time>2022-06-29T15:33:17.748Z</time>
    </trkpt>
    <trkpt lat="56.561464" lon="60.899875">
        <ele>264.6</ele>
        <time>2022-06-29T15:33:18.748Z</time>
    </trkpt>
    <trkpt lat="56.561433" lon="60.899876">
        <ele>264.8</ele>
        <time>2022-06-29T15:33:19.748Z</time>
    </trkpt>
    <trkpt lat="56.561403" lon="60.899891">
        <ele>265.0</ele>
        <time>2022-06-29T15:33:20.748Z</time>
    </trkpt>
    <trkpt lat="56.561358" lon="60.899882">
        <ele>265.2</ele>
        <time>2022-06-29T15:33:21.748Z</time>
    </trkpt>
    <trkpt lat="56.561319" lon="60.899877">
        <ele>265.5</ele>
        <time>2022-06-29T15:33:22.748Z</time>
    </trkpt>
    <trkpt lat="56.561267" lon="60.899853">
        <ele>265.8</ele>
        <time>2022-06-29T15:33:23.748Z</time>
    </trkpt>
    <trkpt lat="56.561251" lon="60.899853">
        <ele>265.9</ele>
        <time>2022-06-29T15:33:24.748Z</time>
    </trkpt>
    <trkpt lat="56.561208" lon="60.899859">
        <ele>266.2</ele>
        <time>2022-06-29T15:33:25.748Z</time>
    </trkpt>
    <trkpt lat="56.561168" lon="60.899856">
        <ele>266.4</ele>
        <time>2022-06-29T15:33:26.748Z</time>
    </trkpt>
    <trkpt lat="56.56111" lon="60.899849">
        <ele>266.8</ele>
        <time>2022-06-29T15:33:27.748Z</time>
    </trkpt>
    <trkpt lat="56.56107" lon="60.89984">
        <ele>267.0</ele>
        <time>2022-06-29T15:33:28.748Z</time>
    </trkpt>
    <trkpt lat="56.561044" lon="60.899827">
        <ele>267.2</ele>
        <time>2022-06-29T15:33:29.748Z</time>
    </trkpt>
    <trkpt lat="56.560999" lon="60.899808">
        <ele>267.5</ele>
        <time>2022-06-29T15:33:30.748Z</time>
    </trkpt>
    <trkpt lat="56.560961" lon="60.899798">
        <ele>267.7</ele>
        <time>2022-06-29T15:33:31.748Z</time>
    </trkpt>
    <trkpt lat="56.560922" lon="60.899781">
        <ele>267.9</ele>
        <time>2022-06-29T15:33:32.748Z</time>
    </trkpt>
    <trkpt lat="56.560904" lon="60.899768">
        <ele>268.1</ele>
        <time>2022-06-29T15:33:33.748Z</time>
    </trkpt>
    <trkpt lat="56.560862" lon="60.899742">
        <ele>268.3</ele>
        <time>2022-06-29T15:33:34.748Z</time>
    </trkpt>
    <trkpt lat="56.560849" lon="60.899742">
        <ele>268.4</ele>
        <time>2022-06-29T15:33:35.748Z</time>
    </trkpt>
    <trkpt lat="56.560818" lon="60.899732">
        <ele>268.6</ele>
        <time>2022-06-29T15:33:36.748Z</time>
    </trkpt>
    <trkpt lat="56.56079" lon="60.899714">
        <ele>268.8</ele>
        <time>2022-06-29T15:33:37.748Z</time>
    </trkpt>
    <trkpt lat="56.560779" lon="60.89971">
        <ele>268.9</ele>
        <time>2022-06-29T15:33:38.748Z</time>
    </trkpt>
    <trkpt lat="56.560749" lon="60.899715">
        <ele>269.0</ele>
        <time>2022-06-29T15:33:39.748Z</time>
    </trkpt>
    <trkpt lat="56.560738" lon="60.899717">
        <ele>269.1</ele>
        <time>2022-06-29T15:33:40.748Z</time>
    </trkpt>
    <trkpt lat="56.560711" lon="60.899715">
        <ele>269.3</ele>
        <time>2022-06-29T15:33:41.748Z</time>
    </trkpt>
    <trkpt lat="56.5607" lon="60.899707">
        <ele>269.3</ele>
        <time>2022-06-29T15:33:42.748Z</time>
    </trkpt>
    <trkpt lat="56.560675" lon="60.899693">
        <ele>269.5</ele>
        <time>2022-06-29T15:33:43.748Z</time>
    </trkpt>
    <trkpt lat="56.560664" lon="60.899687">
        <ele>269.6</ele>
        <time>2022-06-29T15:33:44.748Z</time>
    </trkpt>
    <trkpt lat="56.560638" lon="60.899682">
        <ele>269.7</ele>
        <time>2022-06-29T15:33:45.748Z</time>
    </trkpt>
    <trkpt lat="56.560626" lon="60.899677">
        <ele>269.8</ele>
        <time>2022-06-29T15:33:46.748Z</time>
    </trkpt>
    <trkpt lat="56.560598" lon="60.89966">
        <ele>270.0</ele>
        <time>2022-06-29T15:33:47.748Z</time>
    </trkpt>
    <trkpt lat="56.560587" lon="60.899653">
        <ele>270.1</ele>
        <time>2022-06-29T15:33:48.748Z</time>
    </trkpt>
    <trkpt lat="56.560558" lon="60.899637">
        <ele>270.3</ele>
        <time>2022-06-29T15:33:49.748Z</time>
    </trkpt>
    <trkpt lat="56.560547" lon="60.899643">
        <ele>270.3</ele>
        <time>2022-06-29T15:33:50.748Z</time>
    </trkpt>
    <trkpt lat="56.56051" lon="60.899642">
        <ele>270.6</ele>
        <time>2022-06-29T15:33:51.748Z</time>
    </trkpt>
    <trkpt lat="56.5605" lon="60.899638">
        <ele>270.6</ele>
        <time>2022-06-29T15:33:52.748Z</time>
    </trkpt>
    <trkpt lat="56.560468" lon="60.899619">
        <ele>270.8</ele>
        <time>2022-06-29T15:33:53.748Z</time>
    </trkpt>
    <trkpt lat="56.560449" lon="60.899615">
        <ele>270.9</ele>
        <time>2022-06-29T15:33:54.748Z</time>
    </trkpt>
    <trkpt lat="56.560407" lon="60.899605">
        <ele>271.2</ele>
        <time>2022-06-29T15:33:55.748Z</time>
    </trkpt>
    <trkpt lat="56.560397" lon="60.899605">
        <ele>271.3</ele>
        <time>2022-06-29T15:33:56.748Z</time>
    </trkpt>
    <trkpt lat="56.56037" lon="60.899607">
        <ele>271.4</ele>
        <time>2022-06-29T15:33:57.748Z</time>
    </trkpt>
    <trkpt lat="56.560343" lon="60.899601">
        <ele>271.6</ele>
        <time>2022-06-29T15:33:58.748Z</time>
    </trkpt>
    <trkpt lat="56.560316" lon="60.899589">
        <ele>271.8</ele>
        <time>2022-06-29T15:33:59.748Z</time>
    </trkpt>
    <trkpt lat="56.560284" lon="60.899584">
        <ele>272.0</ele>
        <time>2022-06-29T15:34:00.748Z</time>
    </trkpt>
    <trkpt lat="56.560248" lon="60.899583">
        <ele>271.9</ele>
        <time>2022-06-29T15:34:01.748Z</time>
    </trkpt>
    <trkpt lat="56.560219" lon="60.89958">
        <ele>271.8</ele>
        <time>2022-06-29T15:34:02.748Z</time>
    </trkpt>
    <trkpt lat="56.560198" lon="60.899576">
        <ele>271.7</ele>
        <time>2022-06-29T15:34:03.748Z</time>
    </trkpt>
    <trkpt lat="56.56016" lon="60.899568">
        <ele>271.6</ele>
        <time>2022-06-29T15:34:04.748Z</time>
    </trkpt>
    <trkpt lat="56.560149" lon="60.899566">
        <ele>271.6</ele>
        <time>2022-06-29T15:34:05.748Z</time>
    </trkpt>
    <trkpt lat="56.560114" lon="60.899577">
        <ele>271.5</ele>
        <time>2022-06-29T15:34:06.748Z</time>
    </trkpt>
    <trkpt lat="56.560105" lon="60.899578">
        <ele>271.4</ele>
        <time>2022-06-29T15:34:07.748Z</time>
    </trkpt>
    <trkpt lat="56.560069" lon="60.899579">
        <ele>271.3</ele>
        <time>2022-06-29T15:34:08.748Z</time>
    </trkpt>
    <trkpt lat="56.560034" lon="60.899565">
        <ele>271.2</ele>
        <time>2022-06-29T15:34:09.748Z</time>
    </trkpt>
    <trkpt lat="56.560025" lon="60.899569">
        <ele>271.1</ele>
        <time>2022-06-29T15:34:10.748Z</time>
    </trkpt>
    <trkpt lat="56.559996" lon="60.899581">
        <ele>271.0</ele>
        <time>2022-06-29T15:34:11.748Z</time>
    </trkpt>
    <trkpt lat="56.559952" lon="60.899563">
        <ele>270.8</ele>
        <time>2022-06-29T15:34:12.748Z</time>
    </trkpt>
    <trkpt lat="56.559922" lon="60.899563">
        <ele>270.7</ele>
        <time>2022-06-29T15:34:13.748Z</time>
    </trkpt>
    <trkpt lat="56.559904" lon="60.899555">
        <ele>270.6</ele>
        <time>2022-06-29T15:34:14.748Z</time>
    </trkpt>
    <trkpt lat="56.559868" lon="60.899548">
        <ele>270.4</ele>
        <time>2022-06-29T15:34:15.748Z</time>
    </trkpt>
    <trkpt lat="56.559858" lon="60.899541">
        <ele>270.4</ele>
        <time>2022-06-29T15:34:16.748Z</time>
    </trkpt>
    <trkpt lat="56.559829" lon="60.89953">
        <ele>270.2</ele>
        <time>2022-06-29T15:34:17.748Z</time>
    </trkpt>
    <trkpt lat="56.559815" lon="60.899528">
        <ele>270.2</ele>
        <time>2022-06-29T15:34:18.748Z</time>
    </trkpt>
    <trkpt lat="56.559776" lon="60.899516">
        <ele>270.0</ele>
        <time>2022-06-29T15:34:19.748Z</time>
    </trkpt>
    <trkpt lat="56.559747" lon="60.899497">
        <ele>269.8</ele>
        <time>2022-06-29T15:34:20.748Z</time>
    </trkpt>
    <trkpt lat="56.559702" lon="60.899495">
        <ele>269.6</ele>
        <time>2022-06-29T15:34:21.748Z</time>
    </trkpt>
    <trkpt lat="56.559676" lon="60.899485">
        <ele>269.5</ele>
        <time>2022-06-29T15:34:22.748Z</time>
    </trkpt>
    <trkpt lat="56.559645" lon="60.899464">
        <ele>269.4</ele>
        <time>2022-06-29T15:34:23.748Z</time>
    </trkpt>
    <trkpt lat="56.559607" lon="60.899454">
        <ele>269.2</ele>
        <time>2022-06-29T15:34:24.748Z</time>
    </trkpt>
    <trkpt lat="56.559578" lon="60.899459">
        <ele>269.1</ele>
        <time>2022-06-29T15:34:25.748Z</time>
    </trkpt>
    <trkpt lat="56.559545" lon="60.899451">
        <ele>268.9</ele>
        <time>2022-06-29T15:34:26.748Z</time>
    </trkpt>
    <trkpt lat="56.559508" lon="60.899443">
        <ele>268.8</ele>
        <time>2022-06-29T15:34:27.748Z</time>
    </trkpt>
    <trkpt lat="56.559494" lon="60.899449">
        <ele>268.7</ele>
        <time>2022-06-29T15:34:28.748Z</time>
    </trkpt>
    <trkpt lat="56.559456" lon="60.899464">
        <ele>268.5</ele>
        <time>2022-06-29T15:34:29.748Z</time>
    </trkpt>
    <trkpt lat="56.559449" lon="60.899465">
        <ele>268.5</ele>
        <time>2022-06-29T15:34:30.748Z</time>
    </trkpt>
    <trkpt lat="56.559415" lon="60.899466">
        <ele>268.4</ele>
        <time>2022-06-29T15:34:31.748Z</time>
    </trkpt>
    <trkpt lat="56.559393" lon="60.899463">
        <ele>268.3</ele>
        <time>2022-06-29T15:34:32.748Z</time>
    </trkpt>
    <trkpt lat="56.559379" lon="60.899469">
        <ele>268.2</ele>
        <time>2022-06-29T15:34:33.748Z</time>
    </trkpt>
    <trkpt lat="56.559365" lon="60.899475">
        <ele>268.1</ele>
        <time>2022-06-29T15:34:34.748Z</time>
    </trkpt>
    <trkpt lat="56.559348" lon="60.899479">
        <ele>268.1</ele>
        <time>2022-06-29T15:34:35.748Z</time>
    </trkpt>
    <trkpt lat="56.559338" lon="60.899487">
        <ele>268.0</ele>
        <time>2022-06-29T15:34:36.748Z</time>
    </trkpt>
    <trkpt lat="56.559302" lon="60.899496">
        <ele>267.8</ele>
        <time>2022-06-29T15:34:37.748Z</time>
    </trkpt>
    <trkpt lat="56.559286" lon="60.899498">
        <ele>267.8</ele>
        <time>2022-06-29T15:34:38.748Z</time>
    </trkpt>
    <trkpt lat="56.55925" lon="60.899499">
        <ele>267.6</ele>
        <time>2022-06-29T15:34:39.748Z</time>
    </trkpt>
    <trkpt lat="56.559236" lon="60.899495">
        <ele>267.5</ele>
        <time>2022-06-29T15:34:40.748Z</time>
    </trkpt>
    <trkpt lat="56.559198" lon="60.899491">
        <ele>267.4</ele>
        <time>2022-06-29T15:34:41.748Z</time>
    </trkpt>
    <trkpt lat="56.559181" lon="60.899497">
        <ele>267.3</ele>
        <time>2022-06-29T15:34:42.748Z</time>
    </trkpt>
    <trkpt lat="56.559143" lon="60.899493">
        <ele>267.1</ele>
        <time>2022-06-29T15:34:43.748Z</time>
    </trkpt>
    <trkpt lat="56.55911" lon="60.899495">
        <ele>267.0</ele>
        <time>2022-06-29T15:34:44.748Z</time>
    </trkpt>
    <trkpt lat="56.559072" lon="60.899502">
        <ele>266.9</ele>
        <time>2022-06-29T15:34:45.748Z</time>
    </trkpt>
    <trkpt lat="56.559053" lon="60.899501">
        <ele>266.8</ele>
        <time>2022-06-29T15:34:46.748Z</time>
    </trkpt>
    <trkpt lat="56.559011" lon="60.899496">
        <ele>266.6</ele>
        <time>2022-06-29T15:34:47.748Z</time>
    </trkpt>
    <trkpt lat="56.558999" lon="60.899492">
        <ele>266.6</ele>
        <time>2022-06-29T15:34:48.748Z</time>
    </trkpt>
    <trkpt lat="56.558963" lon="60.899486">
        <ele>266.4</ele>
        <time>2022-06-29T15:34:49.748Z</time>
    </trkpt>
    <trkpt lat="56.558948" lon="60.899487">
        <ele>266.3</ele>
        <time>2022-06-29T15:34:50.748Z</time>
    </trkpt>
    <trkpt lat="56.558913" lon="60.899486">
        <ele>266.2</ele>
        <time>2022-06-29T15:34:51.748Z</time>
    </trkpt>
    <trkpt lat="56.5589" lon="60.899495">
        <ele>266.1</ele>
        <time>2022-06-29T15:34:52.748Z</time>
    </trkpt>
    <trkpt lat="56.558881" lon="60.899496">
        <ele>266.0</ele>
        <time>2022-06-29T15:34:53.748Z</time>
    </trkpt>
    <trkpt lat="56.55885" lon="60.899494">
        <ele>265.9</ele>
        <time>2022-06-29T15:34:54.748Z</time>
    </trkpt>
    <trkpt lat="56.558818" lon="60.899498">
        <ele>265.8</ele>
        <time>2022-06-29T15:34:55.748Z</time>
    </trkpt>
    <trkpt lat="56.55879" lon="60.899494">
        <ele>265.6</ele>
        <time>2022-06-29T15:34:56.748Z</time>
    </trkpt>
    <trkpt lat="56.558757" lon="60.899494">
        <ele>265.5</ele>
        <time>2022-06-29T15:34:57.748Z</time>
    </trkpt>
    <trkpt lat="56.558745" lon="60.899486">
        <ele>265.4</ele>
        <time>2022-06-29T15:34:58.748Z</time>
    </trkpt>
    <trkpt lat="56.55871" lon="60.899465">
        <ele>265.3</ele>
        <time>2022-06-29T15:34:59.748Z</time>
    </trkpt>
    <trkpt lat="56.558678" lon="60.899448">
        <ele>265.2</ele>
        <time>2022-06-29T15:35:00.748Z</time>
    </trkpt>
    <trkpt lat="56.558665" lon="60.899444">
        <ele>265.1</ele>
        <time>2022-06-29T15:35:01.748Z</time>
    </trkpt>
    <trkpt lat="56.558631" lon="60.899429">
        <ele>265.0</ele>
        <time>2022-06-29T15:35:02.748Z</time>
    </trkpt>
    <trkpt lat="56.558621" lon="60.899425">
        <ele>265.0</ele>
        <time>2022-06-29T15:35:03.748Z</time>
    </trkpt>
    <trkpt lat="56.55859" lon="60.899418">
        <ele>264.9</ele>
        <time>2022-06-29T15:35:04.748Z</time>
    </trkpt>
    <trkpt lat="56.558584" lon="60.899412">
        <ele>264.8</ele>
        <time>2022-06-29T15:35:05.748Z</time>
    </trkpt>
    <trkpt lat="56.558558" lon="60.89939">
        <ele>264.7</ele>
        <time>2022-06-29T15:35:06.748Z</time>
    </trkpt>
    <trkpt lat="56.558543" lon="60.899388">
        <ele>264.7</ele>
        <time>2022-06-29T15:35:07.748Z</time>
    </trkpt>
    <trkpt lat="56.558512" lon="60.899395">
        <ele>264.6</ele>
        <time>2022-06-29T15:35:08.748Z</time>
    </trkpt>
    <trkpt lat="56.5585" lon="60.899389">
        <ele>264.5</ele>
        <time>2022-06-29T15:35:09.748Z</time>
    </trkpt>
    <trkpt lat="56.558464" lon="60.899377">
        <ele>264.4</ele>
        <time>2022-06-29T15:35:10.748Z</time>
    </trkpt>
    <trkpt lat="56.55844" lon="60.899357">
        <ele>264.3</ele>
        <time>2022-06-29T15:35:11.748Z</time>
    </trkpt>
    <trkpt lat="56.558405" lon="60.899344">
        <ele>264.2</ele>
        <time>2022-06-29T15:35:12.748Z</time>
    </trkpt>
    <trkpt lat="56.558378" lon="60.899339">
        <ele>264.1</ele>
        <time>2022-06-29T15:35:13.748Z</time>
    </trkpt>
    <trkpt lat="56.558363" lon="60.899337">
        <ele>264.0</ele>
        <time>2022-06-29T15:35:14.748Z</time>
    </trkpt>
    <trkpt lat="56.558322" lon="60.899334">
        <ele>263.9</ele>
        <time>2022-06-29T15:35:15.748Z</time>
    </trkpt>
    <trkpt lat="56.558294" lon="60.899329">
        <ele>263.8</ele>
        <time>2022-06-29T15:35:16.748Z</time>
    </trkpt>
    <trkpt lat="56.558275" lon="60.899317">
        <ele>263.8</ele>
        <time>2022-06-29T15:35:17.748Z</time>
    </trkpt>
    <trkpt lat="56.558257" lon="60.899306">
        <ele>263.7</ele>
        <time>2022-06-29T15:35:18.748Z</time>
    </trkpt>
    <trkpt lat="56.558238" lon="60.899295">
        <ele>263.6</ele>
        <time>2022-06-29T15:39:32.748Z</time>
    </trkpt>
    <trkpt lat="56.55822" lon="60.899283">
        <ele>263.6</ele>
        <time>2022-06-29T15:39:33.748Z</time>
    </trkpt>
    <trkpt lat="56.558201" lon="60.899272">
        <ele>263.5</ele>
        <time>2022-06-29T15:39:34.748Z</time>
    </trkpt>
    <trkpt lat="56.558182" lon="60.899261">
        <ele>263.4</ele>
        <time>2022-06-29T15:39:35.748Z</time>
    </trkpt>
    <trkpt lat="56.558164" lon="60.899249">
        <ele>263.4</ele>
        <time>2022-06-29T15:39:36.748Z</time>
    </trkpt>
    <trkpt lat="56.558141" lon="60.899234">
        <ele>263.3</ele>
        <time>2022-06-29T15:39:37.748Z</time>
    </trkpt>
    <trkpt lat="56.558131" lon="60.899229">
        <ele>263.2</ele>
        <time>2022-06-29T15:39:38.748Z</time>
    </trkpt>
    <trkpt lat="56.558129" lon="60.899232">
        <ele>263.2</ele>
        <time>2022-06-29T15:39:39.748Z</time>
    </trkpt>
    <trkpt lat="56.558122" lon="60.899224">
        <ele>263.2</ele>
        <time>2022-06-29T15:39:40.748Z</time>
    </trkpt>
    <trkpt lat="56.558112" lon="60.899206">
        <ele>263.1</ele>
        <time>2022-06-29T15:39:41.748Z</time>
    </trkpt>
    <trkpt lat="56.558112" lon="60.899214">
        <ele>263.1</ele>
        <time>2022-06-29T15:39:42.748Z</time>
    </trkpt>
    <trkpt lat="56.558101" lon="60.899206">
        <ele>263.0</ele>
        <time>2022-06-29T15:39:43.748Z</time>
    </trkpt>
    <trkpt lat="56.55809" lon="60.899198">
        <ele>263.0</ele>
        <time>2022-06-29T15:39:44.748Z</time>
    </trkpt>
    <trkpt lat="56.558079" lon="60.89919">
        <ele>262.9</ele>
        <time>2022-06-29T15:39:45.748Z</time>
    </trkpt>
    <trkpt lat="56.558068" lon="60.899183">
        <ele>262.9</ele>
        <time>2022-06-29T15:39:46.748Z</time>
    </trkpt>
    <trkpt lat="56.558052" lon="60.899183">
        <ele>262.8</ele>
        <time>2022-06-29T15:39:47.748Z</time>
    </trkpt>
    <trkpt lat="56.558044" lon="60.899181">
        <ele>262.7</ele>
        <time>2022-06-29T15:39:48.748Z</time>
    </trkpt>
    <trkpt lat="56.55804" lon="60.899189">
        <ele>262.7</ele>
        <time>2022-06-29T15:39:49.748Z</time>
    </trkpt>
    <trkpt lat="56.558031" lon="60.899187">
        <ele>262.6</ele>
        <time>2022-06-29T15:39:50.748Z</time>
    </trkpt>
    <trkpt lat="56.558022" lon="60.899184">
        <ele>262.6</ele>
        <time>2022-06-29T15:39:51.748Z</time>
    </trkpt>
    <trkpt lat="56.558003" lon="60.899184">
        <ele>262.4</ele>
        <time>2022-06-29T15:39:52.748Z</time>
    </trkpt>
    <trkpt lat="56.557987" lon="60.899175">
        <ele>262.3</ele>
        <time>2022-06-29T15:39:53.748Z</time>
    </trkpt>
    <trkpt lat="56.557967" lon="60.899175">
        <ele>262.2</ele>
        <time>2022-06-29T15:39:54.748Z</time>
    </trkpt>
    <trkpt lat="56.557959" lon="60.89917">
        <ele>262.2</ele>
        <time>2022-06-29T15:39:55.748Z</time>
    </trkpt>
    <trkpt lat="56.557932" lon="60.899159">
        <ele>261.9</ele>
        <time>2022-06-29T15:39:56.748Z</time>
    </trkpt>
    <trkpt lat="56.557924" lon="60.899151">
        <ele>261.9</ele>
        <time>2022-06-29T15:39:57.748Z</time>
    </trkpt>
    <trkpt lat="56.557908" lon="60.89913">
        <ele>261.7</ele>
        <time>2022-06-29T15:39:58.748Z</time>
    </trkpt>
    <trkpt lat="56.557899" lon="60.899143">
        <ele>261.6</ele>
        <time>2022-06-29T15:39:59.748Z</time>
    </trkpt>
    <trkpt lat="56.55787" lon="60.899111">
        <ele>261.4</ele>
        <time>2022-06-29T15:40:00.748Z</time>
    </trkpt>
    <trkpt lat="56.557859" lon="60.89909">
        <ele>261.3</ele>
        <time>2022-06-29T15:40:01.748Z</time>
    </trkpt>
    <trkpt lat="56.557846" lon="60.899086">
        <ele>261.2</ele>
        <time>2022-06-29T15:40:02.748Z</time>
    </trkpt>
    <trkpt lat="56.55784" lon="60.899077">
        <ele>261.1</ele>
        <time>2022-06-29T15:40:03.748Z</time>
    </trkpt>
    <trkpt lat="56.557813" lon="60.899059">
        <ele>260.9</ele>
        <time>2022-06-29T15:40:04.748Z</time>
    </trkpt>
    <trkpt lat="56.557801" lon="60.899035">
        <ele>260.7</ele>
        <time>2022-06-29T15:40:05.748Z</time>
    </trkpt>
    <trkpt lat="56.557789" lon="60.899019">
        <ele>260.6</ele>
        <time>2022-06-29T15:40:06.748Z</time>
    </trkpt>
    <trkpt lat="56.557779" lon="60.899018">
        <ele>260.5</ele>
        <time>2022-06-29T15:40:07.748Z</time>
    </trkpt>
    <trkpt lat="56.557769" lon="60.899017">
        <ele>260.5</ele>
        <time>2022-06-29T15:40:08.748Z</time>
    </trkpt>
    <trkpt lat="56.557753" lon="60.898993">
        <ele>260.3</ele>
        <time>2022-06-29T15:40:09.748Z</time>
    </trkpt>
    <trkpt lat="56.55774" lon="60.898991">
        <ele>260.2</ele>
        <time>2022-06-29T15:40:10.748Z</time>
    </trkpt>
    <trkpt lat="56.557717" lon="60.898989">
        <ele>260.0</ele>
        <time>2022-06-29T15:40:11.748Z</time>
    </trkpt>
    <trkpt lat="56.557689" lon="60.89898">
        <ele>259.7</ele>
        <time>2022-06-29T15:40:12.748Z</time>
    </trkpt>
    <trkpt lat="56.557678" lon="60.898967">
        <ele>259.6</ele>
        <time>2022-06-29T15:40:13.748Z</time>
    </trkpt>
    <trkpt lat="56.557656" lon="60.898972">
        <ele>259.4</ele>
        <time>2022-06-29T15:40:14.748Z</time>
    </trkpt>
    <trkpt lat="56.557645" lon="60.898966">
        <ele>259.3</ele>
        <time>2022-06-29T15:40:15.748Z</time>
    </trkpt>
    <trkpt lat="56.557629" lon="60.898963">
        <ele>259.1</ele>
        <time>2022-06-29T15:40:16.748Z</time>
    </trkpt>
    <trkpt lat="56.557622" lon="60.898976">
        <ele>259.1</ele>
        <time>2022-06-29T15:40:17.748Z</time>
    </trkpt>
    <trkpt lat="56.557593" lon="60.898983">
        <ele>258.8</ele>
        <time>2022-06-29T15:40:18.748Z</time>
    </trkpt>
    <trkpt lat="56.557582" lon="60.898986">
        <ele>258.7</ele>
        <time>2022-06-29T15:40:19.748Z</time>
    </trkpt>
    <trkpt lat="56.557557" lon="60.898988">
        <ele>258.5</ele>
        <time>2022-06-29T15:40:20.748Z</time>
    </trkpt>
    <trkpt lat="56.557554" lon="60.899003">
        <ele>258.4</ele>
        <time>2022-06-29T15:40:21.748Z</time>
    </trkpt>
    <trkpt lat="56.557543" lon="60.899008">
        <ele>258.4</ele>
        <time>2022-06-29T15:40:22.748Z</time>
    </trkpt>
    <trkpt lat="56.557533" lon="60.899013">
        <ele>258.3</ele>
        <time>2022-06-29T15:40:23.748Z</time>
    </trkpt>
    <trkpt lat="56.557528" lon="60.89901">
        <ele>258.2</ele>
        <time>2022-06-29T15:40:24.748Z</time>
    </trkpt>
    <trkpt lat="56.557522" lon="60.899008">
        <ele>258.2</ele>
        <time>2022-06-29T15:40:25.748Z</time>
    </trkpt>
    <trkpt lat="56.557493" lon="60.898991">
        <ele>258.2</ele>
        <time>2022-06-29T15:40:26.748Z</time>
    </trkpt>
    <trkpt lat="56.557483" lon="60.898974">
        <ele>258.3</ele>
        <time>2022-06-29T15:40:27.748Z</time>
    </trkpt>
    <trkpt lat="56.557473" lon="60.898945">
        <ele>258.3</ele>
        <time>2022-06-29T15:40:28.748Z</time>
    </trkpt>
    <trkpt lat="56.557465" lon="60.898942">
        <ele>258.4</ele>
        <time>2022-06-29T15:40:29.748Z</time>
    </trkpt>
    <trkpt lat="56.557448" lon="60.89892">
        <ele>258.4</ele>
        <time>2022-06-29T15:40:30.748Z</time>
    </trkpt>
    <trkpt lat="56.557437" lon="60.898907">
        <ele>258.5</ele>
        <time>2022-06-29T15:40:31.748Z</time>
    </trkpt>
    <trkpt lat="56.55742" lon="60.898864">
        <ele>258.6</ele>
        <time>2022-06-29T15:40:32.748Z</time>
    </trkpt>
    <trkpt lat="56.557405" lon="60.898854">
        <ele>258.6</ele>
        <time>2022-06-29T15:40:33.748Z</time>
    </trkpt>
    <trkpt lat="56.55739" lon="60.898828">
        <ele>258.7</ele>
        <time>2022-06-29T15:40:34.748Z</time>
    </trkpt>
    <trkpt lat="56.557371" lon="60.898815">
        <ele>258.7</ele>
        <time>2022-06-29T15:40:35.748Z</time>
    </trkpt>
    <trkpt lat="56.557357" lon="60.89882">
        <ele>258.8</ele>
        <time>2022-06-29T15:40:36.748Z</time>
    </trkpt>
    <trkpt lat="56.557346" lon="60.898827">
        <ele>258.8</ele>
        <time>2022-06-29T15:40:37.748Z</time>
    </trkpt>
    <trkpt lat="56.557321" lon="60.898846">
        <ele>258.9</ele>
        <time>2022-06-29T15:40:38.748Z</time>
    </trkpt>
    <trkpt lat="56.557311" lon="60.89884">
        <ele>259.0</ele>
        <time>2022-06-29T15:40:39.748Z</time>
    </trkpt>
    <trkpt lat="56.557284" lon="60.898835">
        <ele>259.0</ele>
        <time>2022-06-29T15:40:40.748Z</time>
    </trkpt>
    <trkpt lat="56.557274" lon="60.898834">
        <ele>259.1</ele>
        <time>2022-06-29T15:40:41.748Z</time>
    </trkpt>
    <trkpt lat="56.557246" lon="60.898827">
        <ele>259.2</ele>
        <time>2022-06-29T15:40:42.748Z</time>
    </trkpt>
    <trkpt lat="56.557237" lon="60.898826">
        <ele>259.2</ele>
        <time>2022-06-29T15:40:43.748Z</time>
    </trkpt>
    <trkpt lat="56.557205" lon="60.898835">
        <ele>259.3</ele>
        <time>2022-06-29T15:40:44.748Z</time>
    </trkpt>
    <trkpt lat="56.557193" lon="60.898848">
        <ele>259.4</ele>
        <time>2022-06-29T15:40:45.748Z</time>
    </trkpt>
    <trkpt lat="56.557172" lon="60.898858">
        <ele>259.4</ele>
        <time>2022-06-29T15:40:46.748Z</time>
    </trkpt>
    <trkpt lat="56.557144" lon="60.898865">
        <ele>259.5</ele>
        <time>2022-06-29T15:40:47.748Z</time>
    </trkpt>
    <trkpt lat="56.557115" lon="60.898863">
        <ele>259.6</ele>
        <time>2022-06-29T15:40:48.748Z</time>
    </trkpt>
    <trkpt lat="56.557088" lon="60.898852">
        <ele>259.7</ele>
        <time>2022-06-29T15:40:49.748Z</time>
    </trkpt>
    <trkpt lat="56.557059" lon="60.898848">
        <ele>259.8</ele>
        <time>2022-06-29T15:40:50.748Z</time>
    </trkpt>
    <trkpt lat="56.557026" lon="60.898842">
        <ele>259.9</ele>
        <time>2022-06-29T15:40:51.748Z</time>
    </trkpt>
    <trkpt lat="56.556994" lon="60.898836">
        <ele>260.0</ele>
        <time>2022-06-29T15:40:52.748Z</time>
    </trkpt>
    <trkpt lat="56.556967" lon="60.898847">
        <ele>260.1</ele>
        <time>2022-06-29T15:40:53.748Z</time>
    </trkpt>
    <trkpt lat="56.556929" lon="60.898868">
        <ele>260.2</ele>
        <time>2022-06-29T15:40:54.748Z</time>
    </trkpt>
    <trkpt lat="56.556894" lon="60.898865">
        <ele>260.4</ele>
        <time>2022-06-29T15:40:55.748Z</time>
    </trkpt>
    <trkpt lat="56.556868" lon="60.898855">
        <ele>260.5</ele>
        <time>2022-06-29T15:40:56.748Z</time>
    </trkpt>
    <trkpt lat="56.556832" lon="60.898852">
        <ele>260.6</ele>
        <time>2022-06-29T15:40:57.748Z</time>
    </trkpt>
    <trkpt lat="56.556784" lon="60.89886">
        <ele>260.7</ele>
        <time>2022-06-29T15:40:58.748Z</time>
    </trkpt>
    <trkpt lat="56.556769" lon="60.898861">
        <ele>260.8</ele>
        <time>2022-06-29T15:40:59.748Z</time>
    </trkpt>
    <trkpt lat="56.556731" lon="60.89886">
        <ele>260.9</ele>
        <time>2022-06-29T15:41:00.748Z</time>
    </trkpt>
    <trkpt lat="56.556696" lon="60.89886">
        <ele>261.0</ele>
        <time>2022-06-29T15:41:01.748Z</time>
    </trkpt>
    <trkpt lat="56.556657" lon="60.898854">
        <ele>261.2</ele>
        <time>2022-06-29T15:41:02.748Z</time>
    </trkpt>
    <trkpt lat="56.556597" lon="60.898832">
        <ele>261.4</ele>
        <time>2022-06-29T15:41:03.748Z</time>
    </trkpt>
    <trkpt lat="56.556545" lon="60.898815">
        <ele>261.5</ele>
        <time>2022-06-29T15:41:04.748Z</time>
    </trkpt>
    <trkpt lat="56.556498" lon="60.898799">
        <ele>261.7</ele>
        <time>2022-06-29T15:41:05.748Z</time>
    </trkpt>
    <trkpt lat="56.556462" lon="60.898791">
        <ele>261.8</ele>
        <time>2022-06-29T15:41:06.748Z</time>
    </trkpt>
    <trkpt lat="56.556427" lon="60.898785">
        <ele>261.9</ele>
        <time>2022-06-29T15:41:07.748Z</time>
    </trkpt>
    <trkpt lat="56.556377" lon="60.898759">
        <ele>262.1</ele>
        <time>2022-06-29T15:41:08.748Z</time>
    </trkpt>
    <trkpt lat="56.556316" lon="60.898733">
        <ele>262.3</ele>
        <time>2022-06-29T15:41:09.748Z</time>
    </trkpt>
    <trkpt lat="56.556283" lon="60.898716">
        <ele>262.4</ele>
        <time>2022-06-29T15:41:10.748Z</time>
    </trkpt>
    <trkpt lat="56.556225" lon="60.898709">
        <ele>262.6</ele>
        <time>2022-06-29T15:41:11.748Z</time>
    </trkpt>
    <trkpt lat="56.55617" lon="60.898708">
        <ele>262.8</ele>
        <time>2022-06-29T15:41:12.748Z</time>
    </trkpt>
    <trkpt lat="56.556117" lon="60.898671">
        <ele>263.0</ele>
        <time>2022-06-29T15:41:13.748Z</time>
    </trkpt>
    <trkpt lat="56.55607" lon="60.898631">
        <ele>263.1</ele>
        <time>2022-06-29T15:41:14.748Z</time>
    </trkpt>
    <trkpt lat="56.556048" lon="60.89859">
        <ele>263.3</ele>
        <time>2022-06-29T15:41:15.748Z</time>
    </trkpt>
    <trkpt lat="56.556019" lon="60.89853">
        <ele>263.4</ele>
        <time>2022-06-29T15:41:16.748Z</time>
    </trkpt>
    <trkpt lat="56.555998" lon="60.898506">
        <ele>263.5</ele>
        <time>2022-06-29T15:41:17.748Z</time>
    </trkpt>
    <trkpt lat="56.555965" lon="60.898477">
        <ele>263.6</ele>
        <time>2022-06-29T15:41:19.577Z</time>
    </trkpt>
    <trkpt lat="56.555448471976945" lon="60.898361255309936">
        <ele>267.2</ele>
        <time>2022-06-29T15:41:45.546Z</time>
    </trkpt>
    <trkpt lat="56.554753584053536" lon="60.898205545849024">
        <ele>273.2</ele>
        <time>2022-06-29T15:42:20.483Z</time>
    </trkpt>
    <trkpt lat="56.55405868337058" lon="60.89804983638812">
        <ele>275.4</ele>
        <time>2022-06-29T15:42:55.421Z</time>
    </trkpt>
    <trkpt lat="56.553363769928026" lon="60.897894126927206">
        <ele>274.9</ele>
        <time>2022-06-29T15:43:30.359Z</time>
    </trkpt>
    <trkpt lat="56.55266884372567" lon="60.89773841746631">
        <ele>279.4</ele>
        <time>2022-06-29T15:44:05.298Z</time>
    </trkpt>
    <trkpt lat="56.551973904763415" lon="60.8975827080054">
        <ele>284.8</ele>
        <time>2022-06-29T15:44:40.237Z</time>
    </trkpt>
    <trkpt lat="56.551278953041134" lon="60.89742699854448">
        <ele>291.7</ele>
        <time>2022-06-29T15:45:15.177Z</time>
    </trkpt>
    <trkpt lat="56.550583988558664" lon="60.897271289083584">
        <ele>294.6</ele>
        <time>2022-06-29T15:45:50.118Z</time>
    </trkpt>
    <trkpt lat="56.54988901131589" lon="60.89711557962267">
        <ele>298.1</ele>
        <time>2022-06-29T15:46:25.059Z</time>
    </trkpt>
    <trkpt lat="56.54919402131271" lon="60.89695987016176">
        <ele>292.3</ele>
        <time>2022-06-29T15:47:00.001Z</time>
    </trkpt>
    <trkpt lat="56.54849901854893" lon="60.89680416070085">
        <ele>284.4</ele>
        <time>2022-06-29T15:47:34.944Z</time>
    </trkpt>
    <trkpt lat="56.54780400302447" lon="60.89664845123995">
        <ele>282.3</ele>
        <time>2022-06-29T15:48:09.887Z</time>
    </trkpt>
    <trkpt lat="56.54710897473916" lon="60.896492741779035">
        <ele>282.3</ele>
        <time>2022-06-29T15:48:44.831Z</time>
    </trkpt>
    <trkpt lat="56.546413933692875" lon="60.89633703231812">
        <ele>283.5</ele>
        <time>2022-06-29T15:49:19.776Z</time>
    </trkpt>
    <trkpt lat="56.54649865590563" lon="60.89554303685316">
        <ele>281.5</ele>
        <time>2022-06-29T15:49:42.021Z</time>
    </trkpt>
    <trkpt lat="56.54663174263103" lon="60.89429577763987">
        <ele>275.0</ele>
        <time>2022-06-29T15:50:16.966Z</time>
    </trkpt>
    <trkpt lat="56.54676482888855" lon="60.89304851842658">
        <ele>270.9</ele>
        <time>2022-06-29T15:50:51.911Z</time>
    </trkpt>
    <trkpt lat="56.546897914678226" lon="60.891801259213295">
        <ele>267.3</ele>
        <time>2022-06-29T15:51:26.856Z</time>
    </trkpt>
    <trkpt lat="56.54703100000001" lon="60.890554">
        <ele>264.5</ele>
        <time>2022-06-29T15:52:01.800Z</time>
    </trkpt>
    <trkpt lat="56.547025" lon="60.890503">
        <ele>262.8</ele>
        <time>2022-06-29T15:52:03.234Z</time>
    </trkpt>
    <trkpt lat="56.547005" lon="60.890412">
        <ele>262.2</ele>
        <time>2022-06-29T15:52:04.234Z</time>
    </trkpt>
    <trkpt lat="56.546979" lon="60.890373">
        <ele>261.9</ele>
        <time>2022-06-29T15:52:05.234Z</time>
    </trkpt>
    <trkpt lat="56.546968" lon="60.890353">
        <ele>261.7</ele>
        <time>2022-06-29T15:52:06.234Z</time>
    </trkpt>
    <trkpt lat="56.546944" lon="60.890303">
        <ele>261.3</ele>
        <time>2022-06-29T15:52:07.234Z</time>
    </trkpt>
    <trkpt lat="56.546936" lon="60.890277">
        <ele>261.1</ele>
        <time>2022-06-29T15:52:08.234Z</time>
    </trkpt>
    <trkpt lat="56.546912" lon="60.890218">
        <ele>260.6</ele>
        <time>2022-06-29T15:52:09.234Z</time>
    </trkpt>
    <trkpt lat="56.546907" lon="60.890197">
        <ele>260.5</ele>
        <time>2022-06-29T15:52:10.234Z</time>
    </trkpt>
    <trkpt lat="56.546894" lon="60.890154">
        <ele>260.1</ele>
        <time>2022-06-29T15:52:11.234Z</time>
    </trkpt>
    <trkpt lat="56.546865" lon="60.890087">
        <ele>259.6</ele>
        <time>2022-06-29T15:52:12.234Z</time>
    </trkpt>
    <trkpt lat="56.546843" lon="60.890044">
        <ele>259.3</ele>
        <time>2022-06-29T15:52:13.234Z</time>
    </trkpt>
    <trkpt lat="56.546836" lon="60.890022">
        <ele>259.1</ele>
        <time>2022-06-29T15:52:14.234Z</time>
    </trkpt>
    <trkpt lat="56.546819" lon="60.889963">
        <ele>258.7</ele>
        <time>2022-06-29T15:52:15.234Z</time>
    </trkpt>
    <trkpt lat="56.546812" lon="60.889944">
        <ele>258.6</ele>
        <time>2022-06-29T15:52:16.234Z</time>
    </trkpt>
    <trkpt lat="56.546789" lon="60.889905">
        <ele>258.3</ele>
        <time>2022-06-29T15:52:17.234Z</time>
    </trkpt>
    <trkpt lat="56.54678" lon="60.889869">
        <ele>258.1</ele>
        <time>2022-06-29T15:52:18.234Z</time>
    </trkpt>
    <trkpt lat="56.54676" lon="60.8898">
        <ele>257.7</ele>
        <time>2022-06-29T15:52:19.234Z</time>
    </trkpt>
    <trkpt lat="56.546741" lon="60.889758">
        <ele>257.5</ele>
        <time>2022-06-29T15:52:20.234Z</time>
    </trkpt>
    <trkpt lat="56.546734" lon="60.889741">
        <ele>257.4</ele>
        <time>2022-06-29T15:52:21.234Z</time>
    </trkpt>
    <trkpt lat="56.546722" lon="60.889695">
        <ele>257.1</ele>
        <time>2022-06-29T15:52:22.234Z</time>
    </trkpt>
    <trkpt lat="56.54671" lon="60.889671">
        <ele>257.0</ele>
        <time>2022-06-29T15:52:23.234Z</time>
    </trkpt>
    <trkpt lat="56.546691" lon="60.889628">
        <ele>256.7</ele>
        <time>2022-06-29T15:52:24.234Z</time>
    </trkpt>
    <trkpt lat="56.546682" lon="60.889604">
        <ele>256.6</ele>
        <time>2022-06-29T15:52:25.234Z</time>
    </trkpt>
    <trkpt lat="56.546667" lon="60.889557">
        <ele>256.3</ele>
        <time>2022-06-29T15:52:26.234Z</time>
    </trkpt>
    <trkpt lat="56.546659" lon="60.889536">
        <ele>256.1</ele>
        <time>2022-06-29T15:52:27.234Z</time>
    </trkpt>
    <trkpt lat="56.546636" lon="60.889474">
        <ele>255.8</ele>
        <time>2022-06-29T15:52:28.234Z</time>
    </trkpt>
    <trkpt lat="56.546625" lon="60.889455">
        <ele>255.6</ele>
        <time>2022-06-29T15:52:29.234Z</time>
    </trkpt>
    <trkpt lat="56.546598" lon="60.889401">
        <ele>255.2</ele>
        <time>2022-06-29T15:52:30.234Z</time>
    </trkpt>
    <trkpt lat="56.546585" lon="60.88935">
        <ele>254.9</ele>
        <time>2022-06-29T15:52:31.234Z</time>
    </trkpt>
    <trkpt lat="56.54657" lon="60.889309">
        <ele>254.7</ele>
        <time>2022-06-29T15:52:32.234Z</time>
    </trkpt>
    <trkpt lat="56.546562" lon="60.889291">
        <ele>254.5</ele>
        <time>2022-06-29T15:52:33.234Z</time>
    </trkpt>
    <trkpt lat="56.546537" lon="60.889238">
        <ele>254.2</ele>
        <time>2022-06-29T15:52:34.234Z</time>
    </trkpt>
    <trkpt lat="56.546521" lon="60.889194">
        <ele>253.9</ele>
        <time>2022-06-29T15:52:35.234Z</time>
    </trkpt>
    <trkpt lat="56.546508" lon="60.889147">
        <ele>253.6</ele>
        <time>2022-06-29T15:52:36.234Z</time>
    </trkpt>
    <trkpt lat="56.546502" lon="60.889129">
        <ele>253.5</ele>
        <time>2022-06-29T15:52:37.234Z</time>
    </trkpt>
    <trkpt lat="56.54648" lon="60.889086">
        <ele>253.1</ele>
        <time>2022-06-29T15:52:38.234Z</time>
    </trkpt>
    <trkpt lat="56.546469" lon="60.889056">
        <ele>252.9</ele>
        <time>2022-06-29T15:52:40.234Z</time>
    </trkpt>
    <trkpt lat="56.546464" lon="60.889019">
        <ele>252.7</ele>
        <time>2022-06-29T15:52:41.234Z</time>
    </trkpt>
    <trkpt lat="56.546459" lon="60.888988">
        <ele>252.5</ele>
        <time>2022-06-29T15:52:42.234Z</time>
    </trkpt>
    <trkpt lat="56.54644" lon="60.888931">
        <ele>252.1</ele>
        <time>2022-06-29T15:55:25.234Z</time>
    </trkpt>
    <trkpt lat="56.546439" lon="60.888932">
        <ele>252.1</ele>
        <time>2022-06-29T15:55:26.234Z</time>
    </trkpt>
    <trkpt lat="56.54644" lon="60.888932">
        <ele>252.1</ele>
        <time>2022-06-29T15:55:27.234Z</time>
    </trkpt>
    <trkpt lat="56.54644" lon="60.888931">
        <ele>252.1</ele>
        <time>2022-06-29T15:55:28.234Z</time>
    </trkpt>
    <trkpt lat="56.54644" lon="60.888929">
        <ele>252.1</ele>
        <time>2022-06-29T15:55:29.234Z</time>
    </trkpt>
    <trkpt lat="56.54644" lon="60.888932">
        <ele>252.1</ele>
        <time>2022-06-29T15:55:30.234Z</time>
    </trkpt>
    <trkpt lat="56.546445" lon="60.888928">
        <ele>252.0</ele>
        <time>2022-06-29T15:55:31.234Z</time>
    </trkpt>
    <trkpt lat="56.546445" lon="60.888919">
        <ele>252.0</ele>
        <time>2022-06-29T15:55:32.234Z</time>
    </trkpt>
    <trkpt lat="56.546447" lon="60.888912">
        <ele>251.9</ele>
        <time>2022-06-29T15:55:33.234Z</time>
    </trkpt>
    <trkpt lat="56.546455" lon="60.888905">
        <ele>251.8</ele>
        <time>2022-06-29T15:55:34.234Z</time>
    </trkpt>
    <trkpt lat="56.546455" lon="60.888887">
        <ele>251.7</ele>
        <time>2022-06-29T15:55:35.234Z</time>
    </trkpt>
    <trkpt lat="56.546456" lon="60.888875">
        <ele>251.7</ele>
        <time>2022-06-29T15:55:36.234Z</time>
    </trkpt>
    <trkpt lat="56.546457" lon="60.888857">
        <ele>251.6</ele>
        <time>2022-06-29T15:55:37.234Z</time>
    </trkpt>
    <trkpt lat="56.546461" lon="60.888835">
        <ele>251.4</ele>
        <time>2022-06-29T15:55:38.234Z</time>
    </trkpt>
    <trkpt lat="56.546454" lon="60.888828">
        <ele>251.3</ele>
        <time>2022-06-29T15:55:39.234Z</time>
    </trkpt>
    <trkpt lat="56.546439" lon="60.888819">
        <ele>251.2</ele>
        <time>2022-06-29T15:55:40.234Z</time>
    </trkpt>
    <trkpt lat="56.546434" lon="60.888805">
        <ele>251.1</ele>
        <time>2022-06-29T15:55:41.234Z</time>
    </trkpt>
    <trkpt lat="56.546429" lon="60.888791">
        <ele>251.0</ele>
        <time>2022-06-29T15:55:42.234Z</time>
    </trkpt>
    <trkpt lat="56.546419" lon="60.888755">
        <ele>250.8</ele>
        <time>2022-06-29T15:55:43.234Z</time>
    </trkpt>
    <trkpt lat="56.546413" lon="60.888738">
        <ele>250.8</ele>
        <time>2022-06-29T15:55:44.234Z</time>
    </trkpt>
    <trkpt lat="56.546407" lon="60.888721">
        <ele>250.8</ele>
        <time>2022-06-29T15:55:45.234Z</time>
    </trkpt>
    <trkpt lat="56.546396" lon="60.88869">
        <ele>250.8</ele>
        <time>2022-06-29T15:55:46.234Z</time>
    </trkpt>
    <trkpt lat="56.546384" lon="60.888677">
        <ele>250.8</ele>
        <time>2022-06-29T15:55:47.234Z</time>
    </trkpt>
    <trkpt lat="56.546378" lon="60.888653">
        <ele>250.8</ele>
        <time>2022-06-29T15:55:48.234Z</time>
    </trkpt>
    <trkpt lat="56.546369" lon="60.888631">
        <ele>250.9</ele>
        <time>2022-06-29T15:55:49.234Z</time>
    </trkpt>
    <trkpt lat="56.546363" lon="60.888607">
        <ele>250.9</ele>
        <time>2022-06-29T15:55:50.234Z</time>
    </trkpt>
    <trkpt lat="56.546355" lon="60.888586">
        <ele>250.9</ele>
        <time>2022-06-29T15:55:51.234Z</time>
    </trkpt>
    <trkpt lat="56.546342" lon="60.888569">
        <ele>250.9</ele>
        <time>2022-06-29T15:55:52.234Z</time>
    </trkpt>
    <trkpt lat="56.546338" lon="60.888546">
        <ele>250.8</ele>
        <time>2022-06-29T15:55:53.234Z</time>
    </trkpt>
    <trkpt lat="56.546332" lon="60.888522">
        <ele>250.8</ele>
        <time>2022-06-29T15:55:54.234Z</time>
    </trkpt>
    <trkpt lat="56.546326" lon="60.888495">
        <ele>250.8</ele>
        <time>2022-06-29T15:55:55.234Z</time>
    </trkpt>
    <trkpt lat="56.546319" lon="60.888476">
        <ele>250.8</ele>
        <time>2022-06-29T15:55:56.234Z</time>
    </trkpt>
    <trkpt lat="56.546311" lon="60.888455">
        <ele>250.8</ele>
        <time>2022-06-29T15:55:57.234Z</time>
    </trkpt>
    <trkpt lat="56.546303" lon="60.888434">
        <ele>250.8</ele>
        <time>2022-06-29T15:55:58.234Z</time>
    </trkpt>
    <trkpt lat="56.546296" lon="60.888409">
        <ele>250.8</ele>
        <time>2022-06-29T15:55:59.234Z</time>
    </trkpt>
    <trkpt lat="56.546293" lon="60.888376">
        <ele>250.7</ele>
        <time>2022-06-29T15:56:00.234Z</time>
    </trkpt>
    <trkpt lat="56.546287" lon="60.888344">
        <ele>250.7</ele>
        <time>2022-06-29T15:56:01.234Z</time>
    </trkpt>
    <trkpt lat="56.546274" lon="60.88833">
        <ele>250.7</ele>
        <time>2022-06-29T15:56:02.234Z</time>
    </trkpt>
    <trkpt lat="56.546269" lon="60.888298">
        <ele>250.6</ele>
        <time>2022-06-29T15:56:03.234Z</time>
    </trkpt>
    <trkpt lat="56.54626" lon="60.888281">
        <ele>250.5</ele>
        <time>2022-06-29T15:56:04.234Z</time>
    </trkpt>
    <trkpt lat="56.546258" lon="60.888262">
        <ele>250.5</ele>
        <time>2022-06-29T15:56:05.234Z</time>
    </trkpt>
    <trkpt lat="56.546256" lon="60.888244">
        <ele>250.5</ele>
        <time>2022-06-29T15:56:06.234Z</time>
    </trkpt>
    <trkpt lat="56.546244" lon="60.888211">
        <ele>250.4</ele>
        <time>2022-06-29T15:56:07.234Z</time>
    </trkpt>
    <trkpt lat="56.546229" lon="60.888202">
        <ele>250.3</ele>
        <time>2022-06-29T15:56:08.234Z</time>
    </trkpt>
    <trkpt lat="56.546223" lon="60.888177">
        <ele>250.2</ele>
        <time>2022-06-29T15:56:09.234Z</time>
    </trkpt>
    <trkpt lat="56.546216" lon="60.888154">
        <ele>250.2</ele>
        <time>2022-06-29T15:56:10.234Z</time>
    </trkpt>
    <trkpt lat="56.546206" lon="60.888134">
        <ele>250.1</ele>
        <time>2022-06-29T15:56:11.234Z</time>
    </trkpt>
    <trkpt lat="56.546199" lon="60.888107">
        <ele>250.1</ele>
        <time>2022-06-29T15:56:12.234Z</time>
    </trkpt>
    <trkpt lat="56.546191" lon="60.888089">
        <ele>250.2</ele>
        <time>2022-06-29T15:56:13.234Z</time>
    </trkpt>
    <trkpt lat="56.546183" lon="60.888068">
        <ele>250.2</ele>
        <time>2022-06-29T15:56:14.234Z</time>
    </trkpt>
    <trkpt lat="56.546179" lon="60.888039">
        <ele>250.2</ele>
        <time>2022-06-29T15:56:15.234Z</time>
    </trkpt>
    <trkpt lat="56.546171" lon="60.888018">
        <ele>250.2</ele>
        <time>2022-06-29T15:56:16.234Z</time>
    </trkpt>
    <trkpt lat="56.546162" lon="60.88799">
        <ele>250.2</ele>
        <time>2022-06-29T15:56:17.234Z</time>
    </trkpt>
    <trkpt lat="56.546157" lon="60.887972">
        <ele>250.2</ele>
        <time>2022-06-29T15:56:18.234Z</time>
    </trkpt>
    <trkpt lat="56.546154" lon="60.887953">
        <ele>250.2</ele>
        <time>2022-06-29T15:56:19.234Z</time>
    </trkpt>
    <trkpt lat="56.546147" lon="60.887931">
        <ele>250.2</ele>
        <time>2022-06-29T15:56:20.234Z</time>
    </trkpt>
    <trkpt lat="56.546146" lon="60.887902">
        <ele>250.2</ele>
        <time>2022-06-29T15:56:21.234Z</time>
    </trkpt>
    <trkpt lat="56.546136" lon="60.887884">
        <ele>250.2</ele>
        <time>2022-06-29T15:56:22.234Z</time>
    </trkpt>
    <trkpt lat="56.546131" lon="60.887857">
        <ele>250.2</ele>
        <time>2022-06-29T15:56:23.234Z</time>
    </trkpt>
    <trkpt lat="56.546123" lon="60.887841">
        <ele>250.2</ele>
        <time>2022-06-29T15:56:24.234Z</time>
    </trkpt>
    <trkpt lat="56.546118" lon="60.887818">
        <ele>250.2</ele>
        <time>2022-06-29T15:56:25.234Z</time>
    </trkpt>
    <trkpt lat="56.546112" lon="60.887795">
        <ele>250.2</ele>
        <time>2022-06-29T15:56:26.234Z</time>
    </trkpt>
    <trkpt lat="56.546102" lon="60.887777">
        <ele>250.2</ele>
        <time>2022-06-29T15:56:27.234Z</time>
    </trkpt>
    <trkpt lat="56.546091" lon="60.887761">
        <ele>250.2</ele>
        <time>2022-06-29T15:56:28.234Z</time>
    </trkpt>
    <trkpt lat="56.546083" lon="60.887741">
        <ele>250.1</ele>
        <time>2022-06-29T15:56:29.234Z</time>
    </trkpt>
    <trkpt lat="56.546073" lon="60.887718">
        <ele>250.1</ele>
        <time>2022-06-29T15:56:30.234Z</time>
    </trkpt>
    <trkpt lat="56.546065" lon="60.887695">
        <ele>250.0</ele>
        <time>2022-06-29T15:56:31.234Z</time>
    </trkpt>
    <trkpt lat="56.546058" lon="60.887675">
        <ele>250.0</ele>
        <time>2022-06-29T15:56:32.234Z</time>
    </trkpt>
    <trkpt lat="56.546056" lon="60.887659">
        <ele>250.0</ele>
        <time>2022-06-29T15:56:33.234Z</time>
    </trkpt>
    <trkpt lat="56.546054" lon="60.887644">
        <ele>249.9</ele>
        <time>2022-06-29T15:56:34.234Z</time>
    </trkpt>
    <trkpt lat="56.546048" lon="60.887607">
        <ele>249.9</ele>
        <time>2022-06-29T15:56:35.234Z</time>
    </trkpt>
    <trkpt lat="56.546037" lon="60.887581">
        <ele>249.8</ele>
        <time>2022-06-29T15:56:36.234Z</time>
    </trkpt>
    <trkpt lat="56.546031" lon="60.887561">
        <ele>249.7</ele>
        <time>2022-06-29T15:56:37.234Z</time>
    </trkpt>
    <trkpt lat="56.546023" lon="60.887537">
        <ele>249.7</ele>
        <time>2022-06-29T15:56:38.234Z</time>
    </trkpt>
    <trkpt lat="56.546013" lon="60.88751">
        <ele>249.6</ele>
        <time>2022-06-29T15:56:39.234Z</time>
    </trkpt>
    <trkpt lat="56.546005" lon="60.887482">
        <ele>249.5</ele>
        <time>2022-06-29T15:56:40.234Z</time>
    </trkpt>
    <trkpt lat="56.546002" lon="60.887463">
        <ele>249.4</ele>
        <time>2022-06-29T15:56:41.234Z</time>
    </trkpt>
    <trkpt lat="56.545998" lon="60.88744">
        <ele>249.4</ele>
        <time>2022-06-29T15:56:42.234Z</time>
    </trkpt>
    <trkpt lat="56.545994" lon="60.887415">
        <ele>249.3</ele>
        <time>2022-06-29T15:56:43.234Z</time>
    </trkpt>
    <trkpt lat="56.545991" lon="60.887402">
        <ele>249.2</ele>
        <time>2022-06-29T15:56:44.234Z</time>
    </trkpt>
    <trkpt lat="56.545988" lon="60.887389">
        <ele>249.2</ele>
        <time>2022-06-29T15:56:45.234Z</time>
    </trkpt>
    <trkpt lat="56.545978" lon="60.887352">
        <ele>249.1</ele>
        <time>2022-06-29T15:56:46.234Z</time>
    </trkpt>
    <trkpt lat="56.545973" lon="60.887332">
        <ele>249.0</ele>
        <time>2022-06-29T15:56:47.234Z</time>
    </trkpt>
    <trkpt lat="56.54597" lon="60.887298">
        <ele>248.9</ele>
        <time>2022-06-29T15:56:48.234Z</time>
    </trkpt>
    <trkpt lat="56.54597" lon="60.88728">
        <ele>248.8</ele>
        <time>2022-06-29T15:56:49.234Z</time>
    </trkpt>
    <trkpt lat="56.545964" lon="60.887254">
        <ele>248.8</ele>
        <time>2022-06-29T15:56:50.234Z</time>
    </trkpt>
    <trkpt lat="56.545958" lon="60.887237">
        <ele>248.7</ele>
        <time>2022-06-29T15:56:51.234Z</time>
    </trkpt>
    <trkpt lat="56.545952" lon="60.887207">
        <ele>248.6</ele>
        <time>2022-06-29T15:56:52.234Z</time>
    </trkpt>
    <trkpt lat="56.545942" lon="60.887183">
        <ele>248.5</ele>
        <time>2022-06-29T15:56:53.234Z</time>
    </trkpt>
    <trkpt lat="56.545938" lon="60.887161">
        <ele>248.4</ele>
        <time>2022-06-29T15:56:54.234Z</time>
    </trkpt>
    <trkpt lat="56.54594" lon="60.887132">
        <ele>248.4</ele>
        <time>2022-06-29T15:56:55.234Z</time>
    </trkpt>
    <trkpt lat="56.545939" lon="60.88712">
        <ele>248.3</ele>
        <time>2022-06-29T15:56:56.234Z</time>
    </trkpt>
    <trkpt lat="56.545935" lon="60.887101">
        <ele>248.3</ele>
        <time>2022-06-29T15:56:57.234Z</time>
    </trkpt>
    <trkpt lat="56.545931" lon="60.887082">
        <ele>248.2</ele>
        <time>2022-06-29T15:56:58.234Z</time>
    </trkpt>
    <trkpt lat="56.545925" lon="60.887043">
        <ele>248.1</ele>
        <time>2022-06-29T15:56:59.234Z</time>
    </trkpt>
    <trkpt lat="56.545926" lon="60.887007">
        <ele>248.0</ele>
        <time>2022-06-29T15:57:00.234Z</time>
    </trkpt>
    <trkpt lat="56.545928" lon="60.886993">
        <ele>248.0</ele>
        <time>2022-06-29T15:57:01.234Z</time>
    </trkpt>
    <trkpt lat="56.545926" lon="60.886972">
        <ele>247.9</ele>
        <time>2022-06-29T15:57:02.234Z</time>
    </trkpt>
    <trkpt lat="56.545924" lon="60.886922">
        <ele>247.8</ele>
        <time>2022-06-29T15:57:03.234Z</time>
    </trkpt>
    <trkpt lat="56.545923" lon="60.886891">
        <ele>247.7</ele>
        <time>2022-06-29T15:57:04.234Z</time>
    </trkpt>
    <trkpt lat="56.545918" lon="60.886869">
        <ele>247.6</ele>
        <time>2022-06-29T15:57:05.234Z</time>
    </trkpt>
    <trkpt lat="56.54592" lon="60.886842">
        <ele>247.5</ele>
        <time>2022-06-29T15:57:06.234Z</time>
    </trkpt>
    <trkpt lat="56.545918" lon="60.886812">
        <ele>247.4</ele>
        <time>2022-06-29T15:57:07.234Z</time>
    </trkpt>
    <trkpt lat="56.54592" lon="60.886793">
        <ele>247.3</ele>
        <time>2022-06-29T15:57:08.234Z</time>
    </trkpt>
    <trkpt lat="56.545923" lon="60.886763">
        <ele>247.2</ele>
        <time>2022-06-29T15:57:09.234Z</time>
    </trkpt>
    <trkpt lat="56.545919" lon="60.886738">
        <ele>247.2</ele>
        <time>2022-06-29T15:57:10.234Z</time>
    </trkpt>
    <trkpt lat="56.545922" lon="60.886713">
        <ele>247.1</ele>
        <time>2022-06-29T15:57:11.234Z</time>
    </trkpt>
    <trkpt lat="56.545916" lon="60.88669">
        <ele>247.0</ele>
        <time>2022-06-29T15:57:12.234Z</time>
    </trkpt>
    <trkpt lat="56.545914" lon="60.886663">
        <ele>246.9</ele>
        <time>2022-06-29T15:57:13.234Z</time>
    </trkpt>
    <trkpt lat="56.545909" lon="60.886632">
        <ele>246.8</ele>
        <time>2022-06-29T15:57:14.234Z</time>
    </trkpt>
    <trkpt lat="56.545909" lon="60.886606">
        <ele>246.8</ele>
        <time>2022-06-29T15:57:15.234Z</time>
    </trkpt>
    <trkpt lat="56.545908" lon="60.886585">
        <ele>246.7</ele>
        <time>2022-06-29T15:57:16.234Z</time>
    </trkpt>
    <trkpt lat="56.545908" lon="60.886552">
        <ele>246.6</ele>
        <time>2022-06-29T15:57:17.234Z</time>
    </trkpt>
    <trkpt lat="56.545905" lon="60.886539">
        <ele>246.6</ele>
        <time>2022-06-29T15:57:18.234Z</time>
    </trkpt>
    <trkpt lat="56.545903" lon="60.886525">
        <ele>246.5</ele>
        <time>2022-06-29T15:57:19.234Z</time>
    </trkpt>
    <trkpt lat="56.545903" lon="60.886481">
        <ele>246.4</ele>
        <time>2022-06-29T15:57:20.234Z</time>
    </trkpt>
    <trkpt lat="56.545916" lon="60.886452">
        <ele>246.3</ele>
        <time>2022-06-29T15:57:21.234Z</time>
    </trkpt>
    <trkpt lat="56.545914" lon="60.88643">
        <ele>246.3</ele>
        <time>2022-06-29T15:57:22.234Z</time>
    </trkpt>
    <trkpt lat="56.545913" lon="60.886411">
        <ele>246.2</ele>
        <time>2022-06-29T15:57:23.234Z</time>
    </trkpt>
    <trkpt lat="56.545912" lon="60.886393">
        <ele>246.2</ele>
        <time>2022-06-29T15:57:24.234Z</time>
    </trkpt>
    <trkpt lat="56.545908" lon="60.886353">
        <ele>246.1</ele>
        <time>2022-06-29T15:57:25.234Z</time>
    </trkpt>
    <trkpt lat="56.545897" lon="60.886329">
        <ele>246.0</ele>
        <time>2022-06-29T15:57:26.234Z</time>
    </trkpt>
    <trkpt lat="56.545889" lon="60.886315">
        <ele>246.0</ele>
        <time>2022-06-29T15:57:27.234Z</time>
    </trkpt>
    <trkpt lat="56.545887" lon="60.886302">
        <ele>245.9</ele>
        <time>2022-06-29T15:57:28.234Z</time>
    </trkpt>
    <trkpt lat="56.545883" lon="60.886268">
        <ele>245.9</ele>
        <time>2022-06-29T15:57:29.234Z</time>
    </trkpt>
    <trkpt lat="56.545885" lon="60.886246">
        <ele>245.8</ele>
        <time>2022-06-29T15:57:30.234Z</time>
    </trkpt>
    <trkpt lat="56.545885" lon="60.886227">
        <ele>245.8</ele>
        <time>2022-06-29T15:57:31.234Z</time>
    </trkpt>
    <trkpt lat="56.545879" lon="60.886207">
        <ele>245.7</ele>
        <time>2022-06-29T15:57:32.234Z</time>
    </trkpt>
    <trkpt lat="56.545876" lon="60.886193">
        <ele>245.7</ele>
        <time>2022-06-29T15:57:33.234Z</time>
    </trkpt>
    <trkpt lat="56.545873" lon="60.88618">
        <ele>245.6</ele>
        <time>2022-06-29T15:57:34.234Z</time>
    </trkpt>
    <trkpt lat="56.545861" lon="60.886143">
        <ele>245.5</ele>
        <time>2022-06-29T15:57:35.234Z</time>
    </trkpt>
    <trkpt lat="56.545869" lon="60.886118">
        <ele>245.5</ele>
        <time>2022-06-29T15:57:36.234Z</time>
    </trkpt>
    <trkpt lat="56.545871" lon="60.886094">
        <ele>245.4</ele>
        <time>2022-06-29T15:57:37.234Z</time>
    </trkpt>
    <trkpt lat="56.545871" lon="60.886079">
        <ele>245.4</ele>
        <time>2022-06-29T15:57:38.234Z</time>
    </trkpt>
    <trkpt lat="56.545871" lon="60.886064">
        <ele>245.4</ele>
        <time>2022-06-29T15:57:39.234Z</time>
    </trkpt>
    <trkpt lat="56.545867" lon="60.886026">
        <ele>245.3</ele>
        <time>2022-06-29T15:57:40.234Z</time>
    </trkpt>
    <trkpt lat="56.545851" lon="60.886003">
        <ele>245.2</ele>
        <time>2022-06-29T15:57:41.234Z</time>
    </trkpt>
    <trkpt lat="56.545854" lon="60.885982">
        <ele>245.1</ele>
        <time>2022-06-29T15:57:42.234Z</time>
    </trkpt>
    <trkpt lat="56.54585" lon="60.885968">
        <ele>245.1</ele>
        <time>2022-06-29T15:57:43.234Z</time>
    </trkpt>
    <trkpt lat="56.545845" lon="60.885954">
        <ele>245.0</ele>
        <time>2022-06-29T15:57:44.234Z</time>
    </trkpt>
    <trkpt lat="56.545835" lon="60.885908">
        <ele>244.9</ele>
        <time>2022-06-29T15:57:45.234Z</time>
    </trkpt>
    <trkpt lat="56.545832" lon="60.885878">
        <ele>244.8</ele>
        <time>2022-06-29T15:57:46.234Z</time>
    </trkpt>
    <trkpt lat="56.545829" lon="60.885854">
        <ele>244.8</ele>
        <time>2022-06-29T15:57:47.234Z</time>
    </trkpt>
    <trkpt lat="56.545825" lon="60.88584">
        <ele>244.8</ele>
        <time>2022-06-29T15:57:48.234Z</time>
    </trkpt>
    <trkpt lat="56.545821" lon="60.885827">
        <ele>244.7</ele>
        <time>2022-06-29T15:57:49.234Z</time>
    </trkpt>
    <trkpt lat="56.545806" lon="60.885792">
        <ele>244.6</ele>
        <time>2022-06-29T15:57:50.234Z</time>
    </trkpt>
    <trkpt lat="56.545802" lon="60.885777">
        <ele>244.6</ele>
        <time>2022-06-29T15:57:51.234Z</time>
    </trkpt>
    <trkpt lat="56.545799" lon="60.885762">
        <ele>244.5</ele>
        <time>2022-06-29T15:57:52.234Z</time>
    </trkpt>
    <trkpt lat="56.545787" lon="60.885724">
        <ele>244.4</ele>
        <time>2022-06-29T15:57:53.234Z</time>
    </trkpt>
    <trkpt lat="56.545779" lon="60.885697">
        <ele>244.4</ele>
        <time>2022-06-29T15:57:54.234Z</time>
    </trkpt>
    <trkpt lat="56.54577" lon="60.885679">
        <ele>244.3</ele>
        <time>2022-06-29T15:57:55.234Z</time>
    </trkpt>
    <trkpt lat="56.545758" lon="60.885658">
        <ele>244.3</ele>
        <time>2022-06-29T15:57:56.234Z</time>
    </trkpt>
    <trkpt lat="56.545752" lon="60.88563">
        <ele>244.2</ele>
        <time>2022-06-29T15:57:57.234Z</time>
    </trkpt>
    <trkpt lat="56.545745" lon="60.885605">
        <ele>244.1</ele>
        <time>2022-06-29T15:57:58.234Z</time>
    </trkpt>
    <trkpt lat="56.545736" lon="60.885583">
        <ele>244.1</ele>
        <time>2022-06-29T15:57:59.234Z</time>
    </trkpt>
    <trkpt lat="56.545733" lon="60.885563">
        <ele>244.0</ele>
        <time>2022-06-29T15:58:00.234Z</time>
    </trkpt>
    <trkpt lat="56.545721" lon="60.885534">
        <ele>244.0</ele>
        <time>2022-06-29T15:58:01.234Z</time>
    </trkpt>
    <trkpt lat="56.545716" lon="60.885513">
        <ele>244.0</ele>
        <time>2022-06-29T15:58:02.234Z</time>
    </trkpt>
    <trkpt lat="56.545715" lon="60.885486">
        <ele>243.9</ele>
        <time>2022-06-29T15:58:03.234Z</time>
    </trkpt>
    <trkpt lat="56.545708" lon="60.885456">
        <ele>243.9</ele>
        <time>2022-06-29T15:58:04.234Z</time>
    </trkpt>
    <trkpt lat="56.545703" lon="60.88543">
        <ele>243.9</ele>
        <time>2022-06-29T15:58:05.234Z</time>
    </trkpt>
    <trkpt lat="56.545695" lon="60.885408">
        <ele>243.9</ele>
        <time>2022-06-29T15:58:06.234Z</time>
    </trkpt>
    <trkpt lat="56.545692" lon="60.885381">
        <ele>243.8</ele>
        <time>2022-06-29T15:58:07.234Z</time>
    </trkpt>
    <trkpt lat="56.545688" lon="60.885364">
        <ele>243.8</ele>
        <time>2022-06-29T15:58:08.234Z</time>
    </trkpt>
    <trkpt lat="56.545674" lon="60.885323">
        <ele>243.8</ele>
        <time>2022-06-29T15:58:09.234Z</time>
    </trkpt>
    <trkpt lat="56.545671" lon="60.885308">
        <ele>243.8</ele>
        <time>2022-06-29T15:58:10.234Z</time>
    </trkpt>
    <trkpt lat="56.545668" lon="60.885294">
        <ele>243.8</ele>
        <time>2022-06-29T15:58:11.234Z</time>
    </trkpt>
    <trkpt lat="56.545661" lon="60.885257">
        <ele>243.8</ele>
        <time>2022-06-29T15:58:12.234Z</time>
    </trkpt>
    <trkpt lat="56.545657" lon="60.885241">
        <ele>243.8</ele>
        <time>2022-06-29T15:58:13.234Z</time>
    </trkpt>
    <trkpt lat="56.545632" lon="60.885211">
        <ele>243.8</ele>
        <time>2022-06-29T15:58:14.234Z</time>
    </trkpt>
    <trkpt lat="56.54563" lon="60.885194">
        <ele>243.8</ele>
        <time>2022-06-29T15:58:15.234Z</time>
    </trkpt>
    <trkpt lat="56.545628" lon="60.885177">
        <ele>243.8</ele>
        <time>2022-06-29T15:58:16.234Z</time>
    </trkpt>
    <trkpt lat="56.545618" lon="60.885144">
        <ele>243.8</ele>
        <time>2022-06-29T15:58:17.234Z</time>
    </trkpt>
    <trkpt lat="56.545613" lon="60.885129">
        <ele>243.8</ele>
        <time>2022-06-29T15:58:18.234Z</time>
    </trkpt>
    <trkpt lat="56.545607" lon="60.885113">
        <ele>243.8</ele>
        <time>2022-06-29T15:58:19.234Z</time>
    </trkpt>
    <trkpt lat="56.545596" lon="60.885083">
        <ele>243.8</ele>
        <time>2022-06-29T15:58:20.234Z</time>
    </trkpt>
    <trkpt lat="56.54559" lon="60.885069">
        <ele>243.9</ele>
        <time>2022-06-29T15:58:21.234Z</time>
    </trkpt>
    <trkpt lat="56.545571" lon="60.885029">
        <ele>243.9</ele>
        <time>2022-06-29T15:58:22.234Z</time>
    </trkpt>
    <trkpt lat="56.545559" lon="60.885011">
        <ele>243.9</ele>
        <time>2022-06-29T15:58:23.234Z</time>
    </trkpt>
    <trkpt lat="56.545549" lon="60.884986">
        <ele>243.9</ele>
        <time>2022-06-29T15:58:24.234Z</time>
    </trkpt>
    <trkpt lat="56.545545" lon="60.884961">
        <ele>243.9</ele>
        <time>2022-06-29T15:58:25.234Z</time>
    </trkpt>
    <trkpt lat="56.545539" lon="60.884932">
        <ele>243.9</ele>
        <time>2022-06-29T15:58:26.234Z</time>
    </trkpt>
    <trkpt lat="56.545534" lon="60.884908">
        <ele>243.9</ele>
        <time>2022-06-29T15:58:27.234Z</time>
    </trkpt>
    <trkpt lat="56.545517" lon="60.884888">
        <ele>243.9</ele>
        <time>2022-06-29T15:58:28.234Z</time>
    </trkpt>
    <trkpt lat="56.545513" lon="60.884858">
        <ele>243.9</ele>
        <time>2022-06-29T15:58:29.234Z</time>
    </trkpt>
    <trkpt lat="56.54551" lon="60.884834">
        <ele>243.9</ele>
        <time>2022-06-29T15:58:30.234Z</time>
    </trkpt>
    <trkpt lat="56.545499" lon="60.884803">
        <ele>243.9</ele>
        <time>2022-06-29T15:58:31.234Z</time>
    </trkpt>
    <trkpt lat="56.545496" lon="60.884776">
        <ele>243.9</ele>
        <time>2022-06-29T15:58:32.234Z</time>
    </trkpt>
    <trkpt lat="56.545493" lon="60.884752">
        <ele>243.9</ele>
        <time>2022-06-29T15:58:33.234Z</time>
    </trkpt>
    <trkpt lat="56.545486" lon="60.884723">
        <ele>244.0</ele>
        <time>2022-06-29T15:58:34.234Z</time>
    </trkpt>
    <trkpt lat="56.545479" lon="60.884666">
        <ele>239.9</ele>
        <time>2022-06-29T15:58:35.811Z</time>
    </trkpt>
    <trkpt lat="56.545246515461606" lon="60.88372224410681">
        <ele>238.9</ele>
        <time>2022-06-29T15:59:03.739Z</time>
    </trkpt>
    <trkpt lat="56.544960790057885" lon="60.88256236831501">
        <ele>238.4</ele>
        <time>2022-06-29T15:59:38.063Z</time>
    </trkpt>
    <trkpt lat="56.54467506249773" lon="60.8814024925232">
        <ele>235.3</ele>
        <time>2022-06-29T16:00:12.388Z</time>
    </trkpt>
    <trkpt lat="56.54458038832254" lon="60.88112917112464">
        <ele>235.5</ele>
        <time>2022-06-29T16:00:21.109Z</time>
    </trkpt>
    <trkpt lat="56.544207781462404" lon="60.880053473349186">
        <ele>235.1</ele>
        <time>2022-06-29T16:00:55.434Z</time>
    </trkpt>
    <trkpt lat="56.54383517093509" lon="60.87897777557374">
        <ele>235.7</ele>
        <time>2022-06-29T16:01:29.759Z</time>
    </trkpt>
    <trkpt lat="56.54374058558569" lon="60.87833338778686">
        <ele>230.1</ele>
        <time>2022-06-29T16:01:47.776Z</time>
    </trkpt>
    <trkpt lat="56.54364600000001" lon="60.877689">
        <ele>221.6</ele>
        <time>2022-06-29T16:02:02.909Z</time>
    </trkpt>
    <trkpt lat="56.543647" lon="60.87768">
        <ele>224.2</ele>
        <time>2022-06-29T16:02:03.117Z</time>
    </trkpt>
    <trkpt lat="56.543644" lon="60.877676">
        <ele>224.2</ele>
        <time>2022-06-29T16:02:04.117Z</time>
    </trkpt>
    <trkpt lat="56.543643" lon="60.877672">
        <ele>224.2</ele>
        <time>2022-06-29T16:02:05.117Z</time>
    </trkpt>
    <trkpt lat="56.543641" lon="60.877664">
        <ele>224.2</ele>
        <time>2022-06-29T16:02:06.117Z</time>
    </trkpt>
    <trkpt lat="56.543643" lon="60.87766">
        <ele>224.1</ele>
        <time>2022-06-29T16:02:07.117Z</time>
    </trkpt>
    <trkpt lat="56.543648" lon="60.877654">
        <ele>224.1</ele>
        <time>2022-06-29T16:02:08.117Z</time>
    </trkpt>
    <trkpt lat="56.543643" lon="60.877645">
        <ele>224.1</ele>
        <time>2022-06-29T16:02:09.117Z</time>
    </trkpt>
    <trkpt lat="56.543647" lon="60.877637">
        <ele>224.0</ele>
        <time>2022-06-29T16:02:10.117Z</time>
    </trkpt>
    <trkpt lat="56.543648" lon="60.877625">
        <ele>224.0</ele>
        <time>2022-06-29T16:02:11.117Z</time>
    </trkpt>
    <trkpt lat="56.543644" lon="60.877598">
        <ele>223.9</ele>
        <time>2022-06-29T16:02:12.117Z</time>
    </trkpt>
    <trkpt lat="56.54364" lon="60.877582">
        <ele>223.8</ele>
        <time>2022-06-29T16:02:13.117Z</time>
    </trkpt>
    <trkpt lat="56.543628" lon="60.87754">
        <ele>223.6</ele>
        <time>2022-06-29T16:02:14.117Z</time>
    </trkpt>
    <trkpt lat="56.543619" lon="60.87753">
        <ele>223.6</ele>
        <time>2022-06-29T16:02:15.117Z</time>
    </trkpt>
    <trkpt lat="56.543612" lon="60.87748">
        <ele>223.4</ele>
        <time>2022-06-29T16:02:16.117Z</time>
    </trkpt>
    <trkpt lat="56.543613" lon="60.877467">
        <ele>223.3</ele>
        <time>2022-06-29T16:02:17.117Z</time>
    </trkpt>
    <trkpt lat="56.543605" lon="60.877409">
        <ele>223.1</ele>
        <time>2022-06-29T16:02:18.117Z</time>
    </trkpt>
    <trkpt lat="56.543603" lon="60.877394">
        <ele>223.0</ele>
        <time>2022-06-29T16:02:19.117Z</time>
    </trkpt>
    <trkpt lat="56.543597" lon="60.877339">
        <ele>222.8</ele>
        <time>2022-06-29T16:02:20.117Z</time>
    </trkpt>
    <trkpt lat="56.543591" lon="60.877318">
        <ele>222.7</ele>
        <time>2022-06-29T16:02:21.117Z</time>
    </trkpt>
    <trkpt lat="56.543582" lon="60.877279">
        <ele>222.6</ele>
        <time>2022-06-29T16:02:22.117Z</time>
    </trkpt>
    <trkpt lat="56.543571" lon="60.877217">
        <ele>222.3</ele>
        <time>2022-06-29T16:02:23.117Z</time>
    </trkpt>
    <trkpt lat="56.543568" lon="60.877204">
        <ele>222.2</ele>
        <time>2022-06-29T16:02:24.117Z</time>
    </trkpt>
    <trkpt lat="56.543552" lon="60.877152">
        <ele>222.0</ele>
        <time>2022-06-29T16:02:25.117Z</time>
    </trkpt>
    <trkpt lat="56.543548" lon="60.877135">
        <ele>221.9</ele>
        <time>2022-06-29T16:02:26.117Z</time>
    </trkpt>
    <trkpt lat="56.543541" lon="60.877089">
        <ele>221.7</ele>
        <time>2022-06-29T16:02:27.117Z</time>
    </trkpt>
    <trkpt lat="56.543533" lon="60.87705">
        <ele>221.6</ele>
        <time>2022-06-29T16:02:28.117Z</time>
    </trkpt>
    <trkpt lat="56.543536" lon="60.877036">
        <ele>221.5</ele>
        <time>2022-06-29T16:02:29.117Z</time>
    </trkpt>
    <trkpt lat="56.543535" lon="60.877009">
        <ele>221.4</ele>
        <time>2022-06-29T16:02:30.117Z</time>
    </trkpt>
    <trkpt lat="56.543532" lon="60.876959">
        <ele>221.2</ele>
        <time>2022-06-29T16:02:31.117Z</time>
    </trkpt>
    <trkpt lat="56.543524" lon="60.87693">
        <ele>221.1</ele>
        <time>2022-06-29T16:02:32.117Z</time>
    </trkpt>
    <trkpt lat="56.543522" lon="60.876904">
        <ele>221.0</ele>
        <time>2022-06-29T16:02:33.117Z</time>
    </trkpt>
    <trkpt lat="56.543518" lon="60.876886">
        <ele>220.9</ele>
        <time>2022-06-29T16:02:34.117Z</time>
    </trkpt>
    <trkpt lat="56.543514" lon="60.876868">
        <ele>220.8</ele>
        <time>2022-06-29T16:02:35.117Z</time>
    </trkpt>
    <trkpt lat="56.54351" lon="60.876824">
        <ele>220.7</ele>
        <time>2022-06-29T16:02:36.117Z</time>
    </trkpt>
    <trkpt lat="56.54351" lon="60.876805">
        <ele>220.6</ele>
        <time>2022-06-29T16:02:37.117Z</time>
    </trkpt>
    <trkpt lat="56.543505" lon="60.876754">
        <ele>220.5</ele>
        <time>2022-06-29T16:02:38.117Z</time>
    </trkpt>
    <trkpt lat="56.543502" lon="60.876724">
        <ele>220.4</ele>
        <time>2022-06-29T16:02:39.117Z</time>
    </trkpt>
    <trkpt lat="56.543505" lon="60.87669">
        <ele>220.3</ele>
        <time>2022-06-29T16:02:40.117Z</time>
    </trkpt>
    <trkpt lat="56.543504" lon="60.876669">
        <ele>220.3</ele>
        <time>2022-06-29T16:02:41.117Z</time>
    </trkpt>
    <trkpt lat="56.543507" lon="60.876614">
        <ele>220.1</ele>
        <time>2022-06-29T16:02:42.117Z</time>
    </trkpt>
    <trkpt lat="56.543512" lon="60.876584">
        <ele>220.0</ele>
        <time>2022-06-29T16:02:43.117Z</time>
    </trkpt>
    <trkpt lat="56.543513" lon="60.876551">
        <ele>220.0</ele>
        <time>2022-06-29T16:02:44.117Z</time>
    </trkpt>
    <trkpt lat="56.543511" lon="60.876535">
        <ele>219.9</ele>
        <time>2022-06-29T16:02:45.117Z</time>
    </trkpt>
    <trkpt lat="56.543513" lon="60.876483">
        <ele>219.8</ele>
        <time>2022-06-29T16:02:46.117Z</time>
    </trkpt>
    <trkpt lat="56.543514" lon="60.876454">
        <ele>219.7</ele>
        <time>2022-06-29T16:02:47.117Z</time>
    </trkpt>
    <trkpt lat="56.543515" lon="60.876421">
        <ele>219.7</ele>
        <time>2022-06-29T16:02:48.117Z</time>
    </trkpt>
    <trkpt lat="56.543518" lon="60.876388">
        <ele>219.6</ele>
        <time>2022-06-29T16:02:49.117Z</time>
    </trkpt>
    <trkpt lat="56.543517" lon="60.876363">
        <ele>219.5</ele>
        <time>2022-06-29T16:02:50.117Z</time>
    </trkpt>
    <trkpt lat="56.543518" lon="60.876344">
        <ele>219.5</ele>
        <time>2022-06-29T16:02:51.117Z</time>
    </trkpt>
    <trkpt lat="56.543516" lon="60.876292">
        <ele>219.4</ele>
        <time>2022-06-29T16:02:52.117Z</time>
    </trkpt>
    <trkpt lat="56.54352" lon="60.876266">
        <ele>219.3</ele>
        <time>2022-06-29T16:02:53.117Z</time>
    </trkpt>
    <trkpt lat="56.543525" lon="60.87624">
        <ele>219.3</ele>
        <time>2022-06-29T16:02:54.117Z</time>
    </trkpt>
    <trkpt lat="56.54353" lon="60.876213">
        <ele>219.2</ele>
        <time>2022-06-29T16:02:56.117Z</time>
    </trkpt>
    <trkpt lat="56.543533" lon="60.876166">
        <ele>219.1</ele>
        <time>2022-06-29T16:02:57.117Z</time>
    </trkpt>
    <trkpt lat="56.543536" lon="60.876131">
        <ele>219.0</ele>
        <time>2022-06-29T16:02:58.117Z</time>
    </trkpt>
    <trkpt lat="56.543536" lon="60.876107">
        <ele>219.0</ele>
        <time>2022-06-29T16:02:59.117Z</time>
    </trkpt>
    <trkpt lat="56.543533" lon="60.87609">
        <ele>218.9</ele>
        <time>2022-06-29T16:03:00.117Z</time>
    </trkpt>
    <trkpt lat="56.543533" lon="60.876072">
        <ele>218.9</ele>
        <time>2022-06-29T16:03:01.117Z</time>
    </trkpt>
    <trkpt lat="56.543536" lon="60.876067">
        <ele>218.9</ele>
        <time>2022-06-29T16:03:02.117Z</time>
    </trkpt>
    <trkpt lat="56.543535" lon="60.876064">
        <ele>218.9</ele>
        <time>2022-06-29T16:03:03.117Z</time>
    </trkpt>
    <trkpt lat="56.543536" lon="60.87606">
        <ele>218.9</ele>
        <time>2022-06-29T16:03:04.117Z</time>
    </trkpt>
    <trkpt lat="56.543542" lon="60.876065">
        <ele>218.9</ele>
        <time>2022-06-29T16:03:05.117Z</time>
    </trkpt>
    <trkpt lat="56.54354" lon="60.876061">
        <ele>218.8</ele>
        <time>2022-06-29T16:03:06.117Z</time>
    </trkpt>
    <trkpt lat="56.543537" lon="60.87605">
        <ele>218.8</ele>
        <time>2022-06-29T16:03:07.117Z</time>
    </trkpt>
    <trkpt lat="56.543537" lon="60.876029">
        <ele>218.8</ele>
        <time>2022-06-29T16:03:08.117Z</time>
    </trkpt>
    <trkpt lat="56.543533" lon="60.875984">
        <ele>218.7</ele>
        <time>2022-06-29T16:03:09.117Z</time>
    </trkpt>
    <trkpt lat="56.543533" lon="60.875961">
        <ele>218.7</ele>
        <time>2022-06-29T16:03:10.117Z</time>
    </trkpt>
    <trkpt lat="56.543536" lon="60.87591">
        <ele>218.6</ele>
        <time>2022-06-29T16:03:11.117Z</time>
    </trkpt>
    <trkpt lat="56.543538" lon="60.875887">
        <ele>218.5</ele>
        <time>2022-06-29T16:03:12.117Z</time>
    </trkpt>
    <trkpt lat="56.543539" lon="60.875822">
        <ele>218.5</ele>
        <time>2022-06-29T16:03:13.117Z</time>
    </trkpt>
    <trkpt lat="56.543542" lon="60.875791">
        <ele>218.4</ele>
        <time>2022-06-29T16:03:14.117Z</time>
    </trkpt>
    <trkpt lat="56.54354" lon="60.875766">
        <ele>218.4</ele>
        <time>2022-06-29T16:03:15.117Z</time>
    </trkpt>
    <trkpt lat="56.543542" lon="60.875743">
        <ele>218.3</ele>
        <time>2022-06-29T16:03:16.117Z</time>
    </trkpt>
    <trkpt lat="56.54355" lon="60.875675">
        <ele>218.2</ele>
        <time>2022-06-29T16:03:17.117Z</time>
    </trkpt>
    <trkpt lat="56.543552" lon="60.875657">
        <ele>218.2</ele>
        <time>2022-06-29T16:03:18.117Z</time>
    </trkpt>
    <trkpt lat="56.54356" lon="60.875592">
        <ele>218.1</ele>
        <time>2022-06-29T16:03:19.117Z</time>
    </trkpt>
    <trkpt lat="56.543561" lon="60.875571">
        <ele>218.1</ele>
        <time>2022-06-29T16:03:20.117Z</time>
    </trkpt>
    <trkpt lat="56.543566" lon="60.875508">
        <ele>218.0</ele>
        <time>2022-06-29T16:03:21.117Z</time>
    </trkpt>
    <trkpt lat="56.54358" lon="60.875466">
        <ele>217.9</ele>
        <time>2022-06-29T16:03:22.117Z</time>
    </trkpt>
    <trkpt lat="56.543583" lon="60.875444">
        <ele>217.9</ele>
        <time>2022-06-29T16:03:23.117Z</time>
    </trkpt>
    <trkpt lat="56.543584" lon="60.87538">
        <ele>217.8</ele>
        <time>2022-06-29T16:03:24.117Z</time>
    </trkpt>
    <trkpt lat="56.543588" lon="60.875357">
        <ele>217.8</ele>
        <time>2022-06-29T16:03:25.117Z</time>
    </trkpt>
    <trkpt lat="56.543594" lon="60.875291">
        <ele>217.7</ele>
        <time>2022-06-29T16:03:26.117Z</time>
    </trkpt>
    <trkpt lat="56.543595" lon="60.875264">
        <ele>217.7</ele>
        <time>2022-06-29T16:03:27.117Z</time>
    </trkpt>
    <trkpt lat="56.543592" lon="60.875196">
        <ele>217.6</ele>
        <time>2022-06-29T16:03:28.117Z</time>
    </trkpt>
    <trkpt lat="56.543591" lon="60.875174">
        <ele>217.6</ele>
        <time>2022-06-29T16:03:29.117Z</time>
    </trkpt>
    <trkpt lat="56.543593" lon="60.875117">
        <ele>217.5</ele>
        <time>2022-06-29T16:03:30.117Z</time>
    </trkpt>
    <trkpt lat="56.543593" lon="60.875095">
        <ele>217.4</ele>
        <time>2022-06-29T16:03:31.117Z</time>
    </trkpt>
    <trkpt lat="56.543586" lon="60.875035">
        <ele>217.3</ele>
        <time>2022-06-29T16:03:32.117Z</time>
    </trkpt>
    <trkpt lat="56.543579" lon="60.874987">
        <ele>217.3</ele>
        <time>2022-06-29T16:03:33.117Z</time>
    </trkpt>
    <trkpt lat="56.54358" lon="60.874963">
        <ele>217.2</ele>
        <time>2022-06-29T16:03:34.117Z</time>
    </trkpt>
    <trkpt lat="56.54358" lon="60.874893">
        <ele>217.1</ele>
        <time>2022-06-29T16:03:35.117Z</time>
    </trkpt>
    <trkpt lat="56.543587" lon="60.874872">
        <ele>217.1</ele>
        <time>2022-06-29T16:03:36.117Z</time>
    </trkpt>
    <trkpt lat="56.543584" lon="60.874807">
        <ele>216.9</ele>
        <time>2022-06-29T16:03:37.117Z</time>
    </trkpt>
    <trkpt lat="56.543588" lon="60.874785">
        <ele>216.9</ele>
        <time>2022-06-29T16:03:38.117Z</time>
    </trkpt>
    <trkpt lat="56.543592" lon="60.874763">
        <ele>216.8</ele>
        <time>2022-06-29T16:03:39.117Z</time>
    </trkpt>
    <trkpt lat="56.543596" lon="60.874741">
        <ele>216.8</ele>
        <time>2022-06-29T16:04:02.117Z</time>
    </trkpt>
    <trkpt lat="56.5436" lon="60.874719">
        <ele>216.7</ele>
        <time>2022-06-29T16:04:03.117Z</time>
    </trkpt>
    <trkpt lat="56.543604" lon="60.874697">
        <ele>216.7</ele>
        <time>2022-06-29T16:04:04.117Z</time>
    </trkpt>
    <trkpt lat="56.543608" lon="60.874675">
        <ele>216.6</ele>
        <time>2022-06-29T16:04:05.117Z</time>
    </trkpt>
    <trkpt lat="56.543612" lon="60.874653">
        <ele>216.6</ele>
        <time>2022-06-29T16:04:06.117Z</time>
    </trkpt>
    <trkpt lat="56.543615" lon="60.874631">
        <ele>216.5</ele>
        <time>2022-06-29T16:04:07.117Z</time>
    </trkpt>
    <trkpt lat="56.543619" lon="60.874609">
        <ele>216.5</ele>
        <time>2022-06-29T16:04:08.117Z</time>
    </trkpt>
    <trkpt lat="56.543623" lon="60.874587">
        <ele>216.4</ele>
        <time>2022-06-29T16:04:09.117Z</time>
    </trkpt>
    <trkpt lat="56.543627" lon="60.874565">
        <ele>216.4</ele>
        <time>2022-06-29T16:04:10.117Z</time>
    </trkpt>
    <trkpt lat="56.543629" lon="60.874544">
        <ele>216.4</ele>
        <time>2022-06-29T16:04:11.117Z</time>
    </trkpt>
    <trkpt lat="56.543622" lon="60.87452">
        <ele>216.3</ele>
        <time>2022-06-29T16:04:12.117Z</time>
    </trkpt>
    <trkpt lat="56.543619" lon="60.874499">
        <ele>216.3</ele>
        <time>2022-06-29T16:04:13.117Z</time>
    </trkpt>
    <trkpt lat="56.543625" lon="60.874474">
        <ele>216.3</ele>
        <time>2022-06-29T16:04:14.117Z</time>
    </trkpt>
    <trkpt lat="56.543631" lon="60.874443">
        <ele>216.2</ele>
        <time>2022-06-29T16:04:15.117Z</time>
    </trkpt>
    <trkpt lat="56.543635" lon="60.874426">
        <ele>216.2</ele>
        <time>2022-06-29T16:04:16.117Z</time>
    </trkpt>
    <trkpt lat="56.543638" lon="60.874363">
        <ele>216.1</ele>
        <time>2022-06-29T16:04:17.117Z</time>
    </trkpt>
    <trkpt lat="56.543642" lon="60.874347">
        <ele>216.1</ele>
        <time>2022-06-29T16:04:18.117Z</time>
    </trkpt>
    <trkpt lat="56.543652" lon="60.874292">
        <ele>216.0</ele>
        <time>2022-06-29T16:04:19.117Z</time>
    </trkpt>
    <trkpt lat="56.543655" lon="60.87427">
        <ele>216.0</ele>
        <time>2022-06-29T16:04:20.117Z</time>
    </trkpt>
    <trkpt lat="56.543663" lon="60.874212">
        <ele>216.0</ele>
        <time>2022-06-29T16:04:21.117Z</time>
    </trkpt>
    <trkpt lat="56.543667" lon="60.874182">
        <ele>215.9</ele>
        <time>2022-06-29T16:04:22.117Z</time>
    </trkpt>
    <trkpt lat="56.543668" lon="60.874155">
        <ele>215.9</ele>
        <time>2022-06-29T16:04:23.117Z</time>
    </trkpt>
    <trkpt lat="56.543671" lon="60.874136">
        <ele>215.9</ele>
        <time>2022-06-29T16:04:24.117Z</time>
    </trkpt>
    <trkpt lat="56.543675" lon="60.874076">
        <ele>215.8</ele>
        <time>2022-06-29T16:04:25.117Z</time>
    </trkpt>
    <trkpt lat="56.543678" lon="60.874062">
        <ele>215.8</ele>
        <time>2022-06-29T16:04:26.117Z</time>
    </trkpt>
    <trkpt lat="56.543682" lon="60.874009">
        <ele>215.7</ele>
        <time>2022-06-29T16:04:27.117Z</time>
    </trkpt>
    <trkpt lat="56.543684" lon="60.873987">
        <ele>215.7</ele>
        <time>2022-06-29T16:04:28.117Z</time>
    </trkpt>
    <trkpt lat="56.543691" lon="60.87392">
        <ele>215.6</ele>
        <time>2022-06-29T16:04:29.117Z</time>
    </trkpt>
    <trkpt lat="56.543698" lon="60.873868">
        <ele>215.6</ele>
        <time>2022-06-29T16:04:30.117Z</time>
    </trkpt>
    <trkpt lat="56.543699" lon="60.873844">
        <ele>215.6</ele>
        <time>2022-06-29T16:04:31.117Z</time>
    </trkpt>
    <trkpt lat="56.5437" lon="60.87378">
        <ele>215.5</ele>
        <time>2022-06-29T16:04:32.117Z</time>
    </trkpt>
    <trkpt lat="56.543702" lon="60.873762">
        <ele>215.5</ele>
        <time>2022-06-29T16:04:33.117Z</time>
    </trkpt>
    <trkpt lat="56.543705" lon="60.873707">
        <ele>215.5</ele>
        <time>2022-06-29T16:04:34.117Z</time>
    </trkpt>
    <trkpt lat="56.543707" lon="60.873691">
        <ele>215.5</ele>
        <time>2022-06-29T16:04:35.117Z</time>
    </trkpt>
    <trkpt lat="56.543717" lon="60.873635">
        <ele>215.5</ele>
        <time>2022-06-29T16:04:36.117Z</time>
    </trkpt>
    <trkpt lat="56.54372" lon="60.873612">
        <ele>215.5</ele>
        <time>2022-06-29T16:04:37.117Z</time>
    </trkpt>
    <trkpt lat="56.543721" lon="60.87354">
        <ele>215.5</ele>
        <time>2022-06-29T16:04:38.117Z</time>
    </trkpt>
    <trkpt lat="56.54372" lon="60.87347">
        <ele>215.4</ele>
        <time>2022-06-29T16:04:39.117Z</time>
    </trkpt>
    <trkpt lat="56.543723" lon="60.873395">
        <ele>215.4</ele>
        <time>2022-06-29T16:04:40.117Z</time>
    </trkpt>
    <trkpt lat="56.543728" lon="60.87332">
        <ele>215.4</ele>
        <time>2022-06-29T16:04:41.117Z</time>
    </trkpt>
    <trkpt lat="56.543727" lon="60.873257">
        <ele>215.3</ele>
        <time>2022-06-29T16:04:42.117Z</time>
    </trkpt>
    <trkpt lat="56.543727" lon="60.873196">
        <ele>215.2</ele>
        <time>2022-06-29T16:04:43.117Z</time>
    </trkpt>
    <trkpt lat="56.543731" lon="60.873136">
        <ele>214.9</ele>
        <time>2022-06-29T16:04:44.117Z</time>
    </trkpt>
    <trkpt lat="56.543734" lon="60.873077">
        <ele>214.5</ele>
        <time>2022-06-29T16:04:45.117Z</time>
    </trkpt>
    <trkpt lat="56.543732" lon="60.873048">
        <ele>214.3</ele>
        <time>2022-06-29T16:04:46.117Z</time>
    </trkpt>
    <trkpt lat="56.54373" lon="60.872973">
        <ele>213.8</ele>
        <time>2022-06-29T16:04:47.117Z</time>
    </trkpt>
    <trkpt lat="56.543728" lon="60.872949">
        <ele>213.7</ele>
        <time>2022-06-29T16:04:48.117Z</time>
    </trkpt>
    <trkpt lat="56.543724" lon="60.872885">
        <ele>213.3</ele>
        <time>2022-06-29T16:04:49.117Z</time>
    </trkpt>
    <trkpt lat="56.543723" lon="60.872867">
        <ele>213.2</ele>
        <time>2022-06-29T16:04:50.117Z</time>
    </trkpt>
    <trkpt lat="56.543722" lon="60.87282">
        <ele>212.9</ele>
        <time>2022-06-29T16:04:51.117Z</time>
    </trkpt>
    <trkpt lat="56.543722" lon="60.872799">
        <ele>212.7</ele>
        <time>2022-06-29T16:04:52.117Z</time>
    </trkpt>
    <trkpt lat="56.54372" lon="60.872744">
        <ele>212.4</ele>
        <time>2022-06-29T16:04:53.117Z</time>
    </trkpt>
    <trkpt lat="56.54372" lon="60.872725">
        <ele>212.2</ele>
        <time>2022-06-29T16:04:54.117Z</time>
    </trkpt>
    <trkpt lat="56.543721" lon="60.872706">
        <ele>212.1</ele>
        <time>2022-06-29T16:04:55.117Z</time>
    </trkpt>
    <trkpt lat="56.543717" lon="60.87267">
        <ele>212.2</ele>
        <time>2022-06-29T16:04:56.117Z</time>
    </trkpt>
    <trkpt lat="56.543718" lon="60.872656">
        <ele>212.3</ele>
        <time>2022-06-29T16:04:57.117Z</time>
    </trkpt>
    <trkpt lat="56.543719" lon="60.872642">
        <ele>212.3</ele>
        <time>2022-06-29T16:04:58.117Z</time>
    </trkpt>
    <trkpt lat="56.543719" lon="60.872628">
        <ele>212.3</ele>
        <time>2022-06-29T16:07:43.117Z</time>
    </trkpt>
    <trkpt lat="56.54372" lon="60.872614">
        <ele>212.4</ele>
        <time>2022-06-29T16:07:44.117Z</time>
    </trkpt>
    <trkpt lat="56.543721" lon="60.8726">
        <ele>212.4</ele>
        <time>2022-06-29T16:07:45.117Z</time>
    </trkpt>
    <trkpt lat="56.543721" lon="60.872585">
        <ele>212.5</ele>
        <time>2022-06-29T16:07:46.117Z</time>
    </trkpt>
    <trkpt lat="56.543722" lon="60.872571">
        <ele>212.5</ele>
        <time>2022-06-29T16:07:47.117Z</time>
    </trkpt>
    <trkpt lat="56.543722" lon="60.872557">
        <ele>212.6</ele>
        <time>2022-06-29T16:07:48.117Z</time>
    </trkpt>
    <trkpt lat="56.543723" lon="60.872543">
        <ele>212.6</ele>
        <time>2022-06-29T16:07:49.117Z</time>
    </trkpt>
    <trkpt lat="56.543724" lon="60.872529">
        <ele>212.6</ele>
        <time>2022-06-29T16:07:50.117Z</time>
    </trkpt>
    <trkpt lat="56.543724" lon="60.872515">
        <ele>212.7</ele>
        <time>2022-06-29T16:07:51.117Z</time>
    </trkpt>
    <trkpt lat="56.543728" lon="60.872511">
        <ele>212.7</ele>
        <time>2022-06-29T16:07:52.117Z</time>
    </trkpt>
    <trkpt lat="56.54373" lon="60.872495">
        <ele>212.8</ele>
        <time>2022-06-29T16:07:53.117Z</time>
    </trkpt>
    <trkpt lat="56.543729" lon="60.872471">
        <ele>212.9</ele>
        <time>2022-06-29T16:07:54.117Z</time>
    </trkpt>
    <trkpt lat="56.543725" lon="60.872453">
        <ele>212.9</ele>
        <time>2022-06-29T16:07:55.117Z</time>
    </trkpt>
    <trkpt lat="56.543719" lon="60.872421">
        <ele>213.1</ele>
        <time>2022-06-29T16:07:56.117Z</time>
    </trkpt>
    <trkpt lat="56.543715" lon="60.872401">
        <ele>213.2</ele>
        <time>2022-06-29T16:07:57.117Z</time>
    </trkpt>
    <trkpt lat="56.543712" lon="60.872378">
        <ele>213.3</ele>
        <time>2022-06-29T16:07:58.117Z</time>
    </trkpt>
    <trkpt lat="56.543707" lon="60.872349">
        <ele>213.4</ele>
        <time>2022-06-29T16:07:59.117Z</time>
    </trkpt>
    <trkpt lat="56.543696" lon="60.872291">
        <ele>213.6</ele>
        <time>2022-06-29T16:08:40.117Z</time>
    </trkpt>
    <trkpt lat="56.543696" lon="60.872291">
        <ele>213.6</ele>
        <time>2022-06-29T16:08:41.117Z</time>
    </trkpt>
    <trkpt lat="56.543698" lon="60.872287">
        <ele>213.6</ele>
        <time>2022-06-29T16:08:42.117Z</time>
    </trkpt>
    <trkpt lat="56.543699" lon="60.872279">
        <ele>213.7</ele>
        <time>2022-06-29T16:08:43.117Z</time>
    </trkpt>
    <trkpt lat="56.543709" lon="60.872265">
        <ele>213.8</ele>
        <time>2022-06-29T16:08:44.117Z</time>
    </trkpt>
    <trkpt lat="56.543711" lon="60.872263">
        <ele>213.8</ele>
        <time>2022-06-29T16:08:45.117Z</time>
    </trkpt>
    <trkpt lat="56.543706" lon="60.872261">
        <ele>213.8</ele>
        <time>2022-06-29T16:08:46.117Z</time>
    </trkpt>
    <trkpt lat="56.543707" lon="60.872255">
        <ele>213.9</ele>
        <time>2022-06-29T16:08:47.117Z</time>
    </trkpt>
    <trkpt lat="56.543709" lon="60.872258">
        <ele>213.9</ele>
        <time>2022-06-29T16:08:48.117Z</time>
    </trkpt>
    <trkpt lat="56.543708" lon="60.872244">
        <ele>213.9</ele>
        <time>2022-06-29T16:08:49.117Z</time>
    </trkpt>
    <trkpt lat="56.543707" lon="60.872235">
        <ele>214.0</ele>
        <time>2022-06-29T16:08:50.117Z</time>
    </trkpt>
    <trkpt lat="56.543707" lon="60.872225">
        <ele>214.0</ele>
        <time>2022-06-29T16:08:51.117Z</time>
    </trkpt>
    <trkpt lat="56.543706" lon="60.872216">
        <ele>214.0</ele>
        <time>2022-06-29T16:08:52.117Z</time>
    </trkpt>
    <trkpt lat="56.543705" lon="60.872174">
        <ele>214.2</ele>
        <time>2022-06-29T16:08:53.117Z</time>
    </trkpt>
    <trkpt lat="56.543697" lon="60.872115">
        <ele>214.4</ele>
        <time>2022-06-29T16:08:54.117Z</time>
    </trkpt>
    <trkpt lat="56.543694" lon="60.872057">
        <ele>214.5</ele>
        <time>2022-06-29T16:08:55.117Z</time>
    </trkpt>
    <trkpt lat="56.543696" lon="60.872034">
        <ele>214.6</ele>
        <time>2022-06-29T16:08:56.117Z</time>
    </trkpt>
    <trkpt lat="56.543706" lon="60.871973">
        <ele>214.8</ele>
        <time>2022-06-29T16:08:57.117Z</time>
    </trkpt>
    <trkpt lat="56.543704" lon="60.871954">
        <ele>214.8</ele>
        <time>2022-06-29T16:08:58.117Z</time>
    </trkpt>
    <trkpt lat="56.543696" lon="60.871893">
        <ele>214.9</ele>
        <time>2022-06-29T16:08:59.117Z</time>
    </trkpt>
    <trkpt lat="56.543691" lon="60.871875">
        <ele>215.0</ele>
        <time>2022-06-29T16:09:00.117Z</time>
    </trkpt>
    <trkpt lat="56.543687" lon="60.871818">
        <ele>215.1</ele>
        <time>2022-06-29T16:09:01.117Z</time>
    </trkpt>
    <trkpt lat="56.543681" lon="60.871765">
        <ele>215.2</ele>
        <time>2022-06-29T16:09:02.117Z</time>
    </trkpt>
    <trkpt lat="56.543682" lon="60.871746">
        <ele>215.3</ele>
        <time>2022-06-29T16:09:03.117Z</time>
    </trkpt>
    <trkpt lat="56.543686" lon="60.871683">
        <ele>215.4</ele>
        <time>2022-06-29T16:09:04.117Z</time>
    </trkpt>
    <trkpt lat="56.543678" lon="60.871627">
        <ele>215.6</ele>
        <time>2022-06-29T16:09:05.117Z</time>
    </trkpt>
    <trkpt lat="56.543672" lon="60.871604">
        <ele>215.6</ele>
        <time>2022-06-29T16:09:06.117Z</time>
    </trkpt>
    <trkpt lat="56.543658" lon="60.871546">
        <ele>215.8</ele>
        <time>2022-06-29T16:09:07.117Z</time>
    </trkpt>
    <trkpt lat="56.543656" lon="60.871527">
        <ele>215.8</ele>
        <time>2022-06-29T16:09:08.117Z</time>
    </trkpt>
    <trkpt lat="56.543648" lon="60.871468">
        <ele>216.0</ele>
        <time>2022-06-29T16:09:09.117Z</time>
    </trkpt>
    <trkpt lat="56.543654" lon="60.871449">
        <ele>216.0</ele>
        <time>2022-06-29T16:09:10.117Z</time>
    </trkpt>
    <trkpt lat="56.543669" lon="60.871395">
        <ele>216.1</ele>
        <time>2022-06-29T16:09:11.117Z</time>
    </trkpt>
    <trkpt lat="56.54368" lon="60.871374">
        <ele>216.1</ele>
        <time>2022-06-29T16:09:12.117Z</time>
    </trkpt>
    <trkpt lat="56.543693" lon="60.871347">
        <ele>216.1</ele>
        <time>2022-06-29T16:09:14.117Z</time>
    </trkpt>
    <trkpt lat="56.543696" lon="60.871327">
        <ele>216.1</ele>
        <time>2022-06-29T16:09:15.117Z</time>
    </trkpt>
    <trkpt lat="56.5437" lon="60.871275">
        <ele>216.1</ele>
        <time>2022-06-29T16:09:16.117Z</time>
    </trkpt>
    <trkpt lat="56.543701" lon="60.871225">
        <ele>216.1</ele>
        <time>2022-06-29T16:09:17.117Z</time>
    </trkpt>
    <trkpt lat="56.5437" lon="60.871201">
        <ele>216.2</ele>
        <time>2022-06-29T16:09:18.117Z</time>
    </trkpt>
    <trkpt lat="56.543694" lon="60.87113">
        <ele>216.2</ele>
        <time>2022-06-29T16:09:19.117Z</time>
    </trkpt>
    <trkpt lat="56.543688" lon="60.871075">
        <ele>216.2</ele>
        <time>2022-06-29T16:09:20.117Z</time>
    </trkpt>
    <trkpt lat="56.543688" lon="60.871022">
        <ele>216.2</ele>
        <time>2022-06-29T16:09:21.117Z</time>
    </trkpt>
    <trkpt lat="56.543688" lon="60.870966">
        <ele>216.3</ele>
        <time>2022-06-29T16:09:22.117Z</time>
    </trkpt>
    <trkpt lat="56.543688" lon="60.870909">
        <ele>216.3</ele>
        <time>2022-06-29T16:09:23.117Z</time>
    </trkpt>
    <trkpt lat="56.543689" lon="60.87085">
        <ele>216.3</ele>
        <time>2022-06-29T16:09:24.117Z</time>
    </trkpt>
    <trkpt lat="56.543686" lon="60.870786">
        <ele>216.4</ele>
        <time>2022-06-29T16:09:25.117Z</time>
    </trkpt>
    <trkpt lat="56.543679" lon="60.870728">
        <ele>216.4</ele>
        <time>2022-06-29T16:09:26.117Z</time>
    </trkpt>
    <trkpt lat="56.543681" lon="60.870667">
        <ele>216.4</ele>
        <time>2022-06-29T16:09:27.117Z</time>
    </trkpt>
    <trkpt lat="56.543678" lon="60.8706">
        <ele>216.4</ele>
        <time>2022-06-29T16:09:28.117Z</time>
    </trkpt>
    <trkpt lat="56.543682" lon="60.870533">
        <ele>216.5</ele>
        <time>2022-06-29T16:09:29.117Z</time>
    </trkpt>
    <trkpt lat="56.543678" lon="60.870476">
        <ele>216.5</ele>
        <time>2022-06-29T16:09:30.117Z</time>
    </trkpt>
    <trkpt lat="56.543677" lon="60.870426">
        <ele>216.5</ele>
        <time>2022-06-29T16:09:31.117Z</time>
    </trkpt>
    <trkpt lat="56.543683" lon="60.870374">
        <ele>216.5</ele>
        <time>2022-06-29T16:09:32.117Z</time>
    </trkpt>
    <trkpt lat="56.543683" lon="60.870347">
        <ele>216.6</ele>
        <time>2022-06-29T16:09:33.117Z</time>
    </trkpt>
    <trkpt lat="56.543685" lon="60.870277">
        <ele>216.6</ele>
        <time>2022-06-29T16:09:34.117Z</time>
    </trkpt>
    <trkpt lat="56.543685" lon="60.870265">
        <ele>216.6</ele>
        <time>2022-06-29T16:09:35.117Z</time>
    </trkpt>
    <trkpt lat="56.543685" lon="60.870253">
        <ele>216.6</ele>
        <time>2022-06-29T16:09:36.117Z</time>
    </trkpt>
    <trkpt lat="56.543685" lon="60.870241">
        <ele>216.6</ele>
        <time>2022-06-29T16:09:37.117Z</time>
    </trkpt>
    <trkpt lat="56.543685" lon="60.870228">
        <ele>216.6</ele>
        <time>2022-06-29T16:09:38.117Z</time>
    </trkpt>
    <trkpt lat="56.543684" lon="60.87021">
        <ele>216.7</ele>
        <time>2022-06-29T16:09:39.117Z</time>
    </trkpt>
    <trkpt lat="56.543688" lon="60.870187">
        <ele>216.7</ele>
        <time>2022-06-29T16:09:40.117Z</time>
    </trkpt>
    <trkpt lat="56.543688" lon="60.870155">
        <ele>216.7</ele>
        <time>2022-06-29T16:09:41.117Z</time>
    </trkpt>
    <trkpt lat="56.543683" lon="60.870127">
        <ele>216.7</ele>
        <time>2022-06-29T16:09:42.117Z</time>
    </trkpt>
    <trkpt lat="56.54368" lon="60.870111">
        <ele>216.7</ele>
        <time>2022-06-29T16:09:43.117Z</time>
    </trkpt>
    <trkpt lat="56.543672" lon="60.870098">
        <ele>216.8</ele>
        <time>2022-06-29T16:09:44.117Z</time>
    </trkpt>
    <trkpt lat="56.543675" lon="60.8701">
        <ele>216.8</ele>
        <time>2022-06-29T16:09:45.117Z</time>
    </trkpt>
    <trkpt lat="56.543678" lon="60.870108">
        <ele>216.8</ele>
        <time>2022-06-29T16:09:46.117Z</time>
    </trkpt>
    <trkpt lat="56.543676" lon="60.870109">
        <ele>216.8</ele>
        <time>2022-06-29T16:09:47.117Z</time>
    </trkpt>
    <trkpt lat="56.543673" lon="60.870106">
        <ele>216.8</ele>
        <time>2022-06-29T16:09:48.117Z</time>
    </trkpt>
    <trkpt lat="56.543674" lon="60.870112">
        <ele>216.8</ele>
        <time>2022-06-29T16:09:49.117Z</time>
    </trkpt>
    <trkpt lat="56.543678" lon="60.870109">
        <ele>216.8</ele>
        <time>2022-06-29T16:09:50.117Z</time>
    </trkpt>
    <trkpt lat="56.543674" lon="60.870105">
        <ele>216.8</ele>
        <time>2022-06-29T16:09:51.117Z</time>
    </trkpt>
    <trkpt lat="56.543659" lon="60.870104">
        <ele>216.8</ele>
        <time>2022-06-29T16:09:52.117Z</time>
    </trkpt>
    <trkpt lat="56.543649" lon="60.870109">
        <ele>216.9</ele>
        <time>2022-06-29T16:09:53.117Z</time>
    </trkpt>
    <trkpt lat="56.54364" lon="60.8701">
        <ele>216.9</ele>
        <time>2022-06-29T16:09:54.117Z</time>
    </trkpt>
    <trkpt lat="56.543632" lon="60.870095">
        <ele>216.9</ele>
        <time>2022-06-29T16:09:55.117Z</time>
    </trkpt>
    <trkpt lat="56.543618" lon="60.870081">
        <ele>216.9</ele>
        <time>2022-06-29T16:09:56.117Z</time>
    </trkpt>
    <trkpt lat="56.543609" lon="60.870076">
        <ele>216.9</ele>
        <time>2022-06-29T16:09:57.117Z</time>
    </trkpt>
    <trkpt lat="56.543605" lon="60.870072">
        <ele>216.9</ele>
        <time>2022-06-29T16:09:58.117Z</time>
    </trkpt>
    <trkpt lat="56.543598" lon="60.870074">
        <ele>217.0</ele>
        <time>2022-06-29T16:09:59.117Z</time>
    </trkpt>
    <trkpt lat="56.54359" lon="60.870068">
        <ele>217.0</ele>
        <time>2022-06-29T16:10:00.117Z</time>
    </trkpt>
    <trkpt lat="56.543584" lon="60.870064">
        <ele>217.0</ele>
        <time>2022-06-29T16:10:01.117Z</time>
    </trkpt>
    <trkpt lat="56.543579" lon="60.870056">
        <ele>217.0</ele>
        <time>2022-06-29T16:10:02.117Z</time>
    </trkpt>
    <trkpt lat="56.543577" lon="60.870044">
        <ele>217.0</ele>
        <time>2022-06-29T16:10:03.117Z</time>
    </trkpt>
    <trkpt lat="56.543574" lon="60.870026">
        <ele>217.0</ele>
        <time>2022-06-29T16:10:04.117Z</time>
    </trkpt>
    <trkpt lat="56.543569" lon="60.870028">
        <ele>217.0</ele>
        <time>2022-06-29T16:10:05.117Z</time>
    </trkpt>
    <trkpt lat="56.543569" lon="60.870005">
        <ele>217.1</ele>
        <time>2022-06-29T16:10:06.117Z</time>
    </trkpt>
    <trkpt lat="56.543574" lon="60.86996">
        <ele>217.0</ele>
        <time>2022-06-29T16:10:07.117Z</time>
    </trkpt>
    <trkpt lat="56.543578" lon="60.869945">
        <ele>217.0</ele>
        <time>2022-06-29T16:10:08.117Z</time>
    </trkpt>
    <trkpt lat="56.543587" lon="60.869898">
        <ele>217.9</ele>
        <time>2022-06-29T16:10:09.117Z</time>
    </trkpt>
    <trkpt lat="56.543589" lon="60.86988">
        <ele>217.9</ele>
        <time>2022-06-29T16:10:10.117Z</time>
    </trkpt>
    <trkpt lat="56.54359" lon="60.869861">
        <ele>217.9</ele>
        <time>2022-06-29T16:10:11.117Z</time>
    </trkpt>
    <trkpt lat="56.543593" lon="60.869836">
        <ele>217.8</ele>
        <time>2022-06-29T16:10:12.117Z</time>
    </trkpt>
    <trkpt lat="56.543594" lon="60.869824">
        <ele>217.8</ele>
        <time>2022-06-29T16:10:13.117Z</time>
    </trkpt>
    <trkpt lat="56.543595" lon="60.869811">
        <ele>217.7</ele>
        <time>2022-06-29T16:10:14.117Z</time>
    </trkpt>
    <trkpt lat="56.543596" lon="60.869799">
        <ele>217.7</ele>
        <time>2022-06-29T16:10:15.117Z</time>
    </trkpt>
    <trkpt lat="56.543597" lon="60.86977">
        <ele>217.7</ele>
        <time>2022-06-29T16:10:16.117Z</time>
    </trkpt>
    <trkpt lat="56.543599" lon="60.869757">
        <ele>217.6</ele>
        <time>2022-06-29T16:10:17.117Z</time>
    </trkpt>
    <trkpt lat="56.543601" lon="60.869749">
        <ele>217.6</ele>
        <time>2022-06-29T16:10:18.117Z</time>
    </trkpt>
    <trkpt lat="56.543603" lon="60.869719">
        <ele>217.5</ele>
        <time>2022-06-29T16:10:19.117Z</time>
    </trkpt>
    <trkpt lat="56.543608" lon="60.8697">
        <ele>217.5</ele>
        <time>2022-06-29T16:10:20.117Z</time>
    </trkpt>
    <trkpt lat="56.543613" lon="60.869681">
        <ele>217.4</ele>
        <time>2022-06-29T16:10:21.117Z</time>
    </trkpt>
    <trkpt lat="56.543617" lon="60.869661">
        <ele>217.4</ele>
        <time>2022-06-29T16:10:22.117Z</time>
    </trkpt>
    <trkpt lat="56.543622" lon="60.869642">
        <ele>217.4</ele>
        <time>2022-06-29T16:10:23.117Z</time>
    </trkpt>
    <trkpt lat="56.543627" lon="60.869623">
        <ele>217.3</ele>
        <time>2022-06-29T16:10:24.117Z</time>
    </trkpt>
    <trkpt lat="56.543632" lon="60.869604">
        <ele>217.3</ele>
        <time>2022-06-29T16:16:32.117Z</time>
    </trkpt>
    <trkpt lat="56.543638" lon="60.869582">
        <ele>217.2</ele>
        <time>2022-06-29T16:16:33.117Z</time>
    </trkpt>
    <trkpt lat="56.543634" lon="60.869586">
        <ele>217.2</ele>
        <time>2022-06-29T16:16:34.117Z</time>
    </trkpt>
    <trkpt lat="56.543635" lon="60.869587">
        <ele>217.1</ele>
        <time>2022-06-29T16:16:35.117Z</time>
    </trkpt>
    <trkpt lat="56.543633" lon="60.869608">
        <ele>217.1</ele>
        <time>2022-06-29T16:16:36.117Z</time>
    </trkpt>
    <trkpt lat="56.543619" lon="60.869621">
        <ele>217.1</ele>
        <time>2022-06-29T16:16:37.117Z</time>
    </trkpt>
    <trkpt lat="56.543626" lon="60.869633">
        <ele>217.0</ele>
        <time>2022-06-29T16:16:38.117Z</time>
    </trkpt>
    <trkpt lat="56.543629" lon="60.869654">
        <ele>217.0</ele>
        <time>2022-06-29T16:16:39.117Z</time>
    </trkpt>
    <trkpt lat="56.543623" lon="60.869689">
        <ele>216.9</ele>
        <time>2022-06-29T16:16:40.117Z</time>
    </trkpt>
    <trkpt lat="56.543619" lon="60.869686">
        <ele>216.9</ele>
        <time>2022-06-29T16:16:41.117Z</time>
    </trkpt>
    <trkpt lat="56.543627" lon="60.869675">
        <ele>216.9</ele>
        <time>2022-06-29T16:16:42.117Z</time>
    </trkpt>
    <trkpt lat="56.543617" lon="60.869656">
        <ele>216.8</ele>
        <time>2022-06-29T16:16:43.117Z</time>
    </trkpt>
    <trkpt lat="56.543613" lon="60.86964">
        <ele>216.8</ele>
        <time>2022-06-29T16:16:44.117Z</time>
    </trkpt>
    <trkpt lat="56.543635" lon="60.869556">
        <ele>216.7</ele>
        <time>2022-06-29T16:19:33.117Z</time>
    </trkpt>
    <trkpt lat="56.543635" lon="60.869556">
        <ele>216.7</ele>
        <time>2022-06-29T16:19:34.117Z</time>
    </trkpt>
    <trkpt lat="56.543629" lon="60.869558">
        <ele>216.6</ele>
        <time>2022-06-29T16:19:35.117Z</time>
    </trkpt>
    <trkpt lat="56.543629" lon="60.869558">
        <ele>216.6</ele>
        <time>2022-06-29T16:19:36.117Z</time>
    </trkpt>
    <trkpt lat="56.543628" lon="60.869553">
        <ele>216.6</ele>
        <time>2022-06-29T16:19:37.117Z</time>
    </trkpt>
    <trkpt lat="56.543627" lon="60.869548">
        <ele>216.5</ele>
        <time>2022-06-29T16:19:38.117Z</time>
    </trkpt>
    <trkpt lat="56.543626" lon="60.869547">
        <ele>216.5</ele>
        <time>2022-06-29T16:19:39.117Z</time>
    </trkpt>
    <trkpt lat="56.543624" lon="60.869547">
        <ele>216.4</ele>
        <time>2022-06-29T16:19:40.117Z</time>
    </trkpt>
    <trkpt lat="56.543627" lon="60.869543">
        <ele>216.4</ele>
        <time>2022-06-29T16:19:41.117Z</time>
    </trkpt>
    <trkpt lat="56.543627" lon="60.869543">
        <ele>216.4</ele>
        <time>2022-06-29T16:19:42.117Z</time>
    </trkpt>
    <trkpt lat="56.543622" lon="60.86953">
        <ele>216.3</ele>
        <time>2022-06-29T16:19:44.117Z</time>
    </trkpt>
    <trkpt lat="56.543619" lon="60.869514">
        <ele>216.3</ele>
        <time>2022-06-29T16:19:45.117Z</time>
    </trkpt>
    <trkpt lat="56.543622" lon="60.869505">
        <ele>216.2</ele>
        <time>2022-06-29T16:19:46.117Z</time>
    </trkpt>
    <trkpt lat="56.543622" lon="60.869481">
        <ele>216.2</ele>
        <time>2022-06-29T16:19:47.117Z</time>
    </trkpt>
    <trkpt lat="56.543622" lon="60.869468">
        <ele>216.2</ele>
        <time>2022-06-29T16:19:48.117Z</time>
    </trkpt>
    <trkpt lat="56.543622" lon="60.869455">
        <ele>216.2</ele>
        <time>2022-06-29T16:19:49.117Z</time>
    </trkpt>
    <trkpt lat="56.543621" lon="60.869442">
        <ele>216.2</ele>
        <time>2022-06-29T16:19:50.117Z</time>
    </trkpt>
    <trkpt lat="56.543621" lon="60.86941">
        <ele>216.2</ele>
        <time>2022-06-29T16:19:51.117Z</time>
    </trkpt>
    <trkpt lat="56.543624" lon="60.869393">
        <ele>216.2</ele>
        <time>2022-06-29T16:19:52.117Z</time>
    </trkpt>
    <trkpt lat="56.543624" lon="60.869376">
        <ele>216.2</ele>
        <time>2022-06-29T16:19:53.117Z</time>
    </trkpt>
    <trkpt lat="56.543624" lon="60.869357">
        <ele>216.2</ele>
        <time>2022-06-29T16:19:54.117Z</time>
    </trkpt>
    <trkpt lat="56.543617" lon="60.869333">
        <ele>216.2</ele>
        <time>2022-06-29T16:19:55.117Z</time>
    </trkpt>
    <trkpt lat="56.543617" lon="60.869339">
        <ele>216.2</ele>
        <time>2022-06-29T16:19:56.117Z</time>
    </trkpt>
    <trkpt lat="56.543612" lon="60.869334">
        <ele>216.2</ele>
        <time>2022-06-29T16:19:57.117Z</time>
    </trkpt>
    <trkpt lat="56.543604" lon="60.869326">
        <ele>216.2</ele>
        <time>2022-06-29T16:19:58.117Z</time>
    </trkpt>
    <trkpt lat="56.543602" lon="60.869302">
        <ele>216.2</ele>
        <time>2022-06-29T16:19:59.117Z</time>
    </trkpt>
    <trkpt lat="56.543594" lon="60.869256">
        <ele>216.2</ele>
        <time>2022-06-29T16:20:00.117Z</time>
    </trkpt>
    <trkpt lat="56.543592" lon="60.869249">
        <ele>216.2</ele>
        <time>2022-06-29T16:20:01.117Z</time>
    </trkpt>
    <trkpt lat="56.54359" lon="60.869242">
        <ele>216.2</ele>
        <time>2022-06-29T16:20:02.117Z</time>
    </trkpt>
    <trkpt lat="56.543588" lon="60.869236">
        <ele>216.2</ele>
        <time>2022-06-29T16:20:03.117Z</time>
    </trkpt>
    <trkpt lat="56.543586" lon="60.869229">
        <ele>216.2</ele>
        <time>2022-06-29T16:20:04.117Z</time>
    </trkpt>
    <trkpt lat="56.543584" lon="60.869222">
        <ele>216.2</ele>
        <time>2022-06-29T16:20:05.117Z</time>
    </trkpt>
    <trkpt lat="56.543592" lon="60.869191">
        <ele>216.2</ele>
        <time>2022-06-29T16:20:06.117Z</time>
    </trkpt>
    <trkpt lat="56.543599" lon="60.869161">
        <ele>216.2</ele>
        <time>2022-06-29T16:20:07.117Z</time>
    </trkpt>
    <trkpt lat="56.543596" lon="60.869129">
        <ele>216.2</ele>
        <time>2022-06-29T16:20:08.117Z</time>
    </trkpt>
    <trkpt lat="56.543588" lon="60.869094">
        <ele>216.2</ele>
        <time>2022-06-29T16:20:09.117Z</time>
    </trkpt>
    <trkpt lat="56.543583" lon="60.869074">
        <ele>216.2</ele>
        <time>2022-06-29T16:20:10.117Z</time>
    </trkpt>
    <trkpt lat="56.543579" lon="60.869044">
        <ele>216.2</ele>
        <time>2022-06-29T16:20:11.117Z</time>
    </trkpt>
    <trkpt lat="56.54357" lon="60.869022">
        <ele>216.2</ele>
        <time>2022-06-29T16:20:12.117Z</time>
    </trkpt>
    <trkpt lat="56.543574" lon="60.868983">
        <ele>216.2</ele>
        <time>2022-06-29T16:20:44.117Z</time>
    </trkpt>
    <trkpt lat="56.543572" lon="60.868985">
        <ele>216.2</ele>
        <time>2022-06-29T16:20:45.117Z</time>
    </trkpt>
    <trkpt lat="56.54357" lon="60.868995">
        <ele>216.2</ele>
        <time>2022-06-29T16:20:46.117Z</time>
    </trkpt>
    <trkpt lat="56.543569" lon="60.868992">
        <ele>216.2</ele>
        <time>2022-06-29T16:20:47.117Z</time>
    </trkpt>
    <trkpt lat="56.543572" lon="60.868989">
        <ele>216.3</ele>
        <time>2022-06-29T16:20:48.117Z</time>
    </trkpt>
    <trkpt lat="56.543576" lon="60.868993">
        <ele>216.4</ele>
        <time>2022-06-29T16:20:49.117Z</time>
    </trkpt>
    <trkpt lat="56.543579" lon="60.869007">
        <ele>216.4</ele>
        <time>2022-06-29T16:20:50.117Z</time>
    </trkpt>
    <trkpt lat="56.543578" lon="60.869008">
        <ele>216.4</ele>
        <time>2022-06-29T16:20:51.117Z</time>
    </trkpt>
    <trkpt lat="56.54358" lon="60.86902">
        <ele>216.4</ele>
        <time>2022-06-29T16:20:52.117Z</time>
    </trkpt>
    <trkpt lat="56.543585" lon="60.869031">
        <ele>216.5</ele>
        <time>2022-06-29T16:20:53.117Z</time>
    </trkpt>
    <trkpt lat="56.543591" lon="60.869036">
        <ele>216.5</ele>
        <time>2022-06-29T16:20:54.117Z</time>
    </trkpt>
    <trkpt lat="56.54359" lon="60.86904">
        <ele>216.5</ele>
        <time>2022-06-29T16:20:55.117Z</time>
    </trkpt>
    <trkpt lat="56.543594" lon="60.869035">
        <ele>216.5</ele>
        <time>2022-06-29T16:20:56.117Z</time>
    </trkpt>
    <trkpt lat="56.543626" lon="60.869025">
        <ele>216.6</ele>
        <time>2022-06-29T16:20:57.117Z</time>
    </trkpt>
    <trkpt lat="56.54366" lon="60.869026">
        <ele>216.7</ele>
        <time>2022-06-29T16:20:58.117Z</time>
    </trkpt>
    <trkpt lat="56.543692" lon="60.869021">
        <ele>216.8</ele>
        <time>2022-06-29T16:20:59.117Z</time>
    </trkpt>
    <trkpt lat="56.543721" lon="60.869029">
        <ele>216.8</ele>
        <time>2022-06-29T16:21:00.117Z</time>
    </trkpt>
    <trkpt lat="56.543754" lon="60.869038">
        <ele>216.8</ele>
        <time>2022-06-29T16:21:01.117Z</time>
    </trkpt>
    <trkpt lat="56.543793" lon="60.869039">
        <ele>216.8</ele>
        <time>2022-06-29T16:21:02.117Z</time>
    </trkpt>
    <trkpt lat="56.543837" lon="60.869034">
        <ele>216.8</ele>
        <time>2022-06-29T16:21:03.117Z</time>
    </trkpt>
    <trkpt lat="56.543878" lon="60.869024">
        <ele>216.8</ele>
        <time>2022-06-29T16:21:04.117Z</time>
    </trkpt>
    <trkpt lat="56.543917" lon="60.869011">
        <ele>216.8</ele>
        <time>2022-06-29T16:21:05.117Z</time>
    </trkpt>
    <trkpt lat="56.543958" lon="60.86899">
        <ele>216.9</ele>
        <time>2022-06-29T16:21:06.117Z</time>
    </trkpt>
    <trkpt lat="56.543998" lon="60.868985">
        <ele>216.9</ele>
        <time>2022-06-29T16:21:07.117Z</time>
    </trkpt>
    <trkpt lat="56.544039" lon="60.868979">
        <ele>216.9</ele>
        <time>2022-06-29T16:21:08.117Z</time>
    </trkpt>
    <trkpt lat="56.544084" lon="60.868986">
        <ele>216.9</ele>
        <time>2022-06-29T16:21:09.117Z</time>
    </trkpt>
    <trkpt lat="56.544122" lon="60.868977">
        <ele>216.9</ele>
        <time>2022-06-29T16:21:10.117Z</time>
    </trkpt>
    <trkpt lat="56.544167" lon="60.868964">
        <ele>216.9</ele>
        <time>2022-06-29T16:21:11.117Z</time>
    </trkpt>
    <trkpt lat="56.544195" lon="60.868935">
        <ele>216.9</ele>
        <time>2022-06-29T16:21:12.117Z</time>
    </trkpt>
    <trkpt lat="56.544231" lon="60.868913">
        <ele>216.9</ele>
        <time>2022-06-29T16:21:13.117Z</time>
    </trkpt>
    <trkpt lat="56.544266" lon="60.868908">
        <ele>216.9</ele>
        <time>2022-06-29T16:21:14.117Z</time>
    </trkpt>
    <trkpt lat="56.544301" lon="60.868887">
        <ele>216.9</ele>
        <time>2022-06-29T16:21:15.117Z</time>
    </trkpt>
    <trkpt lat="56.544337" lon="60.868856">
        <ele>216.9</ele>
        <time>2022-06-29T16:21:16.117Z</time>
    </trkpt>
    <trkpt lat="56.544372" lon="60.868851">
        <ele>216.9</ele>
        <time>2022-06-29T16:21:17.117Z</time>
    </trkpt>
    <trkpt lat="56.544409" lon="60.868841">
        <ele>216.9</ele>
        <time>2022-06-29T16:21:18.117Z</time>
    </trkpt>
    <trkpt lat="56.544442" lon="60.86883">
        <ele>216.9</ele>
        <time>2022-06-29T16:21:19.117Z</time>
    </trkpt>
    <trkpt lat="56.544476" lon="60.868841">
        <ele>216.9</ele>
        <time>2022-06-29T16:21:20.117Z</time>
    </trkpt>
    <trkpt lat="56.544491" lon="60.868839">
        <ele>217.0</ele>
        <time>2022-06-29T16:21:21.117Z</time>
    </trkpt>
    <trkpt lat="56.544532" lon="60.86884">
        <ele>217.0</ele>
        <time>2022-06-29T16:21:22.117Z</time>
    </trkpt>
    <trkpt lat="56.544562" lon="60.868833">
        <ele>217.0</ele>
        <time>2022-06-29T16:21:23.117Z</time>
    </trkpt>
    <trkpt lat="56.544596" lon="60.868819">
        <ele>217.0</ele>
        <time>2022-06-29T16:21:24.117Z</time>
    </trkpt>
    <trkpt lat="56.544626" lon="60.868806">
        <ele>217.0</ele>
        <time>2022-06-29T16:21:25.117Z</time>
    </trkpt>
    <trkpt lat="56.544657" lon="60.868796">
        <ele>217.0</ele>
        <time>2022-06-29T16:21:26.117Z</time>
    </trkpt>
    <trkpt lat="56.544686" lon="60.868784">
        <ele>217.0</ele>
        <time>2022-06-29T16:21:27.117Z</time>
    </trkpt>
    <trkpt lat="56.544715" lon="60.868772">
        <ele>217.0</ele>
        <time>2022-06-29T16:21:28.117Z</time>
    </trkpt>
    <trkpt lat="56.544747" lon="60.868776">
        <ele>217.0</ele>
        <time>2022-06-29T16:21:29.117Z</time>
    </trkpt>
    <trkpt lat="56.544785" lon="60.86877">
        <ele>217.0</ele>
        <time>2022-06-29T16:21:30.117Z</time>
    </trkpt>
    <trkpt lat="56.544818" lon="60.868768">
        <ele>216.9</ele>
        <time>2022-06-29T16:21:31.117Z</time>
    </trkpt>
    <trkpt lat="56.544848" lon="60.868766">
        <ele>216.9</ele>
        <time>2022-06-29T16:21:32.117Z</time>
    </trkpt>
    <trkpt lat="56.544879" lon="60.86876">
        <ele>216.9</ele>
        <time>2022-06-29T16:21:33.117Z</time>
    </trkpt>
    <trkpt lat="56.544913" lon="60.868764">
        <ele>216.9</ele>
        <time>2022-06-29T16:21:34.117Z</time>
    </trkpt>
    <trkpt lat="56.544943" lon="60.868763">
        <ele>216.9</ele>
        <time>2022-06-29T16:21:35.117Z</time>
    </trkpt>
    <trkpt lat="56.544976" lon="60.868762">
        <ele>216.9</ele>
        <time>2022-06-29T16:21:36.117Z</time>
    </trkpt>
    <trkpt lat="56.545011" lon="60.868761">
        <ele>216.9</ele>
        <time>2022-06-29T16:21:37.117Z</time>
    </trkpt>
    <trkpt lat="56.545044" lon="60.868757">
        <ele>216.9</ele>
        <time>2022-06-29T16:21:38.117Z</time>
    </trkpt>
    <trkpt lat="56.545079" lon="60.868757">
        <ele>216.9</ele>
        <time>2022-06-29T16:21:39.117Z</time>
    </trkpt>
    <trkpt lat="56.545119" lon="60.868755">
        <ele>216.9</ele>
        <time>2022-06-29T16:21:40.117Z</time>
    </trkpt>
    <trkpt lat="56.545155" lon="60.86874">
        <ele>216.9</ele>
        <time>2022-06-29T16:21:41.117Z</time>
    </trkpt>
    <trkpt lat="56.545187" lon="60.868726">
        <ele>216.9</ele>
        <time>2022-06-29T16:21:42.117Z</time>
    </trkpt>
    <trkpt lat="56.545219" lon="60.86872">
        <ele>216.9</ele>
        <time>2022-06-29T16:21:43.117Z</time>
    </trkpt>
    <trkpt lat="56.545254" lon="60.868704">
        <ele>216.8</ele>
        <time>2022-06-29T16:21:44.117Z</time>
    </trkpt>
    <trkpt lat="56.545288" lon="60.868704">
        <ele>216.8</ele>
        <time>2022-06-29T16:21:45.117Z</time>
    </trkpt>
    <trkpt lat="56.545319" lon="60.868699">
        <ele>216.8</ele>
        <time>2022-06-29T16:21:46.117Z</time>
    </trkpt>
    <trkpt lat="56.545356" lon="60.868692">
        <ele>216.8</ele>
        <time>2022-06-29T16:21:47.117Z</time>
    </trkpt>
    <trkpt lat="56.545394" lon="60.868682">
        <ele>216.8</ele>
        <time>2022-06-29T16:21:48.117Z</time>
    </trkpt>
    <trkpt lat="56.545429" lon="60.868684">
        <ele>216.8</ele>
        <time>2022-06-29T16:21:50.117Z</time>
    </trkpt>
    <trkpt lat="56.545464" lon="60.868677">
        <ele>216.8</ele>
        <time>2022-06-29T16:21:51.117Z</time>
    </trkpt>
    <trkpt lat="56.545502" lon="60.868674">
        <ele>216.8</ele>
        <time>2022-06-29T16:21:52.117Z</time>
    </trkpt>
    <trkpt lat="56.545537" lon="60.868666">
        <ele>216.8</ele>
        <time>2022-06-29T16:21:53.117Z</time>
    </trkpt>
    <trkpt lat="56.545569" lon="60.868664">
        <ele>216.8</ele>
        <time>2022-06-29T16:21:54.117Z</time>
    </trkpt>
    <trkpt lat="56.545606" lon="60.868673">
        <ele>216.8</ele>
        <time>2022-06-29T16:21:55.117Z</time>
    </trkpt>
    <trkpt lat="56.545641" lon="60.868662">
        <ele>216.8</ele>
        <time>2022-06-29T16:21:56.117Z</time>
    </trkpt>
    <trkpt lat="56.54567" lon="60.868656">
        <ele>216.8</ele>
        <time>2022-06-29T16:21:57.117Z</time>
    </trkpt>
    <trkpt lat="56.545703" lon="60.868646">
        <ele>216.7</ele>
        <time>2022-06-29T16:21:58.117Z</time>
    </trkpt>
    <trkpt lat="56.545729" lon="60.868619">
        <ele>216.7</ele>
        <time>2022-06-29T16:21:59.117Z</time>
    </trkpt>
    <trkpt lat="56.545765" lon="60.868609">
        <ele>216.7</ele>
        <time>2022-06-29T16:22:00.117Z</time>
    </trkpt>
    <trkpt lat="56.545794" lon="60.868607">
        <ele>216.7</ele>
        <time>2022-06-29T16:22:01.117Z</time>
    </trkpt>
    <trkpt lat="56.545826" lon="60.868613">
        <ele>216.7</ele>
        <time>2022-06-29T16:22:02.117Z</time>
    </trkpt>
    <trkpt lat="56.545857" lon="60.868594">
        <ele>216.7</ele>
        <time>2022-06-29T16:22:03.117Z</time>
    </trkpt>
    <trkpt lat="56.545889" lon="60.868584">
        <ele>216.7</ele>
        <time>2022-06-29T16:22:04.117Z</time>
    </trkpt>
    <trkpt lat="56.54592" lon="60.868571">
        <ele>216.7</ele>
        <time>2022-06-29T16:22:05.117Z</time>
    </trkpt>
    <trkpt lat="56.545952" lon="60.868553">
        <ele>216.7</ele>
        <time>2022-06-29T16:22:06.117Z</time>
    </trkpt>
    <trkpt lat="56.545989" lon="60.868546">
        <ele>216.7</ele>
        <time>2022-06-29T16:22:07.117Z</time>
    </trkpt>
    <trkpt lat="56.546018" lon="60.86854">
        <ele>216.7</ele>
        <time>2022-06-29T16:22:08.117Z</time>
    </trkpt>
    <trkpt lat="56.546056" lon="60.868527">
        <ele>216.7</ele>
        <time>2022-06-29T16:22:09.117Z</time>
    </trkpt>
    <trkpt lat="56.546094" lon="60.868516">
        <ele>216.7</ele>
        <time>2022-06-29T16:22:10.117Z</time>
    </trkpt>
    <trkpt lat="56.546128" lon="60.868506">
        <ele>216.7</ele>
        <time>2022-06-29T16:22:11.117Z</time>
    </trkpt>
    <trkpt lat="56.546164" lon="60.868492">
        <ele>216.6</ele>
        <time>2022-06-29T16:22:12.117Z</time>
    </trkpt>
    <trkpt lat="56.546197" lon="60.868494">
        <ele>216.6</ele>
        <time>2022-06-29T16:22:13.117Z</time>
    </trkpt>
    <trkpt lat="56.546234" lon="60.868501">
        <ele>216.6</ele>
        <time>2022-06-29T16:22:14.117Z</time>
    </trkpt>
    <trkpt lat="56.546268" lon="60.868497">
        <ele>216.6</ele>
        <time>2022-06-29T16:22:15.117Z</time>
    </trkpt>
    <trkpt lat="56.546304" lon="60.86849">
        <ele>216.6</ele>
        <time>2022-06-29T16:22:16.117Z</time>
    </trkpt>
    <trkpt lat="56.546338" lon="60.868488">
        <ele>216.6</ele>
        <time>2022-06-29T16:22:17.117Z</time>
    </trkpt>
    <trkpt lat="56.546376" lon="60.868473">
        <ele>216.6</ele>
        <time>2022-06-29T16:22:18.117Z</time>
    </trkpt>
    <trkpt lat="56.546408" lon="60.868463">
        <ele>216.6</ele>
        <time>2022-06-29T16:22:19.117Z</time>
    </trkpt>
    <trkpt lat="56.546446" lon="60.868451">
        <ele>216.6</ele>
        <time>2022-06-29T16:22:20.117Z</time>
    </trkpt>
    <trkpt lat="56.546482" lon="60.868451">
        <ele>216.6</ele>
        <time>2022-06-29T16:22:21.117Z</time>
    </trkpt>
    <trkpt lat="56.546516" lon="60.868448">
        <ele>216.6</ele>
        <time>2022-06-29T16:22:22.117Z</time>
    </trkpt>
    <trkpt lat="56.546552" lon="60.868436">
        <ele>216.6</ele>
        <time>2022-06-29T16:22:23.117Z</time>
    </trkpt>
    <trkpt lat="56.546586" lon="60.868429">
        <ele>216.6</ele>
        <time>2022-06-29T16:22:24.117Z</time>
    </trkpt>
    <trkpt lat="56.546621" lon="60.868422">
        <ele>216.5</ele>
        <time>2022-06-29T16:22:25.117Z</time>
    </trkpt>
    <trkpt lat="56.546658" lon="60.868405">
        <ele>216.5</ele>
        <time>2022-06-29T16:22:26.117Z</time>
    </trkpt>
    <trkpt lat="56.546696" lon="60.8684">
        <ele>216.5</ele>
        <time>2022-06-29T16:22:27.117Z</time>
    </trkpt>
    <trkpt lat="56.546731" lon="60.868394">
        <ele>216.5</ele>
        <time>2022-06-29T16:22:28.117Z</time>
    </trkpt>
    <trkpt lat="56.54677" lon="60.868391">
        <ele>216.5</ele>
        <time>2022-06-29T16:22:29.117Z</time>
    </trkpt>
    <trkpt lat="56.546811" lon="60.868377">
        <ele>216.5</ele>
        <time>2022-06-29T16:22:30.117Z</time>
    </trkpt>
    <trkpt lat="56.546846" lon="60.868373">
        <ele>216.5</ele>
        <time>2022-06-29T16:22:31.117Z</time>
    </trkpt>
    <trkpt lat="56.546881" lon="60.868369">
        <ele>216.5</ele>
        <time>2022-06-29T16:22:32.117Z</time>
    </trkpt>
    <trkpt lat="56.546951" lon="60.868374">
        <ele>216.5</ele>
        <time>2022-06-29T16:22:33.117Z</time>
    </trkpt>
    <trkpt lat="56.546989" lon="60.86836">
        <ele>216.5</ele>
        <time>2022-06-29T16:22:34.117Z</time>
    </trkpt>
    <trkpt lat="56.547028" lon="60.868344">
        <ele>216.5</ele>
        <time>2022-06-29T16:22:35.117Z</time>
    </trkpt>
    <trkpt lat="56.547059" lon="60.868322">
        <ele>216.5</ele>
        <time>2022-06-29T16:22:36.117Z</time>
    </trkpt>
    <trkpt lat="56.547092" lon="60.868315">
        <ele>216.4</ele>
        <time>2022-06-29T16:22:37.117Z</time>
    </trkpt>
    <trkpt lat="56.547129" lon="60.868302">
        <ele>216.4</ele>
        <time>2022-06-29T16:22:38.117Z</time>
    </trkpt>
    <trkpt lat="56.547159" lon="60.86829">
        <ele>216.4</ele>
        <time>2022-06-29T16:22:39.117Z</time>
    </trkpt>
    <trkpt lat="56.547195" lon="60.868286">
        <ele>216.4</ele>
        <time>2022-06-29T16:22:40.117Z</time>
    </trkpt>
    <trkpt lat="56.547233" lon="60.868277">
        <ele>216.4</ele>
        <time>2022-06-29T16:22:41.117Z</time>
    </trkpt>
    <trkpt lat="56.547268" lon="60.868264">
        <ele>216.4</ele>
        <time>2022-06-29T16:22:42.117Z</time>
    </trkpt>
    <trkpt lat="56.547307" lon="60.868269">
        <ele>216.4</ele>
        <time>2022-06-29T16:22:43.117Z</time>
    </trkpt>
    <trkpt lat="56.547342" lon="60.868263">
        <ele>216.4</ele>
        <time>2022-06-29T16:22:44.117Z</time>
    </trkpt>
    <trkpt lat="56.547378" lon="60.868261">
        <ele>216.4</ele>
        <time>2022-06-29T16:22:45.117Z</time>
    </trkpt>
    <trkpt lat="56.54741" lon="60.868248">
        <ele>216.4</ele>
        <time>2022-06-29T16:22:46.117Z</time>
    </trkpt>
    <trkpt lat="56.547443" lon="60.868234">
        <ele>216.4</ele>
        <time>2022-06-29T16:22:47.117Z</time>
    </trkpt>
    <trkpt lat="56.547478" lon="60.868232">
        <ele>216.4</ele>
        <time>2022-06-29T16:22:48.117Z</time>
    </trkpt>
    <trkpt lat="56.547512" lon="60.868233">
        <ele>216.4</ele>
        <time>2022-06-29T16:22:49.117Z</time>
    </trkpt>
    <trkpt lat="56.547547" lon="60.868226">
        <ele>216.3</ele>
        <time>2022-06-29T16:22:50.117Z</time>
    </trkpt>
    <trkpt lat="56.547586" lon="60.868216">
        <ele>216.3</ele>
        <time>2022-06-29T16:22:51.117Z</time>
    </trkpt>
    <trkpt lat="56.547622" lon="60.868213">
        <ele>216.3</ele>
        <time>2022-06-29T16:22:52.117Z</time>
    </trkpt>
    <trkpt lat="56.547655" lon="60.868208">
        <ele>216.3</ele>
        <time>2022-06-29T16:22:53.117Z</time>
    </trkpt>
    <trkpt lat="56.547693" lon="60.8682">
        <ele>216.3</ele>
        <time>2022-06-29T16:22:54.117Z</time>
    </trkpt>
    <trkpt lat="56.547734" lon="60.86818">
        <ele>216.3</ele>
        <time>2022-06-29T16:22:55.117Z</time>
    </trkpt>
    <trkpt lat="56.547763" lon="60.868191">
        <ele>216.3</ele>
        <time>2022-06-29T16:22:56.117Z</time>
    </trkpt>
    <trkpt lat="56.547795" lon="60.868182">
        <ele>216.3</ele>
        <time>2022-06-29T16:22:57.117Z</time>
    </trkpt>
    <trkpt lat="56.547824" lon="60.868178">
        <ele>216.3</ele>
        <time>2022-06-29T16:22:58.117Z</time>
    </trkpt>
    <trkpt lat="56.547854" lon="60.868171">
        <ele>216.3</ele>
        <time>2022-06-29T16:22:59.117Z</time>
    </trkpt>
    <trkpt lat="56.547884" lon="60.868173">
        <ele>216.3</ele>
        <time>2022-06-29T16:23:00.117Z</time>
    </trkpt>
    <trkpt lat="56.547922" lon="60.868179">
        <ele>216.3</ele>
        <time>2022-06-29T16:23:01.117Z</time>
    </trkpt>
    <trkpt lat="56.547951" lon="60.868165">
        <ele>216.3</ele>
        <time>2022-06-29T16:23:02.117Z</time>
    </trkpt>
    <trkpt lat="56.547983" lon="60.868171">
        <ele>216.2</ele>
        <time>2022-06-29T16:23:03.117Z</time>
    </trkpt>
    <trkpt lat="56.548012" lon="60.868168">
        <ele>216.2</ele>
        <time>2022-06-29T16:23:04.117Z</time>
    </trkpt>
    <trkpt lat="56.548047" lon="60.868182">
        <ele>216.2</ele>
        <time>2022-06-29T16:23:05.117Z</time>
    </trkpt>
    <trkpt lat="56.548074" lon="60.868201">
        <ele>216.2</ele>
        <time>2022-06-29T16:23:06.117Z</time>
    </trkpt>
    <trkpt lat="56.548105" lon="60.868216">
        <ele>216.2</ele>
        <time>2022-06-29T16:23:07.117Z</time>
    </trkpt>
    <trkpt lat="56.548122" lon="60.868224">
        <ele>216.2</ele>
        <time>2022-06-29T16:23:08.117Z</time>
    </trkpt>
    <trkpt lat="56.548163" lon="60.86825">
        <ele>216.2</ele>
        <time>2022-06-29T16:23:09.117Z</time>
    </trkpt>
    <trkpt lat="56.548193" lon="60.868257">
        <ele>216.2</ele>
        <time>2022-06-29T16:23:10.117Z</time>
    </trkpt>
    <trkpt lat="56.548221" lon="60.868263">
        <ele>216.2</ele>
        <time>2022-06-29T16:23:11.117Z</time>
    </trkpt>
    <trkpt lat="56.548252" lon="60.86826">
        <ele>216.2</ele>
        <time>2022-06-29T16:23:12.117Z</time>
    </trkpt>
    <trkpt lat="56.548288" lon="60.868276">
        <ele>216.2</ele>
        <time>2022-06-29T16:23:13.117Z</time>
    </trkpt>
    <trkpt lat="56.548325" lon="60.868288">
        <ele>216.2</ele>
        <time>2022-06-29T16:23:14.117Z</time>
    </trkpt>
    <trkpt lat="56.548355" lon="60.86829">
        <ele>216.2</ele>
        <time>2022-06-29T16:23:15.117Z</time>
    </trkpt>
    <trkpt lat="56.548387" lon="60.868286">
        <ele>216.2</ele>
        <time>2022-06-29T16:23:16.117Z</time>
    </trkpt>
    <trkpt lat="56.548426" lon="60.868293">
        <ele>216.2</ele>
        <time>2022-06-29T16:23:17.117Z</time>
    </trkpt>
    <trkpt lat="56.548457" lon="60.86829">
        <ele>216.1</ele>
        <time>2022-06-29T16:23:18.117Z</time>
    </trkpt>
    <trkpt lat="56.548487" lon="60.868283">
        <ele>216.1</ele>
        <time>2022-06-29T16:23:19.117Z</time>
    </trkpt>
    <trkpt lat="56.548522" lon="60.86828">
        <ele>216.1</ele>
        <time>2022-06-29T16:23:20.117Z</time>
    </trkpt>
    <trkpt lat="56.548552" lon="60.868281">
        <ele>216.1</ele>
        <time>2022-06-29T16:23:21.117Z</time>
    </trkpt>
    <trkpt lat="56.548582" lon="60.868262">
        <ele>216.1</ele>
        <time>2022-06-29T16:23:22.117Z</time>
    </trkpt>
    <trkpt lat="56.548595" lon="60.868253">
        <ele>216.1</ele>
        <time>2022-06-29T16:23:23.117Z</time>
    </trkpt>
    <trkpt lat="56.548632" lon="60.868236">
        <ele>216.1</ele>
        <time>2022-06-29T16:23:24.117Z</time>
    </trkpt>
    <trkpt lat="56.54866" lon="60.868218">
        <ele>216.1</ele>
        <time>2022-06-29T16:23:25.117Z</time>
    </trkpt>
    <trkpt lat="56.548688" lon="60.868212">
        <ele>216.1</ele>
        <time>2022-06-29T16:23:26.117Z</time>
    </trkpt>
    <trkpt lat="56.548718" lon="60.868204">
        <ele>216.1</ele>
        <time>2022-06-29T16:23:27.117Z</time>
    </trkpt>
    <trkpt lat="56.54875" lon="60.868187">
        <ele>216.1</ele>
        <time>2022-06-29T16:23:28.117Z</time>
    </trkpt>
    <trkpt lat="56.548779" lon="60.868173">
        <ele>216.1</ele>
        <time>2022-06-29T16:23:29.117Z</time>
    </trkpt>
    <trkpt lat="56.548807" lon="60.868155">
        <ele>216.1</ele>
        <time>2022-06-29T16:23:30.117Z</time>
    </trkpt>
    <trkpt lat="56.548835" lon="60.868141">
        <ele>216.1</ele>
        <time>2022-06-29T16:23:31.117Z</time>
    </trkpt>
    <trkpt lat="56.548862" lon="60.868116">
        <ele>216.1</ele>
        <time>2022-06-29T16:23:32.117Z</time>
    </trkpt>
    <trkpt lat="56.548891" lon="60.868096">
        <ele>216.0</ele>
        <time>2022-06-29T16:23:33.117Z</time>
    </trkpt>
    <trkpt lat="56.548915" lon="60.868119">
        <ele>216.0</ele>
        <time>2022-06-29T16:23:34.117Z</time>
    </trkpt>
    <trkpt lat="56.548948" lon="60.86812">
        <ele>216.0</ele>
        <time>2022-06-29T16:23:35.117Z</time>
    </trkpt>
    <trkpt lat="56.548966" lon="60.868124">
        <ele>216.0</ele>
        <time>2022-06-29T16:23:36.117Z</time>
    </trkpt>
    <trkpt lat="56.549008" lon="60.868125">
        <ele>216.0</ele>
        <time>2022-06-29T16:23:37.117Z</time>
    </trkpt>
    <trkpt lat="56.54903" lon="60.868092">
        <ele>216.0</ele>
        <time>2022-06-29T16:23:38.117Z</time>
    </trkpt>
    <trkpt lat="56.549038" lon="60.868067">
        <ele>216.1</ele>
        <time>2022-06-29T16:23:39.117Z</time>
    </trkpt>
    <trkpt lat="56.549047" lon="60.868011">
        <ele>216.1</ele>
        <time>2022-06-29T16:23:40.117Z</time>
    </trkpt>
    <trkpt lat="56.549047" lon="60.867958">
        <ele>216.1</ele>
        <time>2022-06-29T16:23:41.117Z</time>
    </trkpt>
    <trkpt lat="56.549048" lon="60.867935">
        <ele>216.1</ele>
        <time>2022-06-29T16:23:42.117Z</time>
    </trkpt>
    <trkpt lat="56.549039" lon="60.867881">
        <ele>216.1</ele>
        <time>2022-06-29T16:23:43.117Z</time>
    </trkpt>
    <trkpt lat="56.549043" lon="60.867827">
        <ele>216.1</ele>
        <time>2022-06-29T16:23:44.117Z</time>
    </trkpt>
    <trkpt lat="56.54904" lon="60.867809">
        <ele>216.1</ele>
        <time>2022-06-29T16:23:45.117Z</time>
    </trkpt>
    <trkpt lat="56.549036" lon="60.867746">
        <ele>216.1</ele>
        <time>2022-06-29T16:23:46.117Z</time>
    </trkpt>
    <trkpt lat="56.549036" lon="60.867728">
        <ele>216.1</ele>
        <time>2022-06-29T16:23:47.117Z</time>
    </trkpt>
    <trkpt lat="56.549028" lon="60.867668">
        <ele>216.1</ele>
        <time>2022-06-29T16:23:48.117Z</time>
    </trkpt>
    <trkpt lat="56.549032" lon="60.86761">
        <ele>216.2</ele>
        <time>2022-06-29T16:23:49.117Z</time>
    </trkpt>
    <trkpt lat="56.549026" lon="60.867545">
        <ele>216.2</ele>
        <time>2022-06-29T16:23:50.117Z</time>
    </trkpt>
    <trkpt lat="56.549019" lon="60.867494">
        <ele>216.2</ele>
        <time>2022-06-29T16:23:51.117Z</time>
    </trkpt>
    <trkpt lat="56.549013" lon="60.867434">
        <ele>216.2</ele>
        <time>2022-06-29T16:23:52.117Z</time>
    </trkpt>
    <trkpt lat="56.549001" lon="60.867375">
        <ele>216.1</ele>
        <time>2022-06-29T16:23:53.117Z</time>
    </trkpt>
    <trkpt lat="56.548986" lon="60.867322">
        <ele>216.1</ele>
        <time>2022-06-29T16:23:54.117Z</time>
    </trkpt>
    <trkpt lat="56.548981" lon="60.867263">
        <ele>216.1</ele>
        <time>2022-06-29T16:23:55.117Z</time>
    </trkpt>
    <trkpt lat="56.548974" lon="60.867197">
        <ele>216.1</ele>
        <time>2022-06-29T16:23:56.117Z</time>
    </trkpt>
    <trkpt lat="56.548958" lon="60.867127">
        <ele>216.1</ele>
        <time>2022-06-29T16:23:57.117Z</time>
    </trkpt>
    <trkpt lat="56.548947" lon="60.867062">
        <ele>216.0</ele>
        <time>2022-06-29T16:23:58.117Z</time>
    </trkpt>
    <trkpt lat="56.54894" lon="60.867003">
        <ele>216.0</ele>
        <time>2022-06-29T16:23:59.117Z</time>
    </trkpt>
    <trkpt lat="56.548933" lon="60.866928">
        <ele>216.1</ele>
        <time>2022-06-29T16:24:00.117Z</time>
    </trkpt>
    <trkpt lat="56.548924" lon="60.866863">
        <ele>216.1</ele>
        <time>2022-06-29T16:24:01.117Z</time>
    </trkpt>
    <trkpt lat="56.548916" lon="60.866806">
        <ele>216.1</ele>
        <time>2022-06-29T16:24:02.117Z</time>
    </trkpt>
    <trkpt lat="56.548915" lon="60.866747">
        <ele>216.1</ele>
        <time>2022-06-29T16:24:03.117Z</time>
    </trkpt>
    <trkpt lat="56.548918" lon="60.866682">
        <ele>216.1</ele>
        <time>2022-06-29T16:24:04.117Z</time>
    </trkpt>
    <trkpt lat="56.548911" lon="60.866614">
        <ele>216.2</ele>
        <time>2022-06-29T16:24:05.117Z</time>
    </trkpt>
    <trkpt lat="56.548905" lon="60.866549">
        <ele>216.2</ele>
        <time>2022-06-29T16:24:06.117Z</time>
    </trkpt>
    <trkpt lat="56.548905" lon="60.866489">
        <ele>216.2</ele>
        <time>2022-06-29T16:24:07.117Z</time>
    </trkpt>
    <trkpt lat="56.548904" lon="60.866422">
        <ele>216.3</ele>
        <time>2022-06-29T16:24:08.117Z</time>
    </trkpt>
    <trkpt lat="56.54891" lon="60.866362">
        <ele>216.3</ele>
        <time>2022-06-29T16:24:09.117Z</time>
    </trkpt>
    <trkpt lat="56.548905" lon="60.86629">
        <ele>216.3</ele>
        <time>2022-06-29T16:24:10.117Z</time>
    </trkpt>
    <trkpt lat="56.548904" lon="60.866226">
        <ele>216.4</ele>
        <time>2022-06-29T16:24:11.117Z</time>
    </trkpt>
    <trkpt lat="56.5489" lon="60.866171">
        <ele>216.4</ele>
        <time>2022-06-29T16:24:12.117Z</time>
    </trkpt>
    <trkpt lat="56.5489" lon="60.866111">
        <ele>216.4</ele>
        <time>2022-06-29T16:24:13.117Z</time>
    </trkpt>
    <trkpt lat="56.548897" lon="60.866061">
        <ele>216.4</ele>
        <time>2022-06-29T16:24:14.117Z</time>
    </trkpt>
    <trkpt lat="56.5489" lon="60.865989">
        <ele>216.4</ele>
        <time>2022-06-29T16:24:15.117Z</time>
    </trkpt>
    <trkpt lat="56.548904" lon="60.865927">
        <ele>216.5</ele>
        <time>2022-06-29T16:24:16.117Z</time>
    </trkpt>
    <trkpt lat="56.54891" lon="60.865869">
        <ele>216.5</ele>
        <time>2022-06-29T16:24:17.117Z</time>
    </trkpt>
    <trkpt lat="56.548915" lon="60.865804">
        <ele>216.5</ele>
        <time>2022-06-29T16:24:18.117Z</time>
    </trkpt>
    <trkpt lat="56.548913" lon="60.865731">
        <ele>216.6</ele>
        <time>2022-06-29T16:24:19.117Z</time>
    </trkpt>
    <trkpt lat="56.548909" lon="60.865663">
        <ele>216.7</ele>
        <time>2022-06-29T16:24:20.117Z</time>
    </trkpt>
    <trkpt lat="56.548905" lon="60.865571">
        <ele>216.8</ele>
        <time>2022-06-29T16:24:21.117Z</time>
    </trkpt>
    <trkpt lat="56.54891" lon="60.865495">
        <ele>216.8</ele>
        <time>2022-06-29T16:24:22.117Z</time>
    </trkpt>
    <trkpt lat="56.548925" lon="60.865417">
        <ele>216.9</ele>
        <time>2022-06-29T16:24:23.117Z</time>
    </trkpt>
    <trkpt lat="56.548928" lon="60.865346">
        <ele>216.9</ele>
        <time>2022-06-29T16:24:24.117Z</time>
    </trkpt>
    <trkpt lat="56.548944" lon="60.865276">
        <ele>216.9</ele>
        <time>2022-06-29T16:24:25.117Z</time>
    </trkpt>
    <trkpt lat="56.548949" lon="60.865212">
        <ele>217.0</ele>
        <time>2022-06-29T16:24:26.117Z</time>
    </trkpt>
    <trkpt lat="56.548952" lon="60.865146">
        <ele>217.1</ele>
        <time>2022-06-29T16:24:27.117Z</time>
    </trkpt>
    <trkpt lat="56.548965" lon="60.865093">
        <ele>217.1</ele>
        <time>2022-06-29T16:24:28.117Z</time>
    </trkpt>
    <trkpt lat="56.548967" lon="60.865065">
        <ele>217.2</ele>
        <time>2022-06-29T16:24:29.117Z</time>
    </trkpt>
    <trkpt lat="56.548967" lon="60.864992">
        <ele>217.2</ele>
        <time>2022-06-29T16:24:30.117Z</time>
    </trkpt>
    <trkpt lat="56.548966" lon="60.864943">
        <ele>217.3</ele>
        <time>2022-06-29T16:24:31.117Z</time>
    </trkpt>
    <trkpt lat="56.548971" lon="60.864893">
        <ele>217.3</ele>
        <time>2022-06-29T16:24:32.117Z</time>
    </trkpt>
    <trkpt lat="56.548974" lon="60.864874">
        <ele>217.3</ele>
        <time>2022-06-29T16:24:33.117Z</time>
    </trkpt>
    <trkpt lat="56.548987" lon="60.86481">
        <ele>217.3</ele>
        <time>2022-06-29T16:24:34.117Z</time>
    </trkpt>
    <trkpt lat="56.548993" lon="60.864782">
        <ele>217.4</ele>
        <time>2022-06-29T16:24:35.117Z</time>
    </trkpt>
    <trkpt lat="56.549011" lon="60.864719">
        <ele>217.4</ele>
        <time>2022-06-29T16:24:36.117Z</time>
    </trkpt>
    <trkpt lat="56.549015" lon="60.864713">
        <ele>217.4</ele>
        <time>2022-06-29T16:24:37.117Z</time>
    </trkpt>
    <trkpt lat="56.549019" lon="60.864707">
        <ele>217.4</ele>
        <time>2022-06-29T16:24:38.117Z</time>
    </trkpt>
    <trkpt lat="56.549023" lon="60.864702">
        <ele>217.4</ele>
        <time>2022-06-29T16:26:14.117Z</time>
    </trkpt>
    <trkpt lat="56.549027" lon="60.864696">
        <ele>217.4</ele>
        <time>2022-06-29T16:26:15.117Z</time>
    </trkpt>
    <trkpt lat="56.549031" lon="60.86469">
        <ele>217.3</ele>
        <time>2022-06-29T16:26:16.117Z</time>
    </trkpt>
    <trkpt lat="56.549035" lon="60.864684">
        <ele>217.3</ele>
        <time>2022-06-29T16:26:17.117Z</time>
    </trkpt>
    <trkpt lat="56.549039" lon="60.864678">
        <ele>217.3</ele>
        <time>2022-06-29T16:26:18.117Z</time>
    </trkpt>
    <trkpt lat="56.549043" lon="60.864673">
        <ele>217.3</ele>
        <time>2022-06-29T16:26:19.117Z</time>
    </trkpt>
    <trkpt lat="56.549048" lon="60.864667">
        <ele>217.3</ele>
        <time>2022-06-29T16:26:20.117Z</time>
    </trkpt>
    <trkpt lat="56.549052" lon="60.864661">
        <ele>217.3</ele>
        <time>2022-06-29T16:26:21.117Z</time>
    </trkpt>
    <trkpt lat="56.549056" lon="60.864655">
        <ele>217.3</ele>
        <time>2022-06-29T16:26:22.117Z</time>
    </trkpt>
    <trkpt lat="56.54906" lon="60.86465">
        <ele>217.3</ele>
        <time>2022-06-29T16:26:23.117Z</time>
    </trkpt>
    <trkpt lat="56.549064" lon="60.864644">
        <ele>217.3</ele>
        <time>2022-06-29T16:26:24.117Z</time>
    </trkpt>
    <trkpt lat="56.549068" lon="60.864638">
        <ele>217.3</ele>
        <time>2022-06-29T16:26:25.117Z</time>
    </trkpt>
    <trkpt lat="56.549072" lon="60.864632">
        <ele>217.3</ele>
        <time>2022-06-29T16:26:26.117Z</time>
    </trkpt>
    <trkpt lat="56.549076" lon="60.864626">
        <ele>217.3</ele>
        <time>2022-06-29T16:26:27.117Z</time>
    </trkpt>
    <trkpt lat="56.54908" lon="60.864621">
        <ele>217.3</ele>
        <time>2022-06-29T16:26:28.117Z</time>
    </trkpt>
    <trkpt lat="56.549084" lon="60.864615">
        <ele>217.3</ele>
        <time>2022-06-29T16:26:29.117Z</time>
    </trkpt>
    <trkpt lat="56.549089" lon="60.864609">
        <ele>217.3</ele>
        <time>2022-06-29T16:26:30.117Z</time>
    </trkpt>
    <trkpt lat="56.549096" lon="60.864594">
        <ele>217.3</ele>
        <time>2022-06-29T16:26:31.117Z</time>
    </trkpt>
    <trkpt lat="56.5491" lon="60.864585">
        <ele>217.3</ele>
        <time>2022-06-29T16:26:32.117Z</time>
    </trkpt>
    <trkpt lat="56.549118" lon="60.864538">
        <ele>217.2</ele>
        <time>2022-06-29T16:26:33.117Z</time>
    </trkpt>
    <trkpt lat="56.549141" lon="60.864497">
        <ele>217.2</ele>
        <time>2022-06-29T16:26:34.117Z</time>
    </trkpt>
    <trkpt lat="56.549175" lon="60.864453">
        <ele>217.2</ele>
        <time>2022-06-29T16:26:35.117Z</time>
    </trkpt>
    <trkpt lat="56.549217" lon="60.86439">
        <ele>217.3</ele>
        <time>2022-06-29T16:26:36.117Z</time>
    </trkpt>
    <trkpt lat="56.549264" lon="60.864317">
        <ele>217.3</ele>
        <time>2022-06-29T16:26:37.117Z</time>
    </trkpt>
    <trkpt lat="56.549304" lon="60.864242">
        <ele>217.4</ele>
        <time>2022-06-29T16:26:38.117Z</time>
    </trkpt>
    <trkpt lat="56.549353" lon="60.864186">
        <ele>217.5</ele>
        <time>2022-06-29T16:26:39.117Z</time>
    </trkpt>
    <trkpt lat="56.549396" lon="60.864113">
        <ele>217.5</ele>
        <time>2022-06-29T16:26:40.117Z</time>
    </trkpt>
    <trkpt lat="56.549439" lon="60.864044">
        <ele>217.6</ele>
        <time>2022-06-29T16:26:41.117Z</time>
    </trkpt>
    <trkpt lat="56.549485" lon="60.863975">
        <ele>217.6</ele>
        <time>2022-06-29T16:26:42.117Z</time>
    </trkpt>
    <trkpt lat="56.549523" lon="60.86392">
        <ele>217.6</ele>
        <time>2022-06-29T16:26:43.117Z</time>
    </trkpt>
    <trkpt lat="56.549567" lon="60.863868">
        <ele>217.6</ele>
        <time>2022-06-29T16:26:44.117Z</time>
    </trkpt>
    <trkpt lat="56.549621" lon="60.863812">
        <ele>217.6</ele>
        <time>2022-06-29T16:26:45.117Z</time>
    </trkpt>
    <trkpt lat="56.549674" lon="60.863754">
        <ele>217.6</ele>
        <time>2022-06-29T16:26:46.117Z</time>
    </trkpt>
    <trkpt lat="56.549716" lon="60.863708">
        <ele>217.6</ele>
        <time>2022-06-29T16:26:47.117Z</time>
    </trkpt>
    <trkpt lat="56.54982" lon="60.863611">
        <ele>217.6</ele>
        <time>2022-06-29T16:26:48.117Z</time>
    </trkpt>
    <trkpt lat="56.549862" lon="60.863534">
        <ele>217.6</ele>
        <time>2022-06-29T16:26:49.117Z</time>
    </trkpt>
    <trkpt lat="56.549906" lon="60.863463">
        <ele>217.7</ele>
        <time>2022-06-29T16:26:50.117Z</time>
    </trkpt>
    <trkpt lat="56.549947" lon="60.863385">
        <ele>217.8</ele>
        <time>2022-06-29T16:26:51.117Z</time>
    </trkpt>
    <trkpt lat="56.54998" lon="60.863304">
        <ele>218.1</ele>
        <time>2022-06-29T16:26:52.117Z</time>
    </trkpt>
    <trkpt lat="56.550027" lon="60.863224">
        <ele>218.4</ele>
        <time>2022-06-29T16:26:53.117Z</time>
    </trkpt>
    <trkpt lat="56.550072" lon="60.863153">
        <ele>218.7</ele>
        <time>2022-06-29T16:26:54.117Z</time>
    </trkpt>
    <trkpt lat="56.550116" lon="60.863077">
        <ele>219.0</ele>
        <time>2022-06-29T16:26:55.117Z</time>
    </trkpt>
    <trkpt lat="56.550152" lon="60.862993">
        <ele>219.4</ele>
        <time>2022-06-29T16:26:56.117Z</time>
    </trkpt>
    <trkpt lat="56.550184" lon="60.862907">
        <ele>219.7</ele>
        <time>2022-06-29T16:26:57.117Z</time>
    </trkpt>
    <trkpt lat="56.550209" lon="60.862816">
        <ele>220.1</ele>
        <time>2022-06-29T16:26:58.117Z</time>
    </trkpt>
    <trkpt lat="56.550238" lon="60.862729">
        <ele>220.4</ele>
        <time>2022-06-29T16:26:59.117Z</time>
    </trkpt>
    <trkpt lat="56.550269" lon="60.862645">
        <ele>220.6</ele>
        <time>2022-06-29T16:27:00.117Z</time>
    </trkpt>
    <trkpt lat="56.550293" lon="60.862553">
        <ele>220.8</ele>
        <time>2022-06-29T16:27:01.117Z</time>
    </trkpt>
    <trkpt lat="56.550317" lon="60.86246">
        <ele>220.9</ele>
        <time>2022-06-29T16:27:02.117Z</time>
    </trkpt>
    <trkpt lat="56.550333" lon="60.86236">
        <ele>221.0</ele>
        <time>2022-06-29T16:27:03.117Z</time>
    </trkpt>
    <trkpt lat="56.550346" lon="60.862259">
        <ele>221.1</ele>
        <time>2022-06-29T16:27:04.117Z</time>
    </trkpt>
    <trkpt lat="56.550364" lon="60.862155">
        <ele>221.2</ele>
        <time>2022-06-29T16:27:05.117Z</time>
    </trkpt>
    <trkpt lat="56.550385" lon="60.862053">
        <ele>221.4</ele>
        <time>2022-06-29T16:27:06.117Z</time>
    </trkpt>
    <trkpt lat="56.550407" lon="60.861948">
        <ele>221.6</ele>
        <time>2022-06-29T16:27:07.117Z</time>
    </trkpt>
    <trkpt lat="56.550423" lon="60.861841">
        <ele>221.7</ele>
        <time>2022-06-29T16:27:08.117Z</time>
    </trkpt>
    <trkpt lat="56.550439" lon="60.861732">
        <ele>221.9</ele>
        <time>2022-06-29T16:27:09.117Z</time>
    </trkpt>
    <trkpt lat="56.550464" lon="60.861622">
        <ele>222.0</ele>
        <time>2022-06-29T16:27:10.117Z</time>
    </trkpt>
    <trkpt lat="56.550483" lon="60.861505">
        <ele>222.2</ele>
        <time>2022-06-29T16:27:11.117Z</time>
    </trkpt>
    <trkpt lat="56.550498" lon="60.861382">
        <ele>222.3</ele>
        <time>2022-06-29T16:27:12.117Z</time>
    </trkpt>
    <trkpt lat="56.55053" lon="60.861261">
        <ele>222.6</ele>
        <time>2022-06-29T16:27:13.117Z</time>
    </trkpt>
    <trkpt lat="56.550559" lon="60.86114">
        <ele>222.8</ele>
        <time>2022-06-29T16:27:14.117Z</time>
    </trkpt>
    <trkpt lat="56.550579" lon="60.861032">
        <ele>223.0</ele>
        <time>2022-06-29T16:27:15.117Z</time>
    </trkpt>
    <trkpt lat="56.550582" lon="60.86092">
        <ele>223.2</ele>
        <time>2022-06-29T16:27:16.117Z</time>
    </trkpt>
    <trkpt lat="56.550601" lon="60.860802">
        <ele>223.4</ele>
        <time>2022-06-29T16:27:17.117Z</time>
    </trkpt>
    <trkpt lat="56.550613" lon="60.86068">
        <ele>223.6</ele>
        <time>2022-06-29T16:27:18.117Z</time>
    </trkpt>
    <trkpt lat="56.550632" lon="60.860557">
        <ele>223.8</ele>
        <time>2022-06-29T16:27:19.117Z</time>
    </trkpt>
    <trkpt lat="56.550646" lon="60.860422">
        <ele>224.0</ele>
        <time>2022-06-29T16:27:20.117Z</time>
    </trkpt>
    <trkpt lat="56.550663" lon="60.86029">
        <ele>224.2</ele>
        <time>2022-06-29T16:27:21.117Z</time>
    </trkpt>
    <trkpt lat="56.550669" lon="60.860174">
        <ele>224.3</ele>
        <time>2022-06-29T16:27:22.117Z</time>
    </trkpt>
    <trkpt lat="56.550681" lon="60.86006">
        <ele>224.4</ele>
        <time>2022-06-29T16:27:23.117Z</time>
    </trkpt>
    <trkpt lat="56.550702" lon="60.859936">
        <ele>224.5</ele>
        <time>2022-06-29T16:27:24.117Z</time>
    </trkpt>
    <trkpt lat="56.550709" lon="60.859811">
        <ele>224.6</ele>
        <time>2022-06-29T16:27:25.117Z</time>
    </trkpt>
    <trkpt lat="56.550716" lon="60.859697">
        <ele>224.7</ele>
        <time>2022-06-29T16:27:26.117Z</time>
    </trkpt>
    <trkpt lat="56.550728" lon="60.859605">
        <ele>224.8</ele>
        <time>2022-06-29T16:27:27.117Z</time>
    </trkpt>
    <trkpt lat="56.550734" lon="60.859513">
        <ele>224.9</ele>
        <time>2022-06-29T16:27:28.117Z</time>
    </trkpt>
    <trkpt lat="56.550746" lon="60.859414">
        <ele>224.9</ele>
        <time>2022-06-29T16:27:29.117Z</time>
    </trkpt>
    <trkpt lat="56.550756" lon="60.859312">
        <ele>224.9</ele>
        <time>2022-06-29T16:27:30.117Z</time>
    </trkpt>
    <trkpt lat="56.550758" lon="60.859216">
        <ele>224.9</ele>
        <time>2022-06-29T16:27:31.117Z</time>
    </trkpt>
    <trkpt lat="56.550779" lon="60.859109">
        <ele>224.9</ele>
        <time>2022-06-29T16:27:32.117Z</time>
    </trkpt>
    <trkpt lat="56.550794" lon="60.858999">
        <ele>225.0</ele>
        <time>2022-06-29T16:27:33.117Z</time>
    </trkpt>
    <trkpt lat="56.550808" lon="60.858893">
        <ele>225.0</ele>
        <time>2022-06-29T16:27:34.117Z</time>
    </trkpt>
    <trkpt lat="56.550819" lon="60.85878">
        <ele>225.0</ele>
        <time>2022-06-29T16:27:35.117Z</time>
    </trkpt>
    <trkpt lat="56.550827" lon="60.85866">
        <ele>225.0</ele>
        <time>2022-06-29T16:27:36.117Z</time>
    </trkpt>
    <trkpt lat="56.550839" lon="60.85854">
        <ele>225.1</ele>
        <time>2022-06-29T16:27:37.117Z</time>
    </trkpt>
    <trkpt lat="56.550852" lon="60.858419">
        <ele>225.3</ele>
        <time>2022-06-29T16:27:38.117Z</time>
    </trkpt>
    <trkpt lat="56.550862" lon="60.8583">
        <ele>225.6</ele>
        <time>2022-06-29T16:27:39.117Z</time>
    </trkpt>
    <trkpt lat="56.55087" lon="60.858178">
        <ele>225.8</ele>
        <time>2022-06-29T16:27:40.117Z</time>
    </trkpt>
    <trkpt lat="56.550882" lon="60.858054">
        <ele>226.0</ele>
        <time>2022-06-29T16:27:41.117Z</time>
    </trkpt>
    <trkpt lat="56.550903" lon="60.857936">
        <ele>226.2</ele>
        <time>2022-06-29T16:27:42.117Z</time>
    </trkpt>
    <trkpt lat="56.550921" lon="60.857813">
        <ele>226.4</ele>
        <time>2022-06-29T16:27:43.117Z</time>
    </trkpt>
    <trkpt lat="56.550943" lon="60.857688">
        <ele>226.7</ele>
        <time>2022-06-29T16:27:44.117Z</time>
    </trkpt>
    <trkpt lat="56.550966" lon="60.857562">
        <ele>227.4</ele>
        <time>2022-06-29T16:27:45.117Z</time>
    </trkpt>
    <trkpt lat="56.550949" lon="60.857448">
        <ele>227.9</ele>
        <time>2022-06-29T16:27:46.117Z</time>
    </trkpt>
    <trkpt lat="56.550958" lon="60.857339">
        <ele>228.4</ele>
        <time>2022-06-29T16:27:47.117Z</time>
    </trkpt>
    <trkpt lat="56.550981" lon="60.857218">
        <ele>229.0</ele>
        <time>2022-06-29T16:27:48.117Z</time>
    </trkpt>
    <trkpt lat="56.550991" lon="60.857101">
        <ele>229.5</ele>
        <time>2022-06-29T16:27:49.117Z</time>
    </trkpt>
    <trkpt lat="56.550991" lon="60.857012">
        <ele>229.9</ele>
        <time>2022-06-29T16:27:50.117Z</time>
    </trkpt>
    <trkpt lat="56.551027" lon="60.856905">
        <ele>230.4</ele>
        <time>2022-06-29T16:27:51.117Z</time>
    </trkpt>
    <trkpt lat="56.551062" lon="60.856801">
        <ele>231.0</ele>
        <time>2022-06-29T16:27:52.117Z</time>
    </trkpt>
    <trkpt lat="56.551092" lon="60.856703">
        <ele>231.7</ele>
        <time>2022-06-29T16:27:53.117Z</time>
    </trkpt>
    <trkpt lat="56.551105" lon="60.856543">
        <ele>232.8</ele>
        <time>2022-06-29T16:27:54.117Z</time>
    </trkpt>
    <trkpt lat="56.551131" lon="60.856444">
        <ele>233.7</ele>
        <time>2022-06-29T16:27:55.117Z</time>
    </trkpt>
    <trkpt lat="56.551157" lon="60.856359">
        <ele>234.4</ele>
        <time>2022-06-29T16:27:56.117Z</time>
    </trkpt>
    <trkpt lat="56.551181" lon="60.856277">
        <ele>235.2</ele>
        <time>2022-06-29T16:27:57.117Z</time>
    </trkpt>
    <trkpt lat="56.551204" lon="60.856201">
        <ele>235.8</ele>
        <time>2022-06-29T16:27:58.117Z</time>
    </trkpt>
    <trkpt lat="56.551226" lon="60.856123">
        <ele>236.5</ele>
        <time>2022-06-29T16:27:59.117Z</time>
    </trkpt>
    <trkpt lat="56.551252" lon="60.856055">
        <ele>237.1</ele>
        <time>2022-06-29T16:28:00.117Z</time>
    </trkpt>
    <trkpt lat="56.551274" lon="60.855991">
        <ele>237.6</ele>
        <time>2022-06-29T16:28:01.117Z</time>
    </trkpt>
    <trkpt lat="56.551299" lon="60.855917">
        <ele>238.2</ele>
        <time>2022-06-29T16:28:02.117Z</time>
    </trkpt>
    <trkpt lat="56.551325" lon="60.855831">
        <ele>238.9</ele>
        <time>2022-06-29T16:28:03.117Z</time>
    </trkpt>
    <trkpt lat="56.551358" lon="60.855758">
        <ele>239.6</ele>
        <time>2022-06-29T16:28:04.117Z</time>
    </trkpt>
    <trkpt lat="56.551386" lon="60.855686">
        <ele>240.3</ele>
        <time>2022-06-29T16:28:05.117Z</time>
    </trkpt>
    <trkpt lat="56.551401" lon="60.855594">
        <ele>241.0</ele>
        <time>2022-06-29T16:28:06.117Z</time>
    </trkpt>
    <trkpt lat="56.551423" lon="60.855507">
        <ele>241.6</ele>
        <time>2022-06-29T16:28:07.117Z</time>
    </trkpt>
    <trkpt lat="56.551446" lon="60.855421">
        <ele>242.2</ele>
        <time>2022-06-29T16:28:08.117Z</time>
    </trkpt>
    <trkpt lat="56.551472" lon="60.855323">
        <ele>242.9</ele>
        <time>2022-06-29T16:28:09.117Z</time>
    </trkpt>
    <trkpt lat="56.551499" lon="60.855224">
        <ele>243.5</ele>
        <time>2022-06-29T16:28:10.117Z</time>
    </trkpt>
    <trkpt lat="56.551518" lon="60.855119">
        <ele>244.0</ele>
        <time>2022-06-29T16:28:11.117Z</time>
    </trkpt>
    <trkpt lat="56.551542" lon="60.854989">
        <ele>244.7</ele>
        <time>2022-06-29T16:28:12.117Z</time>
    </trkpt>
    <trkpt lat="56.551578" lon="60.854834">
        <ele>244.8</ele>
        <time>2022-06-29T16:28:13.117Z</time>
    </trkpt>
    <trkpt lat="56.551576" lon="60.854771">
        <ele>244.7</ele>
        <time>2022-06-29T16:28:14.117Z</time>
    </trkpt>
    <trkpt lat="56.55158" lon="60.854718">
        <ele>244.6</ele>
        <time>2022-06-29T16:28:15.117Z</time>
    </trkpt>
    <trkpt lat="56.55158" lon="60.854686">
        <ele>244.6</ele>
        <time>2022-06-29T16:28:16.117Z</time>
    </trkpt>
    <trkpt lat="56.551575" lon="60.854639">
        <ele>244.5</ele>
        <time>2022-06-29T16:28:17.117Z</time>
    </trkpt>
    <trkpt lat="56.55158" lon="60.854593">
        <ele>244.5</ele>
        <time>2022-06-29T16:28:18.117Z</time>
    </trkpt>
    <trkpt lat="56.551585" lon="60.854516">
        <ele>244.3</ele>
        <time>2022-06-29T16:28:19.117Z</time>
    </trkpt>
    <trkpt lat="56.551594" lon="60.854451">
        <ele>244.2</ele>
        <time>2022-06-29T16:28:20.117Z</time>
    </trkpt>
    <trkpt lat="56.551593" lon="60.854431">
        <ele>244.2</ele>
        <time>2022-06-29T16:28:21.117Z</time>
    </trkpt>
    <trkpt lat="56.551591" lon="60.85437">
        <ele>244.1</ele>
        <time>2022-06-29T16:28:22.117Z</time>
    </trkpt>
    <trkpt lat="56.551593" lon="60.854345">
        <ele>244.1</ele>
        <time>2022-06-29T16:28:23.117Z</time>
    </trkpt>
    <trkpt lat="56.551598" lon="60.854287">
        <ele>244.0</ele>
        <time>2022-06-29T16:28:24.117Z</time>
    </trkpt>
    <trkpt lat="56.551597" lon="60.85426">
        <ele>244.0</ele>
        <time>2022-06-29T16:28:25.117Z</time>
    </trkpt>
    <trkpt lat="56.551592" lon="60.854213">
        <ele>243.9</ele>
        <time>2022-06-29T16:28:26.117Z</time>
    </trkpt>
    <trkpt lat="56.551602" lon="60.854157">
        <ele>243.8</ele>
        <time>2022-06-29T16:28:27.117Z</time>
    </trkpt>
    <trkpt lat="56.551609" lon="60.85413">
        <ele>243.8</ele>
        <time>2022-06-29T16:28:28.117Z</time>
    </trkpt>
    <trkpt lat="56.551631" lon="60.854087">
        <ele>243.7</ele>
        <time>2022-06-29T16:28:29.117Z</time>
    </trkpt>
    <trkpt lat="56.551636" lon="60.854049">
        <ele>243.6</ele>
        <time>2022-06-29T16:28:30.117Z</time>
    </trkpt>
    <trkpt lat="56.551637" lon="60.854033">
        <ele>243.6</ele>
        <time>2022-06-29T16:28:31.117Z</time>
    </trkpt>
    <trkpt lat="56.551645" lon="60.853999">
        <ele>243.6</ele>
        <time>2022-06-29T16:28:32.117Z</time>
    </trkpt>
    <trkpt lat="56.551656" lon="60.853989">
        <ele>243.5</ele>
        <time>2022-06-29T16:28:33.117Z</time>
    </trkpt>
    <trkpt lat="56.551665" lon="60.85397">
        <ele>243.5</ele>
        <time>2022-06-29T16:28:34.117Z</time>
    </trkpt>
    <trkpt lat="56.551678" lon="60.853932">
        <ele>243.4</ele>
        <time>2022-06-29T16:28:35.117Z</time>
    </trkpt>
    <trkpt lat="56.551681" lon="60.853894">
        <ele>243.4</ele>
        <time>2022-06-29T16:28:36.117Z</time>
    </trkpt>
    <trkpt lat="56.551681" lon="60.853874">
        <ele>243.3</ele>
        <time>2022-06-29T16:28:37.117Z</time>
    </trkpt>
    <trkpt lat="56.551688" lon="60.853851">
        <ele>243.3</ele>
        <time>2022-06-29T16:28:38.117Z</time>
    </trkpt>
    <trkpt lat="56.551697" lon="60.853812">
        <ele>243.2</ele>
        <time>2022-06-29T16:28:39.117Z</time>
    </trkpt>
    <trkpt lat="56.551702" lon="60.85376">
        <ele>243.2</ele>
        <time>2022-06-29T16:28:40.117Z</time>
    </trkpt>
    <trkpt lat="56.551709" lon="60.85375">
        <ele>243.1</ele>
        <time>2022-06-29T16:28:41.117Z</time>
    </trkpt>
    <trkpt lat="56.55171" lon="60.853712">
        <ele>243.1</ele>
        <time>2022-06-29T16:28:42.117Z</time>
    </trkpt>
    <trkpt lat="56.551713" lon="60.853698">
        <ele>243.1</ele>
        <time>2022-06-29T16:28:43.117Z</time>
    </trkpt>
    <trkpt lat="56.551729" lon="60.853654">
        <ele>243.0</ele>
        <time>2022-06-29T16:28:44.117Z</time>
    </trkpt>
    <trkpt lat="56.551736" lon="60.85364">
        <ele>243.0</ele>
        <time>2022-06-29T16:28:45.117Z</time>
    </trkpt>
    <trkpt lat="56.551757" lon="60.853596">
        <ele>242.9</ele>
        <time>2022-06-29T16:28:46.117Z</time>
    </trkpt>
    <trkpt lat="56.55177" lon="60.853572">
        <ele>242.8</ele>
        <time>2022-06-29T16:28:47.117Z</time>
    </trkpt>
    <trkpt lat="56.551782" lon="60.853553">
        <ele>242.8</ele>
        <time>2022-06-29T16:28:48.117Z</time>
    </trkpt>
    <trkpt lat="56.55179" lon="60.853526">
        <ele>242.7</ele>
        <time>2022-06-29T16:28:49.117Z</time>
    </trkpt>
    <trkpt lat="56.551792" lon="60.853494">
        <ele>242.7</ele>
        <time>2022-06-29T16:28:50.117Z</time>
    </trkpt>
    <trkpt lat="56.551799" lon="60.853478">
        <ele>242.7</ele>
        <time>2022-06-29T16:28:51.117Z</time>
    </trkpt>
    <trkpt lat="56.551817" lon="60.853434">
        <ele>242.6</ele>
        <time>2022-06-29T16:28:52.117Z</time>
    </trkpt>
    <trkpt lat="56.551822" lon="60.853418">
        <ele>242.6</ele>
        <time>2022-06-29T16:28:53.117Z</time>
    </trkpt>
    <trkpt lat="56.551836" lon="60.853377">
        <ele>242.5</ele>
        <time>2022-06-29T16:28:54.117Z</time>
    </trkpt>
    <trkpt lat="56.551842" lon="60.853355">
        <ele>242.5</ele>
        <time>2022-06-29T16:28:55.117Z</time>
    </trkpt>
    <trkpt lat="56.551847" lon="60.853337">
        <ele>242.4</ele>
        <time>2022-06-29T16:28:56.117Z</time>
    </trkpt>
    <trkpt lat="56.551853" lon="60.853327">
        <ele>242.4</ele>
        <time>2022-06-29T16:28:57.117Z</time>
    </trkpt>
    <trkpt lat="56.551857" lon="60.853301">
        <ele>242.4</ele>
        <time>2022-06-29T16:28:58.117Z</time>
    </trkpt>
    <trkpt lat="56.551858" lon="60.853272">
        <ele>242.3</ele>
        <time>2022-06-29T16:28:59.117Z</time>
    </trkpt>
    <trkpt lat="56.551863" lon="60.853266">
        <ele>242.3</ele>
        <time>2022-06-29T16:29:00.117Z</time>
    </trkpt>
    <trkpt lat="56.551867" lon="60.853251">
        <ele>242.3</ele>
        <time>2022-06-29T16:29:01.117Z</time>
    </trkpt>
    <trkpt lat="56.551867" lon="60.853241">
        <ele>242.3</ele>
        <time>2022-06-29T16:29:02.117Z</time>
    </trkpt>
    <trkpt lat="56.55188" lon="60.853209">
        <ele>242.2</ele>
        <time>2022-06-29T16:29:03.117Z</time>
    </trkpt>
    <trkpt lat="56.55196" lon="60.853162">
        <ele>243.2</ele>
        <time>2022-06-29T16:29:12.117Z</time>
    </trkpt>
    <trkpt lat="56.55196" lon="60.853162">
        <ele>243.2</ele>
        <time>2022-06-29T16:29:13.117Z</time>
    </trkpt>
    <trkpt lat="56.55196" lon="60.853162">
        <ele>243.2</ele>
        <time>2022-06-29T16:29:14.117Z</time>
    </trkpt>
    <trkpt lat="56.55196" lon="60.853162">
        <ele>243.2</ele>
        <time>2022-06-29T16:29:15.117Z</time>
    </trkpt>
    <trkpt lat="56.55196" lon="60.853162">
        <ele>243.2</ele>
        <time>2022-06-29T16:29:16.117Z</time>
    </trkpt>
    <trkpt lat="56.55196" lon="60.853162">
        <ele>243.2</ele>
        <time>2022-06-29T16:29:17.117Z</time>
    </trkpt>
    <trkpt lat="56.551966" lon="60.853161">
        <ele>243.2</ele>
        <time>2022-06-29T16:29:18.117Z</time>
    </trkpt>
    <trkpt lat="56.551983" lon="60.853164">
        <ele>243.2</ele>
        <time>2022-06-29T16:29:19.117Z</time>
    </trkpt>
    <trkpt lat="56.551991" lon="60.853171">
        <ele>243.2</ele>
        <time>2022-06-29T16:29:20.117Z</time>
    </trkpt>
    <trkpt lat="56.551998" lon="60.853179">
        <ele>243.2</ele>
        <time>2022-06-29T16:29:21.117Z</time>
    </trkpt>
    <trkpt lat="56.552006" lon="60.853186">
        <ele>243.2</ele>
        <time>2022-06-29T16:29:22.117Z</time>
    </trkpt>
    <trkpt lat="56.552017" lon="60.853186">
        <ele>244.2</ele>
        <time>2022-06-29T16:29:23.117Z</time>
    </trkpt>
    <trkpt lat="56.552023" lon="60.853172">
        <ele>244.2</ele>
        <time>2022-06-29T16:29:24.117Z</time>
    </trkpt>
    <trkpt lat="56.552044" lon="60.85312">
        <ele>244.2</ele>
        <time>2022-06-29T16:29:25.117Z</time>
    </trkpt>
    <trkpt lat="56.552048" lon="60.853103">
        <ele>244.2</ele>
        <time>2022-06-29T16:29:26.117Z</time>
    </trkpt>
    <trkpt lat="56.552058" lon="60.853053">
        <ele>243.2</ele>
        <time>2022-06-29T16:29:27.117Z</time>
    </trkpt>
    <trkpt lat="56.552059" lon="60.853035">
        <ele>243.2</ele>
        <time>2022-06-29T16:29:28.117Z</time>
    </trkpt>
    <trkpt lat="56.552072" lon="60.85299">
        <ele>243.2</ele>
        <time>2022-06-29T16:29:29.117Z</time>
    </trkpt>
    <trkpt lat="56.552079" lon="60.852971">
        <ele>243.2</ele>
        <time>2022-06-29T16:29:30.117Z</time>
    </trkpt>
    <trkpt lat="56.552087" lon="60.852952">
        <ele>243.2</ele>
        <time>2022-06-29T16:29:31.117Z</time>
    </trkpt>
    <trkpt lat="56.552094" lon="60.852915">
        <ele>241.2</ele>
        <time>2022-06-29T16:29:32.117Z</time>
    </trkpt>
    <trkpt lat="56.552099" lon="60.852899">
        <ele>241.2</ele>
        <time>2022-06-29T16:29:33.117Z</time>
    </trkpt>
    <trkpt lat="56.552112" lon="60.852879">
        <ele>242.2</ele>
        <time>2022-06-29T16:29:34.117Z</time>
    </trkpt>
    <trkpt lat="56.552118" lon="60.85286">
        <ele>242.2</ele>
        <time>2022-06-29T16:29:35.117Z</time>
    </trkpt>
    <trkpt lat="56.552138" lon="60.852805">
        <ele>242.2</ele>
        <time>2022-06-29T16:29:36.117Z</time>
    </trkpt>
    <trkpt lat="56.552144" lon="60.852795">
        <ele>242.2</ele>
        <time>2022-06-29T16:29:37.117Z</time>
    </trkpt>
    <trkpt lat="56.552169" lon="60.852765">
        <ele>242.2</ele>
        <time>2022-06-29T16:29:38.117Z</time>
    </trkpt>
    <trkpt lat="56.552178" lon="60.852751">
        <ele>241.2</ele>
        <time>2022-06-29T16:29:39.117Z</time>
    </trkpt>
    <trkpt lat="56.552211" lon="60.852713">
        <ele>241.2</ele>
        <time>2022-06-29T16:29:40.117Z</time>
    </trkpt>
    <trkpt lat="56.552238" lon="60.852694">
        <ele>241.2</ele>
        <time>2022-06-29T16:29:41.117Z</time>
    </trkpt>
    <trkpt lat="56.552266" lon="60.852702">
        <ele>241.2</ele>
        <time>2022-06-29T16:29:42.117Z</time>
    </trkpt>
    <trkpt lat="56.552294" lon="60.852689">
        <ele>242.2</ele>
        <time>2022-06-29T16:29:43.117Z</time>
    </trkpt>
    <trkpt lat="56.552324" lon="60.852685">
        <ele>242.2</ele>
        <time>2022-06-29T16:29:44.117Z</time>
    </trkpt>
    <trkpt lat="56.552339" lon="60.852673">
        <ele>242.2</ele>
        <time>2022-06-29T16:29:45.117Z</time>
    </trkpt>
    <trkpt lat="56.552372" lon="60.852668">
        <ele>242.2</ele>
        <time>2022-06-29T16:29:46.117Z</time>
    </trkpt>
    <trkpt lat="56.552413" lon="60.852656">
        <ele>243.2</ele>
        <time>2022-06-29T16:29:47.117Z</time>
    </trkpt>
    <trkpt lat="56.552432" lon="60.85265">
        <ele>243.2</ele>
        <time>2022-06-29T16:29:48.117Z</time>
    </trkpt>
    <trkpt lat="56.552475" lon="60.85264">
        <ele>243.2</ele>
        <time>2022-06-29T16:29:49.117Z</time>
    </trkpt>
    <trkpt lat="56.552504" lon="60.852627">
        <ele>243.2</ele>
        <time>2022-06-29T16:29:50.117Z</time>
    </trkpt>
    <trkpt lat="56.55252" lon="60.852623">
        <ele>243.2</ele>
        <time>2022-06-29T16:29:51.117Z</time>
    </trkpt>
    <trkpt lat="56.552546" lon="60.852614">
        <ele>243.2</ele>
        <time>2022-06-29T16:29:52.117Z</time>
    </trkpt>
    <trkpt lat="56.552567" lon="60.852608">
        <ele>243.2</ele>
        <time>2022-06-29T16:29:53.117Z</time>
    </trkpt>
    <trkpt lat="56.552606" lon="60.852601">
        <ele>244.2</ele>
        <time>2022-06-29T16:29:54.117Z</time>
    </trkpt>
    <trkpt lat="56.552623" lon="60.852594">
        <ele>244.2</ele>
        <time>2022-06-29T16:29:55.117Z</time>
    </trkpt>
    <trkpt lat="56.552659" lon="60.85258">
        <ele>243.2</ele>
        <time>2022-06-29T16:29:56.117Z</time>
    </trkpt>
    <trkpt lat="56.552687" lon="60.852571">
        <ele>244.2</ele>
        <time>2022-06-29T16:29:57.117Z</time>
    </trkpt>
    <trkpt lat="56.552705" lon="60.852557">
        <ele>244.2</ele>
        <time>2022-06-29T16:29:58.117Z</time>
    </trkpt>
    <trkpt lat="56.55272" lon="60.852544">
        <ele>244.2</ele>
        <time>2022-06-29T16:29:59.117Z</time>
    </trkpt>
    <trkpt lat="56.552732" lon="60.852531">
        <ele>244.2</ele>
        <time>2022-06-29T16:30:00.117Z</time>
    </trkpt>
    <trkpt lat="56.552754" lon="60.852501">
        <ele>244.2</ele>
        <time>2022-06-29T16:30:01.117Z</time>
    </trkpt>
    <trkpt lat="56.552781" lon="60.852471">
        <ele>244.2</ele>
        <time>2022-06-29T16:30:02.117Z</time>
    </trkpt>
    <trkpt lat="56.552798" lon="60.852468">
        <ele>244.2</ele>
        <time>2022-06-29T16:30:03.117Z</time>
    </trkpt>
    <trkpt lat="56.552813" lon="60.852462">
        <ele>244.2</ele>
        <time>2022-06-29T16:30:04.117Z</time>
    </trkpt>
    <trkpt lat="56.55282" lon="60.852452">
        <ele>244.2</ele>
        <time>2022-06-29T16:30:05.117Z</time>
    </trkpt>
    <trkpt lat="56.552836" lon="60.852426">
        <ele>244.2</ele>
        <time>2022-06-29T16:30:06.117Z</time>
    </trkpt>
    <trkpt lat="56.552861" lon="60.852404">
        <ele>245.2</ele>
        <time>2022-06-29T16:30:07.117Z</time>
    </trkpt>
    <trkpt lat="56.552868" lon="60.852396">
        <ele>245.2</ele>
        <time>2022-06-29T16:30:08.117Z</time>
    </trkpt>
    <trkpt lat="56.552885" lon="60.85237">
        <ele>245.2</ele>
        <time>2022-06-29T16:30:09.117Z</time>
    </trkpt>
    <trkpt lat="56.552893" lon="60.852361">
        <ele>245.2</ele>
        <time>2022-06-29T16:30:10.117Z</time>
    </trkpt>
    <trkpt lat="56.552901" lon="60.852351">
        <ele>245.2</ele>
        <time>2022-06-29T16:30:11.117Z</time>
    </trkpt>
    <trkpt lat="56.552923" lon="60.852326">
        <ele>245.2</ele>
        <time>2022-06-29T16:30:12.117Z</time>
    </trkpt>
    <trkpt lat="56.552934" lon="60.852318">
        <ele>245.2</ele>
        <time>2022-06-29T16:30:13.117Z</time>
    </trkpt>
    <trkpt lat="56.55296" lon="60.852307">
        <ele>246.2</ele>
        <time>2022-06-29T16:30:14.117Z</time>
    </trkpt>
    <trkpt lat="56.552976" lon="60.852304">
        <ele>246.2</ele>
        <time>2022-06-29T16:30:15.117Z</time>
    </trkpt>
    <trkpt lat="56.553015" lon="60.852299">
        <ele>246.2</ele>
        <time>2022-06-29T16:30:16.117Z</time>
    </trkpt>
    <trkpt lat="56.553027" lon="60.852298">
        <ele>246.2</ele>
        <time>2022-06-29T16:30:17.117Z</time>
    </trkpt>
    <trkpt lat="56.553055" lon="60.85231">
        <ele>246.2</ele>
        <time>2022-06-29T16:30:18.117Z</time>
    </trkpt>
    <trkpt lat="56.553093" lon="60.85231">
        <ele>246.2</ele>
        <time>2022-06-29T16:30:19.117Z</time>
    </trkpt>
    <trkpt lat="56.553124" lon="60.852311">
        <ele>246.2</ele>
        <time>2022-06-29T16:30:20.117Z</time>
    </trkpt>
    <trkpt lat="56.553132" lon="60.852303">
        <ele>246.2</ele>
        <time>2022-06-29T16:30:21.117Z</time>
    </trkpt>
    <trkpt lat="56.553166" lon="60.852287">
        <ele>247.2</ele>
        <time>2022-06-29T16:30:22.117Z</time>
    </trkpt>
    <trkpt lat="56.553177" lon="60.852279">
        <ele>247.2</ele>
        <time>2022-06-29T16:30:23.117Z</time>
    </trkpt>
    <trkpt lat="56.553194" lon="60.852275">
        <ele>247.2</ele>
        <time>2022-06-29T16:30:24.117Z</time>
    </trkpt>
    <trkpt lat="56.553217" lon="60.85227">
        <ele>247.2</ele>
        <time>2022-06-29T16:30:25.117Z</time>
    </trkpt>
    <trkpt lat="56.553227" lon="60.852259">
        <ele>247.2</ele>
        <time>2022-06-29T16:30:26.117Z</time>
    </trkpt>
    <trkpt lat="56.553239" lon="60.85225">
        <ele>247.2</ele>
        <time>2022-06-29T16:30:27.117Z</time>
    </trkpt>
    <trkpt lat="56.553255" lon="60.852251">
        <ele>247.2</ele>
        <time>2022-06-29T16:30:28.117Z</time>
    </trkpt>
    <trkpt lat="56.55327" lon="60.852249">
        <ele>247.2</ele>
        <time>2022-06-29T16:30:29.117Z</time>
    </trkpt>
    <trkpt lat="56.55329" lon="60.852262">
        <ele>247.2</ele>
        <time>2022-06-29T16:30:30.117Z</time>
    </trkpt>
    <trkpt lat="56.553301" lon="60.852267">
        <ele>247.2</ele>
        <time>2022-06-29T16:30:31.117Z</time>
    </trkpt>
    <trkpt lat="56.553316" lon="60.852288">
        <ele>247.2</ele>
        <time>2022-06-29T16:30:32.117Z</time>
    </trkpt>
    <trkpt lat="56.553322" lon="60.852305">
        <ele>247.2</ele>
        <time>2022-06-29T16:30:33.117Z</time>
    </trkpt>
    <trkpt lat="56.553338" lon="60.852352">
        <ele>246.2</ele>
        <time>2022-06-29T16:30:34.117Z</time>
    </trkpt>
    <trkpt lat="56.553343" lon="60.852368">
        <ele>246.2</ele>
        <time>2022-06-29T16:30:35.117Z</time>
    </trkpt>
    <trkpt lat="56.553352" lon="60.852413">
        <ele>246.2</ele>
        <time>2022-06-29T16:30:36.117Z</time>
    </trkpt>
    <trkpt lat="56.553381" lon="60.852444">
        <ele>247.2</ele>
        <time>2022-06-29T16:30:37.117Z</time>
    </trkpt>
    <trkpt lat="56.553389" lon="60.852461">
        <ele>247.2</ele>
        <time>2022-06-29T16:30:38.117Z</time>
    </trkpt>
    <trkpt lat="56.553413" lon="60.852499">
        <ele>247.2</ele>
        <time>2022-06-29T16:30:39.117Z</time>
    </trkpt>
    <trkpt lat="56.553436" lon="60.85253">
        <ele>246.2</ele>
        <time>2022-06-29T16:30:40.117Z</time>
    </trkpt>
    <trkpt lat="56.55346" lon="60.852577">
        <ele>246.2</ele>
        <time>2022-06-29T16:30:41.117Z</time>
    </trkpt>
    <trkpt lat="56.553466" lon="60.852594">
        <ele>247.2</ele>
        <time>2022-06-29T16:30:42.117Z</time>
    </trkpt>
    <trkpt lat="56.553491" lon="60.852629">
        <ele>247.2</ele>
        <time>2022-06-29T16:30:43.117Z</time>
    </trkpt>
    <trkpt lat="56.553515" lon="60.852653">
        <ele>247.2</ele>
        <time>2022-06-29T16:30:44.117Z</time>
    </trkpt>
    <trkpt lat="56.553532" lon="60.852668">
        <ele>246.2</ele>
        <time>2022-06-29T16:30:45.117Z</time>
    </trkpt>
    <trkpt lat="56.553557" lon="60.852699">
        <ele>246.2</ele>
        <time>2022-06-29T16:30:46.117Z</time>
    </trkpt>
    <trkpt lat="56.553569" lon="60.852711">
        <ele>246.2</ele>
        <time>2022-06-29T16:30:47.117Z</time>
    </trkpt>
    <trkpt lat="56.553581" lon="60.852733">
        <ele>246.2</ele>
        <time>2022-06-29T16:30:48.117Z</time>
    </trkpt>
    <trkpt lat="56.55359" lon="60.852745">
        <ele>246.2</ele>
        <time>2022-06-29T16:30:49.117Z</time>
    </trkpt>
    <trkpt lat="56.553615" lon="60.852778">
        <ele>247.2</ele>
        <time>2022-06-29T16:30:50.117Z</time>
    </trkpt>
    <trkpt lat="56.553641" lon="60.852806">
        <ele>245.2</ele>
        <time>2022-06-29T16:30:51.117Z</time>
    </trkpt>
    <trkpt lat="56.553651" lon="60.85282">
        <ele>245.2</ele>
        <time>2022-06-29T16:30:52.117Z</time>
    </trkpt>
    <trkpt lat="56.553681" lon="60.852866">
        <ele>245.2</ele>
        <time>2022-06-29T16:30:53.117Z</time>
    </trkpt>
    <trkpt lat="56.553689" lon="60.852879">
        <ele>245.2</ele>
        <time>2022-06-29T16:30:54.117Z</time>
    </trkpt>
    <trkpt lat="56.553714" lon="60.852905">
        <ele>244.2</ele>
        <time>2022-06-29T16:30:55.117Z</time>
    </trkpt>
    <trkpt lat="56.553741" lon="60.852941">
        <ele>245.2</ele>
        <time>2022-06-29T16:30:56.117Z</time>
    </trkpt>
    <trkpt lat="56.55375" lon="60.852956">
        <ele>245.2</ele>
        <time>2022-06-29T16:30:57.117Z</time>
    </trkpt>
    <trkpt lat="56.553778" lon="60.852997">
        <ele>245.2</ele>
        <time>2022-06-29T16:30:58.117Z</time>
    </trkpt>
    <trkpt lat="56.553785" lon="60.853009">
        <ele>245.2</ele>
        <time>2022-06-29T16:30:59.117Z</time>
    </trkpt>
    <trkpt lat="56.553806" lon="60.85305">
        <ele>245.2</ele>
        <time>2022-06-29T16:31:00.117Z</time>
    </trkpt>
    <trkpt lat="56.553811" lon="60.853064">
        <ele>244.2</ele>
        <time>2022-06-29T16:31:01.117Z</time>
    </trkpt>
    <trkpt lat="56.55384" lon="60.853098">
        <ele>244.2</ele>
        <time>2022-06-29T16:31:02.117Z</time>
    </trkpt>
    <trkpt lat="56.553851" lon="60.853109">
        <ele>246.2</ele>
        <time>2022-06-29T16:31:03.117Z</time>
    </trkpt>
    <trkpt lat="56.55388" lon="60.853135">
        <ele>246.2</ele>
        <time>2022-06-29T16:31:04.117Z</time>
    </trkpt>
    <trkpt lat="56.553892" lon="60.853136">
        <ele>246.2</ele>
        <time>2022-06-29T16:31:05.117Z</time>
    </trkpt>
    <trkpt lat="56.553908" lon="60.853136">
        <ele>245.2</ele>
        <time>2022-06-29T16:31:06.117Z</time>
    </trkpt>
    <trkpt lat="56.553919" lon="60.853137">
        <ele>245.2</ele>
        <time>2022-06-29T16:31:07.117Z</time>
    </trkpt>
    <trkpt lat="56.553948" lon="60.853157">
        <ele>245.2</ele>
        <time>2022-06-29T16:31:08.117Z</time>
    </trkpt>
    <trkpt lat="56.553956" lon="60.853168">
        <ele>245.2</ele>
        <time>2022-06-29T16:31:09.117Z</time>
    </trkpt>
    <trkpt lat="56.553986" lon="60.85319">
        <ele>245.2</ele>
        <time>2022-06-29T16:31:10.117Z</time>
    </trkpt>
    <trkpt lat="56.553994" lon="60.853196">
        <ele>245.2</ele>
        <time>2022-06-29T16:31:11.117Z</time>
    </trkpt>
    <trkpt lat="56.554021" lon="60.853205">
        <ele>244.2</ele>
        <time>2022-06-29T16:31:12.117Z</time>
    </trkpt>
    <trkpt lat="56.554031" lon="60.85321">
        <ele>244.2</ele>
        <time>2022-06-29T16:31:13.117Z</time>
    </trkpt>
    <trkpt lat="56.55406" lon="60.853225">
        <ele>244.2</ele>
        <time>2022-06-29T16:31:14.117Z</time>
    </trkpt>
    <trkpt lat="56.554079" lon="60.853241">
        <ele>244.2</ele>
        <time>2022-06-29T16:31:15.117Z</time>
    </trkpt>
    <trkpt lat="56.554087" lon="60.853251">
        <ele>244.2</ele>
        <time>2022-06-29T16:31:16.117Z</time>
    </trkpt>
    <trkpt lat="56.554118" lon="60.853255">
        <ele>244.2</ele>
        <time>2022-06-29T16:31:17.117Z</time>
    </trkpt>
    <trkpt lat="56.554129" lon="60.853258">
        <ele>244.2</ele>
        <time>2022-06-29T16:31:18.117Z</time>
    </trkpt>
    <trkpt lat="56.55415" lon="60.853265">
        <ele>244.2</ele>
        <time>2022-06-29T16:31:19.117Z</time>
    </trkpt>
    <trkpt lat="56.554152" lon="60.853258">
        <ele>244.2</ele>
        <time>2022-06-29T16:31:20.117Z</time>
    </trkpt>
    <trkpt lat="56.554188" lon="60.853293">
        <ele>244.2</ele>
        <time>2022-06-29T16:31:21.117Z</time>
    </trkpt>
    <trkpt lat="56.554199" lon="60.853313">
        <ele>244.2</ele>
        <time>2022-06-29T16:31:22.117Z</time>
    </trkpt>
    <trkpt lat="56.554214" lon="60.853312">
        <ele>244.2</ele>
        <time>2022-06-29T16:31:23.117Z</time>
    </trkpt>
    <trkpt lat="56.554226" lon="60.853314">
        <ele>244.2</ele>
        <time>2022-06-29T16:31:24.117Z</time>
    </trkpt>
    <trkpt lat="56.55426" lon="60.853318">
        <ele>244.2</ele>
        <time>2022-06-29T16:31:25.117Z</time>
    </trkpt>
    <trkpt lat="56.554268" lon="60.853318">
        <ele>244.2</ele>
        <time>2022-06-29T16:31:26.117Z</time>
    </trkpt>
    <trkpt lat="56.554296" lon="60.853314">
        <ele>243.2</ele>
        <time>2022-06-29T16:31:27.117Z</time>
    </trkpt>
    <trkpt lat="56.554309" lon="60.853322">
        <ele>243.2</ele>
        <time>2022-06-29T16:31:28.117Z</time>
    </trkpt>
    <trkpt lat="56.55434" lon="60.853333">
        <ele>243.2</ele>
        <time>2022-06-29T16:31:29.117Z</time>
    </trkpt>
    <trkpt lat="56.554355" lon="60.853326">
        <ele>243.2</ele>
        <time>2022-06-29T16:31:30.117Z</time>
    </trkpt>
    <trkpt lat="56.554374" lon="60.853329">
        <ele>241.2</ele>
        <time>2022-06-29T16:31:31.117Z</time>
    </trkpt>
    <trkpt lat="56.554384" lon="60.85334">
        <ele>241.2</ele>
        <time>2022-06-29T16:31:32.117Z</time>
    </trkpt>
    <trkpt lat="56.554403" lon="60.853352">
        <ele>241.2</ele>
        <time>2022-06-29T16:31:33.117Z</time>
    </trkpt>
    <trkpt lat="56.554413" lon="60.853354">
        <ele>241.2</ele>
        <time>2022-06-29T16:31:34.117Z</time>
    </trkpt>
    <trkpt lat="56.554445" lon="60.853378">
        <ele>241.2</ele>
        <time>2022-06-29T16:31:35.117Z</time>
    </trkpt>
    <trkpt lat="56.554466" lon="60.853394">
        <ele>241.2</ele>
        <time>2022-06-29T16:31:36.117Z</time>
    </trkpt>
    <trkpt lat="56.554476" lon="60.8534">
        <ele>239.2</ele>
        <time>2022-06-29T16:31:37.117Z</time>
    </trkpt>
    <trkpt lat="56.554558" lon="60.853478">
        <ele>241.2</ele>
        <time>2022-06-29T16:32:40.117Z</time>
    </trkpt>
    <trkpt lat="56.554565" lon="60.853479">
        <ele>239.2</ele>
        <time>2022-06-29T16:32:41.117Z</time>
    </trkpt>
    <trkpt lat="56.554566" lon="60.853481">
        <ele>239.2</ele>
        <time>2022-06-29T16:32:42.117Z</time>
    </trkpt>
    <trkpt lat="56.554564" lon="60.853476">
        <ele>239.2</ele>
        <time>2022-06-29T16:32:43.117Z</time>
    </trkpt>
    <trkpt lat="56.554571" lon="60.853479">
        <ele>239.2</ele>
        <time>2022-06-29T16:32:44.117Z</time>
    </trkpt>
    <trkpt lat="56.554578" lon="60.853485">
        <ele>239.2</ele>
        <time>2022-06-29T16:32:45.117Z</time>
    </trkpt>
    <trkpt lat="56.554585" lon="60.853487">
        <ele>239.2</ele>
        <time>2022-06-29T16:32:46.117Z</time>
    </trkpt>
    <trkpt lat="56.554584" lon="60.853488">
        <ele>239.2</ele>
        <time>2022-06-29T16:32:47.117Z</time>
    </trkpt>
    <trkpt lat="56.554583" lon="60.853466">
        <ele>239.2</ele>
        <time>2022-06-29T16:32:48.117Z</time>
    </trkpt>
    <trkpt lat="56.554581" lon="60.853475">
        <ele>239.2</ele>
        <time>2022-06-29T16:32:49.117Z</time>
    </trkpt>
    <trkpt lat="56.554587" lon="60.85347">
        <ele>239.2</ele>
        <time>2022-06-29T16:32:50.117Z</time>
    </trkpt>
    <trkpt lat="56.554596" lon="60.853481">
        <ele>239.2</ele>
        <time>2022-06-29T16:32:51.117Z</time>
    </trkpt>
    <trkpt lat="56.554621" lon="60.853509">
        <ele>239.2</ele>
        <time>2022-06-29T16:32:52.117Z</time>
    </trkpt>
    <trkpt lat="56.554639" lon="60.853503">
        <ele>239.2</ele>
        <time>2022-06-29T16:32:53.117Z</time>
    </trkpt>
    <trkpt lat="56.554648" lon="60.853505">
        <ele>239.2</ele>
        <time>2022-06-29T16:32:54.117Z</time>
    </trkpt>
    <trkpt lat="56.554672" lon="60.853476">
        <ele>237.2</ele>
        <time>2022-06-29T16:32:55.117Z</time>
    </trkpt>
    <trkpt lat="56.554679" lon="60.853447">
        <ele>237.2</ele>
        <time>2022-06-29T16:32:56.117Z</time>
    </trkpt>
    <trkpt lat="56.554696" lon="60.853427">
        <ele>236.2</ele>
        <time>2022-06-29T16:32:57.117Z</time>
    </trkpt>
    <trkpt lat="56.554705" lon="60.853412">
        <ele>236.2</ele>
        <time>2022-06-29T16:32:58.117Z</time>
    </trkpt>
    <trkpt lat="56.554731" lon="60.853387">
        <ele>236.2</ele>
        <time>2022-06-29T16:32:59.117Z</time>
    </trkpt>
    <trkpt lat="56.55474" lon="60.853363">
        <ele>236.2</ele>
        <time>2022-06-29T16:33:00.117Z</time>
    </trkpt>
    <trkpt lat="56.554762" lon="60.853316">
        <ele>235.2</ele>
        <time>2022-06-29T16:33:01.117Z</time>
    </trkpt>
    <trkpt lat="56.554787" lon="60.853281">
        <ele>235.2</ele>
        <time>2022-06-29T16:33:02.117Z</time>
    </trkpt>
    <trkpt lat="56.554791" lon="60.853261">
        <ele>234.2</ele>
        <time>2022-06-29T16:33:03.117Z</time>
    </trkpt>
    <trkpt lat="56.554801" lon="60.853221">
        <ele>234.2</ele>
        <time>2022-06-29T16:33:04.117Z</time>
    </trkpt>
    <trkpt lat="56.554817" lon="60.853175">
        <ele>234.2</ele>
        <time>2022-06-29T16:33:05.117Z</time>
    </trkpt>
    <trkpt lat="56.554824" lon="60.853159">
        <ele>234.2</ele>
        <time>2022-06-29T16:33:06.117Z</time>
    </trkpt>
    <trkpt lat="56.554843" lon="60.853103">
        <ele>234.2</ele>
        <time>2022-06-29T16:33:07.117Z</time>
    </trkpt>
    <trkpt lat="56.55485" lon="60.853081">
        <ele>233.2</ele>
        <time>2022-06-29T16:33:08.117Z</time>
    </trkpt>
    <trkpt lat="56.554862" lon="60.853035">
        <ele>233.2</ele>
        <time>2022-06-29T16:33:09.117Z</time>
    </trkpt>
    <trkpt lat="56.554879" lon="60.852983">
        <ele>233.2</ele>
        <time>2022-06-29T16:33:10.117Z</time>
    </trkpt>
    <trkpt lat="56.554886" lon="60.852968">
        <ele>233.2</ele>
        <time>2022-06-29T16:33:11.117Z</time>
    </trkpt>
    <trkpt lat="56.554906" lon="60.852917">
        <ele>233.2</ele>
        <time>2022-06-29T16:33:12.117Z</time>
    </trkpt>
    <trkpt lat="56.554911" lon="60.852895">
        <ele>233.2</ele>
        <time>2022-06-29T16:33:13.117Z</time>
    </trkpt>
    <trkpt lat="56.554923" lon="60.852839">
        <ele>233.2</ele>
        <time>2022-06-29T16:33:14.117Z</time>
    </trkpt>
    <trkpt lat="56.554934" lon="60.852791">
        <ele>233.2</ele>
        <time>2022-06-29T16:33:15.117Z</time>
    </trkpt>
    <trkpt lat="56.554935" lon="60.852767">
        <ele>233.2</ele>
        <time>2022-06-29T16:33:16.117Z</time>
    </trkpt>
    <trkpt lat="56.554942" lon="60.852726">
        <ele>233.2</ele>
        <time>2022-06-29T16:33:17.117Z</time>
    </trkpt>
    <trkpt lat="56.554958" lon="60.85266">
        <ele>233.2</ele>
        <time>2022-06-29T16:33:18.117Z</time>
    </trkpt>
    <trkpt lat="56.554962" lon="60.852642">
        <ele>233.2</ele>
        <time>2022-06-29T16:33:19.117Z</time>
    </trkpt>
    <trkpt lat="56.554968" lon="60.852589">
        <ele>233.2</ele>
        <time>2022-06-29T16:33:20.117Z</time>
    </trkpt>
    <trkpt lat="56.554977" lon="60.852537">
        <ele>232.2</ele>
        <time>2022-06-29T16:33:21.117Z</time>
    </trkpt>
    <trkpt lat="56.55498" lon="60.852517">
        <ele>232.2</ele>
        <time>2022-06-29T16:33:22.117Z</time>
    </trkpt>
    <trkpt lat="56.554986" lon="60.852473">
        <ele>232.2</ele>
        <time>2022-06-29T16:33:23.117Z</time>
    </trkpt>
    <trkpt lat="56.555001" lon="60.85241">
        <ele>232.2</ele>
        <time>2022-06-29T16:33:24.117Z</time>
    </trkpt>
    <trkpt lat="56.555004" lon="60.852387">
        <ele>232.2</ele>
        <time>2022-06-29T16:33:25.117Z</time>
    </trkpt>
    <trkpt lat="56.55501" lon="60.852339">
        <ele>232.2</ele>
        <time>2022-06-29T16:33:26.117Z</time>
    </trkpt>
    <trkpt lat="56.555017" lon="60.852304">
        <ele>232.2</ele>
        <time>2022-06-29T16:33:27.117Z</time>
    </trkpt>
    <trkpt lat="56.55503" lon="60.852237">
        <ele>231.2</ele>
        <time>2022-06-29T16:33:28.117Z</time>
    </trkpt>
    <trkpt lat="56.555031" lon="60.852183">
        <ele>231.2</ele>
        <time>2022-06-29T16:33:29.117Z</time>
    </trkpt>
    <trkpt lat="56.555034" lon="60.852167">
        <ele>231.2</ele>
        <time>2022-06-29T16:33:30.117Z</time>
    </trkpt>
    <trkpt lat="56.555042" lon="60.852121">
        <ele>231.2</ele>
        <time>2022-06-29T16:33:31.117Z</time>
    </trkpt>
    <trkpt lat="56.555053" lon="60.852068">
        <ele>231.2</ele>
        <time>2022-06-29T16:33:32.117Z</time>
    </trkpt>
    <trkpt lat="56.555057" lon="60.852051">
        <ele>231.2</ele>
        <time>2022-06-29T16:33:33.117Z</time>
    </trkpt>
    <trkpt lat="56.555066" lon="60.852006">
        <ele>231.2</ele>
        <time>2022-06-29T16:33:34.117Z</time>
    </trkpt>
    <trkpt lat="56.555075" lon="60.851949">
        <ele>231.2</ele>
        <time>2022-06-29T16:33:35.117Z</time>
    </trkpt>
    <trkpt lat="56.555079" lon="60.851932">
        <ele>231.2</ele>
        <time>2022-06-29T16:33:36.117Z</time>
    </trkpt>
    <trkpt lat="56.55509" lon="60.851879">
        <ele>230.2</ele>
        <time>2022-06-29T16:33:37.117Z</time>
    </trkpt>
    <trkpt lat="56.555097" lon="60.851859">
        <ele>230.2</ele>
        <time>2022-06-29T16:33:38.117Z</time>
    </trkpt>
    <trkpt lat="56.555109" lon="60.85182">
        <ele>230.2</ele>
        <time>2022-06-29T16:33:39.117Z</time>
    </trkpt>
    <trkpt lat="56.555115" lon="60.851787">
        <ele>230.2</ele>
        <time>2022-06-29T16:33:40.117Z</time>
    </trkpt>
    <trkpt lat="56.555124" lon="60.851731">
        <ele>230.2</ele>
        <time>2022-06-29T16:33:41.117Z</time>
    </trkpt>
    <trkpt lat="56.555129" lon="60.851695">
        <ele>230.2</ele>
        <time>2022-06-29T16:33:42.117Z</time>
    </trkpt>
    <trkpt lat="56.555141" lon="60.851631">
        <ele>231.2</ele>
        <time>2022-06-29T16:33:43.117Z</time>
    </trkpt>
    <trkpt lat="56.555152" lon="60.851585">
        <ele>231.2</ele>
        <time>2022-06-29T16:33:44.117Z</time>
    </trkpt>
    <trkpt lat="56.555161" lon="60.851538">
        <ele>231.2</ele>
        <time>2022-06-29T16:33:45.117Z</time>
    </trkpt>
    <trkpt lat="56.555163" lon="60.851526">
        <ele>231.2</ele>
        <time>2022-06-29T16:33:46.117Z</time>
    </trkpt>
    <trkpt lat="56.55517" lon="60.85149">
        <ele>231.2</ele>
        <time>2022-06-29T16:33:47.117Z</time>
    </trkpt>
    <trkpt lat="56.555182" lon="60.851437">
        <ele>231.2</ele>
        <time>2022-06-29T16:33:48.117Z</time>
    </trkpt>
    <trkpt lat="56.555189" lon="60.851378">
        <ele>230.2</ele>
        <time>2022-06-29T16:33:49.117Z</time>
    </trkpt>
    <trkpt lat="56.555193" lon="60.851364">
        <ele>230.2</ele>
        <time>2022-06-29T16:33:50.117Z</time>
    </trkpt>
    <trkpt lat="56.555204" lon="60.851305">
        <ele>230.2</ele>
        <time>2022-06-29T16:33:51.117Z</time>
    </trkpt>
    <trkpt lat="56.555206" lon="60.851288">
        <ele>230.2</ele>
        <time>2022-06-29T16:33:52.117Z</time>
    </trkpt>
    <trkpt lat="56.555215" lon="60.851236">
        <ele>230.2</ele>
        <time>2022-06-29T16:33:53.117Z</time>
    </trkpt>
    <trkpt lat="56.555226" lon="60.851199">
        <ele>230.2</ele>
        <time>2022-06-29T16:33:54.117Z</time>
    </trkpt>
    <trkpt lat="56.555231" lon="60.851179">
        <ele>230.2</ele>
        <time>2022-06-29T16:33:55.117Z</time>
    </trkpt>
    <trkpt lat="56.555237" lon="60.851152">
        <ele>230.2</ele>
        <time>2022-06-29T16:33:56.117Z</time>
    </trkpt>
    <trkpt lat="56.555245" lon="60.851111">
        <ele>230.2</ele>
        <time>2022-06-29T16:33:57.117Z</time>
    </trkpt>
    <trkpt lat="56.55525" lon="60.851081">
        <ele>230.2</ele>
        <time>2022-06-29T16:33:58.117Z</time>
    </trkpt>
    <trkpt lat="56.555258" lon="60.851018">
        <ele>230.2</ele>
        <time>2022-06-29T16:33:59.117Z</time>
    </trkpt>
    <trkpt lat="56.555266" lon="60.850995">
        <ele>230.2</ele>
        <time>2022-06-29T16:34:00.117Z</time>
    </trkpt>
    <trkpt lat="56.555283" lon="60.850929">
        <ele>230.2</ele>
        <time>2022-06-29T16:34:01.117Z</time>
    </trkpt>
    <trkpt lat="56.555288" lon="60.850916">
        <ele>230.2</ele>
        <time>2022-06-29T16:34:02.117Z</time>
    </trkpt>
    <trkpt lat="56.555293" lon="60.850855">
        <ele>230.2</ele>
        <time>2022-06-29T16:34:03.117Z</time>
    </trkpt>
    <trkpt lat="56.555296" lon="60.850833">
        <ele>230.2</ele>
        <time>2022-06-29T16:34:04.117Z</time>
    </trkpt>
    <trkpt lat="56.555304" lon="60.850795">
        <ele>230.2</ele>
        <time>2022-06-29T16:34:05.117Z</time>
    </trkpt>
    <trkpt lat="56.55531" lon="60.85077">
        <ele>230.2</ele>
        <time>2022-06-29T16:34:06.117Z</time>
    </trkpt>
    <trkpt lat="56.555322" lon="60.850705">
        <ele>230.2</ele>
        <time>2022-06-29T16:34:07.117Z</time>
    </trkpt>
    <trkpt lat="56.555333" lon="60.850639">
        <ele>230.2</ele>
        <time>2022-06-29T16:34:08.117Z</time>
    </trkpt>
    <trkpt lat="56.555344" lon="60.850613">
        <ele>230.2</ele>
        <time>2022-06-29T16:34:09.117Z</time>
    </trkpt>
    <trkpt lat="56.555362" lon="60.850555">
        <ele>230.2</ele>
        <time>2022-06-29T16:34:10.117Z</time>
    </trkpt>
    <trkpt lat="56.555364" lon="60.850534">
        <ele>230.2</ele>
        <time>2022-06-29T16:34:11.117Z</time>
    </trkpt>
    <trkpt lat="56.555372" lon="60.850486">
        <ele>230.2</ele>
        <time>2022-06-29T16:34:12.117Z</time>
    </trkpt>
    <trkpt lat="56.555381" lon="60.850447">
        <ele>230.2</ele>
        <time>2022-06-29T16:34:13.117Z</time>
    </trkpt>
    <trkpt lat="56.555399" lon="60.850365">
        <ele>230.2</ele>
        <time>2022-06-29T16:34:14.117Z</time>
    </trkpt>
    <trkpt lat="56.555404" lon="60.850337">
        <ele>230.2</ele>
        <time>2022-06-29T16:34:15.117Z</time>
    </trkpt>
    <trkpt lat="56.555416" lon="60.850277">
        <ele>230.2</ele>
        <time>2022-06-29T16:34:16.117Z</time>
    </trkpt>
    <trkpt lat="56.555422" lon="60.850247">
        <ele>230.2</ele>
        <time>2022-06-29T16:34:17.117Z</time>
    </trkpt>
    <trkpt lat="56.555433" lon="60.850178">
        <ele>230.2</ele>
        <time>2022-06-29T16:34:18.117Z</time>
    </trkpt>
    <trkpt lat="56.555446" lon="60.85013">
        <ele>230.2</ele>
        <time>2022-06-29T16:34:19.117Z</time>
    </trkpt>
    <trkpt lat="56.55545" lon="60.850108">
        <ele>230.2</ele>
        <time>2022-06-29T16:34:20.117Z</time>
    </trkpt>
    <trkpt lat="56.555461" lon="60.850052">
        <ele>230.2</ele>
        <time>2022-06-29T16:34:21.117Z</time>
    </trkpt>
    <trkpt lat="56.555469" lon="60.849996">
        <ele>230.2</ele>
        <time>2022-06-29T16:34:22.117Z</time>
    </trkpt>
    <trkpt lat="56.555472" lon="60.849971">
        <ele>230.2</ele>
        <time>2022-06-29T16:34:23.117Z</time>
    </trkpt>
    <trkpt lat="56.555478" lon="60.849927">
        <ele>230.2</ele>
        <time>2022-06-29T16:34:24.117Z</time>
    </trkpt>
    <trkpt lat="56.555493" lon="60.849857">
        <ele>230.2</ele>
        <time>2022-06-29T16:34:25.117Z</time>
    </trkpt>
    <trkpt lat="56.555494" lon="60.849838">
        <ele>230.2</ele>
        <time>2022-06-29T16:34:26.117Z</time>
    </trkpt>
    <trkpt lat="56.555509" lon="60.849782">
        <ele>230.2</ele>
        <time>2022-06-29T16:34:27.117Z</time>
    </trkpt>
    <trkpt lat="56.555511" lon="60.849758">
        <ele>229.2</ele>
        <time>2022-06-29T16:34:28.117Z</time>
    </trkpt>
    <trkpt lat="56.555513" lon="60.849714">
        <ele>229.2</ele>
        <time>2022-06-29T16:34:29.117Z</time>
    </trkpt>
    <trkpt lat="56.555518" lon="60.84969">
        <ele>229.2</ele>
        <time>2022-06-29T16:34:30.117Z</time>
    </trkpt>
    <trkpt lat="56.555536" lon="60.849624">
        <ele>229.2</ele>
        <time>2022-06-29T16:34:31.117Z</time>
    </trkpt>
    <trkpt lat="56.55554" lon="60.849606">
        <ele>229.2</ele>
        <time>2022-06-29T16:34:32.117Z</time>
    </trkpt>
    <trkpt lat="56.55555" lon="60.849541">
        <ele>229.2</ele>
        <time>2022-06-29T16:34:33.117Z</time>
    </trkpt>
    <trkpt lat="56.555562" lon="60.849485">
        <ele>229.2</ele>
        <time>2022-06-29T16:34:34.117Z</time>
    </trkpt>
    <trkpt lat="56.55557" lon="60.849435">
        <ele>229.2</ele>
        <time>2022-06-29T16:34:35.117Z</time>
    </trkpt>
    <trkpt lat="56.55558" lon="60.849379">
        <ele>229.2</ele>
        <time>2022-06-29T16:34:36.117Z</time>
    </trkpt>
    <trkpt lat="56.555592" lon="60.849328">
        <ele>229.2</ele>
        <time>2022-06-29T16:34:37.117Z</time>
    </trkpt>
    <trkpt lat="56.555602" lon="60.849261">
        <ele>230.2</ele>
        <time>2022-06-29T16:34:38.117Z</time>
    </trkpt>
    <trkpt lat="56.555618" lon="60.849193">
        <ele>230.2</ele>
        <time>2022-06-29T16:34:39.117Z</time>
    </trkpt>
    <trkpt lat="56.555634" lon="60.84915">
        <ele>230.2</ele>
        <time>2022-06-29T16:34:40.117Z</time>
    </trkpt>
    <trkpt lat="56.555633" lon="60.849128">
        <ele>230.2</ele>
        <time>2022-06-29T16:34:41.117Z</time>
    </trkpt>
    <trkpt lat="56.555644" lon="60.849066">
        <ele>230.2</ele>
        <time>2022-06-29T16:34:42.117Z</time>
    </trkpt>
    <trkpt lat="56.555644" lon="60.849043">
        <ele>230.2</ele>
        <time>2022-06-29T16:34:43.117Z</time>
    </trkpt>
    <trkpt lat="56.555645" lon="60.848996">
        <ele>230.2</ele>
        <time>2022-06-29T16:34:44.117Z</time>
    </trkpt>
    <trkpt lat="56.555654" lon="60.848952">
        <ele>230.2</ele>
        <time>2022-06-29T16:34:45.117Z</time>
    </trkpt>
    <trkpt lat="56.555664" lon="60.848879">
        <ele>230.2</ele>
        <time>2022-06-29T16:34:46.117Z</time>
    </trkpt>
    <trkpt lat="56.55567" lon="60.848842">
        <ele>230.2</ele>
        <time>2022-06-29T16:34:47.117Z</time>
    </trkpt>
    <trkpt lat="56.555681" lon="60.848776">
        <ele>230.2</ele>
        <time>2022-06-29T16:34:48.117Z</time>
    </trkpt>
    <trkpt lat="56.555694" lon="60.848698">
        <ele>230.2</ele>
        <time>2022-06-29T16:34:49.117Z</time>
    </trkpt>
    <trkpt lat="56.555707" lon="60.848639">
        <ele>230.2</ele>
        <time>2022-06-29T16:34:50.117Z</time>
    </trkpt>
    <trkpt lat="56.555717" lon="60.848591">
        <ele>230.2</ele>
        <time>2022-06-29T16:34:51.117Z</time>
    </trkpt>
    <trkpt lat="56.555725" lon="60.848561">
        <ele>230.2</ele>
        <time>2022-06-29T16:34:52.117Z</time>
    </trkpt>
    <trkpt lat="56.555741" lon="60.84849">
        <ele>230.2</ele>
        <time>2022-06-29T16:34:53.117Z</time>
    </trkpt>
    <trkpt lat="56.555739" lon="60.848432">
        <ele>231.2</ele>
        <time>2022-06-29T16:34:54.117Z</time>
    </trkpt>
    <trkpt lat="56.555744" lon="60.848406">
        <ele>231.2</ele>
        <time>2022-06-29T16:34:55.117Z</time>
    </trkpt>
    <trkpt lat="56.555752" lon="60.848359">
        <ele>231.2</ele>
        <time>2022-06-29T16:34:56.117Z</time>
    </trkpt>
    <trkpt lat="56.555757" lon="60.848324">
        <ele>231.2</ele>
        <time>2022-06-29T16:34:57.117Z</time>
    </trkpt>
    <trkpt lat="56.555763" lon="60.848263">
        <ele>231.2</ele>
        <time>2022-06-29T16:34:58.117Z</time>
    </trkpt>
    <trkpt lat="56.555768" lon="60.848236">
        <ele>231.2</ele>
        <time>2022-06-29T16:34:59.117Z</time>
    </trkpt>
    <trkpt lat="56.555774" lon="60.848196">
        <ele>231.2</ele>
        <time>2022-06-29T16:35:00.117Z</time>
    </trkpt>
    <trkpt lat="56.555777" lon="60.848146">
        <ele>231.2</ele>
        <time>2022-06-29T16:35:01.117Z</time>
    </trkpt>
    <trkpt lat="56.555794" lon="60.848068">
        <ele>231.2</ele>
        <time>2022-06-29T16:35:02.117Z</time>
    </trkpt>
    <trkpt lat="56.555798" lon="60.848046">
        <ele>231.2</ele>
        <time>2022-06-29T16:35:03.117Z</time>
    </trkpt>
    <trkpt lat="56.555804" lon="60.847985">
        <ele>231.2</ele>
        <time>2022-06-29T16:35:04.117Z</time>
    </trkpt>
    <trkpt lat="56.55581" lon="60.847964">
        <ele>231.2</ele>
        <time>2022-06-29T16:35:05.117Z</time>
    </trkpt>
    <trkpt lat="56.555822" lon="60.847913">
        <ele>232.2</ele>
        <time>2022-06-29T16:35:06.117Z</time>
    </trkpt>
    <trkpt lat="56.555822" lon="60.847888">
        <ele>232.2</ele>
        <time>2022-06-29T16:35:07.117Z</time>
    </trkpt>
    <trkpt lat="56.555824" lon="60.847843">
        <ele>232.2</ele>
        <time>2022-06-29T16:35:08.117Z</time>
    </trkpt>
    <trkpt lat="56.555831" lon="60.847795">
        <ele>232.2</ele>
        <time>2022-06-29T16:35:09.117Z</time>
    </trkpt>
    <trkpt lat="56.555845" lon="60.847738">
        <ele>232.2</ele>
        <time>2022-06-29T16:35:10.117Z</time>
    </trkpt>
    <trkpt lat="56.555846" lon="60.847685">
        <ele>232.2</ele>
        <time>2022-06-29T16:35:11.117Z</time>
    </trkpt>
    <trkpt lat="56.555849" lon="60.847662">
        <ele>232.2</ele>
        <time>2022-06-29T16:35:12.117Z</time>
    </trkpt>
    <trkpt lat="56.555859" lon="60.847597">
        <ele>233.2</ele>
        <time>2022-06-29T16:35:13.117Z</time>
    </trkpt>
    <trkpt lat="56.555862" lon="60.847574">
        <ele>233.2</ele>
        <time>2022-06-29T16:35:14.117Z</time>
    </trkpt>
    <trkpt lat="56.555873" lon="60.847506">
        <ele>233.2</ele>
        <time>2022-06-29T16:35:15.117Z</time>
    </trkpt>
    <trkpt lat="56.555885" lon="60.847451">
        <ele>233.2</ele>
        <time>2022-06-29T16:35:16.117Z</time>
    </trkpt>
    <trkpt lat="56.55589" lon="60.847395">
        <ele>234.2</ele>
        <time>2022-06-29T16:35:17.117Z</time>
    </trkpt>
    <trkpt lat="56.555895" lon="60.847346">
        <ele>234.2</ele>
        <time>2022-06-29T16:35:18.117Z</time>
    </trkpt>
    <trkpt lat="56.555901" lon="60.84732">
        <ele>234.2</ele>
        <time>2022-06-29T16:35:19.117Z</time>
    </trkpt>
    <trkpt lat="56.555915" lon="60.847248">
        <ele>234.2</ele>
        <time>2022-06-29T16:35:20.117Z</time>
    </trkpt>
    <trkpt lat="56.555926" lon="60.847204">
        <ele>234.2</ele>
        <time>2022-06-29T16:35:21.117Z</time>
    </trkpt>
    <trkpt lat="56.555938" lon="60.847151">
        <ele>234.2</ele>
        <time>2022-06-29T16:35:22.117Z</time>
    </trkpt>
    <trkpt lat="56.555942" lon="60.847094">
        <ele>234.2</ele>
        <time>2022-06-29T16:35:23.117Z</time>
    </trkpt>
    <trkpt lat="56.555946" lon="60.847045">
        <ele>236.2</ele>
        <time>2022-06-29T16:35:24.117Z</time>
    </trkpt>
    <trkpt lat="56.55595" lon="60.846993">
        <ele>236.2</ele>
        <time>2022-06-29T16:35:25.117Z</time>
    </trkpt>
    <trkpt lat="56.555955" lon="60.846944">
        <ele>236.2</ele>
        <time>2022-06-29T16:35:26.117Z</time>
    </trkpt>
    <trkpt lat="56.555959" lon="60.846886">
        <ele>237.2</ele>
        <time>2022-06-29T16:35:27.117Z</time>
    </trkpt>
    <trkpt lat="56.55596" lon="60.846829">
        <ele>237.2</ele>
        <time>2022-06-29T16:35:28.117Z</time>
    </trkpt>
    <trkpt lat="56.555964" lon="60.846771">
        <ele>237.2</ele>
        <time>2022-06-29T16:35:29.117Z</time>
    </trkpt>
    <trkpt lat="56.555967" lon="60.846714">
        <ele>238.2</ele>
        <time>2022-06-29T16:35:30.117Z</time>
    </trkpt>
    <trkpt lat="56.555971" lon="60.846647">
        <ele>238.2</ele>
        <time>2022-06-29T16:35:31.117Z</time>
    </trkpt>
    <trkpt lat="56.555978" lon="60.846587">
        <ele>238.2</ele>
        <time>2022-06-29T16:35:32.117Z</time>
    </trkpt>
    <trkpt lat="56.555981" lon="60.846533">
        <ele>238.2</ele>
        <time>2022-06-29T16:35:33.117Z</time>
    </trkpt>
    <trkpt lat="56.555988" lon="60.846483">
        <ele>237.2</ele>
        <time>2022-06-29T16:35:34.117Z</time>
    </trkpt>
    <trkpt lat="56.55599" lon="60.84646">
        <ele>237.2</ele>
        <time>2022-06-29T16:35:35.117Z</time>
    </trkpt>
    <trkpt lat="56.555994" lon="60.846389">
        <ele>238.2</ele>
        <time>2022-06-29T16:35:36.117Z</time>
    </trkpt>
    <trkpt lat="56.556004" lon="60.846336">
        <ele>238.2</ele>
        <time>2022-06-29T16:35:37.117Z</time>
    </trkpt>
    <trkpt lat="56.556016" lon="60.846278">
        <ele>238.2</ele>
        <time>2022-06-29T16:35:38.117Z</time>
    </trkpt>
    <trkpt lat="56.55602" lon="60.846228">
        <ele>238.2</ele>
        <time>2022-06-29T16:35:39.117Z</time>
    </trkpt>
    <trkpt lat="56.556024" lon="60.846206">
        <ele>238.2</ele>
        <time>2022-06-29T16:35:40.117Z</time>
    </trkpt>
    <trkpt lat="56.556041" lon="60.846143">
        <ele>238.2</ele>
        <time>2022-06-29T16:35:41.117Z</time>
    </trkpt>
    <trkpt lat="56.556043" lon="60.846124">
        <ele>238.2</ele>
        <time>2022-06-29T16:35:42.117Z</time>
    </trkpt>
    <trkpt lat="56.556049" lon="60.846068">
        <ele>238.2</ele>
        <time>2022-06-29T16:35:43.117Z</time>
    </trkpt>
    <trkpt lat="56.556051" lon="60.846036">
        <ele>237.2</ele>
        <time>2022-06-29T16:35:44.117Z</time>
    </trkpt>
    <trkpt lat="56.556049" lon="60.846009">
        <ele>237.2</ele>
        <time>2022-06-29T16:35:45.117Z</time>
    </trkpt>
    <trkpt lat="56.556054" lon="60.845993">
        <ele>237.2</ele>
        <time>2022-06-29T16:35:46.117Z</time>
    </trkpt>
    <trkpt lat="56.55606" lon="60.845978">
        <ele>237.2</ele>
        <time>2022-06-29T16:35:47.117Z</time>
    </trkpt>
    <trkpt lat="56.556064" lon="60.845937">
        <ele>237.2</ele>
        <time>2022-06-29T16:35:48.117Z</time>
    </trkpt>
    <trkpt lat="56.556068" lon="60.84592">
        <ele>237.2</ele>
        <time>2022-06-29T16:35:49.117Z</time>
    </trkpt>
    <trkpt lat="56.556074" lon="60.84587">
        <ele>237.2</ele>
        <time>2022-06-29T16:35:50.117Z</time>
    </trkpt>
    <trkpt lat="56.556077" lon="60.845849">
        <ele>236.2</ele>
        <time>2022-06-29T16:35:51.117Z</time>
    </trkpt>
    <trkpt lat="56.556076" lon="60.845795">
        <ele>237.2</ele>
        <time>2022-06-29T16:35:52.117Z</time>
    </trkpt>
    <trkpt lat="56.556079" lon="60.845774">
        <ele>236.2</ele>
        <time>2022-06-29T16:35:53.117Z</time>
    </trkpt>
    <trkpt lat="56.55609" lon="60.845713">
        <ele>236.2</ele>
        <time>2022-06-29T16:35:54.117Z</time>
    </trkpt>
    <trkpt lat="56.556091" lon="60.845689">
        <ele>236.2</ele>
        <time>2022-06-29T16:35:55.117Z</time>
    </trkpt>
    <trkpt lat="56.556093" lon="60.845624">
        <ele>236.2</ele>
        <time>2022-06-29T16:35:56.117Z</time>
    </trkpt>
    <trkpt lat="56.556094" lon="60.845605">
        <ele>236.2</ele>
        <time>2022-06-29T16:35:57.117Z</time>
    </trkpt>
    <trkpt lat="56.5561" lon="60.845554">
        <ele>236.2</ele>
        <time>2022-06-29T16:35:58.117Z</time>
    </trkpt>
    <trkpt lat="56.556101" lon="60.845526">
        <ele>235.2</ele>
        <time>2022-06-29T16:35:59.117Z</time>
    </trkpt>
    <trkpt lat="56.556114" lon="60.845506">
        <ele>235.2</ele>
        <time>2022-06-29T16:36:00.117Z</time>
    </trkpt>
    <trkpt lat="56.55612" lon="60.845447">
        <ele>235.2</ele>
        <time>2022-06-29T16:36:08.117Z</time>
    </trkpt>
    <trkpt lat="56.556119" lon="60.845446">
        <ele>235.2</ele>
        <time>2022-06-29T16:36:09.117Z</time>
    </trkpt>
    <trkpt lat="56.556122" lon="60.84545">
        <ele>235.2</ele>
        <time>2022-06-29T16:36:10.117Z</time>
    </trkpt>
    <trkpt lat="56.556122" lon="60.845451">
        <ele>235.2</ele>
        <time>2022-06-29T16:36:11.117Z</time>
    </trkpt>
    <trkpt lat="56.556123" lon="60.845455">
        <ele>235.2</ele>
        <time>2022-06-29T16:36:12.117Z</time>
    </trkpt>
    <trkpt lat="56.55612" lon="60.845456">
        <ele>235.2</ele>
        <time>2022-06-29T16:36:13.117Z</time>
    </trkpt>
    <trkpt lat="56.556121" lon="60.845453">
        <ele>235.2</ele>
        <time>2022-06-29T16:36:14.117Z</time>
    </trkpt>
    <trkpt lat="56.556123" lon="60.845453">
        <ele>235.2</ele>
        <time>2022-06-29T16:36:15.117Z</time>
    </trkpt>
    <trkpt lat="56.556121" lon="60.845454">
        <ele>235.2</ele>
        <time>2022-06-29T16:36:16.117Z</time>
    </trkpt>
    <trkpt lat="56.55612" lon="60.845458">
        <ele>235.2</ele>
        <time>2022-06-29T16:36:17.117Z</time>
    </trkpt>
    <trkpt lat="56.556133" lon="60.845455">
        <ele>235.2</ele>
        <time>2022-06-29T16:36:18.117Z</time>
    </trkpt>
    <trkpt lat="56.55614" lon="60.845447">
        <ele>235.2</ele>
        <time>2022-06-29T16:36:19.117Z</time>
    </trkpt>
    <trkpt lat="56.556153" lon="60.845436">
        <ele>235.2</ele>
        <time>2022-06-29T16:36:20.117Z</time>
    </trkpt>
    <trkpt lat="56.55616198858263" lon="60.84542682596075">
        <ele>235.2</ele>
        <time>2022-06-29T16:36:20.617Z</time>
    </trkpt>
    <trkpt lat="56.556166" lon="60.845422">
        <ele>235.2</ele>
        <time>2022-06-29T16:36:21.117Z</time>
    </trkpt>
    <trkpt lat="56.556181" lon="60.845361">
        <ele>234.2</ele>
        <time>2022-06-29T16:39:19.117Z</time>
    </trkpt>
    <trkpt lat="56.55618" lon="60.845364">
        <ele>234.2</ele>
        <time>2022-06-29T16:39:20.117Z</time>
    </trkpt>
    <trkpt lat="56.556179" lon="60.845366">
        <ele>234.2</ele>
        <time>2022-06-29T16:39:21.117Z</time>
    </trkpt>
    <trkpt lat="56.55618" lon="60.845365">
        <ele>234.2</ele>
        <time>2022-06-29T16:39:22.117Z</time>
    </trkpt>
    <trkpt lat="56.55618" lon="60.845365">
        <ele>234.2</ele>
        <time>2022-06-29T16:39:23.117Z</time>
    </trkpt>
    <trkpt lat="56.556181" lon="60.845364">
        <ele>234.2</ele>
        <time>2022-06-29T16:39:24.117Z</time>
    </trkpt>
    <trkpt lat="56.556181" lon="60.845359">
        <ele>234.2</ele>
        <time>2022-06-29T16:39:25.117Z</time>
    </trkpt>
    <trkpt lat="56.556185" lon="60.845357">
        <ele>234.2</ele>
        <time>2022-06-29T16:39:26.117Z</time>
    </trkpt>
    <trkpt lat="56.55594399999998" lon="60.845041">
        <ele>235.5</ele>
        <time>2022-06-29T16:40:18.411Z</time>
    </trkpt>
    <trkpt lat="56.555937" lon="60.844992">
        <ele>236.0</ele>
        <time>2022-06-29T16:40:19.476Z</time>
    </trkpt>
    <trkpt lat="56.555928" lon="60.844986">
        <ele>236.0</ele>
        <time>2022-06-29T16:40:20.476Z</time>
    </trkpt>
    <trkpt lat="56.555894" lon="60.844965">
        <ele>235.9</ele>
        <time>2022-06-29T16:40:21.476Z</time>
    </trkpt>
    <trkpt lat="56.555878203079615" lon="60.844944035452656">
        <ele>235.9</ele>
        <time>2022-06-29T16:40:21.976Z</time>
    </trkpt>
    <trkpt lat="56.555863" lon="60.844925">
        <ele>236.0</ele>
        <time>2022-06-29T16:40:22.476Z</time>
    </trkpt>
    <trkpt lat="56.555836" lon="60.844889">
        <ele>235.9</ele>
        <time>2022-06-29T16:40:23.476Z</time>
    </trkpt>
    <trkpt lat="56.555809" lon="60.844863">
        <ele>235.9</ele>
        <time>2022-06-29T16:40:24.476Z</time>
    </trkpt>
    <trkpt lat="56.555777" lon="60.844835">
        <ele>235.9</ele>
        <time>2022-06-29T16:40:25.476Z</time>
    </trkpt>
    <trkpt lat="56.555748" lon="60.844801">
        <ele>235.9</ele>
        <time>2022-06-29T16:40:26.476Z</time>
    </trkpt>
    <trkpt lat="56.555712" lon="60.844763">
        <ele>236.1</ele>
        <time>2022-06-29T16:40:27.476Z</time>
    </trkpt>
    <trkpt lat="56.555681" lon="60.844729">
        <ele>236.1</ele>
        <time>2022-06-29T16:40:28.476Z</time>
    </trkpt>
    <trkpt lat="56.555648" lon="60.844694">
        <ele>235.9</ele>
        <time>2022-06-29T16:40:29.476Z</time>
    </trkpt>
    <trkpt lat="56.555627" lon="60.844657">
        <ele>236.0</ele>
        <time>2022-06-29T16:40:30.476Z</time>
    </trkpt>
    <trkpt lat="56.555614" lon="60.844639">
        <ele>236.1</ele>
        <time>2022-06-29T16:40:31.476Z</time>
    </trkpt>
    <trkpt lat="56.555581" lon="60.84459">
        <ele>236.6</ele>
        <time>2022-06-29T16:40:32.476Z</time>
    </trkpt>
    <trkpt lat="56.555557" lon="60.844558">
        <ele>236.9</ele>
        <time>2022-06-29T16:40:33.476Z</time>
    </trkpt>
    <trkpt lat="56.555528" lon="60.844526">
        <ele>237.1</ele>
        <time>2022-06-29T16:40:34.476Z</time>
    </trkpt>
    <trkpt lat="56.555515" lon="60.844508">
        <ele>237.0</ele>
        <time>2022-06-29T16:40:35.476Z</time>
    </trkpt>
    <trkpt lat="56.555483" lon="60.844466">
        <ele>236.9</ele>
        <time>2022-06-29T16:40:36.476Z</time>
    </trkpt>
    <trkpt lat="56.555463" lon="60.844431">
        <ele>236.9</ele>
        <time>2022-06-29T16:40:37.476Z</time>
    </trkpt>
    <trkpt lat="56.555459" lon="60.844401">
        <ele>237.1</ele>
        <time>2022-06-29T16:40:54.476Z</time>
    </trkpt>
    <trkpt lat="56.55546" lon="60.844399">
        <ele>237.1</ele>
        <time>2022-06-29T16:40:55.476Z</time>
    </trkpt>
    <trkpt lat="56.555459" lon="60.844401">
        <ele>237.1</ele>
        <time>2022-06-29T16:40:56.476Z</time>
    </trkpt>
    <trkpt lat="56.555456" lon="60.844388">
        <ele>237.3</ele>
        <time>2022-06-29T16:40:57.476Z</time>
    </trkpt>
    <trkpt lat="56.555456" lon="60.844396">
        <ele>237.1</ele>
        <time>2022-06-29T16:40:58.476Z</time>
    </trkpt>
    <trkpt lat="56.555456" lon="60.844401">
        <ele>237.1</ele>
        <time>2022-06-29T16:40:59.476Z</time>
    </trkpt>
    <trkpt lat="56.555457" lon="60.844401">
        <ele>237.1</ele>
        <time>2022-06-29T16:41:00.476Z</time>
    </trkpt>
    <trkpt lat="56.555458" lon="60.8444">
        <ele>237.1</ele>
        <time>2022-06-29T16:41:01.476Z</time>
    </trkpt>
    <trkpt lat="56.555458" lon="60.844404">
        <ele>237.1</ele>
        <time>2022-06-29T16:41:02.476Z</time>
    </trkpt>
    <trkpt lat="56.555459" lon="60.844413">
        <ele>237.1</ele>
        <time>2022-06-29T16:41:03.476Z</time>
    </trkpt>
    <trkpt lat="56.555448" lon="60.84441">
        <ele>237.1</ele>
        <time>2022-06-29T16:41:04.476Z</time>
    </trkpt>
    <trkpt lat="56.555443" lon="60.844389">
        <ele>237.1</ele>
        <time>2022-06-29T16:41:05.476Z</time>
    </trkpt>
    <trkpt lat="56.555438" lon="60.844377">
        <ele>237.6</ele>
        <time>2022-06-29T16:41:06.476Z</time>
    </trkpt>
    <trkpt lat="56.555417" lon="60.844341">
        <ele>237.9</ele>
        <time>2022-06-29T16:41:07.476Z</time>
    </trkpt>
    <trkpt lat="56.5554" lon="60.844324">
        <ele>238.2</ele>
        <time>2022-06-29T16:41:08.476Z</time>
    </trkpt>
    <trkpt lat="56.555392" lon="60.844304">
        <ele>238.2</ele>
        <time>2022-06-29T16:41:09.476Z</time>
    </trkpt>
    <trkpt lat="56.555384" lon="60.844293">
        <ele>238.7</ele>
        <time>2022-06-29T16:41:10.476Z</time>
    </trkpt>
    <trkpt lat="56.555361" lon="60.844263">
        <ele>238.9</ele>
        <time>2022-06-29T16:41:11.476Z</time>
    </trkpt>
    <trkpt lat="56.55535" lon="60.844253">
        <ele>239.2</ele>
        <time>2022-06-29T16:41:12.476Z</time>
    </trkpt>
    <trkpt lat="56.555337" lon="60.844235">
        <ele>239.5</ele>
        <time>2022-06-29T16:41:13.476Z</time>
    </trkpt>
    <trkpt lat="56.555219" lon="60.843979">
        <ele>242.4</ele>
        <time>2022-06-29T16:42:03.476Z</time>
    </trkpt>
    <trkpt lat="56.555218" lon="60.843957">
        <ele>242.9</ele>
        <time>2022-06-29T16:42:04.476Z</time>
    </trkpt>
    <trkpt lat="56.555208" lon="60.843949">
        <ele>242.9</ele>
        <time>2022-06-29T16:42:05.476Z</time>
    </trkpt>
    <trkpt lat="56.555189" lon="60.843922">
        <ele>243.3</ele>
        <time>2022-06-29T16:42:06.476Z</time>
    </trkpt>
    <trkpt lat="56.555189" lon="60.843922">
        <ele>243.3</ele>
        <time>2022-06-29T16:42:07.476Z</time>
    </trkpt>
    <trkpt lat="56.555183" lon="60.84391">
        <ele>243.9</ele>
        <time>2022-06-29T16:42:08.476Z</time>
    </trkpt>
    <trkpt lat="56.555177" lon="60.843897">
        <ele>244.3</ele>
        <time>2022-06-29T16:42:09.476Z</time>
    </trkpt>
    <trkpt lat="56.555172" lon="60.843885">
        <ele>244.3</ele>
        <time>2022-06-29T16:42:10.476Z</time>
    </trkpt>
    <trkpt lat="56.555166" lon="60.843872">
        <ele>244.9</ele>
        <time>2022-06-29T16:42:11.476Z</time>
    </trkpt>
    <trkpt lat="56.55516" lon="60.843847">
        <ele>244.9</ele>
        <time>2022-06-29T16:42:12.476Z</time>
    </trkpt>
    <trkpt lat="56.555151" lon="60.843842">
        <ele>245.2</ele>
        <time>2022-06-29T16:42:13.476Z</time>
    </trkpt>
    <trkpt lat="56.55512" lon="60.843819">
        <ele>245.8</ele>
        <time>2022-06-29T16:42:14.476Z</time>
    </trkpt>
    <trkpt lat="56.555096" lon="60.843786">
        <ele>246.5</ele>
        <time>2022-06-29T16:42:15.476Z</time>
    </trkpt>
    <trkpt lat="56.555062" lon="60.84375">
        <ele>246.8</ele>
        <time>2022-06-29T16:42:16.476Z</time>
    </trkpt>
    <trkpt lat="56.55505" lon="60.843736">
        <ele>247.9</ele>
        <time>2022-06-29T16:42:17.476Z</time>
    </trkpt>
    <trkpt lat="56.555014" lon="60.843706">
        <ele>248.5</ele>
        <time>2022-06-29T16:42:18.476Z</time>
    </trkpt>
    <trkpt lat="56.55499" lon="60.843682">
        <ele>249.6</ele>
        <time>2022-06-29T16:42:19.476Z</time>
    </trkpt>
    <trkpt lat="56.554979" lon="60.843669">
        <ele>249.9</ele>
        <time>2022-06-29T16:42:20.476Z</time>
    </trkpt>
    <trkpt lat="56.554951" lon="60.843637">
        <ele>250.7</ele>
        <time>2022-06-29T16:42:21.476Z</time>
    </trkpt>
    <trkpt lat="56.554937" lon="60.843624">
        <ele>250.8</ele>
        <time>2022-06-29T16:42:22.476Z</time>
    </trkpt>
    <trkpt lat="56.554904" lon="60.843588">
        <ele>251.5</ele>
        <time>2022-06-29T16:42:23.476Z</time>
    </trkpt>
    <trkpt lat="56.554875" lon="60.843566">
        <ele>252.2</ele>
        <time>2022-06-29T16:42:24.476Z</time>
    </trkpt>
    <trkpt lat="56.554862" lon="60.843555">
        <ele>252.2</ele>
        <time>2022-06-29T16:42:25.476Z</time>
    </trkpt>
    <trkpt lat="56.554823" lon="60.84353">
        <ele>252.2</ele>
        <time>2022-06-29T16:42:26.476Z</time>
    </trkpt>
    <trkpt lat="56.554812" lon="60.843521">
        <ele>252.7</ele>
        <time>2022-06-29T16:42:27.476Z</time>
    </trkpt>
    <trkpt lat="56.554783" lon="60.843512">
        <ele>252.7</ele>
        <time>2022-06-29T16:42:28.476Z</time>
    </trkpt>
    <trkpt lat="56.554771" lon="60.843509">
        <ele>252.7</ele>
        <time>2022-06-29T16:42:29.476Z</time>
    </trkpt>
    <trkpt lat="56.554735" lon="60.843491">
        <ele>252.7</ele>
        <time>2022-06-29T16:42:30.476Z</time>
    </trkpt>
    <trkpt lat="56.554702" lon="60.843482">
        <ele>253.2</ele>
        <time>2022-06-29T16:42:31.476Z</time>
    </trkpt>
    <trkpt lat="56.554689" lon="60.843482">
        <ele>253.2</ele>
        <time>2022-06-29T16:42:32.476Z</time>
    </trkpt>
    <trkpt lat="56.554659" lon="60.843477">
        <ele>253.3</ele>
        <time>2022-06-29T16:42:33.476Z</time>
    </trkpt>
    <trkpt lat="56.554628" lon="60.843475">
        <ele>253.3</ele>
        <time>2022-06-29T16:42:34.476Z</time>
    </trkpt>
    <trkpt lat="56.554593" lon="60.843474">
        <ele>253.2</ele>
        <time>2022-06-29T16:42:35.476Z</time>
    </trkpt>
    <trkpt lat="56.554554" lon="60.843452">
        <ele>252.8</ele>
        <time>2022-06-29T16:42:36.476Z</time>
    </trkpt>
    <trkpt lat="56.554519" lon="60.843426">
        <ele>252.9</ele>
        <time>2022-06-29T16:42:37.476Z</time>
    </trkpt>
    <trkpt lat="56.55447" lon="60.843406">
        <ele>252.6</ele>
        <time>2022-06-29T16:42:38.476Z</time>
    </trkpt>
    <trkpt lat="56.554443" lon="60.843395">
        <ele>253.0</ele>
        <time>2022-06-29T16:42:39.476Z</time>
    </trkpt>
    <trkpt lat="56.554425" lon="60.843391">
        <ele>253.0</ele>
        <time>2022-06-29T16:42:40.476Z</time>
    </trkpt>
    <trkpt lat="56.554389" lon="60.843379">
        <ele>253.2</ele>
        <time>2022-06-29T16:42:41.476Z</time>
    </trkpt>
    <trkpt lat="56.554371" lon="60.843373">
        <ele>253.2</ele>
        <time>2022-06-29T16:42:42.476Z</time>
    </trkpt>
    <trkpt lat="56.554329" lon="60.843352">
        <ele>253.5</ele>
        <time>2022-06-29T16:42:43.476Z</time>
    </trkpt>
    <trkpt lat="56.554312" lon="60.843348">
        <ele>253.4</ele>
        <time>2022-06-29T16:42:44.476Z</time>
    </trkpt>
    <trkpt lat="56.554277" lon="60.843336">
        <ele>252.9</ele>
        <time>2022-06-29T16:42:45.476Z</time>
    </trkpt>
    <trkpt lat="56.554264" lon="60.843339">
        <ele>252.9</ele>
        <time>2022-06-29T16:42:46.476Z</time>
    </trkpt>
    <trkpt lat="56.554236" lon="60.843336">
        <ele>252.7</ele>
        <time>2022-06-29T16:42:47.476Z</time>
    </trkpt>
    <trkpt lat="56.554214" lon="60.843324">
        <ele>252.6</ele>
        <time>2022-06-29T16:42:48.476Z</time>
    </trkpt>
    <trkpt lat="56.554174" lon="60.843307">
        <ele>253.2</ele>
        <time>2022-06-29T16:42:49.476Z</time>
    </trkpt>
    <trkpt lat="56.554134" lon="60.843268">
        <ele>253.6</ele>
        <time>2022-06-29T16:42:50.476Z</time>
    </trkpt>
    <trkpt lat="56.554106" lon="60.843246">
        <ele>253.4</ele>
        <time>2022-06-29T16:42:51.476Z</time>
    </trkpt>
    <trkpt lat="56.554091" lon="60.843234">
        <ele>253.4</ele>
        <time>2022-06-29T16:42:52.476Z</time>
    </trkpt>
    <trkpt lat="56.554064" lon="60.8432">
        <ele>253.3</ele>
        <time>2022-06-29T16:42:53.476Z</time>
    </trkpt>
    <trkpt lat="56.554049" lon="60.843199">
        <ele>253.3</ele>
        <time>2022-06-29T16:42:54.476Z</time>
    </trkpt>
    <trkpt lat="56.554027" lon="60.843198">
        <ele>253.1</ele>
        <time>2022-06-29T16:42:55.476Z</time>
    </trkpt>
    <trkpt lat="56.554008" lon="60.843197">
        <ele>253.0</ele>
        <time>2022-06-29T16:42:56.476Z</time>
    </trkpt>
    <trkpt lat="56.553963" lon="60.843186">
        <ele>253.5</ele>
        <time>2022-06-29T16:42:57.476Z</time>
    </trkpt>
    <trkpt lat="56.553951" lon="60.843185">
        <ele>253.5</ele>
        <time>2022-06-29T16:42:58.476Z</time>
    </trkpt>
    <trkpt lat="56.553922" lon="60.843187">
        <ele>253.1</ele>
        <time>2022-06-29T16:42:59.476Z</time>
    </trkpt>
    <trkpt lat="56.55391" lon="60.843186">
        <ele>253.7</ele>
        <time>2022-06-29T16:43:00.476Z</time>
    </trkpt>
    <trkpt lat="56.553871" lon="60.843182">
        <ele>253.7</ele>
        <time>2022-06-29T16:43:01.476Z</time>
    </trkpt>
    <trkpt lat="56.553854" lon="60.843179">
        <ele>253.7</ele>
        <time>2022-06-29T16:43:02.476Z</time>
    </trkpt>
    <trkpt lat="56.553815" lon="60.843164">
        <ele>253.6</ele>
        <time>2022-06-29T16:43:03.476Z</time>
    </trkpt>
    <trkpt lat="56.5538" lon="60.84316">
        <ele>253.5</ele>
        <time>2022-06-29T16:43:04.476Z</time>
    </trkpt>
    <trkpt lat="56.553772" lon="60.84315">
        <ele>253.4</ele>
        <time>2022-06-29T16:43:05.476Z</time>
    </trkpt>
    <trkpt lat="56.553748" lon="60.843137">
        <ele>253.5</ele>
        <time>2022-06-29T16:43:06.476Z</time>
    </trkpt>
    <trkpt lat="56.553717" lon="60.843102">
        <ele>253.4</ele>
        <time>2022-06-29T16:43:07.476Z</time>
    </trkpt>
    <trkpt lat="56.553666" lon="60.843088">
        <ele>253.7</ele>
        <time>2022-06-29T16:43:08.476Z</time>
    </trkpt>
    <trkpt lat="56.553656" lon="60.843087">
        <ele>253.7</ele>
        <time>2022-06-29T16:43:09.476Z</time>
    </trkpt>
    <trkpt lat="56.553625" lon="60.843077">
        <ele>253.8</ele>
        <time>2022-06-29T16:43:10.476Z</time>
    </trkpt>
    <trkpt lat="56.553597" lon="60.84306">
        <ele>253.8</ele>
        <time>2022-06-29T16:43:11.476Z</time>
    </trkpt>
    <trkpt lat="56.553583" lon="60.84305">
        <ele>254.1</ele>
        <time>2022-06-29T16:43:12.476Z</time>
    </trkpt>
    <trkpt lat="56.553547" lon="60.843028">
        <ele>254.0</ele>
        <time>2022-06-29T16:43:13.476Z</time>
    </trkpt>
    <trkpt lat="56.553533" lon="60.84302">
        <ele>254.0</ele>
        <time>2022-06-29T16:43:14.476Z</time>
    </trkpt>
    <trkpt lat="56.553504" lon="60.84299">
        <ele>254.2</ele>
        <time>2022-06-29T16:43:15.476Z</time>
    </trkpt>
    <trkpt lat="56.553466" lon="60.842975">
        <ele>254.4</ele>
        <time>2022-06-29T16:43:16.476Z</time>
    </trkpt>
    <trkpt lat="56.553446" lon="60.842968">
        <ele>254.9</ele>
        <time>2022-06-29T16:43:17.476Z</time>
    </trkpt>
    <trkpt lat="56.553435" lon="60.842963">
        <ele>254.9</ele>
        <time>2022-06-29T16:43:18.476Z</time>
    </trkpt>
    <trkpt lat="56.553421" lon="60.842964">
        <ele>255.5</ele>
        <time>2022-06-29T16:43:19.476Z</time>
    </trkpt>
    <trkpt lat="56.553407" lon="60.842964">
        <ele>255.5</ele>
        <time>2022-06-29T16:43:20.476Z</time>
    </trkpt>
    <trkpt lat="56.553389" lon="60.842964">
        <ele>255.7</ele>
        <time>2022-06-29T16:43:21.476Z</time>
    </trkpt>
    <trkpt lat="56.553373" lon="60.842958">
        <ele>255.8</ele>
        <time>2022-06-29T16:43:22.476Z</time>
    </trkpt>
    <trkpt lat="56.553341" lon="60.842945">
        <ele>255.8</ele>
        <time>2022-06-29T16:43:23.476Z</time>
    </trkpt>
    <trkpt lat="56.553328" lon="60.842939">
        <ele>255.8</ele>
        <time>2022-06-29T16:43:24.476Z</time>
    </trkpt>
    <trkpt lat="56.553298" lon="60.842923">
        <ele>255.9</ele>
        <time>2022-06-29T16:43:25.476Z</time>
    </trkpt>
    <trkpt lat="56.553277" lon="60.842915">
        <ele>255.9</ele>
        <time>2022-06-29T16:43:26.476Z</time>
    </trkpt>
    <trkpt lat="56.553237" lon="60.842895">
        <ele>255.8</ele>
        <time>2022-06-29T16:43:27.476Z</time>
    </trkpt>
    <trkpt lat="56.553219" lon="60.842886">
        <ele>255.8</ele>
        <time>2022-06-29T16:43:28.476Z</time>
    </trkpt>
    <trkpt lat="56.553178" lon="60.842861">
        <ele>256.1</ele>
        <time>2022-06-29T16:43:29.476Z</time>
    </trkpt>
    <trkpt lat="56.553156" lon="60.842843">
        <ele>256.1</ele>
        <time>2022-06-29T16:43:30.476Z</time>
    </trkpt>
    <trkpt lat="56.553113" lon="60.842808">
        <ele>256.1</ele>
        <time>2022-06-29T16:43:31.476Z</time>
    </trkpt>
    <trkpt lat="56.553093" lon="60.842781">
        <ele>255.9</ele>
        <time>2022-06-29T16:43:32.476Z</time>
    </trkpt>
    <trkpt lat="56.553055" lon="60.842721">
        <ele>255.9</ele>
        <time>2022-06-29T16:43:33.476Z</time>
    </trkpt>
    <trkpt lat="56.553037" lon="60.842723">
        <ele>255.8</ele>
        <time>2022-06-29T16:43:34.476Z</time>
    </trkpt>
    <trkpt lat="56.553005" lon="60.842725">
        <ele>255.7</ele>
        <time>2022-06-29T16:43:35.476Z</time>
    </trkpt>
    <trkpt lat="56.552974" lon="60.842733">
        <ele>255.8</ele>
        <time>2022-06-29T16:43:36.476Z</time>
    </trkpt>
    <trkpt lat="56.552948" lon="60.842719">
        <ele>255.8</ele>
        <time>2022-06-29T16:43:37.476Z</time>
    </trkpt>
    <trkpt lat="56.552932" lon="60.842711">
        <ele>256.0</ele>
        <time>2022-06-29T16:43:38.476Z</time>
    </trkpt>
    <trkpt lat="56.552901" lon="60.84269">
        <ele>256.1</ele>
        <time>2022-06-29T16:43:39.476Z</time>
    </trkpt>
    <trkpt lat="56.552868" lon="60.842691">
        <ele>256.1</ele>
        <time>2022-06-29T16:43:40.476Z</time>
    </trkpt>
    <trkpt lat="56.552838" lon="60.842686">
        <ele>256.1</ele>
        <time>2022-06-29T16:43:41.476Z</time>
    </trkpt>
    <trkpt lat="56.55282" lon="60.842688">
        <ele>256.1</ele>
        <time>2022-06-29T16:43:42.476Z</time>
    </trkpt>
    <trkpt lat="56.552791" lon="60.842677">
        <ele>255.9</ele>
        <time>2022-06-29T16:43:43.476Z</time>
    </trkpt>
    <trkpt lat="56.552771" lon="60.842684">
        <ele>255.6</ele>
        <time>2022-06-29T16:43:44.476Z</time>
    </trkpt>
    <trkpt lat="56.552732" lon="60.842702">
        <ele>255.0</ele>
        <time>2022-06-29T16:43:45.476Z</time>
    </trkpt>
    <trkpt lat="56.552725" lon="60.842703">
        <ele>255.0</ele>
        <time>2022-06-29T16:43:46.476Z</time>
    </trkpt>
    <trkpt lat="56.552717" lon="60.842704">
        <ele>254.9</ele>
        <time>2022-06-29T16:43:47.476Z</time>
    </trkpt>
    <trkpt lat="56.552694" lon="60.84272">
        <ele>254.9</ele>
        <time>2022-06-29T16:43:48.476Z</time>
    </trkpt>
    <trkpt lat="56.552687" lon="60.842728">
        <ele>254.9</ele>
        <time>2022-06-29T16:43:49.476Z</time>
    </trkpt>
    <trkpt lat="56.552667" lon="60.842729">
        <ele>254.9</ele>
        <time>2022-06-29T16:43:50.476Z</time>
    </trkpt>
    <trkpt lat="56.55265" lon="60.842737">
        <ele>254.9</ele>
        <time>2022-06-29T16:43:51.476Z</time>
    </trkpt>
    <trkpt lat="56.552635" lon="60.842731">
        <ele>254.9</ele>
        <time>2022-06-29T16:43:52.476Z</time>
    </trkpt>
    <trkpt lat="56.552628" lon="60.842737">
        <ele>254.9</ele>
        <time>2022-06-29T16:43:53.476Z</time>
    </trkpt>
    <trkpt lat="56.552595" lon="60.842738">
        <ele>254.6</ele>
        <time>2022-06-29T16:43:54.476Z</time>
    </trkpt>
    <trkpt lat="56.552583" lon="60.842731">
        <ele>254.6</ele>
        <time>2022-06-29T16:43:55.476Z</time>
    </trkpt>
    <trkpt lat="56.552551" lon="60.84271">
        <ele>254.1</ele>
        <time>2022-06-29T16:43:56.476Z</time>
    </trkpt>
    <trkpt lat="56.552541" lon="60.842701">
        <ele>254.1</ele>
        <time>2022-06-29T16:43:57.476Z</time>
    </trkpt>
    <trkpt lat="56.552509" lon="60.842675">
        <ele>253.8</ele>
        <time>2022-06-29T16:43:58.476Z</time>
    </trkpt>
    <trkpt lat="56.552477" lon="60.842649">
        <ele>253.4</ele>
        <time>2022-06-29T16:43:59.476Z</time>
    </trkpt>
    <trkpt lat="56.552447" lon="60.842633">
        <ele>253.3</ele>
        <time>2022-06-29T16:44:00.476Z</time>
    </trkpt>
    <trkpt lat="56.552437" lon="60.842622">
        <ele>253.6</ele>
        <time>2022-06-29T16:44:01.476Z</time>
    </trkpt>
    <trkpt lat="56.552406" lon="60.842589">
        <ele>253.4</ele>
        <time>2022-06-29T16:44:02.476Z</time>
    </trkpt>
    <trkpt lat="56.552375" lon="60.842565">
        <ele>253.4</ele>
        <time>2022-06-29T16:44:03.476Z</time>
    </trkpt>
    <trkpt lat="56.552349" lon="60.842546">
        <ele>253.1</ele>
        <time>2022-06-29T16:44:04.476Z</time>
    </trkpt>
    <trkpt lat="56.552319" lon="60.842525">
        <ele>252.8</ele>
        <time>2022-06-29T16:44:05.476Z</time>
    </trkpt>
    <trkpt lat="56.552309" lon="60.842512">
        <ele>252.4</ele>
        <time>2022-06-29T16:44:06.476Z</time>
    </trkpt>
    <trkpt lat="56.552278" lon="60.84249">
        <ele>252.2</ele>
        <time>2022-06-29T16:44:07.476Z</time>
    </trkpt>
    <trkpt lat="56.552265" lon="60.842476">
        <ele>252.0</ele>
        <time>2022-06-29T16:44:08.476Z</time>
    </trkpt>
    <trkpt lat="56.552233" lon="60.84244">
        <ele>251.9</ele>
        <time>2022-06-29T16:44:09.476Z</time>
    </trkpt>
    <trkpt lat="56.552198" lon="60.842426">
        <ele>251.8</ele>
        <time>2022-06-29T16:44:10.476Z</time>
    </trkpt>
    <trkpt lat="56.552186" lon="60.842418">
        <ele>251.9</ele>
        <time>2022-06-29T16:44:11.476Z</time>
    </trkpt>
    <trkpt lat="56.552162" lon="60.842389">
        <ele>251.9</ele>
        <time>2022-06-29T16:44:12.476Z</time>
    </trkpt>
    <trkpt lat="56.552146" lon="60.842399">
        <ele>252.0</ele>
        <time>2022-06-29T16:44:13.476Z</time>
    </trkpt>
    <trkpt lat="56.552131" lon="60.842405">
        <ele>252.0</ele>
        <time>2022-06-29T16:44:14.476Z</time>
    </trkpt>
    <trkpt lat="56.552103" lon="60.842399">
        <ele>252.0</ele>
        <time>2022-06-29T16:44:15.476Z</time>
    </trkpt>
    <trkpt lat="56.552074" lon="60.842384">
        <ele>251.9</ele>
        <time>2022-06-29T16:44:16.476Z</time>
    </trkpt>
    <trkpt lat="56.552062" lon="60.842371">
        <ele>251.9</ele>
        <time>2022-06-29T16:44:17.476Z</time>
    </trkpt>
    <trkpt lat="56.552051" lon="60.842368">
        <ele>251.9</ele>
        <time>2022-06-29T16:44:18.476Z</time>
    </trkpt>
    <trkpt lat="56.552048" lon="60.842365">
        <ele>251.9</ele>
        <time>2022-06-29T16:44:19.476Z</time>
    </trkpt>
    <trkpt lat="56.552031" lon="60.842362">
        <ele>251.6</ele>
        <time>2022-06-29T16:44:20.476Z</time>
    </trkpt>
    <trkpt lat="56.552017" lon="60.842343">
        <ele>251.6</ele>
        <time>2022-06-29T16:44:21.476Z</time>
    </trkpt>
    <trkpt lat="56.552007" lon="60.842333">
        <ele>251.3</ele>
        <time>2022-06-29T16:44:22.476Z</time>
    </trkpt>
    <trkpt lat="56.551974" lon="60.842321">
        <ele>251.3</ele>
        <time>2022-06-29T16:44:23.476Z</time>
    </trkpt>
    <trkpt lat="56.551963" lon="60.842323">
        <ele>251.3</ele>
        <time>2022-06-29T16:44:24.476Z</time>
    </trkpt>
    <trkpt lat="56.551952" lon="60.842325">
        <ele>251.2</ele>
        <time>2022-06-29T16:44:25.476Z</time>
    </trkpt>
    <trkpt lat="56.551941" lon="60.842327">
        <ele>251.2</ele>
        <time>2022-06-29T16:44:26.476Z</time>
    </trkpt>
    <trkpt lat="56.55193" lon="60.842347">
        <ele>250.9</ele>
        <time>2022-06-29T16:44:27.476Z</time>
    </trkpt>
    <trkpt lat="56.55192" lon="60.84236">
        <ele>250.9</ele>
        <time>2022-06-29T16:44:28.476Z</time>
    </trkpt>
    <trkpt lat="56.551907" lon="60.842379">
        <ele>250.8</ele>
        <time>2022-06-29T16:44:29.476Z</time>
    </trkpt>
    <trkpt lat="56.551899" lon="60.842402">
        <ele>250.8</ele>
        <time>2022-06-29T16:44:30.476Z</time>
    </trkpt>
    <trkpt lat="56.551889" lon="60.842418">
        <ele>250.5</ele>
        <time>2022-06-29T16:44:31.476Z</time>
    </trkpt>
    <trkpt lat="56.55188" lon="60.842428">
        <ele>250.5</ele>
        <time>2022-06-29T16:44:32.476Z</time>
    </trkpt>
    <trkpt lat="56.551854" lon="60.842449">
        <ele>250.4</ele>
        <time>2022-06-29T16:44:33.476Z</time>
    </trkpt>
    <trkpt lat="56.551834" lon="60.842495">
        <ele>250.1</ele>
        <time>2022-06-29T16:44:34.476Z</time>
    </trkpt>
    <trkpt lat="56.551823" lon="60.842509">
        <ele>249.9</ele>
        <time>2022-06-29T16:44:35.476Z</time>
    </trkpt>
    <trkpt lat="56.551787" lon="60.842532">
        <ele>250.0</ele>
        <time>2022-06-29T16:44:36.476Z</time>
    </trkpt>
    <trkpt lat="56.551757" lon="60.842541">
        <ele>250.1</ele>
        <time>2022-06-29T16:44:37.476Z</time>
    </trkpt>
    <trkpt lat="56.551729" lon="60.84255">
        <ele>249.9</ele>
        <time>2022-06-29T16:44:38.476Z</time>
    </trkpt>
    <trkpt lat="56.55165" lon="60.842576">
        <ele>249.4</ele>
        <time>2022-06-29T16:44:51.476Z</time>
    </trkpt>
    <trkpt lat="56.55165" lon="60.842576">
        <ele>249.4</ele>
        <time>2022-06-29T16:44:52.476Z</time>
    </trkpt>
    <trkpt lat="56.551644" lon="60.842574">
        <ele>249.4</ele>
        <time>2022-06-29T16:44:53.476Z</time>
    </trkpt>
    <trkpt lat="56.55164" lon="60.842576">
        <ele>249.4</ele>
        <time>2022-06-29T16:44:54.476Z</time>
    </trkpt>
    <trkpt lat="56.551633" lon="60.842555">
        <ele>249.4</ele>
        <time>2022-06-29T16:44:55.476Z</time>
    </trkpt>
    <trkpt lat="56.551628" lon="60.842548">
        <ele>249.1</ele>
        <time>2022-06-29T16:44:56.476Z</time>
    </trkpt>
    <trkpt lat="56.551621" lon="60.842531">
        <ele>249.4</ele>
        <time>2022-06-29T16:44:57.476Z</time>
    </trkpt>
    <trkpt lat="56.551606" lon="60.842524">
        <ele>249.1</ele>
        <time>2022-06-29T16:44:58.476Z</time>
    </trkpt>
    <trkpt lat="56.551598" lon="60.842519">
        <ele>249.1</ele>
        <time>2022-06-29T16:44:59.476Z</time>
    </trkpt>
    <trkpt lat="56.551594" lon="60.842514">
        <ele>249.1</ele>
        <time>2022-06-29T16:45:00.476Z</time>
    </trkpt>
    <trkpt lat="56.551576" lon="60.842516">
        <ele>249.0</ele>
        <time>2022-06-29T16:45:01.476Z</time>
    </trkpt>
    <trkpt lat="56.551559" lon="60.84252">
        <ele>248.9</ele>
        <time>2022-06-29T16:45:02.476Z</time>
    </trkpt>
    <trkpt lat="56.551542" lon="60.842539">
        <ele>248.9</ele>
        <time>2022-06-29T16:45:03.476Z</time>
    </trkpt>
    <trkpt lat="56.551534" lon="60.842547">
        <ele>248.7</ele>
        <time>2022-06-29T16:45:04.476Z</time>
    </trkpt>
    <trkpt lat="56.551518" lon="60.84256">
        <ele>248.7</ele>
        <time>2022-06-29T16:45:05.476Z</time>
    </trkpt>
    <trkpt lat="56.551491" lon="60.842571">
        <ele>248.8</ele>
        <time>2022-06-29T16:45:06.476Z</time>
    </trkpt>
    <trkpt lat="56.551461" lon="60.842597">
        <ele>248.6</ele>
        <time>2022-06-29T16:45:07.476Z</time>
    </trkpt>
    <trkpt lat="56.551455" lon="60.842604">
        <ele>248.6</ele>
        <time>2022-06-29T16:45:08.476Z</time>
    </trkpt>
    <trkpt lat="56.551434" lon="60.842623">
        <ele>248.6</ele>
        <time>2022-06-29T16:45:09.476Z</time>
    </trkpt>
    <trkpt lat="56.551421" lon="60.842631">
        <ele>248.3</ele>
        <time>2022-06-29T16:45:10.476Z</time>
    </trkpt>
    <trkpt lat="56.551394" lon="60.842659">
        <ele>248.3</ele>
        <time>2022-06-29T16:45:11.476Z</time>
    </trkpt>
    <trkpt lat="56.551383" lon="60.842669">
        <ele>248.3</ele>
        <time>2022-06-29T16:45:12.476Z</time>
    </trkpt>
    <trkpt lat="56.551347" lon="60.842697">
        <ele>248.1</ele>
        <time>2022-06-29T16:45:13.476Z</time>
    </trkpt>
    <trkpt lat="56.551321" lon="60.84271">
        <ele>248.1</ele>
        <time>2022-06-29T16:45:14.476Z</time>
    </trkpt>
    <trkpt lat="56.551307" lon="60.842706">
        <ele>248.1</ele>
        <time>2022-06-29T16:45:15.476Z</time>
    </trkpt>
    <trkpt lat="56.551271" lon="60.842699">
        <ele>247.7</ele>
        <time>2022-06-29T16:45:16.476Z</time>
    </trkpt>
    <trkpt lat="56.551265" lon="60.842707">
        <ele>247.7</ele>
        <time>2022-06-29T16:45:17.476Z</time>
    </trkpt>
    <trkpt lat="56.551234" lon="60.842707">
        <ele>247.4</ele>
        <time>2022-06-29T16:45:18.476Z</time>
    </trkpt>
    <trkpt lat="56.551219" lon="60.842704">
        <ele>247.2</ele>
        <time>2022-06-29T16:45:19.476Z</time>
    </trkpt>
    <trkpt lat="56.55119" lon="60.842694">
        <ele>247.0</ele>
        <time>2022-06-29T16:45:20.476Z</time>
    </trkpt>
    <trkpt lat="56.551169" lon="60.842698">
        <ele>247.0</ele>
        <time>2022-06-29T16:45:21.476Z</time>
    </trkpt>
    <trkpt lat="56.551128" lon="60.842691">
        <ele>247.1</ele>
        <time>2022-06-29T16:45:22.476Z</time>
    </trkpt>
    <trkpt lat="56.551081" lon="60.842704">
        <ele>247.1</ele>
        <time>2022-06-29T16:45:23.476Z</time>
    </trkpt>
    <trkpt lat="56.551051" lon="60.842711">
        <ele>247.1</ele>
        <time>2022-06-29T16:45:24.476Z</time>
    </trkpt>
    <trkpt lat="56.551023" lon="60.842718">
        <ele>246.7</ele>
        <time>2022-06-29T16:45:25.476Z</time>
    </trkpt>
    <trkpt lat="56.551013" lon="60.842721">
        <ele>246.7</ele>
        <time>2022-06-29T16:45:26.476Z</time>
    </trkpt>
    <trkpt lat="56.550987" lon="60.84274">
        <ele>246.7</ele>
        <time>2022-06-29T16:45:27.476Z</time>
    </trkpt>
    <trkpt lat="56.550957" lon="60.842746">
        <ele>246.7</ele>
        <time>2022-06-29T16:45:28.476Z</time>
    </trkpt>
    <trkpt lat="56.550947" lon="60.842745">
        <ele>246.7</ele>
        <time>2022-06-29T16:45:29.476Z</time>
    </trkpt>
    <trkpt lat="56.550923" lon="60.842746">
        <ele>246.7</ele>
        <time>2022-06-29T16:45:30.476Z</time>
    </trkpt>
    <trkpt lat="56.550911" lon="60.842746">
        <ele>246.7</ele>
        <time>2022-06-29T16:45:31.476Z</time>
    </trkpt>
    <trkpt lat="56.550891" lon="60.842748">
        <ele>246.7</ele>
        <time>2022-06-29T16:45:32.476Z</time>
    </trkpt>
    <trkpt lat="56.550878" lon="60.842748">
        <ele>246.7</ele>
        <time>2022-06-29T16:45:33.476Z</time>
    </trkpt>
    <trkpt lat="56.550854" lon="60.842743">
        <ele>246.8</ele>
        <time>2022-06-29T16:45:34.476Z</time>
    </trkpt>
    <trkpt lat="56.550823" lon="60.842739">
        <ele>246.8</ele>
        <time>2022-06-29T16:45:35.476Z</time>
    </trkpt>
    <trkpt lat="56.550812" lon="60.842725">
        <ele>246.8</ele>
        <time>2022-06-29T16:45:36.476Z</time>
    </trkpt>
    <trkpt lat="56.550814" lon="60.842728">
        <ele>246.8</ele>
        <time>2022-06-29T16:45:37.476Z</time>
    </trkpt>
    <trkpt lat="56.55079" lon="60.842744">
        <ele>246.9</ele>
        <time>2022-06-29T16:45:38.476Z</time>
    </trkpt>
    <trkpt lat="56.550779" lon="60.84274">
        <ele>246.9</ele>
        <time>2022-06-29T16:45:39.476Z</time>
    </trkpt>
    <trkpt lat="56.550749" lon="60.842727">
        <ele>246.9</ele>
        <time>2022-06-29T16:45:40.476Z</time>
    </trkpt>
    <trkpt lat="56.550739" lon="60.842716">
        <ele>246.9</ele>
        <time>2022-06-29T16:45:41.476Z</time>
    </trkpt>
    <trkpt lat="56.550707" lon="60.842698">
        <ele>246.7</ele>
        <time>2022-06-29T16:45:42.476Z</time>
    </trkpt>
    <trkpt lat="56.550701" lon="60.8427">
        <ele>246.7</ele>
        <time>2022-06-29T16:45:43.476Z</time>
    </trkpt>
    <trkpt lat="56.550671" lon="60.842681">
        <ele>246.4</ele>
        <time>2022-06-29T16:45:44.476Z</time>
    </trkpt>
    <trkpt lat="56.550659" lon="60.842674">
        <ele>246.1</ele>
        <time>2022-06-29T16:45:45.476Z</time>
    </trkpt>
    <trkpt lat="56.55063" lon="60.842655">
        <ele>246.2</ele>
        <time>2022-06-29T16:45:46.476Z</time>
    </trkpt>
    <trkpt lat="56.55062" lon="60.842647">
        <ele>246.2</ele>
        <time>2022-06-29T16:45:47.476Z</time>
    </trkpt>
    <trkpt lat="56.550589" lon="60.842624">
        <ele>246.5</ele>
        <time>2022-06-29T16:45:48.476Z</time>
    </trkpt>
    <trkpt lat="56.550579" lon="60.84262">
        <ele>246.5</ele>
        <time>2022-06-29T16:45:49.476Z</time>
    </trkpt>
    <trkpt lat="56.55056" lon="60.842611">
        <ele>246.5</ele>
        <time>2022-06-29T16:45:50.476Z</time>
    </trkpt>
    <trkpt lat="56.550553" lon="60.842602">
        <ele>246.5</ele>
        <time>2022-06-29T16:45:51.476Z</time>
    </trkpt>
    <trkpt lat="56.550525" lon="60.842567">
        <ele>246.8</ele>
        <time>2022-06-29T16:45:52.476Z</time>
    </trkpt>
    <trkpt lat="56.550502" lon="60.842534">
        <ele>247.1</ele>
        <time>2022-06-29T16:45:53.476Z</time>
    </trkpt>
    <trkpt lat="56.550493" lon="60.842525">
        <ele>247.1</ele>
        <time>2022-06-29T16:45:54.476Z</time>
    </trkpt>
    <trkpt lat="56.550464" lon="60.842495">
        <ele>247.3</ele>
        <time>2022-06-29T16:45:55.476Z</time>
    </trkpt>
    <trkpt lat="56.550452" lon="60.842489">
        <ele>247.3</ele>
        <time>2022-06-29T16:45:56.476Z</time>
    </trkpt>
    <trkpt lat="56.55044" lon="60.842483">
        <ele>247.3</ele>
        <time>2022-06-29T16:45:57.476Z</time>
    </trkpt>
    <trkpt lat="56.550428" lon="60.842478">
        <ele>247.3</ele>
        <time>2022-06-29T16:45:58.476Z</time>
    </trkpt>
    <trkpt lat="56.550417" lon="60.842472">
        <ele>247.3</ele>
        <time>2022-06-29T16:45:59.476Z</time>
    </trkpt>
    <trkpt lat="56.550391" lon="60.842461">
        <ele>247.3</ele>
        <time>2022-06-29T16:46:00.476Z</time>
    </trkpt>
    <trkpt lat="56.550381" lon="60.842456">
        <ele>247.6</ele>
        <time>2022-06-29T16:46:01.476Z</time>
    </trkpt>
    <trkpt lat="56.550376" lon="60.842444">
        <ele>247.6</ele>
        <time>2022-06-29T16:46:02.476Z</time>
    </trkpt>
    <trkpt lat="56.55036" lon="60.842433">
        <ele>247.9</ele>
        <time>2022-06-29T16:46:46.353Z</time>
    </trkpt>
    <trkpt lat="56.550356356935815" lon="60.84229470510864">
        <ele>248.9</ele>
        <time>2022-06-29T16:50:02.057Z</time>
    </trkpt>
    <trkpt lat="56.550352713871284" lon="60.84215641021729">
        <ele>249.9</ele>
        <time>2022-06-29T16:53:17.761Z</time>
    </trkpt>
    <trkpt lat="56.550321856948216" lon="60.84221370510865">
        <ele>249.6</ele>
        <time>2022-06-29T16:55:10.988Z</time>
    </trkpt>
    <trkpt lat="56.550291" lon="60.84227099999999">
        <ele>249.6</ele>
        <time>2022-06-29T16:57:04.215Z</time>
    </trkpt>
    <trkpt lat="56.55027" lon="60.842258">
        <ele>249.9</ele>
        <time>2022-06-29T16:58:01.116Z</time>
    </trkpt>
    <trkpt lat="56.550249" lon="60.842246">
        <ele>249.9</ele>
        <time>2022-06-29T16:58:02.116Z</time>
    </trkpt>
    <trkpt lat="56.550228" lon="60.842233">
        <ele>249.9</ele>
        <time>2022-06-29T16:58:03.116Z</time>
    </trkpt>
    <trkpt lat="56.550207" lon="60.84222">
        <ele>250.9</ele>
        <time>2022-06-29T16:58:26.116Z</time>
    </trkpt>
    <trkpt lat="56.550186" lon="60.842208">
        <ele>250.9</ele>
        <time>2022-06-29T16:58:27.116Z</time>
    </trkpt>
    <trkpt lat="56.550157" lon="60.842184">
        <ele>250.9</ele>
        <time>2022-06-29T16:58:28.116Z</time>
    </trkpt>
    <trkpt lat="56.550149" lon="60.842177">
        <ele>250.9</ele>
        <time>2022-06-29T16:58:29.116Z</time>
    </trkpt>
    <trkpt lat="56.550141" lon="60.84217">
        <ele>250.9</ele>
        <time>2022-06-29T16:58:30.116Z</time>
    </trkpt>
    <trkpt lat="56.550132" lon="60.842162">
        <ele>250.9</ele>
        <time>2022-06-29T16:58:31.116Z</time>
    </trkpt>
    <trkpt lat="56.550118" lon="60.842143">
        <ele>250.9</ele>
        <time>2022-06-29T16:58:32.116Z</time>
    </trkpt>
    <trkpt lat="56.55011" lon="60.842138">
        <ele>250.9</ele>
        <time>2022-06-29T16:58:33.116Z</time>
    </trkpt>
    <trkpt lat="56.550107" lon="60.842127">
        <ele>250.9</ele>
        <time>2022-06-29T16:58:34.116Z</time>
    </trkpt>
    <trkpt lat="56.550107" lon="60.842126">
        <ele>250.9</ele>
        <time>2022-06-29T16:58:35.116Z</time>
    </trkpt>
    <trkpt lat="56.550094" lon="60.842121">
        <ele>250.9</ele>
        <time>2022-06-29T16:58:36.116Z</time>
    </trkpt>
    <trkpt lat="56.55008" lon="60.842125">
        <ele>250.9</ele>
        <time>2022-06-29T16:58:37.116Z</time>
    </trkpt>
    <trkpt lat="56.550046" lon="60.842126">
        <ele>250.9</ele>
        <time>2022-06-29T16:58:38.116Z</time>
    </trkpt>
    <trkpt lat="56.550033" lon="60.842123">
        <ele>250.9</ele>
        <time>2022-06-29T16:58:39.116Z</time>
    </trkpt>
    <trkpt lat="56.550002" lon="60.842105">
        <ele>252.9</ele>
        <time>2022-06-29T16:58:40.116Z</time>
    </trkpt>
    <trkpt lat="56.549991" lon="60.842101">
        <ele>252.9</ele>
        <time>2022-06-29T16:58:41.116Z</time>
    </trkpt>
    <trkpt lat="56.549964" lon="60.842081">
        <ele>252.9</ele>
        <time>2022-06-29T16:58:42.116Z</time>
    </trkpt>
    <trkpt lat="56.549954" lon="60.842073">
        <ele>252.9</ele>
        <time>2022-06-29T16:58:43.116Z</time>
    </trkpt>
    <trkpt lat="56.549929" lon="60.842042">
        <ele>252.9</ele>
        <time>2022-06-29T16:58:44.116Z</time>
    </trkpt>
    <trkpt lat="56.549916" lon="60.84204">
        <ele>252.9</ele>
        <time>2022-06-29T16:58:45.116Z</time>
    </trkpt>
    <trkpt lat="56.549902" lon="60.842037">
        <ele>252.9</ele>
        <time>2022-06-29T16:58:46.116Z</time>
    </trkpt>
    <trkpt lat="56.549879" lon="60.842029">
        <ele>252.9</ele>
        <time>2022-06-29T16:58:47.116Z</time>
    </trkpt>
    <trkpt lat="56.549858" lon="60.842025">
        <ele>252.9</ele>
        <time>2022-06-29T16:58:48.116Z</time>
    </trkpt>
    <trkpt lat="56.549851" lon="60.842026">
        <ele>252.9</ele>
        <time>2022-06-29T16:58:49.116Z</time>
    </trkpt>
    <trkpt lat="56.54984" lon="60.842023">
        <ele>252.9</ele>
        <time>2022-06-29T16:58:50.116Z</time>
    </trkpt>
    <trkpt lat="56.549811" lon="60.842009">
        <ele>252.9</ele>
        <time>2022-06-29T16:58:51.116Z</time>
    </trkpt>
    <trkpt lat="56.549797" lon="60.842005">
        <ele>252.9</ele>
        <time>2022-06-29T16:58:52.116Z</time>
    </trkpt>
    <trkpt lat="56.549766" lon="60.841997">
        <ele>252.9</ele>
        <time>2022-06-29T16:58:53.116Z</time>
    </trkpt>
    <trkpt lat="56.549761" lon="60.841995">
        <ele>252.9</ele>
        <time>2022-06-29T16:58:54.116Z</time>
    </trkpt>
    <trkpt lat="56.549732" lon="60.841971">
        <ele>253.9</ele>
        <time>2022-06-29T16:58:55.116Z</time>
    </trkpt>
    <trkpt lat="56.549723" lon="60.841966">
        <ele>253.9</ele>
        <time>2022-06-29T16:58:56.116Z</time>
    </trkpt>
    <trkpt lat="56.549692" lon="60.84194">
        <ele>254.9</ele>
        <time>2022-06-29T16:58:57.116Z</time>
    </trkpt>
    <trkpt lat="56.549681" lon="60.841934">
        <ele>254.9</ele>
        <time>2022-06-29T16:58:58.116Z</time>
    </trkpt>
    <trkpt lat="56.549652" lon="60.841915">
        <ele>254.9</ele>
        <time>2022-06-29T16:58:59.116Z</time>
    </trkpt>
    <trkpt lat="56.549625" lon="60.841904">
        <ele>254.9</ele>
        <time>2022-06-29T16:59:00.116Z</time>
    </trkpt>
    <trkpt lat="56.549594" lon="60.841894">
        <ele>254.9</ele>
        <time>2022-06-29T16:59:01.116Z</time>
    </trkpt>
    <trkpt lat="56.549583" lon="60.841884">
        <ele>254.9</ele>
        <time>2022-06-29T16:59:02.116Z</time>
    </trkpt>
    <trkpt lat="56.549557" lon="60.841866">
        <ele>254.9</ele>
        <time>2022-06-29T16:59:03.116Z</time>
    </trkpt>
    <trkpt lat="56.549525" lon="60.841855">
        <ele>254.9</ele>
        <time>2022-06-29T16:59:04.116Z</time>
    </trkpt>
    <trkpt lat="56.549501" lon="60.841841">
        <ele>254.9</ele>
        <time>2022-06-29T16:59:05.116Z</time>
    </trkpt>
    <trkpt lat="56.549493" lon="60.841838">
        <ele>254.9</ele>
        <time>2022-06-29T16:59:06.116Z</time>
    </trkpt>
    <trkpt lat="56.549466" lon="60.841821">
        <ele>254.9</ele>
        <time>2022-06-29T16:59:07.116Z</time>
    </trkpt>
    <trkpt lat="56.549454" lon="60.841817">
        <ele>254.9</ele>
        <time>2022-06-29T16:59:08.116Z</time>
    </trkpt>
    <trkpt lat="56.549423" lon="60.841805">
        <ele>254.9</ele>
        <time>2022-06-29T16:59:09.116Z</time>
    </trkpt>
    <trkpt lat="56.549411" lon="60.841806">
        <ele>254.9</ele>
        <time>2022-06-29T16:59:10.116Z</time>
    </trkpt>
    <trkpt lat="56.549381" lon="60.841809">
        <ele>254.9</ele>
        <time>2022-06-29T16:59:11.116Z</time>
    </trkpt>
    <trkpt lat="56.549376" lon="60.84181">
        <ele>254.9</ele>
        <time>2022-06-29T16:59:12.116Z</time>
    </trkpt>
    <trkpt lat="56.549346" lon="60.841822">
        <ele>254.9</ele>
        <time>2022-06-29T16:59:13.116Z</time>
    </trkpt>
    <trkpt lat="56.549332" lon="60.84183">
        <ele>254.9</ele>
        <time>2022-06-29T16:59:14.116Z</time>
    </trkpt>
    <trkpt lat="56.549315" lon="60.841816">
        <ele>254.9</ele>
        <time>2022-06-29T16:59:15.116Z</time>
    </trkpt>
    <trkpt lat="56.549302" lon="60.841812">
        <ele>254.9</ele>
        <time>2022-06-29T16:59:16.116Z</time>
    </trkpt>
    <trkpt lat="56.549282" lon="60.841816">
        <ele>254.9</ele>
        <time>2022-06-29T16:59:17.116Z</time>
    </trkpt>
    <trkpt lat="56.549266" lon="60.841815">
        <ele>254.9</ele>
        <time>2022-06-29T16:59:18.116Z</time>
    </trkpt>
    <trkpt lat="56.549252" lon="60.841822">
        <ele>254.9</ele>
        <time>2022-06-29T16:59:19.116Z</time>
    </trkpt>
    <trkpt lat="56.549233" lon="60.841824">
        <ele>254.9</ele>
        <time>2022-06-29T16:59:20.116Z</time>
    </trkpt>
    <trkpt lat="56.549219" lon="60.841822">
        <ele>254.9</ele>
        <time>2022-06-29T16:59:21.116Z</time>
    </trkpt>
    <trkpt lat="56.549202" lon="60.841821">
        <ele>254.9</ele>
        <time>2022-06-29T16:59:22.116Z</time>
    </trkpt>
    <trkpt lat="56.549188" lon="60.841823">
        <ele>254.9</ele>
        <time>2022-06-29T16:59:23.116Z</time>
    </trkpt>
    <trkpt lat="56.549177" lon="60.841823">
        <ele>254.9</ele>
        <time>2022-06-29T16:59:24.116Z</time>
    </trkpt>
    <trkpt lat="56.549165" lon="60.841834">
        <ele>254.9</ele>
        <time>2022-06-29T16:59:25.116Z</time>
    </trkpt>
    <trkpt lat="56.549155" lon="60.841836">
        <ele>254.9</ele>
        <time>2022-06-29T16:59:26.116Z</time>
    </trkpt>
    <trkpt lat="56.54915" lon="60.84184">
        <ele>254.9</ele>
        <time>2022-06-29T16:59:27.116Z</time>
    </trkpt>
    <trkpt lat="56.549119" lon="60.841849">
        <ele>254.9</ele>
        <time>2022-06-29T16:59:28.116Z</time>
    </trkpt>
    <trkpt lat="56.549099" lon="60.841852">
        <ele>254.9</ele>
        <time>2022-06-29T16:59:29.116Z</time>
    </trkpt>
    <trkpt lat="56.549085" lon="60.841847">
        <ele>254.9</ele>
        <time>2022-06-29T16:59:30.116Z</time>
    </trkpt>
    <trkpt lat="56.549077" lon="60.84185">
        <ele>254.9</ele>
        <time>2022-06-29T16:59:31.116Z</time>
    </trkpt>
    <trkpt lat="56.549068" lon="60.841853">
        <ele>254.9</ele>
        <time>2022-06-29T16:59:32.116Z</time>
    </trkpt>
    <trkpt lat="56.549049" lon="60.841861">
        <ele>254.9</ele>
        <time>2022-06-29T16:59:33.116Z</time>
    </trkpt>
    <trkpt lat="56.549022" lon="60.841851">
        <ele>254.9</ele>
        <time>2022-06-29T16:59:34.116Z</time>
    </trkpt>
    <trkpt lat="56.548994" lon="60.841843">
        <ele>254.9</ele>
        <time>2022-06-29T16:59:35.116Z</time>
    </trkpt>
    <trkpt lat="56.548969" lon="60.841815">
        <ele>254.9</ele>
        <time>2022-06-29T16:59:36.116Z</time>
    </trkpt>
    <trkpt lat="56.548961" lon="60.841806">
        <ele>254.9</ele>
        <time>2022-06-29T16:59:37.116Z</time>
    </trkpt>
    <trkpt lat="56.548953" lon="60.841797">
        <ele>254.9</ele>
        <time>2022-06-29T16:59:38.116Z</time>
    </trkpt>
    <trkpt lat="56.548936" lon="60.841773">
        <ele>254.9</ele>
        <time>2022-06-29T16:59:39.116Z</time>
    </trkpt>
    <trkpt lat="56.548909" lon="60.841781">
        <ele>254.9</ele>
        <time>2022-06-29T16:59:40.116Z</time>
    </trkpt>
    <trkpt lat="56.548894" lon="60.841781">
        <ele>254.9</ele>
        <time>2022-06-29T16:59:41.116Z</time>
    </trkpt>
    <trkpt lat="56.548882" lon="60.841784">
        <ele>253.9</ele>
        <time>2022-06-29T16:59:42.116Z</time>
    </trkpt>
    <trkpt lat="56.548874" lon="60.841784">
        <ele>253.9</ele>
        <time>2022-06-29T16:59:43.116Z</time>
    </trkpt>
    <trkpt lat="56.548865" lon="60.841777">
        <ele>253.9</ele>
        <time>2022-06-29T16:59:44.116Z</time>
    </trkpt>
    <trkpt lat="56.548855" lon="60.841759">
        <ele>255.9</ele>
        <time>2022-06-29T16:59:45.116Z</time>
    </trkpt>
    <trkpt lat="56.548844" lon="60.84175">
        <ele>255.9</ele>
        <time>2022-06-29T16:59:46.116Z</time>
    </trkpt>
    <trkpt lat="56.548835" lon="60.84174">
        <ele>255.9</ele>
        <time>2022-06-29T16:59:47.116Z</time>
    </trkpt>
    <trkpt lat="56.548811" lon="60.841718">
        <ele>255.9</ele>
        <time>2022-06-29T16:59:48.116Z</time>
    </trkpt>
    <trkpt lat="56.548802" lon="60.841717">
        <ele>255.9</ele>
        <time>2022-06-29T16:59:49.116Z</time>
    </trkpt>
    <trkpt lat="56.548776" lon="60.841698">
        <ele>254.9</ele>
        <time>2022-06-29T16:59:50.116Z</time>
    </trkpt>
    <trkpt lat="56.548761" lon="60.841695">
        <ele>254.9</ele>
        <time>2022-06-29T16:59:51.116Z</time>
    </trkpt>
    <trkpt lat="56.548747" lon="60.841694">
        <ele>254.9</ele>
        <time>2022-06-29T16:59:52.116Z</time>
    </trkpt>
    <trkpt lat="56.548733" lon="60.841698">
        <ele>254.9</ele>
        <time>2022-06-29T16:59:53.116Z</time>
    </trkpt>
    <trkpt lat="56.548711" lon="60.841696">
        <ele>254.9</ele>
        <time>2022-06-29T16:59:54.116Z</time>
    </trkpt>
    <trkpt lat="56.5487" lon="60.84169">
        <ele>254.9</ele>
        <time>2022-06-29T16:59:55.116Z</time>
    </trkpt>
    <trkpt lat="56.548668" lon="60.841675">
        <ele>254.9</ele>
        <time>2022-06-29T16:59:56.116Z</time>
    </trkpt>
    <trkpt lat="56.548659" lon="60.841674">
        <ele>254.9</ele>
        <time>2022-06-29T16:59:57.116Z</time>
    </trkpt>
    <trkpt lat="56.548632" lon="60.841665">
        <ele>254.9</ele>
        <time>2022-06-29T16:59:58.116Z</time>
    </trkpt>
    <trkpt lat="56.548614" lon="60.84162">
        <ele>254.9</ele>
        <time>2022-06-29T16:59:59.116Z</time>
    </trkpt>
    <trkpt lat="56.548599" lon="60.841602">
        <ele>254.9</ele>
        <time>2022-06-29T17:00:00.116Z</time>
    </trkpt>
    <trkpt lat="56.548563" lon="60.841587">
        <ele>255.9</ele>
        <time>2022-06-29T17:00:01.116Z</time>
    </trkpt>
    <trkpt lat="56.548553" lon="60.841582">
        <ele>255.9</ele>
        <time>2022-06-29T17:00:02.116Z</time>
    </trkpt>
    <trkpt lat="56.548522" lon="60.841556">
        <ele>255.9</ele>
        <time>2022-06-29T17:00:03.116Z</time>
    </trkpt>
    <trkpt lat="56.548504" lon="60.841546">
        <ele>255.9</ele>
        <time>2022-06-29T17:00:04.116Z</time>
    </trkpt>
    <trkpt lat="56.548487" lon="60.841561">
        <ele>255.9</ele>
        <time>2022-06-29T17:00:05.116Z</time>
    </trkpt>
    <trkpt lat="56.54848" lon="60.841557">
        <ele>255.9</ele>
        <time>2022-06-29T17:00:06.116Z</time>
    </trkpt>
    <trkpt lat="56.548448" lon="60.841543">
        <ele>255.9</ele>
        <time>2022-06-29T17:00:07.116Z</time>
    </trkpt>
    <trkpt lat="56.548432" lon="60.841532">
        <ele>255.9</ele>
        <time>2022-06-29T17:00:08.116Z</time>
    </trkpt>
    <trkpt lat="56.548394" lon="60.841506">
        <ele>254.9</ele>
        <time>2022-06-29T17:00:09.116Z</time>
    </trkpt>
    <trkpt lat="56.548388" lon="60.841502">
        <ele>254.9</ele>
        <time>2022-06-29T17:00:10.116Z</time>
    </trkpt>
    <trkpt lat="56.54836" lon="60.841478">
        <ele>254.9</ele>
        <time>2022-06-29T17:00:11.116Z</time>
    </trkpt>
    <trkpt lat="56.548353" lon="60.841472">
        <ele>254.9</ele>
        <time>2022-06-29T17:00:12.116Z</time>
    </trkpt>
    <trkpt lat="56.548321" lon="60.841465">
        <ele>254.9</ele>
        <time>2022-06-29T17:00:13.116Z</time>
    </trkpt>
    <trkpt lat="56.548301" lon="60.841462">
        <ele>254.9</ele>
        <time>2022-06-29T17:00:14.116Z</time>
    </trkpt>
    <trkpt lat="56.548288" lon="60.841452">
        <ele>254.9</ele>
        <time>2022-06-29T17:00:15.116Z</time>
    </trkpt>
    <trkpt lat="56.548276" lon="60.841446">
        <ele>254.9</ele>
        <time>2022-06-29T17:00:16.116Z</time>
    </trkpt>
    <trkpt lat="56.548238" lon="60.841435">
        <ele>254.9</ele>
        <time>2022-06-29T17:00:17.116Z</time>
    </trkpt>
    <trkpt lat="56.548225" lon="60.841434">
        <ele>254.9</ele>
        <time>2022-06-29T17:00:18.116Z</time>
    </trkpt>
    <trkpt lat="56.548191" lon="60.841436">
        <ele>254.9</ele>
        <time>2022-06-29T17:00:19.116Z</time>
    </trkpt>
    <trkpt lat="56.548175" lon="60.841433">
        <ele>254.9</ele>
        <time>2022-06-29T17:00:20.116Z</time>
    </trkpt>
    <trkpt lat="56.548145" lon="60.841422">
        <ele>254.9</ele>
        <time>2022-06-29T17:00:21.116Z</time>
    </trkpt>
    <trkpt lat="56.548112" lon="60.841376">
        <ele>254.9</ele>
        <time>2022-06-29T17:00:22.116Z</time>
    </trkpt>
    <trkpt lat="56.548086" lon="60.841345">
        <ele>254.9</ele>
        <time>2022-06-29T17:00:23.116Z</time>
    </trkpt>
    <trkpt lat="56.54805" lon="60.84131">
        <ele>254.9</ele>
        <time>2022-06-29T17:00:24.116Z</time>
    </trkpt>
    <trkpt lat="56.548016" lon="60.841298">
        <ele>253.9</ele>
        <time>2022-06-29T17:00:25.116Z</time>
    </trkpt>
    <trkpt lat="56.547983" lon="60.841289">
        <ele>253.9</ele>
        <time>2022-06-29T17:00:26.116Z</time>
    </trkpt>
    <trkpt lat="56.547965" lon="60.841283">
        <ele>253.9</ele>
        <time>2022-06-29T17:00:27.116Z</time>
    </trkpt>
    <trkpt lat="56.547927" lon="60.841276">
        <ele>253.9</ele>
        <time>2022-06-29T17:00:28.116Z</time>
    </trkpt>
    <trkpt lat="56.547895" lon="60.841258">
        <ele>253.9</ele>
        <time>2022-06-29T17:00:29.116Z</time>
    </trkpt>
    <trkpt lat="56.547865" lon="60.841234">
        <ele>253.9</ele>
        <time>2022-06-29T17:00:30.116Z</time>
    </trkpt>
    <trkpt lat="56.547821" lon="60.841213">
        <ele>253.9</ele>
        <time>2022-06-29T17:00:31.116Z</time>
    </trkpt>
    <trkpt lat="56.547793" lon="60.841199">
        <ele>253.9</ele>
        <time>2022-06-29T17:00:32.116Z</time>
    </trkpt>
    <trkpt lat="56.547755" lon="60.841193">
        <ele>253.9</ele>
        <time>2022-06-29T17:00:33.116Z</time>
    </trkpt>
    <trkpt lat="56.547745" lon="60.841196">
        <ele>252.9</ele>
        <time>2022-06-29T17:00:34.116Z</time>
    </trkpt>
    <trkpt lat="56.547714" lon="60.841209">
        <ele>252.9</ele>
        <time>2022-06-29T17:00:35.116Z</time>
    </trkpt>
    <trkpt lat="56.547706" lon="60.841208">
        <ele>252.9</ele>
        <time>2022-06-29T17:00:36.116Z</time>
    </trkpt>
    <trkpt lat="56.547677" lon="60.841216">
        <ele>252.9</ele>
        <time>2022-06-29T17:00:37.116Z</time>
    </trkpt>
    <trkpt lat="56.547666" lon="60.841216">
        <ele>252.9</ele>
        <time>2022-06-29T17:00:38.116Z</time>
    </trkpt>
    <trkpt lat="56.547648" lon="60.841221">
        <ele>252.9</ele>
        <time>2022-06-29T17:00:39.116Z</time>
    </trkpt>
    <trkpt lat="56.547639" lon="60.84122">
        <ele>252.9</ele>
        <time>2022-06-29T17:00:40.116Z</time>
    </trkpt>
    <trkpt lat="56.54762" lon="60.841237">
        <ele>252.9</ele>
        <time>2022-06-29T17:00:41.116Z</time>
    </trkpt>
    <trkpt lat="56.547608" lon="60.841237">
        <ele>252.9</ele>
        <time>2022-06-29T17:00:42.116Z</time>
    </trkpt>
    <trkpt lat="56.547588" lon="60.841241">
        <ele>252.9</ele>
        <time>2022-06-29T17:00:43.116Z</time>
    </trkpt>
    <trkpt lat="56.547578" lon="60.841243">
        <ele>252.9</ele>
        <time>2022-06-29T17:00:44.116Z</time>
    </trkpt>
    <trkpt lat="56.547543" lon="60.841259">
        <ele>251.9</ele>
        <time>2022-06-29T17:00:45.116Z</time>
    </trkpt>
    <trkpt lat="56.547534" lon="60.841254">
        <ele>252.9</ele>
        <time>2022-06-29T17:00:46.116Z</time>
    </trkpt>
    <trkpt lat="56.547499" lon="60.841241">
        <ele>252.9</ele>
        <time>2022-06-29T17:00:47.116Z</time>
    </trkpt>
    <trkpt lat="56.547463" lon="60.841222">
        <ele>252.9</ele>
        <time>2022-06-29T17:00:48.116Z</time>
    </trkpt>
    <trkpt lat="56.54743" lon="60.841196">
        <ele>252.9</ele>
        <time>2022-06-29T17:00:49.116Z</time>
    </trkpt>
    <trkpt lat="56.547402" lon="60.841186">
        <ele>252.9</ele>
        <time>2022-06-29T17:00:50.116Z</time>
    </trkpt>
    <trkpt lat="56.547379" lon="60.84117">
        <ele>252.9</ele>
        <time>2022-06-29T17:00:51.116Z</time>
    </trkpt>
    <trkpt lat="56.547337" lon="60.84113">
        <ele>252.9</ele>
        <time>2022-06-29T17:00:52.116Z</time>
    </trkpt>
    <trkpt lat="56.547323" lon="60.841122">
        <ele>252.9</ele>
        <time>2022-06-29T17:00:53.116Z</time>
    </trkpt>
    <trkpt lat="56.547286" lon="60.841091">
        <ele>252.9</ele>
        <time>2022-06-29T17:00:54.116Z</time>
    </trkpt>
    <trkpt lat="56.547272" lon="60.841086">
        <ele>252.9</ele>
        <time>2022-06-29T17:00:55.116Z</time>
    </trkpt>
    <trkpt lat="56.547236" lon="60.841067">
        <ele>252.9</ele>
        <time>2022-06-29T17:00:56.116Z</time>
    </trkpt>
    <trkpt lat="56.547223" lon="60.841059">
        <ele>252.9</ele>
        <time>2022-06-29T17:00:57.116Z</time>
    </trkpt>
    <trkpt lat="56.547191" lon="60.84104">
        <ele>252.9</ele>
        <time>2022-06-29T17:00:58.116Z</time>
    </trkpt>
    <trkpt lat="56.547176" lon="60.841036">
        <ele>252.9</ele>
        <time>2022-06-29T17:00:59.116Z</time>
    </trkpt>
    <trkpt lat="56.547142" lon="60.841031">
        <ele>252.9</ele>
        <time>2022-06-29T17:01:00.116Z</time>
    </trkpt>
    <trkpt lat="56.547114" lon="60.841043">
        <ele>252.9</ele>
        <time>2022-06-29T17:01:01.116Z</time>
    </trkpt>
    <trkpt lat="56.547106" lon="60.841034">
        <ele>252.9</ele>
        <time>2022-06-29T17:01:02.116Z</time>
    </trkpt>
    <trkpt lat="56.547081" lon="60.841014">
        <ele>252.9</ele>
        <time>2022-06-29T17:01:03.116Z</time>
    </trkpt>
    <trkpt lat="56.54707" lon="60.841011">
        <ele>252.9</ele>
        <time>2022-06-29T17:01:04.116Z</time>
    </trkpt>
    <trkpt lat="56.547046" lon="60.841004">
        <ele>252.9</ele>
        <time>2022-06-29T17:01:05.116Z</time>
    </trkpt>
    <trkpt lat="56.547027" lon="60.841012">
        <ele>252.9</ele>
        <time>2022-06-29T17:01:06.116Z</time>
    </trkpt>
    <trkpt lat="56.546993" lon="60.841012">
        <ele>252.9</ele>
        <time>2022-06-29T17:01:07.116Z</time>
    </trkpt>
    <trkpt lat="56.546978" lon="60.841013">
        <ele>252.9</ele>
        <time>2022-06-29T17:01:08.116Z</time>
    </trkpt>
    <trkpt lat="56.546947" lon="60.841015">
        <ele>252.9</ele>
        <time>2022-06-29T17:01:09.116Z</time>
    </trkpt>
    <trkpt lat="56.546941" lon="60.841022">
        <ele>252.9</ele>
        <time>2022-06-29T17:01:10.116Z</time>
    </trkpt>
    <trkpt lat="56.546934" lon="60.84103">
        <ele>252.9</ele>
        <time>2022-06-29T17:01:11.116Z</time>
    </trkpt>
    <trkpt lat="56.546912" lon="60.841034">
        <ele>252.9</ele>
        <time>2022-06-29T17:01:12.116Z</time>
    </trkpt>
    <trkpt lat="56.546895" lon="60.841023">
        <ele>252.9</ele>
        <time>2022-06-29T17:01:13.116Z</time>
    </trkpt>
    <trkpt lat="56.546857" lon="60.841013">
        <ele>252.9</ele>
        <time>2022-06-29T17:01:14.116Z</time>
    </trkpt>
    <trkpt lat="56.546847" lon="60.841016">
        <ele>252.9</ele>
        <time>2022-06-29T17:01:15.116Z</time>
    </trkpt>
    <trkpt lat="56.546818" lon="60.841014">
        <ele>252.9</ele>
        <time>2022-06-29T17:01:16.116Z</time>
    </trkpt>
    <trkpt lat="56.5468" lon="60.841011">
        <ele>252.9</ele>
        <time>2022-06-29T17:01:17.116Z</time>
    </trkpt>
    <trkpt lat="56.546762" lon="60.840996">
        <ele>252.9</ele>
        <time>2022-06-29T17:01:18.116Z</time>
    </trkpt>
    <trkpt lat="56.546731" lon="60.840984">
        <ele>252.9</ele>
        <time>2022-06-29T17:01:19.116Z</time>
    </trkpt>
    <trkpt lat="56.546705" lon="60.840967">
        <ele>252.9</ele>
        <time>2022-06-29T17:01:20.116Z</time>
    </trkpt>
    <trkpt lat="56.546675" lon="60.840947">
        <ele>252.9</ele>
        <time>2022-06-29T17:01:21.116Z</time>
    </trkpt>
    <trkpt lat="56.546659" lon="60.840941">
        <ele>252.9</ele>
        <time>2022-06-29T17:01:22.116Z</time>
    </trkpt>
    <trkpt lat="56.546628" lon="60.840925">
        <ele>252.9</ele>
        <time>2022-06-29T17:01:23.116Z</time>
    </trkpt>
    <trkpt lat="56.54661" lon="60.840926">
        <ele>252.9</ele>
        <time>2022-06-29T17:01:24.116Z</time>
    </trkpt>
    <trkpt lat="56.546568" lon="60.840918">
        <ele>252.9</ele>
        <time>2022-06-29T17:01:25.116Z</time>
    </trkpt>
    <trkpt lat="56.546552" lon="60.840915">
        <ele>252.9</ele>
        <time>2022-06-29T17:01:26.116Z</time>
    </trkpt>
    <trkpt lat="56.546518" lon="60.84089">
        <ele>253.9</ele>
        <time>2022-06-29T17:01:27.116Z</time>
    </trkpt>
    <trkpt lat="56.546497" lon="60.84089">
        <ele>253.9</ele>
        <time>2022-06-29T17:01:28.116Z</time>
    </trkpt>
    <trkpt lat="56.546456" lon="60.840891">
        <ele>253.9</ele>
        <time>2022-06-29T17:01:29.116Z</time>
    </trkpt>
    <trkpt lat="56.546449" lon="60.840892">
        <ele>253.9</ele>
        <time>2022-06-29T17:01:30.116Z</time>
    </trkpt>
    <trkpt lat="56.546419" lon="60.840888">
        <ele>253.9</ele>
        <time>2022-06-29T17:01:31.116Z</time>
    </trkpt>
    <trkpt lat="56.546388" lon="60.840887">
        <ele>253.9</ele>
        <time>2022-06-29T17:01:32.116Z</time>
    </trkpt>
    <trkpt lat="56.546367" lon="60.840886">
        <ele>253.9</ele>
        <time>2022-06-29T17:01:33.116Z</time>
    </trkpt>
    <trkpt lat="56.546319" lon="60.840879">
        <ele>253.9</ele>
        <time>2022-06-29T17:01:34.116Z</time>
    </trkpt>
    <trkpt lat="56.546288" lon="60.840881">
        <ele>253.9</ele>
        <time>2022-06-29T17:01:35.116Z</time>
    </trkpt>
    <trkpt lat="56.546272" lon="60.84088">
        <ele>253.9</ele>
        <time>2022-06-29T17:01:36.116Z</time>
    </trkpt>
    <trkpt lat="56.546231" lon="60.840862">
        <ele>253.9</ele>
        <time>2022-06-29T17:01:37.116Z</time>
    </trkpt>
    <trkpt lat="56.546195" lon="60.840835">
        <ele>253.9</ele>
        <time>2022-06-29T17:01:38.116Z</time>
    </trkpt>
    <trkpt lat="56.546165" lon="60.840813">
        <ele>253.9</ele>
        <time>2022-06-29T17:01:39.116Z</time>
    </trkpt>
    <trkpt lat="56.546136" lon="60.840794">
        <ele>253.9</ele>
        <time>2022-06-29T17:01:40.116Z</time>
    </trkpt>
    <trkpt lat="56.5461" lon="60.84078">
        <ele>253.9</ele>
        <time>2022-06-29T17:01:41.116Z</time>
    </trkpt>
    <trkpt lat="56.546074" lon="60.840757">
        <ele>253.9</ele>
        <time>2022-06-29T17:01:42.116Z</time>
    </trkpt>
    <trkpt lat="56.546037" lon="60.840724">
        <ele>253.9</ele>
        <time>2022-06-29T17:01:43.116Z</time>
    </trkpt>
    <trkpt lat="56.54601" lon="60.840711">
        <ele>253.9</ele>
        <time>2022-06-29T17:01:44.116Z</time>
    </trkpt>
    <trkpt lat="56.545997" lon="60.840708">
        <ele>253.9</ele>
        <time>2022-06-29T17:01:45.116Z</time>
    </trkpt>
    <trkpt lat="56.545959" lon="60.840697">
        <ele>253.9</ele>
        <time>2022-06-29T17:01:46.116Z</time>
    </trkpt>
    <trkpt lat="56.545945" lon="60.840693">
        <ele>253.9</ele>
        <time>2022-06-29T17:01:47.116Z</time>
    </trkpt>
    <trkpt lat="56.54592" lon="60.84069">
        <ele>253.9</ele>
        <time>2022-06-29T17:01:48.116Z</time>
    </trkpt>
    <trkpt lat="56.545911" lon="60.840696">
        <ele>253.9</ele>
        <time>2022-06-29T17:01:49.116Z</time>
    </trkpt>
    <trkpt lat="56.545885" lon="60.840709">
        <ele>253.9</ele>
        <time>2022-06-29T17:01:50.116Z</time>
    </trkpt>
    <trkpt lat="56.545875" lon="60.840706">
        <ele>253.9</ele>
        <time>2022-06-29T17:01:51.116Z</time>
    </trkpt>
    <trkpt lat="56.545844" lon="60.840712">
        <ele>253.9</ele>
        <time>2022-06-29T17:01:52.116Z</time>
    </trkpt>
    <trkpt lat="56.545827" lon="60.840718">
        <ele>253.9</ele>
        <time>2022-06-29T17:01:53.116Z</time>
    </trkpt>
    <trkpt lat="56.54581" lon="60.840722">
        <ele>253.9</ele>
        <time>2022-06-29T17:01:54.116Z</time>
    </trkpt>
    <trkpt lat="56.545798" lon="60.84072">
        <ele>253.9</ele>
        <time>2022-06-29T17:01:55.116Z</time>
    </trkpt>
    <trkpt lat="56.54578" lon="60.840721">
        <ele>253.9</ele>
        <time>2022-06-29T17:01:56.116Z</time>
    </trkpt>
    <trkpt lat="56.545758" lon="60.840725">
        <ele>253.9</ele>
        <time>2022-06-29T17:01:57.116Z</time>
    </trkpt>
    <trkpt lat="56.545746" lon="60.840731">
        <ele>253.9</ele>
        <time>2022-06-29T17:01:58.116Z</time>
    </trkpt>
    <trkpt lat="56.545731" lon="60.840734">
        <ele>253.9</ele>
        <time>2022-06-29T17:01:59.116Z</time>
    </trkpt>
    <trkpt lat="56.545715" lon="60.840734">
        <ele>253.9</ele>
        <time>2022-06-29T17:02:00.116Z</time>
    </trkpt>
    <trkpt lat="56.54568" lon="60.840709">
        <ele>253.9</ele>
        <time>2022-06-29T17:02:01.116Z</time>
    </trkpt>
    <trkpt lat="56.545642" lon="60.84069">
        <ele>253.9</ele>
        <time>2022-06-29T17:02:02.116Z</time>
    </trkpt>
    <trkpt lat="56.545609" lon="60.840669">
        <ele>253.9</ele>
        <time>2022-06-29T17:02:03.116Z</time>
    </trkpt>
    <trkpt lat="56.545565" lon="60.840652">
        <ele>253.9</ele>
        <time>2022-06-29T17:02:04.116Z</time>
    </trkpt>
    <trkpt lat="56.545527" lon="60.84065">
        <ele>253.9</ele>
        <time>2022-06-29T17:02:05.116Z</time>
    </trkpt>
    <trkpt lat="56.545495" lon="60.840661">
        <ele>253.9</ele>
        <time>2022-06-29T17:02:06.116Z</time>
    </trkpt>
    <trkpt lat="56.545484" lon="60.840662">
        <ele>253.9</ele>
        <time>2022-06-29T17:02:07.116Z</time>
    </trkpt>
    <trkpt lat="56.545449" lon="60.84066">
        <ele>253.9</ele>
        <time>2022-06-29T17:02:08.116Z</time>
    </trkpt>
    <trkpt lat="56.545439" lon="60.84066">
        <ele>253.9</ele>
        <time>2022-06-29T17:02:09.116Z</time>
    </trkpt>
    <trkpt lat="56.545412" lon="60.840665">
        <ele>253.9</ele>
        <time>2022-06-29T17:02:10.116Z</time>
    </trkpt>
    <trkpt lat="56.545394" lon="60.84067">
        <ele>253.9</ele>
        <time>2022-06-29T17:02:11.116Z</time>
    </trkpt>
    <trkpt lat="56.545378" lon="60.840671">
        <ele>252.9</ele>
        <time>2022-06-29T17:02:12.116Z</time>
    </trkpt>
    <trkpt lat="56.545364" lon="60.840671">
        <ele>252.9</ele>
        <time>2022-06-29T17:02:13.116Z</time>
    </trkpt>
    <trkpt lat="56.545349" lon="60.840675">
        <ele>252.9</ele>
        <time>2022-06-29T17:02:14.116Z</time>
    </trkpt>
    <trkpt lat="56.545337" lon="60.840677">
        <ele>252.9</ele>
        <time>2022-06-29T17:02:15.116Z</time>
    </trkpt>
    <trkpt lat="56.545308" lon="60.840684">
        <ele>252.9</ele>
        <time>2022-06-29T17:02:16.116Z</time>
    </trkpt>
    <trkpt lat="56.545298" lon="60.840685">
        <ele>252.9</ele>
        <time>2022-06-29T17:02:17.116Z</time>
    </trkpt>
    <trkpt lat="56.545278" lon="60.840692">
        <ele>252.9</ele>
        <time>2022-06-29T17:02:18.116Z</time>
    </trkpt>
    <trkpt lat="56.54525" lon="60.84069">
        <ele>252.9</ele>
        <time>2022-06-29T17:02:19.116Z</time>
    </trkpt>
    <trkpt lat="56.54522" lon="60.840692">
        <ele>252.9</ele>
        <time>2022-06-29T17:02:20.116Z</time>
    </trkpt>
    <trkpt lat="56.545186" lon="60.840674">
        <ele>251.9</ele>
        <time>2022-06-29T17:02:21.116Z</time>
    </trkpt>
    <trkpt lat="56.545158" lon="60.840648">
        <ele>251.9</ele>
        <time>2022-06-29T17:02:22.116Z</time>
    </trkpt>
    <trkpt lat="56.545122" lon="60.840625">
        <ele>251.9</ele>
        <time>2022-06-29T17:02:23.116Z</time>
    </trkpt>
    <trkpt lat="56.545105" lon="60.840623">
        <ele>251.9</ele>
        <time>2022-06-29T17:02:24.116Z</time>
    </trkpt>
    <trkpt lat="56.545068" lon="60.840618">
        <ele>251.9</ele>
        <time>2022-06-29T17:02:25.116Z</time>
    </trkpt>
    <trkpt lat="56.545059" lon="60.840608">
        <ele>251.9</ele>
        <time>2022-06-29T17:02:26.116Z</time>
    </trkpt>
    <trkpt lat="56.545031" lon="60.840589">
        <ele>251.9</ele>
        <time>2022-06-29T17:02:27.116Z</time>
    </trkpt>
    <trkpt lat="56.545015" lon="60.840593">
        <ele>251.9</ele>
        <time>2022-06-29T17:02:28.116Z</time>
    </trkpt>
    <trkpt lat="56.545001" lon="60.840596">
        <ele>250.9</ele>
        <time>2022-06-29T17:02:29.116Z</time>
    </trkpt>
    <trkpt lat="56.544984" lon="60.840595">
        <ele>250.9</ele>
        <time>2022-06-29T17:02:30.116Z</time>
    </trkpt>
    <trkpt lat="56.544968" lon="60.840595">
        <ele>250.9</ele>
        <time>2022-06-29T17:02:31.116Z</time>
    </trkpt>
    <trkpt lat="56.544962" lon="60.840592">
        <ele>250.9</ele>
        <time>2022-06-29T17:02:32.116Z</time>
    </trkpt>
    <trkpt lat="56.544932" lon="60.840569">
        <ele>250.9</ele>
        <time>2022-06-29T17:02:33.116Z</time>
    </trkpt>
    <trkpt lat="56.544918" lon="60.840559">
        <ele>251.9</ele>
        <time>2022-06-29T17:02:34.116Z</time>
    </trkpt>
    <trkpt lat="56.544881" lon="60.840541">
        <ele>251.9</ele>
        <time>2022-06-29T17:02:35.116Z</time>
    </trkpt>
    <trkpt lat="56.544848" lon="60.840536">
        <ele>251.9</ele>
        <time>2022-06-29T17:02:36.116Z</time>
    </trkpt>
    <trkpt lat="56.544836" lon="60.840534">
        <ele>251.9</ele>
        <time>2022-06-29T17:02:37.116Z</time>
    </trkpt>
    <trkpt lat="56.544805" lon="60.840525">
        <ele>250.9</ele>
        <time>2022-06-29T17:02:38.116Z</time>
    </trkpt>
    <trkpt lat="56.544791" lon="60.840527">
        <ele>250.9</ele>
        <time>2022-06-29T17:02:39.116Z</time>
    </trkpt>
    <trkpt lat="56.544761" lon="60.840536">
        <ele>250.9</ele>
        <time>2022-06-29T17:02:40.116Z</time>
    </trkpt>
    <trkpt lat="56.544749" lon="60.840537">
        <ele>250.9</ele>
        <time>2022-06-29T17:02:41.116Z</time>
    </trkpt>
    <trkpt lat="56.544714" lon="60.840531">
        <ele>250.9</ele>
        <time>2022-06-29T17:02:42.116Z</time>
    </trkpt>
    <trkpt lat="56.544683" lon="60.840521">
        <ele>250.9</ele>
        <time>2022-06-29T17:02:43.116Z</time>
    </trkpt>
    <trkpt lat="56.544672" lon="60.840522">
        <ele>250.9</ele>
        <time>2022-06-29T17:02:44.116Z</time>
    </trkpt>
    <trkpt lat="56.544637" lon="60.840525">
        <ele>250.9</ele>
        <time>2022-06-29T17:02:45.116Z</time>
    </trkpt>
    <trkpt lat="56.544605" lon="60.840529">
        <ele>249.9</ele>
        <time>2022-06-29T17:02:46.116Z</time>
    </trkpt>
    <trkpt lat="56.544579" lon="60.840518">
        <ele>249.9</ele>
        <time>2022-06-29T17:02:47.116Z</time>
    </trkpt>
    <trkpt lat="56.544542" lon="60.840537">
        <ele>249.9</ele>
        <time>2022-06-29T17:02:48.116Z</time>
    </trkpt>
    <trkpt lat="56.544532" lon="60.840544">
        <ele>249.9</ele>
        <time>2022-06-29T17:02:49.116Z</time>
    </trkpt>
    <trkpt lat="56.544522" lon="60.84055">
        <ele>249.9</ele>
        <time>2022-06-29T17:02:50.116Z</time>
    </trkpt>
    <trkpt lat="56.544504" lon="60.840557">
        <ele>249.9</ele>
        <time>2022-06-29T17:02:51.116Z</time>
    </trkpt>
    <trkpt lat="56.544463" lon="60.840555">
        <ele>249.9</ele>
        <time>2022-06-29T17:02:52.116Z</time>
    </trkpt>
    <trkpt lat="56.544452" lon="60.840556">
        <ele>249.9</ele>
        <time>2022-06-29T17:02:53.116Z</time>
    </trkpt>
    <trkpt lat="56.544432" lon="60.840576">
        <ele>247.9</ele>
        <time>2022-06-29T17:02:54.116Z</time>
    </trkpt>
    <trkpt lat="56.544419" lon="60.840574">
        <ele>247.9</ele>
        <time>2022-06-29T17:02:55.116Z</time>
    </trkpt>
    <trkpt lat="56.544382" lon="60.840558">
        <ele>248.9</ele>
        <time>2022-06-29T17:02:56.116Z</time>
    </trkpt>
    <trkpt lat="56.544363" lon="60.840555">
        <ele>248.9</ele>
        <time>2022-06-29T17:02:57.116Z</time>
    </trkpt>
    <trkpt lat="56.544321" lon="60.840541">
        <ele>247.9</ele>
        <time>2022-06-29T17:02:58.116Z</time>
    </trkpt>
    <trkpt lat="56.544307" lon="60.840536">
        <ele>247.9</ele>
        <time>2022-06-29T17:02:59.116Z</time>
    </trkpt>
    <trkpt lat="56.544274" lon="60.840515">
        <ele>247.9</ele>
        <time>2022-06-29T17:03:00.116Z</time>
    </trkpt>
    <trkpt lat="56.544262" lon="60.840514">
        <ele>247.9</ele>
        <time>2022-06-29T17:03:01.116Z</time>
    </trkpt>
    <trkpt lat="56.544235" lon="60.840514">
        <ele>247.9</ele>
        <time>2022-06-29T17:03:02.116Z</time>
    </trkpt>
    <trkpt lat="56.544221" lon="60.84051">
        <ele>247.9</ele>
        <time>2022-06-29T17:03:03.116Z</time>
    </trkpt>
    <trkpt lat="56.544184" lon="60.840498">
        <ele>247.9</ele>
        <time>2022-06-29T17:03:04.116Z</time>
    </trkpt>
    <trkpt lat="56.544173" lon="60.840494">
        <ele>247.9</ele>
        <time>2022-06-29T17:03:05.116Z</time>
    </trkpt>
    <trkpt lat="56.544138" lon="60.840491">
        <ele>246.9</ele>
        <time>2022-06-29T17:03:06.116Z</time>
    </trkpt>
    <trkpt lat="56.544111" lon="60.840484">
        <ele>246.9</ele>
        <time>2022-06-29T17:03:07.116Z</time>
    </trkpt>
    <trkpt lat="56.5441" lon="60.840478">
        <ele>246.9</ele>
        <time>2022-06-29T17:03:08.116Z</time>
    </trkpt>
    <trkpt lat="56.544063" lon="60.840472">
        <ele>246.9</ele>
        <time>2022-06-29T17:03:09.116Z</time>
    </trkpt>
    <trkpt lat="56.544033" lon="60.840463">
        <ele>246.9</ele>
        <time>2022-06-29T17:03:10.116Z</time>
    </trkpt>
    <trkpt lat="56.544005" lon="60.840452">
        <ele>246.9</ele>
        <time>2022-06-29T17:03:11.116Z</time>
    </trkpt>
    <trkpt lat="56.543976" lon="60.840427">
        <ele>246.9</ele>
        <time>2022-06-29T17:03:12.116Z</time>
    </trkpt>
    <trkpt lat="56.54395" lon="60.840408">
        <ele>245.9</ele>
        <time>2022-06-29T17:03:13.116Z</time>
    </trkpt>
    <trkpt lat="56.543925" lon="60.840392">
        <ele>246.9</ele>
        <time>2022-06-29T17:03:14.116Z</time>
    </trkpt>
    <trkpt lat="56.543879" lon="60.840355">
        <ele>246.9</ele>
        <time>2022-06-29T17:03:15.116Z</time>
    </trkpt>
    <trkpt lat="56.543862" lon="60.840354">
        <ele>246.9</ele>
        <time>2022-06-29T17:03:16.116Z</time>
    </trkpt>
    <trkpt lat="56.543833" lon="60.840349">
        <ele>246.9</ele>
        <time>2022-06-29T17:03:17.116Z</time>
    </trkpt>
    <trkpt lat="56.543801" lon="60.84035">
        <ele>246.9</ele>
        <time>2022-06-29T17:03:18.116Z</time>
    </trkpt>
    <trkpt lat="56.543788" lon="60.840349">
        <ele>246.9</ele>
        <time>2022-06-29T17:03:19.116Z</time>
    </trkpt>
    <trkpt lat="56.543752" lon="60.840342">
        <ele>246.9</ele>
        <time>2022-06-29T17:03:20.116Z</time>
    </trkpt>
    <trkpt lat="56.543725" lon="60.840342">
        <ele>246.9</ele>
        <time>2022-06-29T17:03:21.116Z</time>
    </trkpt>
    <trkpt lat="56.543715" lon="60.840338">
        <ele>246.9</ele>
        <time>2022-06-29T17:03:22.116Z</time>
    </trkpt>
    <trkpt lat="56.543681" lon="60.84033">
        <ele>246.9</ele>
        <time>2022-06-29T17:03:23.116Z</time>
    </trkpt>
    <trkpt lat="56.543671" lon="60.840323">
        <ele>246.9</ele>
        <time>2022-06-29T17:03:24.116Z</time>
    </trkpt>
    <trkpt lat="56.543644" lon="60.840311">
        <ele>246.9</ele>
        <time>2022-06-29T17:03:25.116Z</time>
    </trkpt>
    <trkpt lat="56.543614" lon="60.840312">
        <ele>246.9</ele>
        <time>2022-06-29T17:03:26.116Z</time>
    </trkpt>
    <trkpt lat="56.543587" lon="60.840319">
        <ele>246.9</ele>
        <time>2022-06-29T17:03:27.116Z</time>
    </trkpt>
    <trkpt lat="56.543568" lon="60.840326">
        <ele>246.9</ele>
        <time>2022-06-29T17:03:28.116Z</time>
    </trkpt>
    <trkpt lat="56.543555" lon="60.840335">
        <ele>246.9</ele>
        <time>2022-06-29T17:03:29.116Z</time>
    </trkpt>
    <trkpt lat="56.543543" lon="60.840332">
        <ele>246.9</ele>
        <time>2022-06-29T17:03:30.116Z</time>
    </trkpt>
    <trkpt lat="56.543506" lon="60.840326">
        <ele>246.9</ele>
        <time>2022-06-29T17:03:31.116Z</time>
    </trkpt>
    <trkpt lat="56.543466" lon="60.84032">
        <ele>246.9</ele>
        <time>2022-06-29T17:03:32.116Z</time>
    </trkpt>
    <trkpt lat="56.543453" lon="60.840314">
        <ele>246.9</ele>
        <time>2022-06-29T17:03:33.116Z</time>
    </trkpt>
    <trkpt lat="56.543418" lon="60.840313">
        <ele>246.9</ele>
        <time>2022-06-29T17:03:34.116Z</time>
    </trkpt>
    <trkpt lat="56.543409" lon="60.840314">
        <ele>246.9</ele>
        <time>2022-06-29T17:03:35.116Z</time>
    </trkpt>
    <trkpt lat="56.543376" lon="60.840316">
        <ele>246.9</ele>
        <time>2022-06-29T17:03:36.116Z</time>
    </trkpt>
    <trkpt lat="56.543361" lon="60.84033">
        <ele>246.9</ele>
        <time>2022-06-29T17:03:37.116Z</time>
    </trkpt>
    <trkpt lat="56.543346" lon="60.840335">
        <ele>246.9</ele>
        <time>2022-06-29T17:03:39.116Z</time>
    </trkpt>
    <trkpt lat="56.543331" lon="60.840333">
        <ele>246.9</ele>
        <time>2022-06-29T17:03:40.116Z</time>
    </trkpt>
    <trkpt lat="56.543312" lon="60.840331">
        <ele>246.9</ele>
        <time>2022-06-29T17:03:41.116Z</time>
    </trkpt>
    <trkpt lat="56.543284" lon="60.840321">
        <ele>246.9</ele>
        <time>2022-06-29T17:03:42.116Z</time>
    </trkpt>
    <trkpt lat="56.543255" lon="60.840312">
        <ele>246.9</ele>
        <time>2022-06-29T17:03:43.116Z</time>
    </trkpt>
    <trkpt lat="56.543231" lon="60.84031">
        <ele>246.9</ele>
        <time>2022-06-29T17:03:44.116Z</time>
    </trkpt>
    <trkpt lat="56.543209" lon="60.840314">
        <ele>246.9</ele>
        <time>2022-06-29T17:03:45.116Z</time>
    </trkpt>
    <trkpt lat="56.543163" lon="60.840332">
        <ele>246.9</ele>
        <time>2022-06-29T17:03:46.116Z</time>
    </trkpt>
    <trkpt lat="56.543154" lon="60.840336">
        <ele>246.9</ele>
        <time>2022-06-29T17:03:47.116Z</time>
    </trkpt>
    <trkpt lat="56.543123" lon="60.840337">
        <ele>246.9</ele>
        <time>2022-06-29T17:03:48.116Z</time>
    </trkpt>
    <trkpt lat="56.543115" lon="60.840333">
        <ele>246.9</ele>
        <time>2022-06-29T17:03:49.116Z</time>
    </trkpt>
    <trkpt lat="56.543085" lon="60.840325">
        <ele>247.9</ele>
        <time>2022-06-29T17:03:50.116Z</time>
    </trkpt>
    <trkpt lat="56.543065" lon="60.840327">
        <ele>247.9</ele>
        <time>2022-06-29T17:03:51.116Z</time>
    </trkpt>
    <trkpt lat="56.54305" lon="60.84033">
        <ele>247.9</ele>
        <time>2022-06-29T17:03:52.116Z</time>
    </trkpt>
    <trkpt lat="56.54304" lon="60.84033">
        <ele>247.9</ele>
        <time>2022-06-29T17:03:53.116Z</time>
    </trkpt>
    <trkpt lat="56.543013" lon="60.84033">
        <ele>247.9</ele>
        <time>2022-06-29T17:03:54.116Z</time>
    </trkpt>
    <trkpt lat="56.543003" lon="60.840331">
        <ele>247.9</ele>
        <time>2022-06-29T17:03:55.116Z</time>
    </trkpt>
    <trkpt lat="56.542992" lon="60.840331">
        <ele>247.9</ele>
        <time>2022-06-29T17:03:56.116Z</time>
    </trkpt>
    <trkpt lat="56.542974" lon="60.840333">
        <ele>247.9</ele>
        <time>2022-06-29T17:03:57.116Z</time>
    </trkpt>
    <trkpt lat="56.542964" lon="60.84033">
        <ele>247.9</ele>
        <time>2022-06-29T17:03:58.116Z</time>
    </trkpt>
    <trkpt lat="56.542943" lon="60.84033">
        <ele>247.9</ele>
        <time>2022-06-29T17:03:59.116Z</time>
    </trkpt>
    <trkpt lat="56.542932" lon="60.840332">
        <ele>247.9</ele>
        <time>2022-06-29T17:04:00.116Z</time>
    </trkpt>
    <trkpt lat="56.54292" lon="60.840334">
        <ele>248.9</ele>
        <time>2022-06-29T17:04:01.116Z</time>
    </trkpt>
    <trkpt lat="56.542897" lon="60.84033">
        <ele>248.9</ele>
        <time>2022-06-29T17:04:02.116Z</time>
    </trkpt>
    <trkpt lat="56.542884" lon="60.840329">
        <ele>248.9</ele>
        <time>2022-06-29T17:04:03.116Z</time>
    </trkpt>
    <trkpt lat="56.542865" lon="60.840328">
        <ele>248.9</ele>
        <time>2022-06-29T17:04:04.116Z</time>
    </trkpt>
    <trkpt lat="56.542846" lon="60.840327">
        <ele>248.9</ele>
        <time>2022-06-29T17:04:05.116Z</time>
    </trkpt>
    <trkpt lat="56.542833" lon="60.840329">
        <ele>248.9</ele>
        <time>2022-06-29T17:04:06.116Z</time>
    </trkpt>
    <trkpt lat="56.542826" lon="60.840331">
        <ele>248.9</ele>
        <time>2022-06-29T17:04:07.116Z</time>
    </trkpt>
    <trkpt lat="56.542812" lon="60.840331">
        <ele>248.9</ele>
        <time>2022-06-29T17:04:08.116Z</time>
    </trkpt>
    <trkpt lat="56.542809" lon="60.840325">
        <ele>248.9</ele>
        <time>2022-06-29T17:04:09.116Z</time>
    </trkpt>
    <trkpt lat="56.5428" lon="60.840334">
        <ele>248.9</ele>
        <time>2022-06-29T17:04:10.116Z</time>
    </trkpt>
    <trkpt lat="56.542784" lon="60.840336">
        <ele>248.9</ele>
        <time>2022-06-29T17:04:11.116Z</time>
    </trkpt>
    <trkpt lat="56.542771" lon="60.840333">
        <ele>248.9</ele>
        <time>2022-06-29T17:04:12.116Z</time>
    </trkpt>
    <trkpt lat="56.54276" lon="60.840337">
        <ele>248.9</ele>
        <time>2022-06-29T17:04:13.116Z</time>
    </trkpt>
    <trkpt lat="56.542748" lon="60.840341">
        <ele>248.9</ele>
        <time>2022-06-29T17:04:14.116Z</time>
    </trkpt>
    <trkpt lat="56.542726" lon="60.840356">
        <ele>248.9</ele>
        <time>2022-06-29T17:04:15.116Z</time>
    </trkpt>
    <trkpt lat="56.542713" lon="60.840356">
        <ele>248.9</ele>
        <time>2022-06-29T17:04:16.116Z</time>
    </trkpt>
    <trkpt lat="56.542675" lon="60.840346">
        <ele>248.9</ele>
        <time>2022-06-29T17:04:17.116Z</time>
    </trkpt>
    <trkpt lat="56.542647" lon="60.84032">
        <ele>248.9</ele>
        <time>2022-06-29T17:04:18.116Z</time>
    </trkpt>
    <trkpt lat="56.542631" lon="60.840317">
        <ele>247.9</ele>
        <time>2022-06-29T17:04:19.116Z</time>
    </trkpt>
    <trkpt lat="56.542616" lon="60.840313">
        <ele>247.9</ele>
        <time>2022-06-29T17:04:20.116Z</time>
    </trkpt>
    <trkpt lat="56.542597" lon="60.840316">
        <ele>247.9</ele>
        <time>2022-06-29T17:04:21.116Z</time>
    </trkpt>
    <trkpt lat="56.542589" lon="60.840315">
        <ele>247.9</ele>
        <time>2022-06-29T17:04:22.116Z</time>
    </trkpt>
    <trkpt lat="56.542582" lon="60.840315">
        <ele>247.9</ele>
        <time>2022-06-29T17:04:23.116Z</time>
    </trkpt>
    <trkpt lat="56.542555" lon="60.840327">
        <ele>247.9</ele>
        <time>2022-06-29T17:04:24.116Z</time>
    </trkpt>
    <trkpt lat="56.542541" lon="60.840321">
        <ele>247.9</ele>
        <time>2022-06-29T17:04:25.116Z</time>
    </trkpt>
    <trkpt lat="56.542505" lon="60.840318">
        <ele>247.9</ele>
        <time>2022-06-29T17:04:26.116Z</time>
    </trkpt>
    <trkpt lat="56.542493" lon="60.840332">
        <ele>247.9</ele>
        <time>2022-06-29T17:04:27.116Z</time>
    </trkpt>
    <trkpt lat="56.542481" lon="60.840347">
        <ele>247.9</ele>
        <time>2022-06-29T17:04:28.116Z</time>
    </trkpt>
    <trkpt lat="56.542464" lon="60.840374">
        <ele>247.9</ele>
        <time>2022-06-29T17:04:29.116Z</time>
    </trkpt>
    <trkpt lat="56.542459" lon="60.840379">
        <ele>247.9</ele>
        <time>2022-06-29T17:04:30.116Z</time>
    </trkpt>
    <trkpt lat="56.542454" lon="60.840384">
        <ele>247.9</ele>
        <time>2022-06-29T17:04:31.116Z</time>
    </trkpt>
    <trkpt lat="56.542449" lon="60.840389">
        <ele>246.9</ele>
        <time>2022-06-29T17:04:32.116Z</time>
    </trkpt>
    <trkpt lat="56.542429" lon="60.840393">
        <ele>246.9</ele>
        <time>2022-06-29T17:04:33.116Z</time>
    </trkpt>
    <trkpt lat="56.542415" lon="60.840378">
        <ele>246.9</ele>
        <time>2022-06-29T17:04:34.116Z</time>
    </trkpt>
    <trkpt lat="56.542401" lon="60.840363">
        <ele>246.9</ele>
        <time>2022-06-29T17:04:35.116Z</time>
    </trkpt>
    <trkpt lat="56.542386" lon="60.840348">
        <ele>246.9</ele>
        <time>2022-06-29T17:04:36.116Z</time>
    </trkpt>
    <trkpt lat="56.542372" lon="60.840333">
        <ele>246.9</ele>
        <time>2022-06-29T17:04:37.116Z</time>
    </trkpt>
    <trkpt lat="56.542358" lon="60.840318">
        <ele>246.9</ele>
        <time>2022-06-29T17:04:38.116Z</time>
    </trkpt>
    <trkpt lat="56.542344" lon="60.840303">
        <ele>246.9</ele>
        <time>2022-06-29T17:05:23.116Z</time>
    </trkpt>
    <trkpt lat="56.54233" lon="60.840289">
        <ele>246.9</ele>
        <time>2022-06-29T17:05:24.116Z</time>
    </trkpt>
    <trkpt lat="56.542316" lon="60.840274">
        <ele>246.9</ele>
        <time>2022-06-29T17:05:25.116Z</time>
    </trkpt>
    <trkpt lat="56.542301" lon="60.840259">
        <ele>246.9</ele>
        <time>2022-06-29T17:05:26.116Z</time>
    </trkpt>
    <trkpt lat="56.542287" lon="60.840244">
        <ele>246.9</ele>
        <time>2022-06-29T17:05:27.116Z</time>
    </trkpt>
    <trkpt lat="56.542273" lon="60.840229">
        <ele>246.9</ele>
        <time>2022-06-29T17:05:28.116Z</time>
    </trkpt>
    <trkpt lat="56.542259" lon="60.840214">
        <ele>247.9</ele>
        <time>2022-06-29T17:05:29.116Z</time>
    </trkpt>
    <trkpt lat="56.542245" lon="60.840199">
        <ele>247.9</ele>
        <time>2022-06-29T17:05:30.116Z</time>
    </trkpt>
    <trkpt lat="56.54223" lon="60.840184">
        <ele>247.9</ele>
        <time>2022-06-29T17:05:31.116Z</time>
    </trkpt>
    <trkpt lat="56.542216" lon="60.840169">
        <ele>247.9</ele>
        <time>2022-06-29T17:05:32.116Z</time>
    </trkpt>
    <trkpt lat="56.542195" lon="60.840129">
        <ele>247.9</ele>
        <time>2022-06-29T17:05:33.116Z</time>
    </trkpt>
    <trkpt lat="56.542186" lon="60.840115">
        <ele>247.9</ele>
        <time>2022-06-29T17:05:34.116Z</time>
    </trkpt>
    <trkpt lat="56.542156" lon="60.840092">
        <ele>247.9</ele>
        <time>2022-06-29T17:05:35.116Z</time>
    </trkpt>
    <trkpt lat="56.542131" lon="60.840072">
        <ele>247.9</ele>
        <time>2022-06-29T17:05:36.116Z</time>
    </trkpt>
    <trkpt lat="56.542103" lon="60.840045">
        <ele>248.9</ele>
        <time>2022-06-29T17:05:37.116Z</time>
    </trkpt>
    <trkpt lat="56.542091" lon="60.840031">
        <ele>248.9</ele>
        <time>2022-06-29T17:05:38.116Z</time>
    </trkpt>
    <trkpt lat="56.542061" lon="60.840006">
        <ele>247.9</ele>
        <time>2022-06-29T17:05:39.116Z</time>
    </trkpt>
    <trkpt lat="56.542031" lon="60.840001">
        <ele>247.9</ele>
        <time>2022-06-29T17:05:40.116Z</time>
    </trkpt>
    <trkpt lat="56.542023" lon="60.839995">
        <ele>247.9</ele>
        <time>2022-06-29T17:05:41.116Z</time>
    </trkpt>
    <trkpt lat="56.541989" lon="60.839984">
        <ele>247.9</ele>
        <time>2022-06-29T17:05:42.116Z</time>
    </trkpt>
    <trkpt lat="56.54198" lon="60.839983">
        <ele>247.9</ele>
        <time>2022-06-29T17:05:43.116Z</time>
    </trkpt>
    <trkpt lat="56.541951" lon="60.839965">
        <ele>247.9</ele>
        <time>2022-06-29T17:05:44.116Z</time>
    </trkpt>
    <trkpt lat="56.54194" lon="60.839948">
        <ele>247.9</ele>
        <time>2022-06-29T17:05:45.116Z</time>
    </trkpt>
    <trkpt lat="56.541928" lon="60.839951">
        <ele>247.9</ele>
        <time>2022-06-29T17:05:46.116Z</time>
    </trkpt>
    <trkpt lat="56.541918" lon="60.839947">
        <ele>247.9</ele>
        <time>2022-06-29T17:05:47.116Z</time>
    </trkpt>
    <trkpt lat="56.541903" lon="60.839947">
        <ele>247.9</ele>
        <time>2022-06-29T17:05:48.116Z</time>
    </trkpt>
    <trkpt lat="56.541869" lon="60.839936">
        <ele>246.9</ele>
        <time>2022-06-29T17:05:49.116Z</time>
    </trkpt>
    <trkpt lat="56.541855" lon="60.839931">
        <ele>246.9</ele>
        <time>2022-06-29T17:05:50.116Z</time>
    </trkpt>
    <trkpt lat="56.541839" lon="60.839937">
        <ele>246.9</ele>
        <time>2022-06-29T17:05:51.116Z</time>
    </trkpt>
    <trkpt lat="56.54182" lon="60.839936">
        <ele>246.9</ele>
        <time>2022-06-29T17:05:52.116Z</time>
    </trkpt>
    <trkpt lat="56.541812" lon="60.839929">
        <ele>246.9</ele>
        <time>2022-06-29T17:05:53.116Z</time>
    </trkpt>
    <trkpt lat="56.541798" lon="60.839926">
        <ele>246.9</ele>
        <time>2022-06-29T17:05:54.116Z</time>
    </trkpt>
    <trkpt lat="56.541767" lon="60.839935">
        <ele>245.9</ele>
        <time>2022-06-29T17:05:55.116Z</time>
    </trkpt>
    <trkpt lat="56.541742" lon="60.839912">
        <ele>245.9</ele>
        <time>2022-06-29T17:05:56.116Z</time>
    </trkpt>
    <trkpt lat="56.541728" lon="60.839913">
        <ele>245.9</ele>
        <time>2022-06-29T17:05:57.116Z</time>
    </trkpt>
    <trkpt lat="56.541697" lon="60.839919">
        <ele>245.9</ele>
        <time>2022-06-29T17:05:58.116Z</time>
    </trkpt>
    <trkpt lat="56.541684" lon="60.839918">
        <ele>244.9</ele>
        <time>2022-06-29T17:05:59.116Z</time>
    </trkpt>
    <trkpt lat="56.541645" lon="60.839907">
        <ele>244.9</ele>
        <time>2022-06-29T17:06:00.116Z</time>
    </trkpt>
    <trkpt lat="56.541627" lon="60.839898">
        <ele>244.9</ele>
        <time>2022-06-29T17:06:01.116Z</time>
    </trkpt>
    <trkpt lat="56.541616" lon="60.839891">
        <ele>244.9</ele>
        <time>2022-06-29T17:06:02.116Z</time>
    </trkpt>
    <trkpt lat="56.541596" lon="60.839891">
        <ele>243.9</ele>
        <time>2022-06-29T17:06:03.116Z</time>
    </trkpt>
    <trkpt lat="56.541584" lon="60.839892">
        <ele>243.9</ele>
        <time>2022-06-29T17:06:04.116Z</time>
    </trkpt>
    <trkpt lat="56.541569" lon="60.839888">
        <ele>243.9</ele>
        <time>2022-06-29T17:06:05.116Z</time>
    </trkpt>
    <trkpt lat="56.54154" lon="60.839885">
        <ele>243.9</ele>
        <time>2022-06-29T17:06:06.116Z</time>
    </trkpt>
    <trkpt lat="56.541525" lon="60.83989">
        <ele>243.9</ele>
        <time>2022-06-29T17:06:07.116Z</time>
    </trkpt>
    <trkpt lat="56.541495" lon="60.839877">
        <ele>242.9</ele>
        <time>2022-06-29T17:06:08.116Z</time>
    </trkpt>
    <trkpt lat="56.54148" lon="60.839873">
        <ele>242.9</ele>
        <time>2022-06-29T17:06:09.116Z</time>
    </trkpt>
    <trkpt lat="56.541441" lon="60.839879">
        <ele>242.9</ele>
        <time>2022-06-29T17:06:10.116Z</time>
    </trkpt>
    <trkpt lat="56.541429" lon="60.839875">
        <ele>242.9</ele>
        <time>2022-06-29T17:06:11.116Z</time>
    </trkpt>
    <trkpt lat="56.541414" lon="60.83987">
        <ele>242.9</ele>
        <time>2022-06-29T17:06:12.116Z</time>
    </trkpt>
    <trkpt lat="56.541404" lon="60.839868">
        <ele>241.9</ele>
        <time>2022-06-29T17:06:13.116Z</time>
    </trkpt>
    <trkpt lat="56.54137" lon="60.839861">
        <ele>241.9</ele>
        <time>2022-06-29T17:06:14.116Z</time>
    </trkpt>
    <trkpt lat="56.54135" lon="60.839861">
        <ele>241.9</ele>
        <time>2022-06-29T17:06:15.116Z</time>
    </trkpt>
    <trkpt lat="56.541339" lon="60.839866">
        <ele>241.9</ele>
        <time>2022-06-29T17:06:16.116Z</time>
    </trkpt>
    <trkpt lat="56.54132" lon="60.839866">
        <ele>241.9</ele>
        <time>2022-06-29T17:06:17.116Z</time>
    </trkpt>
    <trkpt lat="56.541306" lon="60.839867">
        <ele>240.9</ele>
        <time>2022-06-29T17:06:18.116Z</time>
    </trkpt>
    <trkpt lat="56.541295" lon="60.839867">
        <ele>240.9</ele>
        <time>2022-06-29T17:06:19.116Z</time>
    </trkpt>
    <trkpt lat="56.541269" lon="60.839871">
        <ele>240.9</ele>
        <time>2022-06-29T17:06:20.116Z</time>
    </trkpt>
    <trkpt lat="56.541257" lon="60.83987">
        <ele>240.9</ele>
        <time>2022-06-29T17:06:21.116Z</time>
    </trkpt>
    <trkpt lat="56.541227" lon="60.839881">
        <ele>240.9</ele>
        <time>2022-06-29T17:06:22.116Z</time>
    </trkpt>
    <trkpt lat="56.541199" lon="60.83988">
        <ele>238.9</ele>
        <time>2022-06-29T17:06:23.116Z</time>
    </trkpt>
    <trkpt lat="56.541186" lon="60.839876">
        <ele>238.9</ele>
        <time>2022-06-29T17:06:24.116Z</time>
    </trkpt>
    <trkpt lat="56.541165" lon="60.839873">
        <ele>238.9</ele>
        <time>2022-06-29T17:06:25.116Z</time>
    </trkpt>
    <trkpt lat="56.541155" lon="60.839875">
        <ele>238.9</ele>
        <time>2022-06-29T17:06:26.116Z</time>
    </trkpt>
    <trkpt lat="56.541123" lon="60.839879">
        <ele>237.9</ele>
        <time>2022-06-29T17:06:27.116Z</time>
    </trkpt>
    <trkpt lat="56.541116" lon="60.839873">
        <ele>237.9</ele>
        <time>2022-06-29T17:06:28.116Z</time>
    </trkpt>
    <trkpt lat="56.541084" lon="60.839874">
        <ele>237.9</ele>
        <time>2022-06-29T17:06:29.116Z</time>
    </trkpt>
    <trkpt lat="56.541073" lon="60.839877">
        <ele>237.9</ele>
        <time>2022-06-29T17:06:30.116Z</time>
    </trkpt>
    <trkpt lat="56.541063" lon="60.83988">
        <ele>237.9</ele>
        <time>2022-06-29T17:06:31.116Z</time>
    </trkpt>
    <trkpt lat="56.541046" lon="60.839884">
        <ele>236.9</ele>
        <time>2022-06-29T17:06:32.116Z</time>
    </trkpt>
    <trkpt lat="56.541032" lon="60.839884">
        <ele>236.9</ele>
        <time>2022-06-29T17:06:33.116Z</time>
    </trkpt>
    <trkpt lat="56.540995" lon="60.839878">
        <ele>236.9</ele>
        <time>2022-06-29T17:06:34.116Z</time>
    </trkpt>
    <trkpt lat="56.540977" lon="60.839876">
        <ele>236.9</ele>
        <time>2022-06-29T17:06:35.116Z</time>
    </trkpt>
    <trkpt lat="56.540965" lon="60.839885">
        <ele>234.9</ele>
        <time>2022-06-29T17:06:36.116Z</time>
    </trkpt>
    <trkpt lat="56.540953" lon="60.839886">
        <ele>234.9</ele>
        <time>2022-06-29T17:06:37.116Z</time>
    </trkpt>
    <trkpt lat="56.540923" lon="60.839889">
        <ele>233.9</ele>
        <time>2022-06-29T17:06:38.116Z</time>
    </trkpt>
    <trkpt lat="56.540914" lon="60.839889">
        <ele>233.9</ele>
        <time>2022-06-29T17:06:39.116Z</time>
    </trkpt>
    <trkpt lat="56.540884" lon="60.839893">
        <ele>233.9</ele>
        <time>2022-06-29T17:06:40.116Z</time>
    </trkpt>
    <trkpt lat="56.540869" lon="60.839882">
        <ele>233.9</ele>
        <time>2022-06-29T17:06:41.116Z</time>
    </trkpt>
    <trkpt lat="56.540857" lon="60.839884">
        <ele>233.9</ele>
        <time>2022-06-29T17:06:42.116Z</time>
    </trkpt>
    <trkpt lat="56.540849" lon="60.839886">
        <ele>233.9</ele>
        <time>2022-06-29T17:06:43.116Z</time>
    </trkpt>
    <trkpt lat="56.540837" lon="60.839888">
        <ele>232.9</ele>
        <time>2022-06-29T17:06:44.116Z</time>
    </trkpt>
    <trkpt lat="56.540825" lon="60.83989">
        <ele>232.9</ele>
        <time>2022-06-29T17:06:45.116Z</time>
    </trkpt>
    <trkpt lat="56.540801" lon="60.839905">
        <ele>232.9</ele>
        <time>2022-06-29T17:06:46.116Z</time>
    </trkpt>
    <trkpt lat="56.540795" lon="60.839909">
        <ele>232.9</ele>
        <time>2022-06-29T17:06:47.116Z</time>
    </trkpt>
    <trkpt lat="56.540776" lon="60.839912">
        <ele>232.9</ele>
        <time>2022-06-29T17:06:48.116Z</time>
    </trkpt>
    <trkpt lat="56.54077" lon="60.839925">
        <ele>232.9</ele>
        <time>2022-06-29T17:06:49.116Z</time>
    </trkpt>
    <trkpt lat="56.540759" lon="60.839927">
        <ele>232.9</ele>
        <time>2022-06-29T17:06:50.116Z</time>
    </trkpt>
    <trkpt lat="56.540748" lon="60.83993">
        <ele>232.9</ele>
        <time>2022-06-29T17:06:51.116Z</time>
    </trkpt>
    <trkpt lat="56.540731" lon="60.839935">
        <ele>231.9</ele>
        <time>2022-06-29T17:06:52.116Z</time>
    </trkpt>
    <trkpt lat="56.540713" lon="60.839937">
        <ele>231.9</ele>
        <time>2022-06-29T17:06:53.116Z</time>
    </trkpt>
    <trkpt lat="56.5407" lon="60.839937">
        <ele>231.9</ele>
        <time>2022-06-29T17:06:54.116Z</time>
    </trkpt>
    <trkpt lat="56.540688" lon="60.839942">
        <ele>231.9</ele>
        <time>2022-06-29T17:06:55.116Z</time>
    </trkpt>
    <trkpt lat="56.540671" lon="60.839942">
        <ele>231.9</ele>
        <time>2022-06-29T17:06:56.116Z</time>
    </trkpt>
    <trkpt lat="56.540664" lon="60.839944">
        <ele>231.9</ele>
        <time>2022-06-29T17:06:57.116Z</time>
    </trkpt>
    <trkpt lat="56.540656" lon="60.839945">
        <ele>231.9</ele>
        <time>2022-06-29T17:06:58.116Z</time>
    </trkpt>
    <trkpt lat="56.540635" lon="60.839953">
        <ele>230.9</ele>
        <time>2022-06-29T17:06:59.116Z</time>
    </trkpt>
    <trkpt lat="56.540622" lon="60.839953">
        <ele>230.9</ele>
        <time>2022-06-29T17:07:00.116Z</time>
    </trkpt>
    <trkpt lat="56.540606" lon="60.839951">
        <ele>230.9</ele>
        <time>2022-06-29T17:07:01.116Z</time>
    </trkpt>
    <trkpt lat="56.540596" lon="60.839953">
        <ele>230.9</ele>
        <time>2022-06-29T17:07:02.116Z</time>
    </trkpt>
    <trkpt lat="56.540564" lon="60.839965">
        <ele>230.9</ele>
        <time>2022-06-29T17:07:03.116Z</time>
    </trkpt>
    <trkpt lat="56.540548" lon="60.839975">
        <ele>228.9</ele>
        <time>2022-06-29T17:07:04.116Z</time>
    </trkpt>
    <trkpt lat="56.540533" lon="60.839997">
        <ele>228.9</ele>
        <time>2022-06-29T17:07:05.116Z</time>
    </trkpt>
    <trkpt lat="56.54052" lon="60.84001">
        <ele>228.9</ele>
        <time>2022-06-29T17:07:06.116Z</time>
    </trkpt>
    <trkpt lat="56.540499" lon="60.840013">
        <ele>228.9</ele>
        <time>2022-06-29T17:07:07.116Z</time>
    </trkpt>
    <trkpt lat="56.540492" lon="60.840007">
        <ele>228.9</ele>
        <time>2022-06-29T17:07:08.116Z</time>
    </trkpt>
    <trkpt lat="56.540465" lon="60.839972">
        <ele>228.9</ele>
        <time>2022-06-29T17:07:09.116Z</time>
    </trkpt>
    <trkpt lat="56.540455" lon="60.839955">
        <ele>227.9</ele>
        <time>2022-06-29T17:07:10.116Z</time>
    </trkpt>
    <trkpt lat="56.540424" lon="60.839911">
        <ele>228.1</ele>
        <time>2022-06-29T17:07:11.116Z</time>
    </trkpt>
    <trkpt lat="56.540408" lon="60.839869">
        <ele>228.2</ele>
        <time>2022-06-29T17:07:12.116Z</time>
    </trkpt>
    <trkpt lat="56.540403" lon="60.839846">
        <ele>228.3</ele>
        <time>2022-06-29T17:07:13.116Z</time>
    </trkpt>
    <trkpt lat="56.540385" lon="60.83978">
        <ele>228.5</ele>
        <time>2022-06-29T17:07:14.116Z</time>
    </trkpt>
    <trkpt lat="56.540357" lon="60.839755">
        <ele>228.6</ele>
        <time>2022-06-29T17:07:15.116Z</time>
    </trkpt>
    <trkpt lat="56.540333" lon="60.839714">
        <ele>228.8</ele>
        <time>2022-06-29T17:07:16.116Z</time>
    </trkpt>
    <trkpt lat="56.540312" lon="60.839675">
        <ele>229.0</ele>
        <time>2022-06-29T17:07:17.116Z</time>
    </trkpt>
    <trkpt lat="56.540304" lon="60.839627">
        <ele>229.1</ele>
        <time>2022-06-29T17:07:18.116Z</time>
    </trkpt>
    <trkpt lat="56.540294" lon="60.83958">
        <ele>229.2</ele>
        <time>2022-06-29T17:07:19.116Z</time>
    </trkpt>
    <trkpt lat="56.540279" lon="60.839534">
        <ele>229.4</ele>
        <time>2022-06-29T17:07:20.116Z</time>
    </trkpt>
    <trkpt lat="56.540272" lon="60.83951">
        <ele>229.5</ele>
        <time>2022-06-29T17:07:21.116Z</time>
    </trkpt>
    <trkpt lat="56.54025" lon="60.839451">
        <ele>229.6</ele>
        <time>2022-06-29T17:07:22.116Z</time>
    </trkpt>
    <trkpt lat="56.540242" lon="60.839441">
        <ele>229.7</ele>
        <time>2022-06-29T17:07:23.116Z</time>
    </trkpt>
    <trkpt lat="56.540225" lon="60.839403">
        <ele>229.8</ele>
        <time>2022-06-29T17:07:24.116Z</time>
    </trkpt>
    <trkpt lat="56.540218" lon="60.839378">
        <ele>229.9</ele>
        <time>2022-06-29T17:07:25.116Z</time>
    </trkpt>
    <trkpt lat="56.540217" lon="60.839341">
        <ele>230.0</ele>
        <time>2022-06-29T17:07:26.116Z</time>
    </trkpt>
    <trkpt lat="56.540215" lon="60.839322">
        <ele>230.0</ele>
        <time>2022-06-29T17:07:27.116Z</time>
    </trkpt>
    <trkpt lat="56.540218" lon="60.839266">
        <ele>230.1</ele>
        <time>2022-06-29T17:07:28.116Z</time>
    </trkpt>
    <trkpt lat="56.540218" lon="60.839251">
        <ele>230.1</ele>
        <time>2022-06-29T17:07:29.116Z</time>
    </trkpt>
    <trkpt lat="56.540222" lon="60.8392">
        <ele>230.2</ele>
        <time>2022-06-29T17:07:30.116Z</time>
    </trkpt>
    <trkpt lat="56.540221" lon="60.839179">
        <ele>230.2</ele>
        <time>2022-06-29T17:07:31.116Z</time>
    </trkpt>
    <trkpt lat="56.54022" lon="60.839111">
        <ele>230.2</ele>
        <time>2022-06-29T17:07:32.116Z</time>
    </trkpt>
    <trkpt lat="56.540221" lon="60.839084">
        <ele>230.3</ele>
        <time>2022-06-29T17:07:33.116Z</time>
    </trkpt>
    <trkpt lat="56.540222" lon="60.839058">
        <ele>230.3</ele>
        <time>2022-06-29T17:07:34.116Z</time>
    </trkpt>
    <trkpt lat="56.540223" lon="60.839032">
        <ele>230.3</ele>
        <time>2022-06-29T17:07:40.116Z</time>
    </trkpt>
    <trkpt lat="56.540224" lon="60.839005">
        <ele>230.3</ele>
        <time>2022-06-29T17:07:41.116Z</time>
    </trkpt>
    <trkpt lat="56.540225" lon="60.838979">
        <ele>230.3</ele>
        <time>2022-06-29T17:07:42.116Z</time>
    </trkpt>
    <trkpt lat="56.540226" lon="60.838953">
        <ele>230.4</ele>
        <time>2022-06-29T17:07:43.116Z</time>
    </trkpt>
    <trkpt lat="56.540228" lon="60.838922">
        <ele>230.4</ele>
        <time>2022-06-29T17:07:44.116Z</time>
    </trkpt>
    <trkpt lat="56.540235" lon="60.838908">
        <ele>230.4</ele>
        <time>2022-06-29T17:07:45.116Z</time>
    </trkpt>
    <trkpt lat="56.540235" lon="60.838908">
        <ele>230.4</ele>
        <time>2022-06-29T17:07:46.116Z</time>
    </trkpt>
    <trkpt lat="56.540239" lon="60.838901">
        <ele>230.4</ele>
        <time>2022-06-29T17:07:47.116Z</time>
    </trkpt>
    <trkpt lat="56.540245" lon="60.838898">
        <ele>230.4</ele>
        <time>2022-06-29T17:07:48.116Z</time>
    </trkpt>
    <trkpt lat="56.540248" lon="60.838886">
        <ele>230.4</ele>
        <time>2022-06-29T17:07:49.116Z</time>
    </trkpt>
    <trkpt lat="56.540253" lon="60.838856">
        <ele>230.4</ele>
        <time>2022-06-29T17:07:50.116Z</time>
    </trkpt>
    <trkpt lat="56.540261" lon="60.838828">
        <ele>230.4</ele>
        <time>2022-06-29T17:07:51.116Z</time>
    </trkpt>
    <trkpt lat="56.540266" lon="60.838775">
        <ele>230.4</ele>
        <time>2022-06-29T17:07:52.116Z</time>
    </trkpt>
    <trkpt lat="56.540278" lon="60.838705">
        <ele>230.3</ele>
        <time>2022-06-29T17:07:53.116Z</time>
    </trkpt>
    <trkpt lat="56.540298" lon="60.838629">
        <ele>230.3</ele>
        <time>2022-06-29T17:07:54.116Z</time>
    </trkpt>
    <trkpt lat="56.540301" lon="60.838567">
        <ele>230.3</ele>
        <time>2022-06-29T17:07:55.116Z</time>
    </trkpt>
    <trkpt lat="56.540313" lon="60.838507">
        <ele>230.2</ele>
        <time>2022-06-29T17:07:56.116Z</time>
    </trkpt>
    <trkpt lat="56.540334" lon="60.838438">
        <ele>230.2</ele>
        <time>2022-06-29T17:07:57.116Z</time>
    </trkpt>
    <trkpt lat="56.540331" lon="60.83836">
        <ele>230.1</ele>
        <time>2022-06-29T17:07:58.116Z</time>
    </trkpt>
    <trkpt lat="56.540319" lon="60.838296">
        <ele>230.1</ele>
        <time>2022-06-29T17:07:59.116Z</time>
    </trkpt>
    <trkpt lat="56.540311" lon="60.838226">
        <ele>230.0</ele>
        <time>2022-06-29T17:08:00.116Z</time>
    </trkpt>
    <trkpt lat="56.540308" lon="60.838164">
        <ele>230.0</ele>
        <time>2022-06-29T17:08:01.116Z</time>
    </trkpt>
    <trkpt lat="56.540307" lon="60.838102">
        <ele>230.0</ele>
        <time>2022-06-29T17:08:02.116Z</time>
    </trkpt>
    <trkpt lat="56.540307" lon="60.838049">
        <ele>229.9</ele>
        <time>2022-06-29T17:08:03.116Z</time>
    </trkpt>
    <trkpt lat="56.540308" lon="60.837991">
        <ele>229.9</ele>
        <time>2022-06-29T17:08:04.116Z</time>
    </trkpt>
    <trkpt lat="56.540297" lon="60.837923">
        <ele>229.9</ele>
        <time>2022-06-29T17:08:05.116Z</time>
    </trkpt>
    <trkpt lat="56.540282" lon="60.837835">
        <ele>229.9</ele>
        <time>2022-06-29T17:08:06.116Z</time>
    </trkpt>
    <trkpt lat="56.540273" lon="60.837784">
        <ele>229.8</ele>
        <time>2022-06-29T17:08:07.116Z</time>
    </trkpt>
    <trkpt lat="56.54027" lon="60.837754">
        <ele>229.8</ele>
        <time>2022-06-29T17:08:08.116Z</time>
    </trkpt>
    <trkpt lat="56.540268" lon="60.83769">
        <ele>229.8</ele>
        <time>2022-06-29T17:08:09.116Z</time>
    </trkpt>
    <trkpt lat="56.540274" lon="60.837657">
        <ele>229.8</ele>
        <time>2022-06-29T17:08:10.116Z</time>
    </trkpt>
    <trkpt lat="56.540278" lon="60.837585">
        <ele>229.8</ele>
        <time>2022-06-29T17:08:11.116Z</time>
    </trkpt>
    <trkpt lat="56.540285" lon="60.83753">
        <ele>229.8</ele>
        <time>2022-06-29T17:08:12.116Z</time>
    </trkpt>
    <trkpt lat="56.540282" lon="60.837479">
        <ele>229.7</ele>
        <time>2022-06-29T17:08:13.116Z</time>
    </trkpt>
    <trkpt lat="56.540279" lon="60.837456">
        <ele>229.7</ele>
        <time>2022-06-29T17:08:14.116Z</time>
    </trkpt>
    <trkpt lat="56.540269" lon="60.837389">
        <ele>229.7</ele>
        <time>2022-06-29T17:08:15.116Z</time>
    </trkpt>
    <trkpt lat="56.540266" lon="60.837325">
        <ele>229.6</ele>
        <time>2022-06-29T17:08:16.116Z</time>
    </trkpt>
    <trkpt lat="56.540261" lon="60.837273">
        <ele>229.6</ele>
        <time>2022-06-29T17:08:17.116Z</time>
    </trkpt>
    <trkpt lat="56.540257" lon="60.837252">
        <ele>229.6</ele>
        <time>2022-06-29T17:08:18.116Z</time>
    </trkpt>
    <trkpt lat="56.540243" lon="60.837187">
        <ele>229.5</ele>
        <time>2022-06-29T17:08:19.116Z</time>
    </trkpt>
    <trkpt lat="56.540232" lon="60.83714">
        <ele>229.5</ele>
        <time>2022-06-29T17:08:20.116Z</time>
    </trkpt>
    <trkpt lat="56.540227" lon="60.837112">
        <ele>229.5</ele>
        <time>2022-06-29T17:08:21.116Z</time>
    </trkpt>
    <trkpt lat="56.540213" lon="60.83704">
        <ele>229.4</ele>
        <time>2022-06-29T17:08:22.116Z</time>
    </trkpt>
    <trkpt lat="56.540206" lon="60.836987">
        <ele>229.4</ele>
        <time>2022-06-29T17:08:23.116Z</time>
    </trkpt>
    <trkpt lat="56.5402" lon="60.836933">
        <ele>229.4</ele>
        <time>2022-06-29T17:08:24.116Z</time>
    </trkpt>
    <trkpt lat="56.540186" lon="60.83687">
        <ele>229.4</ele>
        <time>2022-06-29T17:08:25.116Z</time>
    </trkpt>
    <trkpt lat="56.540181" lon="60.836819">
        <ele>229.4</ele>
        <time>2022-06-29T17:08:26.116Z</time>
    </trkpt>
    <trkpt lat="56.540174" lon="60.836798">
        <ele>229.3</ele>
        <time>2022-06-29T17:08:27.116Z</time>
    </trkpt>
    <trkpt lat="56.540165" lon="60.836742">
        <ele>229.3</ele>
        <time>2022-06-29T17:08:28.116Z</time>
    </trkpt>
    <trkpt lat="56.540153" lon="60.836689">
        <ele>229.3</ele>
        <time>2022-06-29T17:08:29.116Z</time>
    </trkpt>
    <trkpt lat="56.540147" lon="60.836672">
        <ele>229.3</ele>
        <time>2022-06-29T17:08:30.116Z</time>
    </trkpt>
    <trkpt lat="56.540133" lon="60.83663">
        <ele>229.3</ele>
        <time>2022-06-29T17:08:31.116Z</time>
    </trkpt>
    <trkpt lat="56.540128" lon="60.836609">
        <ele>229.3</ele>
        <time>2022-06-29T17:08:32.116Z</time>
    </trkpt>
    <trkpt lat="56.540107" lon="60.836549">
        <ele>229.3</ele>
        <time>2022-06-29T17:08:33.116Z</time>
    </trkpt>
    <trkpt lat="56.540088" lon="60.836511">
        <ele>229.3</ele>
        <time>2022-06-29T17:08:34.116Z</time>
    </trkpt>
    <trkpt lat="56.540084" lon="60.836493">
        <ele>229.3</ele>
        <time>2022-06-29T17:08:35.116Z</time>
    </trkpt>
    <trkpt lat="56.54007" lon="60.836443">
        <ele>229.3</ele>
        <time>2022-06-29T17:08:36.116Z</time>
    </trkpt>
    <trkpt lat="56.540067" lon="60.836427">
        <ele>229.3</ele>
        <time>2022-06-29T17:08:37.116Z</time>
    </trkpt>
    <trkpt lat="56.540059" lon="60.83638">
        <ele>229.3</ele>
        <time>2022-06-29T17:08:38.116Z</time>
    </trkpt>
    <trkpt lat="56.540052" lon="60.83637">
        <ele>229.3</ele>
        <time>2022-06-29T17:08:39.116Z</time>
    </trkpt>
    <trkpt lat="56.540031" lon="60.836326">
        <ele>229.2</ele>
        <time>2022-06-29T17:08:40.116Z</time>
    </trkpt>
    <trkpt lat="56.540026" lon="60.836306">
        <ele>229.2</ele>
        <time>2022-06-29T17:08:41.116Z</time>
    </trkpt>
    <trkpt lat="56.540017" lon="60.836251">
        <ele>229.2</ele>
        <time>2022-06-29T17:08:42.116Z</time>
    </trkpt>
    <trkpt lat="56.540009" lon="60.83624">
        <ele>229.2</ele>
        <time>2022-06-29T17:08:43.116Z</time>
    </trkpt>
    <trkpt lat="56.539997" lon="60.836182">
        <ele>229.2</ele>
        <time>2022-06-29T17:08:44.116Z</time>
    </trkpt>
    <trkpt lat="56.539986" lon="60.836164">
        <ele>229.1</ele>
        <time>2022-06-29T17:08:45.116Z</time>
    </trkpt>
    <trkpt lat="56.539957" lon="60.836114">
        <ele>229.1</ele>
        <time>2022-06-29T17:08:46.116Z</time>
    </trkpt>
    <trkpt lat="56.539954" lon="60.836097">
        <ele>229.1</ele>
        <time>2022-06-29T17:08:47.116Z</time>
    </trkpt>
    <trkpt lat="56.539942" lon="60.836038">
        <ele>229.0</ele>
        <time>2022-06-29T17:08:48.116Z</time>
    </trkpt>
    <trkpt lat="56.539941" lon="60.835984">
        <ele>228.9</ele>
        <time>2022-06-29T17:08:49.116Z</time>
    </trkpt>
    <trkpt lat="56.539936" lon="60.835922">
        <ele>228.9</ele>
        <time>2022-06-29T17:08:50.116Z</time>
    </trkpt>
    <trkpt lat="56.539925" lon="60.835867">
        <ele>228.9</ele>
        <time>2022-06-29T17:08:51.116Z</time>
    </trkpt>
    <trkpt lat="56.539919" lon="60.835846">
        <ele>228.8</ele>
        <time>2022-06-29T17:08:52.116Z</time>
    </trkpt>
    <trkpt lat="56.539903" lon="60.835787">
        <ele>228.8</ele>
        <time>2022-06-29T17:08:53.116Z</time>
    </trkpt>
    <trkpt lat="56.539892" lon="60.835721">
        <ele>228.8</ele>
        <time>2022-06-29T17:08:54.116Z</time>
    </trkpt>
    <trkpt lat="56.539884" lon="60.835699">
        <ele>228.8</ele>
        <time>2022-06-29T17:08:55.116Z</time>
    </trkpt>
    <trkpt lat="56.539876" lon="60.835633">
        <ele>228.8</ele>
        <time>2022-06-29T17:08:56.116Z</time>
    </trkpt>
    <trkpt lat="56.539888" lon="60.835585">
        <ele>228.8</ele>
        <time>2022-06-29T17:08:57.116Z</time>
    </trkpt>
    <trkpt lat="56.539903" lon="60.835537">
        <ele>228.8</ele>
        <time>2022-06-29T17:08:58.116Z</time>
    </trkpt>
    <trkpt lat="56.539932" lon="60.835504">
        <ele>228.8</ele>
        <time>2022-06-29T17:08:59.116Z</time>
    </trkpt>
    <trkpt lat="56.539961" lon="60.835472">
        <ele>228.8</ele>
        <time>2022-06-29T17:09:00.116Z</time>
    </trkpt>
    <trkpt lat="56.53999" lon="60.835439">
        <ele>228.8</ele>
        <time>2022-06-29T17:09:11.116Z</time>
    </trkpt>
    <trkpt lat="56.540025" lon="60.835405">
        <ele>228.8</ele>
        <time>2022-06-29T17:09:12.116Z</time>
    </trkpt>
    <trkpt lat="56.540034" lon="60.83539">
        <ele>228.8</ele>
        <time>2022-06-29T17:09:13.116Z</time>
    </trkpt>
    <trkpt lat="56.540043" lon="60.835374">
        <ele>228.8</ele>
        <time>2022-06-29T17:09:14.116Z</time>
    </trkpt>
    <trkpt lat="56.540053" lon="60.835359">
        <ele>228.8</ele>
        <time>2022-06-29T17:09:15.116Z</time>
    </trkpt>
    <trkpt lat="56.540059" lon="60.835355">
        <ele>228.8</ele>
        <time>2022-06-29T17:09:16.116Z</time>
    </trkpt>
    <trkpt lat="56.540086" lon="60.83533">
        <ele>228.7</ele>
        <time>2022-06-29T17:09:17.116Z</time>
    </trkpt>
    <trkpt lat="56.540097" lon="60.83532">
        <ele>228.7</ele>
        <time>2022-06-29T17:09:18.116Z</time>
    </trkpt>
    <trkpt lat="56.540107" lon="60.83531">
        <ele>228.7</ele>
        <time>2022-06-29T17:09:19.116Z</time>
    </trkpt>
    <trkpt lat="56.540117" lon="60.8353">
        <ele>228.7</ele>
        <time>2022-06-29T17:09:20.116Z</time>
    </trkpt>
    <trkpt lat="56.540128" lon="60.83529">
        <ele>228.7</ele>
        <time>2022-06-29T17:09:21.116Z</time>
    </trkpt>
    <trkpt lat="56.540159" lon="60.835259">
        <ele>228.7</ele>
        <time>2022-06-29T17:09:22.116Z</time>
    </trkpt>
    <trkpt lat="56.540198" lon="60.835191">
        <ele>228.6</ele>
        <time>2022-06-29T17:09:23.116Z</time>
    </trkpt>
    <trkpt lat="56.540213" lon="60.83514">
        <ele>228.6</ele>
        <time>2022-06-29T17:09:24.116Z</time>
    </trkpt>
    <trkpt lat="56.540221" lon="60.835119">
        <ele>228.6</ele>
        <time>2022-06-29T17:09:25.116Z</time>
    </trkpt>
    <trkpt lat="56.540248" lon="60.835063">
        <ele>228.6</ele>
        <time>2022-06-29T17:09:26.116Z</time>
    </trkpt>
    <trkpt lat="56.540276" lon="60.835024">
        <ele>228.5</ele>
        <time>2022-06-29T17:09:27.116Z</time>
    </trkpt>
    <trkpt lat="56.540295" lon="60.834971">
        <ele>228.5</ele>
        <time>2022-06-29T17:09:28.116Z</time>
    </trkpt>
    <trkpt lat="56.540297" lon="60.834904">
        <ele>228.4</ele>
        <time>2022-06-29T17:09:29.116Z</time>
    </trkpt>
    <trkpt lat="56.540309" lon="60.834832">
        <ele>228.4</ele>
        <time>2022-06-29T17:09:30.116Z</time>
    </trkpt>
    <trkpt lat="56.540319" lon="60.834773">
        <ele>228.3</ele>
        <time>2022-06-29T17:09:31.116Z</time>
    </trkpt>
    <trkpt lat="56.540326" lon="60.834723">
        <ele>228.3</ele>
        <time>2022-06-29T17:09:32.116Z</time>
    </trkpt>
    <trkpt lat="56.540331" lon="60.83464">
        <ele>228.3</ele>
        <time>2022-06-29T17:09:33.116Z</time>
    </trkpt>
    <trkpt lat="56.540319" lon="60.834592">
        <ele>228.3</ele>
        <time>2022-06-29T17:09:34.116Z</time>
    </trkpt>
    <trkpt lat="56.540319" lon="60.83456">
        <ele>228.2</ele>
        <time>2022-06-29T17:09:35.116Z</time>
    </trkpt>
    <trkpt lat="56.540312" lon="60.834491">
        <ele>228.2</ele>
        <time>2022-06-29T17:09:36.116Z</time>
    </trkpt>
    <trkpt lat="56.540314" lon="60.834442">
        <ele>228.2</ele>
        <time>2022-06-29T17:09:37.116Z</time>
    </trkpt>
    <trkpt lat="56.54031" lon="60.834432">
        <ele>228.2</ele>
        <time>2022-06-29T17:09:38.116Z</time>
    </trkpt>
    <trkpt lat="56.540299" lon="60.834379">
        <ele>228.2</ele>
        <time>2022-06-29T17:09:39.116Z</time>
    </trkpt>
    <trkpt lat="56.540298" lon="60.834358">
        <ele>228.2</ele>
        <time>2022-06-29T17:09:40.116Z</time>
    </trkpt>
    <trkpt lat="56.540311" lon="60.834301">
        <ele>228.1</ele>
        <time>2022-06-29T17:09:41.116Z</time>
    </trkpt>
    <trkpt lat="56.540316" lon="60.834253">
        <ele>228.1</ele>
        <time>2022-06-29T17:09:42.116Z</time>
    </trkpt>
    <trkpt lat="56.540324" lon="60.834201">
        <ele>228.0</ele>
        <time>2022-06-29T17:09:43.116Z</time>
    </trkpt>
    <trkpt lat="56.540329" lon="60.834181">
        <ele>228.0</ele>
        <time>2022-06-29T17:09:44.116Z</time>
    </trkpt>
    <trkpt lat="56.540335" lon="60.834123">
        <ele>228.0</ele>
        <time>2022-06-29T17:09:45.116Z</time>
    </trkpt>
    <trkpt lat="56.540323" lon="60.834094">
        <ele>227.9</ele>
        <time>2022-06-29T17:09:46.116Z</time>
    </trkpt>
    <trkpt lat="56.54031" lon="60.834086">
        <ele>227.9</ele>
        <time>2022-06-29T17:09:47.116Z</time>
    </trkpt>
    <trkpt lat="56.540304" lon="60.834079">
        <ele>227.9</ele>
        <time>2022-06-29T17:09:48.116Z</time>
    </trkpt>
    <trkpt lat="56.540299" lon="60.834072">
        <ele>227.9</ele>
        <time>2022-06-29T17:09:49.116Z</time>
    </trkpt>
    <trkpt lat="56.540279" lon="60.834048">
        <ele>227.9</ele>
        <time>2022-06-29T17:09:50.116Z</time>
    </trkpt>
    <trkpt lat="56.540261" lon="60.834039">
        <ele>227.9</ele>
        <time>2022-06-29T17:09:51.116Z</time>
    </trkpt>
    <trkpt lat="56.540249" lon="60.834023">
        <ele>227.9</ele>
        <time>2022-06-29T17:09:52.116Z</time>
    </trkpt>
    <trkpt lat="56.540226" lon="60.834008">
        <ele>227.9</ele>
        <time>2022-06-29T17:09:53.116Z</time>
    </trkpt>
    <trkpt lat="56.540218" lon="60.834002">
        <ele>227.9</ele>
        <time>2022-06-29T17:09:54.116Z</time>
    </trkpt>
    <trkpt lat="56.54021" lon="60.833989">
        <ele>227.9</ele>
        <time>2022-06-29T17:09:55.116Z</time>
    </trkpt>
    <trkpt lat="56.540182" lon="60.833952">
        <ele>227.9</ele>
        <time>2022-06-29T17:09:56.116Z</time>
    </trkpt>
    <trkpt lat="56.540154" lon="60.833907">
        <ele>227.9</ele>
        <time>2022-06-29T17:09:57.116Z</time>
    </trkpt>
    <trkpt lat="56.54014" lon="60.83388">
        <ele>227.9</ele>
        <time>2022-06-29T17:09:58.116Z</time>
    </trkpt>
    <trkpt lat="56.540111" lon="60.833819">
        <ele>228.0</ele>
        <time>2022-06-29T17:09:59.116Z</time>
    </trkpt>
    <trkpt lat="56.540072" lon="60.833743">
        <ele>228.0</ele>
        <time>2022-06-29T17:10:02.116Z</time>
    </trkpt>
    <trkpt lat="56.540069" lon="60.833735">
        <ele>228.0</ele>
        <time>2022-06-29T17:10:03.116Z</time>
    </trkpt>
    <trkpt lat="56.540067" lon="60.833727">
        <ele>228.0</ele>
        <time>2022-06-29T17:10:04.116Z</time>
    </trkpt>
    <trkpt lat="56.540064" lon="60.833718">
        <ele>228.0</ele>
        <time>2022-06-29T17:10:05.116Z</time>
    </trkpt>
    <trkpt lat="56.540062" lon="60.83371">
        <ele>228.0</ele>
        <time>2022-06-29T17:10:06.116Z</time>
    </trkpt>
    <trkpt lat="56.540059" lon="60.833702">
        <ele>228.0</ele>
        <time>2022-06-29T17:10:07.116Z</time>
    </trkpt>
    <trkpt lat="56.540057" lon="60.833693">
        <ele>228.0</ele>
        <time>2022-06-29T17:10:08.116Z</time>
    </trkpt>
    <trkpt lat="56.540054" lon="60.833685">
        <ele>228.0</ele>
        <time>2022-06-29T17:10:09.116Z</time>
    </trkpt>
    <trkpt lat="56.540042" lon="60.833655">
        <ele>228.1</ele>
        <time>2022-06-29T17:10:10.116Z</time>
    </trkpt>
    <trkpt lat="56.540029" lon="60.833636">
        <ele>228.1</ele>
        <time>2022-06-29T17:10:11.116Z</time>
    </trkpt>
    <trkpt lat="56.54003" lon="60.833611">
        <ele>228.1</ele>
        <time>2022-06-29T17:10:12.116Z</time>
    </trkpt>
    <trkpt lat="56.540012" lon="60.83356">
        <ele>228.1</ele>
        <time>2022-06-29T17:10:13.116Z</time>
    </trkpt>
    <trkpt lat="56.539993" lon="60.833507">
        <ele>228.1</ele>
        <time>2022-06-29T17:10:14.116Z</time>
    </trkpt>
    <trkpt lat="56.539988" lon="60.833489">
        <ele>228.1</ele>
        <time>2022-06-29T17:10:15.116Z</time>
    </trkpt>
    <trkpt lat="56.539971" lon="60.833442">
        <ele>228.1</ele>
        <time>2022-06-29T17:10:16.116Z</time>
    </trkpt>
    <trkpt lat="56.53995" lon="60.833418">
        <ele>228.1</ele>
        <time>2022-06-29T17:10:17.116Z</time>
    </trkpt>
    <trkpt lat="56.53995" lon="60.83339">
        <ele>228.1</ele>
        <time>2022-06-29T17:10:18.116Z</time>
    </trkpt>
    <trkpt lat="56.539937" lon="60.833342">
        <ele>228.1</ele>
        <time>2022-06-29T17:10:19.116Z</time>
    </trkpt>
    <trkpt lat="56.539925" lon="60.833293">
        <ele>228.1</ele>
        <time>2022-06-29T17:10:20.116Z</time>
    </trkpt>
    <trkpt lat="56.539923" lon="60.83327">
        <ele>228.1</ele>
        <time>2022-06-29T17:10:21.116Z</time>
    </trkpt>
    <trkpt lat="56.539917" lon="60.833204">
        <ele>228.1</ele>
        <time>2022-06-29T17:10:22.116Z</time>
    </trkpt>
    <trkpt lat="56.539913" lon="60.833189">
        <ele>228.1</ele>
        <time>2022-06-29T17:10:23.116Z</time>
    </trkpt>
    <trkpt lat="56.539904" lon="60.833131">
        <ele>228.1</ele>
        <time>2022-06-29T17:10:24.116Z</time>
    </trkpt>
    <trkpt lat="56.539898" lon="60.833108">
        <ele>228.2</ele>
        <time>2022-06-29T17:10:25.116Z</time>
    </trkpt>
    <trkpt lat="56.539883" lon="60.833045">
        <ele>228.2</ele>
        <time>2022-06-29T17:10:26.116Z</time>
    </trkpt>
    <trkpt lat="56.539871" lon="60.832997">
        <ele>228.2</ele>
        <time>2022-06-29T17:10:27.116Z</time>
    </trkpt>
    <trkpt lat="56.539877" lon="60.832936">
        <ele>228.3</ele>
        <time>2022-06-29T17:10:28.116Z</time>
    </trkpt>
    <trkpt lat="56.539873" lon="60.832877">
        <ele>228.3</ele>
        <time>2022-06-29T17:10:29.116Z</time>
    </trkpt>
    <trkpt lat="56.539879" lon="60.832824">
        <ele>228.3</ele>
        <time>2022-06-29T17:10:30.116Z</time>
    </trkpt>
    <trkpt lat="56.539887" lon="60.832772">
        <ele>228.3</ele>
        <time>2022-06-29T17:10:31.116Z</time>
    </trkpt>
    <trkpt lat="56.539892" lon="60.832712">
        <ele>228.3</ele>
        <time>2022-06-29T17:10:32.116Z</time>
    </trkpt>
    <trkpt lat="56.539894" lon="60.832661">
        <ele>228.3</ele>
        <time>2022-06-29T17:10:33.116Z</time>
    </trkpt>
    <trkpt lat="56.539892" lon="60.83264">
        <ele>228.3</ele>
        <time>2022-06-29T17:10:34.116Z</time>
    </trkpt>
    <trkpt lat="56.539881" lon="60.832578">
        <ele>228.3</ele>
        <time>2022-06-29T17:10:35.116Z</time>
    </trkpt>
    <trkpt lat="56.539884" lon="60.832534">
        <ele>228.2</ele>
        <time>2022-06-29T17:10:36.116Z</time>
    </trkpt>
    <trkpt lat="56.539887" lon="60.832491">
        <ele>228.1</ele>
        <time>2022-06-29T17:10:37.116Z</time>
    </trkpt>
    <trkpt lat="56.53989" lon="60.832447">
        <ele>228.1</ele>
        <time>2022-06-29T17:10:50.116Z</time>
    </trkpt>
    <trkpt lat="56.539892" lon="60.832404">
        <ele>228.0</ele>
        <time>2022-06-29T17:10:51.116Z</time>
    </trkpt>
    <trkpt lat="56.539901" lon="60.832348">
        <ele>228.1</ele>
        <time>2022-06-29T17:10:52.116Z</time>
    </trkpt>
    <trkpt lat="56.539907" lon="60.832342">
        <ele>228.1</ele>
        <time>2022-06-29T17:10:53.116Z</time>
    </trkpt>
    <trkpt lat="56.539911" lon="60.832335">
        <ele>228.2</ele>
        <time>2022-06-29T17:10:54.116Z</time>
    </trkpt>
    <trkpt lat="56.53992" lon="60.832328">
        <ele>228.2</ele>
        <time>2022-06-29T17:10:55.116Z</time>
    </trkpt>
    <trkpt lat="56.539925" lon="60.832314">
        <ele>228.2</ele>
        <time>2022-06-29T17:10:56.116Z</time>
    </trkpt>
    <trkpt lat="56.539931" lon="60.832315">
        <ele>228.2</ele>
        <time>2022-06-29T17:10:57.116Z</time>
    </trkpt>
    <trkpt lat="56.539937" lon="60.832316">
        <ele>228.3</ele>
        <time>2022-06-29T17:10:58.116Z</time>
    </trkpt>
    <trkpt lat="56.539942" lon="60.832317">
        <ele>228.3</ele>
        <time>2022-06-29T17:10:59.116Z</time>
    </trkpt>
    <trkpt lat="56.539962" lon="60.832298">
        <ele>228.3</ele>
        <time>2022-06-29T17:11:00.116Z</time>
    </trkpt>
    <trkpt lat="56.53998" lon="60.832247">
        <ele>228.4</ele>
        <time>2022-06-29T17:11:01.116Z</time>
    </trkpt>
    <trkpt lat="56.539989" lon="60.832211">
        <ele>228.5</ele>
        <time>2022-06-29T17:11:02.116Z</time>
    </trkpt>
    <trkpt lat="56.540007" lon="60.832131">
        <ele>228.6</ele>
        <time>2022-06-29T17:11:03.116Z</time>
    </trkpt>
    <trkpt lat="56.540009" lon="60.832072">
        <ele>228.6</ele>
        <time>2022-06-29T17:11:04.116Z</time>
    </trkpt>
    <trkpt lat="56.540015" lon="60.832044">
        <ele>228.7</ele>
        <time>2022-06-29T17:11:05.116Z</time>
    </trkpt>
    <trkpt lat="56.540025" lon="60.831978">
        <ele>228.8</ele>
        <time>2022-06-29T17:11:06.116Z</time>
    </trkpt>
    <trkpt lat="56.540033" lon="60.831899">
        <ele>228.8</ele>
        <time>2022-06-29T17:11:07.116Z</time>
    </trkpt>
    <trkpt lat="56.540036" lon="60.831868">
        <ele>228.9</ele>
        <time>2022-06-29T17:11:08.116Z</time>
    </trkpt>
    <trkpt lat="56.540043" lon="60.8318">
        <ele>228.9</ele>
        <time>2022-06-29T17:11:09.116Z</time>
    </trkpt>
    <trkpt lat="56.540051" lon="60.831774">
        <ele>228.9</ele>
        <time>2022-06-29T17:11:10.116Z</time>
    </trkpt>
    <trkpt lat="56.540064" lon="60.831712">
        <ele>229.0</ele>
        <time>2022-06-29T17:11:11.116Z</time>
    </trkpt>
    <trkpt lat="56.540067" lon="60.831674">
        <ele>229.0</ele>
        <time>2022-06-29T17:11:12.116Z</time>
    </trkpt>
    <trkpt lat="56.540076" lon="60.831652">
        <ele>229.1</ele>
        <time>2022-06-29T17:11:13.116Z</time>
    </trkpt>
    <trkpt lat="56.540077" lon="60.831602">
        <ele>229.1</ele>
        <time>2022-06-29T17:11:14.116Z</time>
    </trkpt>
    <trkpt lat="56.540074" lon="60.831547">
        <ele>229.2</ele>
        <time>2022-06-29T17:11:15.116Z</time>
    </trkpt>
    <trkpt lat="56.540077" lon="60.83153">
        <ele>229.2</ele>
        <time>2022-06-29T17:11:16.116Z</time>
    </trkpt>
    <trkpt lat="56.540085" lon="60.831483">
        <ele>229.3</ele>
        <time>2022-06-29T17:11:17.116Z</time>
    </trkpt>
    <trkpt lat="56.540087" lon="60.831456">
        <ele>229.3</ele>
        <time>2022-06-29T17:11:18.116Z</time>
    </trkpt>
    <trkpt lat="56.540099" lon="60.831395">
        <ele>229.4</ele>
        <time>2022-06-29T17:11:19.116Z</time>
    </trkpt>
    <trkpt lat="56.540102" lon="60.831373">
        <ele>229.4</ele>
        <time>2022-06-29T17:11:20.116Z</time>
    </trkpt>
    <trkpt lat="56.540112" lon="60.831314">
        <ele>229.4</ele>
        <time>2022-06-29T17:11:21.116Z</time>
    </trkpt>
    <trkpt lat="56.540122" lon="60.831288">
        <ele>229.5</ele>
        <time>2022-06-29T17:11:22.116Z</time>
    </trkpt>
    <trkpt lat="56.540142" lon="60.831221">
        <ele>229.5</ele>
        <time>2022-06-29T17:11:23.116Z</time>
    </trkpt>
    <trkpt lat="56.540157" lon="60.831194">
        <ele>229.5</ele>
        <time>2022-06-29T17:11:24.116Z</time>
    </trkpt>
    <trkpt lat="56.540159" lon="60.831164">
        <ele>229.5</ele>
        <time>2022-06-29T17:11:25.116Z</time>
    </trkpt>
    <trkpt lat="56.54018" lon="60.831119">
        <ele>229.6</ele>
        <time>2022-06-29T17:11:26.116Z</time>
    </trkpt>
    <trkpt lat="56.540194" lon="60.831071">
        <ele>229.6</ele>
        <time>2022-06-29T17:11:27.116Z</time>
    </trkpt>
    <trkpt lat="56.540199" lon="60.831057">
        <ele>229.6</ele>
        <time>2022-06-29T17:11:28.116Z</time>
    </trkpt>
    <trkpt lat="56.540221" lon="60.831022">
        <ele>229.6</ele>
        <time>2022-06-29T17:11:29.116Z</time>
    </trkpt>
    <trkpt lat="56.540222" lon="60.831002">
        <ele>229.6</ele>
        <time>2022-06-29T17:11:30.116Z</time>
    </trkpt>
    <trkpt lat="56.540236" lon="60.830978">
        <ele>229.6</ele>
        <time>2022-06-29T17:11:31.116Z</time>
    </trkpt>
    <trkpt lat="56.540248" lon="60.83095">
        <ele>229.7</ele>
        <time>2022-06-29T17:11:32.116Z</time>
    </trkpt>
    <trkpt lat="56.540278" lon="60.830893">
        <ele>229.7</ele>
        <time>2022-06-29T17:11:33.116Z</time>
    </trkpt>
    <trkpt lat="56.540289" lon="60.830868">
        <ele>229.8</ele>
        <time>2022-06-29T17:11:34.116Z</time>
    </trkpt>
    <trkpt lat="56.540316" lon="60.830818">
        <ele>229.8</ele>
        <time>2022-06-29T17:11:35.116Z</time>
    </trkpt>
    <trkpt lat="56.540323" lon="60.830809">
        <ele>229.8</ele>
        <time>2022-06-29T17:11:36.116Z</time>
    </trkpt>
    <trkpt lat="56.540344" lon="60.830768">
        <ele>229.9</ele>
        <time>2022-06-29T17:11:37.116Z</time>
    </trkpt>
    <trkpt lat="56.540361" lon="60.830725">
        <ele>229.9</ele>
        <time>2022-06-29T17:11:38.116Z</time>
    </trkpt>
    <trkpt lat="56.54036" lon="60.830714">
        <ele>229.9</ele>
        <time>2022-06-29T17:11:39.116Z</time>
    </trkpt>
    <trkpt lat="56.540376" lon="60.830674">
        <ele>230.0</ele>
        <time>2022-06-29T17:11:40.116Z</time>
    </trkpt>
    <trkpt lat="56.54038" lon="60.830656">
        <ele>230.0</ele>
        <time>2022-06-29T17:11:41.116Z</time>
    </trkpt>
    <trkpt lat="56.540396" lon="60.830616">
        <ele>230.1</ele>
        <time>2022-06-29T17:11:42.116Z</time>
    </trkpt>
    <trkpt lat="56.540402" lon="60.830598">
        <ele>230.1</ele>
        <time>2022-06-29T17:11:43.116Z</time>
    </trkpt>
    <trkpt lat="56.540411" lon="60.830542">
        <ele>230.2</ele>
        <time>2022-06-29T17:11:44.116Z</time>
    </trkpt>
    <trkpt lat="56.540408" lon="60.830523">
        <ele>230.2</ele>
        <time>2022-06-29T17:11:45.116Z</time>
    </trkpt>
    <trkpt lat="56.540411" lon="60.830463">
        <ele>230.3</ele>
        <time>2022-06-29T17:11:47.116Z</time>
    </trkpt>
    <trkpt lat="56.540425" lon="60.830425">
        <ele>230.4</ele>
        <time>2022-06-29T17:11:48.116Z</time>
    </trkpt>
    <trkpt lat="56.540428" lon="60.830382">
        <ele>230.4</ele>
        <time>2022-06-29T17:11:49.116Z</time>
    </trkpt>
    <trkpt lat="56.540429" lon="60.83029">
        <ele>230.5</ele>
        <time>2022-06-29T17:11:50.116Z</time>
    </trkpt>
    <trkpt lat="56.540417" lon="60.830245">
        <ele>230.6</ele>
        <time>2022-06-29T17:11:51.116Z</time>
    </trkpt>
    <trkpt lat="56.540408" lon="60.830184">
        <ele>230.7</ele>
        <time>2022-06-29T17:11:52.116Z</time>
    </trkpt>
    <trkpt lat="56.540395" lon="60.830135">
        <ele>230.8</ele>
        <time>2022-06-29T17:11:53.116Z</time>
    </trkpt>
    <trkpt lat="56.540378" lon="60.830086">
        <ele>230.9</ele>
        <time>2022-06-29T17:11:54.116Z</time>
    </trkpt>
    <trkpt lat="56.54036" lon="60.830025">
        <ele>231.0</ele>
        <time>2022-06-29T17:11:55.116Z</time>
    </trkpt>
    <trkpt lat="56.540357" lon="60.829997">
        <ele>231.0</ele>
        <time>2022-06-29T17:11:56.116Z</time>
    </trkpt>
    <trkpt lat="56.540341" lon="60.829927">
        <ele>231.2</ele>
        <time>2022-06-29T17:11:57.116Z</time>
    </trkpt>
    <trkpt lat="56.540332" lon="60.829904">
        <ele>231.2</ele>
        <time>2022-06-29T17:11:58.116Z</time>
    </trkpt>
    <trkpt lat="56.540316" lon="60.829833">
        <ele>231.4</ele>
        <time>2022-06-29T17:11:59.116Z</time>
    </trkpt>
    <trkpt lat="56.540313" lon="60.829782">
        <ele>231.5</ele>
        <time>2022-06-29T17:12:00.116Z</time>
    </trkpt>
    <trkpt lat="56.540305" lon="60.829715">
        <ele>231.6</ele>
        <time>2022-06-29T17:12:01.116Z</time>
    </trkpt>
    <trkpt lat="56.540292" lon="60.829669">
        <ele>231.7</ele>
        <time>2022-06-29T17:12:03.116Z</time>
    </trkpt>
    <trkpt lat="56.540283" lon="60.829616">
        <ele>231.8</ele>
        <time>2022-06-29T17:12:04.116Z</time>
    </trkpt>
    <trkpt lat="56.540277" lon="60.829564">
        <ele>232.0</ele>
        <time>2022-06-29T17:12:05.116Z</time>
    </trkpt>
    <trkpt lat="56.540277" lon="60.829509">
        <ele>232.1</ele>
        <time>2022-06-29T17:12:06.116Z</time>
    </trkpt>
    <trkpt lat="56.540263" lon="60.829456">
        <ele>232.2</ele>
        <time>2022-06-29T17:12:07.116Z</time>
    </trkpt>
    <trkpt lat="56.540268" lon="60.829405">
        <ele>232.2</ele>
        <time>2022-06-29T17:12:08.116Z</time>
    </trkpt>
    <trkpt lat="56.540268" lon="60.829347">
        <ele>232.3</ele>
        <time>2022-06-29T17:12:09.116Z</time>
    </trkpt>
    <trkpt lat="56.540279" lon="60.829298">
        <ele>232.3</ele>
        <time>2022-06-29T17:12:10.116Z</time>
    </trkpt>
    <trkpt lat="56.540285" lon="60.829279">
        <ele>232.3</ele>
        <time>2022-06-29T17:12:11.116Z</time>
    </trkpt>
    <trkpt lat="56.540306" lon="60.829223">
        <ele>232.4</ele>
        <time>2022-06-29T17:12:12.116Z</time>
    </trkpt>
    <trkpt lat="56.540326" lon="60.829185">
        <ele>232.5</ele>
        <time>2022-06-29T17:12:13.116Z</time>
    </trkpt>
    <trkpt lat="56.540331" lon="60.829166">
        <ele>232.5</ele>
        <time>2022-06-29T17:12:14.116Z</time>
    </trkpt>
    <trkpt lat="56.540351" lon="60.829108">
        <ele>232.5</ele>
        <time>2022-06-29T17:12:15.116Z</time>
    </trkpt>
    <trkpt lat="56.540366" lon="60.829065">
        <ele>232.6</ele>
        <time>2022-06-29T17:12:16.116Z</time>
    </trkpt>
    <trkpt lat="56.540373" lon="60.82904">
        <ele>232.6</ele>
        <time>2022-06-29T17:12:17.116Z</time>
    </trkpt>
    <trkpt lat="56.5404" lon="60.828984">
        <ele>232.7</ele>
        <time>2022-06-29T17:12:18.116Z</time>
    </trkpt>
    <trkpt lat="56.540412" lon="60.828928">
        <ele>232.8</ele>
        <time>2022-06-29T17:12:19.116Z</time>
    </trkpt>
    <trkpt lat="56.540448" lon="60.828839">
        <ele>232.9</ele>
        <time>2022-06-29T17:12:20.116Z</time>
    </trkpt>
    <trkpt lat="56.540453" lon="60.828809">
        <ele>232.9</ele>
        <time>2022-06-29T17:12:21.116Z</time>
    </trkpt>
    <trkpt lat="56.540477" lon="60.828749">
        <ele>233.0</ele>
        <time>2022-06-29T17:12:22.116Z</time>
    </trkpt>
    <trkpt lat="56.540495" lon="60.828694">
        <ele>233.0</ele>
        <time>2022-06-29T17:12:23.116Z</time>
    </trkpt>
    <trkpt lat="56.540516" lon="60.828652">
        <ele>233.1</ele>
        <time>2022-06-29T17:12:24.116Z</time>
    </trkpt>
    <trkpt lat="56.540531" lon="60.828612">
        <ele>233.1</ele>
        <time>2022-06-29T17:12:25.116Z</time>
    </trkpt>
    <trkpt lat="56.540548" lon="60.828572">
        <ele>233.2</ele>
        <time>2022-06-29T17:12:26.116Z</time>
    </trkpt>
    <trkpt lat="56.540563" lon="60.82851">
        <ele>233.2</ele>
        <time>2022-06-29T17:12:27.116Z</time>
    </trkpt>
    <trkpt lat="56.540576" lon="60.828466">
        <ele>233.3</ele>
        <time>2022-06-29T17:12:28.116Z</time>
    </trkpt>
    <trkpt lat="56.540591" lon="60.828403">
        <ele>233.4</ele>
        <time>2022-06-29T17:12:29.116Z</time>
    </trkpt>
    <trkpt lat="56.540617" lon="60.828376">
        <ele>233.4</ele>
        <time>2022-06-29T17:12:30.116Z</time>
    </trkpt>
    <trkpt lat="56.540628" lon="60.828351">
        <ele>233.4</ele>
        <time>2022-06-29T17:12:31.116Z</time>
    </trkpt>
    <trkpt lat="56.540648" lon="60.828284">
        <ele>233.5</ele>
        <time>2022-06-29T17:12:32.116Z</time>
    </trkpt>
    <trkpt lat="56.540657" lon="60.828259">
        <ele>233.5</ele>
        <time>2022-06-29T17:12:33.116Z</time>
    </trkpt>
    <trkpt lat="56.540678" lon="60.8282">
        <ele>233.6</ele>
        <time>2022-06-29T17:12:34.116Z</time>
    </trkpt>
    <trkpt lat="56.540678" lon="60.828172">
        <ele>233.6</ele>
        <time>2022-06-29T17:12:35.116Z</time>
    </trkpt>
    <trkpt lat="56.540678" lon="60.828144">
        <ele>233.7</ele>
        <time>2022-06-29T17:12:36.116Z</time>
    </trkpt>
    <trkpt lat="56.540679" lon="60.828116">
        <ele>233.7</ele>
        <time>2022-06-29T17:12:56.116Z</time>
    </trkpt>
    <trkpt lat="56.540679" lon="60.828087">
        <ele>233.7</ele>
        <time>2022-06-29T17:12:57.116Z</time>
    </trkpt>
    <trkpt lat="56.540679" lon="60.828059">
        <ele>233.8</ele>
        <time>2022-06-29T17:12:58.116Z</time>
    </trkpt>
    <trkpt lat="56.540682" lon="60.828025">
        <ele>233.8</ele>
        <time>2022-06-29T17:12:59.116Z</time>
    </trkpt>
    <trkpt lat="56.540684" lon="60.828014">
        <ele>233.8</ele>
        <time>2022-06-29T17:13:00.116Z</time>
    </trkpt>
    <trkpt lat="56.540684" lon="60.828014">
        <ele>233.8</ele>
        <time>2022-06-29T17:13:01.116Z</time>
    </trkpt>
    <trkpt lat="56.540683" lon="60.828004">
        <ele>233.8</ele>
        <time>2022-06-29T17:13:02.116Z</time>
    </trkpt>
    <trkpt lat="56.540686" lon="60.827999">
        <ele>233.8</ele>
        <time>2022-06-29T17:13:03.116Z</time>
    </trkpt>
    <trkpt lat="56.540685" lon="60.827993">
        <ele>233.8</ele>
        <time>2022-06-29T17:13:04.116Z</time>
    </trkpt>
    <trkpt lat="56.540686" lon="60.827987">
        <ele>233.8</ele>
        <time>2022-06-29T17:13:05.116Z</time>
    </trkpt>
    <trkpt lat="56.54068" lon="60.827963">
        <ele>233.9</ele>
        <time>2022-06-29T17:13:06.116Z</time>
    </trkpt>
    <trkpt lat="56.54068" lon="60.82795">
        <ele>233.9</ele>
        <time>2022-06-29T17:13:07.116Z</time>
    </trkpt>
    <trkpt lat="56.540679" lon="60.827937">
        <ele>233.9</ele>
        <time>2022-06-29T17:13:08.116Z</time>
    </trkpt>
    <trkpt lat="56.540678" lon="60.827924">
        <ele>233.9</ele>
        <time>2022-06-29T17:13:09.116Z</time>
    </trkpt>
    <trkpt lat="56.540677" lon="60.827911">
        <ele>233.9</ele>
        <time>2022-06-29T17:13:10.116Z</time>
    </trkpt>
    <trkpt lat="56.540676" lon="60.827898">
        <ele>233.9</ele>
        <time>2022-06-29T17:13:11.116Z</time>
    </trkpt>
    <trkpt lat="56.540675" lon="60.827884">
        <ele>233.9</ele>
        <time>2022-06-29T17:13:12.116Z</time>
    </trkpt>
    <trkpt lat="56.540674" lon="60.827871">
        <ele>233.9</ele>
        <time>2022-06-29T17:13:13.116Z</time>
    </trkpt>
    <trkpt lat="56.540673" lon="60.82786">
        <ele>234.0</ele>
        <time>2022-06-29T17:13:14.116Z</time>
    </trkpt>
    <trkpt lat="56.540671" lon="60.827822">
        <ele>234.0</ele>
        <time>2022-06-29T17:13:15.116Z</time>
    </trkpt>
    <trkpt lat="56.540664" lon="60.827808">
        <ele>234.0</ele>
        <time>2022-06-29T17:13:16.116Z</time>
    </trkpt>
    <trkpt lat="56.540662" lon="60.82779">
        <ele>234.0</ele>
        <time>2022-06-29T17:13:17.116Z</time>
    </trkpt>
    <trkpt lat="56.54066" lon="60.827771">
        <ele>234.0</ele>
        <time>2022-06-29T17:13:18.116Z</time>
    </trkpt>
    <trkpt lat="56.540658" lon="60.827752">
        <ele>234.1</ele>
        <time>2022-06-29T17:13:19.116Z</time>
    </trkpt>
    <trkpt lat="56.540657" lon="60.827728">
        <ele>234.0</ele>
        <time>2022-06-29T17:13:20.116Z</time>
    </trkpt>
    <trkpt lat="56.540654" lon="60.827706">
        <ele>234.0</ele>
        <time>2022-06-29T17:13:21.116Z</time>
    </trkpt>
    <trkpt lat="56.540654" lon="60.827667">
        <ele>236.0</ele>
        <time>2022-06-29T17:13:22.116Z</time>
    </trkpt>
    <trkpt lat="56.540659" lon="60.827645">
        <ele>236.0</ele>
        <time>2022-06-29T17:13:23.116Z</time>
    </trkpt>
    <trkpt lat="56.540652" lon="60.827617">
        <ele>235.9</ele>
        <time>2022-06-29T17:13:24.116Z</time>
    </trkpt>
    <trkpt lat="56.540649" lon="60.8276">
        <ele>235.9</ele>
        <time>2022-06-29T17:13:25.116Z</time>
    </trkpt>
    <trkpt lat="56.540634" lon="60.827579">
        <ele>235.9</ele>
        <time>2022-06-29T17:13:26.116Z</time>
    </trkpt>
    <trkpt lat="56.540625" lon="60.827566">
        <ele>235.8</ele>
        <time>2022-06-29T17:13:27.116Z</time>
    </trkpt>
    <trkpt lat="56.540604" lon="60.827534">
        <ele>235.8</ele>
        <time>2022-06-29T17:13:28.116Z</time>
    </trkpt>
    <trkpt lat="56.540595" lon="60.827527">
        <ele>235.8</ele>
        <time>2022-06-29T17:13:29.116Z</time>
    </trkpt>
    <trkpt lat="56.540562" lon="60.827497">
        <ele>237.8</ele>
        <time>2022-06-29T17:13:30.116Z</time>
    </trkpt>
    <trkpt lat="56.540554" lon="60.827495">
        <ele>236.7</ele>
        <time>2022-06-29T17:13:31.116Z</time>
    </trkpt>
    <trkpt lat="56.540525" lon="60.82747">
        <ele>236.7</ele>
        <time>2022-06-29T17:13:32.116Z</time>
    </trkpt>
    <trkpt lat="56.540515" lon="60.827462">
        <ele>236.7</ele>
        <time>2022-06-29T17:13:33.116Z</time>
    </trkpt>
    <trkpt lat="56.540488" lon="60.827439">
        <ele>236.6</ele>
        <time>2022-06-29T17:13:34.116Z</time>
    </trkpt>
    <trkpt lat="56.540457" lon="60.827414">
        <ele>236.6</ele>
        <time>2022-06-29T17:13:35.116Z</time>
    </trkpt>
    <trkpt lat="56.540437" lon="60.827393">
        <ele>236.6</ele>
        <time>2022-06-29T17:13:36.116Z</time>
    </trkpt>
    <trkpt lat="56.540427" lon="60.827392">
        <ele>236.6</ele>
        <time>2022-06-29T17:13:37.116Z</time>
    </trkpt>
    <trkpt lat="56.540413" lon="60.827382">
        <ele>236.5</ele>
        <time>2022-06-29T17:13:38.116Z</time>
    </trkpt>
    <trkpt lat="56.540374" lon="60.827361">
        <ele>236.5</ele>
        <time>2022-06-29T17:13:39.116Z</time>
    </trkpt>
    <trkpt lat="56.540364" lon="60.827353">
        <ele>236.5</ele>
        <time>2022-06-29T17:13:40.116Z</time>
    </trkpt>
    <trkpt lat="56.540336" lon="60.827318">
        <ele>237.4</ele>
        <time>2022-06-29T17:13:41.116Z</time>
    </trkpt>
    <trkpt lat="56.540304" lon="60.827288">
        <ele>237.4</ele>
        <time>2022-06-29T17:13:42.116Z</time>
    </trkpt>
    <trkpt lat="56.540277" lon="60.82727">
        <ele>237.4</ele>
        <time>2022-06-29T17:13:43.116Z</time>
    </trkpt>
    <trkpt lat="56.540264" lon="60.827264">
        <ele>237.4</ele>
        <time>2022-06-29T17:13:44.116Z</time>
    </trkpt>
    <trkpt lat="56.540251" lon="60.827257">
        <ele>237.3</ele>
        <time>2022-06-29T17:13:45.116Z</time>
    </trkpt>
    <trkpt lat="56.540234" lon="60.827252">
        <ele>237.3</ele>
        <time>2022-06-29T17:13:46.116Z</time>
    </trkpt>
    <trkpt lat="56.54022" lon="60.827247">
        <ele>237.3</ele>
        <time>2022-06-29T17:13:47.116Z</time>
    </trkpt>
    <trkpt lat="56.540182" lon="60.82723">
        <ele>237.3</ele>
        <time>2022-06-29T17:13:48.116Z</time>
    </trkpt>
    <trkpt lat="56.540168" lon="60.827231">
        <ele>237.2</ele>
        <time>2022-06-29T17:13:49.116Z</time>
    </trkpt>
    <trkpt lat="56.540129" lon="60.827237">
        <ele>237.2</ele>
        <time>2022-06-29T17:13:50.116Z</time>
    </trkpt>
    <trkpt lat="56.540118" lon="60.827234">
        <ele>237.2</ele>
        <time>2022-06-29T17:13:51.116Z</time>
    </trkpt>
    <trkpt lat="56.540091" lon="60.827224">
        <ele>237.1</ele>
        <time>2022-06-29T17:13:52.116Z</time>
    </trkpt>
    <trkpt lat="56.540077" lon="60.827217">
        <ele>236.1</ele>
        <time>2022-06-29T17:13:53.116Z</time>
    </trkpt>
    <trkpt lat="56.54005" lon="60.827209">
        <ele>236.1</ele>
        <time>2022-06-29T17:13:54.116Z</time>
    </trkpt>
    <trkpt lat="56.54004" lon="60.827205">
        <ele>236.1</ele>
        <time>2022-06-29T17:13:55.116Z</time>
    </trkpt>
    <trkpt lat="56.540018" lon="60.827187">
        <ele>236.0</ele>
        <time>2022-06-29T17:13:56.116Z</time>
    </trkpt>
    <trkpt lat="56.539993" lon="60.827168">
        <ele>237.0</ele>
        <time>2022-06-29T17:13:57.116Z</time>
    </trkpt>
    <trkpt lat="56.539977" lon="60.827168">
        <ele>237.0</ele>
        <time>2022-06-29T17:13:58.116Z</time>
    </trkpt>
    <trkpt lat="56.539961" lon="60.82718">
        <ele>235.9</ele>
        <time>2022-06-29T17:13:59.116Z</time>
    </trkpt>
    <trkpt lat="56.539958" lon="60.827174">
        <ele>236.9</ele>
        <time>2022-06-29T17:14:00.116Z</time>
    </trkpt>
    <trkpt lat="56.539943" lon="60.827192">
        <ele>235.9</ele>
        <time>2022-06-29T17:14:01.116Z</time>
    </trkpt>
    <trkpt lat="56.539931" lon="60.827206">
        <ele>235.9</ele>
        <time>2022-06-29T17:14:02.116Z</time>
    </trkpt>
    <trkpt lat="56.53992" lon="60.827205">
        <ele>235.8</ele>
        <time>2022-06-29T17:14:03.116Z</time>
    </trkpt>
    <trkpt lat="56.539914" lon="60.827213">
        <ele>235.8</ele>
        <time>2022-06-29T17:14:04.116Z</time>
    </trkpt>
    <trkpt lat="56.539905" lon="60.827219">
        <ele>235.8</ele>
        <time>2022-06-29T17:14:05.116Z</time>
    </trkpt>
    <trkpt lat="56.5399" lon="60.827218">
        <ele>235.7</ele>
        <time>2022-06-29T17:14:06.116Z</time>
    </trkpt>
    <trkpt lat="56.539885" lon="60.82724">
        <ele>234.7</ele>
        <time>2022-06-29T17:14:07.116Z</time>
    </trkpt>
    <trkpt lat="56.53988" lon="60.827243">
        <ele>234.7</ele>
        <time>2022-06-29T17:14:08.116Z</time>
    </trkpt>
    <trkpt lat="56.539872" lon="60.827241">
        <ele>234.7</ele>
        <time>2022-06-29T17:14:09.116Z</time>
    </trkpt>
    <trkpt lat="56.539872" lon="60.827247">
        <ele>234.6</ele>
        <time>2022-06-29T17:14:10.116Z</time>
    </trkpt>
    <trkpt lat="56.539862" lon="60.827244">
        <ele>234.6</ele>
        <time>2022-06-29T17:14:11.116Z</time>
    </trkpt>
    <trkpt lat="56.539835" lon="60.827247">
        <ele>234.6</ele>
        <time>2022-06-29T17:14:12.116Z</time>
    </trkpt>
    <trkpt lat="56.539827" lon="60.827248">
        <ele>234.6</ele>
        <time>2022-06-29T17:14:13.116Z</time>
    </trkpt>
    <trkpt lat="56.539818" lon="60.827249">
        <ele>234.5</ele>
        <time>2022-06-29T17:14:14.116Z</time>
    </trkpt>
    <trkpt lat="56.539796" lon="60.82725">
        <ele>233.5</ele>
        <time>2022-06-29T17:14:15.116Z</time>
    </trkpt>
    <trkpt lat="56.539783" lon="60.827254">
        <ele>233.5</ele>
        <time>2022-06-29T17:14:16.116Z</time>
    </trkpt>
    <trkpt lat="56.539769" lon="60.827258">
        <ele>233.4</ele>
        <time>2022-06-29T17:14:17.116Z</time>
    </trkpt>
    <trkpt lat="56.539758" lon="60.827258">
        <ele>233.4</ele>
        <time>2022-06-29T17:14:18.116Z</time>
    </trkpt>
    <trkpt lat="56.539722" lon="60.827257">
        <ele>233.4</ele>
        <time>2022-06-29T17:14:19.116Z</time>
    </trkpt>
    <trkpt lat="56.539711" lon="60.827248">
        <ele>233.4</ele>
        <time>2022-06-29T17:14:20.116Z</time>
    </trkpt>
    <trkpt lat="56.539704" lon="60.827238">
        <ele>233.3</ele>
        <time>2022-06-29T17:14:21.116Z</time>
    </trkpt>
    <trkpt lat="56.539692" lon="60.827229">
        <ele>233.3</ele>
        <time>2022-06-29T17:14:22.116Z</time>
    </trkpt>
    <trkpt lat="56.539678" lon="60.827218">
        <ele>233.3</ele>
        <time>2022-06-29T17:14:23.116Z</time>
    </trkpt>
    <trkpt lat="56.539652" lon="60.827201">
        <ele>233.2</ele>
        <time>2022-06-29T17:14:24.116Z</time>
    </trkpt>
    <trkpt lat="56.539637" lon="60.827189">
        <ele>233.2</ele>
        <time>2022-06-29T17:14:25.116Z</time>
    </trkpt>
    <trkpt lat="56.539626" lon="60.827181">
        <ele>233.2</ele>
        <time>2022-06-29T17:14:26.116Z</time>
    </trkpt>
    <trkpt lat="56.539594" lon="60.827167">
        <ele>233.2</ele>
        <time>2022-06-29T17:14:27.116Z</time>
    </trkpt>
    <trkpt lat="56.539575" lon="60.827148">
        <ele>233.1</ele>
        <time>2022-06-29T17:14:28.116Z</time>
    </trkpt>
    <trkpt lat="56.539568" lon="60.827139">
        <ele>233.1</ele>
        <time>2022-06-29T17:14:29.116Z</time>
    </trkpt>
    <trkpt lat="56.539541" lon="60.827115">
        <ele>233.1</ele>
        <time>2022-06-29T17:14:30.116Z</time>
    </trkpt>
    <trkpt lat="56.539532" lon="60.827106">
        <ele>233.0</ele>
        <time>2022-06-29T17:14:31.116Z</time>
    </trkpt>
    <trkpt lat="56.539508" lon="60.827077">
        <ele>232.0</ele>
        <time>2022-06-29T17:14:32.116Z</time>
    </trkpt>
    <trkpt lat="56.539498" lon="60.827065">
        <ele>232.0</ele>
        <time>2022-06-29T17:14:33.116Z</time>
    </trkpt>
    <trkpt lat="56.539471" lon="60.827043">
        <ele>232.0</ele>
        <time>2022-06-29T17:14:34.116Z</time>
    </trkpt>
    <trkpt lat="56.539458" lon="60.826997">
        <ele>232.0</ele>
        <time>2022-06-29T17:14:35.116Z</time>
    </trkpt>
    <trkpt lat="56.539443" lon="60.826956">
        <ele>232.0</ele>
        <time>2022-06-29T17:14:36.116Z</time>
    </trkpt>
    <trkpt lat="56.539441" lon="60.82694">
        <ele>232.0</ele>
        <time>2022-06-29T17:14:37.116Z</time>
    </trkpt>
    <trkpt lat="56.539431" lon="60.826924">
        <ele>232.0</ele>
        <time>2022-06-29T17:14:38.116Z</time>
    </trkpt>
    <trkpt lat="56.53942" lon="60.826885">
        <ele>232.0</ele>
        <time>2022-06-29T17:14:39.116Z</time>
    </trkpt>
    <trkpt lat="56.539413" lon="60.826867">
        <ele>232.0</ele>
        <time>2022-06-29T17:14:40.116Z</time>
    </trkpt>
    <trkpt lat="56.539406" lon="60.826848">
        <ele>232.0</ele>
        <time>2022-06-29T17:14:41.116Z</time>
    </trkpt>
    <trkpt lat="56.539401" lon="60.82682">
        <ele>232.0</ele>
        <time>2022-06-29T17:14:42.116Z</time>
    </trkpt>
    <trkpt lat="56.539396" lon="60.826795">
        <ele>232.0</ele>
        <time>2022-06-29T17:14:43.116Z</time>
    </trkpt>
    <trkpt lat="56.539377" lon="60.826754">
        <ele>232.0</ele>
        <time>2022-06-29T17:14:44.116Z</time>
    </trkpt>
    <trkpt lat="56.539364" lon="60.826717">
        <ele>232.0</ele>
        <time>2022-06-29T17:14:45.116Z</time>
    </trkpt>
    <trkpt lat="56.539362" lon="60.826704">
        <ele>232.0</ele>
        <time>2022-06-29T17:14:46.116Z</time>
    </trkpt>
    <trkpt lat="56.539365" lon="60.826684">
        <ele>232.0</ele>
        <time>2022-06-29T17:14:47.116Z</time>
    </trkpt>
    <trkpt lat="56.539368" lon="60.826664">
        <ele>232.0</ele>
        <time>2022-06-29T17:14:48.116Z</time>
    </trkpt>
    <trkpt lat="56.539368" lon="60.826625">
        <ele>232.0</ele>
        <time>2022-06-29T17:14:49.116Z</time>
    </trkpt>
    <trkpt lat="56.539359" lon="60.826588">
        <ele>232.0</ele>
        <time>2022-06-29T17:14:50.116Z</time>
    </trkpt>
    <trkpt lat="56.539359" lon="60.826567">
        <ele>232.0</ele>
        <time>2022-06-29T17:14:51.116Z</time>
    </trkpt>
    <trkpt lat="56.539356" lon="60.82654">
        <ele>232.0</ele>
        <time>2022-06-29T17:14:52.116Z</time>
    </trkpt>
    <trkpt lat="56.539356" lon="60.82652">
        <ele>232.0</ele>
        <time>2022-06-29T17:14:53.116Z</time>
    </trkpt>
    <trkpt lat="56.539351" lon="60.826506">
        <ele>232.0</ele>
        <time>2022-06-29T17:14:54.116Z</time>
    </trkpt>
    <trkpt lat="56.539346" lon="60.826511">
        <ele>232.0</ele>
        <time>2022-06-29T17:14:55.116Z</time>
    </trkpt>
    <trkpt lat="56.539324" lon="60.826467">
        <ele>232.0</ele>
        <time>2022-06-29T17:14:56.116Z</time>
    </trkpt>
    <trkpt lat="56.539312" lon="60.826447">
        <ele>232.0</ele>
        <time>2022-06-29T17:14:57.116Z</time>
    </trkpt>
    <trkpt lat="56.539302" lon="60.826396">
        <ele>232.0</ele>
        <time>2022-06-29T17:14:58.116Z</time>
    </trkpt>
    <trkpt lat="56.539305" lon="60.82638">
        <ele>232.0</ele>
        <time>2022-06-29T17:14:59.116Z</time>
    </trkpt>
    <trkpt lat="56.539309" lon="60.826364">
        <ele>232.0</ele>
        <time>2022-06-29T17:15:00.116Z</time>
    </trkpt>
    <trkpt lat="56.539313" lon="60.826349">
        <ele>232.0</ele>
        <time>2022-06-29T17:15:01.116Z</time>
    </trkpt>
    <trkpt lat="56.539316" lon="60.826333">
        <ele>232.0</ele>
        <time>2022-06-29T17:15:02.116Z</time>
    </trkpt>
    <trkpt lat="56.53932" lon="60.826317">
        <ele>232.0</ele>
        <time>2022-06-29T17:15:03.116Z</time>
    </trkpt>
    <trkpt lat="56.539323" lon="60.826302">
        <ele>232.0</ele>
        <time>2022-06-29T17:15:04.116Z</time>
    </trkpt>
    <trkpt lat="56.539327" lon="60.826286">
        <ele>232.0</ele>
        <time>2022-06-29T17:15:08.116Z</time>
    </trkpt>
    <trkpt lat="56.539331" lon="60.826271">
        <ele>232.0</ele>
        <time>2022-06-29T17:15:09.116Z</time>
    </trkpt>
    <trkpt lat="56.539334" lon="60.826255">
        <ele>232.0</ele>
        <time>2022-06-29T17:15:10.116Z</time>
    </trkpt>
    <trkpt lat="56.539338" lon="60.826239">
        <ele>232.0</ele>
        <time>2022-06-29T17:15:11.116Z</time>
    </trkpt>
    <trkpt lat="56.53934" lon="60.826235">
        <ele>232.0</ele>
        <time>2022-06-29T17:15:12.116Z</time>
    </trkpt>
    <trkpt lat="56.539336" lon="60.826197">
        <ele>232.0</ele>
        <time>2022-06-29T17:15:13.116Z</time>
    </trkpt>
    <trkpt lat="56.539331" lon="60.826158">
        <ele>232.0</ele>
        <time>2022-06-29T17:15:14.116Z</time>
    </trkpt>
    <trkpt lat="56.539326" lon="60.82612">
        <ele>232.0</ele>
        <time>2022-06-29T17:15:15.116Z</time>
    </trkpt>
    <trkpt lat="56.539321" lon="60.826081">
        <ele>232.0</ele>
        <time>2022-06-29T17:15:16.116Z</time>
    </trkpt>
    <trkpt lat="56.539316" lon="60.826043">
        <ele>232.0</ele>
        <time>2022-06-29T17:15:17.116Z</time>
    </trkpt>
    <trkpt lat="56.539312" lon="60.826005">
        <ele>232.0</ele>
        <time>2022-06-29T17:15:18.116Z</time>
    </trkpt>
    <trkpt lat="56.539307" lon="60.825966">
        <ele>232.0</ele>
        <time>2022-06-29T17:16:16.116Z</time>
    </trkpt>
    <trkpt lat="56.539302" lon="60.825928">
        <ele>232.0</ele>
        <time>2022-06-29T17:16:17.116Z</time>
    </trkpt>
    <trkpt lat="56.539297" lon="60.82589">
        <ele>232.0</ele>
        <time>2022-06-29T17:16:18.116Z</time>
    </trkpt>
    <trkpt lat="56.539293" lon="60.825851">
        <ele>232.0</ele>
        <time>2022-06-29T17:16:19.116Z</time>
    </trkpt>
    <trkpt lat="56.539301" lon="60.825774">
        <ele>232.0</ele>
        <time>2022-06-29T17:16:20.116Z</time>
    </trkpt>
    <trkpt lat="56.53931" lon="60.825757">
        <ele>232.0</ele>
        <time>2022-06-29T17:16:21.116Z</time>
    </trkpt>
    <trkpt lat="56.539335" lon="60.825718">
        <ele>232.0</ele>
        <time>2022-06-29T17:16:22.116Z</time>
    </trkpt>
    <trkpt lat="56.539347" lon="60.825704">
        <ele>232.0</ele>
        <time>2022-06-29T17:16:23.116Z</time>
    </trkpt>
    <trkpt lat="56.539353" lon="60.825667">
        <ele>232.0</ele>
        <time>2022-06-29T17:16:24.116Z</time>
    </trkpt>
    <trkpt lat="56.539355" lon="60.825646">
        <ele>232.0</ele>
        <time>2022-06-29T17:16:25.116Z</time>
    </trkpt>
    <trkpt lat="56.539358" lon="60.825626">
        <ele>232.0</ele>
        <time>2022-06-29T17:16:26.116Z</time>
    </trkpt>
    <trkpt lat="56.539359" lon="60.825583">
        <ele>232.0</ele>
        <time>2022-06-29T17:16:27.116Z</time>
    </trkpt>
    <trkpt lat="56.539357" lon="60.825562">
        <ele>232.0</ele>
        <time>2022-06-29T17:16:28.116Z</time>
    </trkpt>
    <trkpt lat="56.539352" lon="60.825504">
        <ele>232.0</ele>
        <time>2022-06-29T17:16:29.116Z</time>
    </trkpt>
    <trkpt lat="56.539351" lon="60.825483">
        <ele>232.0</ele>
        <time>2022-06-29T17:16:30.116Z</time>
    </trkpt>
    <trkpt lat="56.539352" lon="60.825425">
        <ele>232.0</ele>
        <time>2022-06-29T17:16:31.116Z</time>
    </trkpt>
    <trkpt lat="56.539342" lon="60.825377">
        <ele>232.0</ele>
        <time>2022-06-29T17:16:32.116Z</time>
    </trkpt>
    <trkpt lat="56.539331" lon="60.825324">
        <ele>232.0</ele>
        <time>2022-06-29T17:16:33.116Z</time>
    </trkpt>
    <trkpt lat="56.539329" lon="60.825298">
        <ele>232.0</ele>
        <time>2022-06-29T17:16:34.116Z</time>
    </trkpt>
    <trkpt lat="56.539329" lon="60.825245">
        <ele>232.0</ele>
        <time>2022-06-29T17:16:35.116Z</time>
    </trkpt>
    <trkpt lat="56.539329" lon="60.825215">
        <ele>232.0</ele>
        <time>2022-06-29T17:16:36.116Z</time>
    </trkpt>
    <trkpt lat="56.539327" lon="60.825146">
        <ele>232.0</ele>
        <time>2022-06-29T17:16:37.116Z</time>
    </trkpt>
    <trkpt lat="56.539321" lon="60.825123">
        <ele>232.0</ele>
        <time>2022-06-29T17:16:38.116Z</time>
    </trkpt>
    <trkpt lat="56.539314" lon="60.825055">
        <ele>232.0</ele>
        <time>2022-06-29T17:16:39.116Z</time>
    </trkpt>
    <trkpt lat="56.53931" lon="60.825037">
        <ele>232.0</ele>
        <time>2022-06-29T17:16:40.116Z</time>
    </trkpt>
    <trkpt lat="56.539307" lon="60.824982">
        <ele>232.0</ele>
        <time>2022-06-29T17:16:41.116Z</time>
    </trkpt>
    <trkpt lat="56.539309" lon="60.824967">
        <ele>232.0</ele>
        <time>2022-06-29T17:16:42.116Z</time>
    </trkpt>
    <trkpt lat="56.539304" lon="60.824912">
        <ele>232.0</ele>
        <time>2022-06-29T17:16:43.116Z</time>
    </trkpt>
    <trkpt lat="56.539298" lon="60.824897">
        <ele>232.0</ele>
        <time>2022-06-29T17:16:44.116Z</time>
    </trkpt>
    <trkpt lat="56.5393" lon="60.82484">
        <ele>232.0</ele>
        <time>2022-06-29T17:16:45.116Z</time>
    </trkpt>
    <trkpt lat="56.539301" lon="60.824823">
        <ele>232.0</ele>
        <time>2022-06-29T17:16:46.116Z</time>
    </trkpt>
    <trkpt lat="56.539305" lon="60.824758">
        <ele>232.0</ele>
        <time>2022-06-29T17:16:47.116Z</time>
    </trkpt>
    <trkpt lat="56.539314" lon="60.82471">
        <ele>232.0</ele>
        <time>2022-06-29T17:16:48.116Z</time>
    </trkpt>
    <trkpt lat="56.53932" lon="60.824657">
        <ele>232.0</ele>
        <time>2022-06-29T17:16:49.116Z</time>
    </trkpt>
    <trkpt lat="56.539318" lon="60.824628">
        <ele>232.0</ele>
        <time>2022-06-29T17:16:50.116Z</time>
    </trkpt>
    <trkpt lat="56.539312" lon="60.824556">
        <ele>232.0</ele>
        <time>2022-06-29T17:16:51.116Z</time>
    </trkpt>
    <trkpt lat="56.539313" lon="60.824495">
        <ele>232.0</ele>
        <time>2022-06-29T17:16:52.116Z</time>
    </trkpt>
    <trkpt lat="56.539314" lon="60.824436">
        <ele>232.0</ele>
        <time>2022-06-29T17:16:53.116Z</time>
    </trkpt>
    <trkpt lat="56.53931" lon="60.824365">
        <ele>232.0</ele>
        <time>2022-06-29T17:16:54.116Z</time>
    </trkpt>
    <trkpt lat="56.53931" lon="60.82434">
        <ele>232.0</ele>
        <time>2022-06-29T17:16:55.116Z</time>
    </trkpt>
    <trkpt lat="56.539308" lon="60.82427">
        <ele>232.0</ele>
        <time>2022-06-29T17:16:56.116Z</time>
    </trkpt>
    <trkpt lat="56.539306" lon="60.824255">
        <ele>232.0</ele>
        <time>2022-06-29T17:16:57.116Z</time>
    </trkpt>
    <trkpt lat="56.539305" lon="60.824196">
        <ele>232.0</ele>
        <time>2022-06-29T17:16:58.116Z</time>
    </trkpt>
    <trkpt lat="56.539308" lon="60.824179">
        <ele>232.0</ele>
        <time>2022-06-29T17:16:59.116Z</time>
    </trkpt>
    <trkpt lat="56.539312" lon="60.824132">
        <ele>232.0</ele>
        <time>2022-06-29T17:17:00.116Z</time>
    </trkpt>
    <trkpt lat="56.539308" lon="60.824079">
        <ele>232.0</ele>
        <time>2022-06-29T17:17:01.116Z</time>
    </trkpt>
    <trkpt lat="56.539305" lon="60.82406">
        <ele>232.0</ele>
        <time>2022-06-29T17:17:02.116Z</time>
    </trkpt>
    <trkpt lat="56.539302" lon="60.823998">
        <ele>232.0</ele>
        <time>2022-06-29T17:17:03.116Z</time>
    </trkpt>
    <trkpt lat="56.539297" lon="60.823981">
        <ele>232.0</ele>
        <time>2022-06-29T17:17:04.116Z</time>
    </trkpt>
    <trkpt lat="56.53929" lon="60.823919">
        <ele>232.0</ele>
        <time>2022-06-29T17:17:05.116Z</time>
    </trkpt>
    <trkpt lat="56.539287" lon="60.823859">
        <ele>232.0</ele>
        <time>2022-06-29T17:17:06.116Z</time>
    </trkpt>
    <trkpt lat="56.539289" lon="60.823813">
        <ele>232.0</ele>
        <time>2022-06-29T17:17:07.116Z</time>
    </trkpt>
    <trkpt lat="56.539286" lon="60.82373">
        <ele>232.0</ele>
        <time>2022-06-29T17:17:08.116Z</time>
    </trkpt>
    <trkpt lat="56.539279" lon="60.823665">
        <ele>232.0</ele>
        <time>2022-06-29T17:17:09.116Z</time>
    </trkpt>
    <trkpt lat="56.539278" lon="60.823605">
        <ele>232.0</ele>
        <time>2022-06-29T17:17:10.116Z</time>
    </trkpt>
    <trkpt lat="56.539282" lon="60.823536">
        <ele>232.0</ele>
        <time>2022-06-29T17:17:11.116Z</time>
    </trkpt>
    <trkpt lat="56.539283" lon="60.823479">
        <ele>232.0</ele>
        <time>2022-06-29T17:17:12.116Z</time>
    </trkpt>
    <trkpt lat="56.539285" lon="60.823406">
        <ele>232.0</ele>
        <time>2022-06-29T17:17:13.116Z</time>
    </trkpt>
    <trkpt lat="56.539288" lon="60.823347">
        <ele>232.0</ele>
        <time>2022-06-29T17:17:14.116Z</time>
    </trkpt>
    <trkpt lat="56.539298" lon="60.823299">
        <ele>232.0</ele>
        <time>2022-06-29T17:17:15.116Z</time>
    </trkpt>
    <trkpt lat="56.539297" lon="60.82326">
        <ele>232.0</ele>
        <time>2022-06-29T17:17:16.116Z</time>
    </trkpt>
    <trkpt lat="56.53929" lon="60.823177">
        <ele>232.0</ele>
        <time>2022-06-29T17:17:17.116Z</time>
    </trkpt>
    <trkpt lat="56.539292" lon="60.823149">
        <ele>232.0</ele>
        <time>2022-06-29T17:17:18.116Z</time>
    </trkpt>
    <trkpt lat="56.539285" lon="60.823076">
        <ele>232.0</ele>
        <time>2022-06-29T17:17:19.116Z</time>
    </trkpt>
    <trkpt lat="56.539275" lon="60.823028">
        <ele>232.0</ele>
        <time>2022-06-29T17:17:20.116Z</time>
    </trkpt>
    <trkpt lat="56.53928" lon="60.822971">
        <ele>232.0</ele>
        <time>2022-06-29T17:17:21.116Z</time>
    </trkpt>
    <trkpt lat="56.539268" lon="60.822864">
        <ele>232.0</ele>
        <time>2022-06-29T17:17:22.116Z</time>
    </trkpt>
    <trkpt lat="56.539265" lon="60.822836">
        <ele>232.0</ele>
        <time>2022-06-29T17:17:23.116Z</time>
    </trkpt>
    <trkpt lat="56.539261" lon="60.822766">
        <ele>232.0</ele>
        <time>2022-06-29T17:17:24.116Z</time>
    </trkpt>
    <trkpt lat="56.539259" lon="60.822681">
        <ele>232.0</ele>
        <time>2022-06-29T17:17:25.116Z</time>
    </trkpt>
    <trkpt lat="56.539262" lon="60.822606">
        <ele>232.0</ele>
        <time>2022-06-29T17:17:26.116Z</time>
    </trkpt>
    <trkpt lat="56.539251" lon="60.822541">
        <ele>232.0</ele>
        <time>2022-06-29T17:17:27.116Z</time>
    </trkpt>
    <trkpt lat="56.539247" lon="60.822476">
        <ele>232.0</ele>
        <time>2022-06-29T17:17:28.116Z</time>
    </trkpt>
    <trkpt lat="56.539245" lon="60.822457">
        <ele>232.0</ele>
        <time>2022-06-29T17:17:29.116Z</time>
    </trkpt>
    <trkpt lat="56.539241" lon="60.822401">
        <ele>232.0</ele>
        <time>2022-06-29T17:17:30.116Z</time>
    </trkpt>
    <trkpt lat="56.539238" lon="60.822379">
        <ele>232.0</ele>
        <time>2022-06-29T17:17:31.116Z</time>
    </trkpt>
    <trkpt lat="56.539236" lon="60.822324">
        <ele>232.0</ele>
        <time>2022-06-29T17:17:32.116Z</time>
    </trkpt>
    <trkpt lat="56.539228" lon="60.822298">
        <ele>232.0</ele>
        <time>2022-06-29T17:17:33.116Z</time>
    </trkpt>
    <trkpt lat="56.539219" lon="60.822249">
        <ele>232.0</ele>
        <time>2022-06-29T17:17:34.116Z</time>
    </trkpt>
    <trkpt lat="56.539214" lon="60.822223">
        <ele>232.0</ele>
        <time>2022-06-29T17:17:35.116Z</time>
    </trkpt>
    <trkpt lat="56.539201" lon="60.82216">
        <ele>232.0</ele>
        <time>2022-06-29T17:17:36.116Z</time>
    </trkpt>
    <trkpt lat="56.539196" lon="60.822093">
        <ele>232.0</ele>
        <time>2022-06-29T17:17:37.116Z</time>
    </trkpt>
    <trkpt lat="56.539192" lon="60.822063">
        <ele>232.0</ele>
        <time>2022-06-29T17:17:38.116Z</time>
    </trkpt>
    <trkpt lat="56.539184" lon="60.822">
        <ele>232.0</ele>
        <time>2022-06-29T17:17:39.116Z</time>
    </trkpt>
    <trkpt lat="56.539182" lon="60.821949">
        <ele>232.0</ele>
        <time>2022-06-29T17:17:40.116Z</time>
    </trkpt>
    <trkpt lat="56.539181" lon="60.821931">
        <ele>232.0</ele>
        <time>2022-06-29T17:17:41.116Z</time>
    </trkpt>
    <trkpt lat="56.539172" lon="60.821885">
        <ele>232.0</ele>
        <time>2022-06-29T17:17:42.116Z</time>
    </trkpt>
    <trkpt lat="56.539163" lon="60.821828">
        <ele>232.0</ele>
        <time>2022-06-29T17:17:43.116Z</time>
    </trkpt>
    <trkpt lat="56.539162" lon="60.821803">
        <ele>232.0</ele>
        <time>2022-06-29T17:17:44.116Z</time>
    </trkpt>
    <trkpt lat="56.539156" lon="60.821736">
        <ele>232.0</ele>
        <time>2022-06-29T17:17:45.116Z</time>
    </trkpt>
    <trkpt lat="56.539153" lon="60.82172">
        <ele>232.0</ele>
        <time>2022-06-29T17:17:46.116Z</time>
    </trkpt>
    <trkpt lat="56.539143" lon="60.821663">
        <ele>232.0</ele>
        <time>2022-06-29T17:17:47.116Z</time>
    </trkpt>
    <trkpt lat="56.53914" lon="60.821638">
        <ele>232.0</ele>
        <time>2022-06-29T17:17:48.116Z</time>
    </trkpt>
    <trkpt lat="56.539134" lon="60.821574">
        <ele>232.0</ele>
        <time>2022-06-29T17:17:49.116Z</time>
    </trkpt>
    <trkpt lat="56.539129" lon="60.821514">
        <ele>232.0</ele>
        <time>2022-06-29T17:17:50.116Z</time>
    </trkpt>
    <trkpt lat="56.539127" lon="60.821487">
        <ele>232.0</ele>
        <time>2022-06-29T17:17:51.116Z</time>
    </trkpt>
    <trkpt lat="56.539122" lon="60.821432">
        <ele>232.0</ele>
        <time>2022-06-29T17:17:52.116Z</time>
    </trkpt>
    <trkpt lat="56.539119" lon="60.821401">
        <ele>232.0</ele>
        <time>2022-06-29T17:17:53.116Z</time>
    </trkpt>
    <trkpt lat="56.539122" lon="60.821331">
        <ele>232.0</ele>
        <time>2022-06-29T17:17:54.116Z</time>
    </trkpt>
    <trkpt lat="56.539119" lon="60.82131">
        <ele>232.0</ele>
        <time>2022-06-29T17:17:55.116Z</time>
    </trkpt>
    <trkpt lat="56.539121" lon="60.821247">
        <ele>232.0</ele>
        <time>2022-06-29T17:17:56.116Z</time>
    </trkpt>
    <trkpt lat="56.539123" lon="60.821219">
        <ele>232.0</ele>
        <time>2022-06-29T17:17:57.116Z</time>
    </trkpt>
    <trkpt lat="56.539132" lon="60.821155">
        <ele>232.0</ele>
        <time>2022-06-29T17:17:58.116Z</time>
    </trkpt>
    <trkpt lat="56.539141" lon="60.821093">
        <ele>232.0</ele>
        <time>2022-06-29T17:17:59.116Z</time>
    </trkpt>
    <trkpt lat="56.539141" lon="60.82104">
        <ele>232.0</ele>
        <time>2022-06-29T17:18:00.116Z</time>
    </trkpt>
    <trkpt lat="56.539138" lon="60.821019">
        <ele>232.0</ele>
        <time>2022-06-29T17:18:01.116Z</time>
    </trkpt>
    <trkpt lat="56.539137" lon="60.820965">
        <ele>232.0</ele>
        <time>2022-06-29T17:18:02.116Z</time>
    </trkpt>
    <trkpt lat="56.539136" lon="60.820955">
        <ele>232.0</ele>
        <time>2022-06-29T17:18:03.116Z</time>
    </trkpt>
    <trkpt lat="56.539135" lon="60.820899">
        <ele>232.0</ele>
        <time>2022-06-29T17:18:04.116Z</time>
    </trkpt>
    <trkpt lat="56.539137" lon="60.820871">
        <ele>232.0</ele>
        <time>2022-06-29T17:18:05.116Z</time>
    </trkpt>
    <trkpt lat="56.539137" lon="60.820842">
        <ele>232.0</ele>
        <time>2022-06-29T17:18:06.116Z</time>
    </trkpt>
    <trkpt lat="56.539137" lon="60.820813">
        <ele>232.0</ele>
        <time>2022-06-29T17:18:07.116Z</time>
    </trkpt>
    <trkpt lat="56.539137" lon="60.820794">
        <ele>232.0</ele>
        <time>2022-06-29T17:18:08.116Z</time>
    </trkpt>
    <trkpt lat="56.539144" lon="60.820768">
        <ele>232.0</ele>
        <time>2022-06-29T17:18:09.116Z</time>
    </trkpt>
    <trkpt lat="56.539143" lon="60.820745">
        <ele>232.0</ele>
        <time>2022-06-29T17:18:10.116Z</time>
    </trkpt>
    <trkpt lat="56.539143" lon="60.820729">
        <ele>232.0</ele>
        <time>2022-06-29T17:18:11.116Z</time>
    </trkpt>
    <trkpt lat="56.539138" lon="60.820708">
        <ele>232.0</ele>
        <time>2022-06-29T17:18:12.116Z</time>
    </trkpt>
    <trkpt lat="56.539134" lon="60.820665">
        <ele>232.0</ele>
        <time>2022-06-29T17:18:13.116Z</time>
    </trkpt>
    <trkpt lat="56.539132" lon="60.820629">
        <ele>232.0</ele>
        <time>2022-06-29T17:18:14.116Z</time>
    </trkpt>
    <trkpt lat="56.539131" lon="60.820602">
        <ele>232.0</ele>
        <time>2022-06-29T17:18:15.116Z</time>
    </trkpt>
    <trkpt lat="56.539134" lon="60.820558">
        <ele>232.0</ele>
        <time>2022-06-29T17:18:16.116Z</time>
    </trkpt>
    <trkpt lat="56.539137" lon="60.82054">
        <ele>232.0</ele>
        <time>2022-06-29T17:18:17.116Z</time>
    </trkpt>
    <trkpt lat="56.539139" lon="60.820519">
        <ele>232.0</ele>
        <time>2022-06-29T17:18:18.116Z</time>
    </trkpt>
    <trkpt lat="56.539142" lon="60.820473">
        <ele>232.0</ele>
        <time>2022-06-29T17:18:19.116Z</time>
    </trkpt>
    <trkpt lat="56.539143" lon="60.820425">
        <ele>232.0</ele>
        <time>2022-06-29T17:18:21.116Z</time>
    </trkpt>
    <trkpt lat="56.539144" lon="60.820382">
        <ele>232.0</ele>
        <time>2022-06-29T17:18:22.116Z</time>
    </trkpt>
    <trkpt lat="56.539141" lon="60.820361">
        <ele>232.0</ele>
        <time>2022-06-29T17:18:23.116Z</time>
    </trkpt>
    <trkpt lat="56.539139" lon="60.82034">
        <ele>232.0</ele>
        <time>2022-06-29T17:18:24.116Z</time>
    </trkpt>
    <trkpt lat="56.539143" lon="60.820302">
        <ele>232.0</ele>
        <time>2022-06-29T17:18:25.116Z</time>
    </trkpt>
    <trkpt lat="56.539137" lon="60.820266">
        <ele>232.0</ele>
        <time>2022-06-29T17:18:26.116Z</time>
    </trkpt>
    <trkpt lat="56.539134" lon="60.820244">
        <ele>232.0</ele>
        <time>2022-06-29T17:18:27.116Z</time>
    </trkpt>
    <trkpt lat="56.53913" lon="60.820213">
        <ele>232.0</ele>
        <time>2022-06-29T17:18:28.116Z</time>
    </trkpt>
    <trkpt lat="56.539122" lon="60.820147">
        <ele>232.0</ele>
        <time>2022-06-29T17:18:29.116Z</time>
    </trkpt>
    <trkpt lat="56.539121" lon="60.820107">
        <ele>232.0</ele>
        <time>2022-06-29T17:18:30.116Z</time>
    </trkpt>
    <trkpt lat="56.539124" lon="60.820091">
        <ele>232.0</ele>
        <time>2022-06-29T17:18:31.116Z</time>
    </trkpt>
    <trkpt lat="56.539129" lon="60.820034">
        <ele>232.0</ele>
        <time>2022-06-29T17:18:32.116Z</time>
    </trkpt>
    <trkpt lat="56.539129" lon="60.820011">
        <ele>232.0</ele>
        <time>2022-06-29T17:18:33.116Z</time>
    </trkpt>
    <trkpt lat="56.539129" lon="60.819973">
        <ele>232.0</ele>
        <time>2022-06-29T17:18:34.116Z</time>
    </trkpt>
    <trkpt lat="56.539132" lon="60.819941">
        <ele>232.0</ele>
        <time>2022-06-29T17:18:35.116Z</time>
    </trkpt>
    <trkpt lat="56.539131" lon="60.81992">
        <ele>232.0</ele>
        <time>2022-06-29T17:18:36.116Z</time>
    </trkpt>
    <trkpt lat="56.539126" lon="60.819909">
        <ele>232.0</ele>
        <time>2022-06-29T17:18:37.116Z</time>
    </trkpt>
    <trkpt lat="56.539121" lon="60.819897">
        <ele>232.0</ele>
        <time>2022-06-29T17:18:38.116Z</time>
    </trkpt>
    <trkpt lat="56.539119" lon="60.819843">
        <ele>232.0</ele>
        <time>2022-06-29T17:18:39.116Z</time>
    </trkpt>
    <trkpt lat="56.539113" lon="60.81982">
        <ele>232.0</ele>
        <time>2022-06-29T17:18:40.116Z</time>
    </trkpt>
    <trkpt lat="56.539103" lon="60.819802">
        <ele>232.0</ele>
        <time>2022-06-29T17:18:41.116Z</time>
    </trkpt>
    <trkpt lat="56.539099" lon="60.819786">
        <ele>232.0</ele>
        <time>2022-06-29T17:18:42.116Z</time>
    </trkpt>
    <trkpt lat="56.539097" lon="60.819751">
        <ele>232.0</ele>
        <time>2022-06-29T17:18:43.116Z</time>
    </trkpt>
    <trkpt lat="56.539094" lon="60.81974">
        <ele>232.0</ele>
        <time>2022-06-29T17:18:44.116Z</time>
    </trkpt>
    <trkpt lat="56.53909" lon="60.819699">
        <ele>232.0</ele>
        <time>2022-06-29T17:18:45.116Z</time>
    </trkpt>
    <trkpt lat="56.539091" lon="60.819685">
        <ele>232.0</ele>
        <time>2022-06-29T17:18:46.116Z</time>
    </trkpt>
    <trkpt lat="56.539088" lon="60.819632">
        <ele>232.0</ele>
        <time>2022-06-29T17:18:47.116Z</time>
    </trkpt>
    <trkpt lat="56.539078" lon="60.819585">
        <ele>232.0</ele>
        <time>2022-06-29T17:18:48.116Z</time>
    </trkpt>
    <trkpt lat="56.539073" lon="60.819566">
        <ele>232.0</ele>
        <time>2022-06-29T17:18:49.116Z</time>
    </trkpt>
    <trkpt lat="56.539065" lon="60.819509">
        <ele>232.0</ele>
        <time>2022-06-29T17:18:50.116Z</time>
    </trkpt>
    <trkpt lat="56.539059" lon="60.819477">
        <ele>232.0</ele>
        <time>2022-06-29T17:18:51.116Z</time>
    </trkpt>
    <trkpt lat="56.539051" lon="60.81946">
        <ele>232.0</ele>
        <time>2022-06-29T17:18:52.116Z</time>
    </trkpt>
    <trkpt lat="56.539045" lon="60.81943">
        <ele>232.0</ele>
        <time>2022-06-29T17:18:53.116Z</time>
    </trkpt>
    <trkpt lat="56.539043" lon="60.819414">
        <ele>232.0</ele>
        <time>2022-06-29T17:18:54.116Z</time>
    </trkpt>
    <trkpt lat="56.539047" lon="60.81941">
        <ele>232.0</ele>
        <time>2022-06-29T17:18:55.116Z</time>
    </trkpt>
    <trkpt lat="56.539037" lon="60.819389">
        <ele>232.0</ele>
        <time>2022-06-29T17:18:56.116Z</time>
    </trkpt>
    <trkpt lat="56.539028" lon="60.819369">
        <ele>232.0</ele>
        <time>2022-06-29T17:18:57.116Z</time>
    </trkpt>
    <trkpt lat="56.539017" lon="60.819337">
        <ele>232.0</ele>
        <time>2022-06-29T17:18:58.116Z</time>
    </trkpt>
    <trkpt lat="56.539042" lon="60.819156">
        <ele>232.0</ele>
        <time>2022-06-29T17:19:12.116Z</time>
    </trkpt>
    <trkpt lat="56.539042" lon="60.819141">
        <ele>232.0</ele>
        <time>2022-06-29T17:19:13.116Z</time>
    </trkpt>
    <trkpt lat="56.539044" lon="60.819129">
        <ele>232.0</ele>
        <time>2022-06-29T17:19:14.116Z</time>
    </trkpt>
    <trkpt lat="56.539041" lon="60.81911">
        <ele>232.0</ele>
        <time>2022-06-29T17:19:15.116Z</time>
    </trkpt>
    <trkpt lat="56.539033" lon="60.819082">
        <ele>232.0</ele>
        <time>2022-06-29T17:19:16.116Z</time>
    </trkpt>
    <trkpt lat="56.539031" lon="60.819053">
        <ele>232.0</ele>
        <time>2022-06-29T17:19:17.116Z</time>
    </trkpt>
    <trkpt lat="56.539031" lon="60.819022">
        <ele>232.0</ele>
        <time>2022-06-29T17:19:18.116Z</time>
    </trkpt>
    <trkpt lat="56.539024" lon="60.818988">
        <ele>232.0</ele>
        <time>2022-06-29T17:19:19.116Z</time>
    </trkpt>
    <trkpt lat="56.539031" lon="60.818959">
        <ele>232.0</ele>
        <time>2022-06-29T17:19:20.116Z</time>
    </trkpt>
    <trkpt lat="56.539024" lon="60.818956">
        <ele>232.0</ele>
        <time>2022-06-29T17:19:21.116Z</time>
    </trkpt>
    <trkpt lat="56.539022" lon="60.818965">
        <ele>232.0</ele>
        <time>2022-06-29T17:19:22.116Z</time>
    </trkpt>
    <trkpt lat="56.539022" lon="60.818936">
        <ele>232.0</ele>
        <time>2022-06-29T17:19:23.116Z</time>
    </trkpt>
    <trkpt lat="56.539022" lon="60.818911">
        <ele>232.0</ele>
        <time>2022-06-29T17:19:24.116Z</time>
    </trkpt>
    <trkpt lat="56.539018" lon="60.818886">
        <ele>232.0</ele>
        <time>2022-06-29T17:19:25.116Z</time>
    </trkpt>
    <trkpt lat="56.539008" lon="60.818829">
        <ele>232.0</ele>
        <time>2022-06-29T17:19:26.116Z</time>
    </trkpt>
    <trkpt lat="56.539004" lon="60.818807">
        <ele>232.0</ele>
        <time>2022-06-29T17:19:27.116Z</time>
    </trkpt>
    <trkpt lat="56.538998" lon="60.818743">
        <ele>232.0</ele>
        <time>2022-06-29T17:19:28.116Z</time>
    </trkpt>
    <trkpt lat="56.538994" lon="60.818678">
        <ele>232.0</ele>
        <time>2022-06-29T17:19:29.116Z</time>
    </trkpt>
    <trkpt lat="56.538989" lon="60.818638">
        <ele>232.0</ele>
        <time>2022-06-29T17:19:30.116Z</time>
    </trkpt>
    <trkpt lat="56.538977" lon="60.81857">
        <ele>232.0</ele>
        <time>2022-06-29T17:19:31.116Z</time>
    </trkpt>
    <trkpt lat="56.538967" lon="60.818524">
        <ele>232.0</ele>
        <time>2022-06-29T17:19:32.116Z</time>
    </trkpt>
    <trkpt lat="56.538966" lon="60.818508">
        <ele>232.0</ele>
        <time>2022-06-29T17:19:33.116Z</time>
    </trkpt>
    <trkpt lat="56.538959" lon="60.818458">
        <ele>232.0</ele>
        <time>2022-06-29T17:19:34.116Z</time>
    </trkpt>
    <trkpt lat="56.538946" lon="60.818407">
        <ele>232.0</ele>
        <time>2022-06-29T17:19:35.116Z</time>
    </trkpt>
    <trkpt lat="56.538946" lon="60.818391">
        <ele>232.0</ele>
        <time>2022-06-29T17:19:36.116Z</time>
    </trkpt>
    <trkpt lat="56.538943" lon="60.818336">
        <ele>232.0</ele>
        <time>2022-06-29T17:19:37.116Z</time>
    </trkpt>
    <trkpt lat="56.538942" lon="60.818298">
        <ele>232.0</ele>
        <time>2022-06-29T17:19:38.116Z</time>
    </trkpt>
    <trkpt lat="56.538948" lon="60.818273">
        <ele>232.0</ele>
        <time>2022-06-29T17:19:39.116Z</time>
    </trkpt>
    <trkpt lat="56.538948" lon="60.818251">
        <ele>232.0</ele>
        <time>2022-06-29T17:19:40.116Z</time>
    </trkpt>
    <trkpt lat="56.538948" lon="60.81819">
        <ele>232.0</ele>
        <time>2022-06-29T17:19:41.116Z</time>
    </trkpt>
    <trkpt lat="56.538946" lon="60.818173">
        <ele>232.0</ele>
        <time>2022-06-29T17:19:42.116Z</time>
    </trkpt>
    <trkpt lat="56.538942" lon="60.81812">
        <ele>232.0</ele>
        <time>2022-06-29T17:19:43.116Z</time>
    </trkpt>
    <trkpt lat="56.538942" lon="60.818104">
        <ele>232.0</ele>
        <time>2022-06-29T17:19:44.116Z</time>
    </trkpt>
    <trkpt lat="56.538943" lon="60.81805">
        <ele>232.0</ele>
        <time>2022-06-29T17:19:45.116Z</time>
    </trkpt>
    <trkpt lat="56.538943" lon="60.818035">
        <ele>232.0</ele>
        <time>2022-06-29T17:19:46.116Z</time>
    </trkpt>
    <trkpt lat="56.538937" lon="60.817979">
        <ele>232.0</ele>
        <time>2022-06-29T17:19:47.116Z</time>
    </trkpt>
    <trkpt lat="56.538929" lon="60.817957">
        <ele>232.0</ele>
        <time>2022-06-29T17:19:48.116Z</time>
    </trkpt>
    <trkpt lat="56.53893" lon="60.817916">
        <ele>232.0</ele>
        <time>2022-06-29T17:19:49.116Z</time>
    </trkpt>
    <trkpt lat="56.538926" lon="60.817897">
        <ele>232.0</ele>
        <time>2022-06-29T17:19:50.116Z</time>
    </trkpt>
    <trkpt lat="56.538916" lon="60.817849">
        <ele>232.0</ele>
        <time>2022-06-29T17:19:51.116Z</time>
    </trkpt>
    <trkpt lat="56.538917" lon="60.817829">
        <ele>232.0</ele>
        <time>2022-06-29T17:19:52.116Z</time>
    </trkpt>
    <trkpt lat="56.538914" lon="60.817761">
        <ele>232.0</ele>
        <time>2022-06-29T17:19:53.116Z</time>
    </trkpt>
    <trkpt lat="56.538914" lon="60.817746">
        <ele>232.0</ele>
        <time>2022-06-29T17:19:54.116Z</time>
    </trkpt>
    <trkpt lat="56.538909" lon="60.817684">
        <ele>232.0</ele>
        <time>2022-06-29T17:19:55.116Z</time>
    </trkpt>
    <trkpt lat="56.538911" lon="60.81766">
        <ele>232.0</ele>
        <time>2022-06-29T17:19:56.116Z</time>
    </trkpt>
    <trkpt lat="56.538918" lon="60.817637">
        <ele>232.0</ele>
        <time>2022-06-29T17:19:57.116Z</time>
    </trkpt>
    <trkpt lat="56.53892" lon="60.817621">
        <ele>232.0</ele>
        <time>2022-06-29T17:19:58.116Z</time>
    </trkpt>
    <trkpt lat="56.53892" lon="60.81761">
        <ele>232.0</ele>
        <time>2022-06-29T17:19:59.116Z</time>
    </trkpt>
    <trkpt lat="56.538914" lon="60.817577">
        <ele>232.0</ele>
        <time>2022-06-29T17:20:00.116Z</time>
    </trkpt>
    <trkpt lat="56.538905" lon="60.817526">
        <ele>232.0</ele>
        <time>2022-06-29T17:20:01.116Z</time>
    </trkpt>
    <trkpt lat="56.538896" lon="60.817452">
        <ele>232.0</ele>
        <time>2022-06-29T17:20:02.116Z</time>
    </trkpt>
    <trkpt lat="56.538892" lon="60.81742">
        <ele>232.0</ele>
        <time>2022-06-29T17:20:03.116Z</time>
    </trkpt>
    <trkpt lat="56.538886" lon="60.817352">
        <ele>232.0</ele>
        <time>2022-06-29T17:20:04.116Z</time>
    </trkpt>
    <trkpt lat="56.538871" lon="60.817305">
        <ele>232.0</ele>
        <time>2022-06-29T17:20:05.116Z</time>
    </trkpt>
    <trkpt lat="56.538871" lon="60.817284">
        <ele>232.0</ele>
        <time>2022-06-29T17:20:06.116Z</time>
    </trkpt>
    <trkpt lat="56.538872" lon="60.817233">
        <ele>232.0</ele>
        <time>2022-06-29T17:20:07.116Z</time>
    </trkpt>
    <trkpt lat="56.538868" lon="60.817203">
        <ele>232.0</ele>
        <time>2022-06-29T17:20:08.116Z</time>
    </trkpt>
    <trkpt lat="56.538858" lon="60.81714">
        <ele>232.0</ele>
        <time>2022-06-29T17:20:09.116Z</time>
    </trkpt>
    <trkpt lat="56.538855" lon="60.817121">
        <ele>232.0</ele>
        <time>2022-06-29T17:20:10.116Z</time>
    </trkpt>
    <trkpt lat="56.538851" lon="60.81706">
        <ele>232.0</ele>
        <time>2022-06-29T17:20:11.116Z</time>
    </trkpt>
    <trkpt lat="56.538849" lon="60.817032">
        <ele>232.0</ele>
        <time>2022-06-29T17:20:12.116Z</time>
    </trkpt>
    <trkpt lat="56.538847" lon="60.817008">
        <ele>232.0</ele>
        <time>2022-06-29T17:20:13.116Z</time>
    </trkpt>
    <trkpt lat="56.538848" lon="60.816984">
        <ele>232.0</ele>
        <time>2022-06-29T17:20:14.116Z</time>
    </trkpt>
    <trkpt lat="56.538842" lon="60.81692">
        <ele>232.0</ele>
        <time>2022-06-29T17:20:15.116Z</time>
    </trkpt>
    <trkpt lat="56.53884" lon="60.816893">
        <ele>232.0</ele>
        <time>2022-06-29T17:20:16.116Z</time>
    </trkpt>
    <trkpt lat="56.53883" lon="60.816823">
        <ele>232.0</ele>
        <time>2022-06-29T17:20:17.116Z</time>
    </trkpt>
    <trkpt lat="56.53883" lon="60.816807">
        <ele>232.0</ele>
        <time>2022-06-29T17:20:18.116Z</time>
    </trkpt>
    <trkpt lat="56.538825" lon="60.816748">
        <ele>232.0</ele>
        <time>2022-06-29T17:20:19.116Z</time>
    </trkpt>
    <trkpt lat="56.53883" lon="60.816694">
        <ele>232.0</ele>
        <time>2022-06-29T17:20:20.116Z</time>
    </trkpt>
    <trkpt lat="56.538831" lon="60.81667">
        <ele>232.0</ele>
        <time>2022-06-29T17:20:21.116Z</time>
    </trkpt>
    <trkpt lat="56.538836" lon="60.816617">
        <ele>232.0</ele>
        <time>2022-06-29T17:20:22.116Z</time>
    </trkpt>
    <trkpt lat="56.538838" lon="60.816579">
        <ele>232.0</ele>
        <time>2022-06-29T17:20:23.116Z</time>
    </trkpt>
    <trkpt lat="56.538841" lon="60.816576">
        <ele>232.0</ele>
        <time>2022-06-29T17:20:24.116Z</time>
    </trkpt>
    <trkpt lat="56.538844" lon="60.816569">
        <ele>232.0</ele>
        <time>2022-06-29T17:20:25.116Z</time>
    </trkpt>
    <trkpt lat="56.538848" lon="60.816558">
        <ele>232.0</ele>
        <time>2022-06-29T17:20:26.116Z</time>
    </trkpt>
    <trkpt lat="56.538852" lon="60.816525">
        <ele>232.0</ele>
        <time>2022-06-29T17:20:27.116Z</time>
    </trkpt>
    <trkpt lat="56.538851" lon="60.816496">
        <ele>232.0</ele>
        <time>2022-06-29T17:20:28.116Z</time>
    </trkpt>
    <trkpt lat="56.538851" lon="60.816468">
        <ele>232.0</ele>
        <time>2022-06-29T17:20:29.116Z</time>
    </trkpt>
    <trkpt lat="56.538849" lon="60.816438">
        <ele>232.0</ele>
        <time>2022-06-29T17:20:30.116Z</time>
    </trkpt>
    <trkpt lat="56.538847" lon="60.816419">
        <ele>232.0</ele>
        <time>2022-06-29T17:20:31.116Z</time>
    </trkpt>
    <trkpt lat="56.538849" lon="60.816399">
        <ele>232.0</ele>
        <time>2022-06-29T17:20:32.116Z</time>
    </trkpt>
    <trkpt lat="56.538853" lon="60.816375">
        <ele>232.0</ele>
        <time>2022-06-29T17:20:33.116Z</time>
    </trkpt>
    <trkpt lat="56.538849" lon="60.816352">
        <ele>232.0</ele>
        <time>2022-06-29T17:20:34.116Z</time>
    </trkpt>
    <trkpt lat="56.538852" lon="60.816324">
        <ele>232.0</ele>
        <time>2022-06-29T17:20:35.116Z</time>
    </trkpt>
    <trkpt lat="56.53885" lon="60.816306">
        <ele>232.0</ele>
        <time>2022-06-29T17:20:36.116Z</time>
    </trkpt>
    <trkpt lat="56.538848" lon="60.816289">
        <ele>232.0</ele>
        <time>2022-06-29T17:20:37.116Z</time>
    </trkpt>
    <trkpt lat="56.538846" lon="60.81625">
        <ele>232.0</ele>
        <time>2022-06-29T17:20:38.116Z</time>
    </trkpt>
    <trkpt lat="56.538851" lon="60.816226">
        <ele>232.0</ele>
        <time>2022-06-29T17:20:39.116Z</time>
    </trkpt>
    <trkpt lat="56.538849" lon="60.816197">
        <ele>232.0</ele>
        <time>2022-06-29T17:20:40.116Z</time>
    </trkpt>
    <trkpt lat="56.538845" lon="60.816182">
        <ele>232.0</ele>
        <time>2022-06-29T17:20:41.116Z</time>
    </trkpt>
    <trkpt lat="56.538841" lon="60.816126">
        <ele>232.0</ele>
        <time>2022-06-29T17:20:42.116Z</time>
    </trkpt>
    <trkpt lat="56.538843" lon="60.816058">
        <ele>232.0</ele>
        <time>2022-06-29T17:20:43.116Z</time>
    </trkpt>
    <trkpt lat="56.538844" lon="60.816042">
        <ele>232.0</ele>
        <time>2022-06-29T17:20:44.116Z</time>
    </trkpt>
    <trkpt lat="56.538849" lon="60.815985">
        <ele>232.0</ele>
        <time>2022-06-29T17:20:45.116Z</time>
    </trkpt>
    <trkpt lat="56.538844" lon="60.815954">
        <ele>232.0</ele>
        <time>2022-06-29T17:20:46.116Z</time>
    </trkpt>
    <trkpt lat="56.538836" lon="60.815893">
        <ele>232.0</ele>
        <time>2022-06-29T17:20:47.116Z</time>
    </trkpt>
    <trkpt lat="56.538836" lon="60.815839">
        <ele>232.0</ele>
        <time>2022-06-29T17:20:48.116Z</time>
    </trkpt>
    <trkpt lat="56.53883" lon="60.815814">
        <ele>232.0</ele>
        <time>2022-06-29T17:20:49.116Z</time>
    </trkpt>
    <trkpt lat="56.538819" lon="60.815791">
        <ele>232.0</ele>
        <time>2022-06-29T17:20:50.116Z</time>
    </trkpt>
    <trkpt lat="56.538814" lon="60.815773">
        <ele>232.0</ele>
        <time>2022-06-29T17:20:51.116Z</time>
    </trkpt>
    <trkpt lat="56.538808" lon="60.815744">
        <ele>232.0</ele>
        <time>2022-06-29T17:20:52.116Z</time>
    </trkpt>
    <trkpt lat="56.538804" lon="60.815729">
        <ele>232.0</ele>
        <time>2022-06-29T17:20:53.116Z</time>
    </trkpt>
    <trkpt lat="56.538788" lon="60.815686">
        <ele>232.0</ele>
        <time>2022-06-29T17:20:54.116Z</time>
    </trkpt>
    <trkpt lat="56.538783" lon="60.815656">
        <ele>232.0</ele>
        <time>2022-06-29T17:20:55.116Z</time>
    </trkpt>
    <trkpt lat="56.538777" lon="60.815585">
        <ele>232.0</ele>
        <time>2022-06-29T17:20:56.116Z</time>
    </trkpt>
    <trkpt lat="56.538774" lon="60.815554">
        <ele>232.0</ele>
        <time>2022-06-29T17:20:57.116Z</time>
    </trkpt>
    <trkpt lat="56.538761" lon="60.815481">
        <ele>232.0</ele>
        <time>2022-06-29T17:20:58.116Z</time>
    </trkpt>
    <trkpt lat="56.538758" lon="60.815455">
        <ele>232.0</ele>
        <time>2022-06-29T17:20:59.116Z</time>
    </trkpt>
    <trkpt lat="56.538754" lon="60.815388">
        <ele>232.0</ele>
        <time>2022-06-29T17:21:00.116Z</time>
    </trkpt>
    <trkpt lat="56.538746" lon="60.815334">
        <ele>232.0</ele>
        <time>2022-06-29T17:21:01.116Z</time>
    </trkpt>
    <trkpt lat="56.53873" lon="60.815291">
        <ele>232.0</ele>
        <time>2022-06-29T17:21:02.116Z</time>
    </trkpt>
    <trkpt lat="56.538728" lon="60.81527">
        <ele>232.0</ele>
        <time>2022-06-29T17:21:03.116Z</time>
    </trkpt>
    <trkpt lat="56.538719" lon="60.815205">
        <ele>232.0</ele>
        <time>2022-06-29T17:21:04.116Z</time>
    </trkpt>
    <trkpt lat="56.53872" lon="60.815183">
        <ele>232.0</ele>
        <time>2022-06-29T17:21:05.116Z</time>
    </trkpt>
    <trkpt lat="56.538719" lon="60.815125">
        <ele>232.0</ele>
        <time>2022-06-29T17:21:06.116Z</time>
    </trkpt>
    <trkpt lat="56.538707" lon="60.81508">
        <ele>232.0</ele>
        <time>2022-06-29T17:21:07.116Z</time>
    </trkpt>
    <trkpt lat="56.538688" lon="60.815041">
        <ele>232.0</ele>
        <time>2022-06-29T17:21:08.116Z</time>
    </trkpt>
    <trkpt lat="56.538681" lon="60.814985">
        <ele>232.0</ele>
        <time>2022-06-29T17:21:09.116Z</time>
    </trkpt>
    <trkpt lat="56.53867" lon="60.814923">
        <ele>232.0</ele>
        <time>2022-06-29T17:21:10.116Z</time>
    </trkpt>
    <trkpt lat="56.538663" lon="60.814881">
        <ele>232.0</ele>
        <time>2022-06-29T17:21:11.116Z</time>
    </trkpt>
    <trkpt lat="56.538654" lon="60.814804">
        <ele>232.0</ele>
        <time>2022-06-29T17:21:12.116Z</time>
    </trkpt>
    <trkpt lat="56.538643" lon="60.814746">
        <ele>232.0</ele>
        <time>2022-06-29T17:21:13.116Z</time>
    </trkpt>
    <trkpt lat="56.538638" lon="60.814728">
        <ele>232.0</ele>
        <time>2022-06-29T17:21:14.116Z</time>
    </trkpt>
    <trkpt lat="56.53863" lon="60.814663">
        <ele>232.0</ele>
        <time>2022-06-29T17:21:15.116Z</time>
    </trkpt>
    <trkpt lat="56.538613" lon="60.814593">
        <ele>232.0</ele>
        <time>2022-06-29T17:21:16.116Z</time>
    </trkpt>
    <trkpt lat="56.538606" lon="60.814541">
        <ele>232.0</ele>
        <time>2022-06-29T17:21:17.116Z</time>
    </trkpt>
    <trkpt lat="56.538602" lon="60.814517">
        <ele>232.0</ele>
        <time>2022-06-29T17:21:18.116Z</time>
    </trkpt>
    <trkpt lat="56.538595" lon="60.814454">
        <ele>232.0</ele>
        <time>2022-06-29T17:21:19.116Z</time>
    </trkpt>
    <trkpt lat="56.53859" lon="60.814438">
        <ele>232.0</ele>
        <time>2022-06-29T17:21:20.116Z</time>
    </trkpt>
    <trkpt lat="56.538569" lon="60.814386">
        <ele>232.0</ele>
        <time>2022-06-29T17:21:21.116Z</time>
    </trkpt>
    <trkpt lat="56.538563" lon="60.814368">
        <ele>232.0</ele>
        <time>2022-06-29T17:21:22.116Z</time>
    </trkpt>
    <trkpt lat="56.538546" lon="60.814318">
        <ele>232.5</ele>
        <time>2022-06-29T17:21:23.116Z</time>
    </trkpt>
    <trkpt lat="56.538539" lon="60.814305">
        <ele>232.5</ele>
        <time>2022-06-29T17:21:24.116Z</time>
    </trkpt>
    <trkpt lat="56.538518" lon="60.814264">
        <ele>232.6</ele>
        <time>2022-06-29T17:21:25.116Z</time>
    </trkpt>
    <trkpt lat="56.538513" lon="60.814242">
        <ele>232.6</ele>
        <time>2022-06-29T17:21:26.116Z</time>
    </trkpt>
    <trkpt lat="56.538507" lon="60.814198">
        <ele>232.7</ele>
        <time>2022-06-29T17:21:27.116Z</time>
    </trkpt>
    <trkpt lat="56.5385" lon="60.81417">
        <ele>232.8</ele>
        <time>2022-06-29T17:21:28.116Z</time>
    </trkpt>
    <trkpt lat="56.538484" lon="60.814112">
        <ele>232.9</ele>
        <time>2022-06-29T17:21:29.116Z</time>
    </trkpt>
    <trkpt lat="56.538475" lon="60.814077">
        <ele>232.9</ele>
        <time>2022-06-29T17:21:30.116Z</time>
    </trkpt>
    <trkpt lat="56.538473" lon="60.814053">
        <ele>233.0</ele>
        <time>2022-06-29T17:21:31.116Z</time>
    </trkpt>
    <trkpt lat="56.538463" lon="60.814034">
        <ele>233.0</ele>
        <time>2022-06-29T17:21:32.116Z</time>
    </trkpt>
    <trkpt lat="56.538451" lon="60.814">
        <ele>233.1</ele>
        <time>2022-06-29T17:21:33.116Z</time>
    </trkpt>
    <trkpt lat="56.538443" lon="60.813979">
        <ele>233.1</ele>
        <time>2022-06-29T17:21:34.116Z</time>
    </trkpt>
    <trkpt lat="56.538432" lon="60.813934">
        <ele>233.2</ele>
        <time>2022-06-29T17:21:35.116Z</time>
    </trkpt>
    <trkpt lat="56.538422" lon="60.813906">
        <ele>233.2</ele>
        <time>2022-06-29T17:21:36.116Z</time>
    </trkpt>
    <trkpt lat="56.53841" lon="60.813857">
        <ele>233.3</ele>
        <time>2022-06-29T17:21:37.116Z</time>
    </trkpt>
    <trkpt lat="56.538393" lon="60.813798">
        <ele>233.4</ele>
        <time>2022-06-29T17:21:38.116Z</time>
    </trkpt>
    <trkpt lat="56.538388" lon="60.813786">
        <ele>233.4</ele>
        <time>2022-06-29T17:21:39.116Z</time>
    </trkpt>
    <trkpt lat="56.538369" lon="60.813737">
        <ele>233.5</ele>
        <time>2022-06-29T17:21:40.116Z</time>
    </trkpt>
    <trkpt lat="56.538367" lon="60.813721">
        <ele>233.5</ele>
        <time>2022-06-29T17:21:41.116Z</time>
    </trkpt>
    <trkpt lat="56.538366" lon="60.813705">
        <ele>233.5</ele>
        <time>2022-06-29T17:21:42.116Z</time>
    </trkpt>
    <trkpt lat="56.538359" lon="60.813669">
        <ele>233.6</ele>
        <time>2022-06-29T17:21:43.116Z</time>
    </trkpt>
    <trkpt lat="56.538352" lon="60.813653">
        <ele>233.6</ele>
        <time>2022-06-29T17:21:44.116Z</time>
    </trkpt>
    <trkpt lat="56.538337" lon="60.813608">
        <ele>233.7</ele>
        <time>2022-06-29T17:21:45.116Z</time>
    </trkpt>
    <trkpt lat="56.538322" lon="60.813549">
        <ele>233.8</ele>
        <time>2022-06-29T17:21:46.116Z</time>
    </trkpt>
    <trkpt lat="56.538315" lon="60.81353">
        <ele>233.8</ele>
        <time>2022-06-29T17:21:47.116Z</time>
    </trkpt>
    <trkpt lat="56.538299" lon="60.81347">
        <ele>233.9</ele>
        <time>2022-06-29T17:21:48.116Z</time>
    </trkpt>
    <trkpt lat="56.538298" lon="60.813452">
        <ele>233.9</ele>
        <time>2022-06-29T17:21:49.116Z</time>
    </trkpt>
    <trkpt lat="56.538295" lon="60.813404">
        <ele>234.0</ele>
        <time>2022-06-29T17:21:50.116Z</time>
    </trkpt>
    <trkpt lat="56.538289" lon="60.813355">
        <ele>234.0</ele>
        <time>2022-06-29T17:21:51.116Z</time>
    </trkpt>
    <trkpt lat="56.538286" lon="60.813323">
        <ele>234.1</ele>
        <time>2022-06-29T17:21:52.116Z</time>
    </trkpt>
    <trkpt lat="56.538283" lon="60.813263">
        <ele>234.1</ele>
        <time>2022-06-29T17:21:53.116Z</time>
    </trkpt>
    <trkpt lat="56.53827" lon="60.813197">
        <ele>234.2</ele>
        <time>2022-06-29T17:21:54.116Z</time>
    </trkpt>
    <trkpt lat="56.538262" lon="60.813149">
        <ele>234.3</ele>
        <time>2022-06-29T17:21:55.116Z</time>
    </trkpt>
    <trkpt lat="56.538276" lon="60.813068">
        <ele>234.4</ele>
        <time>2022-06-29T17:21:56.116Z</time>
    </trkpt>
    <trkpt lat="56.538276" lon="60.813047">
        <ele>234.4</ele>
        <time>2022-06-29T17:21:57.116Z</time>
    </trkpt>
    <trkpt lat="56.538274" lon="60.812982">
        <ele>234.5</ele>
        <time>2022-06-29T17:21:58.116Z</time>
    </trkpt>
    <trkpt lat="56.538273" lon="60.81295">
        <ele>234.5</ele>
        <time>2022-06-29T17:21:59.116Z</time>
    </trkpt>
    <trkpt lat="56.538275" lon="60.812883">
        <ele>234.6</ele>
        <time>2022-06-29T17:22:00.116Z</time>
    </trkpt>
    <trkpt lat="56.538269" lon="60.812796">
        <ele>234.8</ele>
        <time>2022-06-29T17:22:01.116Z</time>
    </trkpt>
    <trkpt lat="56.538271" lon="60.812768">
        <ele>234.9</ele>
        <time>2022-06-29T17:22:02.116Z</time>
    </trkpt>
    <trkpt lat="56.538269" lon="60.812696">
        <ele>235.0</ele>
        <time>2022-06-29T17:22:03.116Z</time>
    </trkpt>
    <trkpt lat="56.538269" lon="60.812661">
        <ele>235.1</ele>
        <time>2022-06-29T17:22:04.116Z</time>
    </trkpt>
    <trkpt lat="56.538273" lon="60.812612">
        <ele>235.2</ele>
        <time>2022-06-29T17:22:05.116Z</time>
    </trkpt>
    <trkpt lat="56.538271" lon="60.812598">
        <ele>235.2</ele>
        <time>2022-06-29T17:22:06.116Z</time>
    </trkpt>
    <trkpt lat="56.538255" lon="60.812543">
        <ele>235.3</ele>
        <time>2022-06-29T17:22:07.116Z</time>
    </trkpt>
    <trkpt lat="56.538248" lon="60.812527">
        <ele>235.4</ele>
        <time>2022-06-29T17:22:08.116Z</time>
    </trkpt>
    <trkpt lat="56.53824" lon="60.812473">
        <ele>235.5</ele>
        <time>2022-06-29T17:22:09.116Z</time>
    </trkpt>
    <trkpt lat="56.538226" lon="60.812419">
        <ele>235.6</ele>
        <time>2022-06-29T17:22:10.116Z</time>
    </trkpt>
    <trkpt lat="56.538213" lon="60.812361">
        <ele>235.7</ele>
        <time>2022-06-29T17:22:11.116Z</time>
    </trkpt>
    <trkpt lat="56.538205" lon="60.812297">
        <ele>235.8</ele>
        <time>2022-06-29T17:22:12.116Z</time>
    </trkpt>
    <trkpt lat="56.538191" lon="60.812237">
        <ele>235.9</ele>
        <time>2022-06-29T17:22:13.116Z</time>
    </trkpt>
    <trkpt lat="56.538181" lon="60.812184">
        <ele>236.0</ele>
        <time>2022-06-29T17:22:14.116Z</time>
    </trkpt>
    <trkpt lat="56.538166" lon="60.812127">
        <ele>236.1</ele>
        <time>2022-06-29T17:22:15.116Z</time>
    </trkpt>
    <trkpt lat="56.53815" lon="60.812053">
        <ele>236.2</ele>
        <time>2022-06-29T17:22:16.116Z</time>
    </trkpt>
    <trkpt lat="56.538135" lon="60.812006">
        <ele>236.3</ele>
        <time>2022-06-29T17:22:17.116Z</time>
    </trkpt>
    <trkpt lat="56.538125" lon="60.811953">
        <ele>236.4</ele>
        <time>2022-06-29T17:22:18.116Z</time>
    </trkpt>
    <trkpt lat="56.538114" lon="60.811898">
        <ele>236.5</ele>
        <time>2022-06-29T17:22:19.116Z</time>
    </trkpt>
    <trkpt lat="56.538104" lon="60.81183">
        <ele>236.6</ele>
        <time>2022-06-29T17:22:20.116Z</time>
    </trkpt>
    <trkpt lat="56.538102" lon="60.811797">
        <ele>236.6</ele>
        <time>2022-06-29T17:22:21.116Z</time>
    </trkpt>
    <trkpt lat="56.538099" lon="60.811727">
        <ele>236.7</ele>
        <time>2022-06-29T17:22:22.116Z</time>
    </trkpt>
    <trkpt lat="56.538094" lon="60.811688">
        <ele>236.8</ele>
        <time>2022-06-29T17:22:23.116Z</time>
    </trkpt>
    <trkpt lat="56.538081" lon="60.811603">
        <ele>236.9</ele>
        <time>2022-06-29T17:22:24.116Z</time>
    </trkpt>
    <trkpt lat="56.538076" lon="60.811537">
        <ele>236.9</ele>
        <time>2022-06-29T17:22:25.116Z</time>
    </trkpt>
    <trkpt lat="56.538076" lon="60.811508">
        <ele>237.0</ele>
        <time>2022-06-29T17:22:26.116Z</time>
    </trkpt>
    <trkpt lat="56.538082" lon="60.811445">
        <ele>237.1</ele>
        <time>2022-06-29T17:22:27.116Z</time>
    </trkpt>
    <trkpt lat="56.538077" lon="60.81141">
        <ele>237.1</ele>
        <time>2022-06-29T17:22:28.116Z</time>
    </trkpt>
    <trkpt lat="56.538074" lon="60.811347">
        <ele>237.2</ele>
        <time>2022-06-29T17:22:29.116Z</time>
    </trkpt>
    <trkpt lat="56.538067" lon="60.81131">
        <ele>237.2</ele>
        <time>2022-06-29T17:22:30.116Z</time>
    </trkpt>
    <trkpt lat="56.538057" lon="60.811242">
        <ele>237.3</ele>
        <time>2022-06-29T17:22:31.116Z</time>
    </trkpt>
    <trkpt lat="56.538051" lon="60.81121">
        <ele>237.4</ele>
        <time>2022-06-29T17:22:32.116Z</time>
    </trkpt>
    <trkpt lat="56.538046" lon="60.81114">
        <ele>237.4</ele>
        <time>2022-06-29T17:22:33.116Z</time>
    </trkpt>
    <trkpt lat="56.538034" lon="60.811092">
        <ele>237.5</ele>
        <time>2022-06-29T17:22:34.116Z</time>
    </trkpt>
    <trkpt lat="56.538028" lon="60.811067">
        <ele>237.5</ele>
        <time>2022-06-29T17:22:35.116Z</time>
    </trkpt>
    <trkpt lat="56.538011" lon="60.811003">
        <ele>237.5</ele>
        <time>2022-06-29T17:22:36.116Z</time>
    </trkpt>
    <trkpt lat="56.538004" lon="60.810986">
        <ele>237.5</ele>
        <time>2022-06-29T17:22:37.116Z</time>
    </trkpt>
    <trkpt lat="56.537995" lon="60.810922">
        <ele>237.5</ele>
        <time>2022-06-29T17:22:38.116Z</time>
    </trkpt>
    <trkpt lat="56.537993" lon="60.8109">
        <ele>237.5</ele>
        <time>2022-06-29T17:22:39.116Z</time>
    </trkpt>
    <trkpt lat="56.537985" lon="60.810845">
        <ele>237.5</ele>
        <time>2022-06-29T17:22:40.116Z</time>
    </trkpt>
    <trkpt lat="56.537977" lon="60.810777">
        <ele>237.5</ele>
        <time>2022-06-29T17:22:41.116Z</time>
    </trkpt>
    <trkpt lat="56.537968" lon="60.81073">
        <ele>237.5</ele>
        <time>2022-06-29T17:22:42.116Z</time>
    </trkpt>
    <trkpt lat="56.537952" lon="60.810676">
        <ele>237.5</ele>
        <time>2022-06-29T17:22:43.116Z</time>
    </trkpt>
    <trkpt lat="56.537948" lon="60.810655">
        <ele>237.5</ele>
        <time>2022-06-29T17:22:44.116Z</time>
    </trkpt>
    <trkpt lat="56.537939" lon="60.810587">
        <ele>237.5</ele>
        <time>2022-06-29T17:22:45.116Z</time>
    </trkpt>
    <trkpt lat="56.537933" lon="60.810553">
        <ele>237.6</ele>
        <time>2022-06-29T17:22:46.116Z</time>
    </trkpt>
    <trkpt lat="56.537922" lon="60.810472">
        <ele>237.7</ele>
        <time>2022-06-29T17:22:47.116Z</time>
    </trkpt>
    <trkpt lat="56.537903" lon="60.810431">
        <ele>237.8</ele>
        <time>2022-06-29T17:22:48.116Z</time>
    </trkpt>
    <trkpt lat="56.537898" lon="60.810412">
        <ele>237.8</ele>
        <time>2022-06-29T17:22:49.116Z</time>
    </trkpt>
    <trkpt lat="56.53788" lon="60.810362">
        <ele>237.9</ele>
        <time>2022-06-29T17:22:50.116Z</time>
    </trkpt>
    <trkpt lat="56.537873" lon="60.810329">
        <ele>238.0</ele>
        <time>2022-06-29T17:22:51.116Z</time>
    </trkpt>
    <trkpt lat="56.537858" lon="60.810252">
        <ele>238.1</ele>
        <time>2022-06-29T17:22:52.116Z</time>
    </trkpt>
    <trkpt lat="56.537851" lon="60.810221">
        <ele>238.2</ele>
        <time>2022-06-29T17:22:53.116Z</time>
    </trkpt>
    <trkpt lat="56.537834" lon="60.810156">
        <ele>238.3</ele>
        <time>2022-06-29T17:22:54.116Z</time>
    </trkpt>
    <trkpt lat="56.537822" lon="60.810087">
        <ele>238.4</ele>
        <time>2022-06-29T17:22:55.116Z</time>
    </trkpt>
    <trkpt lat="56.537809" lon="60.810073">
        <ele>238.4</ele>
        <time>2022-06-29T17:22:56.116Z</time>
    </trkpt>
    <trkpt lat="56.537803" lon="60.810048">
        <ele>238.5</ele>
        <time>2022-06-29T17:22:57.116Z</time>
    </trkpt>
    <trkpt lat="56.537793" lon="60.81003">
        <ele>238.5</ele>
        <time>2022-06-29T17:22:58.116Z</time>
    </trkpt>
    <trkpt lat="56.537779" lon="60.810006">
        <ele>238.5</ele>
        <time>2022-06-29T17:22:59.116Z</time>
    </trkpt>
    <trkpt lat="56.537759" lon="60.80997">
        <ele>238.5</ele>
        <time>2022-06-29T17:23:00.116Z</time>
    </trkpt>
    <trkpt lat="56.537741" lon="60.809926">
        <ele>238.5</ele>
        <time>2022-06-29T17:23:01.116Z</time>
    </trkpt>
    <trkpt lat="56.537724" lon="60.809871">
        <ele>238.4</ele>
        <time>2022-06-29T17:23:02.116Z</time>
    </trkpt>
    <trkpt lat="56.53771" lon="60.809819">
        <ele>238.4</ele>
        <time>2022-06-29T17:23:03.116Z</time>
    </trkpt>
    <trkpt lat="56.537703" lon="60.809799">
        <ele>238.4</ele>
        <time>2022-06-29T17:23:04.116Z</time>
    </trkpt>
    <trkpt lat="56.537686" lon="60.809755">
        <ele>238.3</ele>
        <time>2022-06-29T17:23:05.116Z</time>
    </trkpt>
    <trkpt lat="56.53767" lon="60.809709">
        <ele>238.3</ele>
        <time>2022-06-29T17:23:06.116Z</time>
    </trkpt>
    <trkpt lat="56.537661" lon="60.809696">
        <ele>238.3</ele>
        <time>2022-06-29T17:23:07.116Z</time>
    </trkpt>
    <trkpt lat="56.537641" lon="60.809656">
        <ele>238.3</ele>
        <time>2022-06-29T17:23:08.116Z</time>
    </trkpt>
    <trkpt lat="56.53763" lon="60.809636">
        <ele>238.3</ele>
        <time>2022-06-29T17:23:09.116Z</time>
    </trkpt>
    <trkpt lat="56.537603" lon="60.809589">
        <ele>238.3</ele>
        <time>2022-06-29T17:23:10.116Z</time>
    </trkpt>
    <trkpt lat="56.537581" lon="60.809551">
        <ele>238.3</ele>
        <time>2022-06-29T17:23:11.116Z</time>
    </trkpt>
    <trkpt lat="56.537569" lon="60.809531">
        <ele>238.3</ele>
        <time>2022-06-29T17:23:12.116Z</time>
    </trkpt>
    <trkpt lat="56.53755" lon="60.809523">
        <ele>238.3</ele>
        <time>2022-06-29T17:23:13.116Z</time>
    </trkpt>
    <trkpt lat="56.537534" lon="60.809507">
        <ele>238.3</ele>
        <time>2022-06-29T17:23:14.116Z</time>
    </trkpt>
    <trkpt lat="56.537518" lon="60.809503">
        <ele>238.3</ele>
        <time>2022-06-29T17:23:15.116Z</time>
    </trkpt>
    <trkpt lat="56.537509" lon="60.809497">
        <ele>238.3</ele>
        <time>2022-06-29T17:23:16.116Z</time>
    </trkpt>
    <trkpt lat="56.53748" lon="60.809478">
        <ele>238.3</ele>
        <time>2022-06-29T17:23:17.116Z</time>
    </trkpt>
    <trkpt lat="56.537464" lon="60.80946">
        <ele>238.3</ele>
        <time>2022-06-29T17:23:18.116Z</time>
    </trkpt>
    <trkpt lat="56.537453" lon="60.809444">
        <ele>238.4</ele>
        <time>2022-06-29T17:23:19.116Z</time>
    </trkpt>
    <trkpt lat="56.53744" lon="60.809417">
        <ele>238.4</ele>
        <time>2022-06-29T17:23:20.116Z</time>
    </trkpt>
    <trkpt lat="56.537424" lon="60.809407">
        <ele>238.4</ele>
        <time>2022-06-29T17:23:21.116Z</time>
    </trkpt>
    <trkpt lat="56.537408" lon="60.809395">
        <ele>238.4</ele>
        <time>2022-06-29T17:23:22.116Z</time>
    </trkpt>
    <trkpt lat="56.537395" lon="60.809382">
        <ele>238.4</ele>
        <time>2022-06-29T17:23:23.116Z</time>
    </trkpt>
    <trkpt lat="56.537387" lon="60.809376">
        <ele>238.4</ele>
        <time>2022-06-29T17:23:24.116Z</time>
    </trkpt>
    <trkpt lat="56.537356" lon="60.809364">
        <ele>238.5</ele>
        <time>2022-06-29T17:23:25.116Z</time>
    </trkpt>
    <trkpt lat="56.537351" lon="60.809352">
        <ele>238.5</ele>
        <time>2022-06-29T17:23:26.116Z</time>
    </trkpt>
    <trkpt lat="56.537333" lon="60.80931">
        <ele>238.6</ele>
        <time>2022-06-29T17:23:27.116Z</time>
    </trkpt>
    <trkpt lat="56.537325" lon="60.809296">
        <ele>238.6</ele>
        <time>2022-06-29T17:23:28.116Z</time>
    </trkpt>
    <trkpt lat="56.537311" lon="60.809269">
        <ele>238.7</ele>
        <time>2022-06-29T17:23:29.116Z</time>
    </trkpt>
    <trkpt lat="56.537301" lon="60.809221">
        <ele>238.8</ele>
        <time>2022-06-29T17:23:30.116Z</time>
    </trkpt>
    <trkpt lat="56.537289" lon="60.809199">
        <ele>238.9</ele>
        <time>2022-06-29T17:23:31.116Z</time>
    </trkpt>
    <trkpt lat="56.53726" lon="60.809143">
        <ele>239.0</ele>
        <time>2022-06-29T17:23:32.116Z</time>
    </trkpt>
    <trkpt lat="56.537252" lon="60.809124">
        <ele>239.1</ele>
        <time>2022-06-29T17:23:33.116Z</time>
    </trkpt>
    <trkpt lat="56.537227" lon="60.809071">
        <ele>239.2</ele>
        <time>2022-06-29T17:23:34.116Z</time>
    </trkpt>
    <trkpt lat="56.537223" lon="60.809049">
        <ele>239.2</ele>
        <time>2022-06-29T17:23:35.116Z</time>
    </trkpt>
    <trkpt lat="56.537204" lon="60.809012">
        <ele>239.3</ele>
        <time>2022-06-29T17:23:36.116Z</time>
    </trkpt>
    <trkpt lat="56.537187" lon="60.808974">
        <ele>239.3</ele>
        <time>2022-06-29T17:23:37.116Z</time>
    </trkpt>
    <trkpt lat="56.537171" lon="60.808944">
        <ele>239.4</ele>
        <time>2022-06-29T17:23:38.116Z</time>
    </trkpt>
    <trkpt lat="56.537164" lon="60.808934">
        <ele>239.4</ele>
        <time>2022-06-29T17:23:39.116Z</time>
    </trkpt>
    <trkpt lat="56.53715" lon="60.80892">
        <ele>239.4</ele>
        <time>2022-06-29T17:23:40.116Z</time>
    </trkpt>
    <trkpt lat="56.537124" lon="60.808879">
        <ele>239.4</ele>
        <time>2022-06-29T17:23:41.116Z</time>
    </trkpt>
    <trkpt lat="56.537103" lon="60.808857">
        <ele>239.4</ele>
        <time>2022-06-29T17:23:42.116Z</time>
    </trkpt>
    <trkpt lat="56.53707" lon="60.808809">
        <ele>239.5</ele>
        <time>2022-06-29T17:23:43.116Z</time>
    </trkpt>
    <trkpt lat="56.537033" lon="60.808761">
        <ele>239.5</ele>
        <time>2022-06-29T17:23:44.116Z</time>
    </trkpt>
    <trkpt lat="56.537024" lon="60.808746">
        <ele>239.5</ele>
        <time>2022-06-29T17:23:45.116Z</time>
    </trkpt>
    <trkpt lat="56.536998" lon="60.808717">
        <ele>239.5</ele>
        <time>2022-06-29T17:23:46.116Z</time>
    </trkpt>
    <trkpt lat="56.536971" lon="60.808699">
        <ele>239.5</ele>
        <time>2022-06-29T17:23:47.116Z</time>
    </trkpt>
    <trkpt lat="56.536946" lon="60.808678">
        <ele>239.6</ele>
        <time>2022-06-29T17:23:48.116Z</time>
    </trkpt>
    <trkpt lat="56.536933" lon="60.808678">
        <ele>239.6</ele>
        <time>2022-06-29T17:23:49.116Z</time>
    </trkpt>
    <trkpt lat="56.536899" lon="60.808665">
        <ele>239.6</ele>
        <time>2022-06-29T17:23:50.116Z</time>
    </trkpt>
    <trkpt lat="56.53688" lon="60.808645">
        <ele>239.7</ele>
        <time>2022-06-29T17:23:51.116Z</time>
    </trkpt>
    <trkpt lat="56.536872" lon="60.808634">
        <ele>239.7</ele>
        <time>2022-06-29T17:23:52.116Z</time>
    </trkpt>
    <trkpt lat="56.53686" lon="60.80863">
        <ele>239.7</ele>
        <time>2022-06-29T17:23:53.116Z</time>
    </trkpt>
    <trkpt lat="56.536826" lon="60.808611">
        <ele>239.8</ele>
        <time>2022-06-29T17:23:54.116Z</time>
    </trkpt>
    <trkpt lat="56.536795" lon="60.808582">
        <ele>239.9</ele>
        <time>2022-06-29T17:23:55.116Z</time>
    </trkpt>
    <trkpt lat="56.536783" lon="60.808562">
        <ele>239.9</ele>
        <time>2022-06-29T17:23:56.116Z</time>
    </trkpt>
    <trkpt lat="56.536772" lon="60.808545">
        <ele>239.9</ele>
        <time>2022-06-29T17:23:57.116Z</time>
    </trkpt>
    <trkpt lat="56.536756" lon="60.808538">
        <ele>240.0</ele>
        <time>2022-06-29T17:23:58.116Z</time>
    </trkpt>
    <trkpt lat="56.536739" lon="60.808536">
        <ele>240.0</ele>
        <time>2022-06-29T17:23:59.116Z</time>
    </trkpt>
    <trkpt lat="56.536728" lon="60.808533">
        <ele>240.1</ele>
        <time>2022-06-29T17:24:00.116Z</time>
    </trkpt>
    <trkpt lat="56.536702" lon="60.80853">
        <ele>240.1</ele>
        <time>2022-06-29T17:24:01.116Z</time>
    </trkpt>
    <trkpt lat="56.536693" lon="60.808522">
        <ele>240.2</ele>
        <time>2022-06-29T17:24:02.116Z</time>
    </trkpt>
    <trkpt lat="56.536683" lon="60.808515">
        <ele>240.2</ele>
        <time>2022-06-29T17:24:03.116Z</time>
    </trkpt>
    <trkpt lat="56.536674" lon="60.808508">
        <ele>240.2</ele>
        <time>2022-06-29T17:24:04.116Z</time>
    </trkpt>
    <trkpt lat="56.536654" lon="60.808497">
        <ele>240.3</ele>
        <time>2022-06-29T17:24:05.116Z</time>
    </trkpt>
    <trkpt lat="56.536644" lon="60.808489">
        <ele>240.3</ele>
        <time>2022-06-29T17:24:06.116Z</time>
    </trkpt>
    <trkpt lat="56.536627" lon="60.808471">
        <ele>240.4</ele>
        <time>2022-06-29T17:24:07.116Z</time>
    </trkpt>
    <trkpt lat="56.536492" lon="60.808158">
        <ele>241.0</ele>
        <time>2022-06-29T17:24:43.116Z</time>
    </trkpt>
    <trkpt lat="56.536508" lon="60.808064">
        <ele>241.1</ele>
        <time>2022-06-29T17:24:44.116Z</time>
    </trkpt>
    <trkpt lat="56.536508" lon="60.808064">
        <ele>241.1</ele>
        <time>2022-06-29T17:24:45.116Z</time>
    </trkpt>
    <trkpt lat="56.536508" lon="60.808064">
        <ele>241.1</ele>
        <time>2022-06-29T17:24:46.116Z</time>
    </trkpt>
    <trkpt lat="56.536508" lon="60.808064">
        <ele>241.1</ele>
        <time>2022-06-29T17:24:47.116Z</time>
    </trkpt>
    <trkpt lat="56.536508" lon="60.808064">
        <ele>241.1</ele>
        <time>2022-06-29T17:24:48.116Z</time>
    </trkpt>
    <trkpt lat="56.536508" lon="60.808064">
        <ele>241.1</ele>
        <time>2022-06-29T17:24:49.116Z</time>
    </trkpt>
    <trkpt lat="56.536508" lon="60.808064">
        <ele>241.1</ele>
        <time>2022-06-29T17:24:50.116Z</time>
    </trkpt>
    <trkpt lat="56.536515" lon="60.80805">
        <ele>241.1</ele>
        <time>2022-06-29T17:24:51.116Z</time>
    </trkpt>
    <trkpt lat="56.536517" lon="60.80804">
        <ele>241.1</ele>
        <time>2022-06-29T17:24:52.116Z</time>
    </trkpt>
    <trkpt lat="56.536518" lon="60.808028">
        <ele>241.1</ele>
        <time>2022-06-29T17:24:53.116Z</time>
    </trkpt>
    <trkpt lat="56.536508" lon="60.808003">
        <ele>241.2</ele>
        <time>2022-06-29T17:24:54.116Z</time>
    </trkpt>
    <trkpt lat="56.536493" lon="60.807984">
        <ele>241.2</ele>
        <time>2022-06-29T17:24:55.116Z</time>
    </trkpt>
    <trkpt lat="56.536478" lon="60.807967">
        <ele>241.2</ele>
        <time>2022-06-29T17:24:56.116Z</time>
    </trkpt>
    <trkpt lat="56.536454" lon="60.807932">
        <ele>241.3</ele>
        <time>2022-06-29T17:24:57.116Z</time>
    </trkpt>
    <trkpt lat="56.536436" lon="60.807888">
        <ele>241.4</ele>
        <time>2022-06-29T17:24:58.116Z</time>
    </trkpt>
    <trkpt lat="56.536415" lon="60.807848">
        <ele>241.4</ele>
        <time>2022-06-29T17:24:59.116Z</time>
    </trkpt>
    <trkpt lat="56.536388" lon="60.80781">
        <ele>241.5</ele>
        <time>2022-06-29T17:25:00.116Z</time>
    </trkpt>
    <trkpt lat="56.536379" lon="60.807801">
        <ele>241.5</ele>
        <time>2022-06-29T17:25:01.116Z</time>
    </trkpt>
    <trkpt lat="56.536371" lon="60.807792">
        <ele>241.5</ele>
        <time>2022-06-29T17:25:02.116Z</time>
    </trkpt>
    <trkpt lat="56.536353" lon="60.807777">
        <ele>241.5</ele>
        <time>2022-06-29T17:25:03.116Z</time>
    </trkpt>
    <trkpt lat="56.536346" lon="60.807771">
        <ele>241.5</ele>
        <time>2022-06-29T17:25:04.116Z</time>
    </trkpt>
    <trkpt lat="56.536322" lon="60.80776">
        <ele>241.5</ele>
        <time>2022-06-29T17:25:05.116Z</time>
    </trkpt>
    <trkpt lat="56.536311" lon="60.807757">
        <ele>241.5</ele>
        <time>2022-06-29T17:25:06.116Z</time>
    </trkpt>
    <trkpt lat="56.536301" lon="60.807754">
        <ele>241.5</ele>
        <time>2022-06-29T17:25:07.116Z</time>
    </trkpt>
    <trkpt lat="56.53629" lon="60.807751">
        <ele>241.5</ele>
        <time>2022-06-29T17:25:08.116Z</time>
    </trkpt>
    <trkpt lat="56.536277" lon="60.807744">
        <ele>241.5</ele>
        <time>2022-06-29T17:25:09.116Z</time>
    </trkpt>
    <trkpt lat="56.536265" lon="60.807733">
        <ele>241.5</ele>
        <time>2022-06-29T17:25:10.116Z</time>
    </trkpt>
    <trkpt lat="56.536253" lon="60.807722">
        <ele>241.5</ele>
        <time>2022-06-29T17:25:11.116Z</time>
    </trkpt>
    <trkpt lat="56.536233" lon="60.807708">
        <ele>241.5</ele>
        <time>2022-06-29T17:25:12.116Z</time>
    </trkpt>
    <trkpt lat="56.53622" lon="60.807692">
        <ele>241.5</ele>
        <time>2022-06-29T17:25:13.116Z</time>
    </trkpt>
    <trkpt lat="56.536206" lon="60.80768">
        <ele>241.5</ele>
        <time>2022-06-29T17:25:14.116Z</time>
    </trkpt>
    <trkpt lat="56.536206" lon="60.807666">
        <ele>241.5</ele>
        <time>2022-06-29T17:25:15.116Z</time>
    </trkpt>
    <trkpt lat="56.536198" lon="60.807649">
        <ele>241.6</ele>
        <time>2022-06-29T17:25:16.116Z</time>
    </trkpt>
    <trkpt lat="56.53619" lon="60.807631">
        <ele>241.6</ele>
        <time>2022-06-29T17:25:17.116Z</time>
    </trkpt>
    <trkpt lat="56.536167" lon="60.807607">
        <ele>241.6</ele>
        <time>2022-06-29T17:25:18.116Z</time>
    </trkpt>
    <trkpt lat="56.536158" lon="60.807604">
        <ele>241.6</ele>
        <time>2022-06-29T17:25:19.116Z</time>
    </trkpt>
    <trkpt lat="56.536149" lon="60.8076">
        <ele>241.6</ele>
        <time>2022-06-29T17:25:20.116Z</time>
    </trkpt>
    <trkpt lat="56.536131" lon="60.807595">
        <ele>241.7</ele>
        <time>2022-06-29T17:25:21.116Z</time>
    </trkpt>
    <trkpt lat="56.536125" lon="60.807576">
        <ele>241.7</ele>
        <time>2022-06-29T17:25:22.116Z</time>
    </trkpt>
    <trkpt lat="56.53612" lon="60.807574">
        <ele>241.7</ele>
        <time>2022-06-29T17:25:23.116Z</time>
    </trkpt>
    <trkpt lat="56.536105" lon="60.807569">
        <ele>241.7</ele>
        <time>2022-06-29T17:25:24.116Z</time>
    </trkpt>
    <trkpt lat="56.536096" lon="60.807575">
        <ele>241.7</ele>
        <time>2022-06-29T17:25:25.116Z</time>
    </trkpt>
    <trkpt lat="56.536087" lon="60.80758">
        <ele>241.7</ele>
        <time>2022-06-29T17:25:26.116Z</time>
    </trkpt>
    <trkpt lat="56.53607" lon="60.80759">
        <ele>241.7</ele>
        <time>2022-06-29T17:25:27.116Z</time>
    </trkpt>
    <trkpt lat="56.536061" lon="60.807587">
        <ele>241.7</ele>
        <time>2022-06-29T17:25:28.116Z</time>
    </trkpt>
    <trkpt lat="56.536047" lon="60.807579">
        <ele>241.8</ele>
        <time>2022-06-29T17:25:29.116Z</time>
    </trkpt>
    <trkpt lat="56.536037" lon="60.807577">
        <ele>241.8</ele>
        <time>2022-06-29T17:25:30.116Z</time>
    </trkpt>
    <trkpt lat="56.536028" lon="60.807564">
        <ele>241.8</ele>
        <time>2022-06-29T17:25:31.116Z</time>
    </trkpt>
    <trkpt lat="56.536025" lon="60.807551">
        <ele>241.8</ele>
        <time>2022-06-29T17:25:32.116Z</time>
    </trkpt>
    <trkpt lat="56.536023" lon="60.807522">
        <ele>241.8</ele>
        <time>2022-06-29T17:25:33.116Z</time>
    </trkpt>
    <trkpt lat="56.536023" lon="60.807482">
        <ele>241.7</ele>
        <time>2022-06-29T17:25:34.116Z</time>
    </trkpt>
    <trkpt lat="56.536024" lon="60.807465">
        <ele>241.7</ele>
        <time>2022-06-29T17:25:35.116Z</time>
    </trkpt>
    <trkpt lat="56.535943" lon="60.807275">
        <ele>241.7</ele>
        <time>2022-06-29T17:25:58.116Z</time>
    </trkpt>
    <trkpt lat="56.535938" lon="60.807261">
        <ele>241.7</ele>
        <time>2022-06-29T17:25:59.116Z</time>
    </trkpt>
    <trkpt lat="56.535933" lon="60.807242">
        <ele>241.7</ele>
        <time>2022-06-29T17:26:00.116Z</time>
    </trkpt>
    <trkpt lat="56.535935" lon="60.807214">
        <ele>241.7</ele>
        <time>2022-06-29T17:26:01.116Z</time>
    </trkpt>
    <trkpt lat="56.53593" lon="60.807188">
        <ele>241.8</ele>
        <time>2022-06-29T17:26:02.116Z</time>
    </trkpt>
    <trkpt lat="56.535928" lon="60.807163">
        <ele>241.8</ele>
        <time>2022-06-29T17:26:03.116Z</time>
    </trkpt>
    <trkpt lat="56.535911" lon="60.80715">
        <ele>241.8</ele>
        <time>2022-06-29T17:26:04.116Z</time>
    </trkpt>
    <trkpt lat="56.5359" lon="60.807111">
        <ele>241.9</ele>
        <time>2022-06-29T17:26:05.116Z</time>
    </trkpt>
    <trkpt lat="56.53591" lon="60.807105">
        <ele>241.9</ele>
        <time>2022-06-29T17:26:06.116Z</time>
    </trkpt>
    <trkpt lat="56.535906" lon="60.807085">
        <ele>241.9</ele>
        <time>2022-06-29T17:26:07.116Z</time>
    </trkpt>
    <trkpt lat="56.535894" lon="60.807069">
        <ele>241.9</ele>
        <time>2022-06-29T17:26:08.116Z</time>
    </trkpt>
    <trkpt lat="56.535881" lon="60.807039">
        <ele>242.0</ele>
        <time>2022-06-29T17:26:09.116Z</time>
    </trkpt>
    <trkpt lat="56.535871" lon="60.807027">
        <ele>242.0</ele>
        <time>2022-06-29T17:26:10.116Z</time>
    </trkpt>
    <trkpt lat="56.535843" lon="60.806985">
        <ele>242.2</ele>
        <time>2022-06-29T17:26:11.116Z</time>
    </trkpt>
    <trkpt lat="56.535838" lon="60.806962">
        <ele>242.2</ele>
        <time>2022-06-29T17:26:12.116Z</time>
    </trkpt>
    <trkpt lat="56.535827" lon="60.806903">
        <ele>242.4</ele>
        <time>2022-06-29T17:26:13.116Z</time>
    </trkpt>
    <trkpt lat="56.535823" lon="60.806878">
        <ele>242.4</ele>
        <time>2022-06-29T17:26:14.116Z</time>
    </trkpt>
    <trkpt lat="56.535807" lon="60.806818">
        <ele>242.6</ele>
        <time>2022-06-29T17:26:15.116Z</time>
    </trkpt>
    <trkpt lat="56.535802" lon="60.806791">
        <ele>242.7</ele>
        <time>2022-06-29T17:26:16.116Z</time>
    </trkpt>
    <trkpt lat="56.535787" lon="60.80672">
        <ele>242.9</ele>
        <time>2022-06-29T17:26:17.116Z</time>
    </trkpt>
    <trkpt lat="56.535781" lon="60.806694">
        <ele>243.0</ele>
        <time>2022-06-29T17:26:18.116Z</time>
    </trkpt>
    <trkpt lat="56.535761" lon="60.80664">
        <ele>243.1</ele>
        <time>2022-06-29T17:26:19.116Z</time>
    </trkpt>
    <trkpt lat="56.535753" lon="60.806624">
        <ele>243.1</ele>
        <time>2022-06-29T17:26:20.116Z</time>
    </trkpt>
    <trkpt lat="56.535738" lon="60.806581">
        <ele>243.2</ele>
        <time>2022-06-29T17:26:21.116Z</time>
    </trkpt>
    <trkpt lat="56.535728" lon="60.806555">
        <ele>243.3</ele>
        <time>2022-06-29T17:26:22.116Z</time>
    </trkpt>
    <trkpt lat="56.535708" lon="60.806488">
        <ele>243.4</ele>
        <time>2022-06-29T17:26:23.116Z</time>
    </trkpt>
    <trkpt lat="56.5357" lon="60.806468">
        <ele>243.4</ele>
        <time>2022-06-29T17:26:24.116Z</time>
    </trkpt>
    <trkpt lat="56.535683" lon="60.80643">
        <ele>243.5</ele>
        <time>2022-06-29T17:26:25.116Z</time>
    </trkpt>
    <trkpt lat="56.535668" lon="60.806386">
        <ele>243.6</ele>
        <time>2022-06-29T17:26:26.116Z</time>
    </trkpt>
    <trkpt lat="56.535661" lon="60.806366">
        <ele>243.6</ele>
        <time>2022-06-29T17:26:27.116Z</time>
    </trkpt>
    <trkpt lat="56.535639" lon="60.80632">
        <ele>243.7</ele>
        <time>2022-06-29T17:26:28.116Z</time>
    </trkpt>
    <trkpt lat="56.53562" lon="60.806272">
        <ele>243.7</ele>
        <time>2022-06-29T17:26:29.116Z</time>
    </trkpt>
    <trkpt lat="56.535615" lon="60.806246">
        <ele>243.8</ele>
        <time>2022-06-29T17:26:30.116Z</time>
    </trkpt>
    <trkpt lat="56.535606" lon="60.806185">
        <ele>243.9</ele>
        <time>2022-06-29T17:26:31.116Z</time>
    </trkpt>
    <trkpt lat="56.535598" lon="60.806168">
        <ele>243.9</ele>
        <time>2022-06-29T17:26:32.116Z</time>
    </trkpt>
    <trkpt lat="56.535577" lon="60.806132">
        <ele>243.9</ele>
        <time>2022-06-29T17:26:33.116Z</time>
    </trkpt>
    <trkpt lat="56.535567" lon="60.806085">
        <ele>244.0</ele>
        <time>2022-06-29T17:26:34.116Z</time>
    </trkpt>
    <trkpt lat="56.535572" lon="60.806075">
        <ele>244.0</ele>
        <time>2022-06-29T17:26:35.116Z</time>
    </trkpt>
    <trkpt lat="56.535573" lon="60.806017">
        <ele>244.1</ele>
        <time>2022-06-29T17:26:36.116Z</time>
    </trkpt>
    <trkpt lat="56.535571" lon="60.805995">
        <ele>244.1</ele>
        <time>2022-06-29T17:26:37.116Z</time>
    </trkpt>
    <trkpt lat="56.535566" lon="60.80595">
        <ele>244.1</ele>
        <time>2022-06-29T17:26:38.116Z</time>
    </trkpt>
    <trkpt lat="56.535565" lon="60.805925">
        <ele>244.2</ele>
        <time>2022-06-29T17:26:39.116Z</time>
    </trkpt>
    <trkpt lat="56.535568" lon="60.805868">
        <ele>244.2</ele>
        <time>2022-06-29T17:26:40.116Z</time>
    </trkpt>
    <trkpt lat="56.535558" lon="60.805839">
        <ele>244.2</ele>
        <time>2022-06-29T17:26:41.116Z</time>
    </trkpt>
    <trkpt lat="56.53554" lon="60.805786">
        <ele>244.3</ele>
        <time>2022-06-29T17:26:42.116Z</time>
    </trkpt>
    <trkpt lat="56.535533" lon="60.805771">
        <ele>244.3</ele>
        <time>2022-06-29T17:26:43.116Z</time>
    </trkpt>
    <trkpt lat="56.535512" lon="60.805733">
        <ele>244.3</ele>
        <time>2022-06-29T17:26:45.116Z</time>
    </trkpt>
    <trkpt lat="56.535495" lon="60.805713">
        <ele>244.4</ele>
        <time>2022-06-29T17:26:46.116Z</time>
    </trkpt>
    <trkpt lat="56.535484" lon="60.805711">
        <ele>244.4</ele>
        <time>2022-06-29T17:26:47.116Z</time>
    </trkpt>
    <trkpt lat="56.535474" lon="60.805699">
        <ele>244.4</ele>
        <time>2022-06-29T17:26:48.116Z</time>
    </trkpt>
    <trkpt lat="56.535442" lon="60.805675">
        <ele>244.5</ele>
        <time>2022-06-29T17:26:49.116Z</time>
    </trkpt>
    <trkpt lat="56.535438" lon="60.805645">
        <ele>244.5</ele>
        <time>2022-06-29T17:26:50.116Z</time>
    </trkpt>
    <trkpt lat="56.535422" lon="60.805592">
        <ele>244.6</ele>
        <time>2022-06-29T17:26:51.116Z</time>
    </trkpt>
    <trkpt lat="56.535417" lon="60.805568">
        <ele>244.6</ele>
        <time>2022-06-29T17:26:52.116Z</time>
    </trkpt>
    <trkpt lat="56.535404" lon="60.805533">
        <ele>244.7</ele>
        <time>2022-06-29T17:26:53.116Z</time>
    </trkpt>
    <trkpt lat="56.535397" lon="60.805517">
        <ele>244.7</ele>
        <time>2022-06-29T17:26:54.116Z</time>
    </trkpt>
    <trkpt lat="56.535386" lon="60.805505">
        <ele>244.8</ele>
        <time>2022-06-29T17:26:55.116Z</time>
    </trkpt>
    <trkpt lat="56.535376" lon="60.80548">
        <ele>244.8</ele>
        <time>2022-06-29T17:26:56.116Z</time>
    </trkpt>
    <trkpt lat="56.535373" lon="60.805478">
        <ele>244.8</ele>
        <time>2022-06-29T17:26:57.116Z</time>
    </trkpt>
    <trkpt lat="56.535353" lon="60.805458">
        <ele>244.9</ele>
        <time>2022-06-29T17:26:58.116Z</time>
    </trkpt>
    <trkpt lat="56.535341" lon="60.805446">
        <ele>245.0</ele>
        <time>2022-06-29T17:26:59.116Z</time>
    </trkpt>
    <trkpt lat="56.535329" lon="60.805435">
        <ele>245.0</ele>
        <time>2022-06-29T17:27:00.116Z</time>
    </trkpt>
    <trkpt lat="56.535309" lon="60.80541">
        <ele>245.1</ele>
        <time>2022-06-29T17:27:01.116Z</time>
    </trkpt>
    <trkpt lat="56.535298" lon="60.805404">
        <ele>245.2</ele>
        <time>2022-06-29T17:27:02.116Z</time>
    </trkpt>
    <trkpt lat="56.535278" lon="60.805384">
        <ele>245.3</ele>
        <time>2022-06-29T17:27:03.116Z</time>
    </trkpt>
    <trkpt lat="56.535265" lon="60.805377">
        <ele>245.3</ele>
        <time>2022-06-29T17:27:04.116Z</time>
    </trkpt>
    <trkpt lat="56.535236" lon="60.805344">
        <ele>245.5</ele>
        <time>2022-06-29T17:27:05.116Z</time>
    </trkpt>
    <trkpt lat="56.53522" lon="60.805327">
        <ele>245.6</ele>
        <time>2022-06-29T17:27:06.116Z</time>
    </trkpt>
    <trkpt lat="56.535207" lon="60.805317">
        <ele>245.6</ele>
        <time>2022-06-29T17:27:07.116Z</time>
    </trkpt>
    <trkpt lat="56.535196" lon="60.805303">
        <ele>245.7</ele>
        <time>2022-06-29T17:27:08.116Z</time>
    </trkpt>
    <trkpt lat="56.535181" lon="60.805286">
        <ele>245.8</ele>
        <time>2022-06-29T17:27:09.116Z</time>
    </trkpt>
    <trkpt lat="56.535168" lon="60.805278">
        <ele>245.8</ele>
        <time>2022-06-29T17:27:10.116Z</time>
    </trkpt>
    <trkpt lat="56.535149" lon="60.805274">
        <ele>245.9</ele>
        <time>2022-06-29T17:27:11.116Z</time>
    </trkpt>
    <trkpt lat="56.535141" lon="60.805251">
        <ele>245.9</ele>
        <time>2022-06-29T17:27:12.116Z</time>
    </trkpt>
    <trkpt lat="56.53513" lon="60.805224">
        <ele>246.0</ele>
        <time>2022-06-29T17:27:13.116Z</time>
    </trkpt>
    <trkpt lat="56.53512" lon="60.805197">
        <ele>246.0</ele>
        <time>2022-06-29T17:27:14.116Z</time>
    </trkpt>
    <trkpt lat="56.535101" lon="60.805186">
        <ele>246.1</ele>
        <time>2022-06-29T17:27:15.116Z</time>
    </trkpt>
    <trkpt lat="56.535095" lon="60.805167">
        <ele>246.1</ele>
        <time>2022-06-29T17:27:16.116Z</time>
    </trkpt>
    <trkpt lat="56.535076" lon="60.805111">
        <ele>246.2</ele>
        <time>2022-06-29T17:27:17.116Z</time>
    </trkpt>
    <trkpt lat="56.535068" lon="60.80508">
        <ele>246.2</ele>
        <time>2022-06-29T17:27:18.116Z</time>
    </trkpt>
    <trkpt lat="56.535063" lon="60.805058">
        <ele>246.3</ele>
        <time>2022-06-29T17:27:19.116Z</time>
    </trkpt>
    <trkpt lat="56.535058" lon="60.80503">
        <ele>246.3</ele>
        <time>2022-06-29T17:27:20.116Z</time>
    </trkpt>
    <trkpt lat="56.535057" lon="60.805002">
        <ele>246.4</ele>
        <time>2022-06-29T17:27:21.116Z</time>
    </trkpt>
    <trkpt lat="56.53503" lon="60.804834">
        <ele>246.6</ele>
        <time>2022-06-29T17:27:36.116Z</time>
    </trkpt>
    <trkpt lat="56.535029" lon="60.804832">
        <ele>246.6</ele>
        <time>2022-06-29T17:27:37.116Z</time>
    </trkpt>
    <trkpt lat="56.535027" lon="60.804833">
        <ele>246.6</ele>
        <time>2022-06-29T17:27:38.116Z</time>
    </trkpt>
    <trkpt lat="56.535028" lon="60.804835">
        <ele>246.6</ele>
        <time>2022-06-29T17:27:39.116Z</time>
    </trkpt>
    <trkpt lat="56.535031" lon="60.804828">
        <ele>246.7</ele>
        <time>2022-06-29T17:27:40.116Z</time>
    </trkpt>
    <trkpt lat="56.535032" lon="60.804813">
        <ele>246.7</ele>
        <time>2022-06-29T17:27:41.116Z</time>
    </trkpt>
    <trkpt lat="56.535036" lon="60.804823">
        <ele>246.7</ele>
        <time>2022-06-29T17:27:42.116Z</time>
    </trkpt>
    <trkpt lat="56.535034" lon="60.804815">
        <ele>246.7</ele>
        <time>2022-06-29T17:27:43.116Z</time>
    </trkpt>
    <trkpt lat="56.535021" lon="60.804798">
        <ele>246.7</ele>
        <time>2022-06-29T17:27:44.116Z</time>
    </trkpt>
    <trkpt lat="56.535024" lon="60.804796">
        <ele>246.7</ele>
        <time>2022-06-29T17:27:45.116Z</time>
    </trkpt>
    <trkpt lat="56.535022" lon="60.804776">
        <ele>246.8</ele>
        <time>2022-06-29T17:27:46.116Z</time>
    </trkpt>
    <trkpt lat="56.535012" lon="60.804746">
        <ele>246.8</ele>
        <time>2022-06-29T17:27:47.116Z</time>
    </trkpt>
    <trkpt lat="56.535003" lon="60.804728">
        <ele>246.8</ele>
        <time>2022-06-29T17:27:48.116Z</time>
    </trkpt>
    <trkpt lat="56.534994" lon="60.804717">
        <ele>246.9</ele>
        <time>2022-06-29T17:27:49.116Z</time>
    </trkpt>
    <trkpt lat="56.534963" lon="60.804689">
        <ele>246.9</ele>
        <time>2022-06-29T17:27:50.116Z</time>
    </trkpt>
    <trkpt lat="56.534938" lon="60.804656">
        <ele>247.0</ele>
        <time>2022-06-29T17:27:51.116Z</time>
    </trkpt>
    <trkpt lat="56.534927" lon="60.804633">
        <ele>247.0</ele>
        <time>2022-06-29T17:27:52.116Z</time>
    </trkpt>
    <trkpt lat="56.534926" lon="60.804603">
        <ele>247.0</ele>
        <time>2022-06-29T17:27:53.116Z</time>
    </trkpt>
    <trkpt lat="56.534927" lon="60.80459">
        <ele>247.0</ele>
        <time>2022-06-29T17:27:54.116Z</time>
    </trkpt>
    <trkpt lat="56.534922" lon="60.804544">
        <ele>247.1</ele>
        <time>2022-06-29T17:27:55.116Z</time>
    </trkpt>
    <trkpt lat="56.534918" lon="60.804526">
        <ele>247.1</ele>
        <time>2022-06-29T17:27:56.116Z</time>
    </trkpt>
    <trkpt lat="56.534904" lon="60.804481">
        <ele>247.1</ele>
        <time>2022-06-29T17:27:57.116Z</time>
    </trkpt>
    <trkpt lat="56.534897" lon="60.804459">
        <ele>247.1</ele>
        <time>2022-06-29T17:27:58.116Z</time>
    </trkpt>
    <trkpt lat="56.534886" lon="60.804429">
        <ele>247.2</ele>
        <time>2022-06-29T17:27:59.116Z</time>
    </trkpt>
    <trkpt lat="56.534806" lon="60.804205">
        <ele>247.5</ele>
        <time>2022-06-29T17:29:22.116Z</time>
    </trkpt>
    <trkpt lat="56.534806" lon="60.804205">
        <ele>247.5</ele>
        <time>2022-06-29T17:29:23.116Z</time>
    </trkpt>
    <trkpt lat="56.534806" lon="60.804198">
        <ele>247.5</ele>
        <time>2022-06-29T17:29:24.116Z</time>
    </trkpt>
    <trkpt lat="56.53481" lon="60.804183">
        <ele>247.6</ele>
        <time>2022-06-29T17:29:25.116Z</time>
    </trkpt>
    <trkpt lat="56.534813" lon="60.804173">
        <ele>247.6</ele>
        <time>2022-06-29T17:29:26.116Z</time>
    </trkpt>
    <trkpt lat="56.534818" lon="60.804156">
        <ele>247.6</ele>
        <time>2022-06-29T17:29:27.116Z</time>
    </trkpt>
    <trkpt lat="56.534828" lon="60.804148">
        <ele>247.6</ele>
        <time>2022-06-29T17:29:28.116Z</time>
    </trkpt>
    <trkpt lat="56.534826" lon="60.804135">
        <ele>247.6</ele>
        <time>2022-06-29T17:29:29.116Z</time>
    </trkpt>
    <trkpt lat="56.53483" lon="60.804133">
        <ele>247.6</ele>
        <time>2022-06-29T17:29:30.116Z</time>
    </trkpt>
    <trkpt lat="56.53483" lon="60.804141">
        <ele>247.6</ele>
        <time>2022-06-29T17:29:31.116Z</time>
    </trkpt>
    <trkpt lat="56.534823" lon="60.804144">
        <ele>247.6</ele>
        <time>2022-06-29T17:29:32.116Z</time>
    </trkpt>
    <trkpt lat="56.534818" lon="60.804134">
        <ele>247.6</ele>
        <time>2022-06-29T17:29:33.116Z</time>
    </trkpt>
    <trkpt lat="56.534803" lon="60.804083">
        <ele>247.7</ele>
        <time>2022-06-29T17:29:34.116Z</time>
    </trkpt>
    <trkpt lat="56.5348" lon="60.804062">
        <ele>247.7</ele>
        <time>2022-06-29T17:29:35.116Z</time>
    </trkpt>
    <trkpt lat="56.534797" lon="60.804041">
        <ele>247.7</ele>
        <time>2022-06-29T17:29:36.116Z</time>
    </trkpt>
    <trkpt lat="56.534789" lon="60.803999">
        <ele>247.7</ele>
        <time>2022-06-29T17:29:37.116Z</time>
    </trkpt>
    <trkpt lat="56.534789" lon="60.803978">
        <ele>247.7</ele>
        <time>2022-06-29T17:29:38.116Z</time>
    </trkpt>
    <trkpt lat="56.534788" lon="60.803957">
        <ele>247.7</ele>
        <time>2022-06-29T17:29:39.116Z</time>
    </trkpt>
    <trkpt lat="56.53478" lon="60.803911">
        <ele>247.7</ele>
        <time>2022-06-29T17:29:40.116Z</time>
    </trkpt>
    <trkpt lat="56.534773" lon="60.803892">
        <ele>247.8</ele>
        <time>2022-06-29T17:29:41.116Z</time>
    </trkpt>
    <trkpt lat="56.534766" lon="60.803873">
        <ele>247.8</ele>
        <time>2022-06-29T17:29:42.116Z</time>
    </trkpt>
    <trkpt lat="56.534759" lon="60.803855">
        <ele>247.8</ele>
        <time>2022-06-29T17:29:43.116Z</time>
    </trkpt>
    <trkpt lat="56.534753" lon="60.803836">
        <ele>247.8</ele>
        <time>2022-06-29T17:30:00.116Z</time>
    </trkpt>
    <trkpt lat="56.534746" lon="60.803817">
        <ele>247.8</ele>
        <time>2022-06-29T17:30:01.116Z</time>
    </trkpt>
    <trkpt lat="56.534739" lon="60.803799">
        <ele>247.9</ele>
        <time>2022-06-29T17:30:02.116Z</time>
    </trkpt>
    <trkpt lat="56.534732" lon="60.80378">
        <ele>247.9</ele>
        <time>2022-06-29T17:30:03.116Z</time>
    </trkpt>
    <trkpt lat="56.534725" lon="60.803761">
        <ele>247.9</ele>
        <time>2022-06-29T17:30:04.116Z</time>
    </trkpt>
    <trkpt lat="56.534718" lon="60.803743">
        <ele>247.9</ele>
        <time>2022-06-29T17:30:05.116Z</time>
    </trkpt>
    <trkpt lat="56.534702" lon="60.803708">
        <ele>248.0</ele>
        <time>2022-06-29T17:30:06.116Z</time>
    </trkpt>
    <trkpt lat="56.534699" lon="60.8037">
        <ele>248.0</ele>
        <time>2022-06-29T17:30:07.116Z</time>
    </trkpt>
    <trkpt lat="56.534695" lon="60.803692">
        <ele>248.0</ele>
        <time>2022-06-29T17:30:08.116Z</time>
    </trkpt>
    <trkpt lat="56.534692" lon="60.803684">
        <ele>248.0</ele>
        <time>2022-06-29T17:30:09.116Z</time>
    </trkpt>
    <trkpt lat="56.534688" lon="60.803676">
        <ele>248.0</ele>
        <time>2022-06-29T17:30:10.116Z</time>
    </trkpt>
    <trkpt lat="56.534681" lon="60.803646">
        <ele>248.1</ele>
        <time>2022-06-29T17:30:11.116Z</time>
    </trkpt>
    <trkpt lat="56.53466" lon="60.80361">
        <ele>248.1</ele>
        <time>2022-06-29T17:30:12.116Z</time>
    </trkpt>
    <trkpt lat="56.534648" lon="60.803595">
        <ele>248.2</ele>
        <time>2022-06-29T17:30:13.116Z</time>
    </trkpt>
    <trkpt lat="56.534637" lon="60.803575">
        <ele>248.2</ele>
        <time>2022-06-29T17:30:14.116Z</time>
    </trkpt>
    <trkpt lat="56.53462" lon="60.803561">
        <ele>248.2</ele>
        <time>2022-06-29T17:30:15.116Z</time>
    </trkpt>
    <trkpt lat="56.534606" lon="60.803547">
        <ele>248.3</ele>
        <time>2022-06-29T17:30:16.116Z</time>
    </trkpt>
    <trkpt lat="56.534597" lon="60.803535">
        <ele>248.3</ele>
        <time>2022-06-29T17:30:17.116Z</time>
    </trkpt>
    <trkpt lat="56.534588" lon="60.803524">
        <ele>248.3</ele>
        <time>2022-06-29T17:30:18.116Z</time>
    </trkpt>
    <trkpt lat="56.534577" lon="60.803499">
        <ele>248.4</ele>
        <time>2022-06-29T17:30:19.116Z</time>
    </trkpt>
    <trkpt lat="56.534571" lon="60.803472">
        <ele>248.4</ele>
        <time>2022-06-29T17:30:20.116Z</time>
    </trkpt>
    <trkpt lat="56.534559" lon="60.803443">
        <ele>248.5</ele>
        <time>2022-06-29T17:30:21.116Z</time>
    </trkpt>
    <trkpt lat="56.53455" lon="60.803415">
        <ele>248.5</ele>
        <time>2022-06-29T17:30:22.116Z</time>
    </trkpt>
    <trkpt lat="56.534547" lon="60.803402">
        <ele>248.6</ele>
        <time>2022-06-29T17:30:23.116Z</time>
    </trkpt>
    <trkpt lat="56.534543" lon="60.803394">
        <ele>248.6</ele>
        <time>2022-06-29T17:30:24.116Z</time>
    </trkpt>
    <trkpt lat="56.534537" lon="60.803371">
        <ele>248.6</ele>
        <time>2022-06-29T17:30:25.116Z</time>
    </trkpt>
    <trkpt lat="56.534528" lon="60.80336">
        <ele>248.6</ele>
        <time>2022-06-29T17:30:26.116Z</time>
    </trkpt>
    <trkpt lat="56.534523" lon="60.803342">
        <ele>248.7</ele>
        <time>2022-06-29T17:30:27.116Z</time>
    </trkpt>
    <trkpt lat="56.534519" lon="60.803325">
        <ele>248.7</ele>
        <time>2022-06-29T17:30:28.116Z</time>
    </trkpt>
    <trkpt lat="56.534516" lon="60.803309">
        <ele>248.7</ele>
        <time>2022-06-29T17:30:29.116Z</time>
    </trkpt>
    <trkpt lat="56.534512" lon="60.80327">
        <ele>248.8</ele>
        <time>2022-06-29T17:30:30.116Z</time>
    </trkpt>
    <trkpt lat="56.534507" lon="60.803254">
        <ele>248.8</ele>
        <time>2022-06-29T17:30:31.116Z</time>
    </trkpt>
    <trkpt lat="56.534496" lon="60.803205">
        <ele>248.9</ele>
        <time>2022-06-29T17:30:32.116Z</time>
    </trkpt>
    <trkpt lat="56.534487" lon="60.803183">
        <ele>248.9</ele>
        <time>2022-06-29T17:30:33.116Z</time>
    </trkpt>
    <trkpt lat="56.534474" lon="60.803155">
        <ele>249.0</ele>
        <time>2022-06-29T17:30:34.116Z</time>
    </trkpt>
    <trkpt lat="56.53447" lon="60.803135">
        <ele>249.0</ele>
        <time>2022-06-29T17:30:35.116Z</time>
    </trkpt>
    <trkpt lat="56.534455" lon="60.80307">
        <ele>249.1</ele>
        <time>2022-06-29T17:30:36.116Z</time>
    </trkpt>
    <trkpt lat="56.534453" lon="60.803037">
        <ele>249.2</ele>
        <time>2022-06-29T17:30:37.116Z</time>
    </trkpt>
    <trkpt lat="56.53445" lon="60.803004">
        <ele>249.2</ele>
        <time>2022-06-29T17:30:38.116Z</time>
    </trkpt>
    <trkpt lat="56.534447" lon="60.802971">
        <ele>249.3</ele>
        <time>2022-06-29T17:30:55.116Z</time>
    </trkpt>
    <trkpt lat="56.534444" lon="60.802937">
        <ele>249.3</ele>
        <time>2022-06-29T17:30:57.116Z</time>
    </trkpt>
    <trkpt lat="56.534441" lon="60.802904">
        <ele>249.3</ele>
        <time>2022-06-29T17:30:58.116Z</time>
    </trkpt>
    <trkpt lat="56.534439" lon="60.802871">
        <ele>249.4</ele>
        <time>2022-06-29T17:30:59.116Z</time>
    </trkpt>
    <trkpt lat="56.534436" lon="60.802838">
        <ele>249.4</ele>
        <time>2022-06-29T17:31:00.116Z</time>
    </trkpt>
    <trkpt lat="56.534433" lon="60.802805">
        <ele>249.5</ele>
        <time>2022-06-29T17:31:01.116Z</time>
    </trkpt>
    <trkpt lat="56.53443" lon="60.802772">
        <ele>249.5</ele>
        <time>2022-06-29T17:31:02.116Z</time>
    </trkpt>
    <trkpt lat="56.534427" lon="60.802739">
        <ele>249.5</ele>
        <time>2022-06-29T17:31:03.116Z</time>
    </trkpt>
    <trkpt lat="56.534425" lon="60.802705">
        <ele>249.6</ele>
        <time>2022-06-29T17:31:04.116Z</time>
    </trkpt>
    <trkpt lat="56.534422" lon="60.802672">
        <ele>249.6</ele>
        <time>2022-06-29T17:31:05.116Z</time>
    </trkpt>
    <trkpt lat="56.534436" lon="60.802619">
        <ele>249.7</ele>
        <time>2022-06-29T17:31:06.116Z</time>
    </trkpt>
    <trkpt lat="56.534439" lon="60.8026">
        <ele>249.7</ele>
        <time>2022-06-29T17:31:07.116Z</time>
    </trkpt>
    <trkpt lat="56.534439" lon="60.802551">
        <ele>249.8</ele>
        <time>2022-06-29T17:31:08.116Z</time>
    </trkpt>
    <trkpt lat="56.534437" lon="60.802512">
        <ele>249.9</ele>
        <time>2022-06-29T17:31:09.116Z</time>
    </trkpt>
    <trkpt lat="56.534439" lon="60.802427">
        <ele>250.0</ele>
        <time>2022-06-29T17:31:10.116Z</time>
    </trkpt>
    <trkpt lat="56.534433" lon="60.802399">
        <ele>250.1</ele>
        <time>2022-06-29T17:31:11.116Z</time>
    </trkpt>
    <trkpt lat="56.534424" lon="60.802346">
        <ele>250.1</ele>
        <time>2022-06-29T17:31:12.116Z</time>
    </trkpt>
    <trkpt lat="56.534421" lon="60.802307">
        <ele>250.2</ele>
        <time>2022-06-29T17:31:13.116Z</time>
    </trkpt>
    <trkpt lat="56.534415" lon="60.802234">
        <ele>250.3</ele>
        <time>2022-06-29T17:31:14.116Z</time>
    </trkpt>
    <trkpt lat="56.534415" lon="60.802197">
        <ele>250.4</ele>
        <time>2022-06-29T17:31:15.116Z</time>
    </trkpt>
    <trkpt lat="56.534413" lon="60.802134">
        <ele>250.5</ele>
        <time>2022-06-29T17:31:16.116Z</time>
    </trkpt>
    <trkpt lat="56.534418" lon="60.802103">
        <ele>250.5</ele>
        <time>2022-06-29T17:31:17.116Z</time>
    </trkpt>
    <trkpt lat="56.534418" lon="60.80205">
        <ele>250.6</ele>
        <time>2022-06-29T17:31:18.116Z</time>
    </trkpt>
    <trkpt lat="56.534417" lon="60.802017">
        <ele>250.6</ele>
        <time>2022-06-29T17:31:19.116Z</time>
    </trkpt>
    <trkpt lat="56.53442" lon="60.801946">
        <ele>250.7</ele>
        <time>2022-06-29T17:31:20.116Z</time>
    </trkpt>
    <trkpt lat="56.53442" lon="60.801925">
        <ele>250.7</ele>
        <time>2022-06-29T17:31:21.116Z</time>
    </trkpt>
    <trkpt lat="56.534421" lon="60.801871">
        <ele>250.8</ele>
        <time>2022-06-29T17:31:22.116Z</time>
    </trkpt>
    <trkpt lat="56.534416" lon="60.801797">
        <ele>250.8</ele>
        <time>2022-06-29T17:31:23.116Z</time>
    </trkpt>
    <trkpt lat="56.534406" lon="60.801778">
        <ele>250.9</ele>
        <time>2022-06-29T17:31:24.116Z</time>
    </trkpt>
    <trkpt lat="56.534415" lon="60.801668">
        <ele>250.9</ele>
        <time>2022-06-29T17:31:25.116Z</time>
    </trkpt>
    <trkpt lat="56.534418" lon="60.801641">
        <ele>251.0</ele>
        <time>2022-06-29T17:31:26.116Z</time>
    </trkpt>
    <trkpt lat="56.534419" lon="60.80157">
        <ele>251.0</ele>
        <time>2022-06-29T17:31:27.116Z</time>
    </trkpt>
    <trkpt lat="56.534415" lon="60.80155">
        <ele>251.0</ele>
        <time>2022-06-29T17:31:28.116Z</time>
    </trkpt>
    <trkpt lat="56.534405" lon="60.801496">
        <ele>251.0</ele>
        <time>2022-06-29T17:31:29.116Z</time>
    </trkpt>
    <trkpt lat="56.534406" lon="60.801478">
        <ele>251.0</ele>
        <time>2022-06-29T17:31:30.116Z</time>
    </trkpt>
    <trkpt lat="56.534411" lon="60.801426">
        <ele>251.1</ele>
        <time>2022-06-29T17:31:31.116Z</time>
    </trkpt>
    <trkpt lat="56.534414" lon="60.801398">
        <ele>251.1</ele>
        <time>2022-06-29T17:31:32.116Z</time>
    </trkpt>
    <trkpt lat="56.534408" lon="60.801364">
        <ele>251.1</ele>
        <time>2022-06-29T17:31:33.116Z</time>
    </trkpt>
    <trkpt lat="56.534401" lon="60.801353">
        <ele>251.1</ele>
        <time>2022-06-29T17:31:34.116Z</time>
    </trkpt>
    <trkpt lat="56.534384" lon="60.801308">
        <ele>251.1</ele>
        <time>2022-06-29T17:31:35.116Z</time>
    </trkpt>
    <trkpt lat="56.534376" lon="60.801281">
        <ele>251.1</ele>
        <time>2022-06-29T17:31:36.116Z</time>
    </trkpt>
    <trkpt lat="56.534364" lon="60.80126">
        <ele>251.1</ele>
        <time>2022-06-29T17:31:37.116Z</time>
    </trkpt>
    <trkpt lat="56.534318548790765" lon="60.80118298530579">
        <ele>251.8</ele>
        <time>2022-06-29T17:32:04.441Z</time>
    </trkpt>
    <trkpt lat="56.534317069720345" lon="60.8011481165886">
        <ele>251.8</ele>
        <time>2022-06-29T17:32:04.878Z</time>
    </trkpt>
    <trkpt lat="56.534315590649854" lon="60.801113247871406">
        <ele>251.8</ele>
        <time>2022-06-29T17:32:05.315Z</time>
    </trkpt>
    <trkpt lat="56.534330021799434" lon="60.80074550752161">
        <ele>251.7</ele>
        <time>2022-06-29T17:32:09.927Z</time>
    </trkpt>
    <trkpt lat="56.534379750386464" lon="60.799478302619455">
        <ele>247.4</ele>
        <time>2022-06-29T17:32:25.821Z</time>
    </trkpt>
    <trkpt lat="56.53442947890821" lon="60.79821109771729">
        <ele>251.5</ele>
        <time>2022-06-29T17:32:41.715Z</time>
    </trkpt>
    <trkpt lat="56.53380313182814" lon="60.79791304085725">
        <ele>255.0</ele>
        <time>2022-06-29T17:32:56.407Z</time>
    </trkpt>
    <trkpt lat="56.53312550677413" lon="60.79759058813806">
        <ele>254.9</ele>
        <time>2022-06-29T17:33:14.420Z</time>
    </trkpt>
    <trkpt lat="56.53244786959665" lon="60.79726813541887">
        <ele>252.7</ele>
        <time>2022-06-29T17:33:32.433Z</time>
    </trkpt>
    <trkpt lat="56.5317702202956" lon="60.796945682699665">
        <ele>250.0</ele>
        <time>2022-06-29T17:33:50.447Z</time>
    </trkpt>
    <trkpt lat="56.531092558870824" lon="60.796623229980476">
        <ele>247.3</ele>
        <time>2022-06-29T17:34:08.461Z</time>
    </trkpt>
    <trkpt lat="56.53108714221285" lon="60.79657687032871">
        <ele>247.2</ele>
        <time>2022-06-29T17:34:09.132Z</time>
    </trkpt>
    <trkpt lat="56.53094193060463" lon="60.79533404749957">
        <ele>249.5</ele>
        <time>2022-06-29T17:34:35.771Z</time>
    </trkpt>
    <trkpt lat="56.53079671843971" lon="60.79409122467042">
        <ele>252.9</ele>
        <time>2022-06-29T17:35:02.410Z</time>
    </trkpt>
    <trkpt lat="56.53078253654246" lon="60.79381049540217">
        <ele>252.5</ele>
        <time>2022-06-29T17:35:08.321Z</time>
    </trkpt>
    <trkpt lat="56.53071862543118" lon="60.792545382512486">
        <ele>249.5</ele>
        <time>2022-06-29T17:35:31.982Z</time>
    </trkpt>
    <trkpt lat="56.53065471421206" lon="60.79128026962281">
        <ele>241.7</ele>
        <time>2022-06-29T17:35:56.789Z</time>
    </trkpt>
    <trkpt lat="56.53020798910772" lon="60.791130065917976">
        <ele>235.5</ele>
        <time>2022-06-29T17:36:12.876Z</time>
    </trkpt>
    <trkpt lat="56.52976125873496" lon="60.79097986221314">
        <ele>232.5</ele>
        <time>2022-06-29T17:36:28.963Z</time>
    </trkpt>
    <trkpt lat="56.52946027752375" lon="60.79131381392439">
        <ele>230.6</ele>
        <time>2022-06-29T17:36:41.457Z</time>
    </trkpt>
    <trkpt lat="56.52886264347618" lon="60.7919769069622">
        <ele>229.8</ele>
        <time>2022-06-29T17:37:06.265Z</time>
    </trkpt>
    <trkpt lat="56.528265000000005" lon="60.79264">
        <ele>232.0</ele>
        <time>2022-06-29T17:37:31.073Z</time>
    </trkpt>
    <trkpt lat="56.528173" lon="60.792571">
        <ele>234.6</ele>
        <time>2022-06-29T17:37:36.022Z</time>
    </trkpt>
    <trkpt lat="56.528159" lon="60.79257">
        <ele>234.6</ele>
        <time>2022-06-29T17:37:37.022Z</time>
    </trkpt>
    <trkpt lat="56.528148" lon="60.792578">
        <ele>234.7</ele>
        <time>2022-06-29T17:37:38.022Z</time>
    </trkpt>
    <trkpt lat="56.528141" lon="60.792591">
        <ele>234.5</ele>
        <time>2022-06-29T17:37:39.022Z</time>
    </trkpt>
    <trkpt lat="56.528132" lon="60.792598">
        <ele>234.8</ele>
        <time>2022-06-29T17:37:40.022Z</time>
    </trkpt>
    <trkpt lat="56.528123" lon="60.792609">
        <ele>234.8</ele>
        <time>2022-06-29T17:37:41.022Z</time>
    </trkpt>
    <trkpt lat="56.528112" lon="60.792622">
        <ele>234.8</ele>
        <time>2022-06-29T17:37:42.022Z</time>
    </trkpt>
    <trkpt lat="56.528104" lon="60.792623">
        <ele>235.2</ele>
        <time>2022-06-29T17:37:43.022Z</time>
    </trkpt>
    <trkpt lat="56.528094" lon="60.792625">
        <ele>235.2</ele>
        <time>2022-06-29T17:37:44.022Z</time>
    </trkpt>
    <trkpt lat="56.528084" lon="60.792639">
        <ele>235.4</ele>
        <time>2022-06-29T17:37:45.022Z</time>
    </trkpt>
    <trkpt lat="56.528078" lon="60.792648">
        <ele>235.4</ele>
        <time>2022-06-29T17:37:46.022Z</time>
    </trkpt>
    <trkpt lat="56.528072" lon="60.792654">
        <ele>235.4</ele>
        <time>2022-06-29T17:37:47.022Z</time>
    </trkpt>
    <trkpt lat="56.528065" lon="60.792661">
        <ele>235.4</ele>
        <time>2022-06-29T17:37:48.022Z</time>
    </trkpt>
    <trkpt lat="56.528044" lon="60.792671">
        <ele>235.8</ele>
        <time>2022-06-29T17:37:49.022Z</time>
    </trkpt>
    <trkpt lat="56.528036" lon="60.792685">
        <ele>235.6</ele>
        <time>2022-06-29T17:37:50.022Z</time>
    </trkpt>
    <trkpt lat="56.528025" lon="60.792677">
        <ele>235.6</ele>
        <time>2022-06-29T17:37:51.022Z</time>
    </trkpt>
    <trkpt lat="56.528014" lon="60.792685">
        <ele>235.9</ele>
        <time>2022-06-29T17:37:52.022Z</time>
    </trkpt>
    <trkpt lat="56.528007" lon="60.792682">
        <ele>235.9</ele>
        <time>2022-06-29T17:37:53.022Z</time>
    </trkpt>
    <trkpt lat="56.527999" lon="60.792679">
        <ele>235.9</ele>
        <time>2022-06-29T17:37:54.022Z</time>
    </trkpt>
    <trkpt lat="56.527991" lon="60.792677">
        <ele>236.3</ele>
        <time>2022-06-29T17:37:55.022Z</time>
    </trkpt>
    <trkpt lat="56.527984" lon="60.792674">
        <ele>236.8</ele>
        <time>2022-06-29T17:37:59.022Z</time>
    </trkpt>
    <trkpt lat="56.527976" lon="60.792672">
        <ele>236.8</ele>
        <time>2022-06-29T17:38:00.022Z</time>
    </trkpt>
    <trkpt lat="56.527968" lon="60.792669">
        <ele>237.1</ele>
        <time>2022-06-29T17:38:01.022Z</time>
    </trkpt>
    <trkpt lat="56.527961" lon="60.792667">
        <ele>237.1</ele>
        <time>2022-06-29T17:38:02.022Z</time>
    </trkpt>
    <trkpt lat="56.527953" lon="60.792664">
        <ele>237.1</ele>
        <time>2022-06-29T17:38:03.022Z</time>
    </trkpt>
    <trkpt lat="56.52794" lon="60.792654">
        <ele>237.4</ele>
        <time>2022-06-29T17:38:04.022Z</time>
    </trkpt>
    <trkpt lat="56.527939" lon="60.79263">
        <ele>237.7</ele>
        <time>2022-06-29T17:38:05.022Z</time>
    </trkpt>
    <trkpt lat="56.527944" lon="60.792606">
        <ele>237.7</ele>
        <time>2022-06-29T17:38:06.022Z</time>
    </trkpt>
    <trkpt lat="56.527952" lon="60.792574">
        <ele>237.9</ele>
        <time>2022-06-29T17:38:07.022Z</time>
    </trkpt>
    <trkpt lat="56.527962" lon="60.792554">
        <ele>237.9</ele>
        <time>2022-06-29T17:38:08.022Z</time>
    </trkpt>
    <trkpt lat="56.527967" lon="60.792539">
        <ele>238.3</ele>
        <time>2022-06-29T17:38:09.022Z</time>
    </trkpt>
    <trkpt lat="56.527972" lon="60.792524">
        <ele>238.0</ele>
        <time>2022-06-29T17:38:10.022Z</time>
    </trkpt>
    <trkpt lat="56.527986" lon="60.792499">
        <ele>238.3</ele>
        <time>2022-06-29T17:38:11.022Z</time>
    </trkpt>
    <trkpt lat="56.527985" lon="60.792482">
        <ele>238.3</ele>
        <time>2022-06-29T17:38:12.022Z</time>
    </trkpt>
    <trkpt lat="56.527982" lon="60.792425">
        <ele>238.7</ele>
        <time>2022-06-29T17:38:13.022Z</time>
    </trkpt>
    <trkpt lat="56.527973" lon="60.792392">
        <ele>239.1</ele>
        <time>2022-06-29T17:38:14.022Z</time>
    </trkpt>
    <trkpt lat="56.527965" lon="60.792369">
        <ele>239.9</ele>
        <time>2022-06-29T17:38:15.022Z</time>
    </trkpt>
    <trkpt lat="56.527962" lon="60.792356">
        <ele>239.9</ele>
        <time>2022-06-29T17:38:16.022Z</time>
    </trkpt>
    <trkpt lat="56.52795" lon="60.792299">
        <ele>240.2</ele>
        <time>2022-06-29T17:38:18.022Z</time>
    </trkpt>
    <trkpt lat="56.527947" lon="60.792285">
        <ele>240.5</ele>
        <time>2022-06-29T17:38:19.022Z</time>
    </trkpt>
    <trkpt lat="56.527931" lon="60.792234">
        <ele>241.0</ele>
        <time>2022-06-29T17:38:20.022Z</time>
    </trkpt>
    <trkpt lat="56.527932" lon="60.792217">
        <ele>241.0</ele>
        <time>2022-06-29T17:38:21.022Z</time>
    </trkpt>
    <trkpt lat="56.527928" lon="60.792155">
        <ele>241.4</ele>
        <time>2022-06-29T17:38:22.022Z</time>
    </trkpt>
    <trkpt lat="56.527925" lon="60.792137">
        <ele>241.4</ele>
        <time>2022-06-29T17:38:23.022Z</time>
    </trkpt>
    <trkpt lat="56.527914" lon="60.792083">
        <ele>242.2</ele>
        <time>2022-06-29T17:38:24.022Z</time>
    </trkpt>
    <trkpt lat="56.527912" lon="60.792052">
        <ele>242.5</ele>
        <time>2022-06-29T17:38:25.022Z</time>
    </trkpt>
    <trkpt lat="56.527903" lon="60.791992">
        <ele>242.8</ele>
        <time>2022-06-29T17:38:26.022Z</time>
    </trkpt>
    <trkpt lat="56.527901" lon="60.791969">
        <ele>243.0</ele>
        <time>2022-06-29T17:38:27.022Z</time>
    </trkpt>
    <trkpt lat="56.527902" lon="60.79191">
        <ele>243.2</ele>
        <time>2022-06-29T17:38:28.022Z</time>
    </trkpt>
    <trkpt lat="56.527901" lon="60.791838">
        <ele>243.4</ele>
        <time>2022-06-29T17:38:29.022Z</time>
    </trkpt>
    <trkpt lat="56.527903" lon="60.79182">
        <ele>243.4</ele>
        <time>2022-06-29T17:38:30.022Z</time>
    </trkpt>
    <trkpt lat="56.5279" lon="60.791757">
        <ele>243.4</ele>
        <time>2022-06-29T17:38:31.022Z</time>
    </trkpt>
    <trkpt lat="56.527898" lon="60.791742">
        <ele>243.4</ele>
        <time>2022-06-29T17:38:32.022Z</time>
    </trkpt>
    <trkpt lat="56.52789" lon="60.791688">
        <ele>243.8</ele>
        <time>2022-06-29T17:38:33.022Z</time>
    </trkpt>
    <trkpt lat="56.527891" lon="60.791658">
        <ele>243.8</ele>
        <time>2022-06-29T17:38:34.022Z</time>
    </trkpt>
    <trkpt lat="56.527887" lon="60.791635">
        <ele>243.8</ele>
        <time>2022-06-29T17:38:35.022Z</time>
    </trkpt>
    <trkpt lat="56.527881" lon="60.791615">
        <ele>243.8</ele>
        <time>2022-06-29T17:38:36.022Z</time>
    </trkpt>
    <trkpt lat="56.52786" lon="60.791561">
        <ele>244.3</ele>
        <time>2022-06-29T17:38:37.022Z</time>
    </trkpt>
    <trkpt lat="56.527859" lon="60.791541">
        <ele>244.4</ele>
        <time>2022-06-29T17:38:38.022Z</time>
    </trkpt>
    <trkpt lat="56.527856" lon="60.791486">
        <ele>244.4</ele>
        <time>2022-06-29T17:38:39.022Z</time>
    </trkpt>
    <trkpt lat="56.527858" lon="60.791463">
        <ele>244.4</ele>
        <time>2022-06-29T17:38:40.022Z</time>
    </trkpt>
    <trkpt lat="56.527859" lon="60.791405">
        <ele>244.4</ele>
        <time>2022-06-29T17:38:41.022Z</time>
    </trkpt>
    <trkpt lat="56.527861" lon="60.791351">
        <ele>244.3</ele>
        <time>2022-06-29T17:38:42.022Z</time>
    </trkpt>
    <trkpt lat="56.527858" lon="60.791296">
        <ele>243.9</ele>
        <time>2022-06-29T17:38:43.022Z</time>
    </trkpt>
    <trkpt lat="56.527862" lon="60.791256">
        <ele>243.7</ele>
        <time>2022-06-29T17:38:44.022Z</time>
    </trkpt>
    <trkpt lat="56.527862" lon="60.791181">
        <ele>243.6</ele>
        <time>2022-06-29T17:38:45.022Z</time>
    </trkpt>
    <trkpt lat="56.527862" lon="60.791154">
        <ele>243.5</ele>
        <time>2022-06-29T17:38:46.022Z</time>
    </trkpt>
    <trkpt lat="56.527855" lon="60.791096">
        <ele>243.5</ele>
        <time>2022-06-29T17:38:47.022Z</time>
    </trkpt>
    <trkpt lat="56.527853" lon="60.791066">
        <ele>243.4</ele>
        <time>2022-06-29T17:38:48.022Z</time>
    </trkpt>
    <trkpt lat="56.527852" lon="60.791002">
        <ele>243.2</ele>
        <time>2022-06-29T17:38:49.022Z</time>
    </trkpt>
    <trkpt lat="56.527845" lon="60.790952">
        <ele>243.2</ele>
        <time>2022-06-29T17:38:50.022Z</time>
    </trkpt>
    <trkpt lat="56.527844" lon="60.790927">
        <ele>243.2</ele>
        <time>2022-06-29T17:38:51.022Z</time>
    </trkpt>
    <trkpt lat="56.527837" lon="60.790873">
        <ele>242.9</ele>
        <time>2022-06-29T17:38:52.022Z</time>
    </trkpt>
    <trkpt lat="56.527844" lon="60.790823">
        <ele>242.8</ele>
        <time>2022-06-29T17:38:53.022Z</time>
    </trkpt>
    <trkpt lat="56.527841" lon="60.790807">
        <ele>242.8</ele>
        <time>2022-06-29T17:38:54.022Z</time>
    </trkpt>
    <trkpt lat="56.527838" lon="60.790755">
        <ele>242.9</ele>
        <time>2022-06-29T17:38:55.022Z</time>
    </trkpt>
    <trkpt lat="56.527838" lon="60.790722">
        <ele>242.9</ele>
        <time>2022-06-29T17:38:56.022Z</time>
    </trkpt>
    <trkpt lat="56.527836" lon="60.790692">
        <ele>242.8</ele>
        <time>2022-06-29T17:38:57.022Z</time>
    </trkpt>
    <trkpt lat="56.527838" lon="60.790676">
        <ele>242.8</ele>
        <time>2022-06-29T17:38:58.022Z</time>
    </trkpt>
    <trkpt lat="56.527839" lon="60.79066">
        <ele>242.8</ele>
        <time>2022-06-29T17:38:59.022Z</time>
    </trkpt>
    <trkpt lat="56.527839" lon="60.790615">
        <ele>242.2</ele>
        <time>2022-06-29T17:39:00.022Z</time>
    </trkpt>
    <trkpt lat="56.527836" lon="60.790595">
        <ele>242.2</ele>
        <time>2022-06-29T17:39:01.022Z</time>
    </trkpt>
    <trkpt lat="56.527826" lon="60.790546">
        <ele>242.6</ele>
        <time>2022-06-29T17:39:02.022Z</time>
    </trkpt>
    <trkpt lat="56.527828" lon="60.790528">
        <ele>241.7</ele>
        <time>2022-06-29T17:39:03.022Z</time>
    </trkpt>
    <trkpt lat="56.527832" lon="60.790517">
        <ele>241.7</ele>
        <time>2022-06-29T17:39:04.022Z</time>
    </trkpt>
    <trkpt lat="56.527828" lon="60.790486">
        <ele>241.7</ele>
        <time>2022-06-29T17:39:05.022Z</time>
    </trkpt>
    <trkpt lat="56.527824" lon="60.79047">
        <ele>242.4</ele>
        <time>2022-06-29T17:39:06.022Z</time>
    </trkpt>
    <trkpt lat="56.527819" lon="60.790408">
        <ele>242.4</ele>
        <time>2022-06-29T17:39:07.022Z</time>
    </trkpt>
    <trkpt lat="56.527821" lon="60.790389">
        <ele>242.4</ele>
        <time>2022-06-29T17:39:08.022Z</time>
    </trkpt>
    <trkpt lat="56.527815" lon="60.790384">
        <ele>242.4</ele>
        <time>2022-06-29T17:39:09.022Z</time>
    </trkpt>
    <trkpt lat="56.527808" lon="60.790362">
        <ele>242.4</ele>
        <time>2022-06-29T17:39:10.022Z</time>
    </trkpt>
    <trkpt lat="56.527807" lon="60.790343">
        <ele>242.3</ele>
        <time>2022-06-29T17:39:11.022Z</time>
    </trkpt>
    <trkpt lat="56.527807" lon="60.790277">
        <ele>242.1</ele>
        <time>2022-06-29T17:39:12.022Z</time>
    </trkpt>
    <trkpt lat="56.527811" lon="60.79026">
        <ele>241.8</ele>
        <time>2022-06-29T17:39:13.022Z</time>
    </trkpt>
    <trkpt lat="56.527804" lon="60.79021">
        <ele>241.6</ele>
        <time>2022-06-29T17:39:14.022Z</time>
    </trkpt>
    <trkpt lat="56.527801" lon="60.790196">
        <ele>242.3</ele>
        <time>2022-06-29T17:39:15.022Z</time>
    </trkpt>
    <trkpt lat="56.527786" lon="60.790149">
        <ele>242.2</ele>
        <time>2022-06-29T17:39:16.022Z</time>
    </trkpt>
    <trkpt lat="56.527779" lon="60.790118">
        <ele>243.0</ele>
        <time>2022-06-29T17:39:17.022Z</time>
    </trkpt>
    <trkpt lat="56.52778" lon="60.79009">
        <ele>242.2</ele>
        <time>2022-06-29T17:39:18.022Z</time>
    </trkpt>
    <trkpt lat="56.527773" lon="60.790065">
        <ele>243.0</ele>
        <time>2022-06-29T17:39:19.022Z</time>
    </trkpt>
    <trkpt lat="56.527774" lon="60.790028">
        <ele>243.0</ele>
        <time>2022-06-29T17:39:20.022Z</time>
    </trkpt>
    <trkpt lat="56.527774" lon="60.790009">
        <ele>243.0</ele>
        <time>2022-06-29T17:39:21.022Z</time>
    </trkpt>
    <trkpt lat="56.527786" lon="60.789965">
        <ele>242.3</ele>
        <time>2022-06-29T17:39:22.022Z</time>
    </trkpt>
    <trkpt lat="56.527787" lon="60.789945">
        <ele>242.3</ele>
        <time>2022-06-29T17:39:23.022Z</time>
    </trkpt>
    <trkpt lat="56.527792" lon="60.78989">
        <ele>242.3</ele>
        <time>2022-06-29T17:39:24.022Z</time>
    </trkpt>
    <trkpt lat="56.527795" lon="60.78983">
        <ele>242.2</ele>
        <time>2022-06-29T17:39:25.022Z</time>
    </trkpt>
    <trkpt lat="56.5278" lon="60.789778">
        <ele>242.2</ele>
        <time>2022-06-29T17:39:26.022Z</time>
    </trkpt>
    <trkpt lat="56.527812" lon="60.789746">
        <ele>241.4</ele>
        <time>2022-06-29T17:39:27.022Z</time>
    </trkpt>
    <trkpt lat="56.527814" lon="60.789723">
        <ele>241.4</ele>
        <time>2022-06-29T17:39:28.022Z</time>
    </trkpt>
    <trkpt lat="56.527812" lon="60.789676">
        <ele>241.4</ele>
        <time>2022-06-29T17:39:29.022Z</time>
    </trkpt>
    <trkpt lat="56.527823" lon="60.78964">
        <ele>241.5</ele>
        <time>2022-06-29T17:39:30.022Z</time>
    </trkpt>
    <trkpt lat="56.527828" lon="60.78957">
        <ele>241.4</ele>
        <time>2022-06-29T17:39:31.022Z</time>
    </trkpt>
    <trkpt lat="56.527827" lon="60.78955">
        <ele>241.4</ele>
        <time>2022-06-29T17:39:32.022Z</time>
    </trkpt>
    <trkpt lat="56.527825" lon="60.78953">
        <ele>242.3</ele>
        <time>2022-06-29T17:39:33.022Z</time>
    </trkpt>
    <trkpt lat="56.527824" lon="60.789495">
        <ele>242.4</ele>
        <time>2022-06-29T17:39:34.022Z</time>
    </trkpt>
    <trkpt lat="56.527822" lon="60.789458">
        <ele>242.4</ele>
        <time>2022-06-29T17:39:35.022Z</time>
    </trkpt>
    <trkpt lat="56.527825" lon="60.789435">
        <ele>242.4</ele>
        <time>2022-06-29T17:39:36.022Z</time>
    </trkpt>
    <trkpt lat="56.527823" lon="60.789412">
        <ele>242.4</ele>
        <time>2022-06-29T17:39:37.022Z</time>
    </trkpt>
    <trkpt lat="56.52782" lon="60.789389">
        <ele>242.4</ele>
        <time>2022-06-29T17:39:38.022Z</time>
    </trkpt>
    <trkpt lat="56.527814" lon="60.789347">
        <ele>242.4</ele>
        <time>2022-06-29T17:39:39.022Z</time>
    </trkpt>
    <trkpt lat="56.527812" lon="60.789321">
        <ele>242.5</ele>
        <time>2022-06-29T17:39:40.022Z</time>
    </trkpt>
    <trkpt lat="56.527806" lon="60.789299">
        <ele>242.5</ele>
        <time>2022-06-29T17:39:41.022Z</time>
    </trkpt>
    <trkpt lat="56.5278" lon="60.789273">
        <ele>243.5</ele>
        <time>2022-06-29T17:39:42.022Z</time>
    </trkpt>
    <trkpt lat="56.52781" lon="60.789249">
        <ele>242.7</ele>
        <time>2022-06-29T17:39:43.022Z</time>
    </trkpt>
    <trkpt lat="56.527806" lon="60.789219">
        <ele>243.0</ele>
        <time>2022-06-29T17:39:44.022Z</time>
    </trkpt>
    <trkpt lat="56.5278" lon="60.789179">
        <ele>244.1</ele>
        <time>2022-06-29T17:39:45.022Z</time>
    </trkpt>
    <trkpt lat="56.5278" lon="60.789128">
        <ele>244.3</ele>
        <time>2022-06-29T17:39:46.022Z</time>
    </trkpt>
    <trkpt lat="56.527803" lon="60.78911">
        <ele>243.8</ele>
        <time>2022-06-29T17:39:47.022Z</time>
    </trkpt>
    <trkpt lat="56.527794" lon="60.789049">
        <ele>244.6</ele>
        <time>2022-06-29T17:39:48.022Z</time>
    </trkpt>
    <trkpt lat="56.527793" lon="60.789035">
        <ele>244.6</ele>
        <time>2022-06-29T17:39:49.022Z</time>
    </trkpt>
    <trkpt lat="56.527795" lon="60.788997">
        <ele>244.7</ele>
        <time>2022-06-29T17:39:50.022Z</time>
    </trkpt>
    <trkpt lat="56.527801" lon="60.788978">
        <ele>244.9</ele>
        <time>2022-06-29T17:39:51.022Z</time>
    </trkpt>
    <trkpt lat="56.527818" lon="60.788927">
        <ele>244.6</ele>
        <time>2022-06-29T17:39:52.022Z</time>
    </trkpt>
    <trkpt lat="56.527834" lon="60.788883">
        <ele>244.4</ele>
        <time>2022-06-29T17:39:53.022Z</time>
    </trkpt>
    <trkpt lat="56.527833" lon="60.788874">
        <ele>244.4</ele>
        <time>2022-06-29T17:39:54.022Z</time>
    </trkpt>
    <trkpt lat="56.527835" lon="60.788842">
        <ele>244.7</ele>
        <time>2022-06-29T17:39:55.022Z</time>
    </trkpt>
    <trkpt lat="56.52784" lon="60.788831">
        <ele>244.7</ele>
        <time>2022-06-29T17:39:56.022Z</time>
    </trkpt>
    <trkpt lat="56.527844" lon="60.788812">
        <ele>244.9</ele>
        <time>2022-06-29T17:39:57.022Z</time>
    </trkpt>
    <trkpt lat="56.527847" lon="60.788791">
        <ele>244.9</ele>
        <time>2022-06-29T17:39:58.022Z</time>
    </trkpt>
    <trkpt lat="56.527856" lon="60.788774">
        <ele>244.4</ele>
        <time>2022-06-29T17:39:59.022Z</time>
    </trkpt>
    <trkpt lat="56.527855" lon="60.788727">
        <ele>244.6</ele>
        <time>2022-06-29T17:40:00.022Z</time>
    </trkpt>
    <trkpt lat="56.52785" lon="60.788712">
        <ele>245.4</ele>
        <time>2022-06-29T17:40:01.022Z</time>
    </trkpt>
    <trkpt lat="56.527854" lon="60.788687">
        <ele>244.9</ele>
        <time>2022-06-29T17:40:02.022Z</time>
    </trkpt>
    <trkpt lat="56.527854" lon="60.78863">
        <ele>245.4</ele>
        <time>2022-06-29T17:40:03.022Z</time>
    </trkpt>
    <trkpt lat="56.527858" lon="60.788599">
        <ele>245.4</ele>
        <time>2022-06-29T17:40:04.022Z</time>
    </trkpt>
    <trkpt lat="56.527865" lon="60.788572">
        <ele>245.7</ele>
        <time>2022-06-29T17:40:05.022Z</time>
    </trkpt>
    <trkpt lat="56.527864" lon="60.788544">
        <ele>246.0</ele>
        <time>2022-06-29T17:40:06.022Z</time>
    </trkpt>
    <trkpt lat="56.527868" lon="60.788509">
        <ele>246.2</ele>
        <time>2022-06-29T17:40:07.022Z</time>
    </trkpt>
    <trkpt lat="56.527866" lon="60.788491">
        <ele>246.2</ele>
        <time>2022-06-29T17:40:08.022Z</time>
    </trkpt>
    <trkpt lat="56.527866" lon="60.788435">
        <ele>246.3</ele>
        <time>2022-06-29T17:40:09.022Z</time>
    </trkpt>
    <trkpt lat="56.527869" lon="60.788414">
        <ele>246.4</ele>
        <time>2022-06-29T17:40:10.022Z</time>
    </trkpt>
    <trkpt lat="56.527872" lon="60.788345">
        <ele>246.3</ele>
        <time>2022-06-29T17:40:11.022Z</time>
    </trkpt>
    <trkpt lat="56.527874" lon="60.788324">
        <ele>245.8</ele>
        <time>2022-06-29T17:40:12.022Z</time>
    </trkpt>
    <trkpt lat="56.527873" lon="60.788259">
        <ele>246.3</ele>
        <time>2022-06-29T17:40:13.022Z</time>
    </trkpt>
    <trkpt lat="56.527871" lon="60.788209">
        <ele>246.5</ele>
        <time>2022-06-29T17:40:14.022Z</time>
    </trkpt>
    <trkpt lat="56.52787" lon="60.788194">
        <ele>246.5</ele>
        <time>2022-06-29T17:40:15.022Z</time>
    </trkpt>
    <trkpt lat="56.527871" lon="60.788136">
        <ele>246.5</ele>
        <time>2022-06-29T17:40:16.022Z</time>
    </trkpt>
    <trkpt lat="56.527875" lon="60.78812">
        <ele>245.9</ele>
        <time>2022-06-29T17:40:17.022Z</time>
    </trkpt>
    <trkpt lat="56.52788" lon="60.788067">
        <ele>245.8</ele>
        <time>2022-06-29T17:40:18.022Z</time>
    </trkpt>
    <trkpt lat="56.527876" lon="60.788041">
        <ele>245.8</ele>
        <time>2022-06-29T17:40:19.022Z</time>
    </trkpt>
    <trkpt lat="56.527867" lon="60.788013">
        <ele>246.0</ele>
        <time>2022-06-29T17:40:20.022Z</time>
    </trkpt>
    <trkpt lat="56.527867" lon="60.787987">
        <ele>245.8</ele>
        <time>2022-06-29T17:40:21.022Z</time>
    </trkpt>
    <trkpt lat="56.52787" lon="60.787913">
        <ele>245.6</ele>
        <time>2022-06-29T17:40:22.022Z</time>
    </trkpt>
    <trkpt lat="56.527869" lon="60.787891">
        <ele>245.5</ele>
        <time>2022-06-29T17:40:23.022Z</time>
    </trkpt>
    <trkpt lat="56.527877" lon="60.787832">
        <ele>245.3</ele>
        <time>2022-06-29T17:40:24.022Z</time>
    </trkpt>
    <trkpt lat="56.527882" lon="60.787817">
        <ele>245.3</ele>
        <time>2022-06-29T17:40:25.022Z</time>
    </trkpt>
    <trkpt lat="56.527892" lon="60.787761">
        <ele>245.4</ele>
        <time>2022-06-29T17:40:26.022Z</time>
    </trkpt>
    <trkpt lat="56.527896" lon="60.787737">
        <ele>245.6</ele>
        <time>2022-06-29T17:40:27.022Z</time>
    </trkpt>
    <trkpt lat="56.5279" lon="60.787706">
        <ele>245.3</ele>
        <time>2022-06-29T17:40:28.022Z</time>
    </trkpt>
    <trkpt lat="56.527906" lon="60.787665">
        <ele>245.3</ele>
        <time>2022-06-29T17:40:29.022Z</time>
    </trkpt>
    <trkpt lat="56.527909" lon="60.787644">
        <ele>245.4</ele>
        <time>2022-06-29T17:40:30.022Z</time>
    </trkpt>
    <trkpt lat="56.527909" lon="60.787627">
        <ele>245.4</ele>
        <time>2022-06-29T17:40:31.022Z</time>
    </trkpt>
    <trkpt lat="56.527916" lon="60.787572">
        <ele>245.4</ele>
        <time>2022-06-29T17:40:32.022Z</time>
    </trkpt>
    <trkpt lat="56.52792" lon="60.787537">
        <ele>245.3</ele>
        <time>2022-06-29T17:40:33.022Z</time>
    </trkpt>
    <trkpt lat="56.527923" lon="60.787514">
        <ele>244.8</ele>
        <time>2022-06-29T17:40:34.022Z</time>
    </trkpt>
    <trkpt lat="56.527927" lon="60.787483">
        <ele>244.8</ele>
        <time>2022-06-29T17:40:35.022Z</time>
    </trkpt>
    <trkpt lat="56.527928" lon="60.787458">
        <ele>244.8</ele>
        <time>2022-06-29T17:40:36.022Z</time>
    </trkpt>
    <trkpt lat="56.527967" lon="60.787276">
        <ele>245.3</ele>
        <time>2022-06-29T17:40:46.022Z</time>
    </trkpt>
    <trkpt lat="56.527968" lon="60.787273">
        <ele>245.3</ele>
        <time>2022-06-29T17:40:47.022Z</time>
    </trkpt>
    <trkpt lat="56.527974" lon="60.78726">
        <ele>245.0</ele>
        <time>2022-06-29T17:40:48.022Z</time>
    </trkpt>
    <trkpt lat="56.527982" lon="60.787252">
        <ele>245.0</ele>
        <time>2022-06-29T17:40:49.022Z</time>
    </trkpt>
    <trkpt lat="56.527989" lon="60.78722">
        <ele>245.2</ele>
        <time>2022-06-29T17:40:50.022Z</time>
    </trkpt>
    <trkpt lat="56.528" lon="60.787207">
        <ele>244.7</ele>
        <time>2022-06-29T17:40:51.022Z</time>
    </trkpt>
    <trkpt lat="56.528003" lon="60.787175">
        <ele>245.0</ele>
        <time>2022-06-29T17:40:52.022Z</time>
    </trkpt>
    <trkpt lat="56.528002" lon="60.787148">
        <ele>245.0</ele>
        <time>2022-06-29T17:40:53.022Z</time>
    </trkpt>
    <trkpt lat="56.528017" lon="60.787131">
        <ele>244.7</ele>
        <time>2022-06-29T17:40:54.022Z</time>
    </trkpt>
    <trkpt lat="56.528045" lon="60.787088">
        <ele>244.3</ele>
        <time>2022-06-29T17:40:55.022Z</time>
    </trkpt>
    <trkpt lat="56.528052" lon="60.787074">
        <ele>244.3</ele>
        <time>2022-06-29T17:40:56.022Z</time>
    </trkpt>
    <trkpt lat="56.52805" lon="60.787032">
        <ele>244.5</ele>
        <time>2022-06-29T17:40:57.022Z</time>
    </trkpt>
    <trkpt lat="56.528048" lon="60.787003">
        <ele>244.8</ele>
        <time>2022-06-29T17:40:58.022Z</time>
    </trkpt>
    <trkpt lat="56.528048" lon="60.786982">
        <ele>244.8</ele>
        <time>2022-06-29T17:40:59.022Z</time>
    </trkpt>
    <trkpt lat="56.528043" lon="60.786944">
        <ele>245.0</ele>
        <time>2022-06-29T17:41:00.022Z</time>
    </trkpt>
    <trkpt lat="56.528043" lon="60.786924">
        <ele>245.1</ele>
        <time>2022-06-29T17:41:01.022Z</time>
    </trkpt>
    <trkpt lat="56.528045" lon="60.786897">
        <ele>245.1</ele>
        <time>2022-06-29T17:41:02.022Z</time>
    </trkpt>
    <trkpt lat="56.528046" lon="60.78683">
        <ele>245.3</ele>
        <time>2022-06-29T17:41:03.022Z</time>
    </trkpt>
    <trkpt lat="56.528051" lon="60.786814">
        <ele>245.3</ele>
        <time>2022-06-29T17:41:04.022Z</time>
    </trkpt>
    <trkpt lat="56.528059" lon="60.786756">
        <ele>245.4</ele>
        <time>2022-06-29T17:41:05.022Z</time>
    </trkpt>
    <trkpt lat="56.528059" lon="60.786734">
        <ele>245.5</ele>
        <time>2022-06-29T17:41:06.022Z</time>
    </trkpt>
    <trkpt lat="56.528067" lon="60.786678">
        <ele>245.2</ele>
        <time>2022-06-29T17:41:07.022Z</time>
    </trkpt>
    <trkpt lat="56.52807" lon="60.786629">
        <ele>245.3</ele>
        <time>2022-06-29T17:41:08.022Z</time>
    </trkpt>
    <trkpt lat="56.528071" lon="60.786609">
        <ele>245.4</ele>
        <time>2022-06-29T17:41:09.022Z</time>
    </trkpt>
    <trkpt lat="56.52807" lon="60.786567">
        <ele>245.4</ele>
        <time>2022-06-29T17:41:10.022Z</time>
    </trkpt>
    <trkpt lat="56.528072" lon="60.786551">
        <ele>245.4</ele>
        <time>2022-06-29T17:41:11.022Z</time>
    </trkpt>
    <trkpt lat="56.528074" lon="60.786494">
        <ele>245.3</ele>
        <time>2022-06-29T17:41:12.022Z</time>
    </trkpt>
    <trkpt lat="56.528069" lon="60.786482">
        <ele>245.3</ele>
        <time>2022-06-29T17:41:13.022Z</time>
    </trkpt>
    <trkpt lat="56.528058" lon="60.786434">
        <ele>246.0</ele>
        <time>2022-06-29T17:41:14.022Z</time>
    </trkpt>
    <trkpt lat="56.528056" lon="60.78642">
        <ele>246.0</ele>
        <time>2022-06-29T17:41:15.022Z</time>
    </trkpt>
    <trkpt lat="56.528051" lon="60.786369">
        <ele>246.0</ele>
        <time>2022-06-29T17:41:16.022Z</time>
    </trkpt>
    <trkpt lat="56.528048" lon="60.786349">
        <ele>246.1</ele>
        <time>2022-06-29T17:41:17.022Z</time>
    </trkpt>
    <trkpt lat="56.52805" lon="60.786286">
        <ele>246.1</ele>
        <time>2022-06-29T17:41:18.022Z</time>
    </trkpt>
    <trkpt lat="56.52805" lon="60.786265">
        <ele>246.1</ele>
        <time>2022-06-29T17:41:19.022Z</time>
    </trkpt>
    <trkpt lat="56.528054" lon="60.78622">
        <ele>245.9</ele>
        <time>2022-06-29T17:41:20.022Z</time>
    </trkpt>
    <trkpt lat="56.528057" lon="60.78619">
        <ele>245.7</ele>
        <time>2022-06-29T17:41:21.022Z</time>
    </trkpt>
    <trkpt lat="56.528055" lon="60.786124">
        <ele>245.4</ele>
        <time>2022-06-29T17:41:22.022Z</time>
    </trkpt>
    <trkpt lat="56.528059" lon="60.78605">
        <ele>245.2</ele>
        <time>2022-06-29T17:41:23.022Z</time>
    </trkpt>
    <trkpt lat="56.528056" lon="60.785984">
        <ele>245.2</ele>
        <time>2022-06-29T17:41:24.022Z</time>
    </trkpt>
    <trkpt lat="56.528048" lon="60.785935">
        <ele>245.4</ele>
        <time>2022-06-29T17:41:25.022Z</time>
    </trkpt>
    <trkpt lat="56.528039" lon="60.78588">
        <ele>245.9</ele>
        <time>2022-06-29T17:41:26.022Z</time>
    </trkpt>
    <trkpt lat="56.528037" lon="60.785801">
        <ele>245.9</ele>
        <time>2022-06-29T17:41:27.022Z</time>
    </trkpt>
    <trkpt lat="56.528033" lon="60.785735">
        <ele>245.9</ele>
        <time>2022-06-29T17:41:28.022Z</time>
    </trkpt>
    <trkpt lat="56.528027" lon="60.785676">
        <ele>245.9</ele>
        <time>2022-06-29T17:41:29.022Z</time>
    </trkpt>
    <trkpt lat="56.528019" lon="60.78565">
        <ele>245.9</ele>
        <time>2022-06-29T17:41:30.022Z</time>
    </trkpt>
    <trkpt lat="56.528008" lon="60.785597">
        <ele>246.3</ele>
        <time>2022-06-29T17:41:31.022Z</time>
    </trkpt>
    <trkpt lat="56.528015" lon="60.785563">
        <ele>246.3</ele>
        <time>2022-06-29T17:41:32.022Z</time>
    </trkpt>
    <trkpt lat="56.528016" lon="60.785538">
        <ele>245.8</ele>
        <time>2022-06-29T17:41:33.022Z</time>
    </trkpt>
    <trkpt lat="56.528016" lon="60.785522">
        <ele>245.8</ele>
        <time>2022-06-29T17:41:34.022Z</time>
    </trkpt>
    <trkpt lat="56.528014" lon="60.785483">
        <ele>246.3</ele>
        <time>2022-06-29T17:41:35.022Z</time>
    </trkpt>
    <trkpt lat="56.528013" lon="60.785461">
        <ele>246.4</ele>
        <time>2022-06-29T17:41:36.022Z</time>
    </trkpt>
    <trkpt lat="56.528013" lon="60.785406">
        <ele>246.5</ele>
        <time>2022-06-29T17:41:37.022Z</time>
    </trkpt>
    <trkpt lat="56.528008" lon="60.785389">
        <ele>246.5</ele>
        <time>2022-06-29T17:41:38.022Z</time>
    </trkpt>
    <trkpt lat="56.528001" lon="60.78534">
        <ele>246.7</ele>
        <time>2022-06-29T17:41:39.022Z</time>
    </trkpt>
    <trkpt lat="56.527997" lon="60.785324">
        <ele>246.9</ele>
        <time>2022-06-29T17:41:40.022Z</time>
    </trkpt>
    <trkpt lat="56.527993" lon="60.785272">
        <ele>247.2</ele>
        <time>2022-06-29T17:41:41.022Z</time>
    </trkpt>
    <trkpt lat="56.527988" lon="60.78525">
        <ele>247.9</ele>
        <time>2022-06-29T17:41:42.022Z</time>
    </trkpt>
    <trkpt lat="56.527984" lon="60.785229">
        <ele>247.9</ele>
        <time>2022-06-29T17:41:43.022Z</time>
    </trkpt>
    <trkpt lat="56.527981" lon="60.785189">
        <ele>248.0</ele>
        <time>2022-06-29T17:41:44.022Z</time>
    </trkpt>
    <trkpt lat="56.527979" lon="60.785156">
        <ele>248.0</ele>
        <time>2022-06-29T17:41:45.022Z</time>
    </trkpt>
    <trkpt lat="56.52798" lon="60.785151">
        <ele>248.0</ele>
        <time>2022-06-29T17:41:46.022Z</time>
    </trkpt>
    <trkpt lat="56.527977" lon="60.78514">
        <ele>248.0</ele>
        <time>2022-06-29T17:41:47.022Z</time>
    </trkpt>
    <trkpt lat="56.527973" lon="60.785118">
        <ele>247.9</ele>
        <time>2022-06-29T17:41:48.022Z</time>
    </trkpt>
    <trkpt lat="56.527969" lon="60.785095">
        <ele>247.9</ele>
        <time>2022-06-29T17:41:49.022Z</time>
    </trkpt>
    <trkpt lat="56.527963" lon="60.78506">
        <ele>248.4</ele>
        <time>2022-06-29T17:41:50.022Z</time>
    </trkpt>
    <trkpt lat="56.527957" lon="60.785044">
        <ele>248.4</ele>
        <time>2022-06-29T17:41:51.022Z</time>
    </trkpt>
    <trkpt lat="56.527955" lon="60.785013">
        <ele>248.5</ele>
        <time>2022-06-29T17:41:52.022Z</time>
    </trkpt>
    <trkpt lat="56.527955" lon="60.784982">
        <ele>248.7</ele>
        <time>2022-06-29T17:41:53.022Z</time>
    </trkpt>
    <trkpt lat="56.527952" lon="60.784968">
        <ele>248.7</ele>
        <time>2022-06-29T17:41:54.022Z</time>
    </trkpt>
    <trkpt lat="56.527958" lon="60.784964">
        <ele>248.7</ele>
        <time>2022-06-29T17:41:55.022Z</time>
    </trkpt>
    <trkpt lat="56.527953" lon="60.784949">
        <ele>248.9</ele>
        <time>2022-06-29T17:41:56.022Z</time>
    </trkpt>
    <trkpt lat="56.527944" lon="60.784922">
        <ele>249.5</ele>
        <time>2022-06-29T17:41:57.022Z</time>
    </trkpt>
    <trkpt lat="56.527949" lon="60.784885">
        <ele>249.1</ele>
        <time>2022-06-29T17:41:58.022Z</time>
    </trkpt>
    <trkpt lat="56.527947" lon="60.784865">
        <ele>249.1</ele>
        <time>2022-06-29T17:41:59.022Z</time>
    </trkpt>
    <trkpt lat="56.52795" lon="60.78481">
        <ele>249.2</ele>
        <time>2022-06-29T17:42:00.022Z</time>
    </trkpt>
    <trkpt lat="56.527943" lon="60.784782">
        <ele>249.8</ele>
        <time>2022-06-29T17:42:01.022Z</time>
    </trkpt>
    <trkpt lat="56.527941" lon="60.784748">
        <ele>249.8</ele>
        <time>2022-06-29T17:42:02.022Z</time>
    </trkpt>
    <trkpt lat="56.527939" lon="60.784736">
        <ele>249.8</ele>
        <time>2022-06-29T17:42:03.022Z</time>
    </trkpt>
    <trkpt lat="56.527936" lon="60.784682">
        <ele>249.9</ele>
        <time>2022-06-29T17:42:04.022Z</time>
    </trkpt>
    <trkpt lat="56.527949" lon="60.784634">
        <ele>249.8</ele>
        <time>2022-06-29T17:42:05.022Z</time>
    </trkpt>
    <trkpt lat="56.527952" lon="60.784614">
        <ele>249.8</ele>
        <time>2022-06-29T17:42:06.022Z</time>
    </trkpt>
    <trkpt lat="56.527955" lon="60.784566">
        <ele>250.1</ele>
        <time>2022-06-29T17:42:07.022Z</time>
    </trkpt>
    <trkpt lat="56.527951" lon="60.78454">
        <ele>250.3</ele>
        <time>2022-06-29T17:42:08.022Z</time>
    </trkpt>
    <trkpt lat="56.527954" lon="60.784511">
        <ele>250.5</ele>
        <time>2022-06-29T17:42:09.022Z</time>
    </trkpt>
    <trkpt lat="56.527954" lon="60.78449">
        <ele>250.5</ele>
        <time>2022-06-29T17:42:10.022Z</time>
    </trkpt>
    <trkpt lat="56.527956" lon="60.784431">
        <ele>250.5</ele>
        <time>2022-06-29T17:42:11.022Z</time>
    </trkpt>
    <trkpt lat="56.527956" lon="60.784409">
        <ele>250.5</ele>
        <time>2022-06-29T17:42:12.022Z</time>
    </trkpt>
    <trkpt lat="56.527957" lon="60.784387">
        <ele>250.4</ele>
        <time>2022-06-29T17:42:13.022Z</time>
    </trkpt>
    <trkpt lat="56.527961" lon="60.784355">
        <ele>250.4</ele>
        <time>2022-06-29T17:42:14.022Z</time>
    </trkpt>
    <trkpt lat="56.527973" lon="60.784312">
        <ele>249.9</ele>
        <time>2022-06-29T17:42:16.022Z</time>
    </trkpt>
    <trkpt lat="56.527977" lon="60.784295">
        <ele>250.1</ele>
        <time>2022-06-29T17:42:17.022Z</time>
    </trkpt>
    <trkpt lat="56.527978" lon="60.784289">
        <ele>250.1</ele>
        <time>2022-06-29T17:42:18.022Z</time>
    </trkpt>
    <trkpt lat="56.527983" lon="60.784278">
        <ele>250.1</ele>
        <time>2022-06-29T17:42:19.022Z</time>
    </trkpt>
    <trkpt lat="56.527983" lon="60.784278">
        <ele>250.1</ele>
        <time>2022-06-29T17:42:20.022Z</time>
    </trkpt>
    <trkpt lat="56.527985" lon="60.784264">
        <ele>250.1</ele>
        <time>2022-06-29T17:42:21.022Z</time>
    </trkpt>
    <trkpt lat="56.527991" lon="60.784244">
        <ele>250.3</ele>
        <time>2022-06-29T17:42:22.022Z</time>
    </trkpt>
    <trkpt lat="56.527997" lon="60.784221">
        <ele>249.9</ele>
        <time>2022-06-29T17:42:23.022Z</time>
    </trkpt>
    <trkpt lat="56.527998" lon="60.784198">
        <ele>250.1</ele>
        <time>2022-06-29T17:42:24.022Z</time>
    </trkpt>
    <trkpt lat="56.528" lon="60.78417">
        <ele>250.3</ele>
        <time>2022-06-29T17:42:25.022Z</time>
    </trkpt>
    <trkpt lat="56.528002" lon="60.784159">
        <ele>250.3</ele>
        <time>2022-06-29T17:42:26.022Z</time>
    </trkpt>
    <trkpt lat="56.528001" lon="60.784101">
        <ele>250.4</ele>
        <time>2022-06-29T17:42:27.022Z</time>
    </trkpt>
    <trkpt lat="56.528003" lon="60.784084">
        <ele>250.4</ele>
        <time>2022-06-29T17:42:28.022Z</time>
    </trkpt>
    <trkpt lat="56.528001" lon="60.784034">
        <ele>250.3</ele>
        <time>2022-06-29T17:42:29.022Z</time>
    </trkpt>
    <trkpt lat="56.528" lon="60.784017">
        <ele>250.3</ele>
        <time>2022-06-29T17:42:30.022Z</time>
    </trkpt>
    <trkpt lat="56.527998" lon="60.783967">
        <ele>250.1</ele>
        <time>2022-06-29T17:42:31.022Z</time>
    </trkpt>
    <trkpt lat="56.52799" lon="60.783941">
        <ele>250.2</ele>
        <time>2022-06-29T17:42:32.022Z</time>
    </trkpt>
    <trkpt lat="56.527993" lon="60.783914">
        <ele>249.5</ele>
        <time>2022-06-29T17:42:33.022Z</time>
    </trkpt>
    <trkpt lat="56.527991" lon="60.783881">
        <ele>250.0</ele>
        <time>2022-06-29T17:42:34.022Z</time>
    </trkpt>
    <trkpt lat="56.527988" lon="60.783858">
        <ele>249.8</ele>
        <time>2022-06-29T17:42:35.022Z</time>
    </trkpt>
    <trkpt lat="56.527985" lon="60.783839">
        <ele>249.8</ele>
        <time>2022-06-29T17:42:36.022Z</time>
    </trkpt>
    <trkpt lat="56.527982" lon="60.78382">
        <ele>249.7</ele>
        <time>2022-06-29T17:42:37.022Z</time>
    </trkpt>
    <trkpt lat="56.527986" lon="60.783775">
        <ele>249.6</ele>
        <time>2022-06-29T17:42:38.022Z</time>
    </trkpt>
    <trkpt lat="56.527983" lon="60.783752">
        <ele>249.6</ele>
        <time>2022-06-29T17:42:39.022Z</time>
    </trkpt>
    <trkpt lat="56.527981" lon="60.783742">
        <ele>249.6</ele>
        <time>2022-06-29T17:42:40.022Z</time>
    </trkpt>
    <trkpt lat="56.527978" lon="60.783719">
        <ele>249.6</ele>
        <time>2022-06-29T17:42:41.022Z</time>
    </trkpt>
    <trkpt lat="56.527987" lon="60.783711">
        <ele>249.6</ele>
        <time>2022-06-29T17:42:42.022Z</time>
    </trkpt>
    <trkpt lat="56.527983" lon="60.78368">
        <ele>249.5</ele>
        <time>2022-06-29T17:42:43.022Z</time>
    </trkpt>
    <trkpt lat="56.527986" lon="60.783661">
        <ele>249.4</ele>
        <time>2022-06-29T17:42:44.022Z</time>
    </trkpt>
    <trkpt lat="56.527988" lon="60.783642">
        <ele>249.4</ele>
        <time>2022-06-29T17:42:45.022Z</time>
    </trkpt>
    <trkpt lat="56.527988" lon="60.783595">
        <ele>249.3</ele>
        <time>2022-06-29T17:42:46.022Z</time>
    </trkpt>
    <trkpt lat="56.52798" lon="60.783583">
        <ele>249.3</ele>
        <time>2022-06-29T17:42:47.022Z</time>
    </trkpt>
    <trkpt lat="56.527972" lon="60.783571">
        <ele>249.2</ele>
        <time>2022-06-29T17:42:48.022Z</time>
    </trkpt>
    <trkpt lat="56.527964" lon="60.78354">
        <ele>249.6</ele>
        <time>2022-06-29T17:42:49.022Z</time>
    </trkpt>
    <trkpt lat="56.52797" lon="60.783523">
        <ele>249.0</ele>
        <time>2022-06-29T17:42:50.022Z</time>
    </trkpt>
    <trkpt lat="56.527962" lon="60.783506">
        <ele>249.5</ele>
        <time>2022-06-29T17:42:51.022Z</time>
    </trkpt>
    <trkpt lat="56.52796" lon="60.78349">
        <ele>249.3</ele>
        <time>2022-06-29T17:42:52.022Z</time>
    </trkpt>
    <trkpt lat="56.527954" lon="60.783481">
        <ele>249.3</ele>
        <time>2022-06-29T17:42:53.022Z</time>
    </trkpt>
    <trkpt lat="56.527948" lon="60.783472">
        <ele>249.3</ele>
        <time>2022-06-29T17:42:54.022Z</time>
    </trkpt>
    <trkpt lat="56.527942" lon="60.783463">
        <ele>249.8</ele>
        <time>2022-06-29T17:42:55.022Z</time>
    </trkpt>
    <trkpt lat="56.527933" lon="60.783442">
        <ele>249.6</ele>
        <time>2022-06-29T17:42:56.022Z</time>
    </trkpt>
    <trkpt lat="56.527931" lon="60.783429">
        <ele>249.6</ele>
        <time>2022-06-29T17:42:57.022Z</time>
    </trkpt>
    <trkpt lat="56.527929" lon="60.783416">
        <ele>249.6</ele>
        <time>2022-06-29T17:42:58.022Z</time>
    </trkpt>
    <trkpt lat="56.527927" lon="60.783402">
        <ele>249.3</ele>
        <time>2022-06-29T17:42:59.022Z</time>
    </trkpt>
    <trkpt lat="56.527929" lon="60.783375">
        <ele>249.3</ele>
        <time>2022-06-29T17:43:00.022Z</time>
    </trkpt>
    <trkpt lat="56.527931" lon="60.783354">
        <ele>249.0</ele>
        <time>2022-06-29T17:43:01.022Z</time>
    </trkpt>
    <trkpt lat="56.527931" lon="60.783344">
        <ele>249.0</ele>
        <time>2022-06-29T17:43:02.022Z</time>
    </trkpt>
    <trkpt lat="56.527933" lon="60.783326">
        <ele>249.0</ele>
        <time>2022-06-29T17:43:03.022Z</time>
    </trkpt>
    <trkpt lat="56.527933" lon="60.783312">
        <ele>248.6</ele>
        <time>2022-06-29T17:43:04.022Z</time>
    </trkpt>
    <trkpt lat="56.527938" lon="60.783312">
        <ele>248.6</ele>
        <time>2022-06-29T17:43:05.022Z</time>
    </trkpt>
    <trkpt lat="56.527942" lon="60.783297">
        <ele>248.6</ele>
        <time>2022-06-29T17:43:06.022Z</time>
    </trkpt>
    <trkpt lat="56.527945" lon="60.783282">
        <ele>248.1</ele>
        <time>2022-06-29T17:43:07.022Z</time>
    </trkpt>
    <trkpt lat="56.527948" lon="60.783267">
        <ele>247.8</ele>
        <time>2022-06-29T17:43:08.022Z</time>
    </trkpt>
    <trkpt lat="56.527951" lon="60.783251">
        <ele>247.8</ele>
        <time>2022-06-29T17:43:09.022Z</time>
    </trkpt>
    <trkpt lat="56.527955" lon="60.783236">
        <ele>247.8</ele>
        <time>2022-06-29T17:43:10.022Z</time>
    </trkpt>
    <trkpt lat="56.527964" lon="60.783204">
        <ele>247.5</ele>
        <time>2022-06-29T17:43:11.022Z</time>
    </trkpt>
    <trkpt lat="56.527964" lon="60.783178">
        <ele>247.3</ele>
        <time>2022-06-29T17:43:12.022Z</time>
    </trkpt>
    <trkpt lat="56.527961" lon="60.783152">
        <ele>247.3</ele>
        <time>2022-06-29T17:43:13.022Z</time>
    </trkpt>
    <trkpt lat="56.527959" lon="60.783144">
        <ele>247.3</ele>
        <time>2022-06-29T17:43:14.022Z</time>
    </trkpt>
    <trkpt lat="56.527962" lon="60.783122">
        <ele>247.3</ele>
        <time>2022-06-29T17:43:15.022Z</time>
    </trkpt>
    <trkpt lat="56.527972" lon="60.78309">
        <ele>246.9</ele>
        <time>2022-06-29T17:43:16.022Z</time>
    </trkpt>
    <trkpt lat="56.527971" lon="60.783076">
        <ele>246.9</ele>
        <time>2022-06-29T17:43:17.022Z</time>
    </trkpt>
    <trkpt lat="56.527969" lon="60.783057">
        <ele>247.0</ele>
        <time>2022-06-29T17:43:18.022Z</time>
    </trkpt>
    <trkpt lat="56.527971" lon="60.783039">
        <ele>247.0</ele>
        <time>2022-06-29T17:43:19.022Z</time>
    </trkpt>
    <trkpt lat="56.52797" lon="60.783027">
        <ele>247.0</ele>
        <time>2022-06-29T17:43:20.022Z</time>
    </trkpt>
    <trkpt lat="56.527971" lon="60.783005">
        <ele>247.1</ele>
        <time>2022-06-29T17:43:21.022Z</time>
    </trkpt>
    <trkpt lat="56.52797" lon="60.78298">
        <ele>247.1</ele>
        <time>2022-06-29T17:43:22.022Z</time>
    </trkpt>
    <trkpt lat="56.527965" lon="60.782948">
        <ele>247.4</ele>
        <time>2022-06-29T17:43:23.022Z</time>
    </trkpt>
    <trkpt lat="56.527966" lon="60.782931">
        <ele>247.2</ele>
        <time>2022-06-29T17:43:24.022Z</time>
    </trkpt>
    <trkpt lat="56.527962" lon="60.782914">
        <ele>247.2</ele>
        <time>2022-06-29T17:43:25.022Z</time>
    </trkpt>
    <trkpt lat="56.527961" lon="60.782898">
        <ele>247.2</ele>
        <time>2022-06-29T17:43:26.022Z</time>
    </trkpt>
    <trkpt lat="56.527957" lon="60.782872">
        <ele>246.8</ele>
        <time>2022-06-29T17:43:27.022Z</time>
    </trkpt>
    <trkpt lat="56.52795" lon="60.782863">
        <ele>246.8</ele>
        <time>2022-06-29T17:43:28.022Z</time>
    </trkpt>
    <trkpt lat="56.52794" lon="60.782843">
        <ele>247.0</ele>
        <time>2022-06-29T17:43:29.022Z</time>
    </trkpt>
    <trkpt lat="56.527939" lon="60.782832">
        <ele>247.0</ele>
        <time>2022-06-29T17:43:30.022Z</time>
    </trkpt>
    <trkpt lat="56.527933" lon="60.782805">
        <ele>247.0</ele>
        <time>2022-06-29T17:43:31.022Z</time>
    </trkpt>
    <trkpt lat="56.527933" lon="60.782783">
        <ele>246.7</ele>
        <time>2022-06-29T17:43:32.022Z</time>
    </trkpt>
    <trkpt lat="56.527924" lon="60.782761">
        <ele>246.4</ele>
        <time>2022-06-29T17:43:33.022Z</time>
    </trkpt>
    <trkpt lat="56.527916" lon="60.782759">
        <ele>247.0</ele>
        <time>2022-06-29T17:43:34.022Z</time>
    </trkpt>
    <trkpt lat="56.527909" lon="60.78274">
        <ele>247.0</ele>
        <time>2022-06-29T17:43:35.022Z</time>
    </trkpt>
    <trkpt lat="56.527907" lon="60.782717">
        <ele>246.7</ele>
        <time>2022-06-29T17:43:36.022Z</time>
    </trkpt>
    <trkpt lat="56.52791" lon="60.7827">
        <ele>246.7</ele>
        <time>2022-06-29T17:43:37.022Z</time>
    </trkpt>
    <trkpt lat="56.527909" lon="60.782682">
        <ele>246.7</ele>
        <time>2022-06-29T17:43:38.022Z</time>
    </trkpt>
    <trkpt lat="56.527906" lon="60.78267">
        <ele>246.5</ele>
        <time>2022-06-29T17:43:39.022Z</time>
    </trkpt>
    <trkpt lat="56.527903" lon="60.782658">
        <ele>246.5</ele>
        <time>2022-06-29T17:43:40.022Z</time>
    </trkpt>
    <trkpt lat="56.5279" lon="60.782646">
        <ele>246.5</ele>
        <time>2022-06-29T17:43:41.022Z</time>
    </trkpt>
    <trkpt lat="56.527895" lon="60.782616">
        <ele>246.8</ele>
        <time>2022-06-29T17:43:42.022Z</time>
    </trkpt>
    <trkpt lat="56.527901" lon="60.782603">
        <ele>246.2</ele>
        <time>2022-06-29T17:43:43.022Z</time>
    </trkpt>
    <trkpt lat="56.527907" lon="60.78259">
        <ele>246.2</ele>
        <time>2022-06-29T17:43:44.022Z</time>
    </trkpt>
    <trkpt lat="56.527913" lon="60.782578">
        <ele>246.0</ele>
        <time>2022-06-29T17:43:45.022Z</time>
    </trkpt>
    <trkpt lat="56.527919" lon="60.782565">
        <ele>246.0</ele>
        <time>2022-06-29T17:43:46.022Z</time>
    </trkpt>
    <trkpt lat="56.527923" lon="60.782545">
        <ele>245.2</ele>
        <time>2022-06-29T17:43:47.022Z</time>
    </trkpt>
    <trkpt lat="56.52792" lon="60.782521">
        <ele>245.7</ele>
        <time>2022-06-29T17:43:48.022Z</time>
    </trkpt>
    <trkpt lat="56.527924" lon="60.782496">
        <ele>244.9</ele>
        <time>2022-06-29T17:43:49.022Z</time>
    </trkpt>
    <trkpt lat="56.527924" lon="60.782481">
        <ele>244.9</ele>
        <time>2022-06-29T17:43:50.022Z</time>
    </trkpt>
    <trkpt lat="56.527922" lon="60.782471">
        <ele>244.9</ele>
        <time>2022-06-29T17:43:51.022Z</time>
    </trkpt>
    <trkpt lat="56.527927" lon="60.782455">
        <ele>244.7</ele>
        <time>2022-06-29T17:43:52.022Z</time>
    </trkpt>
    <trkpt lat="56.527929" lon="60.782429">
        <ele>244.7</ele>
        <time>2022-06-29T17:43:53.022Z</time>
    </trkpt>
    <trkpt lat="56.527933" lon="60.782409">
        <ele>244.4</ele>
        <time>2022-06-29T17:43:54.022Z</time>
    </trkpt>
    <trkpt lat="56.527932" lon="60.782393">
        <ele>244.4</ele>
        <time>2022-06-29T17:43:55.022Z</time>
    </trkpt>
    <trkpt lat="56.527933" lon="60.782372">
        <ele>244.2</ele>
        <time>2022-06-29T17:43:56.022Z</time>
    </trkpt>
    <trkpt lat="56.52793" lon="60.782348">
        <ele>244.2</ele>
        <time>2022-06-29T17:43:57.022Z</time>
    </trkpt>
    <trkpt lat="56.527927" lon="60.782311">
        <ele>243.9</ele>
        <time>2022-06-29T17:43:58.022Z</time>
    </trkpt>
    <trkpt lat="56.527928" lon="60.782291">
        <ele>243.9</ele>
        <time>2022-06-29T17:43:59.022Z</time>
    </trkpt>
    <trkpt lat="56.527925" lon="60.782273">
        <ele>243.7</ele>
        <time>2022-06-29T17:44:00.022Z</time>
    </trkpt>
    <trkpt lat="56.527923" lon="60.782251">
        <ele>243.7</ele>
        <time>2022-06-29T17:44:01.022Z</time>
    </trkpt>
    <trkpt lat="56.527927" lon="60.782209">
        <ele>243.4</ele>
        <time>2022-06-29T17:44:11.022Z</time>
    </trkpt>
    <trkpt lat="56.527931" lon="60.782215">
        <ele>243.4</ele>
        <time>2022-06-29T17:44:12.022Z</time>
    </trkpt>
    <trkpt lat="56.527931" lon="60.782201">
        <ele>243.2</ele>
        <time>2022-06-29T17:44:13.022Z</time>
    </trkpt>
    <trkpt lat="56.527938" lon="60.782196">
        <ele>243.2</ele>
        <time>2022-06-29T17:44:14.022Z</time>
    </trkpt>
    <trkpt lat="56.527946" lon="60.782183">
        <ele>242.7</ele>
        <time>2022-06-29T17:44:15.022Z</time>
    </trkpt>
    <trkpt lat="56.527955" lon="60.782176">
        <ele>242.7</ele>
        <time>2022-06-29T17:44:16.022Z</time>
    </trkpt>
    <trkpt lat="56.527957" lon="60.782166">
        <ele>242.7</ele>
        <time>2022-06-29T17:44:17.022Z</time>
    </trkpt>
    <trkpt lat="56.527955" lon="60.782147">
        <ele>242.4</ele>
        <time>2022-06-29T17:44:18.022Z</time>
    </trkpt>
    <trkpt lat="56.527957" lon="60.782131">
        <ele>242.4</ele>
        <time>2022-06-29T17:44:19.022Z</time>
    </trkpt>
    <trkpt lat="56.527957" lon="60.78212">
        <ele>242.4</ele>
        <time>2022-06-29T17:44:20.022Z</time>
    </trkpt>
    <trkpt lat="56.527961" lon="60.782105">
        <ele>242.2</ele>
        <time>2022-06-29T17:44:21.022Z</time>
    </trkpt>
    <trkpt lat="56.527969" lon="60.782076">
        <ele>241.7</ele>
        <time>2022-06-29T17:44:22.022Z</time>
    </trkpt>
    <trkpt lat="56.527969" lon="60.782068">
        <ele>241.5</ele>
        <time>2022-06-29T17:44:23.022Z</time>
    </trkpt>
    <trkpt lat="56.527969" lon="60.782054">
        <ele>241.5</ele>
        <time>2022-06-29T17:44:24.022Z</time>
    </trkpt>
    <trkpt lat="56.527968" lon="60.782036">
        <ele>242.0</ele>
        <time>2022-06-29T17:44:25.022Z</time>
    </trkpt>
    <trkpt lat="56.527969" lon="60.78202">
        <ele>241.3</ele>
        <time>2022-06-29T17:44:26.022Z</time>
    </trkpt>
    <trkpt lat="56.527974" lon="60.782003">
        <ele>241.3</ele>
        <time>2022-06-29T17:44:27.022Z</time>
    </trkpt>
    <trkpt lat="56.527979" lon="60.781979">
        <ele>241.0</ele>
        <time>2022-06-29T17:44:28.022Z</time>
    </trkpt>
    <trkpt lat="56.527981" lon="60.781964">
        <ele>241.0</ele>
        <time>2022-06-29T17:44:29.022Z</time>
    </trkpt>
    <trkpt lat="56.527986" lon="60.781957">
        <ele>241.0</ele>
        <time>2022-06-29T17:44:30.022Z</time>
    </trkpt>
    <trkpt lat="56.527978" lon="60.781822">
        <ele>240.0</ele>
        <time>2022-06-29T17:46:16.022Z</time>
    </trkpt>
    <trkpt lat="56.527972" lon="60.781815">
        <ele>239.8</ele>
        <time>2022-06-29T17:46:17.022Z</time>
    </trkpt>
    <trkpt lat="56.52797" lon="60.78179">
        <ele>239.8</ele>
        <time>2022-06-29T17:46:18.022Z</time>
    </trkpt>
    <trkpt lat="56.52797" lon="60.78179">
        <ele>239.8</ele>
        <time>2022-06-29T17:46:19.022Z</time>
    </trkpt>
    <trkpt lat="56.52797" lon="60.78179">
        <ele>239.8</ele>
        <time>2022-06-29T17:46:20.022Z</time>
    </trkpt>
    <trkpt lat="56.527968" lon="60.781779">
        <ele>240.3</ele>
        <time>2022-06-29T17:46:21.022Z</time>
    </trkpt>
    <trkpt lat="56.527966" lon="60.781774">
        <ele>240.2</ele>
        <time>2022-06-29T17:46:22.022Z</time>
    </trkpt>
    <trkpt lat="56.527964" lon="60.781774">
        <ele>240.2</ele>
        <time>2022-06-29T17:46:23.022Z</time>
    </trkpt>
    <trkpt lat="56.527963" lon="60.781769">
        <ele>240.2</ele>
        <time>2022-06-29T17:46:24.022Z</time>
    </trkpt>
    <trkpt lat="56.527965" lon="60.781759">
        <ele>240.2</ele>
        <time>2022-06-29T17:46:25.022Z</time>
    </trkpt>
    <trkpt lat="56.527967" lon="60.781743">
        <ele>240.2</ele>
        <time>2022-06-29T17:46:26.022Z</time>
    </trkpt>
    <trkpt lat="56.52797" lon="60.781728">
        <ele>239.6</ele>
        <time>2022-06-29T17:46:27.022Z</time>
    </trkpt>
    <trkpt lat="56.527978" lon="60.781687">
        <ele>239.7</ele>
        <time>2022-06-29T17:46:28.022Z</time>
    </trkpt>
    <trkpt lat="56.527984" lon="60.781668">
        <ele>239.7</ele>
        <time>2022-06-29T17:46:29.022Z</time>
    </trkpt>
    <trkpt lat="56.52799" lon="60.78165">
        <ele>239.7</ele>
        <time>2022-06-29T17:46:30.022Z</time>
    </trkpt>
    <trkpt lat="56.528001" lon="60.781614">
        <ele>239.2</ele>
        <time>2022-06-29T17:46:31.022Z</time>
    </trkpt>
    <trkpt lat="56.528007" lon="60.781585">
        <ele>239.4</ele>
        <time>2022-06-29T17:46:32.022Z</time>
    </trkpt>
    <trkpt lat="56.528011" lon="60.781569">
        <ele>239.4</ele>
        <time>2022-06-29T17:46:33.022Z</time>
    </trkpt>
    <trkpt lat="56.528021" lon="60.781542">
        <ele>239.2</ele>
        <time>2022-06-29T17:46:34.022Z</time>
    </trkpt>
    <trkpt lat="56.528026" lon="60.781512">
        <ele>239.5</ele>
        <time>2022-06-29T17:46:35.022Z</time>
    </trkpt>
    <trkpt lat="56.528026" lon="60.781481">
        <ele>239.5</ele>
        <time>2022-06-29T17:46:36.022Z</time>
    </trkpt>
    <trkpt lat="56.528027" lon="60.781453">
        <ele>239.8</ele>
        <time>2022-06-29T17:46:37.022Z</time>
    </trkpt>
    <trkpt lat="56.528023" lon="60.781449">
        <ele>239.8</ele>
        <time>2022-06-29T17:46:38.022Z</time>
    </trkpt>
    <trkpt lat="56.528026" lon="60.781431">
        <ele>240.1</ele>
        <time>2022-06-29T17:46:39.022Z</time>
    </trkpt>
    <trkpt lat="56.528033" lon="60.781377">
        <ele>240.4</ele>
        <time>2022-06-29T17:46:40.022Z</time>
    </trkpt>
    <trkpt lat="56.52804" lon="60.781355">
        <ele>240.1</ele>
        <time>2022-06-29T17:46:41.022Z</time>
    </trkpt>
    <trkpt lat="56.528051" lon="60.781301">
        <ele>240.3</ele>
        <time>2022-06-29T17:46:42.022Z</time>
    </trkpt>
    <trkpt lat="56.528053" lon="60.781292">
        <ele>240.3</ele>
        <time>2022-06-29T17:46:43.022Z</time>
    </trkpt>
    <trkpt lat="56.528055" lon="60.781282">
        <ele>240.3</ele>
        <time>2022-06-29T17:46:44.022Z</time>
    </trkpt>
    <trkpt lat="56.528057" lon="60.781272">
        <ele>240.3</ele>
        <time>2022-06-29T17:46:45.022Z</time>
    </trkpt>
    <trkpt lat="56.528059" lon="60.781262">
        <ele>240.3</ele>
        <time>2022-06-29T17:46:46.022Z</time>
    </trkpt>
    <trkpt lat="56.528066" lon="60.781224">
        <ele>239.8</ele>
        <time>2022-06-29T17:46:47.022Z</time>
    </trkpt>
    <trkpt lat="56.528081" lon="60.781181">
        <ele>239.9</ele>
        <time>2022-06-29T17:46:48.022Z</time>
    </trkpt>
    <trkpt lat="56.528086" lon="60.78115">
        <ele>240.0</ele>
        <time>2022-06-29T17:46:49.022Z</time>
    </trkpt>
    <trkpt lat="56.528093" lon="60.781126">
        <ele>239.9</ele>
        <time>2022-06-29T17:46:50.022Z</time>
    </trkpt>
    <trkpt lat="56.528098" lon="60.781115">
        <ele>239.9</ele>
        <time>2022-06-29T17:46:51.022Z</time>
    </trkpt>
    <trkpt lat="56.528119" lon="60.781078">
        <ele>240.2</ele>
        <time>2022-06-29T17:46:52.022Z</time>
    </trkpt>
    <trkpt lat="56.528143" lon="60.781045">
        <ele>239.9</ele>
        <time>2022-06-29T17:46:53.022Z</time>
    </trkpt>
    <trkpt lat="56.52815" lon="60.781043">
        <ele>240.4</ele>
        <time>2022-06-29T17:46:54.022Z</time>
    </trkpt>
    <trkpt lat="56.528147" lon="60.781038">
        <ele>240.4</ele>
        <time>2022-06-29T17:46:55.022Z</time>
    </trkpt>
    <trkpt lat="56.528148" lon="60.781023">
        <ele>240.4</ele>
        <time>2022-06-29T17:46:56.022Z</time>
    </trkpt>
    <trkpt lat="56.528148" lon="60.780973">
        <ele>240.9</ele>
        <time>2022-06-29T17:46:57.022Z</time>
    </trkpt>
    <trkpt lat="56.528154" lon="60.780953">
        <ele>241.3</ele>
        <time>2022-06-29T17:46:58.022Z</time>
    </trkpt>
    <trkpt lat="56.528153" lon="60.780907">
        <ele>241.6</ele>
        <time>2022-06-29T17:46:59.022Z</time>
    </trkpt>
    <trkpt lat="56.528156" lon="60.780881">
        <ele>241.6</ele>
        <time>2022-06-29T17:47:00.022Z</time>
    </trkpt>
    <trkpt lat="56.52816" lon="60.780853">
        <ele>241.3</ele>
        <time>2022-06-29T17:47:01.022Z</time>
    </trkpt>
    <trkpt lat="56.528166" lon="60.780828">
        <ele>241.5</ele>
        <time>2022-06-29T17:47:02.022Z</time>
    </trkpt>
    <trkpt lat="56.52816" lon="60.780791">
        <ele>241.5</ele>
        <time>2022-06-29T17:47:03.022Z</time>
    </trkpt>
    <trkpt lat="56.528157" lon="60.780758">
        <ele>242.2</ele>
        <time>2022-06-29T17:47:04.022Z</time>
    </trkpt>
    <trkpt lat="56.528157" lon="60.780728">
        <ele>242.3</ele>
        <time>2022-06-29T17:47:05.022Z</time>
    </trkpt>
    <trkpt lat="56.528156" lon="60.780703">
        <ele>242.3</ele>
        <time>2022-06-29T17:47:06.022Z</time>
    </trkpt>
    <trkpt lat="56.52815" lon="60.780671">
        <ele>242.6</ele>
        <time>2022-06-29T17:47:07.022Z</time>
    </trkpt>
    <trkpt lat="56.528145" lon="60.780642">
        <ele>242.8</ele>
        <time>2022-06-29T17:47:08.022Z</time>
    </trkpt>
    <trkpt lat="56.528148" lon="60.780616">
        <ele>242.8</ele>
        <time>2022-06-29T17:47:09.022Z</time>
    </trkpt>
    <trkpt lat="56.528151" lon="60.780598">
        <ele>243.1</ele>
        <time>2022-06-29T17:47:10.022Z</time>
    </trkpt>
    <trkpt lat="56.528159" lon="60.78054">
        <ele>242.9</ele>
        <time>2022-06-29T17:47:11.022Z</time>
    </trkpt>
    <trkpt lat="56.52816" lon="60.780507">
        <ele>243.1</ele>
        <time>2022-06-29T17:47:12.022Z</time>
    </trkpt>
    <trkpt lat="56.528162" lon="60.780487">
        <ele>243.4</ele>
        <time>2022-06-29T17:47:13.022Z</time>
    </trkpt>
    <trkpt lat="56.528167" lon="60.780466">
        <ele>243.4</ele>
        <time>2022-06-29T17:47:14.022Z</time>
    </trkpt>
    <trkpt lat="56.528172" lon="60.780445">
        <ele>243.4</ele>
        <time>2022-06-29T17:47:15.022Z</time>
    </trkpt>
    <trkpt lat="56.528182" lon="60.780413">
        <ele>243.2</ele>
        <time>2022-06-29T17:47:16.022Z</time>
    </trkpt>
    <trkpt lat="56.52819" lon="60.780391">
        <ele>243.5</ele>
        <time>2022-06-29T17:47:17.022Z</time>
    </trkpt>
    <trkpt lat="56.528202" lon="60.780344">
        <ele>243.7</ele>
        <time>2022-06-29T17:47:18.022Z</time>
    </trkpt>
    <trkpt lat="56.528213" lon="60.780324">
        <ele>243.2</ele>
        <time>2022-06-29T17:47:19.022Z</time>
    </trkpt>
    <trkpt lat="56.528219" lon="60.780296">
        <ele>243.4</ele>
        <time>2022-06-29T17:47:20.022Z</time>
    </trkpt>
    <trkpt lat="56.528218" lon="60.78028">
        <ele>243.4</ele>
        <time>2022-06-29T17:47:21.022Z</time>
    </trkpt>
    <trkpt lat="56.528221" lon="60.780269">
        <ele>243.7</ele>
        <time>2022-06-29T17:47:22.022Z</time>
    </trkpt>
    <trkpt lat="56.528224" lon="60.780236">
        <ele>243.7</ele>
        <time>2022-06-29T17:47:23.022Z</time>
    </trkpt>
    <trkpt lat="56.528221" lon="60.780204">
        <ele>244.0</ele>
        <time>2022-06-29T17:47:24.022Z</time>
    </trkpt>
    <trkpt lat="56.528224" lon="60.780172">
        <ele>244.2</ele>
        <time>2022-06-29T17:47:25.022Z</time>
    </trkpt>
    <trkpt lat="56.528229" lon="60.780146">
        <ele>243.7</ele>
        <time>2022-06-29T17:47:26.022Z</time>
    </trkpt>
    <trkpt lat="56.528237" lon="60.780127">
        <ele>244.0</ele>
        <time>2022-06-29T17:47:27.022Z</time>
    </trkpt>
    <trkpt lat="56.528234" lon="60.780099">
        <ele>244.2</ele>
        <time>2022-06-29T17:47:28.022Z</time>
    </trkpt>
    <trkpt lat="56.528234" lon="60.780069">
        <ele>244.2</ele>
        <time>2022-06-29T17:47:29.022Z</time>
    </trkpt>
    <trkpt lat="56.528236" lon="60.780047">
        <ele>244.4</ele>
        <time>2022-06-29T17:47:30.022Z</time>
    </trkpt>
    <trkpt lat="56.528237" lon="60.780009">
        <ele>244.7</ele>
        <time>2022-06-29T17:47:31.022Z</time>
    </trkpt>
    <trkpt lat="56.528229" lon="60.779992">
        <ele>244.7</ele>
        <time>2022-06-29T17:47:32.022Z</time>
    </trkpt>
    <trkpt lat="56.528232" lon="60.779955">
        <ele>245.0</ele>
        <time>2022-06-29T17:47:33.022Z</time>
    </trkpt>
    <trkpt lat="56.528231" lon="60.779935">
        <ele>245.0</ele>
        <time>2022-06-29T17:47:34.022Z</time>
    </trkpt>
    <trkpt lat="56.528234" lon="60.779895">
        <ele>245.3</ele>
        <time>2022-06-29T17:47:35.022Z</time>
    </trkpt>
    <trkpt lat="56.528241" lon="60.779874">
        <ele>245.6</ele>
        <time>2022-06-29T17:47:36.022Z</time>
    </trkpt>
    <trkpt lat="56.52824" lon="60.779841">
        <ele>245.9</ele>
        <time>2022-06-29T17:47:37.022Z</time>
    </trkpt>
    <trkpt lat="56.528236" lon="60.77981">
        <ele>245.9</ele>
        <time>2022-06-29T17:47:38.022Z</time>
    </trkpt>
    <trkpt lat="56.528234" lon="60.77979">
        <ele>246.2</ele>
        <time>2022-06-29T17:47:39.022Z</time>
    </trkpt>
    <trkpt lat="56.528238" lon="60.779765">
        <ele>246.2</ele>
        <time>2022-06-29T17:47:40.022Z</time>
    </trkpt>
    <trkpt lat="56.528247" lon="60.779722">
        <ele>246.4</ele>
        <time>2022-06-29T17:47:41.022Z</time>
    </trkpt>
    <trkpt lat="56.528247" lon="60.7797">
        <ele>246.5</ele>
        <time>2022-06-29T17:47:42.022Z</time>
    </trkpt>
    <trkpt lat="56.528245" lon="60.779638">
        <ele>246.6</ele>
        <time>2022-06-29T17:47:43.022Z</time>
    </trkpt>
    <trkpt lat="56.528247" lon="60.779602">
        <ele>246.6</ele>
        <time>2022-06-29T17:47:44.022Z</time>
    </trkpt>
    <trkpt lat="56.528248" lon="60.779577">
        <ele>246.6</ele>
        <time>2022-06-29T17:47:45.022Z</time>
    </trkpt>
    <trkpt lat="56.528254" lon="60.779548">
        <ele>246.4</ele>
        <time>2022-06-29T17:47:47.022Z</time>
    </trkpt>
    <trkpt lat="56.528253" lon="60.779537">
        <ele>246.5</ele>
        <time>2022-06-29T17:47:48.022Z</time>
    </trkpt>
    <trkpt lat="56.528255" lon="60.779521">
        <ele>246.5</ele>
        <time>2022-06-29T17:47:49.022Z</time>
    </trkpt>
    <trkpt lat="56.52826" lon="60.779516">
        <ele>246.5</ele>
        <time>2022-06-29T17:47:50.022Z</time>
    </trkpt>
    <trkpt lat="56.528266" lon="60.779505">
        <ele>246.5</ele>
        <time>2022-06-29T17:47:51.022Z</time>
    </trkpt>
    <trkpt lat="56.528273" lon="60.779489">
        <ele>246.8</ele>
        <time>2022-06-29T17:47:52.022Z</time>
    </trkpt>
    <trkpt lat="56.528282" lon="60.779477">
        <ele>246.6</ele>
        <time>2022-06-29T17:47:53.022Z</time>
    </trkpt>
    <trkpt lat="56.528288" lon="60.779467">
        <ele>246.6</ele>
        <time>2022-06-29T17:47:54.022Z</time>
    </trkpt>
    <trkpt lat="56.528294" lon="60.779458">
        <ele>246.6</ele>
        <time>2022-06-29T17:47:55.022Z</time>
    </trkpt>
    <trkpt lat="56.528299" lon="60.779449">
        <ele>246.8</ele>
        <time>2022-06-29T17:47:56.022Z</time>
    </trkpt>
    <trkpt lat="56.52831" lon="60.77943">
        <ele>246.5</ele>
        <time>2022-06-29T17:47:57.022Z</time>
    </trkpt>
    <trkpt lat="56.528305" lon="60.779413">
        <ele>246.7</ele>
        <time>2022-06-29T17:47:58.022Z</time>
    </trkpt>
    <trkpt lat="56.528301" lon="60.779397">
        <ele>246.7</ele>
        <time>2022-06-29T17:47:59.022Z</time>
    </trkpt>
    <trkpt lat="56.528304" lon="60.779365">
        <ele>247.0</ele>
        <time>2022-06-29T17:48:00.022Z</time>
    </trkpt>
    <trkpt lat="56.52831" lon="60.779349">
        <ele>247.0</ele>
        <time>2022-06-29T17:48:01.022Z</time>
    </trkpt>
    <trkpt lat="56.528322" lon="60.779293">
        <ele>247.2</ele>
        <time>2022-06-29T17:48:02.022Z</time>
    </trkpt>
    <trkpt lat="56.528321" lon="60.779277">
        <ele>247.5</ele>
        <time>2022-06-29T17:48:03.022Z</time>
    </trkpt>
    <trkpt lat="56.528325" lon="60.779219">
        <ele>247.2</ele>
        <time>2022-06-29T17:48:04.022Z</time>
    </trkpt>
    <trkpt lat="56.528327" lon="60.779202">
        <ele>247.2</ele>
        <time>2022-06-29T17:48:05.022Z</time>
    </trkpt>
    <trkpt lat="56.528338" lon="60.779151">
        <ele>247.8</ele>
        <time>2022-06-29T17:48:06.022Z</time>
    </trkpt>
    <trkpt lat="56.528339" lon="60.779134">
        <ele>247.8</ele>
        <time>2022-06-29T17:48:07.022Z</time>
    </trkpt>
    <trkpt lat="56.528337" lon="60.779072">
        <ele>248.1</ele>
        <time>2022-06-29T17:48:08.022Z</time>
    </trkpt>
    <trkpt lat="56.528347" lon="60.779015">
        <ele>248.7</ele>
        <time>2022-06-29T17:48:09.022Z</time>
    </trkpt>
    <trkpt lat="56.528349" lon="60.778991">
        <ele>248.5</ele>
        <time>2022-06-29T17:48:10.022Z</time>
    </trkpt>
    <trkpt lat="56.528351" lon="60.778967">
        <ele>248.9</ele>
        <time>2022-06-29T17:48:11.022Z</time>
    </trkpt>
    <trkpt lat="56.528454" lon="60.778797">
        <ele>248.4</ele>
        <time>2022-06-29T17:49:05.022Z</time>
    </trkpt>
    <trkpt lat="56.528484" lon="60.778816">
        <ele>247.4</ele>
        <time>2022-06-29T17:49:06.022Z</time>
    </trkpt>
    <trkpt lat="56.528492" lon="60.778824">
        <ele>247.1</ele>
        <time>2022-06-29T17:49:07.022Z</time>
    </trkpt>
    <trkpt lat="56.528507" lon="60.778829">
        <ele>247.1</ele>
        <time>2022-06-29T17:49:08.022Z</time>
    </trkpt>
    <trkpt lat="56.528518" lon="60.778828">
        <ele>246.8</ele>
        <time>2022-06-29T17:49:09.022Z</time>
    </trkpt>
    <trkpt lat="56.528527" lon="60.778835">
        <ele>246.8</ele>
        <time>2022-06-29T17:49:10.022Z</time>
    </trkpt>
    <trkpt lat="56.528535" lon="60.778841">
        <ele>246.8</ele>
        <time>2022-06-29T17:49:11.022Z</time>
    </trkpt>
    <trkpt lat="56.528555" lon="60.778846">
        <ele>246.6</ele>
        <time>2022-06-29T17:49:12.022Z</time>
    </trkpt>
    <trkpt lat="56.528565" lon="60.778842">
        <ele>246.3</ele>
        <time>2022-06-29T17:49:13.022Z</time>
    </trkpt>
    <trkpt lat="56.528575" lon="60.778837">
        <ele>246.3</ele>
        <time>2022-06-29T17:49:14.022Z</time>
    </trkpt>
    <trkpt lat="56.528589" lon="60.77881">
        <ele>246.3</ele>
        <time>2022-06-29T17:49:15.022Z</time>
    </trkpt>
    <trkpt lat="56.528591" lon="60.778793">
        <ele>246.3</ele>
        <time>2022-06-29T17:49:16.022Z</time>
    </trkpt>
    <trkpt lat="56.528593" lon="60.778776">
        <ele>246.3</ele>
        <time>2022-06-29T17:49:17.022Z</time>
    </trkpt>
    <trkpt lat="56.528598" lon="60.778737">
        <ele>246.5</ele>
        <time>2022-06-29T17:49:18.022Z</time>
    </trkpt>
    <trkpt lat="56.528617" lon="60.7787">
        <ele>246.2</ele>
        <time>2022-06-29T17:49:19.022Z</time>
    </trkpt>
    <trkpt lat="56.52863" lon="60.77868">
        <ele>246.4</ele>
        <time>2022-06-29T17:49:20.022Z</time>
    </trkpt>
    <trkpt lat="56.528633" lon="60.77865">
        <ele>245.9</ele>
        <time>2022-06-29T17:49:21.022Z</time>
    </trkpt>
    <trkpt lat="56.528653" lon="60.778614">
        <ele>246.2</ele>
        <time>2022-06-29T17:49:22.022Z</time>
    </trkpt>
    <trkpt lat="56.528661" lon="60.778594">
        <ele>246.0</ele>
        <time>2022-06-29T17:49:23.022Z</time>
    </trkpt>
    <trkpt lat="56.52868" lon="60.778553">
        <ele>245.7</ele>
        <time>2022-06-29T17:49:24.022Z</time>
    </trkpt>
    <trkpt lat="56.528706" lon="60.778523">
        <ele>245.0</ele>
        <time>2022-06-29T17:49:25.022Z</time>
    </trkpt>
    <trkpt lat="56.528715" lon="60.778513">
        <ele>245.0</ele>
        <time>2022-06-29T17:49:26.022Z</time>
    </trkpt>
    <trkpt lat="56.528738" lon="60.778477">
        <ele>244.4</ele>
        <time>2022-06-29T17:49:27.022Z</time>
    </trkpt>
    <trkpt lat="56.528742" lon="60.778456">
        <ele>244.6</ele>
        <time>2022-06-29T17:49:28.022Z</time>
    </trkpt>
    <trkpt lat="56.528746" lon="60.778435">
        <ele>244.6</ele>
        <time>2022-06-29T17:49:29.022Z</time>
    </trkpt>
    <trkpt lat="56.528752" lon="60.778396">
        <ele>244.0</ele>
        <time>2022-06-29T17:49:30.022Z</time>
    </trkpt>
    <trkpt lat="56.52877" lon="60.77836">
        <ele>244.3</ele>
        <time>2022-06-29T17:49:31.022Z</time>
    </trkpt>
    <trkpt lat="56.528779" lon="60.778349">
        <ele>243.6</ele>
        <time>2022-06-29T17:49:32.022Z</time>
    </trkpt>
    <trkpt lat="56.528792" lon="60.778293">
        <ele>244.2</ele>
        <time>2022-06-29T17:49:33.022Z</time>
    </trkpt>
    <trkpt lat="56.528795" lon="60.778276">
        <ele>244.2</ele>
        <time>2022-06-29T17:49:34.022Z</time>
    </trkpt>
    <trkpt lat="56.528796" lon="60.77824">
        <ele>244.4</ele>
        <time>2022-06-29T17:49:35.022Z</time>
    </trkpt>
    <trkpt lat="56.528803" lon="60.778207">
        <ele>244.1</ele>
        <time>2022-06-29T17:49:36.022Z</time>
    </trkpt>
    <trkpt lat="56.528811" lon="60.778189">
        <ele>244.1</ele>
        <time>2022-06-29T17:49:37.022Z</time>
    </trkpt>
    <trkpt lat="56.528821" lon="60.77816">
        <ele>243.9</ele>
        <time>2022-06-29T17:49:38.022Z</time>
    </trkpt>
    <trkpt lat="56.528827" lon="60.778131">
        <ele>243.9</ele>
        <time>2022-06-29T17:49:39.022Z</time>
    </trkpt>
    <trkpt lat="56.528835" lon="60.778095">
        <ele>244.1</ele>
        <time>2022-06-29T17:49:40.022Z</time>
    </trkpt>
    <trkpt lat="56.528843" lon="60.778081">
        <ele>244.4</ele>
        <time>2022-06-29T17:49:41.022Z</time>
    </trkpt>
    <trkpt lat="56.52885" lon="60.778058">
        <ele>244.0</ele>
        <time>2022-06-29T17:49:42.022Z</time>
    </trkpt>
    <trkpt lat="56.528868" lon="60.778018">
        <ele>243.7</ele>
        <time>2022-06-29T17:49:43.022Z</time>
    </trkpt>
    <trkpt lat="56.528872" lon="60.777998">
        <ele>243.7</ele>
        <time>2022-06-29T17:49:44.022Z</time>
    </trkpt>
    <trkpt lat="56.528883" lon="60.777951">
        <ele>244.1</ele>
        <time>2022-06-29T17:49:45.022Z</time>
    </trkpt>
    <trkpt lat="56.528885" lon="60.777943">
        <ele>244.1</ele>
        <time>2022-06-29T17:49:46.022Z</time>
    </trkpt>
    <trkpt lat="56.528884" lon="60.777915">
        <ele>244.1</ele>
        <time>2022-06-29T17:49:47.022Z</time>
    </trkpt>
    <trkpt lat="56.528892" lon="60.777902">
        <ele>243.9</ele>
        <time>2022-06-29T17:49:48.022Z</time>
    </trkpt>
    <trkpt lat="56.528894" lon="60.777883">
        <ele>243.9</ele>
        <time>2022-06-29T17:49:49.022Z</time>
    </trkpt>
    <trkpt lat="56.528895" lon="60.777864">
        <ele>244.1</ele>
        <time>2022-06-29T17:49:50.022Z</time>
    </trkpt>
    <trkpt lat="56.528902" lon="60.777824">
        <ele>244.5</ele>
        <time>2022-06-29T17:49:51.022Z</time>
    </trkpt>
    <trkpt lat="56.528899" lon="60.77779">
        <ele>244.5</ele>
        <time>2022-06-29T17:49:52.022Z</time>
    </trkpt>
    <trkpt lat="56.528901" lon="60.777764">
        <ele>245.0</ele>
        <time>2022-06-29T17:49:53.022Z</time>
    </trkpt>
    <trkpt lat="56.528906" lon="60.777742">
        <ele>245.0</ele>
        <time>2022-06-29T17:49:54.022Z</time>
    </trkpt>
    <trkpt lat="56.528921" lon="60.777701">
        <ele>245.1</ele>
        <time>2022-06-29T17:49:55.022Z</time>
    </trkpt>
    <trkpt lat="56.528926" lon="60.777685">
        <ele>245.6</ele>
        <time>2022-06-29T17:49:56.022Z</time>
    </trkpt>
    <trkpt lat="56.52893" lon="60.777669">
        <ele>245.6</ele>
        <time>2022-06-29T17:49:57.022Z</time>
    </trkpt>
    <trkpt lat="56.528938" lon="60.77761">
        <ele>246.4</ele>
        <time>2022-06-29T17:49:58.022Z</time>
    </trkpt>
    <trkpt lat="56.528939" lon="60.777598">
        <ele>245.9</ele>
        <time>2022-06-29T17:49:59.022Z</time>
    </trkpt>
    <trkpt lat="56.528941" lon="60.777564">
        <ele>246.1</ele>
        <time>2022-06-29T17:50:00.022Z</time>
    </trkpt>
    <trkpt lat="56.52894" lon="60.777551">
        <ele>246.1</ele>
        <time>2022-06-29T17:50:01.022Z</time>
    </trkpt>
    <trkpt lat="56.528945" lon="60.777532">
        <ele>246.1</ele>
        <time>2022-06-29T17:50:02.022Z</time>
    </trkpt>
    <trkpt lat="56.528952" lon="60.777487">
        <ele>246.3</ele>
        <time>2022-06-29T17:50:03.022Z</time>
    </trkpt>
    <trkpt lat="56.528956" lon="60.777472">
        <ele>246.5</ele>
        <time>2022-06-29T17:50:04.022Z</time>
    </trkpt>
    <trkpt lat="56.528973" lon="60.777427">
        <ele>246.1</ele>
        <time>2022-06-29T17:50:05.022Z</time>
    </trkpt>
    <trkpt lat="56.528979" lon="60.777414">
        <ele>246.1</ele>
        <time>2022-06-29T17:50:06.022Z</time>
    </trkpt>
    <trkpt lat="56.529009" lon="60.777392">
        <ele>245.9</ele>
        <time>2022-06-29T17:50:07.022Z</time>
    </trkpt>
    <trkpt lat="56.529039" lon="60.777385">
        <ele>244.9</ele>
        <time>2022-06-29T17:50:08.022Z</time>
    </trkpt>
    <trkpt lat="56.529049" lon="60.777373">
        <ele>244.9</ele>
        <time>2022-06-29T17:50:09.022Z</time>
    </trkpt>
    <trkpt lat="56.529059" lon="60.777352">
        <ele>244.7</ele>
        <time>2022-06-29T17:50:10.022Z</time>
    </trkpt>
    <trkpt lat="56.529062" lon="60.777337">
        <ele>244.7</ele>
        <time>2022-06-29T17:50:11.022Z</time>
    </trkpt>
    <trkpt lat="56.529079" lon="60.777294">
        <ele>245.0</ele>
        <time>2022-06-29T17:50:12.022Z</time>
    </trkpt>
    <trkpt lat="56.529087" lon="60.777266">
        <ele>244.7</ele>
        <time>2022-06-29T17:50:13.022Z</time>
    </trkpt>
    <trkpt lat="56.529083" lon="60.777233">
        <ele>244.7</ele>
        <time>2022-06-29T17:50:14.022Z</time>
    </trkpt>
    <trkpt lat="56.529091" lon="60.777185">
        <ele>244.9</ele>
        <time>2022-06-29T17:50:15.022Z</time>
    </trkpt>
    <trkpt lat="56.529092" lon="60.777167">
        <ele>245.2</ele>
        <time>2022-06-29T17:50:16.022Z</time>
    </trkpt>
    <trkpt lat="56.5291" lon="60.777109">
        <ele>245.5</ele>
        <time>2022-06-29T17:50:17.022Z</time>
    </trkpt>
    <trkpt lat="56.529103" lon="60.777086">
        <ele>245.9</ele>
        <time>2022-06-29T17:50:18.022Z</time>
    </trkpt>
    <trkpt lat="56.529114" lon="60.777023">
        <ele>245.8</ele>
        <time>2022-06-29T17:50:19.022Z</time>
    </trkpt>
    <trkpt lat="56.529118" lon="60.777">
        <ele>246.0</ele>
        <time>2022-06-29T17:50:20.022Z</time>
    </trkpt>
    <trkpt lat="56.52913" lon="60.776931">
        <ele>245.5</ele>
        <time>2022-06-29T17:50:21.022Z</time>
    </trkpt>
    <trkpt lat="56.529129" lon="60.776905">
        <ele>245.5</ele>
        <time>2022-06-29T17:50:22.022Z</time>
    </trkpt>
    <trkpt lat="56.529123" lon="60.776834">
        <ele>245.9</ele>
        <time>2022-06-29T17:50:23.022Z</time>
    </trkpt>
    <trkpt lat="56.529122" lon="60.776815">
        <ele>245.9</ele>
        <time>2022-06-29T17:50:24.022Z</time>
    </trkpt>
    <trkpt lat="56.52913" lon="60.776754">
        <ele>245.4</ele>
        <time>2022-06-29T17:50:25.022Z</time>
    </trkpt>
    <trkpt lat="56.529134" lon="60.776697">
        <ele>246.0</ele>
        <time>2022-06-29T17:50:26.022Z</time>
    </trkpt>
    <trkpt lat="56.529136" lon="60.776642">
        <ele>246.2</ele>
        <time>2022-06-29T17:50:27.022Z</time>
    </trkpt>
    <trkpt lat="56.529131" lon="60.776587">
        <ele>246.4</ele>
        <time>2022-06-29T17:50:28.022Z</time>
    </trkpt>
    <trkpt lat="56.529133" lon="60.776536">
        <ele>246.4</ele>
        <time>2022-06-29T17:50:29.022Z</time>
    </trkpt>
    <trkpt lat="56.529134" lon="60.776511">
        <ele>246.4</ele>
        <time>2022-06-29T17:50:30.022Z</time>
    </trkpt>
    <trkpt lat="56.529131" lon="60.776448">
        <ele>246.4</ele>
        <time>2022-06-29T17:50:31.022Z</time>
    </trkpt>
    <trkpt lat="56.529129" lon="60.776427">
        <ele>246.4</ele>
        <time>2022-06-29T17:50:32.022Z</time>
    </trkpt>
    <trkpt lat="56.529126" lon="60.776367">
        <ele>247.4</ele>
        <time>2022-06-29T17:50:33.022Z</time>
    </trkpt>
    <trkpt lat="56.529129" lon="60.776305">
        <ele>247.2</ele>
        <time>2022-06-29T17:50:34.022Z</time>
    </trkpt>
    <trkpt lat="56.529131" lon="60.776273">
        <ele>247.4</ele>
        <time>2022-06-29T17:50:35.022Z</time>
    </trkpt>
    <trkpt lat="56.529138" lon="60.776209">
        <ele>247.4</ele>
        <time>2022-06-29T17:50:36.022Z</time>
    </trkpt>
    <trkpt lat="56.529141" lon="60.776188">
        <ele>247.4</ele>
        <time>2022-06-29T17:50:37.022Z</time>
    </trkpt>
    <trkpt lat="56.529145" lon="60.776152">
        <ele>247.3</ele>
        <time>2022-06-29T17:50:38.022Z</time>
    </trkpt>
    <trkpt lat="56.52915" lon="60.776144">
        <ele>247.3</ele>
        <time>2022-06-29T17:50:39.022Z</time>
    </trkpt>
    <trkpt lat="56.529156" lon="60.776137">
        <ele>246.9</ele>
        <time>2022-06-29T17:50:40.022Z</time>
    </trkpt>
    <trkpt lat="56.529162" lon="60.776129">
        <ele>246.9</ele>
        <time>2022-06-29T17:50:41.022Z</time>
    </trkpt>
    <trkpt lat="56.529176" lon="60.77611">
        <ele>246.5</ele>
        <time>2022-06-29T17:50:42.022Z</time>
    </trkpt>
    <trkpt lat="56.529193" lon="60.77611">
        <ele>246.5</ele>
        <time>2022-06-29T17:50:43.022Z</time>
    </trkpt>
    <trkpt lat="56.5292" lon="60.776088">
        <ele>245.7</ele>
        <time>2022-06-29T17:50:44.022Z</time>
    </trkpt>
    <trkpt lat="56.529201" lon="60.776066">
        <ele>245.8</ele>
        <time>2022-06-29T17:50:45.022Z</time>
    </trkpt>
    <trkpt lat="56.529197" lon="60.776003">
        <ele>246.5</ele>
        <time>2022-06-29T17:50:46.022Z</time>
    </trkpt>
    <trkpt lat="56.529198" lon="60.775985">
        <ele>246.5</ele>
        <time>2022-06-29T17:50:47.022Z</time>
    </trkpt>
    <trkpt lat="56.529207" lon="60.775929">
        <ele>246.4</ele>
        <time>2022-06-29T17:50:48.022Z</time>
    </trkpt>
    <trkpt lat="56.529212" lon="60.775911">
        <ele>246.4</ele>
        <time>2022-06-29T17:50:49.022Z</time>
    </trkpt>
    <trkpt lat="56.529228" lon="60.775853">
        <ele>246.5</ele>
        <time>2022-06-29T17:50:50.022Z</time>
    </trkpt>
    <trkpt lat="56.529234" lon="60.775826">
        <ele>246.7</ele>
        <time>2022-06-29T17:50:51.022Z</time>
    </trkpt>
    <trkpt lat="56.529251" lon="60.775815">
        <ele>246.5</ele>
        <time>2022-06-29T17:50:52.022Z</time>
    </trkpt>
    <trkpt lat="56.52926" lon="60.7758">
        <ele>246.8</ele>
        <time>2022-06-29T17:50:53.022Z</time>
    </trkpt>
    <trkpt lat="56.529272" lon="60.775782">
        <ele>246.6</ele>
        <time>2022-06-29T17:50:54.022Z</time>
    </trkpt>
    <trkpt lat="56.529276" lon="60.775759">
        <ele>246.8</ele>
        <time>2022-06-29T17:50:55.022Z</time>
    </trkpt>
    <trkpt lat="56.52929" lon="60.775703">
        <ele>247.1</ele>
        <time>2022-06-29T17:50:56.022Z</time>
    </trkpt>
    <trkpt lat="56.529297" lon="60.775652">
        <ele>247.2</ele>
        <time>2022-06-29T17:50:57.022Z</time>
    </trkpt>
    <trkpt lat="56.529299" lon="60.775635">
        <ele>247.3</ele>
        <time>2022-06-29T17:50:58.022Z</time>
    </trkpt>
    <trkpt lat="56.529304" lon="60.775586">
        <ele>247.4</ele>
        <time>2022-06-29T17:50:59.022Z</time>
    </trkpt>
    <trkpt lat="56.529315" lon="60.775539">
        <ele>247.3</ele>
        <time>2022-06-29T17:51:00.022Z</time>
    </trkpt>
    <trkpt lat="56.529319" lon="60.775519">
        <ele>247.1</ele>
        <time>2022-06-29T17:51:01.022Z</time>
    </trkpt>
    <trkpt lat="56.529339" lon="60.775464">
        <ele>247.0</ele>
        <time>2022-06-29T17:51:02.022Z</time>
    </trkpt>
    <trkpt lat="56.529345" lon="60.775442">
        <ele>246.8</ele>
        <time>2022-06-29T17:51:03.022Z</time>
    </trkpt>
    <trkpt lat="56.529351" lon="60.775391">
        <ele>247.0</ele>
        <time>2022-06-29T17:51:04.022Z</time>
    </trkpt>
    <trkpt lat="56.529359" lon="60.775365">
        <ele>247.3</ele>
        <time>2022-06-29T17:51:05.022Z</time>
    </trkpt>
    <trkpt lat="56.529374" lon="60.775306">
        <ele>247.4</ele>
        <time>2022-06-29T17:51:06.022Z</time>
    </trkpt>
    <trkpt lat="56.529379" lon="60.775265">
        <ele>247.6</ele>
        <time>2022-06-29T17:51:07.022Z</time>
    </trkpt>
    <trkpt lat="56.529382" lon="60.775243">
        <ele>247.6</ele>
        <time>2022-06-29T17:51:08.022Z</time>
    </trkpt>
    <trkpt lat="56.529386" lon="60.775215">
        <ele>247.6</ele>
        <time>2022-06-29T17:51:09.022Z</time>
    </trkpt>
    <trkpt lat="56.52939" lon="60.775149">
        <ele>247.2</ele>
        <time>2022-06-29T17:51:10.022Z</time>
    </trkpt>
    <trkpt lat="56.529401" lon="60.775103">
        <ele>247.3</ele>
        <time>2022-06-29T17:51:11.022Z</time>
    </trkpt>
    <trkpt lat="56.529406" lon="60.775082">
        <ele>247.3</ele>
        <time>2022-06-29T17:51:12.022Z</time>
    </trkpt>
    <trkpt lat="56.52942" lon="60.775021">
        <ele>247.5</ele>
        <time>2022-06-29T17:51:13.022Z</time>
    </trkpt>
    <trkpt lat="56.529422" lon="60.775001">
        <ele>247.5</ele>
        <time>2022-06-29T17:51:14.022Z</time>
    </trkpt>
    <trkpt lat="56.529431" lon="60.774935">
        <ele>248.1</ele>
        <time>2022-06-29T17:51:15.022Z</time>
    </trkpt>
    <trkpt lat="56.529434" lon="60.774911">
        <ele>248.1</ele>
        <time>2022-06-29T17:51:16.022Z</time>
    </trkpt>
    <trkpt lat="56.529442" lon="60.774854">
        <ele>247.7</ele>
        <time>2022-06-29T17:51:17.022Z</time>
    </trkpt>
    <trkpt lat="56.529457" lon="60.774808">
        <ele>247.7</ele>
        <time>2022-06-29T17:51:18.022Z</time>
    </trkpt>
    <trkpt lat="56.529459" lon="60.774796">
        <ele>247.7</ele>
        <time>2022-06-29T17:51:19.022Z</time>
    </trkpt>
    <trkpt lat="56.529466" lon="60.774735">
        <ele>247.7</ele>
        <time>2022-06-29T17:51:20.022Z</time>
    </trkpt>
    <trkpt lat="56.529468" lon="60.774722">
        <ele>247.7</ele>
        <time>2022-06-29T17:51:21.022Z</time>
    </trkpt>
    <trkpt lat="56.529477" lon="60.774666">
        <ele>248.1</ele>
        <time>2022-06-29T17:51:22.022Z</time>
    </trkpt>
    <trkpt lat="56.529482" lon="60.774647">
        <ele>248.4</ele>
        <time>2022-06-29T17:51:23.022Z</time>
    </trkpt>
    <trkpt lat="56.529485" lon="60.774594">
        <ele>248.3</ele>
        <time>2022-06-29T17:51:24.022Z</time>
    </trkpt>
    <trkpt lat="56.529491" lon="60.77456">
        <ele>248.4</ele>
        <time>2022-06-29T17:51:25.022Z</time>
    </trkpt>
    <trkpt lat="56.529502" lon="60.774538">
        <ele>248.4</ele>
        <time>2022-06-29T17:51:26.022Z</time>
    </trkpt>
    <trkpt lat="56.529504" lon="60.774516">
        <ele>248.3</ele>
        <time>2022-06-29T17:51:27.022Z</time>
    </trkpt>
    <trkpt lat="56.52951" lon="60.774468">
        <ele>248.0</ele>
        <time>2022-06-29T17:51:28.022Z</time>
    </trkpt>
    <trkpt lat="56.529512" lon="60.77445">
        <ele>248.0</ele>
        <time>2022-06-29T17:51:29.022Z</time>
    </trkpt>
    <trkpt lat="56.529507" lon="60.774397">
        <ele>248.0</ele>
        <time>2022-06-29T17:51:30.022Z</time>
    </trkpt>
    <trkpt lat="56.529516" lon="60.774375">
        <ele>248.2</ele>
        <time>2022-06-29T17:51:31.022Z</time>
    </trkpt>
    <trkpt lat="56.529528" lon="60.774337">
        <ele>248.5</ele>
        <time>2022-06-29T17:51:32.022Z</time>
    </trkpt>
    <trkpt lat="56.529538" lon="60.7743">
        <ele>248.4</ele>
        <time>2022-06-29T17:51:33.022Z</time>
    </trkpt>
    <trkpt lat="56.529544" lon="60.77428">
        <ele>248.4</ele>
        <time>2022-06-29T17:51:34.022Z</time>
    </trkpt>
    <trkpt lat="56.529551" lon="60.774256">
        <ele>248.6</ele>
        <time>2022-06-29T17:51:35.022Z</time>
    </trkpt>
    <trkpt lat="56.529561" lon="60.774195">
        <ele>248.2</ele>
        <time>2022-06-29T17:51:36.022Z</time>
    </trkpt>
    <trkpt lat="56.529569" lon="60.774134">
        <ele>248.5</ele>
        <time>2022-06-29T17:51:37.022Z</time>
    </trkpt>
    <trkpt lat="56.529583" lon="60.774088">
        <ele>248.4</ele>
        <time>2022-06-29T17:51:38.022Z</time>
    </trkpt>
    <trkpt lat="56.529597" lon="60.774027">
        <ele>248.5</ele>
        <time>2022-06-29T17:51:39.022Z</time>
    </trkpt>
    <trkpt lat="56.529602" lon="60.774014">
        <ele>248.1</ele>
        <time>2022-06-29T17:51:40.022Z</time>
    </trkpt>
    <trkpt lat="56.529616" lon="60.773961">
        <ele>248.1</ele>
        <time>2022-06-29T17:51:41.022Z</time>
    </trkpt>
    <trkpt lat="56.529621" lon="60.77394">
        <ele>248.1</ele>
        <time>2022-06-29T17:51:42.022Z</time>
    </trkpt>
    <trkpt lat="56.529635" lon="60.773891">
        <ele>247.7</ele>
        <time>2022-06-29T17:51:43.022Z</time>
    </trkpt>
    <trkpt lat="56.529637" lon="60.773864">
        <ele>247.8</ele>
        <time>2022-06-29T17:51:44.022Z</time>
    </trkpt>
    <trkpt lat="56.529641" lon="60.773819">
        <ele>248.1</ele>
        <time>2022-06-29T17:51:45.022Z</time>
    </trkpt>
    <trkpt lat="56.529643" lon="60.773793">
        <ele>248.1</ele>
        <time>2022-06-29T17:51:46.022Z</time>
    </trkpt>
    <trkpt lat="56.529648" lon="60.773751">
        <ele>248.3</ele>
        <time>2022-06-29T17:51:47.022Z</time>
    </trkpt>
    <trkpt lat="56.529661" lon="60.773688">
        <ele>248.2</ele>
        <time>2022-06-29T17:51:48.022Z</time>
    </trkpt>
    <trkpt lat="56.529662" lon="60.77367">
        <ele>248.2</ele>
        <time>2022-06-29T17:51:49.022Z</time>
    </trkpt>
    <trkpt lat="56.52967" lon="60.773616">
        <ele>248.5</ele>
        <time>2022-06-29T17:51:50.022Z</time>
    </trkpt>
    <trkpt lat="56.52967" lon="60.7736">
        <ele>248.5</ele>
        <time>2022-06-29T17:51:51.022Z</time>
    </trkpt>
    <trkpt lat="56.52967" lon="60.773584">
        <ele>248.5</ele>
        <time>2022-06-29T17:51:52.022Z</time>
    </trkpt>
    <trkpt lat="56.529672" lon="60.773541">
        <ele>248.6</ele>
        <time>2022-06-29T17:51:53.022Z</time>
    </trkpt>
    <trkpt lat="56.529681" lon="60.773493">
        <ele>248.5</ele>
        <time>2022-06-29T17:51:54.022Z</time>
    </trkpt>
    <trkpt lat="56.529691" lon="60.773446">
        <ele>248.5</ele>
        <time>2022-06-29T17:51:55.022Z</time>
    </trkpt>
    <trkpt lat="56.529696" lon="60.773429">
        <ele>248.5</ele>
        <time>2022-06-29T17:51:56.022Z</time>
    </trkpt>
    <trkpt lat="56.529705" lon="60.773378">
        <ele>248.1</ele>
        <time>2022-06-29T17:51:57.022Z</time>
    </trkpt>
    <trkpt lat="56.529706" lon="60.773358">
        <ele>248.0</ele>
        <time>2022-06-29T17:51:58.022Z</time>
    </trkpt>
    <trkpt lat="56.529714" lon="60.773305">
        <ele>248.0</ele>
        <time>2022-06-29T17:51:59.022Z</time>
    </trkpt>
    <trkpt lat="56.529721" lon="60.773285">
        <ele>247.6</ele>
        <time>2022-06-29T17:52:00.022Z</time>
    </trkpt>
    <trkpt lat="56.529736" lon="60.773234">
        <ele>247.8</ele>
        <time>2022-06-29T17:52:01.022Z</time>
    </trkpt>
    <trkpt lat="56.529744" lon="60.773217">
        <ele>247.6</ele>
        <time>2022-06-29T17:52:02.022Z</time>
    </trkpt>
    <trkpt lat="56.529763" lon="60.77316">
        <ele>247.7</ele>
        <time>2022-06-29T17:52:03.022Z</time>
    </trkpt>
    <trkpt lat="56.529769" lon="60.773138">
        <ele>247.5</ele>
        <time>2022-06-29T17:52:04.022Z</time>
    </trkpt>
    <trkpt lat="56.52978" lon="60.773112">
        <ele>247.5</ele>
        <time>2022-06-29T17:52:05.022Z</time>
    </trkpt>
    <trkpt lat="56.529791" lon="60.773099">
        <ele>247.1</ele>
        <time>2022-06-29T17:52:06.022Z</time>
    </trkpt>
    <trkpt lat="56.529814" lon="60.773061">
        <ele>247.1</ele>
        <time>2022-06-29T17:52:07.022Z</time>
    </trkpt>
    <trkpt lat="56.529816" lon="60.773023">
        <ele>246.7</ele>
        <time>2022-06-29T17:52:08.022Z</time>
    </trkpt>
    <trkpt lat="56.529821" lon="60.772998">
        <ele>246.9</ele>
        <time>2022-06-29T17:52:09.022Z</time>
    </trkpt>
    <trkpt lat="56.529817" lon="60.772972">
        <ele>247.1</ele>
        <time>2022-06-29T17:52:10.022Z</time>
    </trkpt>
    <trkpt lat="56.529808" lon="60.772929">
        <ele>247.8</ele>
        <time>2022-06-29T17:52:11.022Z</time>
    </trkpt>
    <trkpt lat="56.529811" lon="60.772905">
        <ele>247.8</ele>
        <time>2022-06-29T17:52:12.022Z</time>
    </trkpt>
    <trkpt lat="56.529812" lon="60.772859">
        <ele>248.0</ele>
        <time>2022-06-29T17:52:13.022Z</time>
    </trkpt>
    <trkpt lat="56.529815" lon="60.772835">
        <ele>247.8</ele>
        <time>2022-06-29T17:52:14.022Z</time>
    </trkpt>
    <trkpt lat="56.529813" lon="60.772789">
        <ele>248.2</ele>
        <time>2022-06-29T17:52:15.022Z</time>
    </trkpt>
    <trkpt lat="56.529814" lon="60.77274">
        <ele>248.1</ele>
        <time>2022-06-29T17:52:16.022Z</time>
    </trkpt>
    <trkpt lat="56.529807" lon="60.772726">
        <ele>248.1</ele>
        <time>2022-06-29T17:52:17.022Z</time>
    </trkpt>
    <trkpt lat="56.529807" lon="60.772703">
        <ele>248.1</ele>
        <time>2022-06-29T17:52:18.022Z</time>
    </trkpt>
    <trkpt lat="56.529806" lon="60.772654">
        <ele>248.0</ele>
        <time>2022-06-29T17:52:19.022Z</time>
    </trkpt>
    <trkpt lat="56.529804" lon="60.772632">
        <ele>248.0</ele>
        <time>2022-06-29T17:52:20.022Z</time>
    </trkpt>
    <trkpt lat="56.529807" lon="60.772582">
        <ele>248.1</ele>
        <time>2022-06-29T17:52:21.022Z</time>
    </trkpt>
    <trkpt lat="56.529806" lon="60.772562">
        <ele>248.1</ele>
        <time>2022-06-29T17:52:22.022Z</time>
    </trkpt>
    <trkpt lat="56.529807" lon="60.772513">
        <ele>248.1</ele>
        <time>2022-06-29T17:52:23.022Z</time>
    </trkpt>
    <trkpt lat="56.529807" lon="60.772466">
        <ele>248.1</ele>
        <time>2022-06-29T17:52:24.022Z</time>
    </trkpt>
    <trkpt lat="56.529807" lon="60.77245">
        <ele>248.1</ele>
        <time>2022-06-29T17:52:25.022Z</time>
    </trkpt>
    <trkpt lat="56.529806" lon="60.772421">
        <ele>248.1</ele>
        <time>2022-06-29T17:52:26.022Z</time>
    </trkpt>
    <trkpt lat="56.529803" lon="60.77237">
        <ele>248.1</ele>
        <time>2022-06-29T17:52:27.022Z</time>
    </trkpt>
    <trkpt lat="56.529802" lon="60.772342">
        <ele>248.1</ele>
        <time>2022-06-29T17:52:28.022Z</time>
    </trkpt>
    <trkpt lat="56.5298" lon="60.772289">
        <ele>248.1</ele>
        <time>2022-06-29T17:52:29.022Z</time>
    </trkpt>
    <trkpt lat="56.529803" lon="60.772261">
        <ele>248.1</ele>
        <time>2022-06-29T17:52:30.022Z</time>
    </trkpt>
    <trkpt lat="56.529805" lon="60.772215">
        <ele>248.1</ele>
        <time>2022-06-29T17:52:31.022Z</time>
    </trkpt>
    <trkpt lat="56.529803" lon="60.772193">
        <ele>248.1</ele>
        <time>2022-06-29T17:52:32.022Z</time>
    </trkpt>
    <trkpt lat="56.5298" lon="60.772144">
        <ele>248.1</ele>
        <time>2022-06-29T17:52:33.022Z</time>
    </trkpt>
    <trkpt lat="56.529799" lon="60.772112">
        <ele>248.1</ele>
        <time>2022-06-29T17:52:34.022Z</time>
    </trkpt>
    <trkpt lat="56.529798" lon="60.772033">
        <ele>248.1</ele>
        <time>2022-06-29T17:52:35.022Z</time>
    </trkpt>
    <trkpt lat="56.529798" lon="60.772003">
        <ele>248.1</ele>
        <time>2022-06-29T17:52:36.022Z</time>
    </trkpt>
    <trkpt lat="56.529802" lon="60.771975">
        <ele>248.1</ele>
        <time>2022-06-29T17:52:37.022Z</time>
    </trkpt>
    <trkpt lat="56.529794" lon="60.771937">
        <ele>248.1</ele>
        <time>2022-06-29T17:52:38.022Z</time>
    </trkpt>
    <trkpt lat="56.529784" lon="60.771923">
        <ele>248.4</ele>
        <time>2022-06-29T17:52:39.022Z</time>
    </trkpt>
    <trkpt lat="56.529785" lon="60.771896">
        <ele>248.4</ele>
        <time>2022-06-29T17:52:40.022Z</time>
    </trkpt>
    <trkpt lat="56.52979" lon="60.771838">
        <ele>248.4</ele>
        <time>2022-06-29T17:52:41.022Z</time>
    </trkpt>
    <trkpt lat="56.529789" lon="60.771796">
        <ele>248.4</ele>
        <time>2022-06-29T17:52:42.022Z</time>
    </trkpt>
    <trkpt lat="56.529787" lon="60.771774">
        <ele>248.4</ele>
        <time>2022-06-29T17:52:43.022Z</time>
    </trkpt>
    <trkpt lat="56.529782" lon="60.77175">
        <ele>248.4</ele>
        <time>2022-06-29T17:52:44.022Z</time>
    </trkpt>
    <trkpt lat="56.529775" lon="60.771704">
        <ele>248.4</ele>
        <time>2022-06-29T17:52:45.022Z</time>
    </trkpt>
    <trkpt lat="56.529778" lon="60.771676">
        <ele>248.4</ele>
        <time>2022-06-29T17:52:46.022Z</time>
    </trkpt>
    <trkpt lat="56.529771" lon="60.771627">
        <ele>248.4</ele>
        <time>2022-06-29T17:52:47.022Z</time>
    </trkpt>
    <trkpt lat="56.529769" lon="60.771608">
        <ele>248.4</ele>
        <time>2022-06-29T17:52:48.022Z</time>
    </trkpt>
    <trkpt lat="56.529757" lon="60.771565">
        <ele>248.6</ele>
        <time>2022-06-29T17:52:49.022Z</time>
    </trkpt>
    <trkpt lat="56.529751" lon="60.771536">
        <ele>248.5</ele>
        <time>2022-06-29T17:52:50.022Z</time>
    </trkpt>
    <trkpt lat="56.529741" lon="60.771512">
        <ele>248.8</ele>
        <time>2022-06-29T17:52:51.022Z</time>
    </trkpt>
    <trkpt lat="56.529736" lon="60.771496">
        <ele>248.8</ele>
        <time>2022-06-29T17:52:52.022Z</time>
    </trkpt>
    <trkpt lat="56.529718" lon="60.77145">
        <ele>249.0</ele>
        <time>2022-06-29T17:52:53.022Z</time>
    </trkpt>
    <trkpt lat="56.52972" lon="60.771411">
        <ele>248.8</ele>
        <time>2022-06-29T17:52:54.022Z</time>
    </trkpt>
    <trkpt lat="56.529705" lon="60.771403">
        <ele>249.0</ele>
        <time>2022-06-29T17:52:55.022Z</time>
    </trkpt>
    <trkpt lat="56.529691" lon="60.771348">
        <ele>249.2</ele>
        <time>2022-06-29T17:52:56.022Z</time>
    </trkpt>
    <trkpt lat="56.529688" lon="60.771332">
        <ele>249.2</ele>
        <time>2022-06-29T17:52:57.022Z</time>
    </trkpt>
    <trkpt lat="56.529684" lon="60.771315">
        <ele>249.2</ele>
        <time>2022-06-29T17:52:58.022Z</time>
    </trkpt>
    <trkpt lat="56.529679" lon="60.771286">
        <ele>249.4</ele>
        <time>2022-06-29T17:52:59.022Z</time>
    </trkpt>
    <trkpt lat="56.529673" lon="60.771271">
        <ele>249.4</ele>
        <time>2022-06-29T17:53:00.022Z</time>
    </trkpt>
    <trkpt lat="56.529651" lon="60.771236">
        <ele>249.8</ele>
        <time>2022-06-29T17:53:01.022Z</time>
    </trkpt>
    <trkpt lat="56.52965" lon="60.771199">
        <ele>250.0</ele>
        <time>2022-06-29T17:53:02.022Z</time>
    </trkpt>
    <trkpt lat="56.52966" lon="60.771187">
        <ele>250.0</ele>
        <time>2022-06-29T17:53:03.022Z</time>
    </trkpt>
    <trkpt lat="56.529656" lon="60.771157">
        <ele>250.1</ele>
        <time>2022-06-29T17:53:04.022Z</time>
    </trkpt>
    <trkpt lat="56.529631" lon="60.771102">
        <ele>250.1</ele>
        <time>2022-06-29T17:53:05.022Z</time>
    </trkpt>
    <trkpt lat="56.529624" lon="60.771067">
        <ele>249.9</ele>
        <time>2022-06-29T17:53:06.022Z</time>
    </trkpt>
    <trkpt lat="56.529619" lon="60.771054">
        <ele>249.9</ele>
        <time>2022-06-29T17:53:07.022Z</time>
    </trkpt>
    <trkpt lat="56.529616" lon="60.77103">
        <ele>249.9</ele>
        <time>2022-06-29T17:53:08.022Z</time>
    </trkpt>
    <trkpt lat="56.529603" lon="60.770978">
        <ele>250.0</ele>
        <time>2022-06-29T17:53:09.022Z</time>
    </trkpt>
    <trkpt lat="56.529611" lon="60.770944">
        <ele>250.0</ele>
        <time>2022-06-29T17:53:10.022Z</time>
    </trkpt>
    <trkpt lat="56.529614" lon="60.770928">
        <ele>250.0</ele>
        <time>2022-06-29T17:53:11.022Z</time>
    </trkpt>
    <trkpt lat="56.529626" lon="60.770871">
        <ele>250.0</ele>
        <time>2022-06-29T17:53:12.022Z</time>
    </trkpt>
    <trkpt lat="56.529631" lon="60.770845">
        <ele>250.0</ele>
        <time>2022-06-29T17:53:13.022Z</time>
    </trkpt>
    <trkpt lat="56.529638" lon="60.770795">
        <ele>250.0</ele>
        <time>2022-06-29T17:53:14.022Z</time>
    </trkpt>
    <trkpt lat="56.529649" lon="60.770753">
        <ele>250.0</ele>
        <time>2022-06-29T17:53:15.022Z</time>
    </trkpt>
    <trkpt lat="56.529653" lon="60.770746">
        <ele>250.0</ele>
        <time>2022-06-29T17:53:16.022Z</time>
    </trkpt>
    <trkpt lat="56.52966" lon="60.770731">
        <ele>250.2</ele>
        <time>2022-06-29T17:53:17.022Z</time>
    </trkpt>
    <trkpt lat="56.529676" lon="60.770682">
        <ele>250.5</ele>
        <time>2022-06-29T17:53:18.022Z</time>
    </trkpt>
    <trkpt lat="56.529691" lon="60.770647">
        <ele>250.7</ele>
        <time>2022-06-29T17:53:19.022Z</time>
    </trkpt>
    <trkpt lat="56.529694" lon="60.770637">
        <ele>250.7</ele>
        <time>2022-06-29T17:53:20.022Z</time>
    </trkpt>
    <trkpt lat="56.529694" lon="60.770635">
        <ele>250.7</ele>
        <time>2022-06-29T17:53:21.022Z</time>
    </trkpt>
    <trkpt lat="56.52969" lon="60.770626">
        <ele>250.7</ele>
        <time>2022-06-29T17:53:22.022Z</time>
    </trkpt>
    <trkpt lat="56.529691" lon="60.770612">
        <ele>250.8</ele>
        <time>2022-06-29T17:53:23.022Z</time>
    </trkpt>
    <trkpt lat="56.52969" lon="60.7706">
        <ele>250.8</ele>
        <time>2022-06-29T17:53:24.022Z</time>
    </trkpt>
    <trkpt lat="56.529689" lon="60.770595">
        <ele>250.8</ele>
        <time>2022-06-29T17:53:25.022Z</time>
    </trkpt>
    <trkpt lat="56.529692" lon="60.770586">
        <ele>250.8</ele>
        <time>2022-06-29T17:53:26.022Z</time>
    </trkpt>
    <trkpt lat="56.529693" lon="60.770577">
        <ele>250.8</ele>
        <time>2022-06-29T17:53:27.022Z</time>
    </trkpt>
    <trkpt lat="56.529692" lon="60.770574">
        <ele>250.8</ele>
        <time>2022-06-29T17:53:28.022Z</time>
    </trkpt>
    <trkpt lat="56.529694" lon="60.770565">
        <ele>250.9</ele>
        <time>2022-06-29T17:53:29.022Z</time>
    </trkpt>
    <trkpt lat="56.529766" lon="60.7704">
        <ele>251.8</ele>
        <time>2022-06-29T17:59:54.022Z</time>
    </trkpt>
    <trkpt lat="56.529773" lon="60.770387">
        <ele>252.1</ele>
        <time>2022-06-29T17:59:55.022Z</time>
    </trkpt>
    <trkpt lat="56.529781" lon="60.770378">
        <ele>252.1</ele>
        <time>2022-06-29T17:59:56.022Z</time>
    </trkpt>
    <trkpt lat="56.529783" lon="60.770384">
        <ele>252.1</ele>
        <time>2022-06-29T17:59:57.022Z</time>
    </trkpt>
    <trkpt lat="56.529786" lon="60.770398">
        <ele>252.1</ele>
        <time>2022-06-29T17:59:58.022Z</time>
    </trkpt>
    <trkpt lat="56.529792" lon="60.770422">
        <ele>252.1</ele>
        <time>2022-06-29T17:59:59.022Z</time>
    </trkpt>
    <trkpt lat="56.529781" lon="60.770433">
        <ele>251.8</ele>
        <time>2022-06-29T18:00:00.022Z</time>
    </trkpt>
    <trkpt lat="56.529785" lon="60.770435">
        <ele>251.8</ele>
        <time>2022-06-29T18:00:01.022Z</time>
    </trkpt>
    <trkpt lat="56.529781" lon="60.770435">
        <ele>251.8</ele>
        <time>2022-06-29T18:00:02.022Z</time>
    </trkpt>
    <trkpt lat="56.529778" lon="60.770437">
        <ele>251.8</ele>
        <time>2022-06-29T18:00:03.022Z</time>
    </trkpt>
    <trkpt lat="56.529789" lon="60.770439">
        <ele>251.8</ele>
        <time>2022-06-29T18:00:04.022Z</time>
    </trkpt>
    <trkpt lat="56.529801" lon="60.770439">
        <ele>252.1</ele>
        <time>2022-06-29T18:00:05.022Z</time>
    </trkpt>
    <trkpt lat="56.529812" lon="60.770448">
        <ele>251.8</ele>
        <time>2022-06-29T18:00:06.022Z</time>
    </trkpt>
    <trkpt lat="56.52982" lon="60.770463">
        <ele>251.9</ele>
        <time>2022-06-29T18:00:07.022Z</time>
    </trkpt>
    <trkpt lat="56.52983" lon="60.770471">
        <ele>251.9</ele>
        <time>2022-06-29T18:00:08.022Z</time>
    </trkpt>
    <trkpt lat="56.529836" lon="60.770472">
        <ele>251.9</ele>
        <time>2022-06-29T18:00:09.022Z</time>
    </trkpt>
    <trkpt lat="56.529837" lon="60.770483">
        <ele>251.9</ele>
        <time>2022-06-29T18:00:10.022Z</time>
    </trkpt>
    <trkpt lat="56.529843" lon="60.770481">
        <ele>251.9</ele>
        <time>2022-06-29T18:00:11.022Z</time>
    </trkpt>
    <trkpt lat="56.529858" lon="60.77047">
        <ele>251.9</ele>
        <time>2022-06-29T18:00:12.022Z</time>
    </trkpt>
    <trkpt lat="56.529862" lon="60.770471">
        <ele>251.9</ele>
        <time>2022-06-29T18:00:13.022Z</time>
    </trkpt>
    <trkpt lat="56.529867" lon="60.770471">
        <ele>251.9</ele>
        <time>2022-06-29T18:00:14.022Z</time>
    </trkpt>
    <trkpt lat="56.529872" lon="60.770471">
        <ele>251.9</ele>
        <time>2022-06-29T18:00:15.022Z</time>
    </trkpt>
    <trkpt lat="56.529877" lon="60.770471">
        <ele>251.9</ele>
        <time>2022-06-29T18:00:16.022Z</time>
    </trkpt>
    <trkpt lat="56.529882" lon="60.770472">
        <ele>251.9</ele>
        <time>2022-06-29T18:00:17.022Z</time>
    </trkpt>
    <trkpt lat="56.529886" lon="60.770472">
        <ele>251.9</ele>
        <time>2022-06-29T18:00:18.022Z</time>
    </trkpt>
    <trkpt lat="56.529891" lon="60.770472">
        <ele>251.9</ele>
        <time>2022-06-29T18:00:19.022Z</time>
    </trkpt>
    <trkpt lat="56.529896" lon="60.770473">
        <ele>251.9</ele>
        <time>2022-06-29T18:00:20.022Z</time>
    </trkpt>
    <trkpt lat="56.52991" lon="60.770465">
        <ele>251.9</ele>
        <time>2022-06-29T18:00:21.022Z</time>
    </trkpt>
    <trkpt lat="56.529923" lon="60.770459">
        <ele>251.9</ele>
        <time>2022-06-29T18:00:22.022Z</time>
    </trkpt>
    <trkpt lat="56.529945" lon="60.770455">
        <ele>252.0</ele>
        <time>2022-06-29T18:00:23.022Z</time>
    </trkpt>
    <trkpt lat="56.529953" lon="60.770448">
        <ele>252.0</ele>
        <time>2022-06-29T18:00:24.022Z</time>
    </trkpt>
    <trkpt lat="56.529961" lon="60.77044">
        <ele>252.1</ele>
        <time>2022-06-29T18:00:25.022Z</time>
    </trkpt>
    <trkpt lat="56.52998" lon="60.770431">
        <ele>252.1</ele>
        <time>2022-06-29T18:00:26.022Z</time>
    </trkpt>
    <trkpt lat="56.52999" lon="60.770422">
        <ele>252.1</ele>
        <time>2022-06-29T18:00:27.022Z</time>
    </trkpt>
    <trkpt lat="56.529999" lon="60.770414">
        <ele>252.1</ele>
        <time>2022-06-29T18:00:28.022Z</time>
    </trkpt>
    <trkpt lat="56.530023" lon="60.770398">
        <ele>251.9</ele>
        <time>2022-06-29T18:00:29.022Z</time>
    </trkpt>
    <trkpt lat="56.53004" lon="60.770387">
        <ele>251.8</ele>
        <time>2022-06-29T18:00:30.022Z</time>
    </trkpt>
    <trkpt lat="56.53005" lon="60.770387">
        <ele>251.8</ele>
        <time>2022-06-29T18:00:31.022Z</time>
    </trkpt>
    <trkpt lat="56.530109" lon="60.770316">
        <ele>251.9</ele>
        <time>2022-06-29T18:00:40.022Z</time>
    </trkpt>
    <trkpt lat="56.530114" lon="60.770311">
        <ele>251.9</ele>
        <time>2022-06-29T18:00:41.022Z</time>
    </trkpt>
    <trkpt lat="56.530123" lon="60.770308">
        <ele>251.7</ele>
        <time>2022-06-29T18:00:42.022Z</time>
    </trkpt>
    <trkpt lat="56.530126" lon="60.77031">
        <ele>251.7</ele>
        <time>2022-06-29T18:00:43.022Z</time>
    </trkpt>
    <trkpt lat="56.530132" lon="60.770299">
        <ele>251.7</ele>
        <time>2022-06-29T18:00:44.022Z</time>
    </trkpt>
    <trkpt lat="56.530147" lon="60.770281">
        <ele>251.4</ele>
        <time>2022-06-29T18:00:45.022Z</time>
    </trkpt>
    <trkpt lat="56.530162" lon="60.770273">
        <ele>251.5</ele>
        <time>2022-06-29T18:00:46.022Z</time>
    </trkpt>
    <trkpt lat="56.530183" lon="60.770258">
        <ele>251.2</ele>
        <time>2022-06-29T18:00:47.022Z</time>
    </trkpt>
    <trkpt lat="56.53021" lon="60.770254">
        <ele>250.7</ele>
        <time>2022-06-29T18:00:48.022Z</time>
    </trkpt>
    <trkpt lat="56.530216" lon="60.770257">
        <ele>250.7</ele>
        <time>2022-06-29T18:00:49.022Z</time>
    </trkpt>
    <trkpt lat="56.530219" lon="60.770223">
        <ele>250.2</ele>
        <time>2022-06-29T18:00:50.022Z</time>
    </trkpt>
    <trkpt lat="56.530226" lon="60.770204">
        <ele>250.2</ele>
        <time>2022-06-29T18:00:51.022Z</time>
    </trkpt>
    <trkpt lat="56.530252" lon="60.770178">
        <ele>249.7</ele>
        <time>2022-06-29T18:00:52.022Z</time>
    </trkpt>
    <trkpt lat="56.53026" lon="60.770164">
        <ele>249.7</ele>
        <time>2022-06-29T18:00:53.022Z</time>
    </trkpt>
    <trkpt lat="56.530275" lon="60.770134">
        <ele>249.1</ele>
        <time>2022-06-29T18:00:54.022Z</time>
    </trkpt>
    <trkpt lat="56.530283" lon="60.770117">
        <ele>249.1</ele>
        <time>2022-06-29T18:00:55.022Z</time>
    </trkpt>
    <trkpt lat="56.530299" lon="60.770085">
        <ele>248.7</ele>
        <time>2022-06-29T18:00:56.022Z</time>
    </trkpt>
    <trkpt lat="56.530305" lon="60.770064">
        <ele>248.7</ele>
        <time>2022-06-29T18:00:57.022Z</time>
    </trkpt>
    <trkpt lat="56.530307" lon="60.77003">
        <ele>248.9</ele>
        <time>2022-06-29T18:00:58.022Z</time>
    </trkpt>
    <trkpt lat="56.530313" lon="60.770013">
        <ele>248.7</ele>
        <time>2022-06-29T18:00:59.022Z</time>
    </trkpt>
    <trkpt lat="56.530325" lon="60.769958">
        <ele>249.0</ele>
        <time>2022-06-29T18:01:00.022Z</time>
    </trkpt>
    <trkpt lat="56.530338" lon="60.769924">
        <ele>248.8</ele>
        <time>2022-06-29T18:01:01.022Z</time>
    </trkpt>
    <trkpt lat="56.530343" lon="60.769903">
        <ele>248.8</ele>
        <time>2022-06-29T18:01:02.022Z</time>
    </trkpt>
    <trkpt lat="56.530353" lon="60.769876">
        <ele>249.0</ele>
        <time>2022-06-29T18:01:03.022Z</time>
    </trkpt>
    <trkpt lat="56.530374" lon="60.769826">
        <ele>248.8</ele>
        <time>2022-06-29T18:01:04.022Z</time>
    </trkpt>
    <trkpt lat="56.530379" lon="60.769799">
        <ele>249.0</ele>
        <time>2022-06-29T18:01:05.022Z</time>
    </trkpt>
    <trkpt lat="56.530389" lon="60.769735">
        <ele>248.8</ele>
        <time>2022-06-29T18:01:06.022Z</time>
    </trkpt>
    <trkpt lat="56.530392" lon="60.769712">
        <ele>249.0</ele>
        <time>2022-06-29T18:01:07.022Z</time>
    </trkpt>
    <trkpt lat="56.530393" lon="60.76966">
        <ele>249.3</ele>
        <time>2022-06-29T18:01:08.022Z</time>
    </trkpt>
    <trkpt lat="56.5304" lon="60.769637">
        <ele>249.3</ele>
        <time>2022-06-29T18:01:09.022Z</time>
    </trkpt>
    <trkpt lat="56.530414" lon="60.769592">
        <ele>249.0</ele>
        <time>2022-06-29T18:01:10.022Z</time>
    </trkpt>
    <trkpt lat="56.530418" lon="60.76956">
        <ele>249.3</ele>
        <time>2022-06-29T18:01:11.022Z</time>
    </trkpt>
    <trkpt lat="56.530426" lon="60.769502">
        <ele>249.4</ele>
        <time>2022-06-29T18:01:12.022Z</time>
    </trkpt>
    <trkpt lat="56.530432" lon="60.769475">
        <ele>249.2</ele>
        <time>2022-06-29T18:01:13.022Z</time>
    </trkpt>
    <trkpt lat="56.530442" lon="60.769436">
        <ele>249.4</ele>
        <time>2022-06-29T18:01:14.022Z</time>
    </trkpt>
    <trkpt lat="56.530457" lon="60.769378">
        <ele>249.2</ele>
        <time>2022-06-29T18:01:15.022Z</time>
    </trkpt>
    <trkpt lat="56.530458" lon="60.769369">
        <ele>249.5</ele>
        <time>2022-06-29T18:01:16.022Z</time>
    </trkpt>
    <trkpt lat="56.530464" lon="60.769313">
        <ele>249.7</ele>
        <time>2022-06-29T18:01:17.022Z</time>
    </trkpt>
    <trkpt lat="56.530466" lon="60.7693">
        <ele>249.7</ele>
        <time>2022-06-29T18:01:18.022Z</time>
    </trkpt>
    <trkpt lat="56.530472" lon="60.769242">
        <ele>250.2</ele>
        <time>2022-06-29T18:01:19.022Z</time>
    </trkpt>
    <trkpt lat="56.530477" lon="60.769226">
        <ele>250.2</ele>
        <time>2022-06-29T18:01:20.022Z</time>
    </trkpt>
    <trkpt lat="56.530487" lon="60.769177">
        <ele>250.1</ele>
        <time>2022-06-29T18:01:21.022Z</time>
    </trkpt>
    <trkpt lat="56.530499" lon="60.769146">
        <ele>250.3</ele>
        <time>2022-06-29T18:01:22.022Z</time>
    </trkpt>
    <trkpt lat="56.530498" lon="60.769129">
        <ele>250.3</ele>
        <time>2022-06-29T18:01:23.022Z</time>
    </trkpt>
    <trkpt lat="56.530503" lon="60.7691">
        <ele>250.1</ele>
        <time>2022-06-29T18:01:24.022Z</time>
    </trkpt>
    <trkpt lat="56.530508" lon="60.769056">
        <ele>250.4</ele>
        <time>2022-06-29T18:01:25.022Z</time>
    </trkpt>
    <trkpt lat="56.530514" lon="60.769027">
        <ele>250.6</ele>
        <time>2022-06-29T18:01:26.022Z</time>
    </trkpt>
    <trkpt lat="56.530518" lon="60.768983">
        <ele>250.9</ele>
        <time>2022-06-29T18:01:27.022Z</time>
    </trkpt>
    <trkpt lat="56.53052" lon="60.768963">
        <ele>251.0</ele>
        <time>2022-06-29T18:01:28.022Z</time>
    </trkpt>
    <trkpt lat="56.530525" lon="60.768916">
        <ele>250.7</ele>
        <time>2022-06-29T18:01:29.022Z</time>
    </trkpt>
    <trkpt lat="56.53053" lon="60.768895">
        <ele>250.9</ele>
        <time>2022-06-29T18:01:30.022Z</time>
    </trkpt>
    <trkpt lat="56.530544" lon="60.768836">
        <ele>251.1</ele>
        <time>2022-06-29T18:01:31.022Z</time>
    </trkpt>
    <trkpt lat="56.530554" lon="60.768787">
        <ele>251.0</ele>
        <time>2022-06-29T18:01:32.022Z</time>
    </trkpt>
    <trkpt lat="56.530557" lon="60.768769">
        <ele>251.2</ele>
        <time>2022-06-29T18:01:33.022Z</time>
    </trkpt>
    <trkpt lat="56.530565" lon="60.768719">
        <ele>251.3</ele>
        <time>2022-06-29T18:01:34.022Z</time>
    </trkpt>
    <trkpt lat="56.530578" lon="60.768697">
        <ele>251.1</ele>
        <time>2022-06-29T18:01:35.022Z</time>
    </trkpt>
    <trkpt lat="56.530594" lon="60.768681">
        <ele>251.2</ele>
        <time>2022-06-29T18:01:36.022Z</time>
    </trkpt>
    <trkpt lat="56.5306" lon="60.768671">
        <ele>250.9</ele>
        <time>2022-06-29T18:01:37.022Z</time>
    </trkpt>
    <trkpt lat="56.53062" lon="60.768634">
        <ele>250.5</ele>
        <time>2022-06-29T18:01:38.022Z</time>
    </trkpt>
    <trkpt lat="56.530635" lon="60.768615">
        <ele>250.6</ele>
        <time>2022-06-29T18:01:39.022Z</time>
    </trkpt>
    <trkpt lat="56.530647" lon="60.7686">
        <ele>250.3</ele>
        <time>2022-06-29T18:01:40.022Z</time>
    </trkpt>
    <trkpt lat="56.530668" lon="60.768561">
        <ele>250.1</ele>
        <time>2022-06-29T18:01:41.022Z</time>
    </trkpt>
    <trkpt lat="56.530691" lon="60.768521">
        <ele>249.9</ele>
        <time>2022-06-29T18:01:42.022Z</time>
    </trkpt>
    <trkpt lat="56.530708" lon="60.768482">
        <ele>250.1</ele>
        <time>2022-06-29T18:01:43.022Z</time>
    </trkpt>
    <trkpt lat="56.530716" lon="60.76846">
        <ele>249.7</ele>
        <time>2022-06-29T18:01:44.022Z</time>
    </trkpt>
    <trkpt lat="56.530723" lon="60.768439">
        <ele>249.8</ele>
        <time>2022-06-29T18:01:45.022Z</time>
    </trkpt>
    <trkpt lat="56.530731" lon="60.768418">
        <ele>249.9</ele>
        <time>2022-06-29T18:01:59.022Z</time>
    </trkpt>
    <trkpt lat="56.53075" lon="60.768377">
        <ele>249.8</ele>
        <time>2022-06-29T18:02:00.022Z</time>
    </trkpt>
    <trkpt lat="56.530764" lon="60.768365">
        <ele>249.5</ele>
        <time>2022-06-29T18:02:01.022Z</time>
    </trkpt>
    <trkpt lat="56.530764" lon="60.768365">
        <ele>249.6</ele>
        <time>2022-06-29T18:02:02.022Z</time>
    </trkpt>
    <trkpt lat="56.530764" lon="60.768355">
        <ele>249.6</ele>
        <time>2022-06-29T18:02:03.022Z</time>
    </trkpt>
    <trkpt lat="56.530765" lon="60.768341">
        <ele>249.6</ele>
        <time>2022-06-29T18:02:04.022Z</time>
    </trkpt>
    <trkpt lat="56.530761" lon="60.768337">
        <ele>250.0</ele>
        <time>2022-06-29T18:02:05.022Z</time>
    </trkpt>
    <trkpt lat="56.530765" lon="60.76833">
        <ele>249.7</ele>
        <time>2022-06-29T18:02:06.022Z</time>
    </trkpt>
    <trkpt lat="56.530768" lon="60.768332">
        <ele>249.7</ele>
        <time>2022-06-29T18:02:07.022Z</time>
    </trkpt>
    <trkpt lat="56.530763" lon="60.76832">
        <ele>249.8</ele>
        <time>2022-06-29T18:02:08.022Z</time>
    </trkpt>
    <trkpt lat="56.530761" lon="60.768308">
        <ele>250.1</ele>
        <time>2022-06-29T18:02:09.022Z</time>
    </trkpt>
    <trkpt lat="56.53076" lon="60.768293">
        <ele>250.1</ele>
        <time>2022-06-29T18:02:10.022Z</time>
    </trkpt>
    <trkpt lat="56.530755" lon="60.768269">
        <ele>250.1</ele>
        <time>2022-06-29T18:02:11.022Z</time>
    </trkpt>
    <trkpt lat="56.530753" lon="60.768251">
        <ele>250.2</ele>
        <time>2022-06-29T18:02:12.022Z</time>
    </trkpt>
    <trkpt lat="56.530749" lon="60.768202">
        <ele>250.1</ele>
        <time>2022-06-29T18:02:13.022Z</time>
    </trkpt>
    <trkpt lat="56.530748" lon="60.768182">
        <ele>250.2</ele>
        <time>2022-06-29T18:02:14.022Z</time>
    </trkpt>
    <trkpt lat="56.530749" lon="60.768128">
        <ele>250.2</ele>
        <time>2022-06-29T18:02:15.022Z</time>
    </trkpt>
    <trkpt lat="56.53075" lon="60.768103">
        <ele>250.2</ele>
        <time>2022-06-29T18:02:16.022Z</time>
    </trkpt>
    <trkpt lat="56.530746" lon="60.768038">
        <ele>250.2</ele>
        <time>2022-06-29T18:02:17.022Z</time>
    </trkpt>
    <trkpt lat="56.530748" lon="60.768019">
        <ele>250.3</ele>
        <time>2022-06-29T18:02:18.022Z</time>
    </trkpt>
    <trkpt lat="56.530746" lon="60.767958">
        <ele>250.3</ele>
        <time>2022-06-29T18:02:19.022Z</time>
    </trkpt>
    <trkpt lat="56.530743" lon="60.767909">
        <ele>250.3</ele>
        <time>2022-06-29T18:02:20.022Z</time>
    </trkpt>
    <trkpt lat="56.530738" lon="60.767885">
        <ele>250.4</ele>
        <time>2022-06-29T18:02:21.022Z</time>
    </trkpt>
    <trkpt lat="56.530729" lon="60.767827">
        <ele>250.6</ele>
        <time>2022-06-29T18:02:22.022Z</time>
    </trkpt>
    <trkpt lat="56.530725" lon="60.767809">
        <ele>250.6</ele>
        <time>2022-06-29T18:02:23.022Z</time>
    </trkpt>
    <trkpt lat="56.530722" lon="60.767762">
        <ele>250.7</ele>
        <time>2022-06-29T18:02:24.022Z</time>
    </trkpt>
    <trkpt lat="56.530721" lon="60.767727">
        <ele>250.7</ele>
        <time>2022-06-29T18:02:25.022Z</time>
    </trkpt>
    <trkpt lat="56.530726" lon="60.767698">
        <ele>250.6</ele>
        <time>2022-06-29T18:02:26.022Z</time>
    </trkpt>
    <trkpt lat="56.530728" lon="60.767671">
        <ele>250.6</ele>
        <time>2022-06-29T18:02:27.022Z</time>
    </trkpt>
    <trkpt lat="56.53072" lon="60.767645">
        <ele>250.6</ele>
        <time>2022-06-29T18:02:28.022Z</time>
    </trkpt>
    <trkpt lat="56.530722" lon="60.767629">
        <ele>250.6</ele>
        <time>2022-06-29T18:02:29.022Z</time>
    </trkpt>
    <trkpt lat="56.530731" lon="60.767571">
        <ele>250.0</ele>
        <time>2022-06-29T18:02:30.022Z</time>
    </trkpt>
    <trkpt lat="56.530731" lon="60.767556">
        <ele>249.9</ele>
        <time>2022-06-29T18:02:31.022Z</time>
    </trkpt>
    <trkpt lat="56.530731" lon="60.767541">
        <ele>249.9</ele>
        <time>2022-06-29T18:02:32.022Z</time>
    </trkpt>
    <trkpt lat="56.53073" lon="60.767503">
        <ele>249.8</ele>
        <time>2022-06-29T18:02:33.022Z</time>
    </trkpt>
    <trkpt lat="56.530738" lon="60.767454">
        <ele>249.7</ele>
        <time>2022-06-29T18:02:34.022Z</time>
    </trkpt>
    <trkpt lat="56.530746" lon="60.767405">
        <ele>249.7</ele>
        <time>2022-06-29T18:02:35.022Z</time>
    </trkpt>
    <trkpt lat="56.53074708651366" lon="60.767392872563946">
        <ele>249.8</ele>
        <time>2022-06-29T18:02:42.522Z</time>
    </trkpt>
    <trkpt lat="56.530754" lon="60.767356">
        <ele>249.8</ele>
        <time>2022-06-29T18:02:50.022Z</time>
    </trkpt>
    <trkpt lat="56.530762" lon="60.767307">
        <ele>249.7</ele>
        <time>2022-06-29T18:02:51.022Z</time>
    </trkpt>
    <trkpt lat="56.530776" lon="60.767248">
        <ele>249.7</ele>
        <time>2022-06-29T18:02:52.022Z</time>
    </trkpt>
    <trkpt lat="56.530788" lon="60.767233">
        <ele>249.7</ele>
        <time>2022-06-29T18:02:53.022Z</time>
    </trkpt>
    <trkpt lat="56.530797" lon="60.767208">
        <ele>249.7</ele>
        <time>2022-06-29T18:02:54.022Z</time>
    </trkpt>
    <trkpt lat="56.530802" lon="60.767197">
        <ele>249.7</ele>
        <time>2022-06-29T18:02:55.022Z</time>
    </trkpt>
    <trkpt lat="56.530808" lon="60.767186">
        <ele>249.8</ele>
        <time>2022-06-29T18:02:56.022Z</time>
    </trkpt>
    <trkpt lat="56.530814" lon="60.767175">
        <ele>249.1</ele>
        <time>2022-06-29T18:02:57.022Z</time>
    </trkpt>
    <trkpt lat="56.53077049232375" lon="60.767098217923014">
        <ele>252.1</ele>
        <time>2022-06-29T18:17:04.022Z</time>
    </trkpt>
    <trkpt lat="56.530756" lon="60.767093">
        <ele>252.1</ele>
        <time>2022-06-29T18:17:16.022Z</time>
    </trkpt>
    <trkpt lat="56.530739" lon="60.767088">
        <ele>252.1</ele>
        <time>2022-06-29T18:17:17.022Z</time>
    </trkpt>
    <trkpt lat="56.530723388508775" lon="60.767084819961916">
        <ele>252.1</ele>
        <time>2022-06-29T18:17:17.522Z</time>
    </trkpt>
    <trkpt lat="56.530723" lon="60.767084">
        <ele>252.1</ele>
        <time>2022-06-29T18:17:18.022Z</time>
    </trkpt>
    <trkpt lat="56.530706" lon="60.76708">
        <ele>253.1</ele>
        <time>2022-06-29T18:17:19.022Z</time>
    </trkpt>
    <trkpt lat="56.530689" lon="60.767075">
        <ele>253.1</ele>
        <time>2022-06-29T18:17:20.022Z</time>
    </trkpt>
    <trkpt lat="56.530673" lon="60.767071">
        <ele>253.1</ele>
        <time>2022-06-29T18:17:21.022Z</time>
    </trkpt>
    <trkpt lat="56.530656" lon="60.767067">
        <ele>253.1</ele>
        <time>2022-06-29T18:17:22.022Z</time>
    </trkpt>
    <trkpt lat="56.530618" lon="60.767026">
        <ele>253.1</ele>
        <time>2022-06-29T18:17:23.022Z</time>
    </trkpt>
    <trkpt lat="56.5306" lon="60.767001">
        <ele>253.1</ele>
        <time>2022-06-29T18:17:24.022Z</time>
    </trkpt>
    <trkpt lat="56.530593" lon="60.766993">
        <ele>253.1</ele>
        <time>2022-06-29T18:17:25.022Z</time>
    </trkpt>
    <trkpt lat="56.530576" lon="60.766978">
        <ele>253.1</ele>
        <time>2022-06-29T18:17:26.022Z</time>
    </trkpt>
    <trkpt lat="56.530563" lon="60.766969">
        <ele>253.1</ele>
        <time>2022-06-29T18:17:27.022Z</time>
    </trkpt>
    <trkpt lat="56.530552" lon="60.766962">
        <ele>253.1</ele>
        <time>2022-06-29T18:17:28.022Z</time>
    </trkpt>
    <trkpt lat="56.530521" lon="60.766945">
        <ele>254.1</ele>
        <time>2022-06-29T18:17:29.022Z</time>
    </trkpt>
    <trkpt lat="56.530503" lon="60.766935">
        <ele>254.1</ele>
        <time>2022-06-29T18:17:30.022Z</time>
    </trkpt>
    <trkpt lat="56.530463" lon="60.766917">
        <ele>255.1</ele>
        <time>2022-06-29T18:17:31.022Z</time>
    </trkpt>
    <trkpt lat="56.530432" lon="60.766896">
        <ele>255.1</ele>
        <time>2022-06-29T18:17:32.022Z</time>
    </trkpt>
    <trkpt lat="56.530402" lon="60.766899">
        <ele>255.1</ele>
        <time>2022-06-29T18:17:33.022Z</time>
    </trkpt>
    <trkpt lat="56.530369" lon="60.766918">
        <ele>255.1</ele>
        <time>2022-06-29T18:17:34.022Z</time>
    </trkpt>
    <trkpt lat="56.530358" lon="60.766924">
        <ele>255.1</ele>
        <time>2022-06-29T18:17:35.022Z</time>
    </trkpt>
    <trkpt lat="56.53032" lon="60.766929">
        <ele>255.1</ele>
        <time>2022-06-29T18:17:36.022Z</time>
    </trkpt>
    <trkpt lat="56.530281" lon="60.76693">
        <ele>255.1</ele>
        <time>2022-06-29T18:17:37.022Z</time>
    </trkpt>
    <trkpt lat="56.530266" lon="60.766929">
        <ele>255.1</ele>
        <time>2022-06-29T18:17:38.022Z</time>
    </trkpt>
    <trkpt lat="56.530225" lon="60.766934">
        <ele>255.1</ele>
        <time>2022-06-29T18:17:39.022Z</time>
    </trkpt>
    <trkpt lat="56.530215" lon="60.766935">
        <ele>255.1</ele>
        <time>2022-06-29T18:17:40.022Z</time>
    </trkpt>
    <trkpt lat="56.530182" lon="60.766935">
        <ele>255.1</ele>
        <time>2022-06-29T18:17:41.022Z</time>
    </trkpt>
    <trkpt lat="56.53017" lon="60.76693">
        <ele>255.1</ele>
        <time>2022-06-29T18:17:42.022Z</time>
    </trkpt>
    <trkpt lat="56.530133" lon="60.766926">
        <ele>256.1</ele>
        <time>2022-06-29T18:17:43.022Z</time>
    </trkpt>
    <trkpt lat="56.530105" lon="60.766915">
        <ele>257.1</ele>
        <time>2022-06-29T18:17:44.022Z</time>
    </trkpt>
    <trkpt lat="56.530091" lon="60.766914">
        <ele>257.1</ele>
        <time>2022-06-29T18:17:45.022Z</time>
    </trkpt>
    <trkpt lat="56.53005" lon="60.766904">
        <ele>257.1</ele>
        <time>2022-06-29T18:17:46.022Z</time>
    </trkpt>
    <trkpt lat="56.530038" lon="60.766903">
        <ele>257.1</ele>
        <time>2022-06-29T18:17:47.022Z</time>
    </trkpt>
    <trkpt lat="56.530003" lon="60.766905">
        <ele>257.1</ele>
        <time>2022-06-29T18:17:48.022Z</time>
    </trkpt>
    <trkpt lat="56.529976" lon="60.766927">
        <ele>256.1</ele>
        <time>2022-06-29T18:17:49.022Z</time>
    </trkpt>
    <trkpt lat="56.529966" lon="60.766925">
        <ele>257.1</ele>
        <time>2022-06-29T18:17:50.022Z</time>
    </trkpt>
    <trkpt lat="56.529933" lon="60.766932">
        <ele>257.1</ele>
        <time>2022-06-29T18:17:51.022Z</time>
    </trkpt>
    <trkpt lat="56.529925" lon="60.76693">
        <ele>257.1</ele>
        <time>2022-06-29T18:17:52.022Z</time>
    </trkpt>
    <trkpt lat="56.529895" lon="60.766927">
        <ele>257.1</ele>
        <time>2022-06-29T18:17:53.022Z</time>
    </trkpt>
    <trkpt lat="56.52988" lon="60.766925">
        <ele>257.1</ele>
        <time>2022-06-29T18:17:54.022Z</time>
    </trkpt>
    <trkpt lat="56.529838" lon="60.766927">
        <ele>257.1</ele>
        <time>2022-06-29T18:17:55.022Z</time>
    </trkpt>
    <trkpt lat="56.529811" lon="60.766932">
        <ele>257.1</ele>
        <time>2022-06-29T18:17:56.022Z</time>
    </trkpt>
    <trkpt lat="56.529802" lon="60.766935">
        <ele>257.1</ele>
        <time>2022-06-29T18:17:57.022Z</time>
    </trkpt>
    <trkpt lat="56.529772" lon="60.766941">
        <ele>257.1</ele>
        <time>2022-06-29T18:17:58.022Z</time>
    </trkpt>
    <trkpt lat="56.529736" lon="60.76694">
        <ele>258.1</ele>
        <time>2022-06-29T18:17:59.022Z</time>
    </trkpt>
    <trkpt lat="56.529721" lon="60.766939">
        <ele>258.1</ele>
        <time>2022-06-29T18:18:00.022Z</time>
    </trkpt>
    <trkpt lat="56.529684" lon="60.766955">
        <ele>258.1</ele>
        <time>2022-06-29T18:18:01.022Z</time>
    </trkpt>
    <trkpt lat="56.529655" lon="60.766935">
        <ele>258.1</ele>
        <time>2022-06-29T18:18:02.022Z</time>
    </trkpt>
    <trkpt lat="56.529617" lon="60.766958">
        <ele>258.1</ele>
        <time>2022-06-29T18:18:03.022Z</time>
    </trkpt>
    <trkpt lat="56.52959" lon="60.766951">
        <ele>258.1</ele>
        <time>2022-06-29T18:18:04.022Z</time>
    </trkpt>
    <trkpt lat="56.529578" lon="60.766937">
        <ele>258.1</ele>
        <time>2022-06-29T18:18:05.022Z</time>
    </trkpt>
    <trkpt lat="56.529552" lon="60.766911">
        <ele>259.1</ele>
        <time>2022-06-29T18:18:06.022Z</time>
    </trkpt>
    <trkpt lat="56.529511" lon="60.766899">
        <ele>259.1</ele>
        <time>2022-06-29T18:18:07.022Z</time>
    </trkpt>
    <trkpt lat="56.529503" lon="60.76689">
        <ele>259.1</ele>
        <time>2022-06-29T18:18:08.022Z</time>
    </trkpt>
    <trkpt lat="56.52947" lon="60.766865">
        <ele>259.1</ele>
        <time>2022-06-29T18:18:09.022Z</time>
    </trkpt>
    <trkpt lat="56.52946" lon="60.766861">
        <ele>259.1</ele>
        <time>2022-06-29T18:18:10.022Z</time>
    </trkpt>
    <trkpt lat="56.529427" lon="60.766838">
        <ele>259.1</ele>
        <time>2022-06-29T18:18:11.022Z</time>
    </trkpt>
    <trkpt lat="56.529412" lon="60.766823">
        <ele>259.1</ele>
        <time>2022-06-29T18:18:12.022Z</time>
    </trkpt>
    <trkpt lat="56.529374" lon="60.766798">
        <ele>259.1</ele>
        <time>2022-06-29T18:18:13.022Z</time>
    </trkpt>
    <trkpt lat="56.529363" lon="60.766794">
        <ele>259.1</ele>
        <time>2022-06-29T18:18:14.022Z</time>
    </trkpt>
    <trkpt lat="56.52933" lon="60.766772">
        <ele>259.1</ele>
        <time>2022-06-29T18:18:15.022Z</time>
    </trkpt>
    <trkpt lat="56.529301" lon="60.766764">
        <ele>259.1</ele>
        <time>2022-06-29T18:18:16.022Z</time>
    </trkpt>
    <trkpt lat="56.529286" lon="60.76675">
        <ele>260.1</ele>
        <time>2022-06-29T18:18:17.022Z</time>
    </trkpt>
    <trkpt lat="56.52925" lon="60.766721">
        <ele>260.1</ele>
        <time>2022-06-29T18:18:18.022Z</time>
    </trkpt>
    <trkpt lat="56.529235" lon="60.766722">
        <ele>260.1</ele>
        <time>2022-06-29T18:18:19.022Z</time>
    </trkpt>
    <trkpt lat="56.529205" lon="60.766719">
        <ele>260.1</ele>
        <time>2022-06-29T18:18:20.022Z</time>
    </trkpt>
    <trkpt lat="56.529195" lon="60.766717">
        <ele>260.1</ele>
        <time>2022-06-29T18:18:21.022Z</time>
    </trkpt>
    <trkpt lat="56.529164" lon="60.766717">
        <ele>260.1</ele>
        <time>2022-06-29T18:18:22.022Z</time>
    </trkpt>
    <trkpt lat="56.529152" lon="60.766718">
        <ele>260.1</ele>
        <time>2022-06-29T18:18:23.022Z</time>
    </trkpt>
    <trkpt lat="56.529124" lon="60.766726">
        <ele>260.1</ele>
        <time>2022-06-29T18:18:24.022Z</time>
    </trkpt>
    <trkpt lat="56.529094" lon="60.766723">
        <ele>261.1</ele>
        <time>2022-06-29T18:18:25.022Z</time>
    </trkpt>
    <trkpt lat="56.529089" lon="60.766715">
        <ele>261.1</ele>
        <time>2022-06-29T18:18:26.022Z</time>
    </trkpt>
    <trkpt lat="56.52908" lon="60.766704">
        <ele>261.1</ele>
        <time>2022-06-29T18:18:27.022Z</time>
    </trkpt>
    <trkpt lat="56.529051" lon="60.766689">
        <ele>261.1</ele>
        <time>2022-06-29T18:18:28.022Z</time>
    </trkpt>
    <trkpt lat="56.529039" lon="60.766687">
        <ele>261.1</ele>
        <time>2022-06-29T18:18:29.022Z</time>
    </trkpt>
    <trkpt lat="56.529001" lon="60.766675">
        <ele>261.1</ele>
        <time>2022-06-29T18:18:30.022Z</time>
    </trkpt>
    <trkpt lat="56.528968" lon="60.766654">
        <ele>261.1</ele>
        <time>2022-06-29T18:18:31.022Z</time>
    </trkpt>
    <trkpt lat="56.528929" lon="60.766637">
        <ele>261.1</ele>
        <time>2022-06-29T18:18:32.022Z</time>
    </trkpt>
    <trkpt lat="56.528895" lon="60.766606">
        <ele>262.1</ele>
        <time>2022-06-29T18:18:33.022Z</time>
    </trkpt>
    <trkpt lat="56.528854" lon="60.766597">
        <ele>262.1</ele>
        <time>2022-06-29T18:18:34.022Z</time>
    </trkpt>
    <trkpt lat="56.528835" lon="60.766592">
        <ele>262.1</ele>
        <time>2022-06-29T18:18:35.022Z</time>
    </trkpt>
    <trkpt lat="56.528791" lon="60.766594">
        <ele>262.1</ele>
        <time>2022-06-29T18:18:36.022Z</time>
    </trkpt>
    <trkpt lat="56.528761" lon="60.766587">
        <ele>262.1</ele>
        <time>2022-06-29T18:18:37.022Z</time>
    </trkpt>
    <trkpt lat="56.528727" lon="60.766582">
        <ele>263.1</ele>
        <time>2022-06-29T18:18:38.022Z</time>
    </trkpt>
    <trkpt lat="56.528711" lon="60.766582">
        <ele>263.1</ele>
        <time>2022-06-29T18:18:39.022Z</time>
    </trkpt>
    <trkpt lat="56.528675" lon="60.766569">
        <ele>263.1</ele>
        <time>2022-06-29T18:18:40.022Z</time>
    </trkpt>
    <trkpt lat="56.528633" lon="60.766555">
        <ele>263.1</ele>
        <time>2022-06-29T18:18:41.022Z</time>
    </trkpt>
    <trkpt lat="56.528602" lon="60.766556">
        <ele>263.1</ele>
        <time>2022-06-29T18:18:42.022Z</time>
    </trkpt>
    <trkpt lat="56.528569" lon="60.766571">
        <ele>263.1</ele>
        <time>2022-06-29T18:18:43.022Z</time>
    </trkpt>
    <trkpt lat="56.528542" lon="60.76658">
        <ele>263.1</ele>
        <time>2022-06-29T18:18:44.022Z</time>
    </trkpt>
    <trkpt lat="56.528512" lon="60.766568">
        <ele>264.1</ele>
        <time>2022-06-29T18:18:45.022Z</time>
    </trkpt>
    <trkpt lat="56.528478" lon="60.766569">
        <ele>264.1</ele>
        <time>2022-06-29T18:18:46.022Z</time>
    </trkpt>
    <trkpt lat="56.528436" lon="60.766573">
        <ele>264.1</ele>
        <time>2022-06-29T18:18:47.022Z</time>
    </trkpt>
    <trkpt lat="56.528389" lon="60.766557">
        <ele>264.1</ele>
        <time>2022-06-29T18:18:48.022Z</time>
    </trkpt>
    <trkpt lat="56.528353" lon="60.766529">
        <ele>264.1</ele>
        <time>2022-06-29T18:18:49.022Z</time>
    </trkpt>
    <trkpt lat="56.528312" lon="60.766511">
        <ele>264.1</ele>
        <time>2022-06-29T18:18:50.022Z</time>
    </trkpt>
    <trkpt lat="56.528285" lon="60.766512">
        <ele>264.1</ele>
        <time>2022-06-29T18:18:51.022Z</time>
    </trkpt>
    <trkpt lat="56.528272" lon="60.766516">
        <ele>264.1</ele>
        <time>2022-06-29T18:18:52.022Z</time>
    </trkpt>
    <trkpt lat="56.528242" lon="60.766518">
        <ele>264.1</ele>
        <time>2022-06-29T18:18:53.022Z</time>
    </trkpt>
    <trkpt lat="56.528214" lon="60.766506">
        <ele>264.1</ele>
        <time>2022-06-29T18:18:54.022Z</time>
    </trkpt>
    <trkpt lat="56.528184" lon="60.766486">
        <ele>264.1</ele>
        <time>2022-06-29T18:18:55.022Z</time>
    </trkpt>
    <trkpt lat="56.528155" lon="60.766462">
        <ele>264.1</ele>
        <time>2022-06-29T18:18:56.022Z</time>
    </trkpt>
    <trkpt lat="56.528143" lon="60.766453">
        <ele>264.1</ele>
        <time>2022-06-29T18:18:57.022Z</time>
    </trkpt>
    <trkpt lat="56.528108" lon="60.766425">
        <ele>264.1</ele>
        <time>2022-06-29T18:18:58.022Z</time>
    </trkpt>
    <trkpt lat="56.528079" lon="60.76641">
        <ele>265.1</ele>
        <time>2022-06-29T18:18:59.022Z</time>
    </trkpt>
    <trkpt lat="56.528051" lon="60.766393">
        <ele>265.1</ele>
        <time>2022-06-29T18:19:00.022Z</time>
    </trkpt>
    <trkpt lat="56.528022" lon="60.766385">
        <ele>265.1</ele>
        <time>2022-06-29T18:19:01.022Z</time>
    </trkpt>
    <trkpt lat="56.527992" lon="60.766379">
        <ele>265.1</ele>
        <time>2022-06-29T18:19:02.022Z</time>
    </trkpt>
    <trkpt lat="56.527964" lon="60.766368">
        <ele>266.1</ele>
        <time>2022-06-29T18:19:03.022Z</time>
    </trkpt>
    <trkpt lat="56.527945" lon="60.766373">
        <ele>266.1</ele>
        <time>2022-06-29T18:19:04.022Z</time>
    </trkpt>
    <trkpt lat="56.527901" lon="60.76638">
        <ele>266.1</ele>
        <time>2022-06-29T18:19:05.022Z</time>
    </trkpt>
    <trkpt lat="56.527873" lon="60.76637">
        <ele>266.1</ele>
        <time>2022-06-29T18:19:06.022Z</time>
    </trkpt>
    <trkpt lat="56.527848" lon="60.766353">
        <ele>266.1</ele>
        <time>2022-06-29T18:19:07.022Z</time>
    </trkpt>
    <trkpt lat="56.527836" lon="60.766356">
        <ele>266.1</ele>
        <time>2022-06-29T18:19:08.022Z</time>
    </trkpt>
    <trkpt lat="56.527797" lon="60.766355">
        <ele>266.1</ele>
        <time>2022-06-29T18:19:09.022Z</time>
    </trkpt>
    <trkpt lat="56.527783" lon="60.766344">
        <ele>266.1</ele>
        <time>2022-06-29T18:19:10.022Z</time>
    </trkpt>
    <trkpt lat="56.527742" lon="60.766338">
        <ele>266.1</ele>
        <time>2022-06-29T18:19:11.022Z</time>
    </trkpt>
    <trkpt lat="56.527716" lon="60.766349">
        <ele>266.1</ele>
        <time>2022-06-29T18:19:12.022Z</time>
    </trkpt>
    <trkpt lat="56.527686" lon="60.766337">
        <ele>266.1</ele>
        <time>2022-06-29T18:19:13.022Z</time>
    </trkpt>
    <trkpt lat="56.527669" lon="60.766331">
        <ele>266.1</ele>
        <time>2022-06-29T18:19:14.022Z</time>
    </trkpt>
    <trkpt lat="56.527635" lon="60.766319">
        <ele>266.1</ele>
        <time>2022-06-29T18:19:15.022Z</time>
    </trkpt>
    <trkpt lat="56.527621" lon="60.766317">
        <ele>266.1</ele>
        <time>2022-06-29T18:19:16.022Z</time>
    </trkpt>
    <trkpt lat="56.527582" lon="60.766302">
        <ele>266.1</ele>
        <time>2022-06-29T18:19:17.022Z</time>
    </trkpt>
    <trkpt lat="56.527564" lon="60.766304">
        <ele>266.1</ele>
        <time>2022-06-29T18:19:18.022Z</time>
    </trkpt>
    <trkpt lat="56.527532" lon="60.766296">
        <ele>266.1</ele>
        <time>2022-06-29T18:19:19.022Z</time>
    </trkpt>
    <trkpt lat="56.527497" lon="60.766311">
        <ele>266.1</ele>
        <time>2022-06-29T18:19:20.022Z</time>
    </trkpt>
    <trkpt lat="56.527485" lon="60.766309">
        <ele>266.1</ele>
        <time>2022-06-29T18:19:21.022Z</time>
    </trkpt>
    <trkpt lat="56.527448" lon="60.766327">
        <ele>266.1</ele>
        <time>2022-06-29T18:19:22.022Z</time>
    </trkpt>
    <trkpt lat="56.527418" lon="60.766317">
        <ele>266.1</ele>
        <time>2022-06-29T18:19:23.022Z</time>
    </trkpt>
    <trkpt lat="56.527383" lon="60.766311">
        <ele>266.1</ele>
        <time>2022-06-29T18:19:24.022Z</time>
    </trkpt>
    <trkpt lat="56.527351" lon="60.766316">
        <ele>266.1</ele>
        <time>2022-06-29T18:19:25.022Z</time>
    </trkpt>
    <trkpt lat="56.527321" lon="60.766306">
        <ele>266.1</ele>
        <time>2022-06-29T18:19:26.022Z</time>
    </trkpt>
    <trkpt lat="56.527278" lon="60.766296">
        <ele>266.1</ele>
        <time>2022-06-29T18:19:27.022Z</time>
    </trkpt>
    <trkpt lat="56.527241" lon="60.766281">
        <ele>266.1</ele>
        <time>2022-06-29T18:19:28.022Z</time>
    </trkpt>
    <trkpt lat="56.527205" lon="60.76628">
        <ele>267.1</ele>
        <time>2022-06-29T18:19:29.022Z</time>
    </trkpt>
    <trkpt lat="56.52717" lon="60.766292">
        <ele>267.1</ele>
        <time>2022-06-29T18:19:30.022Z</time>
    </trkpt>
    <trkpt lat="56.527128" lon="60.766295">
        <ele>267.1</ele>
        <time>2022-06-29T18:19:31.022Z</time>
    </trkpt>
    <trkpt lat="56.52709" lon="60.766313">
        <ele>267.1</ele>
        <time>2022-06-29T18:19:32.022Z</time>
    </trkpt>
    <trkpt lat="56.527051" lon="60.766312">
        <ele>267.1</ele>
        <time>2022-06-29T18:19:33.022Z</time>
    </trkpt>
    <trkpt lat="56.527024" lon="60.766288">
        <ele>267.1</ele>
        <time>2022-06-29T18:19:34.022Z</time>
    </trkpt>
    <trkpt lat="56.526995" lon="60.766281">
        <ele>268.1</ele>
        <time>2022-06-29T18:19:35.022Z</time>
    </trkpt>
    <trkpt lat="56.526945" lon="60.766277">
        <ele>268.1</ele>
        <time>2022-06-29T18:19:36.022Z</time>
    </trkpt>
    <trkpt lat="56.526903" lon="60.76627">
        <ele>268.1</ele>
        <time>2022-06-29T18:19:37.022Z</time>
    </trkpt>
    <trkpt lat="56.526862" lon="60.766263">
        <ele>268.1</ele>
        <time>2022-06-29T18:19:38.022Z</time>
    </trkpt>
    <trkpt lat="56.526832" lon="60.766257">
        <ele>269.1</ele>
        <time>2022-06-29T18:19:39.022Z</time>
    </trkpt>
    <trkpt lat="56.526793" lon="60.766253">
        <ele>269.1</ele>
        <time>2022-06-29T18:19:40.022Z</time>
    </trkpt>
    <trkpt lat="56.526756" lon="60.766236">
        <ele>269.1</ele>
        <time>2022-06-29T18:19:41.022Z</time>
    </trkpt>
    <trkpt lat="56.526722" lon="60.766217">
        <ele>269.1</ele>
        <time>2022-06-29T18:19:42.022Z</time>
    </trkpt>
    <trkpt lat="56.526689" lon="60.766218">
        <ele>269.1</ele>
        <time>2022-06-29T18:19:43.022Z</time>
    </trkpt>
    <trkpt lat="56.526674" lon="60.766213">
        <ele>269.1</ele>
        <time>2022-06-29T18:19:44.022Z</time>
    </trkpt>
    <trkpt lat="56.526634" lon="60.76621">
        <ele>270.1</ele>
        <time>2022-06-29T18:19:45.022Z</time>
    </trkpt>
    <trkpt lat="56.526622" lon="60.766207">
        <ele>270.1</ele>
        <time>2022-06-29T18:19:46.022Z</time>
    </trkpt>
    <trkpt lat="56.526588" lon="60.766187">
        <ele>270.1</ele>
        <time>2022-06-29T18:19:47.022Z</time>
    </trkpt>
    <trkpt lat="56.526575" lon="60.766184">
        <ele>270.1</ele>
        <time>2022-06-29T18:19:48.022Z</time>
    </trkpt>
    <trkpt lat="56.526537" lon="60.766166">
        <ele>271.1</ele>
        <time>2022-06-29T18:19:49.022Z</time>
    </trkpt>
    <trkpt lat="56.526506" lon="60.766131">
        <ele>271.1</ele>
        <time>2022-06-29T18:19:50.022Z</time>
    </trkpt>
    <trkpt lat="56.526475" lon="60.766097">
        <ele>271.1</ele>
        <time>2022-06-29T18:19:51.022Z</time>
    </trkpt>
    <trkpt lat="56.526444" lon="60.766063">
        <ele>272.1</ele>
        <time>2022-06-29T18:20:29.022Z</time>
    </trkpt>
    <trkpt lat="56.526413" lon="60.766029">
        <ele>272.1</ele>
        <time>2022-06-29T18:20:30.022Z</time>
    </trkpt>
    <trkpt lat="56.526373" lon="60.765993">
        <ele>272.1</ele>
        <time>2022-06-29T18:20:31.022Z</time>
    </trkpt>
    <trkpt lat="56.526368" lon="60.765985">
        <ele>272.1</ele>
        <time>2022-06-29T18:20:32.022Z</time>
    </trkpt>
    <trkpt lat="56.526363" lon="60.765977">
        <ele>272.1</ele>
        <time>2022-06-29T18:20:33.022Z</time>
    </trkpt>
    <trkpt lat="56.526357" lon="60.765968">
        <ele>273.1</ele>
        <time>2022-06-29T18:20:34.022Z</time>
    </trkpt>
    <trkpt lat="56.526352" lon="60.76596">
        <ele>273.1</ele>
        <time>2022-06-29T18:20:35.022Z</time>
    </trkpt>
    <trkpt lat="56.526341" lon="60.765942">
        <ele>273.1</ele>
        <time>2022-06-29T18:20:36.022Z</time>
    </trkpt>
    <trkpt lat="56.52632" lon="60.765885">
        <ele>273.1</ele>
        <time>2022-06-29T18:20:37.022Z</time>
    </trkpt>
    <trkpt lat="56.526321" lon="60.76587">
        <ele>273.1</ele>
        <time>2022-06-29T18:20:38.022Z</time>
    </trkpt>
    <trkpt lat="56.526311" lon="60.765857">
        <ele>273.1</ele>
        <time>2022-06-29T18:20:39.022Z</time>
    </trkpt>
    <trkpt lat="56.526303" lon="60.765847">
        <ele>273.1</ele>
        <time>2022-06-29T18:20:40.022Z</time>
    </trkpt>
    <trkpt lat="56.526278" lon="60.765839">
        <ele>273.1</ele>
        <time>2022-06-29T18:20:41.022Z</time>
    </trkpt>
    <trkpt lat="56.526264" lon="60.765831">
        <ele>274.1</ele>
        <time>2022-06-29T18:20:42.022Z</time>
    </trkpt>
    <trkpt lat="56.526225" lon="60.765816">
        <ele>274.1</ele>
        <time>2022-06-29T18:20:43.022Z</time>
    </trkpt>
    <trkpt lat="56.526192" lon="60.765799">
        <ele>274.1</ele>
        <time>2022-06-29T18:20:44.022Z</time>
    </trkpt>
    <trkpt lat="56.526161" lon="60.765774">
        <ele>275.1</ele>
        <time>2022-06-29T18:20:45.022Z</time>
    </trkpt>
    <trkpt lat="56.526127" lon="60.765762">
        <ele>275.1</ele>
        <time>2022-06-29T18:20:46.022Z</time>
    </trkpt>
    <trkpt lat="56.526083" lon="60.765746">
        <ele>275.1</ele>
        <time>2022-06-29T18:20:47.022Z</time>
    </trkpt>
    <trkpt lat="56.526049" lon="60.765738">
        <ele>275.1</ele>
        <time>2022-06-29T18:20:48.022Z</time>
    </trkpt>
    <trkpt lat="56.526017" lon="60.765729">
        <ele>275.1</ele>
        <time>2022-06-29T18:20:49.022Z</time>
    </trkpt>
    <trkpt lat="56.525988" lon="60.765713">
        <ele>275.1</ele>
        <time>2022-06-29T18:20:50.022Z</time>
    </trkpt>
    <trkpt lat="56.525958" lon="60.765696">
        <ele>276.1</ele>
        <time>2022-06-29T18:20:51.022Z</time>
    </trkpt>
    <trkpt lat="56.525924" lon="60.765679">
        <ele>276.1</ele>
        <time>2022-06-29T18:20:52.022Z</time>
    </trkpt>
    <trkpt lat="56.525893" lon="60.765676">
        <ele>276.1</ele>
        <time>2022-06-29T18:20:53.022Z</time>
    </trkpt>
    <trkpt lat="56.525865" lon="60.765668">
        <ele>276.1</ele>
        <time>2022-06-29T18:20:54.022Z</time>
    </trkpt>
    <trkpt lat="56.525854" lon="60.76566">
        <ele>276.1</ele>
        <time>2022-06-29T18:20:55.022Z</time>
    </trkpt>
    <trkpt lat="56.525817" lon="60.765652">
        <ele>276.1</ele>
        <time>2022-06-29T18:20:56.022Z</time>
    </trkpt>
    <trkpt lat="56.525805" lon="60.765651">
        <ele>276.1</ele>
        <time>2022-06-29T18:20:57.022Z</time>
    </trkpt>
    <trkpt lat="56.525774" lon="60.765665">
        <ele>277.1</ele>
        <time>2022-06-29T18:20:58.022Z</time>
    </trkpt>
    <trkpt lat="56.525742" lon="60.765659">
        <ele>277.1</ele>
        <time>2022-06-29T18:20:59.022Z</time>
    </trkpt>
    <trkpt lat="56.525714" lon="60.765653">
        <ele>277.1</ele>
        <time>2022-06-29T18:21:00.022Z</time>
    </trkpt>
    <trkpt lat="56.525684" lon="60.765656">
        <ele>277.1</ele>
        <time>2022-06-29T18:21:01.022Z</time>
    </trkpt>
    <trkpt lat="56.525653" lon="60.765648">
        <ele>277.1</ele>
        <time>2022-06-29T18:21:02.022Z</time>
    </trkpt>
    <trkpt lat="56.525624" lon="60.765651">
        <ele>277.1</ele>
        <time>2022-06-29T18:21:03.022Z</time>
    </trkpt>
    <trkpt lat="56.525597" lon="60.765643">
        <ele>278.1</ele>
        <time>2022-06-29T18:21:04.022Z</time>
    </trkpt>
    <trkpt lat="56.52558" lon="60.765644">
        <ele>278.1</ele>
        <time>2022-06-29T18:21:05.022Z</time>
    </trkpt>
    <trkpt lat="56.525538" lon="60.765645">
        <ele>278.1</ele>
        <time>2022-06-29T18:21:06.022Z</time>
    </trkpt>
    <trkpt lat="56.525501" lon="60.765634">
        <ele>279.1</ele>
        <time>2022-06-29T18:21:07.022Z</time>
    </trkpt>
    <trkpt lat="56.525469" lon="60.76563">
        <ele>279.1</ele>
        <time>2022-06-29T18:21:08.022Z</time>
    </trkpt>
    <trkpt lat="56.525442" lon="60.765641">
        <ele>279.1</ele>
        <time>2022-06-29T18:21:09.022Z</time>
    </trkpt>
    <trkpt lat="56.525414" lon="60.765647">
        <ele>279.1</ele>
        <time>2022-06-29T18:21:10.022Z</time>
    </trkpt>
    <trkpt lat="56.525384" lon="60.765647">
        <ele>280.1</ele>
        <time>2022-06-29T18:21:11.022Z</time>
    </trkpt>
    <trkpt lat="56.525349" lon="60.765647">
        <ele>280.1</ele>
        <time>2022-06-29T18:21:12.022Z</time>
    </trkpt>
    <trkpt lat="56.525315" lon="60.765643">
        <ele>281.1</ele>
        <time>2022-06-29T18:21:13.022Z</time>
    </trkpt>
    <trkpt lat="56.525281" lon="60.765656">
        <ele>281.1</ele>
        <time>2022-06-29T18:21:14.022Z</time>
    </trkpt>
    <trkpt lat="56.525264" lon="60.765653">
        <ele>281.1</ele>
        <time>2022-06-29T18:21:15.022Z</time>
    </trkpt>
    <trkpt lat="56.525221" lon="60.765641">
        <ele>282.1</ele>
        <time>2022-06-29T18:21:16.022Z</time>
    </trkpt>
    <trkpt lat="56.525187" lon="60.765643">
        <ele>282.1</ele>
        <time>2022-06-29T18:21:17.022Z</time>
    </trkpt>
    <trkpt lat="56.52516" lon="60.765627">
        <ele>282.1</ele>
        <time>2022-06-29T18:21:18.022Z</time>
    </trkpt>
    <trkpt lat="56.525149" lon="60.765626">
        <ele>282.1</ele>
        <time>2022-06-29T18:21:19.022Z</time>
    </trkpt>
    <trkpt lat="56.525114" lon="60.765631">
        <ele>282.1</ele>
        <time>2022-06-29T18:21:20.022Z</time>
    </trkpt>
    <trkpt lat="56.525077" lon="60.765612">
        <ele>282.1</ele>
        <time>2022-06-29T18:21:21.022Z</time>
    </trkpt>
    <trkpt lat="56.525046" lon="60.765605">
        <ele>282.1</ele>
        <time>2022-06-29T18:21:22.022Z</time>
    </trkpt>
    <trkpt lat="56.525013" lon="60.765581">
        <ele>283.1</ele>
        <time>2022-06-29T18:21:23.022Z</time>
    </trkpt>
    <trkpt lat="56.524984" lon="60.765572">
        <ele>283.1</ele>
        <time>2022-06-29T18:21:24.022Z</time>
    </trkpt>
    <trkpt lat="56.524954" lon="60.765555">
        <ele>283.1</ele>
        <time>2022-06-29T18:21:25.022Z</time>
    </trkpt>
    <trkpt lat="56.524922" lon="60.765533">
        <ele>284.1</ele>
        <time>2022-06-29T18:21:26.022Z</time>
    </trkpt>
    <trkpt lat="56.524879" lon="60.76553">
        <ele>284.1</ele>
        <time>2022-06-29T18:21:27.022Z</time>
    </trkpt>
    <trkpt lat="56.524843" lon="60.765527">
        <ele>285.1</ele>
        <time>2022-06-29T18:21:28.022Z</time>
    </trkpt>
    <trkpt lat="56.524814" lon="60.765512">
        <ele>285.1</ele>
        <time>2022-06-29T18:21:29.022Z</time>
    </trkpt>
    <trkpt lat="56.524779" lon="60.765488">
        <ele>285.1</ele>
        <time>2022-06-29T18:21:30.022Z</time>
    </trkpt>
    <trkpt lat="56.524752" lon="60.76548">
        <ele>285.1</ele>
        <time>2022-06-29T18:21:31.022Z</time>
    </trkpt>
    <trkpt lat="56.524716" lon="60.765471">
        <ele>286.1</ele>
        <time>2022-06-29T18:21:32.022Z</time>
    </trkpt>
    <trkpt lat="56.524687" lon="60.765467">
        <ele>286.1</ele>
        <time>2022-06-29T18:21:33.022Z</time>
    </trkpt>
    <trkpt lat="56.524659" lon="60.765461">
        <ele>286.1</ele>
        <time>2022-06-29T18:21:34.022Z</time>
    </trkpt>
    <trkpt lat="56.524632" lon="60.765456">
        <ele>287.1</ele>
        <time>2022-06-29T18:21:35.022Z</time>
    </trkpt>
    <trkpt lat="56.524601" lon="60.765447">
        <ele>287.1</ele>
        <time>2022-06-29T18:21:36.022Z</time>
    </trkpt>
    <trkpt lat="56.524589" lon="60.765443">
        <ele>287.1</ele>
        <time>2022-06-29T18:21:37.022Z</time>
    </trkpt>
    <trkpt lat="56.524554" lon="60.76543">
        <ele>287.1</ele>
        <time>2022-06-29T18:21:38.022Z</time>
    </trkpt>
    <trkpt lat="56.524525" lon="60.765425">
        <ele>287.1</ele>
        <time>2022-06-29T18:21:39.022Z</time>
    </trkpt>
    <trkpt lat="56.524496" lon="60.765428">
        <ele>287.1</ele>
        <time>2022-06-29T18:21:40.022Z</time>
    </trkpt>
    <trkpt lat="56.524467" lon="60.765416">
        <ele>287.1</ele>
        <time>2022-06-29T18:21:41.022Z</time>
    </trkpt>
    <trkpt lat="56.524436" lon="60.765411">
        <ele>288.1</ele>
        <time>2022-06-29T18:21:42.022Z</time>
    </trkpt>
    <trkpt lat="56.524417" lon="60.765407">
        <ele>288.1</ele>
        <time>2022-06-29T18:21:43.022Z</time>
    </trkpt>
    <trkpt lat="56.524376" lon="60.765388">
        <ele>288.1</ele>
        <time>2022-06-29T18:21:44.022Z</time>
    </trkpt>
    <trkpt lat="56.524346" lon="60.765376">
        <ele>289.1</ele>
        <time>2022-06-29T18:21:45.022Z</time>
    </trkpt>
    <trkpt lat="56.524334" lon="60.765369">
        <ele>289.1</ele>
        <time>2022-06-29T18:21:46.022Z</time>
    </trkpt>
    <trkpt lat="56.524297" lon="60.765356">
        <ele>289.1</ele>
        <time>2022-06-29T18:21:47.022Z</time>
    </trkpt>
    <trkpt lat="56.52429" lon="60.76535">
        <ele>289.1</ele>
        <time>2022-06-29T18:21:48.022Z</time>
    </trkpt>
    <trkpt lat="56.52426" lon="60.765326">
        <ele>290.1</ele>
        <time>2022-06-29T18:21:49.022Z</time>
    </trkpt>
    <trkpt lat="56.524232" lon="60.765333">
        <ele>290.1</ele>
        <time>2022-06-29T18:21:50.022Z</time>
    </trkpt>
    <trkpt lat="56.524203" lon="60.765337">
        <ele>290.1</ele>
        <time>2022-06-29T18:21:51.022Z</time>
    </trkpt>
    <trkpt lat="56.524192" lon="60.765335">
        <ele>290.1</ele>
        <time>2022-06-29T18:21:52.022Z</time>
    </trkpt>
    <trkpt lat="56.524157" lon="60.76534">
        <ele>291.1</ele>
        <time>2022-06-29T18:21:53.022Z</time>
    </trkpt>
    <trkpt lat="56.52414" lon="60.765336">
        <ele>291.1</ele>
        <time>2022-06-29T18:21:54.022Z</time>
    </trkpt>
    <trkpt lat="56.524104" lon="60.765323">
        <ele>291.1</ele>
        <time>2022-06-29T18:21:55.022Z</time>
    </trkpt>
    <trkpt lat="56.524075" lon="60.765322">
        <ele>291.1</ele>
        <time>2022-06-29T18:21:56.022Z</time>
    </trkpt>
    <trkpt lat="56.524039" lon="60.765316">
        <ele>291.1</ele>
        <time>2022-06-29T18:21:57.022Z</time>
    </trkpt>
    <trkpt lat="56.524023" lon="60.765313">
        <ele>291.1</ele>
        <time>2022-06-29T18:21:58.022Z</time>
    </trkpt>
    <trkpt lat="56.523995" lon="60.765311">
        <ele>291.1</ele>
        <time>2022-06-29T18:21:59.022Z</time>
    </trkpt>
    <trkpt lat="56.523961" lon="60.76531">
        <ele>292.1</ele>
        <time>2022-06-29T18:22:00.022Z</time>
    </trkpt>
    <trkpt lat="56.523935" lon="60.765295">
        <ele>292.1</ele>
        <time>2022-06-29T18:22:01.022Z</time>
    </trkpt>
    <trkpt lat="56.523922" lon="60.765297">
        <ele>292.1</ele>
        <time>2022-06-29T18:22:02.022Z</time>
    </trkpt>
    <trkpt lat="56.523893" lon="60.765305">
        <ele>293.1</ele>
        <time>2022-06-29T18:22:03.022Z</time>
    </trkpt>
    <trkpt lat="56.523876" lon="60.765302">
        <ele>293.1</ele>
        <time>2022-06-29T18:22:04.022Z</time>
    </trkpt>
    <trkpt lat="56.523841" lon="60.765279">
        <ele>293.1</ele>
        <time>2022-06-29T18:22:05.022Z</time>
    </trkpt>
    <trkpt lat="56.523823" lon="60.765285">
        <ele>293.1</ele>
        <time>2022-06-29T18:22:06.022Z</time>
    </trkpt>
    <trkpt lat="56.52379" lon="60.765303">
        <ele>293.1</ele>
        <time>2022-06-29T18:22:07.022Z</time>
    </trkpt>
    <trkpt lat="56.523772" lon="60.765309">
        <ele>293.1</ele>
        <time>2022-06-29T18:22:08.022Z</time>
    </trkpt>
    <trkpt lat="56.523739" lon="60.765311">
        <ele>293.1</ele>
        <time>2022-06-29T18:22:09.022Z</time>
    </trkpt>
    <trkpt lat="56.523722" lon="60.765311">
        <ele>293.1</ele>
        <time>2022-06-29T18:22:10.022Z</time>
    </trkpt>
    <trkpt lat="56.52368" lon="60.7653">
        <ele>294.1</ele>
        <time>2022-06-29T18:22:11.022Z</time>
    </trkpt>
    <trkpt lat="56.523672" lon="60.7653">
        <ele>294.1</ele>
        <time>2022-06-29T18:22:12.022Z</time>
    </trkpt>
    <trkpt lat="56.523641" lon="60.765313">
        <ele>294.1</ele>
        <time>2022-06-29T18:22:13.022Z</time>
    </trkpt>
    <trkpt lat="56.523631" lon="60.765309">
        <ele>294.1</ele>
        <time>2022-06-29T18:22:14.022Z</time>
    </trkpt>
    <trkpt lat="56.523601" lon="60.76529">
        <ele>294.1</ele>
        <time>2022-06-29T18:22:15.022Z</time>
    </trkpt>
    <trkpt lat="56.523571" lon="60.765288">
        <ele>294.1</ele>
        <time>2022-06-29T18:22:16.022Z</time>
    </trkpt>
    <trkpt lat="56.523545" lon="60.765296">
        <ele>294.1</ele>
        <time>2022-06-29T18:22:17.022Z</time>
    </trkpt>
    <trkpt lat="56.523536" lon="60.765294">
        <ele>294.1</ele>
        <time>2022-06-29T18:22:18.022Z</time>
    </trkpt>
    <trkpt lat="56.523505" lon="60.765275">
        <ele>294.1</ele>
        <time>2022-06-29T18:22:19.022Z</time>
    </trkpt>
    <trkpt lat="56.523496" lon="60.765267">
        <ele>294.1</ele>
        <time>2022-06-29T18:22:20.022Z</time>
    </trkpt>
    <trkpt lat="56.523468" lon="60.765239">
        <ele>294.1</ele>
        <time>2022-06-29T18:22:21.022Z</time>
    </trkpt>
    <trkpt lat="56.523458" lon="60.765238">
        <ele>294.1</ele>
        <time>2022-06-29T18:22:22.022Z</time>
    </trkpt>
    <trkpt lat="56.523428" lon="60.765215">
        <ele>294.1</ele>
        <time>2022-06-29T18:22:23.022Z</time>
    </trkpt>
    <trkpt lat="56.5234" lon="60.76519">
        <ele>294.1</ele>
        <time>2022-06-29T18:22:24.022Z</time>
    </trkpt>
    <trkpt lat="56.523372" lon="60.765186">
        <ele>294.1</ele>
        <time>2022-06-29T18:22:25.022Z</time>
    </trkpt>
    <trkpt lat="56.523359" lon="60.765183">
        <ele>294.1</ele>
        <time>2022-06-29T18:22:26.022Z</time>
    </trkpt>
    <trkpt lat="56.523325" lon="60.765169">
        <ele>294.1</ele>
        <time>2022-06-29T18:22:27.022Z</time>
    </trkpt>
    <trkpt lat="56.523313" lon="60.765165">
        <ele>294.1</ele>
        <time>2022-06-29T18:22:28.022Z</time>
    </trkpt>
    <trkpt lat="56.523286" lon="60.765156">
        <ele>294.1</ele>
        <time>2022-06-29T18:22:29.022Z</time>
    </trkpt>
    <trkpt lat="56.523258" lon="60.765144">
        <ele>294.1</ele>
        <time>2022-06-29T18:22:30.022Z</time>
    </trkpt>
    <trkpt lat="56.523231" lon="60.765134">
        <ele>294.1</ele>
        <time>2022-06-29T18:22:31.022Z</time>
    </trkpt>
    <trkpt lat="56.523204" lon="60.765116">
        <ele>294.1</ele>
        <time>2022-06-29T18:22:32.022Z</time>
    </trkpt>
    <trkpt lat="56.523169" lon="60.765127">
        <ele>294.1</ele>
        <time>2022-06-29T18:22:33.022Z</time>
    </trkpt>
    <trkpt lat="56.52316" lon="60.765124">
        <ele>294.1</ele>
        <time>2022-06-29T18:22:34.022Z</time>
    </trkpt>
    <trkpt lat="56.52313" lon="60.765119">
        <ele>294.1</ele>
        <time>2022-06-29T18:22:35.022Z</time>
    </trkpt>
    <trkpt lat="56.52312" lon="60.765116">
        <ele>294.1</ele>
        <time>2022-06-29T18:22:36.022Z</time>
    </trkpt>
    <trkpt lat="56.523094" lon="60.765115">
        <ele>294.1</ele>
        <time>2022-06-29T18:22:37.022Z</time>
    </trkpt>
    <trkpt lat="56.523087" lon="60.765116">
        <ele>294.1</ele>
        <time>2022-06-29T18:22:38.022Z</time>
    </trkpt>
    <trkpt lat="56.523054" lon="60.765111">
        <ele>294.1</ele>
        <time>2022-06-29T18:22:39.022Z</time>
    </trkpt>
    <trkpt lat="56.523042" lon="60.765106">
        <ele>294.1</ele>
        <time>2022-06-29T18:22:40.022Z</time>
    </trkpt>
    <trkpt lat="56.523007" lon="60.765102">
        <ele>294.1</ele>
        <time>2022-06-29T18:22:41.022Z</time>
    </trkpt>
    <trkpt lat="56.522989" lon="60.765106">
        <ele>294.1</ele>
        <time>2022-06-29T18:22:42.022Z</time>
    </trkpt>
    <trkpt lat="56.52296" lon="60.765112">
        <ele>294.1</ele>
        <time>2022-06-29T18:22:43.022Z</time>
    </trkpt>
    <trkpt lat="56.52295" lon="60.76511">
        <ele>294.1</ele>
        <time>2022-06-29T18:22:44.022Z</time>
    </trkpt>
    <trkpt lat="56.522921" lon="60.7651">
        <ele>294.1</ele>
        <time>2022-06-29T18:22:45.022Z</time>
    </trkpt>
    <trkpt lat="56.522909" lon="60.765095">
        <ele>294.1</ele>
        <time>2022-06-29T18:22:46.022Z</time>
    </trkpt>
    <trkpt lat="56.522874" lon="60.765079">
        <ele>294.1</ele>
        <time>2022-06-29T18:22:47.022Z</time>
    </trkpt>
    <trkpt lat="56.522863" lon="60.765077">
        <ele>294.1</ele>
        <time>2022-06-29T18:22:48.022Z</time>
    </trkpt>
    <trkpt lat="56.522826" lon="60.765064">
        <ele>295.1</ele>
        <time>2022-06-29T18:22:49.022Z</time>
    </trkpt>
    <trkpt lat="56.522815" lon="60.765059">
        <ele>295.1</ele>
        <time>2022-06-29T18:22:50.022Z</time>
    </trkpt>
    <trkpt lat="56.522784" lon="60.765049">
        <ele>295.1</ele>
        <time>2022-06-29T18:22:51.022Z</time>
    </trkpt>
    <trkpt lat="56.522775" lon="60.765044">
        <ele>295.1</ele>
        <time>2022-06-29T18:22:52.022Z</time>
    </trkpt>
    <trkpt lat="56.522741" lon="60.765049">
        <ele>294.1</ele>
        <time>2022-06-29T18:22:53.022Z</time>
    </trkpt>
    <trkpt lat="56.522723" lon="60.765033">
        <ele>294.1</ele>
        <time>2022-06-29T18:22:54.022Z</time>
    </trkpt>
    <trkpt lat="56.522707" lon="60.765033">
        <ele>294.1</ele>
        <time>2022-06-29T18:22:55.022Z</time>
    </trkpt>
    <trkpt lat="56.522698" lon="60.765033">
        <ele>294.1</ele>
        <time>2022-06-29T18:22:56.022Z</time>
    </trkpt>
    <trkpt lat="56.522666" lon="60.765041">
        <ele>294.1</ele>
        <time>2022-06-29T18:22:57.022Z</time>
    </trkpt>
    <trkpt lat="56.522655" lon="60.765042">
        <ele>294.1</ele>
        <time>2022-06-29T18:22:58.022Z</time>
    </trkpt>
    <trkpt lat="56.522622" lon="60.76504">
        <ele>294.1</ele>
        <time>2022-06-29T18:22:59.022Z</time>
    </trkpt>
    <trkpt lat="56.522606" lon="60.765035">
        <ele>294.1</ele>
        <time>2022-06-29T18:23:00.022Z</time>
    </trkpt>
    <trkpt lat="56.522599" lon="60.765033">
        <ele>294.1</ele>
        <time>2022-06-29T18:23:01.022Z</time>
    </trkpt>
    <trkpt lat="56.522596" lon="60.765029">
        <ele>294.1</ele>
        <time>2022-06-29T18:23:02.022Z</time>
    </trkpt>
    <trkpt lat="56.522583" lon="60.765036">
        <ele>294.1</ele>
        <time>2022-06-29T18:23:03.022Z</time>
    </trkpt>
    <trkpt lat="56.522564" lon="60.765038">
        <ele>294.1</ele>
        <time>2022-06-29T18:23:04.022Z</time>
    </trkpt>
    <trkpt lat="56.522553" lon="60.76504">
        <ele>294.1</ele>
        <time>2022-06-29T18:23:05.022Z</time>
    </trkpt>
    <trkpt lat="56.522541" lon="60.765042">
        <ele>294.1</ele>
        <time>2022-06-29T18:23:06.022Z</time>
    </trkpt>
    <trkpt lat="56.522527" lon="60.765036">
        <ele>294.1</ele>
        <time>2022-06-29T18:23:07.022Z</time>
    </trkpt>
    <trkpt lat="56.522516" lon="60.765034">
        <ele>294.1</ele>
        <time>2022-06-29T18:23:08.022Z</time>
    </trkpt>
    <trkpt lat="56.522484" lon="60.76504">
        <ele>294.1</ele>
        <time>2022-06-29T18:23:09.022Z</time>
    </trkpt>
    <trkpt lat="56.522471" lon="60.765041">
        <ele>294.1</ele>
        <time>2022-06-29T18:23:10.022Z</time>
    </trkpt>
    <trkpt lat="56.522458" lon="60.765043">
        <ele>294.1</ele>
        <time>2022-06-29T18:23:11.022Z</time>
    </trkpt>
    <trkpt lat="56.522436" lon="60.76504">
        <ele>294.1</ele>
        <time>2022-06-29T18:23:12.022Z</time>
    </trkpt>
    <trkpt lat="56.522429" lon="60.765051">
        <ele>294.1</ele>
        <time>2022-06-29T18:23:13.022Z</time>
    </trkpt>
    <trkpt lat="56.522401" lon="60.765069">
        <ele>294.1</ele>
        <time>2022-06-29T18:23:14.022Z</time>
    </trkpt>
    <trkpt lat="56.522392" lon="60.765067">
        <ele>294.1</ele>
        <time>2022-06-29T18:23:15.022Z</time>
    </trkpt>
    <trkpt lat="56.522383" lon="60.765066">
        <ele>294.1</ele>
        <time>2022-06-29T18:23:16.022Z</time>
    </trkpt>
    <trkpt lat="56.522357" lon="60.765061">
        <ele>293.1</ele>
        <time>2022-06-29T18:23:17.022Z</time>
    </trkpt>
    <trkpt lat="56.522345" lon="60.765057">
        <ele>293.1</ele>
        <time>2022-06-29T18:23:18.022Z</time>
    </trkpt>
    <trkpt lat="56.522316" lon="60.765051">
        <ele>293.1</ele>
        <time>2022-06-29T18:23:19.022Z</time>
    </trkpt>
    <trkpt lat="56.522295" lon="60.765026">
        <ele>293.1</ele>
        <time>2022-06-29T18:23:20.022Z</time>
    </trkpt>
    <trkpt lat="56.522274" lon="60.765001">
        <ele>293.1</ele>
        <time>2022-06-29T18:23:21.022Z</time>
    </trkpt>
    <trkpt lat="56.522253" lon="60.764977">
        <ele>293.1</ele>
        <time>2022-06-29T18:24:27.022Z</time>
    </trkpt>
    <trkpt lat="56.522231" lon="60.764952">
        <ele>293.1</ele>
        <time>2022-06-29T18:24:29.022Z</time>
    </trkpt>
    <trkpt lat="56.52221" lon="60.764927">
        <ele>293.1</ele>
        <time>2022-06-29T18:24:30.022Z</time>
    </trkpt>
    <trkpt lat="56.522189" lon="60.764902">
        <ele>293.1</ele>
        <time>2022-06-29T18:24:31.022Z</time>
    </trkpt>
    <trkpt lat="56.522166" lon="60.764864">
        <ele>293.1</ele>
        <time>2022-06-29T18:24:32.022Z</time>
    </trkpt>
    <trkpt lat="56.522159" lon="60.764846">
        <ele>293.1</ele>
        <time>2022-06-29T18:24:33.022Z</time>
    </trkpt>
    <trkpt lat="56.522151" lon="60.764823">
        <ele>293.1</ele>
        <time>2022-06-29T18:24:34.022Z</time>
    </trkpt>
    <trkpt lat="56.522137" lon="60.764806">
        <ele>293.1</ele>
        <time>2022-06-29T18:24:35.022Z</time>
    </trkpt>
    <trkpt lat="56.522117" lon="60.764806">
        <ele>293.1</ele>
        <time>2022-06-29T18:24:36.022Z</time>
    </trkpt>
    <trkpt lat="56.522114" lon="60.764797">
        <ele>293.1</ele>
        <time>2022-06-29T18:24:37.022Z</time>
    </trkpt>
    <trkpt lat="56.522104" lon="60.764799">
        <ele>293.1</ele>
        <time>2022-06-29T18:24:38.022Z</time>
    </trkpt>
    <trkpt lat="56.522089" lon="60.764794">
        <ele>293.1</ele>
        <time>2022-06-29T18:24:39.022Z</time>
    </trkpt>
    <trkpt lat="56.522072" lon="60.764801">
        <ele>293.1</ele>
        <time>2022-06-29T18:24:40.022Z</time>
    </trkpt>
    <trkpt lat="56.522055" lon="60.764805">
        <ele>293.1</ele>
        <time>2022-06-29T18:24:41.022Z</time>
    </trkpt>
    <trkpt lat="56.522038" lon="60.764811">
        <ele>293.1</ele>
        <time>2022-06-29T18:24:42.022Z</time>
    </trkpt>
    <trkpt lat="56.522024" lon="60.764812">
        <ele>293.1</ele>
        <time>2022-06-29T18:24:43.022Z</time>
    </trkpt>
    <trkpt lat="56.522005" lon="60.764806">
        <ele>293.1</ele>
        <time>2022-06-29T18:24:44.022Z</time>
    </trkpt>
    <trkpt lat="56.521989" lon="60.764797">
        <ele>293.1</ele>
        <time>2022-06-29T18:24:45.022Z</time>
    </trkpt>
    <trkpt lat="56.521975" lon="60.764793">
        <ele>293.1</ele>
        <time>2022-06-29T18:24:46.022Z</time>
    </trkpt>
    <trkpt lat="56.521936" lon="60.76478">
        <ele>293.1</ele>
        <time>2022-06-29T18:24:47.022Z</time>
    </trkpt>
    <trkpt lat="56.521927" lon="60.76477">
        <ele>293.1</ele>
        <time>2022-06-29T18:24:48.022Z</time>
    </trkpt>
    <trkpt lat="56.5219" lon="60.764743">
        <ele>293.1</ele>
        <time>2022-06-29T18:24:49.022Z</time>
    </trkpt>
    <trkpt lat="56.521892" lon="60.764724">
        <ele>293.1</ele>
        <time>2022-06-29T18:24:50.022Z</time>
    </trkpt>
    <trkpt lat="56.521869" lon="60.764677">
        <ele>293.1</ele>
        <time>2022-06-29T18:24:51.022Z</time>
    </trkpt>
    <trkpt lat="56.52184" lon="60.764652">
        <ele>293.1</ele>
        <time>2022-06-29T18:24:52.022Z</time>
    </trkpt>
    <trkpt lat="56.521807" lon="60.764608">
        <ele>293.1</ele>
        <time>2022-06-29T18:24:53.022Z</time>
    </trkpt>
    <trkpt lat="56.521784" lon="60.764572">
        <ele>293.1</ele>
        <time>2022-06-29T18:24:54.022Z</time>
    </trkpt>
    <trkpt lat="56.521767" lon="60.764563">
        <ele>293.1</ele>
        <time>2022-06-29T18:24:55.022Z</time>
    </trkpt>
    <trkpt lat="56.521731" lon="60.764543">
        <ele>293.1</ele>
        <time>2022-06-29T18:24:56.022Z</time>
    </trkpt>
    <trkpt lat="56.521726" lon="60.764542">
        <ele>293.1</ele>
        <time>2022-06-29T18:24:57.022Z</time>
    </trkpt>
    <trkpt lat="56.521702" lon="60.764523">
        <ele>294.1</ele>
        <time>2022-06-29T18:24:58.022Z</time>
    </trkpt>
    <trkpt lat="56.521688" lon="60.764516">
        <ele>294.1</ele>
        <time>2022-06-29T18:24:59.022Z</time>
    </trkpt>
    <trkpt lat="56.521652" lon="60.764497">
        <ele>294.1</ele>
        <time>2022-06-29T18:25:00.022Z</time>
    </trkpt>
    <trkpt lat="56.521641" lon="60.764494">
        <ele>294.1</ele>
        <time>2022-06-29T18:25:01.022Z</time>
    </trkpt>
    <trkpt lat="56.52161" lon="60.764481">
        <ele>294.1</ele>
        <time>2022-06-29T18:25:02.022Z</time>
    </trkpt>
    <trkpt lat="56.521599" lon="60.764479">
        <ele>294.1</ele>
        <time>2022-06-29T18:25:03.022Z</time>
    </trkpt>
    <trkpt lat="56.521578" lon="60.764473">
        <ele>294.1</ele>
        <time>2022-06-29T18:25:04.022Z</time>
    </trkpt>
    <trkpt lat="56.521557" lon="60.764464">
        <ele>294.1</ele>
        <time>2022-06-29T18:25:05.022Z</time>
    </trkpt>
    <trkpt lat="56.521554" lon="60.764445">
        <ele>294.1</ele>
        <time>2022-06-29T18:25:06.022Z</time>
    </trkpt>
    <trkpt lat="56.521541" lon="60.764442">
        <ele>294.1</ele>
        <time>2022-06-29T18:25:07.022Z</time>
    </trkpt>
    <trkpt lat="56.521504" lon="60.76444">
        <ele>294.1</ele>
        <time>2022-06-29T18:25:08.022Z</time>
    </trkpt>
    <trkpt lat="56.521497" lon="60.764436">
        <ele>294.1</ele>
        <time>2022-06-29T18:25:09.022Z</time>
    </trkpt>
    <trkpt lat="56.521491" lon="60.764432">
        <ele>294.1</ele>
        <time>2022-06-29T18:25:10.022Z</time>
    </trkpt>
    <trkpt lat="56.52146" lon="60.76442">
        <ele>294.1</ele>
        <time>2022-06-29T18:25:11.022Z</time>
    </trkpt>
    <trkpt lat="56.521444" lon="60.764409">
        <ele>294.1</ele>
        <time>2022-06-29T18:25:12.022Z</time>
    </trkpt>
    <trkpt lat="56.52143" lon="60.76439">
        <ele>294.1</ele>
        <time>2022-06-29T18:25:13.022Z</time>
    </trkpt>
    <trkpt lat="56.521419" lon="60.764385">
        <ele>294.1</ele>
        <time>2022-06-29T18:25:14.022Z</time>
    </trkpt>
    <trkpt lat="56.521404" lon="60.764368">
        <ele>294.1</ele>
        <time>2022-06-29T18:25:15.022Z</time>
    </trkpt>
    <trkpt lat="56.521383" lon="60.764372">
        <ele>294.1</ele>
        <time>2022-06-29T18:25:16.022Z</time>
    </trkpt>
    <trkpt lat="56.521369" lon="60.764369">
        <ele>294.1</ele>
        <time>2022-06-29T18:25:17.022Z</time>
    </trkpt>
    <trkpt lat="56.521362" lon="60.764373">
        <ele>294.1</ele>
        <time>2022-06-29T18:25:18.022Z</time>
    </trkpt>
    <trkpt lat="56.521332" lon="60.764377">
        <ele>294.1</ele>
        <time>2022-06-29T18:25:19.022Z</time>
    </trkpt>
    <trkpt lat="56.521298" lon="60.764364">
        <ele>294.1</ele>
        <time>2022-06-29T18:25:20.022Z</time>
    </trkpt>
    <trkpt lat="56.521286" lon="60.764358">
        <ele>294.1</ele>
        <time>2022-06-29T18:25:21.022Z</time>
    </trkpt>
    <trkpt lat="56.521258" lon="60.764354">
        <ele>294.1</ele>
        <time>2022-06-29T18:25:22.022Z</time>
    </trkpt>
    <trkpt lat="56.521247" lon="60.76436">
        <ele>294.1</ele>
        <time>2022-06-29T18:25:23.022Z</time>
    </trkpt>
    <trkpt lat="56.52123" lon="60.76435">
        <ele>295.1</ele>
        <time>2022-06-29T18:25:24.022Z</time>
    </trkpt>
    <trkpt lat="56.521195" lon="60.764331">
        <ele>295.1</ele>
        <time>2022-06-29T18:25:25.022Z</time>
    </trkpt>
    <trkpt lat="56.521178" lon="60.764326">
        <ele>295.1</ele>
        <time>2022-06-29T18:25:26.022Z</time>
    </trkpt>
    <trkpt lat="56.521141" lon="60.764311">
        <ele>295.1</ele>
        <time>2022-06-29T18:25:27.022Z</time>
    </trkpt>
    <trkpt lat="56.52113" lon="60.764308">
        <ele>295.1</ele>
        <time>2022-06-29T18:25:28.022Z</time>
    </trkpt>
    <trkpt lat="56.521096" lon="60.764288">
        <ele>295.1</ele>
        <time>2022-06-29T18:25:29.022Z</time>
    </trkpt>
    <trkpt lat="56.521084" lon="60.764292">
        <ele>295.1</ele>
        <time>2022-06-29T18:25:30.022Z</time>
    </trkpt>
    <trkpt lat="56.521054" lon="60.764277">
        <ele>295.1</ele>
        <time>2022-06-29T18:25:31.022Z</time>
    </trkpt>
    <trkpt lat="56.521022" lon="60.764279">
        <ele>295.1</ele>
        <time>2022-06-29T18:25:32.022Z</time>
    </trkpt>
    <trkpt lat="56.521007" lon="60.764276">
        <ele>295.1</ele>
        <time>2022-06-29T18:25:33.022Z</time>
    </trkpt>
    <trkpt lat="56.52099" lon="60.764271">
        <ele>295.1</ele>
        <time>2022-06-29T18:25:34.022Z</time>
    </trkpt>
    <trkpt lat="56.520979" lon="60.764269">
        <ele>295.1</ele>
        <time>2022-06-29T18:25:35.022Z</time>
    </trkpt>
    <trkpt lat="56.520968" lon="60.764268">
        <ele>295.1</ele>
        <time>2022-06-29T18:25:36.022Z</time>
    </trkpt>
    <trkpt lat="56.520943" lon="60.76426">
        <ele>295.1</ele>
        <time>2022-06-29T18:25:37.022Z</time>
    </trkpt>
    <trkpt lat="56.520934" lon="60.764254">
        <ele>295.1</ele>
        <time>2022-06-29T18:25:38.022Z</time>
    </trkpt>
    <trkpt lat="56.520903" lon="60.764239">
        <ele>295.1</ele>
        <time>2022-06-29T18:25:39.022Z</time>
    </trkpt>
    <trkpt lat="56.520857" lon="60.764217">
        <ele>294.1</ele>
        <time>2022-06-29T18:25:40.022Z</time>
    </trkpt>
    <trkpt lat="56.520843" lon="60.764222">
        <ele>294.1</ele>
        <time>2022-06-29T18:25:41.022Z</time>
    </trkpt>
    <trkpt lat="56.520812" lon="60.764232">
        <ele>294.1</ele>
        <time>2022-06-29T18:25:42.022Z</time>
    </trkpt>
    <trkpt lat="56.520801" lon="60.764235">
        <ele>294.1</ele>
        <time>2022-06-29T18:25:43.022Z</time>
    </trkpt>
    <trkpt lat="56.52077" lon="60.764234">
        <ele>294.1</ele>
        <time>2022-06-29T18:25:44.022Z</time>
    </trkpt>
    <trkpt lat="56.520755" lon="60.764233">
        <ele>294.1</ele>
        <time>2022-06-29T18:25:45.022Z</time>
    </trkpt>
    <trkpt lat="56.520741" lon="60.764241">
        <ele>294.1</ele>
        <time>2022-06-29T18:25:46.022Z</time>
    </trkpt>
    <trkpt lat="56.520737" lon="60.764234">
        <ele>294.1</ele>
        <time>2022-06-29T18:25:47.022Z</time>
    </trkpt>
    <trkpt lat="56.520721" lon="60.764231">
        <ele>294.1</ele>
        <time>2022-06-29T18:25:48.022Z</time>
    </trkpt>
    <trkpt lat="56.520708" lon="60.764226">
        <ele>294.1</ele>
        <time>2022-06-29T18:25:49.022Z</time>
    </trkpt>
    <trkpt lat="56.520698" lon="60.764231">
        <ele>294.1</ele>
        <time>2022-06-29T18:25:50.022Z</time>
    </trkpt>
    <trkpt lat="56.520668" lon="60.764248">
        <ele>294.1</ele>
        <time>2022-06-29T18:25:51.022Z</time>
    </trkpt>
    <trkpt lat="56.520659" lon="60.76426">
        <ele>294.1</ele>
        <time>2022-06-29T18:25:52.022Z</time>
    </trkpt>
    <trkpt lat="56.520626" lon="60.764277">
        <ele>294.1</ele>
        <time>2022-06-29T18:25:53.022Z</time>
    </trkpt>
    <trkpt lat="56.520618" lon="60.764269">
        <ele>294.1</ele>
        <time>2022-06-29T18:25:54.022Z</time>
    </trkpt>
    <trkpt lat="56.520586" lon="60.764253">
        <ele>294.1</ele>
        <time>2022-06-29T18:25:55.022Z</time>
    </trkpt>
    <trkpt lat="56.520574" lon="60.764256">
        <ele>293.1</ele>
        <time>2022-06-29T18:25:56.022Z</time>
    </trkpt>
    <trkpt lat="56.520539" lon="60.764254">
        <ele>293.1</ele>
        <time>2022-06-29T18:25:57.022Z</time>
    </trkpt>
    <trkpt lat="56.520528" lon="60.764252">
        <ele>293.1</ele>
        <time>2022-06-29T18:25:58.022Z</time>
    </trkpt>
    <trkpt lat="56.520502" lon="60.764254">
        <ele>293.1</ele>
        <time>2022-06-29T18:25:59.022Z</time>
    </trkpt>
    <trkpt lat="56.520472" lon="60.76426">
        <ele>293.1</ele>
        <time>2022-06-29T18:26:00.022Z</time>
    </trkpt>
    <trkpt lat="56.520452" lon="60.764262">
        <ele>293.1</ele>
        <time>2022-06-29T18:26:01.022Z</time>
    </trkpt>
    <trkpt lat="56.520438" lon="60.764254">
        <ele>293.1</ele>
        <time>2022-06-29T18:26:02.022Z</time>
    </trkpt>
    <trkpt lat="56.520429" lon="60.764252">
        <ele>293.1</ele>
        <time>2022-06-29T18:26:03.022Z</time>
    </trkpt>
    <trkpt lat="56.5204" lon="60.764253">
        <ele>293.1</ele>
        <time>2022-06-29T18:26:04.022Z</time>
    </trkpt>
    <trkpt lat="56.520387" lon="60.764254">
        <ele>293.1</ele>
        <time>2022-06-29T18:26:05.022Z</time>
    </trkpt>
    <trkpt lat="56.520367" lon="60.764245">
        <ele>293.1</ele>
        <time>2022-06-29T18:26:06.022Z</time>
    </trkpt>
    <trkpt lat="56.520354" lon="60.764245">
        <ele>293.1</ele>
        <time>2022-06-29T18:26:07.022Z</time>
    </trkpt>
    <trkpt lat="56.520321" lon="60.764246">
        <ele>293.1</ele>
        <time>2022-06-29T18:26:08.022Z</time>
    </trkpt>
    <trkpt lat="56.520305" lon="60.764249">
        <ele>293.1</ele>
        <time>2022-06-29T18:26:09.022Z</time>
    </trkpt>
    <trkpt lat="56.520288" lon="60.764263">
        <ele>292.1</ele>
        <time>2022-06-29T18:26:10.022Z</time>
    </trkpt>
    <trkpt lat="56.520267" lon="60.764271">
        <ele>292.1</ele>
        <time>2022-06-29T18:26:11.022Z</time>
    </trkpt>
    <trkpt lat="56.520255" lon="60.764271">
        <ele>292.1</ele>
        <time>2022-06-29T18:26:12.022Z</time>
    </trkpt>
    <trkpt lat="56.520241" lon="60.764271">
        <ele>292.1</ele>
        <time>2022-06-29T18:26:13.022Z</time>
    </trkpt>
    <trkpt lat="56.520222" lon="60.764288">
        <ele>292.1</ele>
        <time>2022-06-29T18:26:14.022Z</time>
    </trkpt>
    <trkpt lat="56.520212" lon="60.764293">
        <ele>292.1</ele>
        <time>2022-06-29T18:26:15.022Z</time>
    </trkpt>
    <trkpt lat="56.520202" lon="60.764297">
        <ele>292.1</ele>
        <time>2022-06-29T18:26:16.022Z</time>
    </trkpt>
    <trkpt lat="56.520182" lon="60.764298">
        <ele>292.1</ele>
        <time>2022-06-29T18:26:17.022Z</time>
    </trkpt>
    <trkpt lat="56.520164" lon="60.764293">
        <ele>292.1</ele>
        <time>2022-06-29T18:26:18.022Z</time>
    </trkpt>
    <trkpt lat="56.520147" lon="60.7643">
        <ele>292.1</ele>
        <time>2022-06-29T18:26:19.022Z</time>
    </trkpt>
    <trkpt lat="56.52013" lon="60.764297">
        <ele>292.1</ele>
        <time>2022-06-29T18:26:20.022Z</time>
    </trkpt>
    <trkpt lat="56.520098" lon="60.7643">
        <ele>292.1</ele>
        <time>2022-06-29T18:26:21.022Z</time>
    </trkpt>
    <trkpt lat="56.52007" lon="60.764308">
        <ele>292.1</ele>
        <time>2022-06-29T18:26:22.022Z</time>
    </trkpt>
    <trkpt lat="56.520053" lon="60.764305">
        <ele>292.1</ele>
        <time>2022-06-29T18:26:23.022Z</time>
    </trkpt>
    <trkpt lat="56.520043" lon="60.764295">
        <ele>292.1</ele>
        <time>2022-06-29T18:26:24.022Z</time>
    </trkpt>
    <trkpt lat="56.520033" lon="60.76429">
        <ele>292.1</ele>
        <time>2022-06-29T18:26:25.022Z</time>
    </trkpt>
    <trkpt lat="56.520004" lon="60.764289">
        <ele>292.1</ele>
        <time>2022-06-29T18:26:26.022Z</time>
    </trkpt>
    <trkpt lat="56.519975" lon="60.764288">
        <ele>292.1</ele>
        <time>2022-06-29T18:26:27.022Z</time>
    </trkpt>
    <trkpt lat="56.519963" lon="60.764273">
        <ele>292.1</ele>
        <time>2022-06-29T18:26:28.022Z</time>
    </trkpt>
    <trkpt lat="56.519945" lon="60.764258">
        <ele>292.1</ele>
        <time>2022-06-29T18:26:29.022Z</time>
    </trkpt>
    <trkpt lat="56.519933" lon="60.764256">
        <ele>292.1</ele>
        <time>2022-06-29T18:26:30.022Z</time>
    </trkpt>
    <trkpt lat="56.519911" lon="60.76425">
        <ele>292.1</ele>
        <time>2022-06-29T18:26:31.022Z</time>
    </trkpt>
    <trkpt lat="56.519895" lon="60.764248">
        <ele>292.1</ele>
        <time>2022-06-29T18:26:32.022Z</time>
    </trkpt>
    <trkpt lat="56.519852" lon="60.764251">
        <ele>292.1</ele>
        <time>2022-06-29T18:26:33.022Z</time>
    </trkpt>
    <trkpt lat="56.519832" lon="60.764239">
        <ele>292.1</ele>
        <time>2022-06-29T18:26:34.022Z</time>
    </trkpt>
    <trkpt lat="56.519823" lon="60.764238">
        <ele>292.1</ele>
        <time>2022-06-29T18:26:35.022Z</time>
    </trkpt>
    <trkpt lat="56.519812" lon="60.764241">
        <ele>292.1</ele>
        <time>2022-06-29T18:26:36.022Z</time>
    </trkpt>
    <trkpt lat="56.519777" lon="60.764245">
        <ele>292.1</ele>
        <time>2022-06-29T18:26:37.022Z</time>
    </trkpt>
    <trkpt lat="56.519745" lon="60.764233">
        <ele>292.1</ele>
        <time>2022-06-29T18:26:38.022Z</time>
    </trkpt>
    <trkpt lat="56.519718" lon="60.764231">
        <ele>292.1</ele>
        <time>2022-06-29T18:26:39.022Z</time>
    </trkpt>
    <trkpt lat="56.519707" lon="60.764228">
        <ele>292.1</ele>
        <time>2022-06-29T18:26:40.022Z</time>
    </trkpt>
    <trkpt lat="56.519677" lon="60.764209">
        <ele>292.1</ele>
        <time>2022-06-29T18:26:41.022Z</time>
    </trkpt>
    <trkpt lat="56.519653" lon="60.764189">
        <ele>292.1</ele>
        <time>2022-06-29T18:26:42.022Z</time>
    </trkpt>
    <trkpt lat="56.519638" lon="60.764167">
        <ele>293.1</ele>
        <time>2022-06-29T18:26:43.022Z</time>
    </trkpt>
    <trkpt lat="56.519625" lon="60.764151">
        <ele>293.1</ele>
        <time>2022-06-29T18:26:44.022Z</time>
    </trkpt>
    <trkpt lat="56.519606" lon="60.764155">
        <ele>293.1</ele>
        <time>2022-06-29T18:26:45.022Z</time>
    </trkpt>
    <trkpt lat="56.519594" lon="60.764143">
        <ele>293.1</ele>
        <time>2022-06-29T18:26:46.022Z</time>
    </trkpt>
    <trkpt lat="56.519582" lon="60.764133">
        <ele>293.1</ele>
        <time>2022-06-29T18:26:47.022Z</time>
    </trkpt>
    <trkpt lat="56.519543" lon="60.764122">
        <ele>293.1</ele>
        <time>2022-06-29T18:26:48.022Z</time>
    </trkpt>
    <trkpt lat="56.519516" lon="60.76411">
        <ele>293.1</ele>
        <time>2022-06-29T18:26:49.022Z</time>
    </trkpt>
    <trkpt lat="56.519502" lon="60.764101">
        <ele>293.1</ele>
        <time>2022-06-29T18:26:50.022Z</time>
    </trkpt>
    <trkpt lat="56.51947" lon="60.764089">
        <ele>293.1</ele>
        <time>2022-06-29T18:26:51.022Z</time>
    </trkpt>
    <trkpt lat="56.519455" lon="60.764106">
        <ele>293.1</ele>
        <time>2022-06-29T18:26:52.022Z</time>
    </trkpt>
    <trkpt lat="56.519436" lon="60.764098">
        <ele>293.1</ele>
        <time>2022-06-29T18:26:53.022Z</time>
    </trkpt>
    <trkpt lat="56.519429" lon="60.764101">
        <ele>293.1</ele>
        <time>2022-06-29T18:26:54.022Z</time>
    </trkpt>
    <trkpt lat="56.519397" lon="60.764101">
        <ele>293.1</ele>
        <time>2022-06-29T18:26:55.022Z</time>
    </trkpt>
    <trkpt lat="56.519386" lon="60.764104">
        <ele>293.1</ele>
        <time>2022-06-29T18:26:56.022Z</time>
    </trkpt>
    <trkpt lat="56.51935" lon="60.764106">
        <ele>292.1</ele>
        <time>2022-06-29T18:26:57.022Z</time>
    </trkpt>
    <trkpt lat="56.519339" lon="60.764105">
        <ele>292.1</ele>
        <time>2022-06-29T18:26:58.022Z</time>
    </trkpt>
    <trkpt lat="56.51931" lon="60.764113">
        <ele>292.1</ele>
        <time>2022-06-29T18:26:59.022Z</time>
    </trkpt>
    <trkpt lat="56.5193" lon="60.764117">
        <ele>292.1</ele>
        <time>2022-06-29T18:27:00.022Z</time>
    </trkpt>
    <trkpt lat="56.519268" lon="60.764122">
        <ele>292.1</ele>
        <time>2022-06-29T18:27:01.022Z</time>
    </trkpt>
    <trkpt lat="56.51926" lon="60.764115">
        <ele>292.1</ele>
        <time>2022-06-29T18:27:02.022Z</time>
    </trkpt>
    <trkpt lat="56.519228" lon="60.764092">
        <ele>292.1</ele>
        <time>2022-06-29T18:27:03.022Z</time>
    </trkpt>
    <trkpt lat="56.519217" lon="60.764088">
        <ele>292.1</ele>
        <time>2022-06-29T18:27:04.022Z</time>
    </trkpt>
    <trkpt lat="56.519185" lon="60.764083">
        <ele>292.1</ele>
        <time>2022-06-29T18:27:05.022Z</time>
    </trkpt>
    <trkpt lat="56.519175" lon="60.764084">
        <ele>292.1</ele>
        <time>2022-06-29T18:27:06.022Z</time>
    </trkpt>
    <trkpt lat="56.519148" lon="60.764086">
        <ele>291.1</ele>
        <time>2022-06-29T18:27:07.022Z</time>
    </trkpt>
    <trkpt lat="56.519138" lon="60.764084">
        <ele>291.1</ele>
        <time>2022-06-29T18:27:08.022Z</time>
    </trkpt>
    <trkpt lat="56.519106" lon="60.764074">
        <ele>291.1</ele>
        <time>2022-06-29T18:27:09.022Z</time>
    </trkpt>
    <trkpt lat="56.519096" lon="60.764073">
        <ele>291.1</ele>
        <time>2022-06-29T18:27:10.022Z</time>
    </trkpt>
    <trkpt lat="56.51906" lon="60.76406">
        <ele>290.1</ele>
        <time>2022-06-29T18:27:11.022Z</time>
    </trkpt>
    <trkpt lat="56.519021" lon="60.764037">
        <ele>290.1</ele>
        <time>2022-06-29T18:27:12.022Z</time>
    </trkpt>
    <trkpt lat="56.518995" lon="60.764023">
        <ele>290.1</ele>
        <time>2022-06-29T18:27:13.022Z</time>
    </trkpt>
    <trkpt lat="56.518984" lon="60.764018">
        <ele>290.1</ele>
        <time>2022-06-29T18:27:14.022Z</time>
    </trkpt>
    <trkpt lat="56.518948" lon="60.764001">
        <ele>290.1</ele>
        <time>2022-06-29T18:27:15.022Z</time>
    </trkpt>
    <trkpt lat="56.518934" lon="60.763998">
        <ele>290.1</ele>
        <time>2022-06-29T18:27:16.022Z</time>
    </trkpt>
    <trkpt lat="56.518902" lon="60.76399">
        <ele>290.1</ele>
        <time>2022-06-29T18:27:17.022Z</time>
    </trkpt>
    <trkpt lat="56.518891" lon="60.763989">
        <ele>290.1</ele>
        <time>2022-06-29T18:27:18.022Z</time>
    </trkpt>
    <trkpt lat="56.51888" lon="60.763989">
        <ele>290.1</ele>
        <time>2022-06-29T18:27:19.022Z</time>
    </trkpt>
    <trkpt lat="56.518857" lon="60.763993">
        <ele>289.1</ele>
        <time>2022-06-29T18:27:20.022Z</time>
    </trkpt>
    <trkpt lat="56.518846" lon="60.764001">
        <ele>289.1</ele>
        <time>2022-06-29T18:27:21.022Z</time>
    </trkpt>
    <trkpt lat="56.518835" lon="60.764008">
        <ele>289.1</ele>
        <time>2022-06-29T18:27:22.022Z</time>
    </trkpt>
    <trkpt lat="56.518818" lon="60.764033">
        <ele>289.1</ele>
        <time>2022-06-29T18:27:23.022Z</time>
    </trkpt>
    <trkpt lat="56.518808" lon="60.764037">
        <ele>289.1</ele>
        <time>2022-06-29T18:27:24.022Z</time>
    </trkpt>
    <trkpt lat="56.518791" lon="60.764019">
        <ele>289.1</ele>
        <time>2022-06-29T18:27:25.022Z</time>
    </trkpt>
    <trkpt lat="56.518773" lon="60.764015">
        <ele>288.1</ele>
        <time>2022-06-29T18:27:26.022Z</time>
    </trkpt>
    <trkpt lat="56.518754" lon="60.764011">
        <ele>288.1</ele>
        <time>2022-06-29T18:27:27.022Z</time>
    </trkpt>
    <trkpt lat="56.518735" lon="60.764007">
        <ele>288.1</ele>
        <time>2022-06-29T18:27:56.022Z</time>
    </trkpt>
    <trkpt lat="56.518716" lon="60.764003">
        <ele>288.1</ele>
        <time>2022-06-29T18:27:57.022Z</time>
    </trkpt>
    <trkpt lat="56.518697" lon="60.763999">
        <ele>288.1</ele>
        <time>2022-06-29T18:27:58.022Z</time>
    </trkpt>
    <trkpt lat="56.518678" lon="60.763995">
        <ele>287.1</ele>
        <time>2022-06-29T18:27:59.022Z</time>
    </trkpt>
    <trkpt lat="56.518659" lon="60.763991">
        <ele>287.1</ele>
        <time>2022-06-29T18:28:00.022Z</time>
    </trkpt>
    <trkpt lat="56.518641" lon="60.763987">
        <ele>287.1</ele>
        <time>2022-06-29T18:28:01.022Z</time>
    </trkpt>
    <trkpt lat="56.518622" lon="60.763983">
        <ele>287.1</ele>
        <time>2022-06-29T18:28:02.022Z</time>
    </trkpt>
    <trkpt lat="56.518603" lon="60.763979">
        <ele>287.1</ele>
        <time>2022-06-29T18:28:03.022Z</time>
    </trkpt>
    <trkpt lat="56.518584" lon="60.763975">
        <ele>287.1</ele>
        <time>2022-06-29T18:28:04.022Z</time>
    </trkpt>
    <trkpt lat="56.518565" lon="60.763971">
        <ele>287.1</ele>
        <time>2022-06-29T18:28:05.022Z</time>
    </trkpt>
    <trkpt lat="56.518529" lon="60.763956">
        <ele>287.1</ele>
        <time>2022-06-29T18:28:06.022Z</time>
    </trkpt>
    <trkpt lat="56.518497" lon="60.763951">
        <ele>286.1</ele>
        <time>2022-06-29T18:28:07.022Z</time>
    </trkpt>
    <trkpt lat="56.518469" lon="60.763954">
        <ele>286.1</ele>
        <time>2022-06-29T18:28:08.022Z</time>
    </trkpt>
    <trkpt lat="56.518453" lon="60.76395">
        <ele>286.1</ele>
        <time>2022-06-29T18:28:09.022Z</time>
    </trkpt>
    <trkpt lat="56.518419" lon="60.763942">
        <ele>286.1</ele>
        <time>2022-06-29T18:28:10.022Z</time>
    </trkpt>
    <trkpt lat="56.518401" lon="60.763942">
        <ele>285.1</ele>
        <time>2022-06-29T18:28:11.022Z</time>
    </trkpt>
    <trkpt lat="56.518362" lon="60.763933">
        <ele>285.1</ele>
        <time>2022-06-29T18:28:12.022Z</time>
    </trkpt>
    <trkpt lat="56.518345" lon="60.763925">
        <ele>285.1</ele>
        <time>2022-06-29T18:28:13.022Z</time>
    </trkpt>
    <trkpt lat="56.518308" lon="60.763902">
        <ele>285.1</ele>
        <time>2022-06-29T18:28:14.022Z</time>
    </trkpt>
    <trkpt lat="56.518293" lon="60.763892">
        <ele>285.1</ele>
        <time>2022-06-29T18:28:15.022Z</time>
    </trkpt>
    <trkpt lat="56.518263" lon="60.763865">
        <ele>285.1</ele>
        <time>2022-06-29T18:28:16.022Z</time>
    </trkpt>
    <trkpt lat="56.518247" lon="60.763859">
        <ele>285.1</ele>
        <time>2022-06-29T18:28:17.022Z</time>
    </trkpt>
    <trkpt lat="56.518209" lon="60.763855">
        <ele>284.1</ele>
        <time>2022-06-29T18:28:18.022Z</time>
    </trkpt>
    <trkpt lat="56.518187" lon="60.763876">
        <ele>284.1</ele>
        <time>2022-06-29T18:28:19.022Z</time>
    </trkpt>
    <trkpt lat="56.518178" lon="60.763879">
        <ele>284.1</ele>
        <time>2022-06-29T18:28:20.022Z</time>
    </trkpt>
    <trkpt lat="56.51816" lon="60.763892">
        <ele>284.1</ele>
        <time>2022-06-29T18:28:21.022Z</time>
    </trkpt>
    <trkpt lat="56.518126" lon="60.763915">
        <ele>284.1</ele>
        <time>2022-06-29T18:28:22.022Z</time>
    </trkpt>
    <trkpt lat="56.518112" lon="60.763925">
        <ele>283.1</ele>
        <time>2022-06-29T18:28:23.022Z</time>
    </trkpt>
    <trkpt lat="56.518076" lon="60.763955">
        <ele>283.1</ele>
        <time>2022-06-29T18:28:24.022Z</time>
    </trkpt>
    <trkpt lat="56.518063" lon="60.763957">
        <ele>283.1</ele>
        <time>2022-06-29T18:28:25.022Z</time>
    </trkpt>
    <trkpt lat="56.518034" lon="60.763967">
        <ele>283.1</ele>
        <time>2022-06-29T18:28:26.022Z</time>
    </trkpt>
    <trkpt lat="56.518044" lon="60.763969">
        <ele>283.1</ele>
        <time>2022-06-29T18:28:27.022Z</time>
    </trkpt>
    <trkpt lat="56.518004" lon="60.764005">
        <ele>282.1</ele>
        <time>2022-06-29T18:28:28.022Z</time>
    </trkpt>
    <trkpt lat="56.517998" lon="60.76401">
        <ele>282.1</ele>
        <time>2022-06-29T18:28:29.022Z</time>
    </trkpt>
    <trkpt lat="56.517991" lon="60.764016">
        <ele>282.1</ele>
        <time>2022-06-29T18:28:30.022Z</time>
    </trkpt>
    <trkpt lat="56.51797" lon="60.764036">
        <ele>282.1</ele>
        <time>2022-06-29T18:28:31.022Z</time>
    </trkpt>
    <trkpt lat="56.517943" lon="60.76406">
        <ele>282.1</ele>
        <time>2022-06-29T18:28:32.022Z</time>
    </trkpt>
    <trkpt lat="56.517932" lon="60.764064">
        <ele>282.1</ele>
        <time>2022-06-29T18:28:33.022Z</time>
    </trkpt>
    <trkpt lat="56.517897" lon="60.764088">
        <ele>281.1</ele>
        <time>2022-06-29T18:28:34.022Z</time>
    </trkpt>
    <trkpt lat="56.517887" lon="60.764096">
        <ele>281.1</ele>
        <time>2022-06-29T18:28:35.022Z</time>
    </trkpt>
    <trkpt lat="56.517852" lon="60.764118">
        <ele>281.1</ele>
        <time>2022-06-29T18:28:36.022Z</time>
    </trkpt>
    <trkpt lat="56.517826" lon="60.764137">
        <ele>280.1</ele>
        <time>2022-06-29T18:28:37.022Z</time>
    </trkpt>
    <trkpt lat="56.517808" lon="60.764142">
        <ele>280.1</ele>
        <time>2022-06-29T18:28:38.022Z</time>
    </trkpt>
    <trkpt lat="56.51779" lon="60.764148">
        <ele>280.1</ele>
        <time>2022-06-29T18:28:39.022Z</time>
    </trkpt>
    <trkpt lat="56.517743" lon="60.764151">
        <ele>280.1</ele>
        <time>2022-06-29T18:28:41.022Z</time>
    </trkpt>
    <trkpt lat="56.517716" lon="60.764135">
        <ele>279.1</ele>
        <time>2022-06-29T18:28:42.022Z</time>
    </trkpt>
    <trkpt lat="56.51768" lon="60.76412">
        <ele>279.1</ele>
        <time>2022-06-29T18:28:43.022Z</time>
    </trkpt>
    <trkpt lat="56.51765" lon="60.764104">
        <ele>279.1</ele>
        <time>2022-06-29T18:28:44.022Z</time>
    </trkpt>
    <trkpt lat="56.517622" lon="60.764085">
        <ele>278.1</ele>
        <time>2022-06-29T18:28:45.022Z</time>
    </trkpt>
    <trkpt lat="56.517587" lon="60.764064">
        <ele>278.1</ele>
        <time>2022-06-29T18:28:46.022Z</time>
    </trkpt>
    <trkpt lat="56.51754" lon="60.764042">
        <ele>276.1</ele>
        <time>2022-06-29T18:28:47.022Z</time>
    </trkpt>
    <trkpt lat="56.517512" lon="60.764012">
        <ele>276.1</ele>
        <time>2022-06-29T18:28:48.022Z</time>
    </trkpt>
    <trkpt lat="56.517496" lon="60.763996">
        <ele>277.1</ele>
        <time>2022-06-29T18:28:49.022Z</time>
    </trkpt>
    <trkpt lat="56.517457" lon="60.763966">
        <ele>276.1</ele>
        <time>2022-06-29T18:28:50.022Z</time>
    </trkpt>
    <trkpt lat="56.517448" lon="60.763964">
        <ele>276.1</ele>
        <time>2022-06-29T18:28:51.022Z</time>
    </trkpt>
    <trkpt lat="56.517419" lon="60.76396">
        <ele>276.1</ele>
        <time>2022-06-29T18:28:52.022Z</time>
    </trkpt>
    <trkpt lat="56.517407" lon="60.763963">
        <ele>276.1</ele>
        <time>2022-06-29T18:28:53.022Z</time>
    </trkpt>
    <trkpt lat="56.517376" lon="60.76396">
        <ele>276.1</ele>
        <time>2022-06-29T18:28:54.022Z</time>
    </trkpt>
    <trkpt lat="56.517348" lon="60.763969">
        <ele>275.1</ele>
        <time>2022-06-29T18:28:55.022Z</time>
    </trkpt>
    <trkpt lat="56.517328" lon="60.763976">
        <ele>275.1</ele>
        <time>2022-06-29T18:28:56.022Z</time>
    </trkpt>
    <trkpt lat="56.517277" lon="60.764065">
        <ele>274.9</ele>
        <time>2022-06-29T18:29:32.022Z</time>
    </trkpt>
    <trkpt lat="56.517277" lon="60.764058">
        <ele>274.9</ele>
        <time>2022-06-29T18:29:33.022Z</time>
    </trkpt>
    <trkpt lat="56.517277" lon="60.764059">
        <ele>274.9</ele>
        <time>2022-06-29T18:29:34.022Z</time>
    </trkpt>
    <trkpt lat="56.51728" lon="60.764053">
        <ele>274.8</ele>
        <time>2022-06-29T18:29:35.022Z</time>
    </trkpt>
    <trkpt lat="56.51728" lon="60.764048">
        <ele>274.8</ele>
        <time>2022-06-29T18:29:36.022Z</time>
    </trkpt>
    <trkpt lat="56.517277" lon="60.764041">
        <ele>274.8</ele>
        <time>2022-06-29T18:29:37.022Z</time>
    </trkpt>
    <trkpt lat="56.517277" lon="60.764044">
        <ele>274.8</ele>
        <time>2022-06-29T18:29:38.022Z</time>
    </trkpt>
    <trkpt lat="56.517269" lon="60.76403">
        <ele>274.8</ele>
        <time>2022-06-29T18:29:39.022Z</time>
    </trkpt>
    <trkpt lat="56.517271" lon="60.76403">
        <ele>274.7</ele>
        <time>2022-06-29T18:29:40.022Z</time>
    </trkpt>
    <trkpt lat="56.517273" lon="60.764042">
        <ele>274.7</ele>
        <time>2022-06-29T18:29:41.022Z</time>
    </trkpt>
    <trkpt lat="56.517268" lon="60.764057">
        <ele>274.7</ele>
        <time>2022-06-29T18:29:42.022Z</time>
    </trkpt>
    <trkpt lat="56.517256" lon="60.764079">
        <ele>274.6</ele>
        <time>2022-06-29T18:29:43.022Z</time>
    </trkpt>
    <trkpt lat="56.517251" lon="60.764097">
        <ele>274.6</ele>
        <time>2022-06-29T18:29:44.022Z</time>
    </trkpt>
    <trkpt lat="56.517241" lon="60.76416">
        <ele>274.4</ele>
        <time>2022-06-29T18:29:45.022Z</time>
    </trkpt>
    <trkpt lat="56.517237" lon="60.764213">
        <ele>274.3</ele>
        <time>2022-06-29T18:29:46.022Z</time>
    </trkpt>
    <trkpt lat="56.517236" lon="60.764275">
        <ele>274.2</ele>
        <time>2022-06-29T18:29:47.022Z</time>
    </trkpt>
    <trkpt lat="56.517234" lon="60.764346">
        <ele>274.1</ele>
        <time>2022-06-29T18:29:48.022Z</time>
    </trkpt>
    <trkpt lat="56.517235" lon="60.764417">
        <ele>274.1</ele>
        <time>2022-06-29T18:29:49.022Z</time>
    </trkpt>
    <trkpt lat="56.51724" lon="60.764479">
        <ele>274.1</ele>
        <time>2022-06-29T18:29:50.022Z</time>
    </trkpt>
    <trkpt lat="56.517235" lon="60.764535">
        <ele>274.1</ele>
        <time>2022-06-29T18:29:51.022Z</time>
    </trkpt>
    <trkpt lat="56.517207" lon="60.764569">
        <ele>274.1</ele>
        <time>2022-06-29T18:29:52.022Z</time>
    </trkpt>
    <trkpt lat="56.517176" lon="60.764618">
        <ele>274.0</ele>
        <time>2022-06-29T18:29:53.022Z</time>
    </trkpt>
    <trkpt lat="56.517144" lon="60.76468">
        <ele>273.9</ele>
        <time>2022-06-29T18:29:54.022Z</time>
    </trkpt>
    <trkpt lat="56.51713" lon="60.764749">
        <ele>273.8</ele>
        <time>2022-06-29T18:29:55.022Z</time>
    </trkpt>
    <trkpt lat="56.51712" lon="60.76481">
        <ele>273.8</ele>
        <time>2022-06-29T18:29:56.022Z</time>
    </trkpt>
    <trkpt lat="56.517111" lon="60.764858">
        <ele>273.7</ele>
        <time>2022-06-29T18:29:57.022Z</time>
    </trkpt>
    <trkpt lat="56.517106" lon="60.764878">
        <ele>273.7</ele>
        <time>2022-06-29T18:29:58.022Z</time>
    </trkpt>
    <trkpt lat="56.517091" lon="60.764925">
        <ele>273.6</ele>
        <time>2022-06-29T18:29:59.022Z</time>
    </trkpt>
    <trkpt lat="56.517085" lon="60.76498">
        <ele>273.5</ele>
        <time>2022-06-29T18:30:00.022Z</time>
    </trkpt>
    <trkpt lat="56.517081" lon="60.765037">
        <ele>273.5</ele>
        <time>2022-06-29T18:30:01.022Z</time>
    </trkpt>
    <trkpt lat="56.517084" lon="60.765098">
        <ele>273.5</ele>
        <time>2022-06-29T18:30:02.022Z</time>
    </trkpt>
    <trkpt lat="56.517082" lon="60.765163">
        <ele>273.5</ele>
        <time>2022-06-29T18:30:03.022Z</time>
    </trkpt>
    <trkpt lat="56.517076" lon="60.765223">
        <ele>273.5</ele>
        <time>2022-06-29T18:30:04.022Z</time>
    </trkpt>
    <trkpt lat="56.517066" lon="60.765285">
        <ele>273.5</ele>
        <time>2022-06-29T18:30:05.022Z</time>
    </trkpt>
    <trkpt lat="56.517055" lon="60.765355">
        <ele>273.5</ele>
        <time>2022-06-29T18:30:06.022Z</time>
    </trkpt>
    <trkpt lat="56.517028" lon="60.765409">
        <ele>273.5</ele>
        <time>2022-06-29T18:30:07.022Z</time>
    </trkpt>
    <trkpt lat="56.51702" lon="60.765434">
        <ele>273.5</ele>
        <time>2022-06-29T18:30:08.022Z</time>
    </trkpt>
    <trkpt lat="56.516996" lon="60.765497">
        <ele>273.4</ele>
        <time>2022-06-29T18:30:09.022Z</time>
    </trkpt>
    <trkpt lat="56.51699" lon="60.765525">
        <ele>273.4</ele>
        <time>2022-06-29T18:30:10.022Z</time>
    </trkpt>
    <trkpt lat="56.516972" lon="60.76559">
        <ele>273.3</ele>
        <time>2022-06-29T18:30:11.022Z</time>
    </trkpt>
    <trkpt lat="56.516966" lon="60.765614">
        <ele>273.3</ele>
        <time>2022-06-29T18:30:12.022Z</time>
    </trkpt>
    <trkpt lat="56.516964" lon="60.765666">
        <ele>273.2</ele>
        <time>2022-06-29T18:30:13.022Z</time>
    </trkpt>
    <trkpt lat="56.516978" lon="60.765713">
        <ele>273.2</ele>
        <time>2022-06-29T18:30:14.022Z</time>
    </trkpt>
    <trkpt lat="56.516988" lon="60.765746">
        <ele>273.1</ele>
        <time>2022-06-29T18:30:15.022Z</time>
    </trkpt>
    <trkpt lat="56.516986" lon="60.765772">
        <ele>273.1</ele>
        <time>2022-06-29T18:30:16.022Z</time>
    </trkpt>
    <trkpt lat="56.516987" lon="60.765782">
        <ele>273.1</ele>
        <time>2022-06-29T18:30:17.022Z</time>
    </trkpt>
    <trkpt lat="56.516988" lon="60.765792">
        <ele>273.1</ele>
        <time>2022-06-29T18:30:18.022Z</time>
    </trkpt>
    <trkpt lat="56.516989" lon="60.765802">
        <ele>273.1</ele>
        <time>2022-06-29T18:30:19.022Z</time>
    </trkpt>
    <trkpt lat="56.516989" lon="60.765812">
        <ele>273.1</ele>
        <time>2022-06-29T18:30:20.022Z</time>
    </trkpt>
    <trkpt lat="56.51699" lon="60.765822">
        <ele>273.1</ele>
        <time>2022-06-29T18:30:21.022Z</time>
    </trkpt>
    <trkpt lat="56.516997" lon="60.76584">
        <ele>273.1</ele>
        <time>2022-06-29T18:30:22.022Z</time>
    </trkpt>
    <trkpt lat="56.516996" lon="60.765853">
        <ele>273.1</ele>
        <time>2022-06-29T18:30:23.022Z</time>
    </trkpt>
    <trkpt lat="56.516993" lon="60.765907">
        <ele>273.1</ele>
        <time>2022-06-29T18:30:24.022Z</time>
    </trkpt>
    <trkpt lat="56.516975" lon="60.765951">
        <ele>273.1</ele>
        <time>2022-06-29T18:30:25.022Z</time>
    </trkpt>
    <trkpt lat="56.516962" lon="60.765987">
        <ele>273.2</ele>
        <time>2022-06-29T18:30:26.022Z</time>
    </trkpt>
    <trkpt lat="56.516932" lon="60.766056">
        <ele>273.2</ele>
        <time>2022-06-29T18:30:27.022Z</time>
    </trkpt>
    <trkpt lat="56.516917" lon="60.766099">
        <ele>273.3</ele>
        <time>2022-06-29T18:30:28.022Z</time>
    </trkpt>
    <trkpt lat="56.516912" lon="60.766118">
        <ele>273.3</ele>
        <time>2022-06-29T18:30:29.022Z</time>
    </trkpt>
    <trkpt lat="56.516897" lon="60.766174">
        <ele>273.3</ele>
        <time>2022-06-29T18:30:30.022Z</time>
    </trkpt>
    <trkpt lat="56.516894" lon="60.766189">
        <ele>273.3</ele>
        <time>2022-06-29T18:30:31.022Z</time>
    </trkpt>
    <trkpt lat="56.516886" lon="60.766244">
        <ele>273.4</ele>
        <time>2022-06-29T18:30:32.022Z</time>
    </trkpt>
    <trkpt lat="56.516889" lon="60.766265">
        <ele>273.4</ele>
        <time>2022-06-29T18:30:33.022Z</time>
    </trkpt>
    <trkpt lat="56.516879" lon="60.766295">
        <ele>273.4</ele>
        <time>2022-06-29T18:30:34.022Z</time>
    </trkpt>
    <trkpt lat="56.516873" lon="60.766318">
        <ele>273.4</ele>
        <time>2022-06-29T18:30:35.022Z</time>
    </trkpt>
    <trkpt lat="56.516862" lon="60.766343">
        <ele>273.4</ele>
        <time>2022-06-29T18:30:36.022Z</time>
    </trkpt>
    <trkpt lat="56.516856" lon="60.766359">
        <ele>273.4</ele>
        <time>2022-06-29T18:30:37.022Z</time>
    </trkpt>
    <trkpt lat="56.516836" lon="60.766392">
        <ele>273.3</ele>
        <time>2022-06-29T18:30:38.022Z</time>
    </trkpt>
    <trkpt lat="56.516826" lon="60.766414">
        <ele>273.3</ele>
        <time>2022-06-29T18:30:39.022Z</time>
    </trkpt>
    <trkpt lat="56.516812" lon="60.766425">
        <ele>273.3</ele>
        <time>2022-06-29T18:30:40.022Z</time>
    </trkpt>
    <trkpt lat="56.516805" lon="60.766432">
        <ele>273.3</ele>
        <time>2022-06-29T18:30:41.022Z</time>
    </trkpt>
    <trkpt lat="56.516787" lon="60.766449">
        <ele>273.2</ele>
        <time>2022-06-29T18:30:42.022Z</time>
    </trkpt>
    <trkpt lat="56.516774" lon="60.766482">
        <ele>273.2</ele>
        <time>2022-06-29T18:30:43.022Z</time>
    </trkpt>
    <trkpt lat="56.516777" lon="60.766505">
        <ele>273.2</ele>
        <time>2022-06-29T18:30:44.022Z</time>
    </trkpt>
    <trkpt lat="56.516768" lon="60.766522">
        <ele>273.2</ele>
        <time>2022-06-29T18:30:45.022Z</time>
    </trkpt>
    <trkpt lat="56.516757" lon="60.766548">
        <ele>273.2</ele>
        <time>2022-06-29T18:30:46.022Z</time>
    </trkpt>
    <trkpt lat="56.51675" lon="60.766566">
        <ele>273.2</ele>
        <time>2022-06-29T18:30:47.022Z</time>
    </trkpt>
    <trkpt lat="56.516735" lon="60.766604">
        <ele>273.1</ele>
        <time>2022-06-29T18:30:48.022Z</time>
    </trkpt>
    <trkpt lat="56.516729" lon="60.766621">
        <ele>273.1</ele>
        <time>2022-06-29T18:30:49.022Z</time>
    </trkpt>
    <trkpt lat="56.516717" lon="60.766665">
        <ele>273.1</ele>
        <time>2022-06-29T18:30:50.022Z</time>
    </trkpt>
    <trkpt lat="56.516711" lon="60.766686">
        <ele>273.1</ele>
        <time>2022-06-29T18:30:51.022Z</time>
    </trkpt>
    <trkpt lat="56.516702" lon="60.766714">
        <ele>273.1</ele>
        <time>2022-06-29T18:30:52.022Z</time>
    </trkpt>
    <trkpt lat="56.516693" lon="60.766728">
        <ele>273.1</ele>
        <time>2022-06-29T18:30:53.022Z</time>
    </trkpt>
    <trkpt lat="56.516681" lon="60.766752">
        <ele>273.1</ele>
        <time>2022-06-29T18:30:54.022Z</time>
    </trkpt>
    <trkpt lat="56.516671" lon="60.766777">
        <ele>273.1</ele>
        <time>2022-06-29T18:30:55.022Z</time>
    </trkpt>
    <trkpt lat="56.516655" lon="60.766848">
        <ele>273.2</ele>
        <time>2022-06-29T18:30:56.022Z</time>
    </trkpt>
    <trkpt lat="56.516671" lon="60.76687">
        <ele>273.2</ele>
        <time>2022-06-29T18:30:57.022Z</time>
    </trkpt>
    <trkpt lat="56.516669" lon="60.766899">
        <ele>273.2</ele>
        <time>2022-06-29T18:30:58.022Z</time>
    </trkpt>
    <trkpt lat="56.516662" lon="60.766929">
        <ele>273.2</ele>
        <time>2022-06-29T18:30:59.022Z</time>
    </trkpt>
    <trkpt lat="56.516657" lon="60.766959">
        <ele>273.3</ele>
        <time>2022-06-29T18:31:00.022Z</time>
    </trkpt>
    <trkpt lat="56.516658" lon="60.766979">
        <ele>273.3</ele>
        <time>2022-06-29T18:31:01.022Z</time>
    </trkpt>
    <trkpt lat="56.516654" lon="60.767032">
        <ele>273.3</ele>
        <time>2022-06-29T18:31:02.022Z</time>
    </trkpt>
    <trkpt lat="56.516643" lon="60.767059">
        <ele>273.4</ele>
        <time>2022-06-29T18:31:03.022Z</time>
    </trkpt>
    <trkpt lat="56.516639" lon="60.767087">
        <ele>273.4</ele>
        <time>2022-06-29T18:31:04.022Z</time>
    </trkpt>
    <trkpt lat="56.516629" lon="60.767117">
        <ele>273.5</ele>
        <time>2022-06-29T18:31:05.022Z</time>
    </trkpt>
    <trkpt lat="56.516623" lon="60.767132">
        <ele>273.5</ele>
        <time>2022-06-29T18:31:06.022Z</time>
    </trkpt>
    <trkpt lat="56.516619" lon="60.76715">
        <ele>273.5</ele>
        <time>2022-06-29T18:31:07.022Z</time>
    </trkpt>
    <trkpt lat="56.516614" lon="60.767169">
        <ele>273.5</ele>
        <time>2022-06-29T18:31:08.022Z</time>
    </trkpt>
    <trkpt lat="56.51661" lon="60.767213">
        <ele>273.6</ele>
        <time>2022-06-29T18:31:09.022Z</time>
    </trkpt>
    <trkpt lat="56.516605" lon="60.767229">
        <ele>273.6</ele>
        <time>2022-06-29T18:31:10.022Z</time>
    </trkpt>
    <trkpt lat="56.516585" lon="60.76728">
        <ele>273.7</ele>
        <time>2022-06-29T18:31:11.022Z</time>
    </trkpt>
    <trkpt lat="56.516574" lon="60.767305">
        <ele>273.7</ele>
        <time>2022-06-29T18:31:12.022Z</time>
    </trkpt>
    <trkpt lat="56.516572" lon="60.767336">
        <ele>273.7</ele>
        <time>2022-06-29T18:31:13.022Z</time>
    </trkpt>
    <trkpt lat="56.516552" lon="60.767384">
        <ele>273.7</ele>
        <time>2022-06-29T18:31:14.022Z</time>
    </trkpt>
    <trkpt lat="56.516544" lon="60.767403">
        <ele>273.7</ele>
        <time>2022-06-29T18:31:15.022Z</time>
    </trkpt>
    <trkpt lat="56.516523" lon="60.76745">
        <ele>273.8</ele>
        <time>2022-06-29T18:31:16.022Z</time>
    </trkpt>
    <trkpt lat="56.516516" lon="60.76747">
        <ele>273.8</ele>
        <time>2022-06-29T18:31:17.022Z</time>
    </trkpt>
    <trkpt lat="56.516493" lon="60.767526">
        <ele>273.7</ele>
        <time>2022-06-29T18:31:18.022Z</time>
    </trkpt>
    <trkpt lat="56.51649" lon="60.767536">
        <ele>273.7</ele>
        <time>2022-06-29T18:31:19.022Z</time>
    </trkpt>
    <trkpt lat="56.516472" lon="60.767583">
        <ele>273.7</ele>
        <time>2022-06-29T18:31:20.022Z</time>
    </trkpt>
    <trkpt lat="56.516447" lon="60.767606">
        <ele>273.7</ele>
        <time>2022-06-29T18:31:21.022Z</time>
    </trkpt>
    <trkpt lat="56.516432" lon="60.767627">
        <ele>273.6</ele>
        <time>2022-06-29T18:31:22.022Z</time>
    </trkpt>
    <trkpt lat="56.516404" lon="60.767686">
        <ele>273.5</ele>
        <time>2022-06-29T18:31:23.022Z</time>
    </trkpt>
    <trkpt lat="56.516386" lon="60.767717">
        <ele>273.4</ele>
        <time>2022-06-29T18:31:24.022Z</time>
    </trkpt>
    <trkpt lat="56.516354" lon="60.767774">
        <ele>273.3</ele>
        <time>2022-06-29T18:31:25.022Z</time>
    </trkpt>
    <trkpt lat="56.516341" lon="60.76783">
        <ele>273.1</ele>
        <time>2022-06-29T18:31:26.022Z</time>
    </trkpt>
    <trkpt lat="56.516332" lon="60.767843">
        <ele>273.1</ele>
        <time>2022-06-29T18:31:27.022Z</time>
    </trkpt>
    <trkpt lat="56.516323" lon="60.767856">
        <ele>273.0</ele>
        <time>2022-06-29T18:31:28.022Z</time>
    </trkpt>
    <trkpt lat="56.516308" lon="60.767896">
        <ele>272.9</ele>
        <time>2022-06-29T18:31:29.022Z</time>
    </trkpt>
    <trkpt lat="56.516303" lon="60.767926">
        <ele>272.9</ele>
        <time>2022-06-29T18:31:30.022Z</time>
    </trkpt>
    <trkpt lat="56.516301" lon="60.767951">
        <ele>272.8</ele>
        <time>2022-06-29T18:31:31.022Z</time>
    </trkpt>
    <trkpt lat="56.5163" lon="60.767971">
        <ele>272.8</ele>
        <time>2022-06-29T18:31:32.022Z</time>
    </trkpt>
    <trkpt lat="56.516288" lon="60.768005">
        <ele>272.7</ele>
        <time>2022-06-29T18:31:33.022Z</time>
    </trkpt>
    <trkpt lat="56.516282" lon="60.768022">
        <ele>272.7</ele>
        <time>2022-06-29T18:31:34.022Z</time>
    </trkpt>
    <trkpt lat="56.516268" lon="60.76806">
        <ele>272.6</ele>
        <time>2022-06-29T18:31:35.022Z</time>
    </trkpt>
    <trkpt lat="56.516255" lon="60.768098">
        <ele>272.5</ele>
        <time>2022-06-29T18:31:36.022Z</time>
    </trkpt>
    <trkpt lat="56.516251" lon="60.768117">
        <ele>272.5</ele>
        <time>2022-06-29T18:31:37.022Z</time>
    </trkpt>
    <trkpt lat="56.516243" lon="60.76814">
        <ele>272.5</ele>
        <time>2022-06-29T18:31:38.022Z</time>
    </trkpt>
    <trkpt lat="56.516224" lon="60.768178">
        <ele>272.4</ele>
        <time>2022-06-29T18:31:39.022Z</time>
    </trkpt>
    <trkpt lat="56.51622" lon="60.768204">
        <ele>272.3</ele>
        <time>2022-06-29T18:31:40.022Z</time>
    </trkpt>
    <trkpt lat="56.516209" lon="60.768244">
        <ele>272.2</ele>
        <time>2022-06-29T18:31:41.022Z</time>
    </trkpt>
    <trkpt lat="56.5162" lon="60.768267">
        <ele>272.2</ele>
        <time>2022-06-29T18:31:42.022Z</time>
    </trkpt>
    <trkpt lat="56.516189" lon="60.768312">
        <ele>272.1</ele>
        <time>2022-06-29T18:31:43.022Z</time>
    </trkpt>
    <trkpt lat="56.516177" lon="60.768358">
        <ele>272.0</ele>
        <time>2022-06-29T18:31:44.022Z</time>
    </trkpt>
    <trkpt lat="56.516173" lon="60.768374">
        <ele>272.0</ele>
        <time>2022-06-29T18:31:45.022Z</time>
    </trkpt>
    <trkpt lat="56.516163" lon="60.768416">
        <ele>271.9</ele>
        <time>2022-06-29T18:31:46.022Z</time>
    </trkpt>
    <trkpt lat="56.516162" lon="60.768432">
        <ele>271.9</ele>
        <time>2022-06-29T18:31:47.022Z</time>
    </trkpt>
    <trkpt lat="56.516152" lon="60.768471">
        <ele>271.8</ele>
        <time>2022-06-29T18:31:48.022Z</time>
    </trkpt>
    <trkpt lat="56.516149" lon="60.768495">
        <ele>271.7</ele>
        <time>2022-06-29T18:31:49.022Z</time>
    </trkpt>
    <trkpt lat="56.51614" lon="60.768532">
        <ele>271.7</ele>
        <time>2022-06-29T18:31:50.022Z</time>
    </trkpt>
    <trkpt lat="56.516139" lon="60.768544">
        <ele>271.6</ele>
        <time>2022-06-29T18:31:51.022Z</time>
    </trkpt>
    <trkpt lat="56.516133" lon="60.768597">
        <ele>271.6</ele>
        <time>2022-06-29T18:31:52.022Z</time>
    </trkpt>
    <trkpt lat="56.516131" lon="60.768619">
        <ele>271.5</ele>
        <time>2022-06-29T18:31:53.022Z</time>
    </trkpt>
    <trkpt lat="56.51612" lon="60.768648">
        <ele>271.5</ele>
        <time>2022-06-29T18:31:54.022Z</time>
    </trkpt>
    <trkpt lat="56.516116" lon="60.768668">
        <ele>271.4</ele>
        <time>2022-06-29T18:31:55.022Z</time>
    </trkpt>
    <trkpt lat="56.5161" lon="60.768709">
        <ele>271.4</ele>
        <time>2022-06-29T18:31:56.022Z</time>
    </trkpt>
    <trkpt lat="56.516091" lon="60.768738">
        <ele>271.3</ele>
        <time>2022-06-29T18:31:57.022Z</time>
    </trkpt>
    <trkpt lat="56.516082" lon="60.768755">
        <ele>271.3</ele>
        <time>2022-06-29T18:31:58.022Z</time>
    </trkpt>
    <trkpt lat="56.516075" lon="60.768775">
        <ele>271.3</ele>
        <time>2022-06-29T18:31:59.022Z</time>
    </trkpt>
    <trkpt lat="56.516067" lon="60.768796">
        <ele>271.3</ele>
        <time>2022-06-29T18:32:00.022Z</time>
    </trkpt>
    <trkpt lat="56.516061" lon="60.76881">
        <ele>271.3</ele>
        <time>2022-06-29T18:32:01.022Z</time>
    </trkpt>
    <trkpt lat="56.51605" lon="60.768838">
        <ele>271.2</ele>
        <time>2022-06-29T18:32:02.022Z</time>
    </trkpt>
    <trkpt lat="56.516041" lon="60.768858">
        <ele>271.2</ele>
        <time>2022-06-29T18:32:03.022Z</time>
    </trkpt>
    <trkpt lat="56.516044" lon="60.768877">
        <ele>271.2</ele>
        <time>2022-06-29T18:32:04.022Z</time>
    </trkpt>
    <trkpt lat="56.516027" lon="60.768915">
        <ele>271.2</ele>
        <time>2022-06-29T18:32:05.022Z</time>
    </trkpt>
    <trkpt lat="56.516022" lon="60.768923">
        <ele>271.2</ele>
        <time>2022-06-29T18:32:06.022Z</time>
    </trkpt>
    <trkpt lat="56.516005" lon="60.768972">
        <ele>271.2</ele>
        <time>2022-06-29T18:32:07.022Z</time>
    </trkpt>
    <trkpt lat="56.515998" lon="60.768987">
        <ele>271.3</ele>
        <time>2022-06-29T18:32:08.022Z</time>
    </trkpt>
    <trkpt lat="56.515983" lon="60.769041">
        <ele>271.3</ele>
        <time>2022-06-29T18:32:09.022Z</time>
    </trkpt>
    <trkpt lat="56.515975" lon="60.769073">
        <ele>271.3</ele>
        <time>2022-06-29T18:32:10.022Z</time>
    </trkpt>
    <trkpt lat="56.515969" lon="60.7691">
        <ele>271.3</ele>
        <time>2022-06-29T18:32:11.022Z</time>
    </trkpt>
    <trkpt lat="56.515962" lon="60.769117">
        <ele>271.3</ele>
        <time>2022-06-29T18:32:12.022Z</time>
    </trkpt>
    <trkpt lat="56.515943" lon="60.769164">
        <ele>271.3</ele>
        <time>2022-06-29T18:32:13.022Z</time>
    </trkpt>
    <trkpt lat="56.515939" lon="60.769178">
        <ele>271.4</ele>
        <time>2022-06-29T18:32:14.022Z</time>
    </trkpt>
    <trkpt lat="56.515923" lon="60.769219">
        <ele>271.4</ele>
        <time>2022-06-29T18:32:15.022Z</time>
    </trkpt>
    <trkpt lat="56.515906" lon="60.769232">
        <ele>271.4</ele>
        <time>2022-06-29T18:32:16.022Z</time>
    </trkpt>
    <trkpt lat="56.515894" lon="60.769248">
        <ele>271.4</ele>
        <time>2022-06-29T18:32:17.022Z</time>
    </trkpt>
    <trkpt lat="56.515891" lon="60.769268">
        <ele>271.4</ele>
        <time>2022-06-29T18:32:18.022Z</time>
    </trkpt>
    <trkpt lat="56.515881" lon="60.769305">
        <ele>271.4</ele>
        <time>2022-06-29T18:32:19.022Z</time>
    </trkpt>
    <trkpt lat="56.51587" lon="60.769325">
        <ele>271.4</ele>
        <time>2022-06-29T18:32:20.022Z</time>
    </trkpt>
    <trkpt lat="56.515862" lon="60.76935">
        <ele>271.4</ele>
        <time>2022-06-29T18:32:21.022Z</time>
    </trkpt>
    <trkpt lat="56.515866" lon="60.769369">
        <ele>271.4</ele>
        <time>2022-06-29T18:32:22.022Z</time>
    </trkpt>
    <trkpt lat="56.515857" lon="60.769405">
        <ele>271.4</ele>
        <time>2022-06-29T18:32:23.022Z</time>
    </trkpt>
    <trkpt lat="56.515849" lon="60.769435">
        <ele>271.4</ele>
        <time>2022-06-29T18:32:24.022Z</time>
    </trkpt>
    <trkpt lat="56.515844" lon="60.769452">
        <ele>271.4</ele>
        <time>2022-06-29T18:32:25.022Z</time>
    </trkpt>
    <trkpt lat="56.515838" lon="60.769489">
        <ele>271.4</ele>
        <time>2022-06-29T18:32:26.022Z</time>
    </trkpt>
    <trkpt lat="56.515829" lon="60.769507">
        <ele>271.3</ele>
        <time>2022-06-29T18:32:27.022Z</time>
    </trkpt>
    <trkpt lat="56.51583" lon="60.769528">
        <ele>271.3</ele>
        <time>2022-06-29T18:32:28.022Z</time>
    </trkpt>
    <trkpt lat="56.515815" lon="60.769562">
        <ele>271.3</ele>
        <time>2022-06-29T18:32:29.022Z</time>
    </trkpt>
    <trkpt lat="56.515803" lon="60.769586">
        <ele>271.2</ele>
        <time>2022-06-29T18:32:30.022Z</time>
    </trkpt>
    <trkpt lat="56.515795" lon="60.769614">
        <ele>271.2</ele>
        <time>2022-06-29T18:32:31.022Z</time>
    </trkpt>
    <trkpt lat="56.515794" lon="60.769627">
        <ele>271.1</ele>
        <time>2022-06-29T18:32:32.022Z</time>
    </trkpt>
    <trkpt lat="56.515793" lon="60.76964">
        <ele>271.1</ele>
        <time>2022-06-29T18:32:33.022Z</time>
    </trkpt>
    <trkpt lat="56.515783" lon="60.76968">
        <ele>271.0</ele>
        <time>2022-06-29T18:32:34.022Z</time>
    </trkpt>
    <trkpt lat="56.515777" lon="60.769704">
        <ele>271.0</ele>
        <time>2022-06-29T18:32:35.022Z</time>
    </trkpt>
    <trkpt lat="56.515771" lon="60.769727">
        <ele>270.9</ele>
        <time>2022-06-29T18:32:36.022Z</time>
    </trkpt>
    <trkpt lat="56.515762" lon="60.769768">
        <ele>270.9</ele>
        <time>2022-06-29T18:32:37.022Z</time>
    </trkpt>
    <trkpt lat="56.515757" lon="60.76979">
        <ele>270.8</ele>
        <time>2022-06-29T18:32:38.022Z</time>
    </trkpt>
    <trkpt lat="56.515746" lon="60.769846">
        <ele>270.7</ele>
        <time>2022-06-29T18:32:39.022Z</time>
    </trkpt>
    <trkpt lat="56.515739" lon="60.769873">
        <ele>270.7</ele>
        <time>2022-06-29T18:32:40.022Z</time>
    </trkpt>
    <trkpt lat="56.515727" lon="60.769901">
        <ele>270.6</ele>
        <time>2022-06-29T18:32:41.022Z</time>
    </trkpt>
    <trkpt lat="56.515718" lon="60.769921">
        <ele>270.5</ele>
        <time>2022-06-29T18:32:42.022Z</time>
    </trkpt>
    <trkpt lat="56.515696" lon="60.76998">
        <ele>270.4</ele>
        <time>2022-06-29T18:32:43.022Z</time>
    </trkpt>
    <trkpt lat="56.515691" lon="60.770005">
        <ele>270.4</ele>
        <time>2022-06-29T18:32:44.022Z</time>
    </trkpt>
    <trkpt lat="56.515672" lon="60.77006">
        <ele>270.3</ele>
        <time>2022-06-29T18:32:45.022Z</time>
    </trkpt>
    <trkpt lat="56.515664" lon="60.770086">
        <ele>270.3</ele>
        <time>2022-06-29T18:32:46.022Z</time>
    </trkpt>
    <trkpt lat="56.515638" lon="60.770141">
        <ele>270.2</ele>
        <time>2022-06-29T18:32:47.022Z</time>
    </trkpt>
    <trkpt lat="56.51563" lon="60.770162">
        <ele>270.2</ele>
        <time>2022-06-29T18:32:48.022Z</time>
    </trkpt>
    <trkpt lat="56.515611" lon="60.77021">
        <ele>270.1</ele>
        <time>2022-06-29T18:32:49.022Z</time>
    </trkpt>
    <trkpt lat="56.515601" lon="60.770234">
        <ele>270.1</ele>
        <time>2022-06-29T18:32:50.022Z</time>
    </trkpt>
    <trkpt lat="56.515574" lon="60.770276">
        <ele>270.1</ele>
        <time>2022-06-29T18:32:51.022Z</time>
    </trkpt>
    <trkpt lat="56.515557" lon="60.770355">
        <ele>270.1</ele>
        <time>2022-06-29T18:32:53.022Z</time>
    </trkpt>
    <trkpt lat="56.515552" lon="60.77038">
        <ele>270.1</ele>
        <time>2022-06-29T18:32:54.022Z</time>
    </trkpt>
    <trkpt lat="56.515544" lon="60.770418">
        <ele>270.1</ele>
        <time>2022-06-29T18:32:55.022Z</time>
    </trkpt>
    <trkpt lat="56.515539" lon="60.77043">
        <ele>270.1</ele>
        <time>2022-06-29T18:32:56.022Z</time>
    </trkpt>
    <trkpt lat="56.515534" lon="60.770474">
        <ele>270.0</ele>
        <time>2022-06-29T18:32:57.022Z</time>
    </trkpt>
    <trkpt lat="56.515525" lon="60.770489">
        <ele>270.0</ele>
        <time>2022-06-29T18:32:58.022Z</time>
    </trkpt>
    <trkpt lat="56.515524" lon="60.770513">
        <ele>270.0</ele>
        <time>2022-06-29T18:32:59.022Z</time>
    </trkpt>
    <trkpt lat="56.515519" lon="60.770559">
        <ele>269.9</ele>
        <time>2022-06-29T18:33:00.022Z</time>
    </trkpt>
    <trkpt lat="56.515525" lon="60.77057">
        <ele>269.9</ele>
        <time>2022-06-29T18:33:01.022Z</time>
    </trkpt>
    <trkpt lat="56.515531" lon="60.77058">
        <ele>269.9</ele>
        <time>2022-06-29T18:33:02.022Z</time>
    </trkpt>
    <trkpt lat="56.515536" lon="60.770627">
        <ele>269.8</ele>
        <time>2022-06-29T18:33:03.022Z</time>
    </trkpt>
    <trkpt lat="56.515531" lon="60.770638">
        <ele>269.8</ele>
        <time>2022-06-29T18:33:04.022Z</time>
    </trkpt>
    <trkpt lat="56.515532" lon="60.770674">
        <ele>269.8</ele>
        <time>2022-06-29T18:33:05.022Z</time>
    </trkpt>
    <trkpt lat="56.515535" lon="60.770686">
        <ele>269.8</ele>
        <time>2022-06-29T18:33:06.022Z</time>
    </trkpt>
    <trkpt lat="56.515533" lon="60.770721">
        <ele>269.7</ele>
        <time>2022-06-29T18:33:07.022Z</time>
    </trkpt>
    <trkpt lat="56.515532" lon="60.770736">
        <ele>269.7</ele>
        <time>2022-06-29T18:33:08.022Z</time>
    </trkpt>
    <trkpt lat="56.515526" lon="60.770775">
        <ele>269.7</ele>
        <time>2022-06-29T18:33:09.022Z</time>
    </trkpt>
    <trkpt lat="56.515521" lon="60.770792">
        <ele>269.7</ele>
        <time>2022-06-29T18:33:10.022Z</time>
    </trkpt>
    <trkpt lat="56.515512" lon="60.770814">
        <ele>269.6</ele>
        <time>2022-06-29T18:33:11.022Z</time>
    </trkpt>
    <trkpt lat="56.515504" lon="60.770836">
        <ele>269.6</ele>
        <time>2022-06-29T18:33:12.022Z</time>
    </trkpt>
    <trkpt lat="56.515491" lon="60.770859">
        <ele>269.5</ele>
        <time>2022-06-29T18:33:13.022Z</time>
    </trkpt>
    <trkpt lat="56.515481" lon="60.770879">
        <ele>269.5</ele>
        <time>2022-06-29T18:33:14.022Z</time>
    </trkpt>
    <trkpt lat="56.515467" lon="60.770917">
        <ele>269.5</ele>
        <time>2022-06-29T18:33:15.022Z</time>
    </trkpt>
    <trkpt lat="56.515448" lon="60.770952">
        <ele>269.4</ele>
        <time>2022-06-29T18:33:16.022Z</time>
    </trkpt>
    <trkpt lat="56.515447" lon="60.770968">
        <ele>269.4</ele>
        <time>2022-06-29T18:33:17.022Z</time>
    </trkpt>
    <trkpt lat="56.515435" lon="60.770982">
        <ele>269.3</ele>
        <time>2022-06-29T18:33:18.022Z</time>
    </trkpt>
    <trkpt lat="56.515398" lon="60.770999">
        <ele>269.3</ele>
        <time>2022-06-29T18:33:19.022Z</time>
    </trkpt>
    <trkpt lat="56.515385" lon="60.771008">
        <ele>269.2</ele>
        <time>2022-06-29T18:33:20.022Z</time>
    </trkpt>
    <trkpt lat="56.515355" lon="60.771037">
        <ele>269.2</ele>
        <time>2022-06-29T18:33:21.022Z</time>
    </trkpt>
    <trkpt lat="56.515344" lon="60.771064">
        <ele>269.1</ele>
        <time>2022-06-29T18:33:22.022Z</time>
    </trkpt>
    <trkpt lat="56.515333" lon="60.771082">
        <ele>269.1</ele>
        <time>2022-06-29T18:33:23.022Z</time>
    </trkpt>
    <trkpt lat="56.515329" lon="60.771107">
        <ele>269.1</ele>
        <time>2022-06-29T18:33:24.022Z</time>
    </trkpt>
    <trkpt lat="56.515331" lon="60.771114">
        <ele>269.1</ele>
        <time>2022-06-29T18:33:25.022Z</time>
    </trkpt>
    <trkpt lat="56.515314" lon="60.771132">
        <ele>269.1</ele>
        <time>2022-06-29T18:33:26.022Z</time>
    </trkpt>
    <trkpt lat="56.515303" lon="60.771147">
        <ele>269.1</ele>
        <time>2022-06-29T18:33:27.022Z</time>
    </trkpt>
    <trkpt lat="56.515296" lon="60.771169">
        <ele>269.1</ele>
        <time>2022-06-29T18:33:28.022Z</time>
    </trkpt>
    <trkpt lat="56.515292" lon="60.771176">
        <ele>269.1</ele>
        <time>2022-06-29T18:33:29.022Z</time>
    </trkpt>
    <trkpt lat="56.51528" lon="60.771206">
        <ele>269.1</ele>
        <time>2022-06-29T18:33:30.022Z</time>
    </trkpt>
    <trkpt lat="56.515274" lon="60.771233">
        <ele>269.1</ele>
        <time>2022-06-29T18:33:31.022Z</time>
    </trkpt>
    <trkpt lat="56.515263" lon="60.771258">
        <ele>269.1</ele>
        <time>2022-06-29T18:33:32.022Z</time>
    </trkpt>
    <trkpt lat="56.515253" lon="60.771272">
        <ele>269.1</ele>
        <time>2022-06-29T18:33:33.022Z</time>
    </trkpt>
    <trkpt lat="56.515244" lon="60.771293">
        <ele>269.1</ele>
        <time>2022-06-29T18:33:34.022Z</time>
    </trkpt>
    <trkpt lat="56.515236" lon="60.771321">
        <ele>269.1</ele>
        <time>2022-06-29T18:33:35.022Z</time>
    </trkpt>
    <trkpt lat="56.515228" lon="60.77134">
        <ele>269.1</ele>
        <time>2022-06-29T18:33:36.022Z</time>
    </trkpt>
    <trkpt lat="56.515212" lon="60.771356">
        <ele>269.1</ele>
        <time>2022-06-29T18:33:37.022Z</time>
    </trkpt>
    <trkpt lat="56.515206" lon="60.771391">
        <ele>269.1</ele>
        <time>2022-06-29T18:33:38.022Z</time>
    </trkpt>
    <trkpt lat="56.515205" lon="60.771409">
        <ele>269.1</ele>
        <time>2022-06-29T18:33:39.022Z</time>
    </trkpt>
    <trkpt lat="56.515197" lon="60.771424">
        <ele>269.1</ele>
        <time>2022-06-29T18:33:40.022Z</time>
    </trkpt>
    <trkpt lat="56.515177" lon="60.77146">
        <ele>269.1</ele>
        <time>2022-06-29T18:33:41.022Z</time>
    </trkpt>
    <trkpt lat="56.515164" lon="60.771475">
        <ele>269.1</ele>
        <time>2022-06-29T18:33:42.022Z</time>
    </trkpt>
    <trkpt lat="56.515156" lon="60.7715">
        <ele>269.1</ele>
        <time>2022-06-29T18:33:43.022Z</time>
    </trkpt>
    <trkpt lat="56.515151" lon="60.771526">
        <ele>269.0</ele>
        <time>2022-06-29T18:33:44.022Z</time>
    </trkpt>
    <trkpt lat="56.515136" lon="60.771546">
        <ele>269.0</ele>
        <time>2022-06-29T18:33:45.022Z</time>
    </trkpt>
    <trkpt lat="56.515129" lon="60.77156">
        <ele>269.0</ele>
        <time>2022-06-29T18:33:46.022Z</time>
    </trkpt>
    <trkpt lat="56.515108" lon="60.771613">
        <ele>268.9</ele>
        <time>2022-06-29T18:33:47.022Z</time>
    </trkpt>
    <trkpt lat="56.515099" lon="60.771624">
        <ele>268.9</ele>
        <time>2022-06-29T18:33:48.022Z</time>
    </trkpt>
    <trkpt lat="56.515073" lon="60.771655">
        <ele>268.9</ele>
        <time>2022-06-29T18:33:49.022Z</time>
    </trkpt>
    <trkpt lat="56.515036" lon="60.771706">
        <ele>268.9</ele>
        <time>2022-06-29T18:33:50.022Z</time>
    </trkpt>
    <trkpt lat="56.515029" lon="60.77171">
        <ele>268.9</ele>
        <time>2022-06-29T18:33:51.022Z</time>
    </trkpt>
    <trkpt lat="56.515005" lon="60.771739">
        <ele>268.9</ele>
        <time>2022-06-29T18:33:52.022Z</time>
    </trkpt>
    <trkpt lat="56.514996" lon="60.771752">
        <ele>268.9</ele>
        <time>2022-06-29T18:33:53.022Z</time>
    </trkpt>
    <trkpt lat="56.514973" lon="60.771792">
        <ele>268.9</ele>
        <time>2022-06-29T18:33:54.022Z</time>
    </trkpt>
    <trkpt lat="56.514963" lon="60.771808">
        <ele>268.9</ele>
        <time>2022-06-29T18:33:55.022Z</time>
    </trkpt>
    <trkpt lat="56.514935" lon="60.771855">
        <ele>269.0</ele>
        <time>2022-06-29T18:33:56.022Z</time>
    </trkpt>
    <trkpt lat="56.51493" lon="60.771868">
        <ele>269.0</ele>
        <time>2022-06-29T18:33:57.022Z</time>
    </trkpt>
    <trkpt lat="56.514909" lon="60.771909">
        <ele>269.1</ele>
        <time>2022-06-29T18:33:58.022Z</time>
    </trkpt>
    <trkpt lat="56.514905" lon="60.771924">
        <ele>269.1</ele>
        <time>2022-06-29T18:33:59.022Z</time>
    </trkpt>
    <trkpt lat="56.51489" lon="60.771975">
        <ele>269.2</ele>
        <time>2022-06-29T18:34:00.022Z</time>
    </trkpt>
    <trkpt lat="56.514886" lon="60.771998">
        <ele>269.2</ele>
        <time>2022-06-29T18:34:01.022Z</time>
    </trkpt>
    <trkpt lat="56.51487" lon="60.772052">
        <ele>269.3</ele>
        <time>2022-06-29T18:34:02.022Z</time>
    </trkpt>
    <trkpt lat="56.51486" lon="60.77206">
        <ele>269.4</ele>
        <time>2022-06-29T18:34:03.022Z</time>
    </trkpt>
    <trkpt lat="56.514832" lon="60.772093">
        <ele>269.4</ele>
        <time>2022-06-29T18:34:04.022Z</time>
    </trkpt>
    <trkpt lat="56.514824" lon="60.772117">
        <ele>269.5</ele>
        <time>2022-06-29T18:34:05.022Z</time>
    </trkpt>
    <trkpt lat="56.514817" lon="60.772135">
        <ele>269.5</ele>
        <time>2022-06-29T18:34:06.022Z</time>
    </trkpt>
    <trkpt lat="56.514806" lon="60.772158">
        <ele>269.6</ele>
        <time>2022-06-29T18:34:07.022Z</time>
    </trkpt>
    <trkpt lat="56.514806" lon="60.772194">
        <ele>269.6</ele>
        <time>2022-06-29T18:34:08.022Z</time>
    </trkpt>
    <trkpt lat="56.514805" lon="60.772214">
        <ele>269.7</ele>
        <time>2022-06-29T18:34:09.022Z</time>
    </trkpt>
    <trkpt lat="56.514793" lon="60.772258">
        <ele>269.7</ele>
        <time>2022-06-29T18:34:10.022Z</time>
    </trkpt>
    <trkpt lat="56.514786" lon="60.772265">
        <ele>269.8</ele>
        <time>2022-06-29T18:34:11.022Z</time>
    </trkpt>
    <trkpt lat="56.514766" lon="60.772312">
        <ele>269.9</ele>
        <time>2022-06-29T18:34:12.022Z</time>
    </trkpt>
    <trkpt lat="56.514753" lon="60.772331">
        <ele>269.9</ele>
        <time>2022-06-29T18:34:13.022Z</time>
    </trkpt>
    <trkpt lat="56.514744" lon="60.772361">
        <ele>269.9</ele>
        <time>2022-06-29T18:34:14.022Z</time>
    </trkpt>
    <trkpt lat="56.514725" lon="60.772404">
        <ele>270.0</ele>
        <time>2022-06-29T18:34:15.022Z</time>
    </trkpt>
    <trkpt lat="56.514718" lon="60.772423">
        <ele>270.0</ele>
        <time>2022-06-29T18:34:16.022Z</time>
    </trkpt>
    <trkpt lat="56.514696" lon="60.772482">
        <ele>270.0</ele>
        <time>2022-06-29T18:34:17.022Z</time>
    </trkpt>
    <trkpt lat="56.514685" lon="60.772498">
        <ele>270.0</ele>
        <time>2022-06-29T18:34:18.022Z</time>
    </trkpt>
    <trkpt lat="56.514658" lon="60.772544">
        <ele>270.0</ele>
        <time>2022-06-29T18:34:19.022Z</time>
    </trkpt>
    <trkpt lat="56.514649" lon="60.772557">
        <ele>270.0</ele>
        <time>2022-06-29T18:34:20.022Z</time>
    </trkpt>
    <trkpt lat="56.514624" lon="60.772602">
        <ele>270.0</ele>
        <time>2022-06-29T18:34:21.022Z</time>
    </trkpt>
    <trkpt lat="56.514615" lon="60.77261">
        <ele>269.9</ele>
        <time>2022-06-29T18:34:22.022Z</time>
    </trkpt>
    <trkpt lat="56.514588" lon="60.77264">
        <ele>269.9</ele>
        <time>2022-06-29T18:34:23.022Z</time>
    </trkpt>
    <trkpt lat="56.514584" lon="60.772662">
        <ele>269.9</ele>
        <time>2022-06-29T18:34:24.022Z</time>
    </trkpt>
    <trkpt lat="56.514572" lon="60.772714">
        <ele>269.8</ele>
        <time>2022-06-29T18:34:25.022Z</time>
    </trkpt>
    <trkpt lat="56.514555" lon="60.772753">
        <ele>269.8</ele>
        <time>2022-06-29T18:34:26.022Z</time>
    </trkpt>
    <trkpt lat="56.514548" lon="60.772772">
        <ele>269.8</ele>
        <time>2022-06-29T18:34:27.022Z</time>
    </trkpt>
    <trkpt lat="56.514532" lon="60.772822">
        <ele>269.7</ele>
        <time>2022-06-29T18:34:28.022Z</time>
    </trkpt>
    <trkpt lat="56.514526" lon="60.772837">
        <ele>269.7</ele>
        <time>2022-06-29T18:34:29.022Z</time>
    </trkpt>
    <trkpt lat="56.51451" lon="60.772884">
        <ele>269.7</ele>
        <time>2022-06-29T18:34:30.022Z</time>
    </trkpt>
    <trkpt lat="56.514505" lon="60.772913">
        <ele>269.6</ele>
        <time>2022-06-29T18:34:31.022Z</time>
    </trkpt>
    <trkpt lat="56.514493" lon="60.772939">
        <ele>269.6</ele>
        <time>2022-06-29T18:34:32.022Z</time>
    </trkpt>
    <trkpt lat="56.514481" lon="60.772971">
        <ele>269.6</ele>
        <time>2022-06-29T18:34:33.022Z</time>
    </trkpt>
    <trkpt lat="56.514477" lon="60.772989">
        <ele>269.6</ele>
        <time>2022-06-29T18:34:34.022Z</time>
    </trkpt>
    <trkpt lat="56.514468" lon="60.773004">
        <ele>269.6</ele>
        <time>2022-06-29T18:34:35.022Z</time>
    </trkpt>
    <trkpt lat="56.514445" lon="60.773038">
        <ele>269.6</ele>
        <time>2022-06-29T18:34:36.022Z</time>
    </trkpt>
    <trkpt lat="56.514435" lon="60.773085">
        <ele>269.6</ele>
        <time>2022-06-29T18:34:37.022Z</time>
    </trkpt>
    <trkpt lat="56.514434" lon="60.773095">
        <ele>269.6</ele>
        <time>2022-06-29T18:34:38.022Z</time>
    </trkpt>
    <trkpt lat="56.514424" lon="60.773117">
        <ele>269.6</ele>
        <time>2022-06-29T18:34:39.022Z</time>
    </trkpt>
    <trkpt lat="56.514415" lon="60.77314">
        <ele>269.6</ele>
        <time>2022-06-29T18:34:40.022Z</time>
    </trkpt>
    <trkpt lat="56.514397" lon="60.773167">
        <ele>269.6</ele>
        <time>2022-06-29T18:34:41.022Z</time>
    </trkpt>
    <trkpt lat="56.514383" lon="60.773204">
        <ele>269.6</ele>
        <time>2022-06-29T18:34:42.022Z</time>
    </trkpt>
    <trkpt lat="56.51438" lon="60.773223">
        <ele>269.6</ele>
        <time>2022-06-29T18:34:43.022Z</time>
    </trkpt>
    <trkpt lat="56.514378" lon="60.77324">
        <ele>269.6</ele>
        <time>2022-06-29T18:34:44.022Z</time>
    </trkpt>
    <trkpt lat="56.514376" lon="60.773268">
        <ele>269.6</ele>
        <time>2022-06-29T18:34:45.022Z</time>
    </trkpt>
    <trkpt lat="56.514378" lon="60.773277">
        <ele>269.6</ele>
        <time>2022-06-29T18:34:46.022Z</time>
    </trkpt>
    <trkpt lat="56.514379" lon="60.77329">
        <ele>269.6</ele>
        <time>2022-06-29T18:34:47.022Z</time>
    </trkpt>
    <trkpt lat="56.514379" lon="60.773302">
        <ele>269.6</ele>
        <time>2022-06-29T18:34:48.022Z</time>
    </trkpt>
    <trkpt lat="56.514379" lon="60.773314">
        <ele>269.6</ele>
        <time>2022-06-29T18:34:49.022Z</time>
    </trkpt>
    <trkpt lat="56.514379" lon="60.773343">
        <ele>269.6</ele>
        <time>2022-06-29T18:34:50.022Z</time>
    </trkpt>
    <trkpt lat="56.514384" lon="60.773359">
        <ele>269.6</ele>
        <time>2022-06-29T18:34:51.022Z</time>
    </trkpt>
    <trkpt lat="56.514377" lon="60.773377">
        <ele>269.7</ele>
        <time>2022-06-29T18:34:52.022Z</time>
    </trkpt>
    <trkpt lat="56.514371" lon="60.773398">
        <ele>269.7</ele>
        <time>2022-06-29T18:34:53.022Z</time>
    </trkpt>
    <trkpt lat="56.514359" lon="60.773412">
        <ele>269.7</ele>
        <time>2022-06-29T18:34:54.022Z</time>
    </trkpt>
    <trkpt lat="56.514347" lon="60.773433">
        <ele>269.7</ele>
        <time>2022-06-29T18:34:55.022Z</time>
    </trkpt>
    <trkpt lat="56.514345" lon="60.773461">
        <ele>269.6</ele>
        <time>2022-06-29T18:34:56.022Z</time>
    </trkpt>
    <trkpt lat="56.514348" lon="60.773482">
        <ele>269.6</ele>
        <time>2022-06-29T18:34:57.022Z</time>
    </trkpt>
    <trkpt lat="56.514343" lon="60.7735">
        <ele>269.6</ele>
        <time>2022-06-29T18:34:58.022Z</time>
    </trkpt>
    <trkpt lat="56.514334" lon="60.773551">
        <ele>269.6</ele>
        <time>2022-06-29T18:34:59.022Z</time>
    </trkpt>
    <trkpt lat="56.514331" lon="60.773571">
        <ele>269.6</ele>
        <time>2022-06-29T18:35:00.022Z</time>
    </trkpt>
    <trkpt lat="56.514328" lon="60.773592">
        <ele>269.5</ele>
        <time>2022-06-29T18:35:01.022Z</time>
    </trkpt>
    <trkpt lat="56.514326" lon="60.773629">
        <ele>269.5</ele>
        <time>2022-06-29T18:35:02.022Z</time>
    </trkpt>
    <trkpt lat="56.514325" lon="60.773655">
        <ele>269.4</ele>
        <time>2022-06-29T18:35:03.022Z</time>
    </trkpt>
    <trkpt lat="56.51433" lon="60.773686">
        <ele>269.4</ele>
        <time>2022-06-29T18:35:04.022Z</time>
    </trkpt>
    <trkpt lat="56.514323" lon="60.7737">
        <ele>269.4</ele>
        <time>2022-06-29T18:35:05.022Z</time>
    </trkpt>
    <trkpt lat="56.514317" lon="60.773714">
        <ele>269.3</ele>
        <time>2022-06-29T18:35:06.022Z</time>
    </trkpt>
    <trkpt lat="56.514304" lon="60.773742">
        <ele>269.2</ele>
        <time>2022-06-29T18:35:07.022Z</time>
    </trkpt>
    <trkpt lat="56.514299" lon="60.773763">
        <ele>269.2</ele>
        <time>2022-06-29T18:35:08.022Z</time>
    </trkpt>
    <trkpt lat="56.514283" lon="60.773805">
        <ele>269.1</ele>
        <time>2022-06-29T18:35:09.022Z</time>
    </trkpt>
    <trkpt lat="56.514269" lon="60.773826">
        <ele>269.0</ele>
        <time>2022-06-29T18:35:10.022Z</time>
    </trkpt>
    <trkpt lat="56.51426" lon="60.773847">
        <ele>268.9</ele>
        <time>2022-06-29T18:35:11.022Z</time>
    </trkpt>
    <trkpt lat="56.514254" lon="60.773862">
        <ele>268.9</ele>
        <time>2022-06-29T18:35:12.022Z</time>
    </trkpt>
    <trkpt lat="56.514236" lon="60.773897">
        <ele>268.8</ele>
        <time>2022-06-29T18:35:13.022Z</time>
    </trkpt>
    <trkpt lat="56.514232" lon="60.773907">
        <ele>268.7</ele>
        <time>2022-06-29T18:35:14.022Z</time>
    </trkpt>
    <trkpt lat="56.514227" lon="60.773917">
        <ele>268.7</ele>
        <time>2022-06-29T18:35:15.022Z</time>
    </trkpt>
    <trkpt lat="56.51422" lon="60.773959">
        <ele>268.6</ele>
        <time>2022-06-29T18:35:16.022Z</time>
    </trkpt>
    <trkpt lat="56.514218" lon="60.773977">
        <ele>268.5</ele>
        <time>2022-06-29T18:35:17.022Z</time>
    </trkpt>
    <trkpt lat="56.514208" lon="60.774022">
        <ele>268.4</ele>
        <time>2022-06-29T18:35:18.022Z</time>
    </trkpt>
    <trkpt lat="56.514202" lon="60.774037">
        <ele>268.4</ele>
        <time>2022-06-29T18:35:19.022Z</time>
    </trkpt>
    <trkpt lat="56.514196" lon="60.774052">
        <ele>268.3</ele>
        <time>2022-06-29T18:35:20.022Z</time>
    </trkpt>
    <trkpt lat="56.514185" lon="60.774083">
        <ele>268.2</ele>
        <time>2022-06-29T18:35:21.022Z</time>
    </trkpt>
    <trkpt lat="56.514181" lon="60.774101">
        <ele>268.2</ele>
        <time>2022-06-29T18:35:22.022Z</time>
    </trkpt>
    <trkpt lat="56.514177" lon="60.774119">
        <ele>268.2</ele>
        <time>2022-06-29T18:35:23.022Z</time>
    </trkpt>
    <trkpt lat="56.514163" lon="60.774152">
        <ele>267.5</ele>
        <time>2022-06-29T18:35:24.022Z</time>
    </trkpt>
    <trkpt lat="56.514152" lon="60.774189">
        <ele>267.4</ele>
        <time>2022-06-29T18:35:25.022Z</time>
    </trkpt>
    <trkpt lat="56.514144" lon="60.774198">
        <ele>267.4</ele>
        <time>2022-06-29T18:35:26.022Z</time>
    </trkpt>
    <trkpt lat="56.514145" lon="60.774213">
        <ele>267.4</ele>
        <time>2022-06-29T18:35:27.022Z</time>
    </trkpt>
    <trkpt lat="56.514152" lon="60.774227">
        <ele>267.4</ele>
        <time>2022-06-29T18:35:28.022Z</time>
    </trkpt>
    <trkpt lat="56.514141" lon="60.774243">
        <ele>267.4</ele>
        <time>2022-06-29T18:35:29.022Z</time>
    </trkpt>
    <trkpt lat="56.514144" lon="60.774254">
        <ele>267.4</ele>
        <time>2022-06-29T18:35:30.022Z</time>
    </trkpt>
    <trkpt lat="56.514135" lon="60.774269">
        <ele>267.3</ele>
        <time>2022-06-29T18:35:31.022Z</time>
    </trkpt>
    <trkpt lat="56.514125" lon="60.774285">
        <ele>267.3</ele>
        <time>2022-06-29T18:35:32.022Z</time>
    </trkpt>
    <trkpt lat="56.514106" lon="60.774315">
        <ele>267.3</ele>
        <time>2022-06-29T18:35:33.022Z</time>
    </trkpt>
    <trkpt lat="56.514101" lon="60.774331">
        <ele>267.3</ele>
        <time>2022-06-29T18:35:34.022Z</time>
    </trkpt>
    <trkpt lat="56.514095" lon="60.774366">
        <ele>267.3</ele>
        <time>2022-06-29T18:35:35.022Z</time>
    </trkpt>
    <trkpt lat="56.514092" lon="60.77439">
        <ele>267.2</ele>
        <time>2022-06-29T18:35:36.022Z</time>
    </trkpt>
    <trkpt lat="56.514091" lon="60.774419">
        <ele>267.2</ele>
        <time>2022-06-29T18:35:37.022Z</time>
    </trkpt>
    <trkpt lat="56.514084" lon="60.774419">
        <ele>267.2</ele>
        <time>2022-06-29T18:35:38.022Z</time>
    </trkpt>
    <trkpt lat="56.514074" lon="60.774436">
        <ele>267.2</ele>
        <time>2022-06-29T18:35:39.022Z</time>
    </trkpt>
    <trkpt lat="56.514064" lon="60.77446">
        <ele>267.2</ele>
        <time>2022-06-29T18:35:40.022Z</time>
    </trkpt>
    <trkpt lat="56.514055" lon="60.774471">
        <ele>267.2</ele>
        <time>2022-06-29T18:35:41.022Z</time>
    </trkpt>
    <trkpt lat="56.514032" lon="60.774501">
        <ele>267.1</ele>
        <time>2022-06-29T18:35:42.022Z</time>
    </trkpt>
    <trkpt lat="56.51402" lon="60.774499">
        <ele>267.1</ele>
        <time>2022-06-29T18:35:43.022Z</time>
    </trkpt>
    <trkpt lat="56.514009" lon="60.774497">
        <ele>267.1</ele>
        <time>2022-06-29T18:35:44.022Z</time>
    </trkpt>
    <trkpt lat="56.513998" lon="60.774495">
        <ele>267.1</ele>
        <time>2022-06-29T18:35:45.022Z</time>
    </trkpt>
    <trkpt lat="56.513987" lon="60.774494">
        <ele>267.1</ele>
        <time>2022-06-29T18:35:46.022Z</time>
    </trkpt>
    <trkpt lat="56.513976" lon="60.774492">
        <ele>267.0</ele>
        <time>2022-06-29T18:35:47.022Z</time>
    </trkpt>
    <trkpt lat="56.513965" lon="60.77449">
        <ele>267.0</ele>
        <time>2022-06-29T18:35:48.022Z</time>
    </trkpt>
    <trkpt lat="56.513954" lon="60.774488">
        <ele>267.0</ele>
        <time>2022-06-29T18:35:49.022Z</time>
    </trkpt>
    <trkpt lat="56.513943" lon="60.774487">
        <ele>267.0</ele>
        <time>2022-06-29T18:35:50.022Z</time>
    </trkpt>
    <trkpt lat="56.513932" lon="60.774485">
        <ele>266.9</ele>
        <time>2022-06-29T18:43:45.022Z</time>
    </trkpt>
    <trkpt lat="56.51392" lon="60.774483">
        <ele>266.9</ele>
        <time>2022-06-29T18:43:46.022Z</time>
    </trkpt>
    <trkpt lat="56.513909" lon="60.774481">
        <ele>266.9</ele>
        <time>2022-06-29T18:43:47.022Z</time>
    </trkpt>
    <trkpt lat="56.513898" lon="60.77448">
        <ele>266.8</ele>
        <time>2022-06-29T18:43:48.022Z</time>
    </trkpt>
    <trkpt lat="56.51388" lon="60.774473">
        <ele>266.8</ele>
        <time>2022-06-29T18:43:49.022Z</time>
    </trkpt>
    <trkpt lat="56.513874" lon="60.77448">
        <ele>266.8</ele>
        <time>2022-06-29T18:43:50.022Z</time>
    </trkpt>
    <trkpt lat="56.513865" lon="60.774486">
        <ele>266.7</ele>
        <time>2022-06-29T18:43:51.022Z</time>
    </trkpt>
    <trkpt lat="56.51386" lon="60.774505">
        <ele>266.7</ele>
        <time>2022-06-29T18:43:52.022Z</time>
    </trkpt>
    <trkpt lat="56.513851" lon="60.774503">
        <ele>266.7</ele>
        <time>2022-06-29T18:43:53.022Z</time>
    </trkpt>
    <trkpt lat="56.513837" lon="60.774528">
        <ele>266.6</ele>
        <time>2022-06-29T18:43:54.022Z</time>
    </trkpt>
    <trkpt lat="56.513821" lon="60.774538">
        <ele>266.5</ele>
        <time>2022-06-29T18:43:55.022Z</time>
    </trkpt>
    <trkpt lat="56.513815" lon="60.774545">
        <ele>266.5</ele>
        <time>2022-06-29T18:43:56.022Z</time>
    </trkpt>
    <trkpt lat="56.513809" lon="60.774552">
        <ele>266.5</ele>
        <time>2022-06-29T18:43:57.022Z</time>
    </trkpt>
    <trkpt lat="56.513791" lon="60.774586">
        <ele>266.3</ele>
        <time>2022-06-29T18:43:58.022Z</time>
    </trkpt>
    <trkpt lat="56.51379" lon="60.77461">
        <ele>266.3</ele>
        <time>2022-06-29T18:43:59.022Z</time>
    </trkpt>
    <trkpt lat="56.513788" lon="60.774621">
        <ele>266.3</ele>
        <time>2022-06-29T18:44:00.022Z</time>
    </trkpt>
    <trkpt lat="56.513781" lon="60.774648">
        <ele>266.2</ele>
        <time>2022-06-29T18:44:01.022Z</time>
    </trkpt>
    <trkpt lat="56.513772" lon="60.774655">
        <ele>266.1</ele>
        <time>2022-06-29T18:44:02.022Z</time>
    </trkpt>
    <trkpt lat="56.513758" lon="60.774662">
        <ele>266.1</ele>
        <time>2022-06-29T18:44:03.022Z</time>
    </trkpt>
    <trkpt lat="56.51375" lon="60.774675">
        <ele>266.0</ele>
        <time>2022-06-29T18:44:04.022Z</time>
    </trkpt>
    <trkpt lat="56.513751" lon="60.774694">
        <ele>266.0</ele>
        <time>2022-06-29T18:44:05.022Z</time>
    </trkpt>
    <trkpt lat="56.51375" lon="60.774748">
        <ele>265.9</ele>
        <time>2022-06-29T18:44:06.022Z</time>
    </trkpt>
    <trkpt lat="56.51374" lon="60.774773">
        <ele>265.8</ele>
        <time>2022-06-29T18:44:07.022Z</time>
    </trkpt>
    <trkpt lat="56.513731" lon="60.774791">
        <ele>265.8</ele>
        <time>2022-06-29T18:44:08.022Z</time>
    </trkpt>
    <trkpt lat="56.513722" lon="60.774806">
        <ele>265.7</ele>
        <time>2022-06-29T18:44:09.022Z</time>
    </trkpt>
    <trkpt lat="56.51372" lon="60.774813">
        <ele>265.7</ele>
        <time>2022-06-29T18:44:10.022Z</time>
    </trkpt>
    <trkpt lat="56.513715" lon="60.774834">
        <ele>265.7</ele>
        <time>2022-06-29T18:44:11.022Z</time>
    </trkpt>
    <trkpt lat="56.513702" lon="60.774854">
        <ele>265.6</ele>
        <time>2022-06-29T18:44:12.022Z</time>
    </trkpt>
    <trkpt lat="56.513696" lon="60.774875">
        <ele>265.6</ele>
        <time>2022-06-29T18:44:13.022Z</time>
    </trkpt>
    <trkpt lat="56.513678" lon="60.774901">
        <ele>265.5</ele>
        <time>2022-06-29T18:44:14.022Z</time>
    </trkpt>
    <trkpt lat="56.513676" lon="60.774924">
        <ele>265.5</ele>
        <time>2022-06-29T18:44:15.022Z</time>
    </trkpt>
    <trkpt lat="56.513654" lon="60.774952">
        <ele>265.4</ele>
        <time>2022-06-29T18:44:16.022Z</time>
    </trkpt>
    <trkpt lat="56.513643" lon="60.774964">
        <ele>265.4</ele>
        <time>2022-06-29T18:44:17.022Z</time>
    </trkpt>
    <trkpt lat="56.513618" lon="60.774995">
        <ele>265.3</ele>
        <time>2022-06-29T18:44:18.022Z</time>
    </trkpt>
    <trkpt lat="56.513609" lon="60.775043">
        <ele>265.3</ele>
        <time>2022-06-29T18:44:19.022Z</time>
    </trkpt>
    <trkpt lat="56.513604" lon="60.775062">
        <ele>265.3</ele>
        <time>2022-06-29T18:44:20.022Z</time>
    </trkpt>
    <trkpt lat="56.513585" lon="60.775117">
        <ele>265.2</ele>
        <time>2022-06-29T18:44:21.022Z</time>
    </trkpt>
    <trkpt lat="56.513576" lon="60.775202">
        <ele>265.1</ele>
        <time>2022-06-29T18:44:22.022Z</time>
    </trkpt>
    <trkpt lat="56.513577" lon="60.775254">
        <ele>265.1</ele>
        <time>2022-06-29T18:44:23.022Z</time>
    </trkpt>
    <trkpt lat="56.513566" lon="60.775303">
        <ele>265.0</ele>
        <time>2022-06-29T18:44:24.022Z</time>
    </trkpt>
    <trkpt lat="56.513544" lon="60.775364">
        <ele>264.9</ele>
        <time>2022-06-29T18:44:31.022Z</time>
    </trkpt>
    <trkpt lat="56.513539" lon="60.775367">
        <ele>264.9</ele>
        <time>2022-06-29T18:44:32.022Z</time>
    </trkpt>
    <trkpt lat="56.513536" lon="60.775375">
        <ele>264.9</ele>
        <time>2022-06-29T18:44:33.022Z</time>
    </trkpt>
    <trkpt lat="56.513537" lon="60.775387">
        <ele>264.9</ele>
        <time>2022-06-29T18:44:34.022Z</time>
    </trkpt>
    <trkpt lat="56.513531" lon="60.775396">
        <ele>264.9</ele>
        <time>2022-06-29T18:44:35.022Z</time>
    </trkpt>
    <trkpt lat="56.513524" lon="60.775406">
        <ele>264.9</ele>
        <time>2022-06-29T18:44:36.022Z</time>
    </trkpt>
    <trkpt lat="56.513518" lon="60.775411">
        <ele>264.8</ele>
        <time>2022-06-29T18:44:37.022Z</time>
    </trkpt>
    <trkpt lat="56.513513" lon="60.775422">
        <ele>264.8</ele>
        <time>2022-06-29T18:44:38.022Z</time>
    </trkpt>
    <trkpt lat="56.513507" lon="60.775413">
        <ele>264.8</ele>
        <time>2022-06-29T18:44:39.022Z</time>
    </trkpt>
    <trkpt lat="56.513505" lon="60.775413">
        <ele>264.8</ele>
        <time>2022-06-29T18:44:40.022Z</time>
    </trkpt>
    <trkpt lat="56.513504" lon="60.775432">
        <ele>264.8</ele>
        <time>2022-06-29T18:44:41.022Z</time>
    </trkpt>
    <trkpt lat="56.513495" lon="60.775458">
        <ele>264.8</ele>
        <time>2022-06-29T18:44:42.022Z</time>
    </trkpt>
    <trkpt lat="56.513484" lon="60.775482">
        <ele>264.7</ele>
        <time>2022-06-29T18:44:43.022Z</time>
    </trkpt>
    <trkpt lat="56.513465" lon="60.775517">
        <ele>264.7</ele>
        <time>2022-06-29T18:44:44.022Z</time>
    </trkpt>
    <trkpt lat="56.513456" lon="60.775535">
        <ele>264.7</ele>
        <time>2022-06-29T18:44:45.022Z</time>
    </trkpt>
    <trkpt lat="56.513451" lon="60.775576">
        <ele>264.7</ele>
        <time>2022-06-29T18:44:46.022Z</time>
    </trkpt>
    <trkpt lat="56.513435" lon="60.775619">
        <ele>264.7</ele>
        <time>2022-06-29T18:44:47.022Z</time>
    </trkpt>
    <trkpt lat="56.513429" lon="60.775644">
        <ele>264.7</ele>
        <time>2022-06-29T18:44:48.022Z</time>
    </trkpt>
    <trkpt lat="56.513413" lon="60.775702">
        <ele>264.7</ele>
        <time>2022-06-29T18:44:49.022Z</time>
    </trkpt>
    <trkpt lat="56.513405" lon="60.775719">
        <ele>264.7</ele>
        <time>2022-06-29T18:44:50.022Z</time>
    </trkpt>
    <trkpt lat="56.513391" lon="60.775757">
        <ele>264.7</ele>
        <time>2022-06-29T18:44:51.022Z</time>
    </trkpt>
    <trkpt lat="56.513387" lon="60.77578">
        <ele>264.7</ele>
        <time>2022-06-29T18:44:52.022Z</time>
    </trkpt>
    <trkpt lat="56.513373" lon="60.775825">
        <ele>264.7</ele>
        <time>2022-06-29T18:44:53.022Z</time>
    </trkpt>
    <trkpt lat="56.513372" lon="60.775843">
        <ele>264.7</ele>
        <time>2022-06-29T18:44:54.022Z</time>
    </trkpt>
    <trkpt lat="56.513364" lon="60.7759">
        <ele>264.7</ele>
        <time>2022-06-29T18:44:55.022Z</time>
    </trkpt>
    <trkpt lat="56.513352" lon="60.77592">
        <ele>264.7</ele>
        <time>2022-06-29T18:44:56.022Z</time>
    </trkpt>
    <trkpt lat="56.513321" lon="60.775961">
        <ele>264.6</ele>
        <time>2022-06-29T18:44:57.022Z</time>
    </trkpt>
    <trkpt lat="56.513298" lon="60.776008">
        <ele>264.6</ele>
        <time>2022-06-29T18:44:58.022Z</time>
    </trkpt>
    <trkpt lat="56.51329" lon="60.776025">
        <ele>264.6</ele>
        <time>2022-06-29T18:44:59.022Z</time>
    </trkpt>
    <trkpt lat="56.513269" lon="60.776062">
        <ele>264.5</ele>
        <time>2022-06-29T18:45:00.022Z</time>
    </trkpt>
    <trkpt lat="56.513264" lon="60.776073">
        <ele>264.5</ele>
        <time>2022-06-29T18:45:01.022Z</time>
    </trkpt>
    <trkpt lat="56.513244" lon="60.776118">
        <ele>264.5</ele>
        <time>2022-06-29T18:45:02.022Z</time>
    </trkpt>
    <trkpt lat="56.51324" lon="60.776127">
        <ele>264.5</ele>
        <time>2022-06-29T18:45:03.022Z</time>
    </trkpt>
    <trkpt lat="56.513225" lon="60.776178">
        <ele>264.4</ele>
        <time>2022-06-29T18:45:04.022Z</time>
    </trkpt>
    <trkpt lat="56.513218" lon="60.776192">
        <ele>264.4</ele>
        <time>2022-06-29T18:45:05.022Z</time>
    </trkpt>
    <trkpt lat="56.513199" lon="60.776243">
        <ele>264.3</ele>
        <time>2022-06-29T18:45:06.022Z</time>
    </trkpt>
    <trkpt lat="56.513194" lon="60.776252">
        <ele>264.3</ele>
        <time>2022-06-29T18:45:07.022Z</time>
    </trkpt>
    <trkpt lat="56.513177" lon="60.776299">
        <ele>264.2</ele>
        <time>2022-06-29T18:45:08.022Z</time>
    </trkpt>
    <trkpt lat="56.513164" lon="60.776318">
        <ele>264.1</ele>
        <time>2022-06-29T18:45:09.022Z</time>
    </trkpt>
    <trkpt lat="56.513152" lon="60.776323">
        <ele>264.1</ele>
        <time>2022-06-29T18:45:10.022Z</time>
    </trkpt>
    <trkpt lat="56.513138" lon="60.776346">
        <ele>264.1</ele>
        <time>2022-06-29T18:45:11.022Z</time>
    </trkpt>
    <trkpt lat="56.513132" lon="60.776375">
        <ele>264.0</ele>
        <time>2022-06-29T18:45:12.022Z</time>
    </trkpt>
    <trkpt lat="56.513122" lon="60.776385">
        <ele>264.0</ele>
        <time>2022-06-29T18:45:13.022Z</time>
    </trkpt>
    <trkpt lat="56.513108" lon="60.776407">
        <ele>263.9</ele>
        <time>2022-06-29T18:45:14.022Z</time>
    </trkpt>
    <trkpt lat="56.513097" lon="60.776423">
        <ele>263.9</ele>
        <time>2022-06-29T18:45:15.022Z</time>
    </trkpt>
    <trkpt lat="56.513084" lon="60.776448">
        <ele>263.8</ele>
        <time>2022-06-29T18:45:16.022Z</time>
    </trkpt>
    <trkpt lat="56.513073" lon="60.77647">
        <ele>263.8</ele>
        <time>2022-06-29T18:45:17.022Z</time>
    </trkpt>
    <trkpt lat="56.513071" lon="60.776492">
        <ele>263.8</ele>
        <time>2022-06-29T18:45:18.022Z</time>
    </trkpt>
    <trkpt lat="56.513064" lon="60.776502">
        <ele>263.7</ele>
        <time>2022-06-29T18:45:19.022Z</time>
    </trkpt>
    <trkpt lat="56.513056" lon="60.776512">
        <ele>263.7</ele>
        <time>2022-06-29T18:45:20.022Z</time>
    </trkpt>
    <trkpt lat="56.513048" lon="60.776542">
        <ele>263.7</ele>
        <time>2022-06-29T18:45:21.022Z</time>
    </trkpt>
    <trkpt lat="56.513032" lon="60.776565">
        <ele>263.6</ele>
        <time>2022-06-29T18:45:22.022Z</time>
    </trkpt>
    <trkpt lat="56.513019" lon="60.776572">
        <ele>263.5</ele>
        <time>2022-06-29T18:45:23.022Z</time>
    </trkpt>
    <trkpt lat="56.513008" lon="60.77661">
        <ele>263.5</ele>
        <time>2022-06-29T18:45:24.022Z</time>
    </trkpt>
    <trkpt lat="56.513" lon="60.776624">
        <ele>263.4</ele>
        <time>2022-06-29T18:45:25.022Z</time>
    </trkpt>
    <trkpt lat="56.512995" lon="60.776643">
        <ele>263.4</ele>
        <time>2022-06-29T18:45:26.022Z</time>
    </trkpt>
    <trkpt lat="56.512989" lon="60.776662">
        <ele>263.3</ele>
        <time>2022-06-29T18:45:27.022Z</time>
    </trkpt>
    <trkpt lat="56.512983" lon="60.776697">
        <ele>263.2</ele>
        <time>2022-06-29T18:45:28.022Z</time>
    </trkpt>
    <trkpt lat="56.512978" lon="60.77671">
        <ele>263.2</ele>
        <time>2022-06-29T18:45:29.022Z</time>
    </trkpt>
    <trkpt lat="56.512962" lon="60.776751">
        <ele>263.0</ele>
        <time>2022-06-29T18:45:30.022Z</time>
    </trkpt>
    <trkpt lat="56.512958" lon="60.776774">
        <ele>262.9</ele>
        <time>2022-06-29T18:45:31.022Z</time>
    </trkpt>
    <trkpt lat="56.512943" lon="60.776796">
        <ele>262.8</ele>
        <time>2022-06-29T18:45:32.022Z</time>
    </trkpt>
    <trkpt lat="56.512945" lon="60.776824">
        <ele>262.7</ele>
        <time>2022-06-29T18:45:33.022Z</time>
    </trkpt>
    <trkpt lat="56.512922" lon="60.77684">
        <ele>262.7</ele>
        <time>2022-06-29T18:45:34.022Z</time>
    </trkpt>
    <trkpt lat="56.512912" lon="60.776841">
        <ele>262.7</ele>
        <time>2022-06-29T18:45:35.022Z</time>
    </trkpt>
    <trkpt lat="56.512902" lon="60.776843">
        <ele>260.7</ele>
        <time>2022-06-29T18:45:36.022Z</time>
    </trkpt>
    <trkpt lat="56.512891" lon="60.776844">
        <ele>260.7</ele>
        <time>2022-06-29T18:45:37.022Z</time>
    </trkpt>
    <trkpt lat="56.512877" lon="60.776835">
        <ele>260.7</ele>
        <time>2022-06-29T18:45:38.022Z</time>
    </trkpt>
    <trkpt lat="56.512867" lon="60.776776">
        <ele>260.7</ele>
        <time>2022-06-29T18:45:39.022Z</time>
    </trkpt>
    <trkpt lat="56.512865" lon="60.776753">
        <ele>260.7</ele>
        <time>2022-06-29T18:45:40.022Z</time>
    </trkpt>
    <trkpt lat="56.512863" lon="60.776731">
        <ele>260.7</ele>
        <time>2022-06-29T18:45:41.022Z</time>
    </trkpt>
    <trkpt lat="56.51286" lon="60.776708">
        <ele>261.7</ele>
        <time>2022-06-29T18:45:42.022Z</time>
    </trkpt>
    <trkpt lat="56.512845" lon="60.776631">
        <ele>261.7</ele>
        <time>2022-06-29T18:45:46.022Z</time>
    </trkpt>
    <trkpt lat="56.512847" lon="60.776622">
        <ele>261.7</ele>
        <time>2022-06-29T18:45:47.022Z</time>
    </trkpt>
    <trkpt lat="56.512849" lon="60.776619">
        <ele>261.7</ele>
        <time>2022-06-29T18:45:48.022Z</time>
    </trkpt>
    <trkpt lat="56.512849" lon="60.776613">
        <ele>261.7</ele>
        <time>2022-06-29T18:45:49.022Z</time>
    </trkpt>
    <trkpt lat="56.512843" lon="60.776601">
        <ele>261.7</ele>
        <time>2022-06-29T18:45:50.022Z</time>
    </trkpt>
    <trkpt lat="56.512839" lon="60.776576">
        <ele>261.7</ele>
        <time>2022-06-29T18:45:51.022Z</time>
    </trkpt>
    <trkpt lat="56.512838" lon="60.776552">
        <ele>261.7</ele>
        <time>2022-06-29T18:45:52.022Z</time>
    </trkpt>
    <trkpt lat="56.512829" lon="60.776515">
        <ele>262.7</ele>
        <time>2022-06-29T18:45:53.022Z</time>
    </trkpt>
    <trkpt lat="56.512821" lon="60.776494">
        <ele>262.7</ele>
        <time>2022-06-29T18:45:54.022Z</time>
    </trkpt>
    <trkpt lat="56.51281" lon="60.776455">
        <ele>261.7</ele>
        <time>2022-06-29T18:45:55.022Z</time>
    </trkpt>
    <trkpt lat="56.512805" lon="60.776436">
        <ele>261.7</ele>
        <time>2022-06-29T18:45:56.022Z</time>
    </trkpt>
    <trkpt lat="56.512785" lon="60.776396">
        <ele>261.7</ele>
        <time>2022-06-29T18:45:57.022Z</time>
    </trkpt>
    <trkpt lat="56.512773" lon="60.776353">
        <ele>263.7</ele>
        <time>2022-06-29T18:45:58.022Z</time>
    </trkpt>
    <trkpt lat="56.512769" lon="60.776318">
        <ele>263.7</ele>
        <time>2022-06-29T18:45:59.022Z</time>
    </trkpt>
    <trkpt lat="56.512758" lon="60.776295">
        <ele>263.7</ele>
        <time>2022-06-29T18:46:00.022Z</time>
    </trkpt>
    <trkpt lat="56.512749" lon="60.776277">
        <ele>263.7</ele>
        <time>2022-06-29T18:46:01.022Z</time>
    </trkpt>
    <trkpt lat="56.512732" lon="60.77624">
        <ele>263.7</ele>
        <time>2022-06-29T18:46:02.022Z</time>
    </trkpt>
    <trkpt lat="56.512716" lon="60.776191">
        <ele>265.7</ele>
        <time>2022-06-29T18:46:03.022Z</time>
    </trkpt>
    <trkpt lat="56.512708" lon="60.776173">
        <ele>265.7</ele>
        <time>2022-06-29T18:46:04.022Z</time>
    </trkpt>
    <trkpt lat="56.512683" lon="60.776146">
        <ele>265.7</ele>
        <time>2022-06-29T18:46:05.022Z</time>
    </trkpt>
    <trkpt lat="56.512658" lon="60.776115">
        <ele>265.7</ele>
        <time>2022-06-29T18:46:06.022Z</time>
    </trkpt>
    <trkpt lat="56.512658" lon="60.776105">
        <ele>265.7</ele>
        <time>2022-06-29T18:46:07.022Z</time>
    </trkpt>
    <trkpt lat="56.512647" lon="60.77609">
        <ele>265.7</ele>
        <time>2022-06-29T18:46:08.022Z</time>
    </trkpt>
    <trkpt lat="56.512616" lon="60.776062">
        <ele>265.7</ele>
        <time>2022-06-29T18:46:09.022Z</time>
    </trkpt>
    <trkpt lat="56.51261" lon="60.776058">
        <ele>265.7</ele>
        <time>2022-06-29T18:46:10.022Z</time>
    </trkpt>
    <trkpt lat="56.512593" lon="60.776024">
        <ele>265.7</ele>
        <time>2022-06-29T18:46:11.022Z</time>
    </trkpt>
    <trkpt lat="56.512583" lon="60.776009">
        <ele>267.7</ele>
        <time>2022-06-29T18:46:12.022Z</time>
    </trkpt>
    <trkpt lat="56.512574" lon="60.775994">
        <ele>267.7</ele>
        <time>2022-06-29T18:46:13.022Z</time>
    </trkpt>
    <trkpt lat="56.512555" lon="60.775979">
        <ele>267.7</ele>
        <time>2022-06-29T18:46:14.022Z</time>
    </trkpt>
    <trkpt lat="56.51255" lon="60.775961">
        <ele>267.7</ele>
        <time>2022-06-29T18:46:15.022Z</time>
    </trkpt>
    <trkpt lat="56.512544" lon="60.775944">
        <ele>267.7</ele>
        <time>2022-06-29T18:46:16.022Z</time>
    </trkpt>
    <trkpt lat="56.512528" lon="60.775916">
        <ele>268.7</ele>
        <time>2022-06-29T18:46:17.022Z</time>
    </trkpt>
    <trkpt lat="56.512515" lon="60.775896">
        <ele>268.7</ele>
        <time>2022-06-29T18:46:18.022Z</time>
    </trkpt>
    <trkpt lat="56.512503" lon="60.775877">
        <ele>268.7</ele>
        <time>2022-06-29T18:46:19.022Z</time>
    </trkpt>
    <trkpt lat="56.512493" lon="60.775874">
        <ele>268.7</ele>
        <time>2022-06-29T18:46:20.022Z</time>
    </trkpt>
    <trkpt lat="56.512464" lon="60.775866">
        <ele>268.7</ele>
        <time>2022-06-29T18:46:21.022Z</time>
    </trkpt>
    <trkpt lat="56.512453" lon="60.775863">
        <ele>268.7</ele>
        <time>2022-06-29T18:46:22.022Z</time>
    </trkpt>
    <trkpt lat="56.512435" lon="60.775853">
        <ele>268.7</ele>
        <time>2022-06-29T18:46:23.022Z</time>
    </trkpt>
    <trkpt lat="56.51242" lon="60.775853">
        <ele>268.7</ele>
        <time>2022-06-29T18:46:24.022Z</time>
    </trkpt>
    <trkpt lat="56.512383" lon="60.775852">
        <ele>270.7</ele>
        <time>2022-06-29T18:46:25.022Z</time>
    </trkpt>
    <trkpt lat="56.512353" lon="60.775861">
        <ele>268.7</ele>
        <time>2022-06-29T18:46:26.022Z</time>
    </trkpt>
    <trkpt lat="56.512338" lon="60.775868">
        <ele>269.7</ele>
        <time>2022-06-29T18:46:27.022Z</time>
    </trkpt>
    <trkpt lat="56.512327" lon="60.775886">
        <ele>269.7</ele>
        <time>2022-06-29T18:46:28.022Z</time>
    </trkpt>
    <trkpt lat="56.512305" lon="60.775896">
        <ele>269.7</ele>
        <time>2022-06-29T18:46:29.022Z</time>
    </trkpt>
    <trkpt lat="56.512293" lon="60.775902">
        <ele>269.7</ele>
        <time>2022-06-29T18:46:30.022Z</time>
    </trkpt>
    <trkpt lat="56.512284" lon="60.775903">
        <ele>269.7</ele>
        <time>2022-06-29T18:46:31.022Z</time>
    </trkpt>
    <trkpt lat="56.51225" lon="60.775908">
        <ele>269.7</ele>
        <time>2022-06-29T18:46:32.022Z</time>
    </trkpt>
    <trkpt lat="56.512222" lon="60.775922">
        <ele>269.7</ele>
        <time>2022-06-29T18:46:33.022Z</time>
    </trkpt>
    <trkpt lat="56.512212" lon="60.775922">
        <ele>269.7</ele>
        <time>2022-06-29T18:46:34.022Z</time>
    </trkpt>
    <trkpt lat="56.512177" lon="60.775929">
        <ele>269.7</ele>
        <time>2022-06-29T18:46:35.022Z</time>
    </trkpt>
    <trkpt lat="56.512165" lon="60.775932">
        <ele>269.7</ele>
        <time>2022-06-29T18:46:36.022Z</time>
    </trkpt>
    <trkpt lat="56.512129" lon="60.775925">
        <ele>269.7</ele>
        <time>2022-06-29T18:46:37.022Z</time>
    </trkpt>
    <trkpt lat="56.512101" lon="60.775919">
        <ele>269.7</ele>
        <time>2022-06-29T18:46:38.022Z</time>
    </trkpt>
    <trkpt lat="56.512073" lon="60.775899">
        <ele>269.7</ele>
        <time>2022-06-29T18:46:39.022Z</time>
    </trkpt>
    <trkpt lat="56.512043" lon="60.775883">
        <ele>270.7</ele>
        <time>2022-06-29T18:46:40.022Z</time>
    </trkpt>
    <trkpt lat="56.512005" lon="60.775858">
        <ele>270.7</ele>
        <time>2022-06-29T18:46:41.022Z</time>
    </trkpt>
    <trkpt lat="56.511973" lon="60.775831">
        <ele>270.7</ele>
        <time>2022-06-29T18:46:42.022Z</time>
    </trkpt>
    <trkpt lat="56.511954" lon="60.775819">
        <ele>270.7</ele>
        <time>2022-06-29T18:46:43.022Z</time>
    </trkpt>
    <trkpt lat="56.51191" lon="60.775784">
        <ele>270.7</ele>
        <time>2022-06-29T18:46:44.022Z</time>
    </trkpt>
    <trkpt lat="56.511878" lon="60.775743">
        <ele>270.7</ele>
        <time>2022-06-29T18:46:45.022Z</time>
    </trkpt>
    <trkpt lat="56.511834" lon="60.775707">
        <ele>269.7</ele>
        <time>2022-06-29T18:46:46.022Z</time>
    </trkpt>
    <trkpt lat="56.511802" lon="60.775694">
        <ele>269.7</ele>
        <time>2022-06-29T18:46:47.022Z</time>
    </trkpt>
    <trkpt lat="56.51177" lon="60.775673">
        <ele>269.7</ele>
        <time>2022-06-29T18:46:48.022Z</time>
    </trkpt>
    <trkpt lat="56.511747" lon="60.775657">
        <ele>269.7</ele>
        <time>2022-06-29T18:46:49.022Z</time>
    </trkpt>
    <trkpt lat="56.511741" lon="60.775658">
        <ele>269.7</ele>
        <time>2022-06-29T18:46:50.022Z</time>
    </trkpt>
    <trkpt lat="56.511728" lon="60.775658">
        <ele>269.7</ele>
        <time>2022-06-29T18:46:51.022Z</time>
    </trkpt>
    <trkpt lat="56.511698" lon="60.775659">
        <ele>269.7</ele>
        <time>2022-06-29T18:46:52.022Z</time>
    </trkpt>
    <trkpt lat="56.51167" lon="60.775645">
        <ele>268.7</ele>
        <time>2022-06-29T18:46:53.022Z</time>
    </trkpt>
    <trkpt lat="56.511658" lon="60.775642">
        <ele>268.7</ele>
        <time>2022-06-29T18:46:54.022Z</time>
    </trkpt>
    <trkpt lat="56.511621" lon="60.775638">
        <ele>268.7</ele>
        <time>2022-06-29T18:46:55.022Z</time>
    </trkpt>
    <trkpt lat="56.511611" lon="60.775635">
        <ele>268.7</ele>
        <time>2022-06-29T18:46:56.022Z</time>
    </trkpt>
    <trkpt lat="56.511578" lon="60.77562">
        <ele>268.7</ele>
        <time>2022-06-29T18:46:57.022Z</time>
    </trkpt>
    <trkpt lat="56.511547" lon="60.775616">
        <ele>268.7</ele>
        <time>2022-06-29T18:46:58.022Z</time>
    </trkpt>
    <trkpt lat="56.511533" lon="60.775604">
        <ele>268.7</ele>
        <time>2022-06-29T18:46:59.022Z</time>
    </trkpt>
    <trkpt lat="56.511516" lon="60.77559">
        <ele>268.7</ele>
        <time>2022-06-29T18:47:00.022Z</time>
    </trkpt>
    <trkpt lat="56.511506" lon="60.775578">
        <ele>268.7</ele>
        <time>2022-06-29T18:47:01.022Z</time>
    </trkpt>
    <trkpt lat="56.511495" lon="60.775566">
        <ele>268.7</ele>
        <time>2022-06-29T18:47:02.022Z</time>
    </trkpt>
    <trkpt lat="56.511472" lon="60.775567">
        <ele>267.7</ele>
        <time>2022-06-29T18:47:03.022Z</time>
    </trkpt>
    <trkpt lat="56.511455" lon="60.775581">
        <ele>267.7</ele>
        <time>2022-06-29T18:47:04.022Z</time>
    </trkpt>
    <trkpt lat="56.511439" lon="60.77558">
        <ele>267.7</ele>
        <time>2022-06-29T18:47:05.022Z</time>
    </trkpt>
    <trkpt lat="56.51143" lon="60.775581">
        <ele>267.7</ele>
        <time>2022-06-29T18:47:06.022Z</time>
    </trkpt>
    <trkpt lat="56.511421" lon="60.775582">
        <ele>267.7</ele>
        <time>2022-06-29T18:47:07.022Z</time>
    </trkpt>
    <trkpt lat="56.511402" lon="60.775583">
        <ele>267.7</ele>
        <time>2022-06-29T18:47:08.022Z</time>
    </trkpt>
    <trkpt lat="56.511383" lon="60.775584">
        <ele>267.7</ele>
        <time>2022-06-29T18:47:09.022Z</time>
    </trkpt>
    <trkpt lat="56.511369" lon="60.775587">
        <ele>267.7</ele>
        <time>2022-06-29T18:47:10.022Z</time>
    </trkpt>
    <trkpt lat="56.511351" lon="60.775593">
        <ele>267.7</ele>
        <time>2022-06-29T18:47:11.022Z</time>
    </trkpt>
    <trkpt lat="56.51134" lon="60.775586">
        <ele>267.7</ele>
        <time>2022-06-29T18:47:12.022Z</time>
    </trkpt>
    <trkpt lat="56.511333" lon="60.775583">
        <ele>267.7</ele>
        <time>2022-06-29T18:47:13.022Z</time>
    </trkpt>
    <trkpt lat="56.511327" lon="60.775579">
        <ele>267.7</ele>
        <time>2022-06-29T18:47:14.022Z</time>
    </trkpt>
    <trkpt lat="56.511299" lon="60.775576">
        <ele>266.7</ele>
        <time>2022-06-29T18:47:15.022Z</time>
    </trkpt>
    <trkpt lat="56.511287" lon="60.775581">
        <ele>266.7</ele>
        <time>2022-06-29T18:47:16.022Z</time>
    </trkpt>
    <trkpt lat="56.511257" lon="60.775582">
        <ele>266.7</ele>
        <time>2022-06-29T18:47:17.022Z</time>
    </trkpt>
    <trkpt lat="56.511248" lon="60.775579">
        <ele>266.7</ele>
        <time>2022-06-29T18:47:18.022Z</time>
    </trkpt>
    <trkpt lat="56.511219" lon="60.775564">
        <ele>266.7</ele>
        <time>2022-06-29T18:47:19.022Z</time>
    </trkpt>
    <trkpt lat="56.511199" lon="60.775544">
        <ele>265.7</ele>
        <time>2022-06-29T18:47:20.022Z</time>
    </trkpt>
    <trkpt lat="56.511187" lon="60.775536">
        <ele>265.7</ele>
        <time>2022-06-29T18:47:21.022Z</time>
    </trkpt>
    <trkpt lat="56.511171" lon="60.775526">
        <ele>265.7</ele>
        <time>2022-06-29T18:47:22.022Z</time>
    </trkpt>
    <trkpt lat="56.511135" lon="60.77551">
        <ele>265.7</ele>
        <time>2022-06-29T18:47:23.022Z</time>
    </trkpt>
    <trkpt lat="56.511118" lon="60.775502">
        <ele>266.7</ele>
        <time>2022-06-29T18:47:24.022Z</time>
    </trkpt>
    <trkpt lat="56.511103" lon="60.7755">
        <ele>265.7</ele>
        <time>2022-06-29T18:47:25.022Z</time>
    </trkpt>
    <trkpt lat="56.511092" lon="60.775501">
        <ele>265.7</ele>
        <time>2022-06-29T18:47:26.022Z</time>
    </trkpt>
    <trkpt lat="56.51107" lon="60.77549">
        <ele>265.7</ele>
        <time>2022-06-29T18:47:27.022Z</time>
    </trkpt>
    <trkpt lat="56.511058" lon="60.775486">
        <ele>265.7</ele>
        <time>2022-06-29T18:47:28.022Z</time>
    </trkpt>
    <trkpt lat="56.511024" lon="60.77547">
        <ele>265.7</ele>
        <time>2022-06-29T18:47:29.022Z</time>
    </trkpt>
    <trkpt lat="56.511013" lon="60.775463">
        <ele>264.7</ele>
        <time>2022-06-29T18:47:30.022Z</time>
    </trkpt>
    <trkpt lat="56.510986" lon="60.775444">
        <ele>264.7</ele>
        <time>2022-06-29T18:47:31.022Z</time>
    </trkpt>
    <trkpt lat="56.510957" lon="60.775435">
        <ele>264.7</ele>
        <time>2022-06-29T18:47:32.022Z</time>
    </trkpt>
    <trkpt lat="56.510943" lon="60.775433">
        <ele>264.7</ele>
        <time>2022-06-29T18:47:33.022Z</time>
    </trkpt>
    <trkpt lat="56.510923" lon="60.775429">
        <ele>264.7</ele>
        <time>2022-06-29T18:47:35.022Z</time>
    </trkpt>
    <trkpt lat="56.510916" lon="60.775422">
        <ele>263.7</ele>
        <time>2022-06-29T18:47:36.022Z</time>
    </trkpt>
    <trkpt lat="56.510892" lon="60.775422">
        <ele>263.7</ele>
        <time>2022-06-29T18:47:37.022Z</time>
    </trkpt>
    <trkpt lat="56.510878" lon="60.775421">
        <ele>263.7</ele>
        <time>2022-06-29T18:47:38.022Z</time>
    </trkpt>
    <trkpt lat="56.510873" lon="60.775419">
        <ele>263.7</ele>
        <time>2022-06-29T18:47:39.022Z</time>
    </trkpt>
    <trkpt lat="56.510857" lon="60.775417">
        <ele>263.7</ele>
        <time>2022-06-29T18:47:40.022Z</time>
    </trkpt>
    <trkpt lat="56.510847" lon="60.775418">
        <ele>263.7</ele>
        <time>2022-06-29T18:47:41.022Z</time>
    </trkpt>
    <trkpt lat="56.510836" lon="60.775419">
        <ele>263.7</ele>
        <time>2022-06-29T18:47:42.022Z</time>
    </trkpt>
    <trkpt lat="56.510819" lon="60.775414">
        <ele>263.7</ele>
        <time>2022-06-29T18:47:43.022Z</time>
    </trkpt>
    <trkpt lat="56.510804" lon="60.775409">
        <ele>263.7</ele>
        <time>2022-06-29T18:47:44.022Z</time>
    </trkpt>
    <trkpt lat="56.510767" lon="60.775397">
        <ele>263.7</ele>
        <time>2022-06-29T18:47:45.022Z</time>
    </trkpt>
    <trkpt lat="56.510749" lon="60.775394">
        <ele>263.7</ele>
        <time>2022-06-29T18:47:46.022Z</time>
    </trkpt>
    <trkpt lat="56.510738" lon="60.775407">
        <ele>263.7</ele>
        <time>2022-06-29T18:47:47.022Z</time>
    </trkpt>
    <trkpt lat="56.510728" lon="60.775403">
        <ele>262.7</ele>
        <time>2022-06-29T18:47:48.022Z</time>
    </trkpt>
    <trkpt lat="56.510698" lon="60.775389">
        <ele>262.7</ele>
        <time>2022-06-29T18:47:49.022Z</time>
    </trkpt>
    <trkpt lat="56.510688" lon="60.77539">
        <ele>262.7</ele>
        <time>2022-06-29T18:47:50.022Z</time>
    </trkpt>
    <trkpt lat="56.510678" lon="60.77539">
        <ele>262.7</ele>
        <time>2022-06-29T18:47:51.022Z</time>
    </trkpt>
    <trkpt lat="56.510658" lon="60.775382">
        <ele>262.7</ele>
        <time>2022-06-29T18:47:52.022Z</time>
    </trkpt>
    <trkpt lat="56.510647" lon="60.775371">
        <ele>262.7</ele>
        <time>2022-06-29T18:47:53.022Z</time>
    </trkpt>
    <trkpt lat="56.51063" lon="60.775356">
        <ele>262.7</ele>
        <time>2022-06-29T18:47:54.022Z</time>
    </trkpt>
    <trkpt lat="56.510611" lon="60.775348">
        <ele>262.7</ele>
        <time>2022-06-29T18:47:55.022Z</time>
    </trkpt>
    <trkpt lat="56.510589" lon="60.775333">
        <ele>263.7</ele>
        <time>2022-06-29T18:47:56.022Z</time>
    </trkpt>
    <trkpt lat="56.510553" lon="60.775304">
        <ele>263.7</ele>
        <time>2022-06-29T18:47:57.022Z</time>
    </trkpt>
    <trkpt lat="56.51054" lon="60.775293">
        <ele>263.7</ele>
        <time>2022-06-29T18:47:58.022Z</time>
    </trkpt>
    <trkpt lat="56.510504" lon="60.775262">
        <ele>263.7</ele>
        <time>2022-06-29T18:47:59.022Z</time>
    </trkpt>
    <trkpt lat="56.510494" lon="60.775253">
        <ele>263.7</ele>
        <time>2022-06-29T18:48:00.022Z</time>
    </trkpt>
    <trkpt lat="56.510467" lon="60.775234">
        <ele>263.7</ele>
        <time>2022-06-29T18:48:01.022Z</time>
    </trkpt>
    <trkpt lat="56.510459" lon="60.775227">
        <ele>263.7</ele>
        <time>2022-06-29T18:48:02.022Z</time>
    </trkpt>
    <trkpt lat="56.510432" lon="60.775204">
        <ele>262.7</ele>
        <time>2022-06-29T18:48:03.022Z</time>
    </trkpt>
    <trkpt lat="56.510403" lon="60.775182">
        <ele>262.7</ele>
        <time>2022-06-29T18:48:04.022Z</time>
    </trkpt>
    <trkpt lat="56.510394" lon="60.775174">
        <ele>262.7</ele>
        <time>2022-06-29T18:48:05.022Z</time>
    </trkpt>
    <trkpt lat="56.51037" lon="60.775151">
        <ele>264.7</ele>
        <time>2022-06-29T18:48:06.022Z</time>
    </trkpt>
    <trkpt lat="56.510351" lon="60.775139">
        <ele>263.7</ele>
        <time>2022-06-29T18:48:07.022Z</time>
    </trkpt>
    <trkpt lat="56.510336" lon="60.775135">
        <ele>263.7</ele>
        <time>2022-06-29T18:48:08.022Z</time>
    </trkpt>
    <trkpt lat="56.51032" lon="60.775119">
        <ele>263.7</ele>
        <time>2022-06-29T18:48:09.022Z</time>
    </trkpt>
    <trkpt lat="56.510303" lon="60.775111">
        <ele>263.7</ele>
        <time>2022-06-29T18:48:10.022Z</time>
    </trkpt>
    <trkpt lat="56.510291" lon="60.775109">
        <ele>263.7</ele>
        <time>2022-06-29T18:48:11.022Z</time>
    </trkpt>
    <trkpt lat="56.510275" lon="60.775101">
        <ele>263.7</ele>
        <time>2022-06-29T18:48:12.022Z</time>
    </trkpt>
    <trkpt lat="56.510256" lon="60.775109">
        <ele>263.7</ele>
        <time>2022-06-29T18:48:13.022Z</time>
    </trkpt>
    <trkpt lat="56.510241" lon="60.775109">
        <ele>263.7</ele>
        <time>2022-06-29T18:48:14.022Z</time>
    </trkpt>
    <trkpt lat="56.510232" lon="60.775103">
        <ele>263.7</ele>
        <time>2022-06-29T18:48:15.022Z</time>
    </trkpt>
    <trkpt lat="56.510204" lon="60.77509">
        <ele>263.7</ele>
        <time>2022-06-29T18:48:16.022Z</time>
    </trkpt>
    <trkpt lat="56.510189" lon="60.775086">
        <ele>263.7</ele>
        <time>2022-06-29T18:48:17.022Z</time>
    </trkpt>
    <trkpt lat="56.510177" lon="60.775079">
        <ele>263.7</ele>
        <time>2022-06-29T18:48:18.022Z</time>
    </trkpt>
    <trkpt lat="56.510166" lon="60.775068">
        <ele>263.7</ele>
        <time>2022-06-29T18:48:19.022Z</time>
    </trkpt>
    <trkpt lat="56.510136" lon="60.77504">
        <ele>263.7</ele>
        <time>2022-06-29T18:48:20.022Z</time>
    </trkpt>
    <trkpt lat="56.510124" lon="60.775034">
        <ele>263.7</ele>
        <time>2022-06-29T18:48:21.022Z</time>
    </trkpt>
    <trkpt lat="56.510092" lon="60.775015">
        <ele>263.7</ele>
        <time>2022-06-29T18:48:22.022Z</time>
    </trkpt>
    <trkpt lat="56.510083" lon="60.775007">
        <ele>263.7</ele>
        <time>2022-06-29T18:48:23.022Z</time>
    </trkpt>
    <trkpt lat="56.51005" lon="60.774987">
        <ele>263.7</ele>
        <time>2022-06-29T18:48:24.022Z</time>
    </trkpt>
    <trkpt lat="56.510036" lon="60.77497">
        <ele>263.7</ele>
        <time>2022-06-29T18:48:25.022Z</time>
    </trkpt>
    <trkpt lat="56.510002" lon="60.774941">
        <ele>263.7</ele>
        <time>2022-06-29T18:48:26.022Z</time>
    </trkpt>
    <trkpt lat="56.509993" lon="60.774942">
        <ele>263.7</ele>
        <time>2022-06-29T18:48:27.022Z</time>
    </trkpt>
    <trkpt lat="56.509964" lon="60.774952">
        <ele>263.7</ele>
        <time>2022-06-29T18:48:28.022Z</time>
    </trkpt>
    <trkpt lat="56.509951" lon="60.774945">
        <ele>263.7</ele>
        <time>2022-06-29T18:48:29.022Z</time>
    </trkpt>
    <trkpt lat="56.509921" lon="60.774923">
        <ele>263.7</ele>
        <time>2022-06-29T18:48:30.022Z</time>
    </trkpt>
    <trkpt lat="56.50991" lon="60.774918">
        <ele>263.7</ele>
        <time>2022-06-29T18:48:31.022Z</time>
    </trkpt>
    <trkpt lat="56.509882" lon="60.774905">
        <ele>263.7</ele>
        <time>2022-06-29T18:48:32.022Z</time>
    </trkpt>
    <trkpt lat="56.509877" lon="60.774903">
        <ele>263.7</ele>
        <time>2022-06-29T18:48:33.022Z</time>
    </trkpt>
    <trkpt lat="56.509873" lon="60.774901">
        <ele>263.7</ele>
        <time>2022-06-29T18:48:34.022Z</time>
    </trkpt>
    <trkpt lat="56.509845" lon="60.774902">
        <ele>263.7</ele>
        <time>2022-06-29T18:48:35.022Z</time>
    </trkpt>
    <trkpt lat="56.509831" lon="60.774906">
        <ele>263.7</ele>
        <time>2022-06-29T18:48:36.022Z</time>
    </trkpt>
    <trkpt lat="56.50982" lon="60.774904">
        <ele>263.7</ele>
        <time>2022-06-29T18:48:37.022Z</time>
    </trkpt>
    <trkpt lat="56.509811" lon="60.774887">
        <ele>263.7</ele>
        <time>2022-06-29T18:48:38.022Z</time>
    </trkpt>
    <trkpt lat="56.509802" lon="60.774882">
        <ele>263.7</ele>
        <time>2022-06-29T18:48:39.022Z</time>
    </trkpt>
    <trkpt lat="56.509768" lon="60.774859">
        <ele>263.7</ele>
        <time>2022-06-29T18:48:40.022Z</time>
    </trkpt>
    <trkpt lat="56.50974" lon="60.774855">
        <ele>263.7</ele>
        <time>2022-06-29T18:48:41.022Z</time>
    </trkpt>
    <trkpt lat="56.509713" lon="60.77485">
        <ele>263.7</ele>
        <time>2022-06-29T18:48:42.022Z</time>
    </trkpt>
    <trkpt lat="56.509696" lon="60.774847">
        <ele>263.7</ele>
        <time>2022-06-29T18:48:43.022Z</time>
    </trkpt>
    <trkpt lat="56.509687" lon="60.774835">
        <ele>263.7</ele>
        <time>2022-06-29T18:48:44.022Z</time>
    </trkpt>
    <trkpt lat="56.509679" lon="60.774831">
        <ele>263.7</ele>
        <time>2022-06-29T18:48:45.022Z</time>
    </trkpt>
    <trkpt lat="56.509649" lon="60.774816">
        <ele>264.7</ele>
        <time>2022-06-29T18:48:46.022Z</time>
    </trkpt>
    <trkpt lat="56.509642" lon="60.774814">
        <ele>264.7</ele>
        <time>2022-06-29T18:48:47.022Z</time>
    </trkpt>
    <trkpt lat="56.509635" lon="60.774812">
        <ele>264.7</ele>
        <time>2022-06-29T18:48:48.022Z</time>
    </trkpt>
    <trkpt lat="56.509607" lon="60.7748">
        <ele>264.7</ele>
        <time>2022-06-29T18:48:49.022Z</time>
    </trkpt>
    <trkpt lat="56.509598" lon="60.7748">
        <ele>264.7</ele>
        <time>2022-06-29T18:48:50.022Z</time>
    </trkpt>
    <trkpt lat="56.50957" lon="60.774802">
        <ele>263.7</ele>
        <time>2022-06-29T18:48:51.022Z</time>
    </trkpt>
    <trkpt lat="56.509562" lon="60.774795">
        <ele>263.7</ele>
        <time>2022-06-29T18:48:52.022Z</time>
    </trkpt>
    <trkpt lat="56.509554" lon="60.774787">
        <ele>263.7</ele>
        <time>2022-06-29T18:48:53.022Z</time>
    </trkpt>
    <trkpt lat="56.50953" lon="60.774787">
        <ele>263.7</ele>
        <time>2022-06-29T18:48:54.022Z</time>
    </trkpt>
    <trkpt lat="56.509513" lon="60.774774">
        <ele>263.7</ele>
        <time>2022-06-29T18:48:55.022Z</time>
    </trkpt>
    <trkpt lat="56.509495" lon="60.774771">
        <ele>263.7</ele>
        <time>2022-06-29T18:48:56.022Z</time>
    </trkpt>
    <trkpt lat="56.509486" lon="60.774768">
        <ele>263.7</ele>
        <time>2022-06-29T18:48:57.022Z</time>
    </trkpt>
    <trkpt lat="56.509458" lon="60.774764">
        <ele>263.7</ele>
        <time>2022-06-29T18:48:58.022Z</time>
    </trkpt>
    <trkpt lat="56.509426" lon="60.77474">
        <ele>263.7</ele>
        <time>2022-06-29T18:48:59.022Z</time>
    </trkpt>
    <trkpt lat="56.509397" lon="60.774729">
        <ele>263.7</ele>
        <time>2022-06-29T18:49:00.022Z</time>
    </trkpt>
    <trkpt lat="56.509389" lon="60.774722">
        <ele>263.7</ele>
        <time>2022-06-29T18:49:01.022Z</time>
    </trkpt>
    <trkpt lat="56.509359" lon="60.77471">
        <ele>263.7</ele>
        <time>2022-06-29T18:49:02.022Z</time>
    </trkpt>
    <trkpt lat="56.509331" lon="60.77472">
        <ele>263.7</ele>
        <time>2022-06-29T18:49:03.022Z</time>
    </trkpt>
    <trkpt lat="56.509307" lon="60.774709">
        <ele>263.7</ele>
        <time>2022-06-29T18:49:04.022Z</time>
    </trkpt>
    <trkpt lat="56.509296" lon="60.774705">
        <ele>263.7</ele>
        <time>2022-06-29T18:49:05.022Z</time>
    </trkpt>
    <trkpt lat="56.509287" lon="60.774702">
        <ele>263.7</ele>
        <time>2022-06-29T18:49:06.022Z</time>
    </trkpt>
    <trkpt lat="56.509257" lon="60.774686">
        <ele>263.7</ele>
        <time>2022-06-29T18:49:07.022Z</time>
    </trkpt>
    <trkpt lat="56.509247" lon="60.77468">
        <ele>263.7</ele>
        <time>2022-06-29T18:49:08.022Z</time>
    </trkpt>
    <trkpt lat="56.509221" lon="60.774669">
        <ele>263.7</ele>
        <time>2022-06-29T18:49:09.022Z</time>
    </trkpt>
    <trkpt lat="56.509213" lon="60.774675">
        <ele>263.7</ele>
        <time>2022-06-29T18:49:10.022Z</time>
    </trkpt>
    <trkpt lat="56.509206" lon="60.77468">
        <ele>263.7</ele>
        <time>2022-06-29T18:49:11.022Z</time>
    </trkpt>
    <trkpt lat="56.509181" lon="60.774692">
        <ele>263.7</ele>
        <time>2022-06-29T18:49:12.022Z</time>
    </trkpt>
    <trkpt lat="56.509172" lon="60.774687">
        <ele>263.7</ele>
        <time>2022-06-29T18:49:13.022Z</time>
    </trkpt>
    <trkpt lat="56.509161" lon="60.774691">
        <ele>263.7</ele>
        <time>2022-06-29T18:49:14.022Z</time>
    </trkpt>
    <trkpt lat="56.50915" lon="60.7747">
        <ele>263.7</ele>
        <time>2022-06-29T18:49:15.022Z</time>
    </trkpt>
    <trkpt lat="56.509135" lon="60.7747">
        <ele>263.7</ele>
        <time>2022-06-29T18:49:16.022Z</time>
    </trkpt>
    <trkpt lat="56.509117" lon="60.774709">
        <ele>262.7</ele>
        <time>2022-06-29T18:49:17.022Z</time>
    </trkpt>
    <trkpt lat="56.509102" lon="60.774711">
        <ele>262.7</ele>
        <time>2022-06-29T18:49:18.022Z</time>
    </trkpt>
    <trkpt lat="56.509087" lon="60.774702">
        <ele>262.7</ele>
        <time>2022-06-29T18:49:19.022Z</time>
    </trkpt>
    <trkpt lat="56.50908" lon="60.774692">
        <ele>262.7</ele>
        <time>2022-06-29T18:49:20.022Z</time>
    </trkpt>
    <trkpt lat="56.509072" lon="60.774681">
        <ele>262.7</ele>
        <time>2022-06-29T18:49:21.022Z</time>
    </trkpt>
    <trkpt lat="56.509044" lon="60.774669">
        <ele>262.7</ele>
        <time>2022-06-29T18:49:22.022Z</time>
    </trkpt>
    <trkpt lat="56.509031" lon="60.774668">
        <ele>262.7</ele>
        <time>2022-06-29T18:49:23.022Z</time>
    </trkpt>
    <trkpt lat="56.508997" lon="60.774654">
        <ele>262.7</ele>
        <time>2022-06-29T18:49:24.022Z</time>
    </trkpt>
    <trkpt lat="56.508986" lon="60.774658">
        <ele>262.7</ele>
        <time>2022-06-29T18:49:25.022Z</time>
    </trkpt>
    <trkpt lat="56.508963" lon="60.774653">
        <ele>262.7</ele>
        <time>2022-06-29T18:49:26.022Z</time>
    </trkpt>
    <trkpt lat="56.50892" lon="60.774649">
        <ele>261.7</ele>
        <time>2022-06-29T18:49:29.022Z</time>
    </trkpt>
    <trkpt lat="56.508908" lon="60.774646">
        <ele>261.7</ele>
        <time>2022-06-29T18:49:30.022Z</time>
    </trkpt>
    <trkpt lat="56.508902" lon="60.774659">
        <ele>261.7</ele>
        <time>2022-06-29T18:49:31.022Z</time>
    </trkpt>
    <trkpt lat="56.508899" lon="60.774654">
        <ele>261.7</ele>
        <time>2022-06-29T18:49:32.022Z</time>
    </trkpt>
    <trkpt lat="56.5089" lon="60.774647">
        <ele>261.7</ele>
        <time>2022-06-29T18:49:33.022Z</time>
    </trkpt>
    <trkpt lat="56.508895" lon="60.774648">
        <ele>261.7</ele>
        <time>2022-06-29T18:49:34.022Z</time>
    </trkpt>
    <trkpt lat="56.508888" lon="60.774638">
        <ele>261.7</ele>
        <time>2022-06-29T18:49:35.022Z</time>
    </trkpt>
    <trkpt lat="56.508888" lon="60.774633">
        <ele>261.7</ele>
        <time>2022-06-29T18:49:36.022Z</time>
    </trkpt>
    <trkpt lat="56.508883" lon="60.774629">
        <ele>261.7</ele>
        <time>2022-06-29T18:49:37.022Z</time>
    </trkpt>
    <trkpt lat="56.508883" lon="60.774633">
        <ele>261.7</ele>
        <time>2022-06-29T18:49:38.022Z</time>
    </trkpt>
    <trkpt lat="56.50887" lon="60.77462">
        <ele>261.7</ele>
        <time>2022-06-29T18:49:39.022Z</time>
    </trkpt>
    <trkpt lat="56.508863" lon="60.774613">
        <ele>261.7</ele>
        <time>2022-06-29T18:49:40.022Z</time>
    </trkpt>
    <trkpt lat="56.508831" lon="60.774593">
        <ele>260.7</ele>
        <time>2022-06-29T18:49:41.022Z</time>
    </trkpt>
    <trkpt lat="56.508825" lon="60.774582">
        <ele>260.7</ele>
        <time>2022-06-29T18:49:42.022Z</time>
    </trkpt>
    <trkpt lat="56.5088" lon="60.774555">
        <ele>260.7</ele>
        <time>2022-06-29T18:49:43.022Z</time>
    </trkpt>
    <trkpt lat="56.508786" lon="60.774543">
        <ele>260.7</ele>
        <time>2022-06-29T18:49:44.022Z</time>
    </trkpt>
    <trkpt lat="56.508772" lon="60.774531">
        <ele>260.7</ele>
        <time>2022-06-29T18:49:45.022Z</time>
    </trkpt>
    <trkpt lat="56.508759" lon="60.774521">
        <ele>260.7</ele>
        <time>2022-06-29T18:49:46.022Z</time>
    </trkpt>
    <trkpt lat="56.508733" lon="60.774498">
        <ele>260.7</ele>
        <time>2022-06-29T18:49:47.022Z</time>
    </trkpt>
    <trkpt lat="56.508722" lon="60.774491">
        <ele>260.7</ele>
        <time>2022-06-29T18:49:48.022Z</time>
    </trkpt>
    <trkpt lat="56.508695" lon="60.774462">
        <ele>260.7</ele>
        <time>2022-06-29T18:49:49.022Z</time>
    </trkpt>
    <trkpt lat="56.508686" lon="60.774447">
        <ele>260.7</ele>
        <time>2022-06-29T18:49:50.022Z</time>
    </trkpt>
    <trkpt lat="56.508661" lon="60.774402">
        <ele>260.7</ele>
        <time>2022-06-29T18:49:51.022Z</time>
    </trkpt>
    <trkpt lat="56.508657" lon="60.774392">
        <ele>260.7</ele>
        <time>2022-06-29T18:49:52.022Z</time>
    </trkpt>
    <trkpt lat="56.50863" lon="60.774359">
        <ele>259.7</ele>
        <time>2022-06-29T18:49:53.022Z</time>
    </trkpt>
    <trkpt lat="56.5086" lon="60.774345">
        <ele>259.7</ele>
        <time>2022-06-29T18:49:54.022Z</time>
    </trkpt>
    <trkpt lat="56.508591" lon="60.774337">
        <ele>259.7</ele>
        <time>2022-06-29T18:49:55.022Z</time>
    </trkpt>
    <trkpt lat="56.508561" lon="60.774305">
        <ele>260.7</ele>
        <time>2022-06-29T18:49:56.022Z</time>
    </trkpt>
    <trkpt lat="56.508529" lon="60.774277">
        <ele>259.7</ele>
        <time>2022-06-29T18:49:57.022Z</time>
    </trkpt>
    <trkpt lat="56.508504" lon="60.774244">
        <ele>259.7</ele>
        <time>2022-06-29T18:49:58.022Z</time>
    </trkpt>
    <trkpt lat="56.508474" lon="60.774208">
        <ele>259.7</ele>
        <time>2022-06-29T18:49:59.022Z</time>
    </trkpt>
    <trkpt lat="56.508448" lon="60.77417">
        <ele>259.7</ele>
        <time>2022-06-29T18:50:00.022Z</time>
    </trkpt>
    <trkpt lat="56.508419" lon="60.774139">
        <ele>259.7</ele>
        <time>2022-06-29T18:50:01.022Z</time>
    </trkpt>
    <trkpt lat="56.508397" lon="60.774106">
        <ele>259.7</ele>
        <time>2022-06-29T18:50:02.022Z</time>
    </trkpt>
    <trkpt lat="56.508371" lon="60.774073">
        <ele>259.7</ele>
        <time>2022-06-29T18:50:03.022Z</time>
    </trkpt>
    <trkpt lat="56.508346" lon="60.774043">
        <ele>259.7</ele>
        <time>2022-06-29T18:50:04.022Z</time>
    </trkpt>
    <trkpt lat="56.508338" lon="60.774027">
        <ele>259.7</ele>
        <time>2022-06-29T18:50:05.022Z</time>
    </trkpt>
    <trkpt lat="56.508319" lon="60.773997">
        <ele>259.7</ele>
        <time>2022-06-29T18:50:06.022Z</time>
    </trkpt>
    <trkpt lat="56.50831" lon="60.773993">
        <ele>259.7</ele>
        <time>2022-06-29T18:50:07.022Z</time>
    </trkpt>
    <trkpt lat="56.50828" lon="60.773988">
        <ele>259.7</ele>
        <time>2022-06-29T18:50:08.022Z</time>
    </trkpt>
    <trkpt lat="56.50826" lon="60.773974">
        <ele>258.7</ele>
        <time>2022-06-29T18:50:09.022Z</time>
    </trkpt>
    <trkpt lat="56.508249" lon="60.773963">
        <ele>257.7</ele>
        <time>2022-06-29T18:50:10.022Z</time>
    </trkpt>
    <trkpt lat="56.508235" lon="60.773957">
        <ele>257.7</ele>
        <time>2022-06-29T18:50:11.022Z</time>
    </trkpt>
    <trkpt lat="56.508226" lon="60.773929">
        <ele>257.7</ele>
        <time>2022-06-29T18:50:12.022Z</time>
    </trkpt>
    <trkpt lat="56.508216" lon="60.773923">
        <ele>257.7</ele>
        <time>2022-06-29T18:50:13.022Z</time>
    </trkpt>
    <trkpt lat="56.508205" lon="60.773918">
        <ele>257.7</ele>
        <time>2022-06-29T18:50:14.022Z</time>
    </trkpt>
    <trkpt lat="56.508189" lon="60.77391">
        <ele>257.7</ele>
        <time>2022-06-29T18:50:15.022Z</time>
    </trkpt>
    <trkpt lat="56.508172" lon="60.77391">
        <ele>256.7</ele>
        <time>2022-06-29T18:50:16.022Z</time>
    </trkpt>
    <trkpt lat="56.508165" lon="60.773903">
        <ele>256.7</ele>
        <time>2022-06-29T18:50:17.022Z</time>
    </trkpt>
    <trkpt lat="56.508159" lon="60.773898">
        <ele>256.7</ele>
        <time>2022-06-29T18:50:18.022Z</time>
    </trkpt>
    <trkpt lat="56.508142" lon="60.773897">
        <ele>256.7</ele>
        <time>2022-06-29T18:50:19.022Z</time>
    </trkpt>
    <trkpt lat="56.508128" lon="60.77389">
        <ele>256.7</ele>
        <time>2022-06-29T18:50:20.022Z</time>
    </trkpt>
    <trkpt lat="56.508114" lon="60.773873">
        <ele>256.7</ele>
        <time>2022-06-29T18:50:21.022Z</time>
    </trkpt>
    <trkpt lat="56.5081" lon="60.773877">
        <ele>256.7</ele>
        <time>2022-06-29T18:50:22.022Z</time>
    </trkpt>
    <trkpt lat="56.508098" lon="60.773874">
        <ele>256.7</ele>
        <time>2022-06-29T18:50:23.022Z</time>
    </trkpt>
    <trkpt lat="56.5081" lon="60.773871">
        <ele>256.7</ele>
        <time>2022-06-29T18:50:24.022Z</time>
    </trkpt>
    <trkpt lat="56.508091" lon="60.773862">
        <ele>256.7</ele>
        <time>2022-06-29T18:50:25.022Z</time>
    </trkpt>
    <trkpt lat="56.508092" lon="60.77385">
        <ele>256.7</ele>
        <time>2022-06-29T18:50:26.022Z</time>
    </trkpt>
    <trkpt lat="56.508074" lon="60.773836">
        <ele>255.7</ele>
        <time>2022-06-29T18:50:27.022Z</time>
    </trkpt>
    <trkpt lat="56.508065" lon="60.773829">
        <ele>255.7</ele>
        <time>2022-06-29T18:50:28.022Z</time>
    </trkpt>
    <trkpt lat="56.508042" lon="60.773804">
        <ele>255.7</ele>
        <time>2022-06-29T18:50:29.022Z</time>
    </trkpt>
    <trkpt lat="56.50803" lon="60.773787">
        <ele>255.7</ele>
        <time>2022-06-29T18:50:30.022Z</time>
    </trkpt>
    <trkpt lat="56.508019" lon="60.773759">
        <ele>255.7</ele>
        <time>2022-06-29T18:50:31.022Z</time>
    </trkpt>
    <trkpt lat="56.508014" lon="60.773734">
        <ele>255.7</ele>
        <time>2022-06-29T18:50:32.022Z</time>
    </trkpt>
    <trkpt lat="56.508002" lon="60.773715">
        <ele>255.7</ele>
        <time>2022-06-29T18:50:33.022Z</time>
    </trkpt>
    <trkpt lat="56.507995" lon="60.773697">
        <ele>255.7</ele>
        <time>2022-06-29T18:50:34.022Z</time>
    </trkpt>
    <trkpt lat="56.507983" lon="60.773678">
        <ele>254.7</ele>
        <time>2022-06-29T18:50:35.022Z</time>
    </trkpt>
    <trkpt lat="56.507979" lon="60.773665">
        <ele>254.7</ele>
        <time>2022-06-29T18:50:36.022Z</time>
    </trkpt>
    <trkpt lat="56.507967" lon="60.773645">
        <ele>254.7</ele>
        <time>2022-06-29T18:50:37.022Z</time>
    </trkpt>
    <trkpt lat="56.507952" lon="60.773605">
        <ele>253.7</ele>
        <time>2022-06-29T18:50:38.022Z</time>
    </trkpt>
    <trkpt lat="56.50793" lon="60.773559">
        <ele>253.7</ele>
        <time>2022-06-29T18:50:39.022Z</time>
    </trkpt>
    <trkpt lat="56.507914" lon="60.773509">
        <ele>253.7</ele>
        <time>2022-06-29T18:50:40.022Z</time>
    </trkpt>
    <trkpt lat="56.50791" lon="60.773491">
        <ele>253.7</ele>
        <time>2022-06-29T18:50:41.022Z</time>
    </trkpt>
    <trkpt lat="56.507892" lon="60.773436">
        <ele>253.7</ele>
        <time>2022-06-29T18:50:42.022Z</time>
    </trkpt>
    <trkpt lat="56.507884" lon="60.773417">
        <ele>252.7</ele>
        <time>2022-06-29T18:50:43.022Z</time>
    </trkpt>
    <trkpt lat="56.507866" lon="60.773393">
        <ele>252.7</ele>
        <time>2022-06-29T18:50:44.022Z</time>
    </trkpt>
    <trkpt lat="56.507862" lon="60.773379">
        <ele>252.7</ele>
        <time>2022-06-29T18:50:45.022Z</time>
    </trkpt>
    <trkpt lat="56.507844" lon="60.773339">
        <ele>252.7</ele>
        <time>2022-06-29T18:50:46.022Z</time>
    </trkpt>
    <trkpt lat="56.507836" lon="60.773319">
        <ele>252.7</ele>
        <time>2022-06-29T18:50:47.022Z</time>
    </trkpt>
    <trkpt lat="56.507818" lon="60.773275">
        <ele>252.7</ele>
        <time>2022-06-29T18:50:48.022Z</time>
    </trkpt>
    <trkpt lat="56.507807" lon="60.773258">
        <ele>252.7</ele>
        <time>2022-06-29T18:50:49.022Z</time>
    </trkpt>
    <trkpt lat="56.507794" lon="60.773234">
        <ele>252.7</ele>
        <time>2022-06-29T18:50:50.022Z</time>
    </trkpt>
    <trkpt lat="56.507782" lon="60.773219">
        <ele>252.7</ele>
        <time>2022-06-29T18:50:51.022Z</time>
    </trkpt>
    <trkpt lat="56.507779" lon="60.773194">
        <ele>252.7</ele>
        <time>2022-06-29T18:50:52.022Z</time>
    </trkpt>
    <trkpt lat="56.507775" lon="60.77318">
        <ele>252.7</ele>
        <time>2022-06-29T18:50:53.022Z</time>
    </trkpt>
    <trkpt lat="56.507765" lon="60.773165">
        <ele>252.7</ele>
        <time>2022-06-29T18:50:54.022Z</time>
    </trkpt>
    <trkpt lat="56.507743" lon="60.773136">
        <ele>252.7</ele>
        <time>2022-06-29T18:50:55.022Z</time>
    </trkpt>
    <trkpt lat="56.507739" lon="60.773134">
        <ele>252.7</ele>
        <time>2022-06-29T18:50:56.022Z</time>
    </trkpt>
    <trkpt lat="56.507735" lon="60.773131">
        <ele>252.7</ele>
        <time>2022-06-29T18:50:57.022Z</time>
    </trkpt>
    <trkpt lat="56.507732" lon="60.773129">
        <ele>252.7</ele>
        <time>2022-06-29T18:50:58.022Z</time>
    </trkpt>
    <trkpt lat="56.507705" lon="60.773123">
        <ele>252.7</ele>
        <time>2022-06-29T18:50:59.022Z</time>
    </trkpt>
    <trkpt lat="56.507689" lon="60.773108">
        <ele>251.7</ele>
        <time>2022-06-29T18:51:00.022Z</time>
    </trkpt>
    <trkpt lat="56.507691" lon="60.773112">
        <ele>251.7</ele>
        <time>2022-06-29T18:51:01.022Z</time>
    </trkpt>
    <trkpt lat="56.507675" lon="60.773098">
        <ele>252.7</ele>
        <time>2022-06-29T18:51:02.022Z</time>
    </trkpt>
    <trkpt lat="56.507658" lon="60.773084">
        <ele>252.7</ele>
        <time>2022-06-29T18:51:03.022Z</time>
    </trkpt>
    <trkpt lat="56.507644" lon="60.773069">
        <ele>252.7</ele>
        <time>2022-06-29T18:51:04.022Z</time>
    </trkpt>
    <trkpt lat="56.507638" lon="60.773063">
        <ele>252.7</ele>
        <time>2022-06-29T18:51:05.022Z</time>
    </trkpt>
    <trkpt lat="56.507632" lon="60.773056">
        <ele>252.7</ele>
        <time>2022-06-29T18:51:06.022Z</time>
    </trkpt>
    <trkpt lat="56.507614" lon="60.773018">
        <ele>252.7</ele>
        <time>2022-06-29T18:51:07.022Z</time>
    </trkpt>
    <trkpt lat="56.507605" lon="60.772999">
        <ele>251.7</ele>
        <time>2022-06-29T18:51:08.022Z</time>
    </trkpt>
    <trkpt lat="56.50758" lon="60.77296">
        <ele>251.7</ele>
        <time>2022-06-29T18:51:09.022Z</time>
    </trkpt>
    <trkpt lat="56.507574" lon="60.772952">
        <ele>251.7</ele>
        <time>2022-06-29T18:51:10.022Z</time>
    </trkpt>
    <trkpt lat="56.507549" lon="60.772913">
        <ele>251.7</ele>
        <time>2022-06-29T18:51:11.022Z</time>
    </trkpt>
    <trkpt lat="56.507543" lon="60.772898">
        <ele>251.7</ele>
        <time>2022-06-29T18:51:12.022Z</time>
    </trkpt>
    <trkpt lat="56.507524" lon="60.772848">
        <ele>251.7</ele>
        <time>2022-06-29T18:51:13.022Z</time>
    </trkpt>
    <trkpt lat="56.507513" lon="60.772826">
        <ele>251.7</ele>
        <time>2022-06-29T18:51:14.022Z</time>
    </trkpt>
    <trkpt lat="56.507486" lon="60.772771">
        <ele>251.7</ele>
        <time>2022-06-29T18:51:15.022Z</time>
    </trkpt>
    <trkpt lat="56.507465" lon="60.772728">
        <ele>251.7</ele>
        <time>2022-06-29T18:51:16.022Z</time>
    </trkpt>
    <trkpt lat="56.507449" lon="60.772718">
        <ele>251.7</ele>
        <time>2022-06-29T18:51:17.022Z</time>
    </trkpt>
    <trkpt lat="56.507434" lon="60.772709">
        <ele>251.7</ele>
        <time>2022-06-29T18:51:18.022Z</time>
    </trkpt>
    <trkpt lat="56.507418" lon="60.7727">
        <ele>251.7</ele>
        <time>2022-06-29T18:51:19.022Z</time>
    </trkpt>
    <trkpt lat="56.507406" lon="60.772688">
        <ele>251.7</ele>
        <time>2022-06-29T18:51:20.022Z</time>
    </trkpt>
    <trkpt lat="56.507398" lon="60.772667">
        <ele>251.7</ele>
        <time>2022-06-29T18:51:21.022Z</time>
    </trkpt>
    <trkpt lat="56.507391" lon="60.772636">
        <ele>251.7</ele>
        <time>2022-06-29T18:51:22.022Z</time>
    </trkpt>
    <trkpt lat="56.507379" lon="60.77262">
        <ele>251.7</ele>
        <time>2022-06-29T18:51:23.022Z</time>
    </trkpt>
    <trkpt lat="56.507361" lon="60.772602">
        <ele>251.7</ele>
        <time>2022-06-29T18:51:24.022Z</time>
    </trkpt>
    <trkpt lat="56.507351" lon="60.772589">
        <ele>251.7</ele>
        <time>2022-06-29T18:51:25.022Z</time>
    </trkpt>
    <trkpt lat="56.507324" lon="60.772553">
        <ele>251.7</ele>
        <time>2022-06-29T18:51:26.022Z</time>
    </trkpt>
    <trkpt lat="56.507316" lon="60.772535">
        <ele>250.7</ele>
        <time>2022-06-29T18:51:27.022Z</time>
    </trkpt>
    <trkpt lat="56.507298" lon="60.772496">
        <ele>250.7</ele>
        <time>2022-06-29T18:51:28.022Z</time>
    </trkpt>
    <trkpt lat="56.507261" lon="60.772487">
        <ele>250.7</ele>
        <time>2022-06-29T18:51:29.022Z</time>
    </trkpt>
    <trkpt lat="56.507247" lon="60.772472">
        <ele>250.7</ele>
        <time>2022-06-29T18:51:30.022Z</time>
    </trkpt>
    <trkpt lat="56.507216" lon="60.772429">
        <ele>250.7</ele>
        <time>2022-06-29T18:51:31.022Z</time>
    </trkpt>
    <trkpt lat="56.507188" lon="60.772383">
        <ele>250.7</ele>
        <time>2022-06-29T18:51:32.022Z</time>
    </trkpt>
    <trkpt lat="56.507174" lon="60.772313">
        <ele>250.7</ele>
        <time>2022-06-29T18:51:33.022Z</time>
    </trkpt>
    <trkpt lat="56.507158" lon="60.772225">
        <ele>249.7</ele>
        <time>2022-06-29T18:51:34.022Z</time>
    </trkpt>
    <trkpt lat="56.507151" lon="60.772209">
        <ele>249.7</ele>
        <time>2022-06-29T18:51:35.022Z</time>
    </trkpt>
    <trkpt lat="56.507127" lon="60.772163">
        <ele>249.7</ele>
        <time>2022-06-29T18:51:36.022Z</time>
    </trkpt>
    <trkpt lat="56.507093" lon="60.77213">
        <ele>249.7</ele>
        <time>2022-06-29T18:51:37.022Z</time>
    </trkpt>
    <trkpt lat="56.507079" lon="60.77211">
        <ele>249.7</ele>
        <time>2022-06-29T18:51:38.022Z</time>
    </trkpt>
    <trkpt lat="56.507049" lon="60.772052">
        <ele>248.7</ele>
        <time>2022-06-29T18:51:39.022Z</time>
    </trkpt>
    <trkpt lat="56.507025" lon="60.772024">
        <ele>248.7</ele>
        <time>2022-06-29T18:51:40.022Z</time>
    </trkpt>
    <trkpt lat="56.506999" lon="60.772003">
        <ele>248.7</ele>
        <time>2022-06-29T18:51:41.022Z</time>
    </trkpt>
    <trkpt lat="56.506983" lon="60.771963">
        <ele>248.7</ele>
        <time>2022-06-29T18:51:42.022Z</time>
    </trkpt>
    <trkpt lat="56.506972" lon="60.771912">
        <ele>248.7</ele>
        <time>2022-06-29T18:51:43.022Z</time>
    </trkpt>
    <trkpt lat="56.506959" lon="60.771861">
        <ele>247.7</ele>
        <time>2022-06-29T18:51:44.022Z</time>
    </trkpt>
    <trkpt lat="56.506952" lon="60.771813">
        <ele>247.7</ele>
        <time>2022-06-29T18:51:45.022Z</time>
    </trkpt>
    <trkpt lat="56.506933" lon="60.771759">
        <ele>247.7</ele>
        <time>2022-06-29T18:51:46.022Z</time>
    </trkpt>
    <trkpt lat="56.506913" lon="60.771703">
        <ele>246.7</ele>
        <time>2022-06-29T18:51:47.022Z</time>
    </trkpt>
    <trkpt lat="56.506889" lon="60.771667">
        <ele>246.7</ele>
        <time>2022-06-29T18:51:48.022Z</time>
    </trkpt>
    <trkpt lat="56.506866" lon="60.771635">
        <ele>246.7</ele>
        <time>2022-06-29T18:51:49.022Z</time>
    </trkpt>
    <trkpt lat="56.506856" lon="60.771613">
        <ele>246.7</ele>
        <time>2022-06-29T18:51:50.022Z</time>
    </trkpt>
    <trkpt lat="56.506839" lon="60.771548">
        <ele>245.7</ele>
        <time>2022-06-29T18:51:51.022Z</time>
    </trkpt>
    <trkpt lat="56.506841" lon="60.771483">
        <ele>245.7</ele>
        <time>2022-06-29T18:51:52.022Z</time>
    </trkpt>
    <trkpt lat="56.506841" lon="60.771417">
        <ele>245.7</ele>
        <time>2022-06-29T18:51:53.022Z</time>
    </trkpt>
    <trkpt lat="56.506844" lon="60.771389">
        <ele>244.7</ele>
        <time>2022-06-29T18:51:54.022Z</time>
    </trkpt>
    <trkpt lat="56.506857" lon="60.771321">
        <ele>245.7</ele>
        <time>2022-06-29T18:51:55.022Z</time>
    </trkpt>
    <trkpt lat="56.506854" lon="60.771267">
        <ele>245.7</ele>
        <time>2022-06-29T18:51:56.022Z</time>
    </trkpt>
    <trkpt lat="56.506867" lon="60.771214">
        <ele>245.7</ele>
        <time>2022-06-29T18:51:57.022Z</time>
    </trkpt>
    <trkpt lat="56.506873" lon="60.771162">
        <ele>245.7</ele>
        <time>2022-06-29T18:51:58.022Z</time>
    </trkpt>
    <trkpt lat="56.506878" lon="60.771111">
        <ele>245.7</ele>
        <time>2022-06-29T18:51:59.022Z</time>
    </trkpt>
    <trkpt lat="56.506892" lon="60.771063">
        <ele>245.7</ele>
        <time>2022-06-29T18:52:00.022Z</time>
    </trkpt>
    <trkpt lat="56.506898" lon="60.771035">
        <ele>244.7</ele>
        <time>2022-06-29T18:52:01.022Z</time>
    </trkpt>
    <trkpt lat="56.506917" lon="60.77097">
        <ele>244.7</ele>
        <time>2022-06-29T18:52:02.022Z</time>
    </trkpt>
    <trkpt lat="56.506936" lon="60.770916">
        <ele>244.7</ele>
        <time>2022-06-29T18:52:03.022Z</time>
    </trkpt>
    <trkpt lat="56.506946" lon="60.770866">
        <ele>244.7</ele>
        <time>2022-06-29T18:52:04.022Z</time>
    </trkpt>
    <trkpt lat="56.506953" lon="60.770838">
        <ele>244.7</ele>
        <time>2022-06-29T18:52:05.022Z</time>
    </trkpt>
    <trkpt lat="56.506975" lon="60.770773">
        <ele>244.7</ele>
        <time>2022-06-29T18:52:06.022Z</time>
    </trkpt>
    <trkpt lat="56.506984" lon="60.77074">
        <ele>244.7</ele>
        <time>2022-06-29T18:52:07.022Z</time>
    </trkpt>
    <trkpt lat="56.506995" lon="60.770726">
        <ele>244.7</ele>
        <time>2022-06-29T18:52:08.022Z</time>
    </trkpt>
    <trkpt lat="56.506996" lon="60.770612">
        <ele>244.7</ele>
        <time>2022-06-29T18:52:15.022Z</time>
    </trkpt>
    <trkpt lat="56.506997" lon="60.770608">
        <ele>244.7</ele>
        <time>2022-06-29T18:52:16.022Z</time>
    </trkpt>
    <trkpt lat="56.506996" lon="60.770595">
        <ele>244.7</ele>
        <time>2022-06-29T18:52:17.022Z</time>
    </trkpt>
    <trkpt lat="56.506999" lon="60.770579">
        <ele>244.7</ele>
        <time>2022-06-29T18:52:18.022Z</time>
    </trkpt>
    <trkpt lat="56.507003" lon="60.770567">
        <ele>244.7</ele>
        <time>2022-06-29T18:52:19.022Z</time>
    </trkpt>
    <trkpt lat="56.507016" lon="60.770533">
        <ele>244.7</ele>
        <time>2022-06-29T18:52:20.022Z</time>
    </trkpt>
    <trkpt lat="56.507016" lon="60.770533">
        <ele>244.7</ele>
        <time>2022-06-29T18:52:21.022Z</time>
    </trkpt>
    <trkpt lat="56.507016" lon="60.770533">
        <ele>244.7</ele>
        <time>2022-06-29T18:52:22.022Z</time>
    </trkpt>
    <trkpt lat="56.507027" lon="60.770533">
        <ele>244.7</ele>
        <time>2022-06-29T18:52:23.022Z</time>
    </trkpt>
    <trkpt lat="56.507026" lon="60.770538">
        <ele>244.7</ele>
        <time>2022-06-29T18:52:24.022Z</time>
    </trkpt>
    <trkpt lat="56.50702" lon="60.770529">
        <ele>243.7</ele>
        <time>2022-06-29T18:52:25.022Z</time>
    </trkpt>
    <trkpt lat="56.507013" lon="60.770516">
        <ele>243.7</ele>
        <time>2022-06-29T18:52:26.022Z</time>
    </trkpt>
    <trkpt lat="56.506996" lon="60.770467">
        <ele>243.7</ele>
        <time>2022-06-29T18:52:27.022Z</time>
    </trkpt>
    <trkpt lat="56.506995" lon="60.770432">
        <ele>243.7</ele>
        <time>2022-06-29T18:52:28.022Z</time>
    </trkpt>
    <trkpt lat="56.506993" lon="60.770408">
        <ele>243.7</ele>
        <time>2022-06-29T18:52:29.022Z</time>
    </trkpt>
    <trkpt lat="56.50691477772738" lon="60.77026247978211">
        <ele>246.2</ele>
        <time>2022-06-29T18:52:34.645Z</time>
    </trkpt>
    <trkpt lat="56.50657138359609" lon="60.771217346191406">
        <ele>244.9</ele>
        <time>2022-06-29T18:53:05.787Z</time>
    </trkpt>
    <trkpt lat="56.506227986354546" lon="60.772172212600715">
        <ele>249.8</ele>
        <time>2022-06-29T18:53:36.929Z</time>
    </trkpt>
    <trkpt lat="56.50615611712969" lon="60.77245614578318">
        <ele>251.0</ele>
        <time>2022-06-29T18:53:45.464Z</time>
    </trkpt>
    <trkpt lat="56.50586382927518" lon="60.77361087956979">
        <ele>255.4</ele>
        <time>2022-06-29T18:54:20.178Z</time>
    </trkpt>
    <trkpt lat="56.50557153916739" lon="60.77476561335639">
        <ele>256.0</ele>
        <time>2022-06-29T18:54:54.892Z</time>
    </trkpt>
    <trkpt lat="56.50548413589589" lon="60.77501301269998">
        <ele>255.4</ele>
        <time>2022-06-29T18:55:02.918Z</time>
    </trkpt>
    <trkpt lat="56.505106029980475" lon="60.7760828315772">
        <ele>256.5</ele>
        <time>2022-06-29T18:55:37.632Z</time>
    </trkpt>
    <trkpt lat="56.50472792029448" lon="60.77715265045443">
        <ele>260.8</ele>
        <time>2022-06-29T18:56:12.347Z</time>
    </trkpt>
    <trkpt lat="56.504349806837865" lon="60.77822246933166">
        <ele>262.4</ele>
        <time>2022-06-29T18:56:47.062Z</time>
    </trkpt>
    <trkpt lat="56.503971689610616" lon="60.77929228820888">
        <ele>262.1</ele>
        <time>2022-06-29T18:57:21.777Z</time>
    </trkpt>
    <trkpt lat="56.50359356861268" lon="60.7803621070861">
        <ele>260.7</ele>
        <time>2022-06-29T18:57:56.493Z</time>
    </trkpt>
    <trkpt lat="56.50307" lon="60.78174">
        <ele>229.1</ele>
        <time>2022-06-29T18:58:42.208Z</time>
    </trkpt>
    <trkpt lat="56.5026" lon="60.78298">
        <ele>230.4</ele>
        <time>2022-06-29T18:59:23.315Z</time>
    </trkpt>
    <trkpt lat="56.50226" lon="60.78392">
        <ele>228.3</ele>
        <time>2022-06-29T18:59:54.028Z</time>
    </trkpt>
    <trkpt lat="56.50209" lon="60.78439">
        <ele>234.3</ele>
        <time>2022-06-29T19:00:09.384Z</time>
    </trkpt>
    <trkpt lat="56.50198" lon="60.78469">
        <ele>236.6</ele>
        <time>2022-06-29T19:00:19.226Z</time>
    </trkpt>
    <trkpt lat="56.50195" lon="60.78476">
        <ele>237.0</ele>
        <time>2022-06-29T19:00:21.647Z</time>
    </trkpt>
    <trkpt lat="56.50151" lon="60.78591">
        <ele>240.0</ele>
        <time>2022-06-29T19:00:59.887Z</time>
    </trkpt>
    <trkpt lat="56.5014" lon="60.78619">
        <ele>242.2</ele>
        <time>2022-06-29T19:01:09.279Z</time>
    </trkpt>
    <trkpt lat="56.50134" lon="60.78635">
        <ele>242.2</ele>
        <time>2022-06-29T19:01:14.565Z</time>
    </trkpt>
    <trkpt lat="56.50135" lon="60.78642">
        <ele>242.7</ele>
        <time>2022-06-29T19:01:16.541Z</time>
    </trkpt>
    <trkpt lat="56.50126" lon="60.78668">
        <ele>243.8</ele>
        <time>2022-06-29T19:01:24.928Z</time>
    </trkpt>
    <trkpt lat="56.50112" lon="60.78704">
        <ele>246.5</ele>
        <time>2022-06-29T19:01:36.963Z</time>
    </trkpt>
    <trkpt lat="56.50108" lon="60.78726">
        <ele>248.1</ele>
        <time>2022-06-29T19:01:43.293Z</time>
    </trkpt>
    <trkpt lat="56.50105" lon="60.78764">
        <ele>248.3</ele>
        <time>2022-06-29T19:01:53.783Z</time>
    </trkpt>
    <trkpt lat="56.50099" lon="60.78863">
        <ele>244.2</ele>
        <time>2022-06-29T19:02:21.001Z</time>
    </trkpt>
    <trkpt lat="56.50084" lon="60.79109">
        <ele>249.9</ele>
        <time>2022-06-29T19:03:28.638Z</time>
    </trkpt>
    <trkpt lat="56.50082" lon="60.79186">
        <ele>240.0</ele>
        <time>2022-06-29T19:03:49.704Z</time>
    </trkpt>
    <trkpt lat="56.50073" lon="60.7932">
        <ele>243.2</ele>
        <time>2022-06-29T19:04:26.594Z</time>
    </trkpt>
    <trkpt lat="56.50064" lon="60.79384">
        <ele>247.5</ele>
        <time>2022-06-29T19:04:44.643Z</time>
    </trkpt>
    <trkpt lat="56.50063" lon="60.79393">
        <ele>247.5</ele>
        <time>2022-06-29T19:04:47.151Z</time>
    </trkpt>
    <trkpt lat="56.50063" lon="60.79393">
        <ele>247.5</ele>
        <time>2022-06-29T19:04:47.151Z</time>
    </trkpt>
    <trkpt lat="56.50063" lon="60.79393">
        <ele>247.5</ele>
        <time>2022-06-29T19:04:47.151Z</time>
    </trkpt>
    <trkpt lat="56.50054" lon="60.79528">
        <ele>246.8</ele>
        <time>2022-06-29T19:05:24.313Z</time>
    </trkpt>
    <trkpt lat="56.50046" lon="60.79655">
        <ele>255.0</ele>
        <time>2022-06-29T19:05:59.246Z</time>
    </trkpt>
    <trkpt lat="56.50033" lon="60.79812">
        <ele>254.7</ele>
        <time>2022-06-29T19:06:42.632Z</time>
    </trkpt>
    <trkpt lat="56.50028" lon="60.79811">
        <ele>253.8</ele>
        <time>2022-06-29T19:06:45.122Z</time>
    </trkpt>
    <trkpt lat="56.50027" lon="60.79856">
        <ele>252.9</ele>
        <time>2022-06-29T19:06:57.430Z</time>
    </trkpt>
    <trkpt lat="56.50026" lon="60.79886">
        <ele>251.1</ele>
        <time>2022-06-29T19:07:05.643Z</time>
    </trkpt>
    <trkpt lat="56.50024" lon="60.79966">
        <ele>248.6</ele>
        <time>2022-06-29T19:07:27.528Z</time>
    </trkpt>
    <trkpt lat="56.50023" lon="60.79972">
        <ele>248.2</ele>
        <time>2022-06-29T19:07:29.240Z</time>
    </trkpt>
    <trkpt lat="56.50019" lon="60.80056">
        <ele>244.2</ele>
        <time>2022-06-29T19:07:52.281Z</time>
    </trkpt>
    <trkpt lat="56.50014" lon="60.80136">
        <ele>241.4</ele>
        <time>2022-06-29T19:08:14.284Z</time>
    </trkpt>
    <trkpt lat="56.50009" lon="60.80237">
        <ele>238.0</ele>
        <time>2022-06-29T19:08:41.997Z</time>
    </trkpt>
    <trkpt lat="56.50005" lon="60.80303">
        <ele>237.9</ele>
        <time>2022-06-29T19:09:00.142Z</time>
    </trkpt>
    <trkpt lat="56.5" lon="60.80379">
        <ele>241.3</ele>
        <time>2022-06-29T19:09:21.059Z</time>
    </trkpt>
    <trkpt lat="56.49988" lon="60.80608">
        <ele>242.4</ele>
        <time>2022-06-29T19:10:23.924Z</time>
    </trkpt>
    <trkpt lat="56.49988" lon="60.80608">
        <ele>242.4</ele>
        <time>2022-06-29T19:10:23.924Z</time>
    </trkpt>
    <trkpt lat="56.49988" lon="60.80608">
        <ele>242.4</ele>
        <time>2022-06-29T19:10:23.924Z</time>
    </trkpt>
    <trkpt lat="56.49977" lon="60.80607">
        <ele>240.8</ele>
        <time>2022-06-29T19:10:29.377Z</time>
    </trkpt>
    <trkpt lat="56.49928" lon="60.80605">
        <ele>221.8</ele>
        <time>2022-06-29T19:10:53.645Z</time>
    </trkpt>
    <trkpt lat="56.49879" lon="60.80603">
        <ele>219.2</ele>
        <time>2022-06-29T19:11:17.913Z</time>
    </trkpt>
    <trkpt lat="56.49829" lon="60.80601">
        <ele>214.4</ele>
        <time>2022-06-29T19:11:42.676Z</time>
    </trkpt>
    <trkpt lat="56.4978" lon="60.80599">
        <ele>211.1</ele>
        <time>2022-06-29T19:12:06.944Z</time>
    </trkpt>
    <trkpt lat="56.4978" lon="60.80598">
        <ele>211.4</ele>
        <time>2022-06-29T19:12:07.217Z</time>
    </trkpt>
    <trkpt lat="56.4978" lon="60.80598">
        <ele>211.4</ele>
        <time>2022-06-29T19:12:07.217Z</time>
    </trkpt>
    <trkpt lat="56.49754" lon="60.80597">
        <ele>211.1</ele>
        <time>2022-06-29T19:12:20.093Z</time>
    </trkpt>
    <trkpt lat="56.49681" lon="60.80587">
        <ele>230.9</ele>
        <time>2022-06-29T19:12:56.342Z</time>
    </trkpt>
    <trkpt lat="56.49681" lon="60.80587">
        <ele>230.9</ele>
        <time>2022-06-29T19:12:56.342Z</time>
    </trkpt>
    <trkpt lat="56.49681" lon="60.80587">
        <ele>230.9</ele>
        <time>2022-06-29T19:12:56.342Z</time>
    </trkpt>
    <trkpt lat="56.49631" lon="60.8058">
        <ele>226.2</ele>
        <time>2022-06-29T19:13:21.173Z</time>
    </trkpt>
    <trkpt lat="56.49631" lon="60.8058">
        <ele>226.2</ele>
        <time>2022-06-29T19:13:21.173Z</time>
    </trkpt>
    <trkpt lat="56.49631" lon="60.8058">
        <ele>226.2</ele>
        <time>2022-06-29T19:13:21.173Z</time>
    </trkpt>
    <trkpt lat="56.49622" lon="60.80768">
        <ele>222.1</ele>
        <time>2022-06-29T19:14:12.750Z</time>
    </trkpt>
    <trkpt lat="56.49621" lon="60.80778">
        <ele>221.7</ele>
        <time>2022-06-29T19:14:15.527Z</time>
    </trkpt>
    <trkpt lat="56.49619" lon="60.80819">
        <ele>223.5</ele>
        <time>2022-06-29T19:14:26.776Z</time>
    </trkpt>
    <trkpt lat="56.49619" lon="60.80819">
        <ele>223.5</ele>
        <time>2022-06-29T19:14:26.776Z</time>
    </trkpt>
    <trkpt lat="56.49619" lon="60.80819">
        <ele>223.5</ele>
        <time>2022-06-29T19:14:26.776Z</time>
    </trkpt>
    <trkpt lat="56.49566" lon="60.80814">
        <ele>240.5</ele>
        <time>2022-06-29T19:14:53.054Z</time>
    </trkpt>
    <trkpt lat="56.4957" lon="60.80813">
        <ele>239.6</ele>
        <time>2022-06-29T19:14:55.053Z</time>
    </trkpt>
    <trkpt lat="56.4957" lon="60.80813">
        <ele>239.6</ele>
        <time>2022-06-29T19:14:55.053Z</time>
    </trkpt>
    <trkpt lat="56.49557" lon="60.80829">
        <ele>243.4</ele>
        <time>2022-06-29T19:15:02.835Z</time>
    </trkpt>
    <trkpt lat="56.49557" lon="60.80829">
        <ele>243.4</ele>
        <time>2022-06-29T19:15:02.835Z</time>
    </trkpt>
    <trkpt lat="56.49508" lon="60.8083">
        <ele>231.7</ele>
        <time>2022-06-29T19:15:27.099Z</time>
    </trkpt>
    <trkpt lat="56.49492" lon="60.8083">
        <ele>226.5</ele>
        <time>2022-06-29T19:15:35.021Z</time>
    </trkpt>
    <trkpt lat="56.49485" lon="60.80834">
        <ele>224.7</ele>
        <time>2022-06-29T19:15:38.655Z</time>
    </trkpt>
    <trkpt lat="56.49481" lon="60.80849">
        <ele>224.3</ele>
        <time>2022-06-29T19:15:43.208Z</time>
    </trkpt>
    <trkpt lat="56.49477" lon="60.80869">
        <ele>223.8</ele>
        <time>2022-06-29T19:15:49.022Z</time>
    </trkpt>
    <trkpt lat="56.49471" lon="60.80887">
        <ele>222.8</ele>
        <time>2022-06-29T19:15:54.769Z</time>
    </trkpt>
    <trkpt lat="56.49463" lon="60.80902">
        <ele>223.1</ele>
        <time>2022-06-29T19:16:00.469Z</time>
    </trkpt>
    <trkpt lat="56.49463" lon="60.80902">
        <ele>223.1</ele>
        <time>2022-06-29T19:16:00.469Z</time>
    </trkpt>
    <trkpt lat="56.49463" lon="60.80902">
        <ele>223.1</ele>
        <time>2022-06-29T19:16:00.469Z</time>
    </trkpt>
    <trkpt lat="56.49449" lon="60.80916">
        <ele>223.3</ele>
        <time>2022-06-29T19:16:08.387Z</time>
    </trkpt>
    <trkpt lat="56.49434" lon="60.80912">
        <ele>220.1</ele>
        <time>2022-06-29T19:16:15.894Z</time>
    </trkpt>
    <trkpt lat="56.49417" lon="60.80912">
        <ele>216.1</ele>
        <time>2022-06-29T19:16:24.311Z</time>
    </trkpt>
    <trkpt lat="56.49417" lon="60.8091">
        <ele>216.5</ele>
        <time>2022-06-29T19:16:24.857Z</time>
    </trkpt>
    <trkpt lat="56.49404446598196" lon="60.80920516977775">
        <ele>225.5</ele>
        <time>2022-06-29T19:16:30.777Z</time>
    </trkpt>
    <trkpt lat="56.49402928547417" lon="60.80925144814864">
        <ele>229.9</ele>
        <time>2022-06-29T19:16:42.987Z</time>
    </trkpt>
    </trkseg>
</trk>
</gpx>